<?xml version="1.0" encoding="UTF-8"?>
<gpx version="1.1" creator="Apple Health Export" xmlns="http://www.topografix.com/GPX/1/1" xmlns:xsi="http://www.w3.org/2001/XMLSchema-instance" xsi:schemaLocation="http://www.topografix.com/GPX/1/1 http://www.topografix.com/GPX/1/1/gpx.xsd">
  <metadata>
    <time>2022-04-11T14:56:52Z</time>
  </metadata>
  <trk>
    <name>Route 2021-08-12 2:18pm</name>
    <trkseg>
      <trkpt lon="-3.339438" lat="54.576795"><ele>126.988235</ele><time>2021-08-12T09:15:39Z</time><extensions><speed>1.392706</speed><course>72.989487</course><hAcc>2.572716</hAcc><vAcc>2.103218</vAcc></extensions></trkpt>
      <trkpt lon="-3.339410" lat="54.576799"><ele>127.119652</ele><time>2021-08-12T09:15:40Z</time><extensions><speed>1.393238</speed><course>72.989487</course><hAcc>2.207434</hAcc><vAcc>1.839566</vAcc></extensions></trkpt>
      <trkpt lon="-3.339398" lat="54.576800"><ele>127.172928</ele><time>2021-08-12T09:15:41Z</time><extensions><speed>1.393411</speed><course>69.540230</course><hAcc>2.076305</hAcc><vAcc>1.744845</vAcc></extensions></trkpt>
      <trkpt lon="-3.339378" lat="54.576802"><ele>127.265282</ele><time>2021-08-12T09:15:42Z</time><extensions><speed>1.394120</speed><course>72.771591</course><hAcc>1.874235</hAcc><vAcc>1.598503</vAcc></extensions></trkpt>
      <trkpt lon="-3.339358" lat="54.576804"><ele>127.357643</ele><time>2021-08-12T09:15:43Z</time><extensions><speed>1.395501</speed><course>69.183746</course><hAcc>1.704325</hAcc><vAcc>1.474809</vAcc></extensions></trkpt>
      <trkpt lon="-3.339338" lat="54.576807"><ele>127.450035</ele><time>2021-08-12T09:15:44Z</time><extensions><speed>1.398323</speed><course>74.967865</course><hAcc>1.566230</hAcc><vAcc>1.373474</vAcc></extensions></trkpt>
      <trkpt lon="-3.339317" lat="54.576809"><ele>127.545990</ele><time>2021-08-12T09:15:44Z</time><extensions><speed>1.403913</speed><course>75.133301</course><hAcc>1.454679</hAcc><vAcc>1.290714</vAcc></extensions></trkpt>
      <trkpt lon="-3.339295" lat="54.576811"><ele>127.643471</ele><time>2021-08-12T09:15:45Z</time><extensions><speed>1.413422</speed><course>66.099251</course><hAcc>1.370893</hAcc><vAcc>1.227744</vAcc></extensions></trkpt>
      <trkpt lon="-3.339274" lat="54.576814"><ele>127.741241</ele><time>2021-08-12T09:15:46Z</time><extensions><speed>1.428179</speed><course>81.237114</course><hAcc>1.311941</hAcc><vAcc>1.182895</vAcc></extensions></trkpt>
      <trkpt lon="-3.339252" lat="54.576816"><ele>127.839470</ele><time>2021-08-12T09:15:47Z</time><extensions><speed>1.449620</speed><course>80.566093</course><hAcc>1.272793</hAcc><vAcc>1.152885</vAcc></extensions></trkpt>
      <trkpt lon="-3.339230" lat="54.576818"><ele>127.938309</ele><time>2021-08-12T09:15:48Z</time><extensions><speed>1.478975</speed><course>80.566109</course><hAcc>1.248640</hAcc><vAcc>1.134421</vAcc></extensions></trkpt>
      <trkpt lon="-3.339207" lat="54.576821"><ele>128.037918</ele><time>2021-08-12T09:15:49Z</time><extensions><speed>1.517413</speed><course>80.566093</course><hAcc>1.235277</hAcc><vAcc>1.124453</vAcc></extensions></trkpt>
      <trkpt lon="-3.339183" lat="54.576823"><ele>128.138458</ele><time>2021-08-12T09:15:50Z</time><extensions><speed>1.563564</speed><course>80.566093</course><hAcc>1.229337</hAcc><vAcc>1.120352</vAcc></extensions></trkpt>
      <trkpt lon="-3.339159" lat="54.576825"><ele>128.240173</ele><time>2021-08-12T09:15:51Z</time><extensions><speed>1.611411</speed><course>80.566093</course><hAcc>1.228353</hAcc><vAcc>1.119995</vAcc></extensions></trkpt>
      <trkpt lon="-3.339134" lat="54.576828"><ele>128.343460</ele><time>2021-08-12T09:15:52Z</time><extensions><speed>1.650446</speed><course>77.344681</course><hAcc>1.230478</hAcc><vAcc>1.121672</vAcc></extensions></trkpt>
      <trkpt lon="-3.339109" lat="54.576830"><ele>128.448868</ele><time>2021-08-12T09:15:53Z</time><extensions><speed>1.675856</speed><course>77.923714</course><hAcc>1.234141</hAcc><vAcc>1.123948</vAcc></extensions></trkpt>
      <trkpt lon="-3.339083" lat="54.576833"><ele>128.556900</ele><time>2021-08-12T09:15:54Z</time><extensions><speed>1.690384</speed><course>87.073212</course><hAcc>1.237815</hAcc><vAcc>1.125551</vAcc></extensions></trkpt>
      <trkpt lon="-3.339057" lat="54.576835"><ele>128.667938</ele><time>2021-08-12T09:15:55Z</time><extensions><speed>1.695676</speed><course>79.233902</course><hAcc>1.240063</hAcc><vAcc>1.125378</vAcc></extensions></trkpt>
      <trkpt lon="-3.339031" lat="54.576838"><ele>128.782288</ele><time>2021-08-12T09:15:56Z</time><extensions><speed>1.692929</speed><course>96.572746</course><hAcc>1.239856</hAcc><vAcc>1.122602</vAcc></extensions></trkpt>
      <trkpt lon="-3.339006" lat="54.576840"><ele>128.900208</ele><time>2021-08-12T09:15:57Z</time><extensions><speed>1.683757</speed><course>86.920219</course><hAcc>1.236490</hAcc><vAcc>1.116622</vAcc></extensions></trkpt>
      <trkpt lon="-3.338980" lat="54.576843"><ele>129.021851</ele><time>2021-08-12T09:15:58Z</time><extensions><speed>1.669366</speed><course>76.786201</course><hAcc>1.229356</hAcc><vAcc>1.106953</vAcc></extensions></trkpt>
      <trkpt lon="-3.338955" lat="54.576845"><ele>129.147293</ele><time>2021-08-12T09:15:59Z</time><extensions><speed>1.650653</speed><course>77.162971</course><hAcc>1.218045</hAcc><vAcc>1.093254</vAcc></extensions></trkpt>
      <trkpt lon="-3.338930" lat="54.576848"><ele>129.276474</ele><time>2021-08-12T09:16:00Z</time><extensions><speed>1.628457</speed><course>69.604996</course><hAcc>1.202441</hAcc><vAcc>1.075362</vAcc></extensions></trkpt>
      <trkpt lon="-3.338905" lat="54.576850"><ele>129.409164</ele><time>2021-08-12T09:16:01Z</time><extensions><speed>1.603572</speed><course>76.115456</course><hAcc>1.182684</hAcc><vAcc>1.053273</vAcc></extensions></trkpt>
      <trkpt lon="-3.338881" lat="54.576853"><ele>129.544876</ele><time>2021-08-12T09:16:02Z</time><extensions><speed>1.576687</speed><course>83.646278</course><hAcc>1.159160</hAcc><vAcc>1.027151</vAcc></extensions></trkpt>
      <trkpt lon="-3.338857" lat="54.576855"><ele>129.682938</ele><time>2021-08-12T09:16:03Z</time><extensions><speed>1.548833</speed><course>76.408623</course><hAcc>1.132549</hAcc><vAcc>0.997361</vAcc></extensions></trkpt>
      <trkpt lon="-3.338834" lat="54.576858"><ele>129.822403</ele><time>2021-08-12T09:16:04Z</time><extensions><speed>1.521845</speed><course>79.439453</course><hAcc>1.103501</hAcc><vAcc>0.964381</vAcc></extensions></trkpt>
      <trkpt lon="-3.338811" lat="54.576860"><ele>129.962067</ele><time>2021-08-12T09:16:05Z</time><extensions><speed>1.497015</speed><course>75.300941</course><hAcc>1.072587</hAcc><vAcc>0.928821</vAcc></extensions></trkpt>
      <trkpt lon="-3.338788" lat="54.576862"><ele>130.100555</ele><time>2021-08-12T09:16:06Z</time><extensions><speed>1.474762</speed><course>76.126534</course><hAcc>1.040766</hAcc><vAcc>0.891631</vAcc></extensions></trkpt>
      <trkpt lon="-3.338766" lat="54.576864"><ele>130.236374</ele><time>2021-08-12T09:16:07Z</time><extensions><speed>1.455085</speed><course>75.233688</course><hAcc>1.009460</hAcc><vAcc>0.854181</vAcc></extensions></trkpt>
      <trkpt lon="-3.338744" lat="54.576866"><ele>130.367813</ele><time>2021-08-12T09:16:08Z</time><extensions><speed>1.438590</speed><course>81.891060</course><hAcc>0.980189</hAcc><vAcc>0.818158</vAcc></extensions></trkpt>
      <trkpt lon="-3.338722" lat="54.576869"><ele>130.493317</ele><time>2021-08-12T09:16:09Z</time><extensions><speed>1.425825</speed><course>78.263519</course><hAcc>0.954230</hAcc><vAcc>0.785274</vAcc></extensions></trkpt>
      <trkpt lon="-3.338700" lat="54.576871"><ele>130.612076</ele><time>2021-08-12T09:16:10Z</time><extensions><speed>1.416521</speed><course>74.907532</course><hAcc>0.932345</hAcc><vAcc>0.756776</vAcc></extensions></trkpt>
      <trkpt lon="-3.338679" lat="54.576873"><ele>130.724152</ele><time>2021-08-12T09:16:11Z</time><extensions><speed>1.410107</speed><course>84.941742</course><hAcc>0.914743</hAcc><vAcc>0.733251</vAcc></extensions></trkpt>
      <trkpt lon="-3.338657" lat="54.576875"><ele>130.830017</ele><time>2021-08-12T09:16:12Z</time><extensions><speed>1.405611</speed><course>73.584358</course><hAcc>0.901207</hAcc><vAcc>0.714713</vAcc></extensions></trkpt>
      <trkpt lon="-3.338636" lat="54.576878"><ele>130.930313</ele><time>2021-08-12T09:16:13Z</time><extensions><speed>1.402345</speed><course>96.346313</course><hAcc>0.891246</hAcc><vAcc>0.700756</vAcc></extensions></trkpt>
      <trkpt lon="-3.338615" lat="54.576880"><ele>131.025879</ele><time>2021-08-12T09:16:14Z</time><extensions><speed>1.399889</speed><course>87.208282</course><hAcc>0.884237</hAcc><vAcc>0.690713</vAcc></extensions></trkpt>
      <trkpt lon="-3.338594" lat="54.576883"><ele>131.117981</ele><time>2021-08-12T09:16:15Z</time><extensions><speed>1.397750</speed><course>71.034035</course><hAcc>0.879529</hAcc><vAcc>0.683813</vAcc></extensions></trkpt>
      <trkpt lon="-3.338573" lat="54.576886"><ele>131.208160</ele><time>2021-08-12T09:16:16Z</time><extensions><speed>1.395705</speed><course>74.315559</course><hAcc>0.876525</hAcc><vAcc>0.679295</vAcc></extensions></trkpt>
      <trkpt lon="-3.338552" lat="54.576888"><ele>131.297882</ele><time>2021-08-12T09:16:17Z</time><extensions><speed>1.393839</speed><course>82.074326</course><hAcc>0.874715</hAcc><vAcc>0.676486</vAcc></extensions></trkpt>
      <trkpt lon="-3.338531" lat="54.576892"><ele>131.388306</ele><time>2021-08-12T09:16:18Z</time><extensions><speed>1.392551</speed><course>78.798851</course><hAcc>0.873698</hAcc><vAcc>0.674837</vAcc></extensions></trkpt>
      <trkpt lon="-3.338510" lat="54.576895"><ele>131.480362</ele><time>2021-08-12T09:16:19Z</time><extensions><speed>1.392586</speed><course>71.049065</course><hAcc>0.873177</hAcc><vAcc>0.673934</vAcc></extensions></trkpt>
      <trkpt lon="-3.338489" lat="54.576899"><ele>131.574844</ele><time>2021-08-12T09:16:20Z</time><extensions><speed>1.394770</speed><course>66.417450</course><hAcc>0.872944</hAcc><vAcc>0.673486</vAcc></extensions></trkpt>
      <trkpt lon="-3.338469" lat="54.576902"><ele>131.672409</ele><time>2021-08-12T09:16:21Z</time><extensions><speed>1.399564</speed><course>67.881187</course><hAcc>0.872864</hAcc><vAcc>0.673307</vAcc></extensions></trkpt>
      <trkpt lon="-3.338448" lat="54.576907"><ele>131.773575</ele><time>2021-08-12T09:16:22Z</time><extensions><speed>1.406911</speed><course>73.946594</course><hAcc>0.872858</hAcc><vAcc>0.673289</vAcc></extensions></trkpt>
      <trkpt lon="-3.338428" lat="54.576911"><ele>131.878708</ele><time>2021-08-12T09:16:23Z</time><extensions><speed>1.416479</speed><course>66.868568</course><hAcc>0.872881</hAcc><vAcc>0.673378</vAcc></extensions></trkpt>
      <trkpt lon="-3.338407" lat="54.576915"><ele>131.987900</ele><time>2021-08-12T09:16:24Z</time><extensions><speed>1.427669</speed><course>57.370388</course><hAcc>0.872918</hAcc><vAcc>0.673550</vAcc></extensions></trkpt>
      <trkpt lon="-3.338387" lat="54.576920"><ele>132.100998</ele><time>2021-08-12T09:16:25Z</time><extensions><speed>1.439806</speed><course>72.859169</course><hAcc>0.872962</hAcc><vAcc>0.673802</vAcc></extensions></trkpt>
      <trkpt lon="-3.338366" lat="54.576925"><ele>132.217484</ele><time>2021-08-12T09:16:26Z</time><extensions><speed>1.452401</speed><course>73.476959</course><hAcc>0.873016</hAcc><vAcc>0.674140</vAcc></extensions></trkpt>
      <trkpt lon="-3.338345" lat="54.576930"><ele>132.336777</ele><time>2021-08-12T09:16:27Z</time><extensions><speed>1.465154</speed><course>70.985191</course><hAcc>0.873087</hAcc><vAcc>0.674575</vAcc></extensions></trkpt>
      <trkpt lon="-3.338324" lat="54.576936"><ele>132.458374</ele><time>2021-08-12T09:16:28Z</time><extensions><speed>1.477714</speed><course>67.094063</course><hAcc>0.873177</hAcc><vAcc>0.675112</vAcc></extensions></trkpt>
      <trkpt lon="-3.338303" lat="54.576941"><ele>132.581833</ele><time>2021-08-12T09:16:29Z</time><extensions><speed>1.489642</speed><course>63.802017</course><hAcc>0.873288</hAcc><vAcc>0.675744</vAcc></extensions></trkpt>
      <trkpt lon="-3.338282" lat="54.576947"><ele>132.706543</ele><time>2021-08-12T09:16:30Z</time><extensions><speed>1.500662</speed><course>59.738853</course><hAcc>0.873415</hAcc><vAcc>0.676444</vAcc></extensions></trkpt>
      <trkpt lon="-3.338261" lat="54.576952"><ele>132.831863</ele><time>2021-08-12T09:16:31Z</time><extensions><speed>1.510450</speed><course>64.752533</course><hAcc>0.873552</hAcc><vAcc>0.677156</vAcc></extensions></trkpt>
      <trkpt lon="-3.338240" lat="54.576958"><ele>132.957260</ele><time>2021-08-12T09:16:32Z</time><extensions><speed>1.518539</speed><course>62.678837</course><hAcc>0.873685</hAcc><vAcc>0.677810</vAcc></extensions></trkpt>
      <trkpt lon="-3.338219" lat="54.576964"><ele>133.082413</ele><time>2021-08-12T09:16:33Z</time><extensions><speed>1.524784</speed><course>67.622025</course><hAcc>0.873806</hAcc><vAcc>0.678355</vAcc></extensions></trkpt>
      <trkpt lon="-3.338198" lat="54.576970"><ele>133.207169</ele><time>2021-08-12T09:16:34Z</time><extensions><speed>1.529758</speed><course>76.998230</course><hAcc>0.873909</hAcc><vAcc>0.678767</vAcc></extensions></trkpt>
      <trkpt lon="-3.338177" lat="54.576977"><ele>133.331573</ele><time>2021-08-12T09:16:35Z</time><extensions><speed>1.534273</speed><course>71.279175</course><hAcc>0.873991</hAcc><vAcc>0.679046</vAcc></extensions></trkpt>
      <trkpt lon="-3.338156" lat="54.576983"><ele>133.455658</ele><time>2021-08-12T09:16:36Z</time><extensions><speed>1.538588</speed><course>66.215858</course><hAcc>0.874057</hAcc><vAcc>0.679217</vAcc></extensions></trkpt>
      <trkpt lon="-3.338135" lat="54.576989"><ele>133.579483</ele><time>2021-08-12T09:16:37Z</time><extensions><speed>1.542703</speed><course>65.869171</course><hAcc>0.874112</hAcc><vAcc>0.679319</vAcc></extensions></trkpt>
      <trkpt lon="-3.338114" lat="54.576996"><ele>133.703033</ele><time>2021-08-12T09:16:38Z</time><extensions><speed>1.546931</speed><course>67.480362</course><hAcc>0.874165</hAcc><vAcc>0.679400</vAcc></extensions></trkpt>
      <trkpt lon="-3.338093" lat="54.577003"><ele>133.826187</ele><time>2021-08-12T09:16:39Z</time><extensions><speed>1.551247</speed><course>62.467888</course><hAcc>0.874228</hAcc><vAcc>0.679514</vAcc></extensions></trkpt>
      <trkpt lon="-3.338072" lat="54.577010"><ele>133.948730</ele><time>2021-08-12T09:16:40Z</time><extensions><speed>1.555117</speed><course>57.403885</course><hAcc>0.874312</hAcc><vAcc>0.679718</vAcc></extensions></trkpt>
      <trkpt lon="-3.338051" lat="54.577017"><ele>134.070251</ele><time>2021-08-12T09:16:41Z</time><extensions><speed>1.557891</speed><course>56.104736</course><hAcc>0.874427</hAcc><vAcc>0.680062</vAcc></extensions></trkpt>
      <trkpt lon="-3.338030" lat="54.577024"><ele>134.190262</ele><time>2021-08-12T09:16:42Z</time><extensions><speed>1.558643</speed><course>57.135769</course><hAcc>0.874583</hAcc><vAcc>0.680590</vAcc></extensions></trkpt>
      <trkpt lon="-3.338009" lat="54.577031"><ele>134.308441</ele><time>2021-08-12T09:16:43Z</time><extensions><speed>1.556793</speed><course>59.466648</course><hAcc>0.874784</hAcc><vAcc>0.681323</vAcc></extensions></trkpt>
      <trkpt lon="-3.337989" lat="54.577038"><ele>134.424759</ele><time>2021-08-12T09:16:44Z</time><extensions><speed>1.551851</speed><course>56.466339</course><hAcc>0.875031</hAcc><vAcc>0.682261</vAcc></extensions></trkpt>
      <trkpt lon="-3.337968" lat="54.577045"><ele>134.539612</ele><time>2021-08-12T09:16:45Z</time><extensions><speed>1.542701</speed><course>61.082169</course><hAcc>0.875320</hAcc><vAcc>0.683384</vAcc></extensions></trkpt>
      <trkpt lon="-3.337948" lat="54.577052"><ele>134.653397</ele><time>2021-08-12T09:16:46Z</time><extensions><speed>1.528569</speed><course>63.000797</course><hAcc>0.875645</hAcc><vAcc>0.684656</vAcc></extensions></trkpt>
      <trkpt lon="-3.337927" lat="54.577059"><ele>134.766296</ele><time>2021-08-12T09:16:47Z</time><extensions><speed>1.509002</speed><course>58.373146</course><hAcc>0.875999</hAcc><vAcc>0.686034</vAcc></extensions></trkpt>
      <trkpt lon="-3.337908" lat="54.577066"><ele>134.878433</ele><time>2021-08-12T09:16:48Z</time><extensions><speed>1.483508</speed><course>59.591164</course><hAcc>0.876370</hAcc><vAcc>0.687475</vAcc></extensions></trkpt>
      <trkpt lon="-3.337888" lat="54.577073"><ele>134.989639</ele><time>2021-08-12T09:16:49Z</time><extensions><speed>1.451136</speed><course>56.078835</course><hAcc>0.876751</hAcc><vAcc>0.688940</vAcc></extensions></trkpt>
      <trkpt lon="-3.337869" lat="54.577079"><ele>135.099197</ele><time>2021-08-12T09:16:50Z</time><extensions><speed>1.410123</speed><course>61.452141</course><hAcc>0.877134</hAcc><vAcc>0.690388</vAcc></extensions></trkpt>
      <trkpt lon="-3.337851" lat="54.577086"><ele>135.206070</ele><time>2021-08-12T09:16:51Z</time><extensions><speed>1.359089</speed><course>62.349373</course><hAcc>0.877510</hAcc><vAcc>0.691782</vAcc></extensions></trkpt>
      <trkpt lon="-3.337833" lat="54.577092"><ele>135.309174</ele><time>2021-08-12T09:16:52Z</time><extensions><speed>1.297408</speed><course>67.502327</course><hAcc>0.877876</hAcc><vAcc>0.693098</vAcc></extensions></trkpt>
      <trkpt lon="-3.337817" lat="54.577098"><ele>135.407379</ele><time>2021-08-12T09:16:53Z</time><extensions><speed>1.224530</speed><course>65.148994</course><hAcc>0.878228</hAcc><vAcc>0.694322</vAcc></extensions></trkpt>
      <trkpt lon="-3.337801" lat="54.577104"><ele>135.499283</ele><time>2021-08-12T09:16:54Z</time><extensions><speed>1.140412</speed><course>61.604351</course><hAcc>0.878566</hAcc><vAcc>0.695464</vAcc></extensions></trkpt>
      <trkpt lon="-3.337787" lat="54.577109"><ele>135.583267</ele><time>2021-08-12T09:16:55Z</time><extensions><speed>1.046256</speed><course>67.356651</course><hAcc>0.878890</hAcc><vAcc>0.696548</vAcc></extensions></trkpt>
      <trkpt lon="-3.337774" lat="54.577114"><ele>135.658157</ele><time>2021-08-12T09:16:56Z</time><extensions><speed>0.943955</speed><course>56.187717</course><hAcc>0.879204</hAcc><vAcc>0.697608</vAcc></extensions></trkpt>
      <trkpt lon="-3.337763" lat="54.577118"><ele>135.723923</ele><time>2021-08-12T09:16:57Z</time><extensions><speed>0.836300</speed><course>56.273357</course><hAcc>0.879509</hAcc><vAcc>0.698670</vAcc></extensions></trkpt>
      <trkpt lon="-3.337753" lat="54.577122"><ele>135.781433</ele><time>2021-08-12T09:16:58Z</time><extensions><speed>0.727719</speed><course>59.042984</course><hAcc>0.879804</hAcc><vAcc>0.699751</vAcc></extensions></trkpt>
      <trkpt lon="-3.337744" lat="54.577125"><ele>135.831772</ele><time>2021-08-12T09:16:59Z</time><extensions><speed>0.623456</speed><course>46.754299</course><hAcc>0.880090</hAcc><vAcc>0.700849</vAcc></extensions></trkpt>
      <trkpt lon="-3.337737" lat="54.577128"><ele>135.875732</ele><time>2021-08-12T09:17:00Z</time><extensions><speed>0.527942</speed><course>46.754295</course><hAcc>0.880364</hAcc><vAcc>0.701944</vAcc></extensions></trkpt>
      <trkpt lon="-3.337730" lat="54.577131"><ele>135.914047</ele><time>2021-08-12T09:17:01Z</time><extensions><speed>0.443865</speed><course>46.754295</course><hAcc>0.880623</hAcc><vAcc>0.703001</vAcc></extensions></trkpt>
      <trkpt lon="-3.337725" lat="54.577133"><ele>135.947357</ele><time>2021-08-12T09:17:02Z</time><extensions><speed>0.372434</speed><course>46.754295</course><hAcc>0.880861</hAcc><vAcc>0.703974</vAcc></extensions></trkpt>
      <trkpt lon="-3.337720" lat="54.577134"><ele>135.976105</ele><time>2021-08-12T09:17:03Z</time><extensions><speed>0.313969</speed><course>46.754295</course><hAcc>0.881074</hAcc><vAcc>0.704819</vAcc></extensions></trkpt>
      <trkpt lon="-3.337717" lat="54.577136"><ele>136.000641</ele><time>2021-08-12T09:17:04Z</time><extensions><speed>0.268049</speed><course>46.754295</course><hAcc>0.881258</hAcc><vAcc>0.705504</vAcc></extensions></trkpt>
      <trkpt lon="-3.337713" lat="54.577137"><ele>136.021301</ele><time>2021-08-12T09:17:05Z</time><extensions><speed>0.233557</speed><course>46.754295</course><hAcc>0.881410</hAcc><vAcc>0.706018</vAcc></extensions></trkpt>
      <trkpt lon="-3.337710" lat="54.577137"><ele>136.038361</ele><time>2021-08-12T09:17:06Z</time><extensions><speed>0.208443</speed><course>46.754292</course><hAcc>0.881527</hAcc><vAcc>0.706367</vAcc></extensions></trkpt>
      <trkpt lon="-3.337707" lat="54.577138"><ele>136.052032</ele><time>2021-08-12T09:17:07Z</time><extensions><speed>0.189346</speed><course>46.754295</course><hAcc>0.881608</hAcc><vAcc>0.706568</vAcc></extensions></trkpt>
      <trkpt lon="-3.337704" lat="54.577138"><ele>136.062317</ele><time>2021-08-12T09:17:08Z</time><extensions><speed>0.171907</speed><course>86.257805</course><hAcc>0.881653</hAcc><vAcc>0.706648</vAcc></extensions></trkpt>
      <trkpt lon="-3.337702" lat="54.577138"><ele>136.069092</ele><time>2021-08-12T09:17:09Z</time><extensions><speed>0.152938</speed><course>92.864906</course><hAcc>0.881665</hAcc><vAcc>0.706630</vAcc></extensions></trkpt>
      <trkpt lon="-3.337699" lat="54.577138"><ele>136.072144</ele><time>2021-08-12T09:17:10Z</time><extensions><speed>0.132531</speed><course>94.458534</course><hAcc>0.881644</hAcc><vAcc>0.706529</vAcc></extensions></trkpt>
      <trkpt lon="-3.337698" lat="54.577138"><ele>136.071457</ele><time>2021-08-12T09:17:11Z</time><extensions><speed>0.114956</speed><course>89.165138</course><hAcc>0.881596</hAcc><vAcc>0.706354</vAcc></extensions></trkpt>
      <trkpt lon="-3.337696" lat="54.577138"><ele>136.067398</ele><time>2021-08-12T09:17:12Z</time><extensions><speed>0.108075</speed><course>98.187202</course><hAcc>0.881526</hAcc><vAcc>0.706108</vAcc></extensions></trkpt>
      <trkpt lon="-3.337694" lat="54.577138"><ele>136.060547</ele><time>2021-08-12T09:17:13Z</time><extensions><speed>0.120617</speed><course>262.094696</course><hAcc>0.881444</hAcc><vAcc>0.705793</vAcc></extensions></trkpt>
      <trkpt lon="-3.337692" lat="54.577138"><ele>136.051605</ele><time>2021-08-12T09:17:14Z</time><extensions><speed>0.158531</speed><course>273.339569</course><hAcc>0.881363</hAcc><vAcc>0.705410</vAcc></extensions></trkpt>
      <trkpt lon="-3.337689" lat="54.577138"><ele>136.041687</ele><time>2021-08-12T09:17:15Z</time><extensions><speed>0.223623</speed><course>270.133057</course><hAcc>0.881303</hAcc><vAcc>0.704970</vAcc></extensions></trkpt>
      <trkpt lon="-3.337685" lat="54.577138"><ele>136.032471</ele><time>2021-08-12T09:17:16Z</time><extensions><speed>0.314030</speed><course>264.401459</course><hAcc>0.881290</hAcc><vAcc>0.704495</vAcc></extensions></trkpt>
      <trkpt lon="-3.337679" lat="54.577138"><ele>136.025757</ele><time>2021-08-12T09:17:17Z</time><extensions><speed>0.424619</speed><course>271.206299</course><hAcc>0.881357</hAcc><vAcc>0.704024</vAcc></extensions></trkpt>
      <trkpt lon="-3.337672" lat="54.577138"><ele>136.022812</ele><time>2021-08-12T09:17:18Z</time><extensions><speed>0.548983</speed><course>270.479279</course><hAcc>0.881547</hAcc><vAcc>0.703613</vAcc></extensions></trkpt>
      <trkpt lon="-3.337662" lat="54.577138"><ele>136.023987</ele><time>2021-08-12T09:17:19Z</time><extensions><speed>0.680644</speed><course>270.479279</course><hAcc>0.881905</hAcc><vAcc>0.703334</vAcc></extensions></trkpt>
      <trkpt lon="-3.337650" lat="54.577138"><ele>136.028931</ele><time>2021-08-12T09:17:20Z</time><extensions><speed>0.812555</speed><course>270.479279</course><hAcc>0.882483</hAcc><vAcc>0.703266</vAcc></extensions></trkpt>
      <trkpt lon="-3.337637" lat="54.577139"><ele>136.036713</ele><time>2021-08-12T09:17:21Z</time><extensions><speed>0.937050</speed><course>92.836548</course><hAcc>0.883324</hAcc><vAcc>0.703463</vAcc></extensions></trkpt>
      <trkpt lon="-3.337622" lat="54.577139"><ele>136.046310</ele><time>2021-08-12T09:17:22Z</time><extensions><speed>1.048158</speed><course>91.847809</course><hAcc>0.884463</hAcc><vAcc>0.703942</vAcc></extensions></trkpt>
      <trkpt lon="-3.337605" lat="54.577140"><ele>136.057251</ele><time>2021-08-12T09:17:23Z</time><extensions><speed>1.142922</speed><course>96.972961</course><hAcc>0.885910</hAcc><vAcc>0.704671</vAcc></extensions></trkpt>
      <trkpt lon="-3.337586" lat="54.577140"><ele>136.069992</ele><time>2021-08-12T09:17:24Z</time><extensions><speed>1.220332</speed><course>101.432434</course><hAcc>0.887641</hAcc><vAcc>0.705580</vAcc></extensions></trkpt>
      <trkpt lon="-3.337567" lat="54.577141"><ele>136.085602</ele><time>2021-08-12T09:17:25Z</time><extensions><speed>1.279891</speed><course>89.921867</course><hAcc>0.889586</hAcc><vAcc>0.706568</vAcc></extensions></trkpt>
      <trkpt lon="-3.337547" lat="54.577142"><ele>136.105408</ele><time>2021-08-12T09:17:26Z</time><extensions><speed>1.320949</speed><course>79.468422</course><hAcc>0.891619</hAcc><vAcc>0.707508</vAcc></extensions></trkpt>
      <trkpt lon="-3.337527" lat="54.577143"><ele>136.130325</ele><time>2021-08-12T09:17:27Z</time><extensions><speed>1.343164</speed><course>79.668663</course><hAcc>0.893563</hAcc><vAcc>0.708263</vAcc></extensions></trkpt>
      <trkpt lon="-3.337506" lat="54.577144"><ele>136.161011</ele><time>2021-08-12T09:17:28Z</time><extensions><speed>1.346978</speed><course>70.198914</course><hAcc>0.895208</hAcc><vAcc>0.708713</vAcc></extensions></trkpt>
      <trkpt lon="-3.337485" lat="54.577146"><ele>136.197815</ele><time>2021-08-12T09:17:29Z</time><extensions><speed>1.333352</speed><course>85.811096</course><hAcc>0.896362</hAcc><vAcc>0.708815</vAcc></extensions></trkpt>
      <trkpt lon="-3.337465" lat="54.577147"><ele>136.240677</ele><time>2021-08-12T09:17:30Z</time><extensions><speed>1.303855</speed><course>87.515213</course><hAcc>0.896954</hAcc><vAcc>0.708705</vAcc></extensions></trkpt>
      <trkpt lon="-3.337445" lat="54.577148"><ele>136.289078</ele><time>2021-08-12T09:17:31Z</time><extensions><speed>1.260802</speed><course>86.802406</course><hAcc>0.897198</hAcc><vAcc>0.708833</vAcc></extensions></trkpt>
      <trkpt lon="-3.337426" lat="54.577150"><ele>136.341949</ele><time>2021-08-12T09:17:32Z</time><extensions><speed>1.206842</speed><course>85.424927</course><hAcc>0.897857</hAcc><vAcc>0.710151</vAcc></extensions></trkpt>
      <trkpt lon="-3.337408" lat="54.577151"><ele>136.398056</ele><time>2021-08-12T09:17:33Z</time><extensions><speed>1.145004</speed><course>88.911957</course><hAcc>0.900601</hAcc><vAcc>0.714346</vAcc></extensions></trkpt>
      <trkpt lon="-3.337391" lat="54.577153"><ele>136.456360</ele><time>2021-08-12T09:17:34Z</time><extensions><speed>1.078794</speed><course>93.027184</course><hAcc>0.908462</hAcc><vAcc>0.724087</vAcc></extensions></trkpt>
      <trkpt lon="-3.337376" lat="54.577155"><ele>136.516174</ele><time>2021-08-12T09:17:35Z</time><extensions><speed>1.012656</speed><course>90.763535</course><hAcc>0.926264</hAcc><vAcc>0.743183</vAcc></extensions></trkpt>
      <trkpt lon="-3.337361" lat="54.577156"><ele>136.577164</ele><time>2021-08-12T09:17:36Z</time><extensions><speed>0.951743</speed><course>83.392509</course><hAcc>0.960762</hAcc><vAcc>0.776478</vAcc></extensions></trkpt>
      <trkpt lon="-3.337352" lat="54.577158"><ele>136.701859</ele><time>2021-08-12T09:17:37Z</time><extensions><speed>0.336828</speed><course>74.967865</course><hAcc>0.923129</hAcc><vAcc>0.741553</vAcc></extensions></trkpt>
      <trkpt lon="-3.337348" lat="54.577160"><ele>136.722763</ele><time>2021-08-12T09:17:38Z</time><extensions><speed>0.302779</speed><course>75.133301</course><hAcc>0.905310</hAcc><vAcc>0.723840</vAcc></extensions></trkpt>
      <trkpt lon="-3.337346" lat="54.577162"><ele>136.743118</ele><time>2021-08-12T09:17:39Z</time><extensions><speed>0.270837</speed><course>66.099251</course><hAcc>0.898490</hAcc><vAcc>0.715948</vAcc></extensions></trkpt>
      <trkpt lon="-3.337343" lat="54.577164"><ele>136.762527</ele><time>2021-08-12T09:17:40Z</time><extensions><speed>0.243093</speed><course>81.237114</course><hAcc>0.897169</hAcc><vAcc>0.713614</vAcc></extensions></trkpt>
      <trkpt lon="-3.337342" lat="54.577165"><ele>136.780884</ele><time>2021-08-12T09:17:41Z</time><extensions><speed>0.220843</speed><course>80.566093</course><hAcc>0.897915</hAcc><vAcc>0.713909</vAcc></extensions></trkpt>
      <trkpt lon="-3.337341" lat="54.577167"><ele>136.798172</ele><time>2021-08-12T09:17:42Z</time><extensions><speed>0.204582</speed><course>80.566109</course><hAcc>0.898877</hAcc><vAcc>0.715055</vAcc></extensions></trkpt>
      <trkpt lon="-3.337340" lat="54.577169"><ele>136.814468</ele><time>2021-08-12T09:17:43Z</time><extensions><speed>0.194034</speed><course>80.566093</course><hAcc>0.899260</hAcc><vAcc>0.716122</vAcc></extensions></trkpt>
      <trkpt lon="-3.337340" lat="54.577171"><ele>136.829971</ele><time>2021-08-12T09:17:44Z</time><extensions><speed>0.188200</speed><course>80.566093</course><hAcc>0.898904</hAcc><vAcc>0.716750</vAcc></extensions></trkpt>
      <trkpt lon="-3.337340" lat="54.577172"><ele>136.844940</ele><time>2021-08-12T09:17:45Z</time><extensions><speed>0.185574</speed><course>80.566093</course><hAcc>0.897976</hAcc><vAcc>0.716911</vAcc></extensions></trkpt>
      <trkpt lon="-3.337340" lat="54.577174"><ele>136.859406</ele><time>2021-08-12T09:17:46Z</time><extensions><speed>0.184527</speed><course>77.344681</course><hAcc>0.896774</hAcc><vAcc>0.716750</vAcc></extensions></trkpt>
      <trkpt lon="-3.337340" lat="54.577176"><ele>136.873047</ele><time>2021-08-12T09:17:47Z</time><extensions><speed>0.183661</speed><course>77.923714</course><hAcc>0.895612</hAcc><vAcc>0.716467</vAcc></extensions></trkpt>
      <trkpt lon="-3.337340" lat="54.577177"><ele>136.885223</ele><time>2021-08-12T09:17:48Z</time><extensions><speed>0.181764</speed><course>87.073212</course><hAcc>0.894746</hAcc><vAcc>0.716239</vAcc></extensions></trkpt>
      <trkpt lon="-3.337341" lat="54.577179"><ele>136.894989</ele><time>2021-08-12T09:17:49Z</time><extensions><speed>0.178102</speed><course>79.233902</course><hAcc>0.894345</hAcc><vAcc>0.716184</vAcc></extensions></trkpt>
      <trkpt lon="-3.337341" lat="54.577180"><ele>136.901199</ele><time>2021-08-12T09:17:50Z</time><extensions><speed>0.172735</speed><course>96.572746</course><hAcc>0.894477</hAcc><vAcc>0.716332</vAcc></extensions></trkpt>
      <trkpt lon="-3.337342" lat="54.577182"><ele>136.902710</ele><time>2021-08-12T09:17:51Z</time><extensions><speed>0.165918</speed><course>86.920219</course><hAcc>0.895103</hAcc><vAcc>0.716632</vAcc></extensions></trkpt>
      <trkpt lon="-3.337342" lat="54.577183"><ele>136.898529</ele><time>2021-08-12T09:17:52Z</time><extensions><speed>0.157906</speed><course>76.786201</course><hAcc>0.896087</hAcc><vAcc>0.716958</vAcc></extensions></trkpt>
      <trkpt lon="-3.337342" lat="54.577185"><ele>136.887680</ele><time>2021-08-12T09:17:53Z</time><extensions><speed>0.149431</speed><course>77.162971</course><hAcc>0.897211</hAcc><vAcc>0.717140</vAcc></extensions></trkpt>
      <trkpt lon="-3.337342" lat="54.577186"><ele>136.869125</ele><time>2021-08-12T09:17:54Z</time><extensions><speed>0.142010</speed><course>69.604996</course><hAcc>0.898209</hAcc><vAcc>0.717001</vAcc></extensions></trkpt>
      <trkpt lon="-3.337341" lat="54.577187"><ele>136.842178</ele><time>2021-08-12T09:17:55Z</time><extensions><speed>0.138453</speed><course>76.115456</course><hAcc>0.898826</hAcc><vAcc>0.716423</vAcc></extensions></trkpt>
      <trkpt lon="-3.337340" lat="54.577188"><ele>136.806763</ele><time>2021-08-12T09:17:56Z</time><extensions><speed>0.142139</speed><course>83.646278</course><hAcc>0.898924</hAcc><vAcc>0.715439</vAcc></extensions></trkpt>
      <trkpt lon="-3.337339" lat="54.577189"><ele>136.763580</ele><time>2021-08-12T09:17:57Z</time><extensions><speed>0.155378</speed><course>76.408623</course><hAcc>0.898655</hAcc><vAcc>0.714374</vAcc></extensions></trkpt>
      <trkpt lon="-3.337337" lat="54.577190"><ele>136.713898</ele><time>2021-08-12T09:17:58Z</time><extensions><speed>0.178444</speed><course>79.439453</course><hAcc>0.898720</hAcc><vAcc>0.714040</vAcc></extensions></trkpt>
      <trkpt lon="-3.337334" lat="54.577191"><ele>136.659515</ele><time>2021-08-12T09:17:59Z</time><extensions><speed>0.209780</speed><course>75.300941</course><hAcc>0.900739</hAcc><vAcc>0.715988</vAcc></extensions></trkpt>
      <trkpt lon="-3.337331" lat="54.577192"><ele>136.602554</ele><time>2021-08-12T09:18:00Z</time><extensions><speed>0.246881</speed><course>76.126534</course><hAcc>0.907712</hAcc><vAcc>0.722787</vAcc></extensions></trkpt>
      <trkpt lon="-3.337327" lat="54.577193"><ele>136.544693</ele><time>2021-08-12T09:18:01Z</time><extensions><speed>0.287005</speed><course>75.233688</course><hAcc>0.924451</hAcc><vAcc>0.738232</vAcc></extensions></trkpt>
      <trkpt lon="-3.337322" lat="54.577193"><ele>136.486725</ele><time>2021-08-12T09:18:02Z</time><extensions><speed>0.327067</speed><course>81.891060</course><hAcc>0.957755</hAcc><vAcc>0.767298</vAcc></extensions></trkpt>
      <trkpt lon="-3.337311" lat="54.577194"><ele>136.467606</ele><time>2021-08-12T09:18:03Z</time><extensions><speed>0.893313</speed><course>74.967865</course><hAcc>0.921659</hAcc><vAcc>0.735984</vAcc></extensions></trkpt>
      <trkpt lon="-3.337297" lat="54.577195"><ele>136.503326</ele><time>2021-08-12T09:18:04Z</time><extensions><speed>0.955103</speed><course>75.133301</course><hAcc>0.903131</hAcc><vAcc>0.715473</vAcc></extensions></trkpt>
      <trkpt lon="-3.337282" lat="54.577196"><ele>136.545837</ele><time>2021-08-12T09:18:05Z</time><extensions><speed>1.021537</speed><course>66.099251</course><hAcc>0.895722</hAcc><vAcc>0.705348</vAcc></extensions></trkpt>
      <trkpt lon="-3.337266" lat="54.577198"><ele>136.595871</ele><time>2021-08-12T09:18:06Z</time><extensions><speed>1.089505</speed><course>81.237114</course><hAcc>0.893920</hAcc><vAcc>0.701353</vAcc></extensions></trkpt>
      <trkpt lon="-3.337249" lat="54.577199"><ele>136.653854</ele><time>2021-08-12T09:18:07Z</time><extensions><speed>1.156814</speed><course>80.566093</course><hAcc>0.894262</hAcc><vAcc>0.700482</vAcc></extensions></trkpt>
      <trkpt lon="-3.337231" lat="54.577201"><ele>136.719727</ele><time>2021-08-12T09:18:08Z</time><extensions><speed>1.222162</speed><course>80.566109</course><hAcc>0.894861</hAcc><vAcc>0.700853</vAcc></extensions></trkpt>
      <trkpt lon="-3.337211" lat="54.577202"><ele>136.793274</ele><time>2021-08-12T09:18:09Z</time><extensions><speed>1.284664</speed><course>80.566093</course><hAcc>0.894883</hAcc><vAcc>0.701440</vAcc></extensions></trkpt>
      <trkpt lon="-3.337191" lat="54.577204"><ele>136.874619</ele><time>2021-08-12T09:18:10Z</time><extensions><speed>1.343686</speed><course>80.566093</course><hAcc>0.894118</hAcc><vAcc>0.701785</vAcc></extensions></trkpt>
      <trkpt lon="-3.337170" lat="54.577206"><ele>136.964081</ele><time>2021-08-12T09:18:11Z</time><extensions><speed>1.398057</speed><course>80.566093</course><hAcc>0.892683</hAcc><vAcc>0.701774</vAcc></extensions></trkpt>
      <trkpt lon="-3.337148" lat="54.577207"><ele>137.061539</ele><time>2021-08-12T09:18:12Z</time><extensions><speed>1.447106</speed><course>77.344681</course><hAcc>0.890822</hAcc><vAcc>0.701472</vAcc></extensions></trkpt>
      <trkpt lon="-3.337126" lat="54.577209"><ele>137.166275</ele><time>2021-08-12T09:18:13Z</time><extensions><speed>1.490898</speed><course>77.923714</course><hAcc>0.888797</hAcc><vAcc>0.701014</vAcc></extensions></trkpt>
      <trkpt lon="-3.337103" lat="54.577211"><ele>137.276901</ele><time>2021-08-12T09:18:14Z</time><extensions><speed>1.528863</speed><course>87.073212</course><hAcc>0.886823</hAcc><vAcc>0.700536</vAcc></extensions></trkpt>
      <trkpt lon="-3.337079" lat="54.577213"><ele>137.391785</ele><time>2021-08-12T09:18:15Z</time><extensions><speed>1.560113</speed><course>79.233902</course><hAcc>0.885051</hAcc><vAcc>0.700134</vAcc></extensions></trkpt>
      <trkpt lon="-3.337055" lat="54.577215"><ele>137.509781</ele><time>2021-08-12T09:18:16Z</time><extensions><speed>1.584474</speed><course>96.572746</course><hAcc>0.883562</hAcc><vAcc>0.699855</vAcc></extensions></trkpt>
      <trkpt lon="-3.337031" lat="54.577217"><ele>137.630478</ele><time>2021-08-12T09:18:17Z</time><extensions><speed>1.602156</speed><course>86.920219</course><hAcc>0.882385</hAcc><vAcc>0.699706</vAcc></extensions></trkpt>
      <trkpt lon="-3.337006" lat="54.577219"><ele>137.753540</ele><time>2021-08-12T09:18:18Z</time><extensions><speed>1.613509</speed><course>76.786201</course><hAcc>0.881509</hAcc><vAcc>0.699670</vAcc></extensions></trkpt>
      <trkpt lon="-3.336981" lat="54.577220"><ele>137.878281</ele><time>2021-08-12T09:18:19Z</time><extensions><speed>1.619311</speed><course>77.162971</course><hAcc>0.880897</hAcc><vAcc>0.699724</vAcc></extensions></trkpt>
      <trkpt lon="-3.336956" lat="54.577222"><ele>138.003952</ele><time>2021-08-12T09:18:20Z</time><extensions><speed>1.620425</speed><course>69.604996</course><hAcc>0.880505</hAcc><vAcc>0.699846</vAcc></extensions></trkpt>
      <trkpt lon="-3.336931" lat="54.577224"><ele>138.129684</ele><time>2021-08-12T09:18:21Z</time><extensions><speed>1.617714</speed><course>76.115456</course><hAcc>0.880284</hAcc><vAcc>0.700028</vAcc></extensions></trkpt>
      <trkpt lon="-3.336907" lat="54.577226"><ele>138.254181</ele><time>2021-08-12T09:18:22Z</time><extensions><speed>1.611997</speed><course>83.646278</course><hAcc>0.880191</hAcc><vAcc>0.700276</vAcc></extensions></trkpt>
      <trkpt lon="-3.336882" lat="54.577228"><ele>138.376007</ele><time>2021-08-12T09:18:23Z</time><extensions><speed>1.603962</speed><course>76.408623</course><hAcc>0.880191</hAcc><vAcc>0.700602</vAcc></extensions></trkpt>
      <trkpt lon="-3.336858" lat="54.577230"><ele>138.494095</ele><time>2021-08-12T09:18:24Z</time><extensions><speed>1.594319</speed><course>79.439453</course><hAcc>0.880252</hAcc><vAcc>0.701014</vAcc></extensions></trkpt>
      <trkpt lon="-3.336833" lat="54.577232"><ele>138.607941</ele><time>2021-08-12T09:18:25Z</time><extensions><speed>1.584188</speed><course>75.300941</course><hAcc>0.880354</hAcc><vAcc>0.701505</vAcc></extensions></trkpt>
      <trkpt lon="-3.336809" lat="54.577234"><ele>138.717377</ele><time>2021-08-12T09:18:26Z</time><extensions><speed>1.574493</speed><course>76.126534</course><hAcc>0.880480</hAcc><vAcc>0.702056</vAcc></extensions></trkpt>
      <trkpt lon="-3.336785" lat="54.577237"><ele>138.822189</ele><time>2021-08-12T09:18:27Z</time><extensions><speed>1.565804</speed><course>75.233688</course><hAcc>0.880616</hAcc><vAcc>0.702634</vAcc></extensions></trkpt>
      <trkpt lon="-3.336762" lat="54.577239"><ele>138.922180</ele><time>2021-08-12T09:18:28Z</time><extensions><speed>1.558356</speed><course>81.891060</course><hAcc>0.880753</hAcc><vAcc>0.703206</vAcc></extensions></trkpt>
      <trkpt lon="-3.336738" lat="54.577242"><ele>139.017273</ele><time>2021-08-12T09:18:29Z</time><extensions><speed>1.552053</speed><course>78.263519</course><hAcc>0.880886</hAcc><vAcc>0.703744</vAcc></extensions></trkpt>
      <trkpt lon="-3.336715" lat="54.577245"><ele>139.107880</ele><time>2021-08-12T09:18:30Z</time><extensions><speed>1.546867</speed><course>74.907532</course><hAcc>0.881010</hAcc><vAcc>0.704225</vAcc></extensions></trkpt>
      <trkpt lon="-3.336691" lat="54.577248"><ele>139.195084</ele><time>2021-08-12T09:18:31Z</time><extensions><speed>1.542624</speed><course>84.941742</course><hAcc>0.881121</hAcc><vAcc>0.704639</vAcc></extensions></trkpt>
      <trkpt lon="-3.336668" lat="54.577252"><ele>139.280319</ele><time>2021-08-12T09:18:32Z</time><extensions><speed>1.539020</speed><course>73.584358</course><hAcc>0.881220</hAcc><vAcc>0.704981</vAcc></extensions></trkpt>
      <trkpt lon="-3.336645" lat="54.577255"><ele>139.364548</ele><time>2021-08-12T09:18:33Z</time><extensions><speed>1.535960</speed><course>96.346313</course><hAcc>0.881304</hAcc><vAcc>0.705260</vAcc></extensions></trkpt>
      <trkpt lon="-3.336622" lat="54.577259"><ele>139.447937</ele><time>2021-08-12T09:18:34Z</time><extensions><speed>1.533178</speed><course>87.208282</course><hAcc>0.881374</hAcc><vAcc>0.705484</vAcc></extensions></trkpt>
      <trkpt lon="-3.336599" lat="54.577262"><ele>139.530167</ele><time>2021-08-12T09:18:35Z</time><extensions><speed>1.530354</speed><course>71.034035</course><hAcc>0.881432</hAcc><vAcc>0.705667</vAcc></extensions></trkpt>
      <trkpt lon="-3.336577" lat="54.577266"><ele>139.610977</ele><time>2021-08-12T09:18:36Z</time><extensions><speed>1.527959</speed><course>74.315559</course><hAcc>0.881477</hAcc><vAcc>0.705818</vAcc></extensions></trkpt>
      <trkpt lon="-3.336554" lat="54.577270"><ele>139.690369</ele><time>2021-08-12T09:18:37Z</time><extensions><speed>1.526243</speed><course>82.074326</course><hAcc>0.881509</hAcc><vAcc>0.705939</vAcc></extensions></trkpt>
      <trkpt lon="-3.336532" lat="54.577274"><ele>139.769012</ele><time>2021-08-12T09:18:38Z</time><extensions><speed>1.524998</speed><course>78.798851</course><hAcc>0.881530</hAcc><vAcc>0.706032</vAcc></extensions></trkpt>
      <trkpt lon="-3.336509" lat="54.577279"><ele>139.848099</ele><time>2021-08-12T09:18:39Z</time><extensions><speed>1.524596</speed><course>71.049065</course><hAcc>0.881537</hAcc><vAcc>0.706094</vAcc></extensions></trkpt>
      <trkpt lon="-3.336487" lat="54.577283"><ele>139.928772</ele><time>2021-08-12T09:18:40Z</time><extensions><speed>1.525508</speed><course>66.417450</course><hAcc>0.881531</hAcc><vAcc>0.706114</vAcc></extensions></trkpt>
      <trkpt lon="-3.336465" lat="54.577288"><ele>140.011642</ele><time>2021-08-12T09:18:41Z</time><extensions><speed>1.527325</speed><course>67.881187</course><hAcc>0.881509</hAcc><vAcc>0.706082</vAcc></extensions></trkpt>
      <trkpt lon="-3.336443" lat="54.577292"><ele>140.096832</ele><time>2021-08-12T09:18:42Z</time><extensions><speed>1.529239</speed><course>73.946594</course><hAcc>0.881472</hAcc><vAcc>0.705987</vAcc></extensions></trkpt>
      <trkpt lon="-3.336420" lat="54.577297"><ele>140.184036</ele><time>2021-08-12T09:18:43Z</time><extensions><speed>1.531102</speed><course>66.868568</course><hAcc>0.881417</hAcc><vAcc>0.705818</vAcc></extensions></trkpt>
      <trkpt lon="-3.336398" lat="54.577302"><ele>140.272690</ele><time>2021-08-12T09:18:44Z</time><extensions><speed>1.533417</speed><course>57.370388</course><hAcc>0.881347</hAcc><vAcc>0.705570</vAcc></extensions></trkpt>
      <trkpt lon="-3.336376" lat="54.577307"><ele>140.362289</ele><time>2021-08-12T09:18:45Z</time><extensions><speed>1.536947</speed><course>72.859169</course><hAcc>0.881262</hAcc><vAcc>0.705243</vAcc></extensions></trkpt>
      <trkpt lon="-3.336354" lat="54.577312"><ele>140.452515</ele><time>2021-08-12T09:18:46Z</time><extensions><speed>1.542266</speed><course>73.476959</course><hAcc>0.881164</hAcc><vAcc>0.704848</vAcc></extensions></trkpt>
      <trkpt lon="-3.336332" lat="54.577318"><ele>140.543060</ele><time>2021-08-12T09:18:47Z</time><extensions><speed>1.549390</speed><course>70.985191</course><hAcc>0.881058</hAcc><vAcc>0.704399</vAcc></extensions></trkpt>
      <trkpt lon="-3.336310" lat="54.577323"><ele>140.633530</ele><time>2021-08-12T09:18:48Z</time><extensions><speed>1.557991</speed><course>67.094063</course><hAcc>0.880948</hAcc><vAcc>0.703919</vAcc></extensions></trkpt>
      <trkpt lon="-3.336288" lat="54.577329"><ele>140.723236</ele><time>2021-08-12T09:18:49Z</time><extensions><speed>1.567716</speed><course>63.802017</course><hAcc>0.880839</hAcc><vAcc>0.703437</vAcc></extensions></trkpt>
      <trkpt lon="-3.336266" lat="54.577335"><ele>140.811417</ele><time>2021-08-12T09:18:50Z</time><extensions><speed>1.578318</speed><course>59.738853</course><hAcc>0.880738</hAcc><vAcc>0.702981</vAcc></extensions></trkpt>
      <trkpt lon="-3.336243" lat="54.577340"><ele>140.897247</ele><time>2021-08-12T09:18:51Z</time><extensions><speed>1.589468</speed><course>64.752533</course><hAcc>0.880651</hAcc><vAcc>0.702581</vAcc></extensions></trkpt>
      <trkpt lon="-3.336221" lat="54.577347"><ele>140.979858</ele><time>2021-08-12T09:18:52Z</time><extensions><speed>1.601011</speed><course>62.678837</course><hAcc>0.880582</hAcc><vAcc>0.702264</vAcc></extensions></trkpt>
      <trkpt lon="-3.336198" lat="54.577353"><ele>141.059021</ele><time>2021-08-12T09:18:53Z</time><extensions><speed>1.612636</speed><course>67.622025</course><hAcc>0.880537</hAcc><vAcc>0.702056</vAcc></extensions></trkpt>
      <trkpt lon="-3.336176" lat="54.577359"><ele>141.134979</ele><time>2021-08-12T09:18:54Z</time><extensions><speed>1.623437</speed><course>76.998230</course><hAcc>0.880516</hAcc><vAcc>0.701969</vAcc></extensions></trkpt>
      <trkpt lon="-3.336153" lat="54.577365"><ele>141.207870</ele><time>2021-08-12T09:18:55Z</time><extensions><speed>1.632769</speed><course>71.279175</course><hAcc>0.880522</hAcc><vAcc>0.702009</vAcc></extensions></trkpt>
      <trkpt lon="-3.336131" lat="54.577372"><ele>141.277466</ele><time>2021-08-12T09:18:56Z</time><extensions><speed>1.640348</speed><course>66.215858</course><hAcc>0.880552</hAcc><vAcc>0.702168</vAcc></extensions></trkpt>
      <trkpt lon="-3.336108" lat="54.577379"><ele>141.343109</ele><time>2021-08-12T09:18:57Z</time><extensions><speed>1.646105</speed><course>65.869171</course><hAcc>0.880605</hAcc><vAcc>0.702430</vAcc></extensions></trkpt>
      <trkpt lon="-3.336085" lat="54.577385"><ele>141.403870</ele><time>2021-08-12T09:18:58Z</time><extensions><speed>1.649967</speed><course>67.480362</course><hAcc>0.880675</hAcc><vAcc>0.702772</vAcc></extensions></trkpt>
      <trkpt lon="-3.336063" lat="54.577392"><ele>141.458710</ele><time>2021-08-12T09:18:59Z</time><extensions><speed>1.651869</speed><course>62.467888</course><hAcc>0.880757</hAcc><vAcc>0.703165</vAcc></extensions></trkpt>
      <trkpt lon="-3.336040" lat="54.577400"><ele>141.506561</ele><time>2021-08-12T09:19:00Z</time><extensions><speed>1.651683</speed><course>57.403885</course><hAcc>0.880847</hAcc><vAcc>0.703576</vAcc></extensions></trkpt>
      <trkpt lon="-3.336018" lat="54.577407"><ele>141.546738</ele><time>2021-08-12T09:19:01Z</time><extensions><speed>1.649745</speed><course>56.104736</course><hAcc>0.880937</hAcc><vAcc>0.703975</vAcc></extensions></trkpt>
      <trkpt lon="-3.335996" lat="54.577414"><ele>141.579132</ele><time>2021-08-12T09:19:02Z</time><extensions><speed>1.646632</speed><course>57.135769</course><hAcc>0.881024</hAcc><vAcc>0.704336</vAcc></extensions></trkpt>
      <trkpt lon="-3.335974" lat="54.577422"><ele>141.604156</ele><time>2021-08-12T09:19:03Z</time><extensions><speed>1.642846</speed><course>59.466648</course><hAcc>0.881104</hAcc><vAcc>0.704642</vAcc></extensions></trkpt>
      <trkpt lon="-3.335953" lat="54.577430"><ele>141.622620</ele><time>2021-08-12T09:19:04Z</time><extensions><speed>1.639004</speed><course>56.466339</course><hAcc>0.881175</hAcc><vAcc>0.704886</vAcc></extensions></trkpt>
      <trkpt lon="-3.335932" lat="54.577438"><ele>141.635345</ele><time>2021-08-12T09:19:05Z</time><extensions><speed>1.635566</speed><course>61.082169</course><hAcc>0.881235</hAcc><vAcc>0.705070</vAcc></extensions></trkpt>
      <trkpt lon="-3.335911" lat="54.577446"><ele>141.642929</ele><time>2021-08-12T09:19:06Z</time><extensions><speed>1.632985</speed><course>63.000797</course><hAcc>0.881285</hAcc><vAcc>0.705205</vAcc></extensions></trkpt>
      <trkpt lon="-3.335890" lat="54.577454"><ele>141.645996</ele><time>2021-08-12T09:19:07Z</time><extensions><speed>1.631174</speed><course>58.373146</course><hAcc>0.881325</hAcc><vAcc>0.705306</vAcc></extensions></trkpt>
      <trkpt lon="-3.335869" lat="54.577463"><ele>141.645370</ele><time>2021-08-12T09:19:08Z</time><extensions><speed>1.629717</speed><course>59.591164</course><hAcc>0.881359</hAcc><vAcc>0.705390</vAcc></extensions></trkpt>
      <trkpt lon="-3.335849" lat="54.577472"><ele>141.642197</ele><time>2021-08-12T09:19:09Z</time><extensions><speed>1.628449</speed><course>56.078835</course><hAcc>0.881387</hAcc><vAcc>0.705466</vAcc></extensions></trkpt>
      <trkpt lon="-3.335829" lat="54.577480"><ele>141.637802</ele><time>2021-08-12T09:19:10Z</time><extensions><speed>1.627329</speed><course>61.452141</course><hAcc>0.881414</hAcc><vAcc>0.705541</vAcc></extensions></trkpt>
      <trkpt lon="-3.335809" lat="54.577489"><ele>141.633148</ele><time>2021-08-12T09:19:11Z</time><extensions><speed>1.626302</speed><course>62.349373</course><hAcc>0.881443</hAcc><vAcc>0.705620</vAcc></extensions></trkpt>
      <trkpt lon="-3.335790" lat="54.577499"><ele>141.628708</ele><time>2021-08-12T09:19:12Z</time><extensions><speed>1.625056</speed><course>67.502327</course><hAcc>0.881475</hAcc><vAcc>0.705713</vAcc></extensions></trkpt>
      <trkpt lon="-3.335771" lat="54.577508"><ele>141.624741</ele><time>2021-08-12T09:19:13Z</time><extensions><speed>1.623346</speed><course>65.148994</course><hAcc>0.881515</hAcc><vAcc>0.705828</vAcc></extensions></trkpt>
      <trkpt lon="-3.335752" lat="54.577518"><ele>141.621582</ele><time>2021-08-12T09:19:14Z</time><extensions><speed>1.621207</speed><course>61.604351</course><hAcc>0.881565</hAcc><vAcc>0.705978</vAcc></extensions></trkpt>
      <trkpt lon="-3.335733" lat="54.577527"><ele>141.619614</ele><time>2021-08-12T09:19:15Z</time><extensions><speed>1.618738</speed><course>67.356651</course><hAcc>0.881625</hAcc><vAcc>0.706171</vAcc></extensions></trkpt>
      <trkpt lon="-3.335715" lat="54.577537"><ele>141.619675</ele><time>2021-08-12T09:19:16Z</time><extensions><speed>1.616281</speed><course>56.187717</course><hAcc>0.881698</hAcc><vAcc>0.706417</vAcc></extensions></trkpt>
      <trkpt lon="-3.335697" lat="54.577547"><ele>141.622681</ele><time>2021-08-12T09:19:17Z</time><extensions><speed>1.614104</speed><course>56.273357</course><hAcc>0.881784</hAcc><vAcc>0.706724</vAcc></extensions></trkpt>
      <trkpt lon="-3.335680" lat="54.577558"><ele>141.629532</ele><time>2021-08-12T09:19:18Z</time><extensions><speed>1.612046</speed><course>59.042984</course><hAcc>0.881883</hAcc><vAcc>0.707093</vAcc></extensions></trkpt>
      <trkpt lon="-3.335662" lat="54.577568"><ele>141.640839</ele><time>2021-08-12T09:19:19Z</time><extensions><speed>1.610246</speed><course>46.754299</course><hAcc>0.881992</hAcc><vAcc>0.707522</vAcc></extensions></trkpt>
      <trkpt lon="-3.335646" lat="54.577579"><ele>141.656723</ele><time>2021-08-12T09:19:20Z</time><extensions><speed>1.609060</speed><course>46.754295</course><hAcc>0.882110</hAcc><vAcc>0.708000</vAcc></extensions></trkpt>
      <trkpt lon="-3.335629" lat="54.577590"><ele>141.676758</ele><time>2021-08-12T09:19:21Z</time><extensions><speed>1.608452</speed><course>46.754295</course><hAcc>0.882234</hAcc><vAcc>0.708513</vAcc></extensions></trkpt>
      <trkpt lon="-3.335613" lat="54.577601"><ele>141.700241</ele><time>2021-08-12T09:19:22Z</time><extensions><speed>1.608332</speed><course>46.754295</course><hAcc>0.882360</hAcc><vAcc>0.709040</vAcc></extensions></trkpt>
      <trkpt lon="-3.335596" lat="54.577612"><ele>141.726318</ele><time>2021-08-12T09:19:23Z</time><extensions><speed>1.608954</speed><course>46.754295</course><hAcc>0.882485</hAcc><vAcc>0.709560</vAcc></extensions></trkpt>
      <trkpt lon="-3.335580" lat="54.577623"><ele>141.754074</ele><time>2021-08-12T09:19:24Z</time><extensions><speed>1.610449</speed><course>46.754295</course><hAcc>0.882605</hAcc><vAcc>0.710052</vAcc></extensions></trkpt>
      <trkpt lon="-3.335565" lat="54.577634"><ele>141.782745</ele><time>2021-08-12T09:19:25Z</time><extensions><speed>1.612497</speed><course>46.754295</course><hAcc>0.882717</hAcc><vAcc>0.710497</vAcc></extensions></trkpt>
      <trkpt lon="-3.335549" lat="54.577645"><ele>141.811478</ele><time>2021-08-12T09:19:26Z</time><extensions><speed>1.614835</speed><course>46.754292</course><hAcc>0.882819</hAcc><vAcc>0.710882</vAcc></extensions></trkpt>
      <trkpt lon="-3.335533" lat="54.577656"><ele>141.839218</ele><time>2021-08-12T09:19:27Z</time><extensions><speed>1.617302</speed><course>46.754295</course><hAcc>0.882909</hAcc><vAcc>0.711200</vAcc></extensions></trkpt>
      <trkpt lon="-3.335517" lat="54.577668"><ele>141.864868</ele><time>2021-08-12T09:19:28Z</time><extensions><speed>1.619577</speed><course>86.257805</course><hAcc>0.882985</hAcc><vAcc>0.711452</vAcc></extensions></trkpt>
      <trkpt lon="-3.335501" lat="54.577679"><ele>141.887207</ele><time>2021-08-12T09:19:29Z</time><extensions><speed>1.620921</speed><course>92.864906</course><hAcc>0.883048</hAcc><vAcc>0.711644</vAcc></extensions></trkpt>
      <trkpt lon="-3.335486" lat="54.577690"><ele>141.905258</ele><time>2021-08-12T09:19:30Z</time><extensions><speed>1.621104</speed><course>94.458534</course><hAcc>0.883098</hAcc><vAcc>0.711785</vAcc></extensions></trkpt>
      <trkpt lon="-3.335470" lat="54.577702"><ele>141.918869</ele><time>2021-08-12T09:19:31Z</time><extensions><speed>1.620461</speed><course>89.165138</course><hAcc>0.883136</hAcc><vAcc>0.711881</vAcc></extensions></trkpt>
      <trkpt lon="-3.335455" lat="54.577713"><ele>141.928635</ele><time>2021-08-12T09:19:32Z</time><extensions><speed>1.619066</speed><course>98.187202</course><hAcc>0.883164</hAcc><vAcc>0.711937</vAcc></extensions></trkpt>
      <trkpt lon="-3.335440" lat="54.577725"><ele>141.935410</ele><time>2021-08-12T09:19:33Z</time><extensions><speed>1.616772</speed><course>262.094696</course><hAcc>0.883183</hAcc><vAcc>0.711962</vAcc></extensions></trkpt>
      <trkpt lon="-3.335424" lat="54.577736"><ele>141.939713</ele><time>2021-08-12T09:19:34Z</time><extensions><speed>1.613579</speed><course>273.339569</course><hAcc>0.883195</hAcc><vAcc>0.711968</vAcc></extensions></trkpt>
      <trkpt lon="-3.335409" lat="54.577748"><ele>141.941620</ele><time>2021-08-12T09:19:35Z</time><extensions><speed>1.609635</speed><course>270.133057</course><hAcc>0.883200</hAcc><vAcc>0.711965</vAcc></extensions></trkpt>
      <trkpt lon="-3.335394" lat="54.577759"><ele>141.940735</ele><time>2021-08-12T09:19:36Z</time><extensions><speed>1.604989</speed><course>264.401459</course><hAcc>0.883201</hAcc><vAcc>0.711960</vAcc></extensions></trkpt>
      <trkpt lon="-3.335379" lat="54.577771"><ele>141.936447</ele><time>2021-08-12T09:19:37Z</time><extensions><speed>1.599417</speed><course>271.206299</course><hAcc>0.883200</hAcc><vAcc>0.711956</vAcc></extensions></trkpt>
      <trkpt lon="-3.335364" lat="54.577782"><ele>141.928055</ele><time>2021-08-12T09:19:38Z</time><extensions><speed>1.592612</speed><course>270.479279</course><hAcc>0.883197</hAcc><vAcc>0.711954</vAcc></extensions></trkpt>
      <trkpt lon="-3.335350" lat="54.577794"><ele>141.915024</ele><time>2021-08-12T09:19:39Z</time><extensions><speed>1.584293</speed><course>270.479279</course><hAcc>0.883198</hAcc><vAcc>0.711957</vAcc></extensions></trkpt>
      <trkpt lon="-3.335335" lat="54.577805"><ele>141.897079</ele><time>2021-08-12T09:19:40Z</time><extensions><speed>1.574549</speed><course>270.479279</course><hAcc>0.883208</hAcc><vAcc>0.711972</vAcc></extensions></trkpt>
      <trkpt lon="-3.335321" lat="54.577816"><ele>141.874084</ele><time>2021-08-12T09:19:41Z</time><extensions><speed>1.563800</speed><course>92.836548</course><hAcc>0.883236</hAcc><vAcc>0.712007</vAcc></extensions></trkpt>
      <trkpt lon="-3.335307" lat="54.577828"><ele>141.845978</ele><time>2021-08-12T09:19:42Z</time><extensions><speed>1.552613</speed><course>91.847809</course><hAcc>0.883295</hAcc><vAcc>0.712074</vAcc></extensions></trkpt>
      <trkpt lon="-3.335293" lat="54.577839"><ele>141.812744</ele><time>2021-08-12T09:19:43Z</time><extensions><speed>1.541827</speed><course>96.972961</course><hAcc>0.883404</hAcc><vAcc>0.712193</vAcc></extensions></trkpt>
      <trkpt lon="-3.335279" lat="54.577850"><ele>141.774521</ele><time>2021-08-12T09:19:44Z</time><extensions><speed>1.532110</speed><course>101.432434</course><hAcc>0.883588</hAcc><vAcc>0.712391</vAcc></extensions></trkpt>
      <trkpt lon="-3.335265" lat="54.577861"><ele>141.731537</ele><time>2021-08-12T09:19:45Z</time><extensions><speed>1.524016</speed><course>89.921867</course><hAcc>0.883878</hAcc><vAcc>0.712707</vAcc></extensions></trkpt>
      <trkpt lon="-3.335251" lat="54.577872"><ele>141.684097</ele><time>2021-08-12T09:19:46Z</time><extensions><speed>1.517795</speed><course>79.468422</course><hAcc>0.884310</hAcc><vAcc>0.713185</vAcc></extensions></trkpt>
      <trkpt lon="-3.335238" lat="54.577883"><ele>141.632904</ele><time>2021-08-12T09:19:47Z</time><extensions><speed>1.513424</speed><course>79.668663</course><hAcc>0.884926</hAcc><vAcc>0.713870</vAcc></extensions></trkpt>
      <trkpt lon="-3.335224" lat="54.577894"><ele>141.579163</ele><time>2021-08-12T09:19:48Z</time><extensions><speed>1.510510</speed><course>70.198914</course><hAcc>0.885767</hAcc><vAcc>0.714799</vAcc></extensions></trkpt>
      <trkpt lon="-3.335210" lat="54.577905"><ele>141.524277</ele><time>2021-08-12T09:19:49Z</time><extensions><speed>1.508089</speed><course>85.811096</course><hAcc>0.886871</hAcc><vAcc>0.715991</vAcc></extensions></trkpt>
      <trkpt lon="-3.335196" lat="54.577916"><ele>141.469772</ele><time>2021-08-12T09:19:50Z</time><extensions><speed>1.505360</speed><course>87.515213</course><hAcc>0.888262</hAcc><vAcc>0.717429</vAcc></extensions></trkpt>
      <trkpt lon="-3.335182" lat="54.577927"><ele>141.417160</ele><time>2021-08-12T09:19:51Z</time><extensions><speed>1.501793</speed><course>86.802406</course><hAcc>0.889943</hAcc><vAcc>0.719061</vAcc></extensions></trkpt>
      <trkpt lon="-3.335168" lat="54.577938"><ele>141.367523</ele><time>2021-08-12T09:19:52Z</time><extensions><speed>1.497078</speed><course>85.424927</course><hAcc>0.891882</hAcc><vAcc>0.720798</vAcc></extensions></trkpt>
      <trkpt lon="-3.335154" lat="54.577948"><ele>141.321594</ele><time>2021-08-12T09:19:53Z</time><extensions><speed>1.491250</speed><course>88.911957</course><hAcc>0.894001</hAcc><vAcc>0.722518</vAcc></extensions></trkpt>
      <trkpt lon="-3.335140" lat="54.577959"><ele>141.279953</ele><time>2021-08-12T09:19:54Z</time><extensions><speed>1.484421</speed><course>93.027184</course><hAcc>0.896169</hAcc><vAcc>0.724073</vAcc></extensions></trkpt>
      <trkpt lon="-3.335125" lat="54.577969"><ele>141.243073</ele><time>2021-08-12T09:19:55Z</time><extensions><speed>1.476680</speed><course>90.763535</course><hAcc>0.898204</hAcc><vAcc>0.725305</vAcc></extensions></trkpt>
      <trkpt lon="-3.335110" lat="54.577979"><ele>141.211365</ele><time>2021-08-12T09:19:56Z</time><extensions><speed>1.468309</speed><course>83.392509</course><hAcc>0.899897</hAcc><vAcc>0.726078</vAcc></extensions></trkpt>
      <trkpt lon="-3.335095" lat="54.577989"><ele>141.185089</ele><time>2021-08-12T09:19:57Z</time><extensions><speed>1.459480</speed><course>57.334152</course><hAcc>0.901062</hAcc><vAcc>0.726344</vAcc></extensions></trkpt>
      <trkpt lon="-3.335079" lat="54.577998"><ele>141.164490</ele><time>2021-08-12T09:19:58Z</time><extensions><speed>1.450287</speed><course>29.254333</course><hAcc>0.901636</hAcc><vAcc>0.726234</vAcc></extensions></trkpt>
      <trkpt lon="-3.335063" lat="54.578007"><ele>141.149872</ele><time>2021-08-12T09:19:59Z</time><extensions><speed>1.441089</speed><course>29.254333</course><hAcc>0.901846</hAcc><vAcc>0.726197</vAcc></extensions></trkpt>
      <trkpt lon="-3.335047" lat="54.578016"><ele>141.141663</ele><time>2021-08-12T09:20:00Z</time><extensions><speed>1.432035</speed><course>29.254333</course><hAcc>0.902470</hAcc><vAcc>0.727197</vAcc></extensions></trkpt>
      <trkpt lon="-3.335030" lat="54.578024"><ele>141.140488</ele><time>2021-08-12T09:20:01Z</time><extensions><speed>1.423676</speed><course>29.254332</course><hAcc>0.905195</hAcc><vAcc>0.730953</vAcc></extensions></trkpt>
      <trkpt lon="-3.335012" lat="54.578032"><ele>141.147064</ele><time>2021-08-12T09:20:02Z</time><extensions><speed>1.416832</speed><course>29.254333</course><hAcc>0.913064</hAcc><vAcc>0.740194</vAcc></extensions></trkpt>
      <trkpt lon="-3.334994" lat="54.578039"><ele>141.161621</ele><time>2021-08-12T09:20:03Z</time><extensions><speed>1.411515</speed><course>29.254332</course><hAcc>0.930899</hAcc><vAcc>0.758803</vAcc></extensions></trkpt>
      <trkpt lon="-3.334976" lat="54.578046"><ele>141.183777</ele><time>2021-08-12T09:20:04Z</time><extensions><speed>1.407188</speed><course>29.254332</course><hAcc>0.965444</hAcc><vAcc>0.791693</vAcc></extensions></trkpt>
      <trkpt lon="-3.334955" lat="54.578046"><ele>141.170883</ele><time>2021-08-12T09:20:05Z</time><extensions><speed>1.356229</speed><course>74.967865</course><hAcc>0.928358</hAcc><vAcc>0.757916</vAcc></extensions></trkpt>
      <trkpt lon="-3.334934" lat="54.578044"><ele>141.105515</ele><time>2021-08-12T09:20:06Z</time><extensions><speed>1.366297</speed><course>75.133301</course><hAcc>0.909657</hAcc><vAcc>0.737607</vAcc></extensions></trkpt>
      <trkpt lon="-3.334914" lat="54.578041"><ele>141.041626</ele><time>2021-08-12T09:20:07Z</time><extensions><speed>1.377405</speed><course>66.099251</course><hAcc>0.902148</hAcc><vAcc>0.727886</vAcc></extensions></trkpt>
      <trkpt lon="-3.334893" lat="54.578038"><ele>140.978424</ele><time>2021-08-12T09:20:08Z</time><extensions><speed>1.389471</speed><course>81.237114</course><hAcc>0.900324</hAcc><vAcc>0.724418</vAcc></extensions></trkpt>
      <trkpt lon="-3.334872" lat="54.578034"><ele>140.915176</ele><time>2021-08-12T09:20:09Z</time><extensions><speed>1.402407</speed><course>80.566093</course><hAcc>0.900708</hAcc><vAcc>0.724112</vAcc></extensions></trkpt>
      <trkpt lon="-3.334852" lat="54.578030"><ele>140.851379</ele><time>2021-08-12T09:20:10Z</time><extensions><speed>1.416272</speed><course>80.566109</course><hAcc>0.901386</hAcc><vAcc>0.724998</vAcc></extensions></trkpt>
      <trkpt lon="-3.334831" lat="54.578025"><ele>140.786774</ele><time>2021-08-12T09:20:11Z</time><extensions><speed>1.430702</speed><course>80.566093</course><hAcc>0.901492</hAcc><vAcc>0.725962</vAcc></extensions></trkpt>
      <trkpt lon="-3.334811" lat="54.578020"><ele>140.720871</ele><time>2021-08-12T09:20:12Z</time><extensions><speed>1.444745</speed><course>80.566093</course><hAcc>0.900790</hAcc><vAcc>0.726477</vAcc></extensions></trkpt>
      <trkpt lon="-3.334790" lat="54.578015"><ele>140.652969</ele><time>2021-08-12T09:20:13Z</time><extensions><speed>1.457838</speed><course>80.566093</course><hAcc>0.899372</hAcc><vAcc>0.726382</vAcc></extensions></trkpt>
      <trkpt lon="-3.334770" lat="54.578010"><ele>140.582138</ele><time>2021-08-12T09:20:14Z</time><extensions><speed>1.470145</speed><course>77.344681</course><hAcc>0.897471</hAcc><vAcc>0.725723</vAcc></extensions></trkpt>
      <trkpt lon="-3.334749" lat="54.578004"><ele>140.507492</ele><time>2021-08-12T09:20:15Z</time><extensions><speed>1.481787</speed><course>77.923714</course><hAcc>0.895341</hAcc><vAcc>0.724646</vAcc></extensions></trkpt>
      <trkpt lon="-3.334729" lat="54.577998"><ele>140.428650</ele><time>2021-08-12T09:20:16Z</time><extensions><speed>1.493020</speed><course>87.073212</course><hAcc>0.893203</hAcc><vAcc>0.723327</vAcc></extensions></trkpt>
      <trkpt lon="-3.334708" lat="54.577992"><ele>140.346298</ele><time>2021-08-12T09:20:17Z</time><extensions><speed>1.504325</speed><course>79.233902</course><hAcc>0.891215</hAcc><vAcc>0.721926</vAcc></extensions></trkpt>
      <trkpt lon="-3.334687" lat="54.577985"><ele>140.262283</ele><time>2021-08-12T09:20:18Z</time><extensions><speed>1.515892</speed><course>96.572746</course><hAcc>0.889473</hAcc><vAcc>0.720571</vAcc></extensions></trkpt>
      <trkpt lon="-3.334666" lat="54.577979"><ele>140.179306</ele><time>2021-08-12T09:20:19Z</time><extensions><speed>1.527715</speed><course>86.920219</course><hAcc>0.888021</hAcc><vAcc>0.719347</vAcc></extensions></trkpt>
      <trkpt lon="-3.334645" lat="54.577973"><ele>140.100403</ele><time>2021-08-12T09:20:20Z</time><extensions><speed>1.539362</speed><course>76.786201</course><hAcc>0.886860</hAcc><vAcc>0.718296</vAcc></extensions></trkpt>
      <trkpt lon="-3.334624" lat="54.577966"><ele>140.028427</ele><time>2021-08-12T09:20:21Z</time><extensions><speed>1.550066</speed><course>77.162971</course><hAcc>0.885965</hAcc><vAcc>0.717430</vAcc></extensions></trkpt>
      <trkpt lon="-3.334603" lat="54.577960"><ele>139.965652</ele><time>2021-08-12T09:20:22Z</time><extensions><speed>1.558885</speed><course>69.604996</course><hAcc>0.885295</hAcc><vAcc>0.716735</vAcc></extensions></trkpt>
      <trkpt lon="-3.334581" lat="54.577954"><ele>139.913574</ele><time>2021-08-12T09:20:23Z</time><extensions><speed>1.565123</speed><course>76.115456</course><hAcc>0.884803</hAcc><vAcc>0.716176</vAcc></extensions></trkpt>
      <trkpt lon="-3.334559" lat="54.577948"><ele>139.872757</ele><time>2021-08-12T09:20:24Z</time><extensions><speed>1.568486</speed><course>83.646278</course><hAcc>0.884445</hAcc><vAcc>0.715709</vAcc></extensions></trkpt>
      <trkpt lon="-3.334538" lat="54.577941"><ele>139.843048</ele><time>2021-08-12T09:20:25Z</time><extensions><speed>1.568556</speed><course>76.408623</course><hAcc>0.884181</hAcc><vAcc>0.715287</vAcc></extensions></trkpt>
      <trkpt lon="-3.334516" lat="54.577935"><ele>139.823914</ele><time>2021-08-12T09:20:26Z</time><extensions><speed>1.565263</speed><course>79.439453</course><hAcc>0.883978</hAcc><vAcc>0.714867</vAcc></extensions></trkpt>
      <trkpt lon="-3.334494" lat="54.577929"><ele>139.814636</ele><time>2021-08-12T09:20:27Z</time><extensions><speed>1.559452</speed><course>75.300941</course><hAcc>0.883813</hAcc><vAcc>0.714416</vAcc></extensions></trkpt>
      <trkpt lon="-3.334472" lat="54.577923"><ele>139.814545</ele><time>2021-08-12T09:20:28Z</time><extensions><speed>1.552063</speed><course>76.126534</course><hAcc>0.883669</hAcc><vAcc>0.713917</vAcc></extensions></trkpt>
      <trkpt lon="-3.334451" lat="54.577917"><ele>139.823196</ele><time>2021-08-12T09:20:29Z</time><extensions><speed>1.542875</speed><course>75.233688</course><hAcc>0.883533</hAcc><vAcc>0.713373</vAcc></extensions></trkpt>
      <trkpt lon="-3.334429" lat="54.577911"><ele>139.840042</ele><time>2021-08-12T09:20:30Z</time><extensions><speed>1.531498</speed><course>81.891060</course><hAcc>0.883400</hAcc><vAcc>0.712796</vAcc></extensions></trkpt>
      <trkpt lon="-3.334408" lat="54.577905"><ele>139.864075</ele><time>2021-08-12T09:20:31Z</time><extensions><speed>1.518260</speed><course>78.263519</course><hAcc>0.883269</hAcc><vAcc>0.712212</vAcc></extensions></trkpt>
      <trkpt lon="-3.334387" lat="54.577900"><ele>139.893692</ele><time>2021-08-12T09:20:32Z</time><extensions><speed>1.503417</speed><course>74.907532</course><hAcc>0.883140</hAcc><vAcc>0.711649</vAcc></extensions></trkpt>
      <trkpt lon="-3.334366" lat="54.577894"><ele>139.926666</ele><time>2021-08-12T09:20:33Z</time><extensions><speed>1.487625</speed><course>84.941742</course><hAcc>0.883015</hAcc><vAcc>0.711127</vAcc></extensions></trkpt>
      <trkpt lon="-3.334345" lat="54.577888"><ele>139.960373</ele><time>2021-08-12T09:20:34Z</time><extensions><speed>1.472041</speed><course>73.584358</course><hAcc>0.882895</hAcc><vAcc>0.710663</vAcc></extensions></trkpt>
      <trkpt lon="-3.334324" lat="54.577883"><ele>139.992355</ele><time>2021-08-12T09:20:35Z</time><extensions><speed>1.457769</speed><course>96.346313</course><hAcc>0.882784</hAcc><vAcc>0.710264</vAcc></extensions></trkpt>
      <trkpt lon="-3.334304" lat="54.577877"><ele>140.020523</ele><time>2021-08-12T09:20:36Z</time><extensions><speed>1.445726</speed><course>87.208282</course><hAcc>0.882680</hAcc><vAcc>0.709926</vAcc></extensions></trkpt>
      <trkpt lon="-3.334284" lat="54.577872"><ele>140.043060</ele><time>2021-08-12T09:20:37Z</time><extensions><speed>1.436473</speed><course>71.034035</course><hAcc>0.882584</hAcc><vAcc>0.709637</vAcc></extensions></trkpt>
      <trkpt lon="-3.334263" lat="54.577867"><ele>140.058243</ele><time>2021-08-12T09:20:38Z</time><extensions><speed>1.429919</speed><course>74.315559</course><hAcc>0.882492</hAcc><vAcc>0.709377</vAcc></extensions></trkpt>
      <trkpt lon="-3.334243" lat="54.577862"><ele>140.064682</ele><time>2021-08-12T09:20:39Z</time><extensions><speed>1.425220</speed><course>82.074326</course><hAcc>0.882401</hAcc><vAcc>0.709125</vAcc></extensions></trkpt>
      <trkpt lon="-3.334223" lat="54.577857"><ele>140.061356</ele><time>2021-08-12T09:20:40Z</time><extensions><speed>1.421950</speed><course>78.798851</course><hAcc>0.882306</hAcc><vAcc>0.708859</vAcc></extensions></trkpt>
      <trkpt lon="-3.334202" lat="54.577852"><ele>140.047333</ele><time>2021-08-12T09:20:41Z</time><extensions><speed>1.420791</speed><course>71.049065</course><hAcc>0.882200</hAcc><vAcc>0.708557</vAcc></extensions></trkpt>
      <trkpt lon="-3.334182" lat="54.577848"><ele>140.021683</ele><time>2021-08-12T09:20:42Z</time><extensions><speed>1.422507</speed><course>66.417450</course><hAcc>0.882078</hAcc><vAcc>0.708202</vAcc></extensions></trkpt>
      <trkpt lon="-3.334161" lat="54.577843"><ele>139.983597</ele><time>2021-08-12T09:20:43Z</time><extensions><speed>1.427310</speed><course>67.881187</course><hAcc>0.881934</hAcc><vAcc>0.707775</vAcc></extensions></trkpt>
      <trkpt lon="-3.334141" lat="54.577838"><ele>139.932968</ele><time>2021-08-12T09:20:44Z</time><extensions><speed>1.435531</speed><course>73.946594</course><hAcc>0.881763</hAcc><vAcc>0.707257</vAcc></extensions></trkpt>
      <trkpt lon="-3.334120" lat="54.577834"><ele>139.870667</ele><time>2021-08-12T09:20:45Z</time><extensions><speed>1.447212</speed><course>66.868568</course><hAcc>0.881563</hAcc><vAcc>0.706623</vAcc></extensions></trkpt>
      <trkpt lon="-3.334099" lat="54.577829"><ele>139.798233</ele><time>2021-08-12T09:20:46Z</time><extensions><speed>1.462128</speed><course>57.370388</course><hAcc>0.881333</hAcc><vAcc>0.705849</vAcc></extensions></trkpt>
      <trkpt lon="-3.334077" lat="54.577825"><ele>139.717331</ele><time>2021-08-12T09:20:47Z</time><extensions><speed>1.480034</speed><course>72.859169</course><hAcc>0.881076</hAcc><vAcc>0.704920</vAcc></extensions></trkpt>
      <trkpt lon="-3.334055" lat="54.577821"><ele>139.629776</ele><time>2021-08-12T09:20:48Z</time><extensions><speed>1.499861</speed><course>73.476959</course><hAcc>0.880799</hAcc><vAcc>0.703843</vAcc></extensions></trkpt>
      <trkpt lon="-3.334033" lat="54.577817"><ele>139.537552</ele><time>2021-08-12T09:20:49Z</time><extensions><speed>1.520290</speed><course>70.985191</course><hAcc>0.880510</hAcc><vAcc>0.702651</vAcc></extensions></trkpt>
      <trkpt lon="-3.334010" lat="54.577813"><ele>139.442291</ele><time>2021-08-12T09:20:50Z</time><extensions><speed>1.540339</speed><course>67.094063</course><hAcc>0.880221</hAcc><vAcc>0.701401</vAcc></extensions></trkpt>
      <trkpt lon="-3.333987" lat="54.577809"><ele>139.344879</ele><time>2021-08-12T09:20:51Z</time><extensions><speed>1.559015</speed><course>63.802017</course><hAcc>0.879945</hAcc><vAcc>0.700170</vAcc></extensions></trkpt>
      <trkpt lon="-3.333964" lat="54.577805"><ele>139.245926</ele><time>2021-08-12T09:20:52Z</time><extensions><speed>1.575538</speed><course>59.738853</course><hAcc>0.879697</hAcc><vAcc>0.699046</vAcc></extensions></trkpt>
      <trkpt lon="-3.333941" lat="54.577801"><ele>139.145813</ele><time>2021-08-12T09:20:53Z</time><extensions><speed>1.590171</speed><course>64.752533</course><hAcc>0.879490</hAcc><vAcc>0.698115</vAcc></extensions></trkpt>
      <trkpt lon="-3.333917" lat="54.577797"><ele>139.045013</ele><time>2021-08-12T09:20:54Z</time><extensions><speed>1.604265</speed><course>62.678837</course><hAcc>0.879336</hAcc><vAcc>0.697443</vAcc></extensions></trkpt>
      <trkpt lon="-3.333893" lat="54.577793"><ele>138.944244</ele><time>2021-08-12T09:20:55Z</time><extensions><speed>1.618894</speed><course>67.622025</course><hAcc>0.879241</hAcc><vAcc>0.697070</vAcc></extensions></trkpt>
      <trkpt lon="-3.333869" lat="54.577789"><ele>138.844589</ele><time>2021-08-12T09:20:56Z</time><extensions><speed>1.634507</speed><course>76.998230</course><hAcc>0.879210</hAcc><vAcc>0.696998</vAcc></extensions></trkpt>
      <trkpt lon="-3.333844" lat="54.577785"><ele>138.747711</ele><time>2021-08-12T09:20:57Z</time><extensions><speed>1.651670</speed><course>71.279175</course><hAcc>0.879239</hAcc><vAcc>0.697203</vAcc></extensions></trkpt>
      <trkpt lon="-3.333820" lat="54.577781"><ele>138.655685</ele><time>2021-08-12T09:20:58Z</time><extensions><speed>1.669756</speed><course>66.215858</course><hAcc>0.879326</hAcc><vAcc>0.697642</vAcc></extensions></trkpt>
      <trkpt lon="-3.333795" lat="54.577776"><ele>138.570740</ele><time>2021-08-12T09:20:59Z</time><extensions><speed>1.687275</speed><course>65.869171</course><hAcc>0.879462</hAcc><vAcc>0.698262</vAcc></extensions></trkpt>
      <trkpt lon="-3.333770" lat="54.577772"><ele>138.494888</ele><time>2021-08-12T09:21:00Z</time><extensions><speed>1.703478</speed><course>67.480362</course><hAcc>0.879640</hAcc><vAcc>0.699012</vAcc></extensions></trkpt>
      <trkpt lon="-3.333744" lat="54.577768"><ele>138.429474</ele><time>2021-08-12T09:21:01Z</time><extensions><speed>1.717906</speed><course>62.467888</course><hAcc>0.879850</hAcc><vAcc>0.699847</vAcc></extensions></trkpt>
      <trkpt lon="-3.333719" lat="54.577763"><ele>138.375183</ele><time>2021-08-12T09:21:02Z</time><extensions><speed>1.731331</speed><course>57.403885</course><hAcc>0.880084</hAcc><vAcc>0.700736</vAcc></extensions></trkpt>
      <trkpt lon="-3.333693" lat="54.577759"><ele>138.332626</ele><time>2021-08-12T09:21:03Z</time><extensions><speed>1.744606</speed><course>56.104736</course><hAcc>0.880335</hAcc><vAcc>0.701663</vAcc></extensions></trkpt>
      <trkpt lon="-3.333667" lat="54.577754"><ele>138.301910</ele><time>2021-08-12T09:21:04Z</time><extensions><speed>1.757547</speed><course>57.135769</course><hAcc>0.880596</hAcc><vAcc>0.702622</vAcc></extensions></trkpt>
      <trkpt lon="-3.333641" lat="54.577750"><ele>138.282578</ele><time>2021-08-12T09:21:05Z</time><extensions><speed>1.769866</speed><course>59.466648</course><hAcc>0.880861</hAcc><vAcc>0.703607</vAcc></extensions></trkpt>
      <trkpt lon="-3.333614" lat="54.577746"><ele>138.273941</ele><time>2021-08-12T09:21:06Z</time><extensions><speed>1.781135</speed><course>56.466339</course><hAcc>0.881127</hAcc><vAcc>0.704606</vAcc></extensions></trkpt>
      <trkpt lon="-3.333587" lat="54.577742"><ele>138.275528</ele><time>2021-08-12T09:21:07Z</time><extensions><speed>1.791145</speed><course>61.082169</course><hAcc>0.881388</hAcc><vAcc>0.705600</vAcc></extensions></trkpt>
      <trkpt lon="-3.333560" lat="54.577738"><ele>138.286728</ele><time>2021-08-12T09:21:08Z</time><extensions><speed>1.799115</speed><course>63.000797</course><hAcc>0.881641</hAcc><vAcc>0.706568</vAcc></extensions></trkpt>
      <trkpt lon="-3.333533" lat="54.577735"><ele>138.306412</ele><time>2021-08-12T09:21:09Z</time><extensions><speed>1.804434</speed><course>58.373146</course><hAcc>0.881884</hAcc><vAcc>0.707490</vAcc></extensions></trkpt>
      <trkpt lon="-3.333506" lat="54.577731"><ele>138.333237</ele><time>2021-08-12T09:21:10Z</time><extensions><speed>1.807162</speed><course>59.591164</course><hAcc>0.882115</hAcc><vAcc>0.708350</vAcc></extensions></trkpt>
      <trkpt lon="-3.333479" lat="54.577728"><ele>138.365997</ele><time>2021-08-12T09:21:11Z</time><extensions><speed>1.807281</speed><course>56.078835</course><hAcc>0.882333</hAcc><vAcc>0.709140</vAcc></extensions></trkpt>
      <trkpt lon="-3.333451" lat="54.577725"><ele>138.403519</ele><time>2021-08-12T09:21:12Z</time><extensions><speed>1.805071</speed><course>61.452141</course><hAcc>0.882537</hAcc><vAcc>0.709859</vAcc></extensions></trkpt>
      <trkpt lon="-3.333424" lat="54.577722"><ele>138.444656</ele><time>2021-08-12T09:21:13Z</time><extensions><speed>1.801027</speed><course>62.349373</course><hAcc>0.882728</hAcc><vAcc>0.710517</vAcc></extensions></trkpt>
      <trkpt lon="-3.333397" lat="54.577718"><ele>138.488083</ele><time>2021-08-12T09:21:14Z</time><extensions><speed>1.795491</speed><course>67.502327</course><hAcc>0.882906</hAcc><vAcc>0.711125</vAcc></extensions></trkpt>
      <trkpt lon="-3.333369" lat="54.577715"><ele>138.532242</ele><time>2021-08-12T09:21:15Z</time><extensions><speed>1.788828</speed><course>65.148994</course><hAcc>0.883073</hAcc><vAcc>0.711692</vAcc></extensions></trkpt>
      <trkpt lon="-3.333342" lat="54.577712"><ele>138.575394</ele><time>2021-08-12T09:21:16Z</time><extensions><speed>1.781551</speed><course>61.604351</course><hAcc>0.883233</hAcc><vAcc>0.712227</vAcc></extensions></trkpt>
      <trkpt lon="-3.333315" lat="54.577709"><ele>138.615875</ele><time>2021-08-12T09:21:17Z</time><extensions><speed>1.774076</speed><course>67.356651</course><hAcc>0.883386</hAcc><vAcc>0.712739</vAcc></extensions></trkpt>
      <trkpt lon="-3.333288" lat="54.577706"><ele>138.652115</ele><time>2021-08-12T09:21:18Z</time><extensions><speed>1.766594</speed><course>56.187717</course><hAcc>0.883535</hAcc><vAcc>0.713242</vAcc></extensions></trkpt>
      <trkpt lon="-3.333262" lat="54.577703"><ele>138.682571</ele><time>2021-08-12T09:21:19Z</time><extensions><speed>1.759030</speed><course>56.273357</course><hAcc>0.883681</hAcc><vAcc>0.713750</vAcc></extensions></trkpt>
      <trkpt lon="-3.333235" lat="54.577699"><ele>138.705963</ele><time>2021-08-12T09:21:20Z</time><extensions><speed>1.751487</speed><course>59.042984</course><hAcc>0.883824</hAcc><vAcc>0.714275</vAcc></extensions></trkpt>
      <trkpt lon="-3.333209" lat="54.577696"><ele>138.721420</ele><time>2021-08-12T09:21:21Z</time><extensions><speed>1.744245</speed><course>46.754299</course><hAcc>0.883963</hAcc><vAcc>0.714817</vAcc></extensions></trkpt>
      <trkpt lon="-3.333182" lat="54.577693"><ele>138.728561</ele><time>2021-08-12T09:21:22Z</time><extensions><speed>1.737391</speed><course>46.754295</course><hAcc>0.884099</hAcc><vAcc>0.715367</vAcc></extensions></trkpt>
      <trkpt lon="-3.333156" lat="54.577690"><ele>138.727432</ele><time>2021-08-12T09:21:23Z</time><extensions><speed>1.731213</speed><course>46.754295</course><hAcc>0.884231</hAcc><vAcc>0.715910</vAcc></extensions></trkpt>
      <trkpt lon="-3.333130" lat="54.577686"><ele>138.717987</ele><time>2021-08-12T09:21:24Z</time><extensions><speed>1.725984</speed><course>46.754295</course><hAcc>0.884357</hAcc><vAcc>0.716426</vAcc></extensions></trkpt>
      <trkpt lon="-3.333104" lat="54.577683"><ele>138.699707</ele><time>2021-08-12T09:21:25Z</time><extensions><speed>1.721703</speed><course>46.754295</course><hAcc>0.884477</hAcc><vAcc>0.716898</vAcc></extensions></trkpt>
      <trkpt lon="-3.333078" lat="54.577679"><ele>138.671768</ele><time>2021-08-12T09:21:26Z</time><extensions><speed>1.718400</speed><course>46.754295</course><hAcc>0.884588</hAcc><vAcc>0.717316</vAcc></extensions></trkpt>
      <trkpt lon="-3.333052" lat="54.577676"><ele>138.633301</ele><time>2021-08-12T09:21:27Z</time><extensions><speed>1.715962</speed><course>46.754295</course><hAcc>0.884690</hAcc><vAcc>0.717675</vAcc></extensions></trkpt>
      <trkpt lon="-3.333026" lat="54.577673"><ele>138.583450</ele><time>2021-08-12T09:21:28Z</time><extensions><speed>1.714247</speed><course>46.754292</course><hAcc>0.884781</hAcc><vAcc>0.717979</vAcc></extensions></trkpt>
      <trkpt lon="-3.333001" lat="54.577669"><ele>138.521515</ele><time>2021-08-12T09:21:29Z</time><extensions><speed>1.713204</speed><course>46.754295</course><hAcc>0.884859</hAcc><vAcc>0.718237</vAcc></extensions></trkpt>
      <trkpt lon="-3.332975" lat="54.577666"><ele>138.447281</ele><time>2021-08-12T09:21:30Z</time><extensions><speed>1.712543</speed><course>86.257805</course><hAcc>0.884924</hAcc><vAcc>0.718453</vAcc></extensions></trkpt>
      <trkpt lon="-3.332949" lat="54.577663"><ele>138.361328</ele><time>2021-08-12T09:21:31Z</time><extensions><speed>1.711741</speed><course>92.864906</course><hAcc>0.884976</hAcc><vAcc>0.718634</vAcc></extensions></trkpt>
      <trkpt lon="-3.332923" lat="54.577660"><ele>138.265366</ele><time>2021-08-12T09:21:32Z</time><extensions><speed>1.710395</speed><course>94.458534</course><hAcc>0.885015</hAcc><vAcc>0.718781</vAcc></extensions></trkpt>
      <trkpt lon="-3.332897" lat="54.577656"><ele>138.161819</ele><time>2021-08-12T09:21:33Z</time><extensions><speed>1.708547</speed><course>89.165138</course><hAcc>0.885042</hAcc><vAcc>0.718892</vAcc></extensions></trkpt>
      <trkpt lon="-3.332871" lat="54.577653"><ele>138.053040</ele><time>2021-08-12T09:21:34Z</time><extensions><speed>1.706314</speed><course>98.187202</course><hAcc>0.885059</hAcc><vAcc>0.718964</vAcc></extensions></trkpt>
      <trkpt lon="-3.332846" lat="54.577650"><ele>137.940704</ele><time>2021-08-12T09:21:35Z</time><extensions><speed>1.703791</speed><course>262.094696</course><hAcc>0.885066</hAcc><vAcc>0.718994</vAcc></extensions></trkpt>
      <trkpt lon="-3.332820" lat="54.577647"><ele>137.826004</ele><time>2021-08-12T09:21:36Z</time><extensions><speed>1.701092</speed><course>273.339569</course><hAcc>0.885065</hAcc><vAcc>0.718983</vAcc></extensions></trkpt>
      <trkpt lon="-3.332794" lat="54.577643"><ele>137.709839</ele><time>2021-08-12T09:21:37Z</time><extensions><speed>1.698261</speed><course>270.133057</course><hAcc>0.885058</hAcc><vAcc>0.718934</vAcc></extensions></trkpt>
      <trkpt lon="-3.332769" lat="54.577639"><ele>137.593079</ele><time>2021-08-12T09:21:38Z</time><extensions><speed>1.695473</speed><course>264.401459</course><hAcc>0.885046</hAcc><vAcc>0.718853</vAcc></extensions></trkpt>
      <trkpt lon="-3.332743" lat="54.577636"><ele>137.476852</ele><time>2021-08-12T09:21:39Z</time><extensions><speed>1.693081</speed><course>271.206299</course><hAcc>0.885032</hAcc><vAcc>0.718751</vAcc></extensions></trkpt>
      <trkpt lon="-3.332718" lat="54.577632"><ele>137.362244</ele><time>2021-08-12T09:21:40Z</time><extensions><speed>1.691233</speed><course>270.479279</course><hAcc>0.885017</hAcc><vAcc>0.718639</vAcc></extensions></trkpt>
      <trkpt lon="-3.332693" lat="54.577628"><ele>137.250351</ele><time>2021-08-12T09:21:41Z</time><extensions><speed>1.689935</speed><course>270.479279</course><hAcc>0.885001</hAcc><vAcc>0.718531</vAcc></extensions></trkpt>
      <trkpt lon="-3.332668" lat="54.577624"><ele>137.142395</ele><time>2021-08-12T09:21:42Z</time><extensions><speed>1.689228</speed><course>270.479279</course><hAcc>0.884986</hAcc><vAcc>0.718438</vAcc></extensions></trkpt>
      <trkpt lon="-3.332643" lat="54.577619"><ele>137.039795</ele><time>2021-08-12T09:21:43Z</time><extensions><speed>1.689026</speed><course>92.836548</course><hAcc>0.884972</hAcc><vAcc>0.718371</vAcc></extensions></trkpt>
      <trkpt lon="-3.332618" lat="54.577615"><ele>136.943893</ele><time>2021-08-12T09:21:44Z</time><extensions><speed>1.689165</speed><course>91.847809</course><hAcc>0.884956</hAcc><vAcc>0.718335</vAcc></extensions></trkpt>
      <trkpt lon="-3.332593" lat="54.577610"><ele>136.855423</ele><time>2021-08-12T09:21:45Z</time><extensions><speed>1.689552</speed><course>96.972961</course><hAcc>0.884938</hAcc><vAcc>0.718325</vAcc></extensions></trkpt>
      <trkpt lon="-3.332568" lat="54.577605"><ele>136.774231</ele><time>2021-08-12T09:21:46Z</time><extensions><speed>1.690131</speed><course>101.432434</course><hAcc>0.884915</hAcc><vAcc>0.718327</vAcc></extensions></trkpt>
      <trkpt lon="-3.332543" lat="54.577601"><ele>136.699310</ele><time>2021-08-12T09:21:47Z</time><extensions><speed>1.690685</speed><course>89.921867</course><hAcc>0.884885</hAcc><vAcc>0.718319</vAcc></extensions></trkpt>
      <trkpt lon="-3.332519" lat="54.577595"><ele>136.629578</ele><time>2021-08-12T09:21:48Z</time><extensions><speed>1.691003</speed><course>79.468422</course><hAcc>0.884845</hAcc><vAcc>0.718274</vAcc></extensions></trkpt>
      <trkpt lon="-3.332494" lat="54.577590"><ele>136.564087</ele><time>2021-08-12T09:21:49Z</time><extensions><speed>1.690954</speed><course>79.668663</course><hAcc>0.884794</hAcc><vAcc>0.718166</vAcc></extensions></trkpt>
      <trkpt lon="-3.332469" lat="54.577585"><ele>136.502213</ele><time>2021-08-12T09:21:50Z</time><extensions><speed>1.690512</speed><course>70.198914</course><hAcc>0.884730</hAcc><vAcc>0.717976</vAcc></extensions></trkpt>
      <trkpt lon="-3.332445" lat="54.577580"><ele>136.443558</ele><time>2021-08-12T09:21:51Z</time><extensions><speed>1.689882</speed><course>85.811096</course><hAcc>0.884653</hAcc><vAcc>0.717693</vAcc></extensions></trkpt>
      <trkpt lon="-3.332420" lat="54.577575"><ele>136.387787</ele><time>2021-08-12T09:21:52Z</time><extensions><speed>1.689263</speed><course>87.515213</course><hAcc>0.884564</hAcc><vAcc>0.717318</vAcc></extensions></trkpt>
      <trkpt lon="-3.332396" lat="54.577570"><ele>136.334213</ele><time>2021-08-12T09:21:53Z</time><extensions><speed>1.688817</speed><course>86.802406</course><hAcc>0.884463</hAcc><vAcc>0.716866</vAcc></extensions></trkpt>
      <trkpt lon="-3.332371" lat="54.577564"><ele>136.281845</ele><time>2021-08-12T09:21:54Z</time><extensions><speed>1.688895</speed><course>85.424927</course><hAcc>0.884352</hAcc><vAcc>0.716363</vAcc></extensions></trkpt>
      <trkpt lon="-3.332347" lat="54.577559"><ele>136.229736</ele><time>2021-08-12T09:21:55Z</time><extensions><speed>1.689815</speed><course>88.911957</course><hAcc>0.884235</hAcc><vAcc>0.715836</vAcc></extensions></trkpt>
      <trkpt lon="-3.332322" lat="54.577554"><ele>136.177216</ele><time>2021-08-12T09:21:56Z</time><extensions><speed>1.691782</speed><course>93.027184</course><hAcc>0.884115</hAcc><vAcc>0.715311</vAcc></extensions></trkpt>
      <trkpt lon="-3.332297" lat="54.577550"><ele>136.123978</ele><time>2021-08-12T09:21:57Z</time><extensions><speed>1.694623</speed><course>90.763535</course><hAcc>0.883996</hAcc><vAcc>0.714812</vAcc></extensions></trkpt>
      <trkpt lon="-3.332272" lat="54.577545"><ele>136.070236</ele><time>2021-08-12T09:21:58Z</time><extensions><speed>1.697692</speed><course>83.392509</course><hAcc>0.883884</hAcc><vAcc>0.714357</vAcc></extensions></trkpt>
      <trkpt lon="-3.332247" lat="54.577540"><ele>136.016632</ele><time>2021-08-12T09:21:59Z</time><extensions><speed>1.700365</speed><course>57.334152</course><hAcc>0.883781</hAcc><vAcc>0.713960</vAcc></extensions></trkpt>
      <trkpt lon="-3.332222" lat="54.577536"><ele>135.964142</ele><time>2021-08-12T09:22:00Z</time><extensions><speed>1.702201</speed><course>29.254333</course><hAcc>0.883692</hAcc><vAcc>0.713627</vAcc></extensions></trkpt>
      <trkpt lon="-3.332197" lat="54.577531"><ele>135.913879</ele><time>2021-08-12T09:22:01Z</time><extensions><speed>1.702976</speed><course>29.254333</course><hAcc>0.883619</hAcc><vAcc>0.713362</vAcc></extensions></trkpt>
      <trkpt lon="-3.332171" lat="54.577527"><ele>135.866806</ele><time>2021-08-12T09:22:02Z</time><extensions><speed>1.702589</speed><course>29.254333</course><hAcc>0.883567</hAcc><vAcc>0.713164</vAcc></extensions></trkpt>
      <trkpt lon="-3.332146" lat="54.577523"><ele>135.823776</ele><time>2021-08-12T09:22:03Z</time><extensions><speed>1.701061</speed><course>29.254332</course><hAcc>0.883536</hAcc><vAcc>0.713035</vAcc></extensions></trkpt>
      <trkpt lon="-3.332121" lat="54.577519"><ele>135.785492</ele><time>2021-08-12T09:22:04Z</time><extensions><speed>1.698425</speed><course>29.254333</course><hAcc>0.883528</hAcc><vAcc>0.712980</vAcc></extensions></trkpt>
      <trkpt lon="-3.332096" lat="54.577515"><ele>135.751892</ele><time>2021-08-12T09:22:05Z</time><extensions><speed>1.694584</speed><course>29.254332</course><hAcc>0.883542</hAcc><vAcc>0.713007</vAcc></extensions></trkpt>
      <trkpt lon="-3.332070" lat="54.577511"><ele>135.721832</ele><time>2021-08-12T09:22:06Z</time><extensions><speed>1.689514</speed><course>29.254332</course><hAcc>0.883579</hAcc><vAcc>0.713125</vAcc></extensions></trkpt>
      <trkpt lon="-3.332045" lat="54.577507"><ele>135.692963</ele><time>2021-08-12T09:22:07Z</time><extensions><speed>1.683216</speed><course>29.254333</course><hAcc>0.883634</hAcc><vAcc>0.713341</vAcc></extensions></trkpt>
      <trkpt lon="-3.332020" lat="54.577503"><ele>135.662323</ele><time>2021-08-12T09:22:08Z</time><extensions><speed>1.676014</speed><course>29.254333</course><hAcc>0.883707</hAcc><vAcc>0.713653</vAcc></extensions></trkpt>
      <trkpt lon="-3.331995" lat="54.577499"><ele>135.626785</ele><time>2021-08-12T09:22:09Z</time><extensions><speed>1.668455</speed><course>29.254332</course><hAcc>0.883793</hAcc><vAcc>0.714048</vAcc></extensions></trkpt>
      <trkpt lon="-3.331970" lat="54.577495"><ele>135.583374</ele><time>2021-08-12T09:22:10Z</time><extensions><speed>1.660822</speed><course>29.254333</course><hAcc>0.883889</hAcc><vAcc>0.714502</vAcc></extensions></trkpt>
      <trkpt lon="-3.331945" lat="54.577491"><ele>135.529312</ele><time>2021-08-12T09:22:11Z</time><extensions><speed>1.653307</speed><course>29.254337</course><hAcc>0.883990</hAcc><vAcc>0.714982</vAcc></extensions></trkpt>
      <trkpt lon="-3.331921" lat="54.577488"><ele>135.462357</ele><time>2021-08-12T09:22:12Z</time><extensions><speed>1.645889</speed><course>29.254337</course><hAcc>0.884093</hAcc><vAcc>0.715454</vAcc></extensions></trkpt>
      <trkpt lon="-3.331896" lat="54.577484"><ele>135.381256</ele><time>2021-08-12T09:22:13Z</time><extensions><speed>1.638473</speed><course>29.254339</course><hAcc>0.884192</hAcc><vAcc>0.715890</vAcc></extensions></trkpt>
      <trkpt lon="-3.331871" lat="54.577481"><ele>135.285843</ele><time>2021-08-12T09:22:14Z</time><extensions><speed>1.631177</speed><course>29.254337</course><hAcc>0.884285</hAcc><vAcc>0.716269</vAcc></extensions></trkpt>
      <trkpt lon="-3.331847" lat="54.577478"><ele>135.177048</ele><time>2021-08-12T09:22:15Z</time><extensions><speed>1.624342</speed><course>29.254339</course><hAcc>0.884368</hAcc><vAcc>0.716580</vAcc></extensions></trkpt>
      <trkpt lon="-3.331822" lat="54.577475"><ele>135.056427</ele><time>2021-08-12T09:22:16Z</time><extensions><speed>1.618441</speed><course>353.139893</course><hAcc>0.884440</hAcc><vAcc>0.716818</vAcc></extensions></trkpt>
      <trkpt lon="-3.331798" lat="54.577472"><ele>134.926117</ele><time>2021-08-12T09:22:17Z</time><extensions><speed>1.614105</speed><course>-1.000000</course><hAcc>0.884500</hAcc><vAcc>0.716986</vAcc></extensions></trkpt>
      <trkpt lon="-3.331773" lat="54.577470"><ele>134.788666</ele><time>2021-08-12T09:22:18Z</time><extensions><speed>1.612050</speed><course>-1.000000</course><hAcc>0.884547</hAcc><vAcc>0.717095</vAcc></extensions></trkpt>
      <trkpt lon="-3.331748" lat="54.577467"><ele>134.647003</ele><time>2021-08-12T09:22:19Z</time><extensions><speed>1.612769</speed><course>-1.000000</course><hAcc>0.884582</hAcc><vAcc>0.717161</vAcc></extensions></trkpt>
      <trkpt lon="-3.331724" lat="54.577465"><ele>134.504303</ele><time>2021-08-12T09:22:20Z</time><extensions><speed>1.616339</speed><course>-1.000000</course><hAcc>0.884604</hAcc><vAcc>0.717202</vAcc></extensions></trkpt>
      <trkpt lon="-3.331699" lat="54.577463"><ele>134.363892</ele><time>2021-08-12T09:22:21Z</time><extensions><speed>1.622147</speed><course>-1.000000</course><hAcc>0.884615</hAcc><vAcc>0.717226</vAcc></extensions></trkpt>
      <trkpt lon="-3.331674" lat="54.577461"><ele>134.228867</ele><time>2021-08-12T09:22:22Z</time><extensions><speed>1.628788</speed><course>-1.000000</course><hAcc>0.884616</hAcc><vAcc>0.717237</vAcc></extensions></trkpt>
      <trkpt lon="-3.331649" lat="54.577459"><ele>134.101486</ele><time>2021-08-12T09:22:23Z</time><extensions><speed>1.633829</speed><course>-1.000000</course><hAcc>0.884606</hAcc><vAcc>0.717231</vAcc></extensions></trkpt>
      <trkpt lon="-3.331624" lat="54.577458"><ele>133.983093</ele><time>2021-08-12T09:22:24Z</time><extensions><speed>1.634444</speed><course>-1.000000</course><hAcc>0.884588</hAcc><vAcc>0.717200</vAcc></extensions></trkpt>
      <trkpt lon="-3.331599" lat="54.577456"><ele>133.874756</ele><time>2021-08-12T09:22:25Z</time><extensions><speed>1.628152</speed><course>-1.000000</course><hAcc>0.884560</hAcc><vAcc>0.717136</vAcc></extensions></trkpt>
      <trkpt lon="-3.331574" lat="54.577454"><ele>133.777618</ele><time>2021-08-12T09:22:26Z</time><extensions><speed>1.612892</speed><course>-1.000000</course><hAcc>0.884522</hAcc><vAcc>0.717030</vAcc></extensions></trkpt>
      <trkpt lon="-3.331549" lat="54.577453"><ele>133.692886</ele><time>2021-08-12T09:22:27Z</time><extensions><speed>1.587051</speed><course>-1.000000</course><hAcc>0.884475</hAcc><vAcc>0.716876</vAcc></extensions></trkpt>
      <trkpt lon="-3.331525" lat="54.577451"><ele>133.621857</ele><time>2021-08-12T09:22:28Z</time><extensions><speed>1.549357</speed><course>74.830536</course><hAcc>0.884418</hAcc><vAcc>0.716672</vAcc></extensions></trkpt>
      <trkpt lon="-3.331502" lat="54.577450"><ele>133.565735</ele><time>2021-08-12T09:22:29Z</time><extensions><speed>1.498987</speed><course>62.161198</course><hAcc>0.884351</hAcc><vAcc>0.716419</vAcc></extensions></trkpt>
      <trkpt lon="-3.331479" lat="54.577448"><ele>133.525070</ele><time>2021-08-12T09:22:30Z</time><extensions><speed>1.435454</speed><course>66.043793</course><hAcc>0.884273</hAcc><vAcc>0.716119</vAcc></extensions></trkpt>
      <trkpt lon="-3.331458" lat="54.577447"><ele>133.499573</ele><time>2021-08-12T09:22:31Z</time><extensions><speed>1.358823</speed><course>75.803009</course><hAcc>0.884186</hAcc><vAcc>0.715775</vAcc></extensions></trkpt>
      <trkpt lon="-3.331438" lat="54.577445"><ele>133.488190</ele><time>2021-08-12T09:22:32Z</time><extensions><speed>1.269618</speed><course>76.191063</course><hAcc>0.884090</hAcc><vAcc>0.715394</vAcc></extensions></trkpt>
      <trkpt lon="-3.331419" lat="54.577444"><ele>133.488937</ele><time>2021-08-12T09:22:33Z</time><extensions><speed>1.168726</speed><course>76.349960</course><hAcc>0.883984</hAcc><vAcc>0.714979</vAcc></extensions></trkpt>
      <trkpt lon="-3.331402" lat="54.577442"><ele>133.499039</ele><time>2021-08-12T09:22:34Z</time><extensions><speed>1.057820</speed><course>78.477806</course><hAcc>0.883869</hAcc><vAcc>0.714537</vAcc></extensions></trkpt>
      <trkpt lon="-3.331387" lat="54.577441"><ele>133.514938</ele><time>2021-08-12T09:22:35Z</time><extensions><speed>0.939608</speed><course>75.070290</course><hAcc>0.883743</hAcc><vAcc>0.714067</vAcc></extensions></trkpt>
      <trkpt lon="-3.331373" lat="54.577440"><ele>133.532547</ele><time>2021-08-12T09:22:36Z</time><extensions><speed>0.817965</speed><course>69.086029</course><hAcc>0.883606</hAcc><vAcc>0.713571</vAcc></extensions></trkpt>
      <trkpt lon="-3.331361" lat="54.577440"><ele>133.547592</ele><time>2021-08-12T09:22:37Z</time><extensions><speed>0.697799</speed><course>68.949226</course><hAcc>0.883453</hAcc><vAcc>0.713044</vAcc></extensions></trkpt>
      <trkpt lon="-3.331352" lat="54.577439"><ele>133.555954</ele><time>2021-08-12T09:22:38Z</time><extensions><speed>0.585046</speed><course>71.686111</course><hAcc>0.883280</hAcc><vAcc>0.712479</vAcc></extensions></trkpt>
      <trkpt lon="-3.331343" lat="54.577438"><ele>133.554169</ele><time>2021-08-12T09:22:39Z</time><extensions><speed>0.486532</speed><course>76.597496</course><hAcc>0.883083</hAcc><vAcc>0.711859</vAcc></extensions></trkpt>
      <trkpt lon="-3.331336" lat="54.577438"><ele>133.539810</ele><time>2021-08-12T09:22:40Z</time><extensions><speed>0.408244</speed><course>90.005066</course><hAcc>0.882856</hAcc><vAcc>0.711164</vAcc></extensions></trkpt>
      <trkpt lon="-3.331331" lat="54.577438"><ele>133.511612</ele><time>2021-08-12T09:22:41Z</time><extensions><speed>0.353690</speed><course>83.948074</course><hAcc>0.882593</hAcc><vAcc>0.710372</vAcc></extensions></trkpt>
      <trkpt lon="-3.331325" lat="54.577438"><ele>133.469467</ele><time>2021-08-12T09:22:42Z</time><extensions><speed>0.323908</speed><course>76.996796</course><hAcc>0.882291</hAcc><vAcc>0.709460</vAcc></extensions></trkpt>
      <trkpt lon="-3.331320" lat="54.577438"><ele>133.414139</ele><time>2021-08-12T09:22:43Z</time><extensions><speed>0.318568</speed><course>79.507355</course><hAcc>0.881949</hAcc><vAcc>0.708396</vAcc></extensions></trkpt>
      <trkpt lon="-3.331315" lat="54.577438"><ele>133.347198</ele><time>2021-08-12T09:22:44Z</time><extensions><speed>0.336764</speed><course>72.096832</course><hAcc>0.881571</hAcc><vAcc>0.707145</vAcc></extensions></trkpt>
      <trkpt lon="-3.331310" lat="54.577437"><ele>133.271118</ele><time>2021-08-12T09:22:45Z</time><extensions><speed>0.375689</speed><course>80.368279</course><hAcc>0.881164</hAcc><vAcc>0.705681</vAcc></extensions></trkpt>
      <trkpt lon="-3.331304" lat="54.577437"><ele>133.189133</ele><time>2021-08-12T09:22:46Z</time><extensions><speed>0.430219</speed><course>78.982643</course><hAcc>0.880741</hAcc><vAcc>0.704022</vAcc></extensions></trkpt>
      <trkpt lon="-3.331297" lat="54.577436"><ele>133.104462</ele><time>2021-08-12T09:22:47Z</time><extensions><speed>0.495124</speed><course>81.075706</course><hAcc>0.880319</hAcc><vAcc>0.702236</vAcc></extensions></trkpt>
      <trkpt lon="-3.331289" lat="54.577435"><ele>133.019836</ele><time>2021-08-12T09:22:48Z</time><extensions><speed>0.565574</speed><course>81.007790</course><hAcc>0.879917</hAcc><vAcc>0.700437</vAcc></extensions></trkpt>
      <trkpt lon="-3.331280" lat="54.577433"><ele>132.937805</ele><time>2021-08-12T09:22:49Z</time><extensions><speed>0.637684</speed><course>78.272133</course><hAcc>0.879557</hAcc><vAcc>0.698763</vAcc></extensions></trkpt>
      <trkpt lon="-3.331270" lat="54.577430"><ele>132.860550</ele><time>2021-08-12T09:22:50Z</time><extensions><speed>0.709400</speed><course>73.069588</course><hAcc>0.879261</hAcc><vAcc>0.697364</vAcc></extensions></trkpt>
      <trkpt lon="-3.331260" lat="54.577427"><ele>132.789078</ele><time>2021-08-12T09:22:51Z</time><extensions><speed>0.779952</speed><course>77.189682</course><hAcc>0.879050</hAcc><vAcc>0.696377</vAcc></extensions></trkpt>
      <trkpt lon="-3.331249" lat="54.577424"><ele>132.723267</ele><time>2021-08-12T09:22:52Z</time><extensions><speed>0.849524</speed><course>75.197517</course><hAcc>0.878937</hAcc><vAcc>0.695896</vAcc></extensions></trkpt>
      <trkpt lon="-3.331238" lat="54.577420"><ele>132.662521</ele><time>2021-08-12T09:22:53Z</time><extensions><speed>0.919211</speed><course>67.733307</course><hAcc>0.878928</hAcc><vAcc>0.695940</vAcc></extensions></trkpt>
      <trkpt lon="-3.331225" lat="54.577415"><ele>132.605804</ele><time>2021-08-12T09:22:54Z</time><extensions><speed>0.989556</speed><course>69.123688</course><hAcc>0.879017</hAcc><vAcc>0.696452</vAcc></extensions></trkpt>
      <trkpt lon="-3.331212" lat="54.577410"><ele>132.551651</ele><time>2021-08-12T09:22:55Z</time><extensions><speed>1.060157</speed><course>71.299400</course><hAcc>0.879190</hAcc><vAcc>0.697317</vAcc></extensions></trkpt>
      <trkpt lon="-3.331199" lat="54.577404"><ele>132.498199</ele><time>2021-08-12T09:22:56Z</time><extensions><speed>1.129258</speed><course>77.479210</course><hAcc>0.879430</hAcc><vAcc>0.698409</vAcc></extensions></trkpt>
      <trkpt lon="-3.331184" lat="54.577398"><ele>132.443161</ele><time>2021-08-12T09:22:57Z</time><extensions><speed>1.193827</speed><course>68.623329</course><hAcc>0.879716</hAcc><vAcc>0.699620</vAcc></extensions></trkpt>
      <trkpt lon="-3.331169" lat="54.577391"><ele>132.384369</ele><time>2021-08-12T09:22:58Z</time><extensions><speed>1.252143</speed><course>63.866425</course><hAcc>0.880031</hAcc><vAcc>0.700868</vAcc></extensions></trkpt>
      <trkpt lon="-3.331153" lat="54.577385"><ele>132.319962</ele><time>2021-08-12T09:22:59Z</time><extensions><speed>1.303300</speed><course>76.291603</course><hAcc>0.880359</hAcc><vAcc>0.702102</vAcc></extensions></trkpt>
      <trkpt lon="-3.331136" lat="54.577378"><ele>132.248413</ele><time>2021-08-12T09:23:00Z</time><extensions><speed>1.346722</speed><course>71.777351</course><hAcc>0.880685</hAcc><vAcc>0.703292</vAcc></extensions></trkpt>
      <trkpt lon="-3.331119" lat="54.577370"><ele>132.168976</ele><time>2021-08-12T09:23:01Z</time><extensions><speed>1.382390</speed><course>76.476341</course><hAcc>0.881000</hAcc><vAcc>0.704417</vAcc></extensions></trkpt>
      <trkpt lon="-3.331102" lat="54.577363"><ele>132.081711</ele><time>2021-08-12T09:23:02Z</time><extensions><speed>1.410629</speed><course>63.346680</course><hAcc>0.881296</hAcc><vAcc>0.705467</vAcc></extensions></trkpt>
      <trkpt lon="-3.331084" lat="54.577356"><ele>131.987091</ele><time>2021-08-12T09:23:03Z</time><extensions><speed>1.432056</speed><course>60.883244</course><hAcc>0.881568</hAcc><vAcc>0.706431</vAcc></extensions></trkpt>
      <trkpt lon="-3.331066" lat="54.577348"><ele>131.885834</ele><time>2021-08-12T09:23:04Z</time><extensions><speed>1.447508</speed><course>66.100471</course><hAcc>0.881815</hAcc><vAcc>0.707307</vAcc></extensions></trkpt>
      <trkpt lon="-3.331048" lat="54.577340"><ele>131.779236</ele><time>2021-08-12T09:23:05Z</time><extensions><speed>1.458169</speed><course>66.284729</course><hAcc>0.882036</hAcc><vAcc>0.708094</vAcc></extensions></trkpt>
      <trkpt lon="-3.331029" lat="54.577332"><ele>131.669525</ele><time>2021-08-12T09:23:06Z</time><extensions><speed>1.465272</speed><course>70.183884</course><hAcc>0.882231</hAcc><vAcc>0.708793</vAcc></extensions></trkpt>
      <trkpt lon="-3.331011" lat="54.577325"><ele>131.558945</ele><time>2021-08-12T09:23:07Z</time><extensions><speed>1.470771</speed><course>69.091454</course><hAcc>0.882403</hAcc><vAcc>0.709407</vAcc></extensions></trkpt>
      <trkpt lon="-3.330993" lat="54.577317"><ele>131.449188</ele><time>2021-08-12T09:23:08Z</time><extensions><speed>1.477238</speed><course>67.595528</course><hAcc>0.882555</hAcc><vAcc>0.709938</vAcc></extensions></trkpt>
      <trkpt lon="-3.330975" lat="54.577308"><ele>131.341583</ele><time>2021-08-12T09:23:09Z</time><extensions><speed>1.486645</speed><course>69.079941</course><hAcc>0.882690</hAcc><vAcc>0.710390</vAcc></extensions></trkpt>
      <trkpt lon="-3.330957" lat="54.577300"><ele>131.237091</ele><time>2021-08-12T09:23:10Z</time><extensions><speed>1.500161</speed><course>67.638985</course><hAcc>0.882814</hAcc><vAcc>0.710774</vAcc></extensions></trkpt>
      <trkpt lon="-3.330939" lat="54.577292"><ele>131.136139</ele><time>2021-08-12T09:23:11Z</time><extensions><speed>1.518672</speed><course>67.902077</course><hAcc>0.882929</hAcc><vAcc>0.711110</vAcc></extensions></trkpt>
      <trkpt lon="-3.330920" lat="54.577283"><ele>131.038651</ele><time>2021-08-12T09:23:12Z</time><extensions><speed>1.541590</speed><course>68.213737</course><hAcc>0.883040</hAcc><vAcc>0.711426</vAcc></extensions></trkpt>
      <trkpt lon="-3.330902" lat="54.577274"><ele>130.944214</ele><time>2021-08-12T09:23:13Z</time><extensions><speed>1.566399</speed><course>58.646133</course><hAcc>0.883152</hAcc><vAcc>0.711752</vAcc></extensions></trkpt>
      <trkpt lon="-3.330883" lat="54.577265"><ele>130.851944</ele><time>2021-08-12T09:23:14Z</time><extensions><speed>1.590960</speed><course>60.787758</course><hAcc>0.883267</hAcc><vAcc>0.712113</vAcc></extensions></trkpt>
      <trkpt lon="-3.330864" lat="54.577256"><ele>130.760651</ele><time>2021-08-12T09:23:15Z</time><extensions><speed>1.613943</speed><course>59.107254</course><hAcc>0.883387</hAcc><vAcc>0.712530</vAcc></extensions></trkpt>
      <trkpt lon="-3.330844" lat="54.577247"><ele>130.668930</ele><time>2021-08-12T09:23:16Z</time><extensions><speed>1.634447</speed><course>59.308796</course><hAcc>0.883515</hAcc><vAcc>0.713010</vAcc></extensions></trkpt>
      <trkpt lon="-3.330825" lat="54.577237"><ele>130.575302</ele><time>2021-08-12T09:23:17Z</time><extensions><speed>1.651210</speed><course>63.536522</course><hAcc>0.883649</hAcc><vAcc>0.713551</vAcc></extensions></trkpt>
      <trkpt lon="-3.330805" lat="54.577228"><ele>130.478516</ele><time>2021-08-12T09:23:18Z</time><extensions><speed>1.663308</speed><course>64.110619</course><hAcc>0.883789</hAcc><vAcc>0.714138</vAcc></extensions></trkpt>
      <trkpt lon="-3.330786" lat="54.577218"><ele>130.377762</ele><time>2021-08-12T09:23:19Z</time><extensions><speed>1.670744</speed><course>57.783936</course><hAcc>0.883935</hAcc><vAcc>0.714751</vAcc></extensions></trkpt>
      <trkpt lon="-3.330766" lat="54.577208"><ele>130.272903</ele><time>2021-08-12T09:23:20Z</time><extensions><speed>1.673471</speed><course>62.673740</course><hAcc>0.884084</hAcc><vAcc>0.715365</vAcc></extensions></trkpt>
      <trkpt lon="-3.330747" lat="54.577198"><ele>130.164688</ele><time>2021-08-12T09:23:21Z</time><extensions><speed>1.671770</speed><course>68.268181</course><hAcc>0.884234</hAcc><vAcc>0.715963</vAcc></extensions></trkpt>
      <trkpt lon="-3.330728" lat="54.577188"><ele>130.054367</ele><time>2021-08-12T09:23:22Z</time><extensions><speed>1.666192</speed><course>59.735432</course><hAcc>0.884383</hAcc><vAcc>0.716531</vAcc></extensions></trkpt>
      <trkpt lon="-3.330709" lat="54.577178"><ele>129.943176</ele><time>2021-08-12T09:23:23Z</time><extensions><speed>1.657466</speed><course>59.192490</course><hAcc>0.884529</hAcc><vAcc>0.717061</vAcc></extensions></trkpt>
      <trkpt lon="-3.330690" lat="54.577167"><ele>129.831940</ele><time>2021-08-12T09:23:24Z</time><extensions><speed>1.646437</speed><course>60.825825</course><hAcc>0.884672</hAcc><vAcc>0.717552</vAcc></extensions></trkpt>
      <trkpt lon="-3.330673" lat="54.577157"><ele>129.721130</ele><time>2021-08-12T09:23:25Z</time><extensions><speed>1.634030</speed><course>62.921200</course><hAcc>0.884811</hAcc><vAcc>0.718010</vAcc></extensions></trkpt>
      <trkpt lon="-3.330655" lat="54.577146"><ele>129.611038</ele><time>2021-08-12T09:23:26Z</time><extensions><speed>1.621159</speed><course>59.145714</course><hAcc>0.884944</hAcc><vAcc>0.718445</vAcc></extensions></trkpt>
      <trkpt lon="-3.330638" lat="54.577136"><ele>129.501419</ele><time>2021-08-12T09:23:27Z</time><extensions><speed>1.608443</speed><course>54.852036</course><hAcc>0.885073</hAcc><vAcc>0.718868</vAcc></extensions></trkpt>
      <trkpt lon="-3.330622" lat="54.577125"><ele>129.391327</ele><time>2021-08-12T09:23:28Z</time><extensions><speed>1.596207</speed><course>52.958679</course><hAcc>0.885198</hAcc><vAcc>0.719290</vAcc></extensions></trkpt>
      <trkpt lon="-3.330606" lat="54.577114"><ele>129.279404</ele><time>2021-08-12T09:23:29Z</time><extensions><speed>1.584417</speed><course>51.642593</course><hAcc>0.885317</hAcc><vAcc>0.719717</vAcc></extensions></trkpt>
      <trkpt lon="-3.330591" lat="54.577103"><ele>129.164398</ele><time>2021-08-12T09:23:30Z</time><extensions><speed>1.572639</speed><course>50.915668</course><hAcc>0.885430</hAcc><vAcc>0.720151</vAcc></extensions></trkpt>
      <trkpt lon="-3.330576" lat="54.577092"><ele>129.045502</ele><time>2021-08-12T09:23:31Z</time><extensions><speed>1.560161</speed><course>43.517220</course><hAcc>0.885536</hAcc><vAcc>0.720586</vAcc></extensions></trkpt>
      <trkpt lon="-3.330561" lat="54.577081"><ele>128.922440</ele><time>2021-08-12T09:23:32Z</time><extensions><speed>1.546287</speed><course>53.213661</course><hAcc>0.885633</hAcc><vAcc>0.721009</vAcc></extensions></trkpt>
      <trkpt lon="-3.330547" lat="54.577070"><ele>128.795456</ele><time>2021-08-12T09:23:33Z</time><extensions><speed>1.530483</speed><course>42.672325</course><hAcc>0.885719</hAcc><vAcc>0.721403</vAcc></extensions></trkpt>
      <trkpt lon="-3.330533" lat="54.577059"><ele>128.665298</ele><time>2021-08-12T09:23:34Z</time><extensions><speed>1.512524</speed><course>57.842590</course><hAcc>0.885792</hAcc><vAcc>0.721747</vAcc></extensions></trkpt>
      <trkpt lon="-3.330520" lat="54.577048"><ele>128.533035</ele><time>2021-08-12T09:23:35Z</time><extensions><speed>1.492301</speed><course>54.432369</course><hAcc>0.885849</hAcc><vAcc>0.722020</vAcc></extensions></trkpt>
      <trkpt lon="-3.330507" lat="54.577037"><ele>128.399658</ele><time>2021-08-12T09:23:36Z</time><extensions><speed>1.469550</speed><course>53.099045</course><hAcc>0.885886</hAcc><vAcc>0.722206</vAcc></extensions></trkpt>
      <trkpt lon="-3.330494" lat="54.577026"><ele>128.265579</ele><time>2021-08-12T09:23:37Z</time><extensions><speed>1.443860</speed><course>52.709480</course><hAcc>0.885900</hAcc><vAcc>0.722297</vAcc></extensions></trkpt>
      <trkpt lon="-3.330482" lat="54.577015"><ele>128.130341</ele><time>2021-08-12T09:23:38Z</time><extensions><speed>1.415221</speed><course>55.566643</course><hAcc>0.885889</hAcc><vAcc>0.722284</vAcc></extensions></trkpt>
      <trkpt lon="-3.330470" lat="54.577005"><ele>127.992989</ele><time>2021-08-12T09:23:39Z</time><extensions><speed>1.384408</speed><course>50.999676</course><hAcc>0.885850</hAcc><vAcc>0.722162</vAcc></extensions></trkpt>
      <trkpt lon="-3.330459" lat="54.576994"><ele>127.852715</ele><time>2021-08-12T09:23:40Z</time><extensions><speed>1.352641</speed><course>49.932701</course><hAcc>0.885784</hAcc><vAcc>0.721927</vAcc></extensions></trkpt>
      <trkpt lon="-3.330448" lat="54.576984"><ele>127.708954</ele><time>2021-08-12T09:23:41Z</time><extensions><speed>1.321297</speed><course>44.103298</course><hAcc>0.885691</hAcc><vAcc>0.721573</vAcc></extensions></trkpt>
      <trkpt lon="-3.330438" lat="54.576974"><ele>127.561569</ele><time>2021-08-12T09:23:42Z</time><extensions><speed>1.292047</speed><course>35.959499</course><hAcc>0.885573</hAcc><vAcc>0.721099</vAcc></extensions></trkpt>
      <trkpt lon="-3.330428" lat="54.576964"><ele>127.410728</ele><time>2021-08-12T09:23:43Z</time><extensions><speed>1.266850</speed><course>30.952709</course><hAcc>0.885431</hAcc><vAcc>0.720514</vAcc></extensions></trkpt>
      <trkpt lon="-3.330418" lat="54.576954"><ele>127.256508</ele><time>2021-08-12T09:23:44Z</time><extensions><speed>1.247439</speed><course>43.709347</course><hAcc>0.885268</hAcc><vAcc>0.719834</vAcc></extensions></trkpt>
      <trkpt lon="-3.330409" lat="54.576944"><ele>127.098610</ele><time>2021-08-12T09:23:45Z</time><extensions><speed>1.233326</speed><course>37.574459</course><hAcc>0.885084</hAcc><vAcc>0.719086</vAcc></extensions></trkpt>
      <trkpt lon="-3.330400" lat="54.576935"><ele>126.936508</ele><time>2021-08-12T09:23:46Z</time><extensions><speed>1.222466</speed><course>40.028488</course><hAcc>0.884879</hAcc><vAcc>0.718290</vAcc></extensions></trkpt>
      <trkpt lon="-3.330391" lat="54.576925"><ele>126.770233</ele><time>2021-08-12T09:23:47Z</time><extensions><speed>1.214329</speed><course>39.088745</course><hAcc>0.884654</hAcc><vAcc>0.717459</vAcc></extensions></trkpt>
      <trkpt lon="-3.330382" lat="54.576915"><ele>126.601311</ele><time>2021-08-12T09:23:48Z</time><extensions><speed>1.209302</speed><course>38.227211</course><hAcc>0.884410</hAcc><vAcc>0.716595</vAcc></extensions></trkpt>
      <trkpt lon="-3.330374" lat="54.576906"><ele>126.432159</ele><time>2021-08-12T09:23:49Z</time><extensions><speed>1.207588</speed><course>38.580025</course><hAcc>0.884149</hAcc><vAcc>0.715689</vAcc></extensions></trkpt>
      <trkpt lon="-3.330365" lat="54.576896"><ele>126.265266</ele><time>2021-08-12T09:23:50Z</time><extensions><speed>1.209183</speed><course>36.225418</course><hAcc>0.883872</hAcc><vAcc>0.714731</vAcc></extensions></trkpt>
      <trkpt lon="-3.330357" lat="54.576886"><ele>126.103104</ele><time>2021-08-12T09:23:51Z</time><extensions><speed>1.213882</speed><course>36.482189</course><hAcc>0.883579</hAcc><vAcc>0.713710</vAcc></extensions></trkpt>
      <trkpt lon="-3.330349" lat="54.576876"><ele>125.947937</ele><time>2021-08-12T09:23:52Z</time><extensions><speed>1.220990</speed><course>45.117634</course><hAcc>0.883275</hAcc><vAcc>0.712620</vAcc></extensions></trkpt>
      <trkpt lon="-3.330340" lat="54.576867"><ele>125.801636</ele><time>2021-08-12T09:23:53Z</time><extensions><speed>1.229367</speed><course>40.176819</course><hAcc>0.882961</hAcc><vAcc>0.711465</vAcc></extensions></trkpt>
      <trkpt lon="-3.330332" lat="54.576857"><ele>125.665253</ele><time>2021-08-12T09:23:54Z</time><extensions><speed>1.238048</speed><course>42.588684</course><hAcc>0.882642</hAcc><vAcc>0.710257</vAcc></extensions></trkpt>
      <trkpt lon="-3.330324" lat="54.576847"><ele>125.538712</ele><time>2021-08-12T09:23:55Z</time><extensions><speed>1.246363</speed><course>41.771687</course><hAcc>0.882323</hAcc><vAcc>0.709016</vAcc></extensions></trkpt>
      <trkpt lon="-3.330315" lat="54.576837"><ele>125.420677</ele><time>2021-08-12T09:23:56Z</time><extensions><speed>1.254096</speed><course>41.372017</course><hAcc>0.882011</hAcc><vAcc>0.707769</vAcc></extensions></trkpt>
      <trkpt lon="-3.330307" lat="54.576826"><ele>125.309166</ele><time>2021-08-12T09:23:57Z</time><extensions><speed>1.261681</speed><course>37.017429</course><hAcc>0.881715</hAcc><vAcc>0.706555</vAcc></extensions></trkpt>
      <trkpt lon="-3.330298" lat="54.576816"><ele>125.202141</ele><time>2021-08-12T09:23:58Z</time><extensions><speed>1.269369</speed><course>28.588495</course><hAcc>0.881442</hAcc><vAcc>0.705418</vAcc></extensions></trkpt>
      <trkpt lon="-3.330289" lat="54.576806"><ele>125.097565</ele><time>2021-08-12T09:23:59Z</time><extensions><speed>1.277324</speed><course>39.512306</course><hAcc>0.881201</hAcc><vAcc>0.704408</vAcc></extensions></trkpt>
      <trkpt lon="-3.330281" lat="54.576796"><ele>124.993622</ele><time>2021-08-12T09:24:00Z</time><extensions><speed>1.285959</speed><course>38.955353</course><hAcc>0.880998</hAcc><vAcc>0.703569</vAcc></extensions></trkpt>
      <trkpt lon="-3.330272" lat="54.576785"><ele>124.888870</ele><time>2021-08-12T09:24:01Z</time><extensions><speed>1.295528</speed><course>35.270641</course><hAcc>0.880839</hAcc><vAcc>0.702937</vAcc></extensions></trkpt>
      <trkpt lon="-3.330264" lat="54.576774"><ele>124.782356</ele><time>2021-08-12T09:24:02Z</time><extensions><speed>1.306382</speed><course>38.302330</course><hAcc>0.880725</hAcc><vAcc>0.702527</vAcc></extensions></trkpt>
      <trkpt lon="-3.330255" lat="54.576764"><ele>124.673813</ele><time>2021-08-12T09:24:03Z</time><extensions><speed>1.318637</speed><course>40.976086</course><hAcc>0.880657</hAcc><vAcc>0.702334</vAcc></extensions></trkpt>
      <trkpt lon="-3.330247" lat="54.576753"><ele>124.563728</ele><time>2021-08-12T09:24:04Z</time><extensions><speed>1.331902</speed><course>40.718147</course><hAcc>0.880631</hAcc><vAcc>0.702331</vAcc></extensions></trkpt>
      <trkpt lon="-3.330239" lat="54.576742"><ele>124.453133</ele><time>2021-08-12T09:24:05Z</time><extensions><speed>1.345526</speed><course>40.437557</course><hAcc>0.880643</hAcc><vAcc>0.702483</vAcc></extensions></trkpt>
      <trkpt lon="-3.330230" lat="54.576731"><ele>124.343102</ele><time>2021-08-12T09:24:06Z</time><extensions><speed>1.358969</speed><course>38.315979</course><hAcc>0.880684</hAcc><vAcc>0.702746</vAcc></extensions></trkpt>
      <trkpt lon="-3.330222" lat="54.576719"><ele>124.234673</ele><time>2021-08-12T09:24:07Z</time><extensions><speed>1.371733</speed><course>28.668550</course><hAcc>0.880746</hAcc><vAcc>0.703080</vAcc></extensions></trkpt>
      <trkpt lon="-3.330214" lat="54.576708"><ele>124.128883</ele><time>2021-08-12T09:24:08Z</time><extensions><speed>1.383835</speed><course>31.392698</course><hAcc>0.880822</hAcc><vAcc>0.703446</vAcc></extensions></trkpt>
      <trkpt lon="-3.330206" lat="54.576696"><ele>124.026711</ele><time>2021-08-12T09:24:09Z</time><extensions><speed>1.395725</speed><course>32.848076</course><hAcc>0.880903</hAcc><vAcc>0.703812</vAcc></extensions></trkpt>
      <trkpt lon="-3.330198" lat="54.576685"><ele>123.928833</ele><time>2021-08-12T09:24:10Z</time><extensions><speed>1.406784</speed><course>38.096359</course><hAcc>0.880980</hAcc><vAcc>0.704154</vAcc></extensions></trkpt>
      <trkpt lon="-3.330190" lat="54.576673"><ele>123.835480</ele><time>2021-08-12T09:24:11Z</time><extensions><speed>1.415937</speed><course>27.737675</course><hAcc>0.881049</hAcc><vAcc>0.704449</vAcc></extensions></trkpt>
      <trkpt lon="-3.330182" lat="54.576661"><ele>123.746460</ele><time>2021-08-12T09:24:12Z</time><extensions><speed>1.422515</speed><course>38.820049</course><hAcc>0.881104</hAcc><vAcc>0.704680</vAcc></extensions></trkpt>
      <trkpt lon="-3.330174" lat="54.576649"><ele>123.661186</ele><time>2021-08-12T09:24:13Z</time><extensions><speed>1.426350</speed><course>40.137299</course><hAcc>0.881140</hAcc><vAcc>0.704831</vAcc></extensions></trkpt>
      <trkpt lon="-3.330166" lat="54.576637"><ele>123.578819</ele><time>2021-08-12T09:24:14Z</time><extensions><speed>1.427914</speed><course>44.560421</course><hAcc>0.881157</hAcc><vAcc>0.704891</vAcc></extensions></trkpt>
      <trkpt lon="-3.330158" lat="54.576625"><ele>123.498344</ele><time>2021-08-12T09:24:15Z</time><extensions><speed>1.427940</speed><course>41.574787</course><hAcc>0.881153</hAcc><vAcc>0.704859</vAcc></extensions></trkpt>
      <trkpt lon="-3.330150" lat="54.576613"><ele>123.418419</ele><time>2021-08-12T09:24:16Z</time><extensions><speed>1.427064</speed><course>37.402897</course><hAcc>0.881129</hAcc><vAcc>0.704744</vAcc></extensions></trkpt>
      <trkpt lon="-3.330143" lat="54.576601"><ele>123.337631</ele><time>2021-08-12T09:24:17Z</time><extensions><speed>1.426085</speed><course>38.445354</course><hAcc>0.881087</hAcc><vAcc>0.704557</vAcc></extensions></trkpt>
      <trkpt lon="-3.330136" lat="54.576589"><ele>123.254906</ele><time>2021-08-12T09:24:18Z</time><extensions><speed>1.426220</speed><course>32.932274</course><hAcc>0.881029</hAcc><vAcc>0.704312</vAcc></extensions></trkpt>
      <trkpt lon="-3.330129" lat="54.576577"><ele>123.169312</ele><time>2021-08-12T09:24:19Z</time><extensions><speed>1.428342</speed><course>27.701353</course><hAcc>0.880961</hAcc><vAcc>0.704020</vAcc></extensions></trkpt>
      <trkpt lon="-3.330122" lat="54.576565"><ele>123.079727</ele><time>2021-08-12T09:24:20Z</time><extensions><speed>1.432433</speed><course>28.233585</course><hAcc>0.880886</hAcc><vAcc>0.703695</vAcc></extensions></trkpt>
      <trkpt lon="-3.330116" lat="54.576552"><ele>122.984894</ele><time>2021-08-12T09:24:21Z</time><extensions><speed>1.437736</speed><course>30.003765</course><hAcc>0.880809</hAcc><vAcc>0.703356</vAcc></extensions></trkpt>
      <trkpt lon="-3.330109" lat="54.576540"><ele>122.883812</ele><time>2021-08-12T09:24:22Z</time><extensions><speed>1.443680</speed><course>35.586266</course><hAcc>0.880736</hAcc><vAcc>0.703026</vAcc></extensions></trkpt>
      <trkpt lon="-3.330103" lat="54.576527"><ele>122.775795</ele><time>2021-08-12T09:24:23Z</time><extensions><speed>1.450110</speed><course>41.034397</course><hAcc>0.880672</hAcc><vAcc>0.702731</vAcc></extensions></trkpt>
      <trkpt lon="-3.330097" lat="54.576515"><ele>122.660378</ele><time>2021-08-12T09:24:24Z</time><extensions><speed>1.456750</speed><course>43.040592</course><hAcc>0.880621</hAcc><vAcc>0.702492</vAcc></extensions></trkpt>
      <trkpt lon="-3.330091" lat="54.576502"><ele>122.537399</ele><time>2021-08-12T09:24:25Z</time><extensions><speed>1.463286</speed><course>49.550934</course><hAcc>0.880587</hAcc><vAcc>0.702327</vAcc></extensions></trkpt>
      <trkpt lon="-3.330084" lat="54.576489"><ele>122.407013</ele><time>2021-08-12T09:24:26Z</time><extensions><speed>1.469095</speed><course>62.069283</course><hAcc>0.880571</hAcc><vAcc>0.702251</vAcc></extensions></trkpt>
      <trkpt lon="-3.330078" lat="54.576477"><ele>122.269432</ele><time>2021-08-12T09:24:27Z</time><extensions><speed>1.473268</speed><course>68.512573</course><hAcc>0.880575</hAcc><vAcc>0.702276</vAcc></extensions></trkpt>
      <trkpt lon="-3.330071" lat="54.576464"><ele>122.124733</ele><time>2021-08-12T09:24:28Z</time><extensions><speed>1.475214</speed><course>76.544746</course><hAcc>0.880597</hAcc><vAcc>0.702398</vAcc></extensions></trkpt>
      <trkpt lon="-3.330065" lat="54.576451"><ele>121.973061</ele><time>2021-08-12T09:24:29Z</time><extensions><speed>1.474966</speed><course>91.471558</course><hAcc>0.880634</hAcc><vAcc>0.702599</vAcc></extensions></trkpt>
      <trkpt lon="-3.330058" lat="54.576439"><ele>121.815125</ele><time>2021-08-12T09:24:30Z</time><extensions><speed>1.472559</speed><course>103.707001</course><hAcc>0.880682</hAcc><vAcc>0.702851</vAcc></extensions></trkpt>
      <trkpt lon="-3.330051" lat="54.576426"><ele>121.652367</ele><time>2021-08-12T09:24:31Z</time><extensions><speed>1.467798</speed><course>102.240677</course><hAcc>0.880734</hAcc><vAcc>0.703126</vAcc></extensions></trkpt>
      <trkpt lon="-3.330044" lat="54.576414"><ele>121.486496</ele><time>2021-08-12T09:24:32Z</time><extensions><speed>1.460453</speed><course>109.008522</course><hAcc>0.880785</hAcc><vAcc>0.703393</vAcc></extensions></trkpt>
      <trkpt lon="-3.330036" lat="54.576401"><ele>121.319054</ele><time>2021-08-12T09:24:33Z</time><extensions><speed>1.450343</speed><course>120.687057</course><hAcc>0.880828</hAcc><vAcc>0.703624</vAcc></extensions></trkpt>
      <trkpt lon="-3.330029" lat="54.576389"><ele>121.151169</ele><time>2021-08-12T09:24:34Z</time><extensions><speed>1.437654</speed><course>122.518364</course><hAcc>0.880858</hAcc><vAcc>0.703799</vAcc></extensions></trkpt>
      <trkpt lon="-3.330021" lat="54.576377"><ele>120.983604</ele><time>2021-08-12T09:24:35Z</time><extensions><speed>1.422796</speed><course>116.435341</course><hAcc>0.880868</hAcc><vAcc>0.703905</vAcc></extensions></trkpt>
      <trkpt lon="-3.330013" lat="54.576365"><ele>120.816956</ele><time>2021-08-12T09:24:36Z</time><extensions><speed>1.406260</speed><course>123.806564</course><hAcc>0.880856</hAcc><vAcc>0.703930</vAcc></extensions></trkpt>
      <trkpt lon="-3.330004" lat="54.576354"><ele>120.651810</ele><time>2021-08-12T09:24:37Z</time><extensions><speed>1.389070</speed><course>121.279266</course><hAcc>0.880819</hAcc><vAcc>0.703858</vAcc></extensions></trkpt>
      <trkpt lon="-3.329995" lat="54.576343"><ele>120.488327</ele><time>2021-08-12T09:24:38Z</time><extensions><speed>1.372072</speed><course>122.295830</course><hAcc>0.880759</hAcc><vAcc>0.703665</vAcc></extensions></trkpt>
      <trkpt lon="-3.329986" lat="54.576332"><ele>120.325768</ele><time>2021-08-12T09:24:39Z</time><extensions><speed>1.355852</speed><course>116.485687</course><hAcc>0.880678</hAcc><vAcc>0.703340</vAcc></extensions></trkpt>
      <trkpt lon="-3.329977" lat="54.576321"><ele>120.162529</ele><time>2021-08-12T09:24:40Z</time><extensions><speed>1.340991</speed><course>120.837761</course><hAcc>0.880583</hAcc><vAcc>0.702894</vAcc></extensions></trkpt>
      <trkpt lon="-3.329967" lat="54.576310"><ele>119.996597</ele><time>2021-08-12T09:24:41Z</time><extensions><speed>1.327754</speed><course>121.691162</course><hAcc>0.880482</hAcc><vAcc>0.702365</vAcc></extensions></trkpt>
      <trkpt lon="-3.329958" lat="54.576300"><ele>119.826202</ele><time>2021-08-12T09:24:42Z</time><extensions><speed>1.316441</speed><course>120.429344</course><hAcc>0.880384</hAcc><vAcc>0.701811</vAcc></extensions></trkpt>
      <trkpt lon="-3.329948" lat="54.576289"><ele>119.650093</ele><time>2021-08-12T09:24:43Z</time><extensions><speed>1.307464</speed><course>127.922836</course><hAcc>0.880301</hAcc><vAcc>0.701307</vAcc></extensions></trkpt>
      <trkpt lon="-3.329938" lat="54.576279"><ele>119.467842</ele><time>2021-08-12T09:24:44Z</time><extensions><speed>1.301315</speed><course>122.773224</course><hAcc>0.880242</hAcc><vAcc>0.700922</vAcc></extensions></trkpt>
      <trkpt lon="-3.329928" lat="54.576269"><ele>119.279961</ele><time>2021-08-12T09:24:45Z</time><extensions><speed>1.297943</speed><course>127.410233</course><hAcc>0.880216</hAcc><vAcc>0.700717</vAcc></extensions></trkpt>
      <trkpt lon="-3.329918" lat="54.576259"><ele>119.087524</ele><time>2021-08-12T09:24:46Z</time><extensions><speed>1.296837</speed><course>126.293243</course><hAcc>0.880228</hAcc><vAcc>0.700728</vAcc></extensions></trkpt>
      <trkpt lon="-3.329908" lat="54.576249"><ele>118.891930</ele><time>2021-08-12T09:24:47Z</time><extensions><speed>1.297485</speed><course>113.773628</course><hAcc>0.880281</hAcc><vAcc>0.700968</vAcc></extensions></trkpt>
      <trkpt lon="-3.329898" lat="54.576239"><ele>118.695267</ele><time>2021-08-12T09:24:48Z</time><extensions><speed>1.299414</speed><course>111.597641</course><hAcc>0.880371</hAcc><vAcc>0.701419</vAcc></extensions></trkpt>
      <trkpt lon="-3.329888" lat="54.576228"><ele>118.501022</ele><time>2021-08-12T09:24:49Z</time><extensions><speed>1.302699</speed><course>118.242065</course><hAcc>0.880492</hAcc><vAcc>0.702036</vAcc></extensions></trkpt>
      <trkpt lon="-3.329879" lat="54.576218"><ele>118.314423</ele><time>2021-08-12T09:24:50Z</time><extensions><speed>1.307912</speed><course>121.318916</course><hAcc>0.880633</hAcc><vAcc>0.702750</vAcc></extensions></trkpt>
      <trkpt lon="-3.329869" lat="54.576208"><ele>118.141151</ele><time>2021-08-12T09:24:51Z</time><extensions><speed>1.314908</speed><course>126.571838</course><hAcc>0.880783</hAcc><vAcc>0.703484</vAcc></extensions></trkpt>
      <trkpt lon="-3.329860" lat="54.576197"><ele>117.984779</ele><time>2021-08-12T09:24:52Z</time><extensions><speed>1.322358</speed><course>116.053932</course><hAcc>0.880926</hAcc><vAcc>0.704167</vAcc></extensions></trkpt>
      <trkpt lon="-3.329851" lat="54.576186"><ele>117.845757</ele><time>2021-08-12T09:24:53Z</time><extensions><speed>1.328837</speed><course>122.553452</course><hAcc>0.881049</hAcc><vAcc>0.704738</vAcc></extensions></trkpt>
      <trkpt lon="-3.329843" lat="54.576176"><ele>117.722504</ele><time>2021-08-12T09:24:54Z</time><extensions><speed>1.333135</speed><course>115.362396</course><hAcc>0.881140</hAcc><vAcc>0.705152</vAcc></extensions></trkpt>
      <trkpt lon="-3.329835" lat="54.576165"><ele>117.612823</ele><time>2021-08-12T09:24:55Z</time><extensions><speed>1.333966</speed><course>120.016403</course><hAcc>0.881187</hAcc><vAcc>0.705382</vAcc></extensions></trkpt>
      <trkpt lon="-3.329827" lat="54.576153"><ele>117.514992</ele><time>2021-08-12T09:24:56Z</time><extensions><speed>1.330613</speed><course>131.521149</course><hAcc>0.881179</hAcc><vAcc>0.705405</vAcc></extensions></trkpt>
      <trkpt lon="-3.329820" lat="54.576142"><ele>117.428085</ele><time>2021-08-12T09:24:57Z</time><extensions><speed>1.322624</speed><course>124.976143</course><hAcc>0.881111</hAcc><vAcc>0.705206</vAcc></extensions></trkpt>
      <trkpt lon="-3.329813" lat="54.576131"><ele>117.351784</ele><time>2021-08-12T09:24:58Z</time><extensions><speed>1.309436</speed><course>123.546791</course><hAcc>0.880977</hAcc><vAcc>0.704773</vAcc></extensions></trkpt>
      <trkpt lon="-3.329808" lat="54.576120"><ele>117.286125</ele><time>2021-08-12T09:24:59Z</time><extensions><speed>1.290292</speed><course>116.699699</course><hAcc>0.880778</hAcc><vAcc>0.704103</vAcc></extensions></trkpt>
      <trkpt lon="-3.329803" lat="54.576109"><ele>117.231163</ele><time>2021-08-12T09:25:00Z</time><extensions><speed>1.264619</speed><course>112.924561</course><hAcc>0.880515</hAcc><vAcc>0.703191</vAcc></extensions></trkpt>
      <trkpt lon="-3.329799" lat="54.576098"><ele>117.186432</ele><time>2021-08-12T09:25:01Z</time><extensions><speed>1.233056</speed><course>117.858780</course><hAcc>0.880197</hAcc><vAcc>0.702037</vAcc></extensions></trkpt>
      <trkpt lon="-3.329795" lat="54.576087"><ele>117.150711</ele><time>2021-08-12T09:25:02Z</time><extensions><speed>1.196843</speed><course>111.630035</course><hAcc>0.879834</hAcc><vAcc>0.700651</vAcc></extensions></trkpt>
      <trkpt lon="-3.329793" lat="54.576076"><ele>117.122330</ele><time>2021-08-12T09:25:03Z</time><extensions><speed>1.157293</speed><course>115.453979</course><hAcc>0.879442</hAcc><vAcc>0.699072</vAcc></extensions></trkpt>
      <trkpt lon="-3.329792" lat="54.576066"><ele>117.099609</ele><time>2021-08-12T09:25:04Z</time><extensions><speed>1.115799</speed><course>108.625862</course><hAcc>0.879040</hAcc><vAcc>0.697376</vAcc></extensions></trkpt>
      <trkpt lon="-3.329791" lat="54.576056"><ele>117.081589</ele><time>2021-08-12T09:25:05Z</time><extensions><speed>1.073675</speed><course>116.435417</course><hAcc>0.878649</hAcc><vAcc>0.695669</vAcc></extensions></trkpt>
      <trkpt lon="-3.329792" lat="54.576047"><ele>117.068230</ele><time>2021-08-12T09:25:06Z</time><extensions><speed>1.032484</speed><course>112.323517</course><hAcc>0.878292</hAcc><vAcc>0.694071</vAcc></extensions></trkpt>
      <trkpt lon="-3.329794" lat="54.576038"><ele>117.059967</ele><time>2021-08-12T09:25:07Z</time><extensions><speed>0.993665</speed><course>117.491661</course><hAcc>0.877989</hAcc><vAcc>0.692708</vAcc></extensions></trkpt>
      <trkpt lon="-3.329797" lat="54.576029"><ele>117.057022</ele><time>2021-08-12T09:25:08Z</time><extensions><speed>0.958264</speed><course>120.293846</course><hAcc>0.877759</hAcc><vAcc>0.691692</vAcc></extensions></trkpt>
      <trkpt lon="-3.329800" lat="54.576021"><ele>117.059067</ele><time>2021-08-12T09:25:09Z</time><extensions><speed>0.927298</speed><course>115.591873</course><hAcc>0.877614</hAcc><vAcc>0.691104</vAcc></extensions></trkpt>
      <trkpt lon="-3.329805" lat="54.576013"><ele>117.065376</ele><time>2021-08-12T09:25:10Z</time><extensions><speed>0.902189</speed><course>116.468712</course><hAcc>0.877556</hAcc><vAcc>0.690975</vAcc></extensions></trkpt>
      <trkpt lon="-3.329810" lat="54.576006"><ele>117.075333</ele><time>2021-08-12T09:25:11Z</time><extensions><speed>0.885513</speed><course>116.627220</course><hAcc>0.877577</hAcc><vAcc>0.691278</vAcc></extensions></trkpt>
      <trkpt lon="-3.329816" lat="54.575999"><ele>117.088577</ele><time>2021-08-12T09:25:12Z</time><extensions><speed>0.880254</speed><course>115.487846</course><hAcc>0.877662</hAcc><vAcc>0.691929</vAcc></extensions></trkpt>
      <trkpt lon="-3.329823" lat="54.575992"><ele>117.104935</ele><time>2021-08-12T09:25:13Z</time><extensions><speed>0.888112</speed><course>110.303284</course><hAcc>0.877788</hAcc><vAcc>0.692797</vAcc></extensions></trkpt>
      <trkpt lon="-3.329831" lat="54.575986"><ele>117.124283</ele><time>2021-08-12T09:25:14Z</time><extensions><speed>0.908885</speed><course>107.900200</course><hAcc>0.877927</hAcc><vAcc>0.693720</vAcc></extensions></trkpt>
      <trkpt lon="-3.329840" lat="54.575979"><ele>117.146400</ele><time>2021-08-12T09:25:15Z</time><extensions><speed>0.941344</speed><course>104.901772</course><hAcc>0.878051</hAcc><vAcc>0.694521</vAcc></extensions></trkpt>
      <trkpt lon="-3.329851" lat="54.575973"><ele>117.170799</ele><time>2021-08-12T09:25:16Z</time><extensions><speed>0.983151</speed><course>102.625549</course><hAcc>0.878137</hAcc><vAcc>0.695057</vAcc></extensions></trkpt>
      <trkpt lon="-3.329863" lat="54.575967"><ele>117.196533</ele><time>2021-08-12T09:25:17Z</time><extensions><speed>1.030176</speed><course>101.615082</course><hAcc>0.878168</hAcc><vAcc>0.695241</vAcc></extensions></trkpt>
      <trkpt lon="-3.329875" lat="54.575961"><ele>117.222404</ele><time>2021-08-12T09:25:18Z</time><extensions><speed>1.078890</speed><course>104.820312</course><hAcc>0.878134</hAcc><vAcc>0.695047</vAcc></extensions></trkpt>
      <trkpt lon="-3.329890" lat="54.575956"><ele>117.247498</ele><time>2021-08-12T09:25:19Z</time><extensions><speed>1.128305</speed><course>97.837166</course><hAcc>0.878036</hAcc><vAcc>0.694498</vAcc></extensions></trkpt>
      <trkpt lon="-3.329905" lat="54.575950"><ele>117.271683</ele><time>2021-08-12T09:25:20Z</time><extensions><speed>1.178188</speed><course>99.518051</course><hAcc>0.877884</hAcc><vAcc>0.693656</vAcc></extensions></trkpt>
      <trkpt lon="-3.329921" lat="54.575945"><ele>117.295425</ele><time>2021-08-12T09:25:21Z</time><extensions><speed>1.228372</speed><course>105.468117</course><hAcc>0.877696</hAcc><vAcc>0.692623</vAcc></extensions></trkpt>
      <trkpt lon="-3.329939" lat="54.575940"><ele>117.318810</ele><time>2021-08-12T09:25:22Z</time><extensions><speed>1.279533</speed><course>105.021729</course><hAcc>0.877493</hAcc><vAcc>0.691527</vAcc></extensions></trkpt>
      <trkpt lon="-3.329957" lat="54.575936"><ele>117.341240</ele><time>2021-08-12T09:25:23Z</time><extensions><speed>1.331769</speed><course>105.854553</course><hAcc>0.877303</hAcc><vAcc>0.690507</vAcc></extensions></trkpt>
      <trkpt lon="-3.329977" lat="54.575931"><ele>117.362137</ele><time>2021-08-12T09:25:24Z</time><extensions><speed>1.384006</speed><course>116.038353</course><hAcc>0.877148</hAcc><vAcc>0.689690</vAcc></extensions></trkpt>
      <trkpt lon="-3.329997" lat="54.575927"><ele>117.381378</ele><time>2021-08-12T09:25:25Z</time><extensions><speed>1.435049</speed><course>116.622620</course><hAcc>0.877052</hAcc><vAcc>0.689179</vAcc></extensions></trkpt>
      <trkpt lon="-3.330019" lat="54.575924"><ele>117.399170</ele><time>2021-08-12T09:25:26Z</time><extensions><speed>1.483722</speed><course>116.023415</course><hAcc>0.877027</hAcc><vAcc>0.689045</vAcc></extensions></trkpt>
      <trkpt lon="-3.330042" lat="54.575920"><ele>117.415840</ele><time>2021-08-12T09:25:27Z</time><extensions><speed>1.528708</speed><course>111.053482</course><hAcc>0.877082</hAcc><vAcc>0.689306</vAcc></extensions></trkpt>
      <trkpt lon="-3.330065" lat="54.575917"><ele>117.431831</ele><time>2021-08-12T09:25:28Z</time><extensions><speed>1.568415</speed><course>109.683617</course><hAcc>0.877212</hAcc><vAcc>0.689924</vAcc></extensions></trkpt>
      <trkpt lon="-3.330089" lat="54.575914"><ele>117.447777</ele><time>2021-08-12T09:25:29Z</time><extensions><speed>1.601593</speed><course>107.838440</course><hAcc>0.877406</hAcc><vAcc>0.690828</vAcc></extensions></trkpt>
      <trkpt lon="-3.330113" lat="54.575911"><ele>117.464127</ele><time>2021-08-12T09:25:30Z</time><extensions><speed>1.626945</speed><course>110.196930</course><hAcc>0.877652</hAcc><vAcc>0.691927</vAcc></extensions></trkpt>
      <trkpt lon="-3.330138" lat="54.575908"><ele>117.481018</ele><time>2021-08-12T09:25:31Z</time><extensions><speed>1.642741</speed><course>111.548782</course><hAcc>0.877930</hAcc><vAcc>0.693128</vAcc></extensions></trkpt>
      <trkpt lon="-3.330163" lat="54.575905"><ele>117.498421</ele><time>2021-08-12T09:25:32Z</time><extensions><speed>1.648264</speed><course>110.420074</course><hAcc>0.878225</hAcc><vAcc>0.694345</vAcc></extensions></trkpt>
      <trkpt lon="-3.330188" lat="54.575902"><ele>117.516113</ele><time>2021-08-12T09:25:33Z</time><extensions><speed>1.644311</speed><course>99.619576</course><hAcc>0.878522</hAcc><vAcc>0.695510</vAcc></extensions></trkpt>
      <trkpt lon="-3.330213" lat="54.575899"><ele>117.533745</ele><time>2021-08-12T09:25:34Z</time><extensions><speed>1.632419</speed><course>107.102882</course><hAcc>0.878807</hAcc><vAcc>0.696575</vAcc></extensions></trkpt>
      <trkpt lon="-3.330237" lat="54.575895"><ele>117.551140</ele><time>2021-08-12T09:25:35Z</time><extensions><speed>1.614051</speed><course>98.831825</course><hAcc>0.879072</hAcc><vAcc>0.697516</vAcc></extensions></trkpt>
      <trkpt lon="-3.330261" lat="54.575892"><ele>117.568230</ele><time>2021-08-12T09:25:36Z</time><extensions><speed>1.591010</speed><course>99.864403</course><hAcc>0.879310</hAcc><vAcc>0.698332</vAcc></extensions></trkpt>
      <trkpt lon="-3.330285" lat="54.575888"><ele>117.584534</ele><time>2021-08-12T09:25:37Z</time><extensions><speed>1.566000</speed><course>99.165215</course><hAcc>0.879520</hAcc><vAcc>0.699030</vAcc></extensions></trkpt>
      <trkpt lon="-3.330307" lat="54.575884"><ele>117.599075</ele><time>2021-08-12T09:25:38Z</time><extensions><speed>1.542159</speed><course>106.876038</course><hAcc>0.879700</hAcc><vAcc>0.699623</vAcc></extensions></trkpt>
      <trkpt lon="-3.330330" lat="54.575879"><ele>117.610245</ele><time>2021-08-12T09:25:39Z</time><extensions><speed>1.521908</speed><course>100.224144</course><hAcc>0.879852</hAcc><vAcc>0.700124</vAcc></extensions></trkpt>
      <trkpt lon="-3.330351" lat="54.575874"><ele>117.615639</ele><time>2021-08-12T09:25:40Z</time><extensions><speed>1.506242</speed><course>97.870438</course><hAcc>0.879980</hAcc><vAcc>0.700546</vAcc></extensions></trkpt>
      <trkpt lon="-3.330372" lat="54.575868"><ele>117.612297</ele><time>2021-08-12T09:25:41Z</time><extensions><speed>1.495625</speed><course>109.047302</course><hAcc>0.880088</hAcc><vAcc>0.700899</vAcc></extensions></trkpt>
      <trkpt lon="-3.330393" lat="54.575862"><ele>117.597084</ele><time>2021-08-12T09:25:42Z</time><extensions><speed>1.490074</speed><course>111.386711</course><hAcc>0.880181</hAcc><vAcc>0.701191</vAcc></extensions></trkpt>
      <trkpt lon="-3.330413" lat="54.575855"><ele>117.567131</ele><time>2021-08-12T09:25:43Z</time><extensions><speed>1.489239</speed><course>110.131767</course><hAcc>0.880263</hAcc><vAcc>0.701437</vAcc></extensions></trkpt>
      <trkpt lon="-3.330433" lat="54.575848"><ele>117.520447</ele><time>2021-08-12T09:25:44Z</time><extensions><speed>1.492927</speed><course>109.748413</course><hAcc>0.880340</hAcc><vAcc>0.701654</vAcc></extensions></trkpt>
      <trkpt lon="-3.330452" lat="54.575841"><ele>117.456032</ele><time>2021-08-12T09:25:45Z</time><extensions><speed>1.500255</speed><course>116.453705</course><hAcc>0.880416</hAcc><vAcc>0.701868</vAcc></extensions></trkpt>
      <trkpt lon="-3.330471" lat="54.575833"><ele>117.373482</ele><time>2021-08-12T09:25:46Z</time><extensions><speed>1.510211</speed><course>111.019348</course><hAcc>0.880496</hAcc><vAcc>0.702105</vAcc></extensions></trkpt>
      <trkpt lon="-3.330490" lat="54.575825"><ele>117.272682</ele><time>2021-08-12T09:25:47Z</time><extensions><speed>1.522234</speed><course>106.996025</course><hAcc>0.880583</hAcc><vAcc>0.702386</vAcc></extensions></trkpt>
      <trkpt lon="-3.330508" lat="54.575816"><ele>117.154175</ele><time>2021-08-12T09:25:48Z</time><extensions><speed>1.536213</speed><course>104.594215</course><hAcc>0.880678</hAcc><vAcc>0.702726</vAcc></extensions></trkpt>
      <trkpt lon="-3.330527" lat="54.575808"><ele>117.019615</ele><time>2021-08-12T09:25:49Z</time><extensions><speed>1.552288</speed><course>101.351479</course><hAcc>0.880783</hAcc><vAcc>0.703128</vAcc></extensions></trkpt>
      <trkpt lon="-3.330545" lat="54.575799"><ele>116.871826</ele><time>2021-08-12T09:25:50Z</time><extensions><speed>1.570343</speed><course>105.952332</course><hAcc>0.880896</hAcc><vAcc>0.703582</vAcc></extensions></trkpt>
      <trkpt lon="-3.330563" lat="54.575789"><ele>116.714378</ele><time>2021-08-12T09:25:51Z</time><extensions><speed>1.589644</speed><course>113.138412</course><hAcc>0.881015</hAcc><vAcc>0.704075</vAcc></extensions></trkpt>
      <trkpt lon="-3.330582" lat="54.575780"><ele>116.550911</ele><time>2021-08-12T09:25:52Z</time><extensions><speed>1.608490</speed><course>112.944946</course><hAcc>0.881138</hAcc><vAcc>0.704587</vAcc></extensions></trkpt>
      <trkpt lon="-3.330600" lat="54.575770"><ele>116.384270</ele><time>2021-08-12T09:25:53Z</time><extensions><speed>1.624946</speed><course>108.292221</course><hAcc>0.881261</hAcc><vAcc>0.705100</vAcc></extensions></trkpt>
      <trkpt lon="-3.330619" lat="54.575760"><ele>116.215897</ele><time>2021-08-12T09:25:54Z</time><extensions><speed>1.637688</speed><course>108.436562</course><hAcc>0.881380</hAcc><vAcc>0.705592</vAcc></extensions></trkpt>
      <trkpt lon="-3.330638" lat="54.575750"><ele>116.045952</ele><time>2021-08-12T09:25:55Z</time><extensions><speed>1.646268</speed><course>102.445824</course><hAcc>0.881491</hAcc><vAcc>0.706042</vAcc></extensions></trkpt>
      <trkpt lon="-3.330656" lat="54.575740"><ele>115.873711</ele><time>2021-08-12T09:25:56Z</time><extensions><speed>1.650891</speed><course>99.628555</course><hAcc>0.881592</hAcc><vAcc>0.706432</vAcc></extensions></trkpt>
      <trkpt lon="-3.330675" lat="54.575730"><ele>115.697983</ele><time>2021-08-12T09:25:57Z</time><extensions><speed>1.652078</speed><course>103.656601</course><hAcc>0.881679</hAcc><vAcc>0.706750</vAcc></extensions></trkpt>
      <trkpt lon="-3.330694" lat="54.575720"><ele>115.517601</ele><time>2021-08-12T09:25:58Z</time><extensions><speed>1.650321</speed><course>97.309608</course><hAcc>0.881751</hAcc><vAcc>0.706995</vAcc></extensions></trkpt>
      <trkpt lon="-3.330712" lat="54.575710"><ele>115.331627</ele><time>2021-08-12T09:25:59Z</time><extensions><speed>1.645608</speed><course>95.308922</course><hAcc>0.881807</hAcc><vAcc>0.707171</vAcc></extensions></trkpt>
      <trkpt lon="-3.330731" lat="54.575699"><ele>115.139587</ele><time>2021-08-12T09:26:00Z</time><extensions><speed>1.637413</speed><course>105.665154</course><hAcc>0.881844</hAcc><vAcc>0.707288</vAcc></extensions></trkpt>
      <trkpt lon="-3.330749" lat="54.575689"><ele>114.941643</ele><time>2021-08-12T09:26:01Z</time><extensions><speed>1.625497</speed><course>120.238884</course><hAcc>0.881863</hAcc><vAcc>0.707349</vAcc></extensions></trkpt>
      <trkpt lon="-3.330767" lat="54.575679"><ele>114.738266</ele><time>2021-08-12T09:26:02Z</time><extensions><speed>1.610348</speed><course>108.474937</course><hAcc>0.881861</hAcc><vAcc>0.707350</vAcc></extensions></trkpt>
      <trkpt lon="-3.330785" lat="54.575669"><ele>114.530067</ele><time>2021-08-12T09:26:03Z</time><extensions><speed>1.592693</speed><course>104.059807</course><hAcc>0.881839</hAcc><vAcc>0.707283</vAcc></extensions></trkpt>
      <trkpt lon="-3.330802" lat="54.575659"><ele>114.318138</ele><time>2021-08-12T09:26:04Z</time><extensions><speed>1.573073</speed><course>102.572708</course><hAcc>0.881795</hAcc><vAcc>0.707139</vAcc></extensions></trkpt>
      <trkpt lon="-3.330819" lat="54.575649"><ele>114.104118</ele><time>2021-08-12T09:26:05Z</time><extensions><speed>1.552278</speed><course>107.161850</course><hAcc>0.881726</hAcc><vAcc>0.706912</vAcc></extensions></trkpt>
      <trkpt lon="-3.330835" lat="54.575639"><ele>113.890076</ele><time>2021-08-12T09:26:06Z</time><extensions><speed>1.531238</speed><course>105.046165</course><hAcc>0.881630</hAcc><vAcc>0.706594</vAcc></extensions></trkpt>
      <trkpt lon="-3.330851" lat="54.575629"><ele>113.678383</ele><time>2021-08-12T09:26:07Z</time><extensions><speed>1.510560</speed><course>107.406158</course><hAcc>0.881502</hAcc><vAcc>0.706174</vAcc></extensions></trkpt>
      <trkpt lon="-3.330866" lat="54.575619"><ele>113.471657</ele><time>2021-08-12T09:26:08Z</time><extensions><speed>1.490733</speed><course>115.429123</course><hAcc>0.881341</hAcc><vAcc>0.705643</vAcc></extensions></trkpt>
      <trkpt lon="-3.330880" lat="54.575608"><ele>113.272491</ele><time>2021-08-12T09:26:09Z</time><extensions><speed>1.472407</speed><course>116.147835</course><hAcc>0.881141</hAcc><vAcc>0.704986</vAcc></extensions></trkpt>
      <trkpt lon="-3.330894" lat="54.575598"><ele>113.083168</ele><time>2021-08-12T09:26:10Z</time><extensions><speed>1.456428</speed><course>117.699570</course><hAcc>0.880900</hAcc><vAcc>0.704189</vAcc></extensions></trkpt>
      <trkpt lon="-3.330908" lat="54.575587"><ele>112.905464</ele><time>2021-08-12T09:26:11Z</time><extensions><speed>1.443608</speed><course>118.218575</course><hAcc>0.880616</hAcc><vAcc>0.703232</vAcc></extensions></trkpt>
      <trkpt lon="-3.330920" lat="54.575577"><ele>112.740601</ele><time>2021-08-12T09:26:12Z</time><extensions><speed>1.434373</speed><course>118.864105</course><hAcc>0.880288</hAcc><vAcc>0.702102</vAcc></extensions></trkpt>
      <trkpt lon="-3.330933" lat="54.575566"><ele>112.589256</ele><time>2021-08-12T09:26:13Z</time><extensions><speed>1.428383</speed><course>117.180046</course><hAcc>0.879920</hAcc><vAcc>0.700788</vAcc></extensions></trkpt>
      <trkpt lon="-3.330944" lat="54.575555"><ele>112.451614</ele><time>2021-08-12T09:26:14Z</time><extensions><speed>1.424679</speed><course>115.856689</course><hAcc>0.879515</hAcc><vAcc>0.699295</vAcc></extensions></trkpt>
      <trkpt lon="-3.330956" lat="54.575544"><ele>112.327354</ele><time>2021-08-12T09:26:15Z</time><extensions><speed>1.422652</speed><course>112.617844</course><hAcc>0.879082</hAcc><vAcc>0.697643</vAcc></extensions></trkpt>
      <trkpt lon="-3.330967" lat="54.575533"><ele>112.216194</ele><time>2021-08-12T09:26:16Z</time><extensions><speed>1.422334</speed><course>120.157761</course><hAcc>0.878631</hAcc><vAcc>0.695878</vAcc></extensions></trkpt>
      <trkpt lon="-3.330978" lat="54.575522"><ele>112.118324</ele><time>2021-08-12T09:26:17Z</time><extensions><speed>1.423688</speed><course>116.743965</course><hAcc>0.878175</hAcc><vAcc>0.694064</vAcc></extensions></trkpt>
      <trkpt lon="-3.330988" lat="54.575511"><ele>112.034294</ele><time>2021-08-12T09:26:18Z</time><extensions><speed>1.426744</speed><course>126.528450</course><hAcc>0.877731</hAcc><vAcc>0.692279</vAcc></extensions></trkpt>
      <trkpt lon="-3.330999" lat="54.575500"><ele>111.964867</ele><time>2021-08-12T09:26:19Z</time><extensions><speed>1.431898</speed><course>122.809067</course><hAcc>0.877313</hAcc><vAcc>0.690593</vAcc></extensions></trkpt>
      <trkpt lon="-3.331010" lat="54.575488"><ele>111.911049</ele><time>2021-08-12T09:26:20Z</time><extensions><speed>1.438904</speed><course>118.437454</course><hAcc>0.876938</hAcc><vAcc>0.689075</vAcc></extensions></trkpt>
      <trkpt lon="-3.331020" lat="54.575477"><ele>111.873863</ele><time>2021-08-12T09:26:21Z</time><extensions><speed>1.447428</speed><course>113.862648</course><hAcc>0.876620</hAcc><vAcc>0.687790</vAcc></extensions></trkpt>
      <trkpt lon="-3.331031" lat="54.575465"><ele>111.854050</ele><time>2021-08-12T09:26:22Z</time><extensions><speed>1.457512</speed><course>110.315605</course><hAcc>0.876370</hAcc><vAcc>0.686799</vAcc></extensions></trkpt>
      <trkpt lon="-3.331041" lat="54.575454"><ele>111.851891</ele><time>2021-08-12T09:26:23Z</time><extensions><speed>1.468825</speed><course>111.526596</course><hAcc>0.876199</hAcc><vAcc>0.686141</vAcc></extensions></trkpt>
      <trkpt lon="-3.331052" lat="54.575442"><ele>111.866974</ele><time>2021-08-12T09:26:24Z</time><extensions><speed>1.480640</speed><course>111.825790</course><hAcc>0.876110</hAcc><vAcc>0.685826</vAcc></extensions></trkpt>
      <trkpt lon="-3.331063" lat="54.575430"><ele>111.898483</ele><time>2021-08-12T09:26:25Z</time><extensions><speed>1.492248</speed><course>110.069481</course><hAcc>0.876100</hAcc><vAcc>0.685840</vAcc></extensions></trkpt>
      <trkpt lon="-3.331073" lat="54.575418"><ele>111.945663</ele><time>2021-08-12T09:26:26Z</time><extensions><speed>1.503459</speed><course>114.632622</course><hAcc>0.876164</hAcc><vAcc>0.686150</vAcc></extensions></trkpt>
      <trkpt lon="-3.331084" lat="54.575406"><ele>112.007454</ele><time>2021-08-12T09:26:27Z</time><extensions><speed>1.513498</speed><course>103.253258</course><hAcc>0.876294</hAcc><vAcc>0.686720</vAcc></extensions></trkpt>
      <trkpt lon="-3.331094" lat="54.575394"><ele>112.082253</ele><time>2021-08-12T09:26:28Z</time><extensions><speed>1.520954</speed><course>106.301743</course><hAcc>0.876480</hAcc><vAcc>0.687507</vAcc></extensions></trkpt>
      <trkpt lon="-3.331105" lat="54.575382"><ele>112.168388</ele><time>2021-08-12T09:26:29Z</time><extensions><speed>1.525245</speed><course>102.376541</course><hAcc>0.876710</hAcc><vAcc>0.688458</vAcc></extensions></trkpt>
      <trkpt lon="-3.331115" lat="54.575369"><ele>112.264351</ele><time>2021-08-12T09:26:30Z</time><extensions><speed>1.526956</speed><course>106.795837</course><hAcc>0.876971</hAcc><vAcc>0.689513</vAcc></extensions></trkpt>
      <trkpt lon="-3.331125" lat="54.575357"><ele>112.368614</ele><time>2021-08-12T09:26:31Z</time><extensions><speed>1.526679</speed><course>105.416672</course><hAcc>0.877250</hAcc><vAcc>0.690615</vAcc></extensions></trkpt>
      <trkpt lon="-3.331134" lat="54.575344"><ele>112.479553</ele><time>2021-08-12T09:26:32Z</time><extensions><speed>1.524591</speed><course>115.994911</course><hAcc>0.877535</hAcc><vAcc>0.691716</vAcc></extensions></trkpt>
      <trkpt lon="-3.331144" lat="54.575332"><ele>112.595657</ele><time>2021-08-12T09:26:33Z</time><extensions><speed>1.521294</speed><course>121.956070</course><hAcc>0.877816</hAcc><vAcc>0.692783</vAcc></extensions></trkpt>
      <trkpt lon="-3.331152" lat="54.575319"><ele>112.715744</ele><time>2021-08-12T09:26:34Z</time><extensions><speed>1.517561</speed><course>114.918808</course><hAcc>0.878085</hAcc><vAcc>0.693791</vAcc></extensions></trkpt>
      <trkpt lon="-3.331161" lat="54.575307"><ele>112.839027</ele><time>2021-08-12T09:26:35Z</time><extensions><speed>1.513712</speed><course>112.952827</course><hAcc>0.878336</hAcc><vAcc>0.694720</vAcc></extensions></trkpt>
      <trkpt lon="-3.331169" lat="54.575294"><ele>112.965210</ele><time>2021-08-12T09:26:36Z</time><extensions><speed>1.509570</speed><course>108.521141</course><hAcc>0.878563</hAcc><vAcc>0.695551</vAcc></extensions></trkpt>
      <trkpt lon="-3.331177" lat="54.575281"><ele>113.094643</ele><time>2021-08-12T09:26:37Z</time><extensions><speed>1.504791</speed><course>105.023331</course><hAcc>0.878764</hAcc><vAcc>0.696273</vAcc></extensions></trkpt>
      <trkpt lon="-3.331184" lat="54.575268"><ele>113.228027</ele><time>2021-08-12T09:26:38Z</time><extensions><speed>1.499184</speed><course>98.270523</course><hAcc>0.878938</hAcc><vAcc>0.696880</vAcc></extensions></trkpt>
      <trkpt lon="-3.331191" lat="54.575255"><ele>113.366302</ele><time>2021-08-12T09:26:39Z</time><extensions><speed>1.492469</speed><course>104.555389</course><hAcc>0.879085</hAcc><vAcc>0.697374</vAcc></extensions></trkpt>
      <trkpt lon="-3.331197" lat="54.575242"><ele>113.510605</ele><time>2021-08-12T09:26:40Z</time><extensions><speed>1.485101</speed><course>108.798698</course><hAcc>0.879206</hAcc><vAcc>0.697767</vAcc></extensions></trkpt>
      <trkpt lon="-3.331202" lat="54.575229"><ele>113.662201</ele><time>2021-08-12T09:26:41Z</time><extensions><speed>1.478032</speed><course>107.953148</course><hAcc>0.879305</hAcc><vAcc>0.698076</vAcc></extensions></trkpt>
      <trkpt lon="-3.331206" lat="54.575216"><ele>113.822128</ele><time>2021-08-12T09:26:42Z</time><extensions><speed>1.471571</speed><course>107.561462</course><hAcc>0.879384</hAcc><vAcc>0.698319</vAcc></extensions></trkpt>
      <trkpt lon="-3.331209" lat="54.575203"><ele>113.990891</ele><time>2021-08-12T09:26:43Z</time><extensions><speed>1.465208</speed><course>98.600151</course><hAcc>0.879448</hAcc><vAcc>0.698517</vAcc></extensions></trkpt>
      <trkpt lon="-3.331212" lat="54.575190"><ele>114.168297</ele><time>2021-08-12T09:26:44Z</time><extensions><speed>1.457806</speed><course>106.179245</course><hAcc>0.879498</hAcc><vAcc>0.698682</vAcc></extensions></trkpt>
      <trkpt lon="-3.331214" lat="54.575177"><ele>114.353676</ele><time>2021-08-12T09:26:45Z</time><extensions><speed>1.448910</speed><course>99.736237</course><hAcc>0.879539</hAcc><vAcc>0.698819</vAcc></extensions></trkpt>
      <trkpt lon="-3.331215" lat="54.575164"><ele>114.546135</ele><time>2021-08-12T09:26:46Z</time><extensions><speed>1.438762</speed><course>102.027924</course><hAcc>0.879574</hAcc><vAcc>0.698931</vAcc></extensions></trkpt>
      <trkpt lon="-3.331215" lat="54.575152"><ele>114.744530</ele><time>2021-08-12T09:26:47Z</time><extensions><speed>1.427504</speed><course>94.072990</course><hAcc>0.879605</hAcc><vAcc>0.699023</vAcc></extensions></trkpt>
      <trkpt lon="-3.331216" lat="54.575139"><ele>114.947418</ele><time>2021-08-12T09:26:48Z</time><extensions><speed>1.415529</speed><course>96.463219</course><hAcc>0.879636</hAcc><vAcc>0.699103</vAcc></extensions></trkpt>
      <trkpt lon="-3.331216" lat="54.575126"><ele>115.153648</ele><time>2021-08-12T09:26:49Z</time><extensions><speed>1.403658</speed><course>96.928070</course><hAcc>0.879668</hAcc><vAcc>0.699187</vAcc></extensions></trkpt>
      <trkpt lon="-3.331215" lat="54.575114"><ele>115.362534</ele><time>2021-08-12T09:26:50Z</time><extensions><speed>1.392243</speed><course>85.766655</course><hAcc>0.879705</hAcc><vAcc>0.699292</vAcc></extensions></trkpt>
      <trkpt lon="-3.331215" lat="54.575101"><ele>115.573578</ele><time>2021-08-12T09:26:51Z</time><extensions><speed>1.381710</speed><course>93.944389</course><hAcc>0.879748</hAcc><vAcc>0.699429</vAcc></extensions></trkpt>
      <trkpt lon="-3.331214" lat="54.575089"><ele>115.786346</ele><time>2021-08-12T09:26:52Z</time><extensions><speed>1.372450</speed><course>96.280258</course><hAcc>0.879798</hAcc><vAcc>0.699604</vAcc></extensions></trkpt>
      <trkpt lon="-3.331214" lat="54.575076"><ele>116.000450</ele><time>2021-08-12T09:26:53Z</time><extensions><speed>1.364499</speed><course>103.229439</course><hAcc>0.879857</hAcc><vAcc>0.699815</vAcc></extensions></trkpt>
      <trkpt lon="-3.331213" lat="54.575064"><ele>116.215569</ele><time>2021-08-12T09:26:54Z</time><extensions><speed>1.358141</speed><course>100.069313</course><hAcc>0.879923</hAcc><vAcc>0.700061</vAcc></extensions></trkpt>
      <trkpt lon="-3.331212" lat="54.575052"><ele>116.431572</ele><time>2021-08-12T09:26:55Z</time><extensions><speed>1.353950</speed><course>107.704430</course><hAcc>0.879997</hAcc><vAcc>0.700337</vAcc></extensions></trkpt>
      <trkpt lon="-3.331212" lat="54.575040"><ele>116.648186</ele><time>2021-08-12T09:26:56Z</time><extensions><speed>1.351887</speed><course>102.019516</course><hAcc>0.880078</hAcc><vAcc>0.700642</vAcc></extensions></trkpt>
      <trkpt lon="-3.331212" lat="54.575028"><ele>116.864326</ele><time>2021-08-12T09:26:57Z</time><extensions><speed>1.350941</speed><course>101.188896</course><hAcc>0.880163</hAcc><vAcc>0.700974</vAcc></extensions></trkpt>
      <trkpt lon="-3.331211" lat="54.575016"><ele>117.078445</ele><time>2021-08-12T09:26:58Z</time><extensions><speed>1.350655</speed><course>101.655106</course><hAcc>0.880250</hAcc><vAcc>0.701328</vAcc></extensions></trkpt>
      <trkpt lon="-3.331211" lat="54.575003"><ele>117.288948</ele><time>2021-08-12T09:26:59Z</time><extensions><speed>1.351067</speed><course>97.512695</course><hAcc>0.880336</hAcc><vAcc>0.701692</vAcc></extensions></trkpt>
      <trkpt lon="-3.331211" lat="54.574991"><ele>117.494041</ele><time>2021-08-12T09:27:00Z</time><extensions><speed>1.351667</speed><course>96.923676</course><hAcc>0.880419</hAcc><vAcc>0.702045</vAcc></extensions></trkpt>
      <trkpt lon="-3.331211" lat="54.574979"><ele>117.691879</ele><time>2021-08-12T09:27:01Z</time><extensions><speed>1.351763</speed><course>96.356850</course><hAcc>0.880497</hAcc><vAcc>0.702368</vAcc></extensions></trkpt>
      <trkpt lon="-3.331211" lat="54.574967"><ele>117.880997</ele><time>2021-08-12T09:27:02Z</time><extensions><speed>1.351466</speed><course>95.959724</course><hAcc>0.880567</hAcc><vAcc>0.702644</vAcc></extensions></trkpt>
      <trkpt lon="-3.331211" lat="54.574955"><ele>118.060425</ele><time>2021-08-12T09:27:03Z</time><extensions><speed>1.351115</speed><course>95.959717</course><hAcc>0.880628</hAcc><vAcc>0.702863</vAcc></extensions></trkpt>
      <trkpt lon="-3.331211" lat="54.574943"><ele>118.229752</ele><time>2021-08-12T09:27:04Z</time><extensions><speed>1.351061</speed><course>97.361824</course><hAcc>0.880681</hAcc><vAcc>0.703027</vAcc></extensions></trkpt>
      <trkpt lon="-3.331211" lat="54.574931"><ele>118.389114</ele><time>2021-08-12T09:27:05Z</time><extensions><speed>1.351563</speed><course>97.361824</course><hAcc>0.880724</hAcc><vAcc>0.703146</vAcc></extensions></trkpt>
      <trkpt lon="-3.331212" lat="54.574918"><ele>118.538956</ele><time>2021-08-12T09:27:06Z</time><extensions><speed>1.352106</speed><course>97.361809</course><hAcc>0.880761</hAcc><vAcc>0.703233</vAcc></extensions></trkpt>
      <trkpt lon="-3.331212" lat="54.574906"><ele>118.679932</ele><time>2021-08-12T09:27:07Z</time><extensions><speed>1.352227</speed><course>97.361801</course><hAcc>0.880792</hAcc><vAcc>0.703303</vAcc></extensions></trkpt>
      <trkpt lon="-3.331213" lat="54.574894"><ele>118.812851</ele><time>2021-08-12T09:27:08Z</time><extensions><speed>1.351883</speed><course>42.884136</course><hAcc>0.880820</hAcc><vAcc>0.703368</vAcc></extensions></trkpt>
      <trkpt lon="-3.331214" lat="54.574882"><ele>118.938499</ele><time>2021-08-12T09:27:09Z</time><extensions><speed>1.351198</speed><course>35.984764</course><hAcc>0.880848</hAcc><vAcc>0.703439</vAcc></extensions></trkpt>
      <trkpt lon="-3.331216" lat="54.574870"><ele>119.057747</ele><time>2021-08-12T09:27:10Z</time><extensions><speed>1.350538</speed><course>65.852417</course><hAcc>0.880878</hAcc><vAcc>0.703525</vAcc></extensions></trkpt>
      <trkpt lon="-3.331218" lat="54.574858"><ele>119.171417</ele><time>2021-08-12T09:27:11Z</time><extensions><speed>1.350077</speed><course>86.337746</course><hAcc>0.880910</hAcc><vAcc>0.703631</vAcc></extensions></trkpt>
      <trkpt lon="-3.331220" lat="54.574846"><ele>119.280052</ele><time>2021-08-12T09:27:12Z</time><extensions><speed>1.350096</speed><course>89.071770</course><hAcc>0.880948</hAcc><vAcc>0.703764</vAcc></extensions></trkpt>
      <trkpt lon="-3.331223" lat="54.574834"><ele>119.383728</ele><time>2021-08-12T09:27:13Z</time><extensions><speed>1.351260</speed><course>92.612312</course><hAcc>0.880990</hAcc><vAcc>0.703926</vAcc></extensions></trkpt>
      <trkpt lon="-3.331226" lat="54.574822"><ele>119.481720</ele><time>2021-08-12T09:27:14Z</time><extensions><speed>1.353257</speed><course>103.461632</course><hAcc>0.881037</hAcc><vAcc>0.704117</vAcc></extensions></trkpt>
      <trkpt lon="-3.331229" lat="54.574810"><ele>119.572983</ele><time>2021-08-12T09:27:15Z</time><extensions><speed>1.355704</speed><course>104.412865</course><hAcc>0.881089</hAcc><vAcc>0.704330</vAcc></extensions></trkpt>
      <trkpt lon="-3.331232" lat="54.574798"><ele>119.657219</ele><time>2021-08-12T09:27:16Z</time><extensions><speed>1.358833</speed><course>129.601685</course><hAcc>0.881144</hAcc><vAcc>0.704557</vAcc></extensions></trkpt>
      <trkpt lon="-3.331237" lat="54.574786"><ele>119.735229</ele><time>2021-08-12T09:27:17Z</time><extensions><speed>1.362681</speed><course>149.567169</course><hAcc>0.881202</hAcc><vAcc>0.704789</vAcc></extensions></trkpt>
      <trkpt lon="-3.331241" lat="54.574774"><ele>119.808716</ele><time>2021-08-12T09:27:18Z</time><extensions><speed>1.367828</speed><course>129.327728</course><hAcc>0.881261</hAcc><vAcc>0.705019</vAcc></extensions></trkpt>
      <trkpt lon="-3.331246" lat="54.574762"><ele>119.880135</ele><time>2021-08-12T09:27:19Z</time><extensions><speed>1.374816</speed><course>129.943619</course><hAcc>0.881321</hAcc><vAcc>0.705239</vAcc></extensions></trkpt>
      <trkpt lon="-3.331251" lat="54.574750"><ele>119.952614</ele><time>2021-08-12T09:27:20Z</time><extensions><speed>1.383976</speed><course>125.470825</course><hAcc>0.881380</hAcc><vAcc>0.705450</vAcc></extensions></trkpt>
      <trkpt lon="-3.331257" lat="54.574738"><ele>120.029694</ele><time>2021-08-12T09:27:21Z</time><extensions><speed>1.395735</speed><course>125.654007</course><hAcc>0.881437</hAcc><vAcc>0.705654</vAcc></extensions></trkpt>
      <trkpt lon="-3.331263" lat="54.574726"><ele>120.114265</ele><time>2021-08-12T09:27:22Z</time><extensions><speed>1.409967</speed><course>132.941208</course><hAcc>0.881491</hAcc><vAcc>0.705854</vAcc></extensions></trkpt>
      <trkpt lon="-3.331270" lat="54.574714"><ele>120.207176</ele><time>2021-08-12T09:27:23Z</time><extensions><speed>1.425000</speed><course>128.525970</course><hAcc>0.881542</hAcc><vAcc>0.706047</vAcc></extensions></trkpt>
      <trkpt lon="-3.331277" lat="54.574701"><ele>120.307106</ele><time>2021-08-12T09:27:24Z</time><extensions><speed>1.438693</speed><course>129.747040</course><hAcc>0.881588</hAcc><vAcc>0.706232</vAcc></extensions></trkpt>
      <trkpt lon="-3.331284" lat="54.574689"><ele>120.411659</ele><time>2021-08-12T09:27:25Z</time><extensions><speed>1.450006</speed><course>133.257645</course><hAcc>0.881629</hAcc><vAcc>0.706400</vAcc></extensions></trkpt>
      <trkpt lon="-3.331291" lat="54.574677"><ele>120.518089</ele><time>2021-08-12T09:27:26Z</time><extensions><speed>1.458810</speed><course>122.834160</course><hAcc>0.881665</hAcc><vAcc>0.706541</vAcc></extensions></trkpt>
      <trkpt lon="-3.331299" lat="54.574664"><ele>120.623528</ele><time>2021-08-12T09:27:27Z</time><extensions><speed>1.465227</speed><course>121.754723</course><hAcc>0.881694</hAcc><vAcc>0.706649</vAcc></extensions></trkpt>
      <trkpt lon="-3.331306" lat="54.574652"><ele>120.725670</ele><time>2021-08-12T09:27:28Z</time><extensions><speed>1.469121</speed><course>130.620087</course><hAcc>0.881717</hAcc><vAcc>0.706721</vAcc></extensions></trkpt>
      <trkpt lon="-3.331314" lat="54.574639"><ele>120.823708</ele><time>2021-08-12T09:27:29Z</time><extensions><speed>1.471206</speed><course>128.548019</course><hAcc>0.881731</hAcc><vAcc>0.706760</vAcc></extensions></trkpt>
      <trkpt lon="-3.331322" lat="54.574627"><ele>120.918030</ele><time>2021-08-12T09:27:30Z</time><extensions><speed>1.472497</speed><course>128.034912</course><hAcc>0.881736</hAcc><vAcc>0.706769</vAcc></extensions></trkpt>
      <trkpt lon="-3.331329" lat="54.574615"><ele>121.009285</ele><time>2021-08-12T09:27:31Z</time><extensions><speed>1.473395</speed><course>128.138321</course><hAcc>0.881730</hAcc><vAcc>0.706751</vAcc></extensions></trkpt>
      <trkpt lon="-3.331337" lat="54.574602"><ele>121.098000</ele><time>2021-08-12T09:27:32Z</time><extensions><speed>1.473942</speed><course>127.788391</course><hAcc>0.881712</hAcc><vAcc>0.706708</vAcc></extensions></trkpt>
      <trkpt lon="-3.331344" lat="54.574590"><ele>121.184715</ele><time>2021-08-12T09:27:33Z</time><extensions><speed>1.473957</speed><course>111.799332</course><hAcc>0.881680</hAcc><vAcc>0.706632</vAcc></extensions></trkpt>
      <trkpt lon="-3.331352" lat="54.574577"><ele>121.270027</ele><time>2021-08-12T09:27:34Z</time><extensions><speed>1.473565</speed><course>135.894547</course><hAcc>0.881630</hAcc><vAcc>0.706511</vAcc></extensions></trkpt>
      <trkpt lon="-3.331359" lat="54.574564"><ele>121.354637</ele><time>2021-08-12T09:27:35Z</time><extensions><speed>1.473535</speed><course>135.791443</course><hAcc>0.881563</hAcc><vAcc>0.706324</vAcc></extensions></trkpt>
      <trkpt lon="-3.331366" lat="54.574552"><ele>121.439369</ele><time>2021-08-12T09:27:36Z</time><extensions><speed>1.474386</speed><course>137.532547</course><hAcc>0.881477</hAcc><vAcc>0.706053</vAcc></extensions></trkpt>
      <trkpt lon="-3.331372" lat="54.574539"><ele>121.525238</ele><time>2021-08-12T09:27:37Z</time><extensions><speed>1.476288</speed><course>139.503952</course><hAcc>0.881371</hAcc><vAcc>0.705686</vAcc></extensions></trkpt>
      <trkpt lon="-3.331379" lat="54.574526"><ele>121.613335</ele><time>2021-08-12T09:27:38Z</time><extensions><speed>1.479699</speed><course>146.422607</course><hAcc>0.881245</hAcc><vAcc>0.705222</vAcc></extensions></trkpt>
      <trkpt lon="-3.331386" lat="54.574514"><ele>121.704376</ele><time>2021-08-12T09:27:39Z</time><extensions><speed>1.484591</speed><course>123.702354</course><hAcc>0.881103</hAcc><vAcc>0.704672</vAcc></extensions></trkpt>
      <trkpt lon="-3.331392" lat="54.574501"><ele>121.798431</ele><time>2021-08-12T09:27:40Z</time><extensions><speed>1.490369</speed><course>126.795586</course><hAcc>0.880946</hAcc><vAcc>0.704050</vAcc></extensions></trkpt>
      <trkpt lon="-3.331398" lat="54.574488"><ele>121.895264</ele><time>2021-08-12T09:27:41Z</time><extensions><speed>1.496421</speed><course>132.239441</course><hAcc>0.880781</hAcc><vAcc>0.703382</vAcc></extensions></trkpt>
      <trkpt lon="-3.331404" lat="54.574475"><ele>121.995132</ele><time>2021-08-12T09:27:42Z</time><extensions><speed>1.502666</speed><course>129.200668</course><hAcc>0.880612</hAcc><vAcc>0.702692</vAcc></extensions></trkpt>
      <trkpt lon="-3.331410" lat="54.574462"><ele>122.099121</ele><time>2021-08-12T09:27:43Z</time><extensions><speed>1.510086</speed><course>125.122314</course><hAcc>0.880449</hAcc><vAcc>0.702008</vAcc></extensions></trkpt>
      <trkpt lon="-3.331416" lat="54.574449"><ele>122.208420</ele><time>2021-08-12T09:27:44Z</time><extensions><speed>1.519420</speed><course>136.265396</course><hAcc>0.880299</hAcc><vAcc>0.701358</vAcc></extensions></trkpt>
      <trkpt lon="-3.331422" lat="54.574435"><ele>122.323929</ele><time>2021-08-12T09:27:45Z</time><extensions><speed>1.530410</speed><course>135.687027</course><hAcc>0.880170</hAcc><vAcc>0.700783</vAcc></extensions></trkpt>
      <trkpt lon="-3.331427" lat="54.574422"><ele>122.446335</ele><time>2021-08-12T09:27:46Z</time><extensions><speed>1.542361</speed><course>134.189224</course><hAcc>0.880071</hAcc><vAcc>0.700326</vAcc></extensions></trkpt>
      <trkpt lon="-3.331432" lat="54.574408"><ele>122.576096</ele><time>2021-08-12T09:27:47Z</time><extensions><speed>1.554547</speed><course>130.213623</course><hAcc>0.880009</hAcc><vAcc>0.700028</vAcc></extensions></trkpt>
      <trkpt lon="-3.331436" lat="54.574394"><ele>122.713470</ele><time>2021-08-12T09:27:48Z</time><extensions><speed>1.566366</speed><course>131.249283</course><hAcc>0.879989</hAcc><vAcc>0.699919</vAcc></extensions></trkpt>
      <trkpt lon="-3.331440" lat="54.574381"><ele>122.858543</ele><time>2021-08-12T09:27:49Z</time><extensions><speed>1.577173</speed><course>132.412170</course><hAcc>0.880013</hAcc><vAcc>0.700012</vAcc></extensions></trkpt>
      <trkpt lon="-3.331443" lat="54.574366"><ele>123.011024</ele><time>2021-08-12T09:27:50Z</time><extensions><speed>1.586690</speed><course>141.387543</course><hAcc>0.880082</hAcc><vAcc>0.700300</vAcc></extensions></trkpt>
      <trkpt lon="-3.331446" lat="54.574352"><ele>123.169975</ele><time>2021-08-12T09:27:51Z</time><extensions><speed>1.594805</speed><course>147.693329</course><hAcc>0.880193</hAcc><vAcc>0.700761</vAcc></extensions></trkpt>
      <trkpt lon="-3.331448" lat="54.574338"><ele>123.333809</ele><time>2021-08-12T09:27:52Z</time><extensions><speed>1.601641</speed><course>150.557755</course><hAcc>0.880343</hAcc><vAcc>0.701367</vAcc></extensions></trkpt>
      <trkpt lon="-3.331450" lat="54.574324"><ele>123.500465</ele><time>2021-08-12T09:27:53Z</time><extensions><speed>1.607466</speed><course>146.167221</course><hAcc>0.880525</hAcc><vAcc>0.702096</vAcc></extensions></trkpt>
      <trkpt lon="-3.331451" lat="54.574309"><ele>123.667336</ele><time>2021-08-12T09:27:54Z</time><extensions><speed>1.612481</speed><course>148.113663</course><hAcc>0.880731</hAcc><vAcc>0.702923</vAcc></extensions></trkpt>
      <trkpt lon="-3.331452" lat="54.574295"><ele>123.831451</ele><time>2021-08-12T09:27:55Z</time><extensions><speed>1.616642</speed><course>138.101883</course><hAcc>0.880953</hAcc><vAcc>0.703824</vAcc></extensions></trkpt>
      <trkpt lon="-3.331453" lat="54.574280"><ele>123.989952</ele><time>2021-08-12T09:27:56Z</time><extensions><speed>1.619789</speed><course>142.914612</course><hAcc>0.881182</hAcc><vAcc>0.704765</vAcc></extensions></trkpt>
      <trkpt lon="-3.331453" lat="54.574266"><ele>124.140457</ele><time>2021-08-12T09:27:57Z</time><extensions><speed>1.621745</speed><course>148.048096</course><hAcc>0.881407</hAcc><vAcc>0.705707</vAcc></extensions></trkpt>
      <trkpt lon="-3.331453" lat="54.574251"><ele>124.281372</ele><time>2021-08-12T09:27:58Z</time><extensions><speed>1.622558</speed><course>151.450607</course><hAcc>0.881620</hAcc><vAcc>0.706606</vAcc></extensions></trkpt>
      <trkpt lon="-3.331452" lat="54.574236"><ele>124.412170</ele><time>2021-08-12T09:27:59Z</time><extensions><speed>1.622419</speed><course>136.771103</course><hAcc>0.881811</hAcc><vAcc>0.707417</vAcc></extensions></trkpt>
      <trkpt lon="-3.331452" lat="54.574222"><ele>124.533142</ele><time>2021-08-12T09:28:00Z</time><extensions><speed>1.621149</speed><course>141.808670</course><hAcc>0.881975</hAcc><vAcc>0.708103</vAcc></extensions></trkpt>
      <trkpt lon="-3.331451" lat="54.574207"><ele>124.644913</ele><time>2021-08-12T09:28:01Z</time><extensions><speed>1.618767</speed><course>141.991776</course><hAcc>0.882105</hAcc><vAcc>0.708632</vAcc></extensions></trkpt>
      <trkpt lon="-3.331450" lat="54.574193"><ele>124.748314</ele><time>2021-08-12T09:28:02Z</time><extensions><speed>1.615506</speed><course>158.861435</course><hAcc>0.882198</hAcc><vAcc>0.708986</vAcc></extensions></trkpt>
      <trkpt lon="-3.331449" lat="54.574178"><ele>124.844383</ele><time>2021-08-12T09:28:03Z</time><extensions><speed>1.611863</speed><course>158.142120</course><hAcc>0.882255</hAcc><vAcc>0.709158</vAcc></extensions></trkpt>
      <trkpt lon="-3.331447" lat="54.574164"><ele>124.934219</ele><time>2021-08-12T09:28:04Z</time><extensions><speed>1.608207</speed><course>156.536041</course><hAcc>0.882277</hAcc><vAcc>0.709157</vAcc></extensions></trkpt>
      <trkpt lon="-3.331446" lat="54.574149"><ele>125.018936</ele><time>2021-08-12T09:28:05Z</time><extensions><speed>1.604874</speed><course>138.496033</course><hAcc>0.882270</hAcc><vAcc>0.709002</vAcc></extensions></trkpt>
      <trkpt lon="-3.331444" lat="54.574135"><ele>125.099586</ele><time>2021-08-12T09:28:06Z</time><extensions><speed>1.602191</speed><course>156.669647</course><hAcc>0.882241</hAcc><vAcc>0.708727</vAcc></extensions></trkpt>
      <trkpt lon="-3.331442" lat="54.574121"><ele>125.177139</ele><time>2021-08-12T09:28:07Z</time><extensions><speed>1.600195</speed><course>143.929214</course><hAcc>0.882197</hAcc><vAcc>0.708382</vAcc></extensions></trkpt>
      <trkpt lon="-3.331439" lat="54.574106"><ele>125.252174</ele><time>2021-08-12T09:28:08Z</time><extensions><speed>1.598808</speed><course>154.114960</course><hAcc>0.882146</hAcc><vAcc>0.708022</vAcc></extensions></trkpt>
      <trkpt lon="-3.331436" lat="54.574092"><ele>125.324608</ele><time>2021-08-12T09:28:09Z</time><extensions><speed>1.598093</speed><course>157.737396</course><hAcc>0.882098</hAcc><vAcc>0.707701</vAcc></extensions></trkpt>
      <trkpt lon="-3.331433" lat="54.574078"><ele>125.393661</ele><time>2021-08-12T09:28:10Z</time><extensions><speed>1.598381</speed><course>156.437073</course><hAcc>0.882061</hAcc><vAcc>0.707462</vAcc></extensions></trkpt>
      <trkpt lon="-3.331429" lat="54.574064"><ele>125.458405</ele><time>2021-08-12T09:28:11Z</time><extensions><speed>1.599901</speed><course>159.749420</course><hAcc>0.882042</hAcc><vAcc>0.707337</vAcc></extensions></trkpt>
      <trkpt lon="-3.331424" lat="54.574050"><ele>125.518204</ele><time>2021-08-12T09:28:12Z</time><extensions><speed>1.602541</speed><course>156.029541</course><hAcc>0.882047</hAcc><vAcc>0.707344</vAcc></extensions></trkpt>
      <trkpt lon="-3.331419" lat="54.574036"><ele>125.572815</ele><time>2021-08-12T09:28:13Z</time><extensions><speed>1.606157</speed><course>159.049896</course><hAcc>0.882081</hAcc><vAcc>0.707492</vAcc></extensions></trkpt>
      <trkpt lon="-3.331414" lat="54.574021"><ele>125.621803</ele><time>2021-08-12T09:28:14Z</time><extensions><speed>1.610252</speed><course>154.355942</course><hAcc>0.882149</hAcc><vAcc>0.707776</vAcc></extensions></trkpt>
      <trkpt lon="-3.331407" lat="54.574007"><ele>125.664001</ele><time>2021-08-12T09:28:15Z</time><extensions><speed>1.614165</speed><course>162.710571</course><hAcc>0.882259</hAcc><vAcc>0.708188</vAcc></extensions></trkpt>
      <trkpt lon="-3.331400" lat="54.573994"><ele>125.697899</ele><time>2021-08-12T09:28:16Z</time><extensions><speed>1.617485</speed><course>161.899368</course><hAcc>0.882419</hAcc><vAcc>0.708713</vAcc></extensions></trkpt>
      <trkpt lon="-3.331393" lat="54.573980"><ele>125.722290</ele><time>2021-08-12T09:28:17Z</time><extensions><speed>1.619597</speed><course>160.656769</course><hAcc>0.882643</hAcc><vAcc>0.709345</vAcc></extensions></trkpt>
      <trkpt lon="-3.331385" lat="54.573966"><ele>125.736526</ele><time>2021-08-12T09:28:18Z</time><extensions><speed>1.620188</speed><course>152.471558</course><hAcc>0.882950</hAcc><vAcc>0.710081</vAcc></extensions></trkpt>
      <trkpt lon="-3.331377" lat="54.573952"><ele>125.740776</ele><time>2021-08-12T09:28:19Z</time><extensions><speed>1.619245</speed><course>148.255112</course><hAcc>0.883366</hAcc><vAcc>0.710928</vAcc></extensions></trkpt>
      <trkpt lon="-3.331369" lat="54.573938"><ele>125.736084</ele><time>2021-08-12T09:28:20Z</time><extensions><speed>1.616546</speed><course>153.394714</course><hAcc>0.883921</hAcc><vAcc>0.711907</vAcc></extensions></trkpt>
      <trkpt lon="-3.331361" lat="54.573925"><ele>125.724556</ele><time>2021-08-12T09:28:21Z</time><extensions><speed>1.611596</speed><course>156.943573</course><hAcc>0.884653</hAcc><vAcc>0.713044</vAcc></extensions></trkpt>
      <trkpt lon="-3.331352" lat="54.573911"><ele>125.708992</ele><time>2021-08-12T09:28:22Z</time><extensions><speed>1.603798</speed><course>159.515564</course><hAcc>0.885599</hAcc><vAcc>0.714365</vAcc></extensions></trkpt>
      <trkpt lon="-3.331343" lat="54.573898"><ele>125.692001</ele><time>2021-08-12T09:28:23Z</time><extensions><speed>1.592991</speed><course>158.540283</course><hAcc>0.886794</hAcc><vAcc>0.715879</vAcc></extensions></trkpt>
      <trkpt lon="-3.331335" lat="54.573884"><ele>125.675720</ele><time>2021-08-12T09:28:24Z</time><extensions><speed>1.579544</speed><course>153.751312</course><hAcc>0.888262</hAcc><vAcc>0.717568</vAcc></extensions></trkpt>
      <trkpt lon="-3.331326" lat="54.573871"><ele>125.662025</ele><time>2021-08-12T09:28:25Z</time><extensions><speed>1.563949</speed><course>159.795258</course><hAcc>0.890006</hAcc><vAcc>0.719385</vAcc></extensions></trkpt>
      <trkpt lon="-3.331318" lat="54.573858"><ele>125.652191</ele><time>2021-08-12T09:28:26Z</time><extensions><speed>1.546363</speed><course>158.187424</course><hAcc>0.891994</hAcc><vAcc>0.721256</vAcc></extensions></trkpt>
      <trkpt lon="-3.331310" lat="54.573845"><ele>125.646858</ele><time>2021-08-12T09:28:27Z</time><extensions><speed>1.526764</speed><course>160.275116</course><hAcc>0.894150</hAcc><vAcc>0.723074</vAcc></extensions></trkpt>
      <trkpt lon="-3.331302" lat="54.573832"><ele>125.646072</ele><time>2021-08-12T09:28:28Z</time><extensions><speed>1.505579</speed><course>156.643036</course><hAcc>0.896345</hAcc><vAcc>0.724705</vAcc></extensions></trkpt>
      <trkpt lon="-3.331295" lat="54.573819"><ele>125.649101</ele><time>2021-08-12T09:28:29Z</time><extensions><speed>1.483836</speed><course>162.614395</course><hAcc>0.898401</hAcc><vAcc>0.726001</vAcc></extensions></trkpt>
      <trkpt lon="-3.331288" lat="54.573807"><ele>125.654930</ele><time>2021-08-12T09:28:30Z</time><extensions><speed>1.462679</speed><course>162.054535</course><hAcc>0.900114</hAcc><vAcc>0.726838</vAcc></extensions></trkpt>
      <trkpt lon="-3.331282" lat="54.573794"><ele>125.662926</ele><time>2021-08-12T09:28:31Z</time><extensions><speed>1.442743</speed><course>177.342987</course><hAcc>0.901303</hAcc><vAcc>0.727172</vAcc></extensions></trkpt>
      <trkpt lon="-3.331276" lat="54.573782"><ele>125.673080</ele><time>2021-08-12T09:28:32Z</time><extensions><speed>1.424215</speed><course>172.891953</course><hAcc>0.901910</hAcc><vAcc>0.727145</vAcc></extensions></trkpt>
      <trkpt lon="-3.331271" lat="54.573769"><ele>125.685799</ele><time>2021-08-12T09:28:33Z</time><extensions><speed>1.407210</speed><course>169.984741</course><hAcc>0.902170</hAcc><vAcc>0.727227</vAcc></extensions></trkpt>
      <trkpt lon="-3.331267" lat="54.573757"><ele>125.701653</ele><time>2021-08-12T09:28:34Z</time><extensions><speed>1.392235</speed><course>166.246048</course><hAcc>0.902867</hAcc><vAcc>0.728409</vAcc></extensions></trkpt>
      <trkpt lon="-3.331263" lat="54.573745"><ele>125.721527</ele><time>2021-08-12T09:28:35Z</time><extensions><speed>1.379957</speed><course>166.762161</course><hAcc>0.905693</hAcc><vAcc>0.732442</vAcc></extensions></trkpt>
      <trkpt lon="-3.331261" lat="54.573733"><ele>125.746506</ele><time>2021-08-12T09:28:36Z</time><extensions><speed>1.370435</speed><course>163.016708</course><hAcc>0.913695</hAcc><vAcc>0.742079</vAcc></extensions></trkpt>
      <trkpt lon="-3.331258" lat="54.573720"><ele>125.777397</ele><time>2021-08-12T09:28:37Z</time><extensions><speed>1.363627</speed><course>159.079727</course><hAcc>0.931694</hAcc><vAcc>0.761206</vAcc></extensions></trkpt>
      <trkpt lon="-3.331256" lat="54.573708"><ele>125.814636</ele><time>2021-08-12T09:28:38Z</time><extensions><speed>1.359468</speed><course>160.816132</course><hAcc>0.966425</hAcc><vAcc>0.794708</vAcc></extensions></trkpt>
      <trkpt lon="-3.331263" lat="54.573698"><ele>126.094902</ele><time>2021-08-12T09:28:39Z</time><extensions><speed>1.229126</speed><course>74.967865</course><hAcc>0.928797</hAcc><vAcc>0.759550</vAcc></extensions></trkpt>
      <trkpt lon="-3.331269" lat="54.573688"><ele>126.270584</ele><time>2021-08-12T09:28:40Z</time><extensions><speed>1.229065</speed><course>75.133301</course><hAcc>0.909976</hAcc><vAcc>0.738967</vAcc></extensions></trkpt>
      <trkpt lon="-3.331275" lat="54.573678"><ele>126.448158</ele><time>2021-08-12T09:28:41Z</time><extensions><speed>1.228899</speed><course>66.099251</course><hAcc>0.902309</hAcc><vAcc>0.728803</vAcc></extensions></trkpt>
      <trkpt lon="-3.331283" lat="54.573668"><ele>126.625656</ele><time>2021-08-12T09:28:42Z</time><extensions><speed>1.229055</speed><course>81.237114</course><hAcc>0.900292</hAcc><vAcc>0.724724</vAcc></extensions></trkpt>
      <trkpt lon="-3.331291" lat="54.573657"><ele>126.800850</ele><time>2021-08-12T09:28:43Z</time><extensions><speed>1.229936</speed><course>80.566093</course><hAcc>0.900449</hAcc><vAcc>0.723646</vAcc></extensions></trkpt>
      <trkpt lon="-3.331299" lat="54.573648"><ele>126.971367</ele><time>2021-08-12T09:28:44Z</time><extensions><speed>1.231340</speed><course>80.566109</course><hAcc>0.900867</hAcc><vAcc>0.723605</vAcc></extensions></trkpt>
      <trkpt lon="-3.331308" lat="54.573638"><ele>127.134972</ele><time>2021-08-12T09:28:45Z</time><extensions><speed>1.232494</speed><course>80.566093</course><hAcc>0.900676</hAcc><vAcc>0.723497</vAcc></extensions></trkpt>
      <trkpt lon="-3.331318" lat="54.573628"><ele>127.290016</ele><time>2021-08-12T09:28:46Z</time><extensions><speed>1.232714</speed><course>80.566093</course><hAcc>0.899640</hAcc><vAcc>0.722809</vAcc></extensions></trkpt>
      <trkpt lon="-3.331328" lat="54.573619"><ele>127.435982</ele><time>2021-08-12T09:28:47Z</time><extensions><speed>1.231270</speed><course>80.566093</course><hAcc>0.897850</hAcc><vAcc>0.721391</vAcc></extensions></trkpt>
      <trkpt lon="-3.331338" lat="54.573610"><ele>127.573654</ele><time>2021-08-12T09:28:48Z</time><extensions><speed>1.227843</speed><course>77.344681</course><hAcc>0.895538</hAcc><vAcc>0.719293</vAcc></extensions></trkpt>
      <trkpt lon="-3.331349" lat="54.573600"><ele>127.704430</ele><time>2021-08-12T09:28:49Z</time><extensions><speed>1.222528</speed><course>77.923714</course><hAcc>0.892960</hAcc><vAcc>0.716658</vAcc></extensions></trkpt>
      <trkpt lon="-3.331359" lat="54.573591"><ele>127.829590</ele><time>2021-08-12T09:28:50Z</time><extensions><speed>1.215641</speed><course>87.073212</course><hAcc>0.890337</hAcc><vAcc>0.713652</vAcc></extensions></trkpt>
      <trkpt lon="-3.331369" lat="54.573582"><ele>127.949883</ele><time>2021-08-12T09:28:51Z</time><extensions><speed>1.207957</speed><course>79.233902</course><hAcc>0.887830</hAcc><vAcc>0.710425</vAcc></extensions></trkpt>
      <trkpt lon="-3.331379" lat="54.573573"><ele>128.065308</ele><time>2021-08-12T09:28:52Z</time><extensions><speed>1.200111</speed><course>96.572746</course><hAcc>0.885538</hAcc><vAcc>0.707098</vAcc></extensions></trkpt>
      <trkpt lon="-3.331389" lat="54.573564"><ele>128.175232</ele><time>2021-08-12T09:28:53Z</time><extensions><speed>1.191702</speed><course>86.920219</course><hAcc>0.883508</hAcc><vAcc>0.703759</vAcc></extensions></trkpt>
      <trkpt lon="-3.331398" lat="54.573555"><ele>128.278931</ele><time>2021-08-12T09:28:54Z</time><extensions><speed>1.181486</speed><course>76.786201</course><hAcc>0.881746</hAcc><vAcc>0.700466</vAcc></extensions></trkpt>
      <trkpt lon="-3.331407" lat="54.573546"><ele>128.376099</ele><time>2021-08-12T09:28:55Z</time><extensions><speed>1.168386</speed><course>77.162971</course><hAcc>0.880233</hAcc><vAcc>0.697256</vAcc></extensions></trkpt>
      <trkpt lon="-3.331416" lat="54.573536"><ele>128.466583</ele><time>2021-08-12T09:28:56Z</time><extensions><speed>1.152208</speed><course>69.604996</course><hAcc>0.878936</hAcc><vAcc>0.694149</vAcc></extensions></trkpt>
      <trkpt lon="-3.331424" lat="54.573527"><ele>128.550232</ele><time>2021-08-12T09:28:57Z</time><extensions><speed>1.133508</speed><course>76.115456</course><hAcc>0.877820</hAcc><vAcc>0.691160</vAcc></extensions></trkpt>
      <trkpt lon="-3.331431" lat="54.573518"><ele>128.626816</ele><time>2021-08-12T09:28:58Z</time><extensions><speed>1.113161</speed><course>83.646278</course><hAcc>0.876849</hAcc><vAcc>0.688300</vAcc></extensions></trkpt>
      <trkpt lon="-3.331438" lat="54.573509"><ele>128.696320</ele><time>2021-08-12T09:28:59Z</time><extensions><speed>1.092635</speed><course>76.408623</course><hAcc>0.875995</hAcc><vAcc>0.685579</vAcc></extensions></trkpt>
      <trkpt lon="-3.331444" lat="54.573500"><ele>128.759125</ele><time>2021-08-12T09:29:00Z</time><extensions><speed>1.073311</speed><course>79.439453</course><hAcc>0.875235</hAcc><vAcc>0.683008</vAcc></extensions></trkpt>
      <trkpt lon="-3.331450" lat="54.573491"><ele>128.816025</ele><time>2021-08-12T09:29:01Z</time><extensions><speed>1.055694</speed><course>75.300941</course><hAcc>0.874555</hAcc><vAcc>0.680604</vAcc></extensions></trkpt>
      <trkpt lon="-3.331454" lat="54.573482"><ele>128.867722</ele><time>2021-08-12T09:29:02Z</time><extensions><speed>1.039757</speed><course>76.126534</course><hAcc>0.873947</hAcc><vAcc>0.678389</vAcc></extensions></trkpt>
      <trkpt lon="-3.331459" lat="54.573473"><ele>128.914764</ele><time>2021-08-12T09:29:03Z</time><extensions><speed>1.025508</speed><course>75.233688</course><hAcc>0.873408</hAcc><vAcc>0.676395</vAcc></extensions></trkpt>
      <trkpt lon="-3.331462" lat="54.573464"><ele>128.957642</ele><time>2021-08-12T09:29:04Z</time><extensions><speed>1.013179</speed><course>81.891060</course><hAcc>0.872937</hAcc><vAcc>0.674650</vAcc></extensions></trkpt>
      <trkpt lon="-3.331465" lat="54.573455"><ele>128.996872</ele><time>2021-08-12T09:29:05Z</time><extensions><speed>1.002990</speed><course>78.263519</course><hAcc>0.872534</hAcc><vAcc>0.673179</vAcc></extensions></trkpt>
      <trkpt lon="-3.331467" lat="54.573446"><ele>129.033051</ele><time>2021-08-12T09:29:06Z</time><extensions><speed>0.994900</speed><course>74.907532</course><hAcc>0.872199</hAcc><vAcc>0.671986</vAcc></extensions></trkpt>
      <trkpt lon="-3.331468" lat="54.573437"><ele>129.066864</ele><time>2021-08-12T09:29:07Z</time><extensions><speed>0.988518</speed><course>84.941742</course><hAcc>0.871924</hAcc><vAcc>0.671049</vAcc></extensions></trkpt>
      <trkpt lon="-3.331470" lat="54.573429"><ele>129.098770</ele><time>2021-08-12T09:29:08Z</time><extensions><speed>0.983419</speed><course>73.584358</course><hAcc>0.871702</hAcc><vAcc>0.670321</vAcc></extensions></trkpt>
      <trkpt lon="-3.331470" lat="54.573420"><ele>129.128922</ele><time>2021-08-12T09:29:09Z</time><extensions><speed>0.980025</speed><course>96.346313</course><hAcc>0.871520</hAcc><vAcc>0.669744</vAcc></extensions></trkpt>
      <trkpt lon="-3.331470" lat="54.573411"><ele>129.157516</ele><time>2021-08-12T09:29:10Z</time><extensions><speed>0.979747</speed><course>87.208282</course><hAcc>0.871367</hAcc><vAcc>0.669266</vAcc></extensions></trkpt>
      <trkpt lon="-3.331470" lat="54.573402"><ele>129.185242</ele><time>2021-08-12T09:29:11Z</time><extensions><speed>0.983556</speed><course>71.034035</course><hAcc>0.871236</hAcc><vAcc>0.668847</vAcc></extensions></trkpt>
      <trkpt lon="-3.331469" lat="54.573393"><ele>129.213135</ele><time>2021-08-12T09:29:12Z</time><extensions><speed>0.991004</speed><course>74.315559</course><hAcc>0.871119</hAcc><vAcc>0.668471</vAcc></extensions></trkpt>
      <trkpt lon="-3.331468" lat="54.573384"><ele>129.242264</ele><time>2021-08-12T09:29:13Z</time><extensions><speed>1.000892</speed><course>82.074326</course><hAcc>0.871012</hAcc><vAcc>0.668129</vAcc></extensions></trkpt>
      <trkpt lon="-3.331467" lat="54.573375"><ele>129.273651</ele><time>2021-08-12T09:29:14Z</time><extensions><speed>1.012411</speed><course>78.798851</course><hAcc>0.870914</hAcc><vAcc>0.667809</vAcc></extensions></trkpt>
      <trkpt lon="-3.331465" lat="54.573366"><ele>129.307693</ele><time>2021-08-12T09:29:15Z</time><extensions><speed>1.025283</speed><course>71.049065</course><hAcc>0.870819</hAcc><vAcc>0.667494</vAcc></extensions></trkpt>
      <trkpt lon="-3.331463" lat="54.573357"><ele>129.343781</ele><time>2021-08-12T09:29:16Z</time><extensions><speed>1.039588</speed><course>66.417450</course><hAcc>0.870726</hAcc><vAcc>0.667164</vAcc></extensions></trkpt>
      <trkpt lon="-3.331461" lat="54.573348"><ele>129.380722</ele><time>2021-08-12T09:29:17Z</time><extensions><speed>1.055615</speed><course>67.881187</course><hAcc>0.870636</hAcc><vAcc>0.666814</vAcc></extensions></trkpt>
      <trkpt lon="-3.331459" lat="54.573338"><ele>129.417343</ele><time>2021-08-12T09:29:18Z</time><extensions><speed>1.073655</speed><course>73.946594</course><hAcc>0.870553</hAcc><vAcc>0.666460</vAcc></extensions></trkpt>
      <trkpt lon="-3.331456" lat="54.573329"><ele>129.453156</ele><time>2021-08-12T09:29:19Z</time><extensions><speed>1.093602</speed><course>66.868568</course><hAcc>0.870487</hAcc><vAcc>0.666146</vAcc></extensions></trkpt>
      <trkpt lon="-3.331454" lat="54.573319"><ele>129.488785</ele><time>2021-08-12T09:29:20Z</time><extensions><speed>1.115169</speed><course>57.370388</course><hAcc>0.870453</hAcc><vAcc>0.665938</vAcc></extensions></trkpt>
      <trkpt lon="-3.331452" lat="54.573309"><ele>129.525681</ele><time>2021-08-12T09:29:21Z</time><extensions><speed>1.138482</speed><course>72.859169</course><hAcc>0.870466</hAcc><vAcc>0.665913</vAcc></extensions></trkpt>
      <trkpt lon="-3.331450" lat="54.573298"><ele>129.565475</ele><time>2021-08-12T09:29:22Z</time><extensions><speed>1.163798</speed><course>73.476959</course><hAcc>0.870537</hAcc><vAcc>0.666138</vAcc></extensions></trkpt>
      <trkpt lon="-3.331448" lat="54.573288"><ele>129.609589</ele><time>2021-08-12T09:29:23Z</time><extensions><speed>1.190701</speed><course>70.985191</course><hAcc>0.870677</hAcc><vAcc>0.666662</vAcc></extensions></trkpt>
      <trkpt lon="-3.331446" lat="54.573277"><ele>129.658936</ele><time>2021-08-12T09:29:24Z</time><extensions><speed>1.217322</speed><course>67.094063</course><hAcc>0.870885</hAcc><vAcc>0.667494</vAcc></extensions></trkpt>
      <trkpt lon="-3.331444" lat="54.573266"><ele>129.713837</ele><time>2021-08-12T09:29:25Z</time><extensions><speed>1.241460</speed><course>63.802017</course><hAcc>0.871154</hAcc><vAcc>0.668592</vAcc></extensions></trkpt>
      <trkpt lon="-3.331442" lat="54.573255"><ele>129.774063</ele><time>2021-08-12T09:29:26Z</time><extensions><speed>1.261395</speed><course>59.738853</course><hAcc>0.871467</hAcc><vAcc>0.669870</vAcc></extensions></trkpt>
      <trkpt lon="-3.331440" lat="54.573244"><ele>129.839310</ele><time>2021-08-12T09:29:27Z</time><extensions><speed>1.276556</speed><course>64.752533</course><hAcc>0.871800</hAcc><vAcc>0.671216</vAcc></extensions></trkpt>
      <trkpt lon="-3.331438" lat="54.573232"><ele>129.909393</ele><time>2021-08-12T09:29:28Z</time><extensions><speed>1.288122</speed><course>62.678837</course><hAcc>0.872134</hAcc><vAcc>0.672525</vAcc></extensions></trkpt>
      <trkpt lon="-3.331436" lat="54.573221"><ele>129.984268</ele><time>2021-08-12T09:29:29Z</time><extensions><speed>1.297524</speed><course>67.622025</course><hAcc>0.872451</hAcc><vAcc>0.673717</vAcc></extensions></trkpt>
      <trkpt lon="-3.331434" lat="54.573209"><ele>130.063797</ele><time>2021-08-12T09:29:30Z</time><extensions><speed>1.305542</speed><course>76.998230</course><hAcc>0.872740</hAcc><vAcc>0.674751</vAcc></extensions></trkpt>
      <trkpt lon="-3.331432" lat="54.573197"><ele>130.147522</ele><time>2021-08-12T09:29:31Z</time><extensions><speed>1.312550</speed><course>71.279175</course><hAcc>0.872997</hAcc><vAcc>0.675617</vAcc></extensions></trkpt>
      <trkpt lon="-3.331429" lat="54.573186"><ele>130.234604</ele><time>2021-08-12T09:29:32Z</time><extensions><speed>1.318475</speed><course>66.215858</course><hAcc>0.873223</hAcc><vAcc>0.676331</vAcc></extensions></trkpt>
      <trkpt lon="-3.331426" lat="54.573174"><ele>130.323730</ele><time>2021-08-12T09:29:33Z</time><extensions><speed>1.322730</speed><course>65.869171</course><hAcc>0.873422</hAcc><vAcc>0.676928</vAcc></extensions></trkpt>
      <trkpt lon="-3.331422" lat="54.573162"><ele>130.413071</ele><time>2021-08-12T09:29:34Z</time><extensions><speed>1.324826</speed><course>67.480362</course><hAcc>0.873604</hAcc><vAcc>0.677460</vAcc></extensions></trkpt>
      <trkpt lon="-3.331418" lat="54.573151"><ele>130.500412</ele><time>2021-08-12T09:29:35Z</time><extensions><speed>1.324675</speed><course>62.467888</course><hAcc>0.873780</hAcc><vAcc>0.677984</vAcc></extensions></trkpt>
      <trkpt lon="-3.331414" lat="54.573139"><ele>130.583572</ele><time>2021-08-12T09:29:36Z</time><extensions><speed>1.322192</speed><course>57.403885</course><hAcc>0.873960</hAcc><vAcc>0.678554</vAcc></extensions></trkpt>
      <trkpt lon="-3.331410" lat="54.573127"><ele>130.660904</ele><time>2021-08-12T09:29:37Z</time><extensions><speed>1.317338</speed><course>56.104736</course><hAcc>0.874152</hAcc><vAcc>0.679208</vAcc></extensions></trkpt>
      <trkpt lon="-3.331406" lat="54.573116"><ele>130.731674</ele><time>2021-08-12T09:29:38Z</time><extensions><speed>1.310256</speed><course>57.135769</course><hAcc>0.874362</hAcc><vAcc>0.679965</vAcc></extensions></trkpt>
      <trkpt lon="-3.331402" lat="54.573104"><ele>130.796082</ele><time>2021-08-12T09:29:39Z</time><extensions><speed>1.301114</speed><course>59.466648</course><hAcc>0.874590</hAcc><vAcc>0.680817</vAcc></extensions></trkpt>
      <trkpt lon="-3.331397" lat="54.573093"><ele>130.854721</ele><time>2021-08-12T09:29:40Z</time><extensions><speed>1.289757</speed><course>56.466339</course><hAcc>0.874834</hAcc><vAcc>0.681744</vAcc></extensions></trkpt>
      <trkpt lon="-3.331393" lat="54.573082"><ele>130.908859</ele><time>2021-08-12T09:29:41Z</time><extensions><speed>1.276185</speed><course>61.082169</course><hAcc>0.875088</hAcc><vAcc>0.682720</vAcc></extensions></trkpt>
      <trkpt lon="-3.331390" lat="54.573070"><ele>130.959976</ele><time>2021-08-12T09:29:42Z</time><extensions><speed>1.261236</speed><course>63.000797</course><hAcc>0.875347</hAcc><vAcc>0.683715</vAcc></extensions></trkpt>
      <trkpt lon="-3.331386" lat="54.573059"><ele>131.009094</ele><time>2021-08-12T09:29:43Z</time><extensions><speed>1.246436</speed><course>58.373146</course><hAcc>0.875603</hAcc><vAcc>0.684701</vAcc></extensions></trkpt>
      <trkpt lon="-3.331383" lat="54.573048"><ele>131.056961</ele><time>2021-08-12T09:29:44Z</time><extensions><speed>1.233314</speed><course>59.591164</course><hAcc>0.875848</hAcc><vAcc>0.685647</vAcc></extensions></trkpt>
      <trkpt lon="-3.331381" lat="54.573037"><ele>131.104355</ele><time>2021-08-12T09:29:45Z</time><extensions><speed>1.222928</speed><course>56.078835</course><hAcc>0.876074</hAcc><vAcc>0.686525</vAcc></extensions></trkpt>
      <trkpt lon="-3.331379" lat="54.573027"><ele>131.151901</ele><time>2021-08-12T09:29:46Z</time><extensions><speed>1.215564</speed><course>61.452141</course><hAcc>0.876273</hAcc><vAcc>0.687305</vAcc></extensions></trkpt>
      <trkpt lon="-3.331377" lat="54.573016"><ele>131.199722</ele><time>2021-08-12T09:29:47Z</time><extensions><speed>1.210658</speed><course>62.349373</course><hAcc>0.876438</hAcc><vAcc>0.687957</vAcc></extensions></trkpt>
      <trkpt lon="-3.331376" lat="54.573005"><ele>131.247833</ele><time>2021-08-12T09:29:48Z</time><extensions><speed>1.207933</speed><course>67.502327</course><hAcc>0.876561</hAcc><vAcc>0.688452</vAcc></extensions></trkpt>
      <trkpt lon="-3.331376" lat="54.572994"><ele>131.297119</ele><time>2021-08-12T09:29:49Z</time><extensions><speed>1.207169</speed><course>65.148994</course><hAcc>0.876637</hAcc><vAcc>0.688764</vAcc></extensions></trkpt>
      <trkpt lon="-3.331376" lat="54.572983"><ele>131.349533</ele><time>2021-08-12T09:29:50Z</time><extensions><speed>1.208102</speed><course>61.604351</course><hAcc>0.876662</hAcc><vAcc>0.688875</vAcc></extensions></trkpt>
      <trkpt lon="-3.331376" lat="54.572972"><ele>131.407333</ele><time>2021-08-12T09:29:51Z</time><extensions><speed>1.210862</speed><course>67.356651</course><hAcc>0.876634</hAcc><vAcc>0.688778</vAcc></extensions></trkpt>
      <trkpt lon="-3.331377" lat="54.572961"><ele>131.472656</ele><time>2021-08-12T09:29:52Z</time><extensions><speed>1.215543</speed><course>56.187717</course><hAcc>0.876556</hAcc><vAcc>0.688475</vAcc></extensions></trkpt>
      <trkpt lon="-3.331379" lat="54.572950"><ele>131.547394</ele><time>2021-08-12T09:29:53Z</time><extensions><speed>1.222332</speed><course>56.273357</course><hAcc>0.876429</hAcc><vAcc>0.687974</vAcc></extensions></trkpt>
      <trkpt lon="-3.331381" lat="54.572939"><ele>131.633072</ele><time>2021-08-12T09:29:54Z</time><extensions><speed>1.230997</speed><course>59.042984</course><hAcc>0.876261</hAcc><vAcc>0.687301</vAcc></extensions></trkpt>
      <trkpt lon="-3.331383" lat="54.572928"><ele>131.730499</ele><time>2021-08-12T09:29:55Z</time><extensions><speed>1.240592</speed><course>46.754299</course><hAcc>0.876059</hAcc><vAcc>0.686490</vAcc></extensions></trkpt>
      <trkpt lon="-3.331385" lat="54.572917"><ele>131.839432</ele><time>2021-08-12T09:29:56Z</time><extensions><speed>1.250756</speed><course>46.754295</course><hAcc>0.875834</hAcc><vAcc>0.685591</vAcc></extensions></trkpt>
      <trkpt lon="-3.331388" lat="54.572906"><ele>131.958450</ele><time>2021-08-12T09:29:57Z</time><extensions><speed>1.261702</speed><course>46.754295</course><hAcc>0.875599</hAcc><vAcc>0.684651</vAcc></extensions></trkpt>
      <trkpt lon="-3.331391" lat="54.572895"><ele>132.085251</ele><time>2021-08-12T09:29:58Z</time><extensions><speed>1.273933</speed><course>46.754295</course><hAcc>0.875366</hAcc><vAcc>0.683715</vAcc></extensions></trkpt>
      <trkpt lon="-3.331394" lat="54.572884"><ele>132.217102</ele><time>2021-08-12T09:29:59Z</time><extensions><speed>1.288381</speed><course>46.754295</course><hAcc>0.875149</hAcc><vAcc>0.682829</vAcc></extensions></trkpt>
      <trkpt lon="-3.331397" lat="54.572872"><ele>132.351669</ele><time>2021-08-12T09:30:00Z</time><extensions><speed>1.305405</speed><course>46.754295</course><hAcc>0.874960</hAcc><vAcc>0.682043</vAcc></extensions></trkpt>
      <trkpt lon="-3.331400" lat="54.572860"><ele>132.487671</ele><time>2021-08-12T09:30:01Z</time><extensions><speed>1.324347</speed><course>46.754295</course><hAcc>0.874813</hAcc><vAcc>0.681414</vAcc></extensions></trkpt>
      <trkpt lon="-3.331403" lat="54.572848"><ele>132.624634</ele><time>2021-08-12T09:30:02Z</time><extensions><speed>1.344004</speed><course>46.754292</course><hAcc>0.874723</hAcc><vAcc>0.681010</vAcc></extensions></trkpt>
      <trkpt lon="-3.331406" lat="54.572836"><ele>132.762436</ele><time>2021-08-12T09:30:03Z</time><extensions><speed>1.363141</speed><course>46.754295</course><hAcc>0.874699</hAcc><vAcc>0.680882</vAcc></extensions></trkpt>
      <trkpt lon="-3.331409" lat="54.572824"><ele>132.901001</ele><time>2021-08-12T09:30:04Z</time><extensions><speed>1.380648</speed><course>86.257805</course><hAcc>0.874746</hAcc><vAcc>0.681052</vAcc></extensions></trkpt>
      <trkpt lon="-3.331412" lat="54.572812"><ele>133.039352</ele><time>2021-08-12T09:30:05Z</time><extensions><speed>1.395514</speed><course>92.864906</course><hAcc>0.874865</hAcc><vAcc>0.681515</vAcc></extensions></trkpt>
      <trkpt lon="-3.331416" lat="54.572800"><ele>133.175232</ele><time>2021-08-12T09:30:06Z</time><extensions><speed>1.407139</speed><course>94.458534</course><hAcc>0.875050</hAcc><vAcc>0.682248</vAcc></extensions></trkpt>
      <trkpt lon="-3.331420" lat="54.572787"><ele>133.306061</ele><time>2021-08-12T09:30:07Z</time><extensions><speed>1.415733</speed><course>89.165138</course><hAcc>0.875297</hAcc><vAcc>0.683220</vAcc></extensions></trkpt>
      <trkpt lon="-3.331423" lat="54.572774"><ele>133.429733</ele><time>2021-08-12T09:30:08Z</time><extensions><speed>1.422028</speed><course>98.187202</course><hAcc>0.875596</hAcc><vAcc>0.684393</vAcc></extensions></trkpt>
      <trkpt lon="-3.331428" lat="54.572762"><ele>133.545334</ele><time>2021-08-12T09:30:09Z</time><extensions><speed>1.427273</speed><course>262.094696</course><hAcc>0.875939</hAcc><vAcc>0.685722</vAcc></extensions></trkpt>
      <trkpt lon="-3.331432" lat="54.572749"><ele>133.653519</ele><time>2021-08-12T09:30:10Z</time><extensions><speed>1.432403</speed><course>273.339569</course><hAcc>0.876315</hAcc><vAcc>0.687153</vAcc></extensions></trkpt>
      <trkpt lon="-3.331437" lat="54.572737"><ele>133.756134</ele><time>2021-08-12T09:30:11Z</time><extensions><speed>1.437261</speed><course>270.133057</course><hAcc>0.876712</hAcc><vAcc>0.688641</vAcc></extensions></trkpt>
      <trkpt lon="-3.331442" lat="54.572724"><ele>133.855545</ele><time>2021-08-12T09:30:12Z</time><extensions><speed>1.441459</speed><course>264.401459</course><hAcc>0.877122</hAcc><vAcc>0.690158</vAcc></extensions></trkpt>
      <trkpt lon="-3.331447" lat="54.572712"><ele>133.954330</ele><time>2021-08-12T09:30:13Z</time><extensions><speed>1.444983</speed><course>271.206299</course><hAcc>0.877537</hAcc><vAcc>0.691681</vAcc></extensions></trkpt>
      <trkpt lon="-3.331452" lat="54.572699"><ele>134.054977</ele><time>2021-08-12T09:30:14Z</time><extensions><speed>1.448278</speed><course>270.479279</course><hAcc>0.877951</hAcc><vAcc>0.693193</vAcc></extensions></trkpt>
      <trkpt lon="-3.331457" lat="54.572686"><ele>134.159698</ele><time>2021-08-12T09:30:15Z</time><extensions><speed>1.451670</speed><course>270.479279</course><hAcc>0.878359</hAcc><vAcc>0.694681</vAcc></extensions></trkpt>
      <trkpt lon="-3.331462" lat="54.572673"><ele>134.270172</ele><time>2021-08-12T09:30:16Z</time><extensions><speed>1.455194</speed><course>270.479279</course><hAcc>0.878755</hAcc><vAcc>0.696134</vAcc></extensions></trkpt>
      <trkpt lon="-3.331468" lat="54.572661"><ele>134.387039</ele><time>2021-08-12T09:30:17Z</time><extensions><speed>1.458540</speed><course>92.836548</course><hAcc>0.879136</hAcc><vAcc>0.697540</vAcc></extensions></trkpt>
      <trkpt lon="-3.331473" lat="54.572648"><ele>134.509705</ele><time>2021-08-12T09:30:18Z</time><extensions><speed>1.460369</speed><course>91.847809</course><hAcc>0.879500</hAcc><vAcc>0.698887</vAcc></extensions></trkpt>
      <trkpt lon="-3.331478" lat="54.572635"><ele>134.636475</ele><time>2021-08-12T09:30:19Z</time><extensions><speed>1.459866</speed><course>96.972961</course><hAcc>0.879844</hAcc><vAcc>0.700157</vAcc></extensions></trkpt>
      <trkpt lon="-3.331483" lat="54.572622"><ele>134.765182</ele><time>2021-08-12T09:30:20Z</time><extensions><speed>1.457449</speed><course>101.432434</course><hAcc>0.880167</hAcc><vAcc>0.701334</vAcc></extensions></trkpt>
      <trkpt lon="-3.331488" lat="54.572610"><ele>134.894180</ele><time>2021-08-12T09:30:21Z</time><extensions><speed>1.454282</speed><course>89.921867</course><hAcc>0.880468</hAcc><vAcc>0.702411</vAcc></extensions></trkpt>
      <trkpt lon="-3.331493" lat="54.572597"><ele>135.022552</ele><time>2021-08-12T09:30:22Z</time><extensions><speed>1.451643</speed><course>79.468422</course><hAcc>0.880747</hAcc><vAcc>0.703389</vAcc></extensions></trkpt>
      <trkpt lon="-3.331498" lat="54.572584"><ele>135.149780</ele><time>2021-08-12T09:30:23Z</time><extensions><speed>1.450112</speed><course>79.668663</course><hAcc>0.881005</hAcc><vAcc>0.704279</vAcc></extensions></trkpt>
      <trkpt lon="-3.331503" lat="54.572572"><ele>135.275726</ele><time>2021-08-12T09:30:24Z</time><extensions><speed>1.450256</speed><course>70.198914</course><hAcc>0.881241</hAcc><vAcc>0.705093</vAcc></extensions></trkpt>
      <trkpt lon="-3.331508" lat="54.572559"><ele>135.400620</ele><time>2021-08-12T09:30:25Z</time><extensions><speed>1.452112</speed><course>85.811096</course><hAcc>0.881459</hAcc><vAcc>0.705847</vAcc></extensions></trkpt>
      <trkpt lon="-3.331513" lat="54.572546"><ele>135.524734</ele><time>2021-08-12T09:30:26Z</time><extensions><speed>1.454865</speed><course>87.515213</course><hAcc>0.881660</hAcc><vAcc>0.706550</vAcc></extensions></trkpt>
      <trkpt lon="-3.331517" lat="54.572533"><ele>135.647964</ele><time>2021-08-12T09:30:27Z</time><extensions><speed>1.457364</speed><course>86.802406</course><hAcc>0.881845</hAcc><vAcc>0.707209</vAcc></extensions></trkpt>
      <trkpt lon="-3.331522" lat="54.572520"><ele>135.769821</ele><time>2021-08-12T09:30:28Z</time><extensions><speed>1.459369</speed><course>85.424927</course><hAcc>0.882014</hAcc><vAcc>0.707826</vAcc></extensions></trkpt>
      <trkpt lon="-3.331526" lat="54.572508"><ele>135.889832</ele><time>2021-08-12T09:30:29Z</time><extensions><speed>1.461036</speed><course>88.911957</course><hAcc>0.882170</hAcc><vAcc>0.708397</vAcc></extensions></trkpt>
      <trkpt lon="-3.331531" lat="54.572495"><ele>136.007187</ele><time>2021-08-12T09:30:30Z</time><extensions><speed>1.461961</speed><course>93.027184</course><hAcc>0.882311</hAcc><vAcc>0.708921</vAcc></extensions></trkpt>
      <trkpt lon="-3.331535" lat="54.572482"><ele>136.120697</ele><time>2021-08-12T09:30:31Z</time><extensions><speed>1.461803</speed><course>90.763535</course><hAcc>0.882438</hAcc><vAcc>0.709400</vAcc></extensions></trkpt>
      <trkpt lon="-3.331540" lat="54.572469"><ele>136.229263</ele><time>2021-08-12T09:30:32Z</time><extensions><speed>1.460429</speed><course>83.392509</course><hAcc>0.882551</hAcc><vAcc>0.709830</vAcc></extensions></trkpt>
      <trkpt lon="-3.331544" lat="54.572456"><ele>136.332596</ele><time>2021-08-12T09:30:33Z</time><extensions><speed>1.457872</speed><course>57.334152</course><hAcc>0.882648</hAcc><vAcc>0.710205</vAcc></extensions></trkpt>
      <trkpt lon="-3.331548" lat="54.572443"><ele>136.431229</ele><time>2021-08-12T09:30:34Z</time><extensions><speed>1.453906</speed><course>29.254333</course><hAcc>0.882731</hAcc><vAcc>0.710518</vAcc></extensions></trkpt>
      <trkpt lon="-3.331553" lat="54.572431"><ele>136.526169</ele><time>2021-08-12T09:30:35Z</time><extensions><speed>1.448948</speed><course>29.254333</course><hAcc>0.882799</hAcc><vAcc>0.710763</vAcc></extensions></trkpt>
      <trkpt lon="-3.331557" lat="54.572418"><ele>136.618805</ele><time>2021-08-12T09:30:36Z</time><extensions><speed>1.443737</speed><course>29.254333</course><hAcc>0.882854</hAcc><vAcc>0.710939</vAcc></extensions></trkpt>
      <trkpt lon="-3.331562" lat="54.572405"><ele>136.710648</ele><time>2021-08-12T09:30:37Z</time><extensions><speed>1.438555</speed><course>29.254332</course><hAcc>0.882895</hAcc><vAcc>0.711051</vAcc></extensions></trkpt>
      <trkpt lon="-3.331566" lat="54.572392"><ele>136.802979</ele><time>2021-08-12T09:30:38Z</time><extensions><speed>1.433519</speed><course>29.254333</course><hAcc>0.882925</hAcc><vAcc>0.711115</vAcc></extensions></trkpt>
      <trkpt lon="-3.331570" lat="54.572380"><ele>136.896393</ele><time>2021-08-12T09:30:39Z</time><extensions><speed>1.428609</speed><course>29.254332</course><hAcc>0.882945</hAcc><vAcc>0.711146</vAcc></extensions></trkpt>
      <trkpt lon="-3.331575" lat="54.572367"><ele>136.990997</ele><time>2021-08-12T09:30:40Z</time><extensions><speed>1.423892</speed><course>29.254332</course><hAcc>0.882955</hAcc><vAcc>0.711156</vAcc></extensions></trkpt>
      <trkpt lon="-3.331579" lat="54.572355"><ele>137.087128</ele><time>2021-08-12T09:30:41Z</time><extensions><speed>1.419848</speed><course>29.254333</course><hAcc>0.882958</hAcc><vAcc>0.711153</vAcc></extensions></trkpt>
      <trkpt lon="-3.331583" lat="54.572342"><ele>137.185562</ele><time>2021-08-12T09:30:42Z</time><extensions><speed>1.416953</speed><course>29.254333</course><hAcc>0.882957</hAcc><vAcc>0.711141</vAcc></extensions></trkpt>
      <trkpt lon="-3.331587" lat="54.572330"><ele>137.286591</ele><time>2021-08-12T09:30:43Z</time><extensions><speed>1.415263</speed><course>29.254332</course><hAcc>0.882953</hAcc><vAcc>0.711121</vAcc></extensions></trkpt>
      <trkpt lon="-3.331591" lat="54.572317"><ele>137.389557</ele><time>2021-08-12T09:30:44Z</time><extensions><speed>1.414892</speed><course>29.254333</course><hAcc>0.882949</hAcc><vAcc>0.711094</vAcc></extensions></trkpt>
      <trkpt lon="-3.331595" lat="54.572305"><ele>137.493439</ele><time>2021-08-12T09:30:45Z</time><extensions><speed>1.416127</speed><course>29.254337</course><hAcc>0.882946</hAcc><vAcc>0.711065</vAcc></extensions></trkpt>
      <trkpt lon="-3.331600" lat="54.572292"><ele>137.597046</ele><time>2021-08-12T09:30:46Z</time><extensions><speed>1.418886</speed><course>29.254337</course><hAcc>0.882947</hAcc><vAcc>0.711039</vAcc></extensions></trkpt>
      <trkpt lon="-3.331604" lat="54.572280"><ele>137.698883</ele><time>2021-08-12T09:30:47Z</time><extensions><speed>1.422548</speed><course>29.254339</course><hAcc>0.882953</hAcc><vAcc>0.711025</vAcc></extensions></trkpt>
      <trkpt lon="-3.331608" lat="54.572267"><ele>137.797302</ele><time>2021-08-12T09:30:48Z</time><extensions><speed>1.426394</speed><course>29.254337</course><hAcc>0.882965</hAcc><vAcc>0.711035</vAcc></extensions></trkpt>
      <trkpt lon="-3.331612" lat="54.572255"><ele>137.890640</ele><time>2021-08-12T09:30:49Z</time><extensions><speed>1.429780</speed><course>29.254339</course><hAcc>0.882984</hAcc><vAcc>0.711083</vAcc></extensions></trkpt>
      <trkpt lon="-3.331616" lat="54.572242"><ele>137.977432</ele><time>2021-08-12T09:30:50Z</time><extensions><speed>1.432088</speed><course>353.139893</course><hAcc>0.883010</hAcc><vAcc>0.711178</vAcc></extensions></trkpt>
      <trkpt lon="-3.331620" lat="54.572229"><ele>138.056580</ele><time>2021-08-12T09:30:51Z</time><extensions><speed>1.432747</speed><course>-1.000000</course><hAcc>0.883043</hAcc><vAcc>0.711318</vAcc></extensions></trkpt>
      <trkpt lon="-3.331624" lat="54.572217"><ele>138.127502</ele><time>2021-08-12T09:30:52Z</time><extensions><speed>1.432302</speed><course>-1.000000</course><hAcc>0.883083</hAcc><vAcc>0.711494</vAcc></extensions></trkpt>
      <trkpt lon="-3.331628" lat="54.572204"><ele>138.189880</ele><time>2021-08-12T09:30:53Z</time><extensions><speed>1.431715</speed><course>-1.000000</course><hAcc>0.883130</hAcc><vAcc>0.711691</vAcc></extensions></trkpt>
      <trkpt lon="-3.331632" lat="54.572191"><ele>138.243851</ele><time>2021-08-12T09:30:54Z</time><extensions><speed>1.431521</speed><course>-1.000000</course><hAcc>0.883182</hAcc><vAcc>0.711901</vAcc></extensions></trkpt>
      <trkpt lon="-3.331637" lat="54.572179"><ele>138.290085</ele><time>2021-08-12T09:30:55Z</time><extensions><speed>1.432589</speed><course>-1.000000</course><hAcc>0.883239</hAcc><vAcc>0.712116</vAcc></extensions></trkpt>
      <trkpt lon="-3.331641" lat="54.572166"><ele>138.329697</ele><time>2021-08-12T09:30:56Z</time><extensions><speed>1.435517</speed><course>-1.000000</course><hAcc>0.883298</hAcc><vAcc>0.712332</vAcc></extensions></trkpt>
      <trkpt lon="-3.331645" lat="54.572153"><ele>138.364365</ele><time>2021-08-12T09:30:57Z</time><extensions><speed>1.440185</speed><course>-1.000000</course><hAcc>0.883358</hAcc><vAcc>0.712548</vAcc></extensions></trkpt>
      <trkpt lon="-3.331650" lat="54.572141"><ele>138.396057</ele><time>2021-08-12T09:30:58Z</time><extensions><speed>1.445638</speed><course>-1.000000</course><hAcc>0.883417</hAcc><vAcc>0.712765</vAcc></extensions></trkpt>
      <trkpt lon="-3.331655" lat="54.572128"><ele>138.426743</ele><time>2021-08-12T09:30:59Z</time><extensions><speed>1.450609</speed><course>-1.000000</course><hAcc>0.883474</hAcc><vAcc>0.712979</vAcc></extensions></trkpt>
      <trkpt lon="-3.331659" lat="54.572115"><ele>138.458054</ele><time>2021-08-12T09:31:00Z</time><extensions><speed>1.454947</speed><course>-1.000000</course><hAcc>0.883529</hAcc><vAcc>0.713184</vAcc></extensions></trkpt>
      <trkpt lon="-3.331664" lat="54.572102"><ele>138.491180</ele><time>2021-08-12T09:31:01Z</time><extensions><speed>1.458847</speed><course>-1.000000</course><hAcc>0.883581</hAcc><vAcc>0.713372</vAcc></extensions></trkpt>
      <trkpt lon="-3.331669" lat="54.572090"><ele>138.526733</ele><time>2021-08-12T09:31:02Z</time><extensions><speed>1.462423</speed><course>74.830536</course><hAcc>0.883630</hAcc><vAcc>0.713538</vAcc></extensions></trkpt>
      <trkpt lon="-3.331673" lat="54.572077"><ele>138.564651</ele><time>2021-08-12T09:31:03Z</time><extensions><speed>1.465610</speed><course>62.161198</course><hAcc>0.883677</hAcc><vAcc>0.713684</vAcc></extensions></trkpt>
      <trkpt lon="-3.331678" lat="54.572064"><ele>138.604233</ele><time>2021-08-12T09:31:04Z</time><extensions><speed>1.467810</speed><course>66.043793</course><hAcc>0.883722</hAcc><vAcc>0.713818</vAcc></extensions></trkpt>
      <trkpt lon="-3.331683" lat="54.572051"><ele>138.644363</ele><time>2021-08-12T09:31:05Z</time><extensions><speed>1.468426</speed><course>75.803009</course><hAcc>0.883769</hAcc><vAcc>0.713957</vAcc></extensions></trkpt>
      <trkpt lon="-3.331688" lat="54.572038"><ele>138.683945</ele><time>2021-08-12T09:31:06Z</time><extensions><speed>1.467232</speed><course>76.191063</course><hAcc>0.883819</hAcc><vAcc>0.714113</vAcc></extensions></trkpt>
      <trkpt lon="-3.331693" lat="54.572025"><ele>138.722244</ele><time>2021-08-12T09:31:07Z</time><extensions><speed>1.464444</speed><course>76.349960</course><hAcc>0.883881</hAcc><vAcc>0.714296</vAcc></extensions></trkpt>
      <trkpt lon="-3.331698" lat="54.572012"><ele>138.759125</ele><time>2021-08-12T09:31:08Z</time><extensions><speed>1.460703</speed><course>78.477806</course><hAcc>0.883963</hAcc><vAcc>0.714520</vAcc></extensions></trkpt>
      <trkpt lon="-3.331703" lat="54.572000"><ele>138.795029</ele><time>2021-08-12T09:31:09Z</time><extensions><speed>1.456375</speed><course>75.070290</course><hAcc>0.884080</hAcc><vAcc>0.714797</vAcc></extensions></trkpt>
      <trkpt lon="-3.331708" lat="54.571987"><ele>138.830414</ele><time>2021-08-12T09:31:10Z</time><extensions><speed>1.451515</speed><course>69.086029</course><hAcc>0.884249</hAcc><vAcc>0.715147</vAcc></extensions></trkpt>
      <trkpt lon="-3.331713" lat="54.571974"><ele>138.865677</ele><time>2021-08-12T09:31:11Z</time><extensions><speed>1.446374</speed><course>68.949226</course><hAcc>0.884494</hAcc><vAcc>0.715595</vAcc></extensions></trkpt>
      <trkpt lon="-3.331718" lat="54.571962"><ele>138.901184</ele><time>2021-08-12T09:31:12Z</time><extensions><speed>1.440668</speed><course>71.686111</course><hAcc>0.884847</hAcc><vAcc>0.716172</vAcc></extensions></trkpt>
      <trkpt lon="-3.331723" lat="54.571949"><ele>138.937149</ele><time>2021-08-12T09:31:13Z</time><extensions><speed>1.433708</speed><course>76.597496</course><hAcc>0.885342</hAcc><vAcc>0.716917</vAcc></extensions></trkpt>
      <trkpt lon="-3.331727" lat="54.571936"><ele>138.973358</ele><time>2021-08-12T09:31:14Z</time><extensions><speed>1.424747</speed><course>90.005066</course><hAcc>0.886020</hAcc><vAcc>0.717859</vAcc></extensions></trkpt>
      <trkpt lon="-3.331732" lat="54.571924"><ele>139.009216</ele><time>2021-08-12T09:31:15Z</time><extensions><speed>1.413644</speed><course>83.948074</course><hAcc>0.886921</hAcc><vAcc>0.719016</vAcc></extensions></trkpt>
      <trkpt lon="-3.331736" lat="54.571912"><ele>139.043884</ele><time>2021-08-12T09:31:16Z</time><extensions><speed>1.400571</speed><course>76.996796</course><hAcc>0.888083</hAcc><vAcc>0.720395</vAcc></extensions></trkpt>
      <trkpt lon="-3.331739" lat="54.571899"><ele>139.076736</ele><time>2021-08-12T09:31:17Z</time><extensions><speed>1.385601</speed><course>79.507355</course><hAcc>0.889529</hAcc><vAcc>0.721981</vAcc></extensions></trkpt>
      <trkpt lon="-3.331742" lat="54.571887"><ele>139.107635</ele><time>2021-08-12T09:31:18Z</time><extensions><speed>1.368864</speed><course>72.096832</course><hAcc>0.891259</hAcc><vAcc>0.723736</vAcc></extensions></trkpt>
      <trkpt lon="-3.331745" lat="54.571875"><ele>139.136871</ele><time>2021-08-12T09:31:19Z</time><extensions><speed>1.350114</speed><course>80.368279</course><hAcc>0.893239</hAcc><vAcc>0.725586</vAcc></extensions></trkpt>
      <trkpt lon="-3.331747" lat="54.571863"><ele>139.164658</ele><time>2021-08-12T09:31:20Z</time><extensions><speed>1.328801</speed><course>78.982643</course><hAcc>0.895386</hAcc><vAcc>0.727410</vAcc></extensions></trkpt>
      <trkpt lon="-3.331750" lat="54.571851"><ele>139.191010</ele><time>2021-08-12T09:31:21Z</time><extensions><speed>1.304950</speed><course>81.075706</course><hAcc>0.897563</hAcc><vAcc>0.729047</vAcc></extensions></trkpt>
      <trkpt lon="-3.331751" lat="54.571840"><ele>139.215622</ele><time>2021-08-12T09:31:22Z</time><extensions><speed>1.278916</speed><course>81.007790</course><hAcc>0.899584</hAcc><vAcc>0.730312</vAcc></extensions></trkpt>
      <trkpt lon="-3.331752" lat="54.571828"><ele>139.238251</ele><time>2021-08-12T09:31:23Z</time><extensions><speed>1.250641</speed><course>78.272133</course><hAcc>0.901228</hAcc><vAcc>0.731035</vAcc></extensions></trkpt>
      <trkpt lon="-3.331753" lat="54.571817"><ele>139.258621</ele><time>2021-08-12T09:31:24Z</time><extensions><speed>1.219718</speed><course>73.069588</course><hAcc>0.902294</hAcc><vAcc>0.731120</vAcc></extensions></trkpt>
      <trkpt lon="-3.331754" lat="54.571806"><ele>139.276398</ele><time>2021-08-12T09:31:25Z</time><extensions><speed>1.185416</speed><course>77.189682</course><hAcc>0.902702</hAcc><vAcc>0.730634</vAcc></extensions></trkpt>
      <trkpt lon="-3.331754" lat="54.571796"><ele>139.291397</ele><time>2021-08-12T09:31:26Z</time><extensions><speed>1.147481</speed><course>75.197517</course><hAcc>0.902662</hAcc><vAcc>0.729944</vAcc></extensions></trkpt>
      <trkpt lon="-3.331753" lat="54.571786"><ele>139.303604</ele><time>2021-08-12T09:31:27Z</time><extensions><speed>1.107188</speed><course>67.733307</course><hAcc>0.902926</hAcc><vAcc>0.729913</vAcc></extensions></trkpt>
      <trkpt lon="-3.331752" lat="54.571776"><ele>139.313126</ele><time>2021-08-12T09:31:28Z</time><extensions><speed>1.066435</speed><course>69.123688</course><hAcc>0.905161</hAcc><vAcc>0.732156</vAcc></extensions></trkpt>
      <trkpt lon="-3.331751" lat="54.571767"><ele>139.320114</ele><time>2021-08-12T09:31:29Z</time><extensions><speed>1.026570</speed><course>71.299400</course><hAcc>0.912392</hAcc><vAcc>0.739316</vAcc></extensions></trkpt>
      <trkpt lon="-3.331749" lat="54.571758"><ele>139.324844</ele><time>2021-08-12T09:31:30Z</time><extensions><speed>0.988971</speed><course>77.479210</course><hAcc>0.929442</hAcc><vAcc>0.755251</vAcc></extensions></trkpt>
      <trkpt lon="-3.331747" lat="54.571749"><ele>139.327499</ele><time>2021-08-12T09:31:31Z</time><extensions><speed>0.954965</speed><course>68.623329</course><hAcc>0.963088</hAcc><vAcc>0.784958</vAcc></extensions></trkpt>
      <trkpt lon="-3.331741" lat="54.571748"><ele>139.247223</ele><time>2021-08-12T09:31:32Z</time><extensions><speed>0.316621</speed><course>74.967865</course><hAcc>0.928133</hAcc><vAcc>0.755836</vAcc></extensions></trkpt>
      <trkpt lon="-3.331737" lat="54.571747"><ele>139.216660</ele><time>2021-08-12T09:31:33Z</time><extensions><speed>0.287522</speed><course>75.133301</course><hAcc>0.909240</hAcc><vAcc>0.733865</vAcc></extensions></trkpt>
      <trkpt lon="-3.331734" lat="54.571745"><ele>139.176346</ele><time>2021-08-12T09:31:34Z</time><extensions><speed>0.256337</speed><course>66.099251</course><hAcc>0.901824</hAcc><vAcc>0.723186</vAcc></extensions></trkpt>
      <trkpt lon="-3.331731" lat="54.571743"><ele>139.126053</ele><time>2021-08-12T09:31:35Z</time><extensions><speed>0.225754</speed><course>81.237114</course><hAcc>0.900406</hAcc><vAcc>0.719488</vAcc></extensions></trkpt>
      <trkpt lon="-3.331729" lat="54.571742"><ele>139.066177</ele><time>2021-08-12T09:31:36Z</time><extensions><speed>0.197350</speed><course>80.566093</course><hAcc>0.901528</hAcc><vAcc>0.719643</vAcc></extensions></trkpt>
      <trkpt lon="-3.331727" lat="54.571741"><ele>138.997574</ele><time>2021-08-12T09:31:37Z</time><extensions><speed>0.172438</speed><course>80.566109</course><hAcc>0.903291</hAcc><vAcc>0.721605</vAcc></extensions></trkpt>
      <trkpt lon="-3.331725" lat="54.571740"><ele>138.921463</ele><time>2021-08-12T09:31:38Z</time><extensions><speed>0.153227</speed><course>80.566093</course><hAcc>0.904835</hAcc><vAcc>0.724154</vAcc></extensions></trkpt>
      <trkpt lon="-3.331724" lat="54.571739"><ele>138.839462</ele><time>2021-08-12T09:31:39Z</time><extensions><speed>0.144331</speed><course>80.566093</course><hAcc>0.905909</hAcc><vAcc>0.726636</vAcc></extensions></trkpt>
      <trkpt lon="-3.331723" lat="54.571738"><ele>138.753418</ele><time>2021-08-12T09:31:40Z</time><extensions><speed>0.152606</speed><course>80.566093</course><hAcc>0.906565</hAcc><vAcc>0.728751</vAcc></extensions></trkpt>
      <trkpt lon="-3.331723" lat="54.571736"><ele>138.665558</ele><time>2021-08-12T09:31:41Z</time><extensions><speed>0.182575</speed><course>77.344681</course><hAcc>0.906946</hAcc><vAcc>0.730397</vAcc></extensions></trkpt>
      <trkpt lon="-3.331724" lat="54.571734"><ele>138.578491</ele><time>2021-08-12T09:31:42Z</time><extensions><speed>0.233450</speed><course>77.923714</course><hAcc>0.907169</hAcc><vAcc>0.731553</vAcc></extensions></trkpt>
      <trkpt lon="-3.331725" lat="54.571732"><ele>138.495132</ele><time>2021-08-12T09:31:43Z</time><extensions><speed>0.302048</speed><course>87.073212</course><hAcc>0.907264</hAcc><vAcc>0.732227</vAcc></extensions></trkpt>
      <trkpt lon="-3.331727" lat="54.571729"><ele>138.418732</ele><time>2021-08-12T09:31:44Z</time><extensions><speed>0.385516</speed><course>79.233902</course><hAcc>0.907175</hAcc><vAcc>0.732445</vAcc></extensions></trkpt>
      <trkpt lon="-3.331730" lat="54.571726"><ele>138.353088</ele><time>2021-08-12T09:31:45Z</time><extensions><speed>0.481496</speed><course>96.572746</course><hAcc>0.906806</hAcc><vAcc>0.732280</vAcc></extensions></trkpt>
      <trkpt lon="-3.331734" lat="54.571721"><ele>138.302261</ele><time>2021-08-12T09:31:46Z</time><extensions><speed>0.588263</speed><course>86.920219</course><hAcc>0.906132</hAcc><vAcc>0.731932</vAcc></extensions></trkpt>
      <trkpt lon="-3.331739" lat="54.571716"><ele>138.269852</ele><time>2021-08-12T09:31:47Z</time><extensions><speed>0.704391</speed><course>76.786201</course><hAcc>0.905380</hAcc><vAcc>0.731855</vAcc></extensions></trkpt>
      <trkpt lon="-3.331744" lat="54.571710"><ele>138.258591</ele><time>2021-08-12T09:31:48Z</time><extensions><speed>0.827617</speed><course>77.162971</course><hAcc>0.905301</hAcc><vAcc>0.732968</vAcc></extensions></trkpt>
      <trkpt lon="-3.331751" lat="54.571703"><ele>138.270233</ele><time>2021-08-12T09:31:49Z</time><extensions><speed>0.954501</speed><course>69.604996</course><hAcc>0.907543</hAcc><vAcc>0.736917</vAcc></extensions></trkpt>
      <trkpt lon="-3.331759" lat="54.571695"><ele>138.305466</ele><time>2021-08-12T09:31:50Z</time><extensions><speed>1.080177</speed><course>76.115456</course><hAcc>0.915104</hAcc><vAcc>0.746330</vAcc></extensions></trkpt>
      <trkpt lon="-3.331768" lat="54.571686"><ele>138.363724</ele><time>2021-08-12T09:31:51Z</time><extensions><speed>1.198089</speed><course>83.646278</course><hAcc>0.932756</hAcc><vAcc>0.764989</vAcc></extensions></trkpt>
      <trkpt lon="-3.331777" lat="54.571677"><ele>138.442856</ele><time>2021-08-12T09:31:52Z</time><extensions><speed>1.299737</speed><course>76.408623</course><hAcc>0.967196</hAcc><vAcc>0.797718</vAcc></extensions></trkpt>
      <trkpt lon="-3.331790" lat="54.571663"><ele>138.478302</ele><time>2021-08-12T09:31:53Z</time><extensions><speed>1.931428</speed><course>74.967865</course><hAcc>0.929966</hAcc><vAcc>0.763341</vAcc></extensions></trkpt>
      <trkpt lon="-3.331803" lat="54.571648"><ele>138.622116</ele><time>2021-08-12T09:31:54Z</time><extensions><speed>1.900548</speed><course>75.133301</course><hAcc>0.910457</hAcc><vAcc>0.740343</vAcc></extensions></trkpt>
      <trkpt lon="-3.331815" lat="54.571632"><ele>138.760345</ele><time>2021-08-12T09:31:55Z</time><extensions><speed>1.859127</speed><course>66.099251</course><hAcc>0.902168</hAcc><vAcc>0.727914</vAcc></extensions></trkpt>
      <trkpt lon="-3.331827" lat="54.571617"><ele>138.892044</ele><time>2021-08-12T09:31:56Z</time><extensions><speed>1.812374</speed><course>81.237114</course><hAcc>0.899622</hAcc><vAcc>0.721831</vAcc></extensions></trkpt>
      <trkpt lon="-3.331838" lat="54.571603"><ele>139.016876</ele><time>2021-08-12T09:31:57Z</time><extensions><speed>1.763946</speed><course>80.566093</course><hAcc>0.899355</hAcc><vAcc>0.719082</vAcc></extensions></trkpt>
      <trkpt lon="-3.331849" lat="54.571588"><ele>139.135269</ele><time>2021-08-12T09:31:58Z</time><extensions><speed>1.716158</speed><course>80.566109</course><hAcc>0.899455</hAcc><vAcc>0.717753</vAcc></extensions></trkpt>
      <trkpt lon="-3.331859" lat="54.571575"><ele>139.248260</ele><time>2021-08-12T09:31:59Z</time><extensions><speed>1.669595</speed><course>80.566093</course><hAcc>0.899058</hAcc><vAcc>0.716781</vAcc></extensions></trkpt>
      <trkpt lon="-3.331869" lat="54.571561"><ele>139.356949</ele><time>2021-08-12T09:32:00Z</time><extensions><speed>1.624465</speed><course>80.566093</course><hAcc>0.897930</hAcc><vAcc>0.715685</vAcc></extensions></trkpt>
      <trkpt lon="-3.331879" lat="54.571548"><ele>139.462769</ele><time>2021-08-12T09:32:01Z</time><extensions><speed>1.581770</speed><course>80.566093</course><hAcc>0.896165</hAcc><vAcc>0.714330</vAcc></extensions></trkpt>
      <trkpt lon="-3.331888" lat="54.571535"><ele>139.567749</ele><time>2021-08-12T09:32:02Z</time><extensions><speed>1.543062</speed><course>77.344681</course><hAcc>0.893994</hAcc><vAcc>0.712755</vAcc></extensions></trkpt>
      <trkpt lon="-3.331897" lat="54.571522"><ele>139.674362</ele><time>2021-08-12T09:32:03Z</time><extensions><speed>1.509237</speed><course>77.923714</course><hAcc>0.891669</hAcc><vAcc>0.711070</vAcc></extensions></trkpt>
      <trkpt lon="-3.331906" lat="54.571510"><ele>139.785172</ele><time>2021-08-12T09:32:04Z</time><extensions><speed>1.480161</speed><course>87.073212</course><hAcc>0.889406</hAcc><vAcc>0.709404</vAcc></extensions></trkpt>
      <trkpt lon="-3.331914" lat="54.571497"><ele>139.902161</ele><time>2021-08-12T09:32:05Z</time><extensions><speed>1.455457</speed><course>79.233902</course><hAcc>0.887356</hAcc><vAcc>0.707874</vAcc></extensions></trkpt>
      <trkpt lon="-3.331922" lat="54.571485"><ele>140.026047</ele><time>2021-08-12T09:32:06Z</time><extensions><speed>1.434686</speed><course>96.572746</course><hAcc>0.885610</hAcc><vAcc>0.706564</vAcc></extensions></trkpt>
      <trkpt lon="-3.331930" lat="54.571473"><ele>140.155899</ele><time>2021-08-12T09:32:07Z</time><extensions><speed>1.417629</speed><course>86.920219</course><hAcc>0.884200</hAcc><vAcc>0.705516</vAcc></extensions></trkpt>
      <trkpt lon="-3.331938" lat="54.571461"><ele>140.289642</ele><time>2021-08-12T09:32:08Z</time><extensions><speed>1.404191</speed><course>76.786201</course><hAcc>0.883122</hAcc><vAcc>0.704743</vAcc></extensions></trkpt>
      <trkpt lon="-3.331945" lat="54.571450"><ele>140.424423</ele><time>2021-08-12T09:32:09Z</time><extensions><speed>1.394455</speed><course>77.162971</course><hAcc>0.882342</hAcc><vAcc>0.704235</vAcc></extensions></trkpt>
      <trkpt lon="-3.331953" lat="54.571438"><ele>140.556931</ele><time>2021-08-12T09:32:10Z</time><extensions><speed>1.388546</speed><course>69.604996</course><hAcc>0.881814</hAcc><vAcc>0.703972</vAcc></extensions></trkpt>
      <trkpt lon="-3.331960" lat="54.571426"><ele>140.683960</ele><time>2021-08-12T09:32:11Z</time><extensions><speed>1.386379</speed><course>76.115456</course><hAcc>0.881488</hAcc><vAcc>0.703925</vAcc></extensions></trkpt>
      <trkpt lon="-3.331966" lat="54.571414"><ele>140.803024</ele><time>2021-08-12T09:32:12Z</time><extensions><speed>1.388100</speed><course>83.646278</course><hAcc>0.881315</hAcc><vAcc>0.704056</vAcc></extensions></trkpt>
      <trkpt lon="-3.331973" lat="54.571402"><ele>140.912643</ele><time>2021-08-12T09:32:13Z</time><extensions><speed>1.393665</speed><course>76.408623</course><hAcc>0.881250</hAcc><vAcc>0.704320</vAcc></extensions></trkpt>
      <trkpt lon="-3.331979" lat="54.571390"><ele>141.012314</ele><time>2021-08-12T09:32:14Z</time><extensions><speed>1.402001</speed><course>79.439453</course><hAcc>0.881257</hAcc><vAcc>0.704665</vAcc></extensions></trkpt>
      <trkpt lon="-3.331985" lat="54.571378"><ele>141.102371</ele><time>2021-08-12T09:32:15Z</time><extensions><speed>1.411469</speed><course>75.300941</course><hAcc>0.881308</hAcc><vAcc>0.705047</vAcc></extensions></trkpt>
      <trkpt lon="-3.331991" lat="54.571366"><ele>141.184113</ele><time>2021-08-12T09:32:16Z</time><extensions><speed>1.420877</speed><course>76.126534</course><hAcc>0.881381</hAcc><vAcc>0.705424</vAcc></extensions></trkpt>
      <trkpt lon="-3.331996" lat="54.571353"><ele>141.259369</ele><time>2021-08-12T09:32:17Z</time><extensions><speed>1.429920</speed><course>75.233688</course><hAcc>0.881462</hAcc><vAcc>0.705760</vAcc></extensions></trkpt>
      <trkpt lon="-3.332001" lat="54.571341"><ele>141.329727</ele><time>2021-08-12T09:32:18Z</time><extensions><speed>1.438418</speed><course>81.891060</course><hAcc>0.881542</hAcc><vAcc>0.706032</vAcc></extensions></trkpt>
      <trkpt lon="-3.332006" lat="54.571328"><ele>141.396179</ele><time>2021-08-12T09:32:19Z</time><extensions><speed>1.445938</speed><course>78.263519</course><hAcc>0.881617</hAcc><vAcc>0.706237</vAcc></extensions></trkpt>
      <trkpt lon="-3.332010" lat="54.571315"><ele>141.459335</ele><time>2021-08-12T09:32:20Z</time><extensions><speed>1.452161</speed><course>74.907532</course><hAcc>0.881685</hAcc><vAcc>0.706393</vAcc></extensions></trkpt>
      <trkpt lon="-3.332013" lat="54.571302"><ele>141.519806</ele><time>2021-08-12T09:32:21Z</time><extensions><speed>1.456764</speed><course>84.941742</course><hAcc>0.881749</hAcc><vAcc>0.706530</vAcc></extensions></trkpt>
      <trkpt lon="-3.332016" lat="54.571289"><ele>141.578033</ele><time>2021-08-12T09:32:22Z</time><extensions><speed>1.459449</speed><course>73.584358</course><hAcc>0.881814</hAcc><vAcc>0.706684</vAcc></extensions></trkpt>
      <trkpt lon="-3.332018" lat="54.571276"><ele>141.634125</ele><time>2021-08-12T09:32:23Z</time><extensions><speed>1.460125</speed><course>96.346313</course><hAcc>0.881887</hAcc><vAcc>0.706885</vAcc></extensions></trkpt>
      <trkpt lon="-3.332019" lat="54.571263"><ele>141.688171</ele><time>2021-08-12T09:32:24Z</time><extensions><speed>1.458994</speed><course>87.208282</course><hAcc>0.881978</hAcc><vAcc>0.707152</vAcc></extensions></trkpt>
      <trkpt lon="-3.332020" lat="54.571250"><ele>141.740555</ele><time>2021-08-12T09:32:25Z</time><extensions><speed>1.456469</speed><course>71.034035</course><hAcc>0.882100</hAcc><vAcc>0.707496</vAcc></extensions></trkpt>
      <trkpt lon="-3.332020" lat="54.571237"><ele>141.791763</ele><time>2021-08-12T09:32:26Z</time><extensions><speed>1.452737</speed><course>74.315559</course><hAcc>0.882269</hAcc><vAcc>0.707922</vAcc></extensions></trkpt>
      <trkpt lon="-3.332020" lat="54.571224"><ele>141.842239</ele><time>2021-08-12T09:32:27Z</time><extensions><speed>1.448150</speed><course>82.074326</course><hAcc>0.882507</hAcc><vAcc>0.708440</vAcc></extensions></trkpt>
      <trkpt lon="-3.332019" lat="54.571211"><ele>141.892410</ele><time>2021-08-12T09:32:28Z</time><extensions><speed>1.443046</speed><course>78.798851</course><hAcc>0.882842</hAcc><vAcc>0.709059</vAcc></extensions></trkpt>
      <trkpt lon="-3.332017" lat="54.571198"><ele>141.942505</ele><time>2021-08-12T09:32:29Z</time><extensions><speed>1.437478</speed><course>71.049065</course><hAcc>0.883305</hAcc><vAcc>0.709785</vAcc></extensions></trkpt>
      <trkpt lon="-3.332015" lat="54.571185"><ele>141.992554</ele><time>2021-08-12T09:32:30Z</time><extensions><speed>1.431233</speed><course>66.417450</course><hAcc>0.883934</hAcc><vAcc>0.710630</vAcc></extensions></trkpt>
      <trkpt lon="-3.332012" lat="54.571173"><ele>142.042419</ele><time>2021-08-12T09:32:31Z</time><extensions><speed>1.423738</speed><course>67.881187</course><hAcc>0.884769</hAcc><vAcc>0.711601</vAcc></extensions></trkpt>
      <trkpt lon="-3.332009" lat="54.571160"><ele>142.092148</ele><time>2021-08-12T09:32:32Z</time><extensions><speed>1.414503</speed><course>73.946594</course><hAcc>0.885848</hAcc><vAcc>0.712704</vAcc></extensions></trkpt>
      <trkpt lon="-3.332005" lat="54.571148"><ele>142.141922</ele><time>2021-08-12T09:32:33Z</time><extensions><speed>1.403350</speed><course>66.868568</course><hAcc>0.887195</hAcc><vAcc>0.713927</vAcc></extensions></trkpt>
      <trkpt lon="-3.332001" lat="54.571135"><ele>142.191803</ele><time>2021-08-12T09:32:34Z</time><extensions><speed>1.390582</speed><course>57.370388</course><hAcc>0.888816</hAcc><vAcc>0.715241</vAcc></extensions></trkpt>
      <trkpt lon="-3.331997" lat="54.571123"><ele>142.241730</ele><time>2021-08-12T09:32:35Z</time><extensions><speed>1.376618</speed><course>72.859169</course><hAcc>0.890684</hAcc><vAcc>0.716590</vAcc></extensions></trkpt>
      <trkpt lon="-3.331993" lat="54.571111"><ele>142.292023</ele><time>2021-08-12T09:32:36Z</time><extensions><speed>1.361305</speed><course>73.476959</course><hAcc>0.892726</hAcc><vAcc>0.717893</vAcc></extensions></trkpt>
      <trkpt lon="-3.331989" lat="54.571099"><ele>142.343292</ele><time>2021-08-12T09:32:37Z</time><extensions><speed>1.343866</speed><course>70.985191</course><hAcc>0.894815</hAcc><vAcc>0.719038</vAcc></extensions></trkpt>
      <trkpt lon="-3.331985" lat="54.571087"><ele>142.396057</ele><time>2021-08-12T09:32:38Z</time><extensions><speed>1.323434</speed><course>67.094063</course><hAcc>0.896775</hAcc><vAcc>0.719893</vAcc></extensions></trkpt>
      <trkpt lon="-3.331981" lat="54.571076"><ele>142.450653</ele><time>2021-08-12T09:32:39Z</time><extensions><speed>1.299792</speed><course>63.802017</course><hAcc>0.898396</hAcc><vAcc>0.720339</vAcc></extensions></trkpt>
      <trkpt lon="-3.331977" lat="54.571064"><ele>142.507248</ele><time>2021-08-12T09:32:40Z</time><extensions><speed>1.273693</speed><course>59.738853</course><hAcc>0.899491</hAcc><vAcc>0.720319</vAcc></extensions></trkpt>
      <trkpt lon="-3.331974" lat="54.571053"><ele>142.565536</ele><time>2021-08-12T09:32:41Z</time><extensions><speed>1.246499</speed><course>64.752533</course><hAcc>0.899992</hAcc><vAcc>0.719945</vAcc></extensions></trkpt>
      <trkpt lon="-3.331972" lat="54.571042"><ele>142.624146</ele><time>2021-08-12T09:32:42Z</time><extensions><speed>1.219690</speed><course>62.678837</course><hAcc>0.900118</hAcc><vAcc>0.719649</vAcc></extensions></trkpt>
      <trkpt lon="-3.331970" lat="54.571031"><ele>142.680862</ele><time>2021-08-12T09:32:43Z</time><extensions><speed>1.194660</speed><course>67.622025</course><hAcc>0.900633</hAcc><vAcc>0.720374</vAcc></extensions></trkpt>
      <trkpt lon="-3.331970" lat="54.571021"><ele>142.733597</ele><time>2021-08-12T09:32:44Z</time><extensions><speed>1.172659</speed><course>76.998230</course><hAcc>0.903215</hAcc><vAcc>0.723818</vAcc></extensions></trkpt>
      <trkpt lon="-3.331970" lat="54.571010"><ele>142.780762</ele><time>2021-08-12T09:32:45Z</time><extensions><speed>1.154910</speed><course>71.279175</course><hAcc>0.910898</hAcc><vAcc>0.732680</vAcc></extensions></trkpt>
      <trkpt lon="-3.331971" lat="54.571000"><ele>142.821609</ele><time>2021-08-12T09:32:46Z</time><extensions><speed>1.141803</speed><course>66.215858</course><hAcc>0.928505</hAcc><vAcc>0.750815</vAcc></extensions></trkpt>
      <trkpt lon="-3.331972" lat="54.570990"><ele>142.856415</ele><time>2021-08-12T09:32:47Z</time><extensions><speed>1.132592</speed><course>65.869171</course><hAcc>0.962796</hAcc><vAcc>0.783116</vAcc></extensions></trkpt>
      <trkpt lon="-3.331981" lat="54.570983"><ele>143.087769</ele><time>2021-08-12T09:32:48Z</time><extensions><speed>1.027659</speed><course>74.967865</course><hAcc>0.925191</hAcc><vAcc>0.747930</vAcc></extensions></trkpt>
      <trkpt lon="-3.331993" lat="54.570977"><ele>143.160751</ele><time>2021-08-12T09:32:49Z</time><extensions><speed>1.042231</speed><course>75.133301</course><hAcc>0.906584</hAcc><vAcc>0.727731</vAcc></extensions></trkpt>
      <trkpt lon="-3.332006" lat="54.570971"><ele>143.239731</ele><time>2021-08-12T09:32:50Z</time><extensions><speed>1.059762</speed><course>66.099251</course><hAcc>0.899044</hAcc><vAcc>0.717621</vAcc></extensions></trkpt>
      <trkpt lon="-3.332019" lat="54.570966"><ele>143.325684</ele><time>2021-08-12T09:32:51Z</time><extensions><speed>1.079767</speed><course>81.237114</course><hAcc>0.897066</hAcc><vAcc>0.713314</vAcc></extensions></trkpt>
      <trkpt lon="-3.332034" lat="54.570960"><ele>143.418900</ele><time>2021-08-12T09:32:52Z</time><extensions><speed>1.101208</speed><course>80.566093</course><hAcc>0.897192</hAcc><vAcc>0.711813</vAcc></extensions></trkpt>
      <trkpt lon="-3.332049" lat="54.570956"><ele>143.518982</ele><time>2021-08-12T09:32:53Z</time><extensions><speed>1.122842</speed><course>80.566109</course><hAcc>0.897532</hAcc><vAcc>0.711264</vAcc></extensions></trkpt>
      <trkpt lon="-3.332065" lat="54.570951"><ele>143.625275</ele><time>2021-08-12T09:32:54Z</time><extensions><speed>1.144060</speed><course>80.566093</course><hAcc>0.897252</hAcc><vAcc>0.710667</vAcc></extensions></trkpt>
      <trkpt lon="-3.332081" lat="54.570947"><ele>143.736908</ele><time>2021-08-12T09:32:55Z</time><extensions><speed>1.164765</speed><course>80.566093</course><hAcc>0.896141</hAcc><vAcc>0.709600</vAcc></extensions></trkpt>
      <trkpt lon="-3.332098" lat="54.570944"><ele>143.852829</ele><time>2021-08-12T09:32:56Z</time><extensions><speed>1.185339</speed><course>80.566093</course><hAcc>0.894320</hAcc><vAcc>0.707993</vAcc></extensions></trkpt>
      <trkpt lon="-3.332116" lat="54.570941"><ele>143.971771</ele><time>2021-08-12T09:32:57Z</time><extensions><speed>1.206111</speed><course>77.344681</course><hAcc>0.892046</hAcc><vAcc>0.705960</vAcc></extensions></trkpt>
      <trkpt lon="-3.332134" lat="54.570938"><ele>144.092484</ele><time>2021-08-12T09:32:58Z</time><extensions><speed>1.227437</speed><course>77.923714</course><hAcc>0.889591</hAcc><vAcc>0.703701</vAcc></extensions></trkpt>
      <trkpt lon="-3.332152" lat="54.570935"><ele>144.213684</ele><time>2021-08-12T09:32:59Z</time><extensions><speed>1.249162</speed><course>87.073212</course><hAcc>0.887190</hAcc><vAcc>0.701428</vAcc></extensions></trkpt>
      <trkpt lon="-3.332171" lat="54.570933"><ele>144.333542</ele><time>2021-08-12T09:33:00Z</time><extensions><speed>1.270141</speed><course>79.233902</course><hAcc>0.885012</hAcc><vAcc>0.699327</vAcc></extensions></trkpt>
      <trkpt lon="-3.332191" lat="54.570930"><ele>144.449646</ele><time>2021-08-12T09:33:01Z</time><extensions><speed>1.289538</speed><course>96.572746</course><hAcc>0.883156</hAcc><vAcc>0.697537</vAcc></extensions></trkpt>
      <trkpt lon="-3.332211" lat="54.570928"><ele>144.559570</ele><time>2021-08-12T09:33:02Z</time><extensions><speed>1.307349</speed><course>86.920219</course><hAcc>0.881665</hAcc><vAcc>0.696145</vAcc></extensions></trkpt>
      <trkpt lon="-3.332231" lat="54.570927"><ele>144.661484</ele><time>2021-08-12T09:33:03Z</time><extensions><speed>1.324022</speed><course>76.786201</course><hAcc>0.880539</hAcc><vAcc>0.695187</vAcc></extensions></trkpt>
      <trkpt lon="-3.332251" lat="54.570925"><ele>144.754410</ele><time>2021-08-12T09:33:04Z</time><extensions><speed>1.339779</speed><course>77.162971</course><hAcc>0.879746</hAcc><vAcc>0.694655</vAcc></extensions></trkpt>
      <trkpt lon="-3.332272" lat="54.570923"><ele>144.838135</ele><time>2021-08-12T09:33:05Z</time><extensions><speed>1.353930</speed><course>69.604996</course><hAcc>0.879241</hAcc><vAcc>0.694514</vAcc></extensions></trkpt>
      <trkpt lon="-3.332293" lat="54.570922"><ele>144.913284</ele><time>2021-08-12T09:33:06Z</time><extensions><speed>1.365339</speed><course>76.115456</course><hAcc>0.878974</hAcc><vAcc>0.694707</vAcc></extensions></trkpt>
      <trkpt lon="-3.332314" lat="54.570921"><ele>144.981277</ele><time>2021-08-12T09:33:07Z</time><extensions><speed>1.373606</speed><course>83.646278</course><hAcc>0.878898</hAcc><vAcc>0.695171</vAcc></extensions></trkpt>
      <trkpt lon="-3.332335" lat="54.570920"><ele>145.044373</ele><time>2021-08-12T09:33:08Z</time><extensions><speed>1.379149</speed><course>76.408623</course><hAcc>0.878978</hAcc><vAcc>0.695849</vAcc></extensions></trkpt>
      <trkpt lon="-3.332356" lat="54.570918"><ele>145.105164</ele><time>2021-08-12T09:33:09Z</time><extensions><speed>1.382970</speed><course>79.439453</course><hAcc>0.879190</hAcc><vAcc>0.696692</vAcc></extensions></trkpt>
      <trkpt lon="-3.332378" lat="54.570917"><ele>145.165939</ele><time>2021-08-12T09:33:10Z</time><extensions><speed>1.386013</speed><course>75.300941</course><hAcc>0.879524</hAcc><vAcc>0.697663</vAcc></extensions></trkpt>
      <trkpt lon="-3.332399" lat="54.570916"><ele>145.228699</ele><time>2021-08-12T09:33:11Z</time><extensions><speed>1.388593</speed><course>76.126534</course><hAcc>0.879985</hAcc><vAcc>0.698747</vAcc></extensions></trkpt>
      <trkpt lon="-3.332420" lat="54.570915"><ele>145.295120</ele><time>2021-08-12T09:33:12Z</time><extensions><speed>1.390741</speed><course>75.233688</course><hAcc>0.880595</hAcc><vAcc>0.699950</vAcc></extensions></trkpt>
      <trkpt lon="-3.332442" lat="54.570914"><ele>145.366043</ele><time>2021-08-12T09:33:13Z</time><extensions><speed>1.391909</speed><course>81.891060</course><hAcc>0.881384</hAcc><vAcc>0.701295</vAcc></extensions></trkpt>
      <trkpt lon="-3.332463" lat="54.570912"><ele>145.441315</ele><time>2021-08-12T09:33:14Z</time><extensions><speed>1.391420</speed><course>78.263519</course><hAcc>0.882389</hAcc><vAcc>0.702813</vAcc></extensions></trkpt>
      <trkpt lon="-3.332484" lat="54.570911"><ele>145.520218</ele><time>2021-08-12T09:33:15Z</time><extensions><speed>1.389718</speed><course>74.907532</course><hAcc>0.883648</hAcc><vAcc>0.704527</vAcc></extensions></trkpt>
      <trkpt lon="-3.332506" lat="54.570909"><ele>145.602036</ele><time>2021-08-12T09:33:16Z</time><extensions><speed>1.387701</speed><course>84.941742</course><hAcc>0.885187</hAcc><vAcc>0.706444</vAcc></extensions></trkpt>
      <trkpt lon="-3.332527" lat="54.570908"><ele>145.686172</ele><time>2021-08-12T09:33:17Z</time><extensions><speed>1.385465</speed><course>73.584358</course><hAcc>0.887011</hAcc><vAcc>0.708537</vAcc></extensions></trkpt>
      <trkpt lon="-3.332548" lat="54.570906"><ele>145.772171</ele><time>2021-08-12T09:33:18Z</time><extensions><speed>1.382690</speed><course>96.346313</course><hAcc>0.889094</hAcc><vAcc>0.710739</vAcc></extensions></trkpt>
      <trkpt lon="-3.332569" lat="54.570904"><ele>145.859497</ele><time>2021-08-12T09:33:19Z</time><extensions><speed>1.378792</speed><course>87.208282</course><hAcc>0.891358</hAcc><vAcc>0.712943</vAcc></extensions></trkpt>
      <trkpt lon="-3.332590" lat="54.570902"><ele>145.947876</ele><time>2021-08-12T09:33:20Z</time><extensions><speed>1.373268</speed><course>71.034035</course><hAcc>0.893674</hAcc><vAcc>0.715005</vAcc></extensions></trkpt>
      <trkpt lon="-3.332611" lat="54.570900"><ele>146.037460</ele><time>2021-08-12T09:33:21Z</time><extensions><speed>1.366187</speed><course>74.315559</course><hAcc>0.895859</hAcc><vAcc>0.716765</vAcc></extensions></trkpt>
      <trkpt lon="-3.332632" lat="54.570897"><ele>146.128830</ele><time>2021-08-12T09:33:22Z</time><extensions><speed>1.357769</speed><course>82.074326</course><hAcc>0.897697</hAcc><vAcc>0.718071</vAcc></extensions></trkpt>
      <trkpt lon="-3.332652" lat="54.570895"><ele>146.222748</ele><time>2021-08-12T09:33:23Z</time><extensions><speed>1.348137</speed><course>78.798851</course><hAcc>0.898996</hAcc><vAcc>0.718848</vAcc></extensions></trkpt>
      <trkpt lon="-3.332672" lat="54.570892"><ele>146.319916</ele><time>2021-08-12T09:33:24Z</time><extensions><speed>1.336968</speed><course>71.049065</course><hAcc>0.899682</hAcc><vAcc>0.719188</vAcc></extensions></trkpt>
      <trkpt lon="-3.332692" lat="54.570888"><ele>146.420898</ele><time>2021-08-12T09:33:25Z</time><extensions><speed>1.323580</speed><course>66.417450</course><hAcc>0.899968</hAcc><vAcc>0.719500</vAcc></extensions></trkpt>
      <trkpt lon="-3.332711" lat="54.570885"><ele>146.525940</ele><time>2021-08-12T09:33:26Z</time><extensions><speed>1.307454</speed><course>67.881187</course><hAcc>0.900617</hAcc><vAcc>0.720707</vAcc></extensions></trkpt>
      <trkpt lon="-3.332730" lat="54.570881"><ele>146.635086</ele><time>2021-08-12T09:33:27Z</time><extensions><speed>1.288679</speed><course>73.946594</course><hAcc>0.903303</hAcc><vAcc>0.724489</vAcc></extensions></trkpt>
      <trkpt lon="-3.332749" lat="54.570877"><ele>146.748230</ele><time>2021-08-12T09:33:28Z</time><extensions><speed>1.268281</speed><course>66.868568</course><hAcc>0.911058</hAcc><vAcc>0.733536</vAcc></extensions></trkpt>
      <trkpt lon="-3.332767" lat="54.570872"><ele>146.865067</ele><time>2021-08-12T09:33:29Z</time><extensions><speed>1.248055</speed><course>57.370388</course><hAcc>0.928704</hAcc><vAcc>0.751705</vAcc></extensions></trkpt>
      <trkpt lon="-3.332784" lat="54.570868"><ele>146.985168</ele><time>2021-08-12T09:33:30Z</time><extensions><speed>1.229816</speed><course>72.859169</course><hAcc>0.963001</hAcc><vAcc>0.783908</vAcc></extensions></trkpt>
      <trkpt lon="-3.332796" lat="54.570859"><ele>147.036850</ele><time>2021-08-12T09:33:31Z</time><extensions><speed>1.216829</speed><course>74.967865</course><hAcc>0.926280</hAcc><vAcc>0.751104</vAcc></extensions></trkpt>
      <trkpt lon="-3.332805" lat="54.570850"><ele>147.123779</ele><time>2021-08-12T09:33:32Z</time><extensions><speed>1.218719</speed><course>75.133301</course><hAcc>0.907739</hAcc><vAcc>0.731122</vAcc></extensions></trkpt>
      <trkpt lon="-3.332813" lat="54.570840"><ele>147.212769</ele><time>2021-08-12T09:33:33Z</time><extensions><speed>1.224293</speed><course>66.099251</course><hAcc>0.900350</hAcc><vAcc>0.721589</vAcc></extensions></trkpt>
      <trkpt lon="-3.332820" lat="54.570830"><ele>147.304077</ele><time>2021-08-12T09:33:34Z</time><extensions><speed>1.233763</speed><course>81.237114</course><hAcc>0.898600</hAcc><vAcc>0.718189</vAcc></extensions></trkpt>
      <trkpt lon="-3.332827" lat="54.570819"><ele>147.397903</ele><time>2021-08-12T09:33:35Z</time><extensions><speed>1.247212</speed><course>80.566093</course><hAcc>0.899018</hAcc><vAcc>0.717871</vAcc></extensions></trkpt>
      <trkpt lon="-3.332832" lat="54.570808"><ele>147.494583</ele><time>2021-08-12T09:33:36Z</time><extensions><speed>1.264389</speed><course>80.566109</course><hAcc>0.899700</hAcc><vAcc>0.718699</vAcc></extensions></trkpt>
      <trkpt lon="-3.332837" lat="54.570797"><ele>147.594711</ele><time>2021-08-12T09:33:37Z</time><extensions><speed>1.285034</speed><course>80.566093</course><hAcc>0.899789</hAcc><vAcc>0.719588</vAcc></extensions></trkpt>
      <trkpt lon="-3.332841" lat="54.570786"><ele>147.698700</ele><time>2021-08-12T09:33:38Z</time><extensions><speed>1.308641</speed><course>80.566093</course><hAcc>0.899059</hAcc><vAcc>0.720033</vAcc></extensions></trkpt>
      <trkpt lon="-3.332845" lat="54.570774"><ele>147.806412</ele><time>2021-08-12T09:33:39Z</time><extensions><speed>1.333675</speed><course>80.566093</course><hAcc>0.897611</hAcc><vAcc>0.719886</vAcc></extensions></trkpt>
      <trkpt lon="-3.332848" lat="54.570762"><ele>147.917084</ele><time>2021-08-12T09:33:40Z</time><extensions><speed>1.357932</speed><course>77.344681</course><hAcc>0.895683</hAcc><vAcc>0.719198</vAcc></extensions></trkpt>
      <trkpt lon="-3.332850" lat="54.570750"><ele>148.029175</ele><time>2021-08-12T09:33:41Z</time><extensions><speed>1.379645</speed><course>77.923714</course><hAcc>0.893532</hAcc><vAcc>0.718114</vAcc></extensions></trkpt>
      <trkpt lon="-3.332852" lat="54.570738"><ele>148.140808</ele><time>2021-08-12T09:33:42Z</time><extensions><speed>1.397974</speed><course>87.073212</course><hAcc>0.891382</hAcc><vAcc>0.716801</vAcc></extensions></trkpt>
      <trkpt lon="-3.332854" lat="54.570725"><ele>148.250107</ele><time>2021-08-12T09:33:43Z</time><extensions><speed>1.412815</speed><course>79.233902</course><hAcc>0.889392</hAcc><vAcc>0.715417</vAcc></extensions></trkpt>
      <trkpt lon="-3.332856" lat="54.570712"><ele>148.355194</ele><time>2021-08-12T09:33:44Z</time><extensions><speed>1.424592</speed><course>96.572746</course><hAcc>0.887660</hAcc><vAcc>0.714088</vAcc></extensions></trkpt>
      <trkpt lon="-3.332857" lat="54.570699"><ele>148.454330</ele><time>2021-08-12T09:33:45Z</time><extensions><speed>1.434475</speed><course>86.920219</course><hAcc>0.886228</hAcc><vAcc>0.712900</vAcc></extensions></trkpt>
      <trkpt lon="-3.332858" lat="54.570687"><ele>148.546432</ele><time>2021-08-12T09:33:46Z</time><extensions><speed>1.443696</speed><course>76.786201</course><hAcc>0.885098</hAcc><vAcc>0.711903</vAcc></extensions></trkpt>
      <trkpt lon="-3.332858" lat="54.570674"><ele>148.631256</ele><time>2021-08-12T09:33:47Z</time><extensions><speed>1.452514</speed><course>77.162971</course><hAcc>0.884244</hAcc><vAcc>0.711121</vAcc></extensions></trkpt>
      <trkpt lon="-3.332859" lat="54.570660"><ele>148.709305</ele><time>2021-08-12T09:33:48Z</time><extensions><speed>1.460580</speed><course>69.604996</course><hAcc>0.883625</hAcc><vAcc>0.710555</vAcc></extensions></trkpt>
      <trkpt lon="-3.332859" lat="54.570647"><ele>148.781754</ele><time>2021-08-12T09:33:49Z</time><extensions><speed>1.467151</speed><course>76.115456</course><hAcc>0.883196</hAcc><vAcc>0.710180</vAcc></extensions></trkpt>
      <trkpt lon="-3.332859" lat="54.570634"><ele>148.850266</ele><time>2021-08-12T09:33:50Z</time><extensions><speed>1.471704</speed><course>83.646278</course><hAcc>0.882911</hAcc><vAcc>0.709946</vAcc></extensions></trkpt>
      <trkpt lon="-3.332858" lat="54.570621"><ele>148.916702</ele><time>2021-08-12T09:33:51Z</time><extensions><speed>1.474368</speed><course>76.408623</course><hAcc>0.882728</hAcc><vAcc>0.709796</vAcc></extensions></trkpt>
      <trkpt lon="-3.332858" lat="54.570608"><ele>148.982758</ele><time>2021-08-12T09:33:52Z</time><extensions><speed>1.475228</speed><course>79.439453</course><hAcc>0.882613</hAcc><vAcc>0.709682</vAcc></extensions></trkpt>
      <trkpt lon="-3.332857" lat="54.570594"><ele>149.049774</ele><time>2021-08-12T09:33:53Z</time><extensions><speed>1.473719</speed><course>75.300941</course><hAcc>0.882538</hAcc><vAcc>0.709573</vAcc></extensions></trkpt>
      <trkpt lon="-3.332857" lat="54.570581"><ele>149.118774</ele><time>2021-08-12T09:33:54Z</time><extensions><speed>1.469196</speed><course>76.126534</course><hAcc>0.882480</hAcc><vAcc>0.709448</vAcc></extensions></trkpt>
      <trkpt lon="-3.332856" lat="54.570568"><ele>149.190674</ele><time>2021-08-12T09:33:55Z</time><extensions><speed>1.461313</speed><course>75.233688</course><hAcc>0.882423</hAcc><vAcc>0.709291</vAcc></extensions></trkpt>
      <trkpt lon="-3.332856" lat="54.570555"><ele>149.266327</ele><time>2021-08-12T09:33:56Z</time><extensions><speed>1.449822</speed><course>81.891060</course><hAcc>0.882357</hAcc><vAcc>0.709085</vAcc></extensions></trkpt>
      <trkpt lon="-3.332855" lat="54.570542"><ele>149.346268</ele><time>2021-08-12T09:33:57Z</time><extensions><speed>1.434985</speed><course>78.263519</course><hAcc>0.882275</hAcc><vAcc>0.708809</vAcc></extensions></trkpt>
      <trkpt lon="-3.332856" lat="54.570529"><ele>149.430405</ele><time>2021-08-12T09:33:58Z</time><extensions><speed>1.417490</speed><course>74.907532</course><hAcc>0.882173</hAcc><vAcc>0.708449</vAcc></extensions></trkpt>
      <trkpt lon="-3.332857" lat="54.570517"><ele>149.518219</ele><time>2021-08-12T09:33:59Z</time><extensions><speed>1.398062</speed><course>84.941742</course><hAcc>0.882050</hAcc><vAcc>0.708002</vAcc></extensions></trkpt>
      <trkpt lon="-3.332859" lat="54.570504"><ele>149.609192</ele><time>2021-08-12T09:34:00Z</time><extensions><speed>1.377202</speed><course>73.584358</course><hAcc>0.881907</hAcc><vAcc>0.707471</vAcc></extensions></trkpt>
      <trkpt lon="-3.332861" lat="54.570492"><ele>149.702866</ele><time>2021-08-12T09:34:01Z</time><extensions><speed>1.355466</speed><course>96.346313</course><hAcc>0.881744</hAcc><vAcc>0.706863</vAcc></extensions></trkpt>
      <trkpt lon="-3.332864" lat="54.570480"><ele>149.798874</ele><time>2021-08-12T09:34:02Z</time><extensions><speed>1.333607</speed><course>87.208282</course><hAcc>0.881565</hAcc><vAcc>0.706189</vAcc></extensions></trkpt>
      <trkpt lon="-3.332868" lat="54.570468"><ele>149.896774</ele><time>2021-08-12T09:34:03Z</time><extensions><speed>1.312598</speed><course>71.034035</course><hAcc>0.881372</hAcc><vAcc>0.705458</vAcc></extensions></trkpt>
      <trkpt lon="-3.332873" lat="54.570457"><ele>149.996262</ele><time>2021-08-12T09:34:04Z</time><extensions><speed>1.293400</speed><course>74.315559</course><hAcc>0.881171</hAcc><vAcc>0.704683</vAcc></extensions></trkpt>
      <trkpt lon="-3.332878" lat="54.570446"><ele>150.097260</ele><time>2021-08-12T09:34:05Z</time><extensions><speed>1.276824</speed><course>82.074326</course><hAcc>0.880963</hAcc><vAcc>0.703882</vAcc></extensions></trkpt>
      <trkpt lon="-3.332884" lat="54.570435"><ele>150.199951</ele><time>2021-08-12T09:34:06Z</time><extensions><speed>1.263214</speed><course>78.798851</course><hAcc>0.880754</hAcc><vAcc>0.703075</vAcc></extensions></trkpt>
      <trkpt lon="-3.332891" lat="54.570424"><ele>150.304825</ele><time>2021-08-12T09:34:07Z</time><extensions><speed>1.252405</speed><course>71.049065</course><hAcc>0.880546</hAcc><vAcc>0.702284</vAcc></extensions></trkpt>
      <trkpt lon="-3.332899" lat="54.570414"><ele>150.412643</ele><time>2021-08-12T09:34:08Z</time><extensions><speed>1.244302</speed><course>66.417450</course><hAcc>0.880341</hAcc><vAcc>0.701524</vAcc></extensions></trkpt>
      <trkpt lon="-3.332907" lat="54.570404"><ele>150.524231</ele><time>2021-08-12T09:34:09Z</time><extensions><speed>1.238553</speed><course>67.881187</course><hAcc>0.880141</hAcc><vAcc>0.700804</vAcc></extensions></trkpt>
      <trkpt lon="-3.332915" lat="54.570394"><ele>150.640533</ele><time>2021-08-12T09:34:10Z</time><extensions><speed>1.234637</speed><course>73.946594</course><hAcc>0.879946</hAcc><vAcc>0.700120</vAcc></extensions></trkpt>
      <trkpt lon="-3.332924" lat="54.570384"><ele>150.762283</ele><time>2021-08-12T09:34:11Z</time><extensions><speed>1.232121</speed><course>66.868568</course><hAcc>0.879755</hAcc><vAcc>0.699466</vAcc></extensions></trkpt>
      <trkpt lon="-3.332933" lat="54.570375"><ele>150.889511</ele><time>2021-08-12T09:34:12Z</time><extensions><speed>1.230435</speed><course>57.370388</course><hAcc>0.879566</hAcc><vAcc>0.698827</vAcc></extensions></trkpt>
      <trkpt lon="-3.332943" lat="54.570365"><ele>151.020996</ele><time>2021-08-12T09:34:13Z</time><extensions><speed>1.229269</speed><course>72.859169</course><hAcc>0.879378</hAcc><vAcc>0.698186</vAcc></extensions></trkpt>
      <trkpt lon="-3.332953" lat="54.570356"><ele>151.154373</ele><time>2021-08-12T09:34:14Z</time><extensions><speed>1.228749</speed><course>73.476959</course><hAcc>0.879187</hAcc><vAcc>0.697530</vAcc></extensions></trkpt>
      <trkpt lon="-3.332963" lat="54.570346"><ele>151.286880</ele><time>2021-08-12T09:34:15Z</time><extensions><speed>1.229018</speed><course>70.985191</course><hAcc>0.878993</hAcc><vAcc>0.696851</vAcc></extensions></trkpt>
      <trkpt lon="-3.332974" lat="54.570337"><ele>151.416138</ele><time>2021-08-12T09:34:16Z</time><extensions><speed>1.230462</speed><course>67.094063</course><hAcc>0.878794</hAcc><vAcc>0.696145</vAcc></extensions></trkpt>
      <trkpt lon="-3.332984" lat="54.570328"><ele>151.540771</ele><time>2021-08-12T09:34:17Z</time><extensions><speed>1.233442</speed><course>63.802017</course><hAcc>0.878589</hAcc><vAcc>0.695407</vAcc></extensions></trkpt>
      <trkpt lon="-3.332995" lat="54.570319"><ele>151.660324</ele><time>2021-08-12T09:34:18Z</time><extensions><speed>1.237737</speed><course>59.738853</course><hAcc>0.878377</hAcc><vAcc>0.694635</vAcc></extensions></trkpt>
      <trkpt lon="-3.333005" lat="54.570309"><ele>151.774521</ele><time>2021-08-12T09:34:19Z</time><extensions><speed>1.242963</speed><course>64.752533</course><hAcc>0.878160</hAcc><vAcc>0.693832</vAcc></extensions></trkpt>
      <trkpt lon="-3.333016" lat="54.570300"><ele>151.883057</ele><time>2021-08-12T09:34:20Z</time><extensions><speed>1.248921</speed><course>62.678837</course><hAcc>0.877938</hAcc><vAcc>0.693008</vAcc></extensions></trkpt>
      <trkpt lon="-3.333026" lat="54.570291"><ele>151.985779</ele><time>2021-08-12T09:34:21Z</time><extensions><speed>1.255357</speed><course>67.622025</course><hAcc>0.877714</hAcc><vAcc>0.692174</vAcc></extensions></trkpt>
      <trkpt lon="-3.333037" lat="54.570281"><ele>152.082565</ele><time>2021-08-12T09:34:22Z</time><extensions><speed>1.261891</speed><course>76.998230</course><hAcc>0.877491</hAcc><vAcc>0.691341</vAcc></extensions></trkpt>
      <trkpt lon="-3.333047" lat="54.570271"><ele>152.173401</ele><time>2021-08-12T09:34:23Z</time><extensions><speed>1.268303</speed><course>71.279175</course><hAcc>0.877271</hAcc><vAcc>0.690519</vAcc></extensions></trkpt>
      <trkpt lon="-3.333057" lat="54.570261"><ele>152.258484</ele><time>2021-08-12T09:34:24Z</time><extensions><speed>1.274646</speed><course>66.215858</course><hAcc>0.877058</hAcc><vAcc>0.689722</vAcc></extensions></trkpt>
      <trkpt lon="-3.333066" lat="54.570251"><ele>152.338654</ele><time>2021-08-12T09:34:25Z</time><extensions><speed>1.281033</speed><course>65.869171</course><hAcc>0.876856</hAcc><vAcc>0.688961</vAcc></extensions></trkpt>
      <trkpt lon="-3.333075" lat="54.570241"><ele>152.415466</ele><time>2021-08-12T09:34:26Z</time><extensions><speed>1.287813</speed><course>67.480362</course><hAcc>0.876668</hAcc><vAcc>0.688254</vAcc></extensions></trkpt>
      <trkpt lon="-3.333084" lat="54.570231"><ele>152.490768</ele><time>2021-08-12T09:34:27Z</time><extensions><speed>1.295282</speed><course>62.467888</course><hAcc>0.876498</hAcc><vAcc>0.687615</vAcc></extensions></trkpt>
      <trkpt lon="-3.333093" lat="54.570220"><ele>152.565994</ele><time>2021-08-12T09:34:28Z</time><extensions><speed>1.303073</speed><course>57.403885</course><hAcc>0.876349</hAcc><vAcc>0.687056</vAcc></extensions></trkpt>
      <trkpt lon="-3.333100" lat="54.570209"><ele>152.642334</ele><time>2021-08-12T09:34:29Z</time><extensions><speed>1.310810</speed><course>56.104736</course><hAcc>0.876224</hAcc><vAcc>0.686586</vAcc></extensions></trkpt>
      <trkpt lon="-3.333108" lat="54.570198"><ele>152.720856</ele><time>2021-08-12T09:34:30Z</time><extensions><speed>1.318547</speed><course>57.135769</course><hAcc>0.876125</hAcc><vAcc>0.686215</vAcc></extensions></trkpt>
      <trkpt lon="-3.333115" lat="54.570187"><ele>152.802567</ele><time>2021-08-12T09:34:31Z</time><extensions><speed>1.326251</speed><course>59.466648</course><hAcc>0.876054</hAcc><vAcc>0.685946</vAcc></extensions></trkpt>
      <trkpt lon="-3.333121" lat="54.570176"><ele>152.888626</ele><time>2021-08-12T09:34:32Z</time><extensions><speed>1.333782</speed><course>56.466339</course><hAcc>0.876011</hAcc><vAcc>0.685787</vAcc></extensions></trkpt>
      <trkpt lon="-3.333127" lat="54.570164"><ele>152.980026</ele><time>2021-08-12T09:34:33Z</time><extensions><speed>1.341557</speed><course>61.082169</course><hAcc>0.875998</hAcc><vAcc>0.685743</vAcc></extensions></trkpt>
      <trkpt lon="-3.333132" lat="54.570152"><ele>153.077454</ele><time>2021-08-12T09:34:34Z</time><extensions><speed>1.350435</speed><course>63.000797</course><hAcc>0.876013</hAcc><vAcc>0.685815</vAcc></extensions></trkpt>
      <trkpt lon="-3.333137" lat="54.570141"><ele>153.181442</ele><time>2021-08-12T09:34:35Z</time><extensions><speed>1.361125</speed><course>58.373146</course><hAcc>0.876056</hAcc><vAcc>0.686000</vAcc></extensions></trkpt>
      <trkpt lon="-3.333141" lat="54.570129"><ele>153.292374</ele><time>2021-08-12T09:34:36Z</time><extensions><speed>1.373544</speed><course>59.591164</course><hAcc>0.876124</hAcc><vAcc>0.686280</vAcc></extensions></trkpt>
      <trkpt lon="-3.333144" lat="54.570116"><ele>153.410217</ele><time>2021-08-12T09:34:37Z</time><extensions><speed>1.386809</speed><course>56.078835</course><hAcc>0.876213</hAcc><vAcc>0.686635</vAcc></extensions></trkpt>
      <trkpt lon="-3.333147" lat="54.570104"><ele>153.534637</ele><time>2021-08-12T09:34:38Z</time><extensions><speed>1.400313</speed><course>61.452141</course><hAcc>0.876319</hAcc><vAcc>0.687047</vAcc></extensions></trkpt>
      <trkpt lon="-3.333150" lat="54.570091"><ele>153.665283</ele><time>2021-08-12T09:34:39Z</time><extensions><speed>1.413689</speed><course>62.349373</course><hAcc>0.876440</hAcc><vAcc>0.687501</vAcc></extensions></trkpt>
      <trkpt lon="-3.333153" lat="54.570079"><ele>153.801743</ele><time>2021-08-12T09:34:40Z</time><extensions><speed>1.426295</speed><course>67.502327</course><hAcc>0.876573</hAcc><vAcc>0.687991</vAcc></extensions></trkpt>
      <trkpt lon="-3.333155" lat="54.570066"><ele>153.943329</ele><time>2021-08-12T09:34:41Z</time><extensions><speed>1.437564</speed><course>65.148994</course><hAcc>0.876716</hAcc><vAcc>0.688512</vAcc></extensions></trkpt>
      <trkpt lon="-3.333157" lat="54.570053"><ele>154.089447</ele><time>2021-08-12T09:34:42Z</time><extensions><speed>1.446519</speed><course>61.604351</course><hAcc>0.876867</hAcc><vAcc>0.689060</vAcc></extensions></trkpt>
      <trkpt lon="-3.333159" lat="54.570040"><ele>154.239746</ele><time>2021-08-12T09:34:43Z</time><extensions><speed>1.452162</speed><course>67.356651</course><hAcc>0.877024</hAcc><vAcc>0.689632</vAcc></extensions></trkpt>
      <trkpt lon="-3.333161" lat="54.570027"><ele>154.394135</ele><time>2021-08-12T09:34:44Z</time><extensions><speed>1.453770</speed><course>56.187717</course><hAcc>0.877186</hAcc><vAcc>0.690224</vAcc></extensions></trkpt>
      <trkpt lon="-3.333162" lat="54.570014"><ele>154.552551</ele><time>2021-08-12T09:34:45Z</time><extensions><speed>1.450493</speed><course>56.273357</course><hAcc>0.877351</hAcc><vAcc>0.690833</vAcc></extensions></trkpt>
      <trkpt lon="-3.333164" lat="54.570001"><ele>154.714951</ele><time>2021-08-12T09:34:46Z</time><extensions><speed>1.442035</speed><course>59.042984</course><hAcc>0.877517</hAcc><vAcc>0.691453</vAcc></extensions></trkpt>
      <trkpt lon="-3.333166" lat="54.569988"><ele>154.881088</ele><time>2021-08-12T09:34:47Z</time><extensions><speed>1.428690</speed><course>46.754299</course><hAcc>0.877682</hAcc><vAcc>0.692069</vAcc></extensions></trkpt>
      <trkpt lon="-3.333169" lat="54.569976"><ele>155.050629</ele><time>2021-08-12T09:34:48Z</time><extensions><speed>1.411056</speed><course>46.754295</course><hAcc>0.877841</hAcc><vAcc>0.692667</vAcc></extensions></trkpt>
      <trkpt lon="-3.333171" lat="54.569963"><ele>155.223297</ele><time>2021-08-12T09:34:49Z</time><extensions><speed>1.389552</speed><course>46.754295</course><hAcc>0.877992</hAcc><vAcc>0.693235</vAcc></extensions></trkpt>
      <trkpt lon="-3.333174" lat="54.569951"><ele>155.398758</ele><time>2021-08-12T09:34:50Z</time><extensions><speed>1.364490</speed><course>46.754295</course><hAcc>0.878132</hAcc><vAcc>0.693764</vAcc></extensions></trkpt>
      <trkpt lon="-3.333176" lat="54.569939"><ele>155.576431</ele><time>2021-08-12T09:34:51Z</time><extensions><speed>1.336335</speed><course>46.754295</course><hAcc>0.878254</hAcc><vAcc>0.694241</vAcc></extensions></trkpt>
      <trkpt lon="-3.333179" lat="54.569927"><ele>155.755569</ele><time>2021-08-12T09:34:52Z</time><extensions><speed>1.305648</speed><course>46.754295</course><hAcc>0.878356</hAcc><vAcc>0.694650</vAcc></extensions></trkpt>
      <trkpt lon="-3.333182" lat="54.569915"><ele>155.935104</ele><time>2021-08-12T09:34:53Z</time><extensions><speed>1.273197</speed><course>46.754295</course><hAcc>0.878430</hAcc><vAcc>0.694972</vAcc></extensions></trkpt>
      <trkpt lon="-3.333184" lat="54.569904"><ele>156.113846</ele><time>2021-08-12T09:34:54Z</time><extensions><speed>1.239606</speed><course>46.754292</course><hAcc>0.878473</hAcc><vAcc>0.695189</vAcc></extensions></trkpt>
      <trkpt lon="-3.333187" lat="54.569893"><ele>156.290680</ele><time>2021-08-12T09:34:55Z</time><extensions><speed>1.205197</speed><course>46.754295</course><hAcc>0.878479</hAcc><vAcc>0.695279</vAcc></extensions></trkpt>
      <trkpt lon="-3.333190" lat="54.569883"><ele>156.464691</ele><time>2021-08-12T09:34:56Z</time><extensions><speed>1.170221</speed><course>86.257805</course><hAcc>0.878443</hAcc><vAcc>0.695217</vAcc></extensions></trkpt>
      <trkpt lon="-3.333192" lat="54.569873"><ele>156.635330</ele><time>2021-08-12T09:34:57Z</time><extensions><speed>1.134797</speed><course>92.864906</course><hAcc>0.878360</hAcc><vAcc>0.694978</vAcc></extensions></trkpt>
      <trkpt lon="-3.333195" lat="54.569863"><ele>156.802490</ele><time>2021-08-12T09:34:58Z</time><extensions><speed>1.099138</speed><course>94.458534</course><hAcc>0.878229</hAcc><vAcc>0.694540</vAcc></extensions></trkpt>
      <trkpt lon="-3.333197" lat="54.569853"><ele>156.966461</ele><time>2021-08-12T09:34:59Z</time><extensions><speed>1.063596</speed><course>89.165138</course><hAcc>0.878048</hAcc><vAcc>0.693896</vAcc></extensions></trkpt>
      <trkpt lon="-3.333199" lat="54.569844"><ele>157.127747</ele><time>2021-08-12T09:35:00Z</time><extensions><speed>1.028584</speed><course>98.187202</course><hAcc>0.877820</hAcc><vAcc>0.693050</vAcc></extensions></trkpt>
      <trkpt lon="-3.333201" lat="54.569835"><ele>157.286743</ele><time>2021-08-12T09:35:01Z</time><extensions><speed>0.994307</speed><course>262.094696</course><hAcc>0.877548</hAcc><vAcc>0.692019</vAcc></extensions></trkpt>
      <trkpt lon="-3.333202" lat="54.569826"><ele>157.443481</ele><time>2021-08-12T09:35:02Z</time><extensions><speed>0.960645</speed><course>273.339569</course><hAcc>0.877239</hAcc><vAcc>0.690828</vAcc></extensions></trkpt>
      <trkpt lon="-3.333203" lat="54.569818"><ele>157.597687</ele><time>2021-08-12T09:35:03Z</time><extensions><speed>0.927439</speed><course>270.133057</course><hAcc>0.876902</hAcc><vAcc>0.689515</vAcc></extensions></trkpt>
      <trkpt lon="-3.333204" lat="54.569809"><ele>157.749039</ele><time>2021-08-12T09:35:04Z</time><extensions><speed>0.894756</speed><course>264.401459</course><hAcc>0.876547</hAcc><vAcc>0.688125</vAcc></extensions></trkpt>
      <trkpt lon="-3.333205" lat="54.569801"><ele>157.897125</ele><time>2021-08-12T09:35:05Z</time><extensions><speed>0.862953</speed><course>271.206299</course><hAcc>0.876187</hAcc><vAcc>0.686711</vAcc></extensions></trkpt>
      <trkpt lon="-3.333205" lat="54.569794"><ele>158.041489</ele><time>2021-08-12T09:35:06Z</time><extensions><speed>0.832537</speed><course>270.479279</course><hAcc>0.875835</hAcc><vAcc>0.685329</vAcc></extensions></trkpt>
      <trkpt lon="-3.333204" lat="54.569787"><ele>158.181992</ele><time>2021-08-12T09:35:07Z</time><extensions><speed>0.803698</speed><course>270.479279</course><hAcc>0.875503</hAcc><vAcc>0.684035</vAcc></extensions></trkpt>
      <trkpt lon="-3.333204" lat="54.569779"><ele>158.319061</ele><time>2021-08-12T09:35:08Z</time><extensions><speed>0.776142</speed><course>270.479279</course><hAcc>0.875202</hAcc><vAcc>0.682874</vAcc></extensions></trkpt>
      <trkpt lon="-3.333203" lat="54.569773"><ele>158.453339</ele><time>2021-08-12T09:35:09Z</time><extensions><speed>0.750131</speed><course>92.836548</course><hAcc>0.874940</hAcc><vAcc>0.681877</vAcc></extensions></trkpt>
      <trkpt lon="-3.333201" lat="54.569766"><ele>158.585419</ele><time>2021-08-12T09:35:10Z</time><extensions><speed>0.726306</speed><course>91.847809</course><hAcc>0.874726</hAcc><vAcc>0.681067</vAcc></extensions></trkpt>
      <trkpt lon="-3.333200" lat="54.569760"><ele>158.716049</ele><time>2021-08-12T09:35:11Z</time><extensions><speed>0.705656</speed><course>96.972961</course><hAcc>0.874562</hAcc><vAcc>0.680459</vAcc></extensions></trkpt>
      <trkpt lon="-3.333198" lat="54.569753"><ele>158.846069</ele><time>2021-08-12T09:35:12Z</time><extensions><speed>0.689223</speed><course>101.432434</course><hAcc>0.874453</hAcc><vAcc>0.680063</vAcc></extensions></trkpt>
      <trkpt lon="-3.333196" lat="54.569747"><ele>158.976501</ele><time>2021-08-12T09:35:13Z</time><extensions><speed>0.678035</speed><course>89.921867</course><hAcc>0.874399</hAcc><vAcc>0.679881</vAcc></extensions></trkpt>
      <trkpt lon="-3.333194" lat="54.569741"><ele>159.108551</ele><time>2021-08-12T09:35:14Z</time><extensions><speed>0.673277</speed><course>79.468422</course><hAcc>0.874399</hAcc><vAcc>0.679913</vAcc></extensions></trkpt>
      <trkpt lon="-3.333192" lat="54.569736"><ele>159.243378</ele><time>2021-08-12T09:35:15Z</time><extensions><speed>0.675602</speed><course>79.668663</course><hAcc>0.874448</hAcc><vAcc>0.680140</vAcc></extensions></trkpt>
      <trkpt lon="-3.333190" lat="54.569730"><ele>159.382172</ele><time>2021-08-12T09:35:16Z</time><extensions><speed>0.685550</speed><course>70.198914</course><hAcc>0.874540</hAcc><vAcc>0.680532</vAcc></extensions></trkpt>
      <trkpt lon="-3.333188" lat="54.569723"><ele>159.526428</ele><time>2021-08-12T09:35:17Z</time><extensions><speed>0.703433</speed><course>85.811096</course><hAcc>0.874665</hAcc><vAcc>0.681059</vAcc></extensions></trkpt>
      <trkpt lon="-3.333186" lat="54.569717"><ele>159.677979</ele><time>2021-08-12T09:35:18Z</time><extensions><speed>0.728833</speed><course>87.515213</course><hAcc>0.874816</hAcc><vAcc>0.681687</vAcc></extensions></trkpt>
      <trkpt lon="-3.333184" lat="54.569710"><ele>159.839203</ele><time>2021-08-12T09:35:19Z</time><extensions><speed>0.760713</speed><course>86.802406</course><hAcc>0.874981</hAcc><vAcc>0.682375</vAcc></extensions></trkpt>
      <trkpt lon="-3.333183" lat="54.569704"><ele>160.013000</ele><time>2021-08-12T09:35:20Z</time><extensions><speed>0.797706</speed><course>85.424927</course><hAcc>0.875149</hAcc><vAcc>0.683075</vAcc></extensions></trkpt>
      <trkpt lon="-3.333181" lat="54.569696"><ele>160.202774</ele><time>2021-08-12T09:35:21Z</time><extensions><speed>0.838376</speed><course>88.911957</course><hAcc>0.875310</hAcc><vAcc>0.683731</vAcc></extensions></trkpt>
      <trkpt lon="-3.333179" lat="54.569689"><ele>160.412094</ele><time>2021-08-12T09:35:22Z</time><extensions><speed>0.881262</speed><course>93.027184</course><hAcc>0.875453</hAcc><vAcc>0.684295</vAcc></extensions></trkpt>
      <trkpt lon="-3.333178" lat="54.569680"><ele>160.644257</ele><time>2021-08-12T09:35:23Z</time><extensions><speed>0.924288</speed><course>90.763535</course><hAcc>0.875569</hAcc><vAcc>0.684734</vAcc></extensions></trkpt>
      <trkpt lon="-3.333176" lat="54.569672"><ele>160.901794</ele><time>2021-08-12T09:35:24Z</time><extensions><speed>0.965100</speed><course>83.392509</course><hAcc>0.875653</hAcc><vAcc>0.685042</vAcc></extensions></trkpt>
      <trkpt lon="-3.333175" lat="54.569663"><ele>161.186264</ele><time>2021-08-12T09:35:25Z</time><extensions><speed>1.001737</speed><course>57.334152</course><hAcc>0.875701</hAcc><vAcc>0.685221</vAcc></extensions></trkpt>
      <trkpt lon="-3.333174" lat="54.569654"><ele>161.498001</ele><time>2021-08-12T09:35:26Z</time><extensions><speed>1.032359</speed><course>29.254333</course><hAcc>0.875712</hAcc><vAcc>0.685272</vAcc></extensions></trkpt>
      <trkpt lon="-3.333173" lat="54.569645"><ele>161.836060</ele><time>2021-08-12T09:35:27Z</time><extensions><speed>1.055602</speed><course>29.254333</course><hAcc>0.875683</hAcc><vAcc>0.685189</vAcc></extensions></trkpt>
      <trkpt lon="-3.333172" lat="54.569635"><ele>162.198318</ele><time>2021-08-12T09:35:28Z</time><extensions><speed>1.070877</speed><course>29.254333</course><hAcc>0.875611</hAcc><vAcc>0.684955</vAcc></extensions></trkpt>
      <trkpt lon="-3.333172" lat="54.569626"><ele>162.581589</ele><time>2021-08-12T09:35:29Z</time><extensions><speed>1.078930</speed><course>29.254332</course><hAcc>0.875498</hAcc><vAcc>0.684557</vAcc></extensions></trkpt>
      <trkpt lon="-3.333172" lat="54.569616"><ele>162.981964</ele><time>2021-08-12T09:35:30Z</time><extensions><speed>1.081580</speed><course>29.254333</course><hAcc>0.875344</hAcc><vAcc>0.683988</vAcc></extensions></trkpt>
      <trkpt lon="-3.333173" lat="54.569606"><ele>163.395187</ele><time>2021-08-12T09:35:31Z</time><extensions><speed>1.081338</speed><course>29.254332</course><hAcc>0.875153</hAcc><vAcc>0.683259</vAcc></extensions></trkpt>
      <trkpt lon="-3.333175" lat="54.569597"><ele>163.817078</ele><time>2021-08-12T09:35:32Z</time><extensions><speed>1.081461</speed><course>29.254332</course><hAcc>0.874931</hAcc><vAcc>0.682393</vAcc></extensions></trkpt>
      <trkpt lon="-3.333178" lat="54.569587"><ele>164.243698</ele><time>2021-08-12T09:35:33Z</time><extensions><speed>1.084788</speed><course>29.254333</course><hAcc>0.874684</hAcc><vAcc>0.681427</vAcc></extensions></trkpt>
      <trkpt lon="-3.333181" lat="54.569577"><ele>164.671326</ele><time>2021-08-12T09:35:34Z</time><extensions><speed>1.093008</speed><course>29.254333</course><hAcc>0.874422</hAcc><vAcc>0.680403</vAcc></extensions></trkpt>
      <trkpt lon="-3.333186" lat="54.569568"><ele>165.096603</ele><time>2021-08-12T09:35:35Z</time><extensions><speed>1.106397</speed><course>29.254332</course><hAcc>0.874152</hAcc><vAcc>0.679363</vAcc></extensions></trkpt>
      <trkpt lon="-3.333193" lat="54.569559"><ele>165.516815</ele><time>2021-08-12T09:35:36Z</time><extensions><speed>1.123692</speed><course>29.254333</course><hAcc>0.873880</hAcc><vAcc>0.678339</vAcc></extensions></trkpt>
      <trkpt lon="-3.333200" lat="54.569549"><ele>165.929764</ele><time>2021-08-12T09:35:37Z</time><extensions><speed>1.142807</speed><course>29.254337</course><hAcc>0.873609</hAcc><vAcc>0.677349</vAcc></extensions></trkpt>
      <trkpt lon="-3.333208" lat="54.569540"><ele>166.333847</ele><time>2021-08-12T09:35:38Z</time><extensions><speed>1.161622</speed><course>29.254337</course><hAcc>0.873342</hAcc><vAcc>0.676399</vAcc></extensions></trkpt>
      <trkpt lon="-3.333217" lat="54.569531"><ele>166.728058</ele><time>2021-08-12T09:35:39Z</time><extensions><speed>1.177765</speed><course>29.254339</course><hAcc>0.873074</hAcc><vAcc>0.675480</vAcc></extensions></trkpt>
      <trkpt lon="-3.333228" lat="54.569522"><ele>167.111511</ele><time>2021-08-12T09:35:40Z</time><extensions><speed>1.189070</speed><course>29.254337</course><hAcc>0.872804</hAcc><vAcc>0.674569</vAcc></extensions></trkpt>
      <trkpt lon="-3.333239" lat="54.569514"><ele>167.483185</ele><time>2021-08-12T09:35:41Z</time><extensions><speed>1.194367</speed><course>29.254339</course><hAcc>0.872524</hAcc><vAcc>0.673633</vAcc></extensions></trkpt>
      <trkpt lon="-3.333250" lat="54.569505"><ele>167.841904</ele><time>2021-08-12T09:35:42Z</time><extensions><speed>1.193299</speed><course>353.139893</course><hAcc>0.872228</hAcc><vAcc>0.672639</vAcc></extensions></trkpt>
      <trkpt lon="-3.333262" lat="54.569497"><ele>168.186264</ele><time>2021-08-12T09:35:43Z</time><extensions><speed>1.186675</speed><course>-1.000000</course><hAcc>0.871911</hAcc><vAcc>0.671557</vAcc></extensions></trkpt>
      <trkpt lon="-3.333275" lat="54.569490"><ele>168.514526</ele><time>2021-08-12T09:35:44Z</time><extensions><speed>1.176020</speed><course>-1.000000</course><hAcc>0.871569</hAcc><vAcc>0.670366</vAcc></extensions></trkpt>
      <trkpt lon="-3.333287" lat="54.569482"><ele>168.824631</ele><time>2021-08-12T09:35:45Z</time><extensions><speed>1.163066</speed><course>-1.000000</course><hAcc>0.871201</hAcc><vAcc>0.669054</vAcc></extensions></trkpt>
      <trkpt lon="-3.333300" lat="54.569475"><ele>169.114319</ele><time>2021-08-12T09:35:46Z</time><extensions><speed>1.149799</speed><course>-1.000000</course><hAcc>0.870808</hAcc><vAcc>0.667626</vAcc></extensions></trkpt>
      <trkpt lon="-3.333313" lat="54.569468"><ele>169.381882</ele><time>2021-08-12T09:35:47Z</time><extensions><speed>1.137758</speed><course>-1.000000</course><hAcc>0.870397</hAcc><vAcc>0.666104</vAcc></extensions></trkpt>
      <trkpt lon="-3.333326" lat="54.569461"><ele>169.626190</ele><time>2021-08-12T09:35:48Z</time><extensions><speed>1.127621</speed><course>-1.000000</course><hAcc>0.869978</hAcc><vAcc>0.664531</vAcc></extensions></trkpt>
      <trkpt lon="-3.333340" lat="54.569455"><ele>169.846588</ele><time>2021-08-12T09:35:49Z</time><extensions><speed>1.119655</speed><course>-1.000000</course><hAcc>0.869563</hAcc><vAcc>0.662965</vAcc></extensions></trkpt>
      <trkpt lon="-3.333353" lat="54.569449"><ele>170.042664</ele><time>2021-08-12T09:35:50Z</time><extensions><speed>1.114431</speed><course>-1.000000</course><hAcc>0.869167</hAcc><vAcc>0.661470</vAcc></extensions></trkpt>
      <trkpt lon="-3.333367" lat="54.569442"><ele>170.213943</ele><time>2021-08-12T09:35:51Z</time><extensions><speed>1.112069</speed><course>-1.000000</course><hAcc>0.868801</hAcc><vAcc>0.660094</vAcc></extensions></trkpt>
      <trkpt lon="-3.333380" lat="54.569436"><ele>170.359558</ele><time>2021-08-12T09:35:52Z</time><extensions><speed>1.111705</speed><course>-1.000000</course><hAcc>0.868474</hAcc><vAcc>0.658875</vAcc></extensions></trkpt>
      <trkpt lon="-3.333394" lat="54.569430"><ele>170.478210</ele><time>2021-08-12T09:35:53Z</time><extensions><speed>1.112006</speed><course>-1.000000</course><hAcc>0.868193</hAcc><vAcc>0.657835</vAcc></extensions></trkpt>
      <trkpt lon="-3.333408" lat="54.569424"><ele>170.568665</ele><time>2021-08-12T09:35:54Z</time><extensions><speed>1.112183</speed><course>74.830536</course><hAcc>0.867964</hAcc><vAcc>0.656989</vAcc></extensions></trkpt>
      <trkpt lon="-3.333421" lat="54.569418"><ele>170.630478</ele><time>2021-08-12T09:35:55Z</time><extensions><speed>1.112738</speed><course>62.161198</course><hAcc>0.867790</hAcc><vAcc>0.656348</vAcc></extensions></trkpt>
      <trkpt lon="-3.333435" lat="54.569412"><ele>170.664444</ele><time>2021-08-12T09:35:56Z</time><extensions><speed>1.115057</speed><course>66.043793</course><hAcc>0.867673</hAcc><vAcc>0.655922</vAcc></extensions></trkpt>
      <trkpt lon="-3.333449" lat="54.569406"><ele>170.672867</ele><time>2021-08-12T09:35:57Z</time><extensions><speed>1.120338</speed><course>75.803009</course><hAcc>0.867618</hAcc><vAcc>0.655721</vAcc></extensions></trkpt>
      <trkpt lon="-3.333462" lat="54.569399"><ele>170.659286</ele><time>2021-08-12T09:35:58Z</time><extensions><speed>1.128790</speed><course>76.191063</course><hAcc>0.867624</hAcc><vAcc>0.655752</vAcc></extensions></trkpt>
      <trkpt lon="-3.333476" lat="54.569393"><ele>170.628006</ele><time>2021-08-12T09:35:59Z</time><extensions><speed>1.139417</speed><course>76.349960</course><hAcc>0.867692</hAcc><vAcc>0.656015</vAcc></extensions></trkpt>
      <trkpt lon="-3.333489" lat="54.569386"><ele>170.583679</ele><time>2021-08-12T09:36:00Z</time><extensions><speed>1.150846</speed><course>78.477806</course><hAcc>0.867818</hAcc><vAcc>0.656502</vAcc></extensions></trkpt>
      <trkpt lon="-3.333503" lat="54.569379"><ele>170.531174</ele><time>2021-08-12T09:36:01Z</time><extensions><speed>1.161919</speed><course>75.070290</course><hAcc>0.867998</hAcc><vAcc>0.657187</vAcc></extensions></trkpt>
      <trkpt lon="-3.333516" lat="54.569372"><ele>170.475708</ele><time>2021-08-12T09:36:02Z</time><extensions><speed>1.171655</speed><course>69.086029</course><hAcc>0.868220</hAcc><vAcc>0.658025</vAcc></extensions></trkpt>
      <trkpt lon="-3.333529" lat="54.569365"><ele>170.422440</ele><time>2021-08-12T09:36:03Z</time><extensions><speed>1.179450</speed><course>68.949226</course><hAcc>0.868475</hAcc><vAcc>0.658974</vAcc></extensions></trkpt>
      <trkpt lon="-3.333543" lat="54.569358"><ele>170.375595</ele><time>2021-08-12T09:36:04Z</time><extensions><speed>1.184910</speed><course>71.686111</course><hAcc>0.868753</hAcc><vAcc>0.659998</vAcc></extensions></trkpt>
      <trkpt lon="-3.333556" lat="54.569351"><ele>170.338074</ele><time>2021-08-12T09:36:05Z</time><extensions><speed>1.187233</speed><course>76.597496</course><hAcc>0.869050</hAcc><vAcc>0.661074</vAcc></extensions></trkpt>
      <trkpt lon="-3.333569" lat="54.569343"><ele>170.311584</ele><time>2021-08-12T09:36:06Z</time><extensions><speed>1.185717</speed><course>90.005066</course><hAcc>0.869359</hAcc><vAcc>0.662189</vAcc></extensions></trkpt>
      <trkpt lon="-3.333583" lat="54.569336"><ele>170.296860</ele><time>2021-08-12T09:36:07Z</time><extensions><speed>1.180393</speed><course>83.948074</course><hAcc>0.869679</hAcc><vAcc>0.663338</vAcc></extensions></trkpt>
      <trkpt lon="-3.333596" lat="54.569329"><ele>170.293884</ele><time>2021-08-12T09:36:08Z</time><extensions><speed>1.171383</speed><course>76.996796</course><hAcc>0.870008</hAcc><vAcc>0.664517</vAcc></extensions></trkpt>
      <trkpt lon="-3.333609" lat="54.569322"><ele>170.302246</ele><time>2021-08-12T09:36:09Z</time><extensions><speed>1.158983</speed><course>79.507355</course><hAcc>0.870343</hAcc><vAcc>0.665724</vAcc></extensions></trkpt>
      <trkpt lon="-3.333622" lat="54.569314"><ele>170.321350</ele><time>2021-08-12T09:36:10Z</time><extensions><speed>1.143565</speed><course>72.096832</course><hAcc>0.870682</hAcc><vAcc>0.666948</vAcc></extensions></trkpt>
      <trkpt lon="-3.333634" lat="54.569307"><ele>170.350372</ele><time>2021-08-12T09:36:11Z</time><extensions><speed>1.125512</speed><course>80.368279</course><hAcc>0.871022</hAcc><vAcc>0.668178</vAcc></extensions></trkpt>
      <trkpt lon="-3.333647" lat="54.569300"><ele>170.388092</ele><time>2021-08-12T09:36:12Z</time><extensions><speed>1.105433</speed><course>78.982643</course><hAcc>0.871360</hAcc><vAcc>0.669401</vAcc></extensions></trkpt>
      <trkpt lon="-3.333659" lat="54.569293"><ele>170.432983</ele><time>2021-08-12T09:36:13Z</time><extensions><speed>1.084004</speed><course>81.075706</course><hAcc>0.871694</hAcc><vAcc>0.670610</vAcc></extensions></trkpt>
      <trkpt lon="-3.333671" lat="54.569287"><ele>170.483276</ele><time>2021-08-12T09:36:14Z</time><extensions><speed>1.062157</speed><course>81.007790</course><hAcc>0.872021</hAcc><vAcc>0.671799</vAcc></extensions></trkpt>
      <trkpt lon="-3.333682" lat="54.569280"><ele>170.537064</ele><time>2021-08-12T09:36:15Z</time><extensions><speed>1.040501</speed><course>78.272133</course><hAcc>0.872339</hAcc><vAcc>0.672962</vAcc></extensions></trkpt>
      <trkpt lon="-3.333694" lat="54.569274"><ele>170.592346</ele><time>2021-08-12T09:36:16Z</time><extensions><speed>1.018925</speed><course>73.069588</course><hAcc>0.872644</hAcc><vAcc>0.674086</vAcc></extensions></trkpt>
      <trkpt lon="-3.333705" lat="54.569267"><ele>170.647186</ele><time>2021-08-12T09:36:17Z</time><extensions><speed>0.997351</speed><course>77.189682</course><hAcc>0.872934</hAcc><vAcc>0.675156</vAcc></extensions></trkpt>
      <trkpt lon="-3.333716" lat="54.569261"><ele>170.700455</ele><time>2021-08-12T09:36:18Z</time><extensions><speed>0.975796</speed><course>75.197517</course><hAcc>0.873205</hAcc><vAcc>0.676151</vAcc></extensions></trkpt>
      <trkpt lon="-3.333727" lat="54.569255"><ele>170.751633</ele><time>2021-08-12T09:36:19Z</time><extensions><speed>0.954399</speed><course>67.733307</course><hAcc>0.873453</hAcc><vAcc>0.677054</vAcc></extensions></trkpt>
      <trkpt lon="-3.333737" lat="54.569249"><ele>170.800354</ele><time>2021-08-12T09:36:20Z</time><extensions><speed>0.933822</speed><course>69.123688</course><hAcc>0.873677</hAcc><vAcc>0.677854</vAcc></extensions></trkpt>
      <trkpt lon="-3.333747" lat="54.569244"><ele>170.846283</ele><time>2021-08-12T09:36:21Z</time><extensions><speed>0.914888</speed><course>71.299400</course><hAcc>0.873876</hAcc><vAcc>0.678550</vAcc></extensions></trkpt>
      <trkpt lon="-3.333758" lat="54.569238"><ele>170.889084</ele><time>2021-08-12T09:36:22Z</time><extensions><speed>0.898057</speed><course>77.479210</course><hAcc>0.874051</hAcc><vAcc>0.679146</vAcc></extensions></trkpt>
      <trkpt lon="-3.333768" lat="54.569232"><ele>170.928513</ele><time>2021-08-12T09:36:23Z</time><extensions><speed>0.883751</speed><course>68.623329</course><hAcc>0.874205</hAcc><vAcc>0.679657</vAcc></extensions></trkpt>
      <trkpt lon="-3.333777" lat="54.569227"><ele>170.964432</ele><time>2021-08-12T09:36:24Z</time><extensions><speed>0.872356</speed><course>63.866425</course><hAcc>0.874341</hAcc><vAcc>0.680108</vAcc></extensions></trkpt>
      <trkpt lon="-3.333787" lat="54.569222"><ele>170.997116</ele><time>2021-08-12T09:36:25Z</time><extensions><speed>0.864038</speed><course>76.291603</course><hAcc>0.874463</hAcc><vAcc>0.680524</vAcc></extensions></trkpt>
      <trkpt lon="-3.333797" lat="54.569216"><ele>171.027145</ele><time>2021-08-12T09:36:26Z</time><extensions><speed>0.859301</speed><course>71.777351</course><hAcc>0.874573</hAcc><vAcc>0.680918</vAcc></extensions></trkpt>
      <trkpt lon="-3.333807" lat="54.569211"><ele>171.055450</ele><time>2021-08-12T09:36:27Z</time><extensions><speed>0.858699</speed><course>76.476341</course><hAcc>0.874672</hAcc><vAcc>0.681284</vAcc></extensions></trkpt>
      <trkpt lon="-3.333816" lat="54.569206"><ele>171.082932</ele><time>2021-08-12T09:36:28Z</time><extensions><speed>0.862422</speed><course>63.346680</course><hAcc>0.874758</hAcc><vAcc>0.681611</vAcc></extensions></trkpt>
      <trkpt lon="-3.333826" lat="54.569200"><ele>171.110138</ele><time>2021-08-12T09:36:29Z</time><extensions><speed>0.870464</speed><course>60.883244</course><hAcc>0.874832</hAcc><vAcc>0.681886</vAcc></extensions></trkpt>
      <trkpt lon="-3.333836" lat="54.569195"><ele>171.137634</ele><time>2021-08-12T09:36:30Z</time><extensions><speed>0.882630</speed><course>66.100471</course><hAcc>0.874892</hAcc><vAcc>0.682101</vAcc></extensions></trkpt>
      <trkpt lon="-3.333846" lat="54.569189"><ele>171.166458</ele><time>2021-08-12T09:36:31Z</time><extensions><speed>0.898294</speed><course>66.284729</course><hAcc>0.874940</hAcc><vAcc>0.682259</vAcc></extensions></trkpt>
      <trkpt lon="-3.333856" lat="54.569184"><ele>171.198013</ele><time>2021-08-12T09:36:32Z</time><extensions><speed>0.916069</speed><course>70.183884</course><hAcc>0.874977</hAcc><vAcc>0.682371</vAcc></extensions></trkpt>
      <trkpt lon="-3.333866" lat="54.569178"><ele>171.233658</ele><time>2021-08-12T09:36:33Z</time><extensions><speed>0.934132</speed><course>69.091454</course><hAcc>0.875005</hAcc><vAcc>0.682448</vAcc></extensions></trkpt>
      <trkpt lon="-3.333876" lat="54.569172"><ele>171.274307</ele><time>2021-08-12T09:36:34Z</time><extensions><speed>0.951082</speed><course>67.595528</course><hAcc>0.875026</hAcc><vAcc>0.682505</vAcc></extensions></trkpt>
      <trkpt lon="-3.333886" lat="54.569165"><ele>171.320465</ele><time>2021-08-12T09:36:35Z</time><extensions><speed>0.966287</speed><course>69.079941</course><hAcc>0.875043</hAcc><vAcc>0.682550</vAcc></extensions></trkpt>
      <trkpt lon="-3.333896" lat="54.569159"><ele>171.372269</ele><time>2021-08-12T09:36:36Z</time><extensions><speed>0.979669</speed><course>67.638985</course><hAcc>0.875058</hAcc><vAcc>0.682592</vAcc></extensions></trkpt>
      <trkpt lon="-3.333907" lat="54.569153"><ele>171.429535</ele><time>2021-08-12T09:36:37Z</time><extensions><speed>0.991249</speed><course>67.902077</course><hAcc>0.875074</hAcc><vAcc>0.682636</vAcc></extensions></trkpt>
      <trkpt lon="-3.333917" lat="54.569146"><ele>171.492111</ele><time>2021-08-12T09:36:38Z</time><extensions><speed>1.001377</speed><course>68.213737</course><hAcc>0.875093</hAcc><vAcc>0.682687</vAcc></extensions></trkpt>
      <trkpt lon="-3.333927" lat="54.569139"><ele>171.559845</ele><time>2021-08-12T09:36:39Z</time><extensions><speed>1.010810</speed><course>58.646133</course><hAcc>0.875117</hAcc><vAcc>0.682751</vAcc></extensions></trkpt>
      <trkpt lon="-3.333938" lat="54.569132"><ele>171.632614</ele><time>2021-08-12T09:36:40Z</time><extensions><speed>1.019924</speed><course>60.787758</course><hAcc>0.875150</hAcc><vAcc>0.682836</vAcc></extensions></trkpt>
      <trkpt lon="-3.333948" lat="54.569125"><ele>171.710480</ele><time>2021-08-12T09:36:41Z</time><extensions><speed>1.028354</speed><course>59.107254</course><hAcc>0.875196</hAcc><vAcc>0.682961</vAcc></extensions></trkpt>
      <trkpt lon="-3.333958" lat="54.569118"><ele>171.793640</ele><time>2021-08-12T09:36:42Z</time><extensions><speed>1.035892</speed><course>59.308796</course><hAcc>0.875258</hAcc><vAcc>0.683149</vAcc></extensions></trkpt>
      <trkpt lon="-3.333968" lat="54.569111"><ele>171.882248</ele><time>2021-08-12T09:36:43Z</time><extensions><speed>1.042905</speed><course>63.536522</course><hAcc>0.875341</hAcc><vAcc>0.683423</vAcc></extensions></trkpt>
      <trkpt lon="-3.333978" lat="54.569103"><ele>171.976608</ele><time>2021-08-12T09:36:44Z</time><extensions><speed>1.049962</speed><course>64.110619</course><hAcc>0.875446</hAcc><vAcc>0.683800</vAcc></extensions></trkpt>
      <trkpt lon="-3.333987" lat="54.569096"><ele>172.077286</ele><time>2021-08-12T09:36:45Z</time><extensions><speed>1.057587</speed><course>57.783936</course><hAcc>0.875575</hAcc><vAcc>0.684284</vAcc></extensions></trkpt>
      <trkpt lon="-3.333997" lat="54.569088"><ele>172.184967</ele><time>2021-08-12T09:36:46Z</time><extensions><speed>1.065659</speed><course>62.673740</course><hAcc>0.875727</hAcc><vAcc>0.684867</vAcc></extensions></trkpt>
      <trkpt lon="-3.334006" lat="54.569080"><ele>172.300110</ele><time>2021-08-12T09:36:47Z</time><extensions><speed>1.073569</speed><course>68.268181</course><hAcc>0.875898</hAcc><vAcc>0.685529</vAcc></extensions></trkpt>
      <trkpt lon="-3.334016" lat="54.569072"><ele>172.423004</ele><time>2021-08-12T09:36:48Z</time><extensions><speed>1.080763</speed><course>59.735432</course><hAcc>0.876085</hAcc><vAcc>0.686244</vAcc></extensions></trkpt>
      <trkpt lon="-3.334025" lat="54.569064"><ele>172.553940</ele><time>2021-08-12T09:36:49Z</time><extensions><speed>1.086812</speed><course>59.192490</course><hAcc>0.876284</hAcc><vAcc>0.686988</vAcc></extensions></trkpt>
      <trkpt lon="-3.334034" lat="54.569056"><ele>172.693298</ele><time>2021-08-12T09:36:50Z</time><extensions><speed>1.091756</speed><course>60.825825</course><hAcc>0.876491</hAcc><vAcc>0.687744</vAcc></extensions></trkpt>
      <trkpt lon="-3.334044" lat="54.569048"><ele>172.841354</ele><time>2021-08-12T09:36:51Z</time><extensions><speed>1.095802</speed><course>62.921200</course><hAcc>0.876703</hAcc><vAcc>0.688505</vAcc></extensions></trkpt>
      <trkpt lon="-3.334053" lat="54.569039"><ele>172.998230</ele><time>2021-08-12T09:36:52Z</time><extensions><speed>1.098873</speed><course>59.145714</course><hAcc>0.876918</hAcc><vAcc>0.689274</vAcc></extensions></trkpt>
      <trkpt lon="-3.334062" lat="54.569031"><ele>173.163910</ele><time>2021-08-12T09:36:53Z</time><extensions><speed>1.100396</speed><course>54.852036</course><hAcc>0.877133</hAcc><vAcc>0.690055</vAcc></extensions></trkpt>
      <trkpt lon="-3.334070" lat="54.569022"><ele>173.337936</ele><time>2021-08-12T09:36:54Z</time><extensions><speed>1.099296</speed><course>52.958679</course><hAcc>0.877346</hAcc><vAcc>0.690850</vAcc></extensions></trkpt>
      <trkpt lon="-3.334079" lat="54.569014"><ele>173.519318</ele><time>2021-08-12T09:36:55Z</time><extensions><speed>1.094576</speed><course>51.642593</course><hAcc>0.877554</hAcc><vAcc>0.691648</vAcc></extensions></trkpt>
      <trkpt lon="-3.334087" lat="54.569005"><ele>173.706482</ele><time>2021-08-12T09:36:56Z</time><extensions><speed>1.086318</speed><course>50.915668</course><hAcc>0.877752</hAcc><vAcc>0.692426</vAcc></extensions></trkpt>
      <trkpt lon="-3.334095" lat="54.568997"><ele>173.897156</ele><time>2021-08-12T09:36:57Z</time><extensions><speed>1.075597</speed><course>43.517220</course><hAcc>0.877935</hAcc><vAcc>0.693153</vAcc></extensions></trkpt>
      <trkpt lon="-3.334103" lat="54.568988"><ele>174.088669</ele><time>2021-08-12T09:36:58Z</time><extensions><speed>1.063497</speed><course>53.213661</course><hAcc>0.878099</hAcc><vAcc>0.693799</vAcc></extensions></trkpt>
      <trkpt lon="-3.334110" lat="54.568980"><ele>174.277908</ele><time>2021-08-12T09:36:59Z</time><extensions><speed>1.051048</speed><course>42.672325</course><hAcc>0.878241</hAcc><vAcc>0.694337</vAcc></extensions></trkpt>
      <trkpt lon="-3.334117" lat="54.568971"><ele>174.461914</ele><time>2021-08-12T09:37:00Z</time><extensions><speed>1.039133</speed><course>57.842590</course><hAcc>0.878358</hAcc><vAcc>0.694758</vAcc></extensions></trkpt>
      <trkpt lon="-3.334123" lat="54.568963"><ele>174.638626</ele><time>2021-08-12T09:37:01Z</time><extensions><speed>1.028522</speed><course>54.432369</course><hAcc>0.878449</hAcc><vAcc>0.695062</vAcc></extensions></trkpt>
      <trkpt lon="-3.334130" lat="54.568954"><ele>174.807083</ele><time>2021-08-12T09:37:02Z</time><extensions><speed>1.020009</speed><course>53.099045</course><hAcc>0.878515</hAcc><vAcc>0.695259</vAcc></extensions></trkpt>
      <trkpt lon="-3.334136" lat="54.568946"><ele>174.967194</ele><time>2021-08-12T09:37:03Z</time><extensions><speed>1.014299</speed><course>52.709480</course><hAcc>0.878559</hAcc><vAcc>0.695366</vAcc></extensions></trkpt>
      <trkpt lon="-3.334142" lat="54.568938"><ele>175.119171</ele><time>2021-08-12T09:37:04Z</time><extensions><speed>1.011755</speed><course>55.566643</course><hAcc>0.878582</hAcc><vAcc>0.695399</vAcc></extensions></trkpt>
      <trkpt lon="-3.334148" lat="54.568929"><ele>175.263428</ele><time>2021-08-12T09:37:05Z</time><extensions><speed>1.012270</speed><course>50.999676</course><hAcc>0.878589</hAcc><vAcc>0.695378</vAcc></extensions></trkpt>
      <trkpt lon="-3.334154" lat="54.568921"><ele>175.400574</ele><time>2021-08-12T09:37:06Z</time><extensions><speed>1.015976</speed><course>49.932701</course><hAcc>0.878583</hAcc><vAcc>0.695317</vAcc></extensions></trkpt>
      <trkpt lon="-3.334160" lat="54.568912"><ele>175.531265</ele><time>2021-08-12T09:37:07Z</time><extensions><speed>1.023382</speed><course>44.103298</course><hAcc>0.878568</hAcc><vAcc>0.695228</vAcc></extensions></trkpt>
      <trkpt lon="-3.334166" lat="54.568904"><ele>175.656113</ele><time>2021-08-12T09:37:08Z</time><extensions><speed>1.034779</speed><course>35.959499</course><hAcc>0.878546</hAcc><vAcc>0.695123</vAcc></extensions></trkpt>
      <trkpt lon="-3.334172" lat="54.568895"><ele>175.775955</ele><time>2021-08-12T09:37:09Z</time><extensions><speed>1.050056</speed><course>30.952709</course><hAcc>0.878522</hAcc><vAcc>0.695014</vAcc></extensions></trkpt>
      <trkpt lon="-3.334178" lat="54.568886"><ele>175.891876</ele><time>2021-08-12T09:37:10Z</time><extensions><speed>1.068694</speed><course>43.709347</course><hAcc>0.878497</hAcc><vAcc>0.694911</vAcc></extensions></trkpt>
      <trkpt lon="-3.334185" lat="54.568877"><ele>176.005020</ele><time>2021-08-12T09:37:11Z</time><extensions><speed>1.090519</speed><course>37.574459</course><hAcc>0.878472</hAcc><vAcc>0.694824</vAcc></extensions></trkpt>
      <trkpt lon="-3.334191" lat="54.568868"><ele>176.116516</ele><time>2021-08-12T09:37:12Z</time><extensions><speed>1.115276</speed><course>40.028488</course><hAcc>0.878448</hAcc><vAcc>0.694753</vAcc></extensions></trkpt>
      <trkpt lon="-3.334198" lat="54.568859"><ele>176.227249</ele><time>2021-08-12T09:37:13Z</time><extensions><speed>1.141828</speed><course>39.088745</course><hAcc>0.878425</hAcc><vAcc>0.694690</vAcc></extensions></trkpt>
      <trkpt lon="-3.334204" lat="54.568849"><ele>176.337723</ele><time>2021-08-12T09:37:14Z</time><extensions><speed>1.168994</speed><course>38.227211</course><hAcc>0.878402</hAcc><vAcc>0.694626</vAcc></extensions></trkpt>
      <trkpt lon="-3.334211" lat="54.568839"><ele>176.448044</ele><time>2021-08-12T09:37:15Z</time><extensions><speed>1.195738</speed><course>38.580025</course><hAcc>0.878377</hAcc><vAcc>0.694550</vAcc></extensions></trkpt>
      <trkpt lon="-3.334219" lat="54.568829"><ele>176.558289</ele><time>2021-08-12T09:37:16Z</time><extensions><speed>1.221251</speed><course>36.225418</course><hAcc>0.878349</hAcc><vAcc>0.694458</vAcc></extensions></trkpt>
      <trkpt lon="-3.334226" lat="54.568819"><ele>176.668747</ele><time>2021-08-12T09:37:17Z</time><extensions><speed>1.245287</speed><course>36.482189</course><hAcc>0.878317</hAcc><vAcc>0.694346</vAcc></extensions></trkpt>
      <trkpt lon="-3.334234" lat="54.568809"><ele>176.780167</ele><time>2021-08-12T09:37:18Z</time><extensions><speed>1.267592</speed><course>45.117634</course><hAcc>0.878280</hAcc><vAcc>0.694215</vAcc></extensions></trkpt>
      <trkpt lon="-3.334242" lat="54.568798"><ele>176.893738</ele><time>2021-08-12T09:37:19Z</time><extensions><speed>1.287579</speed><course>40.176819</course><hAcc>0.878238</hAcc><vAcc>0.694063</vAcc></extensions></trkpt>
      <trkpt lon="-3.334250" lat="54.568787"><ele>177.010620</ele><time>2021-08-12T09:37:20Z</time><extensions><speed>1.304899</speed><course>42.588684</course><hAcc>0.878188</hAcc><vAcc>0.693888</vAcc></extensions></trkpt>
      <trkpt lon="-3.334258" lat="54.568777"><ele>177.131683</ele><time>2021-08-12T09:37:21Z</time><extensions><speed>1.319483</speed><course>41.771687</course><hAcc>0.878132</hAcc><vAcc>0.693691</vAcc></extensions></trkpt>
      <trkpt lon="-3.334266" lat="54.568766"><ele>177.257263</ele><time>2021-08-12T09:37:22Z</time><extensions><speed>1.331165</speed><course>41.372017</course><hAcc>0.878066</hAcc><vAcc>0.693467</vAcc></extensions></trkpt>
      <trkpt lon="-3.334275" lat="54.568755"><ele>177.386948</ele><time>2021-08-12T09:37:23Z</time><extensions><speed>1.339819</speed><course>37.017429</course><hAcc>0.877993</hAcc><vAcc>0.693215</vAcc></extensions></trkpt>
      <trkpt lon="-3.334283" lat="54.568744"><ele>177.519638</ele><time>2021-08-12T09:37:24Z</time><extensions><speed>1.345498</speed><course>28.588495</course><hAcc>0.877910</hAcc><vAcc>0.692928</vAcc></extensions></trkpt>
      <trkpt lon="-3.334292" lat="54.568733"><ele>177.654175</ele><time>2021-08-12T09:37:25Z</time><extensions><speed>1.348356</speed><course>39.512306</course><hAcc>0.877819</hAcc><vAcc>0.692602</vAcc></extensions></trkpt>
      <trkpt lon="-3.334301" lat="54.568722"><ele>177.789490</ele><time>2021-08-12T09:37:26Z</time><extensions><speed>1.349043</speed><course>38.955353</course><hAcc>0.877720</hAcc><vAcc>0.692236</vAcc></extensions></trkpt>
      <trkpt lon="-3.334310" lat="54.568711"><ele>177.924698</ele><time>2021-08-12T09:37:27Z</time><extensions><speed>1.348730</speed><course>35.270641</course><hAcc>0.877616</hAcc><vAcc>0.691838</vAcc></extensions></trkpt>
      <trkpt lon="-3.334319" lat="54.568700"><ele>178.059250</ele><time>2021-08-12T09:37:28Z</time><extensions><speed>1.348445</speed><course>38.302330</course><hAcc>0.877509</hAcc><vAcc>0.691420</vAcc></extensions></trkpt>
      <trkpt lon="-3.334328" lat="54.568689"><ele>178.192902</ele><time>2021-08-12T09:37:29Z</time><extensions><speed>1.348663</speed><course>40.976086</course><hAcc>0.877403</hAcc><vAcc>0.691000</vAcc></extensions></trkpt>
      <trkpt lon="-3.334337" lat="54.568678"><ele>178.325577</ele><time>2021-08-12T09:37:30Z</time><extensions><speed>1.349362</speed><course>40.718147</course><hAcc>0.877302</hAcc><vAcc>0.690594</vAcc></extensions></trkpt>
      <trkpt lon="-3.334347" lat="54.568668"><ele>178.457596</ele><time>2021-08-12T09:37:31Z</time><extensions><speed>1.350708</speed><course>40.437557</course><hAcc>0.877210</hAcc><vAcc>0.690216</vAcc></extensions></trkpt>
      <trkpt lon="-3.334357" lat="54.568657"><ele>178.589203</ele><time>2021-08-12T09:37:32Z</time><extensions><speed>1.352985</speed><course>38.315979</course><hAcc>0.877131</hAcc><vAcc>0.689886</vAcc></extensions></trkpt>
      <trkpt lon="-3.334366" lat="54.568646"><ele>178.719940</ele><time>2021-08-12T09:37:33Z</time><extensions><speed>1.356245</speed><course>28.668550</course><hAcc>0.877071</hAcc><vAcc>0.689623</vAcc></extensions></trkpt>
      <trkpt lon="-3.334376" lat="54.568635"><ele>178.849045</ele><time>2021-08-12T09:37:34Z</time><extensions><speed>1.360228</speed><course>31.392698</course><hAcc>0.877032</hAcc><vAcc>0.689447</vAcc></extensions></trkpt>
      <trkpt lon="-3.334386" lat="54.568624"><ele>178.975647</ele><time>2021-08-12T09:37:35Z</time><extensions><speed>1.364534</speed><course>32.848076</course><hAcc>0.877017</hAcc><vAcc>0.689377</vAcc></extensions></trkpt>
      <trkpt lon="-3.334396" lat="54.568614"><ele>179.098892</ele><time>2021-08-12T09:37:36Z</time><extensions><speed>1.368564</speed><course>38.096359</course><hAcc>0.877028</hAcc><vAcc>0.689427</vAcc></extensions></trkpt>
      <trkpt lon="-3.334406" lat="54.568603"><ele>179.218185</ele><time>2021-08-12T09:37:37Z</time><extensions><speed>1.371369</speed><course>27.737675</course><hAcc>0.877063</hAcc><vAcc>0.689595</vAcc></extensions></trkpt>
      <trkpt lon="-3.334416" lat="54.568592"><ele>179.333328</ele><time>2021-08-12T09:37:38Z</time><extensions><speed>1.372310</speed><course>38.820049</course><hAcc>0.877120</hAcc><vAcc>0.689864</vAcc></extensions></trkpt>
      <trkpt lon="-3.334426" lat="54.568581"><ele>179.444107</ele><time>2021-08-12T09:37:39Z</time><extensions><speed>1.370872</speed><course>40.137299</course><hAcc>0.877192</hAcc><vAcc>0.690201</vAcc></extensions></trkpt>
      <trkpt lon="-3.334436" lat="54.568570"><ele>179.549728</ele><time>2021-08-12T09:37:40Z</time><extensions><speed>1.366716</speed><course>44.560421</course><hAcc>0.877274</hAcc><vAcc>0.690566</vAcc></extensions></trkpt>
      <trkpt lon="-3.334446" lat="54.568559"><ele>179.649261</ele><time>2021-08-12T09:37:41Z</time><extensions><speed>1.360212</speed><course>41.574787</course><hAcc>0.877359</hAcc><vAcc>0.690929</vAcc></extensions></trkpt>
      <trkpt lon="-3.334456" lat="54.568549"><ele>179.741974</ele><time>2021-08-12T09:37:42Z</time><extensions><speed>1.352309</speed><course>37.402897</course><hAcc>0.877442</hAcc><vAcc>0.691266</vAcc></extensions></trkpt>
      <trkpt lon="-3.334465" lat="54.568538"><ele>179.827042</ele><time>2021-08-12T09:37:43Z</time><extensions><speed>1.343977</speed><course>38.445354</course><hAcc>0.877518</hAcc><vAcc>0.691560</vAcc></extensions></trkpt>
      <trkpt lon="-3.334475" lat="54.568527"><ele>179.903137</ele><time>2021-08-12T09:37:44Z</time><extensions><speed>1.336053</speed><course>32.932274</course><hAcc>0.877583</hAcc><vAcc>0.691799</vAcc></extensions></trkpt>
      <trkpt lon="-3.334484" lat="54.568516"><ele>179.969193</ele><time>2021-08-12T09:37:45Z</time><extensions><speed>1.329022</speed><course>27.701353</course><hAcc>0.877633</hAcc><vAcc>0.691978</vAcc></extensions></trkpt>
      <trkpt lon="-3.334493" lat="54.568506"><ele>180.025238</ele><time>2021-08-12T09:37:46Z</time><extensions><speed>1.322967</speed><course>28.233585</course><hAcc>0.877666</hAcc><vAcc>0.692094</vAcc></extensions></trkpt>
      <trkpt lon="-3.334502" lat="54.568495"><ele>180.072311</ele><time>2021-08-12T09:37:47Z</time><extensions><speed>1.318033</speed><course>30.003765</course><hAcc>0.877680</hAcc><vAcc>0.692149</vAcc></extensions></trkpt>
      <trkpt lon="-3.334511" lat="54.568485"><ele>180.112320</ele><time>2021-08-12T09:37:48Z</time><extensions><speed>1.314305</speed><course>35.586266</course><hAcc>0.877674</hAcc><vAcc>0.692143</vAcc></extensions></trkpt>
      <trkpt lon="-3.334520" lat="54.568474"><ele>180.148087</ele><time>2021-08-12T09:37:49Z</time><extensions><speed>1.312071</speed><course>41.034397</course><hAcc>0.877646</hAcc><vAcc>0.692067</vAcc></extensions></trkpt>
      <trkpt lon="-3.334529" lat="54.568463"><ele>180.182404</ele><time>2021-08-12T09:37:50Z</time><extensions><speed>1.311479</speed><course>43.040592</course><hAcc>0.877595</hAcc><vAcc>0.691910</vAcc></extensions></trkpt>
      <trkpt lon="-3.334537" lat="54.568453"><ele>180.216736</ele><time>2021-08-12T09:37:51Z</time><extensions><speed>1.312035</speed><course>49.550934</course><hAcc>0.877520</hAcc><vAcc>0.691661</vAcc></extensions></trkpt>
      <trkpt lon="-3.334546" lat="54.568442"><ele>180.250275</ele><time>2021-08-12T09:37:52Z</time><extensions><speed>1.313279</speed><course>62.069283</course><hAcc>0.877422</hAcc><vAcc>0.691312</vAcc></extensions></trkpt>
      <trkpt lon="-3.334554" lat="54.568431"><ele>180.280823</ele><time>2021-08-12T09:37:53Z</time><extensions><speed>1.314962</speed><course>68.512573</course><hAcc>0.877301</hAcc><vAcc>0.690864</vAcc></extensions></trkpt>
      <trkpt lon="-3.334563" lat="54.568420"><ele>180.306442</ele><time>2021-08-12T09:37:54Z</time><extensions><speed>1.316828</speed><course>76.544746</course><hAcc>0.877161</hAcc><vAcc>0.690327</vAcc></extensions></trkpt>
      <trkpt lon="-3.334571" lat="54.568410"><ele>180.326294</ele><time>2021-08-12T09:37:55Z</time><extensions><speed>1.318882</speed><course>91.471558</course><hAcc>0.877005</hAcc><vAcc>0.689717</vAcc></extensions></trkpt>
      <trkpt lon="-3.334580" lat="54.568399"><ele>180.340866</ele><time>2021-08-12T09:37:56Z</time><extensions><speed>1.321083</speed><course>103.707001</course><hAcc>0.876837</hAcc><vAcc>0.689056</vAcc></extensions></trkpt>
      <trkpt lon="-3.334589" lat="54.568388"><ele>180.351669</ele><time>2021-08-12T09:37:57Z</time><extensions><speed>1.323420</speed><course>102.240677</course><hAcc>0.876662</hAcc><vAcc>0.688371</vAcc></extensions></trkpt>
      <trkpt lon="-3.334597" lat="54.568377"><ele>180.360413</ele><time>2021-08-12T09:37:58Z</time><extensions><speed>1.325951</speed><course>109.008522</course><hAcc>0.876487</hAcc><vAcc>0.687685</vAcc></extensions></trkpt>
      <trkpt lon="-3.334606" lat="54.568367"><ele>180.368378</ele><time>2021-08-12T09:37:59Z</time><extensions><speed>1.328632</speed><course>120.687057</course><hAcc>0.876316</hAcc><vAcc>0.687021</vAcc></extensions></trkpt>
      <trkpt lon="-3.334615" lat="54.568356"><ele>180.376007</ele><time>2021-08-12T09:38:00Z</time><extensions><speed>1.331648</speed><course>122.518364</course><hAcc>0.876153</hAcc><vAcc>0.686406</vAcc></extensions></trkpt>
      <trkpt lon="-3.334624" lat="54.568345"><ele>180.383041</ele><time>2021-08-12T09:38:01Z</time><extensions><speed>1.335341</speed><course>116.435341</course><hAcc>0.876003</hAcc><vAcc>0.685858</vAcc></extensions></trkpt>
      <trkpt lon="-3.334633" lat="54.568334"><ele>180.388855</ele><time>2021-08-12T09:38:02Z</time><extensions><speed>1.339737</speed><course>123.806564</course><hAcc>0.875866</hAcc><vAcc>0.685383</vAcc></extensions></trkpt>
      <trkpt lon="-3.334642" lat="54.568323"><ele>180.392654</ele><time>2021-08-12T09:38:03Z</time><extensions><speed>1.344349</speed><course>121.279266</course><hAcc>0.875742</hAcc><vAcc>0.684968</vAcc></extensions></trkpt>
      <trkpt lon="-3.334651" lat="54.568313"><ele>180.393738</ele><time>2021-08-12T09:38:04Z</time><extensions><speed>1.348354</speed><course>122.295830</course><hAcc>0.875629</hAcc><vAcc>0.684593</vAcc></extensions></trkpt>
      <trkpt lon="-3.334660" lat="54.568302"><ele>180.391617</ele><time>2021-08-12T09:38:05Z</time><extensions><speed>1.350806</speed><course>116.485687</course><hAcc>0.875525</hAcc><vAcc>0.684238</vAcc></extensions></trkpt>
      <trkpt lon="-3.334669" lat="54.568291"><ele>180.386337</ele><time>2021-08-12T09:38:06Z</time><extensions><speed>1.351513</speed><course>120.837761</course><hAcc>0.875430</hAcc><vAcc>0.683895</vAcc></extensions></trkpt>
      <trkpt lon="-3.334678" lat="54.568280"><ele>180.378876</ele><time>2021-08-12T09:38:07Z</time><extensions><speed>1.350910</speed><course>121.691162</course><hAcc>0.875342</hAcc><vAcc>0.683568</vAcc></extensions></trkpt>
      <trkpt lon="-3.334687" lat="54.568269"><ele>180.371490</ele><time>2021-08-12T09:38:08Z</time><extensions><speed>1.349478</speed><course>120.429344</course><hAcc>0.875263</hAcc><vAcc>0.683268</vAcc></extensions></trkpt>
      <trkpt lon="-3.334695" lat="54.568257"><ele>180.367584</ele><time>2021-08-12T09:38:09Z</time><extensions><speed>1.347711</speed><course>127.922836</course><hAcc>0.875191</hAcc><vAcc>0.683002</vAcc></extensions></trkpt>
      <trkpt lon="-3.334703" lat="54.568246"><ele>180.370407</ele><time>2021-08-12T09:38:10Z</time><extensions><speed>1.345770</speed><course>122.773224</course><hAcc>0.875128</hAcc><vAcc>0.682773</vAcc></extensions></trkpt>
      <trkpt lon="-3.334711" lat="54.568235"><ele>180.382248</ele><time>2021-08-12T09:38:11Z</time><extensions><speed>1.343367</speed><course>127.410233</course><hAcc>0.875073</hAcc><vAcc>0.682581</vAcc></extensions></trkpt>
      <trkpt lon="-3.334720" lat="54.568224"><ele>180.404633</ele><time>2021-08-12T09:38:12Z</time><extensions><speed>1.339968</speed><course>126.293243</course><hAcc>0.875024</hAcc><vAcc>0.682420</vAcc></extensions></trkpt>
      <trkpt lon="-3.334728" lat="54.568213"><ele>180.437820</ele><time>2021-08-12T09:38:13Z</time><extensions><speed>1.334882</speed><course>113.773628</course><hAcc>0.874980</hAcc><vAcc>0.682277</vAcc></extensions></trkpt>
      <trkpt lon="-3.334735" lat="54.568202"><ele>180.480865</ele><time>2021-08-12T09:38:14Z</time><extensions><speed>1.327928</speed><course>111.597641</course><hAcc>0.874939</hAcc><vAcc>0.682141</vAcc></extensions></trkpt>
      <trkpt lon="-3.334743" lat="54.568191"><ele>180.532623</ele><time>2021-08-12T09:38:15Z</time><extensions><speed>1.319788</speed><course>118.242065</course><hAcc>0.874900</hAcc><vAcc>0.682007</vAcc></extensions></trkpt>
      <trkpt lon="-3.334751" lat="54.568180"><ele>180.592010</ele><time>2021-08-12T09:38:16Z</time><extensions><speed>1.311264</speed><course>121.318916</course><hAcc>0.874864</hAcc><vAcc>0.681876</vAcc></extensions></trkpt>
      <trkpt lon="-3.334759" lat="54.568169"><ele>180.657837</ele><time>2021-08-12T09:38:17Z</time><extensions><speed>1.302894</speed><course>126.571838</course><hAcc>0.874830</hAcc><vAcc>0.681753</vAcc></extensions></trkpt>
      <trkpt lon="-3.334767" lat="54.568159"><ele>180.728729</ele><time>2021-08-12T09:38:18Z</time><extensions><speed>1.294906</speed><course>116.053932</course><hAcc>0.874801</hAcc><vAcc>0.681644</vAcc></extensions></trkpt>
      <trkpt lon="-3.334774" lat="54.568148"><ele>180.802536</ele><time>2021-08-12T09:38:19Z</time><extensions><speed>1.287676</speed><course>122.553452</course><hAcc>0.874778</hAcc><vAcc>0.681553</vAcc></extensions></trkpt>
      <trkpt lon="-3.334782" lat="54.568137"><ele>180.876419</ele><time>2021-08-12T09:38:20Z</time><extensions><speed>1.281934</speed><course>115.362396</course><hAcc>0.874762</hAcc><vAcc>0.681483</vAcc></extensions></trkpt>
      <trkpt lon="-3.334789" lat="54.568127"><ele>180.948120</ele><time>2021-08-12T09:38:21Z</time><extensions><speed>1.278631</speed><course>120.016403</course><hAcc>0.874755</hAcc><vAcc>0.681437</vAcc></extensions></trkpt>
      <trkpt lon="-3.334797" lat="54.568116"><ele>181.016739</ele><time>2021-08-12T09:38:22Z</time><extensions><speed>1.278062</speed><course>131.521149</course><hAcc>0.874760</hAcc><vAcc>0.681422</vAcc></extensions></trkpt>
      <trkpt lon="-3.334804" lat="54.568105"><ele>181.082275</ele><time>2021-08-12T09:38:23Z</time><extensions><speed>1.279865</speed><course>124.976143</course><hAcc>0.874780</hAcc><vAcc>0.681454</vAcc></extensions></trkpt>
      <trkpt lon="-3.334812" lat="54.568095"><ele>181.145264</ele><time>2021-08-12T09:38:24Z</time><extensions><speed>1.283513</speed><course>123.546791</course><hAcc>0.874820</hAcc><vAcc>0.681552</vAcc></extensions></trkpt>
      <trkpt lon="-3.334819" lat="54.568084"><ele>181.206345</ele><time>2021-08-12T09:38:25Z</time><extensions><speed>1.287837</speed><course>116.699699</course><hAcc>0.874882</hAcc><vAcc>0.681737</vAcc></extensions></trkpt>
      <trkpt lon="-3.334827" lat="54.568073"><ele>181.266083</ele><time>2021-08-12T09:38:26Z</time><extensions><speed>1.291164</speed><course>112.924561</course><hAcc>0.874969</hAcc><vAcc>0.682018</vAcc></extensions></trkpt>
      <trkpt lon="-3.334834" lat="54.568062"><ele>181.324997</ele><time>2021-08-12T09:38:27Z</time><extensions><speed>1.292143</speed><course>117.858780</course><hAcc>0.875078</hAcc><vAcc>0.682395</vAcc></extensions></trkpt>
      <trkpt lon="-3.334842" lat="54.568052"><ele>181.382980</ele><time>2021-08-12T09:38:28Z</time><extensions><speed>1.290053</speed><course>111.630035</course><hAcc>0.875207</hAcc><vAcc>0.682851</vAcc></extensions></trkpt>
      <trkpt lon="-3.334850" lat="54.568041"><ele>181.438721</ele><time>2021-08-12T09:38:29Z</time><extensions><speed>1.284258</speed><course>115.453979</course><hAcc>0.875349</hAcc><vAcc>0.683357</vAcc></extensions></trkpt>
      <trkpt lon="-3.334858" lat="54.568031"><ele>181.490158</ele><time>2021-08-12T09:38:30Z</time><extensions><speed>1.274095</speed><course>108.625862</course><hAcc>0.875492</hAcc><vAcc>0.683875</vAcc></extensions></trkpt>
      <trkpt lon="-3.334866" lat="54.568020"><ele>181.535355</ele><time>2021-08-12T09:38:31Z</time><extensions><speed>1.258890</speed><course>116.435417</course><hAcc>0.875624</hAcc><vAcc>0.684361</vAcc></extensions></trkpt>
      <trkpt lon="-3.334874" lat="54.568010"><ele>181.572540</ele><time>2021-08-12T09:38:32Z</time><extensions><speed>1.237797</speed><course>112.323517</course><hAcc>0.875729</hAcc><vAcc>0.684774</vAcc></extensions></trkpt>
      <trkpt lon="-3.334881" lat="54.568000"><ele>181.600296</ele><time>2021-08-12T09:38:33Z</time><extensions><speed>1.209819</speed><course>117.491661</course><hAcc>0.875788</hAcc><vAcc>0.685071</vAcc></extensions></trkpt>
      <trkpt lon="-3.334889" lat="54.567990"><ele>181.618271</ele><time>2021-08-12T09:38:34Z</time><extensions><speed>1.174083</speed><course>120.293846</course><hAcc>0.875780</hAcc><vAcc>0.685199</vAcc></extensions></trkpt>
      <trkpt lon="-3.334896" lat="54.567981"><ele>181.627365</ele><time>2021-08-12T09:38:35Z</time><extensions><speed>1.130143</speed><course>115.591873</course><hAcc>0.875683</hAcc><vAcc>0.685088</vAcc></extensions></trkpt>
      <trkpt lon="-3.334903" lat="54.567972"><ele>181.628769</ele><time>2021-08-12T09:38:36Z</time><extensions><speed>1.077836</speed><course>116.468712</course><hAcc>0.875478</hAcc><vAcc>0.684654</vAcc></extensions></trkpt>
      <trkpt lon="-3.334909" lat="54.567963"><ele>181.623169</ele><time>2021-08-12T09:38:37Z</time><extensions><speed>1.017308</speed><course>116.627220</course><hAcc>0.875149</hAcc><vAcc>0.683793</vAcc></extensions></trkpt>
      <trkpt lon="-3.334914" lat="54.567955"><ele>181.610443</ele><time>2021-08-12T09:38:38Z</time><extensions><speed>0.948927</speed><course>115.487846</course><hAcc>0.874694</hAcc><vAcc>0.682383</vAcc></extensions></trkpt>
      <trkpt lon="-3.334920" lat="54.567947"><ele>181.589371</ele><time>2021-08-12T09:38:39Z</time><extensions><speed>0.873232</speed><course>110.303284</course><hAcc>0.874134</hAcc><vAcc>0.680288</vAcc></extensions></trkpt>
      <trkpt lon="-3.334924" lat="54.567940"><ele>181.558502</ele><time>2021-08-12T09:38:40Z</time><extensions><speed>0.791581</speed><course>107.900200</course><hAcc>0.873519</hAcc><vAcc>0.677369</vAcc></extensions></trkpt>
      <trkpt lon="-3.334928" lat="54.567934"><ele>181.517471</ele><time>2021-08-12T09:38:41Z</time><extensions><speed>0.706168</speed><course>104.901772</course><hAcc>0.872939</hAcc><vAcc>0.673498</vAcc></extensions></trkpt>
      <trkpt lon="-3.334932" lat="54.567928"><ele>181.468124</ele><time>2021-08-12T09:38:42Z</time><extensions><speed>0.619688</speed><course>102.625549</course><hAcc>0.872536</hAcc><vAcc>0.668591</vAcc></extensions></trkpt>
      <trkpt lon="-3.334935" lat="54.567923"><ele>181.414703</ele><time>2021-08-12T09:38:43Z</time><extensions><speed>0.535361</speed><course>101.615082</course><hAcc>0.872505</hAcc><vAcc>0.662635</vAcc></extensions></trkpt>
      <trkpt lon="-3.334937" lat="54.567919"><ele>181.362701</ele><time>2021-08-12T09:38:44Z</time><extensions><speed>0.456272</speed><course>104.820312</course><hAcc>0.873086</hAcc><vAcc>0.655739</vAcc></extensions></trkpt>
      <trkpt lon="-3.334939" lat="54.567915"><ele>181.317307</ele><time>2021-08-12T09:38:45Z</time><extensions><speed>0.384579</speed><course>97.837166</course><hAcc>0.874546</hAcc><vAcc>0.648171</vAcc></extensions></trkpt>
      <trkpt lon="-3.334941" lat="54.567912"><ele>181.282837</ele><time>2021-08-12T09:38:46Z</time><extensions><speed>0.321693</speed><course>99.518051</course><hAcc>0.877137</hAcc><vAcc>0.640386</vAcc></extensions></trkpt>
      <trkpt lon="-3.334943" lat="54.567910"><ele>181.262848</ele><time>2021-08-12T09:38:47Z</time><extensions><speed>0.268420</speed><course>105.468117</course><hAcc>0.881037</hAcc><vAcc>0.632987</vAcc></extensions></trkpt>
      <trkpt lon="-3.334944" lat="54.567908"><ele>181.259277</ele><time>2021-08-12T09:38:48Z</time><extensions><speed>0.225857</speed><course>105.021729</course><hAcc>0.886263</hAcc><vAcc>0.626602</vAcc></extensions></trkpt>
      <trkpt lon="-3.334946" lat="54.567906"><ele>181.270905</ele><time>2021-08-12T09:38:49Z</time><extensions><speed>0.195270</speed><course>105.854553</course><hAcc>0.892592</hAcc><vAcc>0.621694</vAcc></extensions></trkpt>
      <trkpt lon="-3.334948" lat="54.567905"><ele>181.293304</ele><time>2021-08-12T09:38:50Z</time><extensions><speed>0.176922</speed><course>116.038353</course><hAcc>0.899560</hAcc><vAcc>0.618456</vAcc></extensions></trkpt>
      <trkpt lon="-3.334949" lat="54.567904"><ele>181.319916</ele><time>2021-08-12T09:38:51Z</time><extensions><speed>0.169867</speed><course>116.622620</course><hAcc>0.906520</hAcc><vAcc>0.616840</vAcc></extensions></trkpt>
      <trkpt lon="-3.334951" lat="54.567903"><ele>181.344116</ele><time>2021-08-12T09:38:52Z</time><extensions><speed>0.171948</speed><course>116.023415</course><hAcc>0.912751</hAcc><vAcc>0.616680</vAcc></extensions></trkpt>
      <trkpt lon="-3.334954" lat="54.567902"><ele>181.361404</ele><time>2021-08-12T09:38:53Z</time><extensions><speed>0.180655</speed><course>111.053482</course><hAcc>0.917560</hAcc><vAcc>0.617787</vAcc></extensions></trkpt>
      <trkpt lon="-3.334956" lat="54.567901"><ele>181.369324</ele><time>2021-08-12T09:38:54Z</time><extensions><speed>0.193524</speed><course>109.683617</course><hAcc>0.920382</hAcc><vAcc>0.619997</vAcc></extensions></trkpt>
      <trkpt lon="-3.334959" lat="54.567901"><ele>181.366974</ele><time>2021-08-12T09:38:55Z</time><extensions><speed>0.208604</speed><course>107.838440</course><hAcc>0.920867</hAcc><vAcc>0.623173</vAcc></extensions></trkpt>
      <trkpt lon="-3.334962" lat="54.567900"><ele>181.354706</ele><time>2021-08-12T09:38:56Z</time><extensions><speed>0.224947</speed><course>110.196930</course><hAcc>0.918970</hAcc><vAcc>0.627182</vAcc></extensions></trkpt>
      <trkpt lon="-3.334966" lat="54.567900"><ele>181.333267</ele><time>2021-08-12T09:38:57Z</time><extensions><speed>0.241719</speed><course>111.548782</course><hAcc>0.915018</hAcc><vAcc>0.631888</vAcc></extensions></trkpt>
      <trkpt lon="-3.334970" lat="54.567900"><ele>181.303528</ele><time>2021-08-12T09:38:58Z</time><extensions><speed>0.257289</speed><course>110.420074</course><hAcc>0.909633</hAcc><vAcc>0.637166</vAcc></extensions></trkpt>
      <trkpt lon="-3.334974" lat="54.567900"><ele>181.266357</ele><time>2021-08-12T09:38:59Z</time><extensions><speed>0.269585</speed><course>99.619576</course><hAcc>0.903540</hAcc><vAcc>0.642867</vAcc></extensions></trkpt>
      <trkpt lon="-3.334978" lat="54.567900"><ele>181.222305</ele><time>2021-08-12T09:39:00Z</time><extensions><speed>0.276767</speed><course>107.102882</course><hAcc>0.897398</hAcc><vAcc>0.648793</vAcc></extensions></trkpt>
      <trkpt lon="-3.334982" lat="54.567900"><ele>181.170883</ele><time>2021-08-12T09:39:01Z</time><extensions><speed>0.277966</speed><course>98.831825</course><hAcc>0.891721</hAcc><vAcc>0.654710</vAcc></extensions></trkpt>
      <trkpt lon="-3.334987" lat="54.567901"><ele>181.110687</ele><time>2021-08-12T09:39:02Z</time><extensions><speed>0.273334</speed><course>99.864403</course><hAcc>0.886859</hAcc><vAcc>0.660373</vAcc></extensions></trkpt>
      <trkpt lon="-3.334991" lat="54.567901"><ele>181.040222</ele><time>2021-08-12T09:39:03Z</time><extensions><speed>0.264025</speed><course>99.165215</course><hAcc>0.882986</hAcc><vAcc>0.665567</vAcc></extensions></trkpt>
      <trkpt lon="-3.334994" lat="54.567902"><ele>180.958420</ele><time>2021-08-12T09:39:04Z</time><extensions><speed>0.251560</speed><course>106.876038</course><hAcc>0.880119</hAcc><vAcc>0.670163</vAcc></extensions></trkpt>
      <trkpt lon="-3.334998" lat="54.567902"><ele>180.864914</ele><time>2021-08-12T09:39:05Z</time><extensions><speed>0.236827</speed><course>100.224144</course><hAcc>0.878161</hAcc><vAcc>0.674130</vAcc></extensions></trkpt>
      <trkpt lon="-3.335001" lat="54.567903"><ele>180.760193</ele><time>2021-08-12T09:39:06Z</time><extensions><speed>0.220119</speed><course>97.870438</course><hAcc>0.876959</hAcc><vAcc>0.677509</vAcc></extensions></trkpt>
      <trkpt lon="-3.335004" lat="54.567904"><ele>180.645782</ele><time>2021-08-12T09:39:07Z</time><extensions><speed>0.202633</speed><course>109.047302</course><hAcc>0.876339</hAcc><vAcc>0.680379</vAcc></extensions></trkpt>
      <trkpt lon="-3.335007" lat="54.567905"><ele>180.524475</ele><time>2021-08-12T09:39:08Z</time><extensions><speed>0.186481</speed><course>111.386711</course><hAcc>0.876143</hAcc><vAcc>0.682836</vAcc></extensions></trkpt>
      <trkpt lon="-3.335010" lat="54.567905"><ele>180.399948</ele><time>2021-08-12T09:39:09Z</time><extensions><speed>0.172733</speed><course>110.131767</course><hAcc>0.876241</hAcc><vAcc>0.684970</vAcc></extensions></trkpt>
      <trkpt lon="-3.335012" lat="54.567906"><ele>180.275757</ele><time>2021-08-12T09:39:10Z</time><extensions><speed>0.161414</speed><course>109.748413</course><hAcc>0.876538</hAcc><vAcc>0.686862</vAcc></extensions></trkpt>
      <trkpt lon="-3.335014" lat="54.567907"><ele>180.154526</ele><time>2021-08-12T09:39:11Z</time><extensions><speed>0.151687</speed><course>116.453705</course><hAcc>0.876976</hAcc><vAcc>0.688574</vAcc></extensions></trkpt>
      <trkpt lon="-3.335016" lat="54.567907"><ele>180.037659</ele><time>2021-08-12T09:39:12Z</time><extensions><speed>0.142982</speed><course>111.019348</course><hAcc>0.877531</hAcc><vAcc>0.690148</vAcc></extensions></trkpt>
      <trkpt lon="-3.335018" lat="54.567908"><ele>179.925583</ele><time>2021-08-12T09:39:13Z</time><extensions><speed>0.135359</speed><course>106.996025</course><hAcc>0.878206</hAcc><vAcc>0.691621</vAcc></extensions></trkpt>
      <trkpt lon="-3.335019" lat="54.567909"><ele>179.818527</ele><time>2021-08-12T09:39:14Z</time><extensions><speed>0.129144</speed><course>104.594215</course><hAcc>0.879029</hAcc><vAcc>0.693047</vAcc></extensions></trkpt>
      <trkpt lon="-3.335021" lat="54.567909"><ele>179.717285</ele><time>2021-08-12T09:39:15Z</time><extensions><speed>0.125203</speed><course>101.351479</course><hAcc>0.880043</hAcc><vAcc>0.694506</vAcc></extensions></trkpt>
      <trkpt lon="-3.335023" lat="54.567910"><ele>179.623108</ele><time>2021-08-12T09:39:16Z</time><extensions><speed>0.124165</speed><course>105.952332</course><hAcc>0.881296</hAcc><vAcc>0.696082</vAcc></extensions></trkpt>
      <trkpt lon="-3.335024" lat="54.567910"><ele>179.537170</ele><time>2021-08-12T09:39:17Z</time><extensions><speed>0.126065</speed><course>113.138412</course><hAcc>0.882830</hAcc><vAcc>0.697847</vAcc></extensions></trkpt>
      <trkpt lon="-3.335026" lat="54.567911"><ele>179.460052</ele><time>2021-08-12T09:39:18Z</time><extensions><speed>0.130641</speed><course>112.944946</course><hAcc>0.884664</hAcc><vAcc>0.699835</vAcc></extensions></trkpt>
      <trkpt lon="-3.335028" lat="54.567911"><ele>179.391754</ele><time>2021-08-12T09:39:19Z</time><extensions><speed>0.137987</speed><course>108.292221</course><hAcc>0.886780</hAcc><vAcc>0.702035</vAcc></extensions></trkpt>
      <trkpt lon="-3.335030" lat="54.567912"><ele>179.331833</ele><time>2021-08-12T09:39:20Z</time><extensions><speed>0.148208</speed><course>108.436562</course><hAcc>0.889109</hAcc><vAcc>0.704379</vAcc></extensions></trkpt>
      <trkpt lon="-3.335032" lat="54.567912"><ele>179.279602</ele><time>2021-08-12T09:39:21Z</time><extensions><speed>0.160584</speed><course>102.445824</course><hAcc>0.891518</hAcc><vAcc>0.706737</vAcc></extensions></trkpt>
      <trkpt lon="-3.335035" lat="54.567913"><ele>179.234436</ele><time>2021-08-12T09:39:22Z</time><extensions><speed>0.174009</speed><course>99.628555</course><hAcc>0.893810</hAcc><vAcc>0.708920</vAcc></extensions></trkpt>
      <trkpt lon="-3.335038" lat="54.567913"><ele>179.195694</ele><time>2021-08-12T09:39:23Z</time><extensions><speed>0.187807</speed><course>103.656601</course><hAcc>0.895743</hAcc><vAcc>0.710709</vAcc></extensions></trkpt>
      <trkpt lon="-3.335041" lat="54.567913"><ele>179.162613</ele><time>2021-08-12T09:39:24Z</time><extensions><speed>0.202305</speed><course>97.309608</course><hAcc>0.897084</hAcc><vAcc>0.711906</vAcc></extensions></trkpt>
      <trkpt lon="-3.335044" lat="54.567913"><ele>179.134308</ele><time>2021-08-12T09:39:25Z</time><extensions><speed>0.218290</speed><course>95.308922</course><hAcc>0.897706</hAcc><vAcc>0.712428</vAcc></extensions></trkpt>
      <trkpt lon="-3.335047" lat="54.567913"><ele>179.110184</ele><time>2021-08-12T09:39:26Z</time><extensions><speed>0.235485</speed><course>105.665154</course><hAcc>0.897757</hAcc><vAcc>0.712447</vAcc></extensions></trkpt>
      <trkpt lon="-3.335051" lat="54.567913"><ele>179.090302</ele><time>2021-08-12T09:39:27Z</time><extensions><speed>0.252819</speed><course>120.238884</course><hAcc>0.897928</hAcc><vAcc>0.712591</vAcc></extensions></trkpt>
      <trkpt lon="-3.335055" lat="54.567912"><ele>179.075302</ele><time>2021-08-12T09:39:28Z</time><extensions><speed>0.269778</speed><course>108.474937</course><hAcc>0.899819</hAcc><vAcc>0.714200</vAcc></extensions></trkpt>
      <trkpt lon="-3.335059" lat="54.567911"><ele>179.065674</ele><time>2021-08-12T09:39:29Z</time><extensions><speed>0.286715</speed><course>104.059807</course><hAcc>0.906415</hAcc><vAcc>0.719601</vAcc></extensions></trkpt>
      <trkpt lon="-3.335063" lat="54.567910"><ele>179.061386</ele><time>2021-08-12T09:39:30Z</time><extensions><speed>0.303672</speed><course>102.572708</course><hAcc>0.922539</hAcc><vAcc>0.732353</vAcc></extensions></trkpt>
      <trkpt lon="-3.335068" lat="54.567909"><ele>179.062241</ele><time>2021-08-12T09:39:31Z</time><extensions><speed>0.319738</speed><course>107.161850</course><hAcc>0.955040</hAcc><vAcc>0.757288</vAcc></extensions></trkpt>
      <trkpt lon="-3.335068" lat="54.567903"><ele>178.884048</ele><time>2021-08-12T09:39:32Z</time><extensions><speed>0.837405</speed><course>74.967865</course><hAcc>0.920910</hAcc><vAcc>0.726888</vAcc></extensions></trkpt>
      <trkpt lon="-3.335067" lat="54.567896"><ele>178.946411</ele><time>2021-08-12T09:39:33Z</time><extensions><speed>0.886992</speed><course>75.133301</course><hAcc>0.902134</hAcc><vAcc>0.701082</vAcc></extensions></trkpt>
      <trkpt lon="-3.335066" lat="54.567888"><ele>179.019958</ele><time>2021-08-12T09:39:34Z</time><extensions><speed>0.943069</speed><course>66.099251</course><hAcc>0.894586</hAcc><vAcc>0.685184</vAcc></extensions></trkpt>
      <trkpt lon="-3.335063" lat="54.567879"><ele>179.106628</ele><time>2021-08-12T09:39:35Z</time><extensions><speed>1.003020</speed><course>81.237114</course><hAcc>0.892717</hAcc><vAcc>0.675224</vAcc></extensions></trkpt>
      <trkpt lon="-3.335060" lat="54.567870"><ele>179.209595</ele><time>2021-08-12T09:39:36Z</time><extensions><speed>1.063468</speed><course>80.566093</course><hAcc>0.892979</hAcc><vAcc>0.668447</vAcc></extensions></trkpt>
      <trkpt lon="-3.335056" lat="54.567860"><ele>179.332474</ele><time>2021-08-12T09:39:37Z</time><extensions><speed>1.121646</speed><course>80.566109</course><hAcc>0.893357</hAcc><vAcc>0.663146</vAcc></extensions></trkpt>
      <trkpt lon="-3.335051" lat="54.567850"><ele>179.477844</ele><time>2021-08-12T09:39:38Z</time><extensions><speed>1.175858</speed><course>80.566093</course><hAcc>0.892891</hAcc><vAcc>0.658383</vAcc></extensions></trkpt>
      <trkpt lon="-3.335046" lat="54.567840"><ele>179.646103</ele><time>2021-08-12T09:39:39Z</time><extensions><speed>1.224886</speed><course>80.566093</course><hAcc>0.891293</hAcc><vAcc>0.653736</vAcc></extensions></trkpt>
      <trkpt lon="-3.335040" lat="54.567829"><ele>179.835617</ele><time>2021-08-12T09:39:40Z</time><extensions><speed>1.267364</speed><course>80.566093</course><hAcc>0.888665</hAcc><vAcc>0.649080</vAcc></extensions></trkpt>
      <trkpt lon="-3.335034" lat="54.567818"><ele>180.043503</ele><time>2021-08-12T09:39:41Z</time><extensions><speed>1.302078</speed><course>77.344681</course><hAcc>0.885291</hAcc><vAcc>0.644437</vAcc></extensions></trkpt>
      <trkpt lon="-3.335027" lat="54.567807"><ele>180.265518</ele><time>2021-08-12T09:39:42Z</time><extensions><speed>1.328872</speed><course>77.923714</course><hAcc>0.881504</hAcc><vAcc>0.639878</vAcc></extensions></trkpt>
      <trkpt lon="-3.335020" lat="54.567796"><ele>180.496399</ele><time>2021-08-12T09:39:43Z</time><extensions><speed>1.348023</speed><course>87.073212</course><hAcc>0.877608</hAcc><vAcc>0.635468</vAcc></extensions></trkpt>
      <trkpt lon="-3.335014" lat="54.567784"><ele>180.730865</ele><time>2021-08-12T09:39:44Z</time><extensions><speed>1.359643</speed><course>79.233902</course><hAcc>0.873849</hAcc><vAcc>0.631251</vAcc></extensions></trkpt>
      <trkpt lon="-3.335007" lat="54.567773"><ele>180.964828</ele><time>2021-08-12T09:39:45Z</time><extensions><speed>1.363558</speed><course>96.572746</course><hAcc>0.870399</hAcc><vAcc>0.627254</vAcc></extensions></trkpt>
      <trkpt lon="-3.335000" lat="54.567761"><ele>181.196014</ele><time>2021-08-12T09:39:46Z</time><extensions><speed>1.359259</speed><course>86.920219</course><hAcc>0.867355</hAcc><vAcc>0.623504</vAcc></extensions></trkpt>
      <trkpt lon="-3.334994" lat="54.567750"><ele>181.424225</ele><time>2021-08-12T09:39:47Z</time><extensions><speed>1.346393</speed><course>76.786201</course><hAcc>0.864764</hAcc><vAcc>0.620042</vAcc></extensions></trkpt>
      <trkpt lon="-3.334988" lat="54.567738"><ele>181.651611</ele><time>2021-08-12T09:39:48Z</time><extensions><speed>1.324984</speed><course>77.162971</course><hAcc>0.862637</hAcc><vAcc>0.616916</vAcc></extensions></trkpt>
      <trkpt lon="-3.334983" lat="54.567727"><ele>181.881302</ele><time>2021-08-12T09:39:49Z</time><extensions><speed>1.295912</speed><course>69.604996</course><hAcc>0.860940</hAcc><vAcc>0.614150</vAcc></extensions></trkpt>
      <trkpt lon="-3.334978" lat="54.567716"><ele>182.114410</ele><time>2021-08-12T09:39:50Z</time><extensions><speed>1.261118</speed><course>76.115456</course><hAcc>0.859603</hAcc><vAcc>0.611740</vAcc></extensions></trkpt>
      <trkpt lon="-3.334974" lat="54.567705"><ele>182.347961</ele><time>2021-08-12T09:39:51Z</time><extensions><speed>1.222258</speed><course>83.646278</course><hAcc>0.858533</hAcc><vAcc>0.609674</vAcc></extensions></trkpt>
      <trkpt lon="-3.334970" lat="54.567694"><ele>182.576691</ele><time>2021-08-12T09:39:52Z</time><extensions><speed>1.179950</speed><course>76.408623</course><hAcc>0.857643</hAcc><vAcc>0.607938</vAcc></extensions></trkpt>
      <trkpt lon="-3.334966" lat="54.567684"><ele>182.796738</ele><time>2021-08-12T09:39:53Z</time><extensions><speed>1.134548</speed><course>79.439453</course><hAcc>0.856874</hAcc><vAcc>0.606507</vAcc></extensions></trkpt>
      <trkpt lon="-3.334964" lat="54.567674"><ele>183.005646</ele><time>2021-08-12T09:39:54Z</time><extensions><speed>1.086811</speed><course>75.300941</course><hAcc>0.856203</hAcc><vAcc>0.605353</vAcc></extensions></trkpt>
      <trkpt lon="-3.334961" lat="54.567665"><ele>183.201492</ele><time>2021-08-12T09:39:55Z</time><extensions><speed>1.037796</speed><course>76.126534</course><hAcc>0.855624</hAcc><vAcc>0.604446</vAcc></extensions></trkpt>
      <trkpt lon="-3.334959" lat="54.567656"><ele>183.384567</ele><time>2021-08-12T09:39:56Z</time><extensions><speed>0.988513</speed><course>75.233688</course><hAcc>0.855124</hAcc><vAcc>0.603742</vAcc></extensions></trkpt>
      <trkpt lon="-3.334958" lat="54.567647"><ele>183.557617</ele><time>2021-08-12T09:39:57Z</time><extensions><speed>0.939929</speed><course>81.891060</course><hAcc>0.854693</hAcc><vAcc>0.603189</vAcc></extensions></trkpt>
      <trkpt lon="-3.334957" lat="54.567639"><ele>183.723282</ele><time>2021-08-12T09:39:58Z</time><extensions><speed>0.893242</speed><course>78.263519</course><hAcc>0.854333</hAcc><vAcc>0.602749</vAcc></extensions></trkpt>
      <trkpt lon="-3.334956" lat="54.567631"><ele>183.882660</ele><time>2021-08-12T09:39:59Z</time><extensions><speed>0.849281</speed><course>74.907532</course><hAcc>0.854060</hAcc><vAcc>0.602400</vAcc></extensions></trkpt>
      <trkpt lon="-3.334955" lat="54.567624"><ele>184.035965</ele><time>2021-08-12T09:40:00Z</time><extensions><speed>0.808497</speed><course>84.941742</course><hAcc>0.853901</hAcc><vAcc>0.602127</vAcc></extensions></trkpt>
      <trkpt lon="-3.334955" lat="54.567617"><ele>184.183655</ele><time>2021-08-12T09:40:01Z</time><extensions><speed>0.771420</speed><course>73.584358</course><hAcc>0.853880</hAcc><vAcc>0.601890</vAcc></extensions></trkpt>
      <trkpt lon="-3.334954" lat="54.567610"><ele>184.326202</ele><time>2021-08-12T09:40:02Z</time><extensions><speed>0.737554</speed><course>96.346313</course><hAcc>0.854018</hAcc><vAcc>0.601622</vAcc></extensions></trkpt>
      <trkpt lon="-3.334954" lat="54.567603"><ele>184.463776</ele><time>2021-08-12T09:40:03Z</time><extensions><speed>0.705094</speed><course>87.208282</course><hAcc>0.854334</hAcc><vAcc>0.601238</vAcc></extensions></trkpt>
      <trkpt lon="-3.334954" lat="54.567597"><ele>184.596848</ele><time>2021-08-12T09:40:04Z</time><extensions><speed>0.671782</speed><course>71.034035</course><hAcc>0.854863</hAcc><vAcc>0.600675</vAcc></extensions></trkpt>
      <trkpt lon="-3.334955" lat="54.567591"><ele>184.726166</ele><time>2021-08-12T09:40:05Z</time><extensions><speed>0.636007</speed><course>74.315559</course><hAcc>0.855660</hAcc><vAcc>0.599928</vAcc></extensions></trkpt>
      <trkpt lon="-3.334955" lat="54.567586"><ele>184.851654</ele><time>2021-08-12T09:40:06Z</time><extensions><speed>0.597218</speed><course>82.074326</course><hAcc>0.856802</hAcc><vAcc>0.599051</vAcc></extensions></trkpt>
      <trkpt lon="-3.334956" lat="54.567581"><ele>184.972198</ele><time>2021-08-12T09:40:07Z</time><extensions><speed>0.555651</speed><course>78.798851</course><hAcc>0.858375</hAcc><vAcc>0.598102</vAcc></extensions></trkpt>
      <trkpt lon="-3.334957" lat="54.567576"><ele>185.086609</ele><time>2021-08-12T09:40:08Z</time><extensions><speed>0.511792</speed><course>71.049065</course><hAcc>0.860470</hAcc><vAcc>0.597120</vAcc></extensions></trkpt>
      <trkpt lon="-3.334958" lat="54.567571"><ele>185.194046</ele><time>2021-08-12T09:40:09Z</time><extensions><speed>0.466540</speed><course>66.417450</course><hAcc>0.863153</hAcc><vAcc>0.596129</vAcc></extensions></trkpt>
      <trkpt lon="-3.334959" lat="54.567567"><ele>185.293610</ele><time>2021-08-12T09:40:10Z</time><extensions><speed>0.421654</speed><course>67.881187</course><hAcc>0.866429</hAcc><vAcc>0.595154</vAcc></extensions></trkpt>
      <trkpt lon="-3.334961" lat="54.567564"><ele>185.384293</ele><time>2021-08-12T09:40:11Z</time><extensions><speed>0.378379</speed><course>73.946594</course><hAcc>0.870223</hAcc><vAcc>0.594225</vAcc></extensions></trkpt>
      <trkpt lon="-3.334962" lat="54.567561"><ele>185.465439</ele><time>2021-08-12T09:40:12Z</time><extensions><speed>0.337278</speed><course>66.868568</course><hAcc>0.874384</hAcc><vAcc>0.593354</vAcc></extensions></trkpt>
      <trkpt lon="-3.334964" lat="54.567558"><ele>185.537445</ele><time>2021-08-12T09:40:13Z</time><extensions><speed>0.298712</speed><course>57.370388</course><hAcc>0.878704</hAcc><vAcc>0.592525</vAcc></extensions></trkpt>
      <trkpt lon="-3.334965" lat="54.567556"><ele>185.601486</ele><time>2021-08-12T09:40:14Z</time><extensions><speed>0.263619</speed><course>72.859169</course><hAcc>0.882921</hAcc><vAcc>0.591701</vAcc></extensions></trkpt>
      <trkpt lon="-3.334967" lat="54.567554"><ele>185.658478</ele><time>2021-08-12T09:40:15Z</time><extensions><speed>0.233129</speed><course>73.476959</course><hAcc>0.886723</hAcc><vAcc>0.590831</vAcc></extensions></trkpt>
      <trkpt lon="-3.334969" lat="54.567552"><ele>185.708542</ele><time>2021-08-12T09:40:16Z</time><extensions><speed>0.207204</speed><course>70.985191</course><hAcc>0.889779</hAcc><vAcc>0.589891</vAcc></extensions></trkpt>
      <trkpt lon="-3.334970" lat="54.567551"><ele>185.751465</ele><time>2021-08-12T09:40:17Z</time><extensions><speed>0.185605</speed><course>67.094063</course><hAcc>0.891786</hAcc><vAcc>0.588926</vAcc></extensions></trkpt>
      <trkpt lon="-3.334972" lat="54.567549"><ele>185.787308</ele><time>2021-08-12T09:40:18Z</time><extensions><speed>0.167880</speed><course>63.802017</course><hAcc>0.892543</hAcc><vAcc>0.588065</vAcc></extensions></trkpt>
      <trkpt lon="-3.334973" lat="54.567548"><ele>185.816940</ele><time>2021-08-12T09:40:19Z</time><extensions><speed>0.153533</speed><course>59.738853</course><hAcc>0.891993</hAcc><vAcc>0.587530</vAcc></extensions></trkpt>
      <trkpt lon="-3.334974" lat="54.567547"><ele>185.841629</ele><time>2021-08-12T09:40:20Z</time><extensions><speed>0.143034</speed><course>64.752533</course><hAcc>0.890207</hAcc><vAcc>0.587600</vAcc></extensions></trkpt>
      <trkpt lon="-3.334975" lat="54.567546"><ele>185.862473</ele><time>2021-08-12T09:40:21Z</time><extensions><speed>0.137737</speed><course>62.678837</course><hAcc>0.887380</hAcc><vAcc>0.588554</vAcc></extensions></trkpt>
      <trkpt lon="-3.334975" lat="54.567545"><ele>185.879913</ele><time>2021-08-12T09:40:22Z</time><extensions><speed>0.139388</speed><course>67.622025</course><hAcc>0.883821</hAcc><vAcc>0.590608</vAcc></extensions></trkpt>
      <trkpt lon="-3.334975" lat="54.567543"><ele>185.893600</ele><time>2021-08-12T09:40:23Z</time><extensions><speed>0.148033</speed><course>76.998230</course><hAcc>0.879920</hAcc><vAcc>0.593882</vAcc></extensions></trkpt>
      <trkpt lon="-3.334975" lat="54.567542"><ele>185.902725</ele><time>2021-08-12T09:40:24Z</time><extensions><speed>0.161416</speed><course>71.279175</course><hAcc>0.876087</hAcc><vAcc>0.598409</vAcc></extensions></trkpt>
      <trkpt lon="-3.334974" lat="54.567540"><ele>185.906616</ele><time>2021-08-12T09:40:25Z</time><extensions><speed>0.175801</speed><course>66.215858</course><hAcc>0.872682</hAcc><vAcc>0.604172</vAcc></extensions></trkpt>
      <trkpt lon="-3.334972" lat="54.567539"><ele>185.905548</ele><time>2021-08-12T09:40:26Z</time><extensions><speed>0.187576</speed><course>65.869171</course><hAcc>0.869968</hAcc><vAcc>0.611115</vAcc></extensions></trkpt>
      <trkpt lon="-3.334971" lat="54.567538"><ele>185.900818</ele><time>2021-08-12T09:40:27Z</time><extensions><speed>0.194768</speed><course>67.480362</course><hAcc>0.868104</hAcc><vAcc>0.619113</vAcc></extensions></trkpt>
      <trkpt lon="-3.334969" lat="54.567536"><ele>185.893982</ele><time>2021-08-12T09:40:28Z</time><extensions><speed>0.196676</speed><course>62.467888</course><hAcc>0.867134</hAcc><vAcc>0.627925</vAcc></extensions></trkpt>
      <trkpt lon="-3.334967" lat="54.567535"><ele>185.886200</ele><time>2021-08-12T09:40:29Z</time><extensions><speed>0.193189</speed><course>57.403885</course><hAcc>0.866992</hAcc><vAcc>0.637167</vAcc></extensions></trkpt>
      <trkpt lon="-3.334965" lat="54.567534"><ele>185.878174</ele><time>2021-08-12T09:40:30Z</time><extensions><speed>0.185170</speed><course>56.104736</course><hAcc>0.867521</hAcc><vAcc>0.646357</vAcc></extensions></trkpt>
      <trkpt lon="-3.334963" lat="54.567532"><ele>185.870407</ele><time>2021-08-12T09:40:31Z</time><extensions><speed>0.174092</speed><course>57.135769</course><hAcc>0.868522</hAcc><vAcc>0.655049</vAcc></extensions></trkpt>
      <trkpt lon="-3.334962" lat="54.567531"><ele>185.863373</ele><time>2021-08-12T09:40:32Z</time><extensions><speed>0.161186</speed><course>59.466648</course><hAcc>0.869803</hAcc><vAcc>0.662931</vAcc></extensions></trkpt>
      <trkpt lon="-3.334960" lat="54.567530"><ele>185.857559</ele><time>2021-08-12T09:40:33Z</time><extensions><speed>0.147415</speed><course>56.466339</course><hAcc>0.871197</hAcc><vAcc>0.669826</vAcc></extensions></trkpt>
      <trkpt lon="-3.334958" lat="54.567529"><ele>185.853439</ele><time>2021-08-12T09:40:34Z</time><extensions><speed>0.133458</speed><course>61.082169</course><hAcc>0.872578</hAcc><vAcc>0.675675</vAcc></extensions></trkpt>
      <trkpt lon="-3.334957" lat="54.567528"><ele>185.851425</ele><time>2021-08-12T09:40:35Z</time><extensions><speed>0.119724</speed><course>63.000797</course><hAcc>0.873856</hAcc><vAcc>0.680502</vAcc></extensions></trkpt>
      <trkpt lon="-3.334956" lat="54.567528"><ele>185.851944</ele><time>2021-08-12T09:40:36Z</time><extensions><speed>0.106366</speed><course>58.373146</course><hAcc>0.874980</hAcc><vAcc>0.684387</vAcc></extensions></trkpt>
      <trkpt lon="-3.334955" lat="54.567527"><ele>185.855362</ele><time>2021-08-12T09:40:37Z</time><extensions><speed>0.093296</speed><course>59.591164</course><hAcc>0.875931</hAcc><vAcc>0.687445</vAcc></extensions></trkpt>
      <trkpt lon="-3.334954" lat="54.567526"><ele>185.861954</ele><time>2021-08-12T09:40:38Z</time><extensions><speed>0.080211</speed><course>56.078835</course><hAcc>0.876710</hAcc><vAcc>0.689806</vAcc></extensions></trkpt>
      <trkpt lon="-3.334953" lat="54.567526"><ele>185.871964</ele><time>2021-08-12T09:40:39Z</time><extensions><speed>0.066618</speed><course>61.452141</course><hAcc>0.877337</hAcc><vAcc>0.691602</vAcc></extensions></trkpt>
      <trkpt lon="-3.334953" lat="54.567526"><ele>185.885529</ele><time>2021-08-12T09:40:40Z</time><extensions><speed>0.051870</speed><course>62.349373</course><hAcc>0.877839</hAcc><vAcc>0.692977</vAcc></extensions></trkpt>
      <trkpt lon="-3.334952" lat="54.567525"><ele>185.902618</ele><time>2021-08-12T09:40:41Z</time><extensions><speed>0.035189</speed><course>67.502327</course><hAcc>0.878250</hAcc><vAcc>0.694079</vAcc></extensions></trkpt>
      <trkpt lon="-3.334952" lat="54.567525"><ele>185.923126</ele><time>2021-08-12T09:40:42Z</time><extensions><speed>0.015725</speed><course>65.148994</course><hAcc>0.878603</hAcc><vAcc>0.695051</vAcc></extensions></trkpt>
      <trkpt lon="-3.334952" lat="54.567525"><ele>185.946686</ele><time>2021-08-12T09:40:43Z</time><extensions><speed>0.007848</speed><course>61.604351</course><hAcc>0.878925</hAcc><vAcc>0.696015</vAcc></extensions></trkpt>
      <trkpt lon="-3.334952" lat="54.567525"><ele>185.972794</ele><time>2021-08-12T09:40:44Z</time><extensions><speed>0.035728</speed><course>67.356651</course><hAcc>0.879240</hAcc><vAcc>0.697064</vAcc></extensions></trkpt>
      <trkpt lon="-3.334953" lat="54.567526"><ele>186.000656</ele><time>2021-08-12T09:40:45Z</time><extensions><speed>0.069441</speed><course>56.187717</course><hAcc>0.879560</hAcc><vAcc>0.698261</vAcc></extensions></trkpt>
      <trkpt lon="-3.334953" lat="54.567526"><ele>186.029221</ele><time>2021-08-12T09:40:46Z</time><extensions><speed>0.109765</speed><course>56.273357</course><hAcc>0.879891</hAcc><vAcc>0.699632</vAcc></extensions></trkpt>
      <trkpt lon="-3.334954" lat="54.567527"><ele>186.057083</ele><time>2021-08-12T09:40:47Z</time><extensions><speed>0.157461</speed><course>59.042984</course><hAcc>0.880228</hAcc><vAcc>0.701151</vAcc></extensions></trkpt>
      <trkpt lon="-3.334956" lat="54.567529"><ele>186.082565</ele><time>2021-08-12T09:40:48Z</time><extensions><speed>0.213098</speed><course>46.754299</course><hAcc>0.880558</hAcc><vAcc>0.702745</vAcc></extensions></trkpt>
      <trkpt lon="-3.334958" lat="54.567531"><ele>186.103592</ele><time>2021-08-12T09:40:49Z</time><extensions><speed>0.276963</speed><course>46.754295</course><hAcc>0.880865</hAcc><vAcc>0.704299</vAcc></extensions></trkpt>
      <trkpt lon="-3.334961" lat="54.567533"><ele>186.117706</ele><time>2021-08-12T09:40:50Z</time><extensions><speed>0.348962</speed><course>46.754295</course><hAcc>0.881129</hAcc><vAcc>0.705676</vAcc></extensions></trkpt>
      <trkpt lon="-3.334964" lat="54.567536"><ele>186.122177</ele><time>2021-08-12T09:40:51Z</time><extensions><speed>0.428516</speed><course>46.754295</course><hAcc>0.881333</hAcc><vAcc>0.706741</vAcc></extensions></trkpt>
      <trkpt lon="-3.334968" lat="54.567539"><ele>186.113922</ele><time>2021-08-12T09:40:52Z</time><extensions><speed>0.514435</speed><course>46.754295</course><hAcc>0.881466</hAcc><vAcc>0.707381</vAcc></extensions></trkpt>
      <trkpt lon="-3.334972" lat="54.567544"><ele>186.089600</ele><time>2021-08-12T09:40:53Z</time><extensions><speed>0.604789</speed><course>46.754295</course><hAcc>0.881524</hAcc><vAcc>0.707511</vAcc></extensions></trkpt>
      <trkpt lon="-3.334977" lat="54.567549"><ele>186.045746</ele><time>2021-08-12T09:40:54Z</time><extensions><speed>0.696775</speed><course>46.754295</course><hAcc>0.881516</hAcc><vAcc>0.707083</vAcc></extensions></trkpt>
      <trkpt lon="-3.334983" lat="54.567555"><ele>185.978851</ele><time>2021-08-12T09:40:55Z</time><extensions><speed>0.786584</speed><course>46.754292</course><hAcc>0.881460</hAcc><vAcc>0.706090</vAcc></extensions></trkpt>
      <trkpt lon="-3.334990" lat="54.567561"><ele>185.885544</ele><time>2021-08-12T09:40:56Z</time><extensions><speed>0.869277</speed><course>46.754295</course><hAcc>0.881388</hAcc><vAcc>0.704568</vAcc></extensions></trkpt>
      <trkpt lon="-3.334996" lat="54.567568"><ele>185.762802</ele><time>2021-08-12T09:40:57Z</time><extensions><speed>0.938722</speed><course>86.257805</course><hAcc>0.881341</hAcc><vAcc>0.702595</vAcc></extensions></trkpt>
      <trkpt lon="-3.335003" lat="54.567576"><ele>185.608658</ele><time>2021-08-12T09:40:58Z</time><extensions><speed>0.993418</speed><course>92.864906</course><hAcc>0.881360</hAcc><vAcc>0.700288</vAcc></extensions></trkpt>
      <trkpt lon="-3.335010" lat="54.567584"><ele>185.422760</ele><time>2021-08-12T09:40:59Z</time><extensions><speed>1.037247</speed><course>94.458534</course><hAcc>0.881488</hAcc><vAcc>0.697789</vAcc></extensions></trkpt>
      <trkpt lon="-3.335017" lat="54.567593"><ele>185.206039</ele><time>2021-08-12T09:41:00Z</time><extensions><speed>1.074133</speed><course>89.165138</course><hAcc>0.881751</hAcc><vAcc>0.695248</vAcc></extensions></trkpt>
      <trkpt lon="-3.335023" lat="54.567602"><ele>184.960770</ele><time>2021-08-12T09:41:01Z</time><extensions><speed>1.106452</speed><course>98.187202</course><hAcc>0.882154</hAcc><vAcc>0.692808</vAcc></extensions></trkpt>
      <trkpt lon="-3.335029" lat="54.567611"><ele>184.690796</ele><time>2021-08-12T09:41:02Z</time><extensions><speed>1.134489</speed><course>262.094696</course><hAcc>0.882671</hAcc><vAcc>0.690578</vAcc></extensions></trkpt>
      <trkpt lon="-3.335036" lat="54.567621"><ele>184.400986</ele><time>2021-08-12T09:41:03Z</time><extensions><speed>1.157737</speed><course>273.339569</course><hAcc>0.883255</hAcc><vAcc>0.688627</vAcc></extensions></trkpt>
      <trkpt lon="-3.335042" lat="54.567631"><ele>184.096085</ele><time>2021-08-12T09:41:04Z</time><extensions><speed>1.175397</speed><course>270.133057</course><hAcc>0.883872</hAcc><vAcc>0.686989</vAcc></extensions></trkpt>
      <trkpt lon="-3.335048" lat="54.567641"><ele>183.779831</ele><time>2021-08-12T09:41:05Z</time><extensions><speed>1.186074</speed><course>264.401459</course><hAcc>0.884510</hAcc><vAcc>0.685679</vAcc></extensions></trkpt>
      <trkpt lon="-3.335054" lat="54.567651"><ele>183.454742</ele><time>2021-08-12T09:41:06Z</time><extensions><speed>1.188731</speed><course>271.206299</course><hAcc>0.885154</hAcc><vAcc>0.684687</vAcc></extensions></trkpt>
      <trkpt lon="-3.335061" lat="54.567661"><ele>183.122314</ele><time>2021-08-12T09:41:07Z</time><extensions><speed>1.183301</speed><course>270.479279</course><hAcc>0.885762</hAcc><vAcc>0.683979</vAcc></extensions></trkpt>
      <trkpt lon="-3.335068" lat="54.567670"><ele>182.783096</ele><time>2021-08-12T09:41:08Z</time><extensions><speed>1.170063</speed><course>270.479279</course><hAcc>0.886259</hAcc><vAcc>0.683509</vAcc></extensions></trkpt>
      <trkpt lon="-3.335075" lat="54.567680"><ele>182.436966</ele><time>2021-08-12T09:41:09Z</time><extensions><speed>1.149595</speed><course>270.479279</course><hAcc>0.886551</hAcc><vAcc>0.683223</vAcc></extensions></trkpt>
      <trkpt lon="-3.335082" lat="54.567689"><ele>182.083954</ele><time>2021-08-12T09:41:10Z</time><extensions><speed>1.122790</speed><course>92.836548</course><hAcc>0.886544</hAcc><vAcc>0.683064</vAcc></extensions></trkpt>
      <trkpt lon="-3.335089" lat="54.567698"><ele>181.725388</ele><time>2021-08-12T09:41:11Z</time><extensions><speed>1.090304</speed><course>91.847809</course><hAcc>0.886169</hAcc><vAcc>0.682968</vAcc></extensions></trkpt>
      <trkpt lon="-3.335097" lat="54.567707"><ele>181.364410</ele><time>2021-08-12T09:41:12Z</time><extensions><speed>1.052242</speed><course>96.972961</course><hAcc>0.885411</hAcc><vAcc>0.682867</vAcc></extensions></trkpt>
      <trkpt lon="-3.335104" lat="54.567715"><ele>181.005524</ele><time>2021-08-12T09:41:13Z</time><extensions><speed>1.008557</speed><course>101.432434</course><hAcc>0.884321</hAcc><vAcc>0.682698</vAcc></extensions></trkpt>
      <trkpt lon="-3.335112" lat="54.567723"><ele>180.653656</ele><time>2021-08-12T09:41:14Z</time><extensions><speed>0.959990</speed><course>89.921867</course><hAcc>0.882989</hAcc><vAcc>0.682415</vAcc></extensions></trkpt>
      <trkpt lon="-3.335119" lat="54.567730"><ele>180.313461</ele><time>2021-08-12T09:41:15Z</time><extensions><speed>0.907230</speed><course>79.468422</course><hAcc>0.881514</hAcc><vAcc>0.681987</vAcc></extensions></trkpt>
      <trkpt lon="-3.335126" lat="54.567736"><ele>179.988907</ele><time>2021-08-12T09:41:16Z</time><extensions><speed>0.850579</speed><course>79.668663</course><hAcc>0.879984</hAcc><vAcc>0.681390</vAcc></extensions></trkpt>
      <trkpt lon="-3.335134" lat="54.567742"><ele>179.683243</ele><time>2021-08-12T09:41:17Z</time><extensions><speed>0.791288</speed><course>70.198914</course><hAcc>0.878481</hAcc><vAcc>0.680583</vAcc></extensions></trkpt>
      <trkpt lon="-3.335141" lat="54.567748"><ele>179.398911</ele><time>2021-08-12T09:41:18Z</time><extensions><speed>0.731357</speed><course>85.811096</course><hAcc>0.877058</hAcc><vAcc>0.679498</vAcc></extensions></trkpt>
      <trkpt lon="-3.335148" lat="54.567752"><ele>179.137604</ele><time>2021-08-12T09:41:19Z</time><extensions><speed>0.672436</speed><course>87.515213</course><hAcc>0.875740</hAcc><vAcc>0.678031</vAcc></extensions></trkpt>
      <trkpt lon="-3.335156" lat="54.567756"><ele>178.900024</ele><time>2021-08-12T09:41:20Z</time><extensions><speed>0.615196</speed><course>86.802406</course><hAcc>0.874529</hAcc><vAcc>0.676051</vAcc></extensions></trkpt>
      <trkpt lon="-3.335163" lat="54.567760"><ele>178.685959</ele><time>2021-08-12T09:41:21Z</time><extensions><speed>0.559158</speed><course>85.424927</course><hAcc>0.873423</hAcc><vAcc>0.673403</vAcc></extensions></trkpt>
      <trkpt lon="-3.335170" lat="54.567762"><ele>178.494370</ele><time>2021-08-12T09:41:22Z</time><extensions><speed>0.503836</speed><course>88.911957</course><hAcc>0.872426</hAcc><vAcc>0.669919</vAcc></extensions></trkpt>
      <trkpt lon="-3.335176" lat="54.567764"><ele>178.323624</ele><time>2021-08-12T09:41:23Z</time><extensions><speed>0.449420</speed><course>93.027184</course><hAcc>0.871564</hAcc><vAcc>0.665460</vAcc></extensions></trkpt>
      <trkpt lon="-3.335182" lat="54.567766"><ele>178.171677</ele><time>2021-08-12T09:41:24Z</time><extensions><speed>0.396719</speed><course>90.763535</course><hAcc>0.870889</hAcc><vAcc>0.659956</vAcc></extensions></trkpt>
      <trkpt lon="-3.335188" lat="54.567767"><ele>178.036758</ele><time>2021-08-12T09:41:25Z</time><extensions><speed>0.348227</speed><course>83.392509</course><hAcc>0.870479</hAcc><vAcc>0.653441</vAcc></extensions></trkpt>
      <trkpt lon="-3.335192" lat="54.567768"><ele>177.917938</ele><time>2021-08-12T09:41:26Z</time><extensions><speed>0.307590</speed><course>57.334152</course><hAcc>0.870423</hAcc><vAcc>0.646085</vAcc></extensions></trkpt>
      <trkpt lon="-3.335197" lat="54.567768"><ele>177.814743</ele><time>2021-08-12T09:41:27Z</time><extensions><speed>0.278161</speed><course>29.254333</course><hAcc>0.870801</hAcc><vAcc>0.638198</vAcc></extensions></trkpt>
      <trkpt lon="-3.335201" lat="54.567768"><ele>177.726059</ele><time>2021-08-12T09:41:28Z</time><extensions><speed>0.261977</speed><course>29.254333</course><hAcc>0.871644</hAcc><vAcc>0.630196</vAcc></extensions></trkpt>
      <trkpt lon="-3.335205" lat="54.567768"><ele>177.649490</ele><time>2021-08-12T09:41:29Z</time><extensions><speed>0.259097</speed><course>29.254333</course><hAcc>0.872900</hAcc><vAcc>0.622543</vAcc></extensions></trkpt>
      <trkpt lon="-3.335209" lat="54.567768"><ele>177.581558</ele><time>2021-08-12T09:41:30Z</time><extensions><speed>0.268390</speed><course>29.254332</course><hAcc>0.874406</hAcc><vAcc>0.615681</vAcc></extensions></trkpt>
      <trkpt lon="-3.335213" lat="54.567767"><ele>177.518509</ele><time>2021-08-12T09:41:31Z</time><extensions><speed>0.288536</speed><course>29.254333</course><hAcc>0.875914</hAcc><vAcc>0.609980</vAcc></extensions></trkpt>
      <trkpt lon="-3.335218" lat="54.567766"><ele>177.457291</ele><time>2021-08-12T09:41:32Z</time><extensions><speed>0.318338</speed><course>29.254332</course><hAcc>0.877174</hAcc><vAcc>0.605688</vAcc></extensions></trkpt>
      <trkpt lon="-3.335223" lat="54.567766"><ele>177.395035</ele><time>2021-08-12T09:41:33Z</time><extensions><speed>0.356455</speed><course>29.254332</course><hAcc>0.877996</hAcc><vAcc>0.602933</vAcc></extensions></trkpt>
      <trkpt lon="-3.335228" lat="54.567765"><ele>177.328278</ele><time>2021-08-12T09:41:34Z</time><extensions><speed>0.401434</speed><course>29.254333</course><hAcc>0.878270</hAcc><vAcc>0.601764</vAcc></extensions></trkpt>
      <trkpt lon="-3.335235" lat="54.567764"><ele>177.252777</ele><time>2021-08-12T09:41:35Z</time><extensions><speed>0.451724</speed><course>29.254333</course><hAcc>0.877956</hAcc><vAcc>0.602211</vAcc></extensions></trkpt>
      <trkpt lon="-3.335242" lat="54.567763"><ele>177.163589</ele><time>2021-08-12T09:41:36Z</time><extensions><speed>0.505335</speed><course>29.254332</course><hAcc>0.877087</hAcc><vAcc>0.604285</vAcc></extensions></trkpt>
      <trkpt lon="-3.335250" lat="54.567762"><ele>177.055084</ele><time>2021-08-12T09:41:37Z</time><extensions><speed>0.559595</speed><course>29.254333</course><hAcc>0.875783</hAcc><vAcc>0.607946</vAcc></extensions></trkpt>
      <trkpt lon="-3.335259" lat="54.567761"><ele>176.920563</ele><time>2021-08-12T09:41:38Z</time><extensions><speed>0.611543</speed><course>29.254337</course><hAcc>0.874236</hAcc><vAcc>0.613057</vAcc></extensions></trkpt>
      <trkpt lon="-3.335269" lat="54.567760"><ele>176.752991</ele><time>2021-08-12T09:41:39Z</time><extensions><speed>0.659305</speed><course>29.254337</course><hAcc>0.872675</hAcc><vAcc>0.619357</vAcc></extensions></trkpt>
      <trkpt lon="-3.335279" lat="54.567759"><ele>176.548203</ele><time>2021-08-12T09:41:40Z</time><extensions><speed>0.702698</speed><course>29.254339</course><hAcc>0.871326</hAcc><vAcc>0.626489</vAcc></extensions></trkpt>
      <trkpt lon="-3.335290" lat="54.567759"><ele>176.306152</ele><time>2021-08-12T09:41:41Z</time><extensions><speed>0.742199</speed><course>29.254337</course><hAcc>0.870362</hAcc><vAcc>0.634062</vAcc></extensions></trkpt>
      <trkpt lon="-3.335302" lat="54.567758"><ele>176.029739</ele><time>2021-08-12T09:41:42Z</time><extensions><speed>0.778483</speed><course>29.254339</course><hAcc>0.869862</hAcc><vAcc>0.641710</vAcc></extensions></trkpt>
      <trkpt lon="-3.335314" lat="54.567758"><ele>175.723587</ele><time>2021-08-12T09:41:43Z</time><extensions><speed>0.812521</speed><course>353.139893</course><hAcc>0.869818</hAcc><vAcc>0.649117</vAcc></extensions></trkpt>
      <trkpt lon="-3.335327" lat="54.567758"><ele>175.393250</ele><time>2021-08-12T09:41:44Z</time><extensions><speed>0.845672</speed><course>-1.000000</course><hAcc>0.870163</hAcc><vAcc>0.656049</vAcc></extensions></trkpt>
      <trkpt lon="-3.335340" lat="54.567759"><ele>175.044388</ele><time>2021-08-12T09:41:45Z</time><extensions><speed>0.880047</speed><course>-1.000000</course><hAcc>0.870803</hAcc><vAcc>0.662366</vAcc></extensions></trkpt>
      <trkpt lon="-3.335354" lat="54.567759"><ele>174.681625</ele><time>2021-08-12T09:41:46Z</time><extensions><speed>0.917269</speed><course>-1.000000</course><hAcc>0.871641</hAcc><vAcc>0.668016</vAcc></extensions></trkpt>
      <trkpt lon="-3.335369" lat="54.567760"><ele>174.308609</ele><time>2021-08-12T09:41:47Z</time><extensions><speed>0.957198</speed><course>-1.000000</course><hAcc>0.872591</hAcc><vAcc>0.673022</vAcc></extensions></trkpt>
      <trkpt lon="-3.335384" lat="54.567760"><ele>173.929382</ele><time>2021-08-12T09:41:48Z</time><extensions><speed>0.998884</speed><course>-1.000000</course><hAcc>0.873584</hAcc><vAcc>0.677451</vAcc></extensions></trkpt>
      <trkpt lon="-3.335400" lat="54.567760"><ele>173.548721</ele><time>2021-08-12T09:41:49Z</time><extensions><speed>1.041048</speed><course>-1.000000</course><hAcc>0.874572</hAcc><vAcc>0.681398</vAcc></extensions></trkpt>
      <trkpt lon="-3.335416" lat="54.567761"><ele>173.171585</ele><time>2021-08-12T09:41:50Z</time><extensions><speed>1.082307</speed><course>-1.000000</course><hAcc>0.875522</hAcc><vAcc>0.684953</vAcc></extensions></trkpt>
      <trkpt lon="-3.335433" lat="54.567761"><ele>172.802353</ele><time>2021-08-12T09:41:51Z</time><extensions><speed>1.121687</speed><course>-1.000000</course><hAcc>0.876415</hAcc><vAcc>0.688184</vAcc></extensions></trkpt>
      <trkpt lon="-3.335451" lat="54.567761"><ele>172.444427</ele><time>2021-08-12T09:41:52Z</time><extensions><speed>1.157999</speed><course>-1.000000</course><hAcc>0.877239</hAcc><vAcc>0.691135</vAcc></extensions></trkpt>
      <trkpt lon="-3.335469" lat="54.567761"><ele>172.100693</ele><time>2021-08-12T09:41:53Z</time><extensions><speed>1.190442</speed><course>-1.000000</course><hAcc>0.877991</hAcc><vAcc>0.693825</vAcc></extensions></trkpt>
      <trkpt lon="-3.335488" lat="54.567761"><ele>171.773712</ele><time>2021-08-12T09:41:54Z</time><extensions><speed>1.219308</speed><course>-1.000000</course><hAcc>0.878668</hAcc><vAcc>0.696261</vAcc></extensions></trkpt>
      <trkpt lon="-3.335507" lat="54.567761"><ele>171.465820</ele><time>2021-08-12T09:41:55Z</time><extensions><speed>1.244899</speed><course>74.830536</course><hAcc>0.879271</hAcc><vAcc>0.698442</vAcc></extensions></trkpt>
      <trkpt lon="-3.335526" lat="54.567761"><ele>171.178757</ele><time>2021-08-12T09:41:56Z</time><extensions><speed>1.266635</speed><course>62.161198</course><hAcc>0.879802</hAcc><vAcc>0.700367</vAcc></extensions></trkpt>
      <trkpt lon="-3.335546" lat="54.567761"><ele>170.913895</ele><time>2021-08-12T09:41:57Z</time><extensions><speed>1.283307</speed><course>66.043793</course><hAcc>0.880264</hAcc><vAcc>0.702035</vAcc></extensions></trkpt>
      <trkpt lon="-3.335566" lat="54.567760"><ele>170.671997</ele><time>2021-08-12T09:41:58Z</time><extensions><speed>1.293467</speed><course>75.803009</course><hAcc>0.880658</hAcc><vAcc>0.703451</vAcc></extensions></trkpt>
      <trkpt lon="-3.335586" lat="54.567759"><ele>170.453003</ele><time>2021-08-12T09:41:59Z</time><extensions><speed>1.295362</speed><course>76.191063</course><hAcc>0.880988</hAcc><vAcc>0.704623</vAcc></extensions></trkpt>
      <trkpt lon="-3.335605" lat="54.567758"><ele>170.256516</ele><time>2021-08-12T09:42:00Z</time><extensions><speed>1.287084</speed><course>76.349960</course><hAcc>0.881257</hAcc><vAcc>0.705563</vAcc></extensions></trkpt>
      <trkpt lon="-3.335625" lat="54.567757"><ele>170.082535</ele><time>2021-08-12T09:42:01Z</time><extensions><speed>1.267648</speed><course>78.477806</course><hAcc>0.881469</hAcc><vAcc>0.706284</vAcc></extensions></trkpt>
      <trkpt lon="-3.335644" lat="54.567756"><ele>169.931366</ele><time>2021-08-12T09:42:02Z</time><extensions><speed>1.236959</speed><course>75.070290</course><hAcc>0.881631</hAcc><vAcc>0.706804</vAcc></extensions></trkpt>
      <trkpt lon="-3.335663" lat="54.567755"><ele>169.803177</ele><time>2021-08-12T09:42:03Z</time><extensions><speed>1.194144</speed><course>69.086029</course><hAcc>0.881747</hAcc><vAcc>0.707143</vAcc></extensions></trkpt>
      <trkpt lon="-3.335681" lat="54.567753"><ele>169.697342</ele><time>2021-08-12T09:42:04Z</time><extensions><speed>1.137765</speed><course>68.949226</course><hAcc>0.881825</hAcc><vAcc>0.707330</vAcc></extensions></trkpt>
      <trkpt lon="-3.335698" lat="54.567752"><ele>169.611649</ele><time>2021-08-12T09:42:05Z</time><extensions><speed>1.066604</speed><course>71.686111</course><hAcc>0.881871</hAcc><vAcc>0.707394</vAcc></extensions></trkpt>
      <trkpt lon="-3.335713" lat="54.567750"><ele>169.542435</ele><time>2021-08-12T09:42:06Z</time><extensions><speed>0.980621</speed><course>76.597496</course><hAcc>0.881892</hAcc><vAcc>0.707370</vAcc></extensions></trkpt>
      <trkpt lon="-3.335727" lat="54.567749"><ele>169.485550</ele><time>2021-08-12T09:42:07Z</time><extensions><speed>0.881729</speed><course>90.005066</course><hAcc>0.881896</hAcc><vAcc>0.707292</vAcc></extensions></trkpt>
      <trkpt lon="-3.335740" lat="54.567747"><ele>169.437134</ele><time>2021-08-12T09:42:08Z</time><extensions><speed>0.773778</speed><course>83.948074</course><hAcc>0.881889</hAcc><vAcc>0.707192</vAcc></extensions></trkpt>
      <trkpt lon="-3.335751" lat="54.567745"><ele>169.394257</ele><time>2021-08-12T09:42:09Z</time><extensions><speed>0.662444</speed><course>76.996796</course><hAcc>0.881878</hAcc><vAcc>0.707094</vAcc></extensions></trkpt>
      <trkpt lon="-3.335760" lat="54.567744"><ele>169.355148</ele><time>2021-08-12T09:42:10Z</time><extensions><speed>0.555441</speed><course>79.507355</course><hAcc>0.881867</hAcc><vAcc>0.707015</vAcc></extensions></trkpt>
      <trkpt lon="-3.335767" lat="54.567742"><ele>169.319183</ele><time>2021-08-12T09:42:11Z</time><extensions><speed>0.461241</speed><course>72.096832</course><hAcc>0.881861</hAcc><vAcc>0.706966</vAcc></extensions></trkpt>
      <trkpt lon="-3.335772" lat="54.567740"><ele>169.286880</ele><time>2021-08-12T09:42:12Z</time><extensions><speed>0.387459</speed><course>80.368279</course><hAcc>0.881862</hAcc><vAcc>0.706956</vAcc></extensions></trkpt>
      <trkpt lon="-3.335776" lat="54.567737"><ele>169.259338</ele><time>2021-08-12T09:42:13Z</time><extensions><speed>0.341238</speed><course>78.982643</course><hAcc>0.881872</hAcc><vAcc>0.706991</vAcc></extensions></trkpt>
      <trkpt lon="-3.335779" lat="54.567735"><ele>169.237549</ele><time>2021-08-12T09:42:14Z</time><extensions><speed>0.326694</speed><course>81.075706</course><hAcc>0.881891</hAcc><vAcc>0.707075</vAcc></extensions></trkpt>
      <trkpt lon="-3.335781" lat="54.567732"><ele>169.222275</ele><time>2021-08-12T09:42:15Z</time><extensions><speed>0.340767</speed><course>81.007790</course><hAcc>0.881919</hAcc><vAcc>0.707202</vAcc></extensions></trkpt>
      <trkpt lon="-3.335782" lat="54.567729"><ele>169.213959</ele><time>2021-08-12T09:42:16Z</time><extensions><speed>0.374495</speed><course>78.272133</course><hAcc>0.881954</hAcc><vAcc>0.707367</vAcc></extensions></trkpt>
      <trkpt lon="-3.335782" lat="54.567725"><ele>169.212784</ele><time>2021-08-12T09:42:17Z</time><extensions><speed>0.418576</speed><course>73.069588</course><hAcc>0.881994</hAcc><vAcc>0.707559</vAcc></extensions></trkpt>
      <trkpt lon="-3.335782" lat="54.567721"><ele>169.218628</ele><time>2021-08-12T09:42:18Z</time><extensions><speed>0.466261</speed><course>77.189682</course><hAcc>0.882037</hAcc><vAcc>0.707766</vAcc></extensions></trkpt>
      <trkpt lon="-3.335782" lat="54.567717"><ele>169.231094</ele><time>2021-08-12T09:42:19Z</time><extensions><speed>0.513152</speed><course>75.197517</course><hAcc>0.882080</hAcc><vAcc>0.707971</vAcc></extensions></trkpt>
      <trkpt lon="-3.335782" lat="54.567712"><ele>169.249619</ele><time>2021-08-12T09:42:20Z</time><extensions><speed>0.556051</speed><course>67.733307</course><hAcc>0.882120</hAcc><vAcc>0.708156</vAcc></extensions></trkpt>
      <trkpt lon="-3.335782" lat="54.567707"><ele>169.273575</ele><time>2021-08-12T09:42:21Z</time><extensions><speed>0.591976</speed><course>69.123688</course><hAcc>0.882156</hAcc><vAcc>0.708305</vAcc></extensions></trkpt>
      <trkpt lon="-3.335783" lat="54.567702"><ele>169.302155</ele><time>2021-08-12T09:42:22Z</time><extensions><speed>0.617900</speed><course>71.299400</course><hAcc>0.882186</hAcc><vAcc>0.708410</vAcc></extensions></trkpt>
      <trkpt lon="-3.335784" lat="54.567696"><ele>169.333878</ele><time>2021-08-12T09:42:23Z</time><extensions><speed>0.630910</speed><course>77.479210</course><hAcc>0.882208</hAcc><vAcc>0.708471</vAcc></extensions></trkpt>
      <trkpt lon="-3.335786" lat="54.567691"><ele>169.366562</ele><time>2021-08-12T09:42:24Z</time><extensions><speed>0.628843</speed><course>68.623329</course><hAcc>0.882221</hAcc><vAcc>0.708495</vAcc></extensions></trkpt>
      <trkpt lon="-3.335788" lat="54.567685"><ele>169.397858</ele><time>2021-08-12T09:42:25Z</time><extensions><speed>0.610759</speed><course>63.866425</course><hAcc>0.882225</hAcc><vAcc>0.708485</vAcc></extensions></trkpt>
      <trkpt lon="-3.335791" lat="54.567680"><ele>169.425903</ele><time>2021-08-12T09:42:26Z</time><extensions><speed>0.576332</speed><course>76.291603</course><hAcc>0.882218</hAcc><vAcc>0.708447</vAcc></extensions></trkpt>
      <trkpt lon="-3.335794" lat="54.567675"><ele>169.449570</ele><time>2021-08-12T09:42:27Z</time><extensions><speed>0.525345</speed><course>71.777351</course><hAcc>0.882199</hAcc><vAcc>0.708380</vAcc></extensions></trkpt>
      <trkpt lon="-3.335797" lat="54.567671"><ele>169.468475</ele><time>2021-08-12T09:42:28Z</time><extensions><speed>0.458361</speed><course>76.476341</course><hAcc>0.882168</hAcc><vAcc>0.708278</vAcc></extensions></trkpt>
      <trkpt lon="-3.335799" lat="54.567668"><ele>169.483170</ele><time>2021-08-12T09:42:29Z</time><extensions><speed>0.377203</speed><course>63.346680</course><hAcc>0.882123</hAcc><vAcc>0.708136</vAcc></extensions></trkpt>
      <trkpt lon="-3.335801" lat="54.567665"><ele>169.494934</ele><time>2021-08-12T09:42:30Z</time><extensions><speed>0.284283</speed><course>60.883244</course><hAcc>0.882061</hAcc><vAcc>0.707946</vAcc></extensions></trkpt>
      <trkpt lon="-3.335803" lat="54.567663"><ele>169.505081</ele><time>2021-08-12T09:42:31Z</time><extensions><speed>0.182265</speed><course>66.100471</course><hAcc>0.881981</hAcc><vAcc>0.707702</vAcc></extensions></trkpt>
      <trkpt lon="-3.335803" lat="54.567662"><ele>169.514435</ele><time>2021-08-12T09:42:32Z</time><extensions><speed>0.077910</speed><course>66.284729</course><hAcc>0.881878</hAcc><vAcc>0.707392</vAcc></extensions></trkpt>
      <trkpt lon="-3.335803" lat="54.567662"><ele>169.523148</ele><time>2021-08-12T09:42:33Z</time><extensions><speed>0.064301</speed><course>70.183884</course><hAcc>0.881751</hAcc><vAcc>0.707002</vAcc></extensions></trkpt>
      <trkpt lon="-3.335801" lat="54.567662"><ele>169.530029</ele><time>2021-08-12T09:42:34Z</time><extensions><speed>0.171776</speed><course>69.091454</course><hAcc>0.881598</hAcc><vAcc>0.706514</vAcc></extensions></trkpt>
      <trkpt lon="-3.335799" lat="54.567664"><ele>169.532196</ele><time>2021-08-12T09:42:35Z</time><extensions><speed>0.285013</speed><course>67.595528</course><hAcc>0.881418</hAcc><vAcc>0.705910</vAcc></extensions></trkpt>
      <trkpt lon="-3.335795" lat="54.567666"><ele>169.525879</ele><time>2021-08-12T09:42:36Z</time><extensions><speed>0.392920</speed><course>69.079941</course><hAcc>0.881212</hAcc><vAcc>0.705179</vAcc></extensions></trkpt>
      <trkpt lon="-3.335791" lat="54.567669"><ele>169.508591</ele><time>2021-08-12T09:42:37Z</time><extensions><speed>0.489176</speed><course>67.638985</course><hAcc>0.880984</hAcc><vAcc>0.704322</vAcc></extensions></trkpt>
      <trkpt lon="-3.335785" lat="54.567673"><ele>169.480057</ele><time>2021-08-12T09:42:38Z</time><extensions><speed>0.569022</speed><course>67.902077</course><hAcc>0.880739</hAcc><vAcc>0.703357</vAcc></extensions></trkpt>
      <trkpt lon="-3.335780" lat="54.567677"><ele>169.441193</ele><time>2021-08-12T09:42:39Z</time><extensions><speed>0.629350</speed><course>68.213737</course><hAcc>0.880484</hAcc><vAcc>0.702320</vAcc></extensions></trkpt>
      <trkpt lon="-3.335774" lat="54.567682"><ele>169.393204</ele><time>2021-08-12T09:42:40Z</time><extensions><speed>0.668117</speed><course>58.646133</course><hAcc>0.880227</hAcc><vAcc>0.701255</vAcc></extensions></trkpt>
      <trkpt lon="-3.335769" lat="54.567687"><ele>169.337463</ele><time>2021-08-12T09:42:41Z</time><extensions><speed>0.685613</speed><course>60.787758</course><hAcc>0.879977</hAcc><vAcc>0.700207</vAcc></extensions></trkpt>
      <trkpt lon="-3.335764" lat="54.567692"><ele>169.275345</ele><time>2021-08-12T09:42:42Z</time><extensions><speed>0.683830</speed><course>59.107254</course><hAcc>0.879746</hAcc><vAcc>0.699224</vAcc></extensions></trkpt>
      <trkpt lon="-3.335759" lat="54.567698"><ele>169.208771</ele><time>2021-08-12T09:42:43Z</time><extensions><speed>0.665210</speed><course>59.308796</course><hAcc>0.879543</hAcc><vAcc>0.698354</vAcc></extensions></trkpt>
      <trkpt lon="-3.335756" lat="54.567703"><ele>169.140457</ele><time>2021-08-12T09:42:44Z</time><extensions><speed>0.633001</speed><course>63.536522</course><hAcc>0.879376</hAcc><vAcc>0.697649</vAcc></extensions></trkpt>
      <trkpt lon="-3.335754" lat="54.567709"><ele>169.073349</ele><time>2021-08-12T09:42:45Z</time><extensions><speed>0.590965</speed><course>64.110619</course><hAcc>0.879251</hAcc><vAcc>0.697151</vAcc></extensions></trkpt>
      <trkpt lon="-3.335752" lat="54.567714"><ele>169.009949</ele><time>2021-08-12T09:42:46Z</time><extensions><speed>0.542910</speed><course>57.783936</course><hAcc>0.879171</hAcc><vAcc>0.696886</vAcc></extensions></trkpt>
      <trkpt lon="-3.335752" lat="54.567718"><ele>168.952332</ele><time>2021-08-12T09:42:47Z</time><extensions><speed>0.491535</speed><course>62.673740</course><hAcc>0.879136</hAcc><vAcc>0.696855</vAcc></extensions></trkpt>
      <trkpt lon="-3.335752" lat="54.567723"><ele>168.902420</ele><time>2021-08-12T09:42:48Z</time><extensions><speed>0.438604</speed><course>68.268181</course><hAcc>0.879140</hAcc><vAcc>0.697025</vAcc></extensions></trkpt>
      <trkpt lon="-3.335753" lat="54.567726"><ele>168.861984</ele><time>2021-08-12T09:42:49Z</time><extensions><speed>0.387593</speed><course>59.735432</course><hAcc>0.879175</hAcc><vAcc>0.697337</vAcc></extensions></trkpt>
      <trkpt lon="-3.335755" lat="54.567729"><ele>168.831772</ele><time>2021-08-12T09:42:50Z</time><extensions><speed>0.343239</speed><course>59.192490</course><hAcc>0.879232</hAcc><vAcc>0.697719</vAcc></extensions></trkpt>
      <trkpt lon="-3.335758" lat="54.567732"><ele>168.811157</ele><time>2021-08-12T09:42:51Z</time><extensions><speed>0.309272</speed><course>60.825825</course><hAcc>0.879303</hAcc><vAcc>0.698102</vAcc></extensions></trkpt>
      <trkpt lon="-3.335760" lat="54.567734"><ele>168.798904</ele><time>2021-08-12T09:42:52Z</time><extensions><speed>0.288103</speed><course>62.921200</course><hAcc>0.879380</hAcc><vAcc>0.698436</vAcc></extensions></trkpt>
      <trkpt lon="-3.335764" lat="54.567736"><ele>168.793793</ele><time>2021-08-12T09:42:53Z</time><extensions><speed>0.280980</speed><course>59.145714</course><hAcc>0.879459</hAcc><vAcc>0.698697</vAcc></extensions></trkpt>
      <trkpt lon="-3.335767" lat="54.567737"><ele>168.794617</ele><time>2021-08-12T09:42:54Z</time><extensions><speed>0.287506</speed><course>54.852036</course><hAcc>0.879538</hAcc><vAcc>0.698888</vAcc></extensions></trkpt>
      <trkpt lon="-3.335772" lat="54.567738"><ele>168.800186</ele><time>2021-08-12T09:42:55Z</time><extensions><speed>0.305556</speed><course>52.958679</course><hAcc>0.879620</hAcc><vAcc>0.699046</vAcc></extensions></trkpt>
      <trkpt lon="-3.335776" lat="54.567739"><ele>168.809631</ele><time>2021-08-12T09:42:56Z</time><extensions><speed>0.332100</speed><course>51.642593</course><hAcc>0.879706</hAcc><vAcc>0.699225</vAcc></extensions></trkpt>
      <trkpt lon="-3.335782" lat="54.567739"><ele>168.822159</ele><time>2021-08-12T09:42:57Z</time><extensions><speed>0.364022</speed><course>50.915668</course><hAcc>0.879801</hAcc><vAcc>0.699479</vAcc></extensions></trkpt>
      <trkpt lon="-3.335788" lat="54.567739"><ele>168.836899</ele><time>2021-08-12T09:42:58Z</time><extensions><speed>0.398171</speed><course>43.517220</course><hAcc>0.879906</hAcc><vAcc>0.699832</vAcc></extensions></trkpt>
      <trkpt lon="-3.335794" lat="54.567739"><ele>168.852905</ele><time>2021-08-12T09:42:59Z</time><extensions><speed>0.431810</speed><course>53.213661</course><hAcc>0.880022</hAcc><vAcc>0.700283</vAcc></extensions></trkpt>
      <trkpt lon="-3.335801" lat="54.567739"><ele>168.869232</ele><time>2021-08-12T09:43:00Z</time><extensions><speed>0.463720</speed><course>42.672325</course><hAcc>0.880148</hAcc><vAcc>0.700809</vAcc></extensions></trkpt>
      <trkpt lon="-3.335808" lat="54.567739"><ele>168.885025</ele><time>2021-08-12T09:43:01Z</time><extensions><speed>0.492636</speed><course>57.842590</course><hAcc>0.880281</hAcc><vAcc>0.701376</vAcc></extensions></trkpt>
      <trkpt lon="-3.335816" lat="54.567739"><ele>168.899872</ele><time>2021-08-12T09:43:02Z</time><extensions><speed>0.517396</speed><course>54.432369</course><hAcc>0.880419</hAcc><vAcc>0.701951</vAcc></extensions></trkpt>
      <trkpt lon="-3.335824" lat="54.567739"><ele>168.913727</ele><time>2021-08-12T09:43:03Z</time><extensions><speed>0.538402</speed><course>53.099045</course><hAcc>0.880557</hAcc><vAcc>0.702508</vAcc></extensions></trkpt>
      <trkpt lon="-3.335833" lat="54.567739"><ele>168.927032</ele><time>2021-08-12T09:43:04Z</time><extensions><speed>0.556418</speed><course>52.709480</course><hAcc>0.880691</hAcc><vAcc>0.703028</vAcc></extensions></trkpt>
      <trkpt lon="-3.335842" lat="54.567740"><ele>168.940552</ele><time>2021-08-12T09:43:05Z</time><extensions><speed>0.571680</speed><course>55.566643</course><hAcc>0.880820</hAcc><vAcc>0.703500</vAcc></extensions></trkpt>
      <trkpt lon="-3.335850" lat="54.567740"><ele>168.954865</ele><time>2021-08-12T09:43:06Z</time><extensions><speed>0.583168</speed><course>50.999676</course><hAcc>0.880940</hAcc><vAcc>0.703921</vAcc></extensions></trkpt>
      <trkpt lon="-3.335859" lat="54.567741"><ele>168.970337</ele><time>2021-08-12T09:43:07Z</time><extensions><speed>0.589838</speed><course>49.932701</course><hAcc>0.881052</hAcc><vAcc>0.704295</vAcc></extensions></trkpt>
      <trkpt lon="-3.335869" lat="54.567741"><ele>168.987457</ele><time>2021-08-12T09:43:08Z</time><extensions><speed>0.591850</speed><course>44.103298</course><hAcc>0.881155</hAcc><vAcc>0.704630</vAcc></extensions></trkpt>
      <trkpt lon="-3.335878" lat="54.567742"><ele>169.007278</ele><time>2021-08-12T09:43:09Z</time><extensions><speed>0.589489</speed><course>35.959499</course><hAcc>0.881249</hAcc><vAcc>0.704937</vAcc></extensions></trkpt>
      <trkpt lon="-3.335887" lat="54.567743"><ele>169.031525</ele><time>2021-08-12T09:43:10Z</time><extensions><speed>0.584413</speed><course>30.952709</course><hAcc>0.881336</hAcc><vAcc>0.705224</vAcc></extensions></trkpt>
      <trkpt lon="-3.335895" lat="54.567744"><ele>169.062592</ele><time>2021-08-12T09:43:11Z</time><extensions><speed>0.579744</speed><course>43.709347</course><hAcc>0.881416</hAcc><vAcc>0.705495</vAcc></extensions></trkpt>
      <trkpt lon="-3.335904" lat="54.567744"><ele>169.102997</ele><time>2021-08-12T09:43:12Z</time><extensions><speed>0.577530</speed><course>37.574459</course><hAcc>0.881491</hAcc><vAcc>0.705753</vAcc></extensions></trkpt>
      <trkpt lon="-3.335913" lat="54.567745"><ele>169.154846</ele><time>2021-08-12T09:43:13Z</time><extensions><speed>0.577991</speed><course>40.028488</course><hAcc>0.881561</hAcc><vAcc>0.706000</vAcc></extensions></trkpt>
      <trkpt lon="-3.335922" lat="54.567746"><ele>169.219604</ele><time>2021-08-12T09:43:14Z</time><extensions><speed>0.579946</speed><course>39.088745</course><hAcc>0.881626</hAcc><vAcc>0.706239</vAcc></extensions></trkpt>
      <trkpt lon="-3.335931" lat="54.567746"><ele>169.298309</ele><time>2021-08-12T09:43:15Z</time><extensions><speed>0.581830</speed><course>38.227211</course><hAcc>0.881684</hAcc><vAcc>0.706470</vAcc></extensions></trkpt>
      <trkpt lon="-3.335940" lat="54.567747"><ele>169.390900</ele><time>2021-08-12T09:43:16Z</time><extensions><speed>0.583268</speed><course>38.580025</course><hAcc>0.881734</hAcc><vAcc>0.706688</vAcc></extensions></trkpt>
      <trkpt lon="-3.335949" lat="54.567747"><ele>169.495728</ele><time>2021-08-12T09:43:17Z</time><extensions><speed>0.584916</speed><course>36.225418</course><hAcc>0.881774</hAcc><vAcc>0.706883</vAcc></extensions></trkpt>
      <trkpt lon="-3.335958" lat="54.567748"><ele>169.609818</ele><time>2021-08-12T09:43:18Z</time><extensions><speed>0.587223</speed><course>36.482189</course><hAcc>0.881801</hAcc><vAcc>0.707038</vAcc></extensions></trkpt>
      <trkpt lon="-3.335967" lat="54.567748"><ele>169.729462</ele><time>2021-08-12T09:43:19Z</time><extensions><speed>0.590098</speed><course>45.117634</course><hAcc>0.881812</hAcc><vAcc>0.707136</vAcc></extensions></trkpt>
      <trkpt lon="-3.335976" lat="54.567748"><ele>169.851242</ele><time>2021-08-12T09:43:20Z</time><extensions><speed>0.593108</speed><course>40.176819</course><hAcc>0.881807</hAcc><vAcc>0.707159</vAcc></extensions></trkpt>
      <trkpt lon="-3.335985" lat="54.567749"><ele>169.972870</ele><time>2021-08-12T09:43:21Z</time><extensions><speed>0.595776</speed><course>42.588684</course><hAcc>0.881782</hAcc><vAcc>0.707094</vAcc></extensions></trkpt>
      <trkpt lon="-3.335994" lat="54.567750"><ele>170.093018</ele><time>2021-08-12T09:43:22Z</time><extensions><speed>0.597574</speed><course>41.771687</course><hAcc>0.881738</hAcc><vAcc>0.706935</vAcc></extensions></trkpt>
      <trkpt lon="-3.336003" lat="54.567751"><ele>170.210968</ele><time>2021-08-12T09:43:23Z</time><extensions><speed>0.597611</speed><course>41.372017</course><hAcc>0.881674</hAcc><vAcc>0.706683</vAcc></extensions></trkpt>
      <trkpt lon="-3.336012" lat="54.567752"><ele>170.326157</ele><time>2021-08-12T09:43:24Z</time><extensions><speed>0.594867</speed><course>37.017429</course><hAcc>0.881592</hAcc><vAcc>0.706348</vAcc></extensions></trkpt>
      <trkpt lon="-3.336021" lat="54.567754"><ele>170.437546</ele><time>2021-08-12T09:43:25Z</time><extensions><speed>0.589387</speed><course>28.588495</course><hAcc>0.881495</hAcc><vAcc>0.705942</vAcc></extensions></trkpt>
      <trkpt lon="-3.336030" lat="54.567755"><ele>170.543915</ele><time>2021-08-12T09:43:26Z</time><extensions><speed>0.582417</speed><course>39.512306</course><hAcc>0.881386</hAcc><vAcc>0.705486</vAcc></extensions></trkpt>
      <trkpt lon="-3.336038" lat="54.567757"><ele>170.644562</ele><time>2021-08-12T09:43:27Z</time><extensions><speed>0.574985</speed><course>38.955353</course><hAcc>0.881268</hAcc><vAcc>0.705001</vAcc></extensions></trkpt>
      <trkpt lon="-3.336047" lat="54.567758"><ele>170.739410</ele><time>2021-08-12T09:43:28Z</time><extensions><speed>0.567513</speed><course>35.270641</course><hAcc>0.881148</hAcc><vAcc>0.704506</vAcc></extensions></trkpt>
      <trkpt lon="-3.336055" lat="54.567760"><ele>170.828735</ele><time>2021-08-12T09:43:29Z</time><extensions><speed>0.560291</speed><course>38.302330</course><hAcc>0.881030</hAcc><vAcc>0.704021</vAcc></extensions></trkpt>
      <trkpt lon="-3.336063" lat="54.567762"><ele>170.912949</ele><time>2021-08-12T09:43:30Z</time><extensions><speed>0.553476</speed><course>40.976086</course><hAcc>0.880918</hAcc><vAcc>0.703562</vAcc></extensions></trkpt>
      <trkpt lon="-3.336071" lat="54.567764"><ele>170.992554</ele><time>2021-08-12T09:43:31Z</time><extensions><speed>0.546423</speed><course>40.718147</course><hAcc>0.880818</hAcc><vAcc>0.703151</vAcc></extensions></trkpt>
      <trkpt lon="-3.336079" lat="54.567765"><ele>171.067947</ele><time>2021-08-12T09:43:32Z</time><extensions><speed>0.537858</speed><course>40.437557</course><hAcc>0.880733</hAcc><vAcc>0.702807</vAcc></extensions></trkpt>
      <trkpt lon="-3.336087" lat="54.567767"><ele>171.139526</ele><time>2021-08-12T09:43:33Z</time><extensions><speed>0.526801</speed><course>38.315979</course><hAcc>0.880665</hAcc><vAcc>0.702548</vAcc></extensions></trkpt>
      <trkpt lon="-3.336094" lat="54.567768"><ele>171.207642</ele><time>2021-08-12T09:43:34Z</time><extensions><speed>0.512241</speed><course>28.668550</course><hAcc>0.880616</hAcc><vAcc>0.702380</vAcc></extensions></trkpt>
      <trkpt lon="-3.336102" lat="54.567770"><ele>171.272369</ele><time>2021-08-12T09:43:35Z</time><extensions><speed>0.492965</speed><course>31.392698</course><hAcc>0.880585</hAcc><vAcc>0.702297</vAcc></extensions></trkpt>
      <trkpt lon="-3.336109" lat="54.567771"><ele>171.333542</ele><time>2021-08-12T09:43:36Z</time><extensions><speed>0.468493</speed><course>32.848076</course><hAcc>0.880571</hAcc><vAcc>0.702287</vAcc></extensions></trkpt>
      <trkpt lon="-3.336115" lat="54.567772"><ele>171.390991</ele><time>2021-08-12T09:43:37Z</time><extensions><speed>0.438853</speed><course>38.096359</course><hAcc>0.880570</hAcc><vAcc>0.702331</vAcc></extensions></trkpt>
      <trkpt lon="-3.336122" lat="54.567774"><ele>171.444672</ele><time>2021-08-12T09:43:38Z</time><extensions><speed>0.403889</speed><course>27.737675</course><hAcc>0.880579</hAcc><vAcc>0.702409</vAcc></extensions></trkpt>
      <trkpt lon="-3.336127" lat="54.567775"><ele>171.494415</ele><time>2021-08-12T09:43:39Z</time><extensions><speed>0.363469</speed><course>38.820049</course><hAcc>0.880592</hAcc><vAcc>0.702498</vAcc></extensions></trkpt>
      <trkpt lon="-3.336132" lat="54.567776"><ele>171.539566</ele><time>2021-08-12T09:43:40Z</time><extensions><speed>0.318066</speed><course>40.137299</course><hAcc>0.880602</hAcc><vAcc>0.702574</vAcc></extensions></trkpt>
      <trkpt lon="-3.336136" lat="54.567777"><ele>171.579193</ele><time>2021-08-12T09:43:41Z</time><extensions><speed>0.268841</speed><course>44.560421</course><hAcc>0.880600</hAcc><vAcc>0.702618</vAcc></extensions></trkpt>
      <trkpt lon="-3.336140" lat="54.567777"><ele>171.612640</ele><time>2021-08-12T09:43:42Z</time><extensions><speed>0.217564</speed><course>41.574787</course><hAcc>0.880577</hAcc><vAcc>0.702603</vAcc></extensions></trkpt>
      <trkpt lon="-3.336143" lat="54.567778"><ele>171.639648</ele><time>2021-08-12T09:43:43Z</time><extensions><speed>0.165763</speed><course>37.402897</course><hAcc>0.880521</hAcc><vAcc>0.702496</vAcc></extensions></trkpt>
      <trkpt lon="-3.336145" lat="54.567779"><ele>171.660294</ele><time>2021-08-12T09:43:44Z</time><extensions><speed>0.114008</speed><course>38.445354</course><hAcc>0.880420</hAcc><vAcc>0.702255</vAcc></extensions></trkpt>
      <trkpt lon="-3.336146" lat="54.567779"><ele>171.674759</ele><time>2021-08-12T09:43:45Z</time><extensions><speed>0.062553</speed><course>32.932274</course><hAcc>0.880258</hAcc><vAcc>0.701831</vAcc></extensions></trkpt>
      <trkpt lon="-3.336146" lat="54.567779"><ele>171.683319</ele><time>2021-08-12T09:43:46Z</time><extensions><speed>0.011864</speed><course>27.701353</course><hAcc>0.880021</hAcc><vAcc>0.701166</vAcc></extensions></trkpt>
      <trkpt lon="-3.336146" lat="54.567779"><ele>171.686188</ele><time>2021-08-12T09:43:47Z</time><extensions><speed>0.039185</speed><course>28.233585</course><hAcc>0.879694</hAcc><vAcc>0.700202</vAcc></extensions></trkpt>
      <trkpt lon="-3.336145" lat="54.567779"><ele>171.683472</ele><time>2021-08-12T09:43:48Z</time><extensions><speed>0.089802</speed><course>30.003765</course><hAcc>0.879266</hAcc><vAcc>0.698876</vAcc></extensions></trkpt>
      <trkpt lon="-3.336144" lat="54.567778"><ele>171.675339</ele><time>2021-08-12T09:43:49Z</time><extensions><speed>0.140926</speed><course>35.586266</course><hAcc>0.878726</hAcc><vAcc>0.697127</vAcc></extensions></trkpt>
      <trkpt lon="-3.336141" lat="54.567778"><ele>171.661957</ele><time>2021-08-12T09:43:50Z</time><extensions><speed>0.192005</speed><course>41.034397</course><hAcc>0.878074</hAcc><vAcc>0.694897</vAcc></extensions></trkpt>
      <trkpt lon="-3.336138" lat="54.567777"><ele>171.643341</ele><time>2021-08-12T09:43:51Z</time><extensions><speed>0.241995</speed><course>43.040592</course><hAcc>0.877318</hAcc><vAcc>0.692129</vAcc></extensions></trkpt>
      <trkpt lon="-3.336134" lat="54.567776"><ele>171.619339</ele><time>2021-08-12T09:43:52Z</time><extensions><speed>0.290191</speed><course>49.550934</course><hAcc>0.876477</hAcc><vAcc>0.688774</vAcc></extensions></trkpt>
      <trkpt lon="-3.336130" lat="54.567775"><ele>171.589813</ele><time>2021-08-12T09:43:53Z</time><extensions><speed>0.336421</speed><course>62.069283</course><hAcc>0.875588</hAcc><vAcc>0.684811</vAcc></extensions></trkpt>
      <trkpt lon="-3.336125" lat="54.567773"><ele>171.554611</ele><time>2021-08-12T09:43:54Z</time><extensions><speed>0.380271</speed><course>68.512573</course><hAcc>0.874700</hAcc><vAcc>0.680265</vAcc></extensions></trkpt>
      <trkpt lon="-3.336119" lat="54.567772"><ele>171.513748</ele><time>2021-08-12T09:43:55Z</time><extensions><speed>0.420370</speed><course>76.544746</course><hAcc>0.873878</hAcc><vAcc>0.675233</vAcc></extensions></trkpt>
      <trkpt lon="-3.336113" lat="54.567770"><ele>171.467575</ele><time>2021-08-12T09:43:56Z</time><extensions><speed>0.454690</speed><course>91.471558</course><hAcc>0.873194</hAcc><vAcc>0.669883</vAcc></extensions></trkpt>
      <trkpt lon="-3.336107" lat="54.567769"><ele>171.416779</ele><time>2021-08-12T09:43:57Z</time><extensions><speed>0.480894</speed><course>103.707001</course><hAcc>0.872716</hAcc><vAcc>0.664432</vAcc></extensions></trkpt>
      <trkpt lon="-3.336100" lat="54.567767"><ele>171.362305</ele><time>2021-08-12T09:43:58Z</time><extensions><speed>0.497275</speed><course>102.240677</course><hAcc>0.872495</hAcc><vAcc>0.659138</vAcc></extensions></trkpt>
      <trkpt lon="-3.336093" lat="54.567765"><ele>171.305222</ele><time>2021-08-12T09:43:59Z</time><extensions><speed>0.503464</speed><course>109.008522</course><hAcc>0.872553</hAcc><vAcc>0.654302</vAcc></extensions></trkpt>
      <trkpt lon="-3.336086" lat="54.567763"><ele>171.246750</ele><time>2021-08-12T09:44:00Z</time><extensions><speed>0.499697</speed><course>120.687057</course><hAcc>0.872863</hAcc><vAcc>0.650251</vAcc></extensions></trkpt>
      <trkpt lon="-3.336079" lat="54.567761"><ele>171.188080</ele><time>2021-08-12T09:44:01Z</time><extensions><speed>0.485907</speed><course>122.518364</course><hAcc>0.873331</hAcc><vAcc>0.647267</vAcc></extensions></trkpt>
      <trkpt lon="-3.336072" lat="54.567759"><ele>171.130203</ele><time>2021-08-12T09:44:02Z</time><extensions><speed>0.461320</speed><course>116.435341</course><hAcc>0.873816</hAcc><vAcc>0.645511</vAcc></extensions></trkpt>
      <trkpt lon="-3.336066" lat="54.567757"><ele>171.073959</ele><time>2021-08-12T09:44:03Z</time><extensions><speed>0.425255</speed><course>123.806564</course><hAcc>0.874178</hAcc><vAcc>0.644976</vAcc></extensions></trkpt>
      <trkpt lon="-3.336060" lat="54.567756"><ele>171.020157</ele><time>2021-08-12T09:44:04Z</time><extensions><speed>0.378939</speed><course>121.279266</course><hAcc>0.874333</hAcc><vAcc>0.645513</vAcc></extensions></trkpt>
      <trkpt lon="-3.336056" lat="54.567754"><ele>170.969757</ele><time>2021-08-12T09:44:05Z</time><extensions><speed>0.325774</speed><course>122.295830</course><hAcc>0.874257</hAcc><vAcc>0.646895</vAcc></extensions></trkpt>
      <trkpt lon="-3.336051" lat="54.567753"><ele>170.923553</ele><time>2021-08-12T09:44:06Z</time><extensions><speed>0.269367</speed><course>116.485687</course><hAcc>0.873998</hAcc><vAcc>0.648876</vAcc></extensions></trkpt>
      <trkpt lon="-3.336048" lat="54.567752"><ele>170.881790</ele><time>2021-08-12T09:44:07Z</time><extensions><speed>0.212691</speed><course>120.837761</course><hAcc>0.873656</hAcc><vAcc>0.651236</vAcc></extensions></trkpt>
      <trkpt lon="-3.336045" lat="54.567752"><ele>170.844330</ele><time>2021-08-12T09:44:08Z</time><extensions><speed>0.157961</speed><course>121.691162</course><hAcc>0.873322</hAcc><vAcc>0.653818</vAcc></extensions></trkpt>
      <trkpt lon="-3.336043" lat="54.567752"><ele>170.810837</ele><time>2021-08-12T09:44:09Z</time><extensions><speed>0.106655</speed><course>120.429344</course><hAcc>0.873042</hAcc><vAcc>0.656525</vAcc></extensions></trkpt>
      <trkpt lon="-3.336042" lat="54.567752"><ele>170.780853</ele><time>2021-08-12T09:44:10Z</time><extensions><speed>0.063366</speed><course>127.922836</course><hAcc>0.872843</hAcc><vAcc>0.659295</vAcc></extensions></trkpt>
      <trkpt lon="-3.336041" lat="54.567752"><ele>170.753723</ele><time>2021-08-12T09:44:11Z</time><extensions><speed>0.049445</speed><course>122.773224</course><hAcc>0.872747</hAcc><vAcc>0.662081</vAcc></extensions></trkpt>
      <trkpt lon="-3.336041" lat="54.567752"><ele>170.728806</ele><time>2021-08-12T09:44:12Z</time><extensions><speed>0.076551</speed><course>127.410233</course><hAcc>0.872792</hAcc><vAcc>0.664836</vAcc></extensions></trkpt>
      <trkpt lon="-3.336042" lat="54.567753"><ele>170.705734</ele><time>2021-08-12T09:44:13Z</time><extensions><speed>0.113327</speed><course>126.293243</course><hAcc>0.873018</hAcc><vAcc>0.667520</vAcc></extensions></trkpt>
      <trkpt lon="-3.336043" lat="54.567754"><ele>170.684433</ele><time>2021-08-12T09:44:14Z</time><extensions><speed>0.147556</speed><course>113.773628</course><hAcc>0.873471</hAcc><vAcc>0.670150</vAcc></extensions></trkpt>
      <trkpt lon="-3.336045" lat="54.567755"><ele>170.665039</ele><time>2021-08-12T09:44:15Z</time><extensions><speed>0.176715</speed><course>111.597641</course><hAcc>0.874197</hAcc><vAcc>0.672818</vAcc></extensions></trkpt>
      <trkpt lon="-3.336047" lat="54.567757"><ele>170.647766</ele><time>2021-08-12T09:44:16Z</time><extensions><speed>0.200302</speed><course>118.242065</course><hAcc>0.875245</hAcc><vAcc>0.675662</vAcc></extensions></trkpt>
      <trkpt lon="-3.336049" lat="54.567758"><ele>170.632874</ele><time>2021-08-12T09:44:17Z</time><extensions><speed>0.218228</speed><course>121.318916</course><hAcc>0.876655</hAcc><vAcc>0.678810</vAcc></extensions></trkpt>
      <trkpt lon="-3.336051" lat="54.567759"><ele>170.620682</ele><time>2021-08-12T09:44:18Z</time><extensions><speed>0.229953</speed><course>126.571838</course><hAcc>0.878451</hAcc><vAcc>0.682324</vAcc></extensions></trkpt>
      <trkpt lon="-3.336054" lat="54.567761"><ele>170.611542</ele><time>2021-08-12T09:44:19Z</time><extensions><speed>0.235037</speed><course>116.053932</course><hAcc>0.880621</hAcc><vAcc>0.686159</vAcc></extensions></trkpt>
      <trkpt lon="-3.336056" lat="54.567762"><ele>170.605820</ele><time>2021-08-12T09:44:20Z</time><extensions><speed>0.233600</speed><course>122.553452</course><hAcc>0.883111</hAcc><vAcc>0.690156</vAcc></extensions></trkpt>
      <trkpt lon="-3.336059" lat="54.567764"><ele>170.603928</ele><time>2021-08-12T09:44:21Z</time><extensions><speed>0.225700</speed><course>115.362396</course><hAcc>0.885814</hAcc><vAcc>0.694095</vAcc></extensions></trkpt>
      <trkpt lon="-3.336061" lat="54.567765"><ele>170.606476</ele><time>2021-08-12T09:44:22Z</time><extensions><speed>0.210975</speed><course>120.016403</course><hAcc>0.888573</hAcc><vAcc>0.697743</vAcc></extensions></trkpt>
      <trkpt lon="-3.336064" lat="54.567766"><ele>170.614273</ele><time>2021-08-12T09:44:23Z</time><extensions><speed>0.189284</speed><course>131.521149</course><hAcc>0.891181</hAcc><vAcc>0.700882</vAcc></extensions></trkpt>
      <trkpt lon="-3.336066" lat="54.567767"><ele>170.628357</ele><time>2021-08-12T09:44:24Z</time><extensions><speed>0.161901</speed><course>124.976143</course><hAcc>0.893400</hAcc><vAcc>0.703338</vAcc></extensions></trkpt>
      <trkpt lon="-3.336068" lat="54.567768"><ele>170.649536</ele><time>2021-08-12T09:44:25Z</time><extensions><speed>0.131798</speed><course>123.546791</course><hAcc>0.895014</hAcc><vAcc>0.705023</vAcc></extensions></trkpt>
      <trkpt lon="-3.336069" lat="54.567768"><ele>170.678238</ele><time>2021-08-12T09:44:26Z</time><extensions><speed>0.103836</speed><course>116.699699</course><hAcc>0.895926</hAcc><vAcc>0.706017</vAcc></extensions></trkpt>
      <trkpt lon="-3.336071" lat="54.567768"><ele>170.714706</ele><time>2021-08-12T09:44:27Z</time><extensions><speed>0.085330</speed><course>112.924561</course><hAcc>0.896320</hAcc><vAcc>0.706698</vAcc></extensions></trkpt>
      <trkpt lon="-3.336072" lat="54.567768"><ele>170.759155</ele><time>2021-08-12T09:44:28Z</time><extensions><speed>0.084754</speed><course>117.858780</course><hAcc>0.896923</hAcc><vAcc>0.707932</vAcc></extensions></trkpt>
      <trkpt lon="-3.336073" lat="54.567768"><ele>170.811737</ele><time>2021-08-12T09:44:29Z</time><extensions><speed>0.102854</speed><course>111.630035</course><hAcc>0.899372</hAcc><vAcc>0.711304</vAcc></extensions></trkpt>
      <trkpt lon="-3.336074" lat="54.567767"><ele>170.872452</ele><time>2021-08-12T09:44:30Z</time><extensions><speed>0.131583</speed><course>115.453979</course><hAcc>0.906666</hAcc><vAcc>0.719364</vAcc></extensions></trkpt>
      <trkpt lon="-3.336075" lat="54.567766"><ele>170.941055</ele><time>2021-08-12T09:44:31Z</time><extensions><speed>0.163767</speed><course>108.625862</course><hAcc>0.923612</hAcc><vAcc>0.735807</vAcc></extensions></trkpt>
      <trkpt lon="-3.336075" lat="54.567764"><ele>171.016815</ele><time>2021-08-12T09:44:32Z</time><extensions><speed>0.194989</speed><course>116.435417</course><hAcc>0.956992</hAcc><vAcc>0.765435</vAcc></extensions></trkpt>
      <trkpt lon="-3.336073" lat="54.567757"><ele>170.855545</ele><time>2021-08-12T09:44:33Z</time><extensions><speed>0.816890</speed><course>74.967865</course><hAcc>0.920011</hAcc><vAcc>0.731185</vAcc></extensions></trkpt>
      <trkpt lon="-3.336072" lat="54.567749"><ele>170.807892</ele><time>2021-08-12T09:44:34Z</time><extensions><speed>0.853759</speed><course>75.133301</course><hAcc>0.901455</hAcc><vAcc>0.710109</vAcc></extensions></trkpt>
      <trkpt lon="-3.336072" lat="54.567742"><ele>170.754700</ele><time>2021-08-12T09:44:35Z</time><extensions><speed>0.892904</speed><course>66.099251</course><hAcc>0.893906</hAcc><vAcc>0.698540</vAcc></extensions></trkpt>
      <trkpt lon="-3.336072" lat="54.567733"><ele>170.695786</ele><time>2021-08-12T09:44:36Z</time><extensions><speed>0.932773</speed><course>81.237114</course><hAcc>0.891907</hAcc><vAcc>0.692400</vAcc></extensions></trkpt>
      <trkpt lon="-3.336071" lat="54.567725"><ele>170.632370</ele><time>2021-08-12T09:44:37Z</time><extensions><speed>0.971596</speed><course>80.566093</course><hAcc>0.892063</hAcc><vAcc>0.688912</vAcc></extensions></trkpt>
      <trkpt lon="-3.336071" lat="54.567716"><ele>170.566422</ele><time>2021-08-12T09:44:38Z</time><extensions><speed>1.007990</speed><course>80.566109</course><hAcc>0.892562</hAcc><vAcc>0.686404</vAcc></extensions></trkpt>
      <trkpt lon="-3.336070" lat="54.567707"><ele>170.500473</ele><time>2021-08-12T09:44:39Z</time><extensions><speed>1.041320</speed><course>80.566093</course><hAcc>0.892635</hAcc><vAcc>0.684006</vAcc></extensions></trkpt>
      <trkpt lon="-3.336070" lat="54.567697"><ele>170.437134</ele><time>2021-08-12T09:44:40Z</time><extensions><speed>1.070722</speed><course>80.566093</course><hAcc>0.892127</hAcc><vAcc>0.681367</vAcc></extensions></trkpt>
      <trkpt lon="-3.336069" lat="54.567688"><ele>170.379715</ele><time>2021-08-12T09:44:41Z</time><extensions><speed>1.095223</speed><course>80.566093</course><hAcc>0.891185</hAcc><vAcc>0.678440</vAcc></extensions></trkpt>
      <trkpt lon="-3.336069" lat="54.567678"><ele>170.333313</ele><time>2021-08-12T09:44:42Z</time><extensions><speed>1.114293</speed><course>77.344681</course><hAcc>0.890057</hAcc><vAcc>0.675326</vAcc></extensions></trkpt>
      <trkpt lon="-3.336069" lat="54.567668"><ele>170.304550</ele><time>2021-08-12T09:44:43Z</time><extensions><speed>1.127545</speed><course>77.923714</course><hAcc>0.888976</hAcc><vAcc>0.672186</vAcc></extensions></trkpt>
      <trkpt lon="-3.336069" lat="54.567657"><ele>170.299866</ele><time>2021-08-12T09:44:44Z</time><extensions><speed>1.134698</speed><course>87.073212</course><hAcc>0.888110</hAcc><vAcc>0.669182</vAcc></extensions></trkpt>
      <trkpt lon="-3.336069" lat="54.567647"><ele>170.324158</ele><time>2021-08-12T09:44:45Z</time><extensions><speed>1.135656</speed><course>79.233902</course><hAcc>0.887553</hAcc><vAcc>0.666452</vAcc></extensions></trkpt>
      <trkpt lon="-3.336069" lat="54.567637"><ele>170.380936</ele><time>2021-08-12T09:44:46Z</time><extensions><speed>1.130928</speed><course>96.572746</course><hAcc>0.887326</hAcc><vAcc>0.664099</vAcc></extensions></trkpt>
      <trkpt lon="-3.336068" lat="54.567627"><ele>170.472290</ele><time>2021-08-12T09:44:47Z</time><extensions><speed>1.121372</speed><course>86.920219</course><hAcc>0.887404</hAcc><vAcc>0.662202</vAcc></extensions></trkpt>
      <trkpt lon="-3.336068" lat="54.567617"><ele>170.598145</ele><time>2021-08-12T09:44:48Z</time><extensions><speed>1.107471</speed><course>76.786201</course><hAcc>0.887727</hAcc><vAcc>0.660807</vAcc></extensions></trkpt>
      <trkpt lon="-3.336068" lat="54.567607"><ele>170.756683</ele><time>2021-08-12T09:44:49Z</time><extensions><speed>1.089703</speed><course>77.162971</course><hAcc>0.888221</hAcc><vAcc>0.659911</vAcc></extensions></trkpt>
      <trkpt lon="-3.336068" lat="54.567597"><ele>170.945328</ele><time>2021-08-12T09:44:50Z</time><extensions><speed>1.069231</speed><course>69.604996</course><hAcc>0.888808</hAcc><vAcc>0.659469</vAcc></extensions></trkpt>
      <trkpt lon="-3.336067" lat="54.567588"><ele>171.160645</ele><time>2021-08-12T09:44:51Z</time><extensions><speed>1.048422</speed><course>76.115456</course><hAcc>0.889424</hAcc><vAcc>0.659405</vAcc></extensions></trkpt>
      <trkpt lon="-3.336067" lat="54.567578"><ele>171.398178</ele><time>2021-08-12T09:44:52Z</time><extensions><speed>1.029971</speed><course>83.646278</course><hAcc>0.890020</hAcc><vAcc>0.659636</vAcc></extensions></trkpt>
      <trkpt lon="-3.336067" lat="54.567569"><ele>171.652817</ele><time>2021-08-12T09:44:53Z</time><extensions><speed>1.015809</speed><course>76.408623</course><hAcc>0.890553</hAcc><vAcc>0.660077</vAcc></extensions></trkpt>
      <trkpt lon="-3.336067" lat="54.567560"><ele>171.918823</ele><time>2021-08-12T09:44:54Z</time><extensions><speed>1.006625</speed><course>79.439453</course><hAcc>0.890973</hAcc><vAcc>0.660643</vAcc></extensions></trkpt>
      <trkpt lon="-3.336067" lat="54.567551"><ele>172.190018</ele><time>2021-08-12T09:44:55Z</time><extensions><speed>1.001733</speed><course>75.300941</course><hAcc>0.891225</hAcc><vAcc>0.661244</vAcc></extensions></trkpt>
      <trkpt lon="-3.336067" lat="54.567542"><ele>172.460251</ele><time>2021-08-12T09:44:56Z</time><extensions><speed>0.999963</speed><course>76.126534</course><hAcc>0.891269</hAcc><vAcc>0.661789</vAcc></extensions></trkpt>
      <trkpt lon="-3.336068" lat="54.567533"><ele>172.723770</ele><time>2021-08-12T09:44:57Z</time><extensions><speed>1.000153</speed><course>75.233688</course><hAcc>0.891087</hAcc><vAcc>0.662195</vAcc></extensions></trkpt>
      <trkpt lon="-3.336068" lat="54.567524"><ele>172.975143</ele><time>2021-08-12T09:44:58Z</time><extensions><speed>1.001573</speed><course>81.891060</course><hAcc>0.890682</hAcc><vAcc>0.662402</vAcc></extensions></trkpt>
      <trkpt lon="-3.336069" lat="54.567515"><ele>173.209137</ele><time>2021-08-12T09:44:59Z</time><extensions><speed>1.003624</speed><course>78.263519</course><hAcc>0.890073</hAcc><vAcc>0.662392</vAcc></extensions></trkpt>
      <trkpt lon="-3.336070" lat="54.567506"><ele>173.420822</ele><time>2021-08-12T09:45:00Z</time><extensions><speed>1.005771</speed><course>74.907532</course><hAcc>0.889293</hAcc><vAcc>0.662181</vAcc></extensions></trkpt>
      <trkpt lon="-3.336071" lat="54.567497"><ele>173.606308</ele><time>2021-08-12T09:45:01Z</time><extensions><speed>1.007874</speed><course>84.941742</course><hAcc>0.888396</hAcc><vAcc>0.661811</vAcc></extensions></trkpt>
      <trkpt lon="-3.336073" lat="54.567488"><ele>173.763138</ele><time>2021-08-12T09:45:02Z</time><extensions><speed>1.009950</speed><course>73.584358</course><hAcc>0.887444</hAcc><vAcc>0.661343</vAcc></extensions></trkpt>
      <trkpt lon="-3.336074" lat="54.567479"><ele>173.890717</ele><time>2021-08-12T09:45:03Z</time><extensions><speed>1.012211</speed><course>96.346313</course><hAcc>0.886484</hAcc><vAcc>0.660841</vAcc></extensions></trkpt>
      <trkpt lon="-3.336076" lat="54.567470"><ele>173.990021</ele><time>2021-08-12T09:45:04Z</time><extensions><speed>1.015186</speed><course>87.208282</course><hAcc>0.885534</hAcc><vAcc>0.660349</vAcc></extensions></trkpt>
      <trkpt lon="-3.336078" lat="54.567461"><ele>174.062515</ele><time>2021-08-12T09:45:05Z</time><extensions><speed>1.019238</speed><course>71.034035</course><hAcc>0.884576</hAcc><vAcc>0.659893</vAcc></extensions></trkpt>
      <trkpt lon="-3.336080" lat="54.567452"><ele>174.109818</ele><time>2021-08-12T09:45:06Z</time><extensions><speed>1.024356</speed><course>74.315559</course><hAcc>0.883568</hAcc><vAcc>0.659479</vAcc></extensions></trkpt>
      <trkpt lon="-3.336082" lat="54.567443"><ele>174.134369</ele><time>2021-08-12T09:45:07Z</time><extensions><speed>1.030378</speed><course>82.074326</course><hAcc>0.882466</hAcc><vAcc>0.659108</vAcc></extensions></trkpt>
      <trkpt lon="-3.336084" lat="54.567434"><ele>174.139420</ele><time>2021-08-12T09:45:08Z</time><extensions><speed>1.037187</speed><course>78.798851</course><hAcc>0.881249</hAcc><vAcc>0.658778</vAcc></extensions></trkpt>
      <trkpt lon="-3.336086" lat="54.567424"><ele>174.128036</ele><time>2021-08-12T09:45:09Z</time><extensions><speed>1.044726</speed><course>71.049065</course><hAcc>0.879927</hAcc><vAcc>0.658496</vAcc></extensions></trkpt>
      <trkpt lon="-3.336088" lat="54.567415"><ele>174.103363</ele><time>2021-08-12T09:45:10Z</time><extensions><speed>1.053026</speed><course>66.417450</course><hAcc>0.878543</hAcc><vAcc>0.658284</vAcc></extensions></trkpt>
      <trkpt lon="-3.336090" lat="54.567405"><ele>174.068527</ele><time>2021-08-12T09:45:11Z</time><extensions><speed>1.062107</speed><course>67.881187</course><hAcc>0.877160</hAcc><vAcc>0.658171</vAcc></extensions></trkpt>
      <trkpt lon="-3.336091" lat="54.567396"><ele>174.025421</ele><time>2021-08-12T09:45:12Z</time><extensions><speed>1.071779</speed><course>73.946594</course><hAcc>0.875837</hAcc><vAcc>0.658187</vAcc></extensions></trkpt>
      <trkpt lon="-3.336092" lat="54.567386"><ele>173.975128</ele><time>2021-08-12T09:45:13Z</time><extensions><speed>1.082103</speed><course>66.868568</course><hAcc>0.874618</hAcc><vAcc>0.658349</vAcc></extensions></trkpt>
      <trkpt lon="-3.336092" lat="54.567376"><ele>173.919113</ele><time>2021-08-12T09:45:14Z</time><extensions><speed>1.093262</speed><course>57.370388</course><hAcc>0.873530</hAcc><vAcc>0.658657</vAcc></extensions></trkpt>
      <trkpt lon="-3.336092" lat="54.567367"><ele>173.859283</ele><time>2021-08-12T09:45:15Z</time><extensions><speed>1.104977</speed><course>72.859169</course><hAcc>0.872592</hAcc><vAcc>0.659102</vAcc></extensions></trkpt>
      <trkpt lon="-3.336092" lat="54.567357"><ele>173.797668</ele><time>2021-08-12T09:45:16Z</time><extensions><speed>1.116462</speed><course>73.476959</course><hAcc>0.871822</hAcc><vAcc>0.659674</vAcc></extensions></trkpt>
      <trkpt lon="-3.336091" lat="54.567347"><ele>173.736557</ele><time>2021-08-12T09:45:17Z</time><extensions><speed>1.127291</speed><course>70.985191</course><hAcc>0.871229</hAcc><vAcc>0.660354</vAcc></extensions></trkpt>
      <trkpt lon="-3.336090" lat="54.567336"><ele>173.678268</ele><time>2021-08-12T09:45:18Z</time><extensions><speed>1.137119</speed><course>67.094063</course><hAcc>0.870813</hAcc><vAcc>0.661119</vAcc></extensions></trkpt>
      <trkpt lon="-3.336088" lat="54.567326"><ele>173.624786</ele><time>2021-08-12T09:45:19Z</time><extensions><speed>1.145092</speed><course>63.802017</course><hAcc>0.870560</hAcc><vAcc>0.661930</vAcc></extensions></trkpt>
      <trkpt lon="-3.336087" lat="54.567316"><ele>173.577667</ele><time>2021-08-12T09:45:20Z</time><extensions><speed>1.150610</speed><course>59.738853</course><hAcc>0.870447</hAcc><vAcc>0.662744</vAcc></extensions></trkpt>
      <trkpt lon="-3.336085" lat="54.567306"><ele>173.538132</ele><time>2021-08-12T09:45:21Z</time><extensions><speed>1.153547</speed><course>64.752533</course><hAcc>0.870445</hAcc><vAcc>0.663524</vAcc></extensions></trkpt>
      <trkpt lon="-3.336083" lat="54.567295"><ele>173.506729</ele><time>2021-08-12T09:45:22Z</time><extensions><speed>1.153839</speed><course>62.678837</course><hAcc>0.870525</hAcc><vAcc>0.664245</vAcc></extensions></trkpt>
      <trkpt lon="-3.336081" lat="54.567285"><ele>173.483276</ele><time>2021-08-12T09:45:23Z</time><extensions><speed>1.151393</speed><course>67.622025</course><hAcc>0.870660</hAcc><vAcc>0.664892</vAcc></extensions></trkpt>
      <trkpt lon="-3.336080" lat="54.567275"><ele>173.467270</ele><time>2021-08-12T09:45:24Z</time><extensions><speed>1.146035</speed><course>76.998230</course><hAcc>0.870822</hAcc><vAcc>0.665462</vAcc></extensions></trkpt>
      <trkpt lon="-3.336078" lat="54.567265"><ele>173.458374</ele><time>2021-08-12T09:45:25Z</time><extensions><speed>1.137921</speed><course>71.279175</course><hAcc>0.870984</hAcc><vAcc>0.665955</vAcc></extensions></trkpt>
      <trkpt lon="-3.336077" lat="54.567254"><ele>173.456070</ele><time>2021-08-12T09:45:26Z</time><extensions><speed>1.127473</speed><course>66.215858</course><hAcc>0.871121</hAcc><vAcc>0.666375</vAcc></extensions></trkpt>
      <trkpt lon="-3.336076" lat="54.567244"><ele>173.459396</ele><time>2021-08-12T09:45:27Z</time><extensions><speed>1.114646</speed><course>65.869171</course><hAcc>0.871211</hAcc><vAcc>0.666723</vAcc></extensions></trkpt>
      <trkpt lon="-3.336075" lat="54.567234"><ele>173.467316</ele><time>2021-08-12T09:45:28Z</time><extensions><speed>1.099695</speed><course>67.480362</course><hAcc>0.871245</hAcc><vAcc>0.666991</vAcc></extensions></trkpt>
      <trkpt lon="-3.336074" lat="54.567225"><ele>173.479187</ele><time>2021-08-12T09:45:29Z</time><extensions><speed>1.083490</speed><course>62.467888</course><hAcc>0.871232</hAcc><vAcc>0.667175</vAcc></extensions></trkpt>
      <trkpt lon="-3.336073" lat="54.567215"><ele>173.494553</ele><time>2021-08-12T09:45:30Z</time><extensions><speed>1.066750</speed><course>57.403885</course><hAcc>0.871186</hAcc><vAcc>0.667285</vAcc></extensions></trkpt>
      <trkpt lon="-3.336072" lat="54.567205"><ele>173.512939</ele><time>2021-08-12T09:45:31Z</time><extensions><speed>1.049915</speed><course>56.104736</course><hAcc>0.871124</hAcc><vAcc>0.667343</vAcc></extensions></trkpt>
      <trkpt lon="-3.336072" lat="54.567196"><ele>173.534103</ele><time>2021-08-12T09:45:32Z</time><extensions><speed>1.033851</speed><course>57.135769</course><hAcc>0.871059</hAcc><vAcc>0.667373</vAcc></extensions></trkpt>
      <trkpt lon="-3.336071" lat="54.567187"><ele>173.557770</ele><time>2021-08-12T09:45:33Z</time><extensions><speed>1.019204</speed><course>59.466648</course><hAcc>0.870999</hAcc><vAcc>0.667392</vAcc></extensions></trkpt>
      <trkpt lon="-3.336071" lat="54.567178"><ele>173.583633</ele><time>2021-08-12T09:45:34Z</time><extensions><speed>1.005967</speed><course>56.466339</course><hAcc>0.870950</hAcc><vAcc>0.667408</vAcc></extensions></trkpt>
      <trkpt lon="-3.336071" lat="54.567169"><ele>173.611572</ele><time>2021-08-12T09:45:35Z</time><extensions><speed>0.994192</speed><course>61.082169</course><hAcc>0.870912</hAcc><vAcc>0.667423</vAcc></extensions></trkpt>
      <trkpt lon="-3.336071" lat="54.567160"><ele>173.641647</ele><time>2021-08-12T09:45:36Z</time><extensions><speed>0.983988</speed><course>63.000797</course><hAcc>0.870885</hAcc><vAcc>0.667437</vAcc></extensions></trkpt>
      <trkpt lon="-3.336072" lat="54.567151"><ele>173.673828</ele><time>2021-08-12T09:45:37Z</time><extensions><speed>0.975560</speed><course>58.373146</course><hAcc>0.870869</hAcc><vAcc>0.667452</vAcc></extensions></trkpt>
      <trkpt lon="-3.336072" lat="54.567142"><ele>173.707642</ele><time>2021-08-12T09:45:38Z</time><extensions><speed>0.968793</speed><course>59.591164</course><hAcc>0.870862</hAcc><vAcc>0.667472</vAcc></extensions></trkpt>
      <trkpt lon="-3.336073" lat="54.567134"><ele>173.742432</ele><time>2021-08-12T09:45:39Z</time><extensions><speed>0.963969</speed><course>56.078835</course><hAcc>0.870867</hAcc><vAcc>0.667510</vAcc></extensions></trkpt>
      <trkpt lon="-3.336074" lat="54.567125"><ele>173.778137</ele><time>2021-08-12T09:45:40Z</time><extensions><speed>0.962289</speed><course>61.452141</course><hAcc>0.870884</hAcc><vAcc>0.667576</vAcc></extensions></trkpt>
      <trkpt lon="-3.336075" lat="54.567116"><ele>173.815750</ele><time>2021-08-12T09:45:41Z</time><extensions><speed>0.964518</speed><course>62.349373</course><hAcc>0.870914</hAcc><vAcc>0.667677</vAcc></extensions></trkpt>
      <trkpt lon="-3.336075" lat="54.567108"><ele>173.856506</ele><time>2021-08-12T09:45:42Z</time><extensions><speed>0.970875</speed><course>67.502327</course><hAcc>0.870960</hAcc><vAcc>0.667819</vAcc></extensions></trkpt>
      <trkpt lon="-3.336076" lat="54.567099"><ele>173.900818</ele><time>2021-08-12T09:45:43Z</time><extensions><speed>0.981883</speed><course>65.148994</course><hAcc>0.871023</hAcc><vAcc>0.668019</vAcc></extensions></trkpt>
      <trkpt lon="-3.336076" lat="54.567090"><ele>173.948578</ele><time>2021-08-12T09:45:44Z</time><extensions><speed>0.997588</speed><course>61.604351</course><hAcc>0.871109</hAcc><vAcc>0.668302</vAcc></extensions></trkpt>
      <trkpt lon="-3.336076" lat="54.567081"><ele>174.000198</ele><time>2021-08-12T09:45:45Z</time><extensions><speed>1.016663</speed><course>67.356651</course><hAcc>0.871222</hAcc><vAcc>0.668696</vAcc></extensions></trkpt>
      <trkpt lon="-3.336075" lat="54.567072"><ele>174.057251</ele><time>2021-08-12T09:45:46Z</time><extensions><speed>1.036919</speed><course>56.187717</course><hAcc>0.871365</hAcc><vAcc>0.669219</vAcc></extensions></trkpt>
      <trkpt lon="-3.336075" lat="54.567062"><ele>174.121994</ele><time>2021-08-12T09:45:47Z</time><extensions><speed>1.056071</speed><course>56.273357</course><hAcc>0.871537</hAcc><vAcc>0.669871</vAcc></extensions></trkpt>
      <trkpt lon="-3.336075" lat="54.567053"><ele>174.196274</ele><time>2021-08-12T09:45:48Z</time><extensions><speed>1.072238</speed><course>59.042984</course><hAcc>0.871733</hAcc><vAcc>0.670624</vAcc></extensions></trkpt>
      <trkpt lon="-3.336075" lat="54.567043"><ele>174.280853</ele><time>2021-08-12T09:45:49Z</time><extensions><speed>1.084297</speed><course>46.754299</course><hAcc>0.871943</hAcc><vAcc>0.671435</vAcc></extensions></trkpt>
      <trkpt lon="-3.336074" lat="54.567033"><ele>174.375641</ele><time>2021-08-12T09:45:50Z</time><extensions><speed>1.092252</speed><course>46.754295</course><hAcc>0.872159</hAcc><vAcc>0.672262</vAcc></extensions></trkpt>
      <trkpt lon="-3.336074" lat="54.567024"><ele>174.480362</ele><time>2021-08-12T09:45:51Z</time><extensions><speed>1.096843</speed><course>46.754295</course><hAcc>0.872371</hAcc><vAcc>0.673079</vAcc></extensions></trkpt>
      <trkpt lon="-3.336075" lat="54.567014"><ele>174.594696</ele><time>2021-08-12T09:45:52Z</time><extensions><speed>1.099081</speed><course>46.754295</course><hAcc>0.872575</hAcc><vAcc>0.673869</vAcc></extensions></trkpt>
      <trkpt lon="-3.336075" lat="54.567004"><ele>174.718857</ele><time>2021-08-12T09:45:53Z</time><extensions><speed>1.100179</speed><course>46.754295</course><hAcc>0.872762</hAcc><vAcc>0.674616</vAcc></extensions></trkpt>
      <trkpt lon="-3.336076" lat="54.566994"><ele>174.853760</ele><time>2021-08-12T09:45:54Z</time><extensions><speed>1.101607</speed><course>46.754295</course><hAcc>0.872926</hAcc><vAcc>0.675287</vAcc></extensions></trkpt>
      <trkpt lon="-3.336077" lat="54.566984"><ele>175.000534</ele><time>2021-08-12T09:45:55Z</time><extensions><speed>1.104642</speed><course>46.754295</course><hAcc>0.873056</hAcc><vAcc>0.675831</vAcc></extensions></trkpt>
      <trkpt lon="-3.336078" lat="54.566974"><ele>175.160156</ele><time>2021-08-12T09:45:56Z</time><extensions><speed>1.109795</speed><course>46.754292</course><hAcc>0.873143</hAcc><vAcc>0.676191</vAcc></extensions></trkpt>
      <trkpt lon="-3.336080" lat="54.566964"><ele>175.333313</ele><time>2021-08-12T09:45:57Z</time><extensions><speed>1.117170</speed><course>46.754295</course><hAcc>0.873183</hAcc><vAcc>0.676329</vAcc></extensions></trkpt>
      <trkpt lon="-3.336082" lat="54.566954"><ele>175.520401</ele><time>2021-08-12T09:45:58Z</time><extensions><speed>1.126533</speed><course>86.257805</course><hAcc>0.873173</hAcc><vAcc>0.676243</vAcc></extensions></trkpt>
      <trkpt lon="-3.336084" lat="54.566944"><ele>175.721191</ele><time>2021-08-12T09:45:59Z</time><extensions><speed>1.137336</speed><course>92.864906</course><hAcc>0.873118</hAcc><vAcc>0.675961</vAcc></extensions></trkpt>
      <trkpt lon="-3.336087" lat="54.566934"><ele>175.934494</ele><time>2021-08-12T09:46:00Z</time><extensions><speed>1.149114</speed><course>94.458534</course><hAcc>0.873026</hAcc><vAcc>0.675530</vAcc></extensions></trkpt>
      <trkpt lon="-3.336090" lat="54.566924"><ele>176.158569</ele><time>2021-08-12T09:46:01Z</time><extensions><speed>1.161104</speed><course>89.165138</course><hAcc>0.872904</hAcc><vAcc>0.675000</vAcc></extensions></trkpt>
      <trkpt lon="-3.336093" lat="54.566913"><ele>176.391266</ele><time>2021-08-12T09:46:02Z</time><extensions><speed>1.172473</speed><course>98.187202</course><hAcc>0.872762</hAcc><vAcc>0.674414</vAcc></extensions></trkpt>
      <trkpt lon="-3.336097" lat="54.566903"><ele>176.629196</ele><time>2021-08-12T09:46:03Z</time><extensions><speed>1.182577</speed><course>262.094696</course><hAcc>0.872608</hAcc><vAcc>0.673810</vAcc></extensions></trkpt>
      <trkpt lon="-3.336101" lat="54.566893"><ele>176.867477</ele><time>2021-08-12T09:46:04Z</time><extensions><speed>1.190343</speed><course>273.339569</course><hAcc>0.872448</hAcc><vAcc>0.673214</vAcc></extensions></trkpt>
      <trkpt lon="-3.336105" lat="54.566882"><ele>177.100433</ele><time>2021-08-12T09:46:05Z</time><extensions><speed>1.194568</speed><course>270.133057</course><hAcc>0.872286</hAcc><vAcc>0.672640</vAcc></extensions></trkpt>
      <trkpt lon="-3.336110" lat="54.566872"><ele>177.323105</ele><time>2021-08-12T09:46:06Z</time><extensions><speed>1.195071</speed><course>264.401459</course><hAcc>0.872123</hAcc><vAcc>0.672083</vAcc></extensions></trkpt>
      <trkpt lon="-3.336114" lat="54.566861"><ele>177.532852</ele><time>2021-08-12T09:46:07Z</time><extensions><speed>1.192531</speed><course>271.206299</course><hAcc>0.871960</hAcc><vAcc>0.671527</vAcc></extensions></trkpt>
      <trkpt lon="-3.336118" lat="54.566851"><ele>177.729004</ele><time>2021-08-12T09:46:08Z</time><extensions><speed>1.188046</speed><course>270.479279</course><hAcc>0.871794</hAcc><vAcc>0.670952</vAcc></extensions></trkpt>
      <trkpt lon="-3.336123" lat="54.566841"><ele>177.911606</ele><time>2021-08-12T09:46:09Z</time><extensions><speed>1.182813</speed><course>270.479279</course><hAcc>0.871627</hAcc><vAcc>0.670354</vAcc></extensions></trkpt>
      <trkpt lon="-3.336127" lat="54.566830"><ele>178.081284</ele><time>2021-08-12T09:46:10Z</time><extensions><speed>1.177101</speed><course>270.479279</course><hAcc>0.871462</hAcc><vAcc>0.669742</vAcc></extensions></trkpt>
      <trkpt lon="-3.336131" lat="54.566820"><ele>178.239548</ele><time>2021-08-12T09:46:11Z</time><extensions><speed>1.170929</speed><course>92.836548</course><hAcc>0.871304</hAcc><vAcc>0.669135</vAcc></extensions></trkpt>
      <trkpt lon="-3.336135" lat="54.566810"><ele>178.388397</ele><time>2021-08-12T09:46:12Z</time><extensions><speed>1.164610</speed><course>91.847809</course><hAcc>0.871159</hAcc><vAcc>0.668572</vAcc></extensions></trkpt>
      <trkpt lon="-3.336138" lat="54.566800"><ele>178.529572</ele><time>2021-08-12T09:46:13Z</time><extensions><speed>1.158059</speed><course>96.972961</course><hAcc>0.871037</hAcc><vAcc>0.668097</vAcc></extensions></trkpt>
      <trkpt lon="-3.336142" lat="54.566789"><ele>178.664261</ele><time>2021-08-12T09:46:14Z</time><extensions><speed>1.150780</speed><course>101.432434</course><hAcc>0.870943</hAcc><vAcc>0.667752</vAcc></extensions></trkpt>
      <trkpt lon="-3.336146" lat="54.566779"><ele>178.793045</ele><time>2021-08-12T09:46:15Z</time><extensions><speed>1.142268</speed><course>89.921867</course><hAcc>0.870883</hAcc><vAcc>0.667554</vAcc></extensions></trkpt>
      <trkpt lon="-3.336150" lat="54.566769"><ele>178.916748</ele><time>2021-08-12T09:46:16Z</time><extensions><speed>1.132947</speed><course>79.468422</course><hAcc>0.870851</hAcc><vAcc>0.667480</vAcc></extensions></trkpt>
      <trkpt lon="-3.336154" lat="54.566760"><ele>179.036713</ele><time>2021-08-12T09:46:17Z</time><extensions><speed>1.123660</speed><course>79.668663</course><hAcc>0.870841</hAcc><vAcc>0.667482</vAcc></extensions></trkpt>
      <trkpt lon="-3.336158" lat="54.566750"><ele>179.154236</ele><time>2021-08-12T09:46:18Z</time><extensions><speed>1.115095</speed><course>70.198914</course><hAcc>0.870845</hAcc><vAcc>0.667512</vAcc></extensions></trkpt>
      <trkpt lon="-3.336162" lat="54.566740"><ele>179.270966</ele><time>2021-08-12T09:46:19Z</time><extensions><speed>1.108080</speed><course>85.811096</course><hAcc>0.870858</hAcc><vAcc>0.667552</vAcc></extensions></trkpt>
      <trkpt lon="-3.336167" lat="54.566731"><ele>179.388596</ele><time>2021-08-12T09:46:20Z</time><extensions><speed>1.103182</speed><course>87.515213</course><hAcc>0.870881</hAcc><vAcc>0.667606</vAcc></extensions></trkpt>
      <trkpt lon="-3.336172" lat="54.566721"><ele>179.507767</ele><time>2021-08-12T09:46:21Z</time><extensions><speed>1.100519</speed><course>86.802406</course><hAcc>0.870915</hAcc><vAcc>0.667695</vAcc></extensions></trkpt>
      <trkpt lon="-3.336176" lat="54.566712"><ele>179.627701</ele><time>2021-08-12T09:46:22Z</time><extensions><speed>1.099709</speed><course>85.424927</course><hAcc>0.870964</hAcc><vAcc>0.667841</vAcc></extensions></trkpt>
      <trkpt lon="-3.336181" lat="54.566702"><ele>179.746460</ele><time>2021-08-12T09:46:23Z</time><extensions><speed>1.100132</speed><course>88.911957</course><hAcc>0.871031</hAcc><vAcc>0.668061</vAcc></extensions></trkpt>
      <trkpt lon="-3.336185" lat="54.566693"><ele>179.861206</ele><time>2021-08-12T09:46:24Z</time><extensions><speed>1.101369</speed><course>93.027184</course><hAcc>0.871114</hAcc><vAcc>0.668358</vAcc></extensions></trkpt>
      <trkpt lon="-3.336189" lat="54.566683"><ele>179.968185</ele><time>2021-08-12T09:46:25Z</time><extensions><speed>1.103641</speed><course>90.763535</course><hAcc>0.871213</hAcc><vAcc>0.668724</vAcc></extensions></trkpt>
      <trkpt lon="-3.336193" lat="54.566673"><ele>180.063690</ele><time>2021-08-12T09:46:26Z</time><extensions><speed>1.107471</speed><course>83.392509</course><hAcc>0.871325</hAcc><vAcc>0.669148</vAcc></extensions></trkpt>
      <trkpt lon="-3.336196" lat="54.566663"><ele>180.145981</ele><time>2021-08-12T09:46:27Z</time><extensions><speed>1.113316</speed><course>57.334152</course><hAcc>0.871446</hAcc><vAcc>0.669609</vAcc></extensions></trkpt>
      <trkpt lon="-3.336198" lat="54.566653"><ele>180.215088</ele><time>2021-08-12T09:46:28Z</time><extensions><speed>1.120952</speed><course>29.254333</course><hAcc>0.871572</hAcc><vAcc>0.670088</vAcc></extensions></trkpt>
      <trkpt lon="-3.336200" lat="54.566643"><ele>180.271317</ele><time>2021-08-12T09:46:29Z</time><extensions><speed>1.129234</speed><course>29.254333</course><hAcc>0.871697</hAcc><vAcc>0.670561</vAcc></extensions></trkpt>
      <trkpt lon="-3.336201" lat="54.566633"><ele>180.314590</ele><time>2021-08-12T09:46:30Z</time><extensions><speed>1.137088</speed><course>29.254333</course><hAcc>0.871818</hAcc><vAcc>0.671009</vAcc></extensions></trkpt>
      <trkpt lon="-3.336202" lat="54.566623"><ele>180.344986</ele><time>2021-08-12T09:46:31Z</time><extensions><speed>1.144323</speed><course>29.254332</course><hAcc>0.871930</hAcc><vAcc>0.671423</vAcc></extensions></trkpt>
      <trkpt lon="-3.336202" lat="54.566613"><ele>180.362915</ele><time>2021-08-12T09:46:32Z</time><extensions><speed>1.151384</speed><course>29.254333</course><hAcc>0.872030</hAcc><vAcc>0.671801</vAcc></extensions></trkpt>
      <trkpt lon="-3.336201" lat="54.566602"><ele>180.369339</ele><time>2021-08-12T09:46:33Z</time><extensions><speed>1.158727</speed><course>29.254332</course><hAcc>0.872116</hAcc><vAcc>0.672140</vAcc></extensions></trkpt>
      <trkpt lon="-3.336200" lat="54.566592"><ele>180.365799</ele><time>2021-08-12T09:46:34Z</time><extensions><speed>1.166438</speed><course>29.254332</course><hAcc>0.872184</hAcc><vAcc>0.672431</vAcc></extensions></trkpt>
      <trkpt lon="-3.336199" lat="54.566581"><ele>180.354004</ele><time>2021-08-12T09:46:35Z</time><extensions><speed>1.174473</speed><course>29.254333</course><hAcc>0.872228</hAcc><vAcc>0.672653</vAcc></extensions></trkpt>
      <trkpt lon="-3.336198" lat="54.566571"><ele>180.335907</ele><time>2021-08-12T09:46:36Z</time><extensions><speed>1.182809</speed><course>29.254333</course><hAcc>0.872242</hAcc><vAcc>0.672776</vAcc></extensions></trkpt>
      <trkpt lon="-3.336197" lat="54.566560"><ele>180.314072</ele><time>2021-08-12T09:46:37Z</time><extensions><speed>1.191219</speed><course>29.254332</course><hAcc>0.872220</hAcc><vAcc>0.672758</vAcc></extensions></trkpt>
      <trkpt lon="-3.336195" lat="54.566549"><ele>180.291153</ele><time>2021-08-12T09:46:38Z</time><extensions><speed>1.199216</speed><course>29.254333</course><hAcc>0.872155</hAcc><vAcc>0.672557</vAcc></extensions></trkpt>
      <trkpt lon="-3.336194" lat="54.566539"><ele>180.269287</ele><time>2021-08-12T09:46:39Z</time><extensions><speed>1.206019</speed><course>29.254337</course><hAcc>0.872045</hAcc><vAcc>0.672152</vAcc></extensions></trkpt>
      <trkpt lon="-3.336194" lat="54.566528"><ele>180.250443</ele><time>2021-08-12T09:46:40Z</time><extensions><speed>1.210950</speed><course>29.254337</course><hAcc>0.871891</hAcc><vAcc>0.671552</vAcc></extensions></trkpt>
      <trkpt lon="-3.336193" lat="54.566517"><ele>180.236633</ele><time>2021-08-12T09:46:41Z</time><extensions><speed>1.213642</speed><course>29.254339</course><hAcc>0.871701</hAcc><vAcc>0.670795</vAcc></extensions></trkpt>
      <trkpt lon="-3.336194" lat="54.566506"><ele>180.229324</ele><time>2021-08-12T09:46:42Z</time><extensions><speed>1.213914</speed><course>29.254337</course><hAcc>0.871483</hAcc><vAcc>0.669934</vAcc></extensions></trkpt>
      <trkpt lon="-3.336194" lat="54.566495"><ele>180.229538</ele><time>2021-08-12T09:46:43Z</time><extensions><speed>1.211600</speed><course>29.254339</course><hAcc>0.871247</hAcc><vAcc>0.669021</vAcc></extensions></trkpt>
      <trkpt lon="-3.336195" lat="54.566484"><ele>180.238449</ele><time>2021-08-12T09:46:44Z</time><extensions><speed>1.207097</speed><course>353.139893</course><hAcc>0.870998</hAcc><vAcc>0.668093</vAcc></extensions></trkpt>
      <trkpt lon="-3.336197" lat="54.566474"><ele>180.256943</ele><time>2021-08-12T09:46:45Z</time><extensions><speed>1.201427</speed><course>-1.000000</course><hAcc>0.870741</hAcc><vAcc>0.667164</vAcc></extensions></trkpt>
      <trkpt lon="-3.336199" lat="54.566463"><ele>180.285202</ele><time>2021-08-12T09:46:46Z</time><extensions><speed>1.195486</speed><course>-1.000000</course><hAcc>0.870476</hAcc><vAcc>0.666225</vAcc></extensions></trkpt>
      <trkpt lon="-3.336201" lat="54.566452"><ele>180.322464</ele><time>2021-08-12T09:46:47Z</time><extensions><speed>1.189675</speed><course>-1.000000</course><hAcc>0.870200</hAcc><vAcc>0.665259</vAcc></extensions></trkpt>
      <trkpt lon="-3.336203" lat="54.566442"><ele>180.367188</ele><time>2021-08-12T09:46:48Z</time><extensions><speed>1.184189</speed><course>-1.000000</course><hAcc>0.869913</hAcc><vAcc>0.664252</vAcc></extensions></trkpt>
      <trkpt lon="-3.336205" lat="54.566431"><ele>180.417328</ele><time>2021-08-12T09:46:49Z</time><extensions><speed>1.178964</speed><course>-1.000000</course><hAcc>0.869613</hAcc><vAcc>0.663196</vAcc></extensions></trkpt>
      <trkpt lon="-3.336208" lat="54.566421"><ele>180.470703</ele><time>2021-08-12T09:46:50Z</time><extensions><speed>1.173631</speed><course>-1.000000</course><hAcc>0.869304</hAcc><vAcc>0.662093</vAcc></extensions></trkpt>
      <trkpt lon="-3.336211" lat="54.566410"><ele>180.525192</ele><time>2021-08-12T09:46:51Z</time><extensions><speed>1.168077</speed><course>-1.000000</course><hAcc>0.868986</hAcc><vAcc>0.660947</vAcc></extensions></trkpt>
      <trkpt lon="-3.336213" lat="54.566400"><ele>180.579132</ele><time>2021-08-12T09:46:52Z</time><extensions><speed>1.162436</speed><course>-1.000000</course><hAcc>0.868665</hAcc><vAcc>0.659769</vAcc></extensions></trkpt>
      <trkpt lon="-3.336216" lat="54.566390"><ele>180.631180</ele><time>2021-08-12T09:46:53Z</time><extensions><speed>1.156584</speed><course>-1.000000</course><hAcc>0.868347</hAcc><vAcc>0.658588</vAcc></extensions></trkpt>
      <trkpt lon="-3.336219" lat="54.566379"><ele>180.680588</ele><time>2021-08-12T09:46:54Z</time><extensions><speed>1.150196</speed><course>-1.000000</course><hAcc>0.868045</hAcc><vAcc>0.657445</vAcc></extensions></trkpt>
      <trkpt lon="-3.336221" lat="54.566369"><ele>180.727356</ele><time>2021-08-12T09:46:55Z</time><extensions><speed>1.143564</speed><course>-1.000000</course><hAcc>0.867770</hAcc><vAcc>0.656397</vAcc></extensions></trkpt>
      <trkpt lon="-3.336224" lat="54.566359"><ele>180.772476</ele><time>2021-08-12T09:46:56Z</time><extensions><speed>1.137706</speed><course>74.830536</course><hAcc>0.867538</hAcc><vAcc>0.655505</vAcc></extensions></trkpt>
      <trkpt lon="-3.336227" lat="54.566349"><ele>180.817383</ele><time>2021-08-12T09:46:57Z</time><extensions><speed>1.133422</speed><course>62.161198</course><hAcc>0.867360</hAcc><vAcc>0.654824</vAcc></extensions></trkpt>
      <trkpt lon="-3.336230" lat="54.566339"><ele>180.863022</ele><time>2021-08-12T09:46:58Z</time><extensions><speed>1.129838</speed><course>66.043793</course><hAcc>0.867243</hAcc><vAcc>0.654386</vAcc></extensions></trkpt>
      <trkpt lon="-3.336233" lat="54.566329"><ele>180.909607</ele><time>2021-08-12T09:46:59Z</time><extensions><speed>1.125207</speed><course>75.803009</course><hAcc>0.867190</hAcc><vAcc>0.654196</vAcc></extensions></trkpt>
      <trkpt lon="-3.336236" lat="54.566319"><ele>180.956863</ele><time>2021-08-12T09:47:00Z</time><extensions><speed>1.118986</speed><course>76.191063</course><hAcc>0.867198</hAcc><vAcc>0.654244</vAcc></extensions></trkpt>
      <trkpt lon="-3.336238" lat="54.566309"><ele>181.004074</ele><time>2021-08-12T09:47:01Z</time><extensions><speed>1.111753</speed><course>76.349960</course><hAcc>0.867261</hAcc><vAcc>0.654508</vAcc></extensions></trkpt>
      <trkpt lon="-3.336241" lat="54.566299"><ele>181.050064</ele><time>2021-08-12T09:47:02Z</time><extensions><speed>1.103934</speed><course>78.477806</course><hAcc>0.867371</hAcc><vAcc>0.654954</vAcc></extensions></trkpt>
      <trkpt lon="-3.336244" lat="54.566289"><ele>181.093262</ele><time>2021-08-12T09:47:03Z</time><extensions><speed>1.095378</speed><course>75.070290</course><hAcc>0.867517</hAcc><vAcc>0.655531</vAcc></extensions></trkpt>
      <trkpt lon="-3.336246" lat="54.566280"><ele>181.132416</ele><time>2021-08-12T09:47:04Z</time><extensions><speed>1.086312</speed><course>69.086029</course><hAcc>0.867684</hAcc><vAcc>0.656184</vAcc></extensions></trkpt>
      <trkpt lon="-3.336249" lat="54.566270"><ele>181.166840</ele><time>2021-08-12T09:47:05Z</time><extensions><speed>1.077577</speed><course>68.949226</course><hAcc>0.867862</hAcc><vAcc>0.656868</vAcc></extensions></trkpt>
      <trkpt lon="-3.336251" lat="54.566261"><ele>181.195679</ele><time>2021-08-12T09:47:06Z</time><extensions><speed>1.069757</speed><course>71.686111</course><hAcc>0.868038</hAcc><vAcc>0.657543</vAcc></extensions></trkpt>
      <trkpt lon="-3.336253" lat="54.566251"><ele>181.217590</ele><time>2021-08-12T09:47:07Z</time><extensions><speed>1.063084</speed><course>76.597496</course><hAcc>0.868205</hAcc><vAcc>0.658170</vAcc></extensions></trkpt>
      <trkpt lon="-3.336255" lat="54.566242"><ele>181.231064</ele><time>2021-08-12T09:47:08Z</time><extensions><speed>1.057969</speed><course>90.005066</course><hAcc>0.868351</hAcc><vAcc>0.658715</vAcc></extensions></trkpt>
      <trkpt lon="-3.336257" lat="54.566232"><ele>181.234924</ele><time>2021-08-12T09:47:09Z</time><extensions><speed>1.054864</speed><course>83.948074</course><hAcc>0.868472</hAcc><vAcc>0.659158</vAcc></extensions></trkpt>
      <trkpt lon="-3.336258" lat="54.566223"><ele>181.228516</ele><time>2021-08-12T09:47:10Z</time><extensions><speed>1.053697</speed><course>76.996796</course><hAcc>0.868566</hAcc><vAcc>0.659499</vAcc></extensions></trkpt>
      <trkpt lon="-3.336259" lat="54.566213"><ele>181.212128</ele><time>2021-08-12T09:47:11Z</time><extensions><speed>1.054163</speed><course>79.507355</course><hAcc>0.868633</hAcc><vAcc>0.659741</vAcc></extensions></trkpt>
      <trkpt lon="-3.336260" lat="54.566204"><ele>181.187225</ele><time>2021-08-12T09:47:12Z</time><extensions><speed>1.056056</speed><course>72.096832</course><hAcc>0.868673</hAcc><vAcc>0.659883</vAcc></extensions></trkpt>
      <trkpt lon="-3.336260" lat="54.566194"><ele>181.155701</ele><time>2021-08-12T09:47:13Z</time><extensions><speed>1.059212</speed><course>80.368279</course><hAcc>0.868684</hAcc><vAcc>0.659911</vAcc></extensions></trkpt>
      <trkpt lon="-3.336260" lat="54.566185"><ele>181.119278</ele><time>2021-08-12T09:47:14Z</time><extensions><speed>1.063414</speed><course>78.982643</course><hAcc>0.868668</hAcc><vAcc>0.659820</vAcc></extensions></trkpt>
      <trkpt lon="-3.336259" lat="54.566175"><ele>181.079376</ele><time>2021-08-12T09:47:15Z</time><extensions><speed>1.068423</speed><course>81.075706</course><hAcc>0.868630</hAcc><vAcc>0.659628</vAcc></extensions></trkpt>
      <trkpt lon="-3.336259" lat="54.566166"><ele>181.037369</ele><time>2021-08-12T09:47:16Z</time><extensions><speed>1.073842</speed><course>81.007790</course><hAcc>0.868579</hAcc><vAcc>0.659366</vAcc></extensions></trkpt>
      <trkpt lon="-3.336258" lat="54.566156"><ele>180.994904</ele><time>2021-08-12T09:47:17Z</time><extensions><speed>1.079329</speed><course>78.272133</course><hAcc>0.868527</hAcc><vAcc>0.659087</vAcc></extensions></trkpt>
      <trkpt lon="-3.336257" lat="54.566146"><ele>180.953918</ele><time>2021-08-12T09:47:18Z</time><extensions><speed>1.084868</speed><course>73.069588</course><hAcc>0.868488</hAcc><vAcc>0.658853</vAcc></extensions></trkpt>
      <trkpt lon="-3.336256" lat="54.566137"><ele>180.916550</ele><time>2021-08-12T09:47:19Z</time><extensions><speed>1.090248</speed><course>77.189682</course><hAcc>0.868475</hAcc><vAcc>0.658719</vAcc></extensions></trkpt>
      <trkpt lon="-3.336255" lat="54.566127"><ele>180.884735</ele><time>2021-08-12T09:47:20Z</time><extensions><speed>1.094769</speed><course>75.197517</course><hAcc>0.868495</hAcc><vAcc>0.658723</vAcc></extensions></trkpt>
      <trkpt lon="-3.336254" lat="54.566117"><ele>180.859634</ele><time>2021-08-12T09:47:21Z</time><extensions><speed>1.098333</speed><course>67.733307</course><hAcc>0.868555</hAcc><vAcc>0.658894</vAcc></extensions></trkpt>
      <trkpt lon="-3.336252" lat="54.566107"><ele>180.840897</ele><time>2021-08-12T09:47:22Z</time><extensions><speed>1.101509</speed><course>69.123688</course><hAcc>0.868658</hAcc><vAcc>0.659250</vAcc></extensions></trkpt>
      <trkpt lon="-3.336251" lat="54.566097"><ele>180.826843</ele><time>2021-08-12T09:47:23Z</time><extensions><speed>1.104764</speed><course>71.299400</course><hAcc>0.868802</hAcc><vAcc>0.659795</vAcc></extensions></trkpt>
      <trkpt lon="-3.336249" lat="54.566087"><ele>180.815750</ele><time>2021-08-12T09:47:24Z</time><extensions><speed>1.108312</speed><course>77.479210</course><hAcc>0.868985</hAcc><vAcc>0.660510</vAcc></extensions></trkpt>
      <trkpt lon="-3.336247" lat="54.566077"><ele>180.806671</ele><time>2021-08-12T09:47:25Z</time><extensions><speed>1.111959</speed><course>68.623329</course><hAcc>0.869202</hAcc><vAcc>0.661366</vAcc></extensions></trkpt>
      <trkpt lon="-3.336246" lat="54.566067"><ele>180.798950</ele><time>2021-08-12T09:47:26Z</time><extensions><speed>1.115260</speed><course>63.866425</course><hAcc>0.869445</hAcc><vAcc>0.662325</vAcc></extensions></trkpt>
      <trkpt lon="-3.336244" lat="54.566057"><ele>180.791748</ele><time>2021-08-12T09:47:27Z</time><extensions><speed>1.117968</speed><course>76.291603</course><hAcc>0.869706</hAcc><vAcc>0.663350</vAcc></extensions></trkpt>
      <trkpt lon="-3.336242" lat="54.566047"><ele>180.783966</ele><time>2021-08-12T09:47:28Z</time><extensions><speed>1.119984</speed><course>71.777351</course><hAcc>0.869976</hAcc><vAcc>0.664401</vAcc></extensions></trkpt>
      <trkpt lon="-3.336241" lat="54.566037"><ele>180.774460</ele><time>2021-08-12T09:47:29Z</time><extensions><speed>1.120988</speed><course>76.476341</course><hAcc>0.870245</hAcc><vAcc>0.665439</vAcc></extensions></trkpt>
      <trkpt lon="-3.336239" lat="54.566027"><ele>180.762451</ele><time>2021-08-12T09:47:30Z</time><extensions><speed>1.120433</speed><course>63.346680</course><hAcc>0.870505</hAcc><vAcc>0.666423</vAcc></extensions></trkpt>
      <trkpt lon="-3.336238" lat="54.566017"><ele>180.748215</ele><time>2021-08-12T09:47:31Z</time><extensions><speed>1.117828</speed><course>60.883244</course><hAcc>0.870746</hAcc><vAcc>0.667315</vAcc></extensions></trkpt>
      <trkpt lon="-3.336236" lat="54.566007"><ele>180.733032</ele><time>2021-08-12T09:47:32Z</time><extensions><speed>1.113448</speed><course>66.100471</course><hAcc>0.870962</hAcc><vAcc>0.668093</vAcc></extensions></trkpt>
      <trkpt lon="-3.336234" lat="54.565997"><ele>180.718185</ele><time>2021-08-12T09:47:33Z</time><extensions><speed>1.108028</speed><course>66.284729</course><hAcc>0.871153</hAcc><vAcc>0.668756</vAcc></extensions></trkpt>
      <trkpt lon="-3.336232" lat="54.565988"><ele>180.704849</ele><time>2021-08-12T09:47:34Z</time><extensions><speed>1.102389</speed><course>70.183884</course><hAcc>0.871317</hAcc><vAcc>0.669319</vAcc></extensions></trkpt>
      <trkpt lon="-3.336230" lat="54.565978"><ele>180.694275</ele><time>2021-08-12T09:47:35Z</time><extensions><speed>1.096597</speed><course>69.091454</course><hAcc>0.871458</hAcc><vAcc>0.669800</vAcc></extensions></trkpt>
      <trkpt lon="-3.336228" lat="54.565968"><ele>180.688065</ele><time>2021-08-12T09:47:36Z</time><extensions><speed>1.089900</speed><course>67.595528</course><hAcc>0.871575</hAcc><vAcc>0.670218</vAcc></extensions></trkpt>
      <trkpt lon="-3.336226" lat="54.565958"><ele>180.688263</ele><time>2021-08-12T09:47:37Z</time><extensions><speed>1.081710</speed><course>69.079941</course><hAcc>0.871672</hAcc><vAcc>0.670584</vAcc></extensions></trkpt>
      <trkpt lon="-3.336223" lat="54.565949"><ele>180.696472</ele><time>2021-08-12T09:47:38Z</time><extensions><speed>1.072011</speed><course>67.638985</course><hAcc>0.871746</hAcc><vAcc>0.670891</vAcc></extensions></trkpt>
      <trkpt lon="-3.336221" lat="54.565939"><ele>180.713242</ele><time>2021-08-12T09:47:39Z</time><extensions><speed>1.061509</speed><course>67.902077</course><hAcc>0.871792</hAcc><vAcc>0.671106</vAcc></extensions></trkpt>
      <trkpt lon="-3.336220" lat="54.565930"><ele>180.738525</ele><time>2021-08-12T09:47:40Z</time><extensions><speed>1.051786</speed><course>68.213737</course><hAcc>0.871806</hAcc><vAcc>0.671188</vAcc></extensions></trkpt>
      <trkpt lon="-3.336219" lat="54.565920"><ele>180.771896</ele><time>2021-08-12T09:47:41Z</time><extensions><speed>1.044821</speed><course>58.646133</course><hAcc>0.871782</hAcc><vAcc>0.671112</vAcc></extensions></trkpt>
      <trkpt lon="-3.336218" lat="54.565911"><ele>180.812134</ele><time>2021-08-12T09:47:42Z</time><extensions><speed>1.042059</speed><course>60.787758</course><hAcc>0.871723</hAcc><vAcc>0.670880</vAcc></extensions></trkpt>
      <trkpt lon="-3.336218" lat="54.565902"><ele>180.857391</ele><time>2021-08-12T09:47:43Z</time><extensions><speed>1.044582</speed><course>59.107254</course><hAcc>0.871632</hAcc><vAcc>0.670515</vAcc></extensions></trkpt>
      <trkpt lon="-3.336219" lat="54.565892"><ele>180.906265</ele><time>2021-08-12T09:47:44Z</time><extensions><speed>1.052569</speed><course>59.308796</course><hAcc>0.871517</hAcc><vAcc>0.670052</vAcc></extensions></trkpt>
      <trkpt lon="-3.336221" lat="54.565883"><ele>180.958725</ele><time>2021-08-12T09:47:45Z</time><extensions><speed>1.065230</speed><course>63.536522</course><hAcc>0.871385</hAcc><vAcc>0.669525</vAcc></extensions></trkpt>
      <trkpt lon="-3.336223" lat="54.565873"><ele>181.016388</ele><time>2021-08-12T09:47:46Z</time><extensions><speed>1.081775</speed><course>64.110619</course><hAcc>0.871244</hAcc><vAcc>0.668960</vAcc></extensions></trkpt>
      <trkpt lon="-3.336226" lat="54.565864"><ele>181.081680</ele><time>2021-08-12T09:47:47Z</time><extensions><speed>1.101128</speed><course>57.783936</course><hAcc>0.871102</hAcc><vAcc>0.668386</vAcc></extensions></trkpt>
      <trkpt lon="-3.336229" lat="54.565854"><ele>181.155655</ele><time>2021-08-12T09:47:48Z</time><extensions><speed>1.121818</speed><course>62.673740</course><hAcc>0.870970</hAcc><vAcc>0.667840</vAcc></extensions></trkpt>
      <trkpt lon="-3.336233" lat="54.565844"><ele>181.237183</ele><time>2021-08-12T09:47:49Z</time><extensions><speed>1.142488</speed><course>68.268181</course><hAcc>0.870860</hAcc><vAcc>0.667370</vAcc></extensions></trkpt>
      <trkpt lon="-3.336236" lat="54.565834"><ele>181.324005</ele><time>2021-08-12T09:47:50Z</time><extensions><speed>1.162115</speed><course>59.735432</course><hAcc>0.870783</hAcc><vAcc>0.667026</vAcc></extensions></trkpt>
      <trkpt lon="-3.336240" lat="54.565823"><ele>181.414139</ele><time>2021-08-12T09:47:51Z</time><extensions><speed>1.180112</speed><course>59.192490</course><hAcc>0.870751</hAcc><vAcc>0.666861</vAcc></extensions></trkpt>
      <trkpt lon="-3.336243" lat="54.565813"><ele>181.506256</ele><time>2021-08-12T09:47:52Z</time><extensions><speed>1.196451</speed><course>60.825825</course><hAcc>0.870772</hAcc><vAcc>0.666918</vAcc></extensions></trkpt>
      <trkpt lon="-3.336247" lat="54.565802"><ele>181.598999</ele><time>2021-08-12T09:47:53Z</time><extensions><speed>1.211022</speed><course>62.921200</course><hAcc>0.870853</hAcc><vAcc>0.667219</vAcc></extensions></trkpt>
      <trkpt lon="-3.336250" lat="54.565792"><ele>181.690689</ele><time>2021-08-12T09:47:54Z</time><extensions><speed>1.223507</speed><course>59.145714</course><hAcc>0.870991</hAcc><vAcc>0.667762</vAcc></extensions></trkpt>
      <trkpt lon="-3.336253" lat="54.565781"><ele>181.778839</ele><time>2021-08-12T09:47:55Z</time><extensions><speed>1.234096</speed><course>54.852036</course><hAcc>0.871180</hAcc><vAcc>0.668519</vAcc></extensions></trkpt>
      <trkpt lon="-3.336255" lat="54.565770"><ele>181.860474</ele><time>2021-08-12T09:47:56Z</time><extensions><speed>1.243273</speed><course>52.958679</course><hAcc>0.871412</hAcc><vAcc>0.669441</vAcc></extensions></trkpt>
      <trkpt lon="-3.336257" lat="54.565758"><ele>181.932129</ele><time>2021-08-12T09:47:57Z</time><extensions><speed>1.251292</speed><course>51.642593</course><hAcc>0.871672</hAcc><vAcc>0.670467</vAcc></extensions></trkpt>
      <trkpt lon="-3.336258" lat="54.565747"><ele>181.990097</ele><time>2021-08-12T09:47:58Z</time><extensions><speed>1.258081</speed><course>50.915668</course><hAcc>0.871948</hAcc><vAcc>0.671534</vAcc></extensions></trkpt>
      <trkpt lon="-3.336259" lat="54.565736"><ele>182.031586</ele><time>2021-08-12T09:47:59Z</time><extensions><speed>1.263759</speed><course>43.517220</course><hAcc>0.872228</hAcc><vAcc>0.672586</vAcc></extensions></trkpt>
      <trkpt lon="-3.336260" lat="54.565724"><ele>182.054840</ele><time>2021-08-12T09:48:00Z</time><extensions><speed>1.269131</speed><course>53.213661</course><hAcc>0.872503</hAcc><vAcc>0.673589</vAcc></extensions></trkpt>
      <trkpt lon="-3.336260" lat="54.565713"><ele>182.058975</ele><time>2021-08-12T09:48:01Z</time><extensions><speed>1.275252</speed><course>42.672325</course><hAcc>0.872767</hAcc><vAcc>0.674522</vAcc></extensions></trkpt>
      <trkpt lon="-3.336259" lat="54.565702"><ele>182.044296</ele><time>2021-08-12T09:48:02Z</time><extensions><speed>1.282486</speed><course>57.842590</course><hAcc>0.873018</hAcc><vAcc>0.675385</vAcc></extensions></trkpt>
      <trkpt lon="-3.336258" lat="54.565690"><ele>182.012039</ele><time>2021-08-12T09:48:03Z</time><extensions><speed>1.290432</speed><course>54.432369</course><hAcc>0.873257</hAcc><vAcc>0.676191</vAcc></extensions></trkpt>
      <trkpt lon="-3.336257" lat="54.565678"><ele>181.963150</ele><time>2021-08-12T09:48:04Z</time><extensions><speed>1.297863</speed><course>53.099045</course><hAcc>0.873485</hAcc><vAcc>0.676963</vAcc></extensions></trkpt>
      <trkpt lon="-3.336255" lat="54.565667"><ele>181.897720</ele><time>2021-08-12T09:48:05Z</time><extensions><speed>1.303264</speed><course>52.709480</course><hAcc>0.873706</hAcc><vAcc>0.677726</vAcc></extensions></trkpt>
      <trkpt lon="-3.336253" lat="54.565655"><ele>181.815598</ele><time>2021-08-12T09:48:06Z</time><extensions><speed>1.305995</speed><course>55.566643</course><hAcc>0.873920</hAcc><vAcc>0.678492</vAcc></extensions></trkpt>
      <trkpt lon="-3.336251" lat="54.565643"><ele>181.716553</ele><time>2021-08-12T09:48:07Z</time><extensions><speed>1.306316</speed><course>50.999676</course><hAcc>0.874128</hAcc><vAcc>0.679265</vAcc></extensions></trkpt>
      <trkpt lon="-3.336249" lat="54.565632"><ele>181.600723</ele><time>2021-08-12T09:48:08Z</time><extensions><speed>1.304669</speed><course>49.932701</course><hAcc>0.874328</hAcc><vAcc>0.680032</vAcc></extensions></trkpt>
      <trkpt lon="-3.336247" lat="54.565620"><ele>181.470291</ele><time>2021-08-12T09:48:09Z</time><extensions><speed>1.300905</speed><course>44.103298</course><hAcc>0.874515</hAcc><vAcc>0.680766</vAcc></extensions></trkpt>
      <trkpt lon="-3.336245" lat="54.565609"><ele>181.330353</ele><time>2021-08-12T09:48:10Z</time><extensions><speed>1.294285</speed><course>35.959499</course><hAcc>0.874683</hAcc><vAcc>0.681432</vAcc></extensions></trkpt>
      <trkpt lon="-3.336244" lat="54.565597"><ele>181.187790</ele><time>2021-08-12T09:48:11Z</time><extensions><speed>1.283807</speed><course>30.952709</course><hAcc>0.874826</hAcc><vAcc>0.681993</vAcc></extensions></trkpt>
      <trkpt lon="-3.336242" lat="54.565586"><ele>181.049927</ele><time>2021-08-12T09:48:12Z</time><extensions><speed>1.268881</speed><course>43.709347</course><hAcc>0.874941</hAcc><vAcc>0.682428</vAcc></extensions></trkpt>
      <trkpt lon="-3.336241" lat="54.565574"><ele>180.923462</ele><time>2021-08-12T09:48:13Z</time><extensions><speed>1.249858</speed><course>37.574459</course><hAcc>0.875025</hAcc><vAcc>0.682727</vAcc></extensions></trkpt>
      <trkpt lon="-3.336240" lat="54.565563"><ele>180.813507</ele><time>2021-08-12T09:48:14Z</time><extensions><speed>1.227410</speed><course>40.028488</course><hAcc>0.875077</hAcc><vAcc>0.682894</vAcc></extensions></trkpt>
      <trkpt lon="-3.336239" lat="54.565552"><ele>180.723587</ele><time>2021-08-12T09:48:15Z</time><extensions><speed>1.201581</speed><course>39.088745</course><hAcc>0.875098</hAcc><vAcc>0.682943</vAcc></extensions></trkpt>
      <trkpt lon="-3.336238" lat="54.565542"><ele>180.656525</ele><time>2021-08-12T09:48:16Z</time><extensions><speed>1.171873</speed><course>38.227211</course><hAcc>0.875091</hAcc><vAcc>0.682883</vAcc></extensions></trkpt>
      <trkpt lon="-3.336238" lat="54.565531"><ele>180.614868</ele><time>2021-08-12T09:48:17Z</time><extensions><speed>1.138247</speed><course>38.580025</course><hAcc>0.875058</hAcc><vAcc>0.682724</vAcc></extensions></trkpt>
      <trkpt lon="-3.336237" lat="54.565521"><ele>180.599991</ele><time>2021-08-12T09:48:18Z</time><extensions><speed>1.101521</speed><course>36.225418</course><hAcc>0.875005</hAcc><vAcc>0.682478</vAcc></extensions></trkpt>
      <trkpt lon="-3.336237" lat="54.565511"><ele>180.612167</ele><time>2021-08-12T09:48:19Z</time><extensions><speed>1.062399</speed><course>36.482189</course><hAcc>0.874937</hAcc><vAcc>0.682159</vAcc></extensions></trkpt>
      <trkpt lon="-3.336236" lat="54.565502"><ele>180.651230</ele><time>2021-08-12T09:48:20Z</time><extensions><speed>1.020784</speed><course>45.117634</course><hAcc>0.874860</hAcc><vAcc>0.681792</vAcc></extensions></trkpt>
      <trkpt lon="-3.336236" lat="54.565493"><ele>180.716309</ele><time>2021-08-12T09:48:21Z</time><extensions><speed>0.976871</speed><course>40.176819</course><hAcc>0.874783</hAcc><vAcc>0.681398</vAcc></extensions></trkpt>
      <trkpt lon="-3.336235" lat="54.565485"><ele>180.805527</ele><time>2021-08-12T09:48:22Z</time><extensions><speed>0.931646</speed><course>42.588684</course><hAcc>0.874711</hAcc><vAcc>0.680996</vAcc></extensions></trkpt>
      <trkpt lon="-3.336235" lat="54.565476"><ele>180.915710</ele><time>2021-08-12T09:48:23Z</time><extensions><speed>0.886149</speed><course>41.771687</course><hAcc>0.874651</hAcc><vAcc>0.680605</vAcc></extensions></trkpt>
      <trkpt lon="-3.336234" lat="54.565469"><ele>181.041687</ele><time>2021-08-12T09:48:24Z</time><extensions><speed>0.840974</speed><course>41.372017</course><hAcc>0.874610</hAcc><vAcc>0.680241</vAcc></extensions></trkpt>
      <trkpt lon="-3.336233" lat="54.565461"><ele>181.175201</ele><time>2021-08-12T09:48:25Z</time><extensions><speed>0.796413</speed><course>37.017429</course><hAcc>0.874590</hAcc><vAcc>0.679925</vAcc></extensions></trkpt>
      <trkpt lon="-3.336231" lat="54.565454"><ele>181.304947</ele><time>2021-08-12T09:48:26Z</time><extensions><speed>0.752531</speed><course>28.588495</course><hAcc>0.874594</hAcc><vAcc>0.679669</vAcc></extensions></trkpt>
      <trkpt lon="-3.336230" lat="54.565448"><ele>181.418854</ele><time>2021-08-12T09:48:27Z</time><extensions><speed>0.709126</speed><course>39.512306</course><hAcc>0.874618</hAcc><vAcc>0.679482</vAcc></extensions></trkpt>
      <trkpt lon="-3.336228" lat="54.565442"><ele>181.506058</ele><time>2021-08-12T09:48:28Z</time><extensions><speed>0.666040</speed><course>38.955353</course><hAcc>0.874658</hAcc><vAcc>0.679364</vAcc></extensions></trkpt>
      <trkpt lon="-3.336225" lat="54.565436"><ele>181.558685</ele><time>2021-08-12T09:48:29Z</time><extensions><speed>0.622634</speed><course>35.270641</course><hAcc>0.874702</hAcc><vAcc>0.679314</vAcc></extensions></trkpt>
      <trkpt lon="-3.336223" lat="54.565431"><ele>181.573532</ele><time>2021-08-12T09:48:30Z</time><extensions><speed>0.577824</speed><course>38.302330</course><hAcc>0.874746</hAcc><vAcc>0.679347</vAcc></extensions></trkpt>
      <trkpt lon="-3.336220" lat="54.565426"><ele>181.552200</ele><time>2021-08-12T09:48:31Z</time><extensions><speed>0.531004</speed><course>40.976086</course><hAcc>0.874792</hAcc><vAcc>0.679507</vAcc></extensions></trkpt>
      <trkpt lon="-3.336217" lat="54.565422"><ele>181.499542</ele><time>2021-08-12T09:48:32Z</time><extensions><speed>0.482417</speed><course>40.718147</course><hAcc>0.874860</hAcc><vAcc>0.679869</vAcc></extensions></trkpt>
      <trkpt lon="-3.336215" lat="54.565418"><ele>181.421936</ele><time>2021-08-12T09:48:33Z</time><extensions><speed>0.433730</speed><course>40.437557</course><hAcc>0.874971</hAcc><vAcc>0.680514</vAcc></extensions></trkpt>
      <trkpt lon="-3.336212" lat="54.565415"><ele>181.325485</ele><time>2021-08-12T09:48:34Z</time><extensions><speed>0.387887</speed><course>38.315979</course><hAcc>0.875142</hAcc><vAcc>0.681483</vAcc></extensions></trkpt>
      <trkpt lon="-3.336209" lat="54.565412"><ele>181.216049</ele><time>2021-08-12T09:48:35Z</time><extensions><speed>0.347343</speed><course>28.668550</course><hAcc>0.875374</hAcc><vAcc>0.682736</vAcc></extensions></trkpt>
      <trkpt lon="-3.336206" lat="54.565410"><ele>181.099579</ele><time>2021-08-12T09:48:36Z</time><extensions><speed>0.312862</speed><course>31.392698</course><hAcc>0.875654</hAcc><vAcc>0.684159</vAcc></extensions></trkpt>
      <trkpt lon="-3.336204" lat="54.565407"><ele>180.981323</ele><time>2021-08-12T09:48:37Z</time><extensions><speed>0.283785</speed><course>32.848076</course><hAcc>0.875960</hAcc><vAcc>0.685612</vAcc></extensions></trkpt>
      <trkpt lon="-3.336201" lat="54.565405"><ele>180.865585</ele><time>2021-08-12T09:48:38Z</time><extensions><speed>0.258862</speed><course>38.096359</course><hAcc>0.876270</hAcc><vAcc>0.686972</vAcc></extensions></trkpt>
      <trkpt lon="-3.336199" lat="54.565404"><ele>180.756027</ele><time>2021-08-12T09:48:39Z</time><extensions><speed>0.236832</speed><course>27.737675</course><hAcc>0.876559</hAcc><vAcc>0.688158</vAcc></extensions></trkpt>
      <trkpt lon="-3.336196" lat="54.565402"><ele>180.655624</ele><time>2021-08-12T09:48:40Z</time><extensions><speed>0.216241</speed><course>38.820049</course><hAcc>0.876810</hAcc><vAcc>0.689136</vAcc></extensions></trkpt>
      <trkpt lon="-3.336194" lat="54.565401"><ele>180.566269</ele><time>2021-08-12T09:48:41Z</time><extensions><speed>0.196163</speed><course>40.137299</course><hAcc>0.877014</hAcc><vAcc>0.689902</vAcc></extensions></trkpt>
      <trkpt lon="-3.336192" lat="54.565400"><ele>180.488266</ele><time>2021-08-12T09:48:42Z</time><extensions><speed>0.176145</speed><course>44.560421</course><hAcc>0.877163</hAcc><vAcc>0.690459</vAcc></extensions></trkpt>
      <trkpt lon="-3.336190" lat="54.565399"><ele>180.421127</ele><time>2021-08-12T09:48:43Z</time><extensions><speed>0.156130</speed><course>41.574787</course><hAcc>0.877253</hAcc><vAcc>0.690816</vAcc></extensions></trkpt>
      <trkpt lon="-3.336188" lat="54.565398"><ele>180.364243</ele><time>2021-08-12T09:48:44Z</time><extensions><speed>0.136730</speed><course>37.402897</course><hAcc>0.877284</hAcc><vAcc>0.690971</vAcc></extensions></trkpt>
      <trkpt lon="-3.336187" lat="54.565397"><ele>180.316879</ele><time>2021-08-12T09:48:45Z</time><extensions><speed>0.118579</speed><course>38.445354</course><hAcc>0.877251</hAcc><vAcc>0.690911</vAcc></extensions></trkpt>
      <trkpt lon="-3.336186" lat="54.565396"><ele>180.278229</ele><time>2021-08-12T09:48:46Z</time><extensions><speed>0.101634</speed><course>32.932274</course><hAcc>0.877152</hAcc><vAcc>0.690614</vAcc></extensions></trkpt>
      <trkpt lon="-3.336185" lat="54.565396"><ele>180.247299</ele><time>2021-08-12T09:48:47Z</time><extensions><speed>0.085437</speed><course>27.701353</course><hAcc>0.876986</hAcc><vAcc>0.690060</vAcc></extensions></trkpt>
      <trkpt lon="-3.336184" lat="54.565395"><ele>180.222961</ele><time>2021-08-12T09:48:48Z</time><extensions><speed>0.069810</speed><course>28.233585</course><hAcc>0.876751</hAcc><vAcc>0.689240</vAcc></extensions></trkpt>
      <trkpt lon="-3.336184" lat="54.565395"><ele>180.204010</ele><time>2021-08-12T09:48:49Z</time><extensions><speed>0.054641</speed><course>30.003765</course><hAcc>0.876448</hAcc><vAcc>0.688157</vAcc></extensions></trkpt>
      <trkpt lon="-3.336184" lat="54.565394"><ele>180.189392</ele><time>2021-08-12T09:48:50Z</time><extensions><speed>0.040433</speed><course>35.586266</course><hAcc>0.876076</hAcc><vAcc>0.686827</vAcc></extensions></trkpt>
      <trkpt lon="-3.336184" lat="54.565394"><ele>180.178543</ele><time>2021-08-12T09:48:51Z</time><extensions><speed>0.028285</speed><course>41.034397</course><hAcc>0.875638</hAcc><vAcc>0.685271</vAcc></extensions></trkpt>
      <trkpt lon="-3.336184" lat="54.565394"><ele>180.171265</ele><time>2021-08-12T09:48:52Z</time><extensions><speed>0.022256</speed><course>43.040592</course><hAcc>0.875135</hAcc><vAcc>0.683499</vAcc></extensions></trkpt>
      <trkpt lon="-3.336184" lat="54.565394"><ele>180.167435</ele><time>2021-08-12T09:48:53Z</time><extensions><speed>0.029167</speed><course>49.550934</course><hAcc>0.874569</hAcc><vAcc>0.681513</vAcc></extensions></trkpt>
      <trkpt lon="-3.336185" lat="54.565394"><ele>180.166885</ele><time>2021-08-12T09:48:54Z</time><extensions><speed>0.044983</speed><course>62.069283</course><hAcc>0.873943</hAcc><vAcc>0.679314</vAcc></extensions></trkpt>
      <trkpt lon="-3.336185" lat="54.565394"><ele>180.169266</ele><time>2021-08-12T09:48:55Z</time><extensions><speed>0.063330</speed><course>68.512573</course><hAcc>0.873266</hAcc><vAcc>0.676907</vAcc></extensions></trkpt>
      <trkpt lon="-3.336186" lat="54.565394"><ele>180.174179</ele><time>2021-08-12T09:48:56Z</time><extensions><speed>0.080902</speed><course>76.544746</course><hAcc>0.872546</hAcc><vAcc>0.674314</vAcc></extensions></trkpt>
      <trkpt lon="-3.336187" lat="54.565395"><ele>180.181198</ele><time>2021-08-12T09:48:57Z</time><extensions><speed>0.096077</speed><course>91.471558</course><hAcc>0.871801</hAcc><vAcc>0.671583</vAcc></extensions></trkpt>
      <trkpt lon="-3.336189" lat="54.565396"><ele>180.190079</ele><time>2021-08-12T09:48:58Z</time><extensions><speed>0.108053</speed><course>103.707001</course><hAcc>0.871051</hAcc><vAcc>0.668789</vAcc></extensions></trkpt>
      <trkpt lon="-3.336190" lat="54.565396"><ele>180.200714</ele><time>2021-08-12T09:48:59Z</time><extensions><speed>0.116509</speed><course>102.240677</course><hAcc>0.870324</hAcc><vAcc>0.666052</vAcc></extensions></trkpt>
      <trkpt lon="-3.336191" lat="54.565397"><ele>180.213074</ele><time>2021-08-12T09:49:00Z</time><extensions><speed>0.121206</speed><course>109.008522</course><hAcc>0.869649</hAcc><vAcc>0.663508</vAcc></extensions></trkpt>
      <trkpt lon="-3.336192" lat="54.565398"><ele>180.227173</ele><time>2021-08-12T09:49:01Z</time><extensions><speed>0.121967</speed><course>120.687057</course><hAcc>0.869053</hAcc><vAcc>0.661280</vAcc></extensions></trkpt>
      <trkpt lon="-3.336193" lat="54.565399"><ele>180.243149</ele><time>2021-08-12T09:49:02Z</time><extensions><speed>0.118932</speed><course>122.518364</course><hAcc>0.868550</hAcc><vAcc>0.659435</vAcc></extensions></trkpt>
      <trkpt lon="-3.336194" lat="54.565400"><ele>180.260956</ele><time>2021-08-12T09:49:03Z</time><extensions><speed>0.112551</speed><course>116.435341</course><hAcc>0.868143</hAcc><vAcc>0.657970</vAcc></extensions></trkpt>
      <trkpt lon="-3.336195" lat="54.565400"><ele>180.280441</ele><time>2021-08-12T09:49:04Z</time><extensions><speed>0.103492</speed><course>123.806564</course><hAcc>0.867824</hAcc><vAcc>0.656840</vAcc></extensions></trkpt>
      <trkpt lon="-3.336197" lat="54.565401"><ele>180.301483</ele><time>2021-08-12T09:49:05Z</time><extensions><speed>0.092393</speed><course>121.279266</course><hAcc>0.867588</hAcc><vAcc>0.656021</vAcc></extensions></trkpt>
      <trkpt lon="-3.336197" lat="54.565401"><ele>180.324020</ele><time>2021-08-12T09:49:06Z</time><extensions><speed>0.079884</speed><course>122.295830</course><hAcc>0.867435</hAcc><vAcc>0.655524</vAcc></extensions></trkpt>
      <trkpt lon="-3.336198" lat="54.565402"><ele>180.347717</ele><time>2021-08-12T09:49:07Z</time><extensions><speed>0.067097</speed><course>116.485687</course><hAcc>0.867361</hAcc><vAcc>0.655341</vAcc></extensions></trkpt>
      <trkpt lon="-3.336199" lat="54.565402"><ele>180.371933</ele><time>2021-08-12T09:49:08Z</time><extensions><speed>0.055497</speed><course>120.837761</course><hAcc>0.867350</hAcc><vAcc>0.655399</vAcc></extensions></trkpt>
      <trkpt lon="-3.336200" lat="54.565402"><ele>180.395737</ele><time>2021-08-12T09:49:09Z</time><extensions><speed>0.046691</speed><course>121.691162</course><hAcc>0.867377</hAcc><vAcc>0.655573</vAcc></extensions></trkpt>
      <trkpt lon="-3.336201" lat="54.565402"><ele>180.418198</ele><time>2021-08-12T09:49:10Z</time><extensions><speed>0.042471</speed><course>120.429344</course><hAcc>0.867418</hAcc><vAcc>0.655750</vAcc></extensions></trkpt>
      <trkpt lon="-3.336201" lat="54.565402"><ele>180.438522</ele><time>2021-08-12T09:49:11Z</time><extensions><speed>0.043594</speed><course>127.922836</course><hAcc>0.867465</hAcc><vAcc>0.655877</vAcc></extensions></trkpt>
      <trkpt lon="-3.336202" lat="54.565402"><ele>180.456375</ele><time>2021-08-12T09:49:12Z</time><extensions><speed>0.049126</speed><course>122.773224</course><hAcc>0.867531</hAcc><vAcc>0.655994</vAcc></extensions></trkpt>
      <trkpt lon="-3.336202" lat="54.565401"><ele>180.471878</ele><time>2021-08-12T09:49:13Z</time><extensions><speed>0.057204</speed><course>127.410233</course><hAcc>0.867647</hAcc><vAcc>0.656222</vAcc></extensions></trkpt>
      <trkpt lon="-3.336202" lat="54.565401"><ele>180.485367</ele><time>2021-08-12T09:49:14Z</time><extensions><speed>0.066178</speed><course>126.293243</course><hAcc>0.867858</hAcc><vAcc>0.656727</vAcc></extensions></trkpt>
      <trkpt lon="-3.336203" lat="54.565400"><ele>180.497406</ele><time>2021-08-12T09:49:15Z</time><extensions><speed>0.074704</speed><course>113.773628</course><hAcc>0.868214</hAcc><vAcc>0.657661</vAcc></extensions></trkpt>
      <trkpt lon="-3.336203" lat="54.565399"><ele>180.508652</ele><time>2021-08-12T09:49:16Z</time><extensions><speed>0.081550</speed><course>111.597641</course><hAcc>0.868762</hAcc><vAcc>0.659112</vAcc></extensions></trkpt>
      <trkpt lon="-3.336203" lat="54.565399"><ele>180.519577</ele><time>2021-08-12T09:49:17Z</time><extensions><speed>0.085775</speed><course>118.242065</course><hAcc>0.869535</hAcc><vAcc>0.661076</vAcc></extensions></trkpt>
      <trkpt lon="-3.336204" lat="54.565398"><ele>180.530609</ele><time>2021-08-12T09:49:18Z</time><extensions><speed>0.086524</speed><course>121.318916</course><hAcc>0.870555</hAcc><vAcc>0.663456</vAcc></extensions></trkpt>
      <trkpt lon="-3.336204" lat="54.565397"><ele>180.542160</ele><time>2021-08-12T09:49:19Z</time><extensions><speed>0.083279</speed><course>126.571838</course><hAcc>0.871839</hAcc><vAcc>0.666126</vAcc></extensions></trkpt>
      <trkpt lon="-3.336204" lat="54.565397"><ele>180.554596</ele><time>2021-08-12T09:49:20Z</time><extensions><speed>0.075805</speed><course>116.053932</course><hAcc>0.873412</hAcc><vAcc>0.669010</vAcc></extensions></trkpt>
      <trkpt lon="-3.336204" lat="54.565396"><ele>180.568237</ele><time>2021-08-12T09:49:21Z</time><extensions><speed>0.063786</speed><course>122.553452</course><hAcc>0.875299</hAcc><vAcc>0.672110</vAcc></extensions></trkpt>
      <trkpt lon="-3.336204" lat="54.565395"><ele>180.583603</ele><time>2021-08-12T09:49:22Z</time><extensions><speed>0.046942</speed><course>115.362396</course><hAcc>0.877517</hAcc><vAcc>0.675476</vAcc></extensions></trkpt>
      <trkpt lon="-3.336205" lat="54.565395"><ele>180.601379</ele><time>2021-08-12T09:49:23Z</time><extensions><speed>0.026114</speed><course>120.016403</course><hAcc>0.880057</hAcc><vAcc>0.679163</vAcc></extensions></trkpt>
      <trkpt lon="-3.336205" lat="54.565395"><ele>180.621994</ele><time>2021-08-12T09:49:24Z</time><extensions><speed>0.018884</speed><course>131.521149</course><hAcc>0.882859</hAcc><vAcc>0.683182</vAcc></extensions></trkpt>
      <trkpt lon="-3.336205" lat="54.565395"><ele>180.645248</ele><time>2021-08-12T09:49:25Z</time><extensions><speed>0.050181</speed><course>124.976143</course><hAcc>0.885805</hAcc><vAcc>0.687460</vAcc></extensions></trkpt>
      <trkpt lon="-3.336206" lat="54.565396"><ele>180.670258</ele><time>2021-08-12T09:49:26Z</time><extensions><speed>0.094055</speed><course>123.546791</course><hAcc>0.888709</hAcc><vAcc>0.691841</vAcc></extensions></trkpt>
      <trkpt lon="-3.336206" lat="54.565397"><ele>180.695709</ele><time>2021-08-12T09:49:27Z</time><extensions><speed>0.146055</speed><course>116.699699</course><hAcc>0.891339</hAcc><vAcc>0.696107</vAcc></extensions></trkpt>
      <trkpt lon="-3.336207" lat="54.565398"><ele>180.720352</ele><time>2021-08-12T09:49:28Z</time><extensions><speed>0.205329</speed><course>112.924561</course><hAcc>0.893469</hAcc><vAcc>0.700037</vAcc></extensions></trkpt>
      <trkpt lon="-3.336208" lat="54.565401"><ele>180.743088</ele><time>2021-08-12T09:49:29Z</time><extensions><speed>0.271007</speed><course>117.858780</course><hAcc>0.894986</hAcc><vAcc>0.703555</vAcc></extensions></trkpt>
      <trkpt lon="-3.336209" lat="54.565403"><ele>180.762955</ele><time>2021-08-12T09:49:30Z</time><extensions><speed>0.341983</speed><course>111.630035</course><hAcc>0.896062</hAcc><vAcc>0.706897</vAcc></extensions></trkpt>
      <trkpt lon="-3.336210" lat="54.565406"><ele>180.779160</ele><time>2021-08-12T09:49:31Z</time><extensions><speed>0.416763</speed><course>115.453979</course><hAcc>0.897416</hAcc><vAcc>0.710823</vAcc></extensions></trkpt>
      <trkpt lon="-3.336212" lat="54.565410"><ele>180.791107</ele><time>2021-08-12T09:49:32Z</time><extensions><speed>0.493332</speed><course>108.625862</course><hAcc>0.900680</hAcc><vAcc>0.716852</vAcc></extensions></trkpt>
      <trkpt lon="-3.336214" lat="54.565415"><ele>180.798431</ele><time>2021-08-12T09:49:33Z</time><extensions><speed>0.569037</speed><course>116.435417</course><hAcc>0.908851</hAcc><vAcc>0.727518</vAcc></extensions></trkpt>
      <trkpt lon="-3.336216" lat="54.565420"><ele>180.801086</ele><time>2021-08-12T09:49:34Z</time><extensions><speed>0.640469</speed><course>112.323517</course><hAcc>0.926722</hAcc><vAcc>0.746535</vAcc></extensions></trkpt>
      <trkpt lon="-3.336219" lat="54.565426"><ele>180.799454</ele><time>2021-08-12T09:49:35Z</time><extensions><speed>0.703350</speed><course>117.491661</course><hAcc>0.961040</hAcc><vAcc>0.778732</vAcc></extensions></trkpt>
      <trkpt lon="-3.336224" lat="54.565437"><ele>180.977264</ele><time>2021-08-12T09:49:36Z</time><extensions><speed>1.357144</speed><course>74.967865</course><hAcc>0.924980</hAcc><vAcc>0.747293</vAcc></extensions></trkpt>
      <trkpt lon="-3.336227" lat="54.565449"><ele>181.054352</ele><time>2021-08-12T09:49:37Z</time><extensions><speed>1.365815</speed><course>75.133301</course><hAcc>0.906023</hAcc><vAcc>0.725684</vAcc></extensions></trkpt>
      <trkpt lon="-3.336231" lat="54.565461"><ele>181.131958</ele><time>2021-08-12T09:49:38Z</time><extensions><speed>1.371712</speed><course>66.099251</course><hAcc>0.898152</hAcc><vAcc>0.714211</vAcc></extensions></trkpt>
      <trkpt lon="-3.336234" lat="54.565473"><ele>181.209946</ele><time>2021-08-12T09:49:39Z</time><extensions><speed>1.374974</speed><course>81.237114</course><hAcc>0.895870</hAcc><vAcc>0.708692</vAcc></extensions></trkpt>
      <trkpt lon="-3.336237" lat="54.565486"><ele>181.287598</ele><time>2021-08-12T09:49:40Z</time><extensions><speed>1.375960</speed><course>80.566093</course><hAcc>0.895723</hAcc><vAcc>0.706176</vAcc></extensions></trkpt>
      <trkpt lon="-3.336240" lat="54.565498"><ele>181.363480</ele><time>2021-08-12T09:49:41Z</time><extensions><speed>1.375631</speed><course>80.566109</course><hAcc>0.895819</hAcc><vAcc>0.704803</vAcc></extensions></trkpt>
      <trkpt lon="-3.336243" lat="54.565510"><ele>181.435974</ele><time>2021-08-12T09:49:42Z</time><extensions><speed>1.374469</speed><course>80.566093</course><hAcc>0.895313</hAcc><vAcc>0.703537</vAcc></extensions></trkpt>
      <trkpt lon="-3.336245" lat="54.565522"><ele>181.503372</ele><time>2021-08-12T09:49:43Z</time><extensions><speed>1.372461</speed><course>80.566093</course><hAcc>0.893990</hAcc><vAcc>0.701901</vAcc></extensions></trkpt>
      <trkpt lon="-3.336247" lat="54.565535"><ele>181.563309</ele><time>2021-08-12T09:49:44Z</time><extensions><speed>1.369577</speed><course>80.566093</course><hAcc>0.891960</hAcc><vAcc>0.699758</vAcc></extensions></trkpt>
      <trkpt lon="-3.336248" lat="54.565547"><ele>181.612640</ele><time>2021-08-12T09:49:45Z</time><extensions><speed>1.365659</speed><course>77.344681</course><hAcc>0.889466</hAcc><vAcc>0.697155</vAcc></extensions></trkpt>
      <trkpt lon="-3.336250" lat="54.565559"><ele>181.648315</ele><time>2021-08-12T09:49:46Z</time><extensions><speed>1.360526</speed><course>77.923714</course><hAcc>0.886773</hAcc><vAcc>0.694220</vAcc></extensions></trkpt>
      <trkpt lon="-3.336251" lat="54.565571"><ele>181.668106</ele><time>2021-08-12T09:49:47Z</time><extensions><speed>1.354382</speed><course>87.073212</course><hAcc>0.884106</hAcc><vAcc>0.691110</vAcc></extensions></trkpt>
      <trkpt lon="-3.336252" lat="54.565583"><ele>181.671387</ele><time>2021-08-12T09:49:48Z</time><extensions><speed>1.347685</speed><course>79.233902</course><hAcc>0.881629</hAcc><vAcc>0.687980</vAcc></extensions></trkpt>
      <trkpt lon="-3.336254" lat="54.565595"><ele>181.660263</ele><time>2021-08-12T09:49:49Z</time><extensions><speed>1.340931</speed><course>96.572746</course><hAcc>0.879444</hAcc><vAcc>0.684974</vAcc></extensions></trkpt>
      <trkpt lon="-3.336255" lat="54.565607"><ele>181.639008</ele><time>2021-08-12T09:49:50Z</time><extensions><speed>1.334268</speed><course>86.920219</course><hAcc>0.877599</hAcc><vAcc>0.682203</vAcc></extensions></trkpt>
      <trkpt lon="-3.336256" lat="54.565619"><ele>181.611862</ele><time>2021-08-12T09:49:51Z</time><extensions><speed>1.327782</speed><course>76.786201</course><hAcc>0.876102</hAcc><vAcc>0.679754</vAcc></extensions></trkpt>
      <trkpt lon="-3.336258" lat="54.565631"><ele>181.582230</ele><time>2021-08-12T09:49:52Z</time><extensions><speed>1.321917</speed><course>77.162971</course><hAcc>0.874935</hAcc><vAcc>0.677691</vAcc></extensions></trkpt>
      <trkpt lon="-3.336260" lat="54.565643"><ele>181.552658</ele><time>2021-08-12T09:49:53Z</time><extensions><speed>1.317322</speed><course>69.604996</course><hAcc>0.874066</hAcc><vAcc>0.676053</vAcc></extensions></trkpt>
      <trkpt lon="-3.336261" lat="54.565655"><ele>181.525116</ele><time>2021-08-12T09:49:54Z</time><extensions><speed>1.314466</speed><course>76.115456</course><hAcc>0.873454</hAcc><vAcc>0.674855</vAcc></extensions></trkpt>
      <trkpt lon="-3.336263" lat="54.565667"><ele>181.501129</ele><time>2021-08-12T09:49:55Z</time><extensions><speed>1.313088</speed><course>83.646278</course><hAcc>0.873058</hAcc><vAcc>0.674087</vAcc></extensions></trkpt>
      <trkpt lon="-3.336265" lat="54.565678"><ele>181.481491</ele><time>2021-08-12T09:49:56Z</time><extensions><speed>1.312627</speed><course>76.408623</course><hAcc>0.872839</hAcc><vAcc>0.673720</vAcc></extensions></trkpt>
      <trkpt lon="-3.336266" lat="54.565690"><ele>181.466003</ele><time>2021-08-12T09:49:57Z</time><extensions><speed>1.312869</speed><course>79.439453</course><hAcc>0.872760</hAcc><vAcc>0.673709</vAcc></extensions></trkpt>
      <trkpt lon="-3.336268" lat="54.565702"><ele>181.453491</ele><time>2021-08-12T09:49:58Z</time><extensions><speed>1.314011</speed><course>75.300941</course><hAcc>0.872788</hAcc><vAcc>0.673995</vAcc></extensions></trkpt>
      <trkpt lon="-3.336269" lat="54.565714"><ele>181.442154</ele><time>2021-08-12T09:49:59Z</time><extensions><speed>1.316542</speed><course>76.126534</course><hAcc>0.872897</hAcc><vAcc>0.674509</vAcc></extensions></trkpt>
      <trkpt lon="-3.336269" lat="54.565725"><ele>181.430099</ele><time>2021-08-12T09:50:00Z</time><extensions><speed>1.320671</speed><course>75.233688</course><hAcc>0.873061</hAcc><vAcc>0.675186</vAcc></extensions></trkpt>
      <trkpt lon="-3.336269" lat="54.565737"><ele>181.415680</ele><time>2021-08-12T09:50:01Z</time><extensions><speed>1.326024</speed><course>81.891060</course><hAcc>0.873261</hAcc><vAcc>0.675968</vAcc></extensions></trkpt>
      <trkpt lon="-3.336269" lat="54.565749"><ele>181.397552</ele><time>2021-08-12T09:50:02Z</time><extensions><speed>1.332143</speed><course>78.263519</course><hAcc>0.873483</hAcc><vAcc>0.676814</vAcc></extensions></trkpt>
      <trkpt lon="-3.336268" lat="54.565761"><ele>181.374695</ele><time>2021-08-12T09:50:03Z</time><extensions><speed>1.338155</speed><course>74.907532</course><hAcc>0.873714</hAcc><vAcc>0.677691</vAcc></extensions></trkpt>
      <trkpt lon="-3.336266" lat="54.565773"><ele>181.346649</ele><time>2021-08-12T09:50:04Z</time><extensions><speed>1.342747</speed><course>84.941742</course><hAcc>0.873944</hAcc><vAcc>0.678570</vAcc></extensions></trkpt>
      <trkpt lon="-3.336265" lat="54.565785"><ele>181.313568</ele><time>2021-08-12T09:50:05Z</time><extensions><speed>1.344674</speed><course>73.584358</course><hAcc>0.874163</hAcc><vAcc>0.679425</vAcc></extensions></trkpt>
      <trkpt lon="-3.336263" lat="54.565797"><ele>181.276245</ele><time>2021-08-12T09:50:06Z</time><extensions><speed>1.342599</speed><course>96.346313</course><hAcc>0.874363</hAcc><vAcc>0.680233</vAcc></extensions></trkpt>
      <trkpt lon="-3.336260" lat="54.565809"><ele>181.236237</ele><time>2021-08-12T09:50:07Z</time><extensions><speed>1.335407</speed><course>87.208282</course><hAcc>0.874534</hAcc><vAcc>0.680963</vAcc></extensions></trkpt>
      <trkpt lon="-3.336258" lat="54.565821"><ele>181.195236</ele><time>2021-08-12T09:50:08Z</time><extensions><speed>1.322754</speed><course>71.034035</course><hAcc>0.874668</hAcc><vAcc>0.681566</vAcc></extensions></trkpt>
      <trkpt lon="-3.336255" lat="54.565833"><ele>181.154419</ele><time>2021-08-12T09:50:09Z</time><extensions><speed>1.304611</speed><course>74.315559</course><hAcc>0.874753</hAcc><vAcc>0.681985</vAcc></extensions></trkpt>
      <trkpt lon="-3.336253" lat="54.565844"><ele>181.114059</ele><time>2021-08-12T09:50:10Z</time><extensions><speed>1.281123</speed><course>82.074326</course><hAcc>0.874781</hAcc><vAcc>0.682166</vAcc></extensions></trkpt>
      <trkpt lon="-3.336251" lat="54.565856"><ele>181.074249</ele><time>2021-08-12T09:50:11Z</time><extensions><speed>1.253120</speed><course>78.798851</course><hAcc>0.874748</hAcc><vAcc>0.682073</vAcc></extensions></trkpt>
      <trkpt lon="-3.336249" lat="54.565867"><ele>181.035843</ele><time>2021-08-12T09:50:12Z</time><extensions><speed>1.222166</speed><course>71.049065</course><hAcc>0.874652</hAcc><vAcc>0.681700</vAcc></extensions></trkpt>
      <trkpt lon="-3.336247" lat="54.565877"><ele>181.000153</ele><time>2021-08-12T09:50:13Z</time><extensions><speed>1.190453</speed><course>66.417450</course><hAcc>0.874499</hAcc><vAcc>0.681070</vAcc></extensions></trkpt>
      <trkpt lon="-3.336245" lat="54.565888"><ele>180.968155</ele><time>2021-08-12T09:50:14Z</time><extensions><speed>1.160389</speed><course>67.881187</course><hAcc>0.874296</hAcc><vAcc>0.680231</vAcc></extensions></trkpt>
      <trkpt lon="-3.336244" lat="54.565898"><ele>180.940186</ele><time>2021-08-12T09:50:15Z</time><extensions><speed>1.134055</speed><course>73.946594</course><hAcc>0.874054</hAcc><vAcc>0.679244</vAcc></extensions></trkpt>
      <trkpt lon="-3.336243" lat="54.565908"><ele>180.916153</ele><time>2021-08-12T09:50:16Z</time><extensions><speed>1.113174</speed><course>66.868568</course><hAcc>0.873786</hAcc><vAcc>0.678168</vAcc></extensions></trkpt>
      <trkpt lon="-3.336243" lat="54.565918"><ele>180.895920</ele><time>2021-08-12T09:50:17Z</time><extensions><speed>1.098951</speed><course>57.370388</course><hAcc>0.873504</hAcc><vAcc>0.677056</vAcc></extensions></trkpt>
      <trkpt lon="-3.336243" lat="54.565928"><ele>180.879395</ele><time>2021-08-12T09:50:18Z</time><extensions><speed>1.091583</speed><course>72.859169</course><hAcc>0.873218</hAcc><vAcc>0.675954</vAcc></extensions></trkpt>
      <trkpt lon="-3.336243" lat="54.565938"><ele>180.865952</ele><time>2021-08-12T09:50:19Z</time><extensions><speed>1.090254</speed><course>73.476959</course><hAcc>0.872940</hAcc><vAcc>0.674895</vAcc></extensions></trkpt>
      <trkpt lon="-3.336243" lat="54.565948"><ele>180.854156</ele><time>2021-08-12T09:50:20Z</time><extensions><speed>1.093216</speed><course>70.985191</course><hAcc>0.872676</hAcc><vAcc>0.673903</vAcc></extensions></trkpt>
      <trkpt lon="-3.336243" lat="54.565958"><ele>180.841919</ele><time>2021-08-12T09:50:21Z</time><extensions><speed>1.098893</speed><course>67.094063</course><hAcc>0.872433</hAcc><vAcc>0.673000</vAcc></extensions></trkpt>
      <trkpt lon="-3.336244" lat="54.565968"><ele>180.826920</ele><time>2021-08-12T09:50:22Z</time><extensions><speed>1.106552</speed><course>63.802017</course><hAcc>0.872217</hAcc><vAcc>0.672204</vAcc></extensions></trkpt>
      <trkpt lon="-3.336244" lat="54.565977"><ele>180.808044</ele><time>2021-08-12T09:50:23Z</time><extensions><speed>1.115926</speed><course>59.738853</course><hAcc>0.872029</hAcc><vAcc>0.671530</vAcc></extensions></trkpt>
      <trkpt lon="-3.336245" lat="54.565988"><ele>180.785751</ele><time>2021-08-12T09:50:24Z</time><extensions><speed>1.126904</speed><course>64.752533</course><hAcc>0.871871</hAcc><vAcc>0.670986</vAcc></extensions></trkpt>
      <trkpt lon="-3.336246" lat="54.565998"><ele>180.761749</ele><time>2021-08-12T09:50:25Z</time><extensions><speed>1.138980</speed><course>62.678837</course><hAcc>0.871741</hAcc><vAcc>0.670566</vAcc></extensions></trkpt>
      <trkpt lon="-3.336247" lat="54.566008"><ele>180.738785</ele><time>2021-08-12T09:50:26Z</time><extensions><speed>1.151542</speed><course>67.622025</course><hAcc>0.871632</hAcc><vAcc>0.670247</vAcc></extensions></trkpt>
      <trkpt lon="-3.336248" lat="54.566018"><ele>180.720276</ele><time>2021-08-12T09:50:27Z</time><extensions><speed>1.163614</speed><course>76.998230</course><hAcc>0.871537</hAcc><vAcc>0.669993</vAcc></extensions></trkpt>
      <trkpt lon="-3.336249" lat="54.566029"><ele>180.709610</ele><time>2021-08-12T09:50:28Z</time><extensions><speed>1.173628</speed><course>71.279175</course><hAcc>0.871445</hAcc><vAcc>0.669747</vAcc></extensions></trkpt>
      <trkpt lon="-3.336251" lat="54.566039"><ele>180.709412</ele><time>2021-08-12T09:50:29Z</time><extensions><speed>1.180169</speed><course>66.215858</course><hAcc>0.871344</hAcc><vAcc>0.669451</vAcc></extensions></trkpt>
      <trkpt lon="-3.336253" lat="54.566050"><ele>180.721130</ele><time>2021-08-12T09:50:30Z</time><extensions><speed>1.182867</speed><course>65.869171</course><hAcc>0.871227</hAcc><vAcc>0.669060</vAcc></extensions></trkpt>
      <trkpt lon="-3.336255" lat="54.566060"><ele>180.744843</ele><time>2021-08-12T09:50:31Z</time><extensions><speed>1.181969</speed><course>67.480362</course><hAcc>0.871089</hAcc><vAcc>0.668559</vAcc></extensions></trkpt>
      <trkpt lon="-3.336257" lat="54.566071"><ele>180.779449</ele><time>2021-08-12T09:50:32Z</time><extensions><speed>1.177564</speed><course>62.467888</course><hAcc>0.870932</hAcc><vAcc>0.667962</vAcc></extensions></trkpt>
      <trkpt lon="-3.336259" lat="54.566081"><ele>180.823090</ele><time>2021-08-12T09:50:33Z</time><extensions><speed>1.169942</speed><course>57.403885</course><hAcc>0.870759</hAcc><vAcc>0.667293</vAcc></extensions></trkpt>
      <trkpt lon="-3.336261" lat="54.566092"><ele>180.873779</ele><time>2021-08-12T09:50:34Z</time><extensions><speed>1.160264</speed><course>56.104736</course><hAcc>0.870577</hAcc><vAcc>0.666581</vAcc></extensions></trkpt>
      <trkpt lon="-3.336264" lat="54.566102"><ele>180.929947</ele><time>2021-08-12T09:50:35Z</time><extensions><speed>1.150648</speed><course>57.135769</course><hAcc>0.870392</hAcc><vAcc>0.665858</vAcc></extensions></trkpt>
      <trkpt lon="-3.336266" lat="54.566112"><ele>180.990524</ele><time>2021-08-12T09:50:36Z</time><extensions><speed>1.143376</speed><course>59.466648</course><hAcc>0.870211</hAcc><vAcc>0.665159</vAcc></extensions></trkpt>
      <trkpt lon="-3.336268" lat="54.566123"><ele>181.054428</ele><time>2021-08-12T09:50:37Z</time><extensions><speed>1.139653</speed><course>56.466339</course><hAcc>0.870042</hAcc><vAcc>0.664516</vAcc></extensions></trkpt>
      <trkpt lon="-3.336270" lat="54.566133"><ele>181.119598</ele><time>2021-08-12T09:50:38Z</time><extensions><speed>1.139786</speed><course>61.082169</course><hAcc>0.869889</hAcc><vAcc>0.663951</vAcc></extensions></trkpt>
      <trkpt lon="-3.336272" lat="54.566143"><ele>181.183273</ele><time>2021-08-12T09:50:39Z</time><extensions><speed>1.144021</speed><course>63.000797</course><hAcc>0.869758</hAcc><vAcc>0.663476</vAcc></extensions></trkpt>
      <trkpt lon="-3.336273" lat="54.566153"><ele>181.242645</ele><time>2021-08-12T09:50:40Z</time><extensions><speed>1.151757</speed><course>58.373146</course><hAcc>0.869648</hAcc><vAcc>0.663093</vAcc></extensions></trkpt>
      <trkpt lon="-3.336275" lat="54.566164"><ele>181.295120</ele><time>2021-08-12T09:50:41Z</time><extensions><speed>1.161679</speed><course>59.591164</course><hAcc>0.869558</hAcc><vAcc>0.662794</vAcc></extensions></trkpt>
      <trkpt lon="-3.336276" lat="54.566174"><ele>181.338577</ele><time>2021-08-12T09:50:42Z</time><extensions><speed>1.172854</speed><course>56.078835</course><hAcc>0.869486</hAcc><vAcc>0.662563</vAcc></extensions></trkpt>
      <trkpt lon="-3.336276" lat="54.566185"><ele>181.371857</ele><time>2021-08-12T09:50:43Z</time><extensions><speed>1.184475</speed><course>61.452141</course><hAcc>0.869428</hAcc><vAcc>0.662374</vAcc></extensions></trkpt>
      <trkpt lon="-3.336276" lat="54.566195"><ele>181.394852</ele><time>2021-08-12T09:50:44Z</time><extensions><speed>1.195365</speed><course>62.349373</course><hAcc>0.869380</hAcc><vAcc>0.662212</vAcc></extensions></trkpt>
      <trkpt lon="-3.336276" lat="54.566206"><ele>181.408249</ele><time>2021-08-12T09:50:45Z</time><extensions><speed>1.205179</speed><course>67.502327</course><hAcc>0.869341</hAcc><vAcc>0.662076</vAcc></extensions></trkpt>
      <trkpt lon="-3.336275" lat="54.566217"><ele>181.413010</ele><time>2021-08-12T09:50:46Z</time><extensions><speed>1.214253</speed><course>65.148994</course><hAcc>0.869310</hAcc><vAcc>0.661969</vAcc></extensions></trkpt>
      <trkpt lon="-3.336273" lat="54.566228"><ele>181.410095</ele><time>2021-08-12T09:50:47Z</time><extensions><speed>1.222615</speed><course>61.604351</course><hAcc>0.869286</hAcc><vAcc>0.661889</vAcc></extensions></trkpt>
      <trkpt lon="-3.336271" lat="54.566239"><ele>181.400391</ele><time>2021-08-12T09:50:48Z</time><extensions><speed>1.229892</speed><course>67.356651</course><hAcc>0.869267</hAcc><vAcc>0.661833</vAcc></extensions></trkpt>
      <trkpt lon="-3.336269" lat="54.566250"><ele>181.384827</ele><time>2021-08-12T09:50:49Z</time><extensions><speed>1.235381</speed><course>56.187717</course><hAcc>0.869252</hAcc><vAcc>0.661798</vAcc></extensions></trkpt>
      <trkpt lon="-3.336266" lat="54.566261"><ele>181.364487</ele><time>2021-08-12T09:50:50Z</time><extensions><speed>1.238592</speed><course>56.273357</course><hAcc>0.869238</hAcc><vAcc>0.661774</vAcc></extensions></trkpt>
      <trkpt lon="-3.336263" lat="54.566272"><ele>181.340561</ele><time>2021-08-12T09:50:51Z</time><extensions><speed>1.239583</speed><course>59.042984</course><hAcc>0.869220</hAcc><vAcc>0.661738</vAcc></extensions></trkpt>
      <trkpt lon="-3.336259" lat="54.566283"><ele>181.314041</ele><time>2021-08-12T09:50:52Z</time><extensions><speed>1.238758</speed><course>46.754299</course><hAcc>0.869194</hAcc><vAcc>0.661661</vAcc></extensions></trkpt>
      <trkpt lon="-3.336256" lat="54.566294"><ele>181.285446</ele><time>2021-08-12T09:50:53Z</time><extensions><speed>1.236727</speed><course>46.754295</course><hAcc>0.869157</hAcc><vAcc>0.661524</vAcc></extensions></trkpt>
      <trkpt lon="-3.336252" lat="54.566305"><ele>181.254593</ele><time>2021-08-12T09:50:54Z</time><extensions><speed>1.234414</speed><course>46.754295</course><hAcc>0.869108</hAcc><vAcc>0.661327</vAcc></extensions></trkpt>
      <trkpt lon="-3.336248" lat="54.566315"><ele>181.220795</ele><time>2021-08-12T09:50:55Z</time><extensions><speed>1.232525</speed><course>46.754295</course><hAcc>0.869052</hAcc><vAcc>0.661087</vAcc></extensions></trkpt>
      <trkpt lon="-3.336245" lat="54.566326"><ele>181.183411</ele><time>2021-08-12T09:50:56Z</time><extensions><speed>1.231224</speed><course>46.754295</course><hAcc>0.868994</hAcc><vAcc>0.660838</vAcc></extensions></trkpt>
      <trkpt lon="-3.336241" lat="54.566337"><ele>181.141907</ele><time>2021-08-12T09:50:57Z</time><extensions><speed>1.230423</speed><course>46.754295</course><hAcc>0.868942</hAcc><vAcc>0.660615</vAcc></extensions></trkpt>
      <trkpt lon="-3.336238" lat="54.566348"><ele>181.096085</ele><time>2021-08-12T09:50:58Z</time><extensions><speed>1.230243</speed><course>46.754295</course><hAcc>0.868901</hAcc><vAcc>0.660450</vAcc></extensions></trkpt>
      <trkpt lon="-3.336234" lat="54.566359"><ele>181.046387</ele><time>2021-08-12T09:50:59Z</time><extensions><speed>1.230594</speed><course>46.754292</course><hAcc>0.868873</hAcc><vAcc>0.660354</vAcc></extensions></trkpt>
      <trkpt lon="-3.336231" lat="54.566370"><ele>180.993927</ele><time>2021-08-12T09:51:00Z</time><extensions><speed>1.231184</speed><course>46.754295</course><hAcc>0.868858</hAcc><vAcc>0.660321</vAcc></extensions></trkpt>
      <trkpt lon="-3.336228" lat="54.566381"><ele>180.940109</ele><time>2021-08-12T09:51:01Z</time><extensions><speed>1.231945</speed><course>86.257805</course><hAcc>0.868850</hAcc><vAcc>0.660328</vAcc></extensions></trkpt>
      <trkpt lon="-3.336225" lat="54.566392"><ele>180.886627</ele><time>2021-08-12T09:51:02Z</time><extensions><speed>1.232863</speed><course>92.864906</course><hAcc>0.868843</hAcc><vAcc>0.660346</vAcc></extensions></trkpt>
      <trkpt lon="-3.336222" lat="54.566403"><ele>180.835495</ele><time>2021-08-12T09:51:03Z</time><extensions><speed>1.234046</speed><course>94.458534</course><hAcc>0.868834</hAcc><vAcc>0.660345</vAcc></extensions></trkpt>
      <trkpt lon="-3.336220" lat="54.566414"><ele>180.788651</ele><time>2021-08-12T09:51:04Z</time><extensions><speed>1.235467</speed><course>89.165138</course><hAcc>0.868817</hAcc><vAcc>0.660305</vAcc></extensions></trkpt>
      <trkpt lon="-3.336218" lat="54.566425"><ele>180.747299</ele><time>2021-08-12T09:51:05Z</time><extensions><speed>1.237243</speed><course>98.187202</course><hAcc>0.868791</hAcc><vAcc>0.660214</vAcc></extensions></trkpt>
      <trkpt lon="-3.336216" lat="54.566436"><ele>180.711868</ele><time>2021-08-12T09:51:06Z</time><extensions><speed>1.239749</speed><course>262.094696</course><hAcc>0.868757</hAcc><vAcc>0.660075</vAcc></extensions></trkpt>
      <trkpt lon="-3.336215" lat="54.566447"><ele>180.682602</ele><time>2021-08-12T09:51:07Z</time><extensions><speed>1.243008</speed><course>273.339569</course><hAcc>0.868722</hAcc><vAcc>0.659907</vAcc></extensions></trkpt>
      <trkpt lon="-3.336214" lat="54.566458"><ele>180.659760</ele><time>2021-08-12T09:51:08Z</time><extensions><speed>1.246744</speed><course>270.133057</course><hAcc>0.868694</hAcc><vAcc>0.659745</vAcc></extensions></trkpt>
      <trkpt lon="-3.336213" lat="54.566469"><ele>180.643585</ele><time>2021-08-12T09:51:09Z</time><extensions><speed>1.250666</speed><course>264.401459</course><hAcc>0.868686</hAcc><vAcc>0.659645</vAcc></extensions></trkpt>
      <trkpt lon="-3.336212" lat="54.566480"><ele>180.634445</ele><time>2021-08-12T09:51:10Z</time><extensions><speed>1.254378</speed><course>271.206299</course><hAcc>0.868713</hAcc><vAcc>0.659670</vAcc></extensions></trkpt>
      <trkpt lon="-3.336212" lat="54.566492"><ele>180.632614</ele><time>2021-08-12T09:51:11Z</time><extensions><speed>1.257435</speed><course>270.479279</course><hAcc>0.868788</hAcc><vAcc>0.659882</vAcc></extensions></trkpt>
      <trkpt lon="-3.336212" lat="54.566503"><ele>180.637878</ele><time>2021-08-12T09:51:12Z</time><extensions><speed>1.259197</speed><course>270.479279</course><hAcc>0.868924</hAcc><vAcc>0.660329</vAcc></extensions></trkpt>
      <trkpt lon="-3.336212" lat="54.566514"><ele>180.649551</ele><time>2021-08-12T09:51:13Z</time><extensions><speed>1.259105</speed><course>270.479279</course><hAcc>0.869128</hAcc><vAcc>0.661051</vAcc></extensions></trkpt>
      <trkpt lon="-3.336213" lat="54.566526"><ele>180.666412</ele><time>2021-08-12T09:51:14Z</time><extensions><speed>1.257203</speed><course>92.836548</course><hAcc>0.869407</hAcc><vAcc>0.662074</vAcc></extensions></trkpt>
      <trkpt lon="-3.336214" lat="54.566537"><ele>180.686646</ele><time>2021-08-12T09:51:15Z</time><extensions><speed>1.253867</speed><course>91.847809</course><hAcc>0.869761</hAcc><vAcc>0.663409</vAcc></extensions></trkpt>
      <trkpt lon="-3.336215" lat="54.566548"><ele>180.707947</ele><time>2021-08-12T09:51:16Z</time><extensions><speed>1.249626</speed><course>96.972961</course><hAcc>0.870188</hAcc><vAcc>0.665041</vAcc></extensions></trkpt>
      <trkpt lon="-3.336216" lat="54.566559"><ele>180.727554</ele><time>2021-08-12T09:51:17Z</time><extensions><speed>1.245306</speed><course>101.432434</course><hAcc>0.870675</hAcc><vAcc>0.666925</vAcc></extensions></trkpt>
      <trkpt lon="-3.336217" lat="54.566570"><ele>180.742325</ele><time>2021-08-12T09:51:18Z</time><extensions><speed>1.241455</speed><course>89.921867</course><hAcc>0.871209</hAcc><vAcc>0.668992</vAcc></extensions></trkpt>
      <trkpt lon="-3.336218" lat="54.566582"><ele>180.749039</ele><time>2021-08-12T09:51:19Z</time><extensions><speed>1.237711</speed><course>79.468422</course><hAcc>0.871771</hAcc><vAcc>0.671157</vAcc></extensions></trkpt>
      <trkpt lon="-3.336219" lat="54.566593"><ele>180.744736</ele><time>2021-08-12T09:51:20Z</time><extensions><speed>1.233911</speed><course>79.668663</course><hAcc>0.872341</hAcc><vAcc>0.673323</vAcc></extensions></trkpt>
      <trkpt lon="-3.336219" lat="54.566604"><ele>180.727448</ele><time>2021-08-12T09:51:21Z</time><extensions><speed>1.230155</speed><course>70.198914</course><hAcc>0.872898</hAcc><vAcc>0.675395</vAcc></extensions></trkpt>
      <trkpt lon="-3.336219" lat="54.566615"><ele>180.695938</ele><time>2021-08-12T09:51:22Z</time><extensions><speed>1.226757</speed><course>85.811096</course><hAcc>0.873427</hAcc><vAcc>0.677308</vAcc></extensions></trkpt>
      <trkpt lon="-3.336218" lat="54.566626"><ele>180.649124</ele><time>2021-08-12T09:51:23Z</time><extensions><speed>1.224462</speed><course>87.515213</course><hAcc>0.873918</hAcc><vAcc>0.679038</vAcc></extensions></trkpt>
      <trkpt lon="-3.336217" lat="54.566637"><ele>180.586578</ele><time>2021-08-12T09:51:24Z</time><extensions><speed>1.223776</speed><course>86.802406</course><hAcc>0.874368</hAcc><vAcc>0.680588</vAcc></extensions></trkpt>
      <trkpt lon="-3.336215" lat="54.566648"><ele>180.508545</ele><time>2021-08-12T09:51:25Z</time><extensions><speed>1.225300</speed><course>85.424927</course><hAcc>0.874776</hAcc><vAcc>0.681969</vAcc></extensions></trkpt>
      <trkpt lon="-3.336212" lat="54.566659"><ele>180.415024</ele><time>2021-08-12T09:51:26Z</time><extensions><speed>1.229429</speed><course>88.911957</course><hAcc>0.875143</hAcc><vAcc>0.683198</vAcc></extensions></trkpt>
      <trkpt lon="-3.336208" lat="54.566669"><ele>180.305878</ele><time>2021-08-12T09:51:27Z</time><extensions><speed>1.235915</speed><course>93.027184</course><hAcc>0.875473</hAcc><vAcc>0.684298</vAcc></extensions></trkpt>
      <trkpt lon="-3.336204" lat="54.566680"><ele>180.181564</ele><time>2021-08-12T09:51:28Z</time><extensions><speed>1.244220</speed><course>90.763535</course><hAcc>0.875771</hAcc><vAcc>0.685296</vAcc></extensions></trkpt>
      <trkpt lon="-3.336199" lat="54.566691"><ele>180.043503</ele><time>2021-08-12T09:51:29Z</time><extensions><speed>1.253816</speed><course>83.392509</course><hAcc>0.876043</hAcc><vAcc>0.686221</vAcc></extensions></trkpt>
      <trkpt lon="-3.336194" lat="54.566702"><ele>179.893478</ele><time>2021-08-12T09:51:30Z</time><extensions><speed>1.264262</speed><course>57.334152</course><hAcc>0.876294</hAcc><vAcc>0.687095</vAcc></extensions></trkpt>
      <trkpt lon="-3.336188" lat="54.566713"><ele>179.732941</ele><time>2021-08-12T09:51:31Z</time><extensions><speed>1.275375</speed><course>29.254333</course><hAcc>0.876527</hAcc><vAcc>0.687930</vAcc></extensions></trkpt>
      <trkpt lon="-3.336181" lat="54.566724"><ele>179.563095</ele><time>2021-08-12T09:51:32Z</time><extensions><speed>1.286834</speed><course>29.254333</course><hAcc>0.876743</hAcc><vAcc>0.688729</vAcc></extensions></trkpt>
      <trkpt lon="-3.336175" lat="54.566735"><ele>179.385101</ele><time>2021-08-12T09:51:33Z</time><extensions><speed>1.297998</speed><course>29.254333</course><hAcc>0.876945</hAcc><vAcc>0.689484</vAcc></extensions></trkpt>
      <trkpt lon="-3.336168" lat="54.566746"><ele>179.200195</ele><time>2021-08-12T09:51:34Z</time><extensions><speed>1.308237</speed><course>29.254332</course><hAcc>0.877130</hAcc><vAcc>0.690185</vAcc></extensions></trkpt>
      <trkpt lon="-3.336162" lat="54.566757"><ele>179.009903</ele><time>2021-08-12T09:51:35Z</time><extensions><speed>1.317275</speed><course>29.254333</course><hAcc>0.877298</hAcc><vAcc>0.690817</vAcc></extensions></trkpt>
      <trkpt lon="-3.336155" lat="54.566768"><ele>178.816101</ele><time>2021-08-12T09:51:36Z</time><extensions><speed>1.325083</speed><course>29.254332</course><hAcc>0.877449</hAcc><vAcc>0.691370</vAcc></extensions></trkpt>
      <trkpt lon="-3.336149" lat="54.566780"><ele>178.620834</ele><time>2021-08-12T09:51:37Z</time><extensions><speed>1.331598</speed><course>29.254332</course><hAcc>0.877582</hAcc><vAcc>0.691841</vAcc></extensions></trkpt>
      <trkpt lon="-3.336143" lat="54.566791"><ele>178.426132</ele><time>2021-08-12T09:51:38Z</time><extensions><speed>1.336817</speed><course>29.254333</course><hAcc>0.877698</hAcc><vAcc>0.692231</vAcc></extensions></trkpt>
      <trkpt lon="-3.336137" lat="54.566803"><ele>178.233673</ele><time>2021-08-12T09:51:39Z</time><extensions><speed>1.340414</speed><course>29.254333</course><hAcc>0.877798</hAcc><vAcc>0.692552</vAcc></extensions></trkpt>
      <trkpt lon="-3.336131" lat="54.566814"><ele>178.044632</ele><time>2021-08-12T09:51:40Z</time><extensions><speed>1.342183</speed><course>29.254332</course><hAcc>0.877884</hAcc><vAcc>0.692822</vAcc></extensions></trkpt>
      <trkpt lon="-3.336126" lat="54.566826"><ele>177.859497</ele><time>2021-08-12T09:51:41Z</time><extensions><speed>1.342373</speed><course>29.254333</course><hAcc>0.877958</hAcc><vAcc>0.693057</vAcc></extensions></trkpt>
      <trkpt lon="-3.336121" lat="54.566837"><ele>177.678009</ele><time>2021-08-12T09:51:42Z</time><extensions><speed>1.341017</speed><course>29.254337</course><hAcc>0.878022</hAcc><vAcc>0.693271</vAcc></extensions></trkpt>
      <trkpt lon="-3.336116" lat="54.566849"><ele>177.499496</ele><time>2021-08-12T09:51:43Z</time><extensions><speed>1.338078</speed><course>29.254337</course><hAcc>0.878078</hAcc><vAcc>0.693471</vAcc></extensions></trkpt>
      <trkpt lon="-3.336111" lat="54.566861"><ele>177.323364</ele><time>2021-08-12T09:51:44Z</time><extensions><speed>1.333117</speed><course>29.254339</course><hAcc>0.878126</hAcc><vAcc>0.693660</vAcc></extensions></trkpt>
      <trkpt lon="-3.336106" lat="54.566872"><ele>177.149368</ele><time>2021-08-12T09:51:45Z</time><extensions><speed>1.325424</speed><course>29.254337</course><hAcc>0.878168</hAcc><vAcc>0.693833</vAcc></extensions></trkpt>
      <trkpt lon="-3.336101" lat="54.566884"><ele>176.977768</ele><time>2021-08-12T09:51:46Z</time><extensions><speed>1.315323</speed><course>29.254339</course><hAcc>0.878203</hAcc><vAcc>0.693976</vAcc></extensions></trkpt>
      <trkpt lon="-3.336097" lat="54.566895"><ele>176.809097</ele><time>2021-08-12T09:51:47Z</time><extensions><speed>1.303849</speed><course>353.139893</course><hAcc>0.878232</hAcc><vAcc>0.694077</vAcc></extensions></trkpt>
      <trkpt lon="-3.336093" lat="54.566907"><ele>176.643845</ele><time>2021-08-12T09:51:48Z</time><extensions><speed>1.292129</speed><course>-1.000000</course><hAcc>0.878254</hAcc><vAcc>0.694136</vAcc></extensions></trkpt>
      <trkpt lon="-3.336090" lat="54.566918"><ele>176.482407</ele><time>2021-08-12T09:51:49Z</time><extensions><speed>1.281434</speed><course>-1.000000</course><hAcc>0.878272</hAcc><vAcc>0.694168</vAcc></extensions></trkpt>
      <trkpt lon="-3.336087" lat="54.566930"><ele>176.324997</ele><time>2021-08-12T09:51:50Z</time><extensions><speed>1.272619</speed><course>-1.000000</course><hAcc>0.878285</hAcc><vAcc>0.694192</vAcc></extensions></trkpt>
      <trkpt lon="-3.336085" lat="54.566941"><ele>176.171829</ele><time>2021-08-12T09:51:51Z</time><extensions><speed>1.265903</speed><course>-1.000000</course><hAcc>0.878296</hAcc><vAcc>0.694222</vAcc></extensions></trkpt>
      <trkpt lon="-3.336083" lat="54.566952"><ele>176.023056</ele><time>2021-08-12T09:51:52Z</time><extensions><speed>1.261320</speed><course>-1.000000</course><hAcc>0.878306</hAcc><vAcc>0.694267</vAcc></extensions></trkpt>
      <trkpt lon="-3.336082" lat="54.566964"><ele>175.878723</ele><time>2021-08-12T09:51:53Z</time><extensions><speed>1.259060</speed><course>-1.000000</course><hAcc>0.878315</hAcc><vAcc>0.694324</vAcc></extensions></trkpt>
      <trkpt lon="-3.336081" lat="54.566975"><ele>175.738815</ele><time>2021-08-12T09:51:54Z</time><extensions><speed>1.259202</speed><course>-1.000000</course><hAcc>0.878323</hAcc><vAcc>0.694379</vAcc></extensions></trkpt>
      <trkpt lon="-3.336081" lat="54.566986"><ele>175.603241</ele><time>2021-08-12T09:51:55Z</time><extensions><speed>1.261051</speed><course>-1.000000</course><hAcc>0.878331</hAcc><vAcc>0.694414</vAcc></extensions></trkpt>
      <trkpt lon="-3.336081" lat="54.566998"><ele>175.472046</ele><time>2021-08-12T09:51:56Z</time><extensions><speed>1.263860</speed><course>-1.000000</course><hAcc>0.878340</hAcc><vAcc>0.694422</vAcc></extensions></trkpt>
      <trkpt lon="-3.336081" lat="54.567009"><ele>175.345535</ele><time>2021-08-12T09:51:57Z</time><extensions><speed>1.267709</speed><course>-1.000000</course><hAcc>0.878352</hAcc><vAcc>0.694416</vAcc></extensions></trkpt>
      <trkpt lon="-3.336082" lat="54.567020"><ele>175.224045</ele><time>2021-08-12T09:51:58Z</time><extensions><speed>1.272922</speed><course>-1.000000</course><hAcc>0.878369</hAcc><vAcc>0.694423</vAcc></extensions></trkpt>
      <trkpt lon="-3.336083" lat="54.567032"><ele>175.107544</ele><time>2021-08-12T09:51:59Z</time><extensions><speed>1.279572</speed><course>74.830536</course><hAcc>0.878395</hAcc><vAcc>0.694472</vAcc></extensions></trkpt>
      <trkpt lon="-3.336084" lat="54.567043"><ele>174.995804</ele><time>2021-08-12T09:52:00Z</time><extensions><speed>1.287483</speed><course>62.161198</course><hAcc>0.878431</hAcc><vAcc>0.694582</vAcc></extensions></trkpt>
      <trkpt lon="-3.336085" lat="54.567055"><ele>174.888489</ele><time>2021-08-12T09:52:01Z</time><extensions><speed>1.296291</speed><course>66.043793</course><hAcc>0.878478</hAcc><vAcc>0.694758</vAcc></extensions></trkpt>
      <trkpt lon="-3.336087" lat="54.567066"><ele>174.785217</ele><time>2021-08-12T09:52:02Z</time><extensions><speed>1.305064</speed><course>75.803009</course><hAcc>0.878536</hAcc><vAcc>0.694991</vAcc></extensions></trkpt>
      <trkpt lon="-3.336088" lat="54.567078"><ele>174.685822</ele><time>2021-08-12T09:52:03Z</time><extensions><speed>1.313187</speed><course>76.191063</course><hAcc>0.878604</hAcc><vAcc>0.695265</vAcc></extensions></trkpt>
      <trkpt lon="-3.336090" lat="54.567090"><ele>174.589996</ele><time>2021-08-12T09:52:04Z</time><extensions><speed>1.320789</speed><course>76.349960</course><hAcc>0.878680</hAcc><vAcc>0.695562</vAcc></extensions></trkpt>
      <trkpt lon="-3.336092" lat="54.567102"><ele>174.497284</ele><time>2021-08-12T09:52:05Z</time><extensions><speed>1.327688</speed><course>78.477806</course><hAcc>0.878761</hAcc><vAcc>0.695871</vAcc></extensions></trkpt>
      <trkpt lon="-3.336093" lat="54.567114"><ele>174.407547</ele><time>2021-08-12T09:52:06Z</time><extensions><speed>1.333428</speed><course>75.070290</course><hAcc>0.878846</hAcc><vAcc>0.696190</vAcc></extensions></trkpt>
      <trkpt lon="-3.336095" lat="54.567126"><ele>174.320923</ele><time>2021-08-12T09:52:07Z</time><extensions><speed>1.337735</speed><course>69.086029</course><hAcc>0.878930</hAcc><vAcc>0.696523</vAcc></extensions></trkpt>
      <trkpt lon="-3.336097" lat="54.567138"><ele>174.237595</ele><time>2021-08-12T09:52:08Z</time><extensions><speed>1.340248</speed><course>68.949226</course><hAcc>0.879012</hAcc><vAcc>0.696864</vAcc></extensions></trkpt>
      <trkpt lon="-3.336098" lat="54.567150"><ele>174.157898</ele><time>2021-08-12T09:52:09Z</time><extensions><speed>1.340183</speed><course>71.686111</course><hAcc>0.879087</hAcc><vAcc>0.697196</vAcc></extensions></trkpt>
      <trkpt lon="-3.336100" lat="54.567162"><ele>174.082077</ele><time>2021-08-12T09:52:10Z</time><extensions><speed>1.337252</speed><course>76.597496</course><hAcc>0.879150</hAcc><vAcc>0.697487</vAcc></extensions></trkpt>
      <trkpt lon="-3.336102" lat="54.567174"><ele>174.010345</ele><time>2021-08-12T09:52:11Z</time><extensions><speed>1.331716</speed><course>90.005066</course><hAcc>0.879198</hAcc><vAcc>0.697706</vAcc></extensions></trkpt>
      <trkpt lon="-3.336104" lat="54.567186"><ele>173.943039</ele><time>2021-08-12T09:52:12Z</time><extensions><speed>1.323673</speed><course>83.948074</course><hAcc>0.879228</hAcc><vAcc>0.697834</vAcc></extensions></trkpt>
      <trkpt lon="-3.336105" lat="54.567197"><ele>173.880234</ele><time>2021-08-12T09:52:13Z</time><extensions><speed>1.313418</speed><course>76.996796</course><hAcc>0.879237</hAcc><vAcc>0.697865</vAcc></extensions></trkpt>
      <trkpt lon="-3.336107" lat="54.567209"><ele>173.821289</ele><time>2021-08-12T09:52:14Z</time><extensions><speed>1.301537</speed><course>79.507355</course><hAcc>0.879224</hAcc><vAcc>0.697806</vAcc></extensions></trkpt>
      <trkpt lon="-3.336109" lat="54.567221"><ele>173.765366</ele><time>2021-08-12T09:52:15Z</time><extensions><speed>1.288457</speed><course>72.096832</course><hAcc>0.879189</hAcc><vAcc>0.697665</vAcc></extensions></trkpt>
      <trkpt lon="-3.336111" lat="54.567232"><ele>173.712280</ele><time>2021-08-12T09:52:16Z</time><extensions><speed>1.274444</speed><course>80.368279</course><hAcc>0.879134</hAcc><vAcc>0.697449</vAcc></extensions></trkpt>
      <trkpt lon="-3.336113" lat="54.567243"><ele>173.662064</ele><time>2021-08-12T09:52:17Z</time><extensions><speed>1.260252</speed><course>78.982643</course><hAcc>0.879061</hAcc><vAcc>0.697162</vAcc></extensions></trkpt>
      <trkpt lon="-3.336115" lat="54.567255"><ele>173.614395</ele><time>2021-08-12T09:52:18Z</time><extensions><speed>1.246599</speed><course>81.075706</course><hAcc>0.878974</hAcc><vAcc>0.696808</vAcc></extensions></trkpt>
      <trkpt lon="-3.336117" lat="54.567266"><ele>173.568771</ele><time>2021-08-12T09:52:19Z</time><extensions><speed>1.233683</speed><course>81.007790</course><hAcc>0.878877</hAcc><vAcc>0.696399</vAcc></extensions></trkpt>
      <trkpt lon="-3.336119" lat="54.567277"><ele>173.525345</ele><time>2021-08-12T09:52:20Z</time><extensions><speed>1.221469</speed><course>78.272133</course><hAcc>0.878774</hAcc><vAcc>0.695958</vAcc></extensions></trkpt>
      <trkpt lon="-3.336121" lat="54.567288"><ele>173.485168</ele><time>2021-08-12T09:52:21Z</time><extensions><speed>1.210217</speed><course>73.069588</course><hAcc>0.878672</hAcc><vAcc>0.695515</vAcc></extensions></trkpt>
      <trkpt lon="-3.336123" lat="54.567298"><ele>173.449234</ele><time>2021-08-12T09:52:22Z</time><extensions><speed>1.200461</speed><course>77.189682</course><hAcc>0.878577</hAcc><vAcc>0.695101</vAcc></extensions></trkpt>
      <trkpt lon="-3.336125" lat="54.567309"><ele>173.418060</ele><time>2021-08-12T09:52:23Z</time><extensions><speed>1.192485</speed><course>75.197517</course><hAcc>0.878492</hAcc><vAcc>0.694743</vAcc></extensions></trkpt>
      <trkpt lon="-3.336127" lat="54.567320"><ele>173.391907</ele><time>2021-08-12T09:52:24Z</time><extensions><speed>1.186273</speed><course>67.733307</course><hAcc>0.878421</hAcc><vAcc>0.694461</vAcc></extensions></trkpt>
      <trkpt lon="-3.336128" lat="54.567330"><ele>173.370621</ele><time>2021-08-12T09:52:25Z</time><extensions><speed>1.181677</speed><course>69.123688</course><hAcc>0.878367</hAcc><vAcc>0.694262</vAcc></extensions></trkpt>
      <trkpt lon="-3.336130" lat="54.567341"><ele>173.353592</ele><time>2021-08-12T09:52:26Z</time><extensions><speed>1.178483</speed><course>71.299400</course><hAcc>0.878330</hAcc><vAcc>0.694148</vAcc></extensions></trkpt>
      <trkpt lon="-3.336132" lat="54.567351"><ele>173.339798</ele><time>2021-08-12T09:52:27Z</time><extensions><speed>1.176365</speed><course>77.479210</course><hAcc>0.878309</hAcc><vAcc>0.694109</vAcc></extensions></trkpt>
      <trkpt lon="-3.336133" lat="54.567362"><ele>173.328094</ele><time>2021-08-12T09:52:28Z</time><extensions><speed>1.174995</speed><course>68.623329</course><hAcc>0.878299</hAcc><vAcc>0.694131</vAcc></extensions></trkpt>
      <trkpt lon="-3.336134" lat="54.567372"><ele>173.317429</ele><time>2021-08-12T09:52:29Z</time><extensions><speed>1.173907</speed><course>63.866425</course><hAcc>0.878299</hAcc><vAcc>0.694198</vAcc></extensions></trkpt>
      <trkpt lon="-3.336134" lat="54.567383"><ele>173.306931</ele><time>2021-08-12T09:52:30Z</time><extensions><speed>1.172505</speed><course>76.291603</course><hAcc>0.878303</hAcc><vAcc>0.694288</vAcc></extensions></trkpt>
      <trkpt lon="-3.336134" lat="54.567393"><ele>173.296005</ele><time>2021-08-12T09:52:31Z</time><extensions><speed>1.170457</speed><course>71.777351</course><hAcc>0.878306</hAcc><vAcc>0.694374</vAcc></extensions></trkpt>
      <trkpt lon="-3.336133" lat="54.567404"><ele>173.284256</ele><time>2021-08-12T09:52:32Z</time><extensions><speed>1.168130</speed><course>76.476341</course><hAcc>0.878304</hAcc><vAcc>0.694423</vAcc></extensions></trkpt>
      <trkpt lon="-3.336133" lat="54.567414"><ele>173.271393</ele><time>2021-08-12T09:52:33Z</time><extensions><speed>1.166099</speed><course>63.346680</course><hAcc>0.878292</hAcc><vAcc>0.694408</vAcc></extensions></trkpt>
      <trkpt lon="-3.336132" lat="54.567425"><ele>173.257141</ele><time>2021-08-12T09:52:34Z</time><extensions><speed>1.164839</speed><course>60.883244</course><hAcc>0.878267</hAcc><vAcc>0.694317</vAcc></extensions></trkpt>
      <trkpt lon="-3.336130" lat="54.567435"><ele>173.240997</ele><time>2021-08-12T09:52:35Z</time><extensions><speed>1.164946</speed><course>66.100471</course><hAcc>0.878228</hAcc><vAcc>0.694153</vAcc></extensions></trkpt>
      <trkpt lon="-3.336129" lat="54.567446"><ele>173.222794</ele><time>2021-08-12T09:52:36Z</time><extensions><speed>1.166860</speed><course>66.284729</course><hAcc>0.878176</hAcc><vAcc>0.693933</vAcc></extensions></trkpt>
      <trkpt lon="-3.336127" lat="54.567456"><ele>173.203293</ele><time>2021-08-12T09:52:37Z</time><extensions><speed>1.170514</speed><course>70.183884</course><hAcc>0.878110</hAcc><vAcc>0.693669</vAcc></extensions></trkpt>
      <trkpt lon="-3.336126" lat="54.567467"><ele>173.183273</ele><time>2021-08-12T09:52:38Z</time><extensions><speed>1.175574</speed><course>69.091454</course><hAcc>0.878031</hAcc><vAcc>0.693364</vAcc></extensions></trkpt>
      <trkpt lon="-3.336124" lat="54.567477"><ele>173.162659</ele><time>2021-08-12T09:52:39Z</time><extensions><speed>1.181834</speed><course>67.595528</course><hAcc>0.877941</hAcc><vAcc>0.693023</vAcc></extensions></trkpt>
      <trkpt lon="-3.336123" lat="54.567488"><ele>173.141068</ele><time>2021-08-12T09:52:40Z</time><extensions><speed>1.189115</speed><course>69.079941</course><hAcc>0.877840</hAcc><vAcc>0.692649</vAcc></extensions></trkpt>
      <trkpt lon="-3.336122" lat="54.567499"><ele>173.117935</ele><time>2021-08-12T09:52:41Z</time><extensions><speed>1.196679</speed><course>67.638985</course><hAcc>0.877732</hAcc><vAcc>0.692249</vAcc></extensions></trkpt>
      <trkpt lon="-3.336121" lat="54.567509"><ele>173.092621</ele><time>2021-08-12T09:52:42Z</time><extensions><speed>1.203134</speed><course>67.902077</course><hAcc>0.877616</hAcc><vAcc>0.691826</vAcc></extensions></trkpt>
      <trkpt lon="-3.336121" lat="54.567520"><ele>173.064575</ele><time>2021-08-12T09:52:43Z</time><extensions><speed>1.207216</speed><course>68.213737</course><hAcc>0.877494</hAcc><vAcc>0.691383</vAcc></extensions></trkpt>
      <trkpt lon="-3.336121" lat="54.567531"><ele>173.033417</ele><time>2021-08-12T09:52:44Z</time><extensions><speed>1.208341</speed><course>58.646133</course><hAcc>0.877367</hAcc><vAcc>0.690925</vAcc></extensions></trkpt>
      <trkpt lon="-3.336121" lat="54.567542"><ele>172.999191</ele><time>2021-08-12T09:52:45Z</time><extensions><speed>1.206015</speed><course>60.787758</course><hAcc>0.877235</hAcc><vAcc>0.690455</vAcc></extensions></trkpt>
      <trkpt lon="-3.336121" lat="54.567553"><ele>172.962280</ele><time>2021-08-12T09:52:46Z</time><extensions><speed>1.200083</speed><course>59.107254</course><hAcc>0.877098</hAcc><vAcc>0.689977</vAcc></extensions></trkpt>
      <trkpt lon="-3.336121" lat="54.567563"><ele>172.922897</ele><time>2021-08-12T09:52:47Z</time><extensions><speed>1.190514</speed><course>59.308796</course><hAcc>0.876954</hAcc><vAcc>0.689490</vAcc></extensions></trkpt>
      <trkpt lon="-3.336122" lat="54.567574"><ele>172.880844</ele><time>2021-08-12T09:52:48Z</time><extensions><speed>1.177407</speed><course>63.536522</course><hAcc>0.876803</hAcc><vAcc>0.688976</vAcc></extensions></trkpt>
      <trkpt lon="-3.336122" lat="54.567585"><ele>172.835709</ele><time>2021-08-12T09:52:49Z</time><extensions><speed>1.161727</speed><course>64.110619</course><hAcc>0.876639</hAcc><vAcc>0.688413</vAcc></extensions></trkpt>
      <trkpt lon="-3.336123" lat="54.567595"><ele>172.786896</ele><time>2021-08-12T09:52:50Z</time><extensions><speed>1.144606</speed><course>57.783936</course><hAcc>0.876459</hAcc><vAcc>0.687787</vAcc></extensions></trkpt>
      <trkpt lon="-3.336124" lat="54.567605"><ele>172.733734</ele><time>2021-08-12T09:52:51Z</time><extensions><speed>1.126741</speed><course>62.673740</course><hAcc>0.876258</hAcc><vAcc>0.687090</vAcc></extensions></trkpt>
      <trkpt lon="-3.336125" lat="54.567615"><ele>172.675720</ele><time>2021-08-12T09:52:52Z</time><extensions><speed>1.108824</speed><course>68.268181</course><hAcc>0.876033</hAcc><vAcc>0.686314</vAcc></extensions></trkpt>
      <trkpt lon="-3.336126" lat="54.567625"><ele>172.612488</ele><time>2021-08-12T09:52:53Z</time><extensions><speed>1.091321</speed><course>59.735432</course><hAcc>0.875777</hAcc><vAcc>0.685442</vAcc></extensions></trkpt>
      <trkpt lon="-3.336127" lat="54.567635"><ele>172.543762</ele><time>2021-08-12T09:52:54Z</time><extensions><speed>1.074147</speed><course>59.192490</course><hAcc>0.875482</hAcc><vAcc>0.684450</vAcc></extensions></trkpt>
      <trkpt lon="-3.336128" lat="54.567644"><ele>172.469467</ele><time>2021-08-12T09:52:55Z</time><extensions><speed>1.056996</speed><course>60.825825</course><hAcc>0.875139</hAcc><vAcc>0.683303</vAcc></extensions></trkpt>
      <trkpt lon="-3.336128" lat="54.567654"><ele>172.389847</ele><time>2021-08-12T09:52:56Z</time><extensions><speed>1.039058</speed><course>62.921200</course><hAcc>0.874738</hAcc><vAcc>0.681963</vAcc></extensions></trkpt>
      <trkpt lon="-3.336129" lat="54.567663"><ele>172.305679</ele><time>2021-08-12T09:52:57Z</time><extensions><speed>1.019402</speed><course>59.145714</course><hAcc>0.874269</hAcc><vAcc>0.680393</vAcc></extensions></trkpt>
      <trkpt lon="-3.336129" lat="54.567672"><ele>172.218307</ele><time>2021-08-12T09:52:58Z</time><extensions><speed>0.997814</speed><course>54.852036</course><hAcc>0.873723</hAcc><vAcc>0.678552</vAcc></extensions></trkpt>
      <trkpt lon="-3.336130" lat="54.567681"><ele>172.129379</ele><time>2021-08-12T09:52:59Z</time><extensions><speed>0.974626</speed><course>52.958679</course><hAcc>0.873091</hAcc><vAcc>0.676402</vAcc></extensions></trkpt>
      <trkpt lon="-3.336130" lat="54.567689"><ele>172.040390</ele><time>2021-08-12T09:53:00Z</time><extensions><speed>0.950181</speed><course>51.642593</course><hAcc>0.872364</hAcc><vAcc>0.673905</vAcc></extensions></trkpt>
      <trkpt lon="-3.336131" lat="54.567698"><ele>171.952087</ele><time>2021-08-12T09:53:01Z</time><extensions><speed>0.924725</speed><course>50.915668</course><hAcc>0.871538</hAcc><vAcc>0.671026</vAcc></extensions></trkpt>
      <trkpt lon="-3.336132" lat="54.567706"><ele>171.864578</ele><time>2021-08-12T09:53:02Z</time><extensions><speed>0.898272</speed><course>43.517220</course><hAcc>0.870612</hAcc><vAcc>0.667754</vAcc></extensions></trkpt>
      <trkpt lon="-3.336133" lat="54.567714"><ele>171.778427</ele><time>2021-08-12T09:53:03Z</time><extensions><speed>0.870263</speed><course>53.213661</course><hAcc>0.869590</hAcc><vAcc>0.664102</vAcc></extensions></trkpt>
      <trkpt lon="-3.336134" lat="54.567722"><ele>171.694901</ele><time>2021-08-12T09:53:04Z</time><extensions><speed>0.839897</speed><course>42.672325</course><hAcc>0.868484</hAcc><vAcc>0.660113</vAcc></extensions></trkpt>
      <trkpt lon="-3.336136" lat="54.567729"><ele>171.615540</ele><time>2021-08-12T09:53:05Z</time><extensions><speed>0.806101</speed><course>57.842590</course><hAcc>0.867309</hAcc><vAcc>0.655843</vAcc></extensions></trkpt>
      <trkpt lon="-3.336137" lat="54.567736"><ele>171.542160</ele><time>2021-08-12T09:53:06Z</time><extensions><speed>0.767287</speed><course>54.432369</course><hAcc>0.866083</hAcc><vAcc>0.651350</vAcc></extensions></trkpt>
      <trkpt lon="-3.336139" lat="54.567742"><ele>171.476730</ele><time>2021-08-12T09:53:07Z</time><extensions><speed>0.722039</speed><course>53.099045</course><hAcc>0.864828</hAcc><vAcc>0.646681</vAcc></extensions></trkpt>
      <trkpt lon="-3.336141" lat="54.567749"><ele>171.420761</ele><time>2021-08-12T09:53:08Z</time><extensions><speed>0.670470</speed><course>52.709480</course><hAcc>0.863568</hAcc><vAcc>0.641884</vAcc></extensions></trkpt>
      <trkpt lon="-3.336143" lat="54.567754"><ele>171.375076</ele><time>2021-08-12T09:53:09Z</time><extensions><speed>0.614253</speed><course>55.566643</course><hAcc>0.862334</hAcc><vAcc>0.637008</vAcc></extensions></trkpt>
      <trkpt lon="-3.336145" lat="54.567759"><ele>171.340134</ele><time>2021-08-12T09:53:10Z</time><extensions><speed>0.555757</speed><course>50.999676</course><hAcc>0.861162</hAcc><vAcc>0.632118</vAcc></extensions></trkpt>
      <trkpt lon="-3.336148" lat="54.567764"><ele>171.315857</ele><time>2021-08-12T09:53:11Z</time><extensions><speed>0.497693</speed><course>49.932701</course><hAcc>0.860101</hAcc><vAcc>0.627314</vAcc></extensions></trkpt>
      <trkpt lon="-3.336149" lat="54.567768"><ele>171.301315</ele><time>2021-08-12T09:53:12Z</time><extensions><speed>0.442245</speed><course>44.103298</course><hAcc>0.859209</hAcc><vAcc>0.622740</vAcc></extensions></trkpt>
      <trkpt lon="-3.336151" lat="54.567772"><ele>171.295334</ele><time>2021-08-12T09:53:13Z</time><extensions><speed>0.390936</speed><course>35.959499</course><hAcc>0.858539</hAcc><vAcc>0.618549</vAcc></extensions></trkpt>
      <trkpt lon="-3.336153" lat="54.567775"><ele>171.296844</ele><time>2021-08-12T09:53:14Z</time><extensions><speed>0.345012</speed><course>30.952709</course><hAcc>0.858129</hAcc><vAcc>0.614848</vAcc></extensions></trkpt>
      <trkpt lon="-3.336154" lat="54.567778"><ele>171.304901</ele><time>2021-08-12T09:53:15Z</time><extensions><speed>0.304956</speed><course>43.709347</course><hAcc>0.857989</hAcc><vAcc>0.611689</vAcc></extensions></trkpt>
      <trkpt lon="-3.336155" lat="54.567780"><ele>171.318497</ele><time>2021-08-12T09:53:16Z</time><extensions><speed>0.270199</speed><course>37.574459</course><hAcc>0.858108</hAcc><vAcc>0.609094</vAcc></extensions></trkpt>
      <trkpt lon="-3.336156" lat="54.567782"><ele>171.336594</ele><time>2021-08-12T09:53:17Z</time><extensions><speed>0.239660</speed><course>40.028488</course><hAcc>0.858448</hAcc><vAcc>0.607083</vAcc></extensions></trkpt>
      <trkpt lon="-3.336157" lat="54.567784"><ele>171.358185</ele><time>2021-08-12T09:53:18Z</time><extensions><speed>0.212312</speed><course>39.088745</course><hAcc>0.858948</hAcc><vAcc>0.605686</vAcc></extensions></trkpt>
      <trkpt lon="-3.336158" lat="54.567786"><ele>171.382416</ele><time>2021-08-12T09:53:19Z</time><extensions><speed>0.187659</speed><course>38.227211</course><hAcc>0.859530</hAcc><vAcc>0.604958</vAcc></extensions></trkpt>
      <trkpt lon="-3.336158" lat="54.567788"><ele>171.408371</ele><time>2021-08-12T09:53:20Z</time><extensions><speed>0.165754</speed><course>38.580025</course><hAcc>0.860114</hAcc><vAcc>0.604970</vAcc></extensions></trkpt>
      <trkpt lon="-3.336158" lat="54.567789"><ele>171.434998</ele><time>2021-08-12T09:53:21Z</time><extensions><speed>0.147057</speed><course>36.225418</course><hAcc>0.860643</hAcc><vAcc>0.605794</vAcc></extensions></trkpt>
      <trkpt lon="-3.336158" lat="54.567790"><ele>171.461136</ele><time>2021-08-12T09:53:22Z</time><extensions><speed>0.132109</speed><course>36.482189</course><hAcc>0.861087</hAcc><vAcc>0.607488</vAcc></extensions></trkpt>
      <trkpt lon="-3.336158" lat="54.567791"><ele>171.485474</ele><time>2021-08-12T09:53:23Z</time><extensions><speed>0.121323</speed><course>45.117634</course><hAcc>0.861448</hAcc><vAcc>0.610069</vAcc></extensions></trkpt>
      <trkpt lon="-3.336157" lat="54.567792"><ele>171.506714</ele><time>2021-08-12T09:53:24Z</time><extensions><speed>0.114599</speed><course>40.176819</course><hAcc>0.861750</hAcc><vAcc>0.613483</vAcc></extensions></trkpt>
      <trkpt lon="-3.336156" lat="54.567793"><ele>171.524017</ele><time>2021-08-12T09:53:25Z</time><extensions><speed>0.110945</speed><course>42.588684</course><hAcc>0.862023</hAcc><vAcc>0.617574</vAcc></extensions></trkpt>
      <trkpt lon="-3.336156" lat="54.567794"><ele>171.536972</ele><time>2021-08-12T09:53:26Z</time><extensions><speed>0.108853</speed><course>41.771687</course><hAcc>0.862298</hAcc><vAcc>0.622069</vAcc></extensions></trkpt>
      <trkpt lon="-3.336155" lat="54.567795"><ele>171.545517</ele><time>2021-08-12T09:53:27Z</time><extensions><speed>0.107007</speed><course>41.372017</course><hAcc>0.862591</hAcc><vAcc>0.626600</vAcc></extensions></trkpt>
      <trkpt lon="-3.336153" lat="54.567796"><ele>171.549805</ele><time>2021-08-12T09:53:28Z</time><extensions><speed>0.104666</speed><course>37.017429</course><hAcc>0.862903</hAcc><vAcc>0.630832</vAcc></extensions></trkpt>
      <trkpt lon="-3.336152" lat="54.567796"><ele>171.550064</ele><time>2021-08-12T09:53:29Z</time><extensions><speed>0.101332</speed><course>28.588495</course><hAcc>0.863227</hAcc><vAcc>0.634551</vAcc></extensions></trkpt>
      <trkpt lon="-3.336151" lat="54.567797"><ele>171.546677</ele><time>2021-08-12T09:53:30Z</time><extensions><speed>0.096311</speed><course>39.512306</course><hAcc>0.863555</hAcc><vAcc>0.637689</vAcc></extensions></trkpt>
      <trkpt lon="-3.336150" lat="54.567798"><ele>171.540726</ele><time>2021-08-12T09:53:31Z</time><extensions><speed>0.088890</speed><course>38.955353</course><hAcc>0.863892</hAcc><vAcc>0.640307</vAcc></extensions></trkpt>
      <trkpt lon="-3.336149" lat="54.567798"><ele>171.533966</ele><time>2021-08-12T09:53:32Z</time><extensions><speed>0.079081</speed><course>35.270641</course><hAcc>0.864246</hAcc><vAcc>0.642534</vAcc></extensions></trkpt>
      <trkpt lon="-3.336148" lat="54.567798"><ele>171.528214</ele><time>2021-08-12T09:53:33Z</time><extensions><speed>0.067799</speed><course>38.302330</course><hAcc>0.864621</hAcc><vAcc>0.644497</vAcc></extensions></trkpt>
      <trkpt lon="-3.336148" lat="54.567799"><ele>171.524796</ele><time>2021-08-12T09:53:34Z</time><extensions><speed>0.056190</speed><course>40.976086</course><hAcc>0.865022</hAcc><vAcc>0.646306</vAcc></extensions></trkpt>
      <trkpt lon="-3.336147" lat="54.567799"><ele>171.524246</ele><time>2021-08-12T09:53:35Z</time><extensions><speed>0.045341</speed><course>40.718147</course><hAcc>0.865451</hAcc><vAcc>0.648058</vAcc></extensions></trkpt>
      <trkpt lon="-3.336147" lat="54.567799"><ele>171.526474</ele><time>2021-08-12T09:53:36Z</time><extensions><speed>0.036234</speed><course>40.437557</course><hAcc>0.865911</hAcc><vAcc>0.649825</vAcc></extensions></trkpt>
      <trkpt lon="-3.336146" lat="54.567800"><ele>171.531097</ele><time>2021-08-12T09:53:37Z</time><extensions><speed>0.029521</speed><course>38.315979</course><hAcc>0.866404</hAcc><vAcc>0.651671</vAcc></extensions></trkpt>
      <trkpt lon="-3.336146" lat="54.567800"><ele>171.537704</ele><time>2021-08-12T09:53:38Z</time><extensions><speed>0.025674</speed><course>28.668550</course><hAcc>0.866934</hAcc><vAcc>0.653636</vAcc></extensions></trkpt>
      <trkpt lon="-3.336146" lat="54.567800"><ele>171.545670</ele><time>2021-08-12T09:53:39Z</time><extensions><speed>0.024805</speed><course>31.392698</course><hAcc>0.867495</hAcc><vAcc>0.655717</vAcc></extensions></trkpt>
      <trkpt lon="-3.336146" lat="54.567800"><ele>171.554276</ele><time>2021-08-12T09:53:40Z</time><extensions><speed>0.025947</speed><course>32.848076</course><hAcc>0.868075</hAcc><vAcc>0.657867</vAcc></extensions></trkpt>
      <trkpt lon="-3.336146" lat="54.567801"><ele>171.562820</ele><time>2021-08-12T09:53:41Z</time><extensions><speed>0.027690</speed><course>38.096359</course><hAcc>0.868661</hAcc><vAcc>0.660026</vAcc></extensions></trkpt>
      <trkpt lon="-3.336146" lat="54.567801"><ele>171.570724</ele><time>2021-08-12T09:53:42Z</time><extensions><speed>0.029063</speed><course>27.737675</course><hAcc>0.869242</hAcc><vAcc>0.662151</vAcc></extensions></trkpt>
      <trkpt lon="-3.336146" lat="54.567801"><ele>171.577545</ele><time>2021-08-12T09:53:43Z</time><extensions><speed>0.029755</speed><course>38.820049</course><hAcc>0.869810</hAcc><vAcc>0.664219</vAcc></extensions></trkpt>
      <trkpt lon="-3.336145" lat="54.567801"><ele>171.582733</ele><time>2021-08-12T09:53:44Z</time><extensions><speed>0.029957</speed><course>40.137299</course><hAcc>0.870359</hAcc><vAcc>0.666200</vAcc></extensions></trkpt>
      <trkpt lon="-3.336145" lat="54.567802"><ele>171.585449</ele><time>2021-08-12T09:53:45Z</time><extensions><speed>0.029408</speed><course>44.560421</course><hAcc>0.870882</hAcc><vAcc>0.668060</vAcc></extensions></trkpt>
      <trkpt lon="-3.336145" lat="54.567802"><ele>171.584641</ele><time>2021-08-12T09:53:46Z</time><extensions><speed>0.027679</speed><course>41.574787</course><hAcc>0.871375</hAcc><vAcc>0.669778</vAcc></extensions></trkpt>
      <trkpt lon="-3.336145" lat="54.567802"><ele>171.579208</ele><time>2021-08-12T09:53:47Z</time><extensions><speed>0.024963</speed><course>37.402897</course><hAcc>0.871841</hAcc><vAcc>0.671362</vAcc></extensions></trkpt>
      <trkpt lon="-3.336144" lat="54.567802"><ele>171.568405</ele><time>2021-08-12T09:53:48Z</time><extensions><speed>0.023212</speed><course>38.445354</course><hAcc>0.872287</hAcc><vAcc>0.672855</vAcc></extensions></trkpt>
      <trkpt lon="-3.336144" lat="54.567802"><ele>171.552414</ele><time>2021-08-12T09:53:49Z</time><extensions><speed>0.026185</speed><course>32.932274</course><hAcc>0.872723</hAcc><vAcc>0.674332</vAcc></extensions></trkpt>
      <trkpt lon="-3.336144" lat="54.567802"><ele>171.532074</ele><time>2021-08-12T09:53:50Z</time><extensions><speed>0.034811</speed><course>27.701353</course><hAcc>0.873163</hAcc><vAcc>0.675867</vAcc></extensions></trkpt>
      <trkpt lon="-3.336143" lat="54.567801"><ele>171.508484</ele><time>2021-08-12T09:53:51Z</time><extensions><speed>0.046900</speed><course>28.233585</course><hAcc>0.873614</hAcc><vAcc>0.677502</vAcc></extensions></trkpt>
      <trkpt lon="-3.336143" lat="54.567801"><ele>171.482941</ele><time>2021-08-12T09:53:52Z</time><extensions><speed>0.060293</speed><course>30.003765</course><hAcc>0.874079</hAcc><vAcc>0.679242</vAcc></extensions></trkpt>
      <trkpt lon="-3.336142" lat="54.567800"><ele>171.456848</ele><time>2021-08-12T09:53:53Z</time><extensions><speed>0.073428</speed><course>35.586266</course><hAcc>0.874555</hAcc><vAcc>0.681056</vAcc></extensions></trkpt>
      <trkpt lon="-3.336142" lat="54.567800"><ele>171.431549</ele><time>2021-08-12T09:53:54Z</time><extensions><speed>0.084979</speed><course>41.034397</course><hAcc>0.875037</hAcc><vAcc>0.682898</vAcc></extensions></trkpt>
      <trkpt lon="-3.336142" lat="54.567799"><ele>171.408249</ele><time>2021-08-12T09:53:55Z</time><extensions><speed>0.093795</speed><course>43.040592</course><hAcc>0.875520</hAcc><vAcc>0.684706</vAcc></extensions></trkpt>
      <trkpt lon="-3.336141" lat="54.567798"><ele>171.387985</ele><time>2021-08-12T09:53:56Z</time><extensions><speed>0.099403</speed><course>49.550934</course><hAcc>0.875997</hAcc><vAcc>0.686427</vAcc></extensions></trkpt>
      <trkpt lon="-3.336141" lat="54.567797"><ele>171.371536</ele><time>2021-08-12T09:53:57Z</time><extensions><speed>0.102053</speed><course>62.069283</course><hAcc>0.876465</hAcc><vAcc>0.688042</vAcc></extensions></trkpt>
      <trkpt lon="-3.336141" lat="54.567796"><ele>171.359436</ele><time>2021-08-12T09:53:58Z</time><extensions><speed>0.102049</speed><course>68.512573</course><hAcc>0.876924</hAcc><vAcc>0.689579</vAcc></extensions></trkpt>
      <trkpt lon="-3.336141" lat="54.567795"><ele>171.352081</ele><time>2021-08-12T09:53:59Z</time><extensions><speed>0.099614</speed><course>76.544746</course><hAcc>0.877379</hAcc><vAcc>0.691089</vAcc></extensions></trkpt>
      <trkpt lon="-3.336141" lat="54.567795"><ele>171.349686</ele><time>2021-08-12T09:54:00Z</time><extensions><speed>0.094832</speed><course>91.471558</course><hAcc>0.877833</hAcc><vAcc>0.692629</vAcc></extensions></trkpt>
      <trkpt lon="-3.336140" lat="54.567794"><ele>171.352432</ele><time>2021-08-12T09:54:01Z</time><extensions><speed>0.087759</speed><course>103.707001</course><hAcc>0.878292</hAcc><vAcc>0.694245</vAcc></extensions></trkpt>
      <trkpt lon="-3.336140" lat="54.567793"><ele>171.360367</ele><time>2021-08-12T09:54:02Z</time><extensions><speed>0.078831</speed><course>102.240677</course><hAcc>0.878760</hAcc><vAcc>0.695959</vAcc></extensions></trkpt>
      <trkpt lon="-3.336140" lat="54.567792"><ele>171.373276</ele><time>2021-08-12T09:54:03Z</time><extensions><speed>0.068963</speed><course>109.008522</course><hAcc>0.879237</hAcc><vAcc>0.697753</vAcc></extensions></trkpt>
      <trkpt lon="-3.336140" lat="54.567792"><ele>171.390656</ele><time>2021-08-12T09:54:04Z</time><extensions><speed>0.059227</speed><course>120.687057</course><hAcc>0.879720</hAcc><vAcc>0.699580</vAcc></extensions></trkpt>
      <trkpt lon="-3.336140" lat="54.567791"><ele>171.411728</ele><time>2021-08-12T09:54:05Z</time><extensions><speed>0.050094</speed><course>122.518364</course><hAcc>0.880203</hAcc><vAcc>0.701394</vAcc></extensions></trkpt>
      <trkpt lon="-3.336140" lat="54.567791"><ele>171.435577</ele><time>2021-08-12T09:54:06Z</time><extensions><speed>0.041563</speed><course>116.435341</course><hAcc>0.880683</hAcc><vAcc>0.703167</vAcc></extensions></trkpt>
      <trkpt lon="-3.336140" lat="54.567791"><ele>171.461288</ele><time>2021-08-12T09:54:07Z</time><extensions><speed>0.033633</speed><course>123.806564</course><hAcc>0.881155</hAcc><vAcc>0.704884</vAcc></extensions></trkpt>
      <trkpt lon="-3.336140" lat="54.567790"><ele>171.488037</ele><time>2021-08-12T09:54:08Z</time><extensions><speed>0.026244</speed><course>121.279266</course><hAcc>0.881615</hAcc><vAcc>0.706532</vAcc></extensions></trkpt>
      <trkpt lon="-3.336140" lat="54.567790"><ele>171.514938</ele><time>2021-08-12T09:54:09Z</time><extensions><speed>0.019337</speed><course>122.295830</course><hAcc>0.882060</hAcc><vAcc>0.708109</vAcc></extensions></trkpt>
      <trkpt lon="-3.336140" lat="54.567790"><ele>171.541046</ele><time>2021-08-12T09:54:10Z</time><extensions><speed>0.013151</speed><course>116.485687</course><hAcc>0.882493</hAcc><vAcc>0.709630</vAcc></extensions></trkpt>
      <trkpt lon="-3.336140" lat="54.567790"><ele>171.565521</ele><time>2021-08-12T09:54:11Z</time><extensions><speed>0.008826</speed><course>120.837761</course><hAcc>0.882915</hAcc><vAcc>0.711108</vAcc></extensions></trkpt>
      <trkpt lon="-3.336140" lat="54.567790"><ele>171.587677</ele><time>2021-08-12T09:54:12Z</time><extensions><speed>0.008778</speed><course>121.691162</course><hAcc>0.883335</hAcc><vAcc>0.712548</vAcc></extensions></trkpt>
      <trkpt lon="-3.336140" lat="54.567790"><ele>171.607086</ele><time>2021-08-12T09:54:13Z</time><extensions><speed>0.012348</speed><course>120.429344</course><hAcc>0.883764</hAcc><vAcc>0.713954</vAcc></extensions></trkpt>
      <trkpt lon="-3.336139" lat="54.567790"><ele>171.623520</ele><time>2021-08-12T09:54:14Z</time><extensions><speed>0.016758</speed><course>127.922836</course><hAcc>0.884220</hAcc><vAcc>0.715338</vAcc></extensions></trkpt>
      <trkpt lon="-3.336139" lat="54.567790"><ele>171.636917</ele><time>2021-08-12T09:54:15Z</time><extensions><speed>0.020826</speed><course>122.773224</course><hAcc>0.884726</hAcc><vAcc>0.716720</vAcc></extensions></trkpt>
      <trkpt lon="-3.336139" lat="54.567790"><ele>171.647415</ele><time>2021-08-12T09:54:16Z</time><extensions><speed>0.024055</speed><course>127.410233</course><hAcc>0.885311</hAcc><vAcc>0.718125</vAcc></extensions></trkpt>
      <trkpt lon="-3.336139" lat="54.567790"><ele>171.655258</ele><time>2021-08-12T09:54:17Z</time><extensions><speed>0.026094</speed><course>126.293243</course><hAcc>0.886009</hAcc><vAcc>0.719582</vAcc></extensions></trkpt>
      <trkpt lon="-3.336138" lat="54.567790"><ele>171.660828</ele><time>2021-08-12T09:54:18Z</time><extensions><speed>0.026608</speed><course>113.773628</course><hAcc>0.886859</hAcc><vAcc>0.721121</vAcc></extensions></trkpt>
      <trkpt lon="-3.336138" lat="54.567790"><ele>171.664658</ele><time>2021-08-12T09:54:19Z</time><extensions><speed>0.025265</speed><course>111.597641</course><hAcc>0.887904</hAcc><vAcc>0.722765</vAcc></extensions></trkpt>
      <trkpt lon="-3.336138" lat="54.567790"><ele>171.667389</ele><time>2021-08-12T09:54:20Z</time><extensions><speed>0.021813</speed><course>118.242065</course><hAcc>0.889178</hAcc><vAcc>0.724522</vAcc></extensions></trkpt>
      <trkpt lon="-3.336137" lat="54.567790"><ele>171.669769</ele><time>2021-08-12T09:54:21Z</time><extensions><speed>0.016496</speed><course>121.318916</course><hAcc>0.890707</hAcc><vAcc>0.726383</vAcc></extensions></trkpt>
      <trkpt lon="-3.336137" lat="54.567790"><ele>171.672668</ele><time>2021-08-12T09:54:22Z</time><extensions><speed>0.012625</speed><course>126.571838</course><hAcc>0.892494</hAcc><vAcc>0.728315</vAcc></extensions></trkpt>
      <trkpt lon="-3.336137" lat="54.567790"><ele>171.677094</ele><time>2021-08-12T09:54:23Z</time><extensions><speed>0.019819</speed><course>116.053932</course><hAcc>0.894508</hAcc><vAcc>0.730253</vAcc></extensions></trkpt>
      <trkpt lon="-3.336137" lat="54.567790"><ele>171.684128</ele><time>2021-08-12T09:54:24Z</time><extensions><speed>0.037456</speed><course>122.553452</course><hAcc>0.896674</hAcc><vAcc>0.732103</vAcc></extensions></trkpt>
      <trkpt lon="-3.336138" lat="54.567790"><ele>171.694992</ele><time>2021-08-12T09:54:25Z</time><extensions><speed>0.062072</speed><course>115.362396</course><hAcc>0.898867</hAcc><vAcc>0.733740</vAcc></extensions></trkpt>
      <trkpt lon="-3.336138" lat="54.567789"><ele>171.710938</ele><time>2021-08-12T09:54:26Z</time><extensions><speed>0.093223</speed><course>120.016403</course><hAcc>0.900912</hAcc><vAcc>0.735028</vAcc></extensions></trkpt>
      <trkpt lon="-3.336140" lat="54.567788"><ele>171.733337</ele><time>2021-08-12T09:54:27Z</time><extensions><speed>0.131074</speed><course>131.521149</course><hAcc>0.902611</hAcc><vAcc>0.735852</vAcc></extensions></trkpt>
      <trkpt lon="-3.336141" lat="54.567788"><ele>171.763550</ele><time>2021-08-12T09:54:28Z</time><extensions><speed>0.175764</speed><course>124.976143</course><hAcc>0.903789</hAcc><vAcc>0.736185</vAcc></extensions></trkpt>
      <trkpt lon="-3.336144" lat="54.567786"><ele>171.802933</ele><time>2021-08-12T09:54:29Z</time><extensions><speed>0.227194</speed><course>123.546791</course><hAcc>0.904397</hAcc><vAcc>0.736184</vAcc></extensions></trkpt>
      <trkpt lon="-3.336147" lat="54.567785"><ele>171.852722</ele><time>2021-08-12T09:54:30Z</time><extensions><speed>0.284890</speed><course>116.699699</course><hAcc>0.904681</hAcc><vAcc>0.736333</vAcc></extensions></trkpt>
      <trkpt lon="-3.336151" lat="54.567783"><ele>171.914001</ele><time>2021-08-12T09:54:31Z</time><extensions><speed>0.347861</speed><course>112.924561</course><hAcc>0.905432</hAcc><vAcc>0.737635</vAcc></extensions></trkpt>
      <trkpt lon="-3.336156" lat="54.567781"><ele>171.987595</ele><time>2021-08-12T09:54:32Z</time><extensions><speed>0.414461</speed><course>117.858780</course><hAcc>0.908350</hAcc><vAcc>0.741849</vAcc></extensions></trkpt>
      <trkpt lon="-3.336161" lat="54.567779"><ele>172.073868</ele><time>2021-08-12T09:54:33Z</time><extensions><speed>0.482231</speed><course>111.630035</course><hAcc>0.916482</hAcc><vAcc>0.751720</vAcc></extensions></trkpt>
      <trkpt lon="-3.336168" lat="54.567777"><ele>172.172638</ele><time>2021-08-12T09:54:34Z</time><extensions><speed>0.547742</speed><course>115.453979</course><hAcc>0.934638</hAcc><vAcc>0.771109</vAcc></extensions></trkpt>
      <trkpt lon="-3.336176" lat="54.567774"><ele>172.283005</ele><time>2021-08-12T09:54:35Z</time><extensions><speed>0.606411</speed><course>108.625862</course><hAcc>0.969531</hAcc><vAcc>0.804862</vAcc></extensions></trkpt>
      <trkpt lon="-3.336189" lat="54.567769"><ele>172.520981</ele><time>2021-08-12T09:54:36Z</time><extensions><speed>0.961723</speed><course>74.967865</course><hAcc>0.931881</hAcc><vAcc>0.769391</vAcc></extensions></trkpt>
      <trkpt lon="-3.336203" lat="54.567766"><ele>172.788223</ele><time>2021-08-12T09:54:37Z</time><extensions><speed>0.964242</speed><course>75.133301</course><hAcc>0.912546</hAcc><vAcc>0.747295</vAcc></extensions></trkpt>
      <trkpt lon="-3.336217" lat="54.567763"><ele>173.058640</ele><time>2021-08-12T09:54:38Z</time><extensions><speed>0.961683</speed><course>66.099251</course><hAcc>0.904447</hAcc><vAcc>0.735852</vAcc></extensions></trkpt>
      <trkpt lon="-3.336231" lat="54.567760"><ele>173.331711</ele><time>2021-08-12T09:54:39Z</time><extensions><speed>0.954669</speed><course>81.237114</course><hAcc>0.902100</hAcc><vAcc>0.730765</vAcc></extensions></trkpt>
      <trkpt lon="-3.336245" lat="54.567758"><ele>173.606873</ele><time>2021-08-12T09:54:40Z</time><extensions><speed>0.943646</speed><course>80.566093</course><hAcc>0.902027</hAcc><vAcc>0.728955</vAcc></extensions></trkpt>
      <trkpt lon="-3.336259" lat="54.567755"><ele>173.883636</ele><time>2021-08-12T09:54:41Z</time><extensions><speed>0.929550</speed><course>80.566109</course><hAcc>0.902302</hAcc><vAcc>0.728443</vAcc></extensions></trkpt>
      <trkpt lon="-3.336273" lat="54.567754"><ele>174.161331</ele><time>2021-08-12T09:54:42Z</time><extensions><speed>0.913765</speed><course>80.566093</course><hAcc>0.902045</hAcc><vAcc>0.728096</vAcc></extensions></trkpt>
      <trkpt lon="-3.336287" lat="54.567752"><ele>174.438812</ele><time>2021-08-12T09:54:43Z</time><extensions><speed>0.897624</speed><course>80.566093</course><hAcc>0.901006</hAcc><vAcc>0.727367</vAcc></extensions></trkpt>
      <trkpt lon="-3.336300" lat="54.567751"><ele>174.714401</ele><time>2021-08-12T09:54:44Z</time><extensions><speed>0.882069</speed><course>80.566093</course><hAcc>0.899268</hAcc><vAcc>0.726077</vAcc></extensions></trkpt>
      <trkpt lon="-3.336314" lat="54.567751"><ele>174.986298</ele><time>2021-08-12T09:54:45Z</time><extensions><speed>0.868205</speed><course>77.344681</course><hAcc>0.897056</hAcc><vAcc>0.724261</vAcc></extensions></trkpt>
      <trkpt lon="-3.336327" lat="54.567750"><ele>175.253510</ele><time>2021-08-12T09:54:46Z</time><extensions><speed>0.856752</speed><course>77.923714</course><hAcc>0.894624</hAcc><vAcc>0.722060</vAcc></extensions></trkpt>
      <trkpt lon="-3.336340" lat="54.567750"><ele>175.515839</ele><time>2021-08-12T09:54:47Z</time><extensions><speed>0.847609</speed><course>87.073212</course><hAcc>0.892188</hAcc><vAcc>0.719645</vAcc></extensions></trkpt>
      <trkpt lon="-3.336353" lat="54.567751"><ele>175.773407</ele><time>2021-08-12T09:54:48Z</time><extensions><speed>0.840505</speed><course>79.233902</course><hAcc>0.889909</hAcc><vAcc>0.717176</vAcc></extensions></trkpt>
      <trkpt lon="-3.336366" lat="54.567752"><ele>176.026398</ele><time>2021-08-12T09:54:49Z</time><extensions><speed>0.834714</speed><course>96.572746</course><hAcc>0.887887</hAcc><vAcc>0.714778</vAcc></extensions></trkpt>
      <trkpt lon="-3.336379" lat="54.567753"><ele>176.275208</ele><time>2021-08-12T09:54:50Z</time><extensions><speed>0.829905</speed><course>86.920219</course><hAcc>0.886166</hAcc><vAcc>0.712540</vAcc></extensions></trkpt>
      <trkpt lon="-3.336392" lat="54.567754"><ele>176.521194</ele><time>2021-08-12T09:54:51Z</time><extensions><speed>0.826442</speed><course>76.786201</course><hAcc>0.884752</hAcc><vAcc>0.710514</vAcc></extensions></trkpt>
      <trkpt lon="-3.336404" lat="54.567756"><ele>176.766693</ele><time>2021-08-12T09:54:52Z</time><extensions><speed>0.824195</speed><course>77.162971</course><hAcc>0.883624</hAcc><vAcc>0.708723</vAcc></extensions></trkpt>
      <trkpt lon="-3.336416" lat="54.567757"><ele>177.013901</ele><time>2021-08-12T09:54:53Z</time><extensions><speed>0.822545</speed><course>69.604996</course><hAcc>0.882745</hAcc><vAcc>0.707170</vAcc></extensions></trkpt>
      <trkpt lon="-3.336429" lat="54.567759"><ele>177.264572</ele><time>2021-08-12T09:54:54Z</time><extensions><speed>0.820802</speed><course>76.115456</course><hAcc>0.882072</hAcc><vAcc>0.705846</vAcc></extensions></trkpt>
      <trkpt lon="-3.336441" lat="54.567762"><ele>177.520477</ele><time>2021-08-12T09:54:55Z</time><extensions><speed>0.818862</speed><course>83.646278</course><hAcc>0.881564</hAcc><vAcc>0.704734</vAcc></extensions></trkpt>
      <trkpt lon="-3.336453" lat="54.567764"><ele>177.782944</ele><time>2021-08-12T09:54:56Z</time><extensions><speed>0.817020</speed><course>76.408623</course><hAcc>0.881181</hAcc><vAcc>0.703811</vAcc></extensions></trkpt>
      <trkpt lon="-3.336465" lat="54.567766"><ele>178.052292</ele><time>2021-08-12T09:54:57Z</time><extensions><speed>0.815266</speed><course>79.439453</course><hAcc>0.880893</hAcc><vAcc>0.703048</vAcc></extensions></trkpt>
      <trkpt lon="-3.336476" lat="54.567769"><ele>178.327789</ele><time>2021-08-12T09:54:58Z</time><extensions><speed>0.814095</speed><course>75.300941</course><hAcc>0.880673</hAcc><vAcc>0.702418</vAcc></extensions></trkpt>
      <trkpt lon="-3.336488" lat="54.567772"><ele>178.608292</ele><time>2021-08-12T09:54:59Z</time><extensions><speed>0.814445</speed><course>76.126534</course><hAcc>0.880502</hAcc><vAcc>0.701893</vAcc></extensions></trkpt>
      <trkpt lon="-3.336500" lat="54.567775"><ele>178.892807</ele><time>2021-08-12T09:55:00Z</time><extensions><speed>0.816293</speed><course>75.233688</course><hAcc>0.880363</hAcc><vAcc>0.701453</vAcc></extensions></trkpt>
      <trkpt lon="-3.336511" lat="54.567778"><ele>179.180435</ele><time>2021-08-12T09:55:01Z</time><extensions><speed>0.819517</speed><course>81.891060</course><hAcc>0.880248</hAcc><vAcc>0.701077</vAcc></extensions></trkpt>
      <trkpt lon="-3.336522" lat="54.567781"><ele>179.470200</ele><time>2021-08-12T09:55:02Z</time><extensions><speed>0.824347</speed><course>78.263519</course><hAcc>0.880149</hAcc><vAcc>0.700749</vAcc></extensions></trkpt>
      <trkpt lon="-3.336534" lat="54.567785"><ele>179.761124</ele><time>2021-08-12T09:55:03Z</time><extensions><speed>0.830985</speed><course>74.907532</course><hAcc>0.880061</hAcc><vAcc>0.700451</vAcc></extensions></trkpt>
      <trkpt lon="-3.336545" lat="54.567788"><ele>180.052444</ele><time>2021-08-12T09:55:04Z</time><extensions><speed>0.838741</speed><course>84.941742</course><hAcc>0.879982</hAcc><vAcc>0.700173</vAcc></extensions></trkpt>
      <trkpt lon="-3.336556" lat="54.567792"><ele>180.343826</ele><time>2021-08-12T09:55:05Z</time><extensions><speed>0.845816</speed><course>73.584358</course><hAcc>0.879910</hAcc><vAcc>0.699912</vAcc></extensions></trkpt>
      <trkpt lon="-3.336568" lat="54.567796"><ele>180.634964</ele><time>2021-08-12T09:55:06Z</time><extensions><speed>0.851824</speed><course>96.346313</course><hAcc>0.879845</hAcc><vAcc>0.699670</vAcc></extensions></trkpt>
      <trkpt lon="-3.336579" lat="54.567800"><ele>180.925293</ele><time>2021-08-12T09:55:07Z</time><extensions><speed>0.857803</speed><course>87.208282</course><hAcc>0.879787</hAcc><vAcc>0.699454</vAcc></extensions></trkpt>
      <trkpt lon="-3.336591" lat="54.567804"><ele>181.213974</ele><time>2021-08-12T09:55:08Z</time><extensions><speed>0.864572</speed><course>71.034035</course><hAcc>0.879735</hAcc><vAcc>0.699268</vAcc></extensions></trkpt>
      <trkpt lon="-3.336602" lat="54.567808"><ele>181.500443</ele><time>2021-08-12T09:55:09Z</time><extensions><speed>0.872037</speed><course>74.315559</course><hAcc>0.879691</hAcc><vAcc>0.699116</vAcc></extensions></trkpt>
      <trkpt lon="-3.336614" lat="54.567812"><ele>181.784470</ele><time>2021-08-12T09:55:10Z</time><extensions><speed>0.879142</speed><course>82.074326</course><hAcc>0.879653</hAcc><vAcc>0.698999</vAcc></extensions></trkpt>
      <trkpt lon="-3.336625" lat="54.567816"><ele>182.065933</ele><time>2021-08-12T09:55:11Z</time><extensions><speed>0.885479</speed><course>78.798851</course><hAcc>0.879619</hAcc><vAcc>0.698909</vAcc></extensions></trkpt>
      <trkpt lon="-3.336637" lat="54.567820"><ele>182.344391</ele><time>2021-08-12T09:55:12Z</time><extensions><speed>0.891769</speed><course>71.049065</course><hAcc>0.879588</hAcc><vAcc>0.698833</vAcc></extensions></trkpt>
      <trkpt lon="-3.336649" lat="54.567824"><ele>182.619003</ele><time>2021-08-12T09:55:13Z</time><extensions><speed>0.898685</speed><course>66.417450</course><hAcc>0.879556</hAcc><vAcc>0.698757</vAcc></extensions></trkpt>
      <trkpt lon="-3.336661" lat="54.567828"><ele>182.888931</ele><time>2021-08-12T09:55:14Z</time><extensions><speed>0.906426</speed><course>67.881187</course><hAcc>0.879522</hAcc><vAcc>0.698669</vAcc></extensions></trkpt>
      <trkpt lon="-3.336674" lat="54.567832"><ele>183.153519</ele><time>2021-08-12T09:55:15Z</time><extensions><speed>0.914769</speed><course>73.946594</course><hAcc>0.879482</hAcc><vAcc>0.698560</vAcc></extensions></trkpt>
      <trkpt lon="-3.336686" lat="54.567836"><ele>183.412140</ele><time>2021-08-12T09:55:16Z</time><extensions><speed>0.923168</speed><course>66.868568</course><hAcc>0.879433</hAcc><vAcc>0.698417</vAcc></extensions></trkpt>
      <trkpt lon="-3.336699" lat="54.567840"><ele>183.664307</ele><time>2021-08-12T09:55:17Z</time><extensions><speed>0.931249</speed><course>57.370388</course><hAcc>0.879372</hAcc><vAcc>0.698230</vAcc></extensions></trkpt>
      <trkpt lon="-3.336711" lat="54.567844"><ele>183.909500</ele><time>2021-08-12T09:55:18Z</time><extensions><speed>0.939236</speed><course>72.859169</course><hAcc>0.879298</hAcc><vAcc>0.697988</vAcc></extensions></trkpt>
      <trkpt lon="-3.336724" lat="54.567848"><ele>184.147186</ele><time>2021-08-12T09:55:19Z</time><extensions><speed>0.947677</speed><course>73.476959</course><hAcc>0.879209</hAcc><vAcc>0.697682</vAcc></extensions></trkpt>
      <trkpt lon="-3.336736" lat="54.567853"><ele>184.377182</ele><time>2021-08-12T09:55:20Z</time><extensions><speed>0.956500</speed><course>70.985191</course><hAcc>0.879104</hAcc><vAcc>0.697307</vAcc></extensions></trkpt>
      <trkpt lon="-3.336749" lat="54.567857"><ele>184.599930</ele><time>2021-08-12T09:55:21Z</time><extensions><speed>0.964732</speed><course>67.094063</course><hAcc>0.878984</hAcc><vAcc>0.696865</vAcc></extensions></trkpt>
      <trkpt lon="-3.336761" lat="54.567862"><ele>184.816223</ele><time>2021-08-12T09:55:22Z</time><extensions><speed>0.971378</speed><course>63.802017</course><hAcc>0.878852</hAcc><vAcc>0.696364</vAcc></extensions></trkpt>
      <trkpt lon="-3.336774" lat="54.567867"><ele>185.026978</ele><time>2021-08-12T09:55:23Z</time><extensions><speed>0.976345</speed><course>59.738853</course><hAcc>0.878710</hAcc><vAcc>0.695816</vAcc></extensions></trkpt>
      <trkpt lon="-3.336786" lat="54.567872"><ele>185.233002</ele><time>2021-08-12T09:55:24Z</time><extensions><speed>0.980262</speed><course>64.752533</course><hAcc>0.878562</hAcc><vAcc>0.695236</vAcc></extensions></trkpt>
      <trkpt lon="-3.336798" lat="54.567877"><ele>185.434937</ele><time>2021-08-12T09:55:25Z</time><extensions><speed>0.983598</speed><course>62.678837</course><hAcc>0.878415</hAcc><vAcc>0.694645</vAcc></extensions></trkpt>
      <trkpt lon="-3.336811" lat="54.567883"><ele>185.633102</ele><time>2021-08-12T09:55:26Z</time><extensions><speed>0.986417</speed><course>67.622025</course><hAcc>0.878273</hAcc><vAcc>0.694064</vAcc></extensions></trkpt>
      <trkpt lon="-3.336823" lat="54.567888"><ele>185.827728</ele><time>2021-08-12T09:55:27Z</time><extensions><speed>0.988601</speed><course>76.998230</course><hAcc>0.878144</hAcc><vAcc>0.693521</vAcc></extensions></trkpt>
      <trkpt lon="-3.336835" lat="54.567894"><ele>186.019028</ele><time>2021-08-12T09:55:28Z</time><extensions><speed>0.990067</speed><course>71.279175</course><hAcc>0.878033</hAcc><vAcc>0.693048</vAcc></extensions></trkpt>
      <trkpt lon="-3.336847" lat="54.567899"><ele>186.207138</ele><time>2021-08-12T09:55:29Z</time><extensions><speed>0.991210</speed><course>66.215858</course><hAcc>0.877948</hAcc><vAcc>0.692676</vAcc></extensions></trkpt>
      <trkpt lon="-3.336859" lat="54.567905"><ele>186.391891</ele><time>2021-08-12T09:55:30Z</time><extensions><speed>0.992354</speed><course>65.869171</course><hAcc>0.877893</hAcc><vAcc>0.692433</vAcc></extensions></trkpt>
      <trkpt lon="-3.336871" lat="54.567910"><ele>186.572617</ele><time>2021-08-12T09:55:31Z</time><extensions><speed>0.993176</speed><course>67.480362</course><hAcc>0.877871</hAcc><vAcc>0.692339</vAcc></extensions></trkpt>
      <trkpt lon="-3.336883" lat="54.567916"><ele>186.748611</ele><time>2021-08-12T09:55:32Z</time><extensions><speed>0.992896</speed><course>62.467888</course><hAcc>0.877884</hAcc><vAcc>0.692401</vAcc></extensions></trkpt>
      <trkpt lon="-3.336895" lat="54.567921"><ele>186.919815</ele><time>2021-08-12T09:55:33Z</time><extensions><speed>0.990582</speed><course>57.403885</course><hAcc>0.877929</hAcc><vAcc>0.692609</vAcc></extensions></trkpt>
      <trkpt lon="-3.336906" lat="54.567927"><ele>187.086700</ele><time>2021-08-12T09:55:34Z</time><extensions><speed>0.985824</speed><course>56.104736</course><hAcc>0.878004</hAcc><vAcc>0.692945</vAcc></extensions></trkpt>
      <trkpt lon="-3.336918" lat="54.567933"><ele>187.250244</ele><time>2021-08-12T09:55:35Z</time><extensions><speed>0.978904</speed><course>57.135769</course><hAcc>0.878103</hAcc><vAcc>0.693381</vAcc></extensions></trkpt>
      <trkpt lon="-3.336930" lat="54.567938"><ele>187.411774</ele><time>2021-08-12T09:55:36Z</time><extensions><speed>0.970190</speed><course>59.466648</course><hAcc>0.878219</hAcc><vAcc>0.693883</vAcc></extensions></trkpt>
      <trkpt lon="-3.336941" lat="54.567944"><ele>187.572754</ele><time>2021-08-12T09:55:37Z</time><extensions><speed>0.960248</speed><course>56.466339</course><hAcc>0.878345</hAcc><vAcc>0.694415</vAcc></extensions></trkpt>
      <trkpt lon="-3.336952" lat="54.567949"><ele>187.734558</ele><time>2021-08-12T09:55:38Z</time><extensions><speed>0.949956</speed><course>61.082169</course><hAcc>0.878474</hAcc><vAcc>0.694948</vAcc></extensions></trkpt>
      <trkpt lon="-3.336963" lat="54.567955"><ele>187.898193</ele><time>2021-08-12T09:55:39Z</time><extensions><speed>0.939989</speed><course>63.000797</course><hAcc>0.878599</hAcc><vAcc>0.695454</vAcc></extensions></trkpt>
      <trkpt lon="-3.336974" lat="54.567960"><ele>188.064590</ele><time>2021-08-12T09:55:40Z</time><extensions><speed>0.930417</speed><course>58.373146</course><hAcc>0.878715</hAcc><vAcc>0.695911</vAcc></extensions></trkpt>
      <trkpt lon="-3.336985" lat="54.567966"><ele>188.234619</ele><time>2021-08-12T09:55:41Z</time><extensions><speed>0.920816</speed><course>59.591164</course><hAcc>0.878816</hAcc><vAcc>0.696302</vAcc></extensions></trkpt>
      <trkpt lon="-3.336996" lat="54.567971"><ele>188.409195</ele><time>2021-08-12T09:55:42Z</time><extensions><speed>0.910621</speed><course>56.078835</course><hAcc>0.878899</hAcc><vAcc>0.696615</vAcc></extensions></trkpt>
      <trkpt lon="-3.337007" lat="54.567976"><ele>188.589218</ele><time>2021-08-12T09:55:43Z</time><extensions><speed>0.899682</speed><course>61.452141</course><hAcc>0.878963</hAcc><vAcc>0.696844</vAcc></extensions></trkpt>
      <trkpt lon="-3.337018" lat="54.567981"><ele>188.775360</ele><time>2021-08-12T09:55:44Z</time><extensions><speed>0.888388</speed><course>62.349373</course><hAcc>0.879008</hAcc><vAcc>0.696991</vAcc></extensions></trkpt>
      <trkpt lon="-3.337028" lat="54.567986"><ele>188.968048</ele><time>2021-08-12T09:55:45Z</time><extensions><speed>0.876865</speed><course>67.502327</course><hAcc>0.879034</hAcc><vAcc>0.697057</vAcc></extensions></trkpt>
      <trkpt lon="-3.337039" lat="54.567991"><ele>189.167648</ele><time>2021-08-12T09:55:46Z</time><extensions><speed>0.864931</speed><course>65.148994</course><hAcc>0.879044</hAcc><vAcc>0.697053</vAcc></extensions></trkpt>
      <trkpt lon="-3.337050" lat="54.567996"><ele>189.374695</ele><time>2021-08-12T09:55:47Z</time><extensions><speed>0.852081</speed><course>61.604351</course><hAcc>0.879042</hAcc><vAcc>0.696994</vAcc></extensions></trkpt>
      <trkpt lon="-3.337060" lat="54.568000"><ele>189.590103</ele><time>2021-08-12T09:55:48Z</time><extensions><speed>0.838078</speed><course>67.356651</course><hAcc>0.879032</hAcc><vAcc>0.696899</vAcc></extensions></trkpt>
      <trkpt lon="-3.337071" lat="54.568004"><ele>189.815155</ele><time>2021-08-12T09:55:49Z</time><extensions><speed>0.823666</speed><course>56.187717</course><hAcc>0.879019</hAcc><vAcc>0.696790</vAcc></extensions></trkpt>
      <trkpt lon="-3.337081" lat="54.568008"><ele>190.050919</ele><time>2021-08-12T09:55:50Z</time><extensions><speed>0.809967</speed><course>56.273357</course><hAcc>0.879007</hAcc><vAcc>0.696690</vAcc></extensions></trkpt>
      <trkpt lon="-3.337092" lat="54.568012"><ele>190.297806</ele><time>2021-08-12T09:55:51Z</time><extensions><speed>0.798309</speed><course>59.042984</course><hAcc>0.879002</hAcc><vAcc>0.696622</vAcc></extensions></trkpt>
      <trkpt lon="-3.337102" lat="54.568016"><ele>190.555771</ele><time>2021-08-12T09:55:52Z</time><extensions><speed>0.789977</speed><course>46.754299</course><hAcc>0.879008</hAcc><vAcc>0.696604</vAcc></extensions></trkpt>
      <trkpt lon="-3.337113" lat="54.568019"><ele>190.824982</ele><time>2021-08-12T09:55:53Z</time><extensions><speed>0.785453</speed><course>46.754295</course><hAcc>0.879027</hAcc><vAcc>0.696652</vAcc></extensions></trkpt>
      <trkpt lon="-3.337124" lat="54.568023"><ele>191.105347</ele><time>2021-08-12T09:55:54Z</time><extensions><speed>0.784689</speed><course>46.754295</course><hAcc>0.879061</hAcc><vAcc>0.696773</vAcc></extensions></trkpt>
      <trkpt lon="-3.337134" lat="54.568026"><ele>191.395935</ele><time>2021-08-12T09:55:55Z</time><extensions><speed>0.787235</speed><course>46.754295</course><hAcc>0.879110</hAcc><vAcc>0.696969</vAcc></extensions></trkpt>
      <trkpt lon="-3.337145" lat="54.568030"><ele>191.695343</ele><time>2021-08-12T09:55:56Z</time><extensions><speed>0.792380</speed><course>46.754295</course><hAcc>0.879171</hAcc><vAcc>0.697233</vAcc></extensions></trkpt>
      <trkpt lon="-3.337156" lat="54.568033"><ele>192.002136</ele><time>2021-08-12T09:55:57Z</time><extensions><speed>0.799139</speed><course>46.754295</course><hAcc>0.879243</hAcc><vAcc>0.697553</vAcc></extensions></trkpt>
      <trkpt lon="-3.337167" lat="54.568036"><ele>192.314865</ele><time>2021-08-12T09:55:58Z</time><extensions><speed>0.806522</speed><course>46.754295</course><hAcc>0.879319</hAcc><vAcc>0.697909</vAcc></extensions></trkpt>
      <trkpt lon="-3.337178" lat="54.568040"><ele>192.631958</ele><time>2021-08-12T09:55:59Z</time><extensions><speed>0.814023</speed><course>46.754292</course><hAcc>0.879396</hAcc><vAcc>0.698272</vAcc></extensions></trkpt>
      <trkpt lon="-3.337189" lat="54.568043"><ele>192.951645</ele><time>2021-08-12T09:56:00Z</time><extensions><speed>0.821069</speed><course>46.754295</course><hAcc>0.879468</hAcc><vAcc>0.698611</vAcc></extensions></trkpt>
      <trkpt lon="-3.337200" lat="54.568047"><ele>193.272171</ele><time>2021-08-12T09:56:01Z</time><extensions><speed>0.826916</speed><course>86.257805</course><hAcc>0.879530</hAcc><vAcc>0.698895</vAcc></extensions></trkpt>
      <trkpt lon="-3.337211" lat="54.568051"><ele>193.591843</ele><time>2021-08-12T09:56:02Z</time><extensions><speed>0.830580</speed><course>92.864906</course><hAcc>0.879577</hAcc><vAcc>0.699098</vAcc></extensions></trkpt>
      <trkpt lon="-3.337222" lat="54.568055"><ele>193.909027</ele><time>2021-08-12T09:56:03Z</time><extensions><speed>0.831027</speed><course>94.458534</course><hAcc>0.879607</hAcc><vAcc>0.699207</vAcc></extensions></trkpt>
      <trkpt lon="-3.337233" lat="54.568059"><ele>194.222107</ele><time>2021-08-12T09:56:04Z</time><extensions><speed>0.827770</speed><course>89.165138</course><hAcc>0.879618</hAcc><vAcc>0.699221</vAcc></extensions></trkpt>
      <trkpt lon="-3.337244" lat="54.568063"><ele>194.529648</ele><time>2021-08-12T09:56:05Z</time><extensions><speed>0.821058</speed><course>98.187202</course><hAcc>0.879611</hAcc><vAcc>0.699150</vAcc></extensions></trkpt>
      <trkpt lon="-3.337254" lat="54.568067"><ele>194.830460</ele><time>2021-08-12T09:56:06Z</time><extensions><speed>0.811471</speed><course>262.094696</course><hAcc>0.879586</hAcc><vAcc>0.699010</vAcc></extensions></trkpt>
      <trkpt lon="-3.337264" lat="54.568071"><ele>195.123627</ele><time>2021-08-12T09:56:07Z</time><extensions><speed>0.799735</speed><course>273.339569</course><hAcc>0.879546</hAcc><vAcc>0.698817</vAcc></extensions></trkpt>
      <trkpt lon="-3.337274" lat="54.568075"><ele>195.408478</ele><time>2021-08-12T09:56:08Z</time><extensions><speed>0.786426</speed><course>270.133057</course><hAcc>0.879493</hAcc><vAcc>0.698587</vAcc></extensions></trkpt>
      <trkpt lon="-3.337284" lat="54.568079"><ele>195.684845</ele><time>2021-08-12T09:56:09Z</time><extensions><speed>0.772090</speed><course>264.401459</course><hAcc>0.879431</hAcc><vAcc>0.698332</vAcc></extensions></trkpt>
      <trkpt lon="-3.337294" lat="54.568083"><ele>195.953232</ele><time>2021-08-12T09:56:10Z</time><extensions><speed>0.757628</speed><course>271.206299</course><hAcc>0.879363</hAcc><vAcc>0.698064</vAcc></extensions></trkpt>
      <trkpt lon="-3.337303" lat="54.568087"><ele>196.214417</ele><time>2021-08-12T09:56:11Z</time><extensions><speed>0.743719</speed><course>270.479279</course><hAcc>0.879291</hAcc><vAcc>0.697789</vAcc></extensions></trkpt>
      <trkpt lon="-3.337313" lat="54.568091"><ele>196.469086</ele><time>2021-08-12T09:56:12Z</time><extensions><speed>0.730786</speed><course>270.479279</course><hAcc>0.879218</hAcc><vAcc>0.697515</vAcc></extensions></trkpt>
      <trkpt lon="-3.337322" lat="54.568094"><ele>196.717575</ele><time>2021-08-12T09:56:13Z</time><extensions><speed>0.718717</speed><course>270.479279</course><hAcc>0.879147</hAcc><vAcc>0.697250</vAcc></extensions></trkpt>
      <trkpt lon="-3.337331" lat="54.568098"><ele>196.960129</ele><time>2021-08-12T09:56:14Z</time><extensions><speed>0.707146</speed><course>92.836548</course><hAcc>0.879079</hAcc><vAcc>0.696998</vAcc></extensions></trkpt>
      <trkpt lon="-3.337339" lat="54.568102"><ele>197.197296</ele><time>2021-08-12T09:56:15Z</time><extensions><speed>0.696001</speed><course>91.847809</course><hAcc>0.879018</hAcc><vAcc>0.696765</vAcc></extensions></trkpt>
      <trkpt lon="-3.337348" lat="54.568106"><ele>197.429993</ele><time>2021-08-12T09:56:16Z</time><extensions><speed>0.685569</speed><course>96.972961</course><hAcc>0.878965</hAcc><vAcc>0.696555</vAcc></extensions></trkpt>
      <trkpt lon="-3.337356" lat="54.568109"><ele>197.659683</ele><time>2021-08-12T09:56:17Z</time><extensions><speed>0.676420</speed><course>101.432434</course><hAcc>0.878923</hAcc><vAcc>0.696377</vAcc></extensions></trkpt>
      <trkpt lon="-3.337365" lat="54.568113"><ele>197.888168</ele><time>2021-08-12T09:56:18Z</time><extensions><speed>0.669275</speed><course>89.921867</course><hAcc>0.878894</hAcc><vAcc>0.696239</vAcc></extensions></trkpt>
      <trkpt lon="-3.337373" lat="54.568116"><ele>198.117126</ele><time>2021-08-12T09:56:19Z</time><extensions><speed>0.664693</speed><course>79.468422</course><hAcc>0.878880</hAcc><vAcc>0.696157</vAcc></extensions></trkpt>
      <trkpt lon="-3.337382" lat="54.568120"><ele>198.347794</ele><time>2021-08-12T09:56:20Z</time><extensions><speed>0.662642</speed><course>79.668663</course><hAcc>0.878883</hAcc><vAcc>0.696140</vAcc></extensions></trkpt>
      <trkpt lon="-3.337390" lat="54.568123"><ele>198.581039</ele><time>2021-08-12T09:56:21Z</time><extensions><speed>0.663067</speed><course>70.198914</course><hAcc>0.878903</hAcc><vAcc>0.696199</vAcc></extensions></trkpt>
      <trkpt lon="-3.337399" lat="54.568126"><ele>198.817734</ele><time>2021-08-12T09:56:22Z</time><extensions><speed>0.666152</speed><course>85.811096</course><hAcc>0.878940</hAcc><vAcc>0.696339</vAcc></extensions></trkpt>
      <trkpt lon="-3.337408" lat="54.568129"><ele>199.058640</ele><time>2021-08-12T09:56:23Z</time><extensions><speed>0.672209</speed><course>87.515213</course><hAcc>0.878993</hAcc><vAcc>0.696559</vAcc></extensions></trkpt>
      <trkpt lon="-3.337418" lat="54.568131"><ele>199.304352</ele><time>2021-08-12T09:56:24Z</time><extensions><speed>0.681780</speed><course>86.802406</course><hAcc>0.879059</hAcc><vAcc>0.696850</vAcc></extensions></trkpt>
      <trkpt lon="-3.337427" lat="54.568134"><ele>199.554916</ele><time>2021-08-12T09:56:25Z</time><extensions><speed>0.695203</speed><course>85.424927</course><hAcc>0.879134</hAcc><vAcc>0.697192</vAcc></extensions></trkpt>
      <trkpt lon="-3.337438" lat="54.568136"><ele>199.809586</ele><time>2021-08-12T09:56:26Z</time><extensions><speed>0.712372</speed><course>88.911957</course><hAcc>0.879214</hAcc><vAcc>0.697561</vAcc></extensions></trkpt>
      <trkpt lon="-3.337448" lat="54.568138"><ele>200.067047</ele><time>2021-08-12T09:56:27Z</time><extensions><speed>0.732373</speed><course>93.027184</course><hAcc>0.879293</hAcc><vAcc>0.697925</vAcc></extensions></trkpt>
      <trkpt lon="-3.337460" lat="54.568139"><ele>200.326065</ele><time>2021-08-12T09:56:28Z</time><extensions><speed>0.753509</speed><course>90.763535</course><hAcc>0.879367</hAcc><vAcc>0.698253</vAcc></extensions></trkpt>
      <trkpt lon="-3.337471" lat="54.568141"><ele>200.585785</ele><time>2021-08-12T09:56:29Z</time><extensions><speed>0.774533</speed><course>83.392509</course><hAcc>0.879431</hAcc><vAcc>0.698521</vAcc></extensions></trkpt>
      <trkpt lon="-3.337483" lat="54.568142"><ele>200.845551</ele><time>2021-08-12T09:56:30Z</time><extensions><speed>0.794453</speed><course>57.334152</course><hAcc>0.879483</hAcc><vAcc>0.698717</vAcc></extensions></trkpt>
      <trkpt lon="-3.337495" lat="54.568143"><ele>201.104584</ele><time>2021-08-12T09:56:31Z</time><extensions><speed>0.811899</speed><course>29.254333</course><hAcc>0.879521</hAcc><vAcc>0.698837</vAcc></extensions></trkpt>
      <trkpt lon="-3.337508" lat="54.568144"><ele>201.361633</ele><time>2021-08-12T09:56:32Z</time><extensions><speed>0.825857</speed><course>29.254333</course><hAcc>0.879545</hAcc><vAcc>0.698887</vAcc></extensions></trkpt>
      <trkpt lon="-3.337521" lat="54.568145"><ele>201.615250</ele><time>2021-08-12T09:56:33Z</time><extensions><speed>0.836325</speed><course>29.254333</course><hAcc>0.879556</hAcc><vAcc>0.698877</vAcc></extensions></trkpt>
      <trkpt lon="-3.337534" lat="54.568146"><ele>201.863922</ele><time>2021-08-12T09:56:34Z</time><extensions><speed>0.843202</speed><course>29.254332</course><hAcc>0.879555</hAcc><vAcc>0.698822</vAcc></extensions></trkpt>
      <trkpt lon="-3.337547" lat="54.568146"><ele>202.106583</ele><time>2021-08-12T09:56:35Z</time><extensions><speed>0.845886</speed><course>29.254333</course><hAcc>0.879545</hAcc><vAcc>0.698740</vAcc></extensions></trkpt>
      <trkpt lon="-3.337560" lat="54.568147"><ele>202.342911</ele><time>2021-08-12T09:56:36Z</time><extensions><speed>0.844490</speed><course>29.254332</course><hAcc>0.879527</hAcc><vAcc>0.698650</vAcc></extensions></trkpt>
      <trkpt lon="-3.337573" lat="54.568148"><ele>202.572983</ele><time>2021-08-12T09:56:37Z</time><extensions><speed>0.839606</speed><course>29.254332</course><hAcc>0.879504</hAcc><vAcc>0.698560</vAcc></extensions></trkpt>
      <trkpt lon="-3.337585" lat="54.568148"><ele>202.797012</ele><time>2021-08-12T09:56:38Z</time><extensions><speed>0.831591</speed><course>29.254333</course><hAcc>0.879476</hAcc><vAcc>0.698470</vAcc></extensions></trkpt>
      <trkpt lon="-3.337598" lat="54.568149"><ele>203.014969</ele><time>2021-08-12T09:56:39Z</time><extensions><speed>0.820623</speed><course>29.254333</course><hAcc>0.879443</hAcc><vAcc>0.698370</vAcc></extensions></trkpt>
      <trkpt lon="-3.337611" lat="54.568150"><ele>203.226730</ele><time>2021-08-12T09:56:40Z</time><extensions><speed>0.807245</speed><course>29.254332</course><hAcc>0.879406</hAcc><vAcc>0.698253</vAcc></extensions></trkpt>
      <trkpt lon="-3.337623" lat="54.568151"><ele>203.432465</ele><time>2021-08-12T09:56:41Z</time><extensions><speed>0.792665</speed><course>29.254333</course><hAcc>0.879363</hAcc><vAcc>0.698115</vAcc></extensions></trkpt>
      <trkpt lon="-3.337635" lat="54.568152"><ele>203.632477</ele><time>2021-08-12T09:56:42Z</time><extensions><speed>0.778002</speed><course>29.254337</course><hAcc>0.879314</hAcc><vAcc>0.697952</vAcc></extensions></trkpt>
      <trkpt lon="-3.337647" lat="54.568153"><ele>203.827133</ele><time>2021-08-12T09:56:43Z</time><extensions><speed>0.763846</speed><course>29.254337</course><hAcc>0.879258</hAcc><vAcc>0.697761</vAcc></extensions></trkpt>
      <trkpt lon="-3.337658" lat="54.568154"><ele>204.016708</ele><time>2021-08-12T09:56:44Z</time><extensions><speed>0.750705</speed><course>29.254339</course><hAcc>0.879194</hAcc><vAcc>0.697539</vAcc></extensions></trkpt>
      <trkpt lon="-3.337670" lat="54.568155"><ele>204.201508</ele><time>2021-08-12T09:56:45Z</time><extensions><speed>0.739292</speed><course>29.254337</course><hAcc>0.879122</hAcc><vAcc>0.697282</vAcc></extensions></trkpt>
      <trkpt lon="-3.337681" lat="54.568156"><ele>204.381699</ele><time>2021-08-12T09:56:46Z</time><extensions><speed>0.730138</speed><course>29.254339</course><hAcc>0.879043</hAcc><vAcc>0.696992</vAcc></extensions></trkpt>
      <trkpt lon="-3.337692" lat="54.568158"><ele>204.557144</ele><time>2021-08-12T09:56:47Z</time><extensions><speed>0.723508</speed><course>353.139893</course><hAcc>0.878956</hAcc><vAcc>0.696671</vAcc></extensions></trkpt>
      <trkpt lon="-3.337703" lat="54.568159"><ele>204.727554</ele><time>2021-08-12T09:56:48Z</time><extensions><speed>0.719347</speed><course>-1.000000</course><hAcc>0.878864</hAcc><vAcc>0.696322</vAcc></extensions></trkpt>
      <trkpt lon="-3.337713" lat="54.568161"><ele>204.892517</ele><time>2021-08-12T09:56:49Z</time><extensions><speed>0.717145</speed><course>-1.000000</course><hAcc>0.878767</hAcc><vAcc>0.695953</vAcc></extensions></trkpt>
      <trkpt lon="-3.337724" lat="54.568162"><ele>205.051636</ele><time>2021-08-12T09:56:50Z</time><extensions><speed>0.716570</speed><course>-1.000000</course><hAcc>0.878671</hAcc><vAcc>0.695574</vAcc></extensions></trkpt>
      <trkpt lon="-3.337735" lat="54.568164"><ele>205.204422</ele><time>2021-08-12T09:56:51Z</time><extensions><speed>0.717571</speed><course>-1.000000</course><hAcc>0.878576</hAcc><vAcc>0.695198</vAcc></extensions></trkpt>
      <trkpt lon="-3.337746" lat="54.568166"><ele>205.350296</ele><time>2021-08-12T09:56:52Z</time><extensions><speed>0.719738</speed><course>-1.000000</course><hAcc>0.878489</hAcc><vAcc>0.694842</vAcc></extensions></trkpt>
      <trkpt lon="-3.337756" lat="54.568167"><ele>205.488663</ele><time>2021-08-12T09:56:53Z</time><extensions><speed>0.722604</speed><course>-1.000000</course><hAcc>0.878413</hAcc><vAcc>0.694520</vAcc></extensions></trkpt>
      <trkpt lon="-3.337767" lat="54.568169"><ele>205.618988</ele><time>2021-08-12T09:56:54Z</time><extensions><speed>0.725907</speed><course>-1.000000</course><hAcc>0.878352</hAcc><vAcc>0.694251</vAcc></extensions></trkpt>
      <trkpt lon="-3.337778" lat="54.568171"><ele>205.741028</ele><time>2021-08-12T09:56:55Z</time><extensions><speed>0.729241</speed><course>-1.000000</course><hAcc>0.878312</hAcc><vAcc>0.694053</vAcc></extensions></trkpt>
      <trkpt lon="-3.337789" lat="54.568172"><ele>205.855011</ele><time>2021-08-12T09:56:56Z</time><extensions><speed>0.732455</speed><course>-1.000000</course><hAcc>0.878296</hAcc><vAcc>0.693949</vAcc></extensions></trkpt>
      <trkpt lon="-3.337800" lat="54.568174"><ele>205.961563</ele><time>2021-08-12T09:56:57Z</time><extensions><speed>0.736072</speed><course>-1.000000</course><hAcc>0.878308</hAcc><vAcc>0.693960</vAcc></extensions></trkpt>
      <trkpt lon="-3.337811" lat="54.568175"><ele>206.061249</ele><time>2021-08-12T09:56:58Z</time><extensions><speed>0.741002</speed><course>-1.000000</course><hAcc>0.878351</hAcc><vAcc>0.694100</vAcc></extensions></trkpt>
      <trkpt lon="-3.337822" lat="54.568176"><ele>206.154282</ele><time>2021-08-12T09:56:59Z</time><extensions><speed>0.747867</speed><course>74.830536</course><hAcc>0.878425</hAcc><vAcc>0.694376</vAcc></extensions></trkpt>
      <trkpt lon="-3.337834" lat="54.568177"><ele>206.240723</ele><time>2021-08-12T09:57:00Z</time><extensions><speed>0.757036</speed><course>62.161198</course><hAcc>0.878529</hAcc><vAcc>0.694784</vAcc></extensions></trkpt>
      <trkpt lon="-3.337846" lat="54.568178"><ele>206.320694</ele><time>2021-08-12T09:57:01Z</time><extensions><speed>0.768687</speed><course>66.043793</course><hAcc>0.878662</hAcc><vAcc>0.695313</vAcc></extensions></trkpt>
      <trkpt lon="-3.337858" lat="54.568178"><ele>206.394455</ele><time>2021-08-12T09:57:02Z</time><extensions><speed>0.782733</speed><course>75.803009</course><hAcc>0.878819</hAcc><vAcc>0.695943</vAcc></extensions></trkpt>
      <trkpt lon="-3.337870" lat="54.568178"><ele>206.462570</ele><time>2021-08-12T09:57:03Z</time><extensions><speed>0.798807</speed><course>76.191063</course><hAcc>0.878996</hAcc><vAcc>0.696653</vAcc></extensions></trkpt>
      <trkpt lon="-3.337882" lat="54.568177"><ele>206.526047</ele><time>2021-08-12T09:57:04Z</time><extensions><speed>0.816132</speed><course>76.349960</course><hAcc>0.879187</hAcc><vAcc>0.697415</vAcc></extensions></trkpt>
      <trkpt lon="-3.337895" lat="54.568176"><ele>206.586105</ele><time>2021-08-12T09:57:05Z</time><extensions><speed>0.833689</speed><course>78.477806</course><hAcc>0.879388</hAcc><vAcc>0.698203</vAcc></extensions></trkpt>
      <trkpt lon="-3.337908" lat="54.568175"><ele>206.644196</ele><time>2021-08-12T09:57:06Z</time><extensions><speed>0.850702</speed><course>75.070290</course><hAcc>0.879593</hAcc><vAcc>0.698992</vAcc></extensions></trkpt>
      <trkpt lon="-3.337921" lat="54.568173"><ele>206.701935</ele><time>2021-08-12T09:57:07Z</time><extensions><speed>0.866773</speed><course>69.086029</course><hAcc>0.879799</hAcc><vAcc>0.699763</vAcc></extensions></trkpt>
      <trkpt lon="-3.337934" lat="54.568170"><ele>206.761154</ele><time>2021-08-12T09:57:08Z</time><extensions><speed>0.881468</speed><course>68.949226</course><hAcc>0.880003</hAcc><vAcc>0.700503</vAcc></extensions></trkpt>
      <trkpt lon="-3.337946" lat="54.568168"><ele>206.823654</ele><time>2021-08-12T09:57:09Z</time><extensions><speed>0.894363</speed><course>71.686111</course><hAcc>0.880202</hAcc><vAcc>0.701207</vAcc></extensions></trkpt>
      <trkpt lon="-3.337959" lat="54.568164"><ele>206.891006</ele><time>2021-08-12T09:57:10Z</time><extensions><speed>0.905355</speed><course>76.597496</course><hAcc>0.880396</hAcc><vAcc>0.701875</vAcc></extensions></trkpt>
      <trkpt lon="-3.337972" lat="54.568161"><ele>206.964188</ele><time>2021-08-12T09:57:11Z</time><extensions><speed>0.914866</speed><course>90.005066</course><hAcc>0.880584</hAcc><vAcc>0.702517</vAcc></extensions></trkpt>
      <trkpt lon="-3.337984" lat="54.568157"><ele>207.043747</ele><time>2021-08-12T09:57:12Z</time><extensions><speed>0.923283</speed><course>83.948074</course><hAcc>0.880767</hAcc><vAcc>0.703145</vAcc></extensions></trkpt>
      <trkpt lon="-3.337996" lat="54.568152"><ele>207.129837</ele><time>2021-08-12T09:57:13Z</time><extensions><speed>0.930007</speed><course>76.996796</course><hAcc>0.880945</hAcc><vAcc>0.703772</vAcc></extensions></trkpt>
      <trkpt lon="-3.338009" lat="54.568148"><ele>207.222397</ele><time>2021-08-12T09:57:14Z</time><extensions><speed>0.934739</speed><course>79.507355</course><hAcc>0.881118</hAcc><vAcc>0.704402</vAcc></extensions></trkpt>
      <trkpt lon="-3.338020" lat="54.568143"><ele>207.321411</ele><time>2021-08-12T09:57:15Z</time><extensions><speed>0.938593</speed><course>72.096832</course><hAcc>0.881286</hAcc><vAcc>0.705035</vAcc></extensions></trkpt>
      <trkpt lon="-3.338032" lat="54.568138"><ele>207.426910</ele><time>2021-08-12T09:57:16Z</time><extensions><speed>0.943065</speed><course>80.368279</course><hAcc>0.881447</hAcc><vAcc>0.705661</vAcc></extensions></trkpt>
      <trkpt lon="-3.338044" lat="54.568133"><ele>207.538818</ele><time>2021-08-12T09:57:17Z</time><extensions><speed>0.948939</speed><course>78.982643</course><hAcc>0.881600</hAcc><vAcc>0.706265</vAcc></extensions></trkpt>
      <trkpt lon="-3.338055" lat="54.568128"><ele>207.656784</ele><time>2021-08-12T09:57:18Z</time><extensions><speed>0.955996</speed><course>81.075706</course><hAcc>0.881745</hAcc><vAcc>0.706829</vAcc></extensions></trkpt>
      <trkpt lon="-3.338067" lat="54.568122"><ele>207.780182</ele><time>2021-08-12T09:57:19Z</time><extensions><speed>0.963714</speed><course>81.007790</course><hAcc>0.881878</hAcc><vAcc>0.707341</vAcc></extensions></trkpt>
      <trkpt lon="-3.338078" lat="54.568116"><ele>207.908295</ele><time>2021-08-12T09:57:20Z</time><extensions><speed>0.971792</speed><course>78.272133</course><hAcc>0.881998</hAcc><vAcc>0.707791</vAcc></extensions></trkpt>
      <trkpt lon="-3.338090" lat="54.568111"><ele>208.040436</ele><time>2021-08-12T09:57:21Z</time><extensions><speed>0.980021</speed><course>73.069588</course><hAcc>0.882103</hAcc><vAcc>0.708173</vAcc></extensions></trkpt>
      <trkpt lon="-3.338101" lat="54.568105"><ele>208.175949</ele><time>2021-08-12T09:57:22Z</time><extensions><speed>0.988133</speed><course>77.189682</course><hAcc>0.882192</hAcc><vAcc>0.708489</vAcc></extensions></trkpt>
      <trkpt lon="-3.338113" lat="54.568099"><ele>208.314362</ele><time>2021-08-12T09:57:23Z</time><extensions><speed>0.995487</speed><course>75.197517</course><hAcc>0.882265</hAcc><vAcc>0.708741</vAcc></extensions></trkpt>
      <trkpt lon="-3.338124" lat="54.568093"><ele>208.455261</ele><time>2021-08-12T09:57:24Z</time><extensions><speed>1.001632</speed><course>67.733307</course><hAcc>0.882321</hAcc><vAcc>0.708931</vAcc></extensions></trkpt>
      <trkpt lon="-3.338136" lat="54.568087"><ele>208.598526</ele><time>2021-08-12T09:57:25Z</time><extensions><speed>1.006848</speed><course>69.123688</course><hAcc>0.882360</hAcc><vAcc>0.709062</vAcc></extensions></trkpt>
      <trkpt lon="-3.338147" lat="54.568081"><ele>208.744507</ele><time>2021-08-12T09:57:26Z</time><extensions><speed>1.011570</speed><course>71.299400</course><hAcc>0.882382</hAcc><vAcc>0.709137</vAcc></extensions></trkpt>
      <trkpt lon="-3.338159" lat="54.568075"><ele>208.893814</ele><time>2021-08-12T09:57:27Z</time><extensions><speed>1.016162</speed><course>77.479210</course><hAcc>0.882390</hAcc><vAcc>0.709157</vAcc></extensions></trkpt>
      <trkpt lon="-3.338170" lat="54.568069"><ele>209.046936</ele><time>2021-08-12T09:57:28Z</time><extensions><speed>1.020368</speed><course>68.623329</course><hAcc>0.882383</hAcc><vAcc>0.709126</vAcc></extensions></trkpt>
      <trkpt lon="-3.338182" lat="54.568062"><ele>209.204330</ele><time>2021-08-12T09:57:29Z</time><extensions><speed>1.023600</speed><course>63.866425</course><hAcc>0.882364</hAcc><vAcc>0.709045</vAcc></extensions></trkpt>
      <trkpt lon="-3.338193" lat="54.568056"><ele>209.366516</ele><time>2021-08-12T09:57:30Z</time><extensions><speed>1.025545</speed><course>76.291603</course><hAcc>0.882335</hAcc><vAcc>0.708921</vAcc></extensions></trkpt>
      <trkpt lon="-3.338204" lat="54.568049"><ele>209.533981</ele><time>2021-08-12T09:57:31Z</time><extensions><speed>1.026063</speed><course>71.777351</course><hAcc>0.882297</hAcc><vAcc>0.708759</vAcc></extensions></trkpt>
      <trkpt lon="-3.338215" lat="54.568043"><ele>209.707275</ele><time>2021-08-12T09:57:32Z</time><extensions><speed>1.025218</speed><course>76.476341</course><hAcc>0.882254</hAcc><vAcc>0.708570</vAcc></extensions></trkpt>
      <trkpt lon="-3.338226" lat="54.568036"><ele>209.886780</ele><time>2021-08-12T09:57:33Z</time><extensions><speed>1.023079</speed><course>63.346680</course><hAcc>0.882207</hAcc><vAcc>0.708365</vAcc></extensions></trkpt>
      <trkpt lon="-3.338237" lat="54.568029"><ele>210.072571</ele><time>2021-08-12T09:57:34Z</time><extensions><speed>1.019579</speed><course>60.883244</course><hAcc>0.882161</hAcc><vAcc>0.708156</vAcc></extensions></trkpt>
      <trkpt lon="-3.338247" lat="54.568022"><ele>210.264618</ele><time>2021-08-12T09:57:35Z</time><extensions><speed>1.014546</speed><course>66.100471</course><hAcc>0.882118</hAcc><vAcc>0.707955</vAcc></extensions></trkpt>
      <trkpt lon="-3.338258" lat="54.568016"><ele>210.462708</ele><time>2021-08-12T09:57:36Z</time><extensions><speed>1.007844</speed><course>66.284729</course><hAcc>0.882080</hAcc><vAcc>0.707778</vAcc></extensions></trkpt>
      <trkpt lon="-3.338268" lat="54.568009"><ele>210.666428</ele><time>2021-08-12T09:57:37Z</time><extensions><speed>0.999878</speed><course>70.183884</course><hAcc>0.882051</hAcc><vAcc>0.707636</vAcc></extensions></trkpt>
      <trkpt lon="-3.338278" lat="54.568002"><ele>210.875229</ele><time>2021-08-12T09:57:38Z</time><extensions><speed>0.991230</speed><course>69.091454</course><hAcc>0.882032</hAcc><vAcc>0.707541</vAcc></extensions></trkpt>
      <trkpt lon="-3.338288" lat="54.567995"><ele>211.088730</ele><time>2021-08-12T09:57:39Z</time><extensions><speed>0.981736</speed><course>67.595528</course><hAcc>0.882025</hAcc><vAcc>0.707499</vAcc></extensions></trkpt>
      <trkpt lon="-3.338298" lat="54.567989"><ele>211.306747</ele><time>2021-08-12T09:57:40Z</time><extensions><speed>0.971115</speed><course>69.079941</course><hAcc>0.882029</hAcc><vAcc>0.707514</vAcc></extensions></trkpt>
      <trkpt lon="-3.338307" lat="54.567982"><ele>211.529144</ele><time>2021-08-12T09:57:41Z</time><extensions><speed>0.959643</speed><course>67.638985</course><hAcc>0.882043</hAcc><vAcc>0.707586</vAcc></extensions></trkpt>
      <trkpt lon="-3.338317" lat="54.567975"><ele>211.755753</ele><time>2021-08-12T09:57:42Z</time><extensions><speed>0.947901</speed><course>67.902077</course><hAcc>0.882068</hAcc><vAcc>0.707712</vAcc></extensions></trkpt>
      <trkpt lon="-3.338326" lat="54.567969"><ele>211.985977</ele><time>2021-08-12T09:57:43Z</time><extensions><speed>0.936080</speed><course>68.213737</course><hAcc>0.882098</hAcc><vAcc>0.707881</vAcc></extensions></trkpt>
      <trkpt lon="-3.338335" lat="54.567962"><ele>212.218857</ele><time>2021-08-12T09:57:44Z</time><extensions><speed>0.923957</speed><course>58.646133</course><hAcc>0.882132</hAcc><vAcc>0.708076</vAcc></extensions></trkpt>
      <trkpt lon="-3.338344" lat="54.567956"><ele>212.453217</ele><time>2021-08-12T09:57:45Z</time><extensions><speed>0.911791</speed><course>60.787758</course><hAcc>0.882167</hAcc><vAcc>0.708271</vAcc></extensions></trkpt>
      <trkpt lon="-3.338353" lat="54.567950"><ele>212.687897</ele><time>2021-08-12T09:57:46Z</time><extensions><speed>0.900223</speed><course>59.107254</course><hAcc>0.882198</hAcc><vAcc>0.708444</vAcc></extensions></trkpt>
      <trkpt lon="-3.338361" lat="54.567943"><ele>212.921814</ele><time>2021-08-12T09:57:47Z</time><extensions><speed>0.889536</speed><course>59.308796</course><hAcc>0.882223</hAcc><vAcc>0.708577</vAcc></extensions></trkpt>
      <trkpt lon="-3.338370" lat="54.567937"><ele>213.154022</ele><time>2021-08-12T09:57:48Z</time><extensions><speed>0.879246</speed><course>63.536522</course><hAcc>0.882241</hAcc><vAcc>0.708657</vAcc></extensions></trkpt>
      <trkpt lon="-3.338379" lat="54.567931"><ele>213.383652</ele><time>2021-08-12T09:57:49Z</time><extensions><speed>0.868547</speed><course>64.110619</course><hAcc>0.882248</hAcc><vAcc>0.708680</vAcc></extensions></trkpt>
      <trkpt lon="-3.338387" lat="54.567925"><ele>213.609970</ele><time>2021-08-12T09:57:50Z</time><extensions><speed>0.856638</speed><course>57.783936</course><hAcc>0.882246</hAcc><vAcc>0.708647</vAcc></extensions></trkpt>
      <trkpt lon="-3.338396" lat="54.567920"><ele>213.832260</ele><time>2021-08-12T09:57:51Z</time><extensions><speed>0.843159</speed><course>62.673740</course><hAcc>0.882235</hAcc><vAcc>0.708567</vAcc></extensions></trkpt>
      <trkpt lon="-3.338405" lat="54.567914"><ele>214.049637</ele><time>2021-08-12T09:57:52Z</time><extensions><speed>0.828264</speed><course>68.268181</course><hAcc>0.882217</hAcc><vAcc>0.708450</vAcc></extensions></trkpt>
      <trkpt lon="-3.338414" lat="54.567909"><ele>214.261261</ele><time>2021-08-12T09:57:53Z</time><extensions><speed>0.812039</speed><course>59.735432</course><hAcc>0.882194</hAcc><vAcc>0.708312</vAcc></extensions></trkpt>
      <trkpt lon="-3.338422" lat="54.567904"><ele>214.466812</ele><time>2021-08-12T09:57:54Z</time><extensions><speed>0.794202</speed><course>59.192490</course><hAcc>0.882169</hAcc><vAcc>0.708167</vAcc></extensions></trkpt>
      <trkpt lon="-3.338431" lat="54.567899"><ele>214.666656</ele><time>2021-08-12T09:57:55Z</time><extensions><speed>0.774670</speed><course>60.825825</course><hAcc>0.882145</hAcc><vAcc>0.708031</vAcc></extensions></trkpt>
      <trkpt lon="-3.338439" lat="54.567894"><ele>214.861526</ele><time>2021-08-12T09:57:56Z</time><extensions><speed>0.753843</speed><course>62.921200</course><hAcc>0.882125</hAcc><vAcc>0.707919</vAcc></extensions></trkpt>
      <trkpt lon="-3.338447" lat="54.567889"><ele>215.052155</ele><time>2021-08-12T09:57:57Z</time><extensions><speed>0.732758</speed><course>59.145714</course><hAcc>0.882111</hAcc><vAcc>0.707845</vAcc></extensions></trkpt>
      <trkpt lon="-3.338455" lat="54.567884"><ele>215.239365</ele><time>2021-08-12T09:57:58Z</time><extensions><speed>0.713537</speed><course>54.852036</course><hAcc>0.882104</hAcc><vAcc>0.707816</vAcc></extensions></trkpt>
      <trkpt lon="-3.338463" lat="54.567880"><ele>215.424179</ele><time>2021-08-12T09:57:59Z</time><extensions><speed>0.699200</speed><course>52.958679</course><hAcc>0.882105</hAcc><vAcc>0.707835</vAcc></extensions></trkpt>
      <trkpt lon="-3.338471" lat="54.567876"><ele>215.607941</ele><time>2021-08-12T09:58:00Z</time><extensions><speed>0.692531</speed><course>51.642593</course><hAcc>0.882114</hAcc><vAcc>0.707898</vAcc></extensions></trkpt>
      <trkpt lon="-3.338478" lat="54.567871"><ele>215.792236</ele><time>2021-08-12T09:58:01Z</time><extensions><speed>0.695140</speed><course>50.915668</course><hAcc>0.882130</hAcc><vAcc>0.707995</vAcc></extensions></trkpt>
      <trkpt lon="-3.338486" lat="54.567867"><ele>215.978607</ele><time>2021-08-12T09:58:02Z</time><extensions><speed>0.706908</speed><course>43.517220</course><hAcc>0.882151</hAcc><vAcc>0.708114</vAcc></extensions></trkpt>
      <trkpt lon="-3.338494" lat="54.567862"><ele>216.168182</ele><time>2021-08-12T09:58:03Z</time><extensions><speed>0.725734</speed><course>53.213661</course><hAcc>0.882175</hAcc><vAcc>0.708242</vAcc></extensions></trkpt>
      <trkpt lon="-3.338502" lat="54.567858"><ele>216.361420</ele><time>2021-08-12T09:58:04Z</time><extensions><speed>0.748227</speed><course>42.672325</course><hAcc>0.882200</hAcc><vAcc>0.708365</vAcc></extensions></trkpt>
      <trkpt lon="-3.338511" lat="54.567853"><ele>216.557983</ele><time>2021-08-12T09:58:05Z</time><extensions><speed>0.771031</speed><course>57.842590</course><hAcc>0.882222</hAcc><vAcc>0.708474</vAcc></extensions></trkpt>
      <trkpt lon="-3.338520" lat="54.567848"><ele>216.756653</ele><time>2021-08-12T09:58:06Z</time><extensions><speed>0.791706</speed><course>54.432369</course><hAcc>0.882239</hAcc><vAcc>0.708563</vAcc></extensions></trkpt>
      <trkpt lon="-3.338529" lat="54.567844"><ele>216.955444</ele><time>2021-08-12T09:58:07Z</time><extensions><speed>0.808193</speed><course>53.099045</course><hAcc>0.882249</hAcc><vAcc>0.708624</vAcc></extensions></trkpt>
      <trkpt lon="-3.338539" lat="54.567839"><ele>217.151810</ele><time>2021-08-12T09:58:08Z</time><extensions><speed>0.818228</speed><course>52.709480</course><hAcc>0.882250</hAcc><vAcc>0.708649</vAcc></extensions></trkpt>
      <trkpt lon="-3.338548" lat="54.567834"><ele>217.343201</ele><time>2021-08-12T09:58:09Z</time><extensions><speed>0.819418</speed><course>55.566643</course><hAcc>0.882241</hAcc><vAcc>0.708627</vAcc></extensions></trkpt>
      <trkpt lon="-3.338558" lat="54.567829"><ele>217.527313</ele><time>2021-08-12T09:58:10Z</time><extensions><speed>0.810176</speed><course>50.999676</course><hAcc>0.882220</hAcc><vAcc>0.708554</vAcc></extensions></trkpt>
      <trkpt lon="-3.338567" lat="54.567825"><ele>217.702194</ele><time>2021-08-12T09:58:11Z</time><extensions><speed>0.789796</speed><course>49.932701</course><hAcc>0.882186</hAcc><vAcc>0.708426</vAcc></extensions></trkpt>
      <trkpt lon="-3.338576" lat="54.567820"><ele>217.866180</ele><time>2021-08-12T09:58:12Z</time><extensions><speed>0.758131</speed><course>44.103298</course><hAcc>0.882139</hAcc><vAcc>0.708246</vAcc></extensions></trkpt>
      <trkpt lon="-3.338585" lat="54.567816"><ele>218.017914</ele><time>2021-08-12T09:58:13Z</time><extensions><speed>0.715744</speed><course>35.959499</course><hAcc>0.882077</hAcc><vAcc>0.708019</vAcc></extensions></trkpt>
      <trkpt lon="-3.338594" lat="54.567812"><ele>218.156433</ele><time>2021-08-12T09:58:14Z</time><extensions><speed>0.663647</speed><course>30.952709</course><hAcc>0.882000</hAcc><vAcc>0.707746</vAcc></extensions></trkpt>
      <trkpt lon="-3.338601" lat="54.567809"><ele>218.281067</ele><time>2021-08-12T09:58:15Z</time><extensions><speed>0.603078</speed><course>43.709347</course><hAcc>0.881908</hAcc><vAcc>0.707426</vAcc></extensions></trkpt>
      <trkpt lon="-3.338608" lat="54.567806"><ele>218.391190</ele><time>2021-08-12T09:58:16Z</time><extensions><speed>0.535836</speed><course>37.574459</course><hAcc>0.881798</hAcc><vAcc>0.707051</vAcc></extensions></trkpt>
      <trkpt lon="-3.338614" lat="54.567803"><ele>218.486282</ele><time>2021-08-12T09:58:17Z</time><extensions><speed>0.464361</speed><course>40.028488</course><hAcc>0.881671</hAcc><vAcc>0.706613</vAcc></extensions></trkpt>
      <trkpt lon="-3.338620" lat="54.567800"><ele>218.566208</ele><time>2021-08-12T09:58:18Z</time><extensions><speed>0.391399</speed><course>39.088745</course><hAcc>0.881524</hAcc><vAcc>0.706100</vAcc></extensions></trkpt>
      <trkpt lon="-3.338624" lat="54.567799"><ele>218.631332</ele><time>2021-08-12T09:58:19Z</time><extensions><speed>0.319831</speed><course>38.227211</course><hAcc>0.881355</hAcc><vAcc>0.705508</vAcc></extensions></trkpt>
      <trkpt lon="-3.338628" lat="54.567797"><ele>218.682434</ele><time>2021-08-12T09:58:20Z</time><extensions><speed>0.252144</speed><course>38.580025</course><hAcc>0.881161</hAcc><vAcc>0.704836</vAcc></extensions></trkpt>
      <trkpt lon="-3.338630" lat="54.567796"><ele>218.720520</ele><time>2021-08-12T09:58:21Z</time><extensions><speed>0.190391</speed><course>36.225418</course><hAcc>0.880939</hAcc><vAcc>0.704081</vAcc></extensions></trkpt>
      <trkpt lon="-3.338632" lat="54.567795"><ele>218.746796</ele><time>2021-08-12T09:58:22Z</time><extensions><speed>0.136590</speed><course>36.482189</course><hAcc>0.880685</hAcc><vAcc>0.703231</vAcc></extensions></trkpt>
      <trkpt lon="-3.338634" lat="54.567794"><ele>218.762695</ele><time>2021-08-12T09:58:23Z</time><extensions><speed>0.092315</speed><course>45.117634</course><hAcc>0.880396</hAcc><vAcc>0.702262</vAcc></extensions></trkpt>
      <trkpt lon="-3.338635" lat="54.567794"><ele>218.769913</ele><time>2021-08-12T09:58:24Z</time><extensions><speed>0.058779</speed><course>40.176819</course><hAcc>0.880069</hAcc><vAcc>0.701144</vAcc></extensions></trkpt>
      <trkpt lon="-3.338636" lat="54.567794"><ele>218.770248</ele><time>2021-08-12T09:58:25Z</time><extensions><speed>0.037556</speed><course>42.588684</course><hAcc>0.879700</hAcc><vAcc>0.699854</vAcc></extensions></trkpt>
      <trkpt lon="-3.338636" lat="54.567794"><ele>218.765930</ele><time>2021-08-12T09:58:26Z</time><extensions><speed>0.029653</speed><course>41.771687</course><hAcc>0.879288</hAcc><vAcc>0.698378</vAcc></extensions></trkpt>
      <trkpt lon="-3.338637" lat="54.567794"><ele>218.759995</ele><time>2021-08-12T09:58:27Z</time><extensions><speed>0.034258</speed><course>41.372017</course><hAcc>0.878830</hAcc><vAcc>0.696718</vAcc></extensions></trkpt>
      <trkpt lon="-3.338637" lat="54.567794"><ele>218.755920</ele><time>2021-08-12T09:58:28Z</time><extensions><speed>0.050447</speed><course>37.017429</course><hAcc>0.878327</hAcc><vAcc>0.694888</vAcc></extensions></trkpt>
      <trkpt lon="-3.338638" lat="54.567793"><ele>218.756958</ele><time>2021-08-12T09:58:29Z</time><extensions><speed>0.077685</speed><course>28.588495</course><hAcc>0.877775</hAcc><vAcc>0.692902</vAcc></extensions></trkpt>
      <trkpt lon="-3.338639" lat="54.567793"><ele>218.766037</ele><time>2021-08-12T09:58:30Z</time><extensions><speed>0.115162</speed><course>39.512306</course><hAcc>0.877176</hAcc><vAcc>0.690768</vAcc></extensions></trkpt>
      <trkpt lon="-3.338641" lat="54.567792"><ele>218.786041</ele><time>2021-08-12T09:58:31Z</time><extensions><speed>0.161561</speed><course>38.955353</course><hAcc>0.876529</hAcc><vAcc>0.688477</vAcc></extensions></trkpt>
      <trkpt lon="-3.338644" lat="54.567791"><ele>218.819504</ele><time>2021-08-12T09:58:32Z</time><extensions><speed>0.214962</speed><course>35.270641</course><hAcc>0.875835</hAcc><vAcc>0.686022</vAcc></extensions></trkpt>
      <trkpt lon="-3.338647" lat="54.567790"><ele>218.868042</ele><time>2021-08-12T09:58:33Z</time><extensions><speed>0.273335</speed><course>38.302330</course><hAcc>0.875096</hAcc><vAcc>0.683403</vAcc></extensions></trkpt>
      <trkpt lon="-3.338651" lat="54.567789"><ele>218.932434</ele><time>2021-08-12T09:58:34Z</time><extensions><speed>0.334504</speed><course>40.976086</course><hAcc>0.874321</hAcc><vAcc>0.680632</vAcc></extensions></trkpt>
      <trkpt lon="-3.338655" lat="54.567787"><ele>219.012878</ele><time>2021-08-12T09:58:35Z</time><extensions><speed>0.395987</speed><course>40.718147</course><hAcc>0.873518</hAcc><vAcc>0.677735</vAcc></extensions></trkpt>
      <trkpt lon="-3.338661" lat="54.567785"><ele>219.108734</ele><time>2021-08-12T09:58:36Z</time><extensions><speed>0.455458</speed><course>40.437557</course><hAcc>0.872702</hAcc><vAcc>0.674754</vAcc></extensions></trkpt>
      <trkpt lon="-3.338667" lat="54.567783"><ele>219.218597</ele><time>2021-08-12T09:58:37Z</time><extensions><speed>0.511379</speed><course>38.315979</course><hAcc>0.871892</hAcc><vAcc>0.671753</vAcc></extensions></trkpt>
      <trkpt lon="-3.338674" lat="54.567780"><ele>219.341064</ele><time>2021-08-12T09:58:38Z</time><extensions><speed>0.562673</speed><course>28.668550</course><hAcc>0.871113</hAcc><vAcc>0.668817</vAcc></extensions></trkpt>
      <trkpt lon="-3.338682" lat="54.567777"><ele>219.475037</ele><time>2021-08-12T09:58:39Z</time><extensions><speed>0.608598</speed><course>31.392698</course><hAcc>0.870392</hAcc><vAcc>0.666058</vAcc></extensions></trkpt>
      <trkpt lon="-3.338691" lat="54.567775"><ele>219.619736</ele><time>2021-08-12T09:58:40Z</time><extensions><speed>0.649234</speed><course>32.848076</course><hAcc>0.869763</hAcc><vAcc>0.663618</vAcc></extensions></trkpt>
      <trkpt lon="-3.338700" lat="54.567772"><ele>219.774246</ele><time>2021-08-12T09:58:41Z</time><extensions><speed>0.684827</speed><course>38.096359</course><hAcc>0.869259</hAcc><vAcc>0.661653</vAcc></extensions></trkpt>
      <trkpt lon="-3.338709" lat="54.567769"><ele>219.937378</ele><time>2021-08-12T09:58:42Z</time><extensions><speed>0.715148</speed><course>27.737675</course><hAcc>0.868902</hAcc><vAcc>0.660273</vAcc></extensions></trkpt>
      <trkpt lon="-3.338719" lat="54.567766"><ele>220.107742</ele><time>2021-08-12T09:58:43Z</time><extensions><speed>0.740305</speed><course>38.820049</course><hAcc>0.868697</hAcc><vAcc>0.659508</vAcc></extensions></trkpt>
      <trkpt lon="-3.338730" lat="54.567763"><ele>220.283844</ele><time>2021-08-12T09:58:44Z</time><extensions><speed>0.760709</speed><course>40.137299</course><hAcc>0.868631</hAcc><vAcc>0.659313</vAcc></extensions></trkpt>
      <trkpt lon="-3.338740" lat="54.567760"><ele>220.464142</ele><time>2021-08-12T09:58:45Z</time><extensions><speed>0.776959</speed><course>44.560421</course><hAcc>0.868685</hAcc><vAcc>0.659594</vAcc></extensions></trkpt>
      <trkpt lon="-3.338751" lat="54.567757"><ele>220.647537</ele><time>2021-08-12T09:58:46Z</time><extensions><speed>0.790353</speed><course>41.574787</course><hAcc>0.868830</hAcc><vAcc>0.660236</vAcc></extensions></trkpt>
      <trkpt lon="-3.338763" lat="54.567754"><ele>220.833420</ele><time>2021-08-12T09:58:47Z</time><extensions><speed>0.801855</speed><course>37.402897</course><hAcc>0.869037</hAcc><vAcc>0.661111</vAcc></extensions></trkpt>
      <trkpt lon="-3.338774" lat="54.567751"><ele>221.021408</ele><time>2021-08-12T09:58:48Z</time><extensions><speed>0.811084</speed><course>38.445354</course><hAcc>0.869277</hAcc><vAcc>0.662093</vAcc></extensions></trkpt>
      <trkpt lon="-3.338786" lat="54.567748"><ele>221.211090</ele><time>2021-08-12T09:58:49Z</time><extensions><speed>0.816832</speed><course>32.932274</course><hAcc>0.869524</hAcc><vAcc>0.663071</vAcc></extensions></trkpt>
      <trkpt lon="-3.338797" lat="54.567745"><ele>221.402206</ele><time>2021-08-12T09:58:50Z</time><extensions><speed>0.818024</speed><course>27.701353</course><hAcc>0.869756</hAcc><vAcc>0.663953</vAcc></extensions></trkpt>
      <trkpt lon="-3.338809" lat="54.567742"><ele>221.594635</ele><time>2021-08-12T09:58:51Z</time><extensions><speed>0.814206</speed><course>28.233585</course><hAcc>0.869960</hAcc><vAcc>0.664681</vAcc></extensions></trkpt>
      <trkpt lon="-3.338820" lat="54.567739"><ele>221.788284</ele><time>2021-08-12T09:58:52Z</time><extensions><speed>0.806081</speed><course>30.003765</course><hAcc>0.870132</hAcc><vAcc>0.665240</vAcc></extensions></trkpt>
      <trkpt lon="-3.338832" lat="54.567736"><ele>221.983124</ele><time>2021-08-12T09:58:53Z</time><extensions><speed>0.795004</speed><course>35.586266</course><hAcc>0.870274</hAcc><vAcc>0.665660</vAcc></extensions></trkpt>
      <trkpt lon="-3.338843" lat="54.567733"><ele>222.179321</ele><time>2021-08-12T09:58:54Z</time><extensions><speed>0.782037</speed><course>41.034397</course><hAcc>0.870399</hAcc><vAcc>0.666007</vAcc></extensions></trkpt>
      <trkpt lon="-3.338853" lat="54.567730"><ele>222.377106</ele><time>2021-08-12T09:58:55Z</time><extensions><speed>0.768542</speed><course>43.040592</course><hAcc>0.870521</hAcc><vAcc>0.666357</vAcc></extensions></trkpt>
      <trkpt lon="-3.338864" lat="54.567727"><ele>222.576706</ele><time>2021-08-12T09:58:56Z</time><extensions><speed>0.755690</speed><course>49.550934</course><hAcc>0.870652</hAcc><vAcc>0.666770</vAcc></extensions></trkpt>
      <trkpt lon="-3.338874" lat="54.567724"><ele>222.778229</ele><time>2021-08-12T09:58:57Z</time><extensions><speed>0.743644</speed><course>62.069283</course><hAcc>0.870799</hAcc><vAcc>0.667266</vAcc></extensions></trkpt>
      <trkpt lon="-3.338884" lat="54.567720"><ele>222.981720</ele><time>2021-08-12T09:58:58Z</time><extensions><speed>0.732503</speed><course>68.512573</course><hAcc>0.870964</hAcc><vAcc>0.667841</vAcc></extensions></trkpt>
      <trkpt lon="-3.338893" lat="54.567717"><ele>223.187225</ele><time>2021-08-12T09:58:59Z</time><extensions><speed>0.722627</speed><course>76.544746</course><hAcc>0.871148</hAcc><vAcc>0.668487</vAcc></extensions></trkpt>
      <trkpt lon="-3.338903" lat="54.567714"><ele>223.394760</ele><time>2021-08-12T09:59:00Z</time><extensions><speed>0.714527</speed><course>91.471558</course><hAcc>0.871353</hAcc><vAcc>0.669207</vAcc></extensions></trkpt>
      <trkpt lon="-3.338912" lat="54.567710"><ele>223.604187</ele><time>2021-08-12T09:59:01Z</time><extensions><speed>0.708990</speed><course>103.707001</course><hAcc>0.871583</hAcc><vAcc>0.670016</vAcc></extensions></trkpt>
      <trkpt lon="-3.338922" lat="54.567707"><ele>223.815247</ele><time>2021-08-12T09:59:02Z</time><extensions><speed>0.706749</speed><course>102.240677</course><hAcc>0.871841</hAcc><vAcc>0.670943</vAcc></extensions></trkpt>
      <trkpt lon="-3.338931" lat="54.567704"><ele>224.027649</ele><time>2021-08-12T09:59:03Z</time><extensions><speed>0.708290</speed><course>109.008522</course><hAcc>0.872129</hAcc><vAcc>0.672009</vAcc></extensions></trkpt>
      <trkpt lon="-3.338940" lat="54.567700"><ele>224.241165</ele><time>2021-08-12T09:59:04Z</time><extensions><speed>0.713431</speed><course>120.687057</course><hAcc>0.872443</hAcc><vAcc>0.673206</vAcc></extensions></trkpt>
      <trkpt lon="-3.338950" lat="54.567697"><ele>224.455734</ele><time>2021-08-12T09:59:05Z</time><extensions><speed>0.721562</speed><course>122.518364</course><hAcc>0.872776</hAcc><vAcc>0.674497</vAcc></extensions></trkpt>
      <trkpt lon="-3.338959" lat="54.567694"><ele>224.671509</ele><time>2021-08-12T09:59:06Z</time><extensions><speed>0.732453</speed><course>116.435341</course><hAcc>0.873114</hAcc><vAcc>0.675825</vAcc></extensions></trkpt>
      <trkpt lon="-3.338969" lat="54.567690"><ele>224.889374</ele><time>2021-08-12T09:59:07Z</time><extensions><speed>0.745511</speed><course>123.806564</course><hAcc>0.873447</hAcc><vAcc>0.677127</vAcc></extensions></trkpt>
      <trkpt lon="-3.338979" lat="54.567686"><ele>225.110779</ele><time>2021-08-12T09:59:08Z</time><extensions><speed>0.759963</speed><course>121.279266</course><hAcc>0.873762</hAcc><vAcc>0.678343</vAcc></extensions></trkpt>
      <trkpt lon="-3.338988" lat="54.567682"><ele>225.337097</ele><time>2021-08-12T09:59:09Z</time><extensions><speed>0.775280</speed><course>122.295830</course><hAcc>0.874051</hAcc><vAcc>0.679422</vAcc></extensions></trkpt>
      <trkpt lon="-3.338998" lat="54.567678"><ele>225.569351</ele><time>2021-08-12T09:59:10Z</time><extensions><speed>0.790529</speed><course>116.485687</course><hAcc>0.874307</hAcc><vAcc>0.680333</vAcc></extensions></trkpt>
      <trkpt lon="-3.339008" lat="54.567674"><ele>225.807983</ele><time>2021-08-12T09:59:11Z</time><extensions><speed>0.804831</speed><course>120.837761</course><hAcc>0.874531</hAcc><vAcc>0.681066</vAcc></extensions></trkpt>
      <trkpt lon="-3.339019" lat="54.567670"><ele>226.052765</ele><time>2021-08-12T09:59:12Z</time><extensions><speed>0.817456</speed><course>121.691162</course><hAcc>0.874725</hAcc><vAcc>0.681648</vAcc></extensions></trkpt>
      <trkpt lon="-3.339029" lat="54.567666"><ele>226.303162</ele><time>2021-08-12T09:59:13Z</time><extensions><speed>0.828292</speed><course>120.429344</course><hAcc>0.874898</hAcc><vAcc>0.682133</vAcc></extensions></trkpt>
      <trkpt lon="-3.339039" lat="54.567661"><ele>226.558411</ele><time>2021-08-12T09:59:14Z</time><extensions><speed>0.837874</speed><course>127.922836</course><hAcc>0.875060</hAcc><vAcc>0.682589</vAcc></extensions></trkpt>
      <trkpt lon="-3.339049" lat="54.567656"><ele>226.817734</ele><time>2021-08-12T09:59:15Z</time><extensions><speed>0.846506</speed><course>122.773224</course><hAcc>0.875222</hAcc><vAcc>0.683081</vAcc></extensions></trkpt>
      <trkpt lon="-3.339060" lat="54.567652"><ele>227.080185</ele><time>2021-08-12T09:59:16Z</time><extensions><speed>0.854152</speed><course>127.410233</course><hAcc>0.875392</hAcc><vAcc>0.683650</vAcc></extensions></trkpt>
      <trkpt lon="-3.339071" lat="54.567647"><ele>227.344345</ele><time>2021-08-12T09:59:17Z</time><extensions><speed>0.860948</speed><course>126.293243</course><hAcc>0.875573</hAcc><vAcc>0.684303</vAcc></extensions></trkpt>
      <trkpt lon="-3.339081" lat="54.567643"><ele>227.608871</ele><time>2021-08-12T09:59:18Z</time><extensions><speed>0.866930</speed><course>113.773628</course><hAcc>0.875765</hAcc><vAcc>0.685030</vAcc></extensions></trkpt>
      <trkpt lon="-3.339092" lat="54.567638"><ele>227.873001</ele><time>2021-08-12T09:59:19Z</time><extensions><speed>0.871685</speed><course>111.597641</course><hAcc>0.875964</hAcc><vAcc>0.685806</vAcc></extensions></trkpt>
      <trkpt lon="-3.339103" lat="54.567634"><ele>228.136322</ele><time>2021-08-12T09:59:20Z</time><extensions><speed>0.874688</speed><course>118.242065</course><hAcc>0.876166</hAcc><vAcc>0.686599</vAcc></extensions></trkpt>
      <trkpt lon="-3.339115" lat="54.567629"><ele>228.398605</ele><time>2021-08-12T09:59:21Z</time><extensions><speed>0.875819</speed><course>121.318916</course><hAcc>0.876365</hAcc><vAcc>0.687382</vAcc></extensions></trkpt>
      <trkpt lon="-3.339126" lat="54.567625"><ele>228.659576</ele><time>2021-08-12T09:59:22Z</time><extensions><speed>0.875263</speed><course>126.571838</course><hAcc>0.876555</hAcc><vAcc>0.688129</vAcc></extensions></trkpt>
      <trkpt lon="-3.339138" lat="54.567621"><ele>228.918594</ele><time>2021-08-12T09:59:23Z</time><extensions><speed>0.873164</speed><course>116.053932</course><hAcc>0.876729</hAcc><vAcc>0.688819</vAcc></extensions></trkpt>
      <trkpt lon="-3.339149" lat="54.567617"><ele>229.174652</ele><time>2021-08-12T09:59:24Z</time><extensions><speed>0.870063</speed><course>122.553452</course><hAcc>0.876881</hAcc><vAcc>0.689427</vAcc></extensions></trkpt>
      <trkpt lon="-3.339161" lat="54.567613"><ele>229.426636</ele><time>2021-08-12T09:59:25Z</time><extensions><speed>0.866598</speed><course>115.362396</course><hAcc>0.877007</hAcc><vAcc>0.689927</vAcc></extensions></trkpt>
      <trkpt lon="-3.339173" lat="54.567610"><ele>229.673401</ele><time>2021-08-12T09:59:26Z</time><extensions><speed>0.863075</speed><course>120.016403</course><hAcc>0.877101</hAcc><vAcc>0.690295</vAcc></extensions></trkpt>
      <trkpt lon="-3.339185" lat="54.567606"><ele>229.913849</ele><time>2021-08-12T09:59:27Z</time><extensions><speed>0.859049</speed><course>131.521149</course><hAcc>0.877163</hAcc><vAcc>0.690516</vAcc></extensions></trkpt>
      <trkpt lon="-3.339197" lat="54.567603"><ele>230.147141</ele><time>2021-08-12T09:59:28Z</time><extensions><speed>0.854247</speed><course>124.976143</course><hAcc>0.877193</hAcc><vAcc>0.690586</vAcc></extensions></trkpt>
      <trkpt lon="-3.339209" lat="54.567600"><ele>230.372986</ele><time>2021-08-12T09:59:29Z</time><extensions><speed>0.849086</speed><course>123.546791</course><hAcc>0.877194</hAcc><vAcc>0.690519</vAcc></extensions></trkpt>
      <trkpt lon="-3.339221" lat="54.567597"><ele>230.591721</ele><time>2021-08-12T09:59:30Z</time><extensions><speed>0.843719</speed><course>116.699699</course><hAcc>0.877172</hAcc><vAcc>0.690344</vAcc></extensions></trkpt>
      <trkpt lon="-3.339233" lat="54.567594"><ele>230.804001</ele><time>2021-08-12T09:59:31Z</time><extensions><speed>0.838071</speed><course>112.924561</course><hAcc>0.877132</hAcc><vAcc>0.690100</vAcc></extensions></trkpt>
      <trkpt lon="-3.339245" lat="54.567592"><ele>231.010559</ele><time>2021-08-12T09:59:32Z</time><extensions><speed>0.831847</speed><course>117.858780</course><hAcc>0.877083</hAcc><vAcc>0.689832</vAcc></extensions></trkpt>
      <trkpt lon="-3.339257" lat="54.567589"><ele>231.211945</ele><time>2021-08-12T09:59:33Z</time><extensions><speed>0.824529</speed><course>111.630035</course><hAcc>0.877033</hAcc><vAcc>0.689581</vAcc></extensions></trkpt>
      <trkpt lon="-3.339269" lat="54.567586"><ele>231.408508</ele><time>2021-08-12T09:59:34Z</time><extensions><speed>0.815867</speed><course>115.453979</course><hAcc>0.876989</hAcc><vAcc>0.689377</vAcc></extensions></trkpt>
      <trkpt lon="-3.339280" lat="54.567583"><ele>231.600403</ele><time>2021-08-12T09:59:35Z</time><extensions><speed>0.806363</speed><course>108.625862</course><hAcc>0.876954</hAcc><vAcc>0.689236</vAcc></extensions></trkpt>
      <trkpt lon="-3.339292" lat="54.567580"><ele>231.787491</ele><time>2021-08-12T09:59:36Z</time><extensions><speed>0.797124</speed><course>116.435417</course><hAcc>0.876932</hAcc><vAcc>0.689159</vAcc></extensions></trkpt>
      <trkpt lon="-3.339303" lat="54.567577"><ele>231.969742</ele><time>2021-08-12T09:59:37Z</time><extensions><speed>0.789227</speed><course>112.323517</course><hAcc>0.876926</hAcc><vAcc>0.689144</vAcc></extensions></trkpt>
      <trkpt lon="-3.339313" lat="54.567574"><ele>232.147522</ele><time>2021-08-12T09:59:38Z</time><extensions><speed>0.783807</speed><course>117.491661</course><hAcc>0.876935</hAcc><vAcc>0.689186</vAcc></extensions></trkpt>
      <trkpt lon="-3.339324" lat="54.567570"><ele>232.321396</ele><time>2021-08-12T09:59:39Z</time><extensions><speed>0.782012</speed><course>120.293846</course><hAcc>0.876961</hAcc><vAcc>0.689284</vAcc></extensions></trkpt>
      <trkpt lon="-3.339334" lat="54.567566"><ele>232.491852</ele><time>2021-08-12T09:59:40Z</time><extensions><speed>0.784683</speed><course>115.591873</course><hAcc>0.877004</hAcc><vAcc>0.689437</vAcc></extensions></trkpt>
      <trkpt lon="-3.339343" lat="54.567562"><ele>232.659103</ele><time>2021-08-12T09:59:41Z</time><extensions><speed>0.792269</speed><course>116.468712</course><hAcc>0.877062</hAcc><vAcc>0.689646</vAcc></extensions></trkpt>
      <trkpt lon="-3.339353" lat="54.567557"><ele>232.823593</ele><time>2021-08-12T09:59:42Z</time><extensions><speed>0.804872</speed><course>116.627220</course><hAcc>0.877137</hAcc><vAcc>0.689913</vAcc></extensions></trkpt>
      <trkpt lon="-3.339362" lat="54.567552"><ele>232.986237</ele><time>2021-08-12T09:59:43Z</time><extensions><speed>0.821829</speed><course>115.487846</course><hAcc>0.877225</hAcc><vAcc>0.690239</vAcc></extensions></trkpt>
      <trkpt lon="-3.339371" lat="54.567547"><ele>233.148651</ele><time>2021-08-12T09:59:44Z</time><extensions><speed>0.842157</speed><course>110.303284</course><hAcc>0.877327</hAcc><vAcc>0.690618</vAcc></extensions></trkpt>
      <trkpt lon="-3.339379" lat="54.567541"><ele>233.312958</ele><time>2021-08-12T09:59:45Z</time><extensions><speed>0.865502</speed><course>107.900200</course><hAcc>0.877439</hAcc><vAcc>0.691042</vAcc></extensions></trkpt>
      <trkpt lon="-3.339387" lat="54.567535"><ele>233.481445</ele><time>2021-08-12T09:59:46Z</time><extensions><speed>0.890975</speed><course>104.901772</course><hAcc>0.877557</hAcc><vAcc>0.691495</vAcc></extensions></trkpt>
      <trkpt lon="-3.339395" lat="54.567528"><ele>233.656189</ele><time>2021-08-12T09:59:47Z</time><extensions><speed>0.916844</speed><course>102.625549</course><hAcc>0.877680</hAcc><vAcc>0.691964</vAcc></extensions></trkpt>
      <trkpt lon="-3.339402" lat="54.567521"><ele>233.838989</ele><time>2021-08-12T09:59:48Z</time><extensions><speed>0.941743</speed><course>101.615082</course><hAcc>0.877803</hAcc><vAcc>0.692432</vAcc></extensions></trkpt>
      <trkpt lon="-3.339409" lat="54.567513"><ele>234.031281</ele><time>2021-08-12T09:59:49Z</time><extensions><speed>0.964965</speed><course>104.820312</course><hAcc>0.877922</hAcc><vAcc>0.692884</vAcc></extensions></trkpt>
      <trkpt lon="-3.339416" lat="54.567505"><ele>234.233994</ele><time>2021-08-12T09:59:50Z</time><extensions><speed>0.986252</speed><course>97.837166</course><hAcc>0.878035</hAcc><vAcc>0.693307</vAcc></extensions></trkpt>
      <trkpt lon="-3.339423" lat="54.567497"><ele>234.447678</ele><time>2021-08-12T09:59:51Z</time><extensions><speed>1.005301</speed><course>99.518051</course><hAcc>0.878139</hAcc><vAcc>0.693690</vAcc></extensions></trkpt>
      <trkpt lon="-3.339429" lat="54.567489"><ele>234.672424</ele><time>2021-08-12T09:59:52Z</time><extensions><speed>1.021723</speed><course>105.468117</course><hAcc>0.878233</hAcc><vAcc>0.694027</vAcc></extensions></trkpt>
      <trkpt lon="-3.339435" lat="54.567480"><ele>234.908112</ele><time>2021-08-12T09:59:53Z</time><extensions><speed>1.035391</speed><course>105.021729</course><hAcc>0.878315</hAcc><vAcc>0.694320</vAcc></extensions></trkpt>
      <trkpt lon="-3.339441" lat="54.567472"><ele>235.154175</ele><time>2021-08-12T09:59:54Z</time><extensions><speed>1.046181</speed><course>105.854553</course><hAcc>0.878386</hAcc><vAcc>0.694566</vAcc></extensions></trkpt>
      <trkpt lon="-3.339447" lat="54.567463"><ele>235.409729</ele><time>2021-08-12T09:59:55Z</time><extensions><speed>1.054358</speed><course>116.038353</course><hAcc>0.878450</hAcc><vAcc>0.694770</vAcc></extensions></trkpt>
      <trkpt lon="-3.339453" lat="54.567454"><ele>235.673676</ele><time>2021-08-12T09:59:56Z</time><extensions><speed>1.060401</speed><course>116.622620</course><hAcc>0.878513</hAcc><vAcc>0.694942</vAcc></extensions></trkpt>
      <trkpt lon="-3.339459" lat="54.567445"><ele>235.944641</ele><time>2021-08-12T09:59:57Z</time><extensions><speed>1.064578</speed><course>116.023415</course><hAcc>0.878584</hAcc><vAcc>0.695104</vAcc></extensions></trkpt>
      <trkpt lon="-3.339465" lat="54.567436"><ele>236.221146</ele><time>2021-08-12T09:59:58Z</time><extensions><speed>1.066986</speed><course>111.053482</course><hAcc>0.878676</hAcc><vAcc>0.695282</vAcc></extensions></trkpt>
      <trkpt lon="-3.339471" lat="54.567427"><ele>236.501770</ele><time>2021-08-12T09:59:59Z</time><extensions><speed>1.067380</speed><course>109.683617</course><hAcc>0.878811</hAcc><vAcc>0.695505</vAcc></extensions></trkpt>
      <trkpt lon="-3.339477" lat="54.567418"><ele>236.785049</ele><time>2021-08-12T10:00:00Z</time><extensions><speed>1.065696</speed><course>107.838440</course><hAcc>0.879013</hAcc><vAcc>0.695805</vAcc></extensions></trkpt>
      <trkpt lon="-3.339483" lat="54.567410"><ele>237.069443</ele><time>2021-08-12T10:00:01Z</time><extensions><speed>1.062171</speed><course>110.196930</course><hAcc>0.879315</hAcc><vAcc>0.696222</vAcc></extensions></trkpt>
      <trkpt lon="-3.339489" lat="54.567401"><ele>237.353165</ele><time>2021-08-12T10:00:02Z</time><extensions><speed>1.056937</speed><course>111.548782</course><hAcc>0.879756</hAcc><vAcc>0.696799</vAcc></extensions></trkpt>
      <trkpt lon="-3.339494" lat="54.567392"><ele>237.634262</ele><time>2021-08-12T10:00:03Z</time><extensions><speed>1.050709</speed><course>110.420074</course><hAcc>0.880380</hAcc><vAcc>0.697580</vAcc></extensions></trkpt>
      <trkpt lon="-3.339499" lat="54.567383"><ele>237.911133</ele><time>2021-08-12T10:00:04Z</time><extensions><speed>1.044176</speed><course>99.619576</course><hAcc>0.881233</hAcc><vAcc>0.698600</vAcc></extensions></trkpt>
      <trkpt lon="-3.339504" lat="54.567374"><ele>238.182571</ele><time>2021-08-12T10:00:05Z</time><extensions><speed>1.037078</speed><course>107.102882</course><hAcc>0.882356</hAcc><vAcc>0.699876</vAcc></extensions></trkpt>
      <trkpt lon="-3.339509" lat="54.567365"><ele>238.447357</ele><time>2021-08-12T10:00:06Z</time><extensions><speed>1.028776</speed><course>98.831825</course><hAcc>0.883778</hAcc><vAcc>0.701407</vAcc></extensions></trkpt>
      <trkpt lon="-3.339514" lat="54.567356"><ele>238.704117</ele><time>2021-08-12T10:00:07Z</time><extensions><speed>1.018535</speed><course>99.864403</course><hAcc>0.885508</hAcc><vAcc>0.703166</vAcc></extensions></trkpt>
      <trkpt lon="-3.339519" lat="54.567348"><ele>238.951614</ele><time>2021-08-12T10:00:08Z</time><extensions><speed>1.005844</speed><course>99.165215</course><hAcc>0.887518</hAcc><vAcc>0.705093</vAcc></extensions></trkpt>
      <trkpt lon="-3.339523" lat="54.567339"><ele>239.189224</ele><time>2021-08-12T10:00:09Z</time><extensions><speed>0.990624</speed><course>106.876038</course><hAcc>0.889734</hAcc><vAcc>0.707086</vAcc></extensions></trkpt>
      <trkpt lon="-3.339527" lat="54.567331"><ele>239.416641</ele><time>2021-08-12T10:00:10Z</time><extensions><speed>0.972644</speed><course>100.224144</course><hAcc>0.892028</hAcc><vAcc>0.709008</vAcc></extensions></trkpt>
      <trkpt lon="-3.339531" lat="54.567322"><ele>239.633652</ele><time>2021-08-12T10:00:11Z</time><extensions><speed>0.951459</speed><course>97.870438</course><hAcc>0.894219</hAcc><vAcc>0.710707</vAcc></extensions></trkpt>
      <trkpt lon="-3.339535" lat="54.567314"><ele>239.840530</ele><time>2021-08-12T10:00:12Z</time><extensions><speed>0.927155</speed><course>109.047302</course><hAcc>0.896095</hAcc><vAcc>0.712049</vAcc></extensions></trkpt>
      <trkpt lon="-3.339539" lat="54.567306"><ele>240.037964</ele><time>2021-08-12T10:00:13Z</time><extensions><speed>0.899924</speed><course>111.386711</course><hAcc>0.897463</hAcc><vAcc>0.712982</vAcc></extensions></trkpt>
      <trkpt lon="-3.339543" lat="54.567299"><ele>240.226364</ele><time>2021-08-12T10:00:14Z</time><extensions><speed>0.869704</speed><course>110.131767</course><hAcc>0.898253</hAcc><vAcc>0.713623</vAcc></extensions></trkpt>
      <trkpt lon="-3.339546" lat="54.567291"><ele>240.405731</ele><time>2021-08-12T10:00:15Z</time><extensions><speed>0.836577</speed><course>109.748413</course><hAcc>0.898679</hAcc><vAcc>0.714405</vAcc></extensions></trkpt>
      <trkpt lon="-3.339549" lat="54.567284"><ele>240.575943</ele><time>2021-08-12T10:00:16Z</time><extensions><speed>0.800649</speed><course>116.453705</course><hAcc>0.899506</hAcc><vAcc>0.716267</vAcc></extensions></trkpt>
      <trkpt lon="-3.339552" lat="54.567277"><ele>240.736481</ele><time>2021-08-12T10:00:17Z</time><extensions><speed>0.762161</speed><course>111.019348</course><hAcc>0.902407</hAcc><vAcc>0.720892</vAcc></extensions></trkpt>
      <trkpt lon="-3.339555" lat="54.567271"><ele>240.886734</ele><time>2021-08-12T10:00:18Z</time><extensions><speed>0.721757</speed><course>106.996025</course><hAcc>0.910414</hAcc><vAcc>0.730957</vAcc></extensions></trkpt>
      <trkpt lon="-3.339557" lat="54.567265"><ele>241.026825</ele><time>2021-08-12T10:00:19Z</time><extensions><speed>0.680945</speed><course>104.594215</course><hAcc>0.928343</hAcc><vAcc>0.750274</vAcc></extensions></trkpt>
      <trkpt lon="-3.339559" lat="54.567259"><ele>241.157822</ele><time>2021-08-12T10:00:20Z</time><extensions><speed>0.642666</speed><course>101.351479</course><hAcc>0.962940</hAcc><vAcc>0.783671</vAcc></extensions></trkpt>
      <trkpt lon="-3.339558" lat="54.567255"><ele>241.206665</ele><time>2021-08-12T10:00:21Z</time><extensions><speed>0.182586</speed><course>74.967865</course><hAcc>0.925709</hAcc><vAcc>0.749744</vAcc></extensions></trkpt>
      <trkpt lon="-3.339559" lat="54.567254"><ele>241.284775</ele><time>2021-08-12T10:00:22Z</time><extensions><speed>0.157376</speed><course>75.133301</course><hAcc>0.907444</hAcc><vAcc>0.730687</vAcc></extensions></trkpt>
      <trkpt lon="-3.339559" lat="54.567252"><ele>241.356400</ele><time>2021-08-12T10:00:23Z</time><extensions><speed>0.133466</speed><course>66.099251</course><hAcc>0.900260</hAcc><vAcc>0.721749</vAcc></extensions></trkpt>
      <trkpt lon="-3.339559" lat="54.567251"><ele>241.421921</ele><time>2021-08-12T10:00:24Z</time><extensions><speed>0.111260</speed><course>81.237114</course><hAcc>0.898653</hAcc><vAcc>0.718669</vAcc></extensions></trkpt>
      <trkpt lon="-3.339558" lat="54.567250"><ele>241.481567</ele><time>2021-08-12T10:00:25Z</time><extensions><speed>0.090361</speed><course>80.566093</course><hAcc>0.899165</hAcc><vAcc>0.718477</vAcc></extensions></trkpt>
      <trkpt lon="-3.339558" lat="54.567250"><ele>241.535324</ele><time>2021-08-12T10:00:26Z</time><extensions><speed>0.070238</speed><course>80.566109</course><hAcc>0.899908</hAcc><vAcc>0.719321</vAcc></extensions></trkpt>
      <trkpt lon="-3.339558" lat="54.567249"><ele>241.583267</ele><time>2021-08-12T10:00:27Z</time><extensions><speed>0.050656</speed><course>80.566093</course><hAcc>0.900044</hAcc><vAcc>0.720196</vAcc></extensions></trkpt>
      <trkpt lon="-3.339557" lat="54.567249"><ele>241.625427</ele><time>2021-08-12T10:00:28Z</time><extensions><speed>0.033082</speed><course>80.566093</course><hAcc>0.899363</hAcc><vAcc>0.720667</vAcc></extensions></trkpt>
      <trkpt lon="-3.339557" lat="54.567249"><ele>241.661789</ele><time>2021-08-12T10:00:29Z</time><extensions><speed>0.023601</speed><course>80.566093</course><hAcc>0.897981</hAcc><vAcc>0.720644</vAcc></extensions></trkpt>
      <trkpt lon="-3.339557" lat="54.567249"><ele>241.692490</ele><time>2021-08-12T10:00:30Z</time><extensions><speed>0.029748</speed><course>77.344681</course><hAcc>0.896149</hAcc><vAcc>0.720223</vAcc></extensions></trkpt>
      <trkpt lon="-3.339556" lat="54.567249"><ele>241.718002</ele><time>2021-08-12T10:00:31Z</time><extensions><speed>0.043857</speed><course>77.923714</course><hAcc>0.894135</hAcc><vAcc>0.719579</vAcc></extensions></trkpt>
      <trkpt lon="-3.339556" lat="54.567249"><ele>241.738785</ele><time>2021-08-12T10:00:32Z</time><extensions><speed>0.058708</speed><course>87.073212</course><hAcc>0.892173</hAcc><vAcc>0.718906</vAcc></extensions></trkpt>
      <trkpt lon="-3.339556" lat="54.567250"><ele>241.754929</ele><time>2021-08-12T10:00:33Z</time><extensions><speed>0.072093</speed><course>79.233902</course><hAcc>0.890433</hAcc><vAcc>0.718381</vAcc></extensions></trkpt>
      <trkpt lon="-3.339555" lat="54.567251"><ele>241.766220</ele><time>2021-08-12T10:00:34Z</time><extensions><speed>0.082942</speed><course>96.572746</course><hAcc>0.889023</hAcc><vAcc>0.718139</vAcc></extensions></trkpt>
      <trkpt lon="-3.339555" lat="54.567251"><ele>241.772568</ele><time>2021-08-12T10:00:35Z</time><extensions><speed>0.090399</speed><course>86.920219</course><hAcc>0.888000</hAcc><vAcc>0.718274</vAcc></extensions></trkpt>
      <trkpt lon="-3.339554" lat="54.567252"><ele>241.773865</ele><time>2021-08-12T10:00:36Z</time><extensions><speed>0.093802</speed><course>76.786201</course><hAcc>0.887382</hAcc><vAcc>0.718831</vAcc></extensions></trkpt>
      <trkpt lon="-3.339554" lat="54.567253"><ele>241.770157</ele><time>2021-08-12T10:00:37Z</time><extensions><speed>0.092419</speed><course>77.162971</course><hAcc>0.887168</hAcc><vAcc>0.719816</vAcc></extensions></trkpt>
      <trkpt lon="-3.339553" lat="54.567254"><ele>241.761719</ele><time>2021-08-12T10:00:38Z</time><extensions><speed>0.085301</speed><course>69.604996</course><hAcc>0.887346</hAcc><vAcc>0.721200</vAcc></extensions></trkpt>
      <trkpt lon="-3.339553" lat="54.567254"><ele>241.749023</ele><time>2021-08-12T10:00:39Z</time><extensions><speed>0.071512</speed><course>76.115456</course><hAcc>0.887901</hAcc><vAcc>0.722937</vAcc></extensions></trkpt>
      <trkpt lon="-3.339552" lat="54.567255"><ele>241.732880</ele><time>2021-08-12T10:00:40Z</time><extensions><speed>0.050678</speed><course>83.646278</course><hAcc>0.888820</hAcc><vAcc>0.724975</vAcc></extensions></trkpt>
      <trkpt lon="-3.339552" lat="54.567255"><ele>241.714371</ele><time>2021-08-12T10:00:41Z</time><extensions><speed>0.028004</speed><course>76.408623</course><hAcc>0.890092</hAcc><vAcc>0.727261</vAcc></extensions></trkpt>
      <trkpt lon="-3.339551" lat="54.567255"><ele>241.694962</ele><time>2021-08-12T10:00:42Z</time><extensions><speed>0.042691</speed><course>79.439453</course><hAcc>0.891696</hAcc><vAcc>0.729729</vAcc></extensions></trkpt>
      <trkpt lon="-3.339551" lat="54.567254"><ele>241.676483</ele><time>2021-08-12T10:00:43Z</time><extensions><speed>0.094831</speed><course>75.300941</course><hAcc>0.893602</hAcc><vAcc>0.732299</vAcc></extensions></trkpt>
      <trkpt lon="-3.339551" lat="54.567253"><ele>241.661179</ele><time>2021-08-12T10:00:44Z</time><extensions><speed>0.164959</speed><course>76.126534</course><hAcc>0.895751</hAcc><vAcc>0.734867</vAcc></extensions></trkpt>
      <trkpt lon="-3.339551" lat="54.567251"><ele>241.651703</ele><time>2021-08-12T10:00:45Z</time><extensions><speed>0.251659</speed><course>75.233688</course><hAcc>0.898050</hAcc><vAcc>0.737299</vAcc></extensions></trkpt>
      <trkpt lon="-3.339551" lat="54.567248"><ele>241.651093</ele><time>2021-08-12T10:00:46Z</time><extensions><speed>0.355499</speed><course>81.891060</course><hAcc>0.900361</hAcc><vAcc>0.739443</vAcc></extensions></trkpt>
      <trkpt lon="-3.339551" lat="54.567245"><ele>241.662781</ele><time>2021-08-12T10:00:47Z</time><extensions><speed>0.477052</speed><course>78.263519</course><hAcc>0.902504</hAcc><vAcc>0.741149</vAcc></extensions></trkpt>
      <trkpt lon="-3.339552" lat="54.567240"><ele>241.690491</ele><time>2021-08-12T10:00:48Z</time><extensions><speed>0.616472</speed><course>74.907532</course><hAcc>0.904279</hAcc><vAcc>0.742299</vAcc></extensions></trkpt>
      <trkpt lon="-3.339553" lat="54.567234"><ele>241.738113</ele><time>2021-08-12T10:00:49Z</time><extensions><speed>0.773250</speed><course>84.941742</course><hAcc>0.905518</hAcc><vAcc>0.742873</vAcc></extensions></trkpt>
      <trkpt lon="-3.339555" lat="54.567226"><ele>241.809601</ele><time>2021-08-12T10:00:50Z</time><extensions><speed>0.945978</speed><course>73.584358</course><hAcc>0.906182</hAcc><vAcc>0.743045</vAcc></extensions></trkpt>
      <trkpt lon="-3.339557" lat="54.567217"><ele>241.908722</ele><time>2021-08-12T10:00:51Z</time><extensions><speed>1.132107</speed><course>96.346313</course><hAcc>0.906530</hAcc><vAcc>0.743326</vAcc></extensions></trkpt>
      <trkpt lon="-3.339560" lat="54.567206"><ele>242.038773</ele><time>2021-08-12T10:00:52Z</time><extensions><speed>1.327683</speed><course>87.208282</course><hAcc>0.907369</hAcc><vAcc>0.744757</vAcc></extensions></trkpt>
      <trkpt lon="-3.339563" lat="54.567193"><ele>242.202240</ele><time>2021-08-12T10:00:53Z</time><extensions><speed>1.527053</speed><course>71.034035</course><hAcc>0.910415</hAcc><vAcc>0.749142</vAcc></extensions></trkpt>
      <trkpt lon="-3.339567" lat="54.567179"><ele>242.400345</ele><time>2021-08-12T10:00:54Z</time><extensions><speed>1.722556</speed><course>74.315559</course><hAcc>0.918724</hAcc><vAcc>0.759276</vAcc></extensions></trkpt>
      <trkpt lon="-3.339572" lat="54.567163"><ele>242.632523</ele><time>2021-08-12T10:00:55Z</time><extensions><speed>1.904214</speed><course>82.074326</course><hAcc>0.937106</hAcc><vAcc>0.779065</vAcc></extensions></trkpt>
      <trkpt lon="-3.339577" lat="54.567145"><ele>242.895828</ele><time>2021-08-12T10:00:56Z</time><extensions><speed>2.059426</speed><course>78.798851</course><hAcc>0.972256</hAcc><vAcc>0.813378</vAcc></extensions></trkpt>
      <trkpt lon="-3.339584" lat="54.567124"><ele>243.356812</ele><time>2021-08-12T10:00:57Z</time><extensions><speed>2.685173</speed><course>74.967865</course><hAcc>0.934409</hAcc><vAcc>0.777305</vAcc></extensions></trkpt>
      <trkpt lon="-3.339589" lat="54.567100"><ele>243.741989</ele><time>2021-08-12T10:00:58Z</time><extensions><speed>2.590982</speed><course>75.133301</course><hAcc>0.914728</hAcc><vAcc>0.754328</vAcc></extensions></trkpt>
      <trkpt lon="-3.339594" lat="54.567078"><ele>244.111557</ele><time>2021-08-12T10:00:59Z</time><extensions><speed>2.473213</speed><course>66.099251</course><hAcc>0.906349</hAcc><vAcc>0.742234</vAcc></extensions></trkpt>
      <trkpt lon="-3.339598" lat="54.567056"><ele>244.461548</ele><time>2021-08-12T10:01:00Z</time><extensions><speed>2.341927</speed><course>81.237114</course><hAcc>0.903799</hAcc><vAcc>0.736708</vAcc></extensions></trkpt>
      <trkpt lon="-3.339601" lat="54.567036"><ele>244.790024</ele><time>2021-08-12T10:01:01Z</time><extensions><speed>2.205706</speed><course>80.566093</course><hAcc>0.903596</hAcc><vAcc>0.734619</vAcc></extensions></trkpt>
      <trkpt lon="-3.339603" lat="54.567017"><ele>245.096146</ele><time>2021-08-12T10:01:02Z</time><extensions><speed>2.070936</speed><course>80.566109</course><hAcc>0.903803</hAcc><vAcc>0.733940</vAcc></extensions></trkpt>
      <trkpt lon="-3.339604" lat="54.566999"><ele>245.379379</ele><time>2021-08-12T10:01:03Z</time><extensions><speed>1.942199</speed><course>80.566093</course><hAcc>0.903527</hAcc><vAcc>0.733505</vAcc></extensions></trkpt>
      <trkpt lon="-3.339605" lat="54.566982"><ele>245.639648</ele><time>2021-08-12T10:01:04Z</time><extensions><speed>1.822738</speed><course>80.566093</course><hAcc>0.902505</hAcc><vAcc>0.732756</vAcc></extensions></trkpt>
      <trkpt lon="-3.339604" lat="54.566966"><ele>245.877426</ele><time>2021-08-12T10:01:05Z</time><extensions><speed>1.714717</speed><course>80.566093</course><hAcc>0.900810</hAcc><vAcc>0.731513</vAcc></extensions></trkpt>
      <trkpt lon="-3.339603" lat="54.566951"><ele>246.093506</ele><time>2021-08-12T10:01:06Z</time><extensions><speed>1.619088</speed><course>77.344681</course><hAcc>0.898660</hAcc><vAcc>0.729815</vAcc></extensions></trkpt>
      <trkpt lon="-3.339602" lat="54.566937"><ele>246.289169</ele><time>2021-08-12T10:01:07Z</time><extensions><speed>1.536327</speed><course>77.923714</course><hAcc>0.896301</hAcc><vAcc>0.727804</vAcc></extensions></trkpt>
      <trkpt lon="-3.339599" lat="54.566923"><ele>246.466156</ele><time>2021-08-12T10:01:08Z</time><extensions><speed>1.466589</speed><course>87.073212</course><hAcc>0.893951</hAcc><vAcc>0.725648</vAcc></extensions></trkpt>
      <trkpt lon="-3.339597" lat="54.566910"><ele>246.626312</ele><time>2021-08-12T10:01:09Z</time><extensions><speed>1.409396</speed><course>79.233902</course><hAcc>0.891768</hAcc><vAcc>0.723500</vAcc></extensions></trkpt>
      <trkpt lon="-3.339593" lat="54.566898"><ele>246.770950</ele><time>2021-08-12T10:01:10Z</time><extensions><speed>1.364065</speed><course>96.572746</course><hAcc>0.889850</hAcc><vAcc>0.721483</vAcc></extensions></trkpt>
      <trkpt lon="-3.339589" lat="54.566886"><ele>246.901047</ele><time>2021-08-12T10:01:11Z</time><extensions><speed>1.329541</speed><course>86.920219</course><hAcc>0.888244</hAcc><vAcc>0.719682</vAcc></extensions></trkpt>
      <trkpt lon="-3.339585" lat="54.566875"><ele>247.017487</ele><time>2021-08-12T10:01:12Z</time><extensions><speed>1.304662</speed><course>76.786201</course><hAcc>0.886953</hAcc><vAcc>0.718146</vAcc></extensions></trkpt>
      <trkpt lon="-3.339580" lat="54.566863"><ele>247.121475</ele><time>2021-08-12T10:01:13Z</time><extensions><speed>1.288290</speed><course>77.162971</course><hAcc>0.885953</hAcc><vAcc>0.716893</vAcc></extensions></trkpt>
      <trkpt lon="-3.339576" lat="54.566852"><ele>247.214249</ele><time>2021-08-12T10:01:14Z</time><extensions><speed>1.278667</speed><course>69.604996</course><hAcc>0.885207</hAcc><vAcc>0.715913</vAcc></extensions></trkpt>
      <trkpt lon="-3.339571" lat="54.566841"><ele>247.296707</ele><time>2021-08-12T10:01:15Z</time><extensions><speed>1.274080</speed><course>76.115456</course><hAcc>0.884668</hAcc><vAcc>0.715175</vAcc></extensions></trkpt>
      <trkpt lon="-3.339565" lat="54.566830"><ele>247.370087</ele><time>2021-08-12T10:01:16Z</time><extensions><speed>1.273554</speed><course>83.646278</course><hAcc>0.884293</hAcc><vAcc>0.714637</vAcc></extensions></trkpt>
      <trkpt lon="-3.339560" lat="54.566819"><ele>247.435974</ele><time>2021-08-12T10:01:17Z</time><extensions><speed>1.276217</speed><course>76.408623</course><hAcc>0.884040</hAcc><vAcc>0.714249</vAcc></extensions></trkpt>
      <trkpt lon="-3.339555" lat="54.566808"><ele>247.496033</ele><time>2021-08-12T10:01:18Z</time><extensions><speed>1.281244</speed><course>79.439453</course><hAcc>0.883877</hAcc><vAcc>0.713972</vAcc></extensions></trkpt>
      <trkpt lon="-3.339549" lat="54.566797"><ele>247.551636</ele><time>2021-08-12T10:01:19Z</time><extensions><speed>1.288192</speed><course>75.300941</course><hAcc>0.883776</hAcc><vAcc>0.713773</vAcc></extensions></trkpt>
      <trkpt lon="-3.339544" lat="54.566786"><ele>247.603409</ele><time>2021-08-12T10:01:20Z</time><extensions><speed>1.296687</speed><course>76.126534</course><hAcc>0.883717</hAcc><vAcc>0.713632</vAcc></extensions></trkpt>
      <trkpt lon="-3.339539" lat="54.566774"><ele>247.651260</ele><time>2021-08-12T10:01:21Z</time><extensions><speed>1.306372</speed><course>75.233688</course><hAcc>0.883684</hAcc><vAcc>0.713537</vAcc></extensions></trkpt>
      <trkpt lon="-3.339534" lat="54.566763"><ele>247.694946</ele><time>2021-08-12T10:01:22Z</time><extensions><speed>1.317123</speed><course>81.891060</course><hAcc>0.883668</hAcc><vAcc>0.713479</vAcc></extensions></trkpt>
      <trkpt lon="-3.339529" lat="54.566751"><ele>247.734634</ele><time>2021-08-12T10:01:23Z</time><extensions><speed>1.329029</speed><course>78.263519</course><hAcc>0.883663</hAcc><vAcc>0.713455</vAcc></extensions></trkpt>
      <trkpt lon="-3.339524" lat="54.566740"><ele>247.770889</ele><time>2021-08-12T10:01:24Z</time><extensions><speed>1.341928</speed><course>74.907532</course><hAcc>0.883667</hAcc><vAcc>0.713461</vAcc></extensions></trkpt>
      <trkpt lon="-3.339520" lat="54.566728"><ele>247.804047</ele><time>2021-08-12T10:01:25Z</time><extensions><speed>1.355084</speed><course>84.941742</course><hAcc>0.883678</hAcc><vAcc>0.713497</vAcc></extensions></trkpt>
      <trkpt lon="-3.339516" lat="54.566716"><ele>247.834351</ele><time>2021-08-12T10:01:26Z</time><extensions><speed>1.367911</speed><course>73.584358</course><hAcc>0.883697</hAcc><vAcc>0.713562</vAcc></extensions></trkpt>
      <trkpt lon="-3.339512" lat="54.566704"><ele>247.862396</ele><time>2021-08-12T10:01:27Z</time><extensions><speed>1.380409</speed><course>96.346313</course><hAcc>0.883725</hAcc><vAcc>0.713655</vAcc></extensions></trkpt>
      <trkpt lon="-3.339509" lat="54.566691"><ele>247.889053</ele><time>2021-08-12T10:01:28Z</time><extensions><speed>1.392360</speed><course>87.208282</course><hAcc>0.883763</hAcc><vAcc>0.713778</vAcc></extensions></trkpt>
      <trkpt lon="-3.339505" lat="54.566679"><ele>247.915115</ele><time>2021-08-12T10:01:29Z</time><extensions><speed>1.403160</speed><course>71.034035</course><hAcc>0.883812</hAcc><vAcc>0.713937</vAcc></extensions></trkpt>
      <trkpt lon="-3.339502" lat="54.566667"><ele>247.941193</ele><time>2021-08-12T10:01:30Z</time><extensions><speed>1.412190</speed><course>74.315559</course><hAcc>0.883871</hAcc><vAcc>0.714143</vAcc></extensions></trkpt>
      <trkpt lon="-3.339500" lat="54.566654"><ele>247.967575</ele><time>2021-08-12T10:01:31Z</time><extensions><speed>1.419113</speed><course>82.074326</course><hAcc>0.883938</hAcc><vAcc>0.714404</vAcc></extensions></trkpt>
      <trkpt lon="-3.339498" lat="54.566641"><ele>247.994186</ele><time>2021-08-12T10:01:32Z</time><extensions><speed>1.423786</speed><course>78.798851</course><hAcc>0.884013</hAcc><vAcc>0.714720</vAcc></extensions></trkpt>
      <trkpt lon="-3.339496" lat="54.566628"><ele>248.020920</ele><time>2021-08-12T10:01:33Z</time><extensions><speed>1.426250</speed><course>71.049065</course><hAcc>0.884091</hAcc><vAcc>0.715081</vAcc></extensions></trkpt>
      <trkpt lon="-3.339495" lat="54.566616"><ele>248.048080</ele><time>2021-08-12T10:01:34Z</time><extensions><speed>1.426936</speed><course>66.417450</course><hAcc>0.884170</hAcc><vAcc>0.715469</vAcc></extensions></trkpt>
      <trkpt lon="-3.339494" lat="54.566603"><ele>248.076141</ele><time>2021-08-12T10:01:35Z</time><extensions><speed>1.426156</speed><course>67.881187</course><hAcc>0.884247</hAcc><vAcc>0.715855</vAcc></extensions></trkpt>
      <trkpt lon="-3.339494" lat="54.566590"><ele>248.105301</ele><time>2021-08-12T10:01:36Z</time><extensions><speed>1.424182</speed><course>73.946594</course><hAcc>0.884319</hAcc><vAcc>0.716207</vAcc></extensions></trkpt>
      <trkpt lon="-3.339494" lat="54.566577"><ele>248.135452</ele><time>2021-08-12T10:01:37Z</time><extensions><speed>1.421369</speed><course>66.868568</course><hAcc>0.884383</hAcc><vAcc>0.716503</vAcc></extensions></trkpt>
      <trkpt lon="-3.339494" lat="54.566564"><ele>248.166611</ele><time>2021-08-12T10:01:38Z</time><extensions><speed>1.418106</speed><course>57.370388</course><hAcc>0.884436</hAcc><vAcc>0.716725</vAcc></extensions></trkpt>
      <trkpt lon="-3.339495" lat="54.566552"><ele>248.199448</ele><time>2021-08-12T10:01:39Z</time><extensions><speed>1.415030</speed><course>72.859169</course><hAcc>0.884477</hAcc><vAcc>0.716868</vAcc></extensions></trkpt>
      <trkpt lon="-3.339496" lat="54.566539"><ele>248.235001</ele><time>2021-08-12T10:01:40Z</time><extensions><speed>1.412313</speed><course>73.476959</course><hAcc>0.884503</hAcc><vAcc>0.716931</vAcc></extensions></trkpt>
      <trkpt lon="-3.339497" lat="54.566526"><ele>248.273743</ele><time>2021-08-12T10:01:41Z</time><extensions><speed>1.409340</speed><course>70.985191</course><hAcc>0.884517</hAcc><vAcc>0.716925</vAcc></extensions></trkpt>
      <trkpt lon="-3.339499" lat="54.566514"><ele>248.315079</ele><time>2021-08-12T10:01:42Z</time><extensions><speed>1.405582</speed><course>67.094063</course><hAcc>0.884518</hAcc><vAcc>0.716864</vAcc></extensions></trkpt>
      <trkpt lon="-3.339501" lat="54.566501"><ele>248.358322</ele><time>2021-08-12T10:01:43Z</time><extensions><speed>1.401267</speed><course>63.802017</course><hAcc>0.884509</hAcc><vAcc>0.716764</vAcc></extensions></trkpt>
      <trkpt lon="-3.339503" lat="54.566489"><ele>248.403381</ele><time>2021-08-12T10:01:44Z</time><extensions><speed>1.396744</speed><course>59.738853</course><hAcc>0.884492</hAcc><vAcc>0.716642</vAcc></extensions></trkpt>
      <trkpt lon="-3.339505" lat="54.566476"><ele>248.450592</ele><time>2021-08-12T10:01:45Z</time><extensions><speed>1.392215</speed><course>64.752533</course><hAcc>0.884470</hAcc><vAcc>0.716512</vAcc></extensions></trkpt>
      <trkpt lon="-3.339508" lat="54.566464"><ele>248.500244</ele><time>2021-08-12T10:01:46Z</time><extensions><speed>1.387841</speed><course>62.678837</course><hAcc>0.884447</hAcc><vAcc>0.716391</vAcc></extensions></trkpt>
      <trkpt lon="-3.339511" lat="54.566452"><ele>248.552475</ele><time>2021-08-12T10:01:47Z</time><extensions><speed>1.384082</speed><course>67.622025</course><hAcc>0.884426</hAcc><vAcc>0.716286</vAcc></extensions></trkpt>
      <trkpt lon="-3.339514" lat="54.566439"><ele>248.607559</ele><time>2021-08-12T10:01:48Z</time><extensions><speed>1.381525</speed><course>76.998230</course><hAcc>0.884408</hAcc><vAcc>0.716205</vAcc></extensions></trkpt>
      <trkpt lon="-3.339517" lat="54.566427"><ele>248.666092</ele><time>2021-08-12T10:01:49Z</time><extensions><speed>1.380238</speed><course>71.279175</course><hAcc>0.884395</hAcc><vAcc>0.716151</vAcc></extensions></trkpt>
      <trkpt lon="-3.339520" lat="54.566415"><ele>248.728745</ele><time>2021-08-12T10:01:50Z</time><extensions><speed>1.380020</speed><course>66.215858</course><hAcc>0.884389</hAcc><vAcc>0.716131</vAcc></extensions></trkpt>
      <trkpt lon="-3.339523" lat="54.566402"><ele>248.795853</ele><time>2021-08-12T10:01:51Z</time><extensions><speed>1.380448</speed><course>65.869171</course><hAcc>0.884389</hAcc><vAcc>0.716145</vAcc></extensions></trkpt>
      <trkpt lon="-3.339527" lat="54.566390"><ele>248.867386</ele><time>2021-08-12T10:01:52Z</time><extensions><speed>1.381255</speed><course>67.480362</course><hAcc>0.884396</hAcc><vAcc>0.716189</vAcc></extensions></trkpt>
      <trkpt lon="-3.339531" lat="54.566378"><ele>248.943405</ele><time>2021-08-12T10:01:53Z</time><extensions><speed>1.382620</speed><course>62.467888</course><hAcc>0.884408</hAcc><vAcc>0.716259</vAcc></extensions></trkpt>
      <trkpt lon="-3.339535" lat="54.566366"><ele>249.024368</ele><time>2021-08-12T10:01:54Z</time><extensions><speed>1.384725</speed><course>57.403885</course><hAcc>0.884426</hAcc><vAcc>0.716345</vAcc></extensions></trkpt>
      <trkpt lon="-3.339540" lat="54.566354"><ele>249.110886</ele><time>2021-08-12T10:01:55Z</time><extensions><speed>1.387335</speed><course>56.104736</course><hAcc>0.884446</hAcc><vAcc>0.716442</vAcc></extensions></trkpt>
      <trkpt lon="-3.339545" lat="54.566342"><ele>249.203156</ele><time>2021-08-12T10:01:56Z</time><extensions><speed>1.389952</speed><course>57.135769</course><hAcc>0.884469</hAcc><vAcc>0.716545</vAcc></extensions></trkpt>
      <trkpt lon="-3.339550" lat="54.566330"><ele>249.301331</ele><time>2021-08-12T10:01:57Z</time><extensions><speed>1.392431</speed><course>59.466648</course><hAcc>0.884492</hAcc><vAcc>0.716649</vAcc></extensions></trkpt>
      <trkpt lon="-3.339556" lat="54.566317"><ele>249.405945</ele><time>2021-08-12T10:01:58Z</time><extensions><speed>1.394865</speed><course>56.466339</course><hAcc>0.884514</hAcc><vAcc>0.716746</vAcc></extensions></trkpt>
      <trkpt lon="-3.339562" lat="54.566305"><ele>249.517456</ele><time>2021-08-12T10:01:59Z</time><extensions><speed>1.397248</speed><course>61.082169</course><hAcc>0.884534</hAcc><vAcc>0.716832</vAcc></extensions></trkpt>
      <trkpt lon="-3.339568" lat="54.566293"><ele>249.636093</ele><time>2021-08-12T10:02:00Z</time><extensions><speed>1.399552</speed><course>63.000797</course><hAcc>0.884550</hAcc><vAcc>0.716902</vAcc></extensions></trkpt>
      <trkpt lon="-3.339575" lat="54.566281"><ele>249.761749</ele><time>2021-08-12T10:02:01Z</time><extensions><speed>1.401800</speed><course>58.373146</course><hAcc>0.884563</hAcc><vAcc>0.716953</vAcc></extensions></trkpt>
      <trkpt lon="-3.339582" lat="54.566269"><ele>249.894135</ele><time>2021-08-12T10:02:02Z</time><extensions><speed>1.404115</speed><course>59.591164</course><hAcc>0.884572</hAcc><vAcc>0.716985</vAcc></extensions></trkpt>
      <trkpt lon="-3.339589" lat="54.566258"><ele>250.032806</ele><time>2021-08-12T10:02:03Z</time><extensions><speed>1.406253</speed><course>56.078835</course><hAcc>0.884576</hAcc><vAcc>0.716997</vAcc></extensions></trkpt>
      <trkpt lon="-3.339597" lat="54.566246"><ele>250.177216</ele><time>2021-08-12T10:02:04Z</time><extensions><speed>1.407787</speed><course>61.452141</course><hAcc>0.884577</hAcc><vAcc>0.716990</vAcc></extensions></trkpt>
      <trkpt lon="-3.339604" lat="54.566234"><ele>250.326935</ele><time>2021-08-12T10:02:05Z</time><extensions><speed>1.408725</speed><course>62.349373</course><hAcc>0.884575</hAcc><vAcc>0.716965</vAcc></extensions></trkpt>
      <trkpt lon="-3.339613" lat="54.566222"><ele>250.481964</ele><time>2021-08-12T10:02:06Z</time><extensions><speed>1.409200</speed><course>67.502327</course><hAcc>0.884572</hAcc><vAcc>0.716926</vAcc></extensions></trkpt>
      <trkpt lon="-3.339621" lat="54.566210"><ele>250.642090</ele><time>2021-08-12T10:02:07Z</time><extensions><speed>1.409014</speed><course>65.148994</course><hAcc>0.884568</hAcc><vAcc>0.716883</vAcc></extensions></trkpt>
      <trkpt lon="-3.339630" lat="54.566199"><ele>250.806473</ele><time>2021-08-12T10:02:08Z</time><extensions><speed>1.407819</speed><course>61.604351</course><hAcc>0.884565</hAcc><vAcc>0.716847</vAcc></extensions></trkpt>
      <trkpt lon="-3.339638" lat="54.566187"><ele>250.973907</ele><time>2021-08-12T10:02:09Z</time><extensions><speed>1.405301</speed><course>67.356651</course><hAcc>0.884562</hAcc><vAcc>0.716824</vAcc></extensions></trkpt>
      <trkpt lon="-3.339647" lat="54.566176"><ele>251.143692</ele><time>2021-08-12T10:02:10Z</time><extensions><speed>1.401609</speed><course>56.187717</course><hAcc>0.884562</hAcc><vAcc>0.716816</vAcc></extensions></trkpt>
      <trkpt lon="-3.339657" lat="54.566164"><ele>251.316071</ele><time>2021-08-12T10:02:11Z</time><extensions><speed>1.397191</speed><course>56.273357</course><hAcc>0.884565</hAcc><vAcc>0.716824</vAcc></extensions></trkpt>
      <trkpt lon="-3.339666" lat="54.566153"><ele>251.491318</ele><time>2021-08-12T10:02:12Z</time><extensions><speed>1.392223</speed><course>59.042984</course><hAcc>0.884573</hAcc><vAcc>0.716847</vAcc></extensions></trkpt>
      <trkpt lon="-3.339675" lat="54.566142"><ele>251.668869</ele><time>2021-08-12T10:02:13Z</time><extensions><speed>1.386469</speed><course>46.754299</course><hAcc>0.884585</hAcc><vAcc>0.716890</vAcc></extensions></trkpt>
      <trkpt lon="-3.339685" lat="54.566131"><ele>251.847778</ele><time>2021-08-12T10:02:14Z</time><extensions><speed>1.379735</speed><course>46.754295</course><hAcc>0.884601</hAcc><vAcc>0.716955</vAcc></extensions></trkpt>
      <trkpt lon="-3.339694" lat="54.566120"><ele>252.027527</ele><time>2021-08-12T10:02:15Z</time><extensions><speed>1.372356</speed><course>46.754295</course><hAcc>0.884621</hAcc><vAcc>0.717041</vAcc></extensions></trkpt>
      <trkpt lon="-3.339704" lat="54.566109"><ele>252.208191</ele><time>2021-08-12T10:02:16Z</time><extensions><speed>1.364525</speed><course>46.754295</course><hAcc>0.884645</hAcc><vAcc>0.717143</vAcc></extensions></trkpt>
      <trkpt lon="-3.339713" lat="54.566098"><ele>252.389862</ele><time>2021-08-12T10:02:17Z</time><extensions><speed>1.356315</speed><course>46.754295</course><hAcc>0.884673</hAcc><vAcc>0.717255</vAcc></extensions></trkpt>
      <trkpt lon="-3.339722" lat="54.566087"><ele>252.572021</ele><time>2021-08-12T10:02:18Z</time><extensions><speed>1.347398</speed><course>46.754295</course><hAcc>0.884703</hAcc><vAcc>0.717374</vAcc></extensions></trkpt>
      <trkpt lon="-3.339731" lat="54.566076"><ele>252.753662</ele><time>2021-08-12T10:02:19Z</time><extensions><speed>1.336951</speed><course>46.754295</course><hAcc>0.884734</hAcc><vAcc>0.717497</vAcc></extensions></trkpt>
      <trkpt lon="-3.339740" lat="54.566065"><ele>252.933456</ele><time>2021-08-12T10:02:20Z</time><extensions><speed>1.324672</speed><course>46.754292</course><hAcc>0.884766</hAcc><vAcc>0.717622</vAcc></extensions></trkpt>
      <trkpt lon="-3.339748" lat="54.566054"><ele>253.110016</ele><time>2021-08-12T10:02:21Z</time><extensions><speed>1.311053</speed><course>46.754295</course><hAcc>0.884796</hAcc><vAcc>0.717745</vAcc></extensions></trkpt>
      <trkpt lon="-3.339756" lat="54.566043"><ele>253.281982</ele><time>2021-08-12T10:02:22Z</time><extensions><speed>1.297028</speed><course>86.257805</course><hAcc>0.884824</hAcc><vAcc>0.717861</vAcc></extensions></trkpt>
      <trkpt lon="-3.339763" lat="54.566033"><ele>253.448273</ele><time>2021-08-12T10:02:23Z</time><extensions><speed>1.283517</speed><course>92.864906</course><hAcc>0.884849</hAcc><vAcc>0.717966</vAcc></extensions></trkpt>
      <trkpt lon="-3.339770" lat="54.566022"><ele>253.608521</ele><time>2021-08-12T10:02:24Z</time><extensions><speed>1.271254</speed><course>94.458534</course><hAcc>0.884870</hAcc><vAcc>0.718056</vAcc></extensions></trkpt>
      <trkpt lon="-3.339777" lat="54.566011"><ele>253.763138</ele><time>2021-08-12T10:02:25Z</time><extensions><speed>1.260462</speed><course>89.165138</course><hAcc>0.884885</hAcc><vAcc>0.718128</vAcc></extensions></trkpt>
      <trkpt lon="-3.339783" lat="54.566001"><ele>253.912842</ele><time>2021-08-12T10:02:26Z</time><extensions><speed>1.250937</speed><course>98.187202</course><hAcc>0.884893</hAcc><vAcc>0.718177</vAcc></extensions></trkpt>
      <trkpt lon="-3.339790" lat="54.565990"><ele>254.058411</ele><time>2021-08-12T10:02:27Z</time><extensions><speed>1.242679</speed><course>262.094696</course><hAcc>0.884894</hAcc><vAcc>0.718195</vAcc></extensions></trkpt>
      <trkpt lon="-3.339796" lat="54.565979"><ele>254.200394</ele><time>2021-08-12T10:02:28Z</time><extensions><speed>1.235717</speed><course>273.339569</course><hAcc>0.884888</hAcc><vAcc>0.718179</vAcc></extensions></trkpt>
      <trkpt lon="-3.339802" lat="54.565969"><ele>254.338654</ele><time>2021-08-12T10:02:29Z</time><extensions><speed>1.230132</speed><course>270.133057</course><hAcc>0.884874</hAcc><vAcc>0.718127</vAcc></extensions></trkpt>
      <trkpt lon="-3.339808" lat="54.565959"><ele>254.472900</ele><time>2021-08-12T10:02:30Z</time><extensions><speed>1.226466</speed><course>264.401459</course><hAcc>0.884853</hAcc><vAcc>0.718040</vAcc></extensions></trkpt>
      <trkpt lon="-3.339814" lat="54.565948"><ele>254.603241</ele><time>2021-08-12T10:02:31Z</time><extensions><speed>1.225083</speed><course>271.206299</course><hAcc>0.884825</hAcc><vAcc>0.717923</vAcc></extensions></trkpt>
      <trkpt lon="-3.339821" lat="54.565938"><ele>254.730301</ele><time>2021-08-12T10:02:32Z</time><extensions><speed>1.226094</speed><course>270.479279</course><hAcc>0.884791</hAcc><vAcc>0.717780</vAcc></extensions></trkpt>
      <trkpt lon="-3.339828" lat="54.565928"><ele>254.854706</ele><time>2021-08-12T10:02:33Z</time><extensions><speed>1.229475</speed><course>270.479279</course><hAcc>0.884752</hAcc><vAcc>0.717616</vAcc></extensions></trkpt>
      <trkpt lon="-3.339835" lat="54.565917"><ele>254.976166</ele><time>2021-08-12T10:02:34Z</time><extensions><speed>1.234992</speed><course>270.479279</course><hAcc>0.884711</hAcc><vAcc>0.717440</vAcc></extensions></trkpt>
      <trkpt lon="-3.339842" lat="54.565907"><ele>255.093765</ele><time>2021-08-12T10:02:35Z</time><extensions><speed>1.242419</speed><course>92.836548</course><hAcc>0.884668</hAcc><vAcc>0.717260</vAcc></extensions></trkpt>
      <trkpt lon="-3.339850" lat="54.565897"><ele>255.206284</ele><time>2021-08-12T10:02:36Z</time><extensions><speed>1.251482</speed><course>91.847809</course><hAcc>0.884627</hAcc><vAcc>0.717084</vAcc></extensions></trkpt>
      <trkpt lon="-3.339859" lat="54.565887"><ele>255.312698</ele><time>2021-08-12T10:02:37Z</time><extensions><speed>1.262377</speed><course>96.972961</course><hAcc>0.884591</hAcc><vAcc>0.716919</vAcc></extensions></trkpt>
      <trkpt lon="-3.339868" lat="54.565877"><ele>255.412247</ele><time>2021-08-12T10:02:38Z</time><extensions><speed>1.275142</speed><course>101.432434</course><hAcc>0.884561</hAcc><vAcc>0.716771</vAcc></extensions></trkpt>
      <trkpt lon="-3.339878" lat="54.565867"><ele>255.504166</ele><time>2021-08-12T10:02:39Z</time><extensions><speed>1.289153</speed><course>89.921867</course><hAcc>0.884540</hAcc><vAcc>0.716651</vAcc></extensions></trkpt>
      <trkpt lon="-3.339888" lat="54.565857"><ele>255.587219</ele><time>2021-08-12T10:02:40Z</time><extensions><speed>1.303581</speed><course>79.468422</course><hAcc>0.884529</hAcc><vAcc>0.716572</vAcc></extensions></trkpt>
      <trkpt lon="-3.339899" lat="54.565847"><ele>255.660736</ele><time>2021-08-12T10:02:41Z</time><extensions><speed>1.317784</speed><course>79.668663</course><hAcc>0.884530</hAcc><vAcc>0.716547</vAcc></extensions></trkpt>
      <trkpt lon="-3.339910" lat="54.565837"><ele>255.725708</ele><time>2021-08-12T10:02:42Z</time><extensions><speed>1.331182</speed><course>70.198914</course><hAcc>0.884541</hAcc><vAcc>0.716582</vAcc></extensions></trkpt>
      <trkpt lon="-3.339922" lat="54.565827"><ele>255.784470</ele><time>2021-08-12T10:02:43Z</time><extensions><speed>1.343140</speed><course>85.811096</course><hAcc>0.884563</hAcc><vAcc>0.716680</vAcc></extensions></trkpt>
      <trkpt lon="-3.339934" lat="54.565817"><ele>255.839981</ele><time>2021-08-12T10:02:44Z</time><extensions><speed>1.352963</speed><course>87.515213</course><hAcc>0.884595</hAcc><vAcc>0.716836</vAcc></extensions></trkpt>
      <trkpt lon="-3.339946" lat="54.565807"><ele>255.894836</ele><time>2021-08-12T10:02:45Z</time><extensions><speed>1.359985</speed><course>86.802406</course><hAcc>0.884633</hAcc><vAcc>0.717038</vAcc></extensions></trkpt>
      <trkpt lon="-3.339959" lat="54.565797"><ele>255.950577</ele><time>2021-08-12T10:02:46Z</time><extensions><speed>1.364084</speed><course>85.424927</course><hAcc>0.884677</hAcc><vAcc>0.717267</vAcc></extensions></trkpt>
      <trkpt lon="-3.339971" lat="54.565787"><ele>256.008240</ele><time>2021-08-12T10:02:47Z</time><extensions><speed>1.365466</speed><course>88.911957</course><hAcc>0.884723</hAcc><vAcc>0.717504</vAcc></extensions></trkpt>
      <trkpt lon="-3.339984" lat="54.565778"><ele>256.069061</ele><time>2021-08-12T10:02:48Z</time><extensions><speed>1.364584</speed><course>93.027184</course><hAcc>0.884767</hAcc><vAcc>0.717728</vAcc></extensions></trkpt>
      <trkpt lon="-3.339996" lat="54.565768"><ele>256.134369</ele><time>2021-08-12T10:02:49Z</time><extensions><speed>1.361959</speed><course>90.763535</course><hAcc>0.884808</hAcc><vAcc>0.717924</vAcc></extensions></trkpt>
      <trkpt lon="-3.340008" lat="54.565758"><ele>256.204742</ele><time>2021-08-12T10:02:50Z</time><extensions><speed>1.358070</speed><course>83.392509</course><hAcc>0.884840</hAcc><vAcc>0.718078</vAcc></extensions></trkpt>
      <trkpt lon="-3.340020" lat="54.565747"><ele>256.279724</ele><time>2021-08-12T10:02:51Z</time><extensions><speed>1.353300</speed><course>57.334152</course><hAcc>0.884863</hAcc><vAcc>0.718182</vAcc></extensions></trkpt>
      <trkpt lon="-3.340031" lat="54.565737"><ele>256.358337</ele><time>2021-08-12T10:02:52Z</time><extensions><speed>1.348287</speed><course>29.254333</course><hAcc>0.884874</hAcc><vAcc>0.718228</vAcc></extensions></trkpt>
      <trkpt lon="-3.340042" lat="54.565727"><ele>256.439819</ele><time>2021-08-12T10:02:53Z</time><extensions><speed>1.343984</speed><course>29.254333</course><hAcc>0.884872</hAcc><vAcc>0.718214</vAcc></extensions></trkpt>
      <trkpt lon="-3.340053" lat="54.565717"><ele>256.524506</ele><time>2021-08-12T10:02:54Z</time><extensions><speed>1.341221</speed><course>29.254333</course><hAcc>0.884857</hAcc><vAcc>0.718138</vAcc></extensions></trkpt>
      <trkpt lon="-3.340063" lat="54.565706"><ele>256.613495</ele><time>2021-08-12T10:02:55Z</time><extensions><speed>1.340530</speed><course>29.254332</course><hAcc>0.884830</hAcc><vAcc>0.718004</vAcc></extensions></trkpt>
      <trkpt lon="-3.340073" lat="54.565696"><ele>256.707703</ele><time>2021-08-12T10:02:56Z</time><extensions><speed>1.341622</speed><course>29.254333</course><hAcc>0.884791</hAcc><vAcc>0.717820</vAcc></extensions></trkpt>
      <trkpt lon="-3.340082" lat="54.565685"><ele>256.807587</ele><time>2021-08-12T10:02:57Z</time><extensions><speed>1.343731</speed><course>29.254332</course><hAcc>0.884742</hAcc><vAcc>0.717598</vAcc></extensions></trkpt>
      <trkpt lon="-3.340091" lat="54.565674"><ele>256.913177</ele><time>2021-08-12T10:02:58Z</time><extensions><speed>1.346140</speed><course>29.254332</course><hAcc>0.884683</hAcc><vAcc>0.717350</vAcc></extensions></trkpt>
      <trkpt lon="-3.340100" lat="54.565663"><ele>257.024811</ele><time>2021-08-12T10:02:59Z</time><extensions><speed>1.348154</speed><course>29.254333</course><hAcc>0.884615</hAcc><vAcc>0.717090</vAcc></extensions></trkpt>
      <trkpt lon="-3.340109" lat="54.565652"><ele>257.143158</ele><time>2021-08-12T10:03:00Z</time><extensions><speed>1.349332</speed><course>29.254333</course><hAcc>0.884541</hAcc><vAcc>0.716824</vAcc></extensions></trkpt>
      <trkpt lon="-3.340117" lat="54.565641"><ele>257.269379</ele><time>2021-08-12T10:03:01Z</time><extensions><speed>1.349286</speed><course>29.254332</course><hAcc>0.884461</hAcc><vAcc>0.716556</vAcc></extensions></trkpt>
      <trkpt lon="-3.340125" lat="54.565630"><ele>257.404846</ele><time>2021-08-12T10:03:02Z</time><extensions><speed>1.348137</speed><course>29.254333</course><hAcc>0.884377</hAcc><vAcc>0.716276</vAcc></extensions></trkpt>
      <trkpt lon="-3.340132" lat="54.565618"><ele>257.551300</ele><time>2021-08-12T10:03:03Z</time><extensions><speed>1.346849</speed><course>29.254337</course><hAcc>0.884294</hAcc><vAcc>0.715977</vAcc></extensions></trkpt>
      <trkpt lon="-3.340139" lat="54.565607"><ele>257.710266</ele><time>2021-08-12T10:03:04Z</time><extensions><speed>1.346032</speed><course>29.254337</course><hAcc>0.884213</hAcc><vAcc>0.715659</vAcc></extensions></trkpt>
      <trkpt lon="-3.340146" lat="54.565595"><ele>257.881805</ele><time>2021-08-12T10:03:05Z</time><extensions><speed>1.345133</speed><course>29.254339</course><hAcc>0.884136</hAcc><vAcc>0.715331</vAcc></extensions></trkpt>
      <trkpt lon="-3.340152" lat="54.565584"><ele>258.064606</ele><time>2021-08-12T10:03:06Z</time><extensions><speed>1.343489</speed><course>29.254337</course><hAcc>0.884066</hAcc><vAcc>0.715012</vAcc></extensions></trkpt>
      <trkpt lon="-3.340158" lat="54.565572"><ele>258.256927</ele><time>2021-08-12T10:03:07Z</time><extensions><speed>1.340848</speed><course>29.254339</course><hAcc>0.884005</hAcc><vAcc>0.714719</vAcc></extensions></trkpt>
      <trkpt lon="-3.340163" lat="54.565561"><ele>258.456451</ele><time>2021-08-12T10:03:08Z</time><extensions><speed>1.337001</speed><course>353.139893</course><hAcc>0.883956</hAcc><vAcc>0.714473</vAcc></extensions></trkpt>
      <trkpt lon="-3.340169" lat="54.565549"><ele>258.660095</ele><time>2021-08-12T10:03:09Z</time><extensions><speed>1.331885</speed><course>-1.000000</course><hAcc>0.883921</hAcc><vAcc>0.714292</vAcc></extensions></trkpt>
      <trkpt lon="-3.340173" lat="54.565538"><ele>258.864136</ele><time>2021-08-12T10:03:10Z</time><extensions><speed>1.325482</speed><course>-1.000000</course><hAcc>0.883902</hAcc><vAcc>0.714188</vAcc></extensions></trkpt>
      <trkpt lon="-3.340178" lat="54.565526"><ele>259.065125</ele><time>2021-08-12T10:03:11Z</time><extensions><speed>1.317995</speed><course>-1.000000</course><hAcc>0.883901</hAcc><vAcc>0.714171</vAcc></extensions></trkpt>
      <trkpt lon="-3.340182" lat="54.565514"><ele>259.260498</ele><time>2021-08-12T10:03:12Z</time><extensions><speed>1.309786</speed><course>-1.000000</course><hAcc>0.883917</hAcc><vAcc>0.714244</vAcc></extensions></trkpt>
      <trkpt lon="-3.340186" lat="54.565503"><ele>259.447968</ele><time>2021-08-12T10:03:13Z</time><extensions><speed>1.300887</speed><course>-1.000000</course><hAcc>0.883951</hAcc><vAcc>0.714402</vAcc></extensions></trkpt>
      <trkpt lon="-3.340190" lat="54.565492"><ele>259.625092</ele><time>2021-08-12T10:03:14Z</time><extensions><speed>1.291332</speed><course>-1.000000</course><hAcc>0.883999</hAcc><vAcc>0.714635</vAcc></extensions></trkpt>
      <trkpt lon="-3.340195" lat="54.565480"><ele>259.789673</ele><time>2021-08-12T10:03:15Z</time><extensions><speed>1.281908</speed><course>-1.000000</course><hAcc>0.884061</hAcc><vAcc>0.714926</vAcc></extensions></trkpt>
      <trkpt lon="-3.340199" lat="54.565469"><ele>259.940430</ele><time>2021-08-12T10:03:16Z</time><extensions><speed>1.273476</speed><course>-1.000000</course><hAcc>0.884131</hAcc><vAcc>0.715254</vAcc></extensions></trkpt>
      <trkpt lon="-3.340204" lat="54.565458"><ele>260.077362</ele><time>2021-08-12T10:03:17Z</time><extensions><speed>1.266579</speed><course>-1.000000</course><hAcc>0.884207</hAcc><vAcc>0.715599</vAcc></extensions></trkpt>
      <trkpt lon="-3.340210" lat="54.565447"><ele>260.201355</ele><time>2021-08-12T10:03:18Z</time><extensions><speed>1.261887</speed><course>-1.000000</course><hAcc>0.884285</hAcc><vAcc>0.715944</vAcc></extensions></trkpt>
      <trkpt lon="-3.340215" lat="54.565436"><ele>260.314026</ele><time>2021-08-12T10:03:19Z</time><extensions><speed>1.259633</speed><course>-1.000000</course><hAcc>0.884359</hAcc><vAcc>0.716272</vAcc></extensions></trkpt>
      <trkpt lon="-3.340222" lat="54.565426"><ele>260.417389</ele><time>2021-08-12T10:03:20Z</time><extensions><speed>1.259098</speed><course>74.830536</course><hAcc>0.884428</hAcc><vAcc>0.716565</vAcc></extensions></trkpt>
      <trkpt lon="-3.340229" lat="54.565415"><ele>260.513306</ele><time>2021-08-12T10:03:21Z</time><extensions><speed>1.258985</speed><course>62.161198</course><hAcc>0.884488</hAcc><vAcc>0.716811</vAcc></extensions></trkpt>
      <trkpt lon="-3.340236" lat="54.565405"><ele>260.603363</ele><time>2021-08-12T10:03:22Z</time><extensions><speed>1.258603</speed><course>66.043793</course><hAcc>0.884538</hAcc><vAcc>0.716997</vAcc></extensions></trkpt>
      <trkpt lon="-3.340244" lat="54.565394"><ele>260.689209</ele><time>2021-08-12T10:03:23Z</time><extensions><speed>1.257934</speed><course>75.803009</course><hAcc>0.884576</hAcc><vAcc>0.717123</vAcc></extensions></trkpt>
      <trkpt lon="-3.340252" lat="54.565384"><ele>260.772583</ele><time>2021-08-12T10:03:24Z</time><extensions><speed>1.256943</speed><course>76.191063</course><hAcc>0.884604</hAcc><vAcc>0.717191</vAcc></extensions></trkpt>
      <trkpt lon="-3.340261" lat="54.565374"><ele>260.854645</ele><time>2021-08-12T10:03:25Z</time><extensions><speed>1.255581</speed><course>76.349960</course><hAcc>0.884620</hAcc><vAcc>0.717211</vAcc></extensions></trkpt>
      <trkpt lon="-3.340270" lat="54.565364"><ele>260.936066</ele><time>2021-08-12T10:03:26Z</time><extensions><speed>1.253937</speed><course>78.477806</course><hAcc>0.884626</hAcc><vAcc>0.717194</vAcc></extensions></trkpt>
      <trkpt lon="-3.340279" lat="54.565354"><ele>261.017242</ele><time>2021-08-12T10:03:27Z</time><extensions><speed>1.252531</speed><course>75.070290</course><hAcc>0.884624</hAcc><vAcc>0.717149</vAcc></extensions></trkpt>
      <trkpt lon="-3.340288" lat="54.565344"><ele>261.098511</ele><time>2021-08-12T10:03:28Z</time><extensions><speed>1.251777</speed><course>69.086029</course><hAcc>0.884616</hAcc><vAcc>0.717085</vAcc></extensions></trkpt>
      <trkpt lon="-3.340298" lat="54.565334"><ele>261.180176</ele><time>2021-08-12T10:03:29Z</time><extensions><speed>1.251858</speed><course>68.949226</course><hAcc>0.884605</hAcc><vAcc>0.717011</vAcc></extensions></trkpt>
      <trkpt lon="-3.340307" lat="54.565324"><ele>261.262360</ele><time>2021-08-12T10:03:30Z</time><extensions><speed>1.252601</speed><course>71.686111</course><hAcc>0.884594</hAcc><vAcc>0.716938</vAcc></extensions></trkpt>
      <trkpt lon="-3.340316" lat="54.565315"><ele>261.344757</ele><time>2021-08-12T10:03:31Z</time><extensions><speed>1.253301</speed><course>76.597496</course><hAcc>0.884584</hAcc><vAcc>0.716875</vAcc></extensions></trkpt>
      <trkpt lon="-3.340325" lat="54.565305"><ele>261.426697</ele><time>2021-08-12T10:03:32Z</time><extensions><speed>1.253645</speed><course>90.005066</course><hAcc>0.884578</hAcc><vAcc>0.716832</vAcc></extensions></trkpt>
      <trkpt lon="-3.340335" lat="54.565295"><ele>261.508209</ele><time>2021-08-12T10:03:33Z</time><extensions><speed>1.253871</speed><course>83.948074</course><hAcc>0.884576</hAcc><vAcc>0.716812</vAcc></extensions></trkpt>
      <trkpt lon="-3.340344" lat="54.565285"><ele>261.590271</ele><time>2021-08-12T10:03:34Z</time><extensions><speed>1.254277</speed><course>76.996796</course><hAcc>0.884580</hAcc><vAcc>0.716819</vAcc></extensions></trkpt>
      <trkpt lon="-3.340353" lat="54.565275"><ele>261.674347</ele><time>2021-08-12T10:03:35Z</time><extensions><speed>1.254899</speed><course>79.507355</course><hAcc>0.884590</hAcc><vAcc>0.716854</vAcc></extensions></trkpt>
      <trkpt lon="-3.340361" lat="54.565265"><ele>261.761536</ele><time>2021-08-12T10:03:36Z</time><extensions><speed>1.255571</speed><course>72.096832</course><hAcc>0.884605</hAcc><vAcc>0.716917</vAcc></extensions></trkpt>
      <trkpt lon="-3.340370" lat="54.565255"><ele>261.852325</ele><time>2021-08-12T10:03:37Z</time><extensions><speed>1.256195</speed><course>80.368279</course><hAcc>0.884623</hAcc><vAcc>0.717009</vAcc></extensions></trkpt>
      <trkpt lon="-3.340379" lat="54.565244"><ele>261.946930</ele><time>2021-08-12T10:03:38Z</time><extensions><speed>1.256873</speed><course>78.982643</course><hAcc>0.884643</hAcc><vAcc>0.717123</vAcc></extensions></trkpt>
      <trkpt lon="-3.340387" lat="54.565234"><ele>262.045288</ele><time>2021-08-12T10:03:39Z</time><extensions><speed>1.257558</speed><course>81.075706</course><hAcc>0.884663</hAcc><vAcc>0.717251</vAcc></extensions></trkpt>
      <trkpt lon="-3.340396" lat="54.565224"><ele>262.147491</ele><time>2021-08-12T10:03:40Z</time><extensions><speed>1.258378</speed><course>81.007790</course><hAcc>0.884679</hAcc><vAcc>0.717376</vAcc></extensions></trkpt>
      <trkpt lon="-3.340405" lat="54.565214"><ele>262.252960</ele><time>2021-08-12T10:03:41Z</time><extensions><speed>1.259664</speed><course>78.272133</course><hAcc>0.884689</hAcc><vAcc>0.717477</vAcc></extensions></trkpt>
      <trkpt lon="-3.340414" lat="54.565204"><ele>262.360931</ele><time>2021-08-12T10:03:42Z</time><extensions><speed>1.261724</speed><course>73.069588</course><hAcc>0.884691</hAcc><vAcc>0.717539</vAcc></extensions></trkpt>
      <trkpt lon="-3.340423" lat="54.565194"><ele>262.470917</ele><time>2021-08-12T10:03:43Z</time><extensions><speed>1.264475</speed><course>77.189682</course><hAcc>0.884684</hAcc><vAcc>0.717551</vAcc></extensions></trkpt>
      <trkpt lon="-3.340433" lat="54.565184"><ele>262.582977</ele><time>2021-08-12T10:03:44Z</time><extensions><speed>1.267758</speed><course>75.197517</course><hAcc>0.884665</hAcc><vAcc>0.717501</vAcc></extensions></trkpt>
      <trkpt lon="-3.340443" lat="54.565175"><ele>262.697174</ele><time>2021-08-12T10:03:45Z</time><extensions><speed>1.271628</speed><course>67.733307</course><hAcc>0.884635</hAcc><vAcc>0.717382</vAcc></extensions></trkpt>
      <trkpt lon="-3.340454" lat="54.565165"><ele>262.812775</ele><time>2021-08-12T10:03:46Z</time><extensions><speed>1.275664</speed><course>69.123688</course><hAcc>0.884593</hAcc><vAcc>0.717195</vAcc></extensions></trkpt>
      <trkpt lon="-3.340465" lat="54.565155"><ele>262.928650</ele><time>2021-08-12T10:03:47Z</time><extensions><speed>1.279687</speed><course>71.299400</course><hAcc>0.884541</hAcc><vAcc>0.716951</vAcc></extensions></trkpt>
      <trkpt lon="-3.340476" lat="54.565146"><ele>263.043945</ele><time>2021-08-12T10:03:48Z</time><extensions><speed>1.283734</speed><course>77.479210</course><hAcc>0.884480</hAcc><vAcc>0.716666</vAcc></extensions></trkpt>
      <trkpt lon="-3.340488" lat="54.565137"><ele>263.158386</ele><time>2021-08-12T10:03:49Z</time><extensions><speed>1.287576</speed><course>68.623329</course><hAcc>0.884412</hAcc><vAcc>0.716357</vAcc></extensions></trkpt>
      <trkpt lon="-3.340500" lat="54.565127"><ele>263.272491</ele><time>2021-08-12T10:03:50Z</time><extensions><speed>1.291312</speed><course>63.866425</course><hAcc>0.884339</hAcc><vAcc>0.716039</vAcc></extensions></trkpt>
      <trkpt lon="-3.340512" lat="54.565118"><ele>263.387238</ele><time>2021-08-12T10:03:51Z</time><extensions><speed>1.294784</speed><course>76.291603</course><hAcc>0.884265</hAcc><vAcc>0.715723</vAcc></extensions></trkpt>
      <trkpt lon="-3.340524" lat="54.565109"><ele>263.503265</ele><time>2021-08-12T10:03:52Z</time><extensions><speed>1.297637</speed><course>71.777351</course><hAcc>0.884191</hAcc><vAcc>0.715420</vAcc></extensions></trkpt>
      <trkpt lon="-3.340536" lat="54.565100"><ele>263.620605</ele><time>2021-08-12T10:03:53Z</time><extensions><speed>1.299957</speed><course>76.476341</course><hAcc>0.884121</hAcc><vAcc>0.715141</vAcc></extensions></trkpt>
      <trkpt lon="-3.340549" lat="54.565091"><ele>263.738770</ele><time>2021-08-12T10:03:54Z</time><extensions><speed>1.301935</speed><course>63.346680</course><hAcc>0.884056</hAcc><vAcc>0.714893</vAcc></extensions></trkpt>
      <trkpt lon="-3.340561" lat="54.565081"><ele>263.857513</ele><time>2021-08-12T10:03:55Z</time><extensions><speed>1.303751</speed><course>60.883244</course><hAcc>0.883996</hAcc><vAcc>0.714683</vAcc></extensions></trkpt>
      <trkpt lon="-3.340574" lat="54.565072"><ele>263.976929</ele><time>2021-08-12T10:03:56Z</time><extensions><speed>1.305665</speed><course>66.100471</course><hAcc>0.883943</hAcc><vAcc>0.714512</vAcc></extensions></trkpt>
      <trkpt lon="-3.340586" lat="54.565063"><ele>264.097473</ele><time>2021-08-12T10:03:57Z</time><extensions><speed>1.308202</speed><course>66.284729</course><hAcc>0.883897</hAcc><vAcc>0.714374</vAcc></extensions></trkpt>
      <trkpt lon="-3.340598" lat="54.565053"><ele>264.219482</ele><time>2021-08-12T10:03:58Z</time><extensions><speed>1.311553</speed><course>70.183884</course><hAcc>0.883859</hAcc><vAcc>0.714258</vAcc></extensions></trkpt>
      <trkpt lon="-3.340611" lat="54.565044"><ele>264.343292</ele><time>2021-08-12T10:03:59Z</time><extensions><speed>1.315353</speed><course>69.091454</course><hAcc>0.883827</hAcc><vAcc>0.714156</vAcc></extensions></trkpt>
      <trkpt lon="-3.340623" lat="54.565035"><ele>264.469391</ele><time>2021-08-12T10:04:00Z</time><extensions><speed>1.319070</speed><course>67.595528</course><hAcc>0.883803</hAcc><vAcc>0.714066</vAcc></extensions></trkpt>
      <trkpt lon="-3.340635" lat="54.565025"><ele>264.598907</ele><time>2021-08-12T10:04:01Z</time><extensions><speed>1.322464</speed><course>69.079941</course><hAcc>0.883785</hAcc><vAcc>0.713988</vAcc></extensions></trkpt>
      <trkpt lon="-3.340648" lat="54.565016"><ele>264.733093</ele><time>2021-08-12T10:04:02Z</time><extensions><speed>1.325405</speed><course>67.638985</course><hAcc>0.883772</hAcc><vAcc>0.713927</vAcc></extensions></trkpt>
      <trkpt lon="-3.340660" lat="54.565006"><ele>264.872711</ele><time>2021-08-12T10:04:03Z</time><extensions><speed>1.327478</speed><course>67.902077</course><hAcc>0.883765</hAcc><vAcc>0.713890</vAcc></extensions></trkpt>
      <trkpt lon="-3.340673" lat="54.564997"><ele>265.017944</ele><time>2021-08-12T10:04:04Z</time><extensions><speed>1.328264</speed><course>68.213737</course><hAcc>0.883763</hAcc><vAcc>0.713878</vAcc></extensions></trkpt>
      <trkpt lon="-3.340685" lat="54.564987"><ele>265.168701</ele><time>2021-08-12T10:04:05Z</time><extensions><speed>1.327816</speed><course>58.646133</course><hAcc>0.883766</hAcc><vAcc>0.713894</vAcc></extensions></trkpt>
      <trkpt lon="-3.340698" lat="54.564978"><ele>265.324799</ele><time>2021-08-12T10:04:06Z</time><extensions><speed>1.326527</speed><course>60.787758</course><hAcc>0.883775</hAcc><vAcc>0.713935</vAcc></extensions></trkpt>
      <trkpt lon="-3.340710" lat="54.564968"><ele>265.486053</ele><time>2021-08-12T10:04:07Z</time><extensions><speed>1.324907</speed><course>59.107254</course><hAcc>0.883788</hAcc><vAcc>0.713996</vAcc></extensions></trkpt>
      <trkpt lon="-3.340723" lat="54.564959"><ele>265.652222</ele><time>2021-08-12T10:04:08Z</time><extensions><speed>1.323511</speed><course>59.308796</course><hAcc>0.883807</hAcc><vAcc>0.714072</vAcc></extensions></trkpt>
      <trkpt lon="-3.340736" lat="54.564950"><ele>265.822174</ele><time>2021-08-12T10:04:09Z</time><extensions><speed>1.322204</speed><course>63.536522</course><hAcc>0.883832</hAcc><vAcc>0.714158</vAcc></extensions></trkpt>
      <trkpt lon="-3.340748" lat="54.564941"><ele>265.993896</ele><time>2021-08-12T10:04:10Z</time><extensions><speed>1.320620</speed><course>64.110619</course><hAcc>0.883863</hAcc><vAcc>0.714257</vAcc></extensions></trkpt>
      <trkpt lon="-3.340761" lat="54.564931"><ele>266.164856</ele><time>2021-08-12T10:04:11Z</time><extensions><speed>1.318664</speed><course>57.783936</course><hAcc>0.883898</hAcc><vAcc>0.714374</vAcc></extensions></trkpt>
      <trkpt lon="-3.340774" lat="54.564922"><ele>266.332153</ele><time>2021-08-12T10:04:12Z</time><extensions><speed>1.316365</speed><course>62.673740</course><hAcc>0.883938</hAcc><vAcc>0.714513</vAcc></extensions></trkpt>
      <trkpt lon="-3.340787" lat="54.564913"><ele>266.492950</ele><time>2021-08-12T10:04:13Z</time><extensions><speed>1.313882</speed><course>68.268181</course><hAcc>0.883982</hAcc><vAcc>0.714677</vAcc></extensions></trkpt>
      <trkpt lon="-3.340801" lat="54.564904"><ele>266.644867</ele><time>2021-08-12T10:04:14Z</time><extensions><speed>1.311799</speed><course>59.735432</course><hAcc>0.884030</hAcc><vAcc>0.714866</vAcc></extensions></trkpt>
      <trkpt lon="-3.340814" lat="54.564895"><ele>266.786865</ele><time>2021-08-12T10:04:15Z</time><extensions><speed>1.310820</speed><course>59.192490</course><hAcc>0.884081</hAcc><vAcc>0.715073</vAcc></extensions></trkpt>
      <trkpt lon="-3.340828" lat="54.564887"><ele>266.919250</ele><time>2021-08-12T10:04:16Z</time><extensions><speed>1.311075</speed><course>60.825825</course><hAcc>0.884134</hAcc><vAcc>0.715291</vAcc></extensions></trkpt>
      <trkpt lon="-3.340841" lat="54.564878"><ele>267.043396</ele><time>2021-08-12T10:04:17Z</time><extensions><speed>1.312342</speed><course>62.921200</course><hAcc>0.884190</hAcc><vAcc>0.715514</vAcc></extensions></trkpt>
      <trkpt lon="-3.340855" lat="54.564869"><ele>267.160858</ele><time>2021-08-12T10:04:18Z</time><extensions><speed>1.313808</speed><course>59.145714</course><hAcc>0.884247</hAcc><vAcc>0.715736</vAcc></extensions></trkpt>
      <trkpt lon="-3.340869" lat="54.564861"><ele>267.273773</ele><time>2021-08-12T10:04:19Z</time><extensions><speed>1.315120</speed><course>54.852036</course><hAcc>0.884306</hAcc><vAcc>0.715953</vAcc></extensions></trkpt>
      <trkpt lon="-3.340883" lat="54.564852"><ele>267.385193</ele><time>2021-08-12T10:04:20Z</time><extensions><speed>1.316640</speed><course>52.958679</course><hAcc>0.884365</hAcc><vAcc>0.716164</vAcc></extensions></trkpt>
      <trkpt lon="-3.340898" lat="54.564844"><ele>267.498596</ele><time>2021-08-12T10:04:21Z</time><extensions><speed>1.318406</speed><course>51.642593</course><hAcc>0.884425</hAcc><vAcc>0.716371</vAcc></extensions></trkpt>
      <trkpt lon="-3.340912" lat="54.564836"><ele>267.616760</ele><time>2021-08-12T10:04:22Z</time><extensions><speed>1.320474</speed><course>50.915668</course><hAcc>0.884486</hAcc><vAcc>0.716578</vAcc></extensions></trkpt>
      <trkpt lon="-3.340927" lat="54.564828"><ele>267.741852</ele><time>2021-08-12T10:04:23Z</time><extensions><speed>1.323179</speed><course>43.517220</course><hAcc>0.884547</hAcc><vAcc>0.716788</vAcc></extensions></trkpt>
      <trkpt lon="-3.340942" lat="54.564819"><ele>267.875061</ele><time>2021-08-12T10:04:24Z</time><extensions><speed>1.326088</speed><course>53.213661</course><hAcc>0.884608</hAcc><vAcc>0.717003</vAcc></extensions></trkpt>
      <trkpt lon="-3.340957" lat="54.564811"><ele>268.016418</ele><time>2021-08-12T10:04:25Z</time><extensions><speed>1.328184</speed><course>42.672325</course><hAcc>0.884671</hAcc><vAcc>0.717224</vAcc></extensions></trkpt>
      <trkpt lon="-3.340973" lat="54.564803"><ele>268.165161</ele><time>2021-08-12T10:04:26Z</time><extensions><speed>1.328968</speed><course>57.842590</course><hAcc>0.884733</hAcc><vAcc>0.717452</vAcc></extensions></trkpt>
      <trkpt lon="-3.340988" lat="54.564795"><ele>268.320099</ele><time>2021-08-12T10:04:27Z</time><extensions><speed>1.328261</speed><course>54.432369</course><hAcc>0.884796</hAcc><vAcc>0.717686</vAcc></extensions></trkpt>
      <trkpt lon="-3.341004" lat="54.564788"><ele>268.479462</ele><time>2021-08-12T10:04:28Z</time><extensions><speed>1.325956</speed><course>53.099045</course><hAcc>0.884859</hAcc><vAcc>0.717923</vAcc></extensions></trkpt>
      <trkpt lon="-3.341019" lat="54.564780"><ele>268.640747</ele><time>2021-08-12T10:04:29Z</time><extensions><speed>1.322377</speed><course>52.709480</course><hAcc>0.884920</hAcc><vAcc>0.718160</vAcc></extensions></trkpt>
      <trkpt lon="-3.341035" lat="54.564773"><ele>268.801544</ele><time>2021-08-12T10:04:30Z</time><extensions><speed>1.317861</speed><course>55.566643</course><hAcc>0.884978</hAcc><vAcc>0.718394</vAcc></extensions></trkpt>
      <trkpt lon="-3.341051" lat="54.564765"><ele>268.960022</ele><time>2021-08-12T10:04:31Z</time><extensions><speed>1.312353</speed><course>50.999676</course><hAcc>0.885031</hAcc><vAcc>0.718618</vAcc></extensions></trkpt>
      <trkpt lon="-3.341067" lat="54.564758"><ele>269.114716</ele><time>2021-08-12T10:04:32Z</time><extensions><speed>1.305725</speed><course>49.932701</course><hAcc>0.885077</hAcc><vAcc>0.718826</vAcc></extensions></trkpt>
      <trkpt lon="-3.341084" lat="54.564751"><ele>269.264038</ele><time>2021-08-12T10:04:33Z</time><extensions><speed>1.298088</speed><course>44.103298</course><hAcc>0.885114</hAcc><vAcc>0.719007</vAcc></extensions></trkpt>
      <trkpt lon="-3.341100" lat="54.564745"><ele>269.406189</ele><time>2021-08-12T10:04:34Z</time><extensions><speed>1.289662</speed><course>35.959499</course><hAcc>0.885141</hAcc><vAcc>0.719151</vAcc></extensions></trkpt>
      <trkpt lon="-3.341116" lat="54.564738"><ele>269.539246</ele><time>2021-08-12T10:04:35Z</time><extensions><speed>1.280603</speed><course>30.952709</course><hAcc>0.885157</hAcc><vAcc>0.719246</vAcc></extensions></trkpt>
      <trkpt lon="-3.341133" lat="54.564732"><ele>269.661255</ele><time>2021-08-12T10:04:36Z</time><extensions><speed>1.270419</speed><course>43.709347</course><hAcc>0.885161</hAcc><vAcc>0.719281</vAcc></extensions></trkpt>
      <trkpt lon="-3.341149" lat="54.564726"><ele>269.770172</ele><time>2021-08-12T10:04:37Z</time><extensions><speed>1.258721</speed><course>37.574459</course><hAcc>0.885154</hAcc><vAcc>0.719251</vAcc></extensions></trkpt>
      <trkpt lon="-3.341165" lat="54.564719"><ele>269.864197</ele><time>2021-08-12T10:04:38Z</time><extensions><speed>1.245908</speed><course>40.028488</course><hAcc>0.885136</hAcc><vAcc>0.719156</vAcc></extensions></trkpt>
      <trkpt lon="-3.341181" lat="54.564714"><ele>269.941772</ele><time>2021-08-12T10:04:39Z</time><extensions><speed>1.232288</speed><course>39.088745</course><hAcc>0.885108</hAcc><vAcc>0.719006</vAcc></extensions></trkpt>
      <trkpt lon="-3.341198" lat="54.564708"><ele>270.002380</ele><time>2021-08-12T10:04:40Z</time><extensions><speed>1.218028</speed><course>38.227211</course><hAcc>0.885070</hAcc><vAcc>0.718813</vAcc></extensions></trkpt>
      <trkpt lon="-3.341214" lat="54.564702"><ele>270.046570</ele><time>2021-08-12T10:04:41Z</time><extensions><speed>1.203239</speed><course>38.580025</course><hAcc>0.885025</hAcc><vAcc>0.718592</vAcc></extensions></trkpt>
      <trkpt lon="-3.341229" lat="54.564696"><ele>270.076324</ele><time>2021-08-12T10:04:42Z</time><extensions><speed>1.188275</speed><course>36.225418</course><hAcc>0.884974</hAcc><vAcc>0.718358</vAcc></extensions></trkpt>
      <trkpt lon="-3.341245" lat="54.564691"><ele>270.095276</ele><time>2021-08-12T10:04:43Z</time><extensions><speed>1.173342</speed><course>36.482189</course><hAcc>0.884920</hAcc><vAcc>0.718123</vAcc></extensions></trkpt>
      <trkpt lon="-3.341261" lat="54.564686"><ele>270.108002</ele><time>2021-08-12T10:04:44Z</time><extensions><speed>1.158549</speed><course>45.117634</course><hAcc>0.884864</hAcc><vAcc>0.717896</vAcc></extensions></trkpt>
      <trkpt lon="-3.341276" lat="54.564681"><ele>270.119080</ele><time>2021-08-12T10:04:45Z</time><extensions><speed>1.144451</speed><course>40.176819</course><hAcc>0.884809</hAcc><vAcc>0.717685</vAcc></extensions></trkpt>
      <trkpt lon="-3.341291" lat="54.564676"><ele>270.131958</ele><time>2021-08-12T10:04:46Z</time><extensions><speed>1.131933</speed><course>42.588684</course><hAcc>0.884758</hAcc><vAcc>0.717493</vAcc></extensions></trkpt>
      <trkpt lon="-3.341307" lat="54.564671"><ele>270.149048</ele><time>2021-08-12T10:04:47Z</time><extensions><speed>1.121838</speed><course>41.771687</course><hAcc>0.884710</hAcc><vAcc>0.717322</vAcc></extensions></trkpt>
      <trkpt lon="-3.341322" lat="54.564666"><ele>270.171844</ele><time>2021-08-12T10:04:48Z</time><extensions><speed>1.114362</speed><course>41.372017</course><hAcc>0.884667</hAcc><vAcc>0.717173</vAcc></extensions></trkpt>
      <trkpt lon="-3.341337" lat="54.564661"><ele>270.201019</ele><time>2021-08-12T10:04:49Z</time><extensions><speed>1.109278</speed><course>37.017429</course><hAcc>0.884630</hAcc><vAcc>0.717044</vAcc></extensions></trkpt>
      <trkpt lon="-3.341352" lat="54.564657"><ele>270.237274</ele><time>2021-08-12T10:04:50Z</time><extensions><speed>1.106661</speed><course>28.588495</course><hAcc>0.884600</hAcc><vAcc>0.716934</vAcc></extensions></trkpt>
      <trkpt lon="-3.341368" lat="54.564652"><ele>270.281555</ele><time>2021-08-12T10:04:51Z</time><extensions><speed>1.106490</speed><course>39.512306</course><hAcc>0.884576</hAcc><vAcc>0.716843</vAcc></extensions></trkpt>
      <trkpt lon="-3.341383" lat="54.564648"><ele>270.334686</ele><time>2021-08-12T10:04:52Z</time><extensions><speed>1.108565</speed><course>38.955353</course><hAcc>0.884559</hAcc><vAcc>0.716774</vAcc></extensions></trkpt>
      <trkpt lon="-3.341398" lat="54.564644"><ele>270.397827</ele><time>2021-08-12T10:04:53Z</time><extensions><speed>1.112885</speed><course>35.270641</course><hAcc>0.884547</hAcc><vAcc>0.716730</vAcc></extensions></trkpt>
      <trkpt lon="-3.341414" lat="54.564639"><ele>270.472290</ele><time>2021-08-12T10:04:54Z</time><extensions><speed>1.119636</speed><course>38.302330</course><hAcc>0.884540</hAcc><vAcc>0.716709</vAcc></extensions></trkpt>
      <trkpt lon="-3.341430" lat="54.564635"><ele>270.559296</ele><time>2021-08-12T10:04:55Z</time><extensions><speed>1.128423</speed><course>40.976086</course><hAcc>0.884539</hAcc><vAcc>0.716710</vAcc></extensions></trkpt>
      <trkpt lon="-3.341445" lat="54.564630"><ele>270.659698</ele><time>2021-08-12T10:04:56Z</time><extensions><speed>1.138345</speed><course>40.718147</course><hAcc>0.884541</hAcc><vAcc>0.716727</vAcc></extensions></trkpt>
      <trkpt lon="-3.341461" lat="54.564626"><ele>270.774048</ele><time>2021-08-12T10:04:57Z</time><extensions><speed>1.148476</speed><course>40.437557</course><hAcc>0.884546</hAcc><vAcc>0.716758</vAcc></extensions></trkpt>
      <trkpt lon="-3.341477" lat="54.564621"><ele>270.902649</ele><time>2021-08-12T10:04:58Z</time><extensions><speed>1.157798</speed><course>38.315979</course><hAcc>0.884553</hAcc><vAcc>0.716798</vAcc></extensions></trkpt>
      <trkpt lon="-3.341493" lat="54.564617"><ele>271.045532</ele><time>2021-08-12T10:04:59Z</time><extensions><speed>1.165474</speed><course>28.668550</course><hAcc>0.884559</hAcc><vAcc>0.716844</vAcc></extensions></trkpt>
      <trkpt lon="-3.341509" lat="54.564612"><ele>271.202484</ele><time>2021-08-12T10:05:00Z</time><extensions><speed>1.170835</speed><course>31.392698</course><hAcc>0.884563</hAcc><vAcc>0.716889</vAcc></extensions></trkpt>
      <trkpt lon="-3.341525" lat="54.564607"><ele>271.372986</ele><time>2021-08-12T10:05:01Z</time><extensions><speed>1.173119</speed><course>32.848076</course><hAcc>0.884564</hAcc><vAcc>0.716924</vAcc></extensions></trkpt>
      <trkpt lon="-3.341541" lat="54.564602"><ele>271.555756</ele><time>2021-08-12T10:05:02Z</time><extensions><speed>1.171595</speed><course>38.096359</course><hAcc>0.884560</hAcc><vAcc>0.716939</vAcc></extensions></trkpt>
      <trkpt lon="-3.341557" lat="54.564597"><ele>271.748718</ele><time>2021-08-12T10:05:03Z</time><extensions><speed>1.165268</speed><course>27.737675</course><hAcc>0.884549</hAcc><vAcc>0.716925</vAcc></extensions></trkpt>
      <trkpt lon="-3.341572" lat="54.564591"><ele>271.949463</ele><time>2021-08-12T10:05:04Z</time><extensions><speed>1.153309</speed><course>38.820049</course><hAcc>0.884529</hAcc><vAcc>0.716873</vAcc></extensions></trkpt>
      <trkpt lon="-3.341588" lat="54.564586"><ele>272.155640</ele><time>2021-08-12T10:05:05Z</time><extensions><speed>1.135288</speed><course>40.137299</course><hAcc>0.884501</hAcc><vAcc>0.716779</vAcc></extensions></trkpt>
      <trkpt lon="-3.341603" lat="54.564581"><ele>272.365051</ele><time>2021-08-12T10:05:06Z</time><extensions><speed>1.110877</speed><course>44.560421</course><hAcc>0.884462</hAcc><vAcc>0.716638</vAcc></extensions></trkpt>
      <trkpt lon="-3.341617" lat="54.564576"><ele>272.575684</ele><time>2021-08-12T10:05:07Z</time><extensions><speed>1.080446</speed><course>41.574787</course><hAcc>0.884413</hAcc><vAcc>0.716452</vAcc></extensions></trkpt>
      <trkpt lon="-3.341631" lat="54.564571"><ele>272.785400</ele><time>2021-08-12T10:05:08Z</time><extensions><speed>1.044632</speed><course>37.402897</course><hAcc>0.884353</hAcc><vAcc>0.716225</vAcc></extensions></trkpt>
      <trkpt lon="-3.341645" lat="54.564566"><ele>272.992157</ele><time>2021-08-12T10:05:09Z</time><extensions><speed>1.004053</speed><course>38.445354</course><hAcc>0.884283</hAcc><vAcc>0.715962</vAcc></extensions></trkpt>
      <trkpt lon="-3.341658" lat="54.564562"><ele>273.193573</ele><time>2021-08-12T10:05:10Z</time><extensions><speed>0.959184</speed><course>32.932274</course><hAcc>0.884204</hAcc><vAcc>0.715666</vAcc></extensions></trkpt>
      <trkpt lon="-3.341670" lat="54.564557"><ele>273.387329</ele><time>2021-08-12T10:05:11Z</time><extensions><speed>0.910542</speed><course>27.701353</course><hAcc>0.884118</hAcc><vAcc>0.715340</vAcc></extensions></trkpt>
      <trkpt lon="-3.341682" lat="54.564553"><ele>273.571594</ele><time>2021-08-12T10:05:12Z</time><extensions><speed>0.858533</speed><course>28.233585</course><hAcc>0.884026</hAcc><vAcc>0.714989</vAcc></extensions></trkpt>
      <trkpt lon="-3.341693" lat="54.564550"><ele>273.744904</ele><time>2021-08-12T10:05:13Z</time><extensions><speed>0.803636</speed><course>30.003765</course><hAcc>0.883934</hAcc><vAcc>0.714620</vAcc></extensions></trkpt>
      <trkpt lon="-3.341704" lat="54.564546"><ele>273.905701</ele><time>2021-08-12T10:05:14Z</time><extensions><speed>0.747098</speed><course>35.586266</course><hAcc>0.883844</hAcc><vAcc>0.714244</vAcc></extensions></trkpt>
      <trkpt lon="-3.341713" lat="54.564543"><ele>274.053040</ele><time>2021-08-12T10:05:15Z</time><extensions><speed>0.690643</speed><course>41.034397</course><hAcc>0.883759</hAcc><vAcc>0.713877</vAcc></extensions></trkpt>
      <trkpt lon="-3.341722" lat="54.564540"><ele>274.186646</ele><time>2021-08-12T10:05:16Z</time><extensions><speed>0.635507</speed><course>43.040592</course><hAcc>0.883686</hAcc><vAcc>0.713537</vAcc></extensions></trkpt>
      <trkpt lon="-3.341730" lat="54.564538"><ele>274.306335</ele><time>2021-08-12T10:05:17Z</time><extensions><speed>0.582331</speed><course>49.550934</course><hAcc>0.883626</hAcc><vAcc>0.713244</vAcc></extensions></trkpt>
      <trkpt lon="-3.341738" lat="54.564535"><ele>274.411926</ele><time>2021-08-12T10:05:18Z</time><extensions><speed>0.532591</speed><course>62.069283</course><hAcc>0.883584</hAcc><vAcc>0.713018</vAcc></extensions></trkpt>
      <trkpt lon="-3.341745" lat="54.564533"><ele>274.503662</ele><time>2021-08-12T10:05:19Z</time><extensions><speed>0.489102</speed><course>68.512573</course><hAcc>0.883562</hAcc><vAcc>0.712880</vAcc></extensions></trkpt>
      <trkpt lon="-3.341751" lat="54.564530"><ele>274.582153</ele><time>2021-08-12T10:05:20Z</time><extensions><speed>0.455113</speed><course>76.544746</course><hAcc>0.883562</hAcc><vAcc>0.712848</vAcc></extensions></trkpt>
      <trkpt lon="-3.341756" lat="54.564528"><ele>274.648285</ele><time>2021-08-12T10:05:21Z</time><extensions><speed>0.433751</speed><course>91.471558</course><hAcc>0.883582</hAcc><vAcc>0.712933</vAcc></extensions></trkpt>
      <trkpt lon="-3.341761" lat="54.564525"><ele>274.703918</ele><time>2021-08-12T10:05:22Z</time><extensions><speed>0.428140</speed><course>103.707001</course><hAcc>0.883621</hAcc><vAcc>0.713135</vAcc></extensions></trkpt>
      <trkpt lon="-3.341766" lat="54.564523"><ele>274.752289</ele><time>2021-08-12T10:05:23Z</time><extensions><speed>0.440025</speed><course>102.240677</course><hAcc>0.883675</hAcc><vAcc>0.713437</vAcc></extensions></trkpt>
      <trkpt lon="-3.341770" lat="54.564519"><ele>274.797211</ele><time>2021-08-12T10:05:24Z</time><extensions><speed>0.468809</speed><course>109.008522</course><hAcc>0.883740</hAcc><vAcc>0.713807</vAcc></extensions></trkpt>
      <trkpt lon="-3.341774" lat="54.564516"><ele>274.842957</ele><time>2021-08-12T10:05:25Z</time><extensions><speed>0.512281</speed><course>120.687057</course><hAcc>0.883810</hAcc><vAcc>0.714205</vAcc></extensions></trkpt>
      <trkpt lon="-3.341778" lat="54.564511"><ele>274.893890</ele><time>2021-08-12T10:05:26Z</time><extensions><speed>0.566903</speed><course>122.518364</course><hAcc>0.883880</hAcc><vAcc>0.714589</vAcc></extensions></trkpt>
      <trkpt lon="-3.341782" lat="54.564507"><ele>274.954071</ele><time>2021-08-12T10:05:27Z</time><extensions><speed>0.628034</speed><course>116.435341</course><hAcc>0.883944</hAcc><vAcc>0.714922</vAcc></extensions></trkpt>
      <trkpt lon="-3.341787" lat="54.564501"><ele>275.026703</ele><time>2021-08-12T10:05:28Z</time><extensions><speed>0.691374</speed><course>123.806564</course><hAcc>0.883997</hAcc><vAcc>0.715176</vAcc></extensions></trkpt>
      <trkpt lon="-3.341791" lat="54.564495"><ele>275.113800</ele><time>2021-08-12T10:05:29Z</time><extensions><speed>0.753418</speed><course>121.279266</course><hAcc>0.884036</hAcc><vAcc>0.715332</vAcc></extensions></trkpt>
      <trkpt lon="-3.341796" lat="54.564489"><ele>275.215637</ele><time>2021-08-12T10:05:30Z</time><extensions><speed>0.811027</speed><course>122.295830</course><hAcc>0.884057</hAcc><vAcc>0.715383</vAcc></extensions></trkpt>
      <trkpt lon="-3.341800" lat="54.564482"><ele>275.331329</ele><time>2021-08-12T10:05:31Z</time><extensions><speed>0.862325</speed><course>116.485687</course><hAcc>0.884061</hAcc><vAcc>0.715335</vAcc></extensions></trkpt>
      <trkpt lon="-3.341805" lat="54.564474"><ele>275.459625</ele><time>2021-08-12T10:05:32Z</time><extensions><speed>0.906473</speed><course>120.837761</course><hAcc>0.884046</hAcc><vAcc>0.715203</vAcc></extensions></trkpt>
      <trkpt lon="-3.341811" lat="54.564467"><ele>275.599304</ele><time>2021-08-12T10:05:33Z</time><extensions><speed>0.943210</speed><course>121.691162</course><hAcc>0.884013</hAcc><vAcc>0.715006</vAcc></extensions></trkpt>
      <trkpt lon="-3.341816" lat="54.564459"><ele>275.749359</ele><time>2021-08-12T10:05:34Z</time><extensions><speed>0.972924</speed><course>120.429344</course><hAcc>0.883966</hAcc><vAcc>0.714766</vAcc></extensions></trkpt>
      <trkpt lon="-3.341822" lat="54.564450"><ele>275.909180</ele><time>2021-08-12T10:05:35Z</time><extensions><speed>0.996254</speed><course>127.922836</course><hAcc>0.883907</hAcc><vAcc>0.714500</vAcc></extensions></trkpt>
      <trkpt lon="-3.341828" lat="54.564442"><ele>276.078247</ele><time>2021-08-12T10:05:36Z</time><extensions><speed>1.013905</speed><course>122.773224</course><hAcc>0.883839</hAcc><vAcc>0.714222</vAcc></extensions></trkpt>
      <trkpt lon="-3.341833" lat="54.564434"><ele>276.255798</ele><time>2021-08-12T10:05:37Z</time><extensions><speed>1.026415</speed><course>127.410233</course><hAcc>0.883765</hAcc><vAcc>0.713936</vAcc></extensions></trkpt>
      <trkpt lon="-3.341839" lat="54.564425"><ele>276.440735</ele><time>2021-08-12T10:05:38Z</time><extensions><speed>1.034233</speed><course>126.293243</course><hAcc>0.883688</hAcc><vAcc>0.713648</vAcc></extensions></trkpt>
      <trkpt lon="-3.341845" lat="54.564416"><ele>276.631622</ele><time>2021-08-12T10:05:39Z</time><extensions><speed>1.037963</speed><course>113.773628</course><hAcc>0.883610</hAcc><vAcc>0.713361</vAcc></extensions></trkpt>
      <trkpt lon="-3.341851" lat="54.564408"><ele>276.826752</ele><time>2021-08-12T10:05:40Z</time><extensions><speed>1.038125</speed><course>111.597641</course><hAcc>0.883534</hAcc><vAcc>0.713080</vAcc></extensions></trkpt>
      <trkpt lon="-3.341857" lat="54.564399"><ele>277.025024</ele><time>2021-08-12T10:05:41Z</time><extensions><speed>1.035675</speed><course>118.242065</course><hAcc>0.883460</hAcc><vAcc>0.712808</vAcc></extensions></trkpt>
      <trkpt lon="-3.341863" lat="54.564390"><ele>277.225922</ele><time>2021-08-12T10:05:42Z</time><extensions><speed>1.031998</speed><course>121.318916</course><hAcc>0.883390</hAcc><vAcc>0.712551</vAcc></extensions></trkpt>
      <trkpt lon="-3.341870" lat="54.564382"><ele>277.429321</ele><time>2021-08-12T10:05:43Z</time><extensions><speed>1.028205</speed><course>126.571838</course><hAcc>0.883325</hAcc><vAcc>0.712310</vAcc></extensions></trkpt>
      <trkpt lon="-3.341876" lat="54.564373"><ele>277.634735</ele><time>2021-08-12T10:05:44Z</time><extensions><speed>1.024689</speed><course>116.053932</course><hAcc>0.883266</hAcc><vAcc>0.712087</vAcc></extensions></trkpt>
      <trkpt lon="-3.341882" lat="54.564365"><ele>277.841370</ele><time>2021-08-12T10:05:45Z</time><extensions><speed>1.021530</speed><course>122.553452</course><hAcc>0.883213</hAcc><vAcc>0.711883</vAcc></extensions></trkpt>
      <trkpt lon="-3.341888" lat="54.564356"><ele>278.048523</ele><time>2021-08-12T10:05:46Z</time><extensions><speed>1.019060</speed><course>115.362396</course><hAcc>0.883169</hAcc><vAcc>0.711703</vAcc></extensions></trkpt>
      <trkpt lon="-3.341894" lat="54.564348"><ele>278.255859</ele><time>2021-08-12T10:05:47Z</time><extensions><speed>1.017543</speed><course>120.016403</course><hAcc>0.883133</hAcc><vAcc>0.711555</vAcc></extensions></trkpt>
      <trkpt lon="-3.341901" lat="54.564340"><ele>278.463257</ele><time>2021-08-12T10:05:48Z</time><extensions><speed>1.016951</speed><course>131.521149</course><hAcc>0.883105</hAcc><vAcc>0.711446</vAcc></extensions></trkpt>
      <trkpt lon="-3.341908" lat="54.564332"><ele>278.670837</ele><time>2021-08-12T10:05:49Z</time><extensions><speed>1.016979</speed><course>124.976143</course><hAcc>0.883087</hAcc><vAcc>0.711380</vAcc></extensions></trkpt>
      <trkpt lon="-3.341915" lat="54.564323"><ele>278.878693</ele><time>2021-08-12T10:05:50Z</time><extensions><speed>1.017331</speed><course>123.546791</course><hAcc>0.883078</hAcc><vAcc>0.711354</vAcc></extensions></trkpt>
      <trkpt lon="-3.341922" lat="54.564315"><ele>279.086700</ele><time>2021-08-12T10:05:51Z</time><extensions><speed>1.017349</speed><course>116.699699</course><hAcc>0.883079</hAcc><vAcc>0.711365</vAcc></extensions></trkpt>
      <trkpt lon="-3.341930" lat="54.564307"><ele>279.294647</ele><time>2021-08-12T10:05:52Z</time><extensions><speed>1.015856</speed><course>112.924561</course><hAcc>0.883091</hAcc><vAcc>0.711408</vAcc></extensions></trkpt>
      <trkpt lon="-3.341937" lat="54.564299"><ele>279.502197</ele><time>2021-08-12T10:05:53Z</time><extensions><speed>1.011820</speed><course>117.858780</course><hAcc>0.883111</hAcc><vAcc>0.711486</vAcc></extensions></trkpt>
      <trkpt lon="-3.341944" lat="54.564291"><ele>279.709412</ele><time>2021-08-12T10:05:54Z</time><extensions><speed>1.004375</speed><course>111.630035</course><hAcc>0.883140</hAcc><vAcc>0.711599</vAcc></extensions></trkpt>
      <trkpt lon="-3.341951" lat="54.564283"><ele>279.916077</ele><time>2021-08-12T10:05:55Z</time><extensions><speed>0.992714</speed><course>115.453979</course><hAcc>0.883178</hAcc><vAcc>0.711744</vAcc></extensions></trkpt>
      <trkpt lon="-3.341958" lat="54.564275"><ele>280.121399</ele><time>2021-08-12T10:05:56Z</time><extensions><speed>0.976300</speed><course>108.625862</course><hAcc>0.883222</hAcc><vAcc>0.711919</vAcc></extensions></trkpt>
      <trkpt lon="-3.341964" lat="54.564267"><ele>280.324066</ele><time>2021-08-12T10:05:57Z</time><extensions><speed>0.954818</speed><course>116.435417</course><hAcc>0.883272</hAcc><vAcc>0.712115</vAcc></extensions></trkpt>
      <trkpt lon="-3.341969" lat="54.564259"><ele>280.522522</ele><time>2021-08-12T10:05:58Z</time><extensions><speed>0.927826</speed><course>112.323517</course><hAcc>0.883327</hAcc><vAcc>0.712329</vAcc></extensions></trkpt>
      <trkpt lon="-3.341974" lat="54.564252"><ele>280.715088</ele><time>2021-08-12T10:05:59Z</time><extensions><speed>0.895101</speed><course>117.491661</course><hAcc>0.883384</hAcc><vAcc>0.712554</vAcc></extensions></trkpt>
      <trkpt lon="-3.341979" lat="54.564244"><ele>280.899963</ele><time>2021-08-12T10:06:00Z</time><extensions><speed>0.856515</speed><course>120.293846</course><hAcc>0.883441</hAcc><vAcc>0.712783</vAcc></extensions></trkpt>
      <trkpt lon="-3.341982" lat="54.564237"><ele>281.075653</ele><time>2021-08-12T10:06:01Z</time><extensions><speed>0.811709</speed><course>115.591873</course><hAcc>0.883495</hAcc><vAcc>0.713008</vAcc></extensions></trkpt>
      <trkpt lon="-3.341985" lat="54.564230"><ele>281.241364</ele><time>2021-08-12T10:06:02Z</time><extensions><speed>0.760536</speed><course>116.468712</course><hAcc>0.883543</hAcc><vAcc>0.713220</vAcc></extensions></trkpt>
      <trkpt lon="-3.341988" lat="54.564224"><ele>281.396637</ele><time>2021-08-12T10:06:03Z</time><extensions><speed>0.703266</speed><course>116.627220</course><hAcc>0.883581</hAcc><vAcc>0.713406</vAcc></extensions></trkpt>
      <trkpt lon="-3.341990" lat="54.564218"><ele>281.541290</ele><time>2021-08-12T10:06:04Z</time><extensions><speed>0.640841</speed><course>115.487846</course><hAcc>0.883605</hAcc><vAcc>0.713552</vAcc></extensions></trkpt>
      <trkpt lon="-3.341992" lat="54.564213"><ele>281.675232</ele><time>2021-08-12T10:06:05Z</time><extensions><speed>0.574438</speed><course>110.303284</course><hAcc>0.883612</hAcc><vAcc>0.713639</vAcc></extensions></trkpt>
      <trkpt lon="-3.341993" lat="54.564208"><ele>281.798218</ele><time>2021-08-12T10:06:06Z</time><extensions><speed>0.505540</speed><course>107.900200</course><hAcc>0.883595</hAcc><vAcc>0.713648</vAcc></extensions></trkpt>
      <trkpt lon="-3.341994" lat="54.564204"><ele>281.909943</ele><time>2021-08-12T10:06:07Z</time><extensions><speed>0.436064</speed><course>104.901772</course><hAcc>0.883552</hAcc><vAcc>0.713558</vAcc></extensions></trkpt>
      <trkpt lon="-3.341995" lat="54.564200"><ele>282.010376</ele><time>2021-08-12T10:06:08Z</time><extensions><speed>0.367887</speed><course>102.625549</course><hAcc>0.883479</hAcc><vAcc>0.713349</vAcc></extensions></trkpt>
      <trkpt lon="-3.341996" lat="54.564197"><ele>282.099976</ele><time>2021-08-12T10:06:09Z</time><extensions><speed>0.302508</speed><course>101.615082</course><hAcc>0.883371</hAcc><vAcc>0.713004</vAcc></extensions></trkpt>
      <trkpt lon="-3.341996" lat="54.564195"><ele>282.179413</ele><time>2021-08-12T10:06:10Z</time><extensions><speed>0.241437</speed><course>104.820312</course><hAcc>0.883226</hAcc><vAcc>0.712508</vAcc></extensions></trkpt>
      <trkpt lon="-3.341997" lat="54.564193"><ele>282.249573</ele><time>2021-08-12T10:06:11Z</time><extensions><speed>0.186216</speed><course>97.837166</course><hAcc>0.883042</hAcc><vAcc>0.711851</vAcc></extensions></trkpt>
      <trkpt lon="-3.341998" lat="54.564191"><ele>282.311005</ele><time>2021-08-12T10:06:12Z</time><extensions><speed>0.137976</speed><course>99.518051</course><hAcc>0.882816</hAcc><vAcc>0.711035</vAcc></extensions></trkpt>
      <trkpt lon="-3.341998" lat="54.564190"><ele>282.364349</ele><time>2021-08-12T10:06:13Z</time><extensions><speed>0.097672</speed><course>105.468117</course><hAcc>0.882548</hAcc><vAcc>0.710069</vAcc></extensions></trkpt>
      <trkpt lon="-3.341999" lat="54.564190"><ele>282.409851</ele><time>2021-08-12T10:06:14Z</time><extensions><speed>0.066353</speed><course>105.021729</course><hAcc>0.882238</hAcc><vAcc>0.708960</vAcc></extensions></trkpt>
      <trkpt lon="-3.342000" lat="54.564189"><ele>282.447388</ele><time>2021-08-12T10:06:15Z</time><extensions><speed>0.044964</speed><course>105.854553</course><hAcc>0.881888</hAcc><vAcc>0.707713</vAcc></extensions></trkpt>
      <trkpt lon="-3.342000" lat="54.564189"><ele>282.476654</ele><time>2021-08-12T10:06:16Z</time><extensions><speed>0.033361</speed><course>116.038353</course><hAcc>0.881503</hAcc><vAcc>0.706331</vAcc></extensions></trkpt>
      <trkpt lon="-3.342001" lat="54.564189"><ele>282.497650</ele><time>2021-08-12T10:06:17Z</time><extensions><speed>0.028108</speed><course>116.622620</course><hAcc>0.881090</hAcc><vAcc>0.704818</vAcc></extensions></trkpt>
      <trkpt lon="-3.342001" lat="54.564189"><ele>282.510773</ele><time>2021-08-12T10:06:18Z</time><extensions><speed>0.023745</speed><course>116.023415</course><hAcc>0.880657</hAcc><vAcc>0.703185</vAcc></extensions></trkpt>
      <trkpt lon="-3.342001" lat="54.564190"><ele>282.516510</ele><time>2021-08-12T10:06:19Z</time><extensions><speed>0.016874</speed><course>111.053482</course><hAcc>0.880218</hAcc><vAcc>0.701468</vAcc></extensions></trkpt>
      <trkpt lon="-3.342001" lat="54.564190"><ele>282.515503</ele><time>2021-08-12T10:06:20Z</time><extensions><speed>0.006482</speed><course>109.683617</course><hAcc>0.879784</hAcc><vAcc>0.699726</vAcc></extensions></trkpt>
      <trkpt lon="-3.342001" lat="54.564190"><ele>282.508331</ele><time>2021-08-12T10:06:21Z</time><extensions><speed>0.007607</speed><course>107.838440</course><hAcc>0.879369</hAcc><vAcc>0.698040</vAcc></extensions></trkpt>
      <trkpt lon="-3.342001" lat="54.564189"><ele>282.495880</ele><time>2021-08-12T10:06:22Z</time><extensions><speed>0.025494</speed><course>110.196930</course><hAcc>0.878988</hAcc><vAcc>0.696501</vAcc></extensions></trkpt>
      <trkpt lon="-3.342001" lat="54.564189"><ele>282.479309</ele><time>2021-08-12T10:06:23Z</time><extensions><speed>0.047307</speed><course>111.548782</course><hAcc>0.878653</hAcc><vAcc>0.695191</vAcc></extensions></trkpt>
      <trkpt lon="-3.342000" lat="54.564189"><ele>282.459869</ele><time>2021-08-12T10:06:24Z</time><extensions><speed>0.073032</speed><course>110.420074</course><hAcc>0.878372</hAcc><vAcc>0.694169</vAcc></extensions></trkpt>
      <trkpt lon="-3.342000" lat="54.564188"><ele>282.438934</ele><time>2021-08-12T10:06:25Z</time><extensions><speed>0.102475</speed><course>99.619576</course><hAcc>0.878152</hAcc><vAcc>0.693446</vAcc></extensions></trkpt>
      <trkpt lon="-3.341999" lat="54.564187"><ele>282.417877</ele><time>2021-08-12T10:06:26Z</time><extensions><speed>0.135326</speed><course>107.102882</course><hAcc>0.877992</hAcc><vAcc>0.692981</vAcc></extensions></trkpt>
      <trkpt lon="-3.341998" lat="54.564186"><ele>282.398224</ele><time>2021-08-12T10:06:27Z</time><extensions><speed>0.171160</speed><course>98.831825</course><hAcc>0.877888</hAcc><vAcc>0.692694</vAcc></extensions></trkpt>
      <trkpt lon="-3.341996" lat="54.564184"><ele>282.381561</ele><time>2021-08-12T10:06:28Z</time><extensions><speed>0.209476</speed><course>99.864403</course><hAcc>0.877836</hAcc><vAcc>0.692524</vAcc></extensions></trkpt>
      <trkpt lon="-3.341995" lat="54.564183"><ele>282.369781</ele><time>2021-08-12T10:06:29Z</time><extensions><speed>0.249857</speed><course>99.165215</course><hAcc>0.877834</hAcc><vAcc>0.692460</vAcc></extensions></trkpt>
      <trkpt lon="-3.341993" lat="54.564180"><ele>282.364899</ele><time>2021-08-12T10:06:30Z</time><extensions><speed>0.291785</speed><course>106.876038</course><hAcc>0.877882</hAcc><vAcc>0.692532</vAcc></extensions></trkpt>
      <trkpt lon="-3.341990" lat="54.564178"><ele>282.368866</ele><time>2021-08-12T10:06:31Z</time><extensions><speed>0.334276</speed><course>100.224144</course><hAcc>0.877980</hAcc><vAcc>0.692790</vAcc></extensions></trkpt>
      <trkpt lon="-3.341988" lat="54.564175"><ele>282.383301</ele><time>2021-08-12T10:06:32Z</time><extensions><speed>0.375603</speed><course>97.870438</course><hAcc>0.878131</hAcc><vAcc>0.693276</vAcc></extensions></trkpt>
      <trkpt lon="-3.341985" lat="54.564172"><ele>282.409180</ele><time>2021-08-12T10:06:33Z</time><extensions><speed>0.413292</speed><course>109.047302</course><hAcc>0.878334</hAcc><vAcc>0.694004</vAcc></extensions></trkpt>
      <trkpt lon="-3.341981" lat="54.564169"><ele>282.446716</ele><time>2021-08-12T10:06:34Z</time><extensions><speed>0.445326</speed><course>111.386711</course><hAcc>0.878584</hAcc><vAcc>0.694957</vAcc></extensions></trkpt>
      <trkpt lon="-3.341978" lat="54.564165"><ele>282.495148</ele><time>2021-08-12T10:06:35Z</time><extensions><speed>0.470582</speed><course>110.131767</course><hAcc>0.878876</hAcc><vAcc>0.696093</vAcc></extensions></trkpt>
      <trkpt lon="-3.341974" lat="54.564161"><ele>282.553040</ele><time>2021-08-12T10:06:36Z</time><extensions><speed>0.488059</speed><course>109.748413</course><hAcc>0.879202</hAcc><vAcc>0.697362</vAcc></extensions></trkpt>
      <trkpt lon="-3.341971" lat="54.564158"><ele>282.618042</ele><time>2021-08-12T10:06:37Z</time><extensions><speed>0.496685</speed><course>116.453705</course><hAcc>0.879553</hAcc><vAcc>0.698723</vAcc></extensions></trkpt>
      <trkpt lon="-3.341967" lat="54.564154"><ele>282.687042</ele><time>2021-08-12T10:06:38Z</time><extensions><speed>0.495416</speed><course>111.019348</course><hAcc>0.879921</hAcc><vAcc>0.700143</vAcc></extensions></trkpt>
      <trkpt lon="-3.341963" lat="54.564150"><ele>282.756897</ele><time>2021-08-12T10:06:39Z</time><extensions><speed>0.483644</speed><course>106.996025</course><hAcc>0.880296</hAcc><vAcc>0.701589</vAcc></extensions></trkpt>
      <trkpt lon="-3.341960" lat="54.564146"><ele>282.824982</ele><time>2021-08-12T10:06:40Z</time><extensions><speed>0.462048</speed><course>104.594215</course><hAcc>0.880669</hAcc><vAcc>0.703021</vAcc></extensions></trkpt>
      <trkpt lon="-3.341957" lat="54.564142"><ele>282.889465</ele><time>2021-08-12T10:06:41Z</time><extensions><speed>0.432740</speed><course>101.351479</course><hAcc>0.881033</hAcc><vAcc>0.704405</vAcc></extensions></trkpt>
      <trkpt lon="-3.341954" lat="54.564139"><ele>282.949188</ele><time>2021-08-12T10:06:42Z</time><extensions><speed>0.398052</speed><course>105.952332</course><hAcc>0.881381</hAcc><vAcc>0.705714</vAcc></extensions></trkpt>
      <trkpt lon="-3.341951" lat="54.564136"><ele>283.003967</ele><time>2021-08-12T10:06:43Z</time><extensions><speed>0.360507</speed><course>113.138412</course><hAcc>0.881706</hAcc><vAcc>0.706925</vAcc></extensions></trkpt>
      <trkpt lon="-3.341949" lat="54.564133"><ele>283.054047</ele><time>2021-08-12T10:06:44Z</time><extensions><speed>0.323159</speed><course>112.944946</course><hAcc>0.882004</hAcc><vAcc>0.708016</vAcc></extensions></trkpt>
      <trkpt lon="-3.341947" lat="54.564131"><ele>283.099854</ele><time>2021-08-12T10:06:45Z</time><extensions><speed>0.288860</speed><course>108.292221</course><hAcc>0.882271</hAcc><vAcc>0.708975</vAcc></extensions></trkpt>
      <trkpt lon="-3.341946" lat="54.564128"><ele>283.141876</ele><time>2021-08-12T10:06:46Z</time><extensions><speed>0.259953</speed><course>108.436562</course><hAcc>0.882503</hAcc><vAcc>0.709796</vAcc></extensions></trkpt>
      <trkpt lon="-3.341945" lat="54.564126"><ele>283.181122</ele><time>2021-08-12T10:06:47Z</time><extensions><speed>0.238344</speed><course>102.445824</course><hAcc>0.882698</hAcc><vAcc>0.710479</vAcc></extensions></trkpt>
      <trkpt lon="-3.341944" lat="54.564124"><ele>283.218811</ele><time>2021-08-12T10:06:48Z</time><extensions><speed>0.225303</speed><course>99.628555</course><hAcc>0.882851</hAcc><vAcc>0.711023</vAcc></extensions></trkpt>
      <trkpt lon="-3.341944" lat="54.564122"><ele>283.256317</ele><time>2021-08-12T10:06:49Z</time><extensions><speed>0.221293</speed><course>103.656601</course><hAcc>0.882961</hAcc><vAcc>0.711428</vAcc></extensions></trkpt>
      <trkpt lon="-3.341943" lat="54.564120"><ele>283.295288</ele><time>2021-08-12T10:06:50Z</time><extensions><speed>0.226381</speed><course>97.309608</course><hAcc>0.883023</hAcc><vAcc>0.711690</vAcc></extensions></trkpt>
      <trkpt lon="-3.341943" lat="54.564118"><ele>283.337402</ele><time>2021-08-12T10:06:51Z</time><extensions><speed>0.240616</speed><course>95.308922</course><hAcc>0.883034</hAcc><vAcc>0.711798</vAcc></extensions></trkpt>
      <trkpt lon="-3.341942" lat="54.564116"><ele>283.384583</ele><time>2021-08-12T10:06:52Z</time><extensions><speed>0.264004</speed><course>105.665154</course><hAcc>0.882990</hAcc><vAcc>0.711737</vAcc></extensions></trkpt>
      <trkpt lon="-3.341942" lat="54.564113"><ele>283.438873</ele><time>2021-08-12T10:06:53Z</time><extensions><speed>0.296425</speed><course>120.238884</course><hAcc>0.882886</hAcc><vAcc>0.711486</vAcc></extensions></trkpt>
      <trkpt lon="-3.341941" lat="54.564111"><ele>283.502380</ele><time>2021-08-12T10:06:54Z</time><extensions><speed>0.337419</speed><course>108.474937</course><hAcc>0.882720</hAcc><vAcc>0.711020</vAcc></extensions></trkpt>
      <trkpt lon="-3.341940" lat="54.564107"><ele>283.577148</ele><time>2021-08-12T10:06:55Z</time><extensions><speed>0.386047</speed><course>104.059807</course><hAcc>0.882492</hAcc><vAcc>0.710315</vAcc></extensions></trkpt>
      <trkpt lon="-3.341939" lat="54.564104"><ele>283.664948</ele><time>2021-08-12T10:06:56Z</time><extensions><speed>0.440959</speed><course>102.572708</course><hAcc>0.882202</hAcc><vAcc>0.709352</vAcc></extensions></trkpt>
      <trkpt lon="-3.341938" lat="54.564100"><ele>283.767242</ele><time>2021-08-12T10:06:57Z</time><extensions><speed>0.500392</speed><course>107.161850</course><hAcc>0.881858</hAcc><vAcc>0.708123</vAcc></extensions></trkpt>
      <trkpt lon="-3.341936" lat="54.564095"><ele>283.885132</ele><time>2021-08-12T10:06:58Z</time><extensions><speed>0.561964</speed><course>105.046165</course><hAcc>0.881467</hAcc><vAcc>0.706639</vAcc></extensions></trkpt>
      <trkpt lon="-3.341934" lat="54.564090"><ele>284.018799</ele><time>2021-08-12T10:06:59Z</time><extensions><speed>0.623174</speed><course>107.406158</course><hAcc>0.881042</hAcc><vAcc>0.704937</vAcc></extensions></trkpt>
      <trkpt lon="-3.341932" lat="54.564084"><ele>284.167603</ele><time>2021-08-12T10:07:00Z</time><extensions><speed>0.682226</speed><course>115.429123</course><hAcc>0.880600</hAcc><vAcc>0.703088</vAcc></extensions></trkpt>
      <trkpt lon="-3.341929" lat="54.564078"><ele>284.330231</ele><time>2021-08-12T10:07:01Z</time><extensions><speed>0.738122</speed><course>116.147835</course><hAcc>0.880156</hAcc><vAcc>0.701194</vAcc></extensions></trkpt>
      <trkpt lon="-3.341927" lat="54.564071"><ele>284.505188</ele><time>2021-08-12T10:07:02Z</time><extensions><speed>0.790496</speed><course>117.699570</course><hAcc>0.879730</hAcc><vAcc>0.699375</vAcc></extensions></trkpt>
      <trkpt lon="-3.341923" lat="54.564064"><ele>284.690887</ele><time>2021-08-12T10:07:03Z</time><extensions><speed>0.839187</speed><course>118.218575</course><hAcc>0.879336</hAcc><vAcc>0.697733</vAcc></extensions></trkpt>
      <trkpt lon="-3.341920" lat="54.564057"><ele>284.885498</ele><time>2021-08-12T10:07:04Z</time><extensions><speed>0.883401</speed><course>118.864105</course><hAcc>0.878989</hAcc><vAcc>0.696321</vAcc></extensions></trkpt>
      <trkpt lon="-3.341916" lat="54.564049"><ele>285.086975</ele><time>2021-08-12T10:07:05Z</time><extensions><speed>0.922456</speed><course>117.180046</course><hAcc>0.878696</hAcc><vAcc>0.695163</vAcc></extensions></trkpt>
      <trkpt lon="-3.341911" lat="54.564041"><ele>285.293427</ele><time>2021-08-12T10:07:06Z</time><extensions><speed>0.956041</speed><course>115.856689</course><hAcc>0.878466</hAcc><vAcc>0.694269</vAcc></extensions></trkpt>
      <trkpt lon="-3.341906" lat="54.564032"><ele>285.503082</ele><time>2021-08-12T10:07:07Z</time><extensions><speed>0.983315</speed><course>112.617844</course><hAcc>0.878300</hAcc><vAcc>0.693653</vAcc></extensions></trkpt>
      <trkpt lon="-3.341901" lat="54.564024"><ele>285.713959</ele><time>2021-08-12T10:07:08Z</time><extensions><speed>1.003250</speed><course>120.157761</course><hAcc>0.878201</hAcc><vAcc>0.693316</vAcc></extensions></trkpt>
      <trkpt lon="-3.341896" lat="54.564016"><ele>285.924164</ele><time>2021-08-12T10:07:09Z</time><extensions><speed>1.015721</speed><course>116.743965</course><hAcc>0.878165</hAcc><vAcc>0.693241</vAcc></extensions></trkpt>
      <trkpt lon="-3.341890" lat="54.564007"><ele>286.132141</ele><time>2021-08-12T10:07:10Z</time><extensions><speed>1.021192</speed><course>126.528450</course><hAcc>0.878184</hAcc><vAcc>0.693397</vAcc></extensions></trkpt>
      <trkpt lon="-3.341884" lat="54.563999"><ele>286.336853</ele><time>2021-08-12T10:07:11Z</time><extensions><speed>1.019660</speed><course>122.809067</course><hAcc>0.878252</hAcc><vAcc>0.693745</vAcc></extensions></trkpt>
      <trkpt lon="-3.341878" lat="54.563990"><ele>286.537720</ele><time>2021-08-12T10:07:12Z</time><extensions><speed>1.011958</speed><course>118.437454</course><hAcc>0.878356</hAcc><vAcc>0.694240</vAcc></extensions></trkpt>
      <trkpt lon="-3.341873" lat="54.563982"><ele>286.734192</ele><time>2021-08-12T10:07:13Z</time><extensions><speed>0.999714</speed><course>113.862648</course><hAcc>0.878486</hAcc><vAcc>0.694830</vAcc></extensions></trkpt>
      <trkpt lon="-3.341867" lat="54.563973"><ele>286.925964</ele><time>2021-08-12T10:07:14Z</time><extensions><speed>0.984228</speed><course>110.315605</course><hAcc>0.878631</hAcc><vAcc>0.695462</vAcc></extensions></trkpt>
      <trkpt lon="-3.341862" lat="54.563965"><ele>287.112488</ele><time>2021-08-12T10:07:15Z</time><extensions><speed>0.966959</speed><course>111.526596</course><hAcc>0.878779</hAcc><vAcc>0.696085</vAcc></extensions></trkpt>
      <trkpt lon="-3.341857" lat="54.563957"><ele>287.293030</ele><time>2021-08-12T10:07:16Z</time><extensions><speed>0.949211</speed><course>111.825790</course><hAcc>0.878921</hAcc><vAcc>0.696661</vAcc></extensions></trkpt>
      <trkpt lon="-3.341852" lat="54.563949"><ele>287.467255</ele><time>2021-08-12T10:07:17Z</time><extensions><speed>0.931675</speed><course>110.069481</course><hAcc>0.879051</hAcc><vAcc>0.697162</vAcc></extensions></trkpt>
      <trkpt lon="-3.341848" lat="54.563941"><ele>287.635498</ele><time>2021-08-12T10:07:18Z</time><extensions><speed>0.915161</speed><course>114.632622</course><hAcc>0.879163</hAcc><vAcc>0.697573</vAcc></extensions></trkpt>
      <trkpt lon="-3.341845" lat="54.563933"><ele>287.798462</ele><time>2021-08-12T10:07:19Z</time><extensions><speed>0.900772</speed><course>103.253258</course><hAcc>0.879254</hAcc><vAcc>0.697887</vAcc></extensions></trkpt>
      <trkpt lon="-3.341841" lat="54.563925"><ele>287.956879</ele><time>2021-08-12T10:07:20Z</time><extensions><speed>0.889225</speed><course>106.301743</course><hAcc>0.879326</hAcc><vAcc>0.698109</vAcc></extensions></trkpt>
      <trkpt lon="-3.341839" lat="54.563918"><ele>288.111511</ele><time>2021-08-12T10:07:21Z</time><extensions><speed>0.880459</speed><course>102.376541</course><hAcc>0.879379</hAcc><vAcc>0.698249</vAcc></extensions></trkpt>
      <trkpt lon="-3.341837" lat="54.563910"><ele>288.263336</ele><time>2021-08-12T10:07:22Z</time><extensions><speed>0.874013</speed><course>106.795837</course><hAcc>0.879418</hAcc><vAcc>0.698325</vAcc></extensions></trkpt>
      <trkpt lon="-3.341836" lat="54.563902"><ele>288.413635</ele><time>2021-08-12T10:07:23Z</time><extensions><speed>0.869271</speed><course>105.416672</course><hAcc>0.879448</hAcc><vAcc>0.698359</vAcc></extensions></trkpt>
      <trkpt lon="-3.341835" lat="54.563894"><ele>288.563141</ele><time>2021-08-12T10:07:24Z</time><extensions><speed>0.865720</speed><course>115.994911</course><hAcc>0.879475</hAcc><vAcc>0.698379</vAcc></extensions></trkpt>
      <trkpt lon="-3.341834" lat="54.563886"><ele>288.711823</ele><time>2021-08-12T10:07:25Z</time><extensions><speed>0.863318</speed><course>121.956070</course><hAcc>0.879507</hAcc><vAcc>0.698415</vAcc></extensions></trkpt>
      <trkpt lon="-3.341835" lat="54.563879"><ele>288.859558</ele><time>2021-08-12T10:07:26Z</time><extensions><speed>0.862223</speed><course>114.918808</course><hAcc>0.879551</hAcc><vAcc>0.698497</vAcc></extensions></trkpt>
      <trkpt lon="-3.341836" lat="54.563871"><ele>289.006927</ele><time>2021-08-12T10:07:27Z</time><extensions><speed>0.862970</speed><course>112.952827</course><hAcc>0.879612</hAcc><vAcc>0.698654</vAcc></extensions></trkpt>
      <trkpt lon="-3.341837" lat="54.563863"><ele>289.154999</ele><time>2021-08-12T10:07:28Z</time><extensions><speed>0.866068</speed><course>108.521141</course><hAcc>0.879697</hAcc><vAcc>0.698912</vAcc></extensions></trkpt>
      <trkpt lon="-3.341840" lat="54.563856"><ele>289.304901</ele><time>2021-08-12T10:07:29Z</time><extensions><speed>0.871158</speed><course>105.023331</course><hAcc>0.879810</hAcc><vAcc>0.699292</vAcc></extensions></trkpt>
      <trkpt lon="-3.341842" lat="54.563848"><ele>289.457642</ele><time>2021-08-12T10:07:30Z</time><extensions><speed>0.877511</speed><course>98.270523</course><hAcc>0.879953</hAcc><vAcc>0.699806</vAcc></extensions></trkpt>
      <trkpt lon="-3.341846" lat="54.563840"><ele>289.614044</ele><time>2021-08-12T10:07:31Z</time><extensions><speed>0.884662</speed><course>104.555389</course><hAcc>0.880128</hAcc><vAcc>0.700459</vAcc></extensions></trkpt>
      <trkpt lon="-3.341850" lat="54.563833"><ele>289.774689</ele><time>2021-08-12T10:07:32Z</time><extensions><speed>0.892230</speed><course>108.798698</course><hAcc>0.880332</hAcc><vAcc>0.701247</vAcc></extensions></trkpt>
      <trkpt lon="-3.341855" lat="54.563825"><ele>289.939972</ele><time>2021-08-12T10:07:33Z</time><extensions><speed>0.899686</speed><course>107.953148</course><hAcc>0.880562</hAcc><vAcc>0.702155</vAcc></extensions></trkpt>
      <trkpt lon="-3.341861" lat="54.563818"><ele>290.110413</ele><time>2021-08-12T10:07:34Z</time><extensions><speed>0.906144</speed><course>107.561462</course><hAcc>0.880814</hAcc><vAcc>0.703160</vAcc></extensions></trkpt>
      <trkpt lon="-3.341867" lat="54.563810"><ele>290.286530</ele><time>2021-08-12T10:07:35Z</time><extensions><speed>0.910909</speed><course>98.600151</course><hAcc>0.881081</hAcc><vAcc>0.704227</vAcc></extensions></trkpt>
      <trkpt lon="-3.341874" lat="54.563803"><ele>290.468536</ele><time>2021-08-12T10:07:36Z</time><extensions><speed>0.913784</speed><course>106.179245</course><hAcc>0.881356</hAcc><vAcc>0.705320</vAcc></extensions></trkpt>
      <trkpt lon="-3.341881" lat="54.563796"><ele>290.656677</ele><time>2021-08-12T10:07:37Z</time><extensions><speed>0.914831</speed><course>99.736237</course><hAcc>0.881633</hAcc><vAcc>0.706406</vAcc></extensions></trkpt>
      <trkpt lon="-3.341888" lat="54.563789"><ele>290.851288</ele><time>2021-08-12T10:07:38Z</time><extensions><speed>0.914329</speed><course>102.027924</course><hAcc>0.881903</hAcc><vAcc>0.707457</vAcc></extensions></trkpt>
      <trkpt lon="-3.341896" lat="54.563782"><ele>291.052917</ele><time>2021-08-12T10:07:39Z</time><extensions><speed>0.912485</speed><course>94.072990</course><hAcc>0.882162</hAcc><vAcc>0.708446</vAcc></extensions></trkpt>
      <trkpt lon="-3.341903" lat="54.563775"><ele>291.261932</ele><time>2021-08-12T10:07:40Z</time><extensions><speed>0.909395</speed><course>96.463219</course><hAcc>0.882403</hAcc><vAcc>0.709355</vAcc></extensions></trkpt>
      <trkpt lon="-3.341911" lat="54.563768"><ele>291.478149</ele><time>2021-08-12T10:07:41Z</time><extensions><speed>0.904965</speed><course>96.928070</course><hAcc>0.882623</hAcc><vAcc>0.710169</vAcc></extensions></trkpt>
      <trkpt lon="-3.341919" lat="54.563762"><ele>291.700378</ele><time>2021-08-12T10:07:42Z</time><extensions><speed>0.899220</speed><course>85.766655</course><hAcc>0.882818</hAcc><vAcc>0.710878</vAcc></extensions></trkpt>
      <trkpt lon="-3.341926" lat="54.563755"><ele>291.926361</ele><time>2021-08-12T10:07:43Z</time><extensions><speed>0.892883</speed><course>93.944389</course><hAcc>0.882987</hAcc><vAcc>0.711478</vAcc></extensions></trkpt>
      <trkpt lon="-3.341934" lat="54.563748"><ele>292.153503</ele><time>2021-08-12T10:07:44Z</time><extensions><speed>0.887250</speed><course>96.280258</course><hAcc>0.883130</hAcc><vAcc>0.711972</vAcc></extensions></trkpt>
      <trkpt lon="-3.341941" lat="54.563741"><ele>292.379700</ele><time>2021-08-12T10:07:45Z</time><extensions><speed>0.883317</speed><course>103.229439</course><hAcc>0.883247</hAcc><vAcc>0.712363</vAcc></extensions></trkpt>
      <trkpt lon="-3.341948" lat="54.563735"><ele>292.603271</ele><time>2021-08-12T10:07:46Z</time><extensions><speed>0.881426</speed><course>100.069313</course><hAcc>0.883339</hAcc><vAcc>0.712661</vAcc></extensions></trkpt>
      <trkpt lon="-3.341954" lat="54.563728"><ele>292.822540</ele><time>2021-08-12T10:07:47Z</time><extensions><speed>0.881744</speed><course>107.704430</course><hAcc>0.883408</hAcc><vAcc>0.712874</vAcc></extensions></trkpt>
      <trkpt lon="-3.341961" lat="54.563721"><ele>293.036041</ele><time>2021-08-12T10:07:48Z</time><extensions><speed>0.884754</speed><course>102.019516</course><hAcc>0.883458</hAcc><vAcc>0.713013</vAcc></extensions></trkpt>
      <trkpt lon="-3.341967" lat="54.563714"><ele>293.242523</ele><time>2021-08-12T10:07:49Z</time><extensions><speed>0.890602</speed><course>101.188896</course><hAcc>0.883489</hAcc><vAcc>0.713088</vAcc></extensions></trkpt>
      <trkpt lon="-3.341973" lat="54.563706"><ele>293.441010</ele><time>2021-08-12T10:07:50Z</time><extensions><speed>0.899079</speed><course>101.655106</course><hAcc>0.883506</hAcc><vAcc>0.713111</vAcc></extensions></trkpt>
      <trkpt lon="-3.341979" lat="54.563699"><ele>293.630859</ele><time>2021-08-12T10:07:51Z</time><extensions><speed>0.910230</speed><course>97.512695</course><hAcc>0.883510</hAcc><vAcc>0.713096</vAcc></extensions></trkpt>
      <trkpt lon="-3.341984" lat="54.563691"><ele>293.812012</ele><time>2021-08-12T10:07:52Z</time><extensions><speed>0.924615</speed><course>96.923676</course><hAcc>0.883505</hAcc><vAcc>0.713052</vAcc></extensions></trkpt>
      <trkpt lon="-3.341989" lat="54.563683"><ele>293.984833</ele><time>2021-08-12T10:07:53Z</time><extensions><speed>0.942783</speed><course>96.356850</course><hAcc>0.883491</hAcc><vAcc>0.712991</vAcc></extensions></trkpt>
      <trkpt lon="-3.341994" lat="54.563675"><ele>294.149597</ele><time>2021-08-12T10:07:54Z</time><extensions><speed>0.964580</speed><course>95.959724</course><hAcc>0.883470</hAcc><vAcc>0.712917</vAcc></extensions></trkpt>
      <trkpt lon="-3.341999" lat="54.563667"><ele>294.306396</ele><time>2021-08-12T10:07:55Z</time><extensions><speed>0.988996</speed><course>95.959717</course><hAcc>0.883445</hAcc><vAcc>0.712834</vAcc></extensions></trkpt>
      <trkpt lon="-3.342003" lat="54.563658"><ele>294.455200</ele><time>2021-08-12T10:07:56Z</time><extensions><speed>1.014557</speed><course>97.361824</course><hAcc>0.883418</hAcc><vAcc>0.712741</vAcc></extensions></trkpt>
      <trkpt lon="-3.342007" lat="54.563649"><ele>294.596405</ele><time>2021-08-12T10:07:57Z</time><extensions><speed>1.040055</speed><course>97.361824</course><hAcc>0.883390</hAcc><vAcc>0.712638</vAcc></extensions></trkpt>
      <trkpt lon="-3.342011" lat="54.563640"><ele>294.730560</ele><time>2021-08-12T10:07:58Z</time><extensions><speed>1.064635</speed><course>97.361809</course><hAcc>0.883364</hAcc><vAcc>0.712524</vAcc></extensions></trkpt>
      <trkpt lon="-3.342014" lat="54.563631"><ele>294.858246</ele><time>2021-08-12T10:07:59Z</time><extensions><speed>1.087836</speed><course>97.361801</course><hAcc>0.883341</hAcc><vAcc>0.712404</vAcc></extensions></trkpt>
      <trkpt lon="-3.342018" lat="54.563621"><ele>294.979614</ele><time>2021-08-12T10:08:00Z</time><extensions><speed>1.109280</speed><course>42.884136</course><hAcc>0.883323</hAcc><vAcc>0.712288</vAcc></extensions></trkpt>
      <trkpt lon="-3.342021" lat="54.563611"><ele>295.093933</ele><time>2021-08-12T10:08:01Z</time><extensions><speed>1.128629</speed><course>35.984764</course><hAcc>0.883312</hAcc><vAcc>0.712191</vAcc></extensions></trkpt>
      <trkpt lon="-3.342025" lat="54.563601"><ele>295.200348</ele><time>2021-08-12T10:08:02Z</time><extensions><speed>1.145597</speed><course>65.852417</course><hAcc>0.883308</hAcc><vAcc>0.712133</vAcc></extensions></trkpt>
      <trkpt lon="-3.342029" lat="54.563591"><ele>295.298401</ele><time>2021-08-12T10:08:03Z</time><extensions><speed>1.159931</speed><course>86.337746</course><hAcc>0.883311</hAcc><vAcc>0.712126</vAcc></extensions></trkpt>
      <trkpt lon="-3.342033" lat="54.563581"><ele>295.388397</ele><time>2021-08-12T10:08:04Z</time><extensions><speed>1.171598</speed><course>89.071770</course><hAcc>0.883321</hAcc><vAcc>0.712178</vAcc></extensions></trkpt>
      <trkpt lon="-3.342037" lat="54.563571"><ele>295.471191</ele><time>2021-08-12T10:08:05Z</time><extensions><speed>1.180972</speed><course>92.612312</course><hAcc>0.883335</hAcc><vAcc>0.712283</vAcc></extensions></trkpt>
      <trkpt lon="-3.342042" lat="54.563561"><ele>295.547974</ele><time>2021-08-12T10:08:06Z</time><extensions><speed>1.188573</speed><course>103.461632</course><hAcc>0.883352</hAcc><vAcc>0.712422</vAcc></extensions></trkpt>
      <trkpt lon="-3.342048" lat="54.563550"><ele>295.620697</ele><time>2021-08-12T10:08:07Z</time><extensions><speed>1.195359</speed><course>104.412865</course><hAcc>0.883368</hAcc><vAcc>0.712571</vAcc></extensions></trkpt>
      <trkpt lon="-3.342053" lat="54.563540"><ele>295.691559</ele><time>2021-08-12T10:08:08Z</time><extensions><speed>1.201930</speed><course>129.601685</course><hAcc>0.883382</hAcc><vAcc>0.712700</vAcc></extensions></trkpt>
      <trkpt lon="-3.342059" lat="54.563530"><ele>295.762573</ele><time>2021-08-12T10:08:09Z</time><extensions><speed>1.208048</speed><course>149.567169</course><hAcc>0.883389</hAcc><vAcc>0.712784</vAcc></extensions></trkpt>
      <trkpt lon="-3.342066" lat="54.563520"><ele>295.834869</ele><time>2021-08-12T10:08:10Z</time><extensions><speed>1.213195</speed><course>129.327728</course><hAcc>0.883386</hAcc><vAcc>0.712809</vAcc></extensions></trkpt>
      <trkpt lon="-3.342072" lat="54.563509"><ele>295.909088</ele><time>2021-08-12T10:08:11Z</time><extensions><speed>1.216939</speed><course>129.943619</course><hAcc>0.883369</hAcc><vAcc>0.712766</vAcc></extensions></trkpt>
      <trkpt lon="-3.342079" lat="54.563499"><ele>295.985809</ele><time>2021-08-12T10:08:12Z</time><extensions><speed>1.219396</speed><course>125.470825</course><hAcc>0.883336</hAcc><vAcc>0.712651</vAcc></extensions></trkpt>
      <trkpt lon="-3.342086" lat="54.563489"><ele>296.065491</ele><time>2021-08-12T10:08:13Z</time><extensions><speed>1.220501</speed><course>125.654007</course><hAcc>0.883286</hAcc><vAcc>0.712464</vAcc></extensions></trkpt>
      <trkpt lon="-3.342092" lat="54.563479"><ele>296.148315</ele><time>2021-08-12T10:08:14Z</time><extensions><speed>1.220148</speed><course>132.941208</course><hAcc>0.883218</hAcc><vAcc>0.712208</vAcc></extensions></trkpt>
      <trkpt lon="-3.342099" lat="54.563468"><ele>296.234253</ele><time>2021-08-12T10:08:15Z</time><extensions><speed>1.218906</speed><course>128.525970</course><hAcc>0.883134</hAcc><vAcc>0.711883</vAcc></extensions></trkpt>
      <trkpt lon="-3.342106" lat="54.563458"><ele>296.323425</ele><time>2021-08-12T10:08:16Z</time><extensions><speed>1.217394</speed><course>129.747040</course><hAcc>0.883034</hAcc><vAcc>0.711491</vAcc></extensions></trkpt>
      <trkpt lon="-3.342113" lat="54.563448"><ele>296.415680</ele><time>2021-08-12T10:08:17Z</time><extensions><speed>1.215797</speed><course>133.257645</course><hAcc>0.882922</hAcc><vAcc>0.711038</vAcc></extensions></trkpt>
      <trkpt lon="-3.342120" lat="54.563438"><ele>296.510162</ele><time>2021-08-12T10:08:18Z</time><extensions><speed>1.214527</speed><course>122.834160</course><hAcc>0.882800</hAcc><vAcc>0.710542</vAcc></extensions></trkpt>
      <trkpt lon="-3.342127" lat="54.563428"><ele>296.605347</ele><time>2021-08-12T10:08:19Z</time><extensions><speed>1.213910</speed><course>121.754723</course><hAcc>0.882670</hAcc><vAcc>0.710019</vAcc></extensions></trkpt>
      <trkpt lon="-3.342133" lat="54.563417"><ele>296.699463</ele><time>2021-08-12T10:08:20Z</time><extensions><speed>1.213970</speed><course>130.620087</course><hAcc>0.882537</hAcc><vAcc>0.709489</vAcc></extensions></trkpt>
      <trkpt lon="-3.342140" lat="54.563407"><ele>296.791656</ele><time>2021-08-12T10:08:21Z</time><extensions><speed>1.214832</speed><course>128.548019</course><hAcc>0.882402</hAcc><vAcc>0.708968</vAcc></extensions></trkpt>
      <trkpt lon="-3.342146" lat="54.563397"><ele>296.882568</ele><time>2021-08-12T10:08:22Z</time><extensions><speed>1.216820</speed><course>128.034912</course><hAcc>0.882268</hAcc><vAcc>0.708465</vAcc></extensions></trkpt>
      <trkpt lon="-3.342152" lat="54.563387"><ele>296.974182</ele><time>2021-08-12T10:08:23Z</time><extensions><speed>1.220496</speed><course>128.138321</course><hAcc>0.882137</hAcc><vAcc>0.707981</vAcc></extensions></trkpt>
      <trkpt lon="-3.342158" lat="54.563376"><ele>297.069092</ele><time>2021-08-12T10:08:24Z</time><extensions><speed>1.226209</speed><course>127.788391</course><hAcc>0.882009</hAcc><vAcc>0.707518</vAcc></extensions></trkpt>
      <trkpt lon="-3.342164" lat="54.563366"><ele>297.170166</ele><time>2021-08-12T10:08:25Z</time><extensions><speed>1.233803</speed><course>111.799332</course><hAcc>0.881886</hAcc><vAcc>0.707077</vAcc></extensions></trkpt>
      <trkpt lon="-3.342170" lat="54.563355"><ele>297.280029</ele><time>2021-08-12T10:08:26Z</time><extensions><speed>1.242951</speed><course>135.894547</course><hAcc>0.881767</hAcc><vAcc>0.706655</vAcc></extensions></trkpt>
      <trkpt lon="-3.342176" lat="54.563344"><ele>297.401093</ele><time>2021-08-12T10:08:27Z</time><extensions><speed>1.253299</speed><course>135.791443</course><hAcc>0.881652</hAcc><vAcc>0.706250</vAcc></extensions></trkpt>
      <trkpt lon="-3.342181" lat="54.563334"><ele>297.535187</ele><time>2021-08-12T10:08:28Z</time><extensions><speed>1.264069</speed><course>137.532547</course><hAcc>0.881538</hAcc><vAcc>0.705859</vAcc></extensions></trkpt>
      <trkpt lon="-3.342187" lat="54.563323"><ele>297.683228</ele><time>2021-08-12T10:08:29Z</time><extensions><speed>1.274435</speed><course>139.503952</course><hAcc>0.881424</hAcc><vAcc>0.705478</vAcc></extensions></trkpt>
      <trkpt lon="-3.342192" lat="54.563312"><ele>297.845093</ele><time>2021-08-12T10:08:30Z</time><extensions><speed>1.283785</speed><course>146.422607</course><hAcc>0.881308</hAcc><vAcc>0.705097</vAcc></extensions></trkpt>
      <trkpt lon="-3.342197" lat="54.563300"><ele>298.019745</ele><time>2021-08-12T10:08:31Z</time><extensions><speed>1.292200</speed><course>123.702354</course><hAcc>0.881190</hAcc><vAcc>0.704703</vAcc></extensions></trkpt>
      <trkpt lon="-3.342202" lat="54.563289"><ele>298.205963</ele><time>2021-08-12T10:08:32Z</time><extensions><speed>1.300118</speed><course>126.795586</course><hAcc>0.881066</hAcc><vAcc>0.704281</vAcc></extensions></trkpt>
      <trkpt lon="-3.342206" lat="54.563278"><ele>298.403229</ele><time>2021-08-12T10:08:33Z</time><extensions><speed>1.307289</speed><course>132.239441</course><hAcc>0.880938</hAcc><vAcc>0.703821</vAcc></extensions></trkpt>
      <trkpt lon="-3.342210" lat="54.563266"><ele>298.611328</ele><time>2021-08-12T10:08:34Z</time><extensions><speed>1.313367</speed><course>129.200668</course><hAcc>0.880804</hAcc><vAcc>0.703324</vAcc></extensions></trkpt>
      <trkpt lon="-3.342214" lat="54.563254"><ele>298.829895</ele><time>2021-08-12T10:08:35Z</time><extensions><speed>1.318153</speed><course>125.122314</course><hAcc>0.880666</hAcc><vAcc>0.702796</vAcc></extensions></trkpt>
      <trkpt lon="-3.342218" lat="54.563243"><ele>299.058624</ele><time>2021-08-12T10:08:36Z</time><extensions><speed>1.321344</speed><course>136.265396</course><hAcc>0.880523</hAcc><vAcc>0.702248</vAcc></extensions></trkpt>
      <trkpt lon="-3.342221" lat="54.563231"><ele>299.297119</ele><time>2021-08-12T10:08:37Z</time><extensions><speed>1.322495</speed><course>135.687027</course><hAcc>0.880379</hAcc><vAcc>0.701692</vAcc></extensions></trkpt>
      <trkpt lon="-3.342224" lat="54.563219"><ele>299.544647</ele><time>2021-08-12T10:08:38Z</time><extensions><speed>1.321246</speed><course>134.189224</course><hAcc>0.880235</hAcc><vAcc>0.701139</vAcc></extensions></trkpt>
      <trkpt lon="-3.342227" lat="54.563208"><ele>299.800049</ele><time>2021-08-12T10:08:39Z</time><extensions><speed>1.317319</speed><course>130.213623</course><hAcc>0.880094</hAcc><vAcc>0.700600</vAcc></extensions></trkpt>
      <trkpt lon="-3.342229" lat="54.563196"><ele>300.061829</ele><time>2021-08-12T10:08:40Z</time><extensions><speed>1.310532</speed><course>131.249283</course><hAcc>0.879957</hAcc><vAcc>0.700087</vAcc></extensions></trkpt>
      <trkpt lon="-3.342231" lat="54.563184"><ele>300.328033</ele><time>2021-08-12T10:08:41Z</time><extensions><speed>1.301074</speed><course>132.412170</course><hAcc>0.879827</hAcc><vAcc>0.699607</vAcc></extensions></trkpt>
      <trkpt lon="-3.342234" lat="54.563173"><ele>300.596130</ele><time>2021-08-12T10:08:42Z</time><extensions><speed>1.289306</speed><course>141.387543</course><hAcc>0.879706</hAcc><vAcc>0.699165</vAcc></extensions></trkpt>
      <trkpt lon="-3.342236" lat="54.563161"><ele>300.863586</ele><time>2021-08-12T10:08:43Z</time><extensions><speed>1.275716</speed><course>147.693329</course><hAcc>0.879595</hAcc><vAcc>0.698764</vAcc></extensions></trkpt>
      <trkpt lon="-3.342237" lat="54.563150"><ele>301.128479</ele><time>2021-08-12T10:08:44Z</time><extensions><speed>1.261151</speed><course>150.557755</course><hAcc>0.879496</hAcc><vAcc>0.698403</vAcc></extensions></trkpt>
      <trkpt lon="-3.342239" lat="54.563139"><ele>301.389587</ele><time>2021-08-12T10:08:45Z</time><extensions><speed>1.246383</speed><course>146.167221</course><hAcc>0.879410</hAcc><vAcc>0.698079</vAcc></extensions></trkpt>
      <trkpt lon="-3.342241" lat="54.563128"><ele>301.645660</ele><time>2021-08-12T10:08:46Z</time><extensions><speed>1.231685</speed><course>148.113663</course><hAcc>0.879338</hAcc><vAcc>0.697797</vAcc></extensions></trkpt>
      <trkpt lon="-3.342243" lat="54.563117"><ele>301.895416</ele><time>2021-08-12T10:08:47Z</time><extensions><speed>1.216843</speed><course>138.101883</course><hAcc>0.879280</hAcc><vAcc>0.697570</vAcc></extensions></trkpt>
      <trkpt lon="-3.342245" lat="54.563106"><ele>302.137787</ele><time>2021-08-12T10:08:48Z</time><extensions><speed>1.201020</speed><course>142.914612</course><hAcc>0.879237</hAcc><vAcc>0.697407</vAcc></extensions></trkpt>
      <trkpt lon="-3.342247" lat="54.563095"><ele>302.372101</ele><time>2021-08-12T10:08:49Z</time><extensions><speed>1.183562</speed><course>148.048096</course><hAcc>0.879207</hAcc><vAcc>0.697311</vAcc></extensions></trkpt>
      <trkpt lon="-3.342250" lat="54.563085"><ele>302.598145</ele><time>2021-08-12T10:08:50Z</time><extensions><speed>1.164649</speed><course>151.450607</course><hAcc>0.879190</hAcc><vAcc>0.697275</vAcc></extensions></trkpt>
      <trkpt lon="-3.342252" lat="54.563074"><ele>302.816467</ele><time>2021-08-12T10:08:51Z</time><extensions><speed>1.144577</speed><course>136.771103</course><hAcc>0.879183</hAcc><vAcc>0.697287</vAcc></extensions></trkpt>
      <trkpt lon="-3.342254" lat="54.563064"><ele>303.027924</ele><time>2021-08-12T10:08:52Z</time><extensions><speed>1.123852</speed><course>141.808670</course><hAcc>0.879183</hAcc><vAcc>0.697327</vAcc></extensions></trkpt>
      <trkpt lon="-3.342256" lat="54.563054"><ele>303.233246</ele><time>2021-08-12T10:08:53Z</time><extensions><speed>1.103220</speed><course>141.991776</course><hAcc>0.879187</hAcc><vAcc>0.697380</vAcc></extensions></trkpt>
      <trkpt lon="-3.342259" lat="54.563045"><ele>303.433167</ele><time>2021-08-12T10:08:54Z</time><extensions><speed>1.083470</speed><course>158.861435</course><hAcc>0.879192</hAcc><vAcc>0.697430</vAcc></extensions></trkpt>
      <trkpt lon="-3.342261" lat="54.563035"><ele>303.628876</ele><time>2021-08-12T10:08:55Z</time><extensions><speed>1.065341</speed><course>158.142120</course><hAcc>0.879195</hAcc><vAcc>0.697466</vAcc></extensions></trkpt>
      <trkpt lon="-3.342263" lat="54.563026"><ele>303.822144</ele><time>2021-08-12T10:08:56Z</time><extensions><speed>1.049258</speed><course>156.536041</course><hAcc>0.879194</hAcc><vAcc>0.697480</vAcc></extensions></trkpt>
      <trkpt lon="-3.342266" lat="54.563016"><ele>304.014893</ele><time>2021-08-12T10:08:57Z</time><extensions><speed>1.035536</speed><course>138.496033</course><hAcc>0.879187</hAcc><vAcc>0.697465</vAcc></extensions></trkpt>
      <trkpt lon="-3.342268" lat="54.563007"><ele>304.208740</ele><time>2021-08-12T10:08:58Z</time><extensions><speed>1.024388</speed><course>156.669647</course><hAcc>0.879172</hAcc><vAcc>0.697417</vAcc></extensions></trkpt>
      <trkpt lon="-3.342270" lat="54.562998"><ele>304.404968</ele><time>2021-08-12T10:08:59Z</time><extensions><speed>1.015936</speed><course>143.929214</course><hAcc>0.879150</hAcc><vAcc>0.697335</vAcc></extensions></trkpt>
      <trkpt lon="-3.342273" lat="54.562989"><ele>304.603821</ele><time>2021-08-12T10:09:00Z</time><extensions><speed>1.009816</speed><course>154.114960</course><hAcc>0.879121</hAcc><vAcc>0.697219</vAcc></extensions></trkpt>
      <trkpt lon="-3.342275" lat="54.562980"><ele>304.804199</ele><time>2021-08-12T10:09:01Z</time><extensions><speed>1.005409</speed><course>157.737396</course><hAcc>0.879086</hAcc><vAcc>0.697071</vAcc></extensions></trkpt>
      <trkpt lon="-3.342277" lat="54.562971"><ele>305.005096</ele><time>2021-08-12T10:09:02Z</time><extensions><speed>1.002764</speed><course>156.437073</course><hAcc>0.879047</hAcc><vAcc>0.696902</vAcc></extensions></trkpt>
      <trkpt lon="-3.342279" lat="54.562962"><ele>305.206177</ele><time>2021-08-12T10:09:03Z</time><extensions><speed>1.002445</speed><course>159.749420</course><hAcc>0.879005</hAcc><vAcc>0.696721</vAcc></extensions></trkpt>
      <trkpt lon="-3.342281" lat="54.562953"><ele>305.407898</ele><time>2021-08-12T10:09:04Z</time><extensions><speed>1.004505</speed><course>156.029541</course><hAcc>0.878964</hAcc><vAcc>0.696541</vAcc></extensions></trkpt>
      <trkpt lon="-3.342283" lat="54.562945"><ele>305.611023</ele><time>2021-08-12T10:09:05Z</time><extensions><speed>1.008478</speed><course>159.049896</course><hAcc>0.878927</hAcc><vAcc>0.696375</vAcc></extensions></trkpt>
      <trkpt lon="-3.342284" lat="54.562935"><ele>305.816132</ele><time>2021-08-12T10:09:06Z</time><extensions><speed>1.013909</speed><course>154.355942</course><hAcc>0.878896</hAcc><vAcc>0.696233</vAcc></extensions></trkpt>
      <trkpt lon="-3.342286" lat="54.562926"><ele>306.023438</ele><time>2021-08-12T10:09:07Z</time><extensions><speed>1.020302</speed><course>162.710571</course><hAcc>0.878874</hAcc><vAcc>0.696128</vAcc></extensions></trkpt>
      <trkpt lon="-3.342288" lat="54.562917"><ele>306.232513</ele><time>2021-08-12T10:09:08Z</time><extensions><speed>1.026875</speed><course>161.899368</course><hAcc>0.878863</hAcc><vAcc>0.696067</vAcc></extensions></trkpt>
      <trkpt lon="-3.342289" lat="54.562908"><ele>306.442719</ele><time>2021-08-12T10:09:09Z</time><extensions><speed>1.032812</speed><course>160.656769</course><hAcc>0.878864</hAcc><vAcc>0.696059</vAcc></extensions></trkpt>
      <trkpt lon="-3.342291" lat="54.562899"><ele>306.653442</ele><time>2021-08-12T10:09:10Z</time><extensions><speed>1.037575</speed><course>152.471558</course><hAcc>0.878877</hAcc><vAcc>0.696110</vAcc></extensions></trkpt>
      <trkpt lon="-3.342292" lat="54.562890"><ele>306.864380</ele><time>2021-08-12T10:09:11Z</time><extensions><speed>1.040607</speed><course>148.255112</course><hAcc>0.878903</hAcc><vAcc>0.696219</vAcc></extensions></trkpt>
      <trkpt lon="-3.342294" lat="54.562880"><ele>307.075470</ele><time>2021-08-12T10:09:12Z</time><extensions><speed>1.041045</speed><course>153.394714</course><hAcc>0.878940</hAcc><vAcc>0.696380</vAcc></extensions></trkpt>
      <trkpt lon="-3.342296" lat="54.562871"><ele>307.286896</ele><time>2021-08-12T10:09:13Z</time><extensions><speed>1.038792</speed><course>156.943573</course><hAcc>0.878986</hAcc><vAcc>0.696584</vAcc></extensions></trkpt>
      <trkpt lon="-3.342297" lat="54.562862"><ele>307.499084</ele><time>2021-08-12T10:09:14Z</time><extensions><speed>1.034641</speed><course>159.515564</course><hAcc>0.879038</hAcc><vAcc>0.696818</vAcc></extensions></trkpt>
      <trkpt lon="-3.342299" lat="54.562852"><ele>307.712524</ele><time>2021-08-12T10:09:15Z</time><extensions><speed>1.029271</speed><course>158.540283</course><hAcc>0.879094</hAcc><vAcc>0.697068</vAcc></extensions></trkpt>
      <trkpt lon="-3.342301" lat="54.562843"><ele>307.927551</ele><time>2021-08-12T10:09:16Z</time><extensions><speed>1.023179</speed><course>153.751312</course><hAcc>0.879151</hAcc><vAcc>0.697313</vAcc></extensions></trkpt>
      <trkpt lon="-3.342302" lat="54.562834"><ele>308.143768</ele><time>2021-08-12T10:09:17Z</time><extensions><speed>1.016280</speed><course>159.795258</course><hAcc>0.879206</hAcc><vAcc>0.697536</vAcc></extensions></trkpt>
      <trkpt lon="-3.342304" lat="54.562825"><ele>308.360504</ele><time>2021-08-12T10:09:18Z</time><extensions><speed>1.008581</speed><course>158.187424</course><hAcc>0.879257</hAcc><vAcc>0.697725</vAcc></extensions></trkpt>
      <trkpt lon="-3.342306" lat="54.562816"><ele>308.577393</ele><time>2021-08-12T10:09:19Z</time><extensions><speed>1.000050</speed><course>160.275116</course><hAcc>0.879303</hAcc><vAcc>0.697882</vAcc></extensions></trkpt>
      <trkpt lon="-3.342307" lat="54.562807"><ele>308.794464</ele><time>2021-08-12T10:09:20Z</time><extensions><speed>0.990340</speed><course>156.643036</course><hAcc>0.879344</hAcc><vAcc>0.698009</vAcc></extensions></trkpt>
      <trkpt lon="-3.342309" lat="54.562798"><ele>309.011627</ele><time>2021-08-12T10:09:21Z</time><extensions><speed>0.979776</speed><course>162.614395</course><hAcc>0.879382</hAcc><vAcc>0.698115</vAcc></extensions></trkpt>
      <trkpt lon="-3.342310" lat="54.562790"><ele>309.229126</ele><time>2021-08-12T10:09:22Z</time><extensions><speed>0.968910</speed><course>162.054535</course><hAcc>0.879416</hAcc><vAcc>0.698208</vAcc></extensions></trkpt>
      <trkpt lon="-3.342312" lat="54.562781"><ele>309.447571</ele><time>2021-08-12T10:09:23Z</time><extensions><speed>0.958226</speed><course>177.342987</course><hAcc>0.879450</hAcc><vAcc>0.698297</vAcc></extensions></trkpt>
      <trkpt lon="-3.342313" lat="54.562773"><ele>309.667572</ele><time>2021-08-12T10:09:24Z</time><extensions><speed>0.948386</speed><course>172.891953</course><hAcc>0.879485</hAcc><vAcc>0.698393</vAcc></extensions></trkpt>
      <trkpt lon="-3.342314" lat="54.562764"><ele>309.889313</ele><time>2021-08-12T10:09:25Z</time><extensions><speed>0.940020</speed><course>169.984741</course><hAcc>0.879523</hAcc><vAcc>0.698505</vAcc></extensions></trkpt>
      <trkpt lon="-3.342315" lat="54.562756"><ele>310.112823</ele><time>2021-08-12T10:09:26Z</time><extensions><speed>0.933488</speed><course>166.246048</course><hAcc>0.879565</hAcc><vAcc>0.698642</vAcc></extensions></trkpt>
      <trkpt lon="-3.342317" lat="54.562747"><ele>310.338867</ele><time>2021-08-12T10:09:27Z</time><extensions><speed>0.928607</speed><course>166.762161</course><hAcc>0.879612</hAcc><vAcc>0.698811</vAcc></extensions></trkpt>
      <trkpt lon="-3.342318" lat="54.562739"><ele>310.568573</ele><time>2021-08-12T10:09:28Z</time><extensions><speed>0.924618</speed><course>163.016708</course><hAcc>0.879666</hAcc><vAcc>0.699014</vAcc></extensions></trkpt>
      <trkpt lon="-3.342319" lat="54.562731"><ele>310.802704</ele><time>2021-08-12T10:09:29Z</time><extensions><speed>0.920288</speed><course>159.079727</course><hAcc>0.879725</hAcc><vAcc>0.699251</vAcc></extensions></trkpt>
      <trkpt lon="-3.342321" lat="54.562723"><ele>311.041687</ele><time>2021-08-12T10:09:30Z</time><extensions><speed>0.914249</speed><course>160.816132</course><hAcc>0.879788</hAcc><vAcc>0.699513</vAcc></extensions></trkpt>
      <trkpt lon="-3.342322" lat="54.562715"><ele>311.285614</ele><time>2021-08-12T10:09:31Z</time><extensions><speed>0.905665</speed><course>163.227844</course><hAcc>0.879856</hAcc><vAcc>0.699789</vAcc></extensions></trkpt>
      <trkpt lon="-3.342324" lat="54.562707"><ele>311.534119</ele><time>2021-08-12T10:09:32Z</time><extensions><speed>0.894279</speed><course>152.149902</course><hAcc>0.879925</hAcc><vAcc>0.700067</vAcc></extensions></trkpt>
      <trkpt lon="-3.342326" lat="54.562699"><ele>311.786102</ele><time>2021-08-12T10:09:33Z</time><extensions><speed>0.880387</speed><course>159.582550</course><hAcc>0.879996</hAcc><vAcc>0.700340</vAcc></extensions></trkpt>
      <trkpt lon="-3.342328" lat="54.562691"><ele>312.039795</ele><time>2021-08-12T10:09:34Z</time><extensions><speed>0.864890</speed><course>159.987671</course><hAcc>0.880068</hAcc><vAcc>0.700601</vAcc></extensions></trkpt>
      <trkpt lon="-3.342330" lat="54.562683"><ele>312.293549</ele><time>2021-08-12T10:09:35Z</time><extensions><speed>0.848620</speed><course>163.105835</course><hAcc>0.880140</hAcc><vAcc>0.700849</vAcc></extensions></trkpt>
      <trkpt lon="-3.342332" lat="54.562676"><ele>312.545959</ele><time>2021-08-12T10:09:36Z</time><extensions><speed>0.832146</speed><course>160.869598</course><hAcc>0.880213</hAcc><vAcc>0.701087</vAcc></extensions></trkpt>
      <trkpt lon="-3.342335" lat="54.562669"><ele>312.795959</ele><time>2021-08-12T10:09:37Z</time><extensions><speed>0.815776</speed><course>172.028473</course><hAcc>0.880289</hAcc><vAcc>0.701322</vAcc></extensions></trkpt>
      <trkpt lon="-3.342337" lat="54.562661"><ele>313.042389</ele><time>2021-08-12T10:09:38Z</time><extensions><speed>0.799759</speed><course>182.583130</course><hAcc>0.880367</hAcc><vAcc>0.701566</vAcc></extensions></trkpt>
      <trkpt lon="-3.342340" lat="54.562655"><ele>313.283875</ele><time>2021-08-12T10:09:39Z</time><extensions><speed>0.784411</speed><course>175.623672</course><hAcc>0.880448</hAcc><vAcc>0.701832</vAcc></extensions></trkpt>
      <trkpt lon="-3.342343" lat="54.562648"><ele>313.519257</ele><time>2021-08-12T10:09:40Z</time><extensions><speed>0.769896</speed><course>168.997635</course><hAcc>0.880534</hAcc><vAcc>0.702129</vAcc></extensions></trkpt>
      <trkpt lon="-3.342345" lat="54.562641"><ele>313.748352</ele><time>2021-08-12T10:09:41Z</time><extensions><speed>0.756353</speed><course>166.227890</course><hAcc>0.880623</hAcc><vAcc>0.702461</vAcc></extensions></trkpt>
      <trkpt lon="-3.342348" lat="54.562634"><ele>313.971802</ele><time>2021-08-12T10:09:42Z</time><extensions><speed>0.743963</speed><course>162.222458</course><hAcc>0.880714</hAcc><vAcc>0.702826</vAcc></extensions></trkpt>
      <trkpt lon="-3.342350" lat="54.562628"><ele>314.190521</ele><time>2021-08-12T10:09:43Z</time><extensions><speed>0.732996</speed><course>162.553314</course><hAcc>0.880806</hAcc><vAcc>0.703211</vAcc></extensions></trkpt>
      <trkpt lon="-3.342352" lat="54.562622"><ele>314.405334</ele><time>2021-08-12T10:09:44Z</time><extensions><speed>0.724306</speed><course>165.735123</course><hAcc>0.880896</hAcc><vAcc>0.703600</vAcc></extensions></trkpt>
      <trkpt lon="-3.342354" lat="54.562615"><ele>314.617340</ele><time>2021-08-12T10:09:45Z</time><extensions><speed>0.718820</speed><course>166.317276</course><hAcc>0.880980</hAcc><vAcc>0.703972</vAcc></extensions></trkpt>
      <trkpt lon="-3.342356" lat="54.562609"><ele>314.827271</ele><time>2021-08-12T10:09:46Z</time><extensions><speed>0.716768</speed><course>164.590683</course><hAcc>0.881056</hAcc><vAcc>0.704308</vAcc></extensions></trkpt>
      <trkpt lon="-3.342358" lat="54.562602"><ele>315.035095</ele><time>2021-08-12T10:09:47Z</time><extensions><speed>0.718049</speed><course>167.304306</course><hAcc>0.881121</hAcc><vAcc>0.704586</vAcc></extensions></trkpt>
      <trkpt lon="-3.342360" lat="54.562596"><ele>315.240631</ele><time>2021-08-12T10:09:48Z</time><extensions><speed>0.722495</speed><course>166.209152</course><hAcc>0.881174</hAcc><vAcc>0.704792</vAcc></extensions></trkpt>
      <trkpt lon="-3.342361" lat="54.562590"><ele>315.443695</ele><time>2021-08-12T10:09:49Z</time><extensions><speed>0.730135</speed><course>170.985672</course><hAcc>0.881213</hAcc><vAcc>0.704920</vAcc></extensions></trkpt>
      <trkpt lon="-3.342362" lat="54.562583"><ele>315.644287</ele><time>2021-08-12T10:09:50Z</time><extensions><speed>0.740741</speed><course>170.155151</course><hAcc>0.881239</hAcc><vAcc>0.704974</vAcc></extensions></trkpt>
      <trkpt lon="-3.342362" lat="54.562576"><ele>315.842621</ele><time>2021-08-12T10:09:51Z</time><extensions><speed>0.753306</speed><course>173.270996</course><hAcc>0.881253</hAcc><vAcc>0.704966</vAcc></extensions></trkpt>
      <trkpt lon="-3.342362" lat="54.562569"><ele>316.038605</ele><time>2021-08-12T10:09:52Z</time><extensions><speed>0.766806</speed><course>158.977570</course><hAcc>0.881257</hAcc><vAcc>0.704913</vAcc></extensions></trkpt>
      <trkpt lon="-3.342362" lat="54.562563"><ele>316.231842</ele><time>2021-08-12T10:09:53Z</time><extensions><speed>0.780989</speed><course>154.473984</course><hAcc>0.881253</hAcc><vAcc>0.704836</vAcc></extensions></trkpt>
      <trkpt lon="-3.342362" lat="54.562555"><ele>316.422119</ele><time>2021-08-12T10:09:54Z</time><extensions><speed>0.795875</speed><course>159.955185</course><hAcc>0.881244</hAcc><vAcc>0.704756</vAcc></extensions></trkpt>
      <trkpt lon="-3.342361" lat="54.562548"><ele>316.609406</ele><time>2021-08-12T10:09:55Z</time><extensions><speed>0.811265</speed><course>153.408218</course><hAcc>0.881231</hAcc><vAcc>0.704688</vAcc></extensions></trkpt>
      <trkpt lon="-3.342360" lat="54.562541"><ele>316.793823</ele><time>2021-08-12T10:09:56Z</time><extensions><speed>0.826964</speed><course>151.142990</course><hAcc>0.881217</hAcc><vAcc>0.704639</vAcc></extensions></trkpt>
      <trkpt lon="-3.342359" lat="54.562533"><ele>316.975708</ele><time>2021-08-12T10:09:57Z</time><extensions><speed>0.842628</speed><course>153.658844</course><hAcc>0.881200</hAcc><vAcc>0.704606</vAcc></extensions></trkpt>
      <trkpt lon="-3.342358" lat="54.562526"><ele>317.155670</ele><time>2021-08-12T10:09:58Z</time><extensions><speed>0.857203</speed><course>151.540298</course><hAcc>0.881182</hAcc><vAcc>0.704579</vAcc></extensions></trkpt>
      <trkpt lon="-3.342357" lat="54.562518"><ele>317.333862</ele><time>2021-08-12T10:09:59Z</time><extensions><speed>0.869920</speed><course>151.542770</course><hAcc>0.881161</hAcc><vAcc>0.704544</vAcc></extensions></trkpt>
      <trkpt lon="-3.342357" lat="54.562510"><ele>317.510162</ele><time>2021-08-12T10:10:00Z</time><extensions><speed>0.881123</speed><course>151.184875</course><hAcc>0.881135</hAcc><vAcc>0.704490</vAcc></extensions></trkpt>
      <trkpt lon="-3.342356" lat="54.562502"><ele>317.684509</ele><time>2021-08-12T10:10:01Z</time><extensions><speed>0.891290</speed><course>148.009705</course><hAcc>0.881104</hAcc><vAcc>0.704406</vAcc></extensions></trkpt>
      <trkpt lon="-3.342356" lat="54.562494"><ele>317.856995</ele><time>2021-08-12T10:10:02Z</time><extensions><speed>0.900421</speed><course>151.132050</course><hAcc>0.881065</hAcc><vAcc>0.704283</vAcc></extensions></trkpt>
      <trkpt lon="-3.342355" lat="54.562486"><ele>318.027802</ele><time>2021-08-12T10:10:03Z</time><extensions><speed>0.908139</speed><course>147.416718</course><hAcc>0.881020</hAcc><vAcc>0.704118</vAcc></extensions></trkpt>
      <trkpt lon="-3.342355" lat="54.562478"><ele>318.197632</ele><time>2021-08-12T10:10:04Z</time><extensions><speed>0.914170</speed><course>145.946671</course><hAcc>0.880966</hAcc><vAcc>0.703909</vAcc></extensions></trkpt>
      <trkpt lon="-3.342356" lat="54.562470"><ele>318.367401</ele><time>2021-08-12T10:10:05Z</time><extensions><speed>0.918246</speed><course>158.213196</course><hAcc>0.880906</hAcc><vAcc>0.703665</vAcc></extensions></trkpt>
      <trkpt lon="-3.342356" lat="54.562461"><ele>318.537750</ele><time>2021-08-12T10:10:06Z</time><extensions><speed>0.919894</speed><course>165.532318</course><hAcc>0.880839</hAcc><vAcc>0.703396</vAcc></extensions></trkpt>
      <trkpt lon="-3.342356" lat="54.562453"><ele>318.709015</ele><time>2021-08-12T10:10:07Z</time><extensions><speed>0.918696</speed><course>155.828384</course><hAcc>0.880769</hAcc><vAcc>0.703113</vAcc></extensions></trkpt>
      <trkpt lon="-3.342357" lat="54.562445"><ele>318.881714</ele><time>2021-08-12T10:10:08Z</time><extensions><speed>0.914791</speed><course>158.510941</course><hAcc>0.880696</hAcc><vAcc>0.702824</vAcc></extensions></trkpt>
      <trkpt lon="-3.342358" lat="54.562437"><ele>319.056641</ele><time>2021-08-12T10:10:09Z</time><extensions><speed>0.909164</speed><course>158.599030</course><hAcc>0.880624</hAcc><vAcc>0.702535</vAcc></extensions></trkpt>
      <trkpt lon="-3.342359" lat="54.562429"><ele>319.234711</ele><time>2021-08-12T10:10:10Z</time><extensions><speed>0.902739</speed><course>159.122437</course><hAcc>0.880554</hAcc><vAcc>0.702252</vAcc></extensions></trkpt>
      <trkpt lon="-3.342360" lat="54.562421"><ele>319.416595</ele><time>2021-08-12T10:10:11Z</time><extensions><speed>0.895891</speed><course>161.654770</course><hAcc>0.880489</hAcc><vAcc>0.701988</vAcc></extensions></trkpt>
      <trkpt lon="-3.342361" lat="54.562413"><ele>319.602142</ele><time>2021-08-12T10:10:12Z</time><extensions><speed>0.888461</speed><course>168.809372</course><hAcc>0.880433</hAcc><vAcc>0.701753</vAcc></extensions></trkpt>
      <trkpt lon="-3.342362" lat="54.562405"><ele>319.790710</ele><time>2021-08-12T10:10:13Z</time><extensions><speed>0.879901</speed><course>164.604691</course><hAcc>0.880385</hAcc><vAcc>0.701559</vAcc></extensions></trkpt>
      <trkpt lon="-3.342363" lat="54.562397"><ele>319.981598</ele><time>2021-08-12T10:10:14Z</time><extensions><speed>0.870008</speed><course>171.894135</course><hAcc>0.880348</hAcc><vAcc>0.701416</vAcc></extensions></trkpt>
      <trkpt lon="-3.342365" lat="54.562389"><ele>320.174500</ele><time>2021-08-12T10:10:15Z</time><extensions><speed>0.859165</speed><course>183.275330</course><hAcc>0.880323</hAcc><vAcc>0.701327</vAcc></extensions></trkpt>
      <trkpt lon="-3.342366" lat="54.562382"><ele>320.369324</ele><time>2021-08-12T10:10:16Z</time><extensions><speed>0.848246</speed><course>184.743423</course><hAcc>0.880310</hAcc><vAcc>0.701292</vAcc></extensions></trkpt>
      <trkpt lon="-3.342368" lat="54.562374"><ele>320.565796</ele><time>2021-08-12T10:10:17Z</time><extensions><speed>0.837698</speed><course>187.377213</course><hAcc>0.880309</hAcc><vAcc>0.701308</vAcc></extensions></trkpt>
      <trkpt lon="-3.342369" lat="54.562367"><ele>320.763367</ele><time>2021-08-12T10:10:18Z</time><extensions><speed>0.827460</speed><course>178.027603</course><hAcc>0.880319</hAcc><vAcc>0.701366</vAcc></extensions></trkpt>
      <trkpt lon="-3.342371" lat="54.562359"><ele>320.960754</ele><time>2021-08-12T10:10:19Z</time><extensions><speed>0.817630</speed><course>178.136368</course><hAcc>0.880339</hAcc><vAcc>0.701459</vAcc></extensions></trkpt>
      <trkpt lon="-3.342373" lat="54.562352"><ele>321.156281</ele><time>2021-08-12T10:10:20Z</time><extensions><speed>0.808057</speed><course>181.274490</course><hAcc>0.880368</hAcc><vAcc>0.701580</vAcc></extensions></trkpt>
      <trkpt lon="-3.342375" lat="54.562345"><ele>321.348633</ele><time>2021-08-12T10:10:21Z</time><extensions><speed>0.799042</speed><course>197.035065</course><hAcc>0.880405</hAcc><vAcc>0.701722</vAcc></extensions></trkpt>
      <trkpt lon="-3.342377" lat="54.562338"><ele>321.536896</ele><time>2021-08-12T10:10:22Z</time><extensions><speed>0.791125</speed><course>204.692612</course><hAcc>0.880449</hAcc><vAcc>0.701882</vAcc></extensions></trkpt>
      <trkpt lon="-3.342379" lat="54.562331"><ele>321.720337</ele><time>2021-08-12T10:10:23Z</time><extensions><speed>0.784278</speed><course>213.039078</course><hAcc>0.880499</hAcc><vAcc>0.702059</vAcc></extensions></trkpt>
      <trkpt lon="-3.342382" lat="54.562324"><ele>321.898468</ele><time>2021-08-12T10:10:24Z</time><extensions><speed>0.778411</speed><course>220.763565</course><hAcc>0.880554</hAcc><vAcc>0.702255</vAcc></extensions></trkpt>
      <trkpt lon="-3.342385" lat="54.562317"><ele>322.071075</ele><time>2021-08-12T10:10:25Z</time><extensions><speed>0.772852</speed><course>226.732666</course><hAcc>0.880615</hAcc><vAcc>0.702468</vAcc></extensions></trkpt>
      <trkpt lon="-3.342387" lat="54.562311"><ele>322.237854</ele><time>2021-08-12T10:10:26Z</time><extensions><speed>0.766907</speed><course>231.810226</course><hAcc>0.880678</hAcc><vAcc>0.702697</vAcc></extensions></trkpt>
      <trkpt lon="-3.342390" lat="54.562304"><ele>322.398071</ele><time>2021-08-12T10:10:27Z</time><extensions><speed>0.760422</speed><course>257.258179</course><hAcc>0.880744</hAcc><vAcc>0.702944</vAcc></extensions></trkpt>
      <trkpt lon="-3.342393" lat="54.562297"><ele>322.551178</ele><time>2021-08-12T10:10:28Z</time><extensions><speed>0.754126</speed><course>266.164734</course><hAcc>0.880810</hAcc><vAcc>0.703205</vAcc></extensions></trkpt>
      <trkpt lon="-3.342395" lat="54.562291"><ele>322.697083</ele><time>2021-08-12T10:10:29Z</time><extensions><speed>0.749083</speed><course>266.164734</course><hAcc>0.880875</hAcc><vAcc>0.703475</vAcc></extensions></trkpt>
      <trkpt lon="-3.342397" lat="54.562284"><ele>322.836487</ele><time>2021-08-12T10:10:30Z</time><extensions><speed>0.745947</speed><course>266.164734</course><hAcc>0.880936</hAcc><vAcc>0.703742</vAcc></extensions></trkpt>
      <trkpt lon="-3.342399" lat="54.562277"><ele>322.971008</ele><time>2021-08-12T10:10:31Z</time><extensions><speed>0.745202</speed><course>220.132019</course><hAcc>0.880991</hAcc><vAcc>0.703990</vAcc></extensions></trkpt>
      <trkpt lon="-3.342401" lat="54.562271"><ele>323.102844</ele><time>2021-08-12T10:10:32Z</time><extensions><speed>0.746949</speed><course>228.232590</course><hAcc>0.881039</hAcc><vAcc>0.704200</vAcc></extensions></trkpt>
      <trkpt lon="-3.342403" lat="54.562264"><ele>323.233643</ele><time>2021-08-12T10:10:33Z</time><extensions><speed>0.750973</speed><course>234.079605</course><hAcc>0.881076</hAcc><vAcc>0.704358</vAcc></extensions></trkpt>
      <trkpt lon="-3.342404" lat="54.562257"><ele>323.364166</ele><time>2021-08-12T10:10:34Z</time><extensions><speed>0.756700</speed><course>246.469162</course><hAcc>0.881102</hAcc><vAcc>0.704456</vAcc></extensions></trkpt>
      <trkpt lon="-3.342405" lat="54.562251"><ele>323.494995</ele><time>2021-08-12T10:10:35Z</time><extensions><speed>0.763541</speed><course>245.207291</course><hAcc>0.881116</hAcc><vAcc>0.704496</vAcc></extensions></trkpt>
      <trkpt lon="-3.342406" lat="54.562244"><ele>323.626434</ele><time>2021-08-12T10:10:36Z</time><extensions><speed>0.771095</speed><course>243.898834</course><hAcc>0.881118</hAcc><vAcc>0.704483</vAcc></extensions></trkpt>
      <trkpt lon="-3.342406" lat="54.562237"><ele>323.758423</ele><time>2021-08-12T10:10:37Z</time><extensions><speed>0.778810</speed><course>238.112976</course><hAcc>0.881108</hAcc><vAcc>0.704423</vAcc></extensions></trkpt>
      <trkpt lon="-3.342406" lat="54.562230"><ele>323.890717</ele><time>2021-08-12T10:10:38Z</time><extensions><speed>0.786609</speed><course>238.308395</course><hAcc>0.881088</hAcc><vAcc>0.704323</vAcc></extensions></trkpt>
      <trkpt lon="-3.342406" lat="54.562223"><ele>324.023285</ele><time>2021-08-12T10:10:39Z</time><extensions><speed>0.795311</speed><course>242.479843</course><hAcc>0.881060</hAcc><vAcc>0.704193</vAcc></extensions></trkpt>
      <trkpt lon="-3.342406" lat="54.562215"><ele>324.156525</ele><time>2021-08-12T10:10:40Z</time><extensions><speed>0.805357</speed><course>241.402863</course><hAcc>0.881025</hAcc><vAcc>0.704040</vAcc></extensions></trkpt>
      <trkpt lon="-3.342406" lat="54.562208"><ele>324.290833</ele><time>2021-08-12T10:10:41Z</time><extensions><speed>0.816510</speed><course>237.836914</course><hAcc>0.880987</hAcc><vAcc>0.703871</vAcc></extensions></trkpt>
      <trkpt lon="-3.342405" lat="54.562201"><ele>324.426392</ele><time>2021-08-12T10:10:42Z</time><extensions><speed>0.828312</speed><course>241.232681</course><hAcc>0.880947</hAcc><vAcc>0.703697</vAcc></extensions></trkpt>
      <trkpt lon="-3.342405" lat="54.562193"><ele>324.563324</ele><time>2021-08-12T10:10:43Z</time><extensions><speed>0.840229</speed><course>262.141510</course><hAcc>0.880907</hAcc><vAcc>0.703527</vAcc></extensions></trkpt>
      <trkpt lon="-3.342404" lat="54.562186"><ele>324.702087</ele><time>2021-08-12T10:10:44Z</time><extensions><speed>0.851803</speed><course>261.447266</course><hAcc>0.880870</hAcc><vAcc>0.703373</vAcc></extensions></trkpt>
      <trkpt lon="-3.342404" lat="54.562178"><ele>324.843353</ele><time>2021-08-12T10:10:45Z</time><extensions><speed>0.862745</speed><course>261.925140</course><hAcc>0.880835</hAcc><vAcc>0.703243</vAcc></extensions></trkpt>
      <trkpt lon="-3.342404" lat="54.562170"><ele>324.987396</ele><time>2021-08-12T10:10:46Z</time><extensions><speed>0.872853</speed><course>266.740814</course><hAcc>0.880805</hAcc><vAcc>0.703140</vAcc></extensions></trkpt>
      <trkpt lon="-3.342404" lat="54.562162"><ele>325.134125</ele><time>2021-08-12T10:10:47Z</time><extensions><speed>0.882084</speed><course>263.896973</course><hAcc>0.880780</hAcc><vAcc>0.703061</vAcc></extensions></trkpt>
      <trkpt lon="-3.342403" lat="54.562154"><ele>325.283447</ele><time>2021-08-12T10:10:48Z</time><extensions><speed>0.890368</speed><course>261.924744</course><hAcc>0.880759</hAcc><vAcc>0.703003</vAcc></extensions></trkpt>
      <trkpt lon="-3.342403" lat="54.562146"><ele>325.435364</ele><time>2021-08-12T10:10:49Z</time><extensions><speed>0.897728</speed><course>264.486481</course><hAcc>0.880741</hAcc><vAcc>0.702959</vAcc></extensions></trkpt>
      <trkpt lon="-3.342404" lat="54.562138"><ele>325.589935</ele><time>2021-08-12T10:10:50Z</time><extensions><speed>0.904053</speed><course>263.217468</course><hAcc>0.880728</hAcc><vAcc>0.702924</vAcc></extensions></trkpt>
      <trkpt lon="-3.342404" lat="54.562130"><ele>325.747162</ele><time>2021-08-12T10:10:51Z</time><extensions><speed>0.908941</speed><course>266.412231</course><hAcc>0.880716</hAcc><vAcc>0.702892</vAcc></extensions></trkpt>
      <trkpt lon="-3.342404" lat="54.562122"><ele>325.906342</ele><time>2021-08-12T10:10:52Z</time><extensions><speed>0.911993</speed><course>270.399445</course><hAcc>0.880707</hAcc><vAcc>0.702859</vAcc></extensions></trkpt>
      <trkpt lon="-3.342404" lat="54.562114"><ele>326.066071</ele><time>2021-08-12T10:10:53Z</time><extensions><speed>0.913348</speed><course>260.295807</course><hAcc>0.880699</hAcc><vAcc>0.702824</vAcc></extensions></trkpt>
      <trkpt lon="-3.342404" lat="54.562106"><ele>326.225037</ele><time>2021-08-12T10:10:54Z</time><extensions><speed>0.913598</speed><course>254.591400</course><hAcc>0.880693</hAcc><vAcc>0.702788</vAcc></extensions></trkpt>
      <trkpt lon="-3.342405" lat="54.562097"><ele>326.382538</ele><time>2021-08-12T10:10:55Z</time><extensions><speed>0.913292</speed><course>246.407776</course><hAcc>0.880686</hAcc><vAcc>0.702758</vAcc></extensions></trkpt>
      <trkpt lon="-3.342405" lat="54.562089"><ele>326.538666</ele><time>2021-08-12T10:10:56Z</time><extensions><speed>0.913129</speed><course>240.825714</course><hAcc>0.880680</hAcc><vAcc>0.702733</vAcc></extensions></trkpt>
      <trkpt lon="-3.342405" lat="54.562081"><ele>326.694061</ele><time>2021-08-12T10:10:57Z</time><extensions><speed>0.913692</speed><course>235.078873</course><hAcc>0.880672</hAcc><vAcc>0.702714</vAcc></extensions></trkpt>
      <trkpt lon="-3.342405" lat="54.562073"><ele>326.849213</ele><time>2021-08-12T10:10:58Z</time><extensions><speed>0.915503</speed><course>230.996750</course><hAcc>0.880663</hAcc><vAcc>0.702698</vAcc></extensions></trkpt>
      <trkpt lon="-3.342406" lat="54.562065"><ele>327.004272</ele><time>2021-08-12T10:10:59Z</time><extensions><speed>0.918867</speed><course>237.371124</course><hAcc>0.880651</hAcc><vAcc>0.702679</vAcc></extensions></trkpt>
      <trkpt lon="-3.342406" lat="54.562056"><ele>327.159363</ele><time>2021-08-12T10:11:00Z</time><extensions><speed>0.923278</speed><course>233.251434</course><hAcc>0.880634</hAcc><vAcc>0.702649</vAcc></extensions></trkpt>
      <trkpt lon="-3.342406" lat="54.562048"><ele>327.314697</ele><time>2021-08-12T10:11:01Z</time><extensions><speed>0.928014</speed><course>229.059296</course><hAcc>0.880611</hAcc><vAcc>0.702596</vAcc></extensions></trkpt>
      <trkpt lon="-3.342406" lat="54.562040"><ele>327.470428</ele><time>2021-08-12T10:11:02Z</time><extensions><speed>0.932906</speed><course>237.299759</course><hAcc>0.880583</hAcc><vAcc>0.702508</vAcc></extensions></trkpt>
      <trkpt lon="-3.342405" lat="54.562031"><ele>327.626526</ele><time>2021-08-12T10:11:03Z</time><extensions><speed>0.937893</speed><course>228.636597</course><hAcc>0.880547</hAcc><vAcc>0.702381</vAcc></extensions></trkpt>
      <trkpt lon="-3.342405" lat="54.562023"><ele>327.782867</ele><time>2021-08-12T10:11:04Z</time><extensions><speed>0.942969</speed><course>232.788193</course><hAcc>0.880505</hAcc><vAcc>0.702217</vAcc></extensions></trkpt>
      <trkpt lon="-3.342405" lat="54.562014"><ele>327.939636</ele><time>2021-08-12T10:11:05Z</time><extensions><speed>0.947831</speed><course>226.630402</course><hAcc>0.880457</hAcc><vAcc>0.702021</vAcc></extensions></trkpt>
      <trkpt lon="-3.342404" lat="54.562006"><ele>328.096985</ele><time>2021-08-12T10:11:06Z</time><extensions><speed>0.952039</speed><course>231.208252</course><hAcc>0.880405</hAcc><vAcc>0.701802</vAcc></extensions></trkpt>
      <trkpt lon="-3.342403" lat="54.561997"><ele>328.254517</ele><time>2021-08-12T10:11:07Z</time><extensions><speed>0.955280</speed><course>221.171371</course><hAcc>0.880351</hAcc><vAcc>0.701573</vAcc></extensions></trkpt>
      <trkpt lon="-3.342402" lat="54.561989"><ele>328.411743</ele><time>2021-08-12T10:11:08Z</time><extensions><speed>0.957417</speed><course>226.944763</course><hAcc>0.880297</hAcc><vAcc>0.701343</vAcc></extensions></trkpt>
      <trkpt lon="-3.342401" lat="54.561980"><ele>328.568665</ele><time>2021-08-12T10:11:09Z</time><extensions><speed>0.958713</speed><course>229.173843</course><hAcc>0.880246</hAcc><vAcc>0.701127</vAcc></extensions></trkpt>
      <trkpt lon="-3.342401" lat="54.561971"><ele>328.725647</ele><time>2021-08-12T10:11:10Z</time><extensions><speed>0.959138</speed><course>219.367737</course><hAcc>0.880202</hAcc><vAcc>0.700936</vAcc></extensions></trkpt>
      <trkpt lon="-3.342400" lat="54.561963"><ele>328.882874</ele><time>2021-08-12T10:11:11Z</time><extensions><speed>0.958104</speed><course>228.114029</course><hAcc>0.880168</hAcc><vAcc>0.700782</vAcc></extensions></trkpt>
      <trkpt lon="-3.342399" lat="54.561954"><ele>329.040314</ele><time>2021-08-12T10:11:12Z</time><extensions><speed>0.955049</speed><course>227.965424</course><hAcc>0.880145</hAcc><vAcc>0.700675</vAcc></extensions></trkpt>
      <trkpt lon="-3.342399" lat="54.561946"><ele>329.197784</ele><time>2021-08-12T10:11:13Z</time><extensions><speed>0.950312</speed><course>229.338791</course><hAcc>0.880137</hAcc><vAcc>0.700625</vAcc></extensions></trkpt>
      <trkpt lon="-3.342399" lat="54.561937"><ele>329.355011</ele><time>2021-08-12T10:11:14Z</time><extensions><speed>0.945023</speed><course>231.293549</course><hAcc>0.880146</hAcc><vAcc>0.700640</vAcc></extensions></trkpt>
      <trkpt lon="-3.342400" lat="54.561929"><ele>329.511871</ele><time>2021-08-12T10:11:15Z</time><extensions><speed>0.940212</speed><course>238.754257</course><hAcc>0.880174</hAcc><vAcc>0.700725</vAcc></extensions></trkpt>
      <trkpt lon="-3.342401" lat="54.561920"><ele>329.668762</ele><time>2021-08-12T10:11:16Z</time><extensions><speed>0.936642</speed><course>238.093399</course><hAcc>0.880220</hAcc><vAcc>0.700887</vAcc></extensions></trkpt>
      <trkpt lon="-3.342402" lat="54.561912"><ele>329.826294</ele><time>2021-08-12T10:11:17Z</time><extensions><speed>0.935027</speed><course>230.021591</course><hAcc>0.880285</hAcc><vAcc>0.701128</vAcc></extensions></trkpt>
      <trkpt lon="-3.342404" lat="54.561904"><ele>329.985046</ele><time>2021-08-12T10:11:18Z</time><extensions><speed>0.935804</speed><course>229.821030</course><hAcc>0.880369</hAcc><vAcc>0.701446</vAcc></extensions></trkpt>
      <trkpt lon="-3.342407" lat="54.561895"><ele>330.145569</ele><time>2021-08-12T10:11:19Z</time><extensions><speed>0.939025</speed><course>228.941864</course><hAcc>0.880469</hAcc><vAcc>0.701837</vAcc></extensions></trkpt>
      <trkpt lon="-3.342410" lat="54.561887"><ele>330.308289</ele><time>2021-08-12T10:11:20Z</time><extensions><speed>0.944734</speed><course>224.795181</course><hAcc>0.880582</hAcc><vAcc>0.702289</vAcc></extensions></trkpt>
      <trkpt lon="-3.342414" lat="54.561879"><ele>330.473328</ele><time>2021-08-12T10:11:21Z</time><extensions><speed>0.953175</speed><course>216.307693</course><hAcc>0.880706</hAcc><vAcc>0.702787</vAcc></extensions></trkpt>
      <trkpt lon="-3.342418" lat="54.561871"><ele>330.640839</ele><time>2021-08-12T10:11:22Z</time><extensions><speed>0.964254</speed><course>222.735626</course><hAcc>0.880836</hAcc><vAcc>0.703314</vAcc></extensions></trkpt>
      <trkpt lon="-3.342423" lat="54.561862"><ele>330.811127</ele><time>2021-08-12T10:11:23Z</time><extensions><speed>0.978116</speed><course>223.242310</course><hAcc>0.880969</hAcc><vAcc>0.703849</vAcc></extensions></trkpt>
      <trkpt lon="-3.342429" lat="54.561854"><ele>330.984985</ele><time>2021-08-12T10:11:24Z</time><extensions><speed>0.994983</speed><course>230.312881</course><hAcc>0.881099</hAcc><vAcc>0.704371</vAcc></extensions></trkpt>
      <trkpt lon="-3.342435" lat="54.561846"><ele>331.163605</ele><time>2021-08-12T10:11:25Z</time><extensions><speed>1.014035</speed><course>225.102798</course><hAcc>0.881222</hAcc><vAcc>0.704860</vAcc></extensions></trkpt>
      <trkpt lon="-3.342441" lat="54.561837"><ele>331.348145</ele><time>2021-08-12T10:11:26Z</time><extensions><speed>1.033621</speed><course>221.291122</course><hAcc>0.881335</hAcc><vAcc>0.705303</vAcc></extensions></trkpt>
      <trkpt lon="-3.342448" lat="54.561829"><ele>331.539337</ele><time>2021-08-12T10:11:27Z</time><extensions><speed>1.051916</speed><course>215.623337</course><hAcc>0.881433</hAcc><vAcc>0.705687</vAcc></extensions></trkpt>
      <trkpt lon="-3.342456" lat="54.561821"><ele>331.737640</ele><time>2021-08-12T10:11:28Z</time><extensions><speed>1.067580</speed><course>211.427963</course><hAcc>0.881515</hAcc><vAcc>0.706003</vAcc></extensions></trkpt>
      <trkpt lon="-3.342464" lat="54.561812"><ele>331.943878</ele><time>2021-08-12T10:11:29Z</time><extensions><speed>1.080077</speed><course>214.863312</course><hAcc>0.881578</hAcc><vAcc>0.706244</vAcc></extensions></trkpt>
      <trkpt lon="-3.342471" lat="54.561803"><ele>332.158569</ele><time>2021-08-12T10:11:30Z</time><extensions><speed>1.089210</speed><course>209.288147</course><hAcc>0.881622</hAcc><vAcc>0.706403</vAcc></extensions></trkpt>
      <trkpt lon="-3.342479" lat="54.561795"><ele>332.381531</ele><time>2021-08-12T10:11:31Z</time><extensions><speed>1.094870</speed><course>213.399612</course><hAcc>0.881646</hAcc><vAcc>0.706481</vAcc></extensions></trkpt>
      <trkpt lon="-3.342487" lat="54.561786"><ele>332.612457</ele><time>2021-08-12T10:11:32Z</time><extensions><speed>1.097273</speed><course>209.037766</course><hAcc>0.881651</hAcc><vAcc>0.706478</vAcc></extensions></trkpt>
      <trkpt lon="-3.342496" lat="54.561777"><ele>332.850830</ele><time>2021-08-12T10:11:33Z</time><extensions><speed>1.096063</speed><course>198.395279</course><hAcc>0.881640</hAcc><vAcc>0.706401</vAcc></extensions></trkpt>
      <trkpt lon="-3.342504" lat="54.561769"><ele>333.095581</ele><time>2021-08-12T10:11:34Z</time><extensions><speed>1.091381</speed><course>210.540466</course><hAcc>0.881614</hAcc><vAcc>0.706261</vAcc></extensions></trkpt>
      <trkpt lon="-3.342512" lat="54.561760"><ele>333.345459</ele><time>2021-08-12T10:11:35Z</time><extensions><speed>1.084410</speed><course>216.565186</course><hAcc>0.881576</hAcc><vAcc>0.706073</vAcc></extensions></trkpt>
      <trkpt lon="-3.342520" lat="54.561752"><ele>333.600159</ele><time>2021-08-12T10:11:36Z</time><extensions><speed>1.075930</speed><course>216.875626</course><hAcc>0.881529</hAcc><vAcc>0.705855</vAcc></extensions></trkpt>
      <trkpt lon="-3.342528" lat="54.561743"><ele>333.859955</ele><time>2021-08-12T10:11:37Z</time><extensions><speed>1.066508</speed><course>213.073944</course><hAcc>0.881475</hAcc><vAcc>0.705622</vAcc></extensions></trkpt>
      <trkpt lon="-3.342535" lat="54.561735"><ele>334.124939</ele><time>2021-08-12T10:11:38Z</time><extensions><speed>1.056523</speed><course>206.496414</course><hAcc>0.881417</hAcc><vAcc>0.705387</vAcc></extensions></trkpt>
      <trkpt lon="-3.342543" lat="54.561726"><ele>334.394897</ele><time>2021-08-12T10:11:39Z</time><extensions><speed>1.045953</speed><course>207.745499</course><hAcc>0.881357</hAcc><vAcc>0.705158</vAcc></extensions></trkpt>
      <trkpt lon="-3.342550" lat="54.561718"><ele>334.669220</ele><time>2021-08-12T10:11:40Z</time><extensions><speed>1.034744</speed><course>210.428009</course><hAcc>0.881297</hAcc><vAcc>0.704941</vAcc></extensions></trkpt>
      <trkpt lon="-3.342556" lat="54.561710"><ele>334.946686</ele><time>2021-08-12T10:11:41Z</time><extensions><speed>1.022766</speed><course>207.611023</course><hAcc>0.881238</hAcc><vAcc>0.704734</vAcc></extensions></trkpt>
      <trkpt lon="-3.342563" lat="54.561701"><ele>335.226257</ele><time>2021-08-12T10:11:42Z</time><extensions><speed>1.009655</speed><course>210.041336</course><hAcc>0.881180</hAcc><vAcc>0.704537</vAcc></extensions></trkpt>
      <trkpt lon="-3.342569" lat="54.561693"><ele>335.507141</ele><time>2021-08-12T10:11:43Z</time><extensions><speed>0.995371</speed><course>211.119202</course><hAcc>0.881124</hAcc><vAcc>0.704347</vAcc></extensions></trkpt>
      <trkpt lon="-3.342574" lat="54.561685"><ele>335.788483</ele><time>2021-08-12T10:11:44Z</time><extensions><speed>0.980156</speed><course>215.032761</course><hAcc>0.881071</hAcc><vAcc>0.704162</vAcc></extensions></trkpt>
      <trkpt lon="-3.342579" lat="54.561676"><ele>336.069275</ele><time>2021-08-12T10:11:45Z</time><extensions><speed>0.963978</speed><course>215.892059</course><hAcc>0.881021</hAcc><vAcc>0.703979</vAcc></extensions></trkpt>
      <trkpt lon="-3.342583" lat="54.561668"><ele>336.348022</ele><time>2021-08-12T10:11:46Z</time><extensions><speed>0.946674</speed><course>208.710144</course><hAcc>0.880974</hAcc><vAcc>0.703798</vAcc></extensions></trkpt>
      <trkpt lon="-3.342587" lat="54.561660"><ele>336.622986</ele><time>2021-08-12T10:11:47Z</time><extensions><speed>0.927900</speed><course>204.101471</course><hAcc>0.880931</hAcc><vAcc>0.703625</vAcc></extensions></trkpt>
      <trkpt lon="-3.342590" lat="54.561652"><ele>336.891998</ele><time>2021-08-12T10:11:48Z</time><extensions><speed>0.907061</speed><course>208.109482</course><hAcc>0.880892</hAcc><vAcc>0.703468</vAcc></extensions></trkpt>
      <trkpt lon="-3.342592" lat="54.561644"><ele>337.152771</ele><time>2021-08-12T10:11:49Z</time><extensions><speed>0.884243</speed><course>201.394348</course><hAcc>0.880858</hAcc><vAcc>0.703335</vAcc></extensions></trkpt>
      <trkpt lon="-3.342593" lat="54.561636"><ele>337.403137</ele><time>2021-08-12T10:11:50Z</time><extensions><speed>0.860029</speed><course>199.619629</course><hAcc>0.880831</hAcc><vAcc>0.703231</vAcc></extensions></trkpt>
      <trkpt lon="-3.342594" lat="54.561629"><ele>337.640869</ele><time>2021-08-12T10:11:51Z</time><extensions><speed>0.834408</speed><course>197.929596</course><hAcc>0.880812</hAcc><vAcc>0.703156</vAcc></extensions></trkpt>
      <trkpt lon="-3.342595" lat="54.561621"><ele>337.863495</ele><time>2021-08-12T10:11:52Z</time><extensions><speed>0.807428</speed><course>207.567093</course><hAcc>0.880801</hAcc><vAcc>0.703109</vAcc></extensions></trkpt>
      <trkpt lon="-3.342595" lat="54.561614"><ele>338.068787</ele><time>2021-08-12T10:11:53Z</time><extensions><speed>0.779807</speed><course>211.052994</course><hAcc>0.880801</hAcc><vAcc>0.703093</vAcc></extensions></trkpt>
      <trkpt lon="-3.342595" lat="54.561607"><ele>338.255554</ele><time>2021-08-12T10:11:54Z</time><extensions><speed>0.752126</speed><course>209.388504</course><hAcc>0.880812</hAcc><vAcc>0.703111</vAcc></extensions></trkpt>
      <trkpt lon="-3.342595" lat="54.561601"><ele>338.424072</ele><time>2021-08-12T10:11:55Z</time><extensions><speed>0.724737</speed><course>208.868835</course><hAcc>0.880837</hAcc><vAcc>0.703170</vAcc></extensions></trkpt>
      <trkpt lon="-3.342595" lat="54.561594"><ele>338.575958</ele><time>2021-08-12T10:11:56Z</time><extensions><speed>0.698055</speed><course>206.360352</course><hAcc>0.880876</hAcc><vAcc>0.703282</vAcc></extensions></trkpt>
      <trkpt lon="-3.342596" lat="54.561588"><ele>338.713440</ele><time>2021-08-12T10:11:57Z</time><extensions><speed>0.672779</speed><course>191.999023</course><hAcc>0.880930</hAcc><vAcc>0.703456</vAcc></extensions></trkpt>
      <trkpt lon="-3.342597" lat="54.561582"><ele>338.838562</ele><time>2021-08-12T10:11:58Z</time><extensions><speed>0.650317</speed><course>180.180435</course><hAcc>0.880999</hAcc><vAcc>0.703701</vAcc></extensions></trkpt>
      <trkpt lon="-3.342598" lat="54.561576"><ele>338.953491</ele><time>2021-08-12T10:11:59Z</time><extensions><speed>0.632832</speed><course>177.079514</course><hAcc>0.881083</hAcc><vAcc>0.704021</vAcc></extensions></trkpt>
      <trkpt lon="-3.342601" lat="54.561571"><ele>339.060669</ele><time>2021-08-12T10:12:00Z</time><extensions><speed>0.623369</speed><course>177.153732</course><hAcc>0.881179</hAcc><vAcc>0.704411</vAcc></extensions></trkpt>
      <trkpt lon="-3.342604" lat="54.561566"><ele>339.163269</ele><time>2021-08-12T10:12:01Z</time><extensions><speed>0.625162</speed><course>181.696198</course><hAcc>0.881286</hAcc><vAcc>0.704859</vAcc></extensions></trkpt>
      <trkpt lon="-3.342609" lat="54.561561"><ele>339.265381</ele><time>2021-08-12T10:12:02Z</time><extensions><speed>0.639748</speed><course>179.829865</course><hAcc>0.881401</hAcc><vAcc>0.705345</vAcc></extensions></trkpt>
      <trkpt lon="-3.342614" lat="54.561556"><ele>339.371521</ele><time>2021-08-12T10:12:03Z</time><extensions><speed>0.665619</speed><course>189.386703</course><hAcc>0.881521</hAcc><vAcc>0.705845</vAcc></extensions></trkpt>
      <trkpt lon="-3.342621" lat="54.561551"><ele>339.486053</ele><time>2021-08-12T10:12:04Z</time><extensions><speed>0.698694</speed><course>186.380737</course><hAcc>0.881642</hAcc><vAcc>0.706338</vAcc></extensions></trkpt>
      <trkpt lon="-3.342628" lat="54.561546"><ele>339.613220</ele><time>2021-08-12T10:12:05Z</time><extensions><speed>0.733922</speed><course>181.688873</course><hAcc>0.881762</hAcc><vAcc>0.706809</vAcc></extensions></trkpt>
      <trkpt lon="-3.342636" lat="54.561542"><ele>339.756714</ele><time>2021-08-12T10:12:06Z</time><extensions><speed>0.767624</speed><course>178.930069</course><hAcc>0.881880</hAcc><vAcc>0.707244</vAcc></extensions></trkpt>
      <trkpt lon="-3.342645" lat="54.561537"><ele>339.919281</ele><time>2021-08-12T10:12:07Z</time><extensions><speed>0.799162</speed><course>176.699600</course><hAcc>0.881993</hAcc><vAcc>0.707638</vAcc></extensions></trkpt>
      <trkpt lon="-3.342655" lat="54.561532"><ele>340.102448</ele><time>2021-08-12T10:12:08Z</time><extensions><speed>0.829148</speed><course>171.339767</course><hAcc>0.882102</hAcc><vAcc>0.707991</vAcc></extensions></trkpt>
      <trkpt lon="-3.342666" lat="54.561528"><ele>340.306213</ele><time>2021-08-12T10:12:09Z</time><extensions><speed>0.857768</speed><course>176.652649</course><hAcc>0.882205</hAcc><vAcc>0.708320</vAcc></extensions></trkpt>
      <trkpt lon="-3.342676" lat="54.561523"><ele>340.529633</ele><time>2021-08-12T10:12:10Z</time><extensions><speed>0.884606</speed><course>186.094208</course><hAcc>0.882305</hAcc><vAcc>0.708644</vAcc></extensions></trkpt>
      <trkpt lon="-3.342688" lat="54.561519"><ele>340.771423</ele><time>2021-08-12T10:12:11Z</time><extensions><speed>0.908884</speed><course>174.229980</course><hAcc>0.882400</hAcc><vAcc>0.708975</vAcc></extensions></trkpt>
      <trkpt lon="-3.342700" lat="54.561514"><ele>341.029999</ele><time>2021-08-12T10:12:12Z</time><extensions><speed>0.929564</speed><course>169.447403</course><hAcc>0.882492</hAcc><vAcc>0.709315</vAcc></extensions></trkpt>
      <trkpt lon="-3.342712" lat="54.561510"><ele>341.303192</ele><time>2021-08-12T10:12:13Z</time><extensions><speed>0.945924</speed><course>184.388611</course><hAcc>0.882583</hAcc><vAcc>0.709657</vAcc></extensions></trkpt>
      <trkpt lon="-3.342725" lat="54.561505"><ele>341.588165</ele><time>2021-08-12T10:12:14Z</time><extensions><speed>0.958023</speed><course>177.773834</course><hAcc>0.882672</hAcc><vAcc>0.709994</vAcc></extensions></trkpt>
      <trkpt lon="-3.342738" lat="54.561501"><ele>341.882446</ele><time>2021-08-12T10:12:15Z</time><extensions><speed>0.966738</speed><course>188.552094</course><hAcc>0.882760</hAcc><vAcc>0.710319</vAcc></extensions></trkpt>
      <trkpt lon="-3.342751" lat="54.561497"><ele>342.184113</ele><time>2021-08-12T10:12:16Z</time><extensions><speed>0.973149</speed><course>192.357071</course><hAcc>0.882849</hAcc><vAcc>0.710634</vAcc></extensions></trkpt>
      <trkpt lon="-3.342764" lat="54.561493"><ele>342.491547</ele><time>2021-08-12T10:12:17Z</time><extensions><speed>0.977463</speed><course>185.665771</course><hAcc>0.882936</hAcc><vAcc>0.710937</vAcc></extensions></trkpt>
      <trkpt lon="-3.342777" lat="54.561488"><ele>342.803162</ele><time>2021-08-12T10:12:18Z</time><extensions><speed>0.979187</speed><course>164.292023</course><hAcc>0.883023</hAcc><vAcc>0.711233</vAcc></extensions></trkpt>
      <trkpt lon="-3.342791" lat="54.561484"><ele>343.116974</ele><time>2021-08-12T10:12:19Z</time><extensions><speed>0.977693</speed><course>172.060730</course><hAcc>0.883109</hAcc><vAcc>0.711530</vAcc></extensions></trkpt>
      <trkpt lon="-3.342804" lat="54.561480"><ele>343.430267</ele><time>2021-08-12T10:12:20Z</time><extensions><speed>0.973126</speed><course>173.775192</course><hAcc>0.883192</hAcc><vAcc>0.711833</vAcc></extensions></trkpt>
      <trkpt lon="-3.342818" lat="54.561477"><ele>343.740509</ele><time>2021-08-12T10:12:21Z</time><extensions><speed>0.966580</speed><course>179.079193</course><hAcc>0.883271</hAcc><vAcc>0.712141</vAcc></extensions></trkpt>
      <trkpt lon="-3.342831" lat="54.561473"><ele>344.045837</ele><time>2021-08-12T10:12:22Z</time><extensions><speed>0.959177</speed><course>187.556046</course><hAcc>0.883345</hAcc><vAcc>0.712446</vAcc></extensions></trkpt>
      <trkpt lon="-3.342845" lat="54.561470"><ele>344.344910</ele><time>2021-08-12T10:12:23Z</time><extensions><speed>0.951359</speed><course>185.595901</course><hAcc>0.883413</hAcc><vAcc>0.712736</vAcc></extensions></trkpt>
      <trkpt lon="-3.342859" lat="54.561467"><ele>344.636200</ele><time>2021-08-12T10:12:24Z</time><extensions><speed>0.942760</speed><course>185.894623</course><hAcc>0.883473</hAcc><vAcc>0.712997</vAcc></extensions></trkpt>
      <trkpt lon="-3.342872" lat="54.561464"><ele>344.918182</ele><time>2021-08-12T10:12:25Z</time><extensions><speed>0.932978</speed><course>190.244247</course><hAcc>0.883523</hAcc><vAcc>0.713216</vAcc></extensions></trkpt>
      <trkpt lon="-3.342886" lat="54.561461"><ele>345.189667</ele><time>2021-08-12T10:12:26Z</time><extensions><speed>0.922084</speed><course>187.044601</course><hAcc>0.883561</hAcc><vAcc>0.713382</vAcc></extensions></trkpt>
      <trkpt lon="-3.342899" lat="54.561458"><ele>345.450073</ele><time>2021-08-12T10:12:27Z</time><extensions><speed>0.909965</speed><course>176.253296</course><hAcc>0.883586</hAcc><vAcc>0.713488</vAcc></extensions></trkpt>
      <trkpt lon="-3.342912" lat="54.561456"><ele>345.700073</ele><time>2021-08-12T10:12:28Z</time><extensions><speed>0.896599</speed><course>185.408890</course><hAcc>0.883596</hAcc><vAcc>0.713532</vAcc></extensions></trkpt>
      <trkpt lon="-3.342926" lat="54.561453"><ele>345.941254</ele><time>2021-08-12T10:12:29Z</time><extensions><speed>0.881829</speed><course>180.674866</course><hAcc>0.883591</hAcc><vAcc>0.713512</vAcc></extensions></trkpt>
      <trkpt lon="-3.342938" lat="54.561451"><ele>346.175201</ele><time>2021-08-12T10:12:30Z</time><extensions><speed>0.865092</speed><course>183.635086</course><hAcc>0.883572</hAcc><vAcc>0.713429</vAcc></extensions></trkpt>
      <trkpt lon="-3.342951" lat="54.561449"><ele>346.402893</ele><time>2021-08-12T10:12:31Z</time><extensions><speed>0.846250</speed><course>191.052750</course><hAcc>0.883539</hAcc><vAcc>0.713286</vAcc></extensions></trkpt>
      <trkpt lon="-3.342964" lat="54.561447"><ele>346.625122</ele><time>2021-08-12T10:12:32Z</time><extensions><speed>0.825943</speed><course>177.175522</course><hAcc>0.883494</hAcc><vAcc>0.713087</vAcc></extensions></trkpt>
      <trkpt lon="-3.342976" lat="54.561445"><ele>346.842834</ele><time>2021-08-12T10:12:33Z</time><extensions><speed>0.805148</speed><course>190.008408</course><hAcc>0.883439</hAcc><vAcc>0.712842</vAcc></extensions></trkpt>
      <trkpt lon="-3.342987" lat="54.561442"><ele>347.057190</ele><time>2021-08-12T10:12:34Z</time><extensions><speed>0.784498</speed><course>198.960236</course><hAcc>0.883376</hAcc><vAcc>0.712565</vAcc></extensions></trkpt>
      <trkpt lon="-3.342999" lat="54.561440"><ele>347.269287</ele><time>2021-08-12T10:12:35Z</time><extensions><speed>0.764545</speed><course>204.894943</course><hAcc>0.883308</hAcc><vAcc>0.712270</vAcc></extensions></trkpt>
      <trkpt lon="-3.343009" lat="54.561438"><ele>347.480194</ele><time>2021-08-12T10:12:36Z</time><extensions><speed>0.745752</speed><course>198.802200</course><hAcc>0.883235</hAcc><vAcc>0.711970</vAcc></extensions></trkpt>
      <trkpt lon="-3.343020" lat="54.561435"><ele>347.690491</ele><time>2021-08-12T10:12:37Z</time><extensions><speed>0.728317</speed><course>197.317261</course><hAcc>0.883159</hAcc><vAcc>0.711674</vAcc></extensions></trkpt>
      <trkpt lon="-3.343030" lat="54.561432"><ele>347.900116</ele><time>2021-08-12T10:12:38Z</time><extensions><speed>0.712433</speed><course>196.061050</course><hAcc>0.883082</hAcc><vAcc>0.711387</vAcc></extensions></trkpt>
      <trkpt lon="-3.343039" lat="54.561429"><ele>348.108551</ele><time>2021-08-12T10:12:39Z</time><extensions><speed>0.698037</speed><course>202.882050</course><hAcc>0.883004</hAcc><vAcc>0.711114</vAcc></extensions></trkpt>
      <trkpt lon="-3.343049" lat="54.561426"><ele>348.315094</ele><time>2021-08-12T10:12:40Z</time><extensions><speed>0.684634</speed><course>203.317627</course><hAcc>0.882924</hAcc><vAcc>0.710851</vAcc></extensions></trkpt>
      <trkpt lon="-3.343057" lat="54.561422"><ele>348.518768</ele><time>2021-08-12T10:12:41Z</time><extensions><speed>0.671943</speed><course>195.786957</course><hAcc>0.882842</hAcc><vAcc>0.710592</vAcc></extensions></trkpt>
      <trkpt lon="-3.343065" lat="54.561419"><ele>348.718414</ele><time>2021-08-12T10:12:42Z</time><extensions><speed>0.660587</speed><course>203.624710</course><hAcc>0.882758</hAcc><vAcc>0.710326</vAcc></extensions></trkpt>
      <trkpt lon="-3.343073" lat="54.561415"><ele>348.913116</ele><time>2021-08-12T10:12:43Z</time><extensions><speed>0.651301</speed><course>211.298859</course><hAcc>0.882670</hAcc><vAcc>0.710042</vAcc></extensions></trkpt>
      <trkpt lon="-3.343080" lat="54.561411"><ele>349.101959</ele><time>2021-08-12T10:12:44Z</time><extensions><speed>0.644531</speed><course>211.550430</course><hAcc>0.882579</hAcc><vAcc>0.709732</vAcc></extensions></trkpt>
      <trkpt lon="-3.343087" lat="54.561407"><ele>349.284210</ele><time>2021-08-12T10:12:45Z</time><extensions><speed>0.641195</speed><course>212.935287</course><hAcc>0.882485</hAcc><vAcc>0.709393</vAcc></extensions></trkpt>
      <trkpt lon="-3.343093" lat="54.561402"><ele>349.459351</ele><time>2021-08-12T10:12:46Z</time><extensions><speed>0.641717</speed><course>205.316910</course><hAcc>0.882388</hAcc><vAcc>0.709025</vAcc></extensions></trkpt>
      <trkpt lon="-3.343099" lat="54.561397"><ele>349.626984</ele><time>2021-08-12T10:12:47Z</time><extensions><speed>0.645391</speed><course>201.370926</course><hAcc>0.882291</hAcc><vAcc>0.708633</vAcc></extensions></trkpt>
      <trkpt lon="-3.343105" lat="54.561393"><ele>349.787079</ele><time>2021-08-12T10:12:48Z</time><extensions><speed>0.651149</speed><course>207.980240</course><hAcc>0.882195</hAcc><vAcc>0.708232</vAcc></extensions></trkpt>
      <trkpt lon="-3.343110" lat="54.561388"><ele>349.939636</ele><time>2021-08-12T10:12:49Z</time><extensions><speed>0.658580</speed><course>218.794739</course><hAcc>0.882104</hAcc><vAcc>0.707838</vAcc></extensions></trkpt>
      <trkpt lon="-3.343116" lat="54.561383"><ele>350.084595</ele><time>2021-08-12T10:12:50Z</time><extensions><speed>0.667408</speed><course>208.166870</course><hAcc>0.882022</hAcc><vAcc>0.707473</vAcc></extensions></trkpt>
      <trkpt lon="-3.343121" lat="54.561377"><ele>350.221222</ele><time>2021-08-12T10:12:51Z</time><extensions><speed>0.676917</speed><course>203.084564</course><hAcc>0.881952</hAcc><vAcc>0.707157</vAcc></extensions></trkpt>
      <trkpt lon="-3.343126" lat="54.561372"><ele>350.348572</ele><time>2021-08-12T10:12:52Z</time><extensions><speed>0.687450</speed><course>207.057602</course><hAcc>0.881897</hAcc><vAcc>0.706908</vAcc></extensions></trkpt>
      <trkpt lon="-3.343131" lat="54.561367"><ele>350.466522</ele><time>2021-08-12T10:12:53Z</time><extensions><speed>0.699686</speed><course>197.667023</course><hAcc>0.881861</hAcc><vAcc>0.706743</vAcc></extensions></trkpt>
      <trkpt lon="-3.343137" lat="54.561361"><ele>350.575287</ele><time>2021-08-12T10:12:54Z</time><extensions><speed>0.713509</speed><course>193.281815</course><hAcc>0.881845</hAcc><vAcc>0.706675</vAcc></extensions></trkpt>
      <trkpt lon="-3.343142" lat="54.561356"><ele>350.674744</ele><time>2021-08-12T10:12:55Z</time><extensions><speed>0.728153</speed><course>196.556885</course><hAcc>0.881850</hAcc><vAcc>0.706706</vAcc></extensions></trkpt>
      <trkpt lon="-3.343148" lat="54.561350"><ele>350.764343</ele><time>2021-08-12T10:12:56Z</time><extensions><speed>0.743404</speed><course>203.186966</course><hAcc>0.881877</hAcc><vAcc>0.706833</vAcc></extensions></trkpt>
      <trkpt lon="-3.343154" lat="54.561344"><ele>350.843750</ele><time>2021-08-12T10:12:57Z</time><extensions><speed>0.759712</speed><course>212.697037</course><hAcc>0.881924</hAcc><vAcc>0.707047</vAcc></extensions></trkpt>
      <trkpt lon="-3.343160" lat="54.561338"><ele>350.913147</ele><time>2021-08-12T10:12:58Z</time><extensions><speed>0.777559</speed><course>205.962631</course><hAcc>0.881991</hAcc><vAcc>0.707335</vAcc></extensions></trkpt>
      <trkpt lon="-3.343167" lat="54.561332"><ele>350.972778</ele><time>2021-08-12T10:12:59Z</time><extensions><speed>0.796614</speed><course>207.149033</course><hAcc>0.882074</hAcc><vAcc>0.707679</vAcc></extensions></trkpt>
      <trkpt lon="-3.343173" lat="54.561326"><ele>351.022369</ele><time>2021-08-12T10:13:00Z</time><extensions><speed>0.815358</speed><course>214.878525</course><hAcc>0.882171</hAcc><vAcc>0.708065</vAcc></extensions></trkpt>
      <trkpt lon="-3.343180" lat="54.561320"><ele>351.060883</ele><time>2021-08-12T10:13:01Z</time><extensions><speed>0.832569</speed><course>214.006729</course><hAcc>0.882279</hAcc><vAcc>0.708481</vAcc></extensions></trkpt>
      <trkpt lon="-3.343188" lat="54.561314"><ele>351.087006</ele><time>2021-08-12T10:13:02Z</time><extensions><speed>0.847472</speed><course>203.780624</course><hAcc>0.882395</hAcc><vAcc>0.708919</vAcc></extensions></trkpt>
      <trkpt lon="-3.343195" lat="54.561307"><ele>351.099182</ele><time>2021-08-12T10:13:03Z</time><extensions><speed>0.860248</speed><course>196.955612</course><hAcc>0.882516</hAcc><vAcc>0.709377</vAcc></extensions></trkpt>
      <trkpt lon="-3.343203" lat="54.561301"><ele>351.096039</ele><time>2021-08-12T10:13:04Z</time><extensions><speed>0.871851</speed><course>192.010574</course><hAcc>0.882640</hAcc><vAcc>0.709849</vAcc></extensions></trkpt>
      <trkpt lon="-3.343210" lat="54.561294"><ele>351.077087</ele><time>2021-08-12T10:13:05Z</time><extensions><speed>0.883098</speed><course>192.008179</course><hAcc>0.882762</hAcc><vAcc>0.710329</vAcc></extensions></trkpt>
      <trkpt lon="-3.343218" lat="54.561288"><ele>351.044067</ele><time>2021-08-12T10:13:06Z</time><extensions><speed>0.894977</speed><course>196.158051</course><hAcc>0.882881</hAcc><vAcc>0.710804</vAcc></extensions></trkpt>
      <trkpt lon="-3.343226" lat="54.561281"><ele>351.001251</ele><time>2021-08-12T10:13:07Z</time><extensions><speed>0.907993</speed><course>191.694901</course><hAcc>0.882994</hAcc><vAcc>0.711257</vAcc></extensions></trkpt>
      <trkpt lon="-3.343234" lat="54.561275"><ele>350.954498</ele><time>2021-08-12T10:13:08Z</time><extensions><speed>0.922219</speed><course>188.330658</course><hAcc>0.883101</hAcc><vAcc>0.711673</vAcc></extensions></trkpt>
      <trkpt lon="-3.343243" lat="54.561268"><ele>350.910431</ele><time>2021-08-12T10:13:09Z</time><extensions><speed>0.937641</speed><course>181.434692</course><hAcc>0.883198</hAcc><vAcc>0.712038</vAcc></extensions></trkpt>
      <trkpt lon="-3.343252" lat="54.561261"><ele>350.875427</ele><time>2021-08-12T10:13:10Z</time><extensions><speed>0.953138</speed><course>188.145386</course><hAcc>0.883286</hAcc><vAcc>0.712346</vAcc></extensions></trkpt>
      <trkpt lon="-3.343261" lat="54.561254"><ele>350.854095</ele><time>2021-08-12T10:13:11Z</time><extensions><speed>0.967510</speed><course>178.798050</course><hAcc>0.883361</hAcc><vAcc>0.712597</vAcc></extensions></trkpt>
      <trkpt lon="-3.343270" lat="54.561247"><ele>350.849091</ele><time>2021-08-12T10:13:12Z</time><extensions><speed>0.980319</speed><course>170.916321</course><hAcc>0.883422</hAcc><vAcc>0.712800</vAcc></extensions></trkpt>
      <trkpt lon="-3.343280" lat="54.561240"><ele>350.862152</ele><time>2021-08-12T10:13:13Z</time><extensions><speed>0.991297</speed><course>168.600174</course><hAcc>0.883467</hAcc><vAcc>0.712961</vAcc></extensions></trkpt>
      <trkpt lon="-3.343289" lat="54.561233"><ele>350.895294</ele><time>2021-08-12T10:13:14Z</time><extensions><speed>1.000163</speed><course>171.284561</course><hAcc>0.883494</hAcc><vAcc>0.713082</vAcc></extensions></trkpt>
      <trkpt lon="-3.343299" lat="54.561226"><ele>350.951050</ele><time>2021-08-12T10:13:15Z</time><extensions><speed>1.006489</speed><course>171.842682</course><hAcc>0.883502</hAcc><vAcc>0.713155</vAcc></extensions></trkpt>
      <trkpt lon="-3.343309" lat="54.561219"><ele>351.031891</ele><time>2021-08-12T10:13:16Z</time><extensions><speed>1.009950</speed><course>181.313644</course><hAcc>0.883489</hAcc><vAcc>0.713166</vAcc></extensions></trkpt>
      <trkpt lon="-3.343319" lat="54.561212"><ele>351.139496</ele><time>2021-08-12T10:13:17Z</time><extensions><speed>1.010887</speed><course>190.410019</course><hAcc>0.883454</hAcc><vAcc>0.713100</vAcc></extensions></trkpt>
      <trkpt lon="-3.343329" lat="54.561205"><ele>351.274994</ele><time>2021-08-12T10:13:18Z</time><extensions><speed>1.009894</speed><course>183.456787</course><hAcc>0.883398</hAcc><vAcc>0.712949</vAcc></extensions></trkpt>
      <trkpt lon="-3.343339" lat="54.561199"><ele>351.439545</ele><time>2021-08-12T10:13:19Z</time><extensions><speed>1.007036</speed><course>177.845047</course><hAcc>0.883322</hAcc><vAcc>0.712704</vAcc></extensions></trkpt>
      <trkpt lon="-3.343349" lat="54.561192"><ele>351.633850</ele><time>2021-08-12T10:13:20Z</time><extensions><speed>1.001304</speed><course>172.967087</course><hAcc>0.883228</hAcc><vAcc>0.712360</vAcc></extensions></trkpt>
      <trkpt lon="-3.343359" lat="54.561185"><ele>351.856964</ele><time>2021-08-12T10:13:21Z</time><extensions><speed>0.990825</speed><course>172.835464</course><hAcc>0.883121</hAcc><vAcc>0.711919</vAcc></extensions></trkpt>
      <trkpt lon="-3.343369" lat="54.561178"><ele>352.106232</ele><time>2021-08-12T10:13:22Z</time><extensions><speed>0.974395</speed><course>172.584564</course><hAcc>0.883007</hAcc><vAcc>0.711401</vAcc></extensions></trkpt>
      <trkpt lon="-3.343379" lat="54.561172"><ele>352.378296</ele><time>2021-08-12T10:13:23Z</time><extensions><speed>0.951759</speed><course>176.315567</course><hAcc>0.882894</hAcc><vAcc>0.710840</vAcc></extensions></trkpt>
      <trkpt lon="-3.343388" lat="54.561165"><ele>352.669952</ele><time>2021-08-12T10:13:24Z</time><extensions><speed>0.923515</speed><course>181.257629</course><hAcc>0.882788</hAcc><vAcc>0.710285</vAcc></extensions></trkpt>
      <trkpt lon="-3.343397" lat="54.561159"><ele>352.978943</ele><time>2021-08-12T10:13:25Z</time><extensions><speed>0.890919</speed><course>183.117218</course><hAcc>0.882699</hAcc><vAcc>0.709794</vAcc></extensions></trkpt>
      <trkpt lon="-3.343406" lat="54.561153"><ele>353.303802</ele><time>2021-08-12T10:13:26Z</time><extensions><speed>0.855282</speed><course>173.768417</course><hAcc>0.882631</hAcc><vAcc>0.709429</vAcc></extensions></trkpt>
      <trkpt lon="-3.343415" lat="54.561148"><ele>353.643707</ele><time>2021-08-12T10:13:27Z</time><extensions><speed>0.817918</speed><course>175.817612</course><hAcc>0.882591</hAcc><vAcc>0.709234</vAcc></extensions></trkpt>
      <trkpt lon="-3.343424" lat="54.561143"><ele>353.997559</ele><time>2021-08-12T10:13:28Z</time><extensions><speed>0.780015</speed><course>174.962723</course><hAcc>0.882582</hAcc><vAcc>0.709218</vAcc></extensions></trkpt>
      <trkpt lon="-3.343432" lat="54.561138"><ele>354.363281</ele><time>2021-08-12T10:13:29Z</time><extensions><speed>0.742406</speed><course>170.163239</course><hAcc>0.882607</hAcc><vAcc>0.709368</vAcc></extensions></trkpt>
      <trkpt lon="-3.343440" lat="54.561133"><ele>354.737701</ele><time>2021-08-12T10:13:30Z</time><extensions><speed>0.705518</speed><course>170.136551</course><hAcc>0.882665</hAcc><vAcc>0.709657</vAcc></extensions></trkpt>
      <trkpt lon="-3.343448" lat="54.561129"><ele>355.116913</ele><time>2021-08-12T10:13:31Z</time><extensions><speed>0.669707</speed><course>162.390869</course><hAcc>0.882755</hAcc><vAcc>0.710056</vAcc></extensions></trkpt>
      <trkpt lon="-3.343456" lat="54.561126"><ele>355.497070</ele><time>2021-08-12T10:13:32Z</time><extensions><speed>0.636384</speed><course>155.510605</course><hAcc>0.882874</hAcc><vAcc>0.710538</vAcc></extensions></trkpt>
      <trkpt lon="-3.343464" lat="54.561123"><ele>355.874939</ele><time>2021-08-12T10:13:33Z</time><extensions><speed>0.608263</speed><course>158.442108</course><hAcc>0.883019</hAcc><vAcc>0.711086</vAcc></extensions></trkpt>
      <trkpt lon="-3.343473" lat="54.561120"><ele>356.247070</ele><time>2021-08-12T10:13:34Z</time><extensions><speed>0.588226</speed><course>161.225479</course><hAcc>0.883184</hAcc><vAcc>0.711694</vAcc></extensions></trkpt>
      <trkpt lon="-3.343481" lat="54.561119"><ele>356.609467</ele><time>2021-08-12T10:13:35Z</time><extensions><speed>0.578612</speed><course>162.291626</course><hAcc>0.883363</hAcc><vAcc>0.712364</vAcc></extensions></trkpt>
      <trkpt lon="-3.343490" lat="54.561118"><ele>356.957733</ele><time>2021-08-12T10:13:36Z</time><extensions><speed>0.580403</speed><course>163.167831</course><hAcc>0.883552</hAcc><vAcc>0.713096</vAcc></extensions></trkpt>
      <trkpt lon="-3.343499" lat="54.561117"><ele>357.287903</ele><time>2021-08-12T10:13:37Z</time><extensions><speed>0.592890</speed><course>161.288498</course><hAcc>0.883742</hAcc><vAcc>0.713875</vAcc></extensions></trkpt>
      <trkpt lon="-3.343508" lat="54.561117"><ele>357.597412</ele><time>2021-08-12T10:13:38Z</time><extensions><speed>0.614210</speed><course>157.987350</course><hAcc>0.883930</hAcc><vAcc>0.714670</vAcc></extensions></trkpt>
      <trkpt lon="-3.343518" lat="54.561118"><ele>357.885620</ele><time>2021-08-12T10:13:39Z</time><extensions><speed>0.641830</speed><course>173.323715</course><hAcc>0.884109</hAcc><vAcc>0.715439</vAcc></extensions></trkpt>
      <trkpt lon="-3.343527" lat="54.561120"><ele>358.153381</ele><time>2021-08-12T10:13:40Z</time><extensions><speed>0.673083</speed><course>166.675858</course><hAcc>0.884274</hAcc><vAcc>0.716138</vAcc></extensions></trkpt>
      <trkpt lon="-3.343537" lat="54.561122"><ele>358.402161</ele><time>2021-08-12T10:13:41Z</time><extensions><speed>0.705637</speed><course>160.834595</course><hAcc>0.884418</hAcc><vAcc>0.716735</vAcc></extensions></trkpt>
      <trkpt lon="-3.343547" lat="54.561125"><ele>358.633270</ele><time>2021-08-12T10:13:42Z</time><extensions><speed>0.737477</speed><course>151.548553</course><hAcc>0.884535</hAcc><vAcc>0.717211</vAcc></extensions></trkpt>
      <trkpt lon="-3.343557" lat="54.561129"><ele>358.846832</ele><time>2021-08-12T10:13:43Z</time><extensions><speed>0.767239</speed><course>158.698013</course><hAcc>0.884619</hAcc><vAcc>0.717557</vAcc></extensions></trkpt>
      <trkpt lon="-3.343567" lat="54.561133"><ele>359.041565</ele><time>2021-08-12T10:13:44Z</time><extensions><speed>0.794227</speed><course>162.044495</course><hAcc>0.884664</hAcc><vAcc>0.717765</vAcc></extensions></trkpt>
      <trkpt lon="-3.343577" lat="54.561137"><ele>359.215668</ele><time>2021-08-12T10:13:45Z</time><extensions><speed>0.817975</speed><course>165.250092</course><hAcc>0.884667</hAcc><vAcc>0.717825</vAcc></extensions></trkpt>
      <trkpt lon="-3.343586" lat="54.561143"><ele>359.367706</ele><time>2021-08-12T10:13:46Z</time><extensions><speed>0.837941</speed><course>170.479752</course><hAcc>0.884630</hAcc><vAcc>0.717721</vAcc></extensions></trkpt>
      <trkpt lon="-3.343595" lat="54.561148"><ele>359.496643</ele><time>2021-08-12T10:13:47Z</time><extensions><speed>0.853807</speed><course>171.775650</course><hAcc>0.884552</hAcc><vAcc>0.717442</vAcc></extensions></trkpt>
      <trkpt lon="-3.343603" lat="54.561154"><ele>359.601105</ele><time>2021-08-12T10:13:48Z</time><extensions><speed>0.865868</speed><course>166.869843</course><hAcc>0.884439</hAcc><vAcc>0.716988</vAcc></extensions></trkpt>
      <trkpt lon="-3.343611" lat="54.561160"><ele>359.678925</ele><time>2021-08-12T10:13:49Z</time><extensions><speed>0.874242</speed><course>162.267441</course><hAcc>0.884293</hAcc><vAcc>0.716372</vAcc></extensions></trkpt>
      <trkpt lon="-3.343619" lat="54.561167"><ele>359.727997</ele><time>2021-08-12T10:13:50Z</time><extensions><speed>0.878283</speed><course>166.691605</course><hAcc>0.884121</hAcc><vAcc>0.715623</vAcc></extensions></trkpt>
      <trkpt lon="-3.343625" lat="54.561174"><ele>359.747864</ele><time>2021-08-12T10:13:51Z</time><extensions><speed>0.876720</speed><course>176.048813</course><hAcc>0.883928</hAcc><vAcc>0.714777</vAcc></extensions></trkpt>
      <trkpt lon="-3.343632" lat="54.561181"><ele>359.739410</ele><time>2021-08-12T10:13:52Z</time><extensions><speed>0.868265</speed><course>187.168427</course><hAcc>0.883720</hAcc><vAcc>0.713870</vAcc></extensions></trkpt>
      <trkpt lon="-3.343638" lat="54.561188"><ele>359.703888</ele><time>2021-08-12T10:13:53Z</time><extensions><speed>0.852064</speed><course>184.969528</course><hAcc>0.883505</hAcc><vAcc>0.712940</vAcc></extensions></trkpt>
      <trkpt lon="-3.343643" lat="54.561194"><ele>359.642426</ele><time>2021-08-12T10:13:54Z</time><extensions><speed>0.827645</speed><course>188.020355</course><hAcc>0.883289</hAcc><vAcc>0.712025</vAcc></extensions></trkpt>
      <trkpt lon="-3.343648" lat="54.561201"><ele>359.555939</ele><time>2021-08-12T10:13:55Z</time><extensions><speed>0.795074</speed><course>187.008438</course><hAcc>0.883075</hAcc><vAcc>0.711156</vAcc></extensions></trkpt>
      <trkpt lon="-3.343653" lat="54.561207"><ele>359.445374</ele><time>2021-08-12T10:13:56Z</time><extensions><speed>0.754790</speed><course>193.777908</course><hAcc>0.882867</hAcc><vAcc>0.710357</vAcc></extensions></trkpt>
      <trkpt lon="-3.343657" lat="54.561214"><ele>359.311981</ele><time>2021-08-12T10:13:57Z</time><extensions><speed>0.707454</speed><course>197.196976</course><hAcc>0.882664</hAcc><vAcc>0.709638</vAcc></extensions></trkpt>
      <trkpt lon="-3.343661" lat="54.561219"><ele>359.157532</ele><time>2021-08-12T10:13:58Z</time><extensions><speed>0.654043</speed><course>206.264206</course><hAcc>0.882464</hAcc><vAcc>0.708994</vAcc></extensions></trkpt>
      <trkpt lon="-3.343665" lat="54.561224"><ele>358.983765</ele><time>2021-08-12T10:13:59Z</time><extensions><speed>0.595802</speed><course>213.153137</course><hAcc>0.882261</hAcc><vAcc>0.708403</vAcc></extensions></trkpt>
      <trkpt lon="-3.343668" lat="54.561229"><ele>358.791962</ele><time>2021-08-12T10:14:00Z</time><extensions><speed>0.533885</speed><course>218.435745</course><hAcc>0.882050</hAcc><vAcc>0.707826</vAcc></extensions></trkpt>
      <trkpt lon="-3.343671" lat="54.561233"><ele>358.583679</ele><time>2021-08-12T10:14:01Z</time><extensions><speed>0.469566</speed><course>220.768875</course><hAcc>0.881827</hAcc><vAcc>0.707216</vAcc></extensions></trkpt>
      <trkpt lon="-3.343674" lat="54.561237"><ele>358.361450</ele><time>2021-08-12T10:14:02Z</time><extensions><speed>0.404250</speed><course>225.526031</course><hAcc>0.881586</hAcc><vAcc>0.706524</vAcc></extensions></trkpt>
      <trkpt lon="-3.343676" lat="54.561240"><ele>358.128815</ele><time>2021-08-12T10:14:03Z</time><extensions><speed>0.339300</speed><course>228.183807</course><hAcc>0.881329</hAcc><vAcc>0.705706</vAcc></extensions></trkpt>
      <trkpt lon="-3.343678" lat="54.561243"><ele>357.889404</ele><time>2021-08-12T10:14:04Z</time><extensions><speed>0.276465</speed><course>215.749130</course><hAcc>0.881060</hAcc><vAcc>0.704735</vAcc></extensions></trkpt>
      <trkpt lon="-3.343679" lat="54.561245"><ele>357.645874</ele><time>2021-08-12T10:14:05Z</time><extensions><speed>0.217637</speed><course>213.981155</course><hAcc>0.880790</hAcc><vAcc>0.703624</vAcc></extensions></trkpt>
      <trkpt lon="-3.343680" lat="54.561246"><ele>357.399719</ele><time>2021-08-12T10:14:06Z</time><extensions><speed>0.164148</speed><course>211.229813</course><hAcc>0.880533</hAcc><vAcc>0.702436</vAcc></extensions></trkpt>
      <trkpt lon="-3.343681" lat="54.561247"><ele>357.152069</ele><time>2021-08-12T10:14:07Z</time><extensions><speed>0.116859</speed><course>202.385132</course><hAcc>0.880313</hAcc><vAcc>0.701275</vAcc></extensions></trkpt>
      <trkpt lon="-3.343681" lat="54.561248"><ele>356.904510</ele><time>2021-08-12T10:14:08Z</time><extensions><speed>0.076807</speed><course>206.139267</course><hAcc>0.880156</hAcc><vAcc>0.700273</vAcc></extensions></trkpt>
      <trkpt lon="-3.343681" lat="54.561249"><ele>356.659515</ele><time>2021-08-12T10:14:09Z</time><extensions><speed>0.045697</speed><course>210.188431</course><hAcc>0.880097</hAcc><vAcc>0.699555</vAcc></extensions></trkpt>
      <trkpt lon="-3.343681" lat="54.561249"><ele>356.420746</ele><time>2021-08-12T10:14:10Z</time><extensions><speed>0.028081</speed><course>215.015762</course><hAcc>0.880173</hAcc><vAcc>0.699232</vAcc></extensions></trkpt>
      <trkpt lon="-3.343681" lat="54.561249"><ele>356.192719</ele><time>2021-08-12T10:14:11Z</time><extensions><speed>0.029640</speed><course>213.199860</course><hAcc>0.880426</hAcc><vAcc>0.699398</vAcc></extensions></trkpt>
      <trkpt lon="-3.343680" lat="54.561249"><ele>355.980408</ele><time>2021-08-12T10:14:12Z</time><extensions><speed>0.039993</speed><course>212.921936</course><hAcc>0.880899</hAcc><vAcc>0.700122</vAcc></extensions></trkpt>
      <trkpt lon="-3.343680" lat="54.561249"><ele>355.787598</ele><time>2021-08-12T10:14:13Z</time><extensions><speed>0.050284</speed><course>209.879272</course><hAcc>0.881633</hAcc><vAcc>0.701442</vAcc></extensions></trkpt>
      <trkpt lon="-3.343679" lat="54.561249"><ele>355.616333</ele><time>2021-08-12T10:14:14Z</time><extensions><speed>0.059504</speed><course>199.650558</course><hAcc>0.882668</hAcc><vAcc>0.703345</vAcc></extensions></trkpt>
      <trkpt lon="-3.343678" lat="54.561248"><ele>355.467438</ele><time>2021-08-12T10:14:15Z</time><extensions><speed>0.068958</speed><course>201.752075</course><hAcc>0.884030</hAcc><vAcc>0.705753</vAcc></extensions></trkpt>
      <trkpt lon="-3.343678" lat="54.561248"><ele>355.341431</ele><time>2021-08-12T10:14:16Z</time><extensions><speed>0.080863</speed><course>199.120544</course><hAcc>0.885731</hAcc><vAcc>0.708549</vAcc></extensions></trkpt>
      <trkpt lon="-3.343677" lat="54.561247"><ele>355.238495</ele><time>2021-08-12T10:14:17Z</time><extensions><speed>0.097823</speed><course>202.497513</course><hAcc>0.887760</hAcc><vAcc>0.711592</vAcc></extensions></trkpt>
      <trkpt lon="-3.343677" lat="54.561246"><ele>355.158813</ele><time>2021-08-12T10:14:18Z</time><extensions><speed>0.122226</speed><course>196.851593</course><hAcc>0.890070</hAcc><vAcc>0.714726</vAcc></extensions></trkpt>
      <trkpt lon="-3.343677" lat="54.561245"><ele>355.102661</ele><time>2021-08-12T10:14:19Z</time><extensions><speed>0.155828</speed><course>196.061951</course><hAcc>0.892574</hAcc><vAcc>0.717790</vAcc></extensions></trkpt>
      <trkpt lon="-3.343677" lat="54.561243"><ele>355.070404</ele><time>2021-08-12T10:14:20Z</time><extensions><speed>0.199757</speed><course>196.279495</course><hAcc>0.895129</hAcc><vAcc>0.720633</vAcc></extensions></trkpt>
      <trkpt lon="-3.343678" lat="54.561241"><ele>355.062744</ele><time>2021-08-12T10:14:21Z</time><extensions><speed>0.254696</speed><course>194.457642</course><hAcc>0.897548</hAcc><vAcc>0.723123</vAcc></extensions></trkpt>
      <trkpt lon="-3.343679" lat="54.561239"><ele>355.080536</ele><time>2021-08-12T10:14:22Z</time><extensions><speed>0.320976</speed><course>194.987076</course><hAcc>0.899614</hAcc><vAcc>0.725159</vAcc></extensions></trkpt>
      <trkpt lon="-3.343681" lat="54.561236"><ele>355.124786</ele><time>2021-08-12T10:14:23Z</time><extensions><speed>0.398542</speed><course>191.030731</course><hAcc>0.901135</hAcc><vAcc>0.726705</vAcc></extensions></trkpt>
      <trkpt lon="-3.343684" lat="54.561232"><ele>355.196686</ele><time>2021-08-12T10:14:24Z</time><extensions><speed>0.486842</speed><course>192.563599</course><hAcc>0.902042</hAcc><vAcc>0.727875</vAcc></extensions></trkpt>
      <trkpt lon="-3.343687" lat="54.561227"><ele>355.297363</ele><time>2021-08-12T10:14:25Z</time><extensions><speed>0.584678</speed><course>204.158295</course><hAcc>0.902559</hAcc><vAcc>0.729077</vAcc></extensions></trkpt>
      <trkpt lon="-3.343691" lat="54.561222"><ele>355.427734</ele><time>2021-08-12T10:14:26Z</time><extensions><speed>0.690035</speed><course>221.097565</course><hAcc>0.903454</hAcc><vAcc>0.731205</vAcc></extensions></trkpt>
      <trkpt lon="-3.343696" lat="54.561216"><ele>355.588257</ele><time>2021-08-12T10:14:27Z</time><extensions><speed>0.799889</speed><course>200.067871</course><hAcc>0.906401</hAcc><vAcc>0.735895</vAcc></extensions></trkpt>
      <trkpt lon="-3.343702" lat="54.561209"><ele>355.778564</ele><time>2021-08-12T10:14:28Z</time><extensions><speed>0.909994</speed><course>192.146652</course><hAcc>0.914427</hAcc><vAcc>0.745768</vAcc></extensions></trkpt>
      <trkpt lon="-3.343709" lat="54.561202"><ele>355.997223</ele><time>2021-08-12T10:14:29Z</time><extensions><speed>1.014670</speed><course>186.218857</course><hAcc>0.932334</hAcc><vAcc>0.764592</vAcc></extensions></trkpt>
      <trkpt lon="-3.343717" lat="54.561193"><ele>356.241211</ele><time>2021-08-12T10:14:30Z</time><extensions><speed>1.106598</speed><course>173.782028</course><hAcc>0.966846</hAcc><vAcc>0.797181</vAcc></extensions></trkpt>
      <trkpt lon="-3.343726" lat="54.561181"><ele>356.654144</ele><time>2021-08-12T10:14:31Z</time><extensions><speed>1.736336</speed><course>74.967865</course><hAcc>0.930345</hAcc><vAcc>0.764380</vAcc></extensions></trkpt>
      <trkpt lon="-3.343735" lat="54.561166"><ele>356.879425</ele><time>2021-08-12T10:14:32Z</time><extensions><speed>1.717457</speed><course>75.133301</course><hAcc>0.910836</hAcc><vAcc>0.741352</vAcc></extensions></trkpt>
      <trkpt lon="-3.343744" lat="54.561152"><ele>357.086700</ele><time>2021-08-12T10:14:33Z</time><extensions><speed>1.689209</speed><course>66.099251</course><hAcc>0.902578</hAcc><vAcc>0.728997</vAcc></extensions></trkpt>
      <trkpt lon="-3.343753" lat="54.561138"><ele>357.272461</ele><time>2021-08-12T10:14:34Z</time><extensions><speed>1.654655</speed><course>81.237114</course><hAcc>0.900091</hAcc><vAcc>0.723110</vAcc></extensions></trkpt>
      <trkpt lon="-3.343761" lat="54.561124"><ele>357.433777</ele><time>2021-08-12T10:14:35Z</time><extensions><speed>1.616472</speed><course>80.566093</course><hAcc>0.899905</hAcc><vAcc>0.720683</vAcc></extensions></trkpt>
      <trkpt lon="-3.343768" lat="54.561110"><ele>357.568207</ele><time>2021-08-12T10:14:36Z</time><extensions><speed>1.577371</speed><course>80.566109</course><hAcc>0.900101</hAcc><vAcc>0.719781</vAcc></extensions></trkpt>
      <trkpt lon="-3.343774" lat="54.561097"><ele>357.675446</ele><time>2021-08-12T10:14:37Z</time><extensions><speed>1.539657</speed><course>80.566093</course><hAcc>0.899806</hAcc><vAcc>0.719291</vAcc></extensions></trkpt>
      <trkpt lon="-3.343781" lat="54.561083"><ele>357.757935</ele><time>2021-08-12T10:14:38Z</time><extensions><speed>1.504532</speed><course>80.566093</course><hAcc>0.898776</hAcc><vAcc>0.718662</vAcc></extensions></trkpt>
      <trkpt lon="-3.343786" lat="54.561070"><ele>357.819672</ele><time>2021-08-12T10:14:39Z</time><extensions><speed>1.472489</speed><course>80.566093</course><hAcc>0.897099</hAcc><vAcc>0.717698</vAcc></extensions></trkpt>
      <trkpt lon="-3.343791" lat="54.561058"><ele>357.865234</ele><time>2021-08-12T10:14:40Z</time><extensions><speed>1.443901</speed><course>77.344681</course><hAcc>0.894999</hAcc><vAcc>0.716405</vAcc></extensions></trkpt>
      <trkpt lon="-3.343796" lat="54.561045"><ele>357.899078</ele><time>2021-08-12T10:14:41Z</time><extensions><speed>1.418905</speed><course>77.923714</course><hAcc>0.892727</hAcc><vAcc>0.714887</vAcc></extensions></trkpt>
      <trkpt lon="-3.343801" lat="54.561033"><ele>357.924652</ele><time>2021-08-12T10:14:42Z</time><extensions><speed>1.397553</speed><course>87.073212</course><hAcc>0.890496</hAcc><vAcc>0.713284</vAcc></extensions></trkpt>
      <trkpt lon="-3.343806" lat="54.561021"><ele>357.944031</ele><time>2021-08-12T10:14:43Z</time><extensions><speed>1.380134</speed><course>79.233902</course><hAcc>0.888460</hAcc><vAcc>0.711735</vAcc></extensions></trkpt>
      <trkpt lon="-3.343811" lat="54.561009"><ele>357.958221</ele><time>2021-08-12T10:14:44Z</time><extensions><speed>1.366893</speed><course>96.572746</course><hAcc>0.886711</hAcc><vAcc>0.710355</vAcc></extensions></trkpt>
      <trkpt lon="-3.343816" lat="54.560997"><ele>357.967743</ele><time>2021-08-12T10:14:45Z</time><extensions><speed>1.358281</speed><course>86.920219</course><hAcc>0.885285</hAcc><vAcc>0.709222</vAcc></extensions></trkpt>
      <trkpt lon="-3.343821" lat="54.560985"><ele>357.973267</ele><time>2021-08-12T10:14:46Z</time><extensions><speed>1.354329</speed><course>76.786201</course><hAcc>0.884177</hAcc><vAcc>0.708371</vAcc></extensions></trkpt>
      <trkpt lon="-3.343827" lat="54.560973"><ele>357.975769</ele><time>2021-08-12T10:14:47Z</time><extensions><speed>1.354131</speed><course>77.162971</course><hAcc>0.883359</hAcc><vAcc>0.707798</vAcc></extensions></trkpt>
      <trkpt lon="-3.343833" lat="54.560962"><ele>357.976654</ele><time>2021-08-12T10:14:48Z</time><extensions><speed>1.357156</speed><course>69.604996</course><hAcc>0.882783</hAcc><vAcc>0.707466</vAcc></extensions></trkpt>
      <trkpt lon="-3.343839" lat="54.560950"><ele>357.977753</ele><time>2021-08-12T10:14:49Z</time><extensions><speed>1.363580</speed><course>76.115456</course><hAcc>0.882402</hAcc><vAcc>0.707313</vAcc></extensions></trkpt>
      <trkpt lon="-3.343845" lat="54.560938"><ele>357.981110</ele><time>2021-08-12T10:14:50Z</time><extensions><speed>1.373396</speed><course>83.646278</course><hAcc>0.882167</hAcc><vAcc>0.707270</vAcc></extensions></trkpt>
      <trkpt lon="-3.343851" lat="54.560926"><ele>357.988068</ele><time>2021-08-12T10:14:51Z</time><extensions><speed>1.385870</speed><course>76.408623</course><hAcc>0.882036</hAcc><vAcc>0.707277</vAcc></extensions></trkpt>
      <trkpt lon="-3.343857" lat="54.560914"><ele>357.998749</ele><time>2021-08-12T10:14:52Z</time><extensions><speed>1.400157</speed><course>79.439453</course><hAcc>0.881975</hAcc><vAcc>0.707297</vAcc></extensions></trkpt>
      <trkpt lon="-3.343863" lat="54.560902"><ele>358.012238</ele><time>2021-08-12T10:14:53Z</time><extensions><speed>1.415965</speed><course>75.300941</course><hAcc>0.881956</hAcc><vAcc>0.707317</vAcc></extensions></trkpt>
      <trkpt lon="-3.343868" lat="54.560890"><ele>358.026947</ele><time>2021-08-12T10:14:54Z</time><extensions><speed>1.433314</speed><course>76.126534</course><hAcc>0.881961</hAcc><vAcc>0.707338</vAcc></extensions></trkpt>
      <trkpt lon="-3.343873" lat="54.560877"><ele>358.040741</ele><time>2021-08-12T10:14:55Z</time><extensions><speed>1.452314</speed><course>75.233688</course><hAcc>0.881977</hAcc><vAcc>0.707364</vAcc></extensions></trkpt>
      <trkpt lon="-3.343878" lat="54.560864"><ele>358.051331</ele><time>2021-08-12T10:14:56Z</time><extensions><speed>1.473131</speed><course>81.891060</course><hAcc>0.881997</hAcc><vAcc>0.707402</vAcc></extensions></trkpt>
      <trkpt lon="-3.343882" lat="54.560851"><ele>358.057495</ele><time>2021-08-12T10:14:57Z</time><extensions><speed>1.495443</speed><course>78.263519</course><hAcc>0.882017</hAcc><vAcc>0.707454</vAcc></extensions></trkpt>
      <trkpt lon="-3.343886" lat="54.560838"><ele>358.058838</ele><time>2021-08-12T10:14:58Z</time><extensions><speed>1.518202</speed><course>74.907532</course><hAcc>0.882036</hAcc><vAcc>0.707521</vAcc></extensions></trkpt>
      <trkpt lon="-3.343889" lat="54.560824"><ele>358.054962</ele><time>2021-08-12T10:14:59Z</time><extensions><speed>1.540257</speed><course>84.941742</course><hAcc>0.882054</hAcc><vAcc>0.707597</vAcc></extensions></trkpt>
      <trkpt lon="-3.343891" lat="54.560810"><ele>358.045441</ele><time>2021-08-12T10:15:00Z</time><extensions><speed>1.560574</speed><course>73.584358</course><hAcc>0.882071</hAcc><vAcc>0.707675</vAcc></extensions></trkpt>
      <trkpt lon="-3.343894" lat="54.560796"><ele>358.029388</ele><time>2021-08-12T10:15:01Z</time><extensions><speed>1.578167</speed><course>96.346313</course><hAcc>0.882086</hAcc><vAcc>0.707747</vAcc></extensions></trkpt>
      <trkpt lon="-3.343895" lat="54.560782"><ele>358.005890</ele><time>2021-08-12T10:15:02Z</time><extensions><speed>1.592473</speed><course>87.208282</course><hAcc>0.882101</hAcc><vAcc>0.707816</vAcc></extensions></trkpt>
      <trkpt lon="-3.343897" lat="54.560768"><ele>357.974701</ele><time>2021-08-12T10:15:03Z</time><extensions><speed>1.603357</speed><course>71.034035</course><hAcc>0.882112</hAcc><vAcc>0.707886</vAcc></extensions></trkpt>
      <trkpt lon="-3.343898" lat="54.560753"><ele>357.936310</ele><time>2021-08-12T10:15:04Z</time><extensions><speed>1.610831</speed><course>74.315559</course><hAcc>0.882120</hAcc><vAcc>0.707958</vAcc></extensions></trkpt>
      <trkpt lon="-3.343898" lat="54.560739"><ele>357.891449</ele><time>2021-08-12T10:15:05Z</time><extensions><speed>1.614636</speed><course>82.074326</course><hAcc>0.882123</hAcc><vAcc>0.708026</vAcc></extensions></trkpt>
      <trkpt lon="-3.343899" lat="54.560724"><ele>357.841034</ele><time>2021-08-12T10:15:06Z</time><extensions><speed>1.614662</speed><course>78.798851</course><hAcc>0.882119</hAcc><vAcc>0.708072</vAcc></extensions></trkpt>
      <trkpt lon="-3.343900" lat="54.560710"><ele>357.786041</ele><time>2021-08-12T10:15:07Z</time><extensions><speed>1.611286</speed><course>71.049065</course><hAcc>0.882108</hAcc><vAcc>0.708081</vAcc></extensions></trkpt>
      <trkpt lon="-3.343900" lat="54.560695"><ele>357.727478</ele><time>2021-08-12T10:15:08Z</time><extensions><speed>1.605169</speed><course>66.417450</course><hAcc>0.882090</hAcc><vAcc>0.708039</vAcc></extensions></trkpt>
      <trkpt lon="-3.343901" lat="54.560681"><ele>357.666595</ele><time>2021-08-12T10:15:09Z</time><extensions><speed>1.597118</speed><course>67.881187</course><hAcc>0.882066</hAcc><vAcc>0.707942</vAcc></extensions></trkpt>
      <trkpt lon="-3.343901" lat="54.560667"><ele>357.604584</ele><time>2021-08-12T10:15:10Z</time><extensions><speed>1.587912</speed><course>73.946594</course><hAcc>0.882038</hAcc><vAcc>0.707794</vAcc></extensions></trkpt>
      <trkpt lon="-3.343902" lat="54.560652"><ele>357.541809</ele><time>2021-08-12T10:15:11Z</time><extensions><speed>1.578118</speed><course>66.868568</course><hAcc>0.882008</hAcc><vAcc>0.707611</vAcc></extensions></trkpt>
      <trkpt lon="-3.343903" lat="54.560638"><ele>357.477600</ele><time>2021-08-12T10:15:12Z</time><extensions><speed>1.568180</speed><course>57.370388</course><hAcc>0.881980</hAcc><vAcc>0.707421</vAcc></extensions></trkpt>
      <trkpt lon="-3.343905" lat="54.560624"><ele>357.411285</ele><time>2021-08-12T10:15:13Z</time><extensions><speed>1.558356</speed><course>72.859169</course><hAcc>0.881955</hAcc><vAcc>0.707256</vAcc></extensions></trkpt>
      <trkpt lon="-3.343907" lat="54.560610"><ele>357.342468</ele><time>2021-08-12T10:15:14Z</time><extensions><speed>1.548524</speed><course>73.476959</course><hAcc>0.881936</hAcc><vAcc>0.707143</vAcc></extensions></trkpt>
      <trkpt lon="-3.343908" lat="54.560597"><ele>357.270752</ele><time>2021-08-12T10:15:15Z</time><extensions><speed>1.538884</speed><course>70.985191</course><hAcc>0.881927</hAcc><vAcc>0.707088</vAcc></extensions></trkpt>
      <trkpt lon="-3.343911" lat="54.560583"><ele>357.195892</ele><time>2021-08-12T10:15:16Z</time><extensions><speed>1.530034</speed><course>67.094063</course><hAcc>0.881929</hAcc><vAcc>0.707089</vAcc></extensions></trkpt>
      <trkpt lon="-3.343913" lat="54.560569"><ele>357.118256</ele><time>2021-08-12T10:15:17Z</time><extensions><speed>1.522416</speed><course>63.802017</course><hAcc>0.881942</hAcc><vAcc>0.707145</vAcc></extensions></trkpt>
      <trkpt lon="-3.343916" lat="54.560556"><ele>357.039093</ele><time>2021-08-12T10:15:18Z</time><extensions><speed>1.516259</speed><course>59.738853</course><hAcc>0.881964</hAcc><vAcc>0.707254</vAcc></extensions></trkpt>
      <trkpt lon="-3.343919" lat="54.560542"><ele>356.960571</ele><time>2021-08-12T10:15:19Z</time><extensions><speed>1.511675</speed><course>64.752533</course><hAcc>0.881993</hAcc><vAcc>0.707411</vAcc></extensions></trkpt>
      <trkpt lon="-3.343923" lat="54.560529"><ele>356.885315</ele><time>2021-08-12T10:15:20Z</time><extensions><speed>1.508567</speed><course>62.678837</course><hAcc>0.882027</hAcc><vAcc>0.707608</vAcc></extensions></trkpt>
      <trkpt lon="-3.343926" lat="54.560515"><ele>356.815887</ele><time>2021-08-12T10:15:21Z</time><extensions><speed>1.506574</speed><course>67.622025</course><hAcc>0.882061</hAcc><vAcc>0.707831</vAcc></extensions></trkpt>
      <trkpt lon="-3.343930" lat="54.560502"><ele>356.753998</ele><time>2021-08-12T10:15:22Z</time><extensions><speed>1.505101</speed><course>76.998230</course><hAcc>0.882094</hAcc><vAcc>0.708052</vAcc></extensions></trkpt>
      <trkpt lon="-3.343933" lat="54.560489"><ele>356.700348</ele><time>2021-08-12T10:15:23Z</time><extensions><speed>1.503588</speed><course>71.279175</course><hAcc>0.882121</hAcc><vAcc>0.708236</vAcc></extensions></trkpt>
      <trkpt lon="-3.343937" lat="54.560475"><ele>356.653839</ele><time>2021-08-12T10:15:24Z</time><extensions><speed>1.501566</speed><course>66.215858</course><hAcc>0.882143</hAcc><vAcc>0.708348</vAcc></extensions></trkpt>
      <trkpt lon="-3.343941" lat="54.560462"><ele>356.612030</ele><time>2021-08-12T10:15:25Z</time><extensions><speed>1.499035</speed><course>65.869171</course><hAcc>0.882157</hAcc><vAcc>0.708375</vAcc></extensions></trkpt>
      <trkpt lon="-3.343945" lat="54.560449"><ele>356.572754</ele><time>2021-08-12T10:15:26Z</time><extensions><speed>1.496451</speed><course>67.480362</course><hAcc>0.882166</hAcc><vAcc>0.708326</vAcc></extensions></trkpt>
      <trkpt lon="-3.343948" lat="54.560435"><ele>356.534912</ele><time>2021-08-12T10:15:27Z</time><extensions><speed>1.494205</speed><course>62.467888</course><hAcc>0.882170</hAcc><vAcc>0.708228</vAcc></extensions></trkpt>
      <trkpt lon="-3.343951" lat="54.560422"><ele>356.497986</ele><time>2021-08-12T10:15:28Z</time><extensions><speed>1.492243</speed><course>57.403885</course><hAcc>0.882170</hAcc><vAcc>0.708118</vAcc></extensions></trkpt>
      <trkpt lon="-3.343955" lat="54.560409"><ele>356.461700</ele><time>2021-08-12T10:15:29Z</time><extensions><speed>1.490149</speed><course>56.104736</course><hAcc>0.882170</hAcc><vAcc>0.708034</vAcc></extensions></trkpt>
      <trkpt lon="-3.343958" lat="54.560396"><ele>356.426666</ele><time>2021-08-12T10:15:30Z</time><extensions><speed>1.487429</speed><course>57.135769</course><hAcc>0.882172</hAcc><vAcc>0.708001</vAcc></extensions></trkpt>
      <trkpt lon="-3.343960" lat="54.560382"><ele>356.394073</ele><time>2021-08-12T10:15:31Z</time><extensions><speed>1.483611</speed><course>59.466648</course><hAcc>0.882179</hAcc><vAcc>0.708026</vAcc></extensions></trkpt>
      <trkpt lon="-3.343963" lat="54.560369"><ele>356.364624</ele><time>2021-08-12T10:15:32Z</time><extensions><speed>1.478616</speed><course>56.466339</course><hAcc>0.882193</hAcc><vAcc>0.708100</vAcc></extensions></trkpt>
      <trkpt lon="-3.343966" lat="54.560356"><ele>356.338196</ele><time>2021-08-12T10:15:33Z</time><extensions><speed>1.472700</speed><course>61.082169</course><hAcc>0.882213</hAcc><vAcc>0.708209</vAcc></extensions></trkpt>
      <trkpt lon="-3.343968" lat="54.560343"><ele>356.313690</ele><time>2021-08-12T10:15:34Z</time><extensions><speed>1.465969</speed><course>63.000797</course><hAcc>0.882241</hAcc><vAcc>0.708341</vAcc></extensions></trkpt>
      <trkpt lon="-3.343970" lat="54.560330"><ele>356.289612</ele><time>2021-08-12T10:15:35Z</time><extensions><speed>1.458380</speed><course>58.373146</course><hAcc>0.882273</hAcc><vAcc>0.708487</vAcc></extensions></trkpt>
      <trkpt lon="-3.343972" lat="54.560317"><ele>356.265228</ele><time>2021-08-12T10:15:36Z</time><extensions><speed>1.449990</speed><course>59.591164</course><hAcc>0.882309</hAcc><vAcc>0.708638</vAcc></extensions></trkpt>
      <trkpt lon="-3.343975" lat="54.560304"><ele>356.240692</ele><time>2021-08-12T10:15:37Z</time><extensions><speed>1.440865</speed><course>56.078835</course><hAcc>0.882345</hAcc><vAcc>0.708788</vAcc></extensions></trkpt>
      <trkpt lon="-3.343977" lat="54.560291"><ele>356.216797</ele><time>2021-08-12T10:15:38Z</time><extensions><speed>1.431314</speed><course>61.452141</course><hAcc>0.882379</hAcc><vAcc>0.708927</vAcc></extensions></trkpt>
      <trkpt lon="-3.343979" lat="54.560278"><ele>356.195160</ele><time>2021-08-12T10:15:39Z</time><extensions><speed>1.421859</speed><course>62.349373</course><hAcc>0.882408</hAcc><vAcc>0.709053</vAcc></extensions></trkpt>
      <trkpt lon="-3.343981" lat="54.560266"><ele>356.178009</ele><time>2021-08-12T10:15:40Z</time><extensions><speed>1.412625</speed><course>67.502327</course><hAcc>0.882429</hAcc><vAcc>0.709161</vAcc></extensions></trkpt>
      <trkpt lon="-3.343983" lat="54.560253"><ele>356.167114</ele><time>2021-08-12T10:15:41Z</time><extensions><speed>1.403260</speed><course>65.148994</course><hAcc>0.882439</hAcc><vAcc>0.709244</vAcc></extensions></trkpt>
      <trkpt lon="-3.343985" lat="54.560240"><ele>356.163269</ele><time>2021-08-12T10:15:42Z</time><extensions><speed>1.393641</speed><course>61.604351</course><hAcc>0.882436</hAcc><vAcc>0.709286</vAcc></extensions></trkpt>
      <trkpt lon="-3.343987" lat="54.560228"><ele>356.166382</ele><time>2021-08-12T10:15:43Z</time><extensions><speed>1.383957</speed><course>67.356651</course><hAcc>0.882418</hAcc><vAcc>0.709267</vAcc></extensions></trkpt>
      <trkpt lon="-3.343989" lat="54.560216"><ele>356.175171</ele><time>2021-08-12T10:15:44Z</time><extensions><speed>1.374281</speed><course>56.187717</course><hAcc>0.882385</hAcc><vAcc>0.709172</vAcc></extensions></trkpt>
      <trkpt lon="-3.343992" lat="54.560204"><ele>356.187469</ele><time>2021-08-12T10:15:45Z</time><extensions><speed>1.364838</speed><course>56.273357</course><hAcc>0.882336</hAcc><vAcc>0.708993</vAcc></extensions></trkpt>
      <trkpt lon="-3.343994" lat="54.560191"><ele>356.201141</ele><time>2021-08-12T10:15:46Z</time><extensions><speed>1.356186</speed><course>59.042984</course><hAcc>0.882275</hAcc><vAcc>0.708733</vAcc></extensions></trkpt>
      <trkpt lon="-3.343997" lat="54.560179"><ele>356.214783</ele><time>2021-08-12T10:15:47Z</time><extensions><speed>1.348892</speed><course>46.754299</course><hAcc>0.882201</hAcc><vAcc>0.708405</vAcc></extensions></trkpt>
      <trkpt lon="-3.344001" lat="54.560167"><ele>356.227448</ele><time>2021-08-12T10:15:48Z</time><extensions><speed>1.343576</speed><course>46.754295</course><hAcc>0.882119</hAcc><vAcc>0.708032</vAcc></extensions></trkpt>
      <trkpt lon="-3.344004" lat="54.560156"><ele>356.238678</ele><time>2021-08-12T10:15:49Z</time><extensions><speed>1.340872</speed><course>46.754295</course><hAcc>0.882033</hAcc><vAcc>0.707637</vAcc></extensions></trkpt>
      <trkpt lon="-3.344009" lat="54.560144"><ele>356.248383</ele><time>2021-08-12T10:15:50Z</time><extensions><speed>1.341069</speed><course>46.754295</course><hAcc>0.881947</hAcc><vAcc>0.707250</vAcc></extensions></trkpt>
      <trkpt lon="-3.344014" lat="54.560132"><ele>356.256561</ele><time>2021-08-12T10:15:51Z</time><extensions><speed>1.344068</speed><course>46.754295</course><hAcc>0.881866</hAcc><vAcc>0.706893</vAcc></extensions></trkpt>
      <trkpt lon="-3.344019" lat="54.560120"><ele>356.262726</ele><time>2021-08-12T10:15:52Z</time><extensions><speed>1.349607</speed><course>46.754295</course><hAcc>0.881794</hAcc><vAcc>0.706588</vAcc></extensions></trkpt>
      <trkpt lon="-3.344025" lat="54.560109"><ele>356.265472</ele><time>2021-08-12T10:15:53Z</time><extensions><speed>1.357013</speed><course>46.754295</course><hAcc>0.881737</hAcc><vAcc>0.706349</vAcc></extensions></trkpt>
      <trkpt lon="-3.344032" lat="54.560097"><ele>356.262787</ele><time>2021-08-12T10:15:54Z</time><extensions><speed>1.365545</speed><course>46.754292</course><hAcc>0.881697</hAcc><vAcc>0.706185</vAcc></extensions></trkpt>
      <trkpt lon="-3.344039" lat="54.560086"><ele>356.253357</ele><time>2021-08-12T10:15:55Z</time><extensions><speed>1.374812</speed><course>46.754295</course><hAcc>0.881677</hAcc><vAcc>0.706100</vAcc></extensions></trkpt>
      <trkpt lon="-3.344047" lat="54.560074"><ele>356.236633</ele><time>2021-08-12T10:15:56Z</time><extensions><speed>1.384370</speed><course>86.257805</course><hAcc>0.881679</hAcc><vAcc>0.706094</vAcc></extensions></trkpt>
      <trkpt lon="-3.344055" lat="54.560062"><ele>356.212433</ele><time>2021-08-12T10:15:57Z</time><extensions><speed>1.393905</speed><course>92.864906</course><hAcc>0.881703</hAcc><vAcc>0.706174</vAcc></extensions></trkpt>
      <trkpt lon="-3.344062" lat="54.560051"><ele>356.181030</ele><time>2021-08-12T10:15:58Z</time><extensions><speed>1.403185</speed><course>94.458534</course><hAcc>0.881749</hAcc><vAcc>0.706346</vAcc></extensions></trkpt>
      <trkpt lon="-3.344070" lat="54.560039"><ele>356.143616</ele><time>2021-08-12T10:15:59Z</time><extensions><speed>1.411797</speed><course>89.165138</course><hAcc>0.881813</hAcc><vAcc>0.706615</vAcc></extensions></trkpt>
      <trkpt lon="-3.344078" lat="54.560027"><ele>356.102631</ele><time>2021-08-12T10:16:00Z</time><extensions><speed>1.419449</speed><course>98.187202</course><hAcc>0.881893</hAcc><vAcc>0.706971</vAcc></extensions></trkpt>
      <trkpt lon="-3.344086" lat="54.560015"><ele>356.061859</ele><time>2021-08-12T10:16:01Z</time><extensions><speed>1.425861</speed><course>262.094696</course><hAcc>0.881985</hAcc><vAcc>0.707395</vAcc></extensions></trkpt>
      <trkpt lon="-3.344094" lat="54.560003"><ele>356.026062</ele><time>2021-08-12T10:16:02Z</time><extensions><speed>1.430995</speed><course>273.339569</course><hAcc>0.882083</hAcc><vAcc>0.707856</vAcc></extensions></trkpt>
      <trkpt lon="-3.344101" lat="54.559991"><ele>355.999908</ele><time>2021-08-12T10:16:03Z</time><extensions><speed>1.435046</speed><course>270.133057</course><hAcc>0.882183</hAcc><vAcc>0.708316</vAcc></extensions></trkpt>
      <trkpt lon="-3.344109" lat="54.559979"><ele>355.986816</ele><time>2021-08-12T10:16:04Z</time><extensions><speed>1.437945</speed><course>264.401459</course><hAcc>0.882281</hAcc><vAcc>0.708740</vAcc></extensions></trkpt>
      <trkpt lon="-3.344115" lat="54.559967"><ele>355.988373</ele><time>2021-08-12T10:16:05Z</time><extensions><speed>1.439602</speed><course>271.206299</course><hAcc>0.882370</hAcc><vAcc>0.709108</vAcc></extensions></trkpt>
      <trkpt lon="-3.344121" lat="54.559954"><ele>356.004761</ele><time>2021-08-12T10:16:06Z</time><extensions><speed>1.439974</speed><course>270.479279</course><hAcc>0.882448</hAcc><vAcc>0.709408</vAcc></extensions></trkpt>
      <trkpt lon="-3.344127" lat="54.559942"><ele>356.035065</ele><time>2021-08-12T10:16:07Z</time><extensions><speed>1.439175</speed><course>270.479279</course><hAcc>0.882512</hAcc><vAcc>0.709632</vAcc></extensions></trkpt>
      <trkpt lon="-3.344131" lat="54.559929"><ele>356.077515</ele><time>2021-08-12T10:16:08Z</time><extensions><speed>1.437883</speed><course>270.479279</course><hAcc>0.882560</hAcc><vAcc>0.709780</vAcc></extensions></trkpt>
      <trkpt lon="-3.344135" lat="54.559916"><ele>356.129974</ele><time>2021-08-12T10:16:09Z</time><extensions><speed>1.437220</speed><course>92.836548</course><hAcc>0.882594</hAcc><vAcc>0.709856</vAcc></extensions></trkpt>
      <trkpt lon="-3.344138" lat="54.559903"><ele>356.190918</ele><time>2021-08-12T10:16:10Z</time><extensions><speed>1.438226</speed><course>91.847809</course><hAcc>0.882614</hAcc><vAcc>0.709871</vAcc></extensions></trkpt>
      <trkpt lon="-3.344141" lat="54.559891"><ele>356.259583</ele><time>2021-08-12T10:16:11Z</time><extensions><speed>1.441362</speed><course>96.972961</course><hAcc>0.882621</hAcc><vAcc>0.709840</vAcc></extensions></trkpt>
      <trkpt lon="-3.344142" lat="54.559878"><ele>356.335052</ele><time>2021-08-12T10:16:12Z</time><extensions><speed>1.446020</speed><course>101.432434</course><hAcc>0.882619</hAcc><vAcc>0.709783</vAcc></extensions></trkpt>
      <trkpt lon="-3.344143" lat="54.559865"><ele>356.415222</ele><time>2021-08-12T10:16:13Z</time><extensions><speed>1.450752</speed><course>89.921867</course><hAcc>0.882609</hAcc><vAcc>0.709715</vAcc></extensions></trkpt>
      <trkpt lon="-3.344144" lat="54.559852"><ele>356.497101</ele><time>2021-08-12T10:16:14Z</time><extensions><speed>1.453976</speed><course>79.468422</course><hAcc>0.882595</hAcc><vAcc>0.709647</vAcc></extensions></trkpt>
      <trkpt lon="-3.344144" lat="54.559839"><ele>356.577728</ele><time>2021-08-12T10:16:15Z</time><extensions><speed>1.454928</speed><course>79.668663</course><hAcc>0.882578</hAcc><vAcc>0.709581</vAcc></extensions></trkpt>
      <trkpt lon="-3.344145" lat="54.559825"><ele>356.654785</ele><time>2021-08-12T10:16:16Z</time><extensions><speed>1.453611</speed><course>70.198914</course><hAcc>0.882560</hAcc><vAcc>0.709516</vAcc></extensions></trkpt>
      <trkpt lon="-3.344145" lat="54.559812"><ele>356.726471</ele><time>2021-08-12T10:16:17Z</time><extensions><speed>1.450265</speed><course>85.811096</course><hAcc>0.882542</hAcc><vAcc>0.709451</vAcc></extensions></trkpt>
      <trkpt lon="-3.344145" lat="54.559799"><ele>356.791382</ele><time>2021-08-12T10:16:18Z</time><extensions><speed>1.445192</speed><course>87.515213</course><hAcc>0.882525</hAcc><vAcc>0.709393</vAcc></extensions></trkpt>
      <trkpt lon="-3.344146" lat="54.559786"><ele>356.849152</ele><time>2021-08-12T10:16:19Z</time><extensions><speed>1.438699</speed><course>86.802406</course><hAcc>0.882510</hAcc><vAcc>0.709344</vAcc></extensions></trkpt>
      <trkpt lon="-3.344147" lat="54.559774"><ele>356.900452</ele><time>2021-08-12T10:16:20Z</time><extensions><speed>1.431228</speed><course>85.424927</course><hAcc>0.882494</hAcc><vAcc>0.709302</vAcc></extensions></trkpt>
      <trkpt lon="-3.344149" lat="54.559761"><ele>356.946289</ele><time>2021-08-12T10:16:21Z</time><extensions><speed>1.423096</speed><course>88.911957</course><hAcc>0.882480</hAcc><vAcc>0.709264</vAcc></extensions></trkpt>
      <trkpt lon="-3.344151" lat="54.559748"><ele>356.986969</ele><time>2021-08-12T10:16:22Z</time><extensions><speed>1.414745</speed><course>93.027184</course><hAcc>0.882465</hAcc><vAcc>0.709227</vAcc></extensions></trkpt>
      <trkpt lon="-3.344154" lat="54.559736"><ele>357.022247</ele><time>2021-08-12T10:16:23Z</time><extensions><speed>1.407123</speed><course>90.763535</course><hAcc>0.882451</hAcc><vAcc>0.709186</vAcc></extensions></trkpt>
      <trkpt lon="-3.344157" lat="54.559723"><ele>357.052216</ele><time>2021-08-12T10:16:24Z</time><extensions><speed>1.401292</speed><course>83.392509</course><hAcc>0.882436</hAcc><vAcc>0.709134</vAcc></extensions></trkpt>
      <trkpt lon="-3.344160" lat="54.559711"><ele>357.077271</ele><time>2021-08-12T10:16:25Z</time><extensions><speed>1.397812</speed><course>57.334152</course><hAcc>0.882422</hAcc><vAcc>0.709071</vAcc></extensions></trkpt>
      <trkpt lon="-3.344164" lat="54.559698"><ele>357.098083</ele><time>2021-08-12T10:16:26Z</time><extensions><speed>1.396305</speed><course>29.254333</course><hAcc>0.882407</hAcc><vAcc>0.709003</vAcc></extensions></trkpt>
      <trkpt lon="-3.344168" lat="54.559686"><ele>357.115387</ele><time>2021-08-12T10:16:27Z</time><extensions><speed>1.395686</speed><course>29.254333</course><hAcc>0.882394</hAcc><vAcc>0.708936</vAcc></extensions></trkpt>
      <trkpt lon="-3.344173" lat="54.559674"><ele>357.130127</ele><time>2021-08-12T10:16:28Z</time><extensions><speed>1.395509</speed><course>29.254333</course><hAcc>0.882382</hAcc><vAcc>0.708871</vAcc></extensions></trkpt>
      <trkpt lon="-3.344178" lat="54.559662"><ele>357.143829</ele><time>2021-08-12T10:16:29Z</time><extensions><speed>1.396088</speed><course>29.254332</course><hAcc>0.882372</hAcc><vAcc>0.708811</vAcc></extensions></trkpt>
      <trkpt lon="-3.344184" lat="54.559649"><ele>357.158508</ele><time>2021-08-12T10:16:30Z</time><extensions><speed>1.397498</speed><course>29.254333</course><hAcc>0.882365</hAcc><vAcc>0.708764</vAcc></extensions></trkpt>
      <trkpt lon="-3.344190" lat="54.559637"><ele>357.176575</ele><time>2021-08-12T10:16:31Z</time><extensions><speed>1.399556</speed><course>29.254332</course><hAcc>0.882361</hAcc><vAcc>0.708739</vAcc></extensions></trkpt>
      <trkpt lon="-3.344196" lat="54.559625"><ele>357.200317</ele><time>2021-08-12T10:16:32Z</time><extensions><speed>1.401767</speed><course>29.254332</course><hAcc>0.882361</hAcc><vAcc>0.708743</vAcc></extensions></trkpt>
      <trkpt lon="-3.344202" lat="54.559613"><ele>357.231079</ele><time>2021-08-12T10:16:33Z</time><extensions><speed>1.403158</speed><course>29.254333</course><hAcc>0.882364</hAcc><vAcc>0.708774</vAcc></extensions></trkpt>
      <trkpt lon="-3.344209" lat="54.559601"><ele>357.268402</ele><time>2021-08-12T10:16:34Z</time><extensions><speed>1.402446</speed><course>29.254333</course><hAcc>0.882370</hAcc><vAcc>0.708826</vAcc></extensions></trkpt>
      <trkpt lon="-3.344215" lat="54.559589"><ele>357.310547</ele><time>2021-08-12T10:16:35Z</time><extensions><speed>1.399077</speed><course>29.254332</course><hAcc>0.882379</hAcc><vAcc>0.708887</vAcc></extensions></trkpt>
      <trkpt lon="-3.344222" lat="54.559577"><ele>357.355865</ele><time>2021-08-12T10:16:36Z</time><extensions><speed>1.393359</speed><course>29.254333</course><hAcc>0.882391</hAcc><vAcc>0.708948</vAcc></extensions></trkpt>
      <trkpt lon="-3.344228" lat="54.559565"><ele>357.403107</ele><time>2021-08-12T10:16:37Z</time><extensions><speed>1.385937</speed><course>29.254337</course><hAcc>0.882407</hAcc><vAcc>0.709000</vAcc></extensions></trkpt>
      <trkpt lon="-3.344234" lat="54.559554"><ele>357.450867</ele><time>2021-08-12T10:16:38Z</time><extensions><speed>1.377597</speed><course>29.254337</course><hAcc>0.882426</hAcc><vAcc>0.709045</vAcc></extensions></trkpt>
      <trkpt lon="-3.344240" lat="54.559542"><ele>357.497955</ele><time>2021-08-12T10:16:39Z</time><extensions><speed>1.369015</speed><course>29.254339</course><hAcc>0.882448</hAcc><vAcc>0.709091</vAcc></extensions></trkpt>
      <trkpt lon="-3.344246" lat="54.559530"><ele>357.543976</ele><time>2021-08-12T10:16:40Z</time><extensions><speed>1.360960</speed><course>29.254337</course><hAcc>0.882474</hAcc><vAcc>0.709153</vAcc></extensions></trkpt>
      <trkpt lon="-3.344252" lat="54.559518"><ele>357.589355</ele><time>2021-08-12T10:16:41Z</time><extensions><speed>1.353976</speed><course>29.254339</course><hAcc>0.882502</hAcc><vAcc>0.709243</vAcc></extensions></trkpt>
      <trkpt lon="-3.344258" lat="54.559507"><ele>357.634705</ele><time>2021-08-12T10:16:42Z</time><extensions><speed>1.348051</speed><course>353.139893</course><hAcc>0.882534</hAcc><vAcc>0.709366</vAcc></extensions></trkpt>
      <trkpt lon="-3.344263" lat="54.559495"><ele>357.679810</ele><time>2021-08-12T10:16:43Z</time><extensions><speed>1.342269</speed><course>-1.000000</course><hAcc>0.882568</hAcc><vAcc>0.709517</vAcc></extensions></trkpt>
      <trkpt lon="-3.344269" lat="54.559483"><ele>357.723450</ele><time>2021-08-12T10:16:44Z</time><extensions><speed>1.336083</speed><course>-1.000000</course><hAcc>0.882605</hAcc><vAcc>0.709685</vAcc></extensions></trkpt>
      <trkpt lon="-3.344274" lat="54.559472"><ele>357.764618</ele><time>2021-08-12T10:16:45Z</time><extensions><speed>1.329669</speed><course>-1.000000</course><hAcc>0.882644</hAcc><vAcc>0.709858</vAcc></extensions></trkpt>
      <trkpt lon="-3.344279" lat="54.559460"><ele>357.803040</ele><time>2021-08-12T10:16:46Z</time><extensions><speed>1.323156</speed><course>-1.000000</course><hAcc>0.882685</hAcc><vAcc>0.710025</vAcc></extensions></trkpt>
      <trkpt lon="-3.344284" lat="54.559449"><ele>357.838776</ele><time>2021-08-12T10:16:47Z</time><extensions><speed>1.317058</speed><course>-1.000000</course><hAcc>0.882726</hAcc><vAcc>0.710182</vAcc></extensions></trkpt>
      <trkpt lon="-3.344288" lat="54.559437"><ele>357.871857</ele><time>2021-08-12T10:16:48Z</time><extensions><speed>1.311708</speed><course>-1.000000</course><hAcc>0.882768</hAcc><vAcc>0.710324</vAcc></extensions></trkpt>
      <trkpt lon="-3.344293" lat="54.559426"><ele>357.902435</ele><time>2021-08-12T10:16:49Z</time><extensions><speed>1.307266</speed><course>-1.000000</course><hAcc>0.882809</hAcc><vAcc>0.710454</vAcc></extensions></trkpt>
      <trkpt lon="-3.344297" lat="54.559414"><ele>357.931183</ele><time>2021-08-12T10:16:50Z</time><extensions><speed>1.303882</speed><course>-1.000000</course><hAcc>0.882850</hAcc><vAcc>0.710580</vAcc></extensions></trkpt>
      <trkpt lon="-3.344301" lat="54.559403"><ele>357.959259</ele><time>2021-08-12T10:16:51Z</time><extensions><speed>1.301468</speed><course>-1.000000</course><hAcc>0.882889</hAcc><vAcc>0.710709</vAcc></extensions></trkpt>
      <trkpt lon="-3.344305" lat="54.559391"><ele>357.988220</ele><time>2021-08-12T10:16:52Z</time><extensions><speed>1.300078</speed><course>-1.000000</course><hAcc>0.882926</hAcc><vAcc>0.710846</vAcc></extensions></trkpt>
      <trkpt lon="-3.344309" lat="54.559380"><ele>358.019653</ele><time>2021-08-12T10:16:53Z</time><extensions><speed>1.299761</speed><course>-1.000000</course><hAcc>0.882962</hAcc><vAcc>0.710988</vAcc></extensions></trkpt>
      <trkpt lon="-3.344313" lat="54.559368"><ele>358.054749</ele><time>2021-08-12T10:16:54Z</time><extensions><speed>1.300676</speed><course>74.830536</course><hAcc>0.882994</hAcc><vAcc>0.711126</vAcc></extensions></trkpt>
      <trkpt lon="-3.344317" lat="54.559357"><ele>358.094452</ele><time>2021-08-12T10:16:55Z</time><extensions><speed>1.302964</speed><course>62.161198</course><hAcc>0.883023</hAcc><vAcc>0.711253</vAcc></extensions></trkpt>
      <trkpt lon="-3.344321" lat="54.559345"><ele>358.139679</ele><time>2021-08-12T10:16:56Z</time><extensions><speed>1.306331</speed><course>66.043793</course><hAcc>0.883047</hAcc><vAcc>0.711363</vAcc></extensions></trkpt>
      <trkpt lon="-3.344325" lat="54.559334"><ele>358.190918</ele><time>2021-08-12T10:16:57Z</time><extensions><speed>1.310150</speed><course>75.803009</course><hAcc>0.883065</hAcc><vAcc>0.711451</vAcc></extensions></trkpt>
      <trkpt lon="-3.344329" lat="54.559322"><ele>358.247864</ele><time>2021-08-12T10:16:58Z</time><extensions><speed>1.313769</speed><course>76.191063</course><hAcc>0.883076</hAcc><vAcc>0.711511</vAcc></extensions></trkpt>
      <trkpt lon="-3.344333" lat="54.559311"><ele>358.309723</ele><time>2021-08-12T10:16:59Z</time><extensions><speed>1.316875</speed><course>76.349960</course><hAcc>0.883080</hAcc><vAcc>0.711537</vAcc></extensions></trkpt>
      <trkpt lon="-3.344337" lat="54.559299"><ele>358.375916</ele><time>2021-08-12T10:17:00Z</time><extensions><speed>1.319441</speed><course>78.477806</course><hAcc>0.883075</hAcc><vAcc>0.711525</vAcc></extensions></trkpt>
      <trkpt lon="-3.344340" lat="54.559287"><ele>358.446472</ele><time>2021-08-12T10:17:01Z</time><extensions><speed>1.321638</speed><course>75.070290</course><hAcc>0.883062</hAcc><vAcc>0.711474</vAcc></extensions></trkpt>
      <trkpt lon="-3.344344" lat="54.559276"><ele>358.521454</ele><time>2021-08-12T10:17:02Z</time><extensions><speed>1.323671</speed><course>69.086029</course><hAcc>0.883042</hAcc><vAcc>0.711386</vAcc></extensions></trkpt>
      <trkpt lon="-3.344347" lat="54.559264"><ele>358.600647</ele><time>2021-08-12T10:17:03Z</time><extensions><speed>1.325808</speed><course>68.949226</course><hAcc>0.883015</hAcc><vAcc>0.711264</vAcc></extensions></trkpt>
      <trkpt lon="-3.344349" lat="54.559252"><ele>358.683319</ele><time>2021-08-12T10:17:04Z</time><extensions><speed>1.328422</speed><course>71.686111</course><hAcc>0.882982</hAcc><vAcc>0.711115</vAcc></extensions></trkpt>
      <trkpt lon="-3.344351" lat="54.559240"><ele>358.768158</ele><time>2021-08-12T10:17:05Z</time><extensions><speed>1.331857</speed><course>76.597496</course><hAcc>0.882945</hAcc><vAcc>0.710945</vAcc></extensions></trkpt>
      <trkpt lon="-3.344353" lat="54.559228"><ele>358.853668</ele><time>2021-08-12T10:17:06Z</time><extensions><speed>1.336066</speed><course>90.005066</course><hAcc>0.882905</hAcc><vAcc>0.710766</vAcc></extensions></trkpt>
      <trkpt lon="-3.344354" lat="54.559216"><ele>358.938446</ele><time>2021-08-12T10:17:07Z</time><extensions><speed>1.341030</speed><course>83.948074</course><hAcc>0.882865</hAcc><vAcc>0.710591</vAcc></extensions></trkpt>
      <trkpt lon="-3.344354" lat="54.559204"><ele>359.021027</ele><time>2021-08-12T10:17:08Z</time><extensions><speed>1.346890</speed><course>76.996796</course><hAcc>0.882825</hAcc><vAcc>0.710429</vAcc></extensions></trkpt>
      <trkpt lon="-3.344354" lat="54.559192"><ele>359.100372</ele><time>2021-08-12T10:17:09Z</time><extensions><speed>1.353638</speed><course>79.507355</course><hAcc>0.882787</hAcc><vAcc>0.710285</vAcc></extensions></trkpt>
      <trkpt lon="-3.344354" lat="54.559180"><ele>359.175690</ele><time>2021-08-12T10:17:10Z</time><extensions><speed>1.360806</speed><course>72.096832</course><hAcc>0.882751</hAcc><vAcc>0.710162</vAcc></extensions></trkpt>
      <trkpt lon="-3.344354" lat="54.559168"><ele>359.246338</ele><time>2021-08-12T10:17:11Z</time><extensions><speed>1.367765</speed><course>80.368279</course><hAcc>0.882719</hAcc><vAcc>0.710058</vAcc></extensions></trkpt>
      <trkpt lon="-3.344353" lat="54.559155"><ele>359.311798</ele><time>2021-08-12T10:17:12Z</time><extensions><speed>1.374364</speed><course>78.982643</course><hAcc>0.882691</hAcc><vAcc>0.709971</vAcc></extensions></trkpt>
      <trkpt lon="-3.344352" lat="54.559143"><ele>359.371979</ele><time>2021-08-12T10:17:13Z</time><extensions><speed>1.380308</speed><course>81.075706</course><hAcc>0.882668</hAcc><vAcc>0.709899</vAcc></extensions></trkpt>
      <trkpt lon="-3.344351" lat="54.559131"><ele>359.426941</ele><time>2021-08-12T10:17:14Z</time><extensions><speed>1.385257</speed><course>81.007790</course><hAcc>0.882649</hAcc><vAcc>0.709839</vAcc></extensions></trkpt>
      <trkpt lon="-3.344351" lat="54.559118"><ele>359.476135</ele><time>2021-08-12T10:17:15Z</time><extensions><speed>1.389510</speed><course>78.272133</course><hAcc>0.882636</hAcc><vAcc>0.709787</vAcc></extensions></trkpt>
      <trkpt lon="-3.344350" lat="54.559106"><ele>359.518280</ele><time>2021-08-12T10:17:16Z</time><extensions><speed>1.393664</speed><course>73.069588</course><hAcc>0.882630</hAcc><vAcc>0.709743</vAcc></extensions></trkpt>
      <trkpt lon="-3.344350" lat="54.559093"><ele>359.551971</ele><time>2021-08-12T10:17:17Z</time><extensions><speed>1.398127</speed><course>77.189682</course><hAcc>0.882629</hAcc><vAcc>0.709712</vAcc></extensions></trkpt>
      <trkpt lon="-3.344350" lat="54.559080"><ele>359.576202</ele><time>2021-08-12T10:17:18Z</time><extensions><speed>1.403190</speed><course>75.197517</course><hAcc>0.882634</hAcc><vAcc>0.709709</vAcc></extensions></trkpt>
      <trkpt lon="-3.344350" lat="54.559068"><ele>359.590515</ele><time>2021-08-12T10:17:19Z</time><extensions><speed>1.408501</speed><course>67.733307</course><hAcc>0.882644</hAcc><vAcc>0.709743</vAcc></extensions></trkpt>
      <trkpt lon="-3.344351" lat="54.559055"><ele>359.594543</ele><time>2021-08-12T10:17:20Z</time><extensions><speed>1.413242</speed><course>69.123688</course><hAcc>0.882659</hAcc><vAcc>0.709817</vAcc></extensions></trkpt>
      <trkpt lon="-3.344352" lat="54.559042"><ele>359.588043</ele><time>2021-08-12T10:17:21Z</time><extensions><speed>1.417225</speed><course>71.299400</course><hAcc>0.882677</hAcc><vAcc>0.709922</vAcc></extensions></trkpt>
      <trkpt lon="-3.344352" lat="54.559030"><ele>359.571411</ele><time>2021-08-12T10:17:22Z</time><extensions><speed>1.420334</speed><course>77.479210</course><hAcc>0.882698</hAcc><vAcc>0.710039</vAcc></extensions></trkpt>
      <trkpt lon="-3.344353" lat="54.559017"><ele>359.545929</ele><time>2021-08-12T10:17:23Z</time><extensions><speed>1.422368</speed><course>68.623329</course><hAcc>0.882720</hAcc><vAcc>0.710155</vAcc></extensions></trkpt>
      <trkpt lon="-3.344354" lat="54.559004"><ele>359.513794</ele><time>2021-08-12T10:17:24Z</time><extensions><speed>1.423314</speed><course>63.866425</course><hAcc>0.882741</hAcc><vAcc>0.710259</vAcc></extensions></trkpt>
      <trkpt lon="-3.344355" lat="54.558991"><ele>359.478088</ele><time>2021-08-12T10:17:25Z</time><extensions><speed>1.422943</speed><course>76.291603</course><hAcc>0.882760</hAcc><vAcc>0.710342</vAcc></extensions></trkpt>
      <trkpt lon="-3.344356" lat="54.558979"><ele>359.441803</ele><time>2021-08-12T10:17:26Z</time><extensions><speed>1.421084</speed><course>71.777351</course><hAcc>0.882776</hAcc><vAcc>0.710402</vAcc></extensions></trkpt>
      <trkpt lon="-3.344356" lat="54.558966"><ele>359.406555</ele><time>2021-08-12T10:17:27Z</time><extensions><speed>1.417715</speed><course>76.476341</course><hAcc>0.882787</hAcc><vAcc>0.710435</vAcc></extensions></trkpt>
      <trkpt lon="-3.344356" lat="54.558953"><ele>359.371948</ele><time>2021-08-12T10:17:28Z</time><extensions><speed>1.413083</speed><course>63.346680</course><hAcc>0.882792</hAcc><vAcc>0.710442</vAcc></extensions></trkpt>
      <trkpt lon="-3.344355" lat="54.558941"><ele>359.336548</ele><time>2021-08-12T10:17:29Z</time><extensions><speed>1.408455</speed><course>60.883244</course><hAcc>0.882791</hAcc><vAcc>0.710427</vAcc></extensions></trkpt>
      <trkpt lon="-3.344353" lat="54.558928"><ele>359.299316</ele><time>2021-08-12T10:17:30Z</time><extensions><speed>1.405420</speed><course>66.100471</course><hAcc>0.882785</hAcc><vAcc>0.710390</vAcc></extensions></trkpt>
      <trkpt lon="-3.344351" lat="54.558915"><ele>359.259644</ele><time>2021-08-12T10:17:31Z</time><extensions><speed>1.404822</speed><course>66.284729</course><hAcc>0.882771</hAcc><vAcc>0.710336</vAcc></extensions></trkpt>
      <trkpt lon="-3.344347" lat="54.558903"><ele>359.217041</ele><time>2021-08-12T10:17:32Z</time><extensions><speed>1.407224</speed><course>70.183884</course><hAcc>0.882751</hAcc><vAcc>0.710270</vAcc></extensions></trkpt>
      <trkpt lon="-3.344343" lat="54.558891"><ele>359.171234</ele><time>2021-08-12T10:17:33Z</time><extensions><speed>1.412834</speed><course>69.091454</course><hAcc>0.882725</hAcc><vAcc>0.710189</vAcc></extensions></trkpt>
      <trkpt lon="-3.344338" lat="54.558878"><ele>359.122772</ele><time>2021-08-12T10:17:34Z</time><extensions><speed>1.421294</speed><course>67.595528</course><hAcc>0.882693</hAcc><vAcc>0.710088</vAcc></extensions></trkpt>
      <trkpt lon="-3.344332" lat="54.558866"><ele>359.073029</ele><time>2021-08-12T10:17:35Z</time><extensions><speed>1.431585</speed><course>69.079941</course><hAcc>0.882657</hAcc><vAcc>0.709961</vAcc></extensions></trkpt>
      <trkpt lon="-3.344325" lat="54.558853"><ele>359.024170</ele><time>2021-08-12T10:17:36Z</time><extensions><speed>1.442194</speed><course>67.638985</course><hAcc>0.882616</hAcc><vAcc>0.709808</vAcc></extensions></trkpt>
      <trkpt lon="-3.344318" lat="54.558841"><ele>358.978607</ele><time>2021-08-12T10:17:37Z</time><extensions><speed>1.451785</speed><course>67.902077</course><hAcc>0.882573</hAcc><vAcc>0.709632</vAcc></extensions></trkpt>
      <trkpt lon="-3.344310" lat="54.558829"><ele>358.938293</ele><time>2021-08-12T10:17:38Z</time><extensions><speed>1.459166</speed><course>68.213737</course><hAcc>0.882530</hAcc><vAcc>0.709440</vAcc></extensions></trkpt>
      <trkpt lon="-3.344302" lat="54.558817"><ele>358.904449</ele><time>2021-08-12T10:17:39Z</time><extensions><speed>1.463484</speed><course>58.646133</course><hAcc>0.882488</hAcc><vAcc>0.709243</vAcc></extensions></trkpt>
      <trkpt lon="-3.344294" lat="54.558804"><ele>358.877380</ele><time>2021-08-12T10:17:40Z</time><extensions><speed>1.464833</speed><course>60.787758</course><hAcc>0.882450</hAcc><vAcc>0.709056</vAcc></extensions></trkpt>
      <trkpt lon="-3.344286" lat="54.558792"><ele>358.856903</ele><time>2021-08-12T10:17:41Z</time><extensions><speed>1.463961</speed><course>59.107254</course><hAcc>0.882416</hAcc><vAcc>0.708893</vAcc></extensions></trkpt>
      <trkpt lon="-3.344278" lat="54.558780"><ele>358.842957</ele><time>2021-08-12T10:17:42Z</time><extensions><speed>1.461693</speed><course>59.308796</course><hAcc>0.882390</hAcc><vAcc>0.708767</vAcc></extensions></trkpt>
      <trkpt lon="-3.344269" lat="54.558768"><ele>358.835754</ele><time>2021-08-12T10:17:43Z</time><extensions><speed>1.458786</speed><course>63.536522</course><hAcc>0.882371</hAcc><vAcc>0.708685</vAcc></extensions></trkpt>
      <trkpt lon="-3.344261" lat="54.558756"><ele>358.835510</ele><time>2021-08-12T10:17:44Z</time><extensions><speed>1.455537</speed><course>64.110619</course><hAcc>0.882361</hAcc><vAcc>0.708652</vAcc></extensions></trkpt>
      <trkpt lon="-3.344253" lat="54.558743"><ele>358.842224</ele><time>2021-08-12T10:17:45Z</time><extensions><speed>1.451658</speed><course>57.783936</course><hAcc>0.882358</hAcc><vAcc>0.708669</vAcc></extensions></trkpt>
      <trkpt lon="-3.344245" lat="54.558731"><ele>358.855957</ele><time>2021-08-12T10:17:46Z</time><extensions><speed>1.446830</speed><course>62.673740</course><hAcc>0.882362</hAcc><vAcc>0.708731</vAcc></extensions></trkpt>
      <trkpt lon="-3.344238" lat="54.558719"><ele>358.877045</ele><time>2021-08-12T10:17:47Z</time><extensions><speed>1.440781</speed><course>68.268181</course><hAcc>0.882372</hAcc><vAcc>0.708827</vAcc></extensions></trkpt>
      <trkpt lon="-3.344231" lat="54.558707"><ele>358.906158</ele><time>2021-08-12T10:17:48Z</time><extensions><speed>1.433545</speed><course>59.735432</course><hAcc>0.882386</hAcc><vAcc>0.708941</vAcc></extensions></trkpt>
      <trkpt lon="-3.344225" lat="54.558694"><ele>358.944000</ele><time>2021-08-12T10:17:49Z</time><extensions><speed>1.425759</speed><course>59.192490</course><hAcc>0.882403</hAcc><vAcc>0.709048</vAcc></extensions></trkpt>
      <trkpt lon="-3.344219" lat="54.558682"><ele>358.990540</ele><time>2021-08-12T10:17:50Z</time><extensions><speed>1.418057</speed><course>60.825825</course><hAcc>0.882421</hAcc><vAcc>0.709129</vAcc></extensions></trkpt>
      <trkpt lon="-3.344214" lat="54.558670"><ele>359.044983</ele><time>2021-08-12T10:17:51Z</time><extensions><speed>1.410903</speed><course>62.921200</course><hAcc>0.882439</hAcc><vAcc>0.709178</vAcc></extensions></trkpt>
      <trkpt lon="-3.344209" lat="54.558657"><ele>359.105835</ele><time>2021-08-12T10:17:52Z</time><extensions><speed>1.404520</speed><course>59.145714</course><hAcc>0.882457</hAcc><vAcc>0.709202</vAcc></extensions></trkpt>
      <trkpt lon="-3.344205" lat="54.558645"><ele>359.171112</ele><time>2021-08-12T10:17:53Z</time><extensions><speed>1.398640</speed><course>54.852036</course><hAcc>0.882473</hAcc><vAcc>0.709215</vAcc></extensions></trkpt>
      <trkpt lon="-3.344200" lat="54.558633"><ele>359.239075</ele><time>2021-08-12T10:17:54Z</time><extensions><speed>1.392975</speed><course>52.958679</course><hAcc>0.882487</hAcc><vAcc>0.709228</vAcc></extensions></trkpt>
      <trkpt lon="-3.344196" lat="54.558620"><ele>359.308807</ele><time>2021-08-12T10:17:55Z</time><extensions><speed>1.387640</speed><course>51.642593</course><hAcc>0.882500</hAcc><vAcc>0.709251</vAcc></extensions></trkpt>
      <trkpt lon="-3.344193" lat="54.558608"><ele>359.380035</ele><time>2021-08-12T10:17:56Z</time><extensions><speed>1.382965</speed><course>50.915668</course><hAcc>0.882511</hAcc><vAcc>0.709290</vAcc></extensions></trkpt>
      <trkpt lon="-3.344189" lat="54.558596"><ele>359.452911</ele><time>2021-08-12T10:17:57Z</time><extensions><speed>1.379225</speed><course>43.517220</course><hAcc>0.882519</hAcc><vAcc>0.709344</vAcc></extensions></trkpt>
      <trkpt lon="-3.344186" lat="54.558584"><ele>359.527771</ele><time>2021-08-12T10:17:58Z</time><extensions><speed>1.376557</speed><course>53.213661</course><hAcc>0.882523</hAcc><vAcc>0.709406</vAcc></extensions></trkpt>
      <trkpt lon="-3.344182" lat="54.558571"><ele>359.604858</ele><time>2021-08-12T10:17:59Z</time><extensions><speed>1.374784</speed><course>42.672325</course><hAcc>0.882523</hAcc><vAcc>0.709463</vAcc></extensions></trkpt>
      <trkpt lon="-3.344180" lat="54.558559"><ele>359.684296</ele><time>2021-08-12T10:18:00Z</time><extensions><speed>1.373313</speed><course>57.842590</course><hAcc>0.882519</hAcc><vAcc>0.709502</vAcc></extensions></trkpt>
      <trkpt lon="-3.344177" lat="54.558547"><ele>359.766510</ele><time>2021-08-12T10:18:01Z</time><extensions><speed>1.371829</speed><course>54.432369</course><hAcc>0.882508</hAcc><vAcc>0.709508</vAcc></extensions></trkpt>
      <trkpt lon="-3.344174" lat="54.558535"><ele>359.851593</ele><time>2021-08-12T10:18:02Z</time><extensions><speed>1.370561</speed><course>53.099045</course><hAcc>0.882493</hAcc><vAcc>0.709467</vAcc></extensions></trkpt>
      <trkpt lon="-3.344172" lat="54.558523"><ele>359.939087</ele><time>2021-08-12T10:18:03Z</time><extensions><speed>1.369962</speed><course>52.709480</course><hAcc>0.882474</hAcc><vAcc>0.709373</vAcc></extensions></trkpt>
      <trkpt lon="-3.344170" lat="54.558510"><ele>360.027954</ele><time>2021-08-12T10:18:04Z</time><extensions><speed>1.370383</speed><course>55.566643</course><hAcc>0.882453</hAcc><vAcc>0.709236</vAcc></extensions></trkpt>
      <trkpt lon="-3.344169" lat="54.558498"><ele>360.116547</ele><time>2021-08-12T10:18:05Z</time><extensions><speed>1.372105</speed><course>50.999676</course><hAcc>0.882431</hAcc><vAcc>0.709075</vAcc></extensions></trkpt>
      <trkpt lon="-3.344168" lat="54.558486"><ele>360.203217</ele><time>2021-08-12T10:18:06Z</time><extensions><speed>1.375397</speed><course>49.932701</course><hAcc>0.882412</hAcc><vAcc>0.708915</vAcc></extensions></trkpt>
      <trkpt lon="-3.344168" lat="54.558473"><ele>360.286682</ele><time>2021-08-12T10:18:07Z</time><extensions><speed>1.380226</speed><course>44.103298</course><hAcc>0.882399</hAcc><vAcc>0.708785</vAcc></extensions></trkpt>
      <trkpt lon="-3.344168" lat="54.558461"><ele>360.365814</ele><time>2021-08-12T10:18:08Z</time><extensions><speed>1.386078</speed><course>35.959499</course><hAcc>0.882392</hAcc><vAcc>0.708706</vAcc></extensions></trkpt>
      <trkpt lon="-3.344168" lat="54.558448"><ele>360.439606</ele><time>2021-08-12T10:18:09Z</time><extensions><speed>1.392379</speed><course>30.952709</course><hAcc>0.882394</hAcc><vAcc>0.708695</vAcc></extensions></trkpt>
      <trkpt lon="-3.344168" lat="54.558436"><ele>360.507416</ele><time>2021-08-12T10:18:10Z</time><extensions><speed>1.398902</speed><course>43.709347</course><hAcc>0.882405</hAcc><vAcc>0.708757</vAcc></extensions></trkpt>
      <trkpt lon="-3.344169" lat="54.558423"><ele>360.569214</ele><time>2021-08-12T10:18:11Z</time><extensions><speed>1.405340</speed><course>37.574459</course><hAcc>0.882423</hAcc><vAcc>0.708886</vAcc></extensions></trkpt>
      <trkpt lon="-3.344170" lat="54.558411"><ele>360.625336</ele><time>2021-08-12T10:18:12Z</time><extensions><speed>1.411243</speed><course>40.028488</course><hAcc>0.882447</hAcc><vAcc>0.709061</vAcc></extensions></trkpt>
      <trkpt lon="-3.344171" lat="54.558398"><ele>360.676392</ele><time>2021-08-12T10:18:13Z</time><extensions><speed>1.416477</speed><course>39.088745</course><hAcc>0.882474</hAcc><vAcc>0.709256</vAcc></extensions></trkpt>
      <trkpt lon="-3.344172" lat="54.558385"><ele>360.723602</ele><time>2021-08-12T10:18:14Z</time><extensions><speed>1.421166</speed><course>38.227211</course><hAcc>0.882498</hAcc><vAcc>0.709435</vAcc></extensions></trkpt>
      <trkpt lon="-3.344173" lat="54.558372"><ele>360.768860</ele><time>2021-08-12T10:18:15Z</time><extensions><speed>1.425565</speed><course>38.580025</course><hAcc>0.882517</hAcc><vAcc>0.709571</vAcc></extensions></trkpt>
      <trkpt lon="-3.344174" lat="54.558360"><ele>360.814697</ele><time>2021-08-12T10:18:16Z</time><extensions><speed>1.429851</speed><course>36.225418</course><hAcc>0.882526</hAcc><vAcc>0.709649</vAcc></extensions></trkpt>
      <trkpt lon="-3.344175" lat="54.558347"><ele>360.864166</ele><time>2021-08-12T10:18:17Z</time><extensions><speed>1.433862</speed><course>36.482189</course><hAcc>0.882521</hAcc><vAcc>0.709657</vAcc></extensions></trkpt>
      <trkpt lon="-3.344176" lat="54.558334"><ele>360.919769</ele><time>2021-08-12T10:18:18Z</time><extensions><speed>1.437198</speed><course>45.117634</course><hAcc>0.882501</hAcc><vAcc>0.709587</vAcc></extensions></trkpt>
      <trkpt lon="-3.344177" lat="54.558321"><ele>360.982635</ele><time>2021-08-12T10:18:19Z</time><extensions><speed>1.439488</speed><course>40.176819</course><hAcc>0.882465</hAcc><vAcc>0.709436</vAcc></extensions></trkpt>
      <trkpt lon="-3.344177" lat="54.558308"><ele>361.052490</ele><time>2021-08-12T10:18:20Z</time><extensions><speed>1.440519</speed><course>42.588684</course><hAcc>0.882413</hAcc><vAcc>0.709209</vAcc></extensions></trkpt>
      <trkpt lon="-3.344176" lat="54.558295"><ele>361.128326</ele><time>2021-08-12T10:18:21Z</time><extensions><speed>1.440114</speed><course>41.771687</course><hAcc>0.882348</hAcc><vAcc>0.708918</vAcc></extensions></trkpt>
      <trkpt lon="-3.344176" lat="54.558282"><ele>361.208435</ele><time>2021-08-12T10:18:22Z</time><extensions><speed>1.438304</speed><course>41.372017</course><hAcc>0.882272</hAcc><vAcc>0.708580</vAcc></extensions></trkpt>
      <trkpt lon="-3.344175" lat="54.558269"><ele>361.291077</ele><time>2021-08-12T10:18:23Z</time><extensions><speed>1.435432</speed><course>37.017429</course><hAcc>0.882189</hAcc><vAcc>0.708214</vAcc></extensions></trkpt>
      <trkpt lon="-3.344173" lat="54.558256"><ele>361.375092</ele><time>2021-08-12T10:18:24Z</time><extensions><speed>1.432038</speed><course>28.588495</course><hAcc>0.882103</hAcc><vAcc>0.707837</vAcc></extensions></trkpt>
      <trkpt lon="-3.344172" lat="54.558244"><ele>361.459564</ele><time>2021-08-12T10:18:25Z</time><extensions><speed>1.428501</speed><course>39.512306</course><hAcc>0.882019</hAcc><vAcc>0.707471</vAcc></extensions></trkpt>
      <trkpt lon="-3.344170" lat="54.558231"><ele>361.543762</ele><time>2021-08-12T10:18:26Z</time><extensions><speed>1.424843</speed><course>38.955353</course><hAcc>0.881943</hAcc><vAcc>0.707134</vAcc></extensions></trkpt>
      <trkpt lon="-3.344167" lat="54.558218"><ele>361.626740</ele><time>2021-08-12T10:18:27Z</time><extensions><speed>1.421128</speed><course>35.270641</course><hAcc>0.881876</hAcc><vAcc>0.706847</vAcc></extensions></trkpt>
      <trkpt lon="-3.344165" lat="54.558205"><ele>361.707581</ele><time>2021-08-12T10:18:28Z</time><extensions><speed>1.417391</speed><course>38.302330</course><hAcc>0.881824</hAcc><vAcc>0.706625</vAcc></extensions></trkpt>
      <trkpt lon="-3.344162" lat="54.558193"><ele>361.785004</ele><time>2021-08-12T10:18:29Z</time><extensions><speed>1.413355</speed><course>40.976086</course><hAcc>0.881787</hAcc><vAcc>0.706479</vAcc></extensions></trkpt>
      <trkpt lon="-3.344159" lat="54.558180"><ele>361.857361</ele><time>2021-08-12T10:18:30Z</time><extensions><speed>1.408784</speed><course>40.718147</course><hAcc>0.881767</hAcc><vAcc>0.706413</vAcc></extensions></trkpt>
      <trkpt lon="-3.344156" lat="54.558168"><ele>361.922974</ele><time>2021-08-12T10:18:31Z</time><extensions><speed>1.403521</speed><course>40.437557</course><hAcc>0.881764</hAcc><vAcc>0.706428</vAcc></extensions></trkpt>
      <trkpt lon="-3.344153" lat="54.558155"><ele>361.980438</ele><time>2021-08-12T10:18:32Z</time><extensions><speed>1.397430</speed><course>38.315979</course><hAcc>0.881777</hAcc><vAcc>0.706518</vAcc></extensions></trkpt>
      <trkpt lon="-3.344150" lat="54.558143"><ele>362.028564</ele><time>2021-08-12T10:18:33Z</time><extensions><speed>1.390480</speed><course>28.668550</course><hAcc>0.881803</hAcc><vAcc>0.706671</vAcc></extensions></trkpt>
      <trkpt lon="-3.344147" lat="54.558131"><ele>362.066467</ele><time>2021-08-12T10:18:34Z</time><extensions><speed>1.383124</speed><course>31.392698</course><hAcc>0.881839</hAcc><vAcc>0.706866</vAcc></extensions></trkpt>
      <trkpt lon="-3.344144" lat="54.558118"><ele>362.094269</ele><time>2021-08-12T10:18:35Z</time><extensions><speed>1.375962</speed><course>32.848076</course><hAcc>0.881884</hAcc><vAcc>0.707080</vAcc></extensions></trkpt>
      <trkpt lon="-3.344142" lat="54.558106"><ele>362.113037</ele><time>2021-08-12T10:18:36Z</time><extensions><speed>1.369290</speed><course>38.096359</course><hAcc>0.881933</hAcc><vAcc>0.707296</vAcc></extensions></trkpt>
      <trkpt lon="-3.344139" lat="54.558094"><ele>362.124512</ele><time>2021-08-12T10:18:37Z</time><extensions><speed>1.363399</speed><course>27.737675</course><hAcc>0.881983</hAcc><vAcc>0.707502</vAcc></extensions></trkpt>
      <trkpt lon="-3.344138" lat="54.558082"><ele>362.130432</ele><time>2021-08-12T10:18:38Z</time><extensions><speed>1.358746</speed><course>38.820049</course><hAcc>0.882032</hAcc><vAcc>0.707689</vAcc></extensions></trkpt>
      <trkpt lon="-3.344136" lat="54.558070"><ele>362.132355</ele><time>2021-08-12T10:18:39Z</time><extensions><speed>1.355859</speed><course>40.137299</course><hAcc>0.882079</hAcc><vAcc>0.707853</vAcc></extensions></trkpt>
      <trkpt lon="-3.344136" lat="54.558057"><ele>362.131134</ele><time>2021-08-12T10:18:40Z</time><extensions><speed>1.354683</speed><course>44.560421</course><hAcc>0.882120</hAcc><vAcc>0.707996</vAcc></extensions></trkpt>
      <trkpt lon="-3.344136" lat="54.558045"><ele>362.126617</ele><time>2021-08-12T10:18:41Z</time><extensions><speed>1.354582</speed><course>41.574787</course><hAcc>0.882156</hAcc><vAcc>0.708118</vAcc></extensions></trkpt>
      <trkpt lon="-3.344136" lat="54.558033"><ele>362.117981</ele><time>2021-08-12T10:18:42Z</time><extensions><speed>1.355020</speed><course>37.402897</course><hAcc>0.882186</hAcc><vAcc>0.708222</vAcc></extensions></trkpt>
      <trkpt lon="-3.344137" lat="54.558021"><ele>362.105011</ele><time>2021-08-12T10:18:43Z</time><extensions><speed>1.355767</speed><course>38.445354</course><hAcc>0.882209</hAcc><vAcc>0.708311</vAcc></extensions></trkpt>
      <trkpt lon="-3.344138" lat="54.558009"><ele>362.088043</ele><time>2021-08-12T10:18:44Z</time><extensions><speed>1.356625</speed><course>32.932274</course><hAcc>0.882226</hAcc><vAcc>0.708381</vAcc></extensions></trkpt>
      <trkpt lon="-3.344140" lat="54.557997"><ele>362.067566</ele><time>2021-08-12T10:18:45Z</time><extensions><speed>1.357775</speed><course>27.701353</course><hAcc>0.882237</hAcc><vAcc>0.708428</vAcc></extensions></trkpt>
      <trkpt lon="-3.344142" lat="54.557984"><ele>362.044403</ele><time>2021-08-12T10:18:46Z</time><extensions><speed>1.359674</speed><course>28.233585</course><hAcc>0.882243</hAcc><vAcc>0.708444</vAcc></extensions></trkpt>
      <trkpt lon="-3.344145" lat="54.557972"><ele>362.019684</ele><time>2021-08-12T10:18:47Z</time><extensions><speed>1.362313</speed><course>30.003765</course><hAcc>0.882246</hAcc><vAcc>0.708432</vAcc></extensions></trkpt>
      <trkpt lon="-3.344148" lat="54.557960"><ele>361.994781</ele><time>2021-08-12T10:18:48Z</time><extensions><speed>1.365250</speed><course>35.586266</course><hAcc>0.882244</hAcc><vAcc>0.708401</vAcc></extensions></trkpt>
      <trkpt lon="-3.344151" lat="54.557948"><ele>361.970795</ele><time>2021-08-12T10:18:49Z</time><extensions><speed>1.368068</speed><course>41.034397</course><hAcc>0.882240</hAcc><vAcc>0.708362</vAcc></extensions></trkpt>
      <trkpt lon="-3.344154" lat="54.557936"><ele>361.948608</ele><time>2021-08-12T10:18:50Z</time><extensions><speed>1.370508</speed><course>43.040592</course><hAcc>0.882233</hAcc><vAcc>0.708322</vAcc></extensions></trkpt>
      <trkpt lon="-3.344157" lat="54.557924"><ele>361.928619</ele><time>2021-08-12T10:18:51Z</time><extensions><speed>1.372332</speed><course>49.550934</course><hAcc>0.882224</hAcc><vAcc>0.708288</vAcc></extensions></trkpt>
      <trkpt lon="-3.344161" lat="54.557912"><ele>361.910492</ele><time>2021-08-12T10:18:52Z</time><extensions><speed>1.373333</speed><course>62.069283</course><hAcc>0.882214</hAcc><vAcc>0.708260</vAcc></extensions></trkpt>
      <trkpt lon="-3.344165" lat="54.557899"><ele>361.893707</ele><time>2021-08-12T10:18:53Z</time><extensions><speed>1.373803</speed><course>68.512573</course><hAcc>0.882204</hAcc><vAcc>0.708232</vAcc></extensions></trkpt>
      <trkpt lon="-3.344168" lat="54.557887"><ele>361.878265</ele><time>2021-08-12T10:18:54Z</time><extensions><speed>1.374340</speed><course>76.544746</course><hAcc>0.882194</hAcc><vAcc>0.708200</vAcc></extensions></trkpt>
      <trkpt lon="-3.344172" lat="54.557875"><ele>361.864746</ele><time>2021-08-12T10:18:55Z</time><extensions><speed>1.375285</speed><course>91.471558</course><hAcc>0.882184</hAcc><vAcc>0.708161</vAcc></extensions></trkpt>
      <trkpt lon="-3.344176" lat="54.557863"><ele>361.853424</ele><time>2021-08-12T10:18:56Z</time><extensions><speed>1.376498</speed><course>103.707001</course><hAcc>0.882174</hAcc><vAcc>0.708119</vAcc></extensions></trkpt>
      <trkpt lon="-3.344180" lat="54.557851"><ele>361.844086</ele><time>2021-08-12T10:18:57Z</time><extensions><speed>1.377644</speed><course>102.240677</course><hAcc>0.882164</hAcc><vAcc>0.708079</vAcc></extensions></trkpt>
      <trkpt lon="-3.344185" lat="54.557839"><ele>361.836365</ele><time>2021-08-12T10:18:58Z</time><extensions><speed>1.378590</speed><course>109.008522</course><hAcc>0.882154</hAcc><vAcc>0.708043</vAcc></extensions></trkpt>
      <trkpt lon="-3.344189" lat="54.557827"><ele>361.830109</ele><time>2021-08-12T10:18:59Z</time><extensions><speed>1.379249</speed><course>120.687057</course><hAcc>0.882143</hAcc><vAcc>0.708010</vAcc></extensions></trkpt>
      <trkpt lon="-3.344193" lat="54.557814"><ele>361.825653</ele><time>2021-08-12T10:19:00Z</time><extensions><speed>1.379399</speed><course>122.518364</course><hAcc>0.882131</hAcc><vAcc>0.707981</vAcc></extensions></trkpt>
      <trkpt lon="-3.344197" lat="54.557802"><ele>361.823486</ele><time>2021-08-12T10:19:01Z</time><extensions><speed>1.378860</speed><course>116.435341</course><hAcc>0.882119</hAcc><vAcc>0.707954</vAcc></extensions></trkpt>
      <trkpt lon="-3.344201" lat="54.557790"><ele>361.823395</ele><time>2021-08-12T10:19:02Z</time><extensions><speed>1.377705</speed><course>123.806564</course><hAcc>0.882108</hAcc><vAcc>0.707925</vAcc></extensions></trkpt>
      <trkpt lon="-3.344205" lat="54.557778"><ele>361.824066</ele><time>2021-08-12T10:19:03Z</time><extensions><speed>1.376164</speed><course>121.279266</course><hAcc>0.882097</hAcc><vAcc>0.707884</vAcc></extensions></trkpt>
      <trkpt lon="-3.344209" lat="54.557766"><ele>361.823700</ele><time>2021-08-12T10:19:04Z</time><extensions><speed>1.374578</speed><course>122.295830</course><hAcc>0.882088</hAcc><vAcc>0.707828</vAcc></extensions></trkpt>
      <trkpt lon="-3.344212" lat="54.557754"><ele>361.820984</ele><time>2021-08-12T10:19:05Z</time><extensions><speed>1.373447</speed><course>116.485687</course><hAcc>0.882081</hAcc><vAcc>0.707767</vAcc></extensions></trkpt>
      <trkpt lon="-3.344215" lat="54.557741"><ele>361.815430</ele><time>2021-08-12T10:19:06Z</time><extensions><speed>1.373296</speed><course>120.837761</course><hAcc>0.882079</hAcc><vAcc>0.707715</vAcc></extensions></trkpt>
      <trkpt lon="-3.344218" lat="54.557729"><ele>361.806549</ele><time>2021-08-12T10:19:07Z</time><extensions><speed>1.374284</speed><course>121.691162</course><hAcc>0.882081</hAcc><vAcc>0.707685</vAcc></extensions></trkpt>
      <trkpt lon="-3.344220" lat="54.557717"><ele>361.793610</ele><time>2021-08-12T10:19:08Z</time><extensions><speed>1.376774</speed><course>120.429344</course><hAcc>0.882088</hAcc><vAcc>0.707688</vAcc></extensions></trkpt>
      <trkpt lon="-3.344221" lat="54.557704"><ele>361.776306</ele><time>2021-08-12T10:19:09Z</time><extensions><speed>1.381417</speed><course>127.922836</course><hAcc>0.882100</hAcc><vAcc>0.707728</vAcc></extensions></trkpt>
      <trkpt lon="-3.344222" lat="54.557692"><ele>361.755493</ele><time>2021-08-12T10:19:10Z</time><extensions><speed>1.388315</speed><course>122.773224</course><hAcc>0.882118</hAcc><vAcc>0.707810</vAcc></extensions></trkpt>
      <trkpt lon="-3.344222" lat="54.557679"><ele>361.732849</ele><time>2021-08-12T10:19:11Z</time><extensions><speed>1.396665</speed><course>127.410233</course><hAcc>0.882140</hAcc><vAcc>0.707932</vAcc></extensions></trkpt>
      <trkpt lon="-3.344222" lat="54.557667"><ele>361.710815</ele><time>2021-08-12T10:19:12Z</time><extensions><speed>1.405225</speed><course>126.293243</course><hAcc>0.882165</hAcc><vAcc>0.708086</vAcc></extensions></trkpt>
      <trkpt lon="-3.344222" lat="54.557654"><ele>361.692871</ele><time>2021-08-12T10:19:13Z</time><extensions><speed>1.413247</speed><course>113.773628</course><hAcc>0.882191</hAcc><vAcc>0.708252</vAcc></extensions></trkpt>
      <trkpt lon="-3.344221" lat="54.557642"><ele>361.682220</ele><time>2021-08-12T10:19:14Z</time><extensions><speed>1.420402</speed><course>111.597641</course><hAcc>0.882218</hAcc><vAcc>0.708404</vAcc></extensions></trkpt>
      <trkpt lon="-3.344220" lat="54.557629"><ele>361.680603</ele><time>2021-08-12T10:19:15Z</time><extensions><speed>1.426410</speed><course>118.242065</course><hAcc>0.882244</hAcc><vAcc>0.708520</vAcc></extensions></trkpt>
      <trkpt lon="-3.344218" lat="54.557616"><ele>361.687897</ele><time>2021-08-12T10:19:16Z</time><extensions><speed>1.431410</speed><course>121.318916</course><hAcc>0.882269</hAcc><vAcc>0.708592</vAcc></extensions></trkpt>
      <trkpt lon="-3.344215" lat="54.557603"><ele>361.702911</ele><time>2021-08-12T10:19:17Z</time><extensions><speed>1.435917</speed><course>126.571838</course><hAcc>0.882291</hAcc><vAcc>0.708630</vAcc></extensions></trkpt>
      <trkpt lon="-3.344212" lat="54.557590"><ele>361.723694</ele><time>2021-08-12T10:19:18Z</time><extensions><speed>1.440613</speed><course>116.053932</course><hAcc>0.882311</hAcc><vAcc>0.708648</vAcc></extensions></trkpt>
      <trkpt lon="-3.344208" lat="54.557578"><ele>361.747711</ele><time>2021-08-12T10:19:19Z</time><extensions><speed>1.446199</speed><course>122.553452</course><hAcc>0.882330</hAcc><vAcc>0.708664</vAcc></extensions></trkpt>
      <trkpt lon="-3.344203" lat="54.557565"><ele>361.772400</ele><time>2021-08-12T10:19:20Z</time><extensions><speed>1.453179</speed><course>115.362396</course><hAcc>0.882347</hAcc><vAcc>0.708693</vAcc></extensions></trkpt>
      <trkpt lon="-3.344198" lat="54.557552"><ele>361.795746</ele><time>2021-08-12T10:19:21Z</time><extensions><speed>1.461743</speed><course>120.016403</course><hAcc>0.882366</hAcc><vAcc>0.708744</vAcc></extensions></trkpt>
      <trkpt lon="-3.344192" lat="54.557540"><ele>361.816315</ele><time>2021-08-12T10:19:22Z</time><extensions><speed>1.471552</speed><course>131.521149</course><hAcc>0.882386</hAcc><vAcc>0.708820</vAcc></extensions></trkpt>
      <trkpt lon="-3.344185" lat="54.557527"><ele>361.832947</ele><time>2021-08-12T10:19:23Z</time><extensions><speed>1.481826</speed><course>124.976143</course><hAcc>0.882409</hAcc><vAcc>0.708917</vAcc></extensions></trkpt>
      <trkpt lon="-3.344177" lat="54.557514"><ele>361.844543</ele><time>2021-08-12T10:19:24Z</time><extensions><speed>1.491529</speed><course>123.546791</course><hAcc>0.882437</hAcc><vAcc>0.709032</vAcc></extensions></trkpt>
      <trkpt lon="-3.344169" lat="54.557502"><ele>361.850006</ele><time>2021-08-12T10:19:25Z</time><extensions><speed>1.499807</speed><course>116.699699</course><hAcc>0.882469</hAcc><vAcc>0.709158</vAcc></extensions></trkpt>
      <trkpt lon="-3.344160" lat="54.557489"><ele>361.848206</ele><time>2021-08-12T10:19:26Z</time><extensions><speed>1.506349</speed><course>112.924561</course><hAcc>0.882508</hAcc><vAcc>0.709292</vAcc></extensions></trkpt>
      <trkpt lon="-3.344151" lat="54.557477"><ele>361.838715</ele><time>2021-08-12T10:19:27Z</time><extensions><speed>1.511037</speed><course>117.858780</course><hAcc>0.882552</hAcc><vAcc>0.709434</vAcc></extensions></trkpt>
      <trkpt lon="-3.344141" lat="54.557465"><ele>361.822113</ele><time>2021-08-12T10:19:28Z</time><extensions><speed>1.513729</speed><course>111.630035</course><hAcc>0.882602</hAcc><vAcc>0.709592</vAcc></extensions></trkpt>
      <trkpt lon="-3.344131" lat="54.557452"><ele>361.799164</ele><time>2021-08-12T10:19:29Z</time><extensions><speed>1.514413</speed><course>115.453979</course><hAcc>0.882657</hAcc><vAcc>0.709777</vAcc></extensions></trkpt>
      <trkpt lon="-3.344120" lat="54.557440"><ele>361.770416</ele><time>2021-08-12T10:19:30Z</time><extensions><speed>1.513444</speed><course>108.625862</course><hAcc>0.882715</hAcc><vAcc>0.709996</vAcc></extensions></trkpt>
      <trkpt lon="-3.344110" lat="54.557428"><ele>361.736633</ele><time>2021-08-12T10:19:31Z</time><extensions><speed>1.511051</speed><course>116.435417</course><hAcc>0.882775</hAcc><vAcc>0.710245</vAcc></extensions></trkpt>
      <trkpt lon="-3.344099" lat="54.557416"><ele>361.699188</ele><time>2021-08-12T10:19:32Z</time><extensions><speed>1.506789</speed><course>112.323517</course><hAcc>0.882835</hAcc><vAcc>0.710513</vAcc></extensions></trkpt>
      <trkpt lon="-3.344088" lat="54.557404"><ele>361.660278</ele><time>2021-08-12T10:19:33Z</time><extensions><speed>1.500508</speed><course>117.491661</course><hAcc>0.882892</hAcc><vAcc>0.710779</vAcc></extensions></trkpt>
      <trkpt lon="-3.344077" lat="54.557392"><ele>361.622345</ele><time>2021-08-12T10:19:34Z</time><extensions><speed>1.492277</speed><course>120.293846</course><hAcc>0.882944</hAcc><vAcc>0.711021</vAcc></extensions></trkpt>
      <trkpt lon="-3.344066" lat="54.557381"><ele>361.587311</ele><time>2021-08-12T10:19:35Z</time><extensions><speed>1.481963</speed><course>115.591873</course><hAcc>0.882987</hAcc><vAcc>0.711222</vAcc></extensions></trkpt>
      <trkpt lon="-3.344055" lat="54.557369"><ele>361.556824</ele><time>2021-08-12T10:19:36Z</time><extensions><speed>1.469488</speed><course>116.468712</course><hAcc>0.883018</hAcc><vAcc>0.711373</vAcc></extensions></trkpt>
      <trkpt lon="-3.344044" lat="54.557357"><ele>361.531982</ele><time>2021-08-12T10:19:37Z</time><extensions><speed>1.455052</speed><course>116.627220</course><hAcc>0.883034</hAcc><vAcc>0.711465</vAcc></extensions></trkpt>
      <trkpt lon="-3.344033" lat="54.557346"><ele>361.513245</ele><time>2021-08-12T10:19:38Z</time><extensions><speed>1.439410</speed><course>115.487846</course><hAcc>0.883031</hAcc><vAcc>0.711487</vAcc></extensions></trkpt>
      <trkpt lon="-3.344023" lat="54.557335"><ele>361.501282</ele><time>2021-08-12T10:19:39Z</time><extensions><speed>1.423170</speed><course>110.303284</course><hAcc>0.883009</hAcc><vAcc>0.711432</vAcc></extensions></trkpt>
      <trkpt lon="-3.344012" lat="54.557324"><ele>361.496887</ele><time>2021-08-12T10:19:40Z</time><extensions><speed>1.406830</speed><course>107.900200</course><hAcc>0.882968</hAcc><vAcc>0.711293</vAcc></extensions></trkpt>
      <trkpt lon="-3.344002" lat="54.557312"><ele>361.500214</ele><time>2021-08-12T10:19:41Z</time><extensions><speed>1.390694</speed><course>104.901772</course><hAcc>0.882906</hAcc><vAcc>0.711065</vAcc></extensions></trkpt>
      <trkpt lon="-3.343993" lat="54.557301"><ele>361.510529</ele><time>2021-08-12T10:19:42Z</time><extensions><speed>1.374911</speed><course>102.625549</course><hAcc>0.882828</hAcc><vAcc>0.710753</vAcc></extensions></trkpt>
      <trkpt lon="-3.343983" lat="54.557290"><ele>361.526825</ele><time>2021-08-12T10:19:43Z</time><extensions><speed>1.360193</speed><course>101.615082</course><hAcc>0.882735</hAcc><vAcc>0.710366</vAcc></extensions></trkpt>
      <trkpt lon="-3.343974" lat="54.557279"><ele>361.547943</ele><time>2021-08-12T10:19:44Z</time><extensions><speed>1.347272</speed><course>104.820312</course><hAcc>0.882631</hAcc><vAcc>0.709917</vAcc></extensions></trkpt>
      <trkpt lon="-3.343965" lat="54.557269"><ele>361.573120</ele><time>2021-08-12T10:19:45Z</time><extensions><speed>1.336410</speed><course>97.837166</course><hAcc>0.882520</hAcc><vAcc>0.709427</vAcc></extensions></trkpt>
      <trkpt lon="-3.343956" lat="54.557258"><ele>361.601776</ele><time>2021-08-12T10:19:46Z</time><extensions><speed>1.327816</speed><course>99.518051</course><hAcc>0.882408</hAcc><vAcc>0.708923</vAcc></extensions></trkpt>
      <trkpt lon="-3.343947" lat="54.557247"><ele>361.633850</ele><time>2021-08-12T10:19:47Z</time><extensions><speed>1.321692</speed><course>105.468117</course><hAcc>0.882298</hAcc><vAcc>0.708436</vAcc></extensions></trkpt>
      <trkpt lon="-3.343939" lat="54.557236"><ele>361.669342</ele><time>2021-08-12T10:19:48Z</time><extensions><speed>1.317825</speed><course>105.021729</course><hAcc>0.882194</hAcc><vAcc>0.707995</vAcc></extensions></trkpt>
      <trkpt lon="-3.343930" lat="54.557226"><ele>361.708282</ele><time>2021-08-12T10:19:49Z</time><extensions><speed>1.315742</speed><course>105.854553</course><hAcc>0.882100</hAcc><vAcc>0.707622</vAcc></extensions></trkpt>
      <trkpt lon="-3.343921" lat="54.557215"><ele>361.751007</ele><time>2021-08-12T10:19:50Z</time><extensions><speed>1.315287</speed><course>116.038353</course><hAcc>0.882018</hAcc><vAcc>0.707325</vAcc></extensions></trkpt>
      <trkpt lon="-3.343913" lat="54.557204"><ele>361.798004</ele><time>2021-08-12T10:19:51Z</time><extensions><speed>1.316113</speed><course>116.622620</course><hAcc>0.881947</hAcc><vAcc>0.707099</vAcc></extensions></trkpt>
      <trkpt lon="-3.343904" lat="54.557193"><ele>361.849609</ele><time>2021-08-12T10:19:52Z</time><extensions><speed>1.317385</speed><course>116.023415</course><hAcc>0.881888</hAcc><vAcc>0.706935</vAcc></extensions></trkpt>
      <trkpt lon="-3.343896" lat="54.557183"><ele>361.905975</ele><time>2021-08-12T10:19:53Z</time><extensions><speed>1.318404</speed><course>111.053482</course><hAcc>0.881840</hAcc><vAcc>0.706818</vAcc></extensions></trkpt>
      <trkpt lon="-3.343888" lat="54.557172"><ele>361.967499</ele><time>2021-08-12T10:19:54Z</time><extensions><speed>1.318741</speed><course>109.683617</course><hAcc>0.881799</hAcc><vAcc>0.706733</vAcc></extensions></trkpt>
      <trkpt lon="-3.343880" lat="54.557161"><ele>362.035004</ele><time>2021-08-12T10:19:55Z</time><extensions><speed>1.318013</speed><course>107.838440</course><hAcc>0.881764</hAcc><vAcc>0.706664</vAcc></extensions></trkpt>
      <trkpt lon="-3.343872" lat="54.557150"><ele>362.109894</ele><time>2021-08-12T10:19:56Z</time><extensions><speed>1.316053</speed><course>110.196930</course><hAcc>0.881734</hAcc><vAcc>0.706595</vAcc></extensions></trkpt>
      <trkpt lon="-3.343865" lat="54.557139"><ele>362.194244</ele><time>2021-08-12T10:19:57Z</time><extensions><speed>1.312824</speed><course>111.548782</course><hAcc>0.881707</hAcc><vAcc>0.706511</vAcc></extensions></trkpt>
      <trkpt lon="-3.343858" lat="54.557128"><ele>362.289703</ele><time>2021-08-12T10:19:58Z</time><extensions><speed>1.308305</speed><course>110.420074</course><hAcc>0.881682</hAcc><vAcc>0.706404</vAcc></extensions></trkpt>
      <trkpt lon="-3.343851" lat="54.557117"><ele>362.397034</ele><time>2021-08-12T10:19:59Z</time><extensions><speed>1.302868</speed><course>99.619576</course><hAcc>0.881660</hAcc><vAcc>0.706278</vAcc></extensions></trkpt>
      <trkpt lon="-3.343845" lat="54.557106"><ele>362.516083</ele><time>2021-08-12T10:20:00Z</time><extensions><speed>1.296955</speed><course>107.102882</course><hAcc>0.881642</hAcc><vAcc>0.706151</vAcc></extensions></trkpt>
      <trkpt lon="-3.343839" lat="54.557095"><ele>362.646179</ele><time>2021-08-12T10:20:01Z</time><extensions><speed>1.290905</speed><course>98.831825</course><hAcc>0.881629</hAcc><vAcc>0.706042</vAcc></extensions></trkpt>
      <trkpt lon="-3.343834" lat="54.557083"><ele>362.786133</ele><time>2021-08-12T10:20:02Z</time><extensions><speed>1.284828</speed><course>99.864403</course><hAcc>0.881624</hAcc><vAcc>0.705974</vAcc></extensions></trkpt>
      <trkpt lon="-3.343829" lat="54.557072"><ele>362.934814</ele><time>2021-08-12T10:20:03Z</time><extensions><speed>1.278376</speed><course>99.165215</course><hAcc>0.881628</hAcc><vAcc>0.705960</vAcc></extensions></trkpt>
      <trkpt lon="-3.343824" lat="54.557061"><ele>363.091095</ele><time>2021-08-12T10:20:04Z</time><extensions><speed>1.271341</speed><course>106.876038</course><hAcc>0.881642</hAcc><vAcc>0.706008</vAcc></extensions></trkpt>
      <trkpt lon="-3.343820" lat="54.557050"><ele>363.253723</ele><time>2021-08-12T10:20:05Z</time><extensions><speed>1.264005</speed><course>100.224144</course><hAcc>0.881667</hAcc><vAcc>0.706115</vAcc></extensions></trkpt>
      <trkpt lon="-3.343816" lat="54.557039"><ele>363.421570</ele><time>2021-08-12T10:20:06Z</time><extensions><speed>1.256506</speed><course>97.870438</course><hAcc>0.881702</hAcc><vAcc>0.706275</vAcc></extensions></trkpt>
      <trkpt lon="-3.343813" lat="54.557028"><ele>363.593933</ele><time>2021-08-12T10:20:07Z</time><extensions><speed>1.248561</speed><course>109.047302</course><hAcc>0.881748</hAcc><vAcc>0.706475</vAcc></extensions></trkpt>
      <trkpt lon="-3.343809" lat="54.557017"><ele>363.769928</ele><time>2021-08-12T10:20:08Z</time><extensions><speed>1.239951</speed><course>111.386711</course><hAcc>0.881802</hAcc><vAcc>0.706705</vAcc></extensions></trkpt>
      <trkpt lon="-3.343807" lat="54.557006"><ele>363.947754</ele><time>2021-08-12T10:20:09Z</time><extensions><speed>1.230634</speed><course>110.131767</course><hAcc>0.881863</hAcc><vAcc>0.706955</vAcc></extensions></trkpt>
      <trkpt lon="-3.343804" lat="54.556995"><ele>364.125092</ele><time>2021-08-12T10:20:10Z</time><extensions><speed>1.220856</speed><course>109.748413</course><hAcc>0.881929</hAcc><vAcc>0.707216</vAcc></extensions></trkpt>
      <trkpt lon="-3.343802" lat="54.556984"><ele>364.299500</ele><time>2021-08-12T10:20:11Z</time><extensions><speed>1.211406</speed><course>116.453705</course><hAcc>0.881998</hAcc><vAcc>0.707482</vAcc></extensions></trkpt>
      <trkpt lon="-3.343800" lat="54.556973"><ele>364.468750</ele><time>2021-08-12T10:20:12Z</time><extensions><speed>1.203196</speed><course>111.019348</course><hAcc>0.882067</hAcc><vAcc>0.707747</vAcc></extensions></trkpt>
      <trkpt lon="-3.343798" lat="54.556963"><ele>364.630920</ele><time>2021-08-12T10:20:13Z</time><extensions><speed>1.196522</speed><course>106.996025</course><hAcc>0.882135</hAcc><vAcc>0.708005</vAcc></extensions></trkpt>
      <trkpt lon="-3.343796" lat="54.556952"><ele>364.784790</ele><time>2021-08-12T10:20:14Z</time><extensions><speed>1.191158</speed><course>104.594215</course><hAcc>0.882200</hAcc><vAcc>0.708252</vAcc></extensions></trkpt>
      <trkpt lon="-3.343794" lat="54.556941"><ele>364.929749</ele><time>2021-08-12T10:20:15Z</time><extensions><speed>1.186894</speed><course>101.351479</course><hAcc>0.882259</hAcc><vAcc>0.708481</vAcc></extensions></trkpt>
      <trkpt lon="-3.343792" lat="54.556931"><ele>365.065979</ele><time>2021-08-12T10:20:16Z</time><extensions><speed>1.183631</speed><course>105.952332</course><hAcc>0.882313</hAcc><vAcc>0.708688</vAcc></extensions></trkpt>
      <trkpt lon="-3.343789" lat="54.556920"><ele>365.194153</ele><time>2021-08-12T10:20:17Z</time><extensions><speed>1.181470</speed><course>113.138412</course><hAcc>0.882359</hAcc><vAcc>0.708868</vAcc></extensions></trkpt>
      <trkpt lon="-3.343787" lat="54.556910"><ele>365.315125</ele><time>2021-08-12T10:20:18Z</time><extensions><speed>1.180905</speed><course>112.944946</course><hAcc>0.882396</hAcc><vAcc>0.709016</vAcc></extensions></trkpt>
      <trkpt lon="-3.343784" lat="54.556899"><ele>365.430176</ele><time>2021-08-12T10:20:19Z</time><extensions><speed>1.182109</speed><course>108.292221</course><hAcc>0.882424</hAcc><vAcc>0.709125</vAcc></extensions></trkpt>
      <trkpt lon="-3.343780" lat="54.556889"><ele>365.540497</ele><time>2021-08-12T10:20:20Z</time><extensions><speed>1.184956</speed><course>108.436562</course><hAcc>0.882441</hAcc><vAcc>0.709192</vAcc></extensions></trkpt>
      <trkpt lon="-3.343777" lat="54.556878"><ele>365.647034</ele><time>2021-08-12T10:20:21Z</time><extensions><speed>1.189229</speed><course>102.445824</course><hAcc>0.882448</hAcc><vAcc>0.709215</vAcc></extensions></trkpt>
      <trkpt lon="-3.343773" lat="54.556868"><ele>365.750031</ele><time>2021-08-12T10:20:22Z</time><extensions><speed>1.194256</speed><course>99.628555</course><hAcc>0.882443</hAcc><vAcc>0.709199</vAcc></extensions></trkpt>
      <trkpt lon="-3.343769" lat="54.556857"><ele>365.849304</ele><time>2021-08-12T10:20:23Z</time><extensions><speed>1.199378</speed><course>103.656601</course><hAcc>0.882427</hAcc><vAcc>0.709147</vAcc></extensions></trkpt>
      <trkpt lon="-3.343765" lat="54.556847"><ele>365.945007</ele><time>2021-08-12T10:20:24Z</time><extensions><speed>1.204013</speed><course>97.309608</course><hAcc>0.882400</hAcc><vAcc>0.709058</vAcc></extensions></trkpt>
      <trkpt lon="-3.343762" lat="54.556836"><ele>366.037842</ele><time>2021-08-12T10:20:25Z</time><extensions><speed>1.208111</speed><course>95.308922</course><hAcc>0.882363</hAcc><vAcc>0.708930</vAcc></extensions></trkpt>
      <trkpt lon="-3.343758" lat="54.556825"><ele>366.128906</ele><time>2021-08-12T10:20:26Z</time><extensions><speed>1.211902</speed><course>105.665154</course><hAcc>0.882319</hAcc><vAcc>0.708758</vAcc></extensions></trkpt>
      <trkpt lon="-3.343755" lat="54.556815"><ele>366.219360</ele><time>2021-08-12T10:20:27Z</time><extensions><speed>1.215647</speed><course>120.238884</course><hAcc>0.882268</hAcc><vAcc>0.708546</vAcc></extensions></trkpt>
      <trkpt lon="-3.343752" lat="54.556804"><ele>366.310486</ele><time>2021-08-12T10:20:28Z</time><extensions><speed>1.219865</speed><course>108.474937</course><hAcc>0.882215</hAcc><vAcc>0.708305</vAcc></extensions></trkpt>
      <trkpt lon="-3.343750" lat="54.556793"><ele>366.403412</ele><time>2021-08-12T10:20:29Z</time><extensions><speed>1.224892</speed><course>104.059807</course><hAcc>0.882161</hAcc><vAcc>0.708053</vAcc></extensions></trkpt>
      <trkpt lon="-3.343747" lat="54.556782"><ele>366.498901</ele><time>2021-08-12T10:20:30Z</time><extensions><speed>1.230893</speed><course>102.572708</course><hAcc>0.882111</hAcc><vAcc>0.707807</vAcc></extensions></trkpt>
      <trkpt lon="-3.343744" lat="54.556771"><ele>366.596527</ele><time>2021-08-12T10:20:31Z</time><extensions><speed>1.237842</speed><course>107.161850</course><hAcc>0.882067</hAcc><vAcc>0.707588</vAcc></extensions></trkpt>
      <trkpt lon="-3.343741" lat="54.556760"><ele>366.694977</ele><time>2021-08-12T10:20:32Z</time><extensions><speed>1.245482</speed><course>105.046165</course><hAcc>0.882032</hAcc><vAcc>0.707413</vAcc></extensions></trkpt>
      <trkpt lon="-3.343738" lat="54.556749"><ele>366.792664</ele><time>2021-08-12T10:20:33Z</time><extensions><speed>1.253669</speed><course>107.406158</course><hAcc>0.882009</hAcc><vAcc>0.707299</vAcc></extensions></trkpt>
      <trkpt lon="-3.343735" lat="54.556738"><ele>366.887939</ele><time>2021-08-12T10:20:34Z</time><extensions><speed>1.262326</speed><course>115.429123</course><hAcc>0.882000</hAcc><vAcc>0.707256</vAcc></extensions></trkpt>
      <trkpt lon="-3.343732" lat="54.556727"><ele>366.979248</ele><time>2021-08-12T10:20:35Z</time><extensions><speed>1.271319</speed><course>116.147835</course><hAcc>0.882005</hAcc><vAcc>0.707286</vAcc></extensions></trkpt>
      <trkpt lon="-3.343728" lat="54.556715"><ele>367.064880</ele><time>2021-08-12T10:20:36Z</time><extensions><speed>1.280334</speed><course>117.699570</course><hAcc>0.882025</hAcc><vAcc>0.707387</vAcc></extensions></trkpt>
      <trkpt lon="-3.343724" lat="54.556704"><ele>367.143463</ele><time>2021-08-12T10:20:37Z</time><extensions><speed>1.288630</speed><course>118.218575</course><hAcc>0.882057</hAcc><vAcc>0.707553</vAcc></extensions></trkpt>
      <trkpt lon="-3.343720" lat="54.556693"><ele>367.214325</ele><time>2021-08-12T10:20:38Z</time><extensions><speed>1.295514</speed><course>118.864105</course><hAcc>0.882102</hAcc><vAcc>0.707771</vAcc></extensions></trkpt>
      <trkpt lon="-3.343716" lat="54.556681"><ele>367.277496</ele><time>2021-08-12T10:20:39Z</time><extensions><speed>1.300546</speed><course>117.180046</course><hAcc>0.882157</hAcc><vAcc>0.708023</vAcc></extensions></trkpt>
      <trkpt lon="-3.343712" lat="54.556670"><ele>367.333496</ele><time>2021-08-12T10:20:40Z</time><extensions><speed>1.303343</speed><course>115.856689</course><hAcc>0.882220</hAcc><vAcc>0.708293</vAcc></extensions></trkpt>
      <trkpt lon="-3.343709" lat="54.556658"><ele>367.383331</ele><time>2021-08-12T10:20:41Z</time><extensions><speed>1.304147</speed><course>112.617844</course><hAcc>0.882289</hAcc><vAcc>0.708567</vAcc></extensions></trkpt>
      <trkpt lon="-3.343705" lat="54.556647"><ele>367.427734</ele><time>2021-08-12T10:20:42Z</time><extensions><speed>1.304069</speed><course>120.157761</course><hAcc>0.882362</hAcc><vAcc>0.708835</vAcc></extensions></trkpt>
      <trkpt lon="-3.343702" lat="54.556635"><ele>367.467072</ele><time>2021-08-12T10:20:43Z</time><extensions><speed>1.304352</speed><course>116.743965</course><hAcc>0.882440</hAcc><vAcc>0.709091</vAcc></extensions></trkpt>
      <trkpt lon="-3.343700" lat="54.556624"><ele>367.501434</ele><time>2021-08-12T10:20:44Z</time><extensions><speed>1.305842</speed><course>126.528450</course><hAcc>0.882519</hAcc><vAcc>0.709342</vAcc></extensions></trkpt>
      <trkpt lon="-3.343698" lat="54.556612"><ele>367.530670</ele><time>2021-08-12T10:20:45Z</time><extensions><speed>1.308664</speed><course>122.809067</course><hAcc>0.882599</hAcc><vAcc>0.709600</vAcc></extensions></trkpt>
      <trkpt lon="-3.343697" lat="54.556600"><ele>367.554321</ele><time>2021-08-12T10:20:46Z</time><extensions><speed>1.312680</speed><course>118.437454</course><hAcc>0.882678</hAcc><vAcc>0.709878</vAcc></extensions></trkpt>
      <trkpt lon="-3.343696" lat="54.556588"><ele>367.571808</ele><time>2021-08-12T10:20:47Z</time><extensions><speed>1.317997</speed><course>113.862648</course><hAcc>0.882754</hAcc><vAcc>0.710177</vAcc></extensions></trkpt>
      <trkpt lon="-3.343696" lat="54.556576"><ele>367.583069</ele><time>2021-08-12T10:20:48Z</time><extensions><speed>1.324074</speed><course>110.315605</course><hAcc>0.882825</hAcc><vAcc>0.710491</vAcc></extensions></trkpt>
      <trkpt lon="-3.343696" lat="54.556565"><ele>367.588715</ele><time>2021-08-12T10:20:49Z</time><extensions><speed>1.330057</speed><course>111.526596</course><hAcc>0.882887</hAcc><vAcc>0.710799</vAcc></extensions></trkpt>
      <trkpt lon="-3.343696" lat="54.556553"><ele>367.590424</ele><time>2021-08-12T10:20:50Z</time><extensions><speed>1.335680</speed><course>111.825790</course><hAcc>0.882939</hAcc><vAcc>0.711075</vAcc></extensions></trkpt>
      <trkpt lon="-3.343697" lat="54.556541"><ele>367.590668</ele><time>2021-08-12T10:20:51Z</time><extensions><speed>1.340833</speed><course>110.069481</course><hAcc>0.882976</hAcc><vAcc>0.711289</vAcc></extensions></trkpt>
      <trkpt lon="-3.343698" lat="54.556529"><ele>367.591797</ele><time>2021-08-12T10:20:52Z</time><extensions><speed>1.345417</speed><course>114.632622</course><hAcc>0.882998</hAcc><vAcc>0.711420</vAcc></extensions></trkpt>
      <trkpt lon="-3.343699" lat="54.556516"><ele>367.595215</ele><time>2021-08-12T10:20:53Z</time><extensions><speed>1.349212</speed><course>103.253258</course><hAcc>0.883000</hAcc><vAcc>0.711452</vAcc></extensions></trkpt>
      <trkpt lon="-3.343700" lat="54.556504"><ele>367.601257</ele><time>2021-08-12T10:20:54Z</time><extensions><speed>1.351833</speed><course>106.301743</course><hAcc>0.882982</hAcc><vAcc>0.711380</vAcc></extensions></trkpt>
      <trkpt lon="-3.343701" lat="54.556492"><ele>367.609253</ele><time>2021-08-12T10:20:55Z</time><extensions><speed>1.353419</speed><course>102.376541</course><hAcc>0.882942</hAcc><vAcc>0.711206</vAcc></extensions></trkpt>
      <trkpt lon="-3.343702" lat="54.556480"><ele>367.618439</ele><time>2021-08-12T10:20:56Z</time><extensions><speed>1.354500</speed><course>106.795837</course><hAcc>0.882883</hAcc><vAcc>0.710940</vAcc></extensions></trkpt>
      <trkpt lon="-3.343703" lat="54.556468"><ele>367.628784</ele><time>2021-08-12T10:20:57Z</time><extensions><speed>1.355492</speed><course>105.416672</course><hAcc>0.882805</hAcc><vAcc>0.710596</vAcc></extensions></trkpt>
      <trkpt lon="-3.343704" lat="54.556456"><ele>367.640839</ele><time>2021-08-12T10:20:58Z</time><extensions><speed>1.356831</speed><course>115.994911</course><hAcc>0.882711</hAcc><vAcc>0.710191</vAcc></extensions></trkpt>
      <trkpt lon="-3.343704" lat="54.556443"><ele>367.655365</ele><time>2021-08-12T10:20:59Z</time><extensions><speed>1.359238</speed><course>121.956070</course><hAcc>0.882606</hAcc><vAcc>0.709746</vAcc></extensions></trkpt>
      <trkpt lon="-3.343705" lat="54.556431"><ele>367.673706</ele><time>2021-08-12T10:21:00Z</time><extensions><speed>1.363512</speed><course>114.918808</course><hAcc>0.882493</hAcc><vAcc>0.709280</vAcc></extensions></trkpt>
      <trkpt lon="-3.343705" lat="54.556419"><ele>367.697754</ele><time>2021-08-12T10:21:01Z</time><extensions><speed>1.369729</speed><course>112.952827</course><hAcc>0.882376</hAcc><vAcc>0.708809</vAcc></extensions></trkpt>
      <trkpt lon="-3.343705" lat="54.556407"><ele>367.729462</ele><time>2021-08-12T10:21:02Z</time><extensions><speed>1.377451</speed><course>108.521141</course><hAcc>0.882260</hAcc><vAcc>0.708349</vAcc></extensions></trkpt>
      <trkpt lon="-3.343706" lat="54.556394"><ele>367.770447</ele><time>2021-08-12T10:21:03Z</time><extensions><speed>1.386280</speed><course>105.023331</course><hAcc>0.882149</hAcc><vAcc>0.707911</vAcc></extensions></trkpt>
      <trkpt lon="-3.343706" lat="54.556382"><ele>367.821381</ele><time>2021-08-12T10:21:04Z</time><extensions><speed>1.395894</speed><course>98.270523</course><hAcc>0.882047</hAcc><vAcc>0.707509</vAcc></extensions></trkpt>
      <trkpt lon="-3.343706" lat="54.556369"><ele>367.881805</ele><time>2021-08-12T10:21:05Z</time><extensions><speed>1.406146</speed><course>104.555389</course><hAcc>0.881957</hAcc><vAcc>0.707153</vAcc></extensions></trkpt>
      <trkpt lon="-3.343707" lat="54.556356"><ele>367.950592</ele><time>2021-08-12T10:21:06Z</time><extensions><speed>1.416787</speed><course>108.798698</course><hAcc>0.881882</hAcc><vAcc>0.706854</vAcc></extensions></trkpt>
      <trkpt lon="-3.343708" lat="54.556344"><ele>368.026459</ele><time>2021-08-12T10:21:07Z</time><extensions><speed>1.427408</speed><course>107.953148</course><hAcc>0.881823</hAcc><vAcc>0.706622</vAcc></extensions></trkpt>
      <trkpt lon="-3.343709" lat="54.556331"><ele>368.108032</ele><time>2021-08-12T10:21:08Z</time><extensions><speed>1.437436</speed><course>107.561462</course><hAcc>0.881782</hAcc><vAcc>0.706461</vAcc></extensions></trkpt>
      <trkpt lon="-3.343711" lat="54.556318"><ele>368.193329</ele><time>2021-08-12T10:21:09Z</time><extensions><speed>1.446419</speed><course>98.600151</course><hAcc>0.881759</hAcc><vAcc>0.706375</vAcc></extensions></trkpt>
      <trkpt lon="-3.343712" lat="54.556305"><ele>368.280182</ele><time>2021-08-12T10:21:10Z</time><extensions><speed>1.454003</speed><course>106.179245</course><hAcc>0.881752</hAcc><vAcc>0.706366</vAcc></extensions></trkpt>
      <trkpt lon="-3.343714" lat="54.556292"><ele>368.367035</ele><time>2021-08-12T10:21:11Z</time><extensions><speed>1.459840</speed><course>99.736237</course><hAcc>0.881760</hAcc><vAcc>0.706427</vAcc></extensions></trkpt>
      <trkpt lon="-3.343717" lat="54.556279"><ele>368.453430</ele><time>2021-08-12T10:21:12Z</time><extensions><speed>1.463971</speed><course>102.027924</course><hAcc>0.881780</hAcc><vAcc>0.706547</vAcc></extensions></trkpt>
      <trkpt lon="-3.343720" lat="54.556266"><ele>368.539948</ele><time>2021-08-12T10:21:13Z</time><extensions><speed>1.466513</speed><course>94.072990</course><hAcc>0.881808</hAcc><vAcc>0.706714</vAcc></extensions></trkpt>
      <trkpt lon="-3.343723" lat="54.556253"><ele>368.627441</ele><time>2021-08-12T10:21:14Z</time><extensions><speed>1.467340</speed><course>96.463219</course><hAcc>0.881841</hAcc><vAcc>0.706907</vAcc></extensions></trkpt>
      <trkpt lon="-3.343726" lat="54.556240"><ele>368.716431</ele><time>2021-08-12T10:21:15Z</time><extensions><speed>1.466492</speed><course>96.928070</course><hAcc>0.881876</hAcc><vAcc>0.707104</vAcc></extensions></trkpt>
      <trkpt lon="-3.343729" lat="54.556227"><ele>368.807159</ele><time>2021-08-12T10:21:16Z</time><extensions><speed>1.463875</speed><course>85.766655</course><hAcc>0.881908</hAcc><vAcc>0.707282</vAcc></extensions></trkpt>
      <trkpt lon="-3.343733" lat="54.556214"><ele>368.899475</ele><time>2021-08-12T10:21:17Z</time><extensions><speed>1.459150</speed><course>93.944389</course><hAcc>0.881935</hAcc><vAcc>0.707423</vAcc></extensions></trkpt>
      <trkpt lon="-3.343736" lat="54.556201"><ele>368.992859</ele><time>2021-08-12T10:21:18Z</time><extensions><speed>1.452243</speed><course>96.280258</course><hAcc>0.881955</hAcc><vAcc>0.707511</vAcc></extensions></trkpt>
      <trkpt lon="-3.343740" lat="54.556188"><ele>369.086700</ele><time>2021-08-12T10:21:19Z</time><extensions><speed>1.443306</speed><course>103.229439</course><hAcc>0.881967</hAcc><vAcc>0.707541</vAcc></extensions></trkpt>
      <trkpt lon="-3.343744" lat="54.556175"><ele>369.180145</ele><time>2021-08-12T10:21:20Z</time><extensions><speed>1.432597</speed><course>100.069313</course><hAcc>0.881974</hAcc><vAcc>0.707514</vAcc></extensions></trkpt>
      <trkpt lon="-3.343748" lat="54.556163"><ele>369.272339</ele><time>2021-08-12T10:21:21Z</time><extensions><speed>1.420382</speed><course>107.704430</course><hAcc>0.881976</hAcc><vAcc>0.707444</vAcc></extensions></trkpt>
      <trkpt lon="-3.343752" lat="54.556150"><ele>369.362610</ele><time>2021-08-12T10:21:22Z</time><extensions><speed>1.407166</speed><course>102.019516</course><hAcc>0.881975</hAcc><vAcc>0.707358</vAcc></extensions></trkpt>
      <trkpt lon="-3.343756" lat="54.556138"><ele>369.450439</ele><time>2021-08-12T10:21:23Z</time><extensions><speed>1.393490</speed><course>101.188896</course><hAcc>0.881973</hAcc><vAcc>0.707284</vAcc></extensions></trkpt>
      <trkpt lon="-3.343760" lat="54.556126"><ele>369.535065</ele><time>2021-08-12T10:21:24Z</time><extensions><speed>1.379561</speed><course>101.655106</course><hAcc>0.881975</hAcc><vAcc>0.707246</vAcc></extensions></trkpt>
      <trkpt lon="-3.343765" lat="54.556114"><ele>369.615356</ele><time>2021-08-12T10:21:25Z</time><extensions><speed>1.365512</speed><course>97.512695</course><hAcc>0.881981</hAcc><vAcc>0.707254</vAcc></extensions></trkpt>
      <trkpt lon="-3.343770" lat="54.556102"><ele>369.690063</ele><time>2021-08-12T10:21:26Z</time><extensions><speed>1.351410</speed><course>96.923676</course><hAcc>0.881993</hAcc><vAcc>0.707311</vAcc></extensions></trkpt>
      <trkpt lon="-3.343775" lat="54.556090"><ele>369.757568</ele><time>2021-08-12T10:21:27Z</time><extensions><speed>1.337374</speed><course>96.356850</course><hAcc>0.882013</hAcc><vAcc>0.707411</vAcc></extensions></trkpt>
      <trkpt lon="-3.343780" lat="54.556078"><ele>369.815826</ele><time>2021-08-12T10:21:28Z</time><extensions><speed>1.323646</speed><course>95.959724</course><hAcc>0.882041</hAcc><vAcc>0.707541</vAcc></extensions></trkpt>
      <trkpt lon="-3.343786" lat="54.556067"><ele>369.862732</ele><time>2021-08-12T10:21:29Z</time><extensions><speed>1.310349</speed><course>95.959717</course><hAcc>0.882076</hAcc><vAcc>0.707693</vAcc></extensions></trkpt>
      <trkpt lon="-3.343792" lat="54.556056"><ele>369.896881</ele><time>2021-08-12T10:21:30Z</time><extensions><speed>1.297642</speed><course>97.361824</course><hAcc>0.882118</hAcc><vAcc>0.707861</vAcc></extensions></trkpt>
      <trkpt lon="-3.343798" lat="54.556045"><ele>369.918304</ele><time>2021-08-12T10:21:31Z</time><extensions><speed>1.285939</speed><course>97.361824</course><hAcc>0.882166</hAcc><vAcc>0.708042</vAcc></extensions></trkpt>
      <trkpt lon="-3.343804" lat="54.556034"><ele>369.928375</ele><time>2021-08-12T10:21:32Z</time><extensions><speed>1.275524</speed><course>97.361809</course><hAcc>0.882217</hAcc><vAcc>0.708237</vAcc></extensions></trkpt>
      <trkpt lon="-3.343810" lat="54.556023"><ele>369.929321</ele><time>2021-08-12T10:21:33Z</time><extensions><speed>1.266295</speed><course>97.361801</course><hAcc>0.882271</hAcc><vAcc>0.708444</vAcc></extensions></trkpt>
      <trkpt lon="-3.343815" lat="54.556012"><ele>369.923981</ele><time>2021-08-12T10:21:34Z</time><extensions><speed>1.257886</speed><course>42.884136</course><hAcc>0.882327</hAcc><vAcc>0.708660</vAcc></extensions></trkpt>
      <trkpt lon="-3.343821" lat="54.556001"><ele>369.915192</ele><time>2021-08-12T10:21:35Z</time><extensions><speed>1.249918</speed><course>35.984764</course><hAcc>0.882383</hAcc><vAcc>0.708877</vAcc></extensions></trkpt>
      <trkpt lon="-3.343826" lat="54.555991"><ele>369.905151</ele><time>2021-08-12T10:21:36Z</time><extensions><speed>1.242164</speed><course>65.852417</course><hAcc>0.882438</hAcc><vAcc>0.709090</vAcc></extensions></trkpt>
      <trkpt lon="-3.343831" lat="54.555980"><ele>369.895416</ele><time>2021-08-12T10:21:37Z</time><extensions><speed>1.234872</speed><course>86.337746</course><hAcc>0.882492</hAcc><vAcc>0.709291</vAcc></extensions></trkpt>
      <trkpt lon="-3.343836" lat="54.555969"><ele>369.887390</ele><time>2021-08-12T10:21:38Z</time><extensions><speed>1.228497</speed><course>89.071770</course><hAcc>0.882543</hAcc><vAcc>0.709476</vAcc></extensions></trkpt>
      <trkpt lon="-3.343841" lat="54.555958"><ele>369.882294</ele><time>2021-08-12T10:21:39Z</time><extensions><speed>1.222992</speed><course>92.612312</course><hAcc>0.882591</hAcc><vAcc>0.709644</vAcc></extensions></trkpt>
      <trkpt lon="-3.343844" lat="54.555948"><ele>369.880676</ele><time>2021-08-12T10:21:40Z</time><extensions><speed>1.218425</speed><course>103.461632</course><hAcc>0.882635</hAcc><vAcc>0.709798</vAcc></extensions></trkpt>
      <trkpt lon="-3.343848" lat="54.555937"><ele>369.882233</ele><time>2021-08-12T10:21:41Z</time><extensions><speed>1.215116</speed><course>104.412865</course><hAcc>0.882674</hAcc><vAcc>0.709943</vAcc></extensions></trkpt>
      <trkpt lon="-3.343851" lat="54.555926"><ele>369.886414</ele><time>2021-08-12T10:21:42Z</time><extensions><speed>1.213650</speed><course>129.601685</course><hAcc>0.882706</hAcc><vAcc>0.710076</vAcc></extensions></trkpt>
      <trkpt lon="-3.343853" lat="54.555915"><ele>369.892914</ele><time>2021-08-12T10:21:43Z</time><extensions><speed>1.214651</speed><course>149.567169</course><hAcc>0.882733</hAcc><vAcc>0.710194</vAcc></extensions></trkpt>
      <trkpt lon="-3.343855" lat="54.555905"><ele>369.901642</ele><time>2021-08-12T10:21:44Z</time><extensions><speed>1.217991</speed><course>129.327728</course><hAcc>0.882752</hAcc><vAcc>0.710288</vAcc></extensions></trkpt>
      <trkpt lon="-3.343857" lat="54.555894"><ele>369.912842</ele><time>2021-08-12T10:21:45Z</time><extensions><speed>1.222885</speed><course>129.943619</course><hAcc>0.882763</hAcc><vAcc>0.710354</vAcc></extensions></trkpt>
      <trkpt lon="-3.343858" lat="54.555883"><ele>369.926514</ele><time>2021-08-12T10:21:46Z</time><extensions><speed>1.228545</speed><course>125.470825</course><hAcc>0.882768</hAcc><vAcc>0.710389</vAcc></extensions></trkpt>
      <trkpt lon="-3.343858" lat="54.555872"><ele>369.942841</ele><time>2021-08-12T10:21:47Z</time><extensions><speed>1.234780</speed><course>125.654007</course><hAcc>0.882766</hAcc><vAcc>0.710387</vAcc></extensions></trkpt>
      <trkpt lon="-3.343859" lat="54.555860"><ele>369.962494</ele><time>2021-08-12T10:21:48Z</time><extensions><speed>1.241636</speed><course>132.941208</course><hAcc>0.882760</hAcc><vAcc>0.710346</vAcc></extensions></trkpt>
      <trkpt lon="-3.343858" lat="54.555849"><ele>369.986511</ele><time>2021-08-12T10:21:49Z</time><extensions><speed>1.248754</speed><course>128.525970</course><hAcc>0.882750</hAcc><vAcc>0.710271</vAcc></extensions></trkpt>
      <trkpt lon="-3.343858" lat="54.555838"><ele>370.015747</ele><time>2021-08-12T10:21:50Z</time><extensions><speed>1.255730</speed><course>129.747040</course><hAcc>0.882739</hAcc><vAcc>0.710174</vAcc></extensions></trkpt>
      <trkpt lon="-3.343857" lat="54.555827"><ele>370.051086</ele><time>2021-08-12T10:21:51Z</time><extensions><speed>1.262041</speed><course>133.257645</course><hAcc>0.882729</hAcc><vAcc>0.710075</vAcc></extensions></trkpt>
      <trkpt lon="-3.343856" lat="54.555815"><ele>370.093109</ele><time>2021-08-12T10:21:52Z</time><extensions><speed>1.266792</speed><course>122.834160</course><hAcc>0.882722</hAcc><vAcc>0.709993</vAcc></extensions></trkpt>
      <trkpt lon="-3.343855" lat="54.555804"><ele>370.141815</ele><time>2021-08-12T10:21:53Z</time><extensions><speed>1.269077</speed><course>121.754723</course><hAcc>0.882721</hAcc><vAcc>0.709947</vAcc></extensions></trkpt>
      <trkpt lon="-3.343853" lat="54.555793"><ele>370.196838</ele><time>2021-08-12T10:21:54Z</time><extensions><speed>1.268308</speed><course>130.620087</course><hAcc>0.882726</hAcc><vAcc>0.709948</vAcc></extensions></trkpt>
      <trkpt lon="-3.343852" lat="54.555781"><ele>370.257935</ele><time>2021-08-12T10:21:55Z</time><extensions><speed>1.264425</speed><course>128.548019</course><hAcc>0.882738</hAcc><vAcc>0.709996</vAcc></extensions></trkpt>
      <trkpt lon="-3.343850" lat="54.555770"><ele>370.324860</ele><time>2021-08-12T10:21:56Z</time><extensions><speed>1.257830</speed><course>128.034912</course><hAcc>0.882756</hAcc><vAcc>0.710083</vAcc></extensions></trkpt>
      <trkpt lon="-3.343848" lat="54.555759"><ele>370.397278</ele><time>2021-08-12T10:21:57Z</time><extensions><speed>1.248751</speed><course>128.138321</course><hAcc>0.882778</hAcc><vAcc>0.710198</vAcc></extensions></trkpt>
      <trkpt lon="-3.343845" lat="54.555748"><ele>370.475281</ele><time>2021-08-12T10:21:58Z</time><extensions><speed>1.236641</speed><course>127.788391</course><hAcc>0.882801</hAcc><vAcc>0.710330</vAcc></extensions></trkpt>
      <trkpt lon="-3.343843" lat="54.555737"><ele>370.559174</ele><time>2021-08-12T10:21:59Z</time><extensions><speed>1.220550</speed><course>111.799332</course><hAcc>0.882818</hAcc><vAcc>0.710466</vAcc></extensions></trkpt>
      <trkpt lon="-3.343840" lat="54.555726"><ele>370.649261</ele><time>2021-08-12T10:22:00Z</time><extensions><speed>1.199790</speed><course>135.894547</course><hAcc>0.882825</hAcc><vAcc>0.710584</vAcc></extensions></trkpt>
      <trkpt lon="-3.343838" lat="54.555716"><ele>370.745575</ele><time>2021-08-12T10:22:01Z</time><extensions><speed>1.174393</speed><course>135.791443</course><hAcc>0.882814</hAcc><vAcc>0.710654</vAcc></extensions></trkpt>
      <trkpt lon="-3.343835" lat="54.555705"><ele>370.847931</ele><time>2021-08-12T10:22:02Z</time><extensions><speed>1.144775</speed><course>137.532547</course><hAcc>0.882778</hAcc><vAcc>0.710641</vAcc></extensions></trkpt>
      <trkpt lon="-3.343833" lat="54.555695"><ele>370.955719</ele><time>2021-08-12T10:22:03Z</time><extensions><speed>1.111536</speed><course>139.503952</course><hAcc>0.882711</hAcc><vAcc>0.710513</vAcc></extensions></trkpt>
      <trkpt lon="-3.343831" lat="54.555685"><ele>371.067657</ele><time>2021-08-12T10:22:04Z</time><extensions><speed>1.075305</speed><course>146.422607</course><hAcc>0.882606</hAcc><vAcc>0.710246</vAcc></extensions></trkpt>
      <trkpt lon="-3.343828" lat="54.555676"><ele>371.181305</ele><time>2021-08-12T10:22:05Z</time><extensions><speed>1.036961</speed><course>123.702354</course><hAcc>0.882461</hAcc><vAcc>0.709817</vAcc></extensions></trkpt>
      <trkpt lon="-3.343827" lat="54.555667"><ele>371.293579</ele><time>2021-08-12T10:22:06Z</time><extensions><speed>0.998124</speed><course>126.795586</course><hAcc>0.882273</hAcc><vAcc>0.709209</vAcc></extensions></trkpt>
      <trkpt lon="-3.343825" lat="54.555658"><ele>371.402222</ele><time>2021-08-12T10:22:07Z</time><extensions><speed>0.960060</speed><course>132.239441</course><hAcc>0.882044</hAcc><vAcc>0.708412</vAcc></extensions></trkpt>
      <trkpt lon="-3.343824" lat="54.555650"><ele>371.506470</ele><time>2021-08-12T10:22:08Z</time><extensions><speed>0.923609</speed><course>129.200668</course><hAcc>0.881781</hAcc><vAcc>0.707428</vAcc></extensions></trkpt>
      <trkpt lon="-3.343823" lat="54.555642"><ele>371.606384</ele><time>2021-08-12T10:22:09Z</time><extensions><speed>0.890542</speed><course>125.122314</course><hAcc>0.881494</hAcc><vAcc>0.706279</vAcc></extensions></trkpt>
      <trkpt lon="-3.343823" lat="54.555634"><ele>371.702972</ele><time>2021-08-12T10:22:10Z</time><extensions><speed>0.863631</speed><course>136.265396</course><hAcc>0.881196</hAcc><vAcc>0.705008</vAcc></extensions></trkpt>
      <trkpt lon="-3.343823" lat="54.555626"><ele>371.798218</ele><time>2021-08-12T10:22:11Z</time><extensions><speed>0.845441</speed><course>135.687027</course><hAcc>0.880903</hAcc><vAcc>0.703688</vAcc></extensions></trkpt>
      <trkpt lon="-3.343823" lat="54.555619"><ele>371.894104</ele><time>2021-08-12T10:22:12Z</time><extensions><speed>0.837524</speed><course>134.189224</course><hAcc>0.880631</hAcc><vAcc>0.702420</vAcc></extensions></trkpt>
      <trkpt lon="-3.343824" lat="54.555611"><ele>371.992249</ele><time>2021-08-12T10:22:13Z</time><extensions><speed>0.840380</speed><course>130.213623</course><hAcc>0.880397</hAcc><vAcc>0.701323</vAcc></extensions></trkpt>
      <trkpt lon="-3.343826" lat="54.555604"><ele>372.093781</ele><time>2021-08-12T10:22:14Z</time><extensions><speed>0.853274</speed><course>131.249283</course><hAcc>0.880213</hAcc><vAcc>0.700502</vAcc></extensions></trkpt>
      <trkpt lon="-3.343828" lat="54.555596"><ele>372.199280</ele><time>2021-08-12T10:22:15Z</time><extensions><speed>0.874126</speed><course>132.412170</course><hAcc>0.880089</hAcc><vAcc>0.700014</vAcc></extensions></trkpt>
      <trkpt lon="-3.343832" lat="54.555588"><ele>372.309143</ele><time>2021-08-12T10:22:16Z</time><extensions><speed>0.900234</speed><course>141.387543</course><hAcc>0.880025</hAcc><vAcc>0.699855</vAcc></extensions></trkpt>
      <trkpt lon="-3.343835" lat="54.555580"><ele>372.423828</ele><time>2021-08-12T10:22:17Z</time><extensions><speed>0.929778</speed><course>147.693329</course><hAcc>0.880019</hAcc><vAcc>0.699970</vAcc></extensions></trkpt>
      <trkpt lon="-3.343839" lat="54.555572"><ele>372.543274</ele><time>2021-08-12T10:22:18Z</time><extensions><speed>0.961407</speed><course>150.557755</course><hAcc>0.880064</hAcc><vAcc>0.700282</vAcc></extensions></trkpt>
      <trkpt lon="-3.343844" lat="54.555564"><ele>372.667084</ele><time>2021-08-12T10:22:19Z</time><extensions><speed>0.993215</speed><course>146.167221</course><hAcc>0.880152</hAcc><vAcc>0.700722</vAcc></extensions></trkpt>
      <trkpt lon="-3.343849" lat="54.555555"><ele>372.795105</ele><time>2021-08-12T10:22:20Z</time><extensions><speed>1.023606</speed><course>148.113663</course><hAcc>0.880271</hAcc><vAcc>0.701238</vAcc></extensions></trkpt>
      <trkpt lon="-3.343855" lat="54.555546"><ele>372.927277</ele><time>2021-08-12T10:22:21Z</time><extensions><speed>1.051818</speed><course>138.101883</course><hAcc>0.880415</hAcc><vAcc>0.701796</vAcc></extensions></trkpt>
      <trkpt lon="-3.343860" lat="54.555537"><ele>373.062958</ele><time>2021-08-12T10:22:22Z</time><extensions><speed>1.077404</speed><course>142.914612</course><hAcc>0.880575</hAcc><vAcc>0.702375</vAcc></extensions></trkpt>
      <trkpt lon="-3.343866" lat="54.555528"><ele>373.200500</ele><time>2021-08-12T10:22:23Z</time><extensions><speed>1.100145</speed><course>148.048096</course><hAcc>0.880744</hAcc><vAcc>0.702967</vAcc></extensions></trkpt>
      <trkpt lon="-3.343871" lat="54.555519"><ele>373.337769</ele><time>2021-08-12T10:22:24Z</time><extensions><speed>1.120666</speed><course>151.450607</course><hAcc>0.880917</hAcc><vAcc>0.703567</vAcc></extensions></trkpt>
      <trkpt lon="-3.343876" lat="54.555509"><ele>373.472900</ele><time>2021-08-12T10:22:25Z</time><extensions><speed>1.140140</speed><course>136.771103</course><hAcc>0.881090</hAcc><vAcc>0.704178</vAcc></extensions></trkpt>
      <trkpt lon="-3.343881" lat="54.555499"><ele>373.604156</ele><time>2021-08-12T10:22:26Z</time><extensions><speed>1.158911</speed><course>141.808670</course><hAcc>0.881260</hAcc><vAcc>0.704800</vAcc></extensions></trkpt>
      <trkpt lon="-3.343886" lat="54.555489"><ele>373.729706</ele><time>2021-08-12T10:22:27Z</time><extensions><speed>1.176706</speed><course>141.991776</course><hAcc>0.881423</hAcc><vAcc>0.705429</vAcc></extensions></trkpt>
      <trkpt lon="-3.343890" lat="54.555479"><ele>373.847778</ele><time>2021-08-12T10:22:28Z</time><extensions><speed>1.193256</speed><course>158.861435</course><hAcc>0.881576</hAcc><vAcc>0.706051</vAcc></extensions></trkpt>
      <trkpt lon="-3.343893" lat="54.555468"><ele>373.957092</ele><time>2021-08-12T10:22:29Z</time><extensions><speed>1.207850</speed><course>158.142120</course><hAcc>0.881715</hAcc><vAcc>0.706639</vAcc></extensions></trkpt>
      <trkpt lon="-3.343897" lat="54.555457"><ele>374.056976</ele><time>2021-08-12T10:22:30Z</time><extensions><speed>1.220005</speed><course>156.536041</course><hAcc>0.881839</hAcc><vAcc>0.707167</vAcc></extensions></trkpt>
      <trkpt lon="-3.343899" lat="54.555446"><ele>374.147827</ele><time>2021-08-12T10:22:31Z</time><extensions><speed>1.230071</speed><course>138.496033</course><hAcc>0.881944</hAcc><vAcc>0.707607</vAcc></extensions></trkpt>
      <trkpt lon="-3.343902" lat="54.555435"><ele>374.231079</ele><time>2021-08-12T10:22:32Z</time><extensions><speed>1.238578</speed><course>156.669647</course><hAcc>0.882031</hAcc><vAcc>0.707938</vAcc></extensions></trkpt>
      <trkpt lon="-3.343904" lat="54.555424"><ele>374.308685</ele><time>2021-08-12T10:22:33Z</time><extensions><speed>1.245787</speed><course>143.929214</course><hAcc>0.882097</hAcc><vAcc>0.708154</vAcc></extensions></trkpt>
      <trkpt lon="-3.343906" lat="54.555413"><ele>374.382629</ele><time>2021-08-12T10:22:34Z</time><extensions><speed>1.251807</speed><course>154.114960</course><hAcc>0.882143</hAcc><vAcc>0.708266</vAcc></extensions></trkpt>
      <trkpt lon="-3.343908" lat="54.555402"><ele>374.454468</ele><time>2021-08-12T10:22:35Z</time><extensions><speed>1.256522</speed><course>157.737396</course><hAcc>0.882172</hAcc><vAcc>0.708292</vAcc></extensions></trkpt>
      <trkpt lon="-3.343910" lat="54.555391"><ele>374.525085</ele><time>2021-08-12T10:22:36Z</time><extensions><speed>1.259846</speed><course>156.437073</course><hAcc>0.882184</hAcc><vAcc>0.708260</vAcc></extensions></trkpt>
      <trkpt lon="-3.343912" lat="54.555379"><ele>374.595612</ele><time>2021-08-12T10:22:37Z</time><extensions><speed>1.261775</speed><course>159.749420</course><hAcc>0.882185</hAcc><vAcc>0.708194</vAcc></extensions></trkpt>
      <trkpt lon="-3.343914" lat="54.555368"><ele>374.667114</ele><time>2021-08-12T10:22:38Z</time><extensions><speed>1.262554</speed><course>156.029541</course><hAcc>0.882178</hAcc><vAcc>0.708111</vAcc></extensions></trkpt>
      <trkpt lon="-3.343916" lat="54.555357"><ele>374.740326</ele><time>2021-08-12T10:22:39Z</time><extensions><speed>1.262640</speed><course>159.049896</course><hAcc>0.882167</hAcc><vAcc>0.708025</vAcc></extensions></trkpt>
      <trkpt lon="-3.343918" lat="54.555345"><ele>374.816376</ele><time>2021-08-12T10:22:40Z</time><extensions><speed>1.262301</speed><course>154.355942</course><hAcc>0.882155</hAcc><vAcc>0.707950</vAcc></extensions></trkpt>
      <trkpt lon="-3.343919" lat="54.555334"><ele>374.896881</ele><time>2021-08-12T10:22:41Z</time><extensions><speed>1.261794</speed><course>162.710571</course><hAcc>0.882146</hAcc><vAcc>0.707899</vAcc></extensions></trkpt>
      <trkpt lon="-3.343921" lat="54.555323"><ele>374.983856</ele><time>2021-08-12T10:22:42Z</time><extensions><speed>1.260935</speed><course>161.899368</course><hAcc>0.882142</hAcc><vAcc>0.707880</vAcc></extensions></trkpt>
      <trkpt lon="-3.343923" lat="54.555312"><ele>375.079254</ele><time>2021-08-12T10:22:43Z</time><extensions><speed>1.259156</speed><course>160.656769</course><hAcc>0.882144</hAcc><vAcc>0.707891</vAcc></extensions></trkpt>
      <trkpt lon="-3.343925" lat="54.555300"><ele>375.184662</ele><time>2021-08-12T10:22:44Z</time><extensions><speed>1.256295</speed><course>152.471558</course><hAcc>0.882154</hAcc><vAcc>0.707932</vAcc></extensions></trkpt>
      <trkpt lon="-3.343926" lat="54.555289"><ele>375.300385</ele><time>2021-08-12T10:22:45Z</time><extensions><speed>1.252313</speed><course>148.255112</course><hAcc>0.882171</hAcc><vAcc>0.708001</vAcc></extensions></trkpt>
      <trkpt lon="-3.343928" lat="54.555278"><ele>375.425720</ele><time>2021-08-12T10:22:46Z</time><extensions><speed>1.247217</speed><course>153.394714</course><hAcc>0.882196</hAcc><vAcc>0.708099</vAcc></extensions></trkpt>
      <trkpt lon="-3.343930" lat="54.555267"><ele>375.559662</ele><time>2021-08-12T10:22:47Z</time><extensions><speed>1.241245</speed><course>156.943573</course><hAcc>0.882227</hAcc><vAcc>0.708224</vAcc></extensions></trkpt>
      <trkpt lon="-3.343931" lat="54.555256"><ele>375.701416</ele><time>2021-08-12T10:22:48Z</time><extensions><speed>1.234903</speed><course>159.515564</course><hAcc>0.882263</hAcc><vAcc>0.708373</vAcc></extensions></trkpt>
      <trkpt lon="-3.343933" lat="54.555245"><ele>375.850128</ele><time>2021-08-12T10:22:49Z</time><extensions><speed>1.228560</speed><course>158.540283</course><hAcc>0.882304</hAcc><vAcc>0.708538</vAcc></extensions></trkpt>
      <trkpt lon="-3.343934" lat="54.555234"><ele>376.005493</ele><time>2021-08-12T10:22:50Z</time><extensions><speed>1.222003</speed><course>153.751312</course><hAcc>0.882347</hAcc><vAcc>0.708712</vAcc></extensions></trkpt>
      <trkpt lon="-3.343935" lat="54.555223"><ele>376.167267</ele><time>2021-08-12T10:22:51Z</time><extensions><speed>1.214893</speed><course>159.795258</course><hAcc>0.882391</hAcc><vAcc>0.708890</vAcc></extensions></trkpt>
      <trkpt lon="-3.343936" lat="54.555212"><ele>376.335052</ele><time>2021-08-12T10:22:52Z</time><extensions><speed>1.207298</speed><course>158.187424</course><hAcc>0.882434</hAcc><vAcc>0.709066</vAcc></extensions></trkpt>
      <trkpt lon="-3.343937" lat="54.555201"><ele>376.508209</ele><time>2021-08-12T10:22:53Z</time><extensions><speed>1.199555</speed><course>160.275116</course><hAcc>0.882475</hAcc><vAcc>0.709234</vAcc></extensions></trkpt>
      <trkpt lon="-3.343938" lat="54.555190"><ele>376.686310</ele><time>2021-08-12T10:22:54Z</time><extensions><speed>1.191887</speed><course>156.643036</course><hAcc>0.882513</hAcc><vAcc>0.709387</vAcc></extensions></trkpt>
      <trkpt lon="-3.343938" lat="54.555180"><ele>376.869110</ele><time>2021-08-12T10:22:55Z</time><extensions><speed>1.184517</speed><course>162.614395</course><hAcc>0.882545</hAcc><vAcc>0.709516</vAcc></extensions></trkpt>
      <trkpt lon="-3.343938" lat="54.555169"><ele>377.056030</ele><time>2021-08-12T10:22:56Z</time><extensions><speed>1.177400</speed><course>162.054535</course><hAcc>0.882571</hAcc><vAcc>0.709619</vAcc></extensions></trkpt>
      <trkpt lon="-3.343939" lat="54.555159"><ele>377.246124</ele><time>2021-08-12T10:22:57Z</time><extensions><speed>1.169863</speed><course>177.342987</course><hAcc>0.882589</hAcc><vAcc>0.709693</vAcc></extensions></trkpt>
      <trkpt lon="-3.343939" lat="54.555148"><ele>377.438141</ele><time>2021-08-12T10:22:58Z</time><extensions><speed>1.161176</speed><course>172.891953</course><hAcc>0.882598</hAcc><vAcc>0.709734</vAcc></extensions></trkpt>
      <trkpt lon="-3.343940" lat="54.555138"><ele>377.630981</ele><time>2021-08-12T10:22:59Z</time><extensions><speed>1.151243</speed><course>169.984741</course><hAcc>0.882599</hAcc><vAcc>0.709739</vAcc></extensions></trkpt>
      <trkpt lon="-3.343940" lat="54.555127"><ele>377.824005</ele><time>2021-08-12T10:23:00Z</time><extensions><speed>1.140135</speed><course>166.246048</course><hAcc>0.882590</hAcc><vAcc>0.709704</vAcc></extensions></trkpt>
      <trkpt lon="-3.343941" lat="54.555117"><ele>378.017120</ele><time>2021-08-12T10:23:01Z</time><extensions><speed>1.127932</speed><course>166.762161</course><hAcc>0.882573</hAcc><vAcc>0.709631</vAcc></extensions></trkpt>
      <trkpt lon="-3.343941" lat="54.555107"><ele>378.210602</ele><time>2021-08-12T10:23:02Z</time><extensions><speed>1.115249</speed><course>163.016708</course><hAcc>0.882546</hAcc><vAcc>0.709522</vAcc></extensions></trkpt>
      <trkpt lon="-3.343942" lat="54.555097"><ele>378.405304</ele><time>2021-08-12T10:23:03Z</time><extensions><speed>1.103113</speed><course>159.079727</course><hAcc>0.882510</hAcc><vAcc>0.709382</vAcc></extensions></trkpt>
      <trkpt lon="-3.343943" lat="54.555087"><ele>378.602386</ele><time>2021-08-12T10:23:04Z</time><extensions><speed>1.092222</speed><course>160.816132</course><hAcc>0.882465</hAcc><vAcc>0.709212</vAcc></extensions></trkpt>
      <trkpt lon="-3.343944" lat="54.555078"><ele>378.802734</ele><time>2021-08-12T10:23:05Z</time><extensions><speed>1.082357</speed><course>163.227844</course><hAcc>0.882412</hAcc><vAcc>0.709016</vAcc></extensions></trkpt>
      <trkpt lon="-3.343945" lat="54.555068"><ele>379.006897</ele><time>2021-08-12T10:23:06Z</time><extensions><speed>1.072747</speed><course>152.149902</course><hAcc>0.882351</hAcc><vAcc>0.708796</vAcc></extensions></trkpt>
      <trkpt lon="-3.343946" lat="54.555058"><ele>379.214813</ele><time>2021-08-12T10:23:07Z</time><extensions><speed>1.062929</speed><course>159.582550</course><hAcc>0.882284</hAcc><vAcc>0.708554</vAcc></extensions></trkpt>
      <trkpt lon="-3.343947" lat="54.555049"><ele>379.426483</ele><time>2021-08-12T10:23:08Z</time><extensions><speed>1.052857</speed><course>159.987671</course><hAcc>0.882210</hAcc><vAcc>0.708290</vAcc></extensions></trkpt>
      <trkpt lon="-3.343948" lat="54.555040"><ele>379.642059</ele><time>2021-08-12T10:23:09Z</time><extensions><speed>1.042517</speed><course>163.105835</course><hAcc>0.882132</hAcc><vAcc>0.708004</vAcc></extensions></trkpt>
      <trkpt lon="-3.343949" lat="54.555030"><ele>379.861511</ele><time>2021-08-12T10:23:10Z</time><extensions><speed>1.031720</speed><course>160.869598</course><hAcc>0.882050</hAcc><vAcc>0.707699</vAcc></extensions></trkpt>
      <trkpt lon="-3.343950" lat="54.555021"><ele>380.084839</ele><time>2021-08-12T10:23:11Z</time><extensions><speed>1.020322</speed><course>172.028473</course><hAcc>0.881967</hAcc><vAcc>0.707379</vAcc></extensions></trkpt>
      <trkpt lon="-3.343951" lat="54.555012"><ele>380.311920</ele><time>2021-08-12T10:23:12Z</time><extensions><speed>1.008200</speed><course>182.583130</course><hAcc>0.881886</hAcc><vAcc>0.707051</vAcc></extensions></trkpt>
      <trkpt lon="-3.343951" lat="54.555003"><ele>380.542786</ele><time>2021-08-12T10:23:13Z</time><extensions><speed>0.995123</speed><course>175.623672</course><hAcc>0.881807</hAcc><vAcc>0.706725</vAcc></extensions></trkpt>
      <trkpt lon="-3.343952" lat="54.554994"><ele>380.777283</ele><time>2021-08-12T10:23:14Z</time><extensions><speed>0.980626</speed><course>168.997635</course><hAcc>0.881736</hAcc><vAcc>0.706415</vAcc></extensions></trkpt>
      <trkpt lon="-3.343953" lat="54.554985"><ele>381.014984</ele><time>2021-08-12T10:23:15Z</time><extensions><speed>0.964222</speed><course>166.227890</course><hAcc>0.881673</hAcc><vAcc>0.706138</vAcc></extensions></trkpt>
      <trkpt lon="-3.343954" lat="54.554977"><ele>381.255035</ele><time>2021-08-12T10:23:16Z</time><extensions><speed>0.946004</speed><course>162.222458</course><hAcc>0.881622</hAcc><vAcc>0.705912</vAcc></extensions></trkpt>
      <trkpt lon="-3.343954" lat="54.554968"><ele>381.496338</ele><time>2021-08-12T10:23:17Z</time><extensions><speed>0.926432</speed><course>162.553314</course><hAcc>0.881583</hAcc><vAcc>0.705751</vAcc></extensions></trkpt>
      <trkpt lon="-3.343955" lat="54.554960"><ele>381.737518</ele><time>2021-08-12T10:23:18Z</time><extensions><speed>0.905663</speed><course>165.735123</course><hAcc>0.881558</hAcc><vAcc>0.705663</vAcc></extensions></trkpt>
      <trkpt lon="-3.343955" lat="54.554952"><ele>381.976990</ele><time>2021-08-12T10:23:19Z</time><extensions><speed>0.883557</speed><course>166.317276</course><hAcc>0.881547</hAcc><vAcc>0.705647</vAcc></extensions></trkpt>
      <trkpt lon="-3.343956" lat="54.554944"><ele>382.212921</ele><time>2021-08-12T10:23:20Z</time><extensions><speed>0.860340</speed><course>164.590683</course><hAcc>0.881550</hAcc><vAcc>0.705694</vAcc></extensions></trkpt>
      <trkpt lon="-3.343956" lat="54.554937"><ele>382.443817</ele><time>2021-08-12T10:23:21Z</time><extensions><speed>0.836666</speed><course>167.304306</course><hAcc>0.881564</hAcc><vAcc>0.705790</vAcc></extensions></trkpt>
      <trkpt lon="-3.343956" lat="54.554929"><ele>382.668610</ele><time>2021-08-12T10:23:22Z</time><extensions><speed>0.813106</speed><course>166.209152</course><hAcc>0.881588</hAcc><vAcc>0.705917</vAcc></extensions></trkpt>
      <trkpt lon="-3.343956" lat="54.554922"><ele>382.887024</ele><time>2021-08-12T10:23:23Z</time><extensions><speed>0.789879</speed><course>170.985672</course><hAcc>0.881618</hAcc><vAcc>0.706060</vAcc></extensions></trkpt>
      <trkpt lon="-3.343956" lat="54.554915"><ele>383.099030</ele><time>2021-08-12T10:23:24Z</time><extensions><speed>0.766908</speed><course>170.155151</course><hAcc>0.881653</hAcc><vAcc>0.706207</vAcc></extensions></trkpt>
      <trkpt lon="-3.343955" lat="54.554908"><ele>383.304688</ele><time>2021-08-12T10:23:25Z</time><extensions><speed>0.743772</speed><course>173.270996</course><hAcc>0.881690</hAcc><vAcc>0.706351</vAcc></extensions></trkpt>
      <trkpt lon="-3.343955" lat="54.554902"><ele>383.504089</ele><time>2021-08-12T10:23:26Z</time><extensions><speed>0.720166</speed><course>158.977570</course><hAcc>0.881724</hAcc><vAcc>0.706489</vAcc></extensions></trkpt>
      <trkpt lon="-3.343954" lat="54.554895"><ele>383.697418</ele><time>2021-08-12T10:23:27Z</time><extensions><speed>0.696633</speed><course>154.473984</course><hAcc>0.881754</hAcc><vAcc>0.706614</vAcc></extensions></trkpt>
      <trkpt lon="-3.343953" lat="54.554889"><ele>383.885223</ele><time>2021-08-12T10:23:28Z</time><extensions><speed>0.674146</speed><course>159.955185</course><hAcc>0.881776</hAcc><vAcc>0.706722</vAcc></extensions></trkpt>
      <trkpt lon="-3.343952" lat="54.554883"><ele>384.067963</ele><time>2021-08-12T10:23:29Z</time><extensions><speed>0.653639</speed><course>153.408218</course><hAcc>0.881788</hAcc><vAcc>0.706805</vAcc></extensions></trkpt>
      <trkpt lon="-3.343951" lat="54.554878"><ele>384.246246</ele><time>2021-08-12T10:23:30Z</time><extensions><speed>0.635641</speed><course>151.142990</course><hAcc>0.881787</hAcc><vAcc>0.706850</vAcc></extensions></trkpt>
      <trkpt lon="-3.343949" lat="54.554872"><ele>384.421173</ele><time>2021-08-12T10:23:31Z</time><extensions><speed>0.620122</speed><course>153.658844</course><hAcc>0.881772</hAcc><vAcc>0.706843</vAcc></extensions></trkpt>
      <trkpt lon="-3.343948" lat="54.554867"><ele>384.594299</ele><time>2021-08-12T10:23:32Z</time><extensions><speed>0.607039</speed><course>151.540298</course><hAcc>0.881741</hAcc><vAcc>0.706770</vAcc></extensions></trkpt>
      <trkpt lon="-3.343947" lat="54.554861"><ele>384.767090</ele><time>2021-08-12T10:23:33Z</time><extensions><speed>0.596863</speed><course>151.542770</course><hAcc>0.881696</hAcc><vAcc>0.706618</vAcc></extensions></trkpt>
      <trkpt lon="-3.343946" lat="54.554856"><ele>384.940552</ele><time>2021-08-12T10:23:34Z</time><extensions><speed>0.590270</speed><course>151.184875</course><hAcc>0.881638</hAcc><vAcc>0.706385</vAcc></extensions></trkpt>
      <trkpt lon="-3.343945" lat="54.554851"><ele>385.115295</ele><time>2021-08-12T10:23:35Z</time><extensions><speed>0.587575</speed><course>148.009705</course><hAcc>0.881569</hAcc><vAcc>0.706080</vAcc></extensions></trkpt>
      <trkpt lon="-3.343945" lat="54.554845"><ele>385.291595</ele><time>2021-08-12T10:23:36Z</time><extensions><speed>0.588741</speed><course>151.132050</course><hAcc>0.881494</hAcc><vAcc>0.705723</vAcc></extensions></trkpt>
      <trkpt lon="-3.343944" lat="54.554840"><ele>385.469238</ele><time>2021-08-12T10:23:37Z</time><extensions><speed>0.593548</speed><course>147.416718</course><hAcc>0.881416</hAcc><vAcc>0.705342</vAcc></extensions></trkpt>
      <trkpt lon="-3.343944" lat="54.554835"><ele>385.647644</ele><time>2021-08-12T10:23:38Z</time><extensions><speed>0.601795</speed><course>145.946671</course><hAcc>0.881342</hAcc><vAcc>0.704973</vAcc></extensions></trkpt>
      <trkpt lon="-3.343944" lat="54.554829"><ele>385.826263</ele><time>2021-08-12T10:23:39Z</time><extensions><speed>0.613108</speed><course>158.213196</course><hAcc>0.881276</hAcc><vAcc>0.704649</vAcc></extensions></trkpt>
      <trkpt lon="-3.343943" lat="54.554824"><ele>386.004852</ele><time>2021-08-12T10:23:40Z</time><extensions><speed>0.627098</speed><course>165.532318</course><hAcc>0.881223</hAcc><vAcc>0.704396</vAcc></extensions></trkpt>
      <trkpt lon="-3.343943" lat="54.554818"><ele>386.183624</ele><time>2021-08-12T10:23:41Z</time><extensions><speed>0.643490</speed><course>155.828384</course><hAcc>0.881188</hAcc><vAcc>0.704233</vAcc></extensions></trkpt>
      <trkpt lon="-3.343943" lat="54.554812"><ele>386.363312</ele><time>2021-08-12T10:23:42Z</time><extensions><speed>0.662022</speed><course>158.510941</course><hAcc>0.881173</hAcc><vAcc>0.704171</vAcc></extensions></trkpt>
      <trkpt lon="-3.343942" lat="54.554806"><ele>386.545074</ele><time>2021-08-12T10:23:43Z</time><extensions><speed>0.682371</speed><course>158.599030</course><hAcc>0.881179</hAcc><vAcc>0.704216</vAcc></extensions></trkpt>
      <trkpt lon="-3.343942" lat="54.554800"><ele>386.729980</ele><time>2021-08-12T10:23:44Z</time><extensions><speed>0.703868</speed><course>159.122437</course><hAcc>0.881205</hAcc><vAcc>0.704361</vAcc></extensions></trkpt>
      <trkpt lon="-3.343942" lat="54.554793"><ele>386.918671</ele><time>2021-08-12T10:23:45Z</time><extensions><speed>0.725237</speed><course>161.654770</course><hAcc>0.881250</hAcc><vAcc>0.704592</vAcc></extensions></trkpt>
      <trkpt lon="-3.343941" lat="54.554787"><ele>387.111145</ele><time>2021-08-12T10:23:46Z</time><extensions><speed>0.745199</speed><course>168.809372</course><hAcc>0.881311</hAcc><vAcc>0.704886</vAcc></extensions></trkpt>
      <trkpt lon="-3.343941" lat="54.554780"><ele>387.306854</ele><time>2021-08-12T10:23:47Z</time><extensions><speed>0.762993</speed><course>164.604691</course><hAcc>0.881385</hAcc><vAcc>0.705216</vAcc></extensions></trkpt>
      <trkpt lon="-3.343941" lat="54.554773"><ele>387.504700</ele><time>2021-08-12T10:23:48Z</time><extensions><speed>0.778482</speed><course>171.894135</course><hAcc>0.881468</hAcc><vAcc>0.705559</vAcc></extensions></trkpt>
      <trkpt lon="-3.343940" lat="54.554766"><ele>387.703522</ele><time>2021-08-12T10:23:49Z</time><extensions><speed>0.792303</speed><course>183.275330</course><hAcc>0.881557</hAcc><vAcc>0.705901</vAcc></extensions></trkpt>
      <trkpt lon="-3.343940" lat="54.554759"><ele>387.901917</ele><time>2021-08-12T10:23:50Z</time><extensions><speed>0.804654</speed><course>184.743423</course><hAcc>0.881648</hAcc><vAcc>0.706235</vAcc></extensions></trkpt>
      <trkpt lon="-3.343940" lat="54.554752"><ele>388.098083</ele><time>2021-08-12T10:23:51Z</time><extensions><speed>0.815086</speed><course>187.377213</course><hAcc>0.881740</hAcc><vAcc>0.706562</vAcc></extensions></trkpt>
      <trkpt lon="-3.343940" lat="54.554744"><ele>388.290009</ele><time>2021-08-12T10:23:52Z</time><extensions><speed>0.823460</speed><course>178.027603</course><hAcc>0.881831</hAcc><vAcc>0.706882</vAcc></extensions></trkpt>
      <trkpt lon="-3.343940" lat="54.554737"><ele>388.475769</ele><time>2021-08-12T10:23:53Z</time><extensions><speed>0.829872</speed><course>178.136368</course><hAcc>0.881919</hAcc><vAcc>0.707197</vAcc></extensions></trkpt>
      <trkpt lon="-3.343940" lat="54.554729"><ele>388.653687</ele><time>2021-08-12T10:23:54Z</time><extensions><speed>0.834869</speed><course>181.274490</course><hAcc>0.882004</hAcc><vAcc>0.707504</vAcc></extensions></trkpt>
      <trkpt lon="-3.343939" lat="54.554722"><ele>388.822449</ele><time>2021-08-12T10:23:55Z</time><extensions><speed>0.839379</speed><course>197.035065</course><hAcc>0.882084</hAcc><vAcc>0.707800</vAcc></extensions></trkpt>
      <trkpt lon="-3.343939" lat="54.554714"><ele>388.981079</ele><time>2021-08-12T10:23:56Z</time><extensions><speed>0.843946</speed><course>204.692612</course><hAcc>0.882161</hAcc><vAcc>0.708080</vAcc></extensions></trkpt>
      <trkpt lon="-3.343937" lat="54.554707"><ele>389.129517</ele><time>2021-08-12T10:23:57Z</time><extensions><speed>0.848513</speed><course>213.039078</course><hAcc>0.882234</hAcc><vAcc>0.708344</vAcc></extensions></trkpt>
      <trkpt lon="-3.343936" lat="54.554699"><ele>389.268402</ele><time>2021-08-12T10:23:58Z</time><extensions><speed>0.852812</speed><course>220.763565</course><hAcc>0.882302</hAcc><vAcc>0.708589</vAcc></extensions></trkpt>
      <trkpt lon="-3.343934" lat="54.554692"><ele>389.398315</ele><time>2021-08-12T10:23:59Z</time><extensions><speed>0.856910</speed><course>226.732666</course><hAcc>0.882365</hAcc><vAcc>0.708818</vAcc></extensions></trkpt>
      <trkpt lon="-3.343932" lat="54.554684"><ele>389.520447</ele><time>2021-08-12T10:24:00Z</time><extensions><speed>0.860824</speed><course>231.810226</course><hAcc>0.882424</hAcc><vAcc>0.709031</vAcc></extensions></trkpt>
      <trkpt lon="-3.343929" lat="54.554676"><ele>389.636780</ele><time>2021-08-12T10:24:01Z</time><extensions><speed>0.864370</speed><course>257.258179</course><hAcc>0.882478</hAcc><vAcc>0.709229</vAcc></extensions></trkpt>
      <trkpt lon="-3.343926" lat="54.554669"><ele>389.749481</ele><time>2021-08-12T10:24:02Z</time><extensions><speed>0.867838</speed><course>266.164734</course><hAcc>0.882527</hAcc><vAcc>0.709412</vAcc></extensions></trkpt>
      <trkpt lon="-3.343922" lat="54.554661"><ele>389.861328</ele><time>2021-08-12T10:24:03Z</time><extensions><speed>0.872201</speed><course>266.164734</course><hAcc>0.882570</hAcc><vAcc>0.709580</vAcc></extensions></trkpt>
      <trkpt lon="-3.343918" lat="54.554654"><ele>389.975372</ele><time>2021-08-12T10:24:04Z</time><extensions><speed>0.878198</speed><course>266.164734</course><hAcc>0.882607</hAcc><vAcc>0.709727</vAcc></extensions></trkpt>
      <trkpt lon="-3.343914" lat="54.554646"><ele>390.093811</ele><time>2021-08-12T10:24:05Z</time><extensions><speed>0.885724</speed><course>220.132019</course><hAcc>0.882638</hAcc><vAcc>0.709850</vAcc></extensions></trkpt>
      <trkpt lon="-3.343909" lat="54.554639"><ele>390.217834</ele><time>2021-08-12T10:24:06Z</time><extensions><speed>0.894481</speed><course>228.232590</course><hAcc>0.882663</hAcc><vAcc>0.709944</vAcc></extensions></trkpt>
      <trkpt lon="-3.343903" lat="54.554631"><ele>390.348175</ele><time>2021-08-12T10:24:07Z</time><extensions><speed>0.904083</speed><course>234.079605</course><hAcc>0.882681</hAcc><vAcc>0.710010</vAcc></extensions></trkpt>
      <trkpt lon="-3.343897" lat="54.554624"><ele>390.485443</ele><time>2021-08-12T10:24:08Z</time><extensions><speed>0.913956</speed><course>246.469162</course><hAcc>0.882692</hAcc><vAcc>0.710044</vAcc></extensions></trkpt>
      <trkpt lon="-3.343891" lat="54.554617"><ele>390.629456</ele><time>2021-08-12T10:24:09Z</time><extensions><speed>0.923324</speed><course>245.207291</course><hAcc>0.882697</hAcc><vAcc>0.710047</vAcc></extensions></trkpt>
      <trkpt lon="-3.343884" lat="54.554609"><ele>390.778900</ele><time>2021-08-12T10:24:10Z</time><extensions><speed>0.931668</speed><course>243.898834</course><hAcc>0.882694</hAcc><vAcc>0.710022</vAcc></extensions></trkpt>
      <trkpt lon="-3.343878" lat="54.554602"><ele>390.931335</ele><time>2021-08-12T10:24:11Z</time><extensions><speed>0.938870</speed><course>238.112976</course><hAcc>0.882683</hAcc><vAcc>0.709976</vAcc></extensions></trkpt>
      <trkpt lon="-3.343870" lat="54.554594"><ele>391.083862</ele><time>2021-08-12T10:24:12Z</time><extensions><speed>0.944745</speed><course>238.308395</course><hAcc>0.882663</hAcc><vAcc>0.709913</vAcc></extensions></trkpt>
      <trkpt lon="-3.343863" lat="54.554587"><ele>391.234222</ele><time>2021-08-12T10:24:13Z</time><extensions><speed>0.948903</speed><course>242.479843</course><hAcc>0.882635</hAcc><vAcc>0.709833</vAcc></extensions></trkpt>
      <trkpt lon="-3.343856" lat="54.554580"><ele>391.381836</ele><time>2021-08-12T10:24:14Z</time><extensions><speed>0.950802</speed><course>241.402863</course><hAcc>0.882597</hAcc><vAcc>0.709727</vAcc></extensions></trkpt>
      <trkpt lon="-3.343849" lat="54.554572"><ele>391.527893</ele><time>2021-08-12T10:24:15Z</time><extensions><speed>0.950072</speed><course>237.836914</course><hAcc>0.882550</hAcc><vAcc>0.709588</vAcc></extensions></trkpt>
      <trkpt lon="-3.343842" lat="54.554564"><ele>391.674866</ele><time>2021-08-12T10:24:16Z</time><extensions><speed>0.946897</speed><course>241.232681</course><hAcc>0.882493</hAcc><vAcc>0.709407</vAcc></extensions></trkpt>
      <trkpt lon="-3.343836" lat="54.554557"><ele>391.825775</ele><time>2021-08-12T10:24:17Z</time><extensions><speed>0.942285</speed><course>262.141510</course><hAcc>0.882429</hAcc><vAcc>0.709178</vAcc></extensions></trkpt>
      <trkpt lon="-3.343830" lat="54.554549"><ele>391.983490</ele><time>2021-08-12T10:24:18Z</time><extensions><speed>0.937466</speed><course>261.447266</course><hAcc>0.882359</hAcc><vAcc>0.708898</vAcc></extensions></trkpt>
      <trkpt lon="-3.343825" lat="54.554541"><ele>392.149719</ele><time>2021-08-12T10:24:19Z</time><extensions><speed>0.933775</speed><course>261.925140</course><hAcc>0.882285</hAcc><vAcc>0.708577</vAcc></extensions></trkpt>
      <trkpt lon="-3.343821" lat="54.554533"><ele>392.324738</ele><time>2021-08-12T10:24:20Z</time><extensions><speed>0.932549</speed><course>266.740814</course><hAcc>0.882210</hAcc><vAcc>0.708234</vAcc></extensions></trkpt>
      <trkpt lon="-3.343817" lat="54.554525"><ele>392.508331</ele><time>2021-08-12T10:24:21Z</time><extensions><speed>0.934475</speed><course>263.896973</course><hAcc>0.882137</hAcc><vAcc>0.707893</vAcc></extensions></trkpt>
      <trkpt lon="-3.343814" lat="54.554517"><ele>392.700439</ele><time>2021-08-12T10:24:22Z</time><extensions><speed>0.939491</speed><course>261.924744</course><hAcc>0.882069</hAcc><vAcc>0.707578</vAcc></extensions></trkpt>
      <trkpt lon="-3.343812" lat="54.554509"><ele>392.901001</ele><time>2021-08-12T10:24:23Z</time><extensions><speed>0.947084</speed><course>264.486481</course><hAcc>0.882010</hAcc><vAcc>0.707310</vAcc></extensions></trkpt>
      <trkpt lon="-3.343810" lat="54.554500"><ele>393.109863</ele><time>2021-08-12T10:24:24Z</time><extensions><speed>0.956718</speed><course>263.217468</course><hAcc>0.881962</hAcc><vAcc>0.707106</vAcc></extensions></trkpt>
      <trkpt lon="-3.343810" lat="54.554491"><ele>393.326843</ele><time>2021-08-12T10:24:25Z</time><extensions><speed>0.967741</speed><course>266.412231</course><hAcc>0.881926</hAcc><vAcc>0.706975</vAcc></extensions></trkpt>
      <trkpt lon="-3.343809" lat="54.554483"><ele>393.551453</ele><time>2021-08-12T10:24:26Z</time><extensions><speed>0.979643</speed><course>270.399445</course><hAcc>0.881905</hAcc><vAcc>0.706923</vAcc></extensions></trkpt>
      <trkpt lon="-3.343810" lat="54.554474"><ele>393.782410</ele><time>2021-08-12T10:24:27Z</time><extensions><speed>0.992182</speed><course>260.295807</course><hAcc>0.881898</hAcc><vAcc>0.706940</vAcc></extensions></trkpt>
      <trkpt lon="-3.343810" lat="54.554465"><ele>394.018158</ele><time>2021-08-12T10:24:28Z</time><extensions><speed>1.004981</speed><course>254.591400</course><hAcc>0.881905</hAcc><vAcc>0.707010</vAcc></extensions></trkpt>
      <trkpt lon="-3.343811" lat="54.554456"><ele>394.257233</ele><time>2021-08-12T10:24:29Z</time><extensions><speed>1.017126</speed><course>246.407776</course><hAcc>0.881924</hAcc><vAcc>0.707115</vAcc></extensions></trkpt>
      <trkpt lon="-3.343812" lat="54.554447"><ele>394.498047</ele><time>2021-08-12T10:24:30Z</time><extensions><speed>1.027800</speed><course>240.825714</course><hAcc>0.881956</hAcc><vAcc>0.707244</vAcc></extensions></trkpt>
      <trkpt lon="-3.343814" lat="54.554437"><ele>394.738464</ele><time>2021-08-12T10:24:31Z</time><extensions><speed>1.036869</speed><course>235.078873</course><hAcc>0.881998</hAcc><vAcc>0.707393</vAcc></extensions></trkpt>
      <trkpt lon="-3.343815" lat="54.554428"><ele>394.976410</ele><time>2021-08-12T10:24:32Z</time><extensions><speed>1.044251</speed><course>230.996750</course><hAcc>0.882049</hAcc><vAcc>0.707565</vAcc></extensions></trkpt>
      <trkpt lon="-3.343817" lat="54.554419"><ele>395.210602</ele><time>2021-08-12T10:24:33Z</time><extensions><speed>1.049721</speed><course>237.371124</course><hAcc>0.882107</hAcc><vAcc>0.707764</vAcc></extensions></trkpt>
      <trkpt lon="-3.343819" lat="54.554409"><ele>395.440460</ele><time>2021-08-12T10:24:34Z</time><extensions><speed>1.053021</speed><course>233.251434</course><hAcc>0.882172</hAcc><vAcc>0.707994</vAcc></extensions></trkpt>
      <trkpt lon="-3.343821" lat="54.554400"><ele>395.665558</ele><time>2021-08-12T10:24:35Z</time><extensions><speed>1.054205</speed><course>229.059296</course><hAcc>0.882242</hAcc><vAcc>0.708253</vAcc></extensions></trkpt>
      <trkpt lon="-3.343823" lat="54.554391"><ele>395.885040</ele><time>2021-08-12T10:24:36Z</time><extensions><speed>1.053940</speed><course>237.299759</course><hAcc>0.882314</hAcc><vAcc>0.708540</vAcc></extensions></trkpt>
      <trkpt lon="-3.343826" lat="54.554381"><ele>396.098175</ele><time>2021-08-12T10:24:37Z</time><extensions><speed>1.052890</speed><course>228.636597</course><hAcc>0.882389</hAcc><vAcc>0.708845</vAcc></extensions></trkpt>
      <trkpt lon="-3.343828" lat="54.554372"><ele>396.304962</ele><time>2021-08-12T10:24:38Z</time><extensions><speed>1.051409</speed><course>232.788193</course><hAcc>0.882463</hAcc><vAcc>0.709156</vAcc></extensions></trkpt>
      <trkpt lon="-3.343831" lat="54.554363"><ele>396.505768</ele><time>2021-08-12T10:24:39Z</time><extensions><speed>1.049819</speed><course>226.630402</course><hAcc>0.882536</hAcc><vAcc>0.709457</vAcc></extensions></trkpt>
      <trkpt lon="-3.343833" lat="54.554353"><ele>396.701233</ele><time>2021-08-12T10:24:40Z</time><extensions><speed>1.048038</speed><course>231.208252</course><hAcc>0.882605</hAcc><vAcc>0.709736</vAcc></extensions></trkpt>
      <trkpt lon="-3.343836" lat="54.554344"><ele>396.891846</ele><time>2021-08-12T10:24:41Z</time><extensions><speed>1.045755</speed><course>221.171371</course><hAcc>0.882669</hAcc><vAcc>0.709983</vAcc></extensions></trkpt>
      <trkpt lon="-3.343839" lat="54.554335"><ele>397.077728</ele><time>2021-08-12T10:24:42Z</time><extensions><speed>1.042708</speed><course>226.944763</course><hAcc>0.882727</hAcc><vAcc>0.710195</vAcc></extensions></trkpt>
      <trkpt lon="-3.343843" lat="54.554326"><ele>397.258301</ele><time>2021-08-12T10:24:43Z</time><extensions><speed>1.038404</speed><course>229.173843</course><hAcc>0.882777</hAcc><vAcc>0.710374</vAcc></extensions></trkpt>
      <trkpt lon="-3.343846" lat="54.554317"><ele>397.432343</ele><time>2021-08-12T10:24:44Z</time><extensions><speed>1.032376</speed><course>219.367737</course><hAcc>0.882820</hAcc><vAcc>0.710523</vAcc></extensions></trkpt>
      <trkpt lon="-3.343850" lat="54.554308"><ele>397.598877</ele><time>2021-08-12T10:24:45Z</time><extensions><speed>1.024324</speed><course>228.114029</course><hAcc>0.882856</hAcc><vAcc>0.710644</vAcc></extensions></trkpt>
      <trkpt lon="-3.343853" lat="54.554299"><ele>397.757660</ele><time>2021-08-12T10:24:46Z</time><extensions><speed>1.013789</speed><course>227.965424</course><hAcc>0.882886</hAcc><vAcc>0.710737</vAcc></extensions></trkpt>
      <trkpt lon="-3.343857" lat="54.554290"><ele>397.908936</ele><time>2021-08-12T10:24:47Z</time><extensions><speed>1.000990</speed><course>229.338791</course><hAcc>0.882910</hAcc><vAcc>0.710803</vAcc></extensions></trkpt>
      <trkpt lon="-3.343860" lat="54.554281"><ele>398.053070</ele><time>2021-08-12T10:24:48Z</time><extensions><speed>0.986861</speed><course>231.293549</course><hAcc>0.882931</hAcc><vAcc>0.710847</vAcc></extensions></trkpt>
      <trkpt lon="-3.343864" lat="54.554273"><ele>398.190491</ele><time>2021-08-12T10:24:49Z</time><extensions><speed>0.972219</speed><course>238.754257</course><hAcc>0.882950</hAcc><vAcc>0.710879</vAcc></extensions></trkpt>
      <trkpt lon="-3.343867" lat="54.554264"><ele>398.321472</ele><time>2021-08-12T10:24:50Z</time><extensions><speed>0.958374</speed><course>238.093399</course><hAcc>0.882968</hAcc><vAcc>0.710915</vAcc></extensions></trkpt>
      <trkpt lon="-3.343869" lat="54.554256"><ele>398.446503</ele><time>2021-08-12T10:24:51Z</time><extensions><speed>0.946872</speed><course>230.021591</course><hAcc>0.882986</hAcc><vAcc>0.710966</vAcc></extensions></trkpt>
      <trkpt lon="-3.343871" lat="54.554247"><ele>398.566071</ele><time>2021-08-12T10:24:52Z</time><extensions><speed>0.938787</speed><course>229.821030</course><hAcc>0.883005</hAcc><vAcc>0.711036</vAcc></extensions></trkpt>
      <trkpt lon="-3.343873" lat="54.554239"><ele>398.680573</ele><time>2021-08-12T10:24:53Z</time><extensions><speed>0.934993</speed><course>228.941864</course><hAcc>0.883026</hAcc><vAcc>0.711125</vAcc></extensions></trkpt>
      <trkpt lon="-3.343875" lat="54.554231"><ele>398.790619</ele><time>2021-08-12T10:24:54Z</time><extensions><speed>0.936282</speed><course>224.795181</course><hAcc>0.883049</hAcc><vAcc>0.711228</vAcc></extensions></trkpt>
      <trkpt lon="-3.343876" lat="54.554222"><ele>398.897034</ele><time>2021-08-12T10:24:55Z</time><extensions><speed>0.942905</speed><course>216.307693</course><hAcc>0.883074</hAcc><vAcc>0.711339</vAcc></extensions></trkpt>
      <trkpt lon="-3.343876" lat="54.554214"><ele>399.000336</ele><time>2021-08-12T10:24:56Z</time><extensions><speed>0.954635</speed><course>222.735626</course><hAcc>0.883102</hAcc><vAcc>0.711452</vAcc></extensions></trkpt>
      <trkpt lon="-3.343877" lat="54.554205"><ele>399.100281</ele><time>2021-08-12T10:24:57Z</time><extensions><speed>0.971266</speed><course>223.242310</course><hAcc>0.883132</hAcc><vAcc>0.711563</vAcc></extensions></trkpt>
      <trkpt lon="-3.343877" lat="54.554196"><ele>399.196411</ele><time>2021-08-12T10:24:58Z</time><extensions><speed>0.992525</speed><course>230.312881</course><hAcc>0.883164</hAcc><vAcc>0.711671</vAcc></extensions></trkpt>
      <trkpt lon="-3.343877" lat="54.554187"><ele>399.288361</ele><time>2021-08-12T10:24:59Z</time><extensions><speed>1.017653</speed><course>225.102798</course><hAcc>0.883200</hAcc><vAcc>0.711776</vAcc></extensions></trkpt>
      <trkpt lon="-3.343876" lat="54.554178"><ele>399.375946</ele><time>2021-08-12T10:25:00Z</time><extensions><speed>1.045009</speed><course>221.291122</course><hAcc>0.883236</hAcc><vAcc>0.711886</vAcc></extensions></trkpt>
      <trkpt lon="-3.343876" lat="54.554168"><ele>399.459351</ele><time>2021-08-12T10:25:01Z</time><extensions><speed>1.072498</speed><course>215.623337</course><hAcc>0.883274</hAcc><vAcc>0.712008</vAcc></extensions></trkpt>
      <trkpt lon="-3.343876" lat="54.554159"><ele>399.538910</ele><time>2021-08-12T10:25:02Z</time><extensions><speed>1.098441</speed><course>211.427963</course><hAcc>0.883313</hAcc><vAcc>0.712147</vAcc></extensions></trkpt>
      <trkpt lon="-3.343876" lat="54.554149"><ele>399.614471</ele><time>2021-08-12T10:25:03Z</time><extensions><speed>1.122118</speed><course>214.863312</course><hAcc>0.883349</hAcc><vAcc>0.712304</vAcc></extensions></trkpt>
      <trkpt lon="-3.343876" lat="54.554139"><ele>399.686035</ele><time>2021-08-12T10:25:04Z</time><extensions><speed>1.143362</speed><course>209.288147</course><hAcc>0.883383</hAcc><vAcc>0.712469</vAcc></extensions></trkpt>
      <trkpt lon="-3.343876" lat="54.554128"><ele>399.754333</ele><time>2021-08-12T10:25:05Z</time><extensions><speed>1.161873</speed><course>213.399612</course><hAcc>0.883411</hAcc><vAcc>0.712630</vAcc></extensions></trkpt>
      <trkpt lon="-3.343877" lat="54.554118"><ele>399.820648</ele><time>2021-08-12T10:25:06Z</time><extensions><speed>1.177193</speed><course>209.037766</course><hAcc>0.883433</hAcc><vAcc>0.712768</vAcc></extensions></trkpt>
      <trkpt lon="-3.343878" lat="54.554107"><ele>399.886627</ele><time>2021-08-12T10:25:07Z</time><extensions><speed>1.189232</speed><course>198.395279</course><hAcc>0.883446</hAcc><vAcc>0.712866</vAcc></extensions></trkpt>
      <trkpt lon="-3.343880" lat="54.554096"><ele>399.953552</ele><time>2021-08-12T10:25:08Z</time><extensions><speed>1.198308</speed><course>210.540466</course><hAcc>0.883450</hAcc><vAcc>0.712907</vAcc></extensions></trkpt>
      <trkpt lon="-3.343882" lat="54.554086"><ele>400.022095</ele><time>2021-08-12T10:25:09Z</time><extensions><speed>1.204761</speed><course>216.565186</course><hAcc>0.883441</hAcc><vAcc>0.712883</vAcc></extensions></trkpt>
      <trkpt lon="-3.343884" lat="54.554075"><ele>400.092499</ele><time>2021-08-12T10:25:10Z</time><extensions><speed>1.208931</speed><course>216.875626</course><hAcc>0.883421</hAcc><vAcc>0.712794</vAcc></extensions></trkpt>
      <trkpt lon="-3.343887" lat="54.554064"><ele>400.164520</ele><time>2021-08-12T10:25:11Z</time><extensions><speed>1.211079</speed><course>213.073944</course><hAcc>0.883388</hAcc><vAcc>0.712645</vAcc></extensions></trkpt>
      <trkpt lon="-3.343890" lat="54.554053"><ele>400.237488</ele><time>2021-08-12T10:25:12Z</time><extensions><speed>1.211237</speed><course>206.496414</course><hAcc>0.883343</hAcc><vAcc>0.712442</vAcc></extensions></trkpt>
      <trkpt lon="-3.343893" lat="54.554043"><ele>400.310791</ele><time>2021-08-12T10:25:13Z</time><extensions><speed>1.209160</speed><course>207.745499</course><hAcc>0.883288</hAcc><vAcc>0.712195</vAcc></extensions></trkpt>
      <trkpt lon="-3.343897" lat="54.554032"><ele>400.383728</ele><time>2021-08-12T10:25:14Z</time><extensions><speed>1.204712</speed><course>210.428009</course><hAcc>0.883226</hAcc><vAcc>0.711916</vAcc></extensions></trkpt>
      <trkpt lon="-3.343900" lat="54.554021"><ele>400.455688</ele><time>2021-08-12T10:25:15Z</time><extensions><speed>1.198432</speed><course>207.611023</course><hAcc>0.883158</hAcc><vAcc>0.711615</vAcc></extensions></trkpt>
      <trkpt lon="-3.343903" lat="54.554011"><ele>400.526520</ele><time>2021-08-12T10:25:16Z</time><extensions><speed>1.190951</speed><course>210.041336</course><hAcc>0.883088</hAcc><vAcc>0.711306</vAcc></extensions></trkpt>
      <trkpt lon="-3.343907" lat="54.554000"><ele>400.596710</ele><time>2021-08-12T10:25:17Z</time><extensions><speed>1.182377</speed><course>211.119202</course><hAcc>0.883019</hAcc><vAcc>0.711001</vAcc></extensions></trkpt>
      <trkpt lon="-3.343910" lat="54.553990"><ele>400.666565</ele><time>2021-08-12T10:25:18Z</time><extensions><speed>1.172629</speed><course>215.032761</course><hAcc>0.882954</hAcc><vAcc>0.710713</vAcc></extensions></trkpt>
      <trkpt lon="-3.343913" lat="54.553980"><ele>400.735901</ele><time>2021-08-12T10:25:19Z</time><extensions><speed>1.161922</speed><course>215.892059</course><hAcc>0.882896</hAcc><vAcc>0.710458</vAcc></extensions></trkpt>
      <trkpt lon="-3.343915" lat="54.553969"><ele>400.804626</ele><time>2021-08-12T10:25:20Z</time><extensions><speed>1.150985</speed><course>208.710144</course><hAcc>0.882847</hAcc><vAcc>0.710251</vAcc></extensions></trkpt>
      <trkpt lon="-3.343918" lat="54.553959"><ele>400.872955</ele><time>2021-08-12T10:25:21Z</time><extensions><speed>1.140408</speed><course>204.101471</course><hAcc>0.882812</hAcc><vAcc>0.710105</vAcc></extensions></trkpt>
      <trkpt lon="-3.343920" lat="54.553949"><ele>400.941376</ele><time>2021-08-12T10:25:22Z</time><extensions><speed>1.130294</speed><course>208.109482</course><hAcc>0.882793</hAcc><vAcc>0.710030</vAcc></extensions></trkpt>
      <trkpt lon="-3.343923" lat="54.553939"><ele>401.008545</ele><time>2021-08-12T10:25:23Z</time><extensions><speed>1.120646</speed><course>81.891060</course><hAcc>0.882756</hAcc><vAcc>0.709951</vAcc></extensions></trkpt>
      <trkpt lon="-3.343925" lat="54.553929"><ele>401.081665</ele><time>2021-08-12T10:25:24Z</time><extensions><speed>1.112894</speed><course>78.263519</course><hAcc>0.882738</hAcc><vAcc>0.709936</vAcc></extensions></trkpt>
      <trkpt lon="-3.343927" lat="54.553919"><ele>401.158417</ele><time>2021-08-12T10:25:25Z</time><extensions><speed>1.106755</speed><course>74.907532</course><hAcc>0.882732</hAcc><vAcc>0.709960</vAcc></extensions></trkpt>
      <trkpt lon="-3.343929" lat="54.553909"><ele>401.239838</ele><time>2021-08-12T10:25:26Z</time><extensions><speed>1.102862</speed><course>84.941742</course><hAcc>0.882735</hAcc><vAcc>0.710005</vAcc></extensions></trkpt>
      <trkpt lon="-3.343931" lat="54.553899"><ele>401.327087</ele><time>2021-08-12T10:25:27Z</time><extensions><speed>1.101185</speed><course>73.584358</course><hAcc>0.882745</hAcc><vAcc>0.710060</vAcc></extensions></trkpt>
      <trkpt lon="-3.343933" lat="54.553890"><ele>401.421112</ele><time>2021-08-12T10:25:28Z</time><extensions><speed>1.101398</speed><course>96.346313</course><hAcc>0.882759</hAcc><vAcc>0.710121</vAcc></extensions></trkpt>
      <trkpt lon="-3.343934" lat="54.553880"><ele>401.522491</ele><time>2021-08-12T10:25:29Z</time><extensions><speed>1.103327</speed><course>87.208282</course><hAcc>0.882777</hAcc><vAcc>0.710190</vAcc></extensions></trkpt>
      <trkpt lon="-3.343936" lat="54.553870"><ele>401.631805</ele><time>2021-08-12T10:25:30Z</time><extensions><speed>1.107162</speed><course>71.034035</course><hAcc>0.882798</hAcc><vAcc>0.710268</vAcc></extensions></trkpt>
      <trkpt lon="-3.343937" lat="54.553860"><ele>401.749939</ele><time>2021-08-12T10:25:31Z</time><extensions><speed>1.113367</speed><course>74.315559</course><hAcc>0.882820</hAcc><vAcc>0.710356</vAcc></extensions></trkpt>
      <trkpt lon="-3.343938" lat="54.553850"><ele>401.877808</ele><time>2021-08-12T10:25:32Z</time><extensions><speed>1.121846</speed><course>82.074326</course><hAcc>0.882844</hAcc><vAcc>0.710454</vAcc></extensions></trkpt>
      <trkpt lon="-3.343939" lat="54.553840"><ele>402.016052</ele><time>2021-08-12T10:25:33Z</time><extensions><speed>1.131499</speed><course>78.798851</course><hAcc>0.882870</hAcc><vAcc>0.710557</vAcc></extensions></trkpt>
      <trkpt lon="-3.343939" lat="54.553830"><ele>402.164978</ele><time>2021-08-12T10:25:34Z</time><extensions><speed>1.140717</speed><course>71.049065</course><hAcc>0.882897</hAcc><vAcc>0.710665</vAcc></extensions></trkpt>
      <trkpt lon="-3.343940" lat="54.553819"><ele>402.325134</ele><time>2021-08-12T10:25:35Z</time><extensions><speed>1.148461</speed><course>66.417450</course><hAcc>0.882924</hAcc><vAcc>0.710777</vAcc></extensions></trkpt>
      <trkpt lon="-3.343941" lat="54.553809"><ele>402.497253</ele><time>2021-08-12T10:25:36Z</time><extensions><speed>1.154171</speed><course>67.881187</course><hAcc>0.882951</hAcc><vAcc>0.710891</vAcc></extensions></trkpt>
      <trkpt lon="-3.343942" lat="54.553799"><ele>402.681702</ele><time>2021-08-12T10:25:37Z</time><extensions><speed>1.157012</speed><course>73.946594</course><hAcc>0.882978</hAcc><vAcc>0.711005</vAcc></extensions></trkpt>
      <trkpt lon="-3.343942" lat="54.553788"><ele>402.878143</ele><time>2021-08-12T10:25:38Z</time><extensions><speed>1.156447</speed><course>66.868568</course><hAcc>0.883004</hAcc><vAcc>0.711110</vAcc></extensions></trkpt>
      <trkpt lon="-3.343943" lat="54.553778"><ele>403.085297</ele><time>2021-08-12T10:25:39Z</time><extensions><speed>1.152507</speed><course>57.370388</course><hAcc>0.883029</hAcc><vAcc>0.711202</vAcc></extensions></trkpt>
      <trkpt lon="-3.343944" lat="54.553768"><ele>403.301270</ele><time>2021-08-12T10:25:40Z</time><extensions><speed>1.145468</speed><course>72.859169</course><hAcc>0.883052</hAcc><vAcc>0.711280</vAcc></extensions></trkpt>
      <trkpt lon="-3.343945" lat="54.553757"><ele>403.523865</ele><time>2021-08-12T10:25:41Z</time><extensions><speed>1.136061</speed><course>73.476959</course><hAcc>0.883071</hAcc><vAcc>0.711347</vAcc></extensions></trkpt>
      <trkpt lon="-3.343945" lat="54.553747"><ele>403.751038</ele><time>2021-08-12T10:25:42Z</time><extensions><speed>1.125035</speed><course>70.985191</course><hAcc>0.883085</hAcc><vAcc>0.711408</vAcc></extensions></trkpt>
      <trkpt lon="-3.343946" lat="54.553737"><ele>403.980988</ele><time>2021-08-12T10:25:43Z</time><extensions><speed>1.113013</speed><course>67.094063</course><hAcc>0.883094</hAcc><vAcc>0.711459</vAcc></extensions></trkpt>
      <trkpt lon="-3.343946" lat="54.553727"><ele>404.212067</ele><time>2021-08-12T10:25:44Z</time><extensions><speed>1.100585</speed><course>63.802017</course><hAcc>0.883096</hAcc><vAcc>0.711497</vAcc></extensions></trkpt>
      <trkpt lon="-3.343947" lat="54.553717"><ele>404.442993</ele><time>2021-08-12T10:25:45Z</time><extensions><speed>1.087809</speed><course>59.738853</course><hAcc>0.883091</hAcc><vAcc>0.711513</vAcc></extensions></trkpt>
      <trkpt lon="-3.343947" lat="54.553708"><ele>404.672638</ele><time>2021-08-12T10:25:46Z</time><extensions><speed>1.074080</speed><course>64.752533</course><hAcc>0.883079</hAcc><vAcc>0.711498</vAcc></extensions></trkpt>
      <trkpt lon="-3.343948" lat="54.553698"><ele>404.899750</ele><time>2021-08-12T10:25:47Z</time><extensions><speed>1.058987</speed><course>62.678837</course><hAcc>0.883062</hAcc><vAcc>0.711447</vAcc></extensions></trkpt>
      <trkpt lon="-3.343948" lat="54.553689"><ele>405.123413</ele><time>2021-08-12T10:25:48Z</time><extensions><speed>1.043132</speed><course>67.622025</course><hAcc>0.883039</hAcc><vAcc>0.711355</vAcc></extensions></trkpt>
      <trkpt lon="-3.343949" lat="54.553679"><ele>405.342865</ele><time>2021-08-12T10:25:49Z</time><extensions><speed>1.027384</speed><course>76.998230</course><hAcc>0.883015</hAcc><vAcc>0.711222</vAcc></extensions></trkpt>
      <trkpt lon="-3.343949" lat="54.553670"><ele>405.557678</ele><time>2021-08-12T10:25:50Z</time><extensions><speed>1.012268</speed><course>71.279175</course><hAcc>0.882989</hAcc><vAcc>0.711062</vAcc></extensions></trkpt>
      <trkpt lon="-3.343950" lat="54.553661"><ele>405.767944</ele><time>2021-08-12T10:25:51Z</time><extensions><speed>0.998184</speed><course>66.215858</course><hAcc>0.882966</hAcc><vAcc>0.710896</vAcc></extensions></trkpt>
      <trkpt lon="-3.343950" lat="54.553652"><ele>405.974213</ele><time>2021-08-12T10:25:52Z</time><extensions><speed>0.985365</speed><course>65.869171</course><hAcc>0.882946</hAcc><vAcc>0.710748</vAcc></extensions></trkpt>
      <trkpt lon="-3.343951" lat="54.553643"><ele>406.177399</ele><time>2021-08-12T10:25:53Z</time><extensions><speed>0.973895</speed><course>67.480362</course><hAcc>0.882932</hAcc><vAcc>0.710640</vAcc></extensions></trkpt>
      <trkpt lon="-3.343951" lat="54.553635"><ele>406.378540</ele><time>2021-08-12T10:25:54Z</time><extensions><speed>0.963874</speed><course>62.467888</course><hAcc>0.882924</hAcc><vAcc>0.710590</vAcc></extensions></trkpt>
      <trkpt lon="-3.343952" lat="54.553626"><ele>406.578705</ele><time>2021-08-12T10:25:55Z</time><extensions><speed>0.955339</speed><course>57.403885</course><hAcc>0.882923</hAcc><vAcc>0.710603</vAcc></extensions></trkpt>
      <trkpt lon="-3.343952" lat="54.553618"><ele>406.778900</ele><time>2021-08-12T10:25:56Z</time><extensions><speed>0.948007</speed><course>56.104736</course><hAcc>0.882926</hAcc><vAcc>0.710675</vAcc></extensions></trkpt>
      <trkpt lon="-3.343953" lat="54.553609"><ele>406.979828</ele><time>2021-08-12T10:25:57Z</time><extensions><speed>0.941554</speed><course>57.135769</course><hAcc>0.882933</hAcc><vAcc>0.710784</vAcc></extensions></trkpt>
      <trkpt lon="-3.343953" lat="54.553601"><ele>407.182068</ele><time>2021-08-12T10:25:58Z</time><extensions><speed>0.935388</speed><course>59.466648</course><hAcc>0.882940</hAcc><vAcc>0.710903</vAcc></extensions></trkpt>
      <trkpt lon="-3.343953" lat="54.553592"><ele>407.386322</ele><time>2021-08-12T10:25:59Z</time><extensions><speed>0.928827</speed><course>56.466339</course><hAcc>0.882944</hAcc><vAcc>0.711003</vAcc></extensions></trkpt>
      <trkpt lon="-3.343954" lat="54.553584"><ele>407.593201</ele><time>2021-08-12T10:26:00Z</time><extensions><speed>0.921825</speed><course>61.082169</course><hAcc>0.882941</hAcc><vAcc>0.711059</vAcc></extensions></trkpt>
      <trkpt lon="-3.343954" lat="54.553576"><ele>407.802917</ele><time>2021-08-12T10:26:01Z</time><extensions><speed>0.914685</speed><course>63.000797</course><hAcc>0.882928</hAcc><vAcc>0.711053</vAcc></extensions></trkpt>
      <trkpt lon="-3.343954" lat="54.553568"><ele>408.015442</ele><time>2021-08-12T10:26:02Z</time><extensions><speed>0.907728</speed><course>58.373146</course><hAcc>0.882904</hAcc><vAcc>0.710976</vAcc></extensions></trkpt>
      <trkpt lon="-3.343954" lat="54.553559"><ele>408.230835</ele><time>2021-08-12T10:26:03Z</time><extensions><speed>0.901288</speed><course>59.591164</course><hAcc>0.882866</hAcc><vAcc>0.710826</vAcc></extensions></trkpt>
      <trkpt lon="-3.343953" lat="54.553551"><ele>408.449158</ele><time>2021-08-12T10:26:04Z</time><extensions><speed>0.895771</speed><course>56.078835</course><hAcc>0.882814</hAcc><vAcc>0.710609</vAcc></extensions></trkpt>
      <trkpt lon="-3.343953" lat="54.553543"><ele>408.670288</ele><time>2021-08-12T10:26:05Z</time><extensions><speed>0.891686</speed><course>61.452141</course><hAcc>0.882749</hAcc><vAcc>0.710336</vAcc></extensions></trkpt>
      <trkpt lon="-3.343953" lat="54.553535"><ele>408.894104</ele><time>2021-08-12T10:26:06Z</time><extensions><speed>0.889394</speed><course>62.349373</course><hAcc>0.882675</hAcc><vAcc>0.710018</vAcc></extensions></trkpt>
      <trkpt lon="-3.343952" lat="54.553527"><ele>409.120392</ele><time>2021-08-12T10:26:07Z</time><extensions><speed>0.889119</speed><course>67.502327</course><hAcc>0.882594</hAcc><vAcc>0.709669</vAcc></extensions></trkpt>
      <trkpt lon="-3.343951" lat="54.553519"><ele>409.348938</ele><time>2021-08-12T10:26:08Z</time><extensions><speed>0.890513</speed><course>65.148994</course><hAcc>0.882512</hAcc><vAcc>0.709301</vAcc></extensions></trkpt>
      <trkpt lon="-3.343950" lat="54.553511"><ele>409.579102</ele><time>2021-08-12T10:26:09Z</time><extensions><speed>0.893118</speed><course>61.604351</course><hAcc>0.882434</hAcc><vAcc>0.708935</vAcc></extensions></trkpt>
      <trkpt lon="-3.343949" lat="54.553503"><ele>409.810150</ele><time>2021-08-12T10:26:10Z</time><extensions><speed>0.896664</speed><course>67.356651</course><hAcc>0.882364</hAcc><vAcc>0.708597</vAcc></extensions></trkpt>
      <trkpt lon="-3.343947" lat="54.553495"><ele>410.041473</ele><time>2021-08-12T10:26:11Z</time><extensions><speed>0.899963</speed><course>56.187717</course><hAcc>0.882305</hAcc><vAcc>0.708318</vAcc></extensions></trkpt>
      <trkpt lon="-3.343946" lat="54.553487"><ele>410.272583</ele><time>2021-08-12T10:26:12Z</time><extensions><speed>0.901486</speed><course>56.273357</course><hAcc>0.882263</hAcc><vAcc>0.708121</vAcc></extensions></trkpt>
      <trkpt lon="-3.343944" lat="54.553479"><ele>410.503235</ele><time>2021-08-12T10:26:13Z</time><extensions><speed>0.900181</speed><course>59.042984</course><hAcc>0.882237</hAcc><vAcc>0.708022</vAcc></extensions></trkpt>
      <trkpt lon="-3.343942" lat="54.553471"><ele>410.733032</ele><time>2021-08-12T10:26:14Z</time><extensions><speed>0.895136</speed><course>46.754299</course><hAcc>0.882229</hAcc><vAcc>0.708019</vAcc></extensions></trkpt>
      <trkpt lon="-3.343940" lat="54.553463"><ele>410.961517</ele><time>2021-08-12T10:26:15Z</time><extensions><speed>0.885795</speed><course>46.754295</course><hAcc>0.882239</hAcc><vAcc>0.708100</vAcc></extensions></trkpt>
      <trkpt lon="-3.343937" lat="54.553456"><ele>411.188263</ele><time>2021-08-12T10:26:16Z</time><extensions><speed>0.872499</speed><course>46.754295</course><hAcc>0.882264</hAcc><vAcc>0.708249</vAcc></extensions></trkpt>
      <trkpt lon="-3.343934" lat="54.553448"><ele>411.413269</ele><time>2021-08-12T10:26:17Z</time><extensions><speed>0.855958</speed><course>46.754295</course><hAcc>0.882301</hAcc><vAcc>0.708449</vAcc></extensions></trkpt>
      <trkpt lon="-3.343932" lat="54.553441"><ele>411.636383</ele><time>2021-08-12T10:26:18Z</time><extensions><speed>0.836498</speed><course>46.754295</course><hAcc>0.882347</hAcc><vAcc>0.708683</vAcc></extensions></trkpt>
      <trkpt lon="-3.343929" lat="54.553433"><ele>411.857269</ele><time>2021-08-12T10:26:19Z</time><extensions><speed>0.814520</speed><course>46.754295</course><hAcc>0.882396</hAcc><vAcc>0.708931</vAcc></extensions></trkpt>
      <trkpt lon="-3.343926" lat="54.553426"><ele>412.075287</ele><time>2021-08-12T10:26:20Z</time><extensions><speed>0.790650</speed><course>46.754295</course><hAcc>0.882446</hAcc><vAcc>0.709170</vAcc></extensions></trkpt>
      <trkpt lon="-3.343923" lat="54.553420"><ele>412.289276</ele><time>2021-08-12T10:26:21Z</time><extensions><speed>0.765320</speed><course>46.754292</course><hAcc>0.882491</hAcc><vAcc>0.709380</vAcc></extensions></trkpt>
      <trkpt lon="-3.343920" lat="54.553413"><ele>412.497772</ele><time>2021-08-12T10:26:22Z</time><extensions><speed>0.738710</speed><course>46.754295</course><hAcc>0.882529</hAcc><vAcc>0.709546</vAcc></extensions></trkpt>
      <trkpt lon="-3.343917" lat="54.553407"><ele>412.699402</ele><time>2021-08-12T10:26:23Z</time><extensions><speed>0.711191</speed><course>86.257805</course><hAcc>0.882557</hAcc><vAcc>0.709659</vAcc></extensions></trkpt>
      <trkpt lon="-3.343915" lat="54.553401"><ele>412.893097</ele><time>2021-08-12T10:26:24Z</time><extensions><speed>0.683645</speed><course>92.864906</course><hAcc>0.882574</hAcc><vAcc>0.709713</vAcc></extensions></trkpt>
      <trkpt lon="-3.343913" lat="54.553395"><ele>413.078125</ele><time>2021-08-12T10:26:25Z</time><extensions><speed>0.657392</speed><course>94.458534</course><hAcc>0.882578</hAcc><vAcc>0.709708</vAcc></extensions></trkpt>
      <trkpt lon="-3.343911" lat="54.553389"><ele>413.254120</ele><time>2021-08-12T10:26:26Z</time><extensions><speed>0.633931</speed><course>89.165138</course><hAcc>0.882570</hAcc><vAcc>0.709648</vAcc></extensions></trkpt>
      <trkpt lon="-3.343910" lat="54.553383"><ele>413.420990</ele><time>2021-08-12T10:26:27Z</time><extensions><speed>0.614592</speed><course>98.187202</course><hAcc>0.882551</hAcc><vAcc>0.709540</vAcc></extensions></trkpt>
      <trkpt lon="-3.343910" lat="54.553378"><ele>413.578918</ele><time>2021-08-12T10:26:28Z</time><extensions><speed>0.599872</speed><course>262.094696</course><hAcc>0.882520</hAcc><vAcc>0.709395</vAcc></extensions></trkpt>
      <trkpt lon="-3.343910" lat="54.553373"><ele>413.728424</ele><time>2021-08-12T10:26:29Z</time><extensions><speed>0.589441</speed><course>273.339569</course><hAcc>0.882480</hAcc><vAcc>0.709224</vAcc></extensions></trkpt>
      <trkpt lon="-3.343910" lat="54.553367"><ele>413.870667</ele><time>2021-08-12T10:26:30Z</time><extensions><speed>0.583092</speed><course>270.133057</course><hAcc>0.882431</hAcc><vAcc>0.709037</vAcc></extensions></trkpt>
      <trkpt lon="-3.343911" lat="54.553362"><ele>414.006958</ele><time>2021-08-12T10:26:31Z</time><extensions><speed>0.580552</speed><course>264.401459</course><hAcc>0.882374</hAcc><vAcc>0.708834</vAcc></extensions></trkpt>
      <trkpt lon="-3.343913" lat="54.553357"><ele>414.138824</ele><time>2021-08-12T10:26:32Z</time><extensions><speed>0.581162</speed><course>271.206299</course><hAcc>0.882309</hAcc><vAcc>0.708612</vAcc></extensions></trkpt>
      <trkpt lon="-3.343915" lat="54.553352"><ele>414.267639</ele><time>2021-08-12T10:26:33Z</time><extensions><speed>0.583936</speed><course>270.479279</course><hAcc>0.882236</hAcc><vAcc>0.708366</vAcc></extensions></trkpt>
      <trkpt lon="-3.343918" lat="54.553347"><ele>414.394562</ele><time>2021-08-12T10:26:34Z</time><extensions><speed>0.587891</speed><course>270.479279</course><hAcc>0.882156</hAcc><vAcc>0.708090</vAcc></extensions></trkpt>
      <trkpt lon="-3.343921" lat="54.553342"><ele>414.520691</ele><time>2021-08-12T10:26:35Z</time><extensions><speed>0.592162</speed><course>270.479279</course><hAcc>0.882067</hAcc><vAcc>0.707780</vAcc></extensions></trkpt>
      <trkpt lon="-3.343924" lat="54.553337"><ele>414.647278</ele><time>2021-08-12T10:26:36Z</time><extensions><speed>0.595743</speed><course>92.836548</course><hAcc>0.881970</hAcc><vAcc>0.707435</vAcc></extensions></trkpt>
      <trkpt lon="-3.343928" lat="54.553332"><ele>414.775360</ele><time>2021-08-12T10:26:37Z</time><extensions><speed>0.598334</speed><course>91.847809</course><hAcc>0.881863</hAcc><vAcc>0.707056</vAcc></extensions></trkpt>
      <trkpt lon="-3.343931" lat="54.553327"><ele>414.905792</ele><time>2021-08-12T10:26:38Z</time><extensions><speed>0.599791</speed><course>96.972961</course><hAcc>0.881745</hAcc><vAcc>0.706642</vAcc></extensions></trkpt>
      <trkpt lon="-3.343935" lat="54.553322"><ele>415.039246</ele><time>2021-08-12T10:26:39Z</time><extensions><speed>0.599336</speed><course>101.432434</course><hAcc>0.881617</hAcc><vAcc>0.706192</vAcc></extensions></trkpt>
      <trkpt lon="-3.343940" lat="54.553318"><ele>415.176422</ele><time>2021-08-12T10:26:40Z</time><extensions><speed>0.596098</speed><course>89.921867</course><hAcc>0.881479</hAcc><vAcc>0.705700</vAcc></extensions></trkpt>
      <trkpt lon="-3.343944" lat="54.553313"><ele>415.317566</ele><time>2021-08-12T10:26:41Z</time><extensions><speed>0.589652</speed><course>79.468422</course><hAcc>0.881331</hAcc><vAcc>0.705167</vAcc></extensions></trkpt>
      <trkpt lon="-3.343948" lat="54.553308"><ele>415.462402</ele><time>2021-08-12T10:26:42Z</time><extensions><speed>0.580448</speed><course>79.668663</course><hAcc>0.881175</hAcc><vAcc>0.704595</vAcc></extensions></trkpt>
      <trkpt lon="-3.343951" lat="54.553303"><ele>415.610931</ele><time>2021-08-12T10:26:43Z</time><extensions><speed>0.569388</speed><course>70.198914</course><hAcc>0.881014</hAcc><vAcc>0.703986</vAcc></extensions></trkpt>
      <trkpt lon="-3.343955" lat="54.553299"><ele>415.763580</ele><time>2021-08-12T10:26:44Z</time><extensions><speed>0.557501</speed><course>85.811096</course><hAcc>0.880850</hAcc><vAcc>0.703350</vAcc></extensions></trkpt>
      <trkpt lon="-3.343958" lat="54.553294"><ele>415.920624</ele><time>2021-08-12T10:26:45Z</time><extensions><speed>0.545925</speed><course>87.515213</course><hAcc>0.880688</hAcc><vAcc>0.702703</vAcc></extensions></trkpt>
      <trkpt lon="-3.343962" lat="54.553290"><ele>416.081604</ele><time>2021-08-12T10:26:46Z</time><extensions><speed>0.535627</speed><course>86.802406</course><hAcc>0.880531</hAcc><vAcc>0.702068</vAcc></extensions></trkpt>
      <trkpt lon="-3.343964" lat="54.553285"><ele>416.245270</ele><time>2021-08-12T10:26:47Z</time><extensions><speed>0.526742</speed><course>85.424927</course><hAcc>0.880385</hAcc><vAcc>0.701474</vAcc></extensions></trkpt>
      <trkpt lon="-3.343967" lat="54.553281"><ele>416.410126</ele><time>2021-08-12T10:26:48Z</time><extensions><speed>0.519279</speed><course>88.911957</course><hAcc>0.880253</hAcc><vAcc>0.700946</vAcc></extensions></trkpt>
      <trkpt lon="-3.343969" lat="54.553276"><ele>416.574768</ele><time>2021-08-12T10:26:49Z</time><extensions><speed>0.513453</speed><course>93.027184</course><hAcc>0.880139</hAcc><vAcc>0.700499</vAcc></extensions></trkpt>
      <trkpt lon="-3.343971" lat="54.553272"><ele>416.738251</ele><time>2021-08-12T10:26:50Z</time><extensions><speed>0.509124</speed><course>90.763535</course><hAcc>0.880047</hAcc><vAcc>0.700141</vAcc></extensions></trkpt>
      <trkpt lon="-3.343973" lat="54.553267"><ele>416.900177</ele><time>2021-08-12T10:26:51Z</time><extensions><speed>0.506609</speed><course>83.392509</course><hAcc>0.879979</hAcc><vAcc>0.699877</vAcc></extensions></trkpt>
      <trkpt lon="-3.343974" lat="54.553263"><ele>417.060852</ele><time>2021-08-12T10:26:52Z</time><extensions><speed>0.506677</speed><course>57.334152</course><hAcc>0.879934</hAcc><vAcc>0.699715</vAcc></extensions></trkpt>
      <trkpt lon="-3.343976" lat="54.553258"><ele>417.220825</ele><time>2021-08-12T10:26:53Z</time><extensions><speed>0.509636</speed><course>29.254333</course><hAcc>0.879913</hAcc><vAcc>0.699656</vAcc></extensions></trkpt>
      <trkpt lon="-3.343977" lat="54.553254"><ele>417.380981</ele><time>2021-08-12T10:26:54Z</time><extensions><speed>0.515329</speed><course>29.254333</course><hAcc>0.879915</hAcc><vAcc>0.699695</vAcc></extensions></trkpt>
      <trkpt lon="-3.343979" lat="54.553249"><ele>417.542664</ele><time>2021-08-12T10:26:55Z</time><extensions><speed>0.523228</speed><course>29.254333</course><hAcc>0.879936</hAcc><vAcc>0.699824</vAcc></extensions></trkpt>
      <trkpt lon="-3.343980" lat="54.553245"><ele>417.706879</ele><time>2021-08-12T10:26:56Z</time><extensions><speed>0.532472</speed><course>29.254332</course><hAcc>0.879972</hAcc><vAcc>0.700024</vAcc></extensions></trkpt>
      <trkpt lon="-3.343982" lat="54.553240"><ele>417.874054</ele><time>2021-08-12T10:26:57Z</time><extensions><speed>0.542144</speed><course>29.254333</course><hAcc>0.880021</hAcc><vAcc>0.700271</vAcc></extensions></trkpt>
      <trkpt lon="-3.343983" lat="54.553235"><ele>418.043793</ele><time>2021-08-12T10:26:58Z</time><extensions><speed>0.551573</speed><course>29.254332</course><hAcc>0.880076</hAcc><vAcc>0.700536</vAcc></extensions></trkpt>
      <trkpt lon="-3.343985" lat="54.553230"><ele>418.215515</ele><time>2021-08-12T10:26:59Z</time><extensions><speed>0.560501</speed><course>29.254332</course><hAcc>0.880135</hAcc><vAcc>0.700795</vAcc></extensions></trkpt>
      <trkpt lon="-3.343987" lat="54.553225"><ele>418.388611</ele><time>2021-08-12T10:27:00Z</time><extensions><speed>0.568778</speed><course>29.254333</course><hAcc>0.880194</hAcc><vAcc>0.701030</vAcc></extensions></trkpt>
      <trkpt lon="-3.343990" lat="54.553220"><ele>418.562378</ele><time>2021-08-12T10:27:01Z</time><extensions><speed>0.576338</speed><course>29.254333</course><hAcc>0.880251</hAcc><vAcc>0.701231</vAcc></extensions></trkpt>
      <trkpt lon="-3.343992" lat="54.553215"><ele>418.735870</ele><time>2021-08-12T10:27:02Z</time><extensions><speed>0.583158</speed><course>29.254332</course><hAcc>0.880304</hAcc><vAcc>0.701397</vAcc></extensions></trkpt>
      <trkpt lon="-3.343995" lat="54.553210"><ele>418.908356</ele><time>2021-08-12T10:27:03Z</time><extensions><speed>0.588548</speed><course>29.254333</course><hAcc>0.880353</hAcc><vAcc>0.701538</vAcc></extensions></trkpt>
      <trkpt lon="-3.343998" lat="54.553205"><ele>419.079346</ele><time>2021-08-12T10:27:04Z</time><extensions><speed>0.591572</speed><course>29.254337</course><hAcc>0.880399</hAcc><vAcc>0.701666</vAcc></extensions></trkpt>
      <trkpt lon="-3.344000" lat="54.553200"><ele>419.248657</ele><time>2021-08-12T10:27:05Z</time><extensions><speed>0.591876</speed><course>29.254337</course><hAcc>0.880443</hAcc><vAcc>0.701794</vAcc></extensions></trkpt>
      <trkpt lon="-3.344003" lat="54.553195"><ele>419.416473</ele><time>2021-08-12T10:27:06Z</time><extensions><speed>0.589932</speed><course>29.254339</course><hAcc>0.880484</hAcc><vAcc>0.701930</vAcc></extensions></trkpt>
      <trkpt lon="-3.344005" lat="54.553190"><ele>419.583679</ele><time>2021-08-12T10:27:07Z</time><extensions><speed>0.586305</speed><course>29.254337</course><hAcc>0.880525</hAcc><vAcc>0.702073</vAcc></extensions></trkpt>
      <trkpt lon="-3.344007" lat="54.553185"><ele>419.751587</ele><time>2021-08-12T10:27:08Z</time><extensions><speed>0.581050</speed><course>29.254339</course><hAcc>0.880564</hAcc><vAcc>0.702222</vAcc></extensions></trkpt>
      <trkpt lon="-3.344008" lat="54.553180"><ele>419.921539</ele><time>2021-08-12T10:27:09Z</time><extensions><speed>0.574489</speed><course>353.139893</course><hAcc>0.880602</hAcc><vAcc>0.702376</vAcc></extensions></trkpt>
      <trkpt lon="-3.344009" lat="54.553175"><ele>420.094482</ele><time>2021-08-12T10:27:10Z</time><extensions><speed>0.567322</speed><course>-1.000000</course><hAcc>0.880637</hAcc><vAcc>0.702534</vAcc></extensions></trkpt>
      <trkpt lon="-3.344009" lat="54.553170"><ele>420.271332</ele><time>2021-08-12T10:27:11Z</time><extensions><speed>0.560404</speed><course>-1.000000</course><hAcc>0.880668</hAcc><vAcc>0.702687</vAcc></extensions></trkpt>
      <trkpt lon="-3.344009" lat="54.553165"><ele>420.452850</ele><time>2021-08-12T10:27:12Z</time><extensions><speed>0.554868</speed><course>-1.000000</course><hAcc>0.880693</hAcc><vAcc>0.702822</vAcc></extensions></trkpt>
      <trkpt lon="-3.344007" lat="54.553160"><ele>420.639465</ele><time>2021-08-12T10:27:13Z</time><extensions><speed>0.552011</speed><course>-1.000000</course><hAcc>0.880710</hAcc><vAcc>0.702925</vAcc></extensions></trkpt>
      <trkpt lon="-3.344005" lat="54.553155"><ele>420.831360</ele><time>2021-08-12T10:27:14Z</time><extensions><speed>0.552881</speed><course>-1.000000</course><hAcc>0.880719</hAcc><vAcc>0.702980</vAcc></extensions></trkpt>
      <trkpt lon="-3.344003" lat="54.553150"><ele>421.028442</ele><time>2021-08-12T10:27:15Z</time><extensions><speed>0.558285</speed><course>-1.000000</course><hAcc>0.880718</hAcc><vAcc>0.702981</vAcc></extensions></trkpt>
      <trkpt lon="-3.343999" lat="54.553145"><ele>421.230133</ele><time>2021-08-12T10:27:16Z</time><extensions><speed>0.568336</speed><course>-1.000000</course><hAcc>0.880709</hAcc><vAcc>0.702926</vAcc></extensions></trkpt>
      <trkpt lon="-3.343995" lat="54.553141"><ele>421.436035</ele><time>2021-08-12T10:27:17Z</time><extensions><speed>0.582326</speed><course>-1.000000</course><hAcc>0.880691</hAcc><vAcc>0.702822</vAcc></extensions></trkpt>
      <trkpt lon="-3.343991" lat="54.553136"><ele>421.646118</ele><time>2021-08-12T10:27:18Z</time><extensions><speed>0.599021</speed><course>-1.000000</course><hAcc>0.880667</hAcc><vAcc>0.702681</vAcc></extensions></trkpt>
      <trkpt lon="-3.343986" lat="54.553132"><ele>421.860229</ele><time>2021-08-12T10:27:19Z</time><extensions><speed>0.616123</speed><course>-1.000000</course><hAcc>0.880638</hAcc><vAcc>0.702520</vAcc></extensions></trkpt>
      <trkpt lon="-3.343980" lat="54.553127"><ele>422.077942</ele><time>2021-08-12T10:27:20Z</time><extensions><speed>0.630760</speed><course>-1.000000</course><hAcc>0.880606</hAcc><vAcc>0.702360</vAcc></extensions></trkpt>
      <trkpt lon="-3.343974" lat="54.553122"><ele>422.298462</ele><time>2021-08-12T10:27:21Z</time><extensions><speed>0.641320</speed><course>74.830536</course><hAcc>0.880573</hAcc><vAcc>0.702215</vAcc></extensions></trkpt>
      <trkpt lon="-3.343968" lat="54.553118"><ele>422.521088</ele><time>2021-08-12T10:27:22Z</time><extensions><speed>0.647558</speed><course>62.161198</course><hAcc>0.880539</hAcc><vAcc>0.702094</vAcc></extensions></trkpt>
      <trkpt lon="-3.343963" lat="54.553113"><ele>422.745392</ele><time>2021-08-12T10:27:23Z</time><extensions><speed>0.649457</speed><course>66.043793</course><hAcc>0.880505</hAcc><vAcc>0.701997</vAcc></extensions></trkpt>
      <trkpt lon="-3.343957" lat="54.553108"><ele>422.971130</ele><time>2021-08-12T10:27:24Z</time><extensions><speed>0.647174</speed><course>75.803009</course><hAcc>0.880470</hAcc><vAcc>0.701915</vAcc></extensions></trkpt>
      <trkpt lon="-3.343951" lat="54.553103"><ele>423.198090</ele><time>2021-08-12T10:27:25Z</time><extensions><speed>0.641585</speed><course>76.191063</course><hAcc>0.880431</hAcc><vAcc>0.701829</vAcc></extensions></trkpt>
      <trkpt lon="-3.343946" lat="54.553099"><ele>423.425903</ele><time>2021-08-12T10:27:26Z</time><extensions><speed>0.633834</speed><course>76.349960</course><hAcc>0.880388</hAcc><vAcc>0.701719</vAcc></extensions></trkpt>
      <trkpt lon="-3.343941" lat="54.553094"><ele>423.654266</ele><time>2021-08-12T10:27:27Z</time><extensions><speed>0.624294</speed><course>78.477806</course><hAcc>0.880337</hAcc><vAcc>0.701568</vAcc></extensions></trkpt>
      <trkpt lon="-3.343937" lat="54.553089"><ele>423.883026</ele><time>2021-08-12T10:27:28Z</time><extensions><speed>0.613409</speed><course>75.070290</course><hAcc>0.880277</hAcc><vAcc>0.701368</vAcc></extensions></trkpt>
      <trkpt lon="-3.343932" lat="54.553084"><ele>424.112183</ele><time>2021-08-12T10:27:29Z</time><extensions><speed>0.602003</speed><course>69.086029</course><hAcc>0.880207</hAcc><vAcc>0.701118</vAcc></extensions></trkpt>
      <trkpt lon="-3.343929" lat="54.553079"><ele>424.341705</ele><time>2021-08-12T10:27:30Z</time><extensions><speed>0.590314</speed><course>68.949226</course><hAcc>0.880125</hAcc><vAcc>0.700819</vAcc></extensions></trkpt>
      <trkpt lon="-3.343925" lat="54.553074"><ele>424.571655</ele><time>2021-08-12T10:27:31Z</time><extensions><speed>0.578748</speed><course>71.686111</course><hAcc>0.880032</hAcc><vAcc>0.700472</vAcc></extensions></trkpt>
      <trkpt lon="-3.343922" lat="54.553069"><ele>424.801758</ele><time>2021-08-12T10:27:32Z</time><extensions><speed>0.568527</speed><course>76.597496</course><hAcc>0.879929</hAcc><vAcc>0.700081</vAcc></extensions></trkpt>
      <trkpt lon="-3.343919" lat="54.553065"><ele>425.031616</ele><time>2021-08-12T10:27:33Z</time><extensions><speed>0.560414</speed><course>90.005066</course><hAcc>0.879816</hAcc><vAcc>0.699652</vAcc></extensions></trkpt>
      <trkpt lon="-3.343917" lat="54.553060"><ele>425.260803</ele><time>2021-08-12T10:27:34Z</time><extensions><speed>0.554127</speed><course>83.948074</course><hAcc>0.879695</hAcc><vAcc>0.699188</vAcc></extensions></trkpt>
      <trkpt lon="-3.343915" lat="54.553055"><ele>425.488922</ele><time>2021-08-12T10:27:35Z</time><extensions><speed>0.549232</speed><course>76.996796</course><hAcc>0.879570</hAcc><vAcc>0.698702</vAcc></extensions></trkpt>
      <trkpt lon="-3.343913" lat="54.553050"><ele>425.715485</ele><time>2021-08-12T10:27:36Z</time><extensions><speed>0.545260</speed><course>79.507355</course><hAcc>0.879444</hAcc><vAcc>0.698211</vAcc></extensions></trkpt>
      <trkpt lon="-3.343912" lat="54.553045"><ele>425.939941</ele><time>2021-08-12T10:27:37Z</time><extensions><speed>0.541289</speed><course>72.096832</course><hAcc>0.879318</hAcc><vAcc>0.697733</vAcc></extensions></trkpt>
      <trkpt lon="-3.343911" lat="54.553041"><ele>426.161835</ele><time>2021-08-12T10:27:38Z</time><extensions><speed>0.536188</speed><course>80.368279</course><hAcc>0.879198</hAcc><vAcc>0.697279</vAcc></extensions></trkpt>
      <trkpt lon="-3.343910" lat="54.553036"><ele>426.380951</ele><time>2021-08-12T10:27:39Z</time><extensions><speed>0.529520</speed><course>78.982643</course><hAcc>0.879084</hAcc><vAcc>0.696854</vAcc></extensions></trkpt>
      <trkpt lon="-3.343908" lat="54.553031"><ele>426.597382</ele><time>2021-08-12T10:27:40Z</time><extensions><speed>0.522004</speed><course>81.075706</course><hAcc>0.878981</hAcc><vAcc>0.696460</vAcc></extensions></trkpt>
      <trkpt lon="-3.343907" lat="54.553027"><ele>426.811646</ele><time>2021-08-12T10:27:41Z</time><extensions><speed>0.514625</speed><course>81.007790</course><hAcc>0.878891</hAcc><vAcc>0.696105</vAcc></extensions></trkpt>
      <trkpt lon="-3.343905" lat="54.553022"><ele>427.024231</ele><time>2021-08-12T10:27:42Z</time><extensions><speed>0.508129</speed><course>78.272133</course><hAcc>0.878817</hAcc><vAcc>0.695802</vAcc></extensions></trkpt>
      <trkpt lon="-3.343902" lat="54.553018"><ele>427.235413</ele><time>2021-08-12T10:27:43Z</time><extensions><speed>0.503297</speed><course>73.069588</course><hAcc>0.878762</hAcc><vAcc>0.695571</vAcc></extensions></trkpt>
      <trkpt lon="-3.343899" lat="54.553014"><ele>427.445099</ele><time>2021-08-12T10:27:44Z</time><extensions><speed>0.500938</speed><course>77.189682</course><hAcc>0.878729</hAcc><vAcc>0.695430</vAcc></extensions></trkpt>
      <trkpt lon="-3.343896" lat="54.553010"><ele>427.652954</ele><time>2021-08-12T10:27:45Z</time><extensions><speed>0.501446</speed><course>75.197517</course><hAcc>0.878719</hAcc><vAcc>0.695389</vAcc></extensions></trkpt>
      <trkpt lon="-3.343892" lat="54.553006"><ele>427.858765</ele><time>2021-08-12T10:27:46Z</time><extensions><speed>0.504507</speed><course>67.733307</course><hAcc>0.878732</hAcc><vAcc>0.695444</vAcc></extensions></trkpt>
      <trkpt lon="-3.343887" lat="54.553002"><ele>428.062317</ele><time>2021-08-12T10:27:47Z</time><extensions><speed>0.509308</speed><course>69.123688</course><hAcc>0.878767</hAcc><vAcc>0.695586</vAcc></extensions></trkpt>
      <trkpt lon="-3.343882" lat="54.552998"><ele>428.263184</ele><time>2021-08-12T10:27:48Z</time><extensions><speed>0.514390</speed><course>71.299400</course><hAcc>0.878822</hAcc><vAcc>0.695805</vAcc></extensions></trkpt>
      <trkpt lon="-3.343877" lat="54.552995"><ele>428.460693</ele><time>2021-08-12T10:27:49Z</time><extensions><speed>0.518660</speed><course>77.479210</course><hAcc>0.878895</hAcc><vAcc>0.696091</vAcc></extensions></trkpt>
      <trkpt lon="-3.343872" lat="54.552992"><ele>428.654236</ele><time>2021-08-12T10:27:50Z</time><extensions><speed>0.522369</speed><course>68.623329</course><hAcc>0.878982</hAcc><vAcc>0.696434</vAcc></extensions></trkpt>
      <trkpt lon="-3.343866" lat="54.552988"><ele>428.843445</ele><time>2021-08-12T10:27:51Z</time><extensions><speed>0.525651</speed><course>63.866425</course><hAcc>0.879080</hAcc><vAcc>0.696827</vAcc></extensions></trkpt>
      <trkpt lon="-3.343860" lat="54.552985"><ele>429.028381</ele><time>2021-08-12T10:27:52Z</time><extensions><speed>0.528022</speed><course>76.291603</course><hAcc>0.879183</hAcc><vAcc>0.697256</vAcc></extensions></trkpt>
      <trkpt lon="-3.343854" lat="54.552982"><ele>429.209351</ele><time>2021-08-12T10:27:53Z</time><extensions><speed>0.529230</speed><course>71.777351</course><hAcc>0.879287</hAcc><vAcc>0.697701</vAcc></extensions></trkpt>
      <trkpt lon="-3.343848" lat="54.552978"><ele>429.386719</ele><time>2021-08-12T10:27:54Z</time><extensions><speed>0.529346</speed><course>76.476341</course><hAcc>0.879386</hAcc><vAcc>0.698135</vAcc></extensions></trkpt>
      <trkpt lon="-3.343842" lat="54.552975"><ele>429.560913</ele><time>2021-08-12T10:27:55Z</time><extensions><speed>0.528602</speed><course>63.346680</course><hAcc>0.879475</hAcc><vAcc>0.698529</vAcc></extensions></trkpt>
      <trkpt lon="-3.343837" lat="54.552972"><ele>429.732422</ele><time>2021-08-12T10:27:56Z</time><extensions><speed>0.527556</speed><course>60.883244</course><hAcc>0.879549</hAcc><vAcc>0.698856</vAcc></extensions></trkpt>
      <trkpt lon="-3.343831" lat="54.552968"><ele>429.901581</ele><time>2021-08-12T10:27:57Z</time><extensions><speed>0.526835</speed><course>66.100471</course><hAcc>0.879604</hAcc><vAcc>0.699093</vAcc></extensions></trkpt>
      <trkpt lon="-3.343826" lat="54.552965"><ele>430.068390</ele><time>2021-08-12T10:27:58Z</time><extensions><speed>0.526781</speed><course>66.284729</course><hAcc>0.879639</hAcc><vAcc>0.699227</vAcc></extensions></trkpt>
      <trkpt lon="-3.343820" lat="54.552961"><ele>430.232513</ele><time>2021-08-12T10:27:59Z</time><extensions><speed>0.527628</speed><course>70.183884</course><hAcc>0.879653</hAcc><vAcc>0.699261</vAcc></extensions></trkpt>
      <trkpt lon="-3.343815" lat="54.552958"><ele>430.393280</ele><time>2021-08-12T10:28:00Z</time><extensions><speed>0.529357</speed><course>69.091454</course><hAcc>0.879648</hAcc><vAcc>0.699202</vAcc></extensions></trkpt>
      <trkpt lon="-3.343810" lat="54.552954"><ele>430.549988</ele><time>2021-08-12T10:28:01Z</time><extensions><speed>0.531656</speed><course>67.595528</course><hAcc>0.879627</hAcc><vAcc>0.699062</vAcc></extensions></trkpt>
      <trkpt lon="-3.343805" lat="54.552950"><ele>430.702271</ele><time>2021-08-12T10:28:02Z</time><extensions><speed>0.534068</speed><course>69.079941</course><hAcc>0.879594</hAcc><vAcc>0.698860</vAcc></extensions></trkpt>
      <trkpt lon="-3.343801" lat="54.552946"><ele>430.850037</ele><time>2021-08-12T10:28:03Z</time><extensions><speed>0.536172</speed><course>67.638985</course><hAcc>0.879555</hAcc><vAcc>0.698626</vAcc></extensions></trkpt>
      <trkpt lon="-3.343796" lat="54.552942"><ele>430.994049</ele><time>2021-08-12T10:28:04Z</time><extensions><speed>0.537471</speed><course>67.902077</course><hAcc>0.879516</hAcc><vAcc>0.698393</vAcc></extensions></trkpt>
      <trkpt lon="-3.343792" lat="54.552938"><ele>431.135406</ele><time>2021-08-12T10:28:05Z</time><extensions><speed>0.537479</speed><course>68.213737</course><hAcc>0.879481</hAcc><vAcc>0.698195</vAcc></extensions></trkpt>
      <trkpt lon="-3.343788" lat="54.552934"><ele>431.275543</ele><time>2021-08-12T10:28:06Z</time><extensions><speed>0.536353</speed><course>58.646133</course><hAcc>0.879454</hAcc><vAcc>0.698056</vAcc></extensions></trkpt>
      <trkpt lon="-3.343784" lat="54.552929"><ele>431.416077</ele><time>2021-08-12T10:28:07Z</time><extensions><speed>0.533957</speed><course>60.787758</course><hAcc>0.879437</hAcc><vAcc>0.697991</vAcc></extensions></trkpt>
      <trkpt lon="-3.343781" lat="54.552925"><ele>431.558685</ele><time>2021-08-12T10:28:08Z</time><extensions><speed>0.529916</speed><course>59.107254</course><hAcc>0.879432</hAcc><vAcc>0.698001</vAcc></extensions></trkpt>
      <trkpt lon="-3.343778" lat="54.552920"><ele>431.704926</ele><time>2021-08-12T10:28:09Z</time><extensions><speed>0.524745</speed><course>59.308796</course><hAcc>0.879436</hAcc><vAcc>0.698074</vAcc></extensions></trkpt>
      <trkpt lon="-3.343775" lat="54.552916"><ele>431.855774</ele><time>2021-08-12T10:28:10Z</time><extensions><speed>0.519187</speed><course>63.536522</course><hAcc>0.879447</hAcc><vAcc>0.698190</vAcc></extensions></trkpt>
      <trkpt lon="-3.343773" lat="54.552912"><ele>432.012146</ele><time>2021-08-12T10:28:11Z</time><extensions><speed>0.513684</speed><course>64.110619</course><hAcc>0.879461</hAcc><vAcc>0.698320</vAcc></extensions></trkpt>
      <trkpt lon="-3.343772" lat="54.552907"><ele>432.175079</ele><time>2021-08-12T10:28:12Z</time><extensions><speed>0.508484</speed><course>57.783936</course><hAcc>0.879472</hAcc><vAcc>0.698436</vAcc></extensions></trkpt>
      <trkpt lon="-3.343770" lat="54.552903"><ele>432.345428</ele><time>2021-08-12T10:28:13Z</time><extensions><speed>0.503319</speed><course>62.673740</course><hAcc>0.879476</hAcc><vAcc>0.698510</vAcc></extensions></trkpt>
      <trkpt lon="-3.343769" lat="54.552898"><ele>432.523621</ele><time>2021-08-12T10:28:14Z</time><extensions><speed>0.497952</speed><course>68.268181</course><hAcc>0.879470</hAcc><vAcc>0.698522</vAcc></extensions></trkpt>
      <trkpt lon="-3.343768" lat="54.552894"><ele>432.709808</ele><time>2021-08-12T10:28:15Z</time><extensions><speed>0.492383</speed><course>59.735432</course><hAcc>0.879451</hAcc><vAcc>0.698459</vAcc></extensions></trkpt>
      <trkpt lon="-3.343768" lat="54.552889"><ele>432.903900</ele><time>2021-08-12T10:28:16Z</time><extensions><speed>0.486502</speed><course>59.192490</course><hAcc>0.879417</hAcc><vAcc>0.698318</vAcc></extensions></trkpt>
      <trkpt lon="-3.343767" lat="54.552885"><ele>433.105164</ele><time>2021-08-12T10:28:17Z</time><extensions><speed>0.480297</speed><course>60.825825</course><hAcc>0.879367</hAcc><vAcc>0.698106</vAcc></extensions></trkpt>
      <trkpt lon="-3.343767" lat="54.552881"><ele>433.312714</ele><time>2021-08-12T10:28:18Z</time><extensions><speed>0.473849</speed><course>62.921200</course><hAcc>0.879303</hAcc><vAcc>0.697837</vAcc></extensions></trkpt>
      <trkpt lon="-3.343767" lat="54.552876"><ele>433.525360</ele><time>2021-08-12T10:28:19Z</time><extensions><speed>0.467281</speed><course>59.145714</course><hAcc>0.879227</hAcc><vAcc>0.697527</vAcc></extensions></trkpt>
      <trkpt lon="-3.343767" lat="54.552872"><ele>433.742065</ele><time>2021-08-12T10:28:20Z</time><extensions><speed>0.460866</speed><course>54.852036</course><hAcc>0.879140</hAcc><vAcc>0.697187</vAcc></extensions></trkpt>
      <trkpt lon="-3.343768" lat="54.552868"><ele>433.962158</ele><time>2021-08-12T10:28:21Z</time><extensions><speed>0.455086</speed><course>52.958679</course><hAcc>0.879046</hAcc><vAcc>0.696824</vAcc></extensions></trkpt>
      <trkpt lon="-3.343769" lat="54.552864"><ele>434.184906</ele><time>2021-08-12T10:28:22Z</time><extensions><speed>0.450048</speed><course>51.642593</course><hAcc>0.878947</hAcc><vAcc>0.696442</vAcc></extensions></trkpt>
      <trkpt lon="-3.343770" lat="54.552860"><ele>434.409515</ele><time>2021-08-12T10:28:23Z</time><extensions><speed>0.445475</speed><course>50.915668</course><hAcc>0.878847</hAcc><vAcc>0.696052</vAcc></extensions></trkpt>
      <trkpt lon="-3.343771" lat="54.552856"><ele>434.635223</ele><time>2021-08-12T10:28:24Z</time><extensions><speed>0.441082</speed><course>43.517220</course><hAcc>0.878747</hAcc><vAcc>0.695670</vAcc></extensions></trkpt>
      <trkpt lon="-3.343772" lat="54.552852"><ele>434.861267</ele><time>2021-08-12T10:28:25Z</time><extensions><speed>0.437053</speed><course>53.213661</course><hAcc>0.878652</hAcc><vAcc>0.695312</vAcc></extensions></trkpt>
      <trkpt lon="-3.343774" lat="54.552849"><ele>435.087036</ele><time>2021-08-12T10:28:26Z</time><extensions><speed>0.433870</speed><course>42.672325</course><hAcc>0.878564</hAcc><vAcc>0.694992</vAcc></extensions></trkpt>
      <trkpt lon="-3.343776" lat="54.552845"><ele>435.312195</ele><time>2021-08-12T10:28:27Z</time><extensions><speed>0.432137</speed><course>57.842590</course><hAcc>0.878484</hAcc><vAcc>0.694710</vAcc></extensions></trkpt>
      <trkpt lon="-3.343777" lat="54.552841"><ele>435.536469</ele><time>2021-08-12T10:28:28Z</time><extensions><speed>0.432197</speed><course>54.432369</course><hAcc>0.878414</hAcc><vAcc>0.694458</vAcc></extensions></trkpt>
      <trkpt lon="-3.343780" lat="54.552837"><ele>435.759766</ele><time>2021-08-12T10:28:29Z</time><extensions><speed>0.433651</speed><course>53.099045</course><hAcc>0.878356</hAcc><vAcc>0.694233</vAcc></extensions></trkpt>
      <trkpt lon="-3.343782" lat="54.552834"><ele>435.981873</ele><time>2021-08-12T10:28:30Z</time><extensions><speed>0.435959</speed><course>52.709480</course><hAcc>0.878311</hAcc><vAcc>0.694039</vAcc></extensions></trkpt>
      <trkpt lon="-3.343784" lat="54.552830"><ele>436.202423</ele><time>2021-08-12T10:28:31Z</time><extensions><speed>0.438485</speed><course>55.566643</course><hAcc>0.878281</hAcc><vAcc>0.693887</vAcc></extensions></trkpt>
      <trkpt lon="-3.343786" lat="54.552826"><ele>436.420715</ele><time>2021-08-12T10:28:32Z</time><extensions><speed>0.441174</speed><course>50.999676</course><hAcc>0.878266</hAcc><vAcc>0.693800</vAcc></extensions></trkpt>
      <trkpt lon="-3.343789" lat="54.552823"><ele>436.635651</ele><time>2021-08-12T10:28:33Z</time><extensions><speed>0.444448</speed><course>49.932701</course><hAcc>0.878268</hAcc><vAcc>0.693799</vAcc></extensions></trkpt>
      <trkpt lon="-3.343791" lat="54.552819"><ele>436.845886</ele><time>2021-08-12T10:28:34Z</time><extensions><speed>0.448383</speed><course>44.103298</course><hAcc>0.878285</hAcc><vAcc>0.693892</vAcc></extensions></trkpt>
      <trkpt lon="-3.343793" lat="54.552815"><ele>437.050110</ele><time>2021-08-12T10:28:35Z</time><extensions><speed>0.452609</speed><course>35.959499</course><hAcc>0.878314</hAcc><vAcc>0.694066</vAcc></extensions></trkpt>
      <trkpt lon="-3.343796" lat="54.552811"><ele>437.247803</ele><time>2021-08-12T10:28:36Z</time><extensions><speed>0.456713</speed><course>30.952709</course><hAcc>0.878349</hAcc><vAcc>0.694288</vAcc></extensions></trkpt>
      <trkpt lon="-3.343798" lat="54.552807"><ele>437.439392</ele><time>2021-08-12T10:28:37Z</time><extensions><speed>0.460633</speed><course>43.709347</course><hAcc>0.878385</hAcc><vAcc>0.694518</vAcc></extensions></trkpt>
      <trkpt lon="-3.343800" lat="54.552803"><ele>437.625946</ele><time>2021-08-12T10:28:38Z</time><extensions><speed>0.464368</speed><course>37.574459</course><hAcc>0.878416</hAcc><vAcc>0.694715</vAcc></extensions></trkpt>
      <trkpt lon="-3.343802" lat="54.552799"><ele>437.808807</ele><time>2021-08-12T10:28:39Z</time><extensions><speed>0.467997</speed><course>40.028488</course><hAcc>0.878437</hAcc><vAcc>0.694845</vAcc></extensions></trkpt>
      <trkpt lon="-3.343804" lat="54.552795"><ele>437.989532</ele><time>2021-08-12T10:28:40Z</time><extensions><speed>0.471664</speed><course>39.088745</course><hAcc>0.878446</hAcc><vAcc>0.694887</vAcc></extensions></trkpt>
      <trkpt lon="-3.343806" lat="54.552791"><ele>438.169586</ele><time>2021-08-12T10:28:41Z</time><extensions><speed>0.475640</speed><course>38.227211</course><hAcc>0.878441</hAcc><vAcc>0.694837</vAcc></extensions></trkpt>
      <trkpt lon="-3.343808" lat="54.552787"><ele>438.350159</ele><time>2021-08-12T10:28:42Z</time><extensions><speed>0.480525</speed><course>38.580025</course><hAcc>0.878424</hAcc><vAcc>0.694709</vAcc></extensions></trkpt>
      <trkpt lon="-3.343810" lat="54.552783"><ele>438.532074</ele><time>2021-08-12T10:28:43Z</time><extensions><speed>0.486645</speed><course>36.225418</course><hAcc>0.878399</hAcc><vAcc>0.694530</vAcc></extensions></trkpt>
      <trkpt lon="-3.343813" lat="54.552779"><ele>438.716095</ele><time>2021-08-12T10:28:44Z</time><extensions><speed>0.493872</speed><course>36.482189</course><hAcc>0.878370</hAcc><vAcc>0.694338</vAcc></extensions></trkpt>
      <trkpt lon="-3.343816" lat="54.552774"><ele>438.902863</ele><time>2021-08-12T10:28:45Z</time><extensions><speed>0.501900</speed><course>45.117634</course><hAcc>0.878342</hAcc><vAcc>0.694169</vAcc></extensions></trkpt>
      <trkpt lon="-3.343819" lat="54.552770"><ele>439.092773</ele><time>2021-08-12T10:28:46Z</time><extensions><speed>0.509585</speed><course>40.176819</course><hAcc>0.878321</hAcc><vAcc>0.694048</vAcc></extensions></trkpt>
      <trkpt lon="-3.343822" lat="54.552766"><ele>439.286133</ele><time>2021-08-12T10:28:47Z</time><extensions><speed>0.515503</speed><course>42.588684</course><hAcc>0.878310</hAcc><vAcc>0.693986</vAcc></extensions></trkpt>
      <trkpt lon="-3.343825" lat="54.552762"><ele>439.483673</ele><time>2021-08-12T10:28:48Z</time><extensions><speed>0.518748</speed><course>41.771687</course><hAcc>0.878312</hAcc><vAcc>0.693983</vAcc></extensions></trkpt>
      <trkpt lon="-3.343829" lat="54.552758"><ele>439.686401</ele><time>2021-08-12T10:28:49Z</time><extensions><speed>0.518772</speed><course>41.372017</course><hAcc>0.878326</hAcc><vAcc>0.694039</vAcc></extensions></trkpt>
      <trkpt lon="-3.343833" lat="54.552754"><ele>439.894928</ele><time>2021-08-12T10:28:50Z</time><extensions><speed>0.515567</speed><course>37.017429</course><hAcc>0.878354</hAcc><vAcc>0.694153</vAcc></extensions></trkpt>
      <trkpt lon="-3.343837" lat="54.552750"><ele>440.109222</ele><time>2021-08-12T10:28:51Z</time><extensions><speed>0.509744</speed><course>28.588495</course><hAcc>0.878394</hAcc><vAcc>0.694321</vAcc></extensions></trkpt>
      <trkpt lon="-3.343841" lat="54.552746"><ele>440.328979</ele><time>2021-08-12T10:28:52Z</time><extensions><speed>0.502292</speed><course>39.512306</course><hAcc>0.878443</hAcc><vAcc>0.694538</vAcc></extensions></trkpt>
      <trkpt lon="-3.343845" lat="54.552742"><ele>440.554138</ele><time>2021-08-12T10:28:53Z</time><extensions><speed>0.493844</speed><course>38.955353</course><hAcc>0.878497</hAcc><vAcc>0.694790</vAcc></extensions></trkpt>
      <trkpt lon="-3.343849" lat="54.552738"><ele>440.784668</ele><time>2021-08-12T10:28:54Z</time><extensions><speed>0.484393</speed><course>35.270641</course><hAcc>0.878551</hAcc><vAcc>0.695057</vAcc></extensions></trkpt>
      <trkpt lon="-3.343853" lat="54.552735"><ele>441.020111</ele><time>2021-08-12T10:28:55Z</time><extensions><speed>0.474436</speed><course>38.302330</course><hAcc>0.878597</hAcc><vAcc>0.695314</vAcc></extensions></trkpt>
      <trkpt lon="-3.343857" lat="54.552731"><ele>441.259674</ele><time>2021-08-12T10:28:56Z</time><extensions><speed>0.465112</speed><course>40.976086</course><hAcc>0.878630</hAcc><vAcc>0.695522</vAcc></extensions></trkpt>
      <trkpt lon="-3.343861" lat="54.552728"><ele>441.501770</ele><time>2021-08-12T10:28:57Z</time><extensions><speed>0.457228</speed><course>40.718147</course><hAcc>0.878642</hAcc><vAcc>0.695641</vAcc></extensions></trkpt>
      <trkpt lon="-3.343865" lat="54.552724"><ele>441.744415</ele><time>2021-08-12T10:28:58Z</time><extensions><speed>0.451270</speed><course>40.437557</course><hAcc>0.878627</hAcc><vAcc>0.695637</vAcc></extensions></trkpt>
      <trkpt lon="-3.343869" lat="54.552721"><ele>441.985840</ele><time>2021-08-12T10:28:59Z</time><extensions><speed>0.447679</speed><course>38.315979</course><hAcc>0.878578</hAcc><vAcc>0.695490</vAcc></extensions></trkpt>
      <trkpt lon="-3.343874" lat="54.552718"><ele>442.224518</ele><time>2021-08-12T10:29:00Z</time><extensions><speed>0.446172</speed><course>28.668550</course><hAcc>0.878493</hAcc><vAcc>0.695194</vAcc></extensions></trkpt>
      <trkpt lon="-3.343878" lat="54.552715"><ele>442.458923</ele><time>2021-08-12T10:29:01Z</time><extensions><speed>0.445970</speed><course>31.392698</course><hAcc>0.878369</hAcc><vAcc>0.694751</vAcc></extensions></trkpt>
      <trkpt lon="-3.343883" lat="54.552712"><ele>442.687103</ele><time>2021-08-12T10:29:02Z</time><extensions><speed>0.446592</speed><course>32.848076</course><hAcc>0.878205</hAcc><vAcc>0.694164</vAcc></extensions></trkpt>
      <trkpt lon="-3.343889" lat="54.552710"><ele>442.906769</ele><time>2021-08-12T10:29:03Z</time><extensions><speed>0.447390</speed><course>38.096359</course><hAcc>0.878002</hAcc><vAcc>0.693432</vAcc></extensions></trkpt>
      <trkpt lon="-3.343894" lat="54.552707"><ele>443.115662</ele><time>2021-08-12T10:29:04Z</time><extensions><speed>0.447853</speed><course>27.737675</course><hAcc>0.877762</hAcc><vAcc>0.692556</vAcc></extensions></trkpt>
      <trkpt lon="-3.343900" lat="54.552705"><ele>443.312164</ele><time>2021-08-12T10:29:05Z</time><extensions><speed>0.447648</speed><course>38.820049</course><hAcc>0.877490</hAcc><vAcc>0.691541</vAcc></extensions></trkpt>
      <trkpt lon="-3.343905" lat="54.552703"><ele>443.495636</ele><time>2021-08-12T10:29:06Z</time><extensions><speed>0.446483</speed><course>40.137299</course><hAcc>0.877192</hAcc><vAcc>0.690410</vAcc></extensions></trkpt>
      <trkpt lon="-3.343911" lat="54.552700"><ele>443.665833</ele><time>2021-08-12T10:29:07Z</time><extensions><speed>0.444313</speed><course>44.560421</course><hAcc>0.876878</hAcc><vAcc>0.689194</vAcc></extensions></trkpt>
      <trkpt lon="-3.343917" lat="54.552698"><ele>443.822723</ele><time>2021-08-12T10:29:08Z</time><extensions><speed>0.441065</speed><course>41.574787</course><hAcc>0.876557</hAcc><vAcc>0.687934</vAcc></extensions></trkpt>
      <trkpt lon="-3.343922" lat="54.552696"><ele>443.966675</ele><time>2021-08-12T10:29:09Z</time><extensions><speed>0.436675</speed><course>37.402897</course><hAcc>0.876242</hAcc><vAcc>0.686679</vAcc></extensions></trkpt>
      <trkpt lon="-3.343928" lat="54.552694"><ele>444.098541</ele><time>2021-08-12T10:29:10Z</time><extensions><speed>0.431406</speed><course>38.445354</course><hAcc>0.875943</hAcc><vAcc>0.685487</vAcc></extensions></trkpt>
      <trkpt lon="-3.343933" lat="54.552692"><ele>444.219513</ele><time>2021-08-12T10:29:11Z</time><extensions><speed>0.426252</speed><course>32.932274</course><hAcc>0.875672</hAcc><vAcc>0.684412</vAcc></extensions></trkpt>
      <trkpt lon="-3.343939" lat="54.552689"><ele>444.330994</ele><time>2021-08-12T10:29:12Z</time><extensions><speed>0.422546</speed><course>27.701353</course><hAcc>0.875441</hAcc><vAcc>0.683502</vAcc></extensions></trkpt>
      <trkpt lon="-3.343944" lat="54.552687"><ele>444.434418</ele><time>2021-08-12T10:29:13Z</time><extensions><speed>0.420572</speed><course>28.233585</course><hAcc>0.875254</hAcc><vAcc>0.682789</vAcc></extensions></trkpt>
      <trkpt lon="-3.343948" lat="54.552684"><ele>444.531189</ele><time>2021-08-12T10:29:14Z</time><extensions><speed>0.420326</speed><course>30.003765</course><hAcc>0.875117</hAcc><vAcc>0.682291</vAcc></extensions></trkpt>
      <trkpt lon="-3.343953" lat="54.552682"><ele>444.622620</ele><time>2021-08-12T10:29:15Z</time><extensions><speed>0.421329</speed><course>35.586266</course><hAcc>0.875030</hAcc><vAcc>0.682007</vAcc></extensions></trkpt>
      <trkpt lon="-3.343958" lat="54.552679"><ele>444.709869</ele><time>2021-08-12T10:29:16Z</time><extensions><speed>0.422812</speed><course>41.034397</course><hAcc>0.874990</hAcc><vAcc>0.681924</vAcc></extensions></trkpt>
      <trkpt lon="-3.343962" lat="54.552676"><ele>444.793976</ele><time>2021-08-12T10:29:17Z</time><extensions><speed>0.424666</speed><course>43.040592</course><hAcc>0.874992</hAcc><vAcc>0.682018</vAcc></extensions></trkpt>
      <trkpt lon="-3.343966" lat="54.552673"><ele>444.876129</ele><time>2021-08-12T10:29:18Z</time><extensions><speed>0.426758</speed><course>49.550934</course><hAcc>0.875029</hAcc><vAcc>0.682253</vAcc></extensions></trkpt>
      <trkpt lon="-3.343970" lat="54.552670"><ele>444.957642</ele><time>2021-08-12T10:29:19Z</time><extensions><speed>0.428966</speed><course>62.069283</course><hAcc>0.875093</hAcc><vAcc>0.682581</vAcc></extensions></trkpt>
      <trkpt lon="-3.343974" lat="54.552667"><ele>445.039703</ele><time>2021-08-12T10:29:20Z</time><extensions><speed>0.431035</speed><course>68.512573</course><hAcc>0.875176</hAcc><vAcc>0.682952</vAcc></extensions></trkpt>
      <trkpt lon="-3.343979" lat="54.552664"><ele>445.123383</ele><time>2021-08-12T10:29:21Z</time><extensions><speed>0.432506</speed><course>76.544746</course><hAcc>0.875271</hAcc><vAcc>0.683329</vAcc></extensions></trkpt>
      <trkpt lon="-3.343983" lat="54.552661"><ele>445.209534</ele><time>2021-08-12T10:29:22Z</time><extensions><speed>0.432893</speed><course>91.471558</course><hAcc>0.875375</hAcc><vAcc>0.683696</vAcc></extensions></trkpt>
      <trkpt lon="-3.343987" lat="54.552658"><ele>445.299133</ele><time>2021-08-12T10:29:23Z</time><extensions><speed>0.431831</speed><course>103.707001</course><hAcc>0.875488</hAcc><vAcc>0.684053</vAcc></extensions></trkpt>
      <trkpt lon="-3.343990" lat="54.552655"><ele>445.393494</ele><time>2021-08-12T10:29:24Z</time><extensions><speed>0.428625</speed><course>102.240677</course><hAcc>0.875613</hAcc><vAcc>0.684417</vAcc></extensions></trkpt>
      <trkpt lon="-3.343994" lat="54.552652"><ele>445.493896</ele><time>2021-08-12T10:29:25Z</time><extensions><speed>0.422682</speed><course>109.008522</course><hAcc>0.875756</hAcc><vAcc>0.684826</vAcc></extensions></trkpt>
      <trkpt lon="-3.343998" lat="54.552649"><ele>445.601746</ele><time>2021-08-12T10:29:26Z</time><extensions><speed>0.414686</speed><course>120.687057</course><hAcc>0.875923</hAcc><vAcc>0.685336</vAcc></extensions></trkpt>
      <trkpt lon="-3.344001" lat="54.552645"><ele>445.718719</ele><time>2021-08-12T10:29:27Z</time><extensions><speed>0.406083</speed><course>122.518364</course><hAcc>0.876122</hAcc><vAcc>0.686000</vAcc></extensions></trkpt>
      <trkpt lon="-3.344004" lat="54.552642"><ele>445.846313</ele><time>2021-08-12T10:29:28Z</time><extensions><speed>0.397946</speed><course>116.435341</course><hAcc>0.876356</hAcc><vAcc>0.686858</vAcc></extensions></trkpt>
      <trkpt lon="-3.344007" lat="54.552639"><ele>445.985779</ele><time>2021-08-12T10:29:29Z</time><extensions><speed>0.390682</speed><course>123.806564</course><hAcc>0.876627</hAcc><vAcc>0.687922</vAcc></extensions></trkpt>
      <trkpt lon="-3.344009" lat="54.552636"><ele>446.137848</ele><time>2021-08-12T10:29:30Z</time><extensions><speed>0.384656</speed><course>121.279266</course><hAcc>0.876927</hAcc><vAcc>0.689155</vAcc></extensions></trkpt>
      <trkpt lon="-3.344010" lat="54.552632"><ele>446.302460</ele><time>2021-08-12T10:29:31Z</time><extensions><speed>0.380578</speed><course>122.295830</course><hAcc>0.877244</hAcc><vAcc>0.690484</vAcc></extensions></trkpt>
      <trkpt lon="-3.344011" lat="54.552629"><ele>446.479004</ele><time>2021-08-12T10:29:32Z</time><extensions><speed>0.378550</speed><course>116.485687</course><hAcc>0.877564</hAcc><vAcc>0.691820</vAcc></extensions></trkpt>
      <trkpt lon="-3.344012" lat="54.552626"><ele>446.666443</ele><time>2021-08-12T10:29:33Z</time><extensions><speed>0.377909</speed><course>120.837761</course><hAcc>0.877873</hAcc><vAcc>0.693083</vAcc></extensions></trkpt>
      <trkpt lon="-3.344012" lat="54.552622"><ele>446.863281</ele><time>2021-08-12T10:29:34Z</time><extensions><speed>0.378249</speed><course>121.691162</course><hAcc>0.878156</hAcc><vAcc>0.694205</vAcc></extensions></trkpt>
      <trkpt lon="-3.344013" lat="54.552619"><ele>447.067841</ele><time>2021-08-12T10:29:35Z</time><extensions><speed>0.379068</speed><course>120.429344</course><hAcc>0.878403</hAcc><vAcc>0.695144</vAcc></extensions></trkpt>
      <trkpt lon="-3.344013" lat="54.552616"><ele>447.278503</ele><time>2021-08-12T10:29:36Z</time><extensions><speed>0.379788</speed><course>127.922836</course><hAcc>0.878607</hAcc><vAcc>0.695877</vAcc></extensions></trkpt>
      <trkpt lon="-3.344013" lat="54.552612"><ele>447.493683</ele><time>2021-08-12T10:29:37Z</time><extensions><speed>0.380561</speed><course>122.773224</course><hAcc>0.878763</hAcc><vAcc>0.696398</vAcc></extensions></trkpt>
      <trkpt lon="-3.344014" lat="54.552609"><ele>447.711823</ele><time>2021-08-12T10:29:38Z</time><extensions><speed>0.382319</speed><course>127.410233</course><hAcc>0.878871</hAcc><vAcc>0.696710</vAcc></extensions></trkpt>
      <trkpt lon="-3.344014" lat="54.552605"><ele>447.931671</ele><time>2021-08-12T10:29:39Z</time><extensions><speed>0.386908</speed><course>126.293243</course><hAcc>0.878932</hAcc><vAcc>0.696831</vAcc></extensions></trkpt>
      <trkpt lon="-3.344016" lat="54.552602"><ele>448.151855</ele><time>2021-08-12T10:29:40Z</time><extensions><speed>0.396568</speed><course>113.773628</course><hAcc>0.878950</hAcc><vAcc>0.696786</vAcc></extensions></trkpt>
      <trkpt lon="-3.344018" lat="54.552599"><ele>448.370667</ele><time>2021-08-12T10:29:41Z</time><extensions><speed>0.412882</speed><course>111.597641</course><hAcc>0.878931</hAcc><vAcc>0.696606</vAcc></extensions></trkpt>
      <trkpt lon="-3.344021" lat="54.552595"><ele>448.586334</ele><time>2021-08-12T10:29:42Z</time><extensions><speed>0.435792</speed><course>118.242065</course><hAcc>0.878881</hAcc><vAcc>0.696329</vAcc></extensions></trkpt>
      <trkpt lon="-3.344025" lat="54.552592"><ele>448.797852</ele><time>2021-08-12T10:29:43Z</time><extensions><speed>0.463232</speed><course>121.318916</course><hAcc>0.878805</hAcc><vAcc>0.695994</vAcc></extensions></trkpt>
      <trkpt lon="-3.344029" lat="54.552588"><ele>449.005096</ele><time>2021-08-12T10:29:44Z</time><extensions><speed>0.492112</speed><course>126.571838</course><hAcc>0.878706</hAcc><vAcc>0.695627</vAcc></extensions></trkpt>
      <trkpt lon="-3.344035" lat="54.552585"><ele>449.208618</ele><time>2021-08-12T10:29:45Z</time><extensions><speed>0.519125</speed><course>116.053932</course><hAcc>0.878587</hAcc><vAcc>0.695234</vAcc></extensions></trkpt>
      <trkpt lon="-3.344041" lat="54.552582"><ele>449.409210</ele><time>2021-08-12T10:29:46Z</time><extensions><speed>0.541861</speed><course>122.553452</course><hAcc>0.878446</hAcc><vAcc>0.694797</vAcc></extensions></trkpt>
      <trkpt lon="-3.344047" lat="54.552578"><ele>449.607513</ele><time>2021-08-12T10:29:47Z</time><extensions><speed>0.558603</speed><course>115.362396</course><hAcc>0.878282</hAcc><vAcc>0.694286</vAcc></extensions></trkpt>
      <trkpt lon="-3.344054" lat="54.552575"><ele>449.803589</ele><time>2021-08-12T10:29:48Z</time><extensions><speed>0.567678</speed><course>120.016403</course><hAcc>0.878090</hAcc><vAcc>0.693672</vAcc></extensions></trkpt>
      <trkpt lon="-3.344061" lat="54.552572"><ele>449.996979</ele><time>2021-08-12T10:29:49Z</time><extensions><speed>0.568325</speed><course>131.521149</course><hAcc>0.877870</hAcc><vAcc>0.692934</vAcc></extensions></trkpt>
      <trkpt lon="-3.344068" lat="54.552569"><ele>450.186798</ele><time>2021-08-12T10:29:50Z</time><extensions><speed>0.560702</speed><course>124.976143</course><hAcc>0.877620</hAcc><vAcc>0.692061</vAcc></extensions></trkpt>
      <trkpt lon="-3.344074" lat="54.552566"><ele>450.372162</ele><time>2021-08-12T10:29:51Z</time><extensions><speed>0.545491</speed><course>123.546791</course><hAcc>0.877339</hAcc><vAcc>0.691049</vAcc></extensions></trkpt>
      <trkpt lon="-3.344081" lat="54.552563"><ele>450.552460</ele><time>2021-08-12T10:29:52Z</time><extensions><speed>0.523686</speed><course>116.699699</course><hAcc>0.877030</hAcc><vAcc>0.689904</vAcc></extensions></trkpt>
      <trkpt lon="-3.344087" lat="54.552561"><ele>450.728210</ele><time>2021-08-12T10:29:53Z</time><extensions><speed>0.496331</speed><course>112.924561</course><hAcc>0.876697</hAcc><vAcc>0.688650</vAcc></extensions></trkpt>
      <trkpt lon="-3.344093" lat="54.552558"><ele>450.901031</ele><time>2021-08-12T10:29:54Z</time><extensions><speed>0.464945</speed><course>117.858780</course><hAcc>0.876348</hAcc><vAcc>0.687321</vAcc></extensions></trkpt>
      <trkpt lon="-3.344098" lat="54.552555"><ele>451.072906</ele><time>2021-08-12T10:29:55Z</time><extensions><speed>0.431656</speed><course>111.630035</course><hAcc>0.875989</hAcc><vAcc>0.685952</vAcc></extensions></trkpt>
      <trkpt lon="-3.344103" lat="54.552553"><ele>451.245178</ele><time>2021-08-12T10:29:56Z</time><extensions><speed>0.398714</speed><course>115.453979</course><hAcc>0.875630</hAcc><vAcc>0.684582</vAcc></extensions></trkpt>
      <trkpt lon="-3.344107" lat="54.552550"><ele>451.418701</ele><time>2021-08-12T10:29:57Z</time><extensions><speed>0.368463</speed><course>108.625862</course><hAcc>0.875279</hAcc><vAcc>0.683242</vAcc></extensions></trkpt>
      <trkpt lon="-3.344110" lat="54.552547"><ele>451.594360</ele><time>2021-08-12T10:29:58Z</time><extensions><speed>0.342882</speed><course>116.435417</course><hAcc>0.874947</hAcc><vAcc>0.681974</vAcc></extensions></trkpt>
      <trkpt lon="-3.344112" lat="54.552545"><ele>451.773010</ele><time>2021-08-12T10:29:59Z</time><extensions><speed>0.322943</speed><course>112.323517</course><hAcc>0.874642</hAcc><vAcc>0.680823</vAcc></extensions></trkpt>
      <trkpt lon="-3.344114" lat="54.552542"><ele>451.954987</ele><time>2021-08-12T10:30:00Z</time><extensions><speed>0.308496</speed><course>117.491661</course><hAcc>0.874370</hAcc><vAcc>0.679820</vAcc></extensions></trkpt>
      <trkpt lon="-3.344115" lat="54.552539"><ele>452.140320</ele><time>2021-08-12T10:30:01Z</time><extensions><speed>0.298771</speed><course>120.293846</course><hAcc>0.874136</hAcc><vAcc>0.678969</vAcc></extensions></trkpt>
      <trkpt lon="-3.344116" lat="54.552537"><ele>452.328705</ele><time>2021-08-12T10:30:02Z</time><extensions><speed>0.292721</speed><course>115.591873</course><hAcc>0.873941</hAcc><vAcc>0.678269</vAcc></extensions></trkpt>
      <trkpt lon="-3.344116" lat="54.552534"><ele>452.519745</ele><time>2021-08-12T10:30:03Z</time><extensions><speed>0.289350</speed><course>116.468712</course><hAcc>0.873787</hAcc><vAcc>0.677722</vAcc></extensions></trkpt>
      <trkpt lon="-3.344116" lat="54.552532"><ele>452.713013</ele><time>2021-08-12T10:30:04Z</time><extensions><speed>0.288601</speed><course>116.627220</course><hAcc>0.873673</hAcc><vAcc>0.677324</vAcc></extensions></trkpt>
      <trkpt lon="-3.344115" lat="54.552529"><ele>452.907898</ele><time>2021-08-12T10:30:05Z</time><extensions><speed>0.291235</speed><course>115.487846</course><hAcc>0.873602</hAcc><vAcc>0.677075</vAcc></extensions></trkpt>
      <trkpt lon="-3.344114" lat="54.552527"><ele>453.103729</ele><time>2021-08-12T10:30:06Z</time><extensions><speed>0.298106</speed><course>110.303284</course><hAcc>0.873572</hAcc><vAcc>0.676972</vAcc></extensions></trkpt>
      <trkpt lon="-3.344112" lat="54.552524"><ele>453.300201</ele><time>2021-08-12T10:30:07Z</time><extensions><speed>0.309520</speed><course>107.900200</course><hAcc>0.873585</hAcc><vAcc>0.677012</vAcc></extensions></trkpt>
      <trkpt lon="-3.344109" lat="54.552522"><ele>453.497345</ele><time>2021-08-12T10:30:08Z</time><extensions><speed>0.324792</speed><course>104.901772</course><hAcc>0.873643</hAcc><vAcc>0.677203</vAcc></extensions></trkpt>
      <trkpt lon="-3.344106" lat="54.552519"><ele>453.694977</ele><time>2021-08-12T10:30:09Z</time><extensions><speed>0.342744</speed><course>102.625549</course><hAcc>0.873749</hAcc><vAcc>0.677561</vAcc></extensions></trkpt>
      <trkpt lon="-3.344102" lat="54.552517"><ele>453.892517</ele><time>2021-08-12T10:30:10Z</time><extensions><speed>0.361918</speed><course>101.615082</course><hAcc>0.873905</hAcc><vAcc>0.678106</vAcc></extensions></trkpt>
      <trkpt lon="-3.344098" lat="54.552515"><ele>454.089294</ele><time>2021-08-12T10:30:11Z</time><extensions><speed>0.380920</speed><course>104.820312</course><hAcc>0.874117</hAcc><vAcc>0.678857</vAcc></extensions></trkpt>
      <trkpt lon="-3.344094" lat="54.552512"><ele>454.284637</ele><time>2021-08-12T10:30:12Z</time><extensions><speed>0.398769</speed><course>97.837166</course><hAcc>0.874384</hAcc><vAcc>0.679815</vAcc></extensions></trkpt>
      <trkpt lon="-3.344089" lat="54.552510"><ele>454.478149</ele><time>2021-08-12T10:30:13Z</time><extensions><speed>0.414653</speed><course>99.518051</course><hAcc>0.874705</hAcc><vAcc>0.680971</vAcc></extensions></trkpt>
      <trkpt lon="-3.344084" lat="54.552507"><ele>454.669128</ele><time>2021-08-12T10:30:14Z</time><extensions><speed>0.427567</speed><course>105.468117</course><hAcc>0.875078</hAcc><vAcc>0.682325</vAcc></extensions></trkpt>
      <trkpt lon="-3.344079" lat="54.552505"><ele>454.856354</ele><time>2021-08-12T10:30:15Z</time><extensions><speed>0.437228</speed><course>105.021729</course><hAcc>0.875503</hAcc><vAcc>0.683887</vAcc></extensions></trkpt>
      <trkpt lon="-3.344074" lat="54.552502"><ele>455.038422</ele><time>2021-08-12T10:30:16Z</time><extensions><speed>0.443711</speed><course>105.854553</course><hAcc>0.875976</hAcc><vAcc>0.685664</vAcc></extensions></trkpt>
      <trkpt lon="-3.344069" lat="54.552499"><ele>455.214630</ele><time>2021-08-12T10:30:17Z</time><extensions><speed>0.446499</speed><course>116.038353</course><hAcc>0.876493</hAcc><vAcc>0.687644</vAcc></extensions></trkpt>
      <trkpt lon="-3.344064" lat="54.552496"><ele>455.385040</ele><time>2021-08-12T10:30:18Z</time><extensions><speed>0.446689</speed><course>116.622620</course><hAcc>0.877045</hAcc><vAcc>0.689789</vAcc></extensions></trkpt>
      <trkpt lon="-3.344060" lat="54.552493"><ele>455.550446</ele><time>2021-08-12T10:30:19Z</time><extensions><speed>0.446895</speed><course>116.023415</course><hAcc>0.877620</hAcc><vAcc>0.692026</vAcc></extensions></trkpt>
      <trkpt lon="-3.344056" lat="54.552490"><ele>455.712311</ele><time>2021-08-12T10:30:20Z</time><extensions><speed>0.449142</speed><course>111.053482</course><hAcc>0.878202</hAcc><vAcc>0.694265</vAcc></extensions></trkpt>
      <trkpt lon="-3.344052" lat="54.552487"><ele>455.872589</ele><time>2021-08-12T10:30:21Z</time><extensions><speed>0.453957</speed><course>109.683617</course><hAcc>0.878776</hAcc><vAcc>0.696430</vAcc></extensions></trkpt>
      <trkpt lon="-3.344049" lat="54.552483"><ele>456.032715</ele><time>2021-08-12T10:30:22Z</time><extensions><speed>0.460626</speed><course>107.838440</course><hAcc>0.879329</hAcc><vAcc>0.698473</vAcc></extensions></trkpt>
      <trkpt lon="-3.344045" lat="54.552479"><ele>456.194031</ele><time>2021-08-12T10:30:23Z</time><extensions><speed>0.468405</speed><course>110.196930</course><hAcc>0.879847</hAcc><vAcc>0.700364</vAcc></extensions></trkpt>
      <trkpt lon="-3.344042" lat="54.552475"><ele>456.357849</ele><time>2021-08-12T10:30:24Z</time><extensions><speed>0.476321</speed><course>111.548782</course><hAcc>0.880322</hAcc><vAcc>0.702083</vAcc></extensions></trkpt>
      <trkpt lon="-3.344039" lat="54.552472"><ele>456.525055</ele><time>2021-08-12T10:30:25Z</time><extensions><speed>0.483098</speed><course>110.420074</course><hAcc>0.880745</hAcc><vAcc>0.703613</vAcc></extensions></trkpt>
      <trkpt lon="-3.344036" lat="54.552468"><ele>456.696381</ele><time>2021-08-12T10:30:26Z</time><extensions><speed>0.488036</speed><course>99.619576</course><hAcc>0.881110</hAcc><vAcc>0.704940</vAcc></extensions></trkpt>
      <trkpt lon="-3.344033" lat="54.552464"><ele>456.871918</ele><time>2021-08-12T10:30:27Z</time><extensions><speed>0.490860</speed><course>107.102882</course><hAcc>0.881415</hAcc><vAcc>0.706054</vAcc></extensions></trkpt>
      <trkpt lon="-3.344030" lat="54.552460"><ele>457.050934</ele><time>2021-08-12T10:30:28Z</time><extensions><speed>0.491336</speed><course>98.831825</course><hAcc>0.881656</hAcc><vAcc>0.706941</vAcc></extensions></trkpt>
      <trkpt lon="-3.344026" lat="54.552456"><ele>457.232025</ele><time>2021-08-12T10:30:29Z</time><extensions><speed>0.489829</speed><course>99.864403</course><hAcc>0.881834</hAcc><vAcc>0.707592</vAcc></extensions></trkpt>
      <trkpt lon="-3.344022" lat="54.552452"><ele>457.412872</ele><time>2021-08-12T10:30:30Z</time><extensions><speed>0.487690</speed><course>99.165215</course><hAcc>0.881950</hAcc><vAcc>0.708001</vAcc></extensions></trkpt>
      <trkpt lon="-3.344018" lat="54.552448"><ele>457.591034</ele><time>2021-08-12T10:30:31Z</time><extensions><speed>0.486512</speed><course>106.876038</course><hAcc>0.882008</hAcc><vAcc>0.708172</vAcc></extensions></trkpt>
      <trkpt lon="-3.344013" lat="54.552445"><ele>457.764282</ele><time>2021-08-12T10:30:32Z</time><extensions><speed>0.488005</speed><course>100.224144</course><hAcc>0.882011</hAcc><vAcc>0.708116</vAcc></extensions></trkpt>
      <trkpt lon="-3.344007" lat="54.552442"><ele>457.930359</ele><time>2021-08-12T10:30:33Z</time><extensions><speed>0.494158</speed><course>97.870438</course><hAcc>0.881965</hAcc><vAcc>0.707854</vAcc></extensions></trkpt>
      <trkpt lon="-3.344001" lat="54.552439"><ele>458.086823</ele><time>2021-08-12T10:30:34Z</time><extensions><speed>0.506075</speed><course>109.047302</course><hAcc>0.881878</hAcc><vAcc>0.707421</vAcc></extensions></trkpt>
      <trkpt lon="-3.343995" lat="54.552437"><ele>458.231232</ele><time>2021-08-12T10:30:35Z</time><extensions><speed>0.523474</speed><course>111.386711</course><hAcc>0.881757</hAcc><vAcc>0.706858</vAcc></extensions></trkpt>
      <trkpt lon="-3.343987" lat="54.552435"><ele>458.361511</ele><time>2021-08-12T10:30:36Z</time><extensions><speed>0.545319</speed><course>110.131767</course><hAcc>0.881611</hAcc><vAcc>0.706212</vAcc></extensions></trkpt>
      <trkpt lon="-3.343979" lat="54.552433"><ele>458.475708</ele><time>2021-08-12T10:30:37Z</time><extensions><speed>0.570440</speed><course>109.748413</course><hAcc>0.881450</hAcc><vAcc>0.705527</vAcc></extensions></trkpt>
      <trkpt lon="-3.343971" lat="54.552431"><ele>458.572174</ele><time>2021-08-12T10:30:38Z</time><extensions><speed>0.597755</speed><course>116.453705</course><hAcc>0.881280</hAcc><vAcc>0.704838</vAcc></extensions></trkpt>
      <trkpt lon="-3.343962" lat="54.552430"><ele>458.649658</ele><time>2021-08-12T10:30:39Z</time><extensions><speed>0.626320</speed><course>111.019348</course><hAcc>0.881113</hAcc><vAcc>0.704165</vAcc></extensions></trkpt>
      <trkpt lon="-3.343952" lat="54.552429"><ele>458.707581</ele><time>2021-08-12T10:30:40Z</time><extensions><speed>0.655203</speed><course>106.996025</course><hAcc>0.880956</hAcc><vAcc>0.703527</vAcc></extensions></trkpt>
      <trkpt lon="-3.343942" lat="54.552428"><ele>458.745728</ele><time>2021-08-12T10:30:41Z</time><extensions><speed>0.683220</speed><course>104.594215</course><hAcc>0.880816</hAcc><vAcc>0.702947</vAcc></extensions></trkpt>
      <trkpt lon="-3.343931" lat="54.552427"><ele>458.764496</ele><time>2021-08-12T10:30:42Z</time><extensions><speed>0.708872</speed><course>101.351479</course><hAcc>0.880701</hAcc><vAcc>0.702456</vAcc></extensions></trkpt>
      <trkpt lon="-3.343920" lat="54.552426"><ele>458.765961</ele><time>2021-08-12T10:30:43Z</time><extensions><speed>0.730563</speed><course>105.952332</course><hAcc>0.880615</hAcc><vAcc>0.702084</vAcc></extensions></trkpt>
      <trkpt lon="-3.343909" lat="54.552426"><ele>458.754364</ele><time>2021-08-12T10:30:44Z</time><extensions><speed>0.747039</speed><course>113.138412</course><hAcc>0.880562</hAcc><vAcc>0.701857</vAcc></extensions></trkpt>
      <trkpt lon="-3.343897" lat="54.552425"><ele>458.735413</ele><time>2021-08-12T10:30:45Z</time><extensions><speed>0.757869</speed><course>112.944946</course><hAcc>0.880544</hAcc><vAcc>0.701790</vAcc></extensions></trkpt>
      <trkpt lon="-3.343885" lat="54.552424"><ele>458.715637</ele><time>2021-08-12T10:30:46Z</time><extensions><speed>0.763345</speed><course>108.292221</course><hAcc>0.880560</hAcc><vAcc>0.701883</vAcc></extensions></trkpt>
      <trkpt lon="-3.343874" lat="54.552423"><ele>458.701508</ele><time>2021-08-12T10:30:47Z</time><extensions><speed>0.764164</speed><course>108.436562</course><hAcc>0.880610</hAcc><vAcc>0.702120</vAcc></extensions></trkpt>
      <trkpt lon="-3.343862" lat="54.552422"><ele>458.698151</ele><time>2021-08-12T10:30:48Z</time><extensions><speed>0.761177</speed><course>102.445824</course><hAcc>0.880689</hAcc><vAcc>0.702476</vAcc></extensions></trkpt>
      <trkpt lon="-3.343851" lat="54.552421"><ele>458.709259</ele><time>2021-08-12T10:30:49Z</time><extensions><speed>0.755212</speed><course>99.628555</course><hAcc>0.880792</hAcc><vAcc>0.702925</vAcc></extensions></trkpt>
      <trkpt lon="-3.343839" lat="54.552419"><ele>458.737488</ele><time>2021-08-12T10:30:50Z</time><extensions><speed>0.746465</speed><course>103.656601</course><hAcc>0.880913</hAcc><vAcc>0.703441</vAcc></extensions></trkpt>
      <trkpt lon="-3.343828" lat="54.552418"><ele>458.785065</ele><time>2021-08-12T10:30:51Z</time><extensions><speed>0.735054</speed><course>97.309608</course><hAcc>0.881048</hAcc><vAcc>0.703996</vAcc></extensions></trkpt>
      <trkpt lon="-3.343818" lat="54.552416"><ele>458.853638</ele><time>2021-08-12T10:30:52Z</time><extensions><speed>0.721753</speed><course>95.308922</course><hAcc>0.881189</hAcc><vAcc>0.704568</vAcc></extensions></trkpt>
      <trkpt lon="-3.343807" lat="54.552413"><ele>458.944427</ele><time>2021-08-12T10:30:53Z</time><extensions><speed>0.707540</speed><course>105.665154</course><hAcc>0.881332</hAcc><vAcc>0.705134</vAcc></extensions></trkpt>
      <trkpt lon="-3.343798" lat="54.552410"><ele>459.058899</ele><time>2021-08-12T10:30:54Z</time><extensions><speed>0.693391</speed><course>120.238884</course><hAcc>0.881472</hAcc><vAcc>0.705675</vAcc></extensions></trkpt>
      <trkpt lon="-3.343788" lat="54.552407"><ele>459.198212</ele><time>2021-08-12T10:30:55Z</time><extensions><speed>0.680490</speed><course>108.474937</course><hAcc>0.881606</hAcc><vAcc>0.706174</vAcc></extensions></trkpt>
      <trkpt lon="-3.343780" lat="54.552404"><ele>459.362854</ele><time>2021-08-12T10:30:56Z</time><extensions><speed>0.670050</speed><course>104.059807</course><hAcc>0.881730</hAcc><vAcc>0.706626</vAcc></extensions></trkpt>
      <trkpt lon="-3.343772" lat="54.552400"><ele>459.552704</ele><time>2021-08-12T10:30:57Z</time><extensions><speed>0.662964</speed><course>102.572708</course><hAcc>0.881845</hAcc><vAcc>0.707028</vAcc></extensions></trkpt>
      <trkpt lon="-3.343764" lat="54.552396"><ele>459.767609</ele><time>2021-08-12T10:30:58Z</time><extensions><speed>0.660011</speed><course>107.161850</course><hAcc>0.881947</hAcc><vAcc>0.707383</vAcc></extensions></trkpt>
      <trkpt lon="-3.343757" lat="54.552392"><ele>460.006775</ele><time>2021-08-12T10:30:59Z</time><extensions><speed>0.661943</speed><course>105.046165</course><hAcc>0.882038</hAcc><vAcc>0.707690</vAcc></extensions></trkpt>
      <trkpt lon="-3.343751" lat="54.552387"><ele>460.268219</ele><time>2021-08-12T10:31:00Z</time><extensions><speed>0.668871</speed><course>107.406158</course><hAcc>0.882118</hAcc><vAcc>0.707952</vAcc></extensions></trkpt>
      <trkpt lon="-3.343745" lat="54.552382"><ele>460.549042</ele><time>2021-08-12T10:31:01Z</time><extensions><speed>0.680219</speed><course>115.429123</course><hAcc>0.882187</hAcc><vAcc>0.708179</vAcc></extensions></trkpt>
      <trkpt lon="-3.343739" lat="54.552377"><ele>460.845886</ele><time>2021-08-12T10:31:02Z</time><extensions><speed>0.694876</speed><course>116.147835</course><hAcc>0.882245</hAcc><vAcc>0.708375</vAcc></extensions></trkpt>
      <trkpt lon="-3.343733" lat="54.552372"><ele>461.155304</ele><time>2021-08-12T10:31:03Z</time><extensions><speed>0.711545</speed><course>117.699570</course><hAcc>0.882293</hAcc><vAcc>0.708545</vAcc></extensions></trkpt>
      <trkpt lon="-3.343727" lat="54.552366"><ele>461.473969</ele><time>2021-08-12T10:31:04Z</time><extensions><speed>0.728918</speed><course>118.218575</course><hAcc>0.882330</hAcc><vAcc>0.708690</vAcc></extensions></trkpt>
      <trkpt lon="-3.343721" lat="54.552361"><ele>461.798584</ele><time>2021-08-12T10:31:05Z</time><extensions><speed>0.745591</speed><course>118.864105</course><hAcc>0.882357</hAcc><vAcc>0.708808</vAcc></extensions></trkpt>
      <trkpt lon="-3.343715" lat="54.552355"><ele>462.125763</ele><time>2021-08-12T10:31:06Z</time><extensions><speed>0.760908</speed><course>117.180046</course><hAcc>0.882372</hAcc><vAcc>0.708893</vAcc></extensions></trkpt>
      <trkpt lon="-3.343709" lat="54.552349"><ele>462.451599</ele><time>2021-08-12T10:31:07Z</time><extensions><speed>0.775140</speed><course>115.856689</course><hAcc>0.882375</hAcc><vAcc>0.708941</vAcc></extensions></trkpt>
      <trkpt lon="-3.343703" lat="54.552343"><ele>462.771027</ele><time>2021-08-12T10:31:08Z</time><extensions><speed>0.788198</speed><course>112.617844</course><hAcc>0.882366</hAcc><vAcc>0.708946</vAcc></extensions></trkpt>
      <trkpt lon="-3.343697" lat="54.552337"><ele>463.078156</ele><time>2021-08-12T10:31:09Z</time><extensions><speed>0.799437</speed><course>120.157761</course><hAcc>0.882343</hAcc><vAcc>0.708897</vAcc></extensions></trkpt>
      <trkpt lon="-3.343690" lat="54.552331"><ele>463.366760</ele><time>2021-08-12T10:31:10Z</time><extensions><speed>0.808447</speed><course>116.743965</course><hAcc>0.882308</hAcc><vAcc>0.708784</vAcc></extensions></trkpt>
      <trkpt lon="-3.343683" lat="54.552325"><ele>463.631805</ele><time>2021-08-12T10:31:11Z</time><extensions><speed>0.815027</speed><course>126.528450</course><hAcc>0.882264</hAcc><vAcc>0.708601</vAcc></extensions></trkpt>
      <trkpt lon="-3.343676" lat="54.552318"><ele>463.870026</ele><time>2021-08-12T10:31:12Z</time><extensions><speed>0.818854</speed><course>122.809067</course><hAcc>0.882211</hAcc><vAcc>0.708358</vAcc></extensions></trkpt>
      <trkpt lon="-3.343669" lat="54.552312"><ele>464.079651</ele><time>2021-08-12T10:31:13Z</time><extensions><speed>0.819276</speed><course>118.437454</course><hAcc>0.882153</hAcc><vAcc>0.708077</vAcc></extensions></trkpt>
      <trkpt lon="-3.343662" lat="54.552306"><ele>464.260864</ele><time>2021-08-12T10:31:14Z</time><extensions><speed>0.815969</speed><course>113.862648</course><hAcc>0.882095</hAcc><vAcc>0.707786</vAcc></extensions></trkpt>
      <trkpt lon="-3.343654" lat="54.552301"><ele>464.415466</ele><time>2021-08-12T10:31:15Z</time><extensions><speed>0.809281</speed><course>110.315605</course><hAcc>0.882039</hAcc><vAcc>0.707511</vAcc></extensions></trkpt>
      <trkpt lon="-3.343647" lat="54.552295"><ele>464.545959</ele><time>2021-08-12T10:31:16Z</time><extensions><speed>0.799963</speed><course>111.526596</course><hAcc>0.881992</hAcc><vAcc>0.707270</vAcc></extensions></trkpt>
      <trkpt lon="-3.343639" lat="54.552289"><ele>464.655304</ele><time>2021-08-12T10:31:17Z</time><extensions><speed>0.788551</speed><course>111.825790</course><hAcc>0.881958</hAcc><vAcc>0.707080</vAcc></extensions></trkpt>
      <trkpt lon="-3.343632" lat="54.552283"><ele>464.747040</ele><time>2021-08-12T10:31:18Z</time><extensions><speed>0.775277</speed><course>110.069481</course><hAcc>0.881943</hAcc><vAcc>0.706959</vAcc></extensions></trkpt>
      <trkpt lon="-3.343625" lat="54.552278"><ele>464.826141</ele><time>2021-08-12T10:31:19Z</time><extensions><speed>0.760836</speed><course>114.632622</course><hAcc>0.881949</hAcc><vAcc>0.706929</vAcc></extensions></trkpt>
      <trkpt lon="-3.343618" lat="54.552272"><ele>464.898590</ele><time>2021-08-12T10:31:20Z</time><extensions><speed>0.746106</speed><course>103.253258</course><hAcc>0.881979</hAcc><vAcc>0.707011</vAcc></extensions></trkpt>
      <trkpt lon="-3.343612" lat="54.552267"><ele>464.971039</ele><time>2021-08-12T10:31:21Z</time><extensions><speed>0.731556</speed><course>106.301743</course><hAcc>0.882034</hAcc><vAcc>0.707216</vAcc></extensions></trkpt>
      <trkpt lon="-3.343606" lat="54.552261"><ele>465.050812</ele><time>2021-08-12T10:31:22Z</time><extensions><speed>0.717992</speed><course>102.376541</course><hAcc>0.882112</hAcc><vAcc>0.707544</vAcc></extensions></trkpt>
      <trkpt lon="-3.343600" lat="54.552256"><ele>465.145721</ele><time>2021-08-12T10:31:23Z</time><extensions><speed>0.705985</speed><course>106.795837</course><hAcc>0.882211</hAcc><vAcc>0.707978</vAcc></extensions></trkpt>
      <trkpt lon="-3.343594" lat="54.552251"><ele>465.262848</ele><time>2021-08-12T10:31:24Z</time><extensions><speed>0.695571</speed><course>105.416672</course><hAcc>0.882327</hAcc><vAcc>0.708497</vAcc></extensions></trkpt>
      <trkpt lon="-3.343589" lat="54.552245"><ele>465.408142</ele><time>2021-08-12T10:31:25Z</time><extensions><speed>0.686936</speed><course>115.994911</course><hAcc>0.882455</hAcc><vAcc>0.709072</vAcc></extensions></trkpt>
      <trkpt lon="-3.343584" lat="54.552240"><ele>465.586761</ele><time>2021-08-12T10:31:26Z</time><extensions><speed>0.679980</speed><course>121.956070</course><hAcc>0.882589</hAcc><vAcc>0.709672</vAcc></extensions></trkpt>
      <trkpt lon="-3.343579" lat="54.552235"><ele>465.802704</ele><time>2021-08-12T10:31:27Z</time><extensions><speed>0.674325</speed><course>114.918808</course><hAcc>0.882725</hAcc><vAcc>0.710265</vAcc></extensions></trkpt>
      <trkpt lon="-3.343574" lat="54.552229"><ele>466.057709</ele><time>2021-08-12T10:31:28Z</time><extensions><speed>0.669360</speed><course>112.952827</course><hAcc>0.882857</hAcc><vAcc>0.710815</vAcc></extensions></trkpt>
      <trkpt lon="-3.343569" lat="54.552224"><ele>466.351013</ele><time>2021-08-12T10:31:29Z</time><extensions><speed>0.664525</speed><course>108.521141</course><hAcc>0.882981</hAcc><vAcc>0.711292</vAcc></extensions></trkpt>
      <trkpt lon="-3.343565" lat="54.552219"><ele>466.679504</ele><time>2021-08-12T10:31:30Z</time><extensions><speed>0.659603</speed><course>105.023331</course><hAcc>0.883096</hAcc><vAcc>0.711684</vAcc></extensions></trkpt>
      <trkpt lon="-3.343560" lat="54.552213"><ele>467.037872</ele><time>2021-08-12T10:31:31Z</time><extensions><speed>0.654173</speed><course>98.270523</course><hAcc>0.883197</hAcc><vAcc>0.711999</vAcc></extensions></trkpt>
      <trkpt lon="-3.343556" lat="54.552208"><ele>467.418579</ele><time>2021-08-12T10:31:32Z</time><extensions><speed>0.647468</speed><course>104.555389</course><hAcc>0.883283</hAcc><vAcc>0.712249</vAcc></extensions></trkpt>
      <trkpt lon="-3.343552" lat="54.552203"><ele>467.813416</ele><time>2021-08-12T10:31:33Z</time><extensions><speed>0.639271</speed><course>108.798698</course><hAcc>0.883354</hAcc><vAcc>0.712451</vAcc></extensions></trkpt>
      <trkpt lon="-3.343549" lat="54.552197"><ele>468.214508</ele><time>2021-08-12T10:31:34Z</time><extensions><speed>0.630253</speed><course>107.953148</course><hAcc>0.883410</hAcc><vAcc>0.712617</vAcc></extensions></trkpt>
      <trkpt lon="-3.343545" lat="54.552192"><ele>468.614502</ele><time>2021-08-12T10:31:35Z</time><extensions><speed>0.621161</speed><course>107.561462</course><hAcc>0.883451</hAcc><vAcc>0.712755</vAcc></extensions></trkpt>
      <trkpt lon="-3.343542" lat="54.552187"><ele>469.006348</ele><time>2021-08-12T10:31:36Z</time><extensions><speed>0.612615</speed><course>98.600151</course><hAcc>0.883479</hAcc><vAcc>0.712865</vAcc></extensions></trkpt>
      <trkpt lon="-3.343540" lat="54.552182"><ele>469.382904</ele><time>2021-08-12T10:31:37Z</time><extensions><speed>0.605167</speed><course>106.179245</course><hAcc>0.883495</hAcc><vAcc>0.712945</vAcc></extensions></trkpt>
      <trkpt lon="-3.343537" lat="54.552176"><ele>469.737640</ele><time>2021-08-12T10:31:38Z</time><extensions><speed>0.599004</speed><course>99.736237</course><hAcc>0.883500</hAcc><vAcc>0.712988</vAcc></extensions></trkpt>
      <trkpt lon="-3.343535" lat="54.552171"><ele>470.064575</ele><time>2021-08-12T10:31:39Z</time><extensions><speed>0.593953</speed><course>102.027924</course><hAcc>0.883494</hAcc><vAcc>0.712990</vAcc></extensions></trkpt>
      <trkpt lon="-3.343533" lat="54.552166"><ele>470.358551</ele><time>2021-08-12T10:31:40Z</time><extensions><speed>0.589894</speed><course>94.072990</course><hAcc>0.883479</hAcc><vAcc>0.712945</vAcc></extensions></trkpt>
      <trkpt lon="-3.343531" lat="54.552161"><ele>470.616669</ele><time>2021-08-12T10:31:41Z</time><extensions><speed>0.586929</speed><course>96.463219</course><hAcc>0.883456</hAcc><vAcc>0.712853</vAcc></extensions></trkpt>
      <trkpt lon="-3.343529" lat="54.552156"><ele>470.838867</ele><time>2021-08-12T10:31:42Z</time><extensions><speed>0.585109</speed><course>96.928070</course><hAcc>0.883428</hAcc><vAcc>0.712719</vAcc></extensions></trkpt>
      <trkpt lon="-3.343527" lat="54.552150"><ele>471.027802</ele><time>2021-08-12T10:31:43Z</time><extensions><speed>0.584553</speed><course>85.766655</course><hAcc>0.883396</hAcc><vAcc>0.712553</vAcc></extensions></trkpt>
      <trkpt lon="-3.343526" lat="54.552145"><ele>471.188354</ele><time>2021-08-12T10:31:44Z</time><extensions><speed>0.585094</speed><course>93.944389</course><hAcc>0.883362</hAcc><vAcc>0.712374</vAcc></extensions></trkpt>
      <trkpt lon="-3.343524" lat="54.552140"><ele>471.326294</ele><time>2021-08-12T10:31:45Z</time><extensions><speed>0.586313</speed><course>96.280258</course><hAcc>0.883330</hAcc><vAcc>0.712199</vAcc></extensions></trkpt>
      <trkpt lon="-3.343523" lat="54.552135"><ele>471.447388</ele><time>2021-08-12T10:31:46Z</time><extensions><speed>0.587990</speed><course>103.229439</course><hAcc>0.883302</hAcc><vAcc>0.712044</vAcc></extensions></trkpt>
      <trkpt lon="-3.343521" lat="54.552130"><ele>471.557098</ele><time>2021-08-12T10:31:47Z</time><extensions><speed>0.589736</speed><course>100.069313</course><hAcc>0.883282</hAcc><vAcc>0.711924</vAcc></extensions></trkpt>
      <trkpt lon="-3.343520" lat="54.552124"><ele>471.661377</ele><time>2021-08-12T10:31:48Z</time><extensions><speed>0.591084</speed><course>107.704430</course><hAcc>0.883271</hAcc><vAcc>0.711853</vAcc></extensions></trkpt>
      <trkpt lon="-3.343518" lat="54.552119"><ele>471.767181</ele><time>2021-08-12T10:31:49Z</time><extensions><speed>0.591621</speed><course>102.019516</course><hAcc>0.883271</hAcc><vAcc>0.711839</vAcc></extensions></trkpt>
      <trkpt lon="-3.343516" lat="54.552114"><ele>471.881561</ele><time>2021-08-12T10:31:50Z</time><extensions><speed>0.591274</speed><course>101.188896</course><hAcc>0.883283</hAcc><vAcc>0.711884</vAcc></extensions></trkpt>
      <trkpt lon="-3.343515" lat="54.552109"><ele>472.010712</ele><time>2021-08-12T10:31:51Z</time><extensions><speed>0.590040</speed><course>101.655106</course><hAcc>0.883307</hAcc><vAcc>0.711989</vAcc></extensions></trkpt>
      <trkpt lon="-3.343513" lat="54.552104"><ele>472.159088</ele><time>2021-08-12T10:31:52Z</time><extensions><speed>0.587655</speed><course>97.512695</course><hAcc>0.883341</hAcc><vAcc>0.712150</vAcc></extensions></trkpt>
      <trkpt lon="-3.343510" lat="54.552099"><ele>472.329224</ele><time>2021-08-12T10:31:53Z</time><extensions><speed>0.583933</speed><course>96.923676</course><hAcc>0.883384</hAcc><vAcc>0.712359</vAcc></extensions></trkpt>
      <trkpt lon="-3.343508" lat="54.552094"><ele>472.522064</ele><time>2021-08-12T10:31:54Z</time><extensions><speed>0.579656</speed><course>96.356850</course><hAcc>0.883432</hAcc><vAcc>0.712599</vAcc></extensions></trkpt>
      <trkpt lon="-3.343505" lat="54.552089"><ele>472.736816</ele><time>2021-08-12T10:31:55Z</time><extensions><speed>0.576429</speed><course>95.959724</course><hAcc>0.883483</hAcc><vAcc>0.712849</vAcc></extensions></trkpt>
      <trkpt lon="-3.343502" lat="54.552084"><ele>472.971008</ele><time>2021-08-12T10:31:56Z</time><extensions><speed>0.575481</speed><course>95.959717</course><hAcc>0.883534</hAcc><vAcc>0.713089</vAcc></extensions></trkpt>
      <trkpt lon="-3.343498" lat="54.552079"><ele>473.221741</ele><time>2021-08-12T10:31:57Z</time><extensions><speed>0.577836</speed><course>97.361824</course><hAcc>0.883581</hAcc><vAcc>0.713302</vAcc></extensions></trkpt>
      <trkpt lon="-3.343494" lat="54.552074"><ele>473.486664</ele><time>2021-08-12T10:31:58Z</time><extensions><speed>0.584578</speed><course>97.361824</course><hAcc>0.883622</hAcc><vAcc>0.713476</vAcc></extensions></trkpt>
      <trkpt lon="-3.343490" lat="54.552070"><ele>473.763184</ele><time>2021-08-12T10:31:59Z</time><extensions><speed>0.595973</speed><course>97.361809</course><hAcc>0.883654</hAcc><vAcc>0.713606</vAcc></extensions></trkpt>
      <trkpt lon="-3.343485" lat="54.552065"><ele>474.048004</ele><time>2021-08-12T10:32:00Z</time><extensions><speed>0.611003</speed><course>97.361801</course><hAcc>0.883677</hAcc><vAcc>0.713692</vAcc></extensions></trkpt>
      <trkpt lon="-3.343480" lat="54.552060"><ele>474.337097</ele><time>2021-08-12T10:32:01Z</time><extensions><speed>0.628131</speed><course>42.884136</course><hAcc>0.883689</hAcc><vAcc>0.713730</vAcc></extensions></trkpt>
      <trkpt lon="-3.343474" lat="54.552056"><ele>474.626099</ele><time>2021-08-12T10:32:02Z</time><extensions><speed>0.646285</speed><course>35.984764</course><hAcc>0.883693</hAcc><vAcc>0.713719</vAcc></extensions></trkpt>
      <trkpt lon="-3.343469" lat="54.552051"><ele>474.909821</ele><time>2021-08-12T10:32:03Z</time><extensions><speed>0.664667</speed><course>65.852417</course><hAcc>0.883691</hAcc><vAcc>0.713665</vAcc></extensions></trkpt>
      <trkpt lon="-3.343463" lat="54.552046"><ele>475.182587</ele><time>2021-08-12T10:32:04Z</time><extensions><speed>0.682599</speed><course>86.337746</course><hAcc>0.883684</hAcc><vAcc>0.713580</vAcc></extensions></trkpt>
      <trkpt lon="-3.343457" lat="54.552041"><ele>475.439423</ele><time>2021-08-12T10:32:05Z</time><extensions><speed>0.700077</speed><course>89.071770</course><hAcc>0.883677</hAcc><vAcc>0.713480</vAcc></extensions></trkpt>
      <trkpt lon="-3.343451" lat="54.552035"><ele>475.677490</ele><time>2021-08-12T10:32:06Z</time><extensions><speed>0.717301</speed><course>92.612312</course><hAcc>0.883670</hAcc><vAcc>0.713389</vAcc></extensions></trkpt>
      <trkpt lon="-3.343445" lat="54.552030"><ele>475.896759</ele><time>2021-08-12T10:32:07Z</time><extensions><speed>0.734047</speed><course>103.461632</course><hAcc>0.883668</hAcc><vAcc>0.713327</vAcc></extensions></trkpt>
      <trkpt lon="-3.343439" lat="54.552024"><ele>476.099335</ele><time>2021-08-12T10:32:08Z</time><extensions><speed>0.749826</speed><course>104.412865</course><hAcc>0.883672</hAcc><vAcc>0.713308</vAcc></extensions></trkpt>
      <trkpt lon="-3.343434" lat="54.552018"><ele>476.288544</ele><time>2021-08-12T10:32:09Z</time><extensions><speed>0.764485</speed><course>129.601685</course><hAcc>0.883685</hAcc><vAcc>0.713342</vAcc></extensions></trkpt>
      <trkpt lon="-3.343429" lat="54.552012"><ele>476.468109</ele><time>2021-08-12T10:32:10Z</time><extensions><speed>0.778064</speed><course>149.567169</course><hAcc>0.883706</hAcc><vAcc>0.713432</vAcc></extensions></trkpt>
      <trkpt lon="-3.343425" lat="54.552005"><ele>476.641998</ele><time>2021-08-12T10:32:11Z</time><extensions><speed>0.790793</speed><course>129.327728</course><hAcc>0.883736</hAcc><vAcc>0.713576</vAcc></extensions></trkpt>
      <trkpt lon="-3.343422" lat="54.551998"><ele>476.814240</ele><time>2021-08-12T10:32:12Z</time><extensions><speed>0.803194</speed><course>129.943619</course><hAcc>0.883774</hAcc><vAcc>0.713764</vAcc></extensions></trkpt>
      <trkpt lon="-3.343419" lat="54.551991"><ele>476.989563</ele><time>2021-08-12T10:32:13Z</time><extensions><speed>0.815373</speed><course>125.470825</course><hAcc>0.883819</hAcc><vAcc>0.713980</vAcc></extensions></trkpt>
      <trkpt lon="-3.343416" lat="54.551984"><ele>477.173309</ele><time>2021-08-12T10:32:14Z</time><extensions><speed>0.826892</speed><course>125.654007</course><hAcc>0.883868</hAcc><vAcc>0.714207</vAcc></extensions></trkpt>
      <trkpt lon="-3.343415" lat="54.551976"><ele>477.370392</ele><time>2021-08-12T10:32:15Z</time><extensions><speed>0.836832</speed><course>132.941208</course><hAcc>0.883920</hAcc><vAcc>0.714432</vAcc></extensions></trkpt>
      <trkpt lon="-3.343414" lat="54.551969"><ele>477.584381</ele><time>2021-08-12T10:32:16Z</time><extensions><speed>0.844285</speed><course>128.525970</course><hAcc>0.883972</hAcc><vAcc>0.714645</vAcc></extensions></trkpt>
      <trkpt lon="-3.343413" lat="54.551961"><ele>477.817413</ele><time>2021-08-12T10:32:17Z</time><extensions><speed>0.848601</speed><course>129.747040</course><hAcc>0.884020</hAcc><vAcc>0.714840</vAcc></extensions></trkpt>
      <trkpt lon="-3.343413" lat="54.551954"><ele>478.070282</ele><time>2021-08-12T10:32:18Z</time><extensions><speed>0.849348</speed><course>133.257645</course><hAcc>0.884063</hAcc><vAcc>0.715013</vAcc></extensions></trkpt>
      <trkpt lon="-3.343414" lat="54.551946"><ele>478.342041</ele><time>2021-08-12T10:32:19Z</time><extensions><speed>0.846651</speed><course>122.834160</course><hAcc>0.884098</hAcc><vAcc>0.715157</vAcc></extensions></trkpt>
      <trkpt lon="-3.343415" lat="54.551938"><ele>478.629852</ele><time>2021-08-12T10:32:20Z</time><extensions><speed>0.840806</speed><course>121.754723</course><hAcc>0.884125</hAcc><vAcc>0.715267</vAcc></extensions></trkpt>
      <trkpt lon="-3.343416" lat="54.551931"><ele>478.928955</ele><time>2021-08-12T10:32:21Z</time><extensions><speed>0.832448</speed><course>130.620087</course><hAcc>0.884142</hAcc><vAcc>0.715337</vAcc></extensions></trkpt>
      <trkpt lon="-3.343417" lat="54.551924"><ele>479.233215</ele><time>2021-08-12T10:32:22Z</time><extensions><speed>0.822512</speed><course>128.548019</course><hAcc>0.884150</hAcc><vAcc>0.715365</vAcc></extensions></trkpt>
      <trkpt lon="-3.343419" lat="54.551916"><ele>479.536163</ele><time>2021-08-12T10:32:23Z</time><extensions><speed>0.811884</speed><course>128.034912</course><hAcc>0.884147</hAcc><vAcc>0.715354</vAcc></extensions></trkpt>
      <trkpt lon="-3.343420" lat="54.551909"><ele>479.831818</ele><time>2021-08-12T10:32:24Z</time><extensions><speed>0.801145</speed><course>128.138321</course><hAcc>0.884134</hAcc><vAcc>0.715303</vAcc></extensions></trkpt>
      <trkpt lon="-3.343422" lat="54.551902"><ele>480.115265</ele><time>2021-08-12T10:32:25Z</time><extensions><speed>0.789900</speed><course>127.788391</course><hAcc>0.884113</hAcc><vAcc>0.715211</vAcc></extensions></trkpt>
      <trkpt lon="-3.343424" lat="54.551895"><ele>480.383606</ele><time>2021-08-12T10:32:26Z</time><extensions><speed>0.777499</speed><course>111.799332</course><hAcc>0.884085</hAcc><vAcc>0.715079</vAcc></extensions></trkpt>
      <trkpt lon="-3.343427" lat="54.551888"><ele>480.636444</ele><time>2021-08-12T10:32:27Z</time><extensions><speed>0.764153</speed><course>135.894547</course><hAcc>0.884050</hAcc><vAcc>0.714917</vAcc></extensions></trkpt>
      <trkpt lon="-3.343429" lat="54.551882"><ele>480.874664</ele><time>2021-08-12T10:32:28Z</time><extensions><speed>0.750431</speed><course>135.791443</course><hAcc>0.884011</hAcc><vAcc>0.714738</vAcc></extensions></trkpt>
      <trkpt lon="-3.343430" lat="54.551875"><ele>481.099121</ele><time>2021-08-12T10:32:29Z</time><extensions><speed>0.736416</speed><course>137.532547</course><hAcc>0.883966</hAcc><vAcc>0.714553</vAcc></extensions></trkpt>
      <trkpt lon="-3.343432" lat="54.551869"><ele>481.310394</ele><time>2021-08-12T10:32:30Z</time><extensions><speed>0.721973</speed><course>139.503952</course><hAcc>0.883918</hAcc><vAcc>0.714367</vAcc></extensions></trkpt>
      <trkpt lon="-3.343433" lat="54.551862"><ele>481.509125</ele><time>2021-08-12T10:32:31Z</time><extensions><speed>0.707294</speed><course>146.422607</course><hAcc>0.883868</hAcc><vAcc>0.714183</vAcc></extensions></trkpt>
      <trkpt lon="-3.343435" lat="54.551856"><ele>481.696533</ele><time>2021-08-12T10:32:32Z</time><extensions><speed>0.693028</speed><course>123.702354</course><hAcc>0.883815</hAcc><vAcc>0.714000</vAcc></extensions></trkpt>
      <trkpt lon="-3.343435" lat="54.551850"><ele>481.874054</ele><time>2021-08-12T10:32:33Z</time><extensions><speed>0.679558</speed><course>126.795586</course><hAcc>0.883761</hAcc><vAcc>0.713817</vAcc></extensions></trkpt>
      <trkpt lon="-3.343435" lat="54.551844"><ele>482.042419</ele><time>2021-08-12T10:32:34Z</time><extensions><speed>0.666799</speed><course>132.239441</course><hAcc>0.883705</hAcc><vAcc>0.713631</vAcc></extensions></trkpt>
      <trkpt lon="-3.343435" lat="54.551838"><ele>482.201508</ele><time>2021-08-12T10:32:35Z</time><extensions><speed>0.655132</speed><course>129.200668</course><hAcc>0.883649</hAcc><vAcc>0.713437</vAcc></extensions></trkpt>
      <trkpt lon="-3.343434" lat="54.551832"><ele>482.350952</ele><time>2021-08-12T10:32:36Z</time><extensions><speed>0.645419</speed><course>125.122314</course><hAcc>0.883592</hAcc><vAcc>0.713232</vAcc></extensions></trkpt>
      <trkpt lon="-3.343432" lat="54.551826"><ele>482.490723</ele><time>2021-08-12T10:32:37Z</time><extensions><speed>0.638669</speed><course>136.265396</course><hAcc>0.883535</hAcc><vAcc>0.713017</vAcc></extensions></trkpt>
      <trkpt lon="-3.343430" lat="54.551821"><ele>482.620819</ele><time>2021-08-12T10:32:38Z</time><extensions><speed>0.635767</speed><course>135.687027</course><hAcc>0.883479</hAcc><vAcc>0.712795</vAcc></extensions></trkpt>
      <trkpt lon="-3.343427" lat="54.551815"><ele>482.740906</ele><time>2021-08-12T10:32:39Z</time><extensions><speed>0.637339</speed><course>134.189224</course><hAcc>0.883424</hAcc><vAcc>0.712570</vAcc></extensions></trkpt>
      <trkpt lon="-3.343423" lat="54.551810"><ele>482.850281</ele><time>2021-08-12T10:32:40Z</time><extensions><speed>0.643897</speed><course>130.213623</course><hAcc>0.883371</hAcc><vAcc>0.712351</vAcc></extensions></trkpt>
      <trkpt lon="-3.343418" lat="54.551805"><ele>482.948273</ele><time>2021-08-12T10:32:41Z</time><extensions><speed>0.655389</speed><course>131.249283</course><hAcc>0.883320</hAcc><vAcc>0.712147</vAcc></extensions></trkpt>
      <trkpt lon="-3.343412" lat="54.551800"><ele>483.034546</ele><time>2021-08-12T10:32:42Z</time><extensions><speed>0.671134</speed><course>132.412170</course><hAcc>0.883274</hAcc><vAcc>0.711964</vAcc></extensions></trkpt>
      <trkpt lon="-3.343406" lat="54.551795"><ele>483.109497</ele><time>2021-08-12T10:32:43Z</time><extensions><speed>0.690236</speed><course>141.387543</course><hAcc>0.883231</hAcc><vAcc>0.711807</vAcc></extensions></trkpt>
      <trkpt lon="-3.343400" lat="54.551790"><ele>483.174377</ele><time>2021-08-12T10:32:44Z</time><extensions><speed>0.712054</speed><course>147.693329</course><hAcc>0.883194</hAcc><vAcc>0.711676</vAcc></extensions></trkpt>
      <trkpt lon="-3.343392" lat="54.551785"><ele>483.230865</ele><time>2021-08-12T10:32:45Z</time><extensions><speed>0.736088</speed><course>150.557755</course><hAcc>0.883161</hAcc><vAcc>0.711573</vAcc></extensions></trkpt>
      <trkpt lon="-3.343384" lat="54.551780"><ele>483.280884</ele><time>2021-08-12T10:32:46Z</time><extensions><speed>0.761379</speed><course>146.167221</course><hAcc>0.883133</hAcc><vAcc>0.711497</vAcc></extensions></trkpt>
      <trkpt lon="-3.343375" lat="54.551775"><ele>483.326233</ele><time>2021-08-12T10:32:47Z</time><extensions><speed>0.786649</speed><course>148.113663</course><hAcc>0.883111</hAcc><vAcc>0.711440</vAcc></extensions></trkpt>
      <trkpt lon="-3.343366" lat="54.551771"><ele>483.368805</ele><time>2021-08-12T10:32:48Z</time><extensions><speed>0.810913</speed><course>138.101883</course><hAcc>0.883094</hAcc><vAcc>0.711392</vAcc></extensions></trkpt>
      <trkpt lon="-3.343357" lat="54.551766"><ele>483.411530</ele><time>2021-08-12T10:32:49Z</time><extensions><speed>0.833280</speed><course>142.914612</course><hAcc>0.883085</hAcc><vAcc>0.711346</vAcc></extensions></trkpt>
      <trkpt lon="-3.343347" lat="54.551761"><ele>483.457581</ele><time>2021-08-12T10:32:50Z</time><extensions><speed>0.852303</speed><course>148.048096</course><hAcc>0.883082</hAcc><vAcc>0.711304</vAcc></extensions></trkpt>
      <trkpt lon="-3.343337" lat="54.551756"><ele>483.509674</ele><time>2021-08-12T10:32:51Z</time><extensions><speed>0.866651</speed><course>151.450607</course><hAcc>0.883087</hAcc><vAcc>0.711277</vAcc></extensions></trkpt>
      <trkpt lon="-3.343327" lat="54.551750"><ele>483.569885</ele><time>2021-08-12T10:32:52Z</time><extensions><speed>0.876096</speed><course>136.771103</course><hAcc>0.883100</hAcc><vAcc>0.711280</vAcc></extensions></trkpt>
      <trkpt lon="-3.343318" lat="54.551745"><ele>483.639771</ele><time>2021-08-12T10:32:53Z</time><extensions><speed>0.880904</speed><course>141.808670</course><hAcc>0.883119</hAcc><vAcc>0.711328</vAcc></extensions></trkpt>
      <trkpt lon="-3.343308" lat="54.551739"><ele>483.721039</ele><time>2021-08-12T10:32:54Z</time><extensions><speed>0.881053</speed><course>141.991776</course><hAcc>0.883145</hAcc><vAcc>0.711429</vAcc></extensions></trkpt>
      <trkpt lon="-3.343300" lat="54.551733"><ele>483.815979</ele><time>2021-08-12T10:32:55Z</time><extensions><speed>0.877598</speed><course>158.861435</course><hAcc>0.883178</hAcc><vAcc>0.711579</vAcc></extensions></trkpt>
      <trkpt lon="-3.343292" lat="54.551726"><ele>483.926208</ele><time>2021-08-12T10:32:56Z</time><extensions><speed>0.872925</speed><course>158.142120</course><hAcc>0.883214</hAcc><vAcc>0.711767</vAcc></extensions></trkpt>
      <trkpt lon="-3.343285" lat="54.551720"><ele>484.052887</ele><time>2021-08-12T10:32:57Z</time><extensions><speed>0.868838</speed><course>156.536041</course><hAcc>0.883254</hAcc><vAcc>0.711977</vAcc></extensions></trkpt>
      <trkpt lon="-3.343279" lat="54.551713"><ele>484.197021</ele><time>2021-08-12T10:32:58Z</time><extensions><speed>0.865950</speed><course>138.496033</course><hAcc>0.883296</hAcc><vAcc>0.712187</vAcc></extensions></trkpt>
      <trkpt lon="-3.343274" lat="54.551706"><ele>484.359192</ele><time>2021-08-12T10:32:59Z</time><extensions><speed>0.864279</speed><course>156.669647</course><hAcc>0.883339</hAcc><vAcc>0.712380</vAcc></extensions></trkpt>
      <trkpt lon="-3.343269" lat="54.551698"><ele>484.539429</ele><time>2021-08-12T10:33:00Z</time><extensions><speed>0.863598</speed><course>143.929214</course><hAcc>0.883380</hAcc><vAcc>0.712543</vAcc></extensions></trkpt>
      <trkpt lon="-3.343266" lat="54.551691"><ele>484.736938</ele><time>2021-08-12T10:33:01Z</time><extensions><speed>0.863493</speed><course>154.114960</course><hAcc>0.883419</hAcc><vAcc>0.712673</vAcc></extensions></trkpt>
      <trkpt lon="-3.343264" lat="54.551683"><ele>484.950012</ele><time>2021-08-12T10:33:02Z</time><extensions><speed>0.863415</speed><course>157.737396</course><hAcc>0.883454</hAcc><vAcc>0.712773</vAcc></extensions></trkpt>
      <trkpt lon="-3.343262" lat="54.551675"><ele>485.176453</ele><time>2021-08-12T10:33:03Z</time><extensions><speed>0.862929</speed><course>156.437073</course><hAcc>0.883485</hAcc><vAcc>0.712851</vAcc></extensions></trkpt>
      <trkpt lon="-3.343261" lat="54.551668"><ele>485.413818</ele><time>2021-08-12T10:33:04Z</time><extensions><speed>0.862067</speed><course>159.749420</course><hAcc>0.883512</hAcc><vAcc>0.712915</vAcc></extensions></trkpt>
      <trkpt lon="-3.343260" lat="54.551660"><ele>485.659393</ele><time>2021-08-12T10:33:05Z</time><extensions><speed>0.860874</speed><course>156.029541</course><hAcc>0.883534</hAcc><vAcc>0.712974</vAcc></extensions></trkpt>
      <trkpt lon="-3.343260" lat="54.551652"><ele>485.910156</ele><time>2021-08-12T10:33:06Z</time><extensions><speed>0.858986</speed><course>159.049896</course><hAcc>0.883552</hAcc><vAcc>0.713032</vAcc></extensions></trkpt>
      <trkpt lon="-3.343260" lat="54.551645"><ele>486.163269</ele><time>2021-08-12T10:33:07Z</time><extensions><speed>0.856156</speed><course>154.355942</course><hAcc>0.883565</hAcc><vAcc>0.713088</vAcc></extensions></trkpt>
      <trkpt lon="-3.343260" lat="54.551637"><ele>486.416199</ele><time>2021-08-12T10:33:08Z</time><extensions><speed>0.852996</speed><course>162.710571</course><hAcc>0.883572</hAcc><vAcc>0.713136</vAcc></extensions></trkpt>
      <trkpt lon="-3.343260" lat="54.551629"><ele>486.666840</ele><time>2021-08-12T10:33:09Z</time><extensions><speed>0.850200</speed><course>161.899368</course><hAcc>0.883573</hAcc><vAcc>0.713171</vAcc></extensions></trkpt>
      <trkpt lon="-3.343261" lat="54.551622"><ele>486.913635</ele><time>2021-08-12T10:33:10Z</time><extensions><speed>0.847490</speed><course>160.656769</course><hAcc>0.883567</hAcc><vAcc>0.713184</vAcc></extensions></trkpt>
      <trkpt lon="-3.343262" lat="54.551614"><ele>487.156036</ele><time>2021-08-12T10:33:11Z</time><extensions><speed>0.844314</speed><course>152.471558</course><hAcc>0.883550</hAcc><vAcc>0.713166</vAcc></extensions></trkpt>
      <trkpt lon="-3.343262" lat="54.551607"><ele>487.394012</ele><time>2021-08-12T10:33:12Z</time><extensions><speed>0.840440</speed><course>148.255112</course><hAcc>0.883522</hAcc><vAcc>0.713108</vAcc></extensions></trkpt>
      <trkpt lon="-3.343263" lat="54.551599"><ele>487.627655</ele><time>2021-08-12T10:33:13Z</time><extensions><speed>0.835993</speed><course>153.394714</course><hAcc>0.883481</hAcc><vAcc>0.712999</vAcc></extensions></trkpt>
      <trkpt lon="-3.343263" lat="54.551592"><ele>487.856964</ele><time>2021-08-12T10:33:14Z</time><extensions><speed>0.831037</speed><course>156.943573</course><hAcc>0.883427</hAcc><vAcc>0.712830</vAcc></extensions></trkpt>
      <trkpt lon="-3.343264" lat="54.551584"><ele>488.081604</ele><time>2021-08-12T10:33:15Z</time><extensions><speed>0.825582</speed><course>159.515564</course><hAcc>0.883360</hAcc><vAcc>0.712594</vAcc></extensions></trkpt>
      <trkpt lon="-3.343264" lat="54.551577"><ele>488.300720</ele><time>2021-08-12T10:33:16Z</time><extensions><speed>0.820011</speed><course>158.540283</course><hAcc>0.883280</hAcc><vAcc>0.712289</vAcc></extensions></trkpt>
      <trkpt lon="-3.343264" lat="54.551569"><ele>488.513428</ele><time>2021-08-12T10:33:17Z</time><extensions><speed>0.814880</speed><course>153.751312</course><hAcc>0.883190</hAcc><vAcc>0.711919</vAcc></extensions></trkpt>
      <trkpt lon="-3.343265" lat="54.551562"><ele>488.718933</ele><time>2021-08-12T10:33:18Z</time><extensions><speed>0.810419</speed><course>159.795258</course><hAcc>0.883093</hAcc><vAcc>0.711498</vAcc></extensions></trkpt>
      <trkpt lon="-3.343265" lat="54.551555"><ele>488.916321</ele><time>2021-08-12T10:33:19Z</time><extensions><speed>0.806801</speed><course>158.187424</course><hAcc>0.882990</hAcc><vAcc>0.711048</vAcc></extensions></trkpt>
      <trkpt lon="-3.343265" lat="54.551548"><ele>489.104492</ele><time>2021-08-12T10:33:20Z</time><extensions><speed>0.804693</speed><course>160.275116</course><hAcc>0.882887</hAcc><vAcc>0.710591</vAcc></extensions></trkpt>
      <trkpt lon="-3.343264" lat="54.551540"><ele>489.282715</ele><time>2021-08-12T10:33:21Z</time><extensions><speed>0.804704</speed><course>156.643036</course><hAcc>0.882785</hAcc><vAcc>0.710155</vAcc></extensions></trkpt>
      <trkpt lon="-3.343264" lat="54.551533"><ele>489.450562</ele><time>2021-08-12T10:33:22Z</time><extensions><speed>0.807182</speed><course>162.614395</course><hAcc>0.882690</hAcc><vAcc>0.709761</vAcc></extensions></trkpt>
      <trkpt lon="-3.343264" lat="54.551526"><ele>489.607941</ele><time>2021-08-12T10:33:23Z</time><extensions><speed>0.812543</speed><course>162.054535</course><hAcc>0.882603</hAcc><vAcc>0.709425</vAcc></extensions></trkpt>
      <trkpt lon="-3.343263" lat="54.551518"><ele>489.754852</ele><time>2021-08-12T10:33:24Z</time><extensions><speed>0.820801</speed><course>177.342987</course><hAcc>0.882527</hAcc><vAcc>0.709153</vAcc></extensions></trkpt>
      <trkpt lon="-3.343262" lat="54.551511"><ele>489.891998</ele><time>2021-08-12T10:33:25Z</time><extensions><speed>0.831942</speed><course>172.891953</course><hAcc>0.882463</hAcc><vAcc>0.708942</vAcc></extensions></trkpt>
      <trkpt lon="-3.343261" lat="54.551504"><ele>490.021332</ele><time>2021-08-12T10:33:26Z</time><extensions><speed>0.845802</speed><course>169.984741</course><hAcc>0.882413</hAcc><vAcc>0.708783</vAcc></extensions></trkpt>
      <trkpt lon="-3.343260" lat="54.551496"><ele>490.145386</ele><time>2021-08-12T10:33:27Z</time><extensions><speed>0.861070</speed><course>166.246048</course><hAcc>0.882377</hAcc><vAcc>0.708670</vAcc></extensions></trkpt>
      <trkpt lon="-3.343259" lat="54.551488"><ele>490.266418</ele><time>2021-08-12T10:33:28Z</time><extensions><speed>0.876290</speed><course>166.762161</course><hAcc>0.882354</hAcc><vAcc>0.708595</vAcc></extensions></trkpt>
      <trkpt lon="-3.343257" lat="54.551480"><ele>490.386292</ele><time>2021-08-12T10:33:29Z</time><extensions><speed>0.890861</speed><course>163.016708</course><hAcc>0.882343</hAcc><vAcc>0.708557</vAcc></extensions></trkpt>
      <trkpt lon="-3.343255" lat="54.551472"><ele>490.506531</ele><time>2021-08-12T10:33:30Z</time><extensions><speed>0.904619</speed><course>159.079727</course><hAcc>0.882343</hAcc><vAcc>0.708556</vAcc></extensions></trkpt>
      <trkpt lon="-3.343253" lat="54.551464"><ele>490.627991</ele><time>2021-08-12T10:33:31Z</time><extensions><speed>0.917280</speed><course>160.816132</course><hAcc>0.882352</hAcc><vAcc>0.708596</vAcc></extensions></trkpt>
      <trkpt lon="-3.343251" lat="54.551456"><ele>490.751465</ele><time>2021-08-12T10:33:32Z</time><extensions><speed>0.928794</speed><course>163.227844</course><hAcc>0.882366</hAcc><vAcc>0.708677</vAcc></extensions></trkpt>
      <trkpt lon="-3.343249" lat="54.551448"><ele>490.877563</ele><time>2021-08-12T10:33:33Z</time><extensions><speed>0.939394</speed><course>152.149902</course><hAcc>0.882384</hAcc><vAcc>0.708790</vAcc></extensions></trkpt>
      <trkpt lon="-3.343246" lat="54.551439"><ele>491.006836</ele><time>2021-08-12T10:33:34Z</time><extensions><speed>0.948942</speed><course>159.582550</course><hAcc>0.882403</hAcc><vAcc>0.708917</vAcc></extensions></trkpt>
      <trkpt lon="-3.343244" lat="54.551431"><ele>491.139923</ele><time>2021-08-12T10:33:35Z</time><extensions><speed>0.956945</speed><course>159.987671</course><hAcc>0.882420</hAcc><vAcc>0.709039</vAcc></extensions></trkpt>
      <trkpt lon="-3.343241" lat="54.551422"><ele>491.277954</ele><time>2021-08-12T10:33:36Z</time><extensions><speed>0.963052</speed><course>163.105835</course><hAcc>0.882433</hAcc><vAcc>0.709134</vAcc></extensions></trkpt>
      <trkpt lon="-3.343238" lat="54.551414"><ele>491.421906</ele><time>2021-08-12T10:33:37Z</time><extensions><speed>0.967560</speed><course>160.869598</course><hAcc>0.882440</hAcc><vAcc>0.709185</vAcc></extensions></trkpt>
      <trkpt lon="-3.343236" lat="54.551405"><ele>491.572052</ele><time>2021-08-12T10:33:38Z</time><extensions><speed>0.971043</speed><course>172.028473</course><hAcc>0.882440</hAcc><vAcc>0.709181</vAcc></extensions></trkpt>
      <trkpt lon="-3.343233" lat="54.551397"><ele>491.727905</ele><time>2021-08-12T10:33:39Z</time><extensions><speed>0.973703</speed><course>182.583130</course><hAcc>0.882432</hAcc><vAcc>0.709123</vAcc></extensions></trkpt>
      <trkpt lon="-3.343231" lat="54.551388"><ele>491.888763</ele><time>2021-08-12T10:33:40Z</time><extensions><speed>0.975334</speed><course>175.623672</course><hAcc>0.882415</hAcc><vAcc>0.709023</vAcc></extensions></trkpt>
      <trkpt lon="-3.343229" lat="54.551379"><ele>492.053467</ele><time>2021-08-12T10:33:41Z</time><extensions><speed>0.975717</speed><course>168.997635</course><hAcc>0.882389</hAcc><vAcc>0.708894</vAcc></extensions></trkpt>
      <trkpt lon="-3.343226" lat="54.551371"><ele>492.220734</ele><time>2021-08-12T10:33:42Z</time><extensions><speed>0.974995</speed><course>166.227890</course><hAcc>0.882353</hAcc><vAcc>0.708746</vAcc></extensions></trkpt>
      <trkpt lon="-3.343224" lat="54.551362"><ele>492.389526</ele><time>2021-08-12T10:33:43Z</time><extensions><speed>0.972984</speed><course>162.222458</course><hAcc>0.882309</hAcc><vAcc>0.708588</vAcc></extensions></trkpt>
      <trkpt lon="-3.343222" lat="54.551353"><ele>492.559265</ele><time>2021-08-12T10:33:44Z</time><extensions><speed>0.969289</speed><course>162.553314</course><hAcc>0.882258</hAcc><vAcc>0.708416</vAcc></extensions></trkpt>
      <trkpt lon="-3.343221" lat="54.551345"><ele>492.730133</ele><time>2021-08-12T10:33:45Z</time><extensions><speed>0.964180</speed><course>165.735123</course><hAcc>0.882201</hAcc><vAcc>0.708226</vAcc></extensions></trkpt>
      <trkpt lon="-3.343220" lat="54.551336"><ele>492.903259</ele><time>2021-08-12T10:33:46Z</time><extensions><speed>0.958259</speed><course>166.317276</course><hAcc>0.882139</hAcc><vAcc>0.708011</vAcc></extensions></trkpt>
      <trkpt lon="-3.343219" lat="54.551328"><ele>493.080261</ele><time>2021-08-12T10:33:47Z</time><extensions><speed>0.951782</speed><course>164.590683</course><hAcc>0.882074</hAcc><vAcc>0.707769</vAcc></extensions></trkpt>
      <trkpt lon="-3.343219" lat="54.551319"><ele>493.262421</ele><time>2021-08-12T10:33:48Z</time><extensions><speed>0.944601</speed><course>167.304306</course><hAcc>0.882008</hAcc><vAcc>0.707503</vAcc></extensions></trkpt>
      <trkpt lon="-3.343219" lat="54.551311"><ele>493.450378</ele><time>2021-08-12T10:33:49Z</time><extensions><speed>0.936354</speed><course>166.209152</course><hAcc>0.881943</hAcc><vAcc>0.707223</vAcc></extensions></trkpt>
      <trkpt lon="-3.343219" lat="54.551302"><ele>493.644348</ele><time>2021-08-12T10:33:50Z</time><extensions><speed>0.926277</speed><course>170.985672</course><hAcc>0.881882</hAcc><vAcc>0.706944</vAcc></extensions></trkpt>
      <trkpt lon="-3.343220" lat="54.551294"><ele>493.844391</ele><time>2021-08-12T10:33:51Z</time><extensions><speed>0.913579</speed><course>170.155151</course><hAcc>0.881827</hAcc><vAcc>0.706685</vAcc></extensions></trkpt>
      <trkpt lon="-3.343220" lat="54.551286"><ele>494.050598</ele><time>2021-08-12T10:33:52Z</time><extensions><speed>0.897666</speed><course>173.270996</course><hAcc>0.881779</hAcc><vAcc>0.706465</vAcc></extensions></trkpt>
      <trkpt lon="-3.343221" lat="54.551278"><ele>494.262878</ele><time>2021-08-12T10:33:53Z</time><extensions><speed>0.878359</speed><course>158.977570</course><hAcc>0.881740</hAcc><vAcc>0.706298</vAcc></extensions></trkpt>
      <trkpt lon="-3.343221" lat="54.551270"><ele>494.481079</ele><time>2021-08-12T10:33:54Z</time><extensions><speed>0.856020</speed><course>154.473984</course><hAcc>0.881710</hAcc><vAcc>0.706195</vAcc></extensions></trkpt>
      <trkpt lon="-3.343221" lat="54.551263"><ele>494.704773</ele><time>2021-08-12T10:33:55Z</time><extensions><speed>0.830981</speed><course>159.955185</course><hAcc>0.881688</hAcc><vAcc>0.706152</vAcc></extensions></trkpt>
      <trkpt lon="-3.343221" lat="54.551255"><ele>494.933624</ele><time>2021-08-12T10:33:56Z</time><extensions><speed>0.803465</speed><course>153.408218</course><hAcc>0.881673</hAcc><vAcc>0.706157</vAcc></extensions></trkpt>
      <trkpt lon="-3.343221" lat="54.551248"><ele>495.167328</ele><time>2021-08-12T10:33:57Z</time><extensions><speed>0.773722</speed><course>151.142990</course><hAcc>0.881663</hAcc><vAcc>0.706187</vAcc></extensions></trkpt>
      <trkpt lon="-3.343220" lat="54.551241"><ele>495.405701</ele><time>2021-08-12T10:33:58Z</time><extensions><speed>0.742704</speed><course>153.658844</course><hAcc>0.881653</hAcc><vAcc>0.706220</vAcc></extensions></trkpt>
      <trkpt lon="-3.343219" lat="54.551235"><ele>495.648407</ele><time>2021-08-12T10:33:59Z</time><extensions><speed>0.711983</speed><course>151.540298</course><hAcc>0.881642</hAcc><vAcc>0.706236</vAcc></extensions></trkpt>
      <trkpt lon="-3.343218" lat="54.551229"><ele>495.894897</ele><time>2021-08-12T10:34:00Z</time><extensions><speed>0.682619</speed><course>151.542770</course><hAcc>0.881626</hAcc><vAcc>0.706218</vAcc></extensions></trkpt>
      <trkpt lon="-3.343217" lat="54.551223"><ele>496.144531</ele><time>2021-08-12T10:34:01Z</time><extensions><speed>0.654553</speed><course>151.184875</course><hAcc>0.881603</hAcc><vAcc>0.706156</vAcc></extensions></trkpt>
      <trkpt lon="-3.343216" lat="54.551217"><ele>496.396759</ele><time>2021-08-12T10:34:02Z</time><extensions><speed>0.627309</speed><course>148.009705</course><hAcc>0.881573</hAcc><vAcc>0.706045</vAcc></extensions></trkpt>
      <trkpt lon="-3.343215" lat="54.551211"><ele>496.650848</ele><time>2021-08-12T10:34:03Z</time><extensions><speed>0.601124</speed><course>151.132050</course><hAcc>0.881534</hAcc><vAcc>0.705888</vAcc></extensions></trkpt>
      <trkpt lon="-3.343214" lat="54.551206"><ele>496.905640</ele><time>2021-08-12T10:34:04Z</time><extensions><speed>0.576438</speed><course>147.416718</course><hAcc>0.881489</hAcc><vAcc>0.705689</vAcc></extensions></trkpt>
      <trkpt lon="-3.343213" lat="54.551201"><ele>497.159454</ele><time>2021-08-12T10:34:05Z</time><extensions><speed>0.553894</speed><course>145.946671</course><hAcc>0.881439</hAcc><vAcc>0.705457</vAcc></extensions></trkpt>
      <trkpt lon="-3.343212" lat="54.551196"><ele>497.410278</ele><time>2021-08-12T10:34:06Z</time><extensions><speed>0.534161</speed><course>158.213196</course><hAcc>0.881387</hAcc><vAcc>0.705208</vAcc></extensions></trkpt>
      <trkpt lon="-3.343212" lat="54.551192"><ele>497.656311</ele><time>2021-08-12T10:34:07Z</time><extensions><speed>0.517308</speed><course>165.532318</course><hAcc>0.881338</hAcc><vAcc>0.704967</vAcc></extensions></trkpt>
      <trkpt lon="-3.343213" lat="54.551187"><ele>497.896332</ele><time>2021-08-12T10:34:08Z</time><extensions><speed>0.503240</speed><course>155.828384</course><hAcc>0.881295</hAcc><vAcc>0.704759</vAcc></extensions></trkpt>
      <trkpt lon="-3.343213" lat="54.551182"><ele>498.129791</ele><time>2021-08-12T10:34:09Z</time><extensions><speed>0.491901</speed><course>158.510941</course><hAcc>0.881260</hAcc><vAcc>0.704600</vAcc></extensions></trkpt>
      <trkpt lon="-3.343214" lat="54.551178"><ele>498.356659</ele><time>2021-08-12T10:34:10Z</time><extensions><speed>0.483094</speed><course>158.599030</course><hAcc>0.881239</hAcc><vAcc>0.704497</vAcc></extensions></trkpt>
      <trkpt lon="-3.343215" lat="54.551174"><ele>498.577179</ele><time>2021-08-12T10:34:11Z</time><extensions><speed>0.476713</speed><course>159.122437</course><hAcc>0.881233</hAcc><vAcc>0.704454</vAcc></extensions></trkpt>
      <trkpt lon="-3.343217" lat="54.551170"><ele>498.791504</ele><time>2021-08-12T10:34:12Z</time><extensions><speed>0.472922</speed><course>161.654770</course><hAcc>0.881244</hAcc><vAcc>0.704480</vAcc></extensions></trkpt>
      <trkpt lon="-3.343218" lat="54.551166"><ele>498.999390</ele><time>2021-08-12T10:34:13Z</time><extensions><speed>0.471570</speed><course>168.809372</course><hAcc>0.881274</hAcc><vAcc>0.704583</vAcc></extensions></trkpt>
      <trkpt lon="-3.343219" lat="54.551161"><ele>499.200623</ele><time>2021-08-12T10:34:14Z</time><extensions><speed>0.472029</speed><course>164.604691</course><hAcc>0.881322</hAcc><vAcc>0.704769</vAcc></extensions></trkpt>
      <trkpt lon="-3.343220" lat="54.551157"><ele>499.394653</ele><time>2021-08-12T10:34:15Z</time><extensions><speed>0.473488</speed><course>171.894135</course><hAcc>0.881387</hAcc><vAcc>0.705036</vAcc></extensions></trkpt>
      <trkpt lon="-3.343221" lat="54.551153"><ele>499.580536</ele><time>2021-08-12T10:34:16Z</time><extensions><speed>0.475917</speed><course>183.275330</course><hAcc>0.881467</hAcc><vAcc>0.705368</vAcc></extensions></trkpt>
      <trkpt lon="-3.343222" lat="54.551149"><ele>499.757507</ele><time>2021-08-12T10:34:17Z</time><extensions><speed>0.480125</speed><course>184.743423</course><hAcc>0.881560</hAcc><vAcc>0.705749</vAcc></extensions></trkpt>
      <trkpt lon="-3.343222" lat="54.551144"><ele>499.926025</ele><time>2021-08-12T10:34:18Z</time><extensions><speed>0.486701</speed><course>187.377213</course><hAcc>0.881662</hAcc><vAcc>0.706162</vAcc></extensions></trkpt>
      <trkpt lon="-3.343222" lat="54.551140"><ele>500.086792</ele><time>2021-08-12T10:34:19Z</time><extensions><speed>0.495590</speed><course>178.027603</course><hAcc>0.881771</hAcc><vAcc>0.706593</vAcc></extensions></trkpt>
      <trkpt lon="-3.343221" lat="54.551135"><ele>500.239685</ele><time>2021-08-12T10:34:20Z</time><extensions><speed>0.505932</speed><course>178.136368</course><hAcc>0.881882</hAcc><vAcc>0.707028</vAcc></extensions></trkpt>
      <trkpt lon="-3.343220" lat="54.551131"><ele>500.384491</ele><time>2021-08-12T10:34:21Z</time><extensions><speed>0.516025</speed><course>181.274490</course><hAcc>0.881992</hAcc><vAcc>0.707456</vAcc></extensions></trkpt>
      <trkpt lon="-3.343218" lat="54.551126"><ele>500.522156</ele><time>2021-08-12T10:34:22Z</time><extensions><speed>0.523952</speed><course>197.035065</course><hAcc>0.882097</hAcc><vAcc>0.707862</vAcc></extensions></trkpt>
      <trkpt lon="-3.343216" lat="54.551122"><ele>500.654633</ele><time>2021-08-12T10:34:23Z</time><extensions><speed>0.528818</speed><course>204.692612</course><hAcc>0.882195</hAcc><vAcc>0.708237</vAcc></extensions></trkpt>
      <trkpt lon="-3.343215" lat="54.551117"><ele>500.783936</ele><time>2021-08-12T10:34:24Z</time><extensions><speed>0.530657</speed><course>213.039078</course><hAcc>0.882282</hAcc><vAcc>0.708574</vAcc></extensions></trkpt>
      <trkpt lon="-3.343213" lat="54.551112"><ele>500.911469</ele><time>2021-08-12T10:34:25Z</time><extensions><speed>0.529725</speed><course>220.763565</course><hAcc>0.882355</hAcc><vAcc>0.708868</vAcc></extensions></trkpt>
      <trkpt lon="-3.343212" lat="54.551108"><ele>501.037964</ele><time>2021-08-12T10:34:26Z</time><extensions><speed>0.526415</speed><course>226.732666</course><hAcc>0.882413</hAcc><vAcc>0.709111</vAcc></extensions></trkpt>
      <trkpt lon="-3.343210" lat="54.551103"><ele>501.163818</ele><time>2021-08-12T10:34:27Z</time><extensions><speed>0.521244</speed><course>231.810226</course><hAcc>0.882454</hAcc><vAcc>0.709294</vAcc></extensions></trkpt>
      <trkpt lon="-3.343209" lat="54.551098"><ele>501.289154</ele><time>2021-08-12T10:34:28Z</time><extensions><speed>0.514852</speed><course>257.258179</course><hAcc>0.882479</hAcc><vAcc>0.709404</vAcc></extensions></trkpt>
      <trkpt lon="-3.343208" lat="54.551094"><ele>501.413696</ele><time>2021-08-12T10:34:29Z</time><extensions><speed>0.507903</speed><course>266.164734</course><hAcc>0.882487</hAcc><vAcc>0.709437</vAcc></extensions></trkpt>
      <trkpt lon="-3.343208" lat="54.551089"><ele>501.536957</ele><time>2021-08-12T10:34:30Z</time><extensions><speed>0.500995</speed><course>266.164734</course><hAcc>0.882482</hAcc><vAcc>0.709392</vAcc></extensions></trkpt>
      <trkpt lon="-3.343207" lat="54.551085"><ele>501.658173</ele><time>2021-08-12T10:34:31Z</time><extensions><speed>0.494439</speed><course>266.164734</course><hAcc>0.882465</hAcc><vAcc>0.709279</vAcc></extensions></trkpt>
      <trkpt lon="-3.343207" lat="54.551080"><ele>501.776855</ele><time>2021-08-12T10:34:32Z</time><extensions><speed>0.488552</speed><course>220.132019</course><hAcc>0.882441</hAcc><vAcc>0.709114</vAcc></extensions></trkpt>
      <trkpt lon="-3.343207" lat="54.551076"><ele>501.892883</ele><time>2021-08-12T10:34:33Z</time><extensions><speed>0.483692</speed><course>228.232590</course><hAcc>0.882414</hAcc><vAcc>0.708921</vAcc></extensions></trkpt>
      <trkpt lon="-3.343207" lat="54.551072"><ele>502.006012</ele><time>2021-08-12T10:34:34Z</time><extensions><speed>0.480057</speed><course>234.079605</course><hAcc>0.882388</hAcc><vAcc>0.708730</vAcc></extensions></trkpt>
      <trkpt lon="-3.343208" lat="54.551068"><ele>502.115265</ele><time>2021-08-12T10:34:35Z</time><extensions><speed>0.477597</speed><course>246.469162</course><hAcc>0.882370</hAcc><vAcc>0.708573</vAcc></extensions></trkpt>
      <trkpt lon="-3.343208" lat="54.551063"><ele>502.218475</ele><time>2021-08-12T10:34:36Z</time><extensions><speed>0.476707</speed><course>245.207291</course><hAcc>0.882362</hAcc><vAcc>0.708484</vAcc></extensions></trkpt>
      <trkpt lon="-3.343209" lat="54.551059"><ele>502.313293</ele><time>2021-08-12T10:34:37Z</time><extensions><speed>0.478489</speed><course>243.898834</course><hAcc>0.882369</hAcc><vAcc>0.708490</vAcc></extensions></trkpt>
      <trkpt lon="-3.343210" lat="54.551055"><ele>502.397949</ele><time>2021-08-12T10:34:38Z</time><extensions><speed>0.484144</speed><course>238.112976</course><hAcc>0.882392</hAcc><vAcc>0.708598</vAcc></extensions></trkpt>
      <trkpt lon="-3.343212" lat="54.551050"><ele>502.470886</ele><time>2021-08-12T10:34:39Z</time><extensions><speed>0.494679</speed><course>238.308395</course><hAcc>0.882432</hAcc><vAcc>0.708801</vAcc></extensions></trkpt>
      <trkpt lon="-3.343214" lat="54.551046"><ele>502.530518</ele><time>2021-08-12T10:34:40Z</time><extensions><speed>0.510597</speed><course>242.479843</course><hAcc>0.882490</hAcc><vAcc>0.709075</vAcc></extensions></trkpt>
      <trkpt lon="-3.343216" lat="54.551041"><ele>502.575775</ele><time>2021-08-12T10:34:41Z</time><extensions><speed>0.531466</speed><course>241.402863</course><hAcc>0.882566</hAcc><vAcc>0.709396</vAcc></extensions></trkpt>
      <trkpt lon="-3.343218" lat="54.551037"><ele>502.606201</ele><time>2021-08-12T10:34:42Z</time><extensions><speed>0.556033</speed><course>237.836914</course><hAcc>0.882659</hAcc><vAcc>0.709749</vAcc></extensions></trkpt>
      <trkpt lon="-3.343220" lat="54.551032"><ele>502.621429</ele><time>2021-08-12T10:34:43Z</time><extensions><speed>0.583209</speed><course>241.232681</course><hAcc>0.882766</hAcc><vAcc>0.710129</vAcc></extensions></trkpt>
      <trkpt lon="-3.343223" lat="54.551027"><ele>502.621338</ele><time>2021-08-12T10:34:44Z</time><extensions><speed>0.612498</speed><course>262.141510</course><hAcc>0.882886</hAcc><vAcc>0.710542</vAcc></extensions></trkpt>
      <trkpt lon="-3.343226" lat="54.551021"><ele>502.605896</ele><time>2021-08-12T10:34:45Z</time><extensions><speed>0.643408</speed><course>261.447266</course><hAcc>0.883016</hAcc><vAcc>0.710997</vAcc></extensions></trkpt>
      <trkpt lon="-3.343228" lat="54.551016"><ele>502.575043</ele><time>2021-08-12T10:34:46Z</time><extensions><speed>0.675069</speed><course>261.925140</course><hAcc>0.883154</hAcc><vAcc>0.711501</vAcc></extensions></trkpt>
      <trkpt lon="-3.343231" lat="54.551010"><ele>502.529053</ele><time>2021-08-12T10:34:47Z</time><extensions><speed>0.706591</speed><course>266.740814</course><hAcc>0.883298</hAcc><vAcc>0.712052</vAcc></extensions></trkpt>
      <trkpt lon="-3.343234" lat="54.551003"><ele>502.468201</ele><time>2021-08-12T10:34:48Z</time><extensions><speed>0.737645</speed><course>263.896973</course><hAcc>0.883446</hAcc><vAcc>0.712637</vAcc></extensions></trkpt>
      <trkpt lon="-3.343236" lat="54.550997"><ele>502.393402</ele><time>2021-08-12T10:34:49Z</time><extensions><speed>0.768453</speed><course>261.924744</course><hAcc>0.883595</hAcc><vAcc>0.713235</vAcc></extensions></trkpt>
      <trkpt lon="-3.343238" lat="54.550990"><ele>502.306152</ele><time>2021-08-12T10:34:50Z</time><extensions><speed>0.799074</speed><course>264.486481</course><hAcc>0.883743</hAcc><vAcc>0.713826</vAcc></extensions></trkpt>
      <trkpt lon="-3.343240" lat="54.550983"><ele>502.208740</ele><time>2021-08-12T10:34:51Z</time><extensions><speed>0.828892</speed><course>263.217468</course><hAcc>0.883887</hAcc><vAcc>0.714395</vAcc></extensions></trkpt>
      <trkpt lon="-3.343242" lat="54.550975"><ele>502.105042</ele><time>2021-08-12T10:34:52Z</time><extensions><speed>0.856893</speed><course>266.412231</course><hAcc>0.884023</hAcc><vAcc>0.714927</vAcc></extensions></trkpt>
      <trkpt lon="-3.343244" lat="54.550967"><ele>502.000732</ele><time>2021-08-12T10:34:53Z</time><extensions><speed>0.881712</speed><course>270.399445</course><hAcc>0.884149</hAcc><vAcc>0.715412</vAcc></extensions></trkpt>
      <trkpt lon="-3.343246" lat="54.550959"><ele>501.902313</ele><time>2021-08-12T10:34:54Z</time><extensions><speed>0.901398</speed><course>260.295807</course><hAcc>0.884262</hAcc><vAcc>0.715842</vAcc></extensions></trkpt>
      <trkpt lon="-3.343247" lat="54.550951"><ele>501.815643</ele><time>2021-08-12T10:34:55Z</time><extensions><speed>0.914361</speed><course>254.591400</course><hAcc>0.884359</hAcc><vAcc>0.716209</vAcc></extensions></trkpt>
      <trkpt lon="-3.343249" lat="54.550943"><ele>501.744629</ele><time>2021-08-12T10:34:56Z</time><extensions><speed>0.919539</speed><course>246.407776</course><hAcc>0.884439</hAcc><vAcc>0.716508</vAcc></extensions></trkpt>
      <trkpt lon="-3.343251" lat="54.550935"><ele>501.691376</ele><time>2021-08-12T10:34:57Z</time><extensions><speed>0.916397</speed><course>240.825714</course><hAcc>0.884502</hAcc><vAcc>0.716735</vAcc></extensions></trkpt>
      <trkpt lon="-3.343252" lat="54.550927"><ele>501.656616</ele><time>2021-08-12T10:34:58Z</time><extensions><speed>0.904828</speed><course>235.078873</course><hAcc>0.884545</hAcc><vAcc>0.716889</vAcc></extensions></trkpt>
      <trkpt lon="-3.343253" lat="54.550919"><ele>501.640442</ele><time>2021-08-12T10:34:59Z</time><extensions><speed>0.884958</speed><course>230.996750</course><hAcc>0.884569</hAcc><vAcc>0.716969</vAcc></extensions></trkpt>
      <trkpt lon="-3.343254" lat="54.550911"><ele>501.642853</ele><time>2021-08-12T10:35:00Z</time><extensions><speed>0.857222</speed><course>237.371124</course><hAcc>0.884574</hAcc><vAcc>0.716975</vAcc></extensions></trkpt>
      <trkpt lon="-3.343255" lat="54.550903"><ele>501.663513</ele><time>2021-08-12T10:35:01Z</time><extensions><speed>0.821981</speed><course>233.251434</course><hAcc>0.884562</hAcc><vAcc>0.716910</vAcc></extensions></trkpt>
      <trkpt lon="-3.343256" lat="54.550896"><ele>501.700806</ele><time>2021-08-12T10:35:02Z</time><extensions><speed>0.779555</speed><course>229.059296</course><hAcc>0.884533</hAcc><vAcc>0.716778</vAcc></extensions></trkpt>
      <trkpt lon="-3.343257" lat="54.550889"><ele>501.751862</ele><time>2021-08-12T10:35:03Z</time><extensions><speed>0.730592</speed><course>237.299759</course><hAcc>0.884488</hAcc><vAcc>0.716587</vAcc></extensions></trkpt>
      <trkpt lon="-3.343257" lat="54.550883"><ele>501.813507</ele><time>2021-08-12T10:35:04Z</time><extensions><speed>0.676277</speed><course>228.636597</course><hAcc>0.884427</hAcc><vAcc>0.716345</vAcc></extensions></trkpt>
      <trkpt lon="-3.343258" lat="54.550877"><ele>501.882965</ele><time>2021-08-12T10:35:05Z</time><extensions><speed>0.618106</speed><course>232.788193</course><hAcc>0.884352</hAcc><vAcc>0.716061</vAcc></extensions></trkpt>
      <trkpt lon="-3.343259" lat="54.550872"><ele>501.957764</ele><time>2021-08-12T10:35:06Z</time><extensions><speed>0.557633</speed><course>226.630402</course><hAcc>0.884265</hAcc><vAcc>0.715740</vAcc></extensions></trkpt>
      <trkpt lon="-3.343259" lat="54.550867"><ele>502.035736</ele><time>2021-08-12T10:35:07Z</time><extensions><speed>0.496264</speed><course>231.208252</course><hAcc>0.884167</hAcc><vAcc>0.715387</vAcc></extensions></trkpt>
      <trkpt lon="-3.343260" lat="54.550863"><ele>502.115784</ele><time>2021-08-12T10:35:08Z</time><extensions><speed>0.435228</speed><course>221.171371</course><hAcc>0.884062</hAcc><vAcc>0.715004</vAcc></extensions></trkpt>
      <trkpt lon="-3.343261" lat="54.550860"><ele>502.198517</ele><time>2021-08-12T10:35:09Z</time><extensions><speed>0.375808</speed><course>226.944763</course><hAcc>0.883951</hAcc><vAcc>0.714597</vAcc></extensions></trkpt>
      <trkpt lon="-3.343262" lat="54.550856"><ele>502.286621</ele><time>2021-08-12T10:35:10Z</time><extensions><speed>0.319079</speed><course>229.173843</course><hAcc>0.883840</hAcc><vAcc>0.714169</vAcc></extensions></trkpt>
      <trkpt lon="-3.343262" lat="54.550854"><ele>502.383667</ele><time>2021-08-12T10:35:11Z</time><extensions><speed>0.265731</speed><course>219.367737</course><hAcc>0.883734</hAcc><vAcc>0.713732</vAcc></extensions></trkpt>
      <trkpt lon="-3.343263" lat="54.550852"><ele>502.492737</ele><time>2021-08-12T10:35:12Z</time><extensions><speed>0.216198</speed><course>228.114029</course><hAcc>0.883637</hAcc><vAcc>0.713300</vAcc></extensions></trkpt>
      <trkpt lon="-3.343264" lat="54.550850"><ele>502.615417</ele><time>2021-08-12T10:35:13Z</time><extensions><speed>0.170799</speed><course>227.965424</course><hAcc>0.883556</hAcc><vAcc>0.712898</vAcc></extensions></trkpt>
      <trkpt lon="-3.343265" lat="54.550849"><ele>502.750275</ele><time>2021-08-12T10:35:14Z</time><extensions><speed>0.129854</speed><course>229.338791</course><hAcc>0.883497</hAcc><vAcc>0.712562</vAcc></extensions></trkpt>
      <trkpt lon="-3.343266" lat="54.550848"><ele>502.892792</ele><time>2021-08-12T10:35:15Z</time><extensions><speed>0.093623</speed><course>231.293549</course><hAcc>0.883465</hAcc><vAcc>0.712329</vAcc></extensions></trkpt>
      <trkpt lon="-3.343267" lat="54.550847"><ele>503.037079</ele><time>2021-08-12T10:35:16Z</time><extensions><speed>0.062344</speed><course>238.754257</course><hAcc>0.883464</hAcc><vAcc>0.712236</vAcc></extensions></trkpt>
      <trkpt lon="-3.343267" lat="54.550847"><ele>503.177704</ele><time>2021-08-12T10:35:17Z</time><extensions><speed>0.036295</speed><course>238.093399</course><hAcc>0.883497</hAcc><vAcc>0.712311</vAcc></extensions></trkpt>
      <trkpt lon="-3.343267" lat="54.550847"><ele>503.310272</ele><time>2021-08-12T10:35:18Z</time><extensions><speed>0.016057</speed><course>230.021591</course><hAcc>0.883566</hAcc><vAcc>0.712564</vAcc></extensions></trkpt>
      <trkpt lon="-3.343267" lat="54.550847"><ele>503.431213</ele><time>2021-08-12T10:35:19Z</time><extensions><speed>0.010164</speed><course>229.821030</course><hAcc>0.883671</hAcc><vAcc>0.712991</vAcc></extensions></trkpt>
      <trkpt lon="-3.343267" lat="54.550847"><ele>503.537537</ele><time>2021-08-12T10:35:20Z</time><extensions><speed>0.021486</speed><course>228.941864</course><hAcc>0.883807</hAcc><vAcc>0.713578</vAcc></extensions></trkpt>
      <trkpt lon="-3.343267" lat="54.550847"><ele>503.625702</ele><time>2021-08-12T10:35:21Z</time><extensions><speed>0.032568</speed><course>224.795181</course><hAcc>0.883970</hAcc><vAcc>0.714301</vAcc></extensions></trkpt>
      <trkpt lon="-3.343267" lat="54.550848"><ele>503.691101</ele><time>2021-08-12T10:35:22Z</time><extensions><speed>0.040824</speed><course>216.307693</course><hAcc>0.884153</hAcc><vAcc>0.715131</vAcc></extensions></trkpt>
      <trkpt lon="-3.343267" lat="54.550848"><ele>503.728821</ele><time>2021-08-12T10:35:23Z</time><extensions><speed>0.045584</speed><course>222.735626</course><hAcc>0.884347</hAcc><vAcc>0.716027</vAcc></extensions></trkpt>
      <trkpt lon="-3.343266" lat="54.550848"><ele>503.735657</ele><time>2021-08-12T10:35:24Z</time><extensions><speed>0.045717</speed><course>223.242310</course><hAcc>0.884544</hAcc><vAcc>0.716937</vAcc></extensions></trkpt>
      <trkpt lon="-3.343266" lat="54.550849"><ele>503.711823</ele><time>2021-08-12T10:35:25Z</time><extensions><speed>0.039878</speed><course>230.312881</course><hAcc>0.884737</hAcc><vAcc>0.717799</vAcc></extensions></trkpt>
      <trkpt lon="-3.343265" lat="54.550849"><ele>503.660553</ele><time>2021-08-12T10:35:26Z</time><extensions><speed>0.028918</speed><course>225.102798</course><hAcc>0.884917</hAcc><vAcc>0.718561</vAcc></extensions></trkpt>
      <trkpt lon="-3.343265" lat="54.550849"><ele>503.586823</ele><time>2021-08-12T10:35:27Z</time><extensions><speed>0.025539</speed><course>221.291122</course><hAcc>0.885079</hAcc><vAcc>0.719190</vAcc></extensions></trkpt>
      <trkpt lon="-3.343265" lat="54.550848"><ele>503.496338</ele><time>2021-08-12T10:35:28Z</time><extensions><speed>0.050606</speed><course>215.623337</course><hAcc>0.885216</hAcc><vAcc>0.719672</vAcc></extensions></trkpt>
      <trkpt lon="-3.343265" lat="54.550848"><ele>503.395050</ele><time>2021-08-12T10:35:29Z</time><extensions><speed>0.094485</speed><course>211.427963</course><hAcc>0.885324</hAcc><vAcc>0.720009</vAcc></extensions></trkpt>
      <trkpt lon="-3.343264" lat="54.550847"><ele>503.288666</ele><time>2021-08-12T10:35:30Z</time><extensions><speed>0.151700</speed><course>214.863312</course><hAcc>0.885399</hAcc><vAcc>0.720212</vAcc></extensions></trkpt>
      <trkpt lon="-3.343265" lat="54.550845"><ele>503.181610</ele><time>2021-08-12T10:35:31Z</time><extensions><speed>0.220620</speed><course>209.288147</course><hAcc>0.885440</hAcc><vAcc>0.720293</vAcc></extensions></trkpt>
      <trkpt lon="-3.343265" lat="54.550843"><ele>503.076477</ele><time>2021-08-12T10:35:32Z</time><extensions><speed>0.299311</speed><course>213.399612</course><hAcc>0.885451</hAcc><vAcc>0.720267</vAcc></extensions></trkpt>
      <trkpt lon="-3.343265" lat="54.550840"><ele>502.973969</ele><time>2021-08-12T10:35:33Z</time><extensions><speed>0.385707</speed><course>209.037766</course><hAcc>0.885433</hAcc><vAcc>0.720145</vAcc></extensions></trkpt>
      <trkpt lon="-3.343266" lat="54.550836"><ele>502.873566</ele><time>2021-08-12T10:35:34Z</time><extensions><speed>0.477700</speed><course>198.395279</course><hAcc>0.885392</hAcc><vAcc>0.719942</vAcc></extensions></trkpt>
      <trkpt lon="-3.343266" lat="54.550831"><ele>502.773804</ele><time>2021-08-12T10:35:35Z</time><extensions><speed>0.572630</speed><course>210.540466</course><hAcc>0.885333</hAcc><vAcc>0.719673</vAcc></extensions></trkpt>
      <trkpt lon="-3.343267" lat="54.550826"><ele>502.672943</ele><time>2021-08-12T10:35:36Z</time><extensions><speed>0.668120</speed><course>216.565186</course><hAcc>0.885259</hAcc><vAcc>0.719355</vAcc></extensions></trkpt>
      <trkpt lon="-3.343268" lat="54.550819"><ele>502.570099</ele><time>2021-08-12T10:35:37Z</time><extensions><speed>0.762233</speed><course>216.875626</course><hAcc>0.885179</hAcc><vAcc>0.719001</vAcc></extensions></trkpt>
      <trkpt lon="-3.343268" lat="54.550812"><ele>502.465759</ele><time>2021-08-12T10:35:38Z</time><extensions><speed>0.852965</speed><course>213.073944</course><hAcc>0.885097</hAcc><vAcc>0.718629</vAcc></extensions></trkpt>
      <trkpt lon="-3.343269" lat="54.550804"><ele>502.361694</ele><time>2021-08-12T10:35:39Z</time><extensions><speed>0.938082</speed><course>206.496414</course><hAcc>0.885020</hAcc><vAcc>0.718258</vAcc></extensions></trkpt>
      <trkpt lon="-3.343270" lat="54.550795"><ele>502.260559</ele><time>2021-08-12T10:35:40Z</time><extensions><speed>1.015384</speed><course>207.745499</course><hAcc>0.884951</hAcc><vAcc>0.717914</vAcc></extensions></trkpt>
      <trkpt lon="-3.343270" lat="54.550786"><ele>502.165436</ele><time>2021-08-12T10:35:41Z</time><extensions><speed>1.083976</speed><course>210.428009</course><hAcc>0.884896</hAcc><vAcc>0.717624</vAcc></extensions></trkpt>
      <trkpt lon="-3.343270" lat="54.550776"><ele>502.079834</ele><time>2021-08-12T10:35:42Z</time><extensions><speed>1.144353</speed><course>207.611023</course><hAcc>0.884857</hAcc><vAcc>0.717411</vAcc></extensions></trkpt>
      <trkpt lon="-3.343271" lat="54.550765"><ele>502.007538</ele><time>2021-08-12T10:35:43Z</time><extensions><speed>1.197371</speed><course>210.041336</course><hAcc>0.884837</hAcc><vAcc>0.717294</vAcc></extensions></trkpt>
      <trkpt lon="-3.343271" lat="54.550754"><ele>501.951996</ele><time>2021-08-12T10:35:44Z</time><extensions><speed>1.243636</speed><course>211.119202</course><hAcc>0.884837</hAcc><vAcc>0.717282</vAcc></extensions></trkpt>
      <trkpt lon="-3.343271" lat="54.550743"><ele>501.915405</ele><time>2021-08-12T10:35:45Z</time><extensions><speed>1.283913</speed><course>215.032761</course><hAcc>0.884858</hAcc><vAcc>0.717375</vAcc></extensions></trkpt>
      <trkpt lon="-3.343272" lat="54.550731"><ele>501.898468</ele><time>2021-08-12T10:35:46Z</time><extensions><speed>1.319809</speed><course>215.892059</course><hAcc>0.884900</hAcc><vAcc>0.717568</vAcc></extensions></trkpt>
      <trkpt lon="-3.343273" lat="54.550719"><ele>501.900574</ele><time>2021-08-12T10:35:47Z</time><extensions><speed>1.352835</speed><course>208.710144</course><hAcc>0.884962</hAcc><vAcc>0.717847</vAcc></extensions></trkpt>
      <trkpt lon="-3.343274" lat="54.550707"><ele>501.920105</ele><time>2021-08-12T10:35:48Z</time><extensions><speed>1.383836</speed><course>204.101471</course><hAcc>0.885043</hAcc><vAcc>0.718200</vAcc></extensions></trkpt>
      <trkpt lon="-3.343276" lat="54.550694"><ele>501.954193</ele><time>2021-08-12T10:35:49Z</time><extensions><speed>1.412812</speed><course>208.109482</course><hAcc>0.885145</hAcc><vAcc>0.718615</vAcc></extensions></trkpt>
      <trkpt lon="-3.343279" lat="54.550682"><ele>501.998810</ele><time>2021-08-12T10:35:50Z</time><extensions><speed>1.439092</speed><course>201.394348</course><hAcc>0.885268</hAcc><vAcc>0.719083</vAcc></extensions></trkpt>
      <trkpt lon="-3.343282" lat="54.550669"><ele>502.049652</ele><time>2021-08-12T10:35:51Z</time><extensions><speed>1.461612</speed><course>199.619629</course><hAcc>0.885418</hAcc><vAcc>0.719599</vAcc></extensions></trkpt>
      <trkpt lon="-3.343286" lat="54.550656"><ele>502.102631</ele><time>2021-08-12T10:35:52Z</time><extensions><speed>1.478655</speed><course>197.929596</course><hAcc>0.885605</hAcc><vAcc>0.720163</vAcc></extensions></trkpt>
      <trkpt lon="-3.343290" lat="54.550643"><ele>502.153717</ele><time>2021-08-12T10:35:53Z</time><extensions><speed>1.489391</speed><course>207.567093</course><hAcc>0.885844</hAcc><vAcc>0.720781</vAcc></extensions></trkpt>
      <trkpt lon="-3.343294" lat="54.550629"><ele>502.199554</ele><time>2021-08-12T10:35:54Z</time><extensions><speed>1.494176</speed><course>211.052994</course><hAcc>0.886155</hAcc><vAcc>0.721467</vAcc></extensions></trkpt>
      <trkpt lon="-3.343297" lat="54.550616"><ele>502.237427</ele><time>2021-08-12T10:35:55Z</time><extensions><speed>1.493347</speed><course>209.388504</course><hAcc>0.886567</hAcc><vAcc>0.722241</vAcc></extensions></trkpt>
      <trkpt lon="-3.343301" lat="54.550603"><ele>502.265045</ele><time>2021-08-12T10:35:56Z</time><extensions><speed>1.487301</speed><course>208.868835</course><hAcc>0.887114</hAcc><vAcc>0.723129</vAcc></extensions></trkpt>
      <trkpt lon="-3.343305" lat="54.550590"><ele>502.280212</ele><time>2021-08-12T10:35:57Z</time><extensions><speed>1.476527</speed><course>206.360352</course><hAcc>0.887834</hAcc><vAcc>0.724158</vAcc></extensions></trkpt>
      <trkpt lon="-3.343308" lat="54.550577"><ele>502.280914</ele><time>2021-08-12T10:35:58Z</time><extensions><speed>1.461584</speed><course>191.999023</course><hAcc>0.888767</hAcc><vAcc>0.725359</vAcc></extensions></trkpt>
      <trkpt lon="-3.343311" lat="54.550564"><ele>502.265594</ele><time>2021-08-12T10:35:59Z</time><extensions><speed>1.442952</speed><course>180.180435</course><hAcc>0.889949</hAcc><vAcc>0.726750</vAcc></extensions></trkpt>
      <trkpt lon="-3.343314" lat="54.550551"><ele>502.233948</ele><time>2021-08-12T10:36:00Z</time><extensions><speed>1.420944</speed><course>177.079514</course><hAcc>0.891401</hAcc><vAcc>0.728327</vAcc></extensions></trkpt>
      <trkpt lon="-3.343317" lat="54.550539"><ele>502.187225</ele><time>2021-08-12T10:36:01Z</time><extensions><speed>1.395813</speed><course>177.153732</course><hAcc>0.893126</hAcc><vAcc>0.730057</vAcc></extensions></trkpt>
      <trkpt lon="-3.343320" lat="54.550526"><ele>502.128143</ele><time>2021-08-12T10:36:02Z</time><extensions><speed>1.367878</speed><course>181.696198</course><hAcc>0.895092</hAcc><vAcc>0.731871</vAcc></extensions></trkpt>
      <trkpt lon="-3.343323" lat="54.550514"><ele>502.059814</ele><time>2021-08-12T10:36:03Z</time><extensions><speed>1.337124</speed><course>179.829865</course><hAcc>0.897222</hAcc><vAcc>0.733659</vAcc></extensions></trkpt>
      <trkpt lon="-3.343325" lat="54.550502"><ele>501.984009</ele><time>2021-08-12T10:36:04Z</time><extensions><speed>1.302913</speed><course>189.386703</course><hAcc>0.899390</hAcc><vAcc>0.735283</vAcc></extensions></trkpt>
      <trkpt lon="-3.343328" lat="54.550491"><ele>501.900269</ele><time>2021-08-12T10:36:05Z</time><extensions><speed>1.264459</speed><course>186.380737</course><hAcc>0.901421</hAcc><vAcc>0.736596</vAcc></extensions></trkpt>
      <trkpt lon="-3.343330" lat="54.550480"><ele>501.806244</ele><time>2021-08-12T10:36:06Z</time><extensions><speed>1.221468</speed><course>181.688873</course><hAcc>0.903116</hAcc><vAcc>0.737479</vAcc></extensions></trkpt>
      <trkpt lon="-3.343332" lat="54.550469"><ele>501.698639</ele><time>2021-08-12T10:36:07Z</time><extensions><speed>1.174252</speed><course>178.930069</course><hAcc>0.904305</hAcc><vAcc>0.737903</vAcc></extensions></trkpt>
      <trkpt lon="-3.343334" lat="54.550459"><ele>501.574219</ele><time>2021-08-12T10:36:08Z</time><extensions><speed>1.123568</speed><course>176.699600</course><hAcc>0.904943</hAcc><vAcc>0.738028</vAcc></extensions></trkpt>
      <trkpt lon="-3.343336" lat="54.550449"><ele>501.430328</ele><time>2021-08-12T10:36:09Z</time><extensions><speed>1.070643</speed><course>171.339767</course><hAcc>0.905282</hAcc><vAcc>0.738346</vAcc></extensions></trkpt>
      <trkpt lon="-3.343337" lat="54.550440"><ele>501.264923</ele><time>2021-08-12T10:36:10Z</time><extensions><speed>1.016990</speed><course>176.652649</course><hAcc>0.906124</hAcc><vAcc>0.739877</vAcc></extensions></trkpt>
      <trkpt lon="-3.343339" lat="54.550431"><ele>501.076202</ele><time>2021-08-12T10:36:11Z</time><extensions><speed>0.964277</speed><course>186.094208</course><hAcc>0.909178</hAcc><vAcc>0.744406</vAcc></extensions></trkpt>
      <trkpt lon="-3.343340" lat="54.550423"><ele>500.862579</ele><time>2021-08-12T10:36:12Z</time><extensions><speed>0.914382</speed><course>174.229980</course><hAcc>0.917498</hAcc><vAcc>0.754713</vAcc></extensions></trkpt>
      <trkpt lon="-3.343341" lat="54.550415"><ele>500.623688</ele><time>2021-08-12T10:36:13Z</time><extensions><speed>0.869391</speed><course>169.447403</course><hAcc>0.935895</hAcc><vAcc>0.774697</vAcc></extensions></trkpt>
      <trkpt lon="-3.343342" lat="54.550407"><ele>500.361694</ele><time>2021-08-12T10:36:14Z</time><extensions><speed>0.831058</speed><course>184.388611</course><hAcc>0.971065</hAcc><vAcc>0.809223</vAcc></extensions></trkpt>
      <trkpt lon="-3.343342" lat="54.550407"><ele>499.922485</ele><time>2021-08-12T10:36:15Z</time><extensions><speed>0.116999</speed><course>74.967865</course><hAcc>0.933071</hAcc><vAcc>0.772945</vAcc></extensions></trkpt>
      <trkpt lon="-3.343343" lat="54.550406"><ele>499.670441</ele><time>2021-08-12T10:36:16Z</time><extensions><speed>0.093432</speed><course>75.133301</course><hAcc>0.913582</hAcc><vAcc>0.750555</vAcc></extensions></trkpt>
      <trkpt lon="-3.343343" lat="54.550405"><ele>499.436340</ele><time>2021-08-12T10:36:17Z</time><extensions><speed>0.072294</speed><course>66.099251</course><hAcc>0.905361</hAcc><vAcc>0.738899</vAcc></extensions></trkpt>
      <trkpt lon="-3.343344" lat="54.550405"><ele>499.225586</ele><time>2021-08-12T10:36:18Z</time><extensions><speed>0.056812</speed><course>81.237114</course><hAcc>0.902931</hAcc><vAcc>0.733660</vAcc></extensions></trkpt>
      <trkpt lon="-3.343345" lat="54.550405"><ele>499.042236</ele><time>2021-08-12T10:36:19Z</time><extensions><speed>0.052042</speed><course>80.566093</course><hAcc>0.902818</hAcc><vAcc>0.731737</vAcc></extensions></trkpt>
      <trkpt lon="-3.343346" lat="54.550405"><ele>498.889648</ele><time>2021-08-12T10:36:20Z</time><extensions><speed>0.058911</speed><course>80.566109</course><hAcc>0.903097</hAcc><vAcc>0.731150</vAcc></extensions></trkpt>
      <trkpt lon="-3.343347" lat="54.550405"><ele>498.770660</ele><time>2021-08-12T10:36:21Z</time><extensions><speed>0.070882</speed><course>80.566093</course><hAcc>0.902884</hAcc><vAcc>0.730790</vAcc></extensions></trkpt>
      <trkpt lon="-3.343347" lat="54.550406"><ele>498.687195</ele><time>2021-08-12T10:36:22Z</time><extensions><speed>0.082133</speed><course>80.566093</course><hAcc>0.901931</hAcc><vAcc>0.730154</vAcc></extensions></trkpt>
      <trkpt lon="-3.343348" lat="54.550406"><ele>498.639191</ele><time>2021-08-12T10:36:23Z</time><extensions><speed>0.089929</speed><course>80.566093</course><hAcc>0.900319</hAcc><vAcc>0.729117</vAcc></extensions></trkpt>
      <trkpt lon="-3.343349" lat="54.550407"><ele>498.623413</ele><time>2021-08-12T10:36:24Z</time><extensions><speed>0.093538</speed><course>77.344681</course><hAcc>0.898274</hAcc><vAcc>0.727759</vAcc></extensions></trkpt>
      <trkpt lon="-3.343350" lat="54.550407"><ele>498.633636</ele><time>2021-08-12T10:36:25Z</time><extensions><speed>0.093133</speed><course>77.923714</course><hAcc>0.896048</hAcc><vAcc>0.726249</vAcc></extensions></trkpt>
      <trkpt lon="-3.343351" lat="54.550408"><ele>498.663086</ele><time>2021-08-12T10:36:26Z</time><extensions><speed>0.089819</speed><course>87.073212</course><hAcc>0.893857</hAcc><vAcc>0.724756</vAcc></extensions></trkpt>
      <trkpt lon="-3.343352" lat="54.550408"><ele>498.706207</ele><time>2021-08-12T10:36:27Z</time><extensions><speed>0.086536</speed><course>79.233902</course><hAcc>0.891858</hAcc><vAcc>0.723410</vAcc></extensions></trkpt>
      <trkpt lon="-3.343354" lat="54.550409"><ele>498.757904</ele><time>2021-08-12T10:36:28Z</time><extensions><speed>0.088761</speed><course>96.572746</course><hAcc>0.890145</hAcc><vAcc>0.722293</vAcc></extensions></trkpt>
      <trkpt lon="-3.343355" lat="54.550409"><ele>498.812714</ele><time>2021-08-12T10:36:29Z</time><extensions><speed>0.102393</speed><course>86.920219</course><hAcc>0.888755</hAcc><vAcc>0.721440</vAcc></extensions></trkpt>
      <trkpt lon="-3.343357" lat="54.550408"><ele>498.865021</ele><time>2021-08-12T10:36:30Z</time><extensions><speed>0.129393</speed><course>76.786201</course><hAcc>0.887685</hAcc><vAcc>0.720855</vAcc></extensions></trkpt>
      <trkpt lon="-3.343359" lat="54.550407"><ele>498.909424</ele><time>2021-08-12T10:36:31Z</time><extensions><speed>0.167904</speed><course>77.162971</course><hAcc>0.886903</hAcc><vAcc>0.720506</vAcc></extensions></trkpt>
      <trkpt lon="-3.343361" lat="54.550406"><ele>498.940918</ele><time>2021-08-12T10:36:32Z</time><extensions><speed>0.215143</speed><course>69.604996</course><hAcc>0.886365</hAcc><vAcc>0.720345</vAcc></extensions></trkpt>
      <trkpt lon="-3.343364" lat="54.550405"><ele>498.955231</ele><time>2021-08-12T10:36:33Z</time><extensions><speed>0.268284</speed><course>76.115456</course><hAcc>0.886019</hAcc><vAcc>0.720321</vAcc></extensions></trkpt>
      <trkpt lon="-3.343367" lat="54.550403"><ele>498.948639</ele><time>2021-08-12T10:36:34Z</time><extensions><speed>0.324419</speed><course>83.646278</course><hAcc>0.885815</hAcc><vAcc>0.720388</vAcc></extensions></trkpt>
      <trkpt lon="-3.343370" lat="54.550400"><ele>498.917877</ele><time>2021-08-12T10:36:35Z</time><extensions><speed>0.380613</speed><course>76.408623</course><hAcc>0.885709</hAcc><vAcc>0.720503</vAcc></extensions></trkpt>
      <trkpt lon="-3.343374" lat="54.550397"><ele>498.860840</ele><time>2021-08-12T10:36:36Z</time><extensions><speed>0.434262</speed><course>79.439453</course><hAcc>0.885665</hAcc><vAcc>0.720633</vAcc></extensions></trkpt>
      <trkpt lon="-3.343378" lat="54.550394"><ele>498.777496</ele><time>2021-08-12T10:36:37Z</time><extensions><speed>0.483764</speed><course>75.300941</course><hAcc>0.885655</hAcc><vAcc>0.720746</vAcc></extensions></trkpt>
      <trkpt lon="-3.343383" lat="54.550391"><ele>498.670166</ele><time>2021-08-12T10:36:38Z</time><extensions><speed>0.527972</speed><course>76.126534</course><hAcc>0.885659</hAcc><vAcc>0.720822</vAcc></extensions></trkpt>
      <trkpt lon="-3.343388" lat="54.550387"><ele>498.542206</ele><time>2021-08-12T10:36:39Z</time><extensions><speed>0.565871</speed><course>75.233688</course><hAcc>0.885665</hAcc><vAcc>0.720848</vAcc></extensions></trkpt>
      <trkpt lon="-3.343393" lat="54.550382"><ele>498.397339</ele><time>2021-08-12T10:36:40Z</time><extensions><speed>0.597074</speed><course>81.891060</course><hAcc>0.885664</hAcc><vAcc>0.720820</vAcc></extensions></trkpt>
      <trkpt lon="-3.343399" lat="54.550378"><ele>498.239258</ele><time>2021-08-12T10:36:41Z</time><extensions><speed>0.622871</speed><course>78.263519</course><hAcc>0.885652</hAcc><vAcc>0.720741</vAcc></extensions></trkpt>
      <trkpt lon="-3.343404" lat="54.550373"><ele>498.071350</ele><time>2021-08-12T10:36:42Z</time><extensions><speed>0.644922</speed><course>74.907532</course><hAcc>0.885630</hAcc><vAcc>0.720618</vAcc></extensions></trkpt>
      <trkpt lon="-3.343408" lat="54.550368"><ele>497.895966</ele><time>2021-08-12T10:36:43Z</time><extensions><speed>0.664705</speed><course>84.941742</course><hAcc>0.885597</hAcc><vAcc>0.720460</vAcc></extensions></trkpt>
      <trkpt lon="-3.343412" lat="54.550362"><ele>497.714752</ele><time>2021-08-12T10:36:44Z</time><extensions><speed>0.684651</speed><course>73.584358</course><hAcc>0.885559</hAcc><vAcc>0.720278</vAcc></extensions></trkpt>
      <trkpt lon="-3.343416" lat="54.550356"><ele>497.529480</ele><time>2021-08-12T10:36:45Z</time><extensions><speed>0.707136</speed><course>96.346313</course><hAcc>0.885518</hAcc><vAcc>0.720084</vAcc></extensions></trkpt>
      <trkpt lon="-3.343418" lat="54.550350"><ele>497.342316</ele><time>2021-08-12T10:36:46Z</time><extensions><speed>0.734017</speed><course>87.208282</course><hAcc>0.885478</hAcc><vAcc>0.719894</vAcc></extensions></trkpt>
      <trkpt lon="-3.343420" lat="54.550343"><ele>497.155518</ele><time>2021-08-12T10:36:47Z</time><extensions><speed>0.766353</speed><course>71.034035</course><hAcc>0.885444</hAcc><vAcc>0.719724</vAcc></extensions></trkpt>
      <trkpt lon="-3.343421" lat="54.550336"><ele>496.971283</ele><time>2021-08-12T10:36:48Z</time><extensions><speed>0.804592</speed><course>74.315559</course><hAcc>0.885418</hAcc><vAcc>0.719594</vAcc></extensions></trkpt>
      <trkpt lon="-3.343420" lat="54.550329"><ele>496.791626</ele><time>2021-08-12T10:36:49Z</time><extensions><speed>0.848036</speed><course>82.074326</course><hAcc>0.885404</hAcc><vAcc>0.719519</vAcc></extensions></trkpt>
      <trkpt lon="-3.343419" lat="54.550321"><ele>496.617218</ele><time>2021-08-12T10:36:50Z</time><extensions><speed>0.894453</speed><course>78.798851</course><hAcc>0.885406</hAcc><vAcc>0.719510</vAcc></extensions></trkpt>
      <trkpt lon="-3.343416" lat="54.550313"><ele>496.447449</ele><time>2021-08-12T10:36:51Z</time><extensions><speed>0.940752</speed><course>71.049065</course><hAcc>0.885424</hAcc><vAcc>0.719573</vAcc></extensions></trkpt>
      <trkpt lon="-3.343413" lat="54.550305"><ele>496.280701</ele><time>2021-08-12T10:36:52Z</time><extensions><speed>0.983090</speed><course>66.417450</course><hAcc>0.885460</hAcc><vAcc>0.719709</vAcc></extensions></trkpt>
      <trkpt lon="-3.343409" lat="54.550296"><ele>496.114471</ele><time>2021-08-12T10:36:53Z</time><extensions><speed>1.018268</speed><course>67.881187</course><hAcc>0.885517</hAcc><vAcc>0.719919</vAcc></extensions></trkpt>
      <trkpt lon="-3.343406" lat="54.550287"><ele>495.945526</ele><time>2021-08-12T10:36:54Z</time><extensions><speed>1.044989</speed><course>73.946594</course><hAcc>0.885593</hAcc><vAcc>0.720200</vAcc></extensions></trkpt>
      <trkpt lon="-3.343403" lat="54.550277"><ele>495.770813</ele><time>2021-08-12T10:36:55Z</time><extensions><speed>1.063763</speed><course>66.868568</course><hAcc>0.885688</hAcc><vAcc>0.720552</vAcc></extensions></trkpt>
      <trkpt lon="-3.343401" lat="54.550268"><ele>495.588104</ele><time>2021-08-12T10:36:56Z</time><extensions><speed>1.077087</speed><course>57.370388</course><hAcc>0.885799</hAcc><vAcc>0.720973</vAcc></extensions></trkpt>
      <trkpt lon="-3.343399" lat="54.550258"><ele>495.396057</ele><time>2021-08-12T10:36:57Z</time><extensions><speed>1.088063</speed><course>72.859169</course><hAcc>0.885924</hAcc><vAcc>0.721460</vAcc></extensions></trkpt>
      <trkpt lon="-3.343400" lat="54.550248"><ele>495.193451</ele><time>2021-08-12T10:36:58Z</time><extensions><speed>1.099468</speed><course>73.476959</course><hAcc>0.886057</hAcc><vAcc>0.722005</vAcc></extensions></trkpt>
      <trkpt lon="-3.343402" lat="54.550239"><ele>494.979431</ele><time>2021-08-12T10:36:59Z</time><extensions><speed>1.114023</speed><course>70.985191</course><hAcc>0.886195</hAcc><vAcc>0.722594</vAcc></extensions></trkpt>
      <trkpt lon="-3.343406" lat="54.550229"><ele>494.753754</ele><time>2021-08-12T10:37:00Z</time><extensions><speed>1.132772</speed><course>67.094063</course><hAcc>0.886333</hAcc><vAcc>0.723205</vAcc></extensions></trkpt>
      <trkpt lon="-3.343411" lat="54.550219"><ele>494.516144</ele><time>2021-08-12T10:37:01Z</time><extensions><speed>1.153417</speed><course>63.802017</course><hAcc>0.886467</hAcc><vAcc>0.723812</vAcc></extensions></trkpt>
      <trkpt lon="-3.343418" lat="54.550209"><ele>494.265533</ele><time>2021-08-12T10:37:02Z</time><extensions><speed>1.171617</speed><course>59.738853</course><hAcc>0.886594</hAcc><vAcc>0.724383</vAcc></extensions></trkpt>
      <trkpt lon="-3.343427" lat="54.550200"><ele>494.000244</ele><time>2021-08-12T10:37:03Z</time><extensions><speed>1.183471</speed><course>64.752533</course><hAcc>0.886708</hAcc><vAcc>0.724890</vAcc></extensions></trkpt>
      <trkpt lon="-3.343436" lat="54.550191"><ele>493.718048</ele><time>2021-08-12T10:37:04Z</time><extensions><speed>1.186327</speed><course>62.678837</course><hAcc>0.886809</hAcc><vAcc>0.725310</vAcc></extensions></trkpt>
      <trkpt lon="-3.343446" lat="54.550182"><ele>493.416107</ele><time>2021-08-12T10:37:05Z</time><extensions><speed>1.179069</speed><course>67.622025</course><hAcc>0.886893</hAcc><vAcc>0.725630</vAcc></extensions></trkpt>
      <trkpt lon="-3.343457" lat="54.550174"><ele>493.090881</ele><time>2021-08-12T10:37:06Z</time><extensions><speed>1.161974</speed><course>76.998230</course><hAcc>0.886959</hAcc><vAcc>0.725844</vAcc></extensions></trkpt>
      <trkpt lon="-3.343468" lat="54.550165"><ele>492.739044</ele><time>2021-08-12T10:37:07Z</time><extensions><speed>1.135764</speed><course>71.279175</course><hAcc>0.887005</hAcc><vAcc>0.725957</vAcc></extensions></trkpt>
      <trkpt lon="-3.343479" lat="54.550158"><ele>492.358154</ele><time>2021-08-12T10:37:08Z</time><extensions><speed>1.101288</speed><course>66.215858</course><hAcc>0.887032</hAcc><vAcc>0.725982</vAcc></extensions></trkpt>
      <trkpt lon="-3.343489" lat="54.550150"><ele>491.947266</ele><time>2021-08-12T10:37:09Z</time><extensions><speed>1.060332</speed><course>65.869171</course><hAcc>0.887040</hAcc><vAcc>0.725936</vAcc></extensions></trkpt>
      <trkpt lon="-3.343500" lat="54.550143"><ele>491.507507</ele><time>2021-08-12T10:37:10Z</time><extensions><speed>1.015818</speed><course>67.480362</course><hAcc>0.887031</hAcc><vAcc>0.725837</vAcc></extensions></trkpt>
      <trkpt lon="-3.343510" lat="54.550136"><ele>491.042633</ele><time>2021-08-12T10:37:11Z</time><extensions><speed>0.971537</speed><course>62.467888</course><hAcc>0.887007</hAcc><vAcc>0.725698</vAcc></extensions></trkpt>
      <trkpt lon="-3.343519" lat="54.550130"><ele>490.558777</ele><time>2021-08-12T10:37:12Z</time><extensions><speed>0.931792</speed><course>57.403885</course><hAcc>0.886971</hAcc><vAcc>0.725530</vAcc></extensions></trkpt>
      <trkpt lon="-3.343528" lat="54.550123"><ele>490.063843</ele><time>2021-08-12T10:37:13Z</time><extensions><speed>0.900733</speed><course>56.104736</course><hAcc>0.886926</hAcc><vAcc>0.725338</vAcc></extensions></trkpt>
      <trkpt lon="-3.343537" lat="54.550117"><ele>489.566162</ele><time>2021-08-12T10:37:14Z</time><extensions><speed>0.880993</speed><course>57.135769</course><hAcc>0.886875</hAcc><vAcc>0.725134</vAcc></extensions></trkpt>
      <trkpt lon="-3.343545" lat="54.550111"><ele>489.072754</ele><time>2021-08-12T10:37:15Z</time><extensions><speed>0.873265</speed><course>59.466648</course><hAcc>0.886820</hAcc><vAcc>0.724927</vAcc></extensions></trkpt>
      <trkpt lon="-3.343553" lat="54.550105"><ele>488.589172</ele><time>2021-08-12T10:37:16Z</time><extensions><speed>0.876809</speed><course>56.466339</course><hAcc>0.886761</hAcc><vAcc>0.724721</vAcc></extensions></trkpt>
      <trkpt lon="-3.343561" lat="54.550098"><ele>488.119476</ele><time>2021-08-12T10:37:17Z</time><extensions><speed>0.889430</speed><course>61.082169</course><hAcc>0.886703</hAcc><vAcc>0.724517</vAcc></extensions></trkpt>
      <trkpt lon="-3.343569" lat="54.550092"><ele>487.666595</ele><time>2021-08-12T10:37:18Z</time><extensions><speed>0.908316</speed><course>63.000797</course><hAcc>0.886646</hAcc><vAcc>0.724313</vAcc></extensions></trkpt>
      <trkpt lon="-3.343577" lat="54.550085"><ele>487.232666</ele><time>2021-08-12T10:37:19Z</time><extensions><speed>0.931190</speed><course>58.373146</course><hAcc>0.886593</hAcc><vAcc>0.724108</vAcc></extensions></trkpt>
      <trkpt lon="-3.343585" lat="54.550077"><ele>486.819122</ele><time>2021-08-12T10:37:20Z</time><extensions><speed>0.957213</speed><course>59.591164</course><hAcc>0.886547</hAcc><vAcc>0.723905</vAcc></extensions></trkpt>
      <trkpt lon="-3.343592" lat="54.550070"><ele>486.427032</ele><time>2021-08-12T10:37:21Z</time><extensions><speed>0.986284</speed><course>56.078835</course><hAcc>0.886508</hAcc><vAcc>0.723713</vAcc></extensions></trkpt>
      <trkpt lon="-3.343599" lat="54.550062"><ele>486.057098</ele><time>2021-08-12T10:37:22Z</time><extensions><speed>1.017784</speed><course>61.452141</course><hAcc>0.886476</hAcc><vAcc>0.723545</vAcc></extensions></trkpt>
      <trkpt lon="-3.343605" lat="54.550053"><ele>485.709442</ele><time>2021-08-12T10:37:23Z</time><extensions><speed>1.050134</speed><course>62.349373</course><hAcc>0.886453</hAcc><vAcc>0.723413</vAcc></extensions></trkpt>
      <trkpt lon="-3.343611" lat="54.550044"><ele>485.384033</ele><time>2021-08-12T10:37:24Z</time><extensions><speed>1.080999</speed><course>67.502327</course><hAcc>0.886438</hAcc><vAcc>0.723329</vAcc></extensions></trkpt>
      <trkpt lon="-3.343616" lat="54.550035"><ele>485.080780</ele><time>2021-08-12T10:37:25Z</time><extensions><speed>1.108069</speed><course>65.148994</course><hAcc>0.886429</hAcc><vAcc>0.723302</vAcc></extensions></trkpt>
      <trkpt lon="-3.343620" lat="54.550025"><ele>484.799255</ele><time>2021-08-12T10:37:26Z</time><extensions><speed>1.129295</speed><course>61.604351</course><hAcc>0.886425</hAcc><vAcc>0.723329</vAcc></extensions></trkpt>
      <trkpt lon="-3.343624" lat="54.550015"><ele>484.538727</ele><time>2021-08-12T10:37:27Z</time><extensions><speed>1.142788</speed><course>67.356651</course><hAcc>0.886424</hAcc><vAcc>0.723397</vAcc></extensions></trkpt>
      <trkpt lon="-3.343626" lat="54.550005"><ele>484.297882</ele><time>2021-08-12T10:37:28Z</time><extensions><speed>1.147275</speed><course>56.187717</course><hAcc>0.886424</hAcc><vAcc>0.723486</vAcc></extensions></trkpt>
      <trkpt lon="-3.343628" lat="54.549995"><ele>484.074707</ele><time>2021-08-12T10:37:29Z</time><extensions><speed>1.142135</speed><course>56.273357</course><hAcc>0.886423</hAcc><vAcc>0.723571</vAcc></extensions></trkpt>
      <trkpt lon="-3.343628" lat="54.549985"><ele>483.866364</ele><time>2021-08-12T10:37:30Z</time><extensions><speed>1.126950</speed><course>59.042984</course><hAcc>0.886417</hAcc><vAcc>0.723627</vAcc></extensions></trkpt>
      <trkpt lon="-3.343628" lat="54.549975"><ele>483.669006</ele><time>2021-08-12T10:37:31Z</time><extensions><speed>1.101243</speed><course>46.754299</course><hAcc>0.886404</hAcc><vAcc>0.723635</vAcc></extensions></trkpt>
      <trkpt lon="-3.343627" lat="54.549965"><ele>483.477997</ele><time>2021-08-12T10:37:32Z</time><extensions><speed>1.064826</speed><course>46.754295</course><hAcc>0.886378</hAcc><vAcc>0.723579</vAcc></extensions></trkpt>
      <trkpt lon="-3.343625" lat="54.549956"><ele>483.289185</ele><time>2021-08-12T10:37:33Z</time><extensions><speed>1.018035</speed><course>46.754295</course><hAcc>0.886336</hAcc><vAcc>0.723451</vAcc></extensions></trkpt>
      <trkpt lon="-3.343622" lat="54.549947"><ele>483.099854</ele><time>2021-08-12T10:37:34Z</time><extensions><speed>0.961651</speed><course>46.754295</course><hAcc>0.886275</hAcc><vAcc>0.723246</vAcc></extensions></trkpt>
      <trkpt lon="-3.343619" lat="54.549939"><ele>482.909576</ele><time>2021-08-12T10:37:35Z</time><extensions><speed>0.897188</speed><course>46.754295</course><hAcc>0.886191</hAcc><vAcc>0.722956</vAcc></extensions></trkpt>
      <trkpt lon="-3.343616" lat="54.549931"><ele>482.720123</ele><time>2021-08-12T10:37:36Z</time><extensions><speed>0.827002</speed><course>46.754295</course><hAcc>0.886083</hAcc><vAcc>0.722577</vAcc></extensions></trkpt>
      <trkpt lon="-3.343614" lat="54.549924"><ele>482.533600</ele><time>2021-08-12T10:37:37Z</time><extensions><speed>0.753717</speed><course>46.754295</course><hAcc>0.885950</hAcc><vAcc>0.722107</vAcc></extensions></trkpt>
      <trkpt lon="-3.343611" lat="54.549918"><ele>482.351715</ele><time>2021-08-12T10:37:38Z</time><extensions><speed>0.679743</speed><course>46.754292</course><hAcc>0.885792</hAcc><vAcc>0.721542</vAcc></extensions></trkpt>
      <trkpt lon="-3.343608" lat="54.549912"><ele>482.175995</ele><time>2021-08-12T10:37:39Z</time><extensions><speed>0.606677</speed><course>46.754295</course><hAcc>0.885612</hAcc><vAcc>0.720882</vAcc></extensions></trkpt>
      <trkpt lon="-3.343606" lat="54.549907"><ele>482.008057</ele><time>2021-08-12T10:37:40Z</time><extensions><speed>0.535641</speed><course>86.257805</course><hAcc>0.885412</hAcc><vAcc>0.720130</vAcc></extensions></trkpt>
      <trkpt lon="-3.343604" lat="54.549903"><ele>481.849365</ele><time>2021-08-12T10:37:41Z</time><extensions><speed>0.467804</speed><course>92.864906</course><hAcc>0.885196</hAcc><vAcc>0.719294</vAcc></extensions></trkpt>
      <trkpt lon="-3.343602" lat="54.549899"><ele>481.700745</ele><time>2021-08-12T10:37:42Z</time><extensions><speed>0.404406</speed><course>94.458534</course><hAcc>0.884968</hAcc><vAcc>0.718393</vAcc></extensions></trkpt>
      <trkpt lon="-3.343601" lat="54.549896"><ele>481.562469</ele><time>2021-08-12T10:37:43Z</time><extensions><speed>0.346805</speed><course>89.165138</course><hAcc>0.884734</hAcc><vAcc>0.717449</vAcc></extensions></trkpt>
      <trkpt lon="-3.343600" lat="54.549893"><ele>481.434875</ele><time>2021-08-12T10:37:44Z</time><extensions><speed>0.295875</speed><course>98.187202</course><hAcc>0.884499</hAcc><vAcc>0.716491</vAcc></extensions></trkpt>
      <trkpt lon="-3.343600" lat="54.549891"><ele>481.318115</ele><time>2021-08-12T10:37:45Z</time><extensions><speed>0.252110</speed><course>262.094696</course><hAcc>0.884269</hAcc><vAcc>0.715548</vAcc></extensions></trkpt>
      <trkpt lon="-3.343600" lat="54.549889"><ele>481.211853</ele><time>2021-08-12T10:37:46Z</time><extensions><speed>0.215932</speed><course>273.339569</course><hAcc>0.884051</hAcc><vAcc>0.714648</vAcc></extensions></trkpt>
      <trkpt lon="-3.343600" lat="54.549887"><ele>481.114929</ele><time>2021-08-12T10:37:47Z</time><extensions><speed>0.187518</speed><course>270.133057</course><hAcc>0.883850</hAcc><vAcc>0.713823</vAcc></extensions></trkpt>
      <trkpt lon="-3.343601" lat="54.549885"><ele>481.025299</ele><time>2021-08-12T10:37:48Z</time><extensions><speed>0.166614</speed><course>264.401459</course><hAcc>0.883672</hAcc><vAcc>0.713102</vAcc></extensions></trkpt>
      <trkpt lon="-3.343602" lat="54.549884"><ele>480.940247</ele><time>2021-08-12T10:37:49Z</time><extensions><speed>0.152364</speed><course>271.206299</course><hAcc>0.883519</hAcc><vAcc>0.712508</vAcc></extensions></trkpt>
      <trkpt lon="-3.343603" lat="54.549883"><ele>480.856567</ele><time>2021-08-12T10:37:50Z</time><extensions><speed>0.143090</speed><course>270.479279</course><hAcc>0.883395</hAcc><vAcc>0.712054</vAcc></extensions></trkpt>
      <trkpt lon="-3.343604" lat="54.549882"><ele>480.771210</ele><time>2021-08-12T10:37:51Z</time><extensions><speed>0.136600</speed><course>270.479279</course><hAcc>0.883299</hAcc><vAcc>0.711740</vAcc></extensions></trkpt>
      <trkpt lon="-3.343606" lat="54.549881"><ele>480.681885</ele><time>2021-08-12T10:37:52Z</time><extensions><speed>0.131211</speed><course>270.479279</course><hAcc>0.883232</hAcc><vAcc>0.711553</vAcc></extensions></trkpt>
      <trkpt lon="-3.343608" lat="54.549880"><ele>480.586853</ele><time>2021-08-12T10:37:53Z</time><extensions><speed>0.126386</speed><course>92.836548</course><hAcc>0.883190</hAcc><vAcc>0.711474</vAcc></extensions></trkpt>
      <trkpt lon="-3.343609" lat="54.549880"><ele>480.484680</ele><time>2021-08-12T10:37:54Z</time><extensions><speed>0.122654</speed><course>91.847809</course><hAcc>0.883172</hAcc><vAcc>0.711482</vAcc></extensions></trkpt>
      <trkpt lon="-3.343611" lat="54.549879"><ele>480.374268</ele><time>2021-08-12T10:37:55Z</time><extensions><speed>0.121337</speed><course>96.972961</course><hAcc>0.883172</hAcc><vAcc>0.711557</vAcc></extensions></trkpt>
      <trkpt lon="-3.343613" lat="54.549879"><ele>480.255859</ele><time>2021-08-12T10:37:56Z</time><extensions><speed>0.124489</speed><course>101.432434</course><hAcc>0.883185</hAcc><vAcc>0.711675</vAcc></extensions></trkpt>
      <trkpt lon="-3.343614" lat="54.549878"><ele>480.130981</ele><time>2021-08-12T10:37:57Z</time><extensions><speed>0.134712</speed><course>89.921867</course><hAcc>0.883207</hAcc><vAcc>0.711816</vAcc></extensions></trkpt>
      <trkpt lon="-3.343616" lat="54.549877"><ele>480.002228</ele><time>2021-08-12T10:37:58Z</time><extensions><speed>0.154692</speed><course>79.468422</course><hAcc>0.883233</hAcc><vAcc>0.711963</vAcc></extensions></trkpt>
      <trkpt lon="-3.343618" lat="54.549877"><ele>479.872925</ele><time>2021-08-12T10:37:59Z</time><extensions><speed>0.186579</speed><course>79.668663</course><hAcc>0.883258</hAcc><vAcc>0.712099</vAcc></extensions></trkpt>
      <trkpt lon="-3.343621" lat="54.549875"><ele>479.746185</ele><time>2021-08-12T10:38:00Z</time><extensions><speed>0.230933</speed><course>70.198914</course><hAcc>0.883278</hAcc><vAcc>0.712206</vAcc></extensions></trkpt>
      <trkpt lon="-3.343623" lat="54.549874"><ele>479.622742</ele><time>2021-08-12T10:38:01Z</time><extensions><speed>0.286994</speed><course>85.811096</course><hAcc>0.883289</hAcc><vAcc>0.712265</vAcc></extensions></trkpt>
      <trkpt lon="-3.343626" lat="54.549871"><ele>479.501343</ele><time>2021-08-12T10:38:02Z</time><extensions><speed>0.354107</speed><course>87.515213</course><hAcc>0.883287</hAcc><vAcc>0.712265</vAcc></extensions></trkpt>
      <trkpt lon="-3.343630" lat="54.549869"><ele>479.380585</ele><time>2021-08-12T10:38:03Z</time><extensions><speed>0.431051</speed><course>86.802406</course><hAcc>0.883268</hAcc><vAcc>0.712198</vAcc></extensions></trkpt>
      <trkpt lon="-3.343635" lat="54.549865"><ele>479.258820</ele><time>2021-08-12T10:38:04Z</time><extensions><speed>0.515613</speed><course>85.424927</course><hAcc>0.883227</hAcc><vAcc>0.712057</vAcc></extensions></trkpt>
      <trkpt lon="-3.343640" lat="54.549861"><ele>479.134338</ele><time>2021-08-12T10:38:05Z</time><extensions><speed>0.605088</speed><course>88.911957</course><hAcc>0.883158</hAcc><vAcc>0.711837</vAcc></extensions></trkpt>
      <trkpt lon="-3.343646" lat="54.549856"><ele>479.005890</ele><time>2021-08-12T10:38:06Z</time><extensions><speed>0.696108</speed><course>93.027184</course><hAcc>0.883055</hAcc><vAcc>0.711527</vAcc></extensions></trkpt>
      <trkpt lon="-3.343653" lat="54.549851"><ele>478.871948</ele><time>2021-08-12T10:38:07Z</time><extensions><speed>0.785617</speed><course>90.763535</course><hAcc>0.882908</hAcc><vAcc>0.711114</vAcc></extensions></trkpt>
      <trkpt lon="-3.343661" lat="54.549845"><ele>478.729889</ele><time>2021-08-12T10:38:08Z</time><extensions><speed>0.872001</speed><course>83.392509</course><hAcc>0.882708</hAcc><vAcc>0.710579</vAcc></extensions></trkpt>
      <trkpt lon="-3.343669" lat="54.549839"><ele>478.576630</ele><time>2021-08-12T10:38:09Z</time><extensions><speed>0.954794</speed><course>57.334152</course><hAcc>0.882447</hAcc><vAcc>0.709886</vAcc></extensions></trkpt>
      <trkpt lon="-3.343678" lat="54.549832"><ele>478.409729</ele><time>2021-08-12T10:38:10Z</time><extensions><speed>1.033337</speed><course>29.254333</course><hAcc>0.882117</hAcc><vAcc>0.708979</vAcc></extensions></trkpt>
      <trkpt lon="-3.343689" lat="54.549824"><ele>478.227753</ele><time>2021-08-12T10:38:11Z</time><extensions><speed>1.106883</speed><course>29.254333</course><hAcc>0.881714</hAcc><vAcc>0.707784</vAcc></extensions></trkpt>
      <trkpt lon="-3.343700" lat="54.549816"><ele>478.030731</ele><time>2021-08-12T10:38:12Z</time><extensions><speed>1.174644</speed><course>29.254333</course><hAcc>0.881237</hAcc><vAcc>0.706235</vAcc></extensions></trkpt>
      <trkpt lon="-3.343712" lat="54.549808"><ele>477.819733</ele><time>2021-08-12T10:38:13Z</time><extensions><speed>1.234694</speed><course>29.254332</course><hAcc>0.880690</hAcc><vAcc>0.704302</vAcc></extensions></trkpt>
      <trkpt lon="-3.343725" lat="54.549799"><ele>477.595673</ele><time>2021-08-12T10:38:14Z</time><extensions><speed>1.284868</speed><course>29.254333</course><hAcc>0.880080</hAcc><vAcc>0.701998</vAcc></extensions></trkpt>
      <trkpt lon="-3.343738" lat="54.549791"><ele>477.359070</ele><time>2021-08-12T10:38:15Z</time><extensions><speed>1.324437</speed><course>29.254332</course><hAcc>0.879416</hAcc><vAcc>0.699383</vAcc></extensions></trkpt>
      <trkpt lon="-3.343752" lat="54.549782"><ele>477.110596</ele><time>2021-08-12T10:38:16Z</time><extensions><speed>1.354207</speed><course>29.254332</course><hAcc>0.878715</hAcc><vAcc>0.696553</vAcc></extensions></trkpt>
      <trkpt lon="-3.343766" lat="54.549773"><ele>476.851410</ele><time>2021-08-12T10:38:17Z</time><extensions><speed>1.375524</speed><course>29.254333</course><hAcc>0.877995</hAcc><vAcc>0.693626</vAcc></extensions></trkpt>
      <trkpt lon="-3.343781" lat="54.549763"><ele>476.582855</ele><time>2021-08-12T10:38:18Z</time><extensions><speed>1.390097</speed><course>29.254333</course><hAcc>0.877274</hAcc><vAcc>0.690721</vAcc></extensions></trkpt>
      <trkpt lon="-3.343795" lat="54.549754"><ele>476.306396</ele><time>2021-08-12T10:38:19Z</time><extensions><speed>1.399218</speed><course>29.254332</course><hAcc>0.876570</hAcc><vAcc>0.687940</vAcc></extensions></trkpt>
      <trkpt lon="-3.343809" lat="54.549744"><ele>476.023651</ele><time>2021-08-12T10:38:20Z</time><extensions><speed>1.403717</speed><course>29.254333</course><hAcc>0.875896</hAcc><vAcc>0.685351</vAcc></extensions></trkpt>
      <trkpt lon="-3.343822" lat="54.549734"><ele>475.736542</ele><time>2021-08-12T10:38:21Z</time><extensions><speed>1.404347</speed><course>29.254337</course><hAcc>0.875261</hAcc><vAcc>0.682989</vAcc></extensions></trkpt>
      <trkpt lon="-3.343835" lat="54.549724"><ele>475.446442</ele><time>2021-08-12T10:38:22Z</time><extensions><speed>1.401492</speed><course>29.254337</course><hAcc>0.874668</hAcc><vAcc>0.680856</vAcc></extensions></trkpt>
      <trkpt lon="-3.343847" lat="54.549714"><ele>475.154175</ele><time>2021-08-12T10:38:23Z</time><extensions><speed>1.396735</speed><course>29.254339</course><hAcc>0.874111</hAcc><vAcc>0.678921</vAcc></extensions></trkpt>
      <trkpt lon="-3.343858" lat="54.549703"><ele>474.860687</ele><time>2021-08-12T10:38:24Z</time><extensions><speed>1.392570</speed><course>29.254337</course><hAcc>0.873583</hAcc><vAcc>0.677124</vAcc></extensions></trkpt>
      <trkpt lon="-3.343868" lat="54.549692"><ele>474.567413</ele><time>2021-08-12T10:38:25Z</time><extensions><speed>1.391618</speed><course>29.254339</course><hAcc>0.873071</hAcc><vAcc>0.675398</vAcc></extensions></trkpt>
      <trkpt lon="-3.343878" lat="54.549681"><ele>474.276337</ele><time>2021-08-12T10:38:26Z</time><extensions><speed>1.395965</speed><course>353.139893</course><hAcc>0.872565</hAcc><vAcc>0.673685</vAcc></extensions></trkpt>
      <trkpt lon="-3.343886" lat="54.549669"><ele>473.989868</ele><time>2021-08-12T10:38:27Z</time><extensions><speed>1.406250</speed><course>-1.000000</course><hAcc>0.872054</hAcc><vAcc>0.671942</vAcc></extensions></trkpt>
      <trkpt lon="-3.343893" lat="54.549657"><ele>473.709869</ele><time>2021-08-12T10:38:28Z</time><extensions><speed>1.421972</speed><course>-1.000000</course><hAcc>0.871532</hAcc><vAcc>0.670134</vAcc></extensions></trkpt>
      <trkpt lon="-3.343899" lat="54.549645"><ele>473.436951</ele><time>2021-08-12T10:38:29Z</time><extensions><speed>1.441744</speed><course>-1.000000</course><hAcc>0.870995</hAcc><vAcc>0.668242</vAcc></extensions></trkpt>
      <trkpt lon="-3.343905" lat="54.549632"><ele>473.170319</ele><time>2021-08-12T10:38:30Z</time><extensions><speed>1.463502</speed><course>-1.000000</course><hAcc>0.870443</hAcc><vAcc>0.666265</vAcc></extensions></trkpt>
      <trkpt lon="-3.343910" lat="54.549619"><ele>472.908112</ele><time>2021-08-12T10:38:31Z</time><extensions><speed>1.485163</speed><course>-1.000000</course><hAcc>0.869884</hAcc><vAcc>0.664227</vAcc></extensions></trkpt>
      <trkpt lon="-3.343916" lat="54.549606"><ele>472.647675</ele><time>2021-08-12T10:38:32Z</time><extensions><speed>1.505543</speed><course>-1.000000</course><hAcc>0.869330</hAcc><vAcc>0.662170</vAcc></extensions></trkpt>
      <trkpt lon="-3.343921" lat="54.549593"><ele>472.385254</ele><time>2021-08-12T10:38:33Z</time><extensions><speed>1.523689</speed><course>-1.000000</course><hAcc>0.868799</hAcc><vAcc>0.660168</vAcc></extensions></trkpt>
      <trkpt lon="-3.343927" lat="54.549580"><ele>472.116272</ele><time>2021-08-12T10:38:34Z</time><extensions><speed>1.539119</speed><course>-1.000000</course><hAcc>0.868316</hAcc><vAcc>0.658318</vAcc></extensions></trkpt>
      <trkpt lon="-3.343933" lat="54.549566"><ele>471.835968</ele><time>2021-08-12T10:38:35Z</time><extensions><speed>1.552440</speed><course>-1.000000</course><hAcc>0.867908</hAcc><vAcc>0.656734</vAcc></extensions></trkpt>
      <trkpt lon="-3.343939" lat="54.549553"><ele>471.540588</ele><time>2021-08-12T10:38:36Z</time><extensions><speed>1.564680</speed><course>-1.000000</course><hAcc>0.867604</hAcc><vAcc>0.655536</vAcc></extensions></trkpt>
      <trkpt lon="-3.343946" lat="54.549539"><ele>471.227509</ele><time>2021-08-12T10:38:37Z</time><extensions><speed>1.577042</speed><course>-1.000000</course><hAcc>0.867433</hAcc><vAcc>0.654839</vAcc></extensions></trkpt>
      <trkpt lon="-3.343953" lat="54.549526"><ele>470.895691</ele><time>2021-08-12T10:38:38Z</time><extensions><speed>1.590896</speed><course>74.830536</course><hAcc>0.867417</hAcc><vAcc>0.654747</vAcc></extensions></trkpt>
      <trkpt lon="-3.343961" lat="54.549512"><ele>470.545929</ele><time>2021-08-12T10:38:39Z</time><extensions><speed>1.607044</speed><course>62.161198</course><hAcc>0.867575</hAcc><vAcc>0.655332</vAcc></extensions></trkpt>
      <trkpt lon="-3.343970" lat="54.549498"><ele>470.181458</ele><time>2021-08-12T10:38:40Z</time><extensions><speed>1.624848</speed><course>66.043793</course><hAcc>0.867909</hAcc><vAcc>0.656614</vAcc></extensions></trkpt>
      <trkpt lon="-3.343978" lat="54.549485"><ele>469.807678</ele><time>2021-08-12T10:38:41Z</time><extensions><speed>1.643244</speed><course>75.803009</course><hAcc>0.868411</hAcc><vAcc>0.658555</vAcc></extensions></trkpt>
      <trkpt lon="-3.343988" lat="54.549471"><ele>469.430511</ele><time>2021-08-12T10:38:42Z</time><extensions><speed>1.661083</speed><course>76.191063</course><hAcc>0.869061</hAcc><vAcc>0.661074</vAcc></extensions></trkpt>
      <trkpt lon="-3.343997" lat="54.549457"><ele>469.055176</ele><time>2021-08-12T10:38:43Z</time><extensions><speed>1.677278</speed><course>76.349960</course><hAcc>0.869831</hAcc><vAcc>0.664051</vAcc></extensions></trkpt>
      <trkpt lon="-3.344008" lat="54.549443"><ele>468.686554</ele><time>2021-08-12T10:38:44Z</time><extensions><speed>1.691316</speed><course>78.477806</course><hAcc>0.870686</hAcc><vAcc>0.667338</vAcc></extensions></trkpt>
      <trkpt lon="-3.344018" lat="54.549429"><ele>468.329620</ele><time>2021-08-12T10:38:45Z</time><extensions><speed>1.702750</speed><course>75.070290</course><hAcc>0.871589</hAcc><vAcc>0.670777</vAcc></extensions></trkpt>
      <trkpt lon="-3.344029" lat="54.549415"><ele>467.989258</ele><time>2021-08-12T10:38:46Z</time><extensions><speed>1.711331</speed><course>69.086029</course><hAcc>0.872503</hAcc><vAcc>0.674214</vAcc></extensions></trkpt>
      <trkpt lon="-3.344039" lat="54.549401"><ele>467.669861</ele><time>2021-08-12T10:38:47Z</time><extensions><speed>1.716994</speed><course>68.949226</course><hAcc>0.873397</hAcc><vAcc>0.677522</vAcc></extensions></trkpt>
      <trkpt lon="-3.344050" lat="54.549387"><ele>467.374695</ele><time>2021-08-12T10:38:48Z</time><extensions><speed>1.719487</speed><course>71.686111</course><hAcc>0.874244</hAcc><vAcc>0.680607</vAcc></extensions></trkpt>
      <trkpt lon="-3.344061" lat="54.549373"><ele>467.104950</ele><time>2021-08-12T10:38:49Z</time><extensions><speed>1.718356</speed><course>76.597496</course><hAcc>0.875027</hAcc><vAcc>0.683406</vAcc></extensions></trkpt>
      <trkpt lon="-3.344072" lat="54.549359"><ele>466.859833</ele><time>2021-08-12T10:38:50Z</time><extensions><speed>1.713077</speed><course>90.005066</course><hAcc>0.875732</hAcc><vAcc>0.685882</vAcc></extensions></trkpt>
      <trkpt lon="-3.344082" lat="54.549345"><ele>466.636475</ele><time>2021-08-12T10:38:51Z</time><extensions><speed>1.703084</speed><course>83.948074</course><hAcc>0.876354</hAcc><vAcc>0.688021</vAcc></extensions></trkpt>
      <trkpt lon="-3.344093" lat="54.549331"><ele>466.430389</ele><time>2021-08-12T10:38:52Z</time><extensions><speed>1.688438</speed><course>76.996796</course><hAcc>0.876891</hAcc><vAcc>0.689828</vAcc></extensions></trkpt>
      <trkpt lon="-3.344103" lat="54.549317"><ele>466.236725</ele><time>2021-08-12T10:38:53Z</time><extensions><speed>1.669707</speed><course>79.507355</course><hAcc>0.877344</hAcc><vAcc>0.691325</vAcc></extensions></trkpt>
      <trkpt lon="-3.344114" lat="54.549303"><ele>466.050903</ele><time>2021-08-12T10:38:54Z</time><extensions><speed>1.647594</speed><course>72.096832</course><hAcc>0.877720</hAcc><vAcc>0.692548</vAcc></extensions></trkpt>
      <trkpt lon="-3.344124" lat="54.549290"><ele>465.869293</ele><time>2021-08-12T10:38:55Z</time><extensions><speed>1.623005</speed><course>80.368279</course><hAcc>0.878024</hAcc><vAcc>0.693536</vAcc></extensions></trkpt>
      <trkpt lon="-3.344134" lat="54.549277"><ele>465.688965</ele><time>2021-08-12T10:38:56Z</time><extensions><speed>1.596760</speed><course>78.982643</course><hAcc>0.878264</hAcc><vAcc>0.694325</vAcc></extensions></trkpt>
      <trkpt lon="-3.344145" lat="54.549264"><ele>465.507263</ele><time>2021-08-12T10:38:57Z</time><extensions><speed>1.569632</speed><course>81.075706</course><hAcc>0.878443</hAcc><vAcc>0.694942</vAcc></extensions></trkpt>
      <trkpt lon="-3.344156" lat="54.549251"><ele>465.321777</ele><time>2021-08-12T10:38:58Z</time><extensions><speed>1.542445</speed><course>81.007790</course><hAcc>0.878569</hAcc><vAcc>0.695402</vAcc></extensions></trkpt>
      <trkpt lon="-3.344167" lat="54.549239"><ele>465.131042</ele><time>2021-08-12T10:38:59Z</time><extensions><speed>1.515861</speed><course>78.272133</course><hAcc>0.878643</hAcc><vAcc>0.695709</vAcc></extensions></trkpt>
      <trkpt lon="-3.344178" lat="54.549227"><ele>464.934479</ele><time>2021-08-12T10:39:00Z</time><extensions><speed>1.490373</speed><course>73.069588</course><hAcc>0.878669</hAcc><vAcc>0.695856</vAcc></extensions></trkpt>
      <trkpt lon="-3.344190" lat="54.549216"><ele>464.732574</ele><time>2021-08-12T10:39:01Z</time><extensions><speed>1.466457</speed><course>77.189682</course><hAcc>0.878649</hAcc><vAcc>0.695833</vAcc></extensions></trkpt>
      <trkpt lon="-3.344202" lat="54.549205"><ele>464.526703</ele><time>2021-08-12T10:39:02Z</time><extensions><speed>1.444465</speed><course>75.197517</course><hAcc>0.878587</hAcc><vAcc>0.695628</vAcc></extensions></trkpt>
      <trkpt lon="-3.344215" lat="54.549194"><ele>464.318817</ele><time>2021-08-12T10:39:03Z</time><extensions><speed>1.424597</speed><course>67.733307</course><hAcc>0.878487</hAcc><vAcc>0.695241</vAcc></extensions></trkpt>
      <trkpt lon="-3.344228" lat="54.549184"><ele>464.110962</ele><time>2021-08-12T10:39:04Z</time><extensions><speed>1.406958</speed><course>69.123688</course><hAcc>0.878355</hAcc><vAcc>0.694687</vAcc></extensions></trkpt>
      <trkpt lon="-3.344241" lat="54.549174"><ele>463.905273</ele><time>2021-08-12T10:39:05Z</time><extensions><speed>1.391550</speed><course>71.299400</course><hAcc>0.878201</hAcc><vAcc>0.694004</vAcc></extensions></trkpt>
      <trkpt lon="-3.344254" lat="54.549164"><ele>463.704102</ele><time>2021-08-12T10:39:06Z</time><extensions><speed>1.378271</speed><course>77.479210</course><hAcc>0.878035</hAcc><vAcc>0.693254</vAcc></extensions></trkpt>
      <trkpt lon="-3.344267" lat="54.549155"><ele>463.509460</ele><time>2021-08-12T10:39:07Z</time><extensions><speed>1.366943</speed><course>68.623329</course><hAcc>0.877867</hAcc><vAcc>0.692509</vAcc></extensions></trkpt>
      <trkpt lon="-3.344281" lat="54.549145"><ele>463.322815</ele><time>2021-08-12T10:39:08Z</time><extensions><speed>1.356927</speed><course>63.866425</course><hAcc>0.877709</hAcc><vAcc>0.691830</vAcc></extensions></trkpt>
      <trkpt lon="-3.344294" lat="54.549136"><ele>463.144989</ele><time>2021-08-12T10:39:09Z</time><extensions><speed>1.347193</speed><course>76.291603</course><hAcc>0.877570</hAcc><vAcc>0.691257</vAcc></extensions></trkpt>
      <trkpt lon="-3.344308" lat="54.549127"><ele>462.976288</ele><time>2021-08-12T10:39:10Z</time><extensions><speed>1.337397</speed><course>71.777351</course><hAcc>0.877456</hAcc><vAcc>0.690807</vAcc></extensions></trkpt>
      <trkpt lon="-3.344320" lat="54.549118"><ele>462.817322</ele><time>2021-08-12T10:39:11Z</time><extensions><speed>1.328150</speed><course>76.476341</course><hAcc>0.877370</hAcc><vAcc>0.690478</vAcc></extensions></trkpt>
      <trkpt lon="-3.344333" lat="54.549108"><ele>462.669495</ele><time>2021-08-12T10:39:12Z</time><extensions><speed>1.320252</speed><course>63.346680</course><hAcc>0.877315</hAcc><vAcc>0.690266</vAcc></extensions></trkpt>
      <trkpt lon="-3.344345" lat="54.549099"><ele>462.534912</ele><time>2021-08-12T10:39:13Z</time><extensions><speed>1.313769</speed><course>60.883244</course><hAcc>0.877291</hAcc><vAcc>0.690177</vAcc></extensions></trkpt>
      <trkpt lon="-3.344357" lat="54.549089"><ele>462.415649</ele><time>2021-08-12T10:39:14Z</time><extensions><speed>1.308302</speed><course>66.100471</course><hAcc>0.877298</hAcc><vAcc>0.690220</vAcc></extensions></trkpt>
      <trkpt lon="-3.344368" lat="54.549079"><ele>462.313324</ele><time>2021-08-12T10:39:15Z</time><extensions><speed>1.303507</speed><course>66.284729</course><hAcc>0.877332</hAcc><vAcc>0.690398</vAcc></extensions></trkpt>
      <trkpt lon="-3.344379" lat="54.549070"><ele>462.228912</ele><time>2021-08-12T10:39:16Z</time><extensions><speed>1.298745</speed><course>70.183884</course><hAcc>0.877388</hAcc><vAcc>0.690696</vAcc></extensions></trkpt>
      <trkpt lon="-3.344390" lat="54.549060"><ele>462.162415</ele><time>2021-08-12T10:39:17Z</time><extensions><speed>1.293356</speed><course>69.091454</course><hAcc>0.877457</hAcc><vAcc>0.691077</vAcc></extensions></trkpt>
      <trkpt lon="-3.344400" lat="54.549050"><ele>462.112946</ele><time>2021-08-12T10:39:18Z</time><extensions><speed>1.287236</speed><course>67.595528</course><hAcc>0.877528</hAcc><vAcc>0.691484</vAcc></extensions></trkpt>
      <trkpt lon="-3.344409" lat="54.549040"><ele>462.079224</ele><time>2021-08-12T10:39:19Z</time><extensions><speed>1.280617</speed><course>69.079941</course><hAcc>0.877591</hAcc><vAcc>0.691854</vAcc></extensions></trkpt>
      <trkpt lon="-3.344419" lat="54.549029"><ele>462.060120</ele><time>2021-08-12T10:39:20Z</time><extensions><speed>1.273916</speed><course>67.638985</course><hAcc>0.877635</hAcc><vAcc>0.692130</vAcc></extensions></trkpt>
      <trkpt lon="-3.344428" lat="54.549019"><ele>462.054993</ele><time>2021-08-12T10:39:21Z</time><extensions><speed>1.267873</speed><course>67.902077</course><hAcc>0.877654</hAcc><vAcc>0.692267</vAcc></extensions></trkpt>
      <trkpt lon="-3.344437" lat="54.549009"><ele>462.063507</ele><time>2021-08-12T10:39:22Z</time><extensions><speed>1.263430</speed><course>68.213737</course><hAcc>0.877643</hAcc><vAcc>0.692231</vAcc></extensions></trkpt>
      <trkpt lon="-3.344446" lat="54.548999"><ele>462.085052</ele><time>2021-08-12T10:39:23Z</time><extensions><speed>1.261474</speed><course>58.646133</course><hAcc>0.877602</hAcc><vAcc>0.692013</vAcc></extensions></trkpt>
      <trkpt lon="-3.344455" lat="54.548989"><ele>462.118347</ele><time>2021-08-12T10:39:24Z</time><extensions><speed>1.262657</speed><course>60.787758</course><hAcc>0.877532</hAcc><vAcc>0.691639</vAcc></extensions></trkpt>
      <trkpt lon="-3.344464" lat="54.548979"><ele>462.160980</ele><time>2021-08-12T10:39:25Z</time><extensions><speed>1.266914</speed><course>59.107254</course><hAcc>0.877439</hAcc><vAcc>0.691158</vAcc></extensions></trkpt>
      <trkpt lon="-3.344474" lat="54.548969"><ele>462.208679</ele><time>2021-08-12T10:39:26Z</time><extensions><speed>1.273388</speed><course>59.308796</course><hAcc>0.877330</hAcc><vAcc>0.690626</vAcc></extensions></trkpt>
      <trkpt lon="-3.344485" lat="54.548960"><ele>462.254761</ele><time>2021-08-12T10:39:27Z</time><extensions><speed>1.280737</speed><course>63.536522</course><hAcc>0.877212</hAcc><vAcc>0.690097</vAcc></extensions></trkpt>
      <trkpt lon="-3.344495" lat="54.548950"><ele>462.290283</ele><time>2021-08-12T10:39:28Z</time><extensions><speed>1.287437</speed><course>64.110619</course><hAcc>0.877090</hAcc><vAcc>0.689613</vAcc></extensions></trkpt>
      <trkpt lon="-3.344506" lat="54.548940"><ele>462.305450</ele><time>2021-08-12T10:39:29Z</time><extensions><speed>1.292511</speed><course>57.783936</course><hAcc>0.876964</hAcc><vAcc>0.689187</vAcc></extensions></trkpt>
      <trkpt lon="-3.344518" lat="54.548931"><ele>462.292145</ele><time>2021-08-12T10:39:30Z</time><extensions><speed>1.295114</speed><course>62.673740</course><hAcc>0.876832</hAcc><vAcc>0.688802</vAcc></extensions></trkpt>
      <trkpt lon="-3.344529" lat="54.548921"><ele>462.245453</ele><time>2021-08-12T10:39:31Z</time><extensions><speed>1.294481</speed><course>68.268181</course><hAcc>0.876689</hAcc><vAcc>0.688416</vAcc></extensions></trkpt>
      <trkpt lon="-3.344541" lat="54.548912"><ele>462.163788</ele><time>2021-08-12T10:39:32Z</time><extensions><speed>1.290530</speed><course>59.735432</course><hAcc>0.876526</hAcc><vAcc>0.687974</vAcc></extensions></trkpt>
      <trkpt lon="-3.344553" lat="54.548903"><ele>462.048279</ele><time>2021-08-12T10:39:33Z</time><extensions><speed>1.284176</speed><course>59.192490</course><hAcc>0.876337</hAcc><vAcc>0.687426</vAcc></extensions></trkpt>
      <trkpt lon="-3.344565" lat="54.548893"><ele>461.901550</ele><time>2021-08-12T10:39:34Z</time><extensions><speed>1.277012</speed><course>60.825825</course><hAcc>0.876116</hAcc><vAcc>0.686732</vAcc></extensions></trkpt>
      <trkpt lon="-3.344576" lat="54.548884"><ele>461.727661</ele><time>2021-08-12T10:39:35Z</time><extensions><speed>1.270487</speed><course>62.921200</course><hAcc>0.875860</hAcc><vAcc>0.685873</vAcc></extensions></trkpt>
      <trkpt lon="-3.344588" lat="54.548875"><ele>461.531769</ele><time>2021-08-12T10:39:36Z</time><extensions><speed>1.265710</speed><course>59.145714</course><hAcc>0.875571</hAcc><vAcc>0.684853</vAcc></extensions></trkpt>
      <trkpt lon="-3.344599" lat="54.548866"><ele>461.319366</ele><time>2021-08-12T10:39:37Z</time><extensions><speed>1.263778</speed><course>54.852036</course><hAcc>0.875256</hAcc><vAcc>0.683691</vAcc></extensions></trkpt>
      <trkpt lon="-3.344610" lat="54.548856"><ele>461.095581</ele><time>2021-08-12T10:39:38Z</time><extensions><speed>1.266208</speed><course>52.958679</course><hAcc>0.874926</hAcc><vAcc>0.682418</vAcc></extensions></trkpt>
      <trkpt lon="-3.344621" lat="54.548847"><ele>460.864532</ele><time>2021-08-12T10:39:39Z</time><extensions><speed>1.274584</speed><course>51.642593</course><hAcc>0.874595</hAcc><vAcc>0.681085</vAcc></extensions></trkpt>
      <trkpt lon="-3.344632" lat="54.548837"><ele>460.629669</ele><time>2021-08-12T10:39:40Z</time><extensions><speed>1.290178</speed><course>50.915668</course><hAcc>0.874285</hAcc><vAcc>0.679781</vAcc></extensions></trkpt>
      <trkpt lon="-3.344643" lat="54.548827"><ele>460.393951</ele><time>2021-08-12T10:39:41Z</time><extensions><speed>1.313381</speed><course>43.517220</course><hAcc>0.874019</hAcc><vAcc>0.678629</vAcc></extensions></trkpt>
      <trkpt lon="-3.344653" lat="54.548817"><ele>460.160767</ele><time>2021-08-12T10:39:42Z</time><extensions><speed>1.343473</speed><course>53.213661</course><hAcc>0.873823</hAcc><vAcc>0.677769</vAcc></extensions></trkpt>
      <trkpt lon="-3.344664" lat="54.548806"><ele>459.933441</ele><time>2021-08-12T10:39:43Z</time><extensions><speed>1.378698</speed><course>42.672325</course><hAcc>0.873716</hAcc><vAcc>0.677321</vAcc></extensions></trkpt>
      <trkpt lon="-3.344675" lat="54.548796"><ele>459.714752</ele><time>2021-08-12T10:39:44Z</time><extensions><speed>1.416779</speed><course>57.842590</course><hAcc>0.873707</hAcc><vAcc>0.677342</vAcc></extensions></trkpt>
      <trkpt lon="-3.344686" lat="54.548785"><ele>459.506470</ele><time>2021-08-12T10:39:45Z</time><extensions><speed>1.455007</speed><course>54.432369</course><hAcc>0.873785</hAcc><vAcc>0.677789</vAcc></extensions></trkpt>
      <trkpt lon="-3.344698" lat="54.548773"><ele>459.309052</ele><time>2021-08-12T10:39:46Z</time><extensions><speed>1.490556</speed><course>53.099045</course><hAcc>0.873924</hAcc><vAcc>0.678532</vAcc></extensions></trkpt>
      <trkpt lon="-3.344709" lat="54.548761"><ele>459.121033</ele><time>2021-08-12T10:39:47Z</time><extensions><speed>1.521608</speed><course>52.709480</course><hAcc>0.874090</hAcc><vAcc>0.679398</vAcc></extensions></trkpt>
      <trkpt lon="-3.344721" lat="54.548749"><ele>458.939789</ele><time>2021-08-12T10:39:48Z</time><extensions><speed>1.547134</speed><course>55.566643</course><hAcc>0.874248</hAcc><vAcc>0.680215</vAcc></extensions></trkpt>
      <trkpt lon="-3.344733" lat="54.548737"><ele>458.761902</ele><time>2021-08-12T10:39:49Z</time><extensions><speed>1.566442</speed><course>50.999676</course><hAcc>0.874363</hAcc><vAcc>0.680838</vAcc></extensions></trkpt>
      <trkpt lon="-3.344745" lat="54.548725"><ele>458.583588</ele><time>2021-08-12T10:39:50Z</time><extensions><speed>1.579226</speed><course>49.932701</course><hAcc>0.874407</hAcc><vAcc>0.681156</vAcc></extensions></trkpt>
      <trkpt lon="-3.344757" lat="54.548713"><ele>458.401276</ele><time>2021-08-12T10:39:51Z</time><extensions><speed>1.585543</speed><course>44.103298</course><hAcc>0.874358</hAcc><vAcc>0.681086</vAcc></extensions></trkpt>
      <trkpt lon="-3.344769" lat="54.548700"><ele>458.212036</ele><time>2021-08-12T10:39:52Z</time><extensions><speed>1.585758</speed><course>35.959499</course><hAcc>0.874202</hAcc><vAcc>0.680575</vAcc></extensions></trkpt>
      <trkpt lon="-3.344780" lat="54.548688"><ele>458.013885</ele><time>2021-08-12T10:39:53Z</time><extensions><speed>1.580590</speed><course>30.952709</course><hAcc>0.873932</hAcc><vAcc>0.679601</vAcc></extensions></trkpt>
      <trkpt lon="-3.344792" lat="54.548675"><ele>457.806030</ele><time>2021-08-12T10:39:54Z</time><extensions><speed>1.571171</speed><course>43.709347</course><hAcc>0.873551</hAcc><vAcc>0.678174</vAcc></extensions></trkpt>
      <trkpt lon="-3.344802" lat="54.548662"><ele>457.588867</ele><time>2021-08-12T10:39:55Z</time><extensions><speed>1.558684</speed><course>37.574459</course><hAcc>0.873070</hAcc><vAcc>0.676336</vAcc></extensions></trkpt>
      <trkpt lon="-3.344812" lat="54.548650"><ele>457.363739</ele><time>2021-08-12T10:39:56Z</time><extensions><speed>1.544003</speed><course>40.028488</course><hAcc>0.872507</hAcc><vAcc>0.674160</vAcc></extensions></trkpt>
      <trkpt lon="-3.344822" lat="54.548637"><ele>457.132446</ele><time>2021-08-12T10:39:57Z</time><extensions><speed>1.528419</speed><course>39.088745</course><hAcc>0.871888</hAcc><vAcc>0.671745</vAcc></extensions></trkpt>
      <trkpt lon="-3.344831" lat="54.548625"><ele>456.897278</ele><time>2021-08-12T10:39:58Z</time><extensions><speed>1.513600</speed><course>38.227211</course><hAcc>0.871248</hAcc><vAcc>0.669225</vAcc></extensions></trkpt>
      <trkpt lon="-3.344839" lat="54.548612"><ele>456.660706</ele><time>2021-08-12T10:39:59Z</time><extensions><speed>1.501086</speed><course>38.580025</course><hAcc>0.870622</hAcc><vAcc>0.666755</vAcc></extensions></trkpt>
      <trkpt lon="-3.344847" lat="54.548599"><ele>456.424957</ele><time>2021-08-12T10:40:00Z</time><extensions><speed>1.492333</speed><course>36.225418</course><hAcc>0.870047</hAcc><vAcc>0.664484</vAcc></extensions></trkpt>
      <trkpt lon="-3.344855" lat="54.548587"><ele>456.191467</ele><time>2021-08-12T10:40:01Z</time><extensions><speed>1.488333</speed><course>36.482189</course><hAcc>0.869554</hAcc><vAcc>0.662543</vAcc></extensions></trkpt>
      <trkpt lon="-3.344862" lat="54.548574"><ele>455.961090</ele><time>2021-08-12T10:40:02Z</time><extensions><speed>1.489321</speed><course>45.117634</course><hAcc>0.869172</hAcc><vAcc>0.661041</vAcc></extensions></trkpt>
      <trkpt lon="-3.344869" lat="54.548561"><ele>455.734589</ele><time>2021-08-12T10:40:03Z</time><extensions><speed>1.494527</speed><course>40.176819</course><hAcc>0.868922</hAcc><vAcc>0.660064</vAcc></extensions></trkpt>
      <trkpt lon="-3.344876" lat="54.548548"><ele>455.513123</ele><time>2021-08-12T10:40:04Z</time><extensions><speed>1.502544</speed><course>42.588684</course><hAcc>0.868819</hAcc><vAcc>0.659678</vAcc></extensions></trkpt>
      <trkpt lon="-3.344883" lat="54.548535"><ele>455.297638</ele><time>2021-08-12T10:40:05Z</time><extensions><speed>1.511674</speed><course>41.771687</course><hAcc>0.868871</hAcc><vAcc>0.659917</vAcc></extensions></trkpt>
      <trkpt lon="-3.344890" lat="54.548522"><ele>455.087524</ele><time>2021-08-12T10:40:06Z</time><extensions><speed>1.520041</speed><course>41.372017</course><hAcc>0.869072</hAcc><vAcc>0.660772</vAcc></extensions></trkpt>
      <trkpt lon="-3.344898" lat="54.548509"><ele>454.880554</ele><time>2021-08-12T10:40:07Z</time><extensions><speed>1.526371</speed><course>37.017429</course><hAcc>0.869406</hAcc><vAcc>0.662173</vAcc></extensions></trkpt>
      <trkpt lon="-3.344905" lat="54.548496"><ele>454.674133</ele><time>2021-08-12T10:40:08Z</time><extensions><speed>1.530181</speed><course>28.588495</course><hAcc>0.869840</hAcc><vAcc>0.663991</vAcc></extensions></trkpt>
      <trkpt lon="-3.344913" lat="54.548484"><ele>454.466644</ele><time>2021-08-12T10:40:09Z</time><extensions><speed>1.531398</speed><course>39.512306</course><hAcc>0.870333</hAcc><vAcc>0.666048</vAcc></extensions></trkpt>
      <trkpt lon="-3.344921" lat="54.548471"><ele>454.257416</ele><time>2021-08-12T10:40:10Z</time><extensions><speed>1.530234</speed><course>38.955353</course><hAcc>0.870840</hAcc><vAcc>0.668150</vAcc></extensions></trkpt>
      <trkpt lon="-3.344930" lat="54.548458"><ele>454.046631</ele><time>2021-08-12T10:40:11Z</time><extensions><speed>1.526848</speed><course>35.270641</course><hAcc>0.871317</hAcc><vAcc>0.670107</vAcc></extensions></trkpt>
      <trkpt lon="-3.344938" lat="54.548445"><ele>453.835144</ele><time>2021-08-12T10:40:12Z</time><extensions><speed>1.521120</speed><course>38.302330</course><hAcc>0.871725</hAcc><vAcc>0.671752</vAcc></extensions></trkpt>
      <trkpt lon="-3.344946" lat="54.548432"><ele>453.624207</ele><time>2021-08-12T10:40:13Z</time><extensions><speed>1.513138</speed><course>40.976086</course><hAcc>0.872034</hAcc><vAcc>0.672959</vAcc></extensions></trkpt>
      <trkpt lon="-3.344954" lat="54.548419"><ele>453.415466</ele><time>2021-08-12T10:40:14Z</time><extensions><speed>1.503278</speed><course>40.718147</course><hAcc>0.872228</hAcc><vAcc>0.673654</vAcc></extensions></trkpt>
      <trkpt lon="-3.344962" lat="54.548407"><ele>453.210571</ele><time>2021-08-12T10:40:15Z</time><extensions><speed>1.491997</speed><course>40.437557</course><hAcc>0.872300</hAcc><vAcc>0.673817</vAcc></extensions></trkpt>
      <trkpt lon="-3.344970" lat="54.548394"><ele>453.010712</ele><time>2021-08-12T10:40:16Z</time><extensions><speed>1.479826</speed><course>38.315979</course><hAcc>0.872255</hAcc><vAcc>0.673487</vAcc></extensions></trkpt>
      <trkpt lon="-3.344977" lat="54.548382"><ele>452.815887</ele><time>2021-08-12T10:40:17Z</time><extensions><speed>1.467318</speed><course>28.668550</course><hAcc>0.872110</hAcc><vAcc>0.672758</vAcc></extensions></trkpt>
      <trkpt lon="-3.344984" lat="54.548369"><ele>452.624725</ele><time>2021-08-12T10:40:18Z</time><extensions><speed>1.454894</speed><course>31.392698</course><hAcc>0.871887</hAcc><vAcc>0.671755</vAcc></extensions></trkpt>
      <trkpt lon="-3.344990" lat="54.548357"><ele>452.434814</ele><time>2021-08-12T10:40:19Z</time><extensions><speed>1.442706</speed><course>32.848076</course><hAcc>0.871612</hAcc><vAcc>0.670603</vAcc></extensions></trkpt>
      <trkpt lon="-3.344996" lat="54.548344"><ele>452.243103</ele><time>2021-08-12T10:40:20Z</time><extensions><speed>1.431284</speed><course>38.096359</course><hAcc>0.871303</hAcc><vAcc>0.669376</vAcc></extensions></trkpt>
      <trkpt lon="-3.345002" lat="54.548332"><ele>452.046600</ele><time>2021-08-12T10:40:21Z</time><extensions><speed>1.421640</speed><course>27.737675</course><hAcc>0.870972</hAcc><vAcc>0.668098</vAcc></extensions></trkpt>
      <trkpt lon="-3.345008" lat="54.548320"><ele>451.842346</ele><time>2021-08-12T10:40:22Z</time><extensions><speed>1.414678</speed><course>38.820049</course><hAcc>0.870626</hAcc><vAcc>0.666789</vAcc></extensions></trkpt>
      <trkpt lon="-3.345013" lat="54.548307"><ele>451.627716</ele><time>2021-08-12T10:40:23Z</time><extensions><speed>1.410746</speed><course>40.137299</course><hAcc>0.870279</hAcc><vAcc>0.665489</vAcc></extensions></trkpt>
      <trkpt lon="-3.345018" lat="54.548295"><ele>451.401154</ele><time>2021-08-12T10:40:24Z</time><extensions><speed>1.409835</speed><course>44.560421</course><hAcc>0.869943</hAcc><vAcc>0.664241</vAcc></extensions></trkpt>
      <trkpt lon="-3.345023" lat="54.548283"><ele>451.162994</ele><time>2021-08-12T10:40:25Z</time><extensions><speed>1.411953</speed><course>41.574787</course><hAcc>0.869629</hAcc><vAcc>0.663090</vAcc></extensions></trkpt>
      <trkpt lon="-3.345029" lat="54.548270"><ele>450.915405</ele><time>2021-08-12T10:40:26Z</time><extensions><speed>1.416884</speed><course>37.402897</course><hAcc>0.869345</hAcc><vAcc>0.662064</vAcc></extensions></trkpt>
      <trkpt lon="-3.345034" lat="54.548258"><ele>450.662201</ele><time>2021-08-12T10:40:27Z</time><extensions><speed>1.424650</speed><course>38.445354</course><hAcc>0.869097</hAcc><vAcc>0.661173</vAcc></extensions></trkpt>
      <trkpt lon="-3.345040" lat="54.548246"><ele>450.408112</ele><time>2021-08-12T10:40:28Z</time><extensions><speed>1.435579</speed><course>32.932274</course><hAcc>0.868888</hAcc><vAcc>0.660407</vAcc></extensions></trkpt>
      <trkpt lon="-3.345046" lat="54.548233"><ele>450.157501</ele><time>2021-08-12T10:40:29Z</time><extensions><speed>1.449718</speed><course>27.701353</course><hAcc>0.868719</hAcc><vAcc>0.659762</vAcc></extensions></trkpt>
      <trkpt lon="-3.345052" lat="54.548220"><ele>449.914001</ele><time>2021-08-12T10:40:30Z</time><extensions><speed>1.466980</speed><course>28.233585</course><hAcc>0.868598</hAcc><vAcc>0.659271</vAcc></extensions></trkpt>
      <trkpt lon="-3.345058" lat="54.548208"><ele>449.680115</ele><time>2021-08-12T10:40:31Z</time><extensions><speed>1.487054</speed><course>30.003765</course><hAcc>0.868538</hAcc><vAcc>0.659005</vAcc></extensions></trkpt>
      <trkpt lon="-3.345064" lat="54.548195"><ele>449.456848</ele><time>2021-08-12T10:40:32Z</time><extensions><speed>1.509272</speed><course>35.586266</course><hAcc>0.868552</hAcc><vAcc>0.659038</vAcc></extensions></trkpt>
      <trkpt lon="-3.345071" lat="54.548182"><ele>449.243591</ele><time>2021-08-12T10:40:33Z</time><extensions><speed>1.532526</speed><course>41.034397</course><hAcc>0.868643</hAcc><vAcc>0.659400</vAcc></extensions></trkpt>
      <trkpt lon="-3.345078" lat="54.548168"><ele>449.038452</ele><time>2021-08-12T10:40:34Z</time><extensions><speed>1.554808</speed><course>43.040592</course><hAcc>0.868802</hAcc><vAcc>0.660069</vAcc></extensions></trkpt>
      <trkpt lon="-3.345085" lat="54.548155"><ele>448.837982</ele><time>2021-08-12T10:40:35Z</time><extensions><speed>1.573619</speed><course>49.550934</course><hAcc>0.869010</hAcc><vAcc>0.660971</vAcc></extensions></trkpt>
      <trkpt lon="-3.345093" lat="54.548141"><ele>448.637726</ele><time>2021-08-12T10:40:36Z</time><extensions><speed>1.587471</speed><course>62.069283</course><hAcc>0.869241</hAcc><vAcc>0.661988</vAcc></extensions></trkpt>
      <trkpt lon="-3.345100" lat="54.548128"><ele>448.434204</ele><time>2021-08-12T10:40:37Z</time><extensions><speed>1.596273</speed><course>68.512573</course><hAcc>0.869464</hAcc><vAcc>0.662980</vAcc></extensions></trkpt>
      <trkpt lon="-3.345108" lat="54.548114"><ele>448.225586</ele><time>2021-08-12T10:40:38Z</time><extensions><speed>1.600585</speed><course>76.544746</course><hAcc>0.869651</hAcc><vAcc>0.663819</vAcc></extensions></trkpt>
      <trkpt lon="-3.345115" lat="54.548100"><ele>448.011536</ele><time>2021-08-12T10:40:39Z</time><extensions><speed>1.601481</speed><course>91.471558</course><hAcc>0.869779</hAcc><vAcc>0.664398</vAcc></extensions></trkpt>
      <trkpt lon="-3.345123" lat="54.548087"><ele>447.792175</ele><time>2021-08-12T10:40:40Z</time><extensions><speed>1.599857</speed><course>103.707001</course><hAcc>0.869835</hAcc><vAcc>0.664638</vAcc></extensions></trkpt>
      <trkpt lon="-3.345131" lat="54.548073"><ele>447.568054</ele><time>2021-08-12T10:40:41Z</time><extensions><speed>1.596321</speed><course>102.240677</course><hAcc>0.869816</hAcc><vAcc>0.664515</vAcc></extensions></trkpt>
      <trkpt lon="-3.345140" lat="54.548060"><ele>447.340210</ele><time>2021-08-12T10:40:42Z</time><extensions><speed>1.591715</speed><course>109.008522</course><hAcc>0.869733</hAcc><vAcc>0.664072</vAcc></extensions></trkpt>
      <trkpt lon="-3.345149" lat="54.548046"><ele>447.110291</ele><time>2021-08-12T10:40:43Z</time><extensions><speed>1.586634</speed><course>120.687057</course><hAcc>0.869612</hAcc><vAcc>0.663423</vAcc></extensions></trkpt>
      <trkpt lon="-3.345158" lat="54.548033"><ele>446.880249</ele><time>2021-08-12T10:40:44Z</time><extensions><speed>1.581528</speed><course>122.518364</course><hAcc>0.869490</hAcc><vAcc>0.662739</vAcc></extensions></trkpt>
      <trkpt lon="-3.345167" lat="54.548020"><ele>446.651703</ele><time>2021-08-12T10:40:45Z</time><extensions><speed>1.576390</speed><course>116.435341</course><hAcc>0.869407</hAcc><vAcc>0.662218</vAcc></extensions></trkpt>
      <trkpt lon="-3.345177" lat="54.548007"><ele>446.424927</ele><time>2021-08-12T10:40:46Z</time><extensions><speed>1.570660</speed><course>123.806564</course><hAcc>0.869405</hAcc><vAcc>0.662047</vAcc></extensions></trkpt>
      <trkpt lon="-3.345187" lat="54.547994"><ele>446.199493</ele><time>2021-08-12T10:40:47Z</time><extensions><speed>1.564335</speed><course>121.279266</course><hAcc>0.869512</hAcc><vAcc>0.662358</vAcc></extensions></trkpt>
      <trkpt lon="-3.345197" lat="54.547982"><ele>445.975281</ele><time>2021-08-12T10:40:48Z</time><extensions><speed>1.557540</speed><course>122.295830</course><hAcc>0.869740</hAcc><vAcc>0.663204</vAcc></extensions></trkpt>
      <trkpt lon="-3.345208" lat="54.547969"><ele>445.752472</ele><time>2021-08-12T10:40:49Z</time><extensions><speed>1.550362</speed><course>116.485687</course><hAcc>0.870083</hAcc><vAcc>0.664547</vAcc></extensions></trkpt>
      <trkpt lon="-3.345219" lat="54.547957"><ele>445.531128</ele><time>2021-08-12T10:40:50Z</time><extensions><speed>1.543182</speed><course>120.837761</course><hAcc>0.870517</hAcc><vAcc>0.666284</vAcc></extensions></trkpt>
      <trkpt lon="-3.345230" lat="54.547945"><ele>445.310730</ele><time>2021-08-12T10:40:51Z</time><extensions><speed>1.535931</speed><course>121.691162</course><hAcc>0.871014</hAcc><vAcc>0.668280</vAcc></extensions></trkpt>
      <trkpt lon="-3.345242" lat="54.547933"><ele>445.090363</ele><time>2021-08-12T10:40:52Z</time><extensions><speed>1.528407</speed><course>120.429344</course><hAcc>0.871539</hAcc><vAcc>0.670394</vAcc></extensions></trkpt>
      <trkpt lon="-3.345254" lat="54.547921"><ele>444.868927</ele><time>2021-08-12T10:40:53Z</time><extensions><speed>1.520200</speed><course>127.922836</course><hAcc>0.872056</hAcc><vAcc>0.672473</vAcc></extensions></trkpt>
      <trkpt lon="-3.345266" lat="54.547910"><ele>444.645416</ele><time>2021-08-12T10:40:54Z</time><extensions><speed>1.510700</speed><course>122.773224</course><hAcc>0.872530</hAcc><vAcc>0.674369</vAcc></extensions></trkpt>
      <trkpt lon="-3.345279" lat="54.547898"><ele>444.419067</ele><time>2021-08-12T10:40:55Z</time><extensions><speed>1.499650</speed><course>127.410233</course><hAcc>0.872930</hAcc><vAcc>0.675949</vAcc></extensions></trkpt>
      <trkpt lon="-3.345291" lat="54.547887"><ele>444.189484</ele><time>2021-08-12T10:40:56Z</time><extensions><speed>1.486663</speed><course>126.293243</course><hAcc>0.873229</hAcc><vAcc>0.677109</vAcc></extensions></trkpt>
      <trkpt lon="-3.345304" lat="54.547876"><ele>443.956573</ele><time>2021-08-12T10:40:57Z</time><extensions><speed>1.471080</speed><course>113.773628</course><hAcc>0.873410</hAcc><vAcc>0.677778</vAcc></extensions></trkpt>
      <trkpt lon="-3.345317" lat="54.547865"><ele>443.720398</ele><time>2021-08-12T10:40:58Z</time><extensions><speed>1.452207</speed><course>111.597641</course><hAcc>0.873460</hAcc><vAcc>0.677926</vAcc></extensions></trkpt>
      <trkpt lon="-3.345329" lat="54.547854"><ele>443.480774</ele><time>2021-08-12T10:40:59Z</time><extensions><speed>1.429533</speed><course>118.242065</course><hAcc>0.873378</hAcc><vAcc>0.677562</vAcc></extensions></trkpt>
      <trkpt lon="-3.345342" lat="54.547844"><ele>443.237030</ele><time>2021-08-12T10:41:00Z</time><extensions><speed>1.402653</speed><course>121.318916</course><hAcc>0.873165</hAcc><vAcc>0.676722</vAcc></extensions></trkpt>
      <trkpt lon="-3.345354" lat="54.547833"><ele>442.988586</ele><time>2021-08-12T10:41:01Z</time><extensions><speed>1.371826</speed><course>126.571838</course><hAcc>0.872827</hAcc><vAcc>0.675440</vAcc></extensions></trkpt>
      <trkpt lon="-3.345365" lat="54.547823"><ele>442.735840</ele><time>2021-08-12T10:41:02Z</time><extensions><speed>1.338265</speed><course>116.053932</course><hAcc>0.872371</hAcc><vAcc>0.673739</vAcc></extensions></trkpt>
      <trkpt lon="-3.345376" lat="54.547813"><ele>442.480255</ele><time>2021-08-12T10:41:03Z</time><extensions><speed>1.303758</speed><course>122.553452</course><hAcc>0.871807</hAcc><vAcc>0.671649</vAcc></extensions></trkpt>
      <trkpt lon="-3.345386" lat="54.547803"><ele>442.223480</ele><time>2021-08-12T10:41:04Z</time><extensions><speed>1.270341</speed><course>115.362396</course><hAcc>0.871149</hAcc><vAcc>0.669217</vAcc></extensions></trkpt>
      <trkpt lon="-3.345396" lat="54.547793"><ele>441.966614</ele><time>2021-08-12T10:41:05Z</time><extensions><speed>1.239444</speed><course>120.016403</course><hAcc>0.870411</hAcc><vAcc>0.666503</vAcc></extensions></trkpt>
      <trkpt lon="-3.345405" lat="54.547784"><ele>441.709503</ele><time>2021-08-12T10:41:06Z</time><extensions><speed>1.211537</speed><course>131.521149</course><hAcc>0.869610</hAcc><vAcc>0.663567</vAcc></extensions></trkpt>
      <trkpt lon="-3.345413" lat="54.547774"><ele>441.451080</ele><time>2021-08-12T10:41:07Z</time><extensions><speed>1.186944</speed><course>124.976143</course><hAcc>0.868763</hAcc><vAcc>0.660470</vAcc></extensions></trkpt>
      <trkpt lon="-3.345421" lat="54.547765"><ele>441.189545</ele><time>2021-08-12T10:41:08Z</time><extensions><speed>1.166440</speed><course>123.546791</course><hAcc>0.867888</hAcc><vAcc>0.657273</vAcc></extensions></trkpt>
      <trkpt lon="-3.345428" lat="54.547755"><ele>440.922821</ele><time>2021-08-12T10:41:09Z</time><extensions><speed>1.150836</speed><course>116.699699</course><hAcc>0.867002</hAcc><vAcc>0.654037</vAcc></extensions></trkpt>
      <trkpt lon="-3.345435" lat="54.547746"><ele>440.649017</ele><time>2021-08-12T10:41:10Z</time><extensions><speed>1.139974</speed><course>112.924561</course><hAcc>0.866125</hAcc><vAcc>0.650828</vAcc></extensions></trkpt>
      <trkpt lon="-3.345441" lat="54.547736"><ele>440.366913</ele><time>2021-08-12T10:41:11Z</time><extensions><speed>1.132315</speed><course>117.858780</course><hAcc>0.865277</hAcc><vAcc>0.647714</vAcc></extensions></trkpt>
      <trkpt lon="-3.345447" lat="54.547727"><ele>440.076111</ele><time>2021-08-12T10:41:12Z</time><extensions><speed>1.126451</speed><course>111.630035</course><hAcc>0.864481</hAcc><vAcc>0.644773</vAcc></extensions></trkpt>
      <trkpt lon="-3.345453" lat="54.547717"><ele>439.777008</ele><time>2021-08-12T10:41:13Z</time><extensions><speed>1.122074</speed><course>115.453979</course><hAcc>0.863762</hAcc><vAcc>0.642094</vAcc></extensions></trkpt>
      <trkpt lon="-3.345458" lat="54.547707"><ele>439.471008</ele><time>2021-08-12T10:41:14Z</time><extensions><speed>1.119342</speed><course>108.625862</course><hAcc>0.863148</hAcc><vAcc>0.639782</vAcc></extensions></trkpt>
      <trkpt lon="-3.345464" lat="54.547698"><ele>439.160583</ele><time>2021-08-12T10:41:15Z</time><extensions><speed>1.118104</speed><course>116.435417</course><hAcc>0.862668</hAcc><vAcc>0.637956</vAcc></extensions></trkpt>
      <trkpt lon="-3.345469" lat="54.547688"><ele>438.848969</ele><time>2021-08-12T10:41:16Z</time><extensions><speed>1.118060</speed><course>112.323517</course><hAcc>0.862355</hAcc><vAcc>0.636743</vAcc></extensions></trkpt>
      <trkpt lon="-3.345474" lat="54.547679"><ele>438.538849</ele><time>2021-08-12T10:41:17Z</time><extensions><speed>1.118760</speed><course>117.491661</course><hAcc>0.862234</hAcc><vAcc>0.636261</vAcc></extensions></trkpt>
      <trkpt lon="-3.345480" lat="54.547669"><ele>438.231750</ele><time>2021-08-12T10:41:18Z</time><extensions><speed>1.119154</speed><course>120.293846</course><hAcc>0.862322</hAcc><vAcc>0.636588</vAcc></extensions></trkpt>
      <trkpt lon="-3.345485" lat="54.547660"><ele>437.927612</ele><time>2021-08-12T10:41:19Z</time><extensions><speed>1.118373</speed><course>115.591873</course><hAcc>0.862625</hAcc><vAcc>0.637751</vAcc></extensions></trkpt>
      <trkpt lon="-3.345491" lat="54.547650"><ele>437.625305</ele><time>2021-08-12T10:41:20Z</time><extensions><speed>1.116316</speed><course>116.468712</course><hAcc>0.863133</hAcc><vAcc>0.639707</vAcc></extensions></trkpt>
      <trkpt lon="-3.345497" lat="54.547641"><ele>437.323669</ele><time>2021-08-12T10:41:21Z</time><extensions><speed>1.114098</speed><course>116.627220</course><hAcc>0.863821</hAcc><vAcc>0.642351</vAcc></extensions></trkpt>
      <trkpt lon="-3.345503" lat="54.547631"><ele>437.021454</ele><time>2021-08-12T10:41:22Z</time><extensions><speed>1.113755</speed><course>115.487846</course><hAcc>0.864655</hAcc><vAcc>0.645541</vAcc></extensions></trkpt>
      <trkpt lon="-3.345510" lat="54.547622"><ele>436.717529</ele><time>2021-08-12T10:41:23Z</time><extensions><speed>1.117153</speed><course>110.303284</course><hAcc>0.865592</hAcc><vAcc>0.649111</vAcc></extensions></trkpt>
      <trkpt lon="-3.345517" lat="54.547613"><ele>436.410797</ele><time>2021-08-12T10:41:24Z</time><extensions><speed>1.125824</speed><course>107.900200</course><hAcc>0.866586</hAcc><vAcc>0.652878</vAcc></extensions></trkpt>
      <trkpt lon="-3.345525" lat="54.547604"><ele>436.100067</ele><time>2021-08-12T10:41:25Z</time><extensions><speed>1.140524</speed><course>104.901772</course><hAcc>0.867589</hAcc><vAcc>0.656664</vAcc></extensions></trkpt>
      <trkpt lon="-3.345533" lat="54.547595"><ele>435.783783</ele><time>2021-08-12T10:41:26Z</time><extensions><speed>1.160891</speed><course>102.625549</course><hAcc>0.868562</hAcc><vAcc>0.660328</vAcc></extensions></trkpt>
      <trkpt lon="-3.345541" lat="54.547585"><ele>435.460022</ele><time>2021-08-12T10:41:27Z</time><extensions><speed>1.185500</speed><course>101.615082</course><hAcc>0.869470</hAcc><vAcc>0.663755</vAcc></extensions></trkpt>
      <trkpt lon="-3.345549" lat="54.547576"><ele>435.126862</ele><time>2021-08-12T10:41:28Z</time><extensions><speed>1.212543</speed><course>104.820312</course><hAcc>0.870287</hAcc><vAcc>0.666845</vAcc></extensions></trkpt>
      <trkpt lon="-3.345558" lat="54.547566"><ele>434.782593</ele><time>2021-08-12T10:41:29Z</time><extensions><speed>1.240471</speed><course>97.837166</course><hAcc>0.870987</hAcc><vAcc>0.669491</vAcc></extensions></trkpt>
      <trkpt lon="-3.345567" lat="54.547556"><ele>434.426086</ele><time>2021-08-12T10:41:30Z</time><extensions><speed>1.268240</speed><course>99.518051</course><hAcc>0.871553</hAcc><vAcc>0.671589</vAcc></extensions></trkpt>
      <trkpt lon="-3.345576" lat="54.547546"><ele>434.056580</ele><time>2021-08-12T10:41:31Z</time><extensions><speed>1.295297</speed><course>105.468117</course><hAcc>0.871974</hAcc><vAcc>0.673069</vAcc></extensions></trkpt>
      <trkpt lon="-3.345585" lat="54.547535"><ele>433.673401</ele><time>2021-08-12T10:41:32Z</time><extensions><speed>1.321537</speed><course>105.021729</course><hAcc>0.872255</hAcc><vAcc>0.673923</vAcc></extensions></trkpt>
      <trkpt lon="-3.345593" lat="54.547524"><ele>433.276367</ele><time>2021-08-12T10:41:33Z</time><extensions><speed>1.347542</speed><course>105.854553</course><hAcc>0.872412</hAcc><vAcc>0.674216</vAcc></extensions></trkpt>
      <trkpt lon="-3.345602" lat="54.547513"><ele>432.866272</ele><time>2021-08-12T10:41:34Z</time><extensions><speed>1.374288</speed><course>116.038353</course><hAcc>0.872477</hAcc><vAcc>0.674090</vAcc></extensions></trkpt>
      <trkpt lon="-3.345610" lat="54.547502"><ele>432.444946</ele><time>2021-08-12T10:41:35Z</time><extensions><speed>1.401828</speed><course>116.622620</course><hAcc>0.872491</hAcc><vAcc>0.673745</vAcc></extensions></trkpt>
      <trkpt lon="-3.345618" lat="54.547490"><ele>432.014221</ele><time>2021-08-12T10:41:36Z</time><extensions><speed>1.429365</speed><course>116.023415</course><hAcc>0.872499</hAcc><vAcc>0.673413</vAcc></extensions></trkpt>
      <trkpt lon="-3.345626" lat="54.547477"><ele>431.575592</ele><time>2021-08-12T10:41:37Z</time><extensions><speed>1.455997</speed><course>111.053482</course><hAcc>0.872548</hAcc><vAcc>0.673314</vAcc></extensions></trkpt>
      <trkpt lon="-3.345633" lat="54.547465"><ele>431.130371</ele><time>2021-08-12T10:41:38Z</time><extensions><speed>1.481037</speed><course>109.683617</course><hAcc>0.872672</hAcc><vAcc>0.673609</vAcc></extensions></trkpt>
      <trkpt lon="-3.345640" lat="54.547452"><ele>430.680145</ele><time>2021-08-12T10:41:39Z</time><extensions><speed>1.503770</speed><course>107.838440</course><hAcc>0.872889</hAcc><vAcc>0.674368</vAcc></extensions></trkpt>
      <trkpt lon="-3.345646" lat="54.547439"><ele>430.226318</ele><time>2021-08-12T10:41:40Z</time><extensions><speed>1.523271</speed><course>110.196930</course><hAcc>0.873202</hAcc><vAcc>0.675573</vAcc></extensions></trkpt>
      <trkpt lon="-3.345651" lat="54.547426"><ele>429.770386</ele><time>2021-08-12T10:41:41Z</time><extensions><speed>1.539199</speed><course>111.548782</course><hAcc>0.873599</hAcc><vAcc>0.677146</vAcc></extensions></trkpt>
      <trkpt lon="-3.345656" lat="54.547412"><ele>429.314606</ele><time>2021-08-12T10:41:42Z</time><extensions><speed>1.551608</speed><course>110.420074</course><hAcc>0.874065</hAcc><vAcc>0.678979</vAcc></extensions></trkpt>
      <trkpt lon="-3.345660" lat="54.547398"><ele>428.861694</ele><time>2021-08-12T10:41:43Z</time><extensions><speed>1.560510</speed><course>99.619576</course><hAcc>0.874577</hAcc><vAcc>0.680963</vAcc></extensions></trkpt>
      <trkpt lon="-3.345663" lat="54.547384"><ele>428.414276</ele><time>2021-08-12T10:41:44Z</time><extensions><speed>1.565841</speed><course>107.102882</course><hAcc>0.875117</hAcc><vAcc>0.683005</vAcc></extensions></trkpt>
      <trkpt lon="-3.345665" lat="54.547370"><ele>427.973938</ele><time>2021-08-12T10:41:45Z</time><extensions><speed>1.567565</speed><course>98.831825</course><hAcc>0.875666</hAcc><vAcc>0.685034</vAcc></extensions></trkpt>
      <trkpt lon="-3.345667" lat="54.547356"><ele>427.541351</ele><time>2021-08-12T10:41:46Z</time><extensions><speed>1.565923</speed><course>99.864403</course><hAcc>0.876212</hAcc><vAcc>0.687003</vAcc></extensions></trkpt>
      <trkpt lon="-3.345668" lat="54.547342"><ele>427.117035</ele><time>2021-08-12T10:41:47Z</time><extensions><speed>1.561193</speed><course>99.165215</course><hAcc>0.876744</hAcc><vAcc>0.688882</vAcc></extensions></trkpt>
      <trkpt lon="-3.345668" lat="54.547328"><ele>426.701324</ele><time>2021-08-12T10:41:48Z</time><extensions><speed>1.553392</speed><course>106.876038</course><hAcc>0.877254</hAcc><vAcc>0.690658</vAcc></extensions></trkpt>
      <trkpt lon="-3.345668" lat="54.547314"><ele>426.294464</ele><time>2021-08-12T10:41:49Z</time><extensions><speed>1.542637</speed><course>100.224144</course><hAcc>0.877739</hAcc><vAcc>0.692335</vAcc></extensions></trkpt>
      <trkpt lon="-3.345667" lat="54.547301"><ele>425.896576</ele><time>2021-08-12T10:41:50Z</time><extensions><speed>1.529113</speed><course>97.870438</course><hAcc>0.878198</hAcc><vAcc>0.693920</vAcc></extensions></trkpt>
      <trkpt lon="-3.345667" lat="54.547287"><ele>425.507324</ele><time>2021-08-12T10:41:51Z</time><extensions><speed>1.513121</speed><course>109.047302</course><hAcc>0.878630</hAcc><vAcc>0.695426</vAcc></extensions></trkpt>
      <trkpt lon="-3.345667" lat="54.547273"><ele>425.125671</ele><time>2021-08-12T10:41:52Z</time><extensions><speed>1.495152</speed><course>111.386711</course><hAcc>0.879035</hAcc><vAcc>0.696859</vAcc></extensions></trkpt>
      <trkpt lon="-3.345667" lat="54.547260"><ele>424.749786</ele><time>2021-08-12T10:41:53Z</time><extensions><speed>1.475852</speed><course>110.131767</course><hAcc>0.879416</hAcc><vAcc>0.698222</vAcc></extensions></trkpt>
      <trkpt lon="-3.345667" lat="54.547247"><ele>424.377441</ele><time>2021-08-12T10:41:54Z</time><extensions><speed>1.455975</speed><course>109.748413</course><hAcc>0.879772</hAcc><vAcc>0.699510</vAcc></extensions></trkpt>
      <trkpt lon="-3.345668" lat="54.547234"><ele>424.006500</ele><time>2021-08-12T10:41:55Z</time><extensions><speed>1.436382</speed><course>116.453705</course><hAcc>0.880105</hAcc><vAcc>0.700718</vAcc></extensions></trkpt>
      <trkpt lon="-3.345670" lat="54.547221"><ele>423.635406</ele><time>2021-08-12T10:41:56Z</time><extensions><speed>1.417879</speed><course>111.019348</course><hAcc>0.880418</hAcc><vAcc>0.701845</vAcc></extensions></trkpt>
      <trkpt lon="-3.345672" lat="54.547208"><ele>423.263367</ele><time>2021-08-12T10:41:57Z</time><extensions><speed>1.400931</speed><course>106.996025</course><hAcc>0.880713</hAcc><vAcc>0.702896</vAcc></extensions></trkpt>
      <trkpt lon="-3.345674" lat="54.547196"><ele>422.889832</ele><time>2021-08-12T10:41:58Z</time><extensions><speed>1.385324</speed><course>104.594215</course><hAcc>0.880998</hAcc><vAcc>0.703880</vAcc></extensions></trkpt>
      <trkpt lon="-3.345676" lat="54.547184"><ele>422.513947</ele><time>2021-08-12T10:41:59Z</time><extensions><speed>1.370720</speed><course>101.351479</course><hAcc>0.881282</hAcc><vAcc>0.704816</vAcc></extensions></trkpt>
      <trkpt lon="-3.345678" lat="54.547171"><ele>422.135040</ele><time>2021-08-12T10:42:00Z</time><extensions><speed>1.357070</speed><course>105.952332</course><hAcc>0.881580</hAcc><vAcc>0.705722</vAcc></extensions></trkpt>
      <trkpt lon="-3.345679" lat="54.547159"><ele>421.753021</ele><time>2021-08-12T10:42:01Z</time><extensions><speed>1.344360</speed><course>113.138412</course><hAcc>0.881911</hAcc><vAcc>0.706626</vAcc></extensions></trkpt>
      <trkpt lon="-3.345680" lat="54.547147"><ele>421.368164</ele><time>2021-08-12T10:42:02Z</time><extensions><speed>1.332694</speed><course>112.944946</course><hAcc>0.882302</hAcc><vAcc>0.707562</vAcc></extensions></trkpt>
      <trkpt lon="-3.345680" lat="54.547135"><ele>420.980591</ele><time>2021-08-12T10:42:03Z</time><extensions><speed>1.322226</speed><course>108.292221</course><hAcc>0.882785</hAcc><vAcc>0.708575</vAcc></extensions></trkpt>
      <trkpt lon="-3.345680" lat="54.547124"><ele>420.590118</ele><time>2021-08-12T10:42:04Z</time><extensions><speed>1.313293</speed><course>108.436562</course><hAcc>0.883399</hAcc><vAcc>0.709710</vAcc></extensions></trkpt>
      <trkpt lon="-3.345678" lat="54.547112"><ele>420.196167</ele><time>2021-08-12T10:42:05Z</time><extensions><speed>1.306556</speed><course>102.445824</course><hAcc>0.884187</hAcc><vAcc>0.711016</vAcc></extensions></trkpt>
      <trkpt lon="-3.345676" lat="54.547100"><ele>419.798309</ele><time>2021-08-12T10:42:06Z</time><extensions><speed>1.302556</speed><course>99.628555</course><hAcc>0.885193</hAcc><vAcc>0.712528</vAcc></extensions></trkpt>
      <trkpt lon="-3.345673" lat="54.547089"><ele>419.396149</ele><time>2021-08-12T10:42:07Z</time><extensions><speed>1.301191</speed><course>103.656601</course><hAcc>0.886456</hAcc><vAcc>0.714268</vAcc></extensions></trkpt>
      <trkpt lon="-3.345668" lat="54.547077"><ele>418.989502</ele><time>2021-08-12T10:42:08Z</time><extensions><speed>1.301663</speed><course>97.309608</course><hAcc>0.888002</hAcc><vAcc>0.716231</vAcc></extensions></trkpt>
      <trkpt lon="-3.345663" lat="54.547066"><ele>418.578430</ele><time>2021-08-12T10:42:09Z</time><extensions><speed>1.302563</speed><course>95.308922</course><hAcc>0.889835</hAcc><vAcc>0.718379</vAcc></extensions></trkpt>
      <trkpt lon="-3.345658" lat="54.547055"><ele>418.163635</ele><time>2021-08-12T10:42:10Z</time><extensions><speed>1.302375</speed><course>105.665154</course><hAcc>0.891922</hAcc><vAcc>0.720635</vAcc></extensions></trkpt>
      <trkpt lon="-3.345652" lat="54.547044"><ele>417.746368</ele><time>2021-08-12T10:42:11Z</time><extensions><speed>1.299873</speed><course>120.238884</course><hAcc>0.894185</hAcc><vAcc>0.722880</vAcc></extensions></trkpt>
      <trkpt lon="-3.345646" lat="54.547032"><ele>417.327972</ele><time>2021-08-12T10:42:12Z</time><extensions><speed>1.294299</speed><course>108.474937</course><hAcc>0.896492</hAcc><vAcc>0.724964</vAcc></extensions></trkpt>
      <trkpt lon="-3.345640" lat="54.547021"><ele>416.909485</ele><time>2021-08-12T10:42:13Z</time><extensions><speed>1.285727</speed><course>104.059807</course><hAcc>0.898659</hAcc><vAcc>0.726722</vAcc></extensions></trkpt>
      <trkpt lon="-3.345634" lat="54.547010"><ele>416.491913</ele><time>2021-08-12T10:42:14Z</time><extensions><speed>1.274852</speed><course>102.572708</course><hAcc>0.900473</hAcc><vAcc>0.728001</vAcc></extensions></trkpt>
      <trkpt lon="-3.345629" lat="54.546999"><ele>416.076141</ele><time>2021-08-12T10:42:15Z</time><extensions><speed>1.262199</speed><course>107.161850</course><hAcc>0.901745</hAcc><vAcc>0.728728</vAcc></extensions></trkpt>
      <trkpt lon="-3.345625" lat="54.546988"><ele>415.662445</ele><time>2021-08-12T10:42:16Z</time><extensions><speed>1.247556</speed><course>105.046165</course><hAcc>0.902408</hAcc><vAcc>0.729003</vAcc></extensions></trkpt>
      <trkpt lon="-3.345621" lat="54.546977"><ele>415.249695</ele><time>2021-08-12T10:42:17Z</time><extensions><speed>1.230288</speed><course>107.406158</course><hAcc>0.902682</hAcc><vAcc>0.729245</vAcc></extensions></trkpt>
      <trkpt lon="-3.345618" lat="54.546967"><ele>414.835724</ele><time>2021-08-12T10:42:18Z</time><extensions><speed>1.210337</speed><course>115.429123</course><hAcc>0.903338</hAcc><vAcc>0.730388</vAcc></extensions></trkpt>
      <trkpt lon="-3.345616" lat="54.546956"><ele>414.418213</ele><time>2021-08-12T10:42:19Z</time><extensions><speed>1.188182</speed><course>116.147835</course><hAcc>0.906051</hAcc><vAcc>0.734120</vAcc></extensions></trkpt>
      <trkpt lon="-3.345614" lat="54.546945"><ele>413.995819</ele><time>2021-08-12T10:42:20Z</time><extensions><speed>1.164723</speed><course>117.699570</course><hAcc>0.913854</hAcc><vAcc>0.743130</vAcc></extensions></trkpt>
      <trkpt lon="-3.345613" lat="54.546935"><ele>413.569061</ele><time>2021-08-12T10:42:21Z</time><extensions><speed>1.141428</speed><course>118.218575</course><hAcc>0.931559</hAcc><vAcc>0.761257</vAcc></extensions></trkpt>
      <trkpt lon="-3.345613" lat="54.546925"><ele>413.140076</ele><time>2021-08-12T10:42:22Z</time><extensions><speed>1.119804</speed><course>118.864105</course><hAcc>0.965906</hAcc><vAcc>0.793379</vAcc></extensions></trkpt>
      <trkpt lon="-3.345626" lat="54.546919"><ele>412.999603</ele><time>2021-08-12T10:42:23Z</time><extensions><speed>0.757071</speed><course>74.967865</course><hAcc>0.928199</hAcc><vAcc>0.757498</vAcc></extensions></trkpt>
      <trkpt lon="-3.345637" lat="54.546917"><ele>412.743774</ele><time>2021-08-12T10:42:24Z</time><extensions><speed>0.798222</speed><course>75.133301</course><hAcc>0.908630</hAcc><vAcc>0.734285</vAcc></extensions></trkpt>
      <trkpt lon="-3.345650" lat="54.546915"><ele>412.505524</ele><time>2021-08-12T10:42:25Z</time><extensions><speed>0.851146</speed><course>66.099251</course><hAcc>0.900240</hAcc><vAcc>0.721406</vAcc></extensions></trkpt>
      <trkpt lon="-3.345663" lat="54.546914"><ele>412.285309</ele><time>2021-08-12T10:42:26Z</time><extensions><speed>0.910400</speed><course>81.237114</course><hAcc>0.897560</hAcc><vAcc>0.714651</vAcc></extensions></trkpt>
      <trkpt lon="-3.345678" lat="54.546914"><ele>412.082672</ele><time>2021-08-12T10:42:27Z</time><extensions><speed>0.970298</speed><course>80.566093</course><hAcc>0.897146</hAcc><vAcc>0.711057</vAcc></extensions></trkpt>
      <trkpt lon="-3.345693" lat="54.546914"><ele>411.896637</ele><time>2021-08-12T10:42:28Z</time><extensions><speed>1.026844</speed><course>80.566109</course><hAcc>0.897114</hAcc><vAcc>0.708782</vAcc></extensions></trkpt>
      <trkpt lon="-3.345709" lat="54.546915"><ele>411.726135</ele><time>2021-08-12T10:42:29Z</time><extensions><speed>1.077369</speed><course>80.566093</course><hAcc>0.896634</hAcc><vAcc>0.706850</vAcc></extensions></trkpt>
      <trkpt lon="-3.345726" lat="54.546917"><ele>411.570496</ele><time>2021-08-12T10:42:30Z</time><extensions><speed>1.119931</speed><course>80.566093</course><hAcc>0.895506</hAcc><vAcc>0.704866</vAcc></extensions></trkpt>
      <trkpt lon="-3.345743" lat="54.546919"><ele>411.429504</ele><time>2021-08-12T10:42:31Z</time><extensions><speed>1.152089</speed><course>80.566093</course><hAcc>0.893859</hAcc><vAcc>0.702782</vAcc></extensions></trkpt>
      <trkpt lon="-3.345761" lat="54.546921"><ele>411.303253</ele><time>2021-08-12T10:42:32Z</time><extensions><speed>1.170388</speed><course>77.344681</course><hAcc>0.891950</hAcc><vAcc>0.700710</vAcc></extensions></trkpt>
      <trkpt lon="-3.345778" lat="54.546924"><ele>411.191956</ele><time>2021-08-12T10:42:33Z</time><extensions><speed>1.171781</speed><course>77.923714</course><hAcc>0.890042</hAcc><vAcc>0.698805</vAcc></extensions></trkpt>
      <trkpt lon="-3.345795" lat="54.546927"><ele>411.095337</ele><time>2021-08-12T10:42:34Z</time><extensions><speed>1.155033</speed><course>87.073212</course><hAcc>0.888336</hAcc><vAcc>0.697197</vAcc></extensions></trkpt>
      <trkpt lon="-3.345812" lat="54.546930"><ele>411.012604</ele><time>2021-08-12T10:42:35Z</time><extensions><speed>1.120974</speed><course>79.233902</course><hAcc>0.886945</hAcc><vAcc>0.695967</vAcc></extensions></trkpt>
      <trkpt lon="-3.345828" lat="54.546933"><ele>410.942413</ele><time>2021-08-12T10:42:36Z</time><extensions><speed>1.071676</speed><course>96.572746</course><hAcc>0.885883</hAcc><vAcc>0.695134</vAcc></extensions></trkpt>
      <trkpt lon="-3.345843" lat="54.546936"><ele>410.883057</ele><time>2021-08-12T10:42:37Z</time><extensions><speed>1.009993</speed><course>86.920219</course><hAcc>0.885079</hAcc><vAcc>0.694676</vAcc></extensions></trkpt>
      <trkpt lon="-3.345858" lat="54.546939"><ele>410.833069</ele><time>2021-08-12T10:42:38Z</time><extensions><speed>0.938676</speed><course>76.786201</course><hAcc>0.884410</hAcc><vAcc>0.694542</vAcc></extensions></trkpt>
      <trkpt lon="-3.345871" lat="54.546941"><ele>410.791199</ele><time>2021-08-12T10:42:39Z</time><extensions><speed>0.859904</speed><course>77.162971</course><hAcc>0.883772</hAcc><vAcc>0.694678</vAcc></extensions></trkpt>
      <trkpt lon="-3.345884" lat="54.546942"><ele>410.756165</ele><time>2021-08-12T10:42:40Z</time><extensions><speed>0.776387</speed><course>69.604996</course><hAcc>0.883128</hAcc><vAcc>0.695046</vAcc></extensions></trkpt>
      <trkpt lon="-3.345895" lat="54.546944"><ele>410.725861</ele><time>2021-08-12T10:42:41Z</time><extensions><speed>0.691259</speed><course>76.115456</course><hAcc>0.882503</hAcc><vAcc>0.695622</vAcc></extensions></trkpt>
      <trkpt lon="-3.345905" lat="54.546944"><ele>410.696564</ele><time>2021-08-12T10:42:42Z</time><extensions><speed>0.607584</speed><course>83.646278</course><hAcc>0.881939</hAcc><vAcc>0.696387</vAcc></extensions></trkpt>
      <trkpt lon="-3.345913" lat="54.546945"><ele>410.663422</ele><time>2021-08-12T10:42:43Z</time><extensions><speed>0.528275</speed><course>76.408623</course><hAcc>0.881475</hAcc><vAcc>0.697312</vAcc></extensions></trkpt>
      <trkpt lon="-3.345921" lat="54.546945"><ele>410.621735</ele><time>2021-08-12T10:42:44Z</time><extensions><speed>0.456506</speed><course>79.439453</course><hAcc>0.881129</hAcc><vAcc>0.698346</vAcc></extensions></trkpt>
      <trkpt lon="-3.345928" lat="54.546944"><ele>410.567444</ele><time>2021-08-12T10:42:45Z</time><extensions><speed>0.396199</speed><course>75.300941</course><hAcc>0.880901</hAcc><vAcc>0.699426</vAcc></extensions></trkpt>
      <trkpt lon="-3.345933" lat="54.546943"><ele>410.497528</ele><time>2021-08-12T10:42:46Z</time><extensions><speed>0.351074</speed><course>76.126534</course><hAcc>0.880777</hAcc><vAcc>0.700482</vAcc></extensions></trkpt>
      <trkpt lon="-3.345938" lat="54.546942"><ele>410.409973</ele><time>2021-08-12T10:42:47Z</time><extensions><speed>0.323484</speed><course>75.233688</course><hAcc>0.880734</hAcc><vAcc>0.701446</vAcc></extensions></trkpt>
      <trkpt lon="-3.345942" lat="54.546941"><ele>410.303802</ele><time>2021-08-12T10:42:48Z</time><extensions><speed>0.313696</speed><course>81.891060</course><hAcc>0.880745</hAcc><vAcc>0.702264</vAcc></extensions></trkpt>
      <trkpt lon="-3.345946" lat="54.546939"><ele>410.178711</ele><time>2021-08-12T10:42:49Z</time><extensions><speed>0.319606</speed><course>78.263519</course><hAcc>0.880788</hAcc><vAcc>0.702908</vAcc></extensions></trkpt>
      <trkpt lon="-3.345950" lat="54.546937"><ele>410.034729</ele><time>2021-08-12T10:42:50Z</time><extensions><speed>0.337860</speed><course>74.907532</course><hAcc>0.880842</hAcc><vAcc>0.703370</vAcc></extensions></trkpt>
      <trkpt lon="-3.345953" lat="54.546935"><ele>409.872009</ele><time>2021-08-12T10:42:51Z</time><extensions><speed>0.364897</speed><course>84.941742</course><hAcc>0.880895</hAcc><vAcc>0.703657</vAcc></extensions></trkpt>
      <trkpt lon="-3.345957" lat="54.546932"><ele>409.690887</ele><time>2021-08-12T10:42:52Z</time><extensions><speed>0.397433</speed><course>73.584358</course><hAcc>0.880940</hAcc><vAcc>0.703793</vAcc></extensions></trkpt>
      <trkpt lon="-3.345961" lat="54.546929"><ele>409.491516</ele><time>2021-08-12T10:42:53Z</time><extensions><speed>0.432553</speed><course>96.346313</course><hAcc>0.880977</hAcc><vAcc>0.703814</vAcc></extensions></trkpt>
      <trkpt lon="-3.345965" lat="54.546926"><ele>409.273926</ele><time>2021-08-12T10:42:54Z</time><extensions><speed>0.467824</speed><course>87.208282</course><hAcc>0.881009</hAcc><vAcc>0.703776</vAcc></extensions></trkpt>
      <trkpt lon="-3.345969" lat="54.546922"><ele>409.037903</ele><time>2021-08-12T10:42:55Z</time><extensions><speed>0.501467</speed><course>71.034035</course><hAcc>0.881043</hAcc><vAcc>0.703742</vAcc></extensions></trkpt>
      <trkpt lon="-3.345974" lat="54.546918"><ele>408.783203</ele><time>2021-08-12T10:42:56Z</time><extensions><speed>0.531912</speed><course>74.315559</course><hAcc>0.881088</hAcc><vAcc>0.703772</vAcc></extensions></trkpt>
      <trkpt lon="-3.345979" lat="54.546915"><ele>408.509949</ele><time>2021-08-12T10:42:57Z</time><extensions><speed>0.558178</speed><course>82.074326</course><hAcc>0.881152</hAcc><vAcc>0.703908</vAcc></extensions></trkpt>
      <trkpt lon="-3.345985" lat="54.546911"><ele>408.218872</ele><time>2021-08-12T10:42:58Z</time><extensions><speed>0.580261</speed><course>78.798851</course><hAcc>0.881243</hAcc><vAcc>0.704176</vAcc></extensions></trkpt>
      <trkpt lon="-3.345991" lat="54.546907"><ele>407.911102</ele><time>2021-08-12T10:42:59Z</time><extensions><speed>0.598650</speed><course>71.049065</course><hAcc>0.881364</hAcc><vAcc>0.704597</vAcc></extensions></trkpt>
      <trkpt lon="-3.345997" lat="54.546903"><ele>407.587769</ele><time>2021-08-12T10:43:00Z</time><extensions><speed>0.613948</speed><course>66.417450</course><hAcc>0.881519</hAcc><vAcc>0.705184</vAcc></extensions></trkpt>
      <trkpt lon="-3.346004" lat="54.546899"><ele>407.250305</ele><time>2021-08-12T10:43:01Z</time><extensions><speed>0.626840</speed><course>67.881187</course><hAcc>0.881707</hAcc><vAcc>0.705938</vAcc></extensions></trkpt>
      <trkpt lon="-3.346012" lat="54.546895"><ele>406.900482</ele><time>2021-08-12T10:43:02Z</time><extensions><speed>0.637908</speed><course>73.946594</course><hAcc>0.881925</hAcc><vAcc>0.706841</vAcc></extensions></trkpt>
      <trkpt lon="-3.346019" lat="54.546892"><ele>406.539856</ele><time>2021-08-12T10:43:03Z</time><extensions><speed>0.647480</speed><course>66.868568</course><hAcc>0.882167</hAcc><vAcc>0.707857</vAcc></extensions></trkpt>
      <trkpt lon="-3.346027" lat="54.546888"><ele>406.170044</ele><time>2021-08-12T10:43:04Z</time><extensions><speed>0.656652</speed><course>57.370388</course><hAcc>0.882426</hAcc><vAcc>0.708943</vAcc></extensions></trkpt>
      <trkpt lon="-3.346036" lat="54.546885"><ele>405.793152</ele><time>2021-08-12T10:43:05Z</time><extensions><speed>0.666953</speed><course>72.859169</course><hAcc>0.882694</hAcc><vAcc>0.710054</vAcc></extensions></trkpt>
      <trkpt lon="-3.346045" lat="54.546882"><ele>405.411377</ele><time>2021-08-12T10:43:06Z</time><extensions><speed>0.679255</speed><course>73.476959</course><hAcc>0.882963</hAcc><vAcc>0.711144</vAcc></extensions></trkpt>
      <trkpt lon="-3.346054" lat="54.546878"><ele>405.026611</ele><time>2021-08-12T10:43:07Z</time><extensions><speed>0.694482</speed><course>70.985191</course><hAcc>0.883225</hAcc><vAcc>0.712178</vAcc></extensions></trkpt>
      <trkpt lon="-3.346064" lat="54.546876"><ele>404.641144</ele><time>2021-08-12T10:43:08Z</time><extensions><speed>0.714004</speed><course>67.094063</course><hAcc>0.883473</hAcc><vAcc>0.713129</vAcc></extensions></trkpt>
      <trkpt lon="-3.346074" lat="54.546873"><ele>404.257996</ele><time>2021-08-12T10:43:09Z</time><extensions><speed>0.738526</speed><course>63.802017</course><hAcc>0.883700</hAcc><vAcc>0.713980</vAcc></extensions></trkpt>
      <trkpt lon="-3.346084" lat="54.546870"><ele>403.881195</ele><time>2021-08-12T10:43:10Z</time><extensions><speed>0.767978</speed><course>59.738853</course><hAcc>0.883905</hAcc><vAcc>0.714720</vAcc></extensions></trkpt>
      <trkpt lon="-3.346095" lat="54.546867"><ele>403.514954</ele><time>2021-08-12T10:43:11Z</time><extensions><speed>0.800942</speed><course>64.752533</course><hAcc>0.884085</hAcc><vAcc>0.715343</vAcc></extensions></trkpt>
      <trkpt lon="-3.346107" lat="54.546864"><ele>403.162170</ele><time>2021-08-12T10:43:12Z</time><extensions><speed>0.834764</speed><course>62.678837</course><hAcc>0.884239</hAcc><vAcc>0.715849</vAcc></extensions></trkpt>
      <trkpt lon="-3.346119" lat="54.546861"><ele>402.824219</ele><time>2021-08-12T10:43:13Z</time><extensions><speed>0.867145</speed><course>67.622025</course><hAcc>0.884371</hAcc><vAcc>0.716249</vAcc></extensions></trkpt>
      <trkpt lon="-3.346132" lat="54.546858"><ele>402.501648</ele><time>2021-08-12T10:43:14Z</time><extensions><speed>0.896382</speed><course>76.998230</course><hAcc>0.884480</hAcc><vAcc>0.716561</vAcc></extensions></trkpt>
      <trkpt lon="-3.346145" lat="54.546855"><ele>402.194031</ele><time>2021-08-12T10:43:15Z</time><extensions><speed>0.921711</speed><course>71.279175</course><hAcc>0.884571</hAcc><vAcc>0.716810</vAcc></extensions></trkpt>
      <trkpt lon="-3.346158" lat="54.546852"><ele>401.900146</ele><time>2021-08-12T10:43:16Z</time><extensions><speed>0.943772</speed><course>66.215858</course><hAcc>0.884645</hAcc><vAcc>0.717014</vAcc></extensions></trkpt>
      <trkpt lon="-3.346172" lat="54.546849"><ele>401.618866</ele><time>2021-08-12T10:43:17Z</time><extensions><speed>0.963533</speed><course>65.869171</course><hAcc>0.884706</hAcc><vAcc>0.717190</vAcc></extensions></trkpt>
      <trkpt lon="-3.346185" lat="54.546845"><ele>401.349121</ele><time>2021-08-12T10:43:18Z</time><extensions><speed>0.980880</speed><course>67.480362</course><hAcc>0.884757</hAcc><vAcc>0.717348</vAcc></extensions></trkpt>
      <trkpt lon="-3.346199" lat="54.546841"><ele>401.089600</ele><time>2021-08-12T10:43:19Z</time><extensions><speed>0.995536</speed><course>62.467888</course><hAcc>0.884802</hAcc><vAcc>0.717492</vAcc></extensions></trkpt>
      <trkpt lon="-3.346213" lat="54.546837"><ele>400.838501</ele><time>2021-08-12T10:43:20Z</time><extensions><speed>1.007616</speed><course>57.403885</course><hAcc>0.884843</hAcc><vAcc>0.717625</vAcc></extensions></trkpt>
      <trkpt lon="-3.346226" lat="54.546832"><ele>400.593140</ele><time>2021-08-12T10:43:21Z</time><extensions><speed>1.017907</speed><course>56.104736</course><hAcc>0.884881</hAcc><vAcc>0.717749</vAcc></extensions></trkpt>
      <trkpt lon="-3.346239" lat="54.546827"><ele>400.350189</ele><time>2021-08-12T10:43:22Z</time><extensions><speed>1.027758</speed><course>57.135769</course><hAcc>0.884917</hAcc><vAcc>0.717869</vAcc></extensions></trkpt>
      <trkpt lon="-3.346252" lat="54.546822"><ele>400.106415</ele><time>2021-08-12T10:43:23Z</time><extensions><speed>1.037637</speed><course>59.466648</course><hAcc>0.884952</hAcc><vAcc>0.717990</vAcc></extensions></trkpt>
      <trkpt lon="-3.346265" lat="54.546816"><ele>399.859192</ele><time>2021-08-12T10:43:24Z</time><extensions><speed>1.047872</speed><course>56.466339</course><hAcc>0.884987</hAcc><vAcc>0.718115</vAcc></extensions></trkpt>
      <trkpt lon="-3.346277" lat="54.546810"><ele>399.606598</ele><time>2021-08-12T10:43:25Z</time><extensions><speed>1.059569</speed><course>61.082169</course><hAcc>0.885021</hAcc><vAcc>0.718248</vAcc></extensions></trkpt>
      <trkpt lon="-3.346289" lat="54.546803"><ele>399.346924</ele><time>2021-08-12T10:43:26Z</time><extensions><speed>1.073784</speed><course>63.000797</course><hAcc>0.885059</hAcc><vAcc>0.718393</vAcc></extensions></trkpt>
      <trkpt lon="-3.346301" lat="54.546796"><ele>399.078827</ele><time>2021-08-12T10:43:27Z</time><extensions><speed>1.091208</speed><course>58.373146</course><hAcc>0.885104</hAcc><vAcc>0.718550</vAcc></extensions></trkpt>
      <trkpt lon="-3.346312" lat="54.546789"><ele>398.801147</ele><time>2021-08-12T10:43:28Z</time><extensions><speed>1.112235</speed><course>59.591164</course><hAcc>0.885163</hAcc><vAcc>0.718721</vAcc></extensions></trkpt>
      <trkpt lon="-3.346323" lat="54.546781"><ele>398.513214</ele><time>2021-08-12T10:43:29Z</time><extensions><speed>1.136453</speed><course>56.078835</course><hAcc>0.885246</hAcc><vAcc>0.718918</vAcc></extensions></trkpt>
      <trkpt lon="-3.346334" lat="54.546773"><ele>398.214691</ele><time>2021-08-12T10:43:30Z</time><extensions><speed>1.163118</speed><course>61.452141</course><hAcc>0.885368</hAcc><vAcc>0.719158</vAcc></extensions></trkpt>
      <trkpt lon="-3.346345" lat="54.546764"><ele>397.905792</ele><time>2021-08-12T10:43:31Z</time><extensions><speed>1.191171</speed><course>62.349373</course><hAcc>0.885548</hAcc><vAcc>0.719473</vAcc></extensions></trkpt>
      <trkpt lon="-3.346355" lat="54.546755"><ele>397.586487</ele><time>2021-08-12T10:43:32Z</time><extensions><speed>1.218732</speed><course>67.502327</course><hAcc>0.885809</hAcc><vAcc>0.719900</vAcc></extensions></trkpt>
      <trkpt lon="-3.346367" lat="54.546746"><ele>397.256104</ele><time>2021-08-12T10:43:33Z</time><extensions><speed>1.243900</speed><course>65.148994</course><hAcc>0.886181</hAcc><vAcc>0.720482</vAcc></extensions></trkpt>
      <trkpt lon="-3.346378" lat="54.546737"><ele>396.913696</ele><time>2021-08-12T10:43:34Z</time><extensions><speed>1.265120</speed><course>61.604351</course><hAcc>0.886699</hAcc><vAcc>0.721263</vAcc></extensions></trkpt>
      <trkpt lon="-3.346389" lat="54.546728"><ele>396.557892</ele><time>2021-08-12T10:43:35Z</time><extensions><speed>1.280839</speed><course>67.356651</course><hAcc>0.887401</hAcc><vAcc>0.722275</vAcc></extensions></trkpt>
      <trkpt lon="-3.346401" lat="54.546719"><ele>396.187195</ele><time>2021-08-12T10:43:36Z</time><extensions><speed>1.290153</speed><course>56.187717</course><hAcc>0.888326</hAcc><vAcc>0.723536</vAcc></extensions></trkpt>
      <trkpt lon="-3.346413" lat="54.546709"><ele>395.801117</ele><time>2021-08-12T10:43:37Z</time><extensions><speed>1.293146</speed><course>56.273357</course><hAcc>0.889507</hAcc><vAcc>0.725040</vAcc></extensions></trkpt>
      <trkpt lon="-3.346424" lat="54.546700"><ele>395.400269</ele><time>2021-08-12T10:43:38Z</time><extensions><speed>1.290160</speed><course>59.042984</course><hAcc>0.890966</hAcc><vAcc>0.726752</vAcc></extensions></trkpt>
      <trkpt lon="-3.346436" lat="54.546691"><ele>394.985870</ele><time>2021-08-12T10:43:39Z</time><extensions><speed>1.281671</speed><course>46.754299</course><hAcc>0.892701</hAcc><vAcc>0.728611</vAcc></extensions></trkpt>
      <trkpt lon="-3.346448" lat="54.546681"><ele>394.559448</ele><time>2021-08-12T10:43:40Z</time><extensions><speed>1.268469</speed><course>46.754295</course><hAcc>0.894677</hAcc><vAcc>0.730526</vAcc></extensions></trkpt>
      <trkpt lon="-3.346460" lat="54.546672"><ele>394.123260</ele><time>2021-08-12T10:43:41Z</time><extensions><speed>1.251609</speed><course>46.754295</course><hAcc>0.896816</hAcc><vAcc>0.732375</vAcc></extensions></trkpt>
      <trkpt lon="-3.346471" lat="54.546663"><ele>393.680145</ele><time>2021-08-12T10:43:42Z</time><extensions><speed>1.232216</speed><course>46.754295</course><hAcc>0.898989</hAcc><vAcc>0.734013</vAcc></extensions></trkpt>
      <trkpt lon="-3.346482" lat="54.546655"><ele>393.233765</ele><time>2021-08-12T10:43:43Z</time><extensions><speed>1.211673</speed><course>46.754295</course><hAcc>0.901022</hAcc><vAcc>0.735293</vAcc></extensions></trkpt>
      <trkpt lon="-3.346493" lat="54.546646"><ele>392.788330</ele><time>2021-08-12T10:43:44Z</time><extensions><speed>1.191652</speed><course>46.754295</course><hAcc>0.902717</hAcc><vAcc>0.736103</vAcc></extensions></trkpt>
      <trkpt lon="-3.346503" lat="54.546637"><ele>392.348358</ele><time>2021-08-12T10:43:45Z</time><extensions><speed>1.173827</speed><course>46.754295</course><hAcc>0.903906</hAcc><vAcc>0.736428</vAcc></extensions></trkpt>
      <trkpt lon="-3.346513" lat="54.546628"><ele>391.917572</ele><time>2021-08-12T10:43:46Z</time><extensions><speed>1.159378</speed><course>46.754292</course><hAcc>0.904548</hAcc><vAcc>0.736454</vAcc></extensions></trkpt>
      <trkpt lon="-3.346522" lat="54.546619"><ele>391.498810</ele><time>2021-08-12T10:43:47Z</time><extensions><speed>1.149434</speed><course>46.754295</course><hAcc>0.904899</hAcc><vAcc>0.736704</vAcc></extensions></trkpt>
      <trkpt lon="-3.346531" lat="54.546610"><ele>391.093994</ele><time>2021-08-12T10:43:48Z</time><extensions><speed>1.144534</speed><course>86.257805</course><hAcc>0.905766</hAcc><vAcc>0.738235</vAcc></extensions></trkpt>
      <trkpt lon="-3.346539" lat="54.546601"><ele>390.704346</ele><time>2021-08-12T10:43:49Z</time><extensions><speed>1.144253</speed><course>92.864906</course><hAcc>0.908864</hAcc><vAcc>0.742868</vAcc></extensions></trkpt>
      <trkpt lon="-3.346546" lat="54.546592"><ele>390.330322</ele><time>2021-08-12T10:43:50Z</time><extensions><speed>1.147874</speed><course>94.458534</course><hAcc>0.917253</hAcc><vAcc>0.753415</vAcc></extensions></trkpt>
      <trkpt lon="-3.346553" lat="54.546582"><ele>389.971252</ele><time>2021-08-12T10:43:51Z</time><extensions><speed>1.154022</speed><course>89.165138</course><hAcc>0.935747</hAcc><vAcc>0.773788</vAcc></extensions></trkpt>
      <trkpt lon="-3.346559" lat="54.546572"><ele>389.625793</ele><time>2021-08-12T10:43:52Z</time><extensions><speed>1.160856</speed><course>98.187202</course><hAcc>0.971042</hAcc><vAcc>0.808844</vAcc></extensions></trkpt>
      <trkpt lon="-3.346558" lat="54.546561"><ele>389.434296</ele><time>2021-08-12T10:43:53Z</time><extensions><speed>1.490547</speed><course>74.967865</course><hAcc>0.932960</hAcc><vAcc>0.772633</vAcc></extensions></trkpt>
      <trkpt lon="-3.346555" lat="54.546548"><ele>389.217194</ele><time>2021-08-12T10:43:54Z</time><extensions><speed>1.505262</speed><course>75.133301</course><hAcc>0.913908</hAcc><vAcc>0.751733</vAcc></extensions></trkpt>
      <trkpt lon="-3.346552" lat="54.546534"><ele>388.998627</ele><time>2021-08-12T10:43:55Z</time><extensions><speed>1.522037</speed><course>66.099251</course><hAcc>0.906110</hAcc><vAcc>0.741551</vAcc></extensions></trkpt>
      <trkpt lon="-3.346548" lat="54.546521"><ele>388.776642</ele><time>2021-08-12T10:43:56Z</time><extensions><speed>1.540084</speed><course>81.237114</course><hAcc>0.904077</hAcc><vAcc>0.737737</vAcc></extensions></trkpt>
      <trkpt lon="-3.346542" lat="54.546507"><ele>388.549500</ele><time>2021-08-12T10:43:57Z</time><extensions><speed>1.558415</speed><course>80.566093</course><hAcc>0.904327</hAcc><vAcc>0.737169</vAcc></extensions></trkpt>
      <trkpt lon="-3.346536" lat="54.546494"><ele>388.315826</ele><time>2021-08-12T10:43:58Z</time><extensions><speed>1.575982</speed><course>80.566109</course><hAcc>0.904932</hAcc><vAcc>0.737845</vAcc></extensions></trkpt>
      <trkpt lon="-3.346529" lat="54.546480"><ele>388.074341</ele><time>2021-08-12T10:43:59Z</time><extensions><speed>1.591761</speed><course>80.566093</course><hAcc>0.905006</hAcc><vAcc>0.738627</vAcc></extensions></trkpt>
      <trkpt lon="-3.346522" lat="54.546466"><ele>387.824005</ele><time>2021-08-12T10:44:00Z</time><extensions><speed>1.605347</speed><course>80.566093</course><hAcc>0.904292</hAcc><vAcc>0.738974</vAcc></extensions></trkpt>
      <trkpt lon="-3.346513" lat="54.546453"><ele>387.564453</ele><time>2021-08-12T10:44:01Z</time><extensions><speed>1.616477</speed><course>80.566093</course><hAcc>0.902870</hAcc><vAcc>0.738720</vAcc></extensions></trkpt>
      <trkpt lon="-3.346505" lat="54.546439"><ele>387.296173</ele><time>2021-08-12T10:44:02Z</time><extensions><speed>1.624600</speed><course>77.344681</course><hAcc>0.900961</hAcc><vAcc>0.737908</vAcc></extensions></trkpt>
      <trkpt lon="-3.346496" lat="54.546425"><ele>387.019867</ele><time>2021-08-12T10:44:03Z</time><extensions><speed>1.629281</speed><course>77.923714</course><hAcc>0.898815</hAcc><vAcc>0.736679</vAcc></extensions></trkpt>
      <trkpt lon="-3.346486" lat="54.546412"><ele>386.736023</ele><time>2021-08-12T10:44:04Z</time><extensions><speed>1.630263</speed><course>87.073212</course><hAcc>0.896649</hAcc><vAcc>0.735203</vAcc></extensions></trkpt>
      <trkpt lon="-3.346477" lat="54.546398"><ele>386.444977</ele><time>2021-08-12T10:44:05Z</time><extensions><speed>1.627637</speed><course>79.233902</course><hAcc>0.894625</hAcc><vAcc>0.733642</vAcc></extensions></trkpt>
      <trkpt lon="-3.346467" lat="54.546385"><ele>386.147156</ele><time>2021-08-12T10:44:06Z</time><extensions><speed>1.621648</speed><course>96.572746</course><hAcc>0.892842</hAcc><vAcc>0.732126</vAcc></extensions></trkpt>
      <trkpt lon="-3.346458" lat="54.546371"><ele>385.842896</ele><time>2021-08-12T10:44:07Z</time><extensions><speed>1.612525</speed><course>86.920219</course><hAcc>0.891349</hAcc><vAcc>0.730745</vAcc></extensions></trkpt>
      <trkpt lon="-3.346449" lat="54.546358"><ele>385.532166</ele><time>2021-08-12T10:44:08Z</time><extensions><speed>1.600648</speed><course>76.786201</course><hAcc>0.890153</hAcc><vAcc>0.729556</vAcc></extensions></trkpt>
      <trkpt lon="-3.346440" lat="54.546344"><ele>385.214600</ele><time>2021-08-12T10:44:09Z</time><extensions><speed>1.586801</speed><course>77.162971</course><hAcc>0.889232</hAcc><vAcc>0.728583</vAcc></extensions></trkpt>
      <trkpt lon="-3.346432" lat="54.546331"><ele>384.890076</ele><time>2021-08-12T10:44:10Z</time><extensions><speed>1.571842</speed><course>69.604996</course><hAcc>0.888553</hAcc><vAcc>0.727831</vAcc></extensions></trkpt>
      <trkpt lon="-3.346424" lat="54.546318"><ele>384.558655</ele><time>2021-08-12T10:44:11Z</time><extensions><speed>1.556316</speed><course>76.115456</course><hAcc>0.888072</hAcc><vAcc>0.727283</vAcc></extensions></trkpt>
      <trkpt lon="-3.346417" lat="54.546305"><ele>384.220154</ele><time>2021-08-12T10:44:12Z</time><extensions><speed>1.540462</speed><course>83.646278</course><hAcc>0.887747</hAcc><vAcc>0.726915</vAcc></extensions></trkpt>
      <trkpt lon="-3.346411" lat="54.546291"><ele>383.873962</ele><time>2021-08-12T10:44:13Z</time><extensions><speed>1.524217</speed><course>76.408623</course><hAcc>0.887540</hAcc><vAcc>0.726695</vAcc></extensions></trkpt>
      <trkpt lon="-3.346405" lat="54.546278"><ele>383.518860</ele><time>2021-08-12T10:44:14Z</time><extensions><speed>1.507598</speed><course>79.439453</course><hAcc>0.887418</hAcc><vAcc>0.726590</vAcc></extensions></trkpt>
      <trkpt lon="-3.346399" lat="54.546265"><ele>383.153351</ele><time>2021-08-12T10:44:15Z</time><extensions><speed>1.490759</speed><course>75.300941</course><hAcc>0.887354</hAcc><vAcc>0.726568</vAcc></extensions></trkpt>
      <trkpt lon="-3.346394" lat="54.546252"><ele>382.775879</ele><time>2021-08-12T10:44:16Z</time><extensions><speed>1.473768</speed><course>76.126534</course><hAcc>0.887327</hAcc><vAcc>0.726598</vAcc></extensions></trkpt>
      <trkpt lon="-3.346389" lat="54.546239"><ele>382.384949</ele><time>2021-08-12T10:44:17Z</time><extensions><speed>1.456700</speed><course>75.233688</course><hAcc>0.887322</hAcc><vAcc>0.726657</vAcc></extensions></trkpt>
      <trkpt lon="-3.346384" lat="54.546227"><ele>381.979614</ele><time>2021-08-12T10:44:18Z</time><extensions><speed>1.439624</speed><course>81.891060</course><hAcc>0.887329</hAcc><vAcc>0.726724</vAcc></extensions></trkpt>
      <trkpt lon="-3.346380" lat="54.546214"><ele>381.559387</ele><time>2021-08-12T10:44:19Z</time><extensions><speed>1.422624</speed><course>78.263519</course><hAcc>0.887340</hAcc><vAcc>0.726786</vAcc></extensions></trkpt>
      <trkpt lon="-3.346376" lat="54.546201"><ele>381.124451</ele><time>2021-08-12T10:44:20Z</time><extensions><speed>1.405963</speed><course>74.907532</course><hAcc>0.887351</hAcc><vAcc>0.726834</vAcc></extensions></trkpt>
      <trkpt lon="-3.346371" lat="54.546189"><ele>380.675934</ele><time>2021-08-12T10:44:21Z</time><extensions><speed>1.390000</speed><course>84.941742</course><hAcc>0.887360</hAcc><vAcc>0.726862</vAcc></extensions></trkpt>
      <trkpt lon="-3.346367" lat="54.546177"><ele>380.216187</ele><time>2021-08-12T10:44:22Z</time><extensions><speed>1.375121</speed><course>73.584358</course><hAcc>0.887365</hAcc><vAcc>0.726868</vAcc></extensions></trkpt>
      <trkpt lon="-3.346362" lat="54.546165"><ele>379.748108</ele><time>2021-08-12T10:44:23Z</time><extensions><speed>1.361580</speed><course>96.346313</course><hAcc>0.887366</hAcc><vAcc>0.726855</vAcc></extensions></trkpt>
      <trkpt lon="-3.346357" lat="54.546153"><ele>379.274811</ele><time>2021-08-12T10:44:24Z</time><extensions><speed>1.349420</speed><course>87.208282</course><hAcc>0.887366</hAcc><vAcc>0.726827</vAcc></extensions></trkpt>
      <trkpt lon="-3.346352" lat="54.546142"><ele>378.798950</ele><time>2021-08-12T10:44:25Z</time><extensions><speed>1.338467</speed><course>71.034035</course><hAcc>0.887363</hAcc><vAcc>0.726792</vAcc></extensions></trkpt>
      <trkpt lon="-3.346346" lat="54.546130"><ele>378.322632</ele><time>2021-08-12T10:44:26Z</time><extensions><speed>1.328972</speed><course>74.315559</course><hAcc>0.887359</hAcc><vAcc>0.726757</vAcc></extensions></trkpt>
      <trkpt lon="-3.346340" lat="54.546119"><ele>377.848022</ele><time>2021-08-12T10:44:27Z</time><extensions><speed>1.321493</speed><course>82.074326</course><hAcc>0.887354</hAcc><vAcc>0.726729</vAcc></extensions></trkpt>
      <trkpt lon="-3.346334" lat="54.546107"><ele>377.376923</ele><time>2021-08-12T10:44:28Z</time><extensions><speed>1.315944</speed><course>78.798851</course><hAcc>0.887349</hAcc><vAcc>0.726713</vAcc></extensions></trkpt>
      <trkpt lon="-3.346327" lat="54.546096"><ele>376.910553</ele><time>2021-08-12T10:44:29Z</time><extensions><speed>1.311752</speed><course>71.049065</course><hAcc>0.887344</hAcc><vAcc>0.726713</vAcc></extensions></trkpt>
      <trkpt lon="-3.346319" lat="54.546085"><ele>376.449219</ele><time>2021-08-12T10:44:30Z</time><extensions><speed>1.308027</speed><course>66.417450</course><hAcc>0.887339</hAcc><vAcc>0.726725</vAcc></extensions></trkpt>
      <trkpt lon="-3.346312" lat="54.546075"><ele>375.992676</ele><time>2021-08-12T10:44:31Z</time><extensions><speed>1.303988</speed><course>67.881187</course><hAcc>0.887335</hAcc><vAcc>0.726745</vAcc></extensions></trkpt>
      <trkpt lon="-3.346304" lat="54.546064"><ele>375.540436</ele><time>2021-08-12T10:44:32Z</time><extensions><speed>1.299136</speed><course>73.946594</course><hAcc>0.887330</hAcc><vAcc>0.726767</vAcc></extensions></trkpt>
      <trkpt lon="-3.346295" lat="54.546053"><ele>375.091705</ele><time>2021-08-12T10:44:33Z</time><extensions><speed>1.293212</speed><course>66.868568</course><hAcc>0.887325</hAcc><vAcc>0.726781</vAcc></extensions></trkpt>
      <trkpt lon="-3.346287" lat="54.546043"><ele>374.645660</ele><time>2021-08-12T10:44:34Z</time><extensions><speed>1.286268</speed><course>57.370388</course><hAcc>0.887321</hAcc><vAcc>0.726783</vAcc></extensions></trkpt>
      <trkpt lon="-3.346278" lat="54.546032"><ele>374.201752</ele><time>2021-08-12T10:44:35Z</time><extensions><speed>1.278409</speed><course>72.859169</course><hAcc>0.887318</hAcc><vAcc>0.726766</vAcc></extensions></trkpt>
      <trkpt lon="-3.346270" lat="54.546022"><ele>373.760406</ele><time>2021-08-12T10:44:36Z</time><extensions><speed>1.269755</speed><course>73.476959</course><hAcc>0.887315</hAcc><vAcc>0.726731</vAcc></extensions></trkpt>
      <trkpt lon="-3.346261" lat="54.546012"><ele>373.323242</ele><time>2021-08-12T10:44:37Z</time><extensions><speed>1.260387</speed><course>70.985191</course><hAcc>0.887313</hAcc><vAcc>0.726686</vAcc></extensions></trkpt>
      <trkpt lon="-3.346252" lat="54.546002"><ele>372.892975</ele><time>2021-08-12T10:44:38Z</time><extensions><speed>1.250399</speed><course>67.094063</course><hAcc>0.887311</hAcc><vAcc>0.726640</vAcc></extensions></trkpt>
      <trkpt lon="-3.346243" lat="54.545992"><ele>372.472229</ele><time>2021-08-12T10:44:39Z</time><extensions><speed>1.239367</speed><course>63.802017</course><hAcc>0.887309</hAcc><vAcc>0.726603</vAcc></extensions></trkpt>
      <trkpt lon="-3.346235" lat="54.545982"><ele>372.062805</ele><time>2021-08-12T10:44:40Z</time><extensions><speed>1.226794</speed><course>59.738853</course><hAcc>0.887307</hAcc><vAcc>0.726583</vAcc></extensions></trkpt>
      <trkpt lon="-3.346227" lat="54.545972"><ele>371.665649</ele><time>2021-08-12T10:44:41Z</time><extensions><speed>1.212660</speed><course>64.752533</course><hAcc>0.887305</hAcc><vAcc>0.726581</vAcc></extensions></trkpt>
      <trkpt lon="-3.346219" lat="54.545962"><ele>371.281281</ele><time>2021-08-12T10:44:42Z</time><extensions><speed>1.196966</speed><course>62.678837</course><hAcc>0.887303</hAcc><vAcc>0.726595</vAcc></extensions></trkpt>
      <trkpt lon="-3.346212" lat="54.545952"><ele>370.910034</ele><time>2021-08-12T10:44:43Z</time><extensions><speed>1.179993</speed><course>67.622025</course><hAcc>0.887304</hAcc><vAcc>0.726617</vAcc></extensions></trkpt>
      <trkpt lon="-3.346206" lat="54.545942"><ele>370.552063</ele><time>2021-08-12T10:44:44Z</time><extensions><speed>1.162269</speed><course>76.998230</course><hAcc>0.887305</hAcc><vAcc>0.726644</vAcc></extensions></trkpt>
      <trkpt lon="-3.346200" lat="54.545933"><ele>370.207031</ele><time>2021-08-12T10:44:45Z</time><extensions><speed>1.144580</speed><course>71.279175</course><hAcc>0.887309</hAcc><vAcc>0.726669</vAcc></extensions></trkpt>
      <trkpt lon="-3.346196" lat="54.545923"><ele>369.873871</ele><time>2021-08-12T10:44:46Z</time><extensions><speed>1.128128</speed><course>66.215858</course><hAcc>0.887314</hAcc><vAcc>0.726689</vAcc></extensions></trkpt>
      <trkpt lon="-3.346192" lat="54.545913"><ele>369.550842</ele><time>2021-08-12T10:44:47Z</time><extensions><speed>1.114404</speed><course>65.869171</course><hAcc>0.887319</hAcc><vAcc>0.726706</vAcc></extensions></trkpt>
      <trkpt lon="-3.346190" lat="54.545903"><ele>369.235596</ele><time>2021-08-12T10:44:48Z</time><extensions><speed>1.104671</speed><course>67.480362</course><hAcc>0.887323</hAcc><vAcc>0.726719</vAcc></extensions></trkpt>
      <trkpt lon="-3.346188" lat="54.545893"><ele>368.924835</ele><time>2021-08-12T10:44:49Z</time><extensions><speed>1.099123</speed><course>62.467888</course><hAcc>0.887325</hAcc><vAcc>0.726729</vAcc></extensions></trkpt>
      <trkpt lon="-3.346188" lat="54.545883"><ele>368.614380</ele><time>2021-08-12T10:44:50Z</time><extensions><speed>1.097039</speed><course>57.403885</course><hAcc>0.887324</hAcc><vAcc>0.726736</vAcc></extensions></trkpt>
      <trkpt lon="-3.346189" lat="54.545874"><ele>368.300049</ele><time>2021-08-12T10:44:51Z</time><extensions><speed>1.097217</speed><course>56.104736</course><hAcc>0.887320</hAcc><vAcc>0.726736</vAcc></extensions></trkpt>
      <trkpt lon="-3.346191" lat="54.545864"><ele>367.978363</ele><time>2021-08-12T10:44:52Z</time><extensions><speed>1.097545</speed><course>57.135769</course><hAcc>0.887312</hAcc><vAcc>0.726726</vAcc></extensions></trkpt>
      <trkpt lon="-3.346193" lat="54.545854"><ele>367.646362</ele><time>2021-08-12T10:44:53Z</time><extensions><speed>1.095550</speed><course>59.466648</course><hAcc>0.887300</hAcc><vAcc>0.726700</vAcc></extensions></trkpt>
      <trkpt lon="-3.346196" lat="54.545844"><ele>367.301697</ele><time>2021-08-12T10:44:54Z</time><extensions><speed>1.089746</speed><course>56.466339</course><hAcc>0.887284</hAcc><vAcc>0.726654</vAcc></extensions></trkpt>
      <trkpt lon="-3.346198" lat="54.545835"><ele>366.943268</ele><time>2021-08-12T10:44:55Z</time><extensions><speed>1.080167</speed><course>61.082169</course><hAcc>0.887265</hAcc><vAcc>0.726586</vAcc></extensions></trkpt>
      <trkpt lon="-3.346201" lat="54.545825"><ele>366.571564</ele><time>2021-08-12T10:44:56Z</time><extensions><speed>1.068009</speed><course>63.000797</course><hAcc>0.887243</hAcc><vAcc>0.726496</vAcc></extensions></trkpt>
      <trkpt lon="-3.346202" lat="54.545816"><ele>366.187988</ele><time>2021-08-12T10:44:57Z</time><extensions><speed>1.055277</speed><course>58.373146</course><hAcc>0.887218</hAcc><vAcc>0.726387</vAcc></extensions></trkpt>
      <trkpt lon="-3.346203" lat="54.545806"><ele>365.794403</ele><time>2021-08-12T10:44:58Z</time><extensions><speed>1.044090</speed><course>59.591164</course><hAcc>0.887190</hAcc><vAcc>0.726264</vAcc></extensions></trkpt>
      <trkpt lon="-3.346204" lat="54.545797"><ele>365.392609</ele><time>2021-08-12T10:44:59Z</time><extensions><speed>1.036090</speed><course>56.078835</course><hAcc>0.887162</hAcc><vAcc>0.726131</vAcc></extensions></trkpt>
      <trkpt lon="-3.346203" lat="54.545788"><ele>364.984222</ele><time>2021-08-12T10:45:00Z</time><extensions><speed>1.032597</speed><course>61.452141</course><hAcc>0.887133</hAcc><vAcc>0.725996</vAcc></extensions></trkpt>
      <trkpt lon="-3.346201" lat="54.545778"><ele>364.570740</ele><time>2021-08-12T10:45:01Z</time><extensions><speed>1.034203</speed><course>62.349373</course><hAcc>0.887105</hAcc><vAcc>0.725865</vAcc></extensions></trkpt>
      <trkpt lon="-3.346198" lat="54.545769"><ele>364.153442</ele><time>2021-08-12T10:45:02Z</time><extensions><speed>1.040332</speed><course>67.502327</course><hAcc>0.887079</hAcc><vAcc>0.725744</vAcc></extensions></trkpt>
      <trkpt lon="-3.346194" lat="54.545760"><ele>363.732819</ele><time>2021-08-12T10:45:03Z</time><extensions><speed>1.049331</speed><course>65.148994</course><hAcc>0.887055</hAcc><vAcc>0.725640</vAcc></extensions></trkpt>
      <trkpt lon="-3.346189" lat="54.545751"><ele>363.308411</ele><time>2021-08-12T10:45:04Z</time><extensions><speed>1.058978</speed><course>61.604351</course><hAcc>0.887035</hAcc><vAcc>0.725558</vAcc></extensions></trkpt>
      <trkpt lon="-3.346184" lat="54.545742"><ele>362.878815</ele><time>2021-08-12T10:45:05Z</time><extensions><speed>1.067135</speed><course>67.356651</course><hAcc>0.887017</hAcc><vAcc>0.725500</vAcc></extensions></trkpt>
      <trkpt lon="-3.346177" lat="54.545733"><ele>362.441895</ele><time>2021-08-12T10:45:06Z</time><extensions><speed>1.072383</speed><course>56.187717</course><hAcc>0.887002</hAcc><vAcc>0.725466</vAcc></extensions></trkpt>
      <trkpt lon="-3.346171" lat="54.545724"><ele>361.995728</ele><time>2021-08-12T10:45:07Z</time><extensions><speed>1.074287</speed><course>56.273357</course><hAcc>0.886991</hAcc><vAcc>0.725450</vAcc></extensions></trkpt>
      <trkpt lon="-3.346164" lat="54.545716"><ele>361.539734</ele><time>2021-08-12T10:45:08Z</time><extensions><speed>1.073121</speed><course>59.042984</course><hAcc>0.886983</hAcc><vAcc>0.725448</vAcc></extensions></trkpt>
      <trkpt lon="-3.346157" lat="54.545707"><ele>361.075104</ele><time>2021-08-12T10:45:09Z</time><extensions><speed>1.069400</speed><course>46.754299</course><hAcc>0.886978</hAcc><vAcc>0.725452</vAcc></extensions></trkpt>
      <trkpt lon="-3.346149" lat="54.545698"><ele>360.604034</ele><time>2021-08-12T10:45:10Z</time><extensions><speed>1.063382</speed><course>46.754295</course><hAcc>0.886975</hAcc><vAcc>0.725456</vAcc></extensions></trkpt>
      <trkpt lon="-3.346142" lat="54.545690"><ele>360.129364</ele><time>2021-08-12T10:45:11Z</time><extensions><speed>1.054860</speed><course>46.754295</course><hAcc>0.886975</hAcc><vAcc>0.725457</vAcc></extensions></trkpt>
      <trkpt lon="-3.346134" lat="54.545681"><ele>359.653961</ele><time>2021-08-12T10:45:12Z</time><extensions><speed>1.043614</speed><course>46.754295</course><hAcc>0.886977</hAcc><vAcc>0.725456</vAcc></extensions></trkpt>
      <trkpt lon="-3.346127" lat="54.545673"><ele>359.180695</ele><time>2021-08-12T10:45:13Z</time><extensions><speed>1.029880</speed><course>46.754295</course><hAcc>0.886978</hAcc><vAcc>0.725453</vAcc></extensions></trkpt>
      <trkpt lon="-3.346121" lat="54.545665"><ele>358.712524</ele><time>2021-08-12T10:45:14Z</time><extensions><speed>1.014086</speed><course>46.754295</course><hAcc>0.886979</hAcc><vAcc>0.725451</vAcc></extensions></trkpt>
      <trkpt lon="-3.346114" lat="54.545657"><ele>358.252289</ele><time>2021-08-12T10:45:15Z</time><extensions><speed>0.996346</speed><course>46.754295</course><hAcc>0.886979</hAcc><vAcc>0.725449</vAcc></extensions></trkpt>
      <trkpt lon="-3.346108" lat="54.545649"><ele>357.802521</ele><time>2021-08-12T10:45:16Z</time><extensions><speed>0.976804</speed><course>46.754292</course><hAcc>0.886977</hAcc><vAcc>0.725446</vAcc></extensions></trkpt>
      <trkpt lon="-3.346102" lat="54.545641"><ele>357.365570</ele><time>2021-08-12T10:45:17Z</time><extensions><speed>0.955360</speed><course>46.754295</course><hAcc>0.886973</hAcc><vAcc>0.725436</vAcc></extensions></trkpt>
      <trkpt lon="-3.346097" lat="54.545633"><ele>356.943329</ele><time>2021-08-12T10:45:18Z</time><extensions><speed>0.931264</speed><course>86.257805</course><hAcc>0.886965</hAcc><vAcc>0.725419</vAcc></extensions></trkpt>
      <trkpt lon="-3.346092" lat="54.545625"><ele>356.536835</ele><time>2021-08-12T10:45:19Z</time><extensions><speed>0.903709</speed><course>92.864906</course><hAcc>0.886950</hAcc><vAcc>0.725391</vAcc></extensions></trkpt>
      <trkpt lon="-3.346087" lat="54.545617"><ele>356.146332</ele><time>2021-08-12T10:45:20Z</time><extensions><speed>0.872298</speed><course>94.458534</course><hAcc>0.886929</hAcc><vAcc>0.725346</vAcc></extensions></trkpt>
      <trkpt lon="-3.346083" lat="54.545610"><ele>355.771484</ele><time>2021-08-12T10:45:21Z</time><extensions><speed>0.836787</speed><course>89.165138</course><hAcc>0.886897</hAcc><vAcc>0.725277</vAcc></extensions></trkpt>
      <trkpt lon="-3.346080" lat="54.545603"><ele>355.411499</ele><time>2021-08-12T10:45:22Z</time><extensions><speed>0.797147</speed><course>98.187202</course><hAcc>0.886855</hAcc><vAcc>0.725173</vAcc></extensions></trkpt>
      <trkpt lon="-3.346077" lat="54.545596"><ele>355.065704</ele><time>2021-08-12T10:45:23Z</time><extensions><speed>0.754229</speed><course>262.094696</course><hAcc>0.886799</hAcc><vAcc>0.725025</vAcc></extensions></trkpt>
      <trkpt lon="-3.346075" lat="54.545590"><ele>354.734131</ele><time>2021-08-12T10:45:24Z</time><extensions><speed>0.709347</speed><course>273.339569</course><hAcc>0.886731</hAcc><vAcc>0.724820</vAcc></extensions></trkpt>
      <trkpt lon="-3.346073" lat="54.545584"><ele>354.417267</ele><time>2021-08-12T10:45:25Z</time><extensions><speed>0.663767</speed><course>270.133057</course><hAcc>0.886649</hAcc><vAcc>0.724551</vAcc></extensions></trkpt>
      <trkpt lon="-3.346072" lat="54.545578"><ele>354.115570</ele><time>2021-08-12T10:45:26Z</time><extensions><speed>0.619144</speed><course>264.401459</course><hAcc>0.886555</hAcc><vAcc>0.724209</vAcc></extensions></trkpt>
      <trkpt lon="-3.346072" lat="54.545573"><ele>353.829254</ele><time>2021-08-12T10:45:27Z</time><extensions><speed>0.577481</speed><course>271.206299</course><hAcc>0.886449</hAcc><vAcc>0.723791</vAcc></extensions></trkpt>
      <trkpt lon="-3.346072" lat="54.545568"><ele>353.558167</ele><time>2021-08-12T10:45:28Z</time><extensions><speed>0.540666</speed><course>270.479279</course><hAcc>0.886335</hAcc><vAcc>0.723305</vAcc></extensions></trkpt>
      <trkpt lon="-3.346072" lat="54.545563"><ele>353.301422</ele><time>2021-08-12T10:45:29Z</time><extensions><speed>0.509884</speed><course>270.479279</course><hAcc>0.886212</hAcc><vAcc>0.722771</vAcc></extensions></trkpt>
      <trkpt lon="-3.346073" lat="54.545558"><ele>353.057709</ele><time>2021-08-12T10:45:30Z</time><extensions><speed>0.485396</speed><course>270.479279</course><hAcc>0.886081</hAcc><vAcc>0.722213</vAcc></extensions></trkpt>
      <trkpt lon="-3.346074" lat="54.545554"><ele>352.825775</ele><time>2021-08-12T10:45:31Z</time><extensions><speed>0.466860</speed><course>92.836548</course><hAcc>0.885945</hAcc><vAcc>0.721654</vAcc></extensions></trkpt>
      <trkpt lon="-3.346076" lat="54.545550"><ele>352.604767</ele><time>2021-08-12T10:45:32Z</time><extensions><speed>0.453244</speed><course>91.847809</course><hAcc>0.885803</hAcc><vAcc>0.721108</vAcc></extensions></trkpt>
      <trkpt lon="-3.346077" lat="54.545546"><ele>352.394073</ele><time>2021-08-12T10:45:33Z</time><extensions><speed>0.443807</speed><course>96.972961</course><hAcc>0.885659</hAcc><vAcc>0.720582</vAcc></extensions></trkpt>
      <trkpt lon="-3.346079" lat="54.545542"><ele>352.193359</ele><time>2021-08-12T10:45:34Z</time><extensions><speed>0.438498</speed><course>101.432434</course><hAcc>0.885516</hAcc><vAcc>0.720071</vAcc></extensions></trkpt>
      <trkpt lon="-3.346080" lat="54.545539"><ele>352.002045</ele><time>2021-08-12T10:45:35Z</time><extensions><speed>0.437195</speed><course>89.921867</course><hAcc>0.885376</hAcc><vAcc>0.719571</vAcc></extensions></trkpt>
      <trkpt lon="-3.346081" lat="54.545535"><ele>351.819550</ele><time>2021-08-12T10:45:36Z</time><extensions><speed>0.439658</speed><course>79.468422</course><hAcc>0.885239</hAcc><vAcc>0.719079</vAcc></extensions></trkpt>
      <trkpt lon="-3.346082" lat="54.545531"><ele>351.645233</ele><time>2021-08-12T10:45:37Z</time><extensions><speed>0.445321</speed><course>79.668663</course><hAcc>0.885109</hAcc><vAcc>0.718596</vAcc></extensions></trkpt>
      <trkpt lon="-3.346083" lat="54.545527"><ele>351.478394</ele><time>2021-08-12T10:45:38Z</time><extensions><speed>0.453592</speed><course>70.198914</course><hAcc>0.884983</hAcc><vAcc>0.718128</vAcc></extensions></trkpt>
      <trkpt lon="-3.346084" lat="54.545523"><ele>351.318268</ele><time>2021-08-12T10:45:39Z</time><extensions><speed>0.463934</speed><course>85.811096</course><hAcc>0.884864</hAcc><vAcc>0.717679</vAcc></extensions></trkpt>
      <trkpt lon="-3.346085" lat="54.545518"><ele>351.163727</ele><time>2021-08-12T10:45:40Z</time><extensions><speed>0.475397</speed><course>87.515213</course><hAcc>0.884751</hAcc><vAcc>0.717254</vAcc></extensions></trkpt>
      <trkpt lon="-3.346086" lat="54.545514"><ele>351.013397</ele><time>2021-08-12T10:45:41Z</time><extensions><speed>0.487419</speed><course>86.802406</course><hAcc>0.884646</hAcc><vAcc>0.716859</vAcc></extensions></trkpt>
      <trkpt lon="-3.346087" lat="54.545510"><ele>350.866119</ele><time>2021-08-12T10:45:42Z</time><extensions><speed>0.500068</speed><course>85.424927</course><hAcc>0.884547</hAcc><vAcc>0.716495</vAcc></extensions></trkpt>
      <trkpt lon="-3.346088" lat="54.545505"><ele>350.720917</ele><time>2021-08-12T10:45:43Z</time><extensions><speed>0.513064</speed><course>88.911957</course><hAcc>0.884458</hAcc><vAcc>0.716164</vAcc></extensions></trkpt>
      <trkpt lon="-3.346090" lat="54.545501"><ele>350.576996</ele><time>2021-08-12T10:45:44Z</time><extensions><speed>0.526075</speed><course>93.027184</course><hAcc>0.884377</hAcc><vAcc>0.715868</vAcc></extensions></trkpt>
      <trkpt lon="-3.346091" lat="54.545496"><ele>350.433868</ele><time>2021-08-12T10:45:45Z</time><extensions><speed>0.538952</speed><course>90.763535</course><hAcc>0.884308</hAcc><vAcc>0.715608</vAcc></extensions></trkpt>
      <trkpt lon="-3.346093" lat="54.545491"><ele>350.291016</ele><time>2021-08-12T10:45:46Z</time><extensions><speed>0.551109</speed><course>83.392509</course><hAcc>0.884249</hAcc><vAcc>0.715387</vAcc></extensions></trkpt>
      <trkpt lon="-3.346095" lat="54.545486"><ele>350.147705</ele><time>2021-08-12T10:45:47Z</time><extensions><speed>0.561869</speed><course>57.334152</course><hAcc>0.884204</hAcc><vAcc>0.715207</vAcc></extensions></trkpt>
      <trkpt lon="-3.346097" lat="54.545481"><ele>350.002869</ele><time>2021-08-12T10:45:48Z</time><extensions><speed>0.570509</speed><course>29.254333</course><hAcc>0.884172</hAcc><vAcc>0.715074</vAcc></extensions></trkpt>
      <trkpt lon="-3.346099" lat="54.545476"><ele>349.855255</ele><time>2021-08-12T10:45:49Z</time><extensions><speed>0.576063</speed><course>29.254333</course><hAcc>0.884155</hAcc><vAcc>0.714990</vAcc></extensions></trkpt>
      <trkpt lon="-3.346102" lat="54.545471"><ele>349.703583</ele><time>2021-08-12T10:45:50Z</time><extensions><speed>0.577585</speed><course>29.254333</course><hAcc>0.884153</hAcc><vAcc>0.714962</vAcc></extensions></trkpt>
      <trkpt lon="-3.346104" lat="54.545466"><ele>349.546753</ele><time>2021-08-12T10:45:51Z</time><extensions><speed>0.574880</speed><course>29.254332</course><hAcc>0.884168</hAcc><vAcc>0.714997</vAcc></extensions></trkpt>
      <trkpt lon="-3.346106" lat="54.545461"><ele>349.383972</ele><time>2021-08-12T10:45:52Z</time><extensions><speed>0.568985</speed><course>29.254333</course><hAcc>0.884199</hAcc><vAcc>0.715098</vAcc></extensions></trkpt>
      <trkpt lon="-3.346108" lat="54.545456"><ele>349.215485</ele><time>2021-08-12T10:45:53Z</time><extensions><speed>0.561599</speed><course>29.254332</course><hAcc>0.884245</hAcc><vAcc>0.715268</vAcc></extensions></trkpt>
      <trkpt lon="-3.346109" lat="54.545452"><ele>349.042175</ele><time>2021-08-12T10:45:54Z</time><extensions><speed>0.554478</speed><course>29.254332</course><hAcc>0.884306</hAcc><vAcc>0.715501</vAcc></extensions></trkpt>
      <trkpt lon="-3.346111" lat="54.545447"><ele>348.865448</ele><time>2021-08-12T10:45:55Z</time><extensions><speed>0.548982</speed><course>29.254333</course><hAcc>0.884378</hAcc><vAcc>0.715794</vAcc></extensions></trkpt>
      <trkpt lon="-3.346111" lat="54.545442"><ele>348.686737</ele><time>2021-08-12T10:45:56Z</time><extensions><speed>0.545796</speed><course>29.254333</course><hAcc>0.884460</hAcc><vAcc>0.716138</vAcc></extensions></trkpt>
      <trkpt lon="-3.346112" lat="54.545437"><ele>348.507324</ele><time>2021-08-12T10:45:57Z</time><extensions><speed>0.544943</speed><course>29.254332</course><hAcc>0.884547</hAcc><vAcc>0.716522</vAcc></extensions></trkpt>
      <trkpt lon="-3.346112" lat="54.545432"><ele>348.328461</ele><time>2021-08-12T10:45:58Z</time><extensions><speed>0.546355</speed><course>29.254333</course><hAcc>0.884635</hAcc><vAcc>0.716930</vAcc></extensions></trkpt>
      <trkpt lon="-3.346111" lat="54.545427"><ele>348.151245</ele><time>2021-08-12T10:45:59Z</time><extensions><speed>0.550102</speed><course>29.254337</course><hAcc>0.884719</hAcc><vAcc>0.717340</vAcc></extensions></trkpt>
      <trkpt lon="-3.346111" lat="54.545422"><ele>347.976501</ele><time>2021-08-12T10:46:00Z</time><extensions><speed>0.555909</speed><course>29.254337</course><hAcc>0.884796</hAcc><vAcc>0.717724</vAcc></extensions></trkpt>
      <trkpt lon="-3.346110" lat="54.545417"><ele>347.804230</ele><time>2021-08-12T10:46:01Z</time><extensions><speed>0.563437</speed><course>29.254339</course><hAcc>0.884861</hAcc><vAcc>0.718052</vAcc></extensions></trkpt>
      <trkpt lon="-3.346109" lat="54.545412"><ele>347.633575</ele><time>2021-08-12T10:46:02Z</time><extensions><speed>0.572658</speed><course>29.254337</course><hAcc>0.884914</hAcc><vAcc>0.718298</vAcc></extensions></trkpt>
      <trkpt lon="-3.346108" lat="54.545407"><ele>347.463104</ele><time>2021-08-12T10:46:03Z</time><extensions><speed>0.583541</speed><course>29.254339</course><hAcc>0.884952</hAcc><vAcc>0.718446</vAcc></extensions></trkpt>
      <trkpt lon="-3.346107" lat="54.545402"><ele>347.290466</ele><time>2021-08-12T10:46:04Z</time><extensions><speed>0.596012</speed><course>353.139893</course><hAcc>0.884974</hAcc><vAcc>0.718491</vAcc></extensions></trkpt>
      <trkpt lon="-3.346106" lat="54.545396"><ele>347.112946</ele><time>2021-08-12T10:46:05Z</time><extensions><speed>0.610037</speed><course>-1.000000</course><hAcc>0.884980</hAcc><vAcc>0.718446</vAcc></extensions></trkpt>
      <trkpt lon="-3.346105" lat="54.545391"><ele>346.927734</ele><time>2021-08-12T10:46:06Z</time><extensions><speed>0.624825</speed><course>-1.000000</course><hAcc>0.884970</hAcc><vAcc>0.718327</vAcc></extensions></trkpt>
      <trkpt lon="-3.346104" lat="54.545385"><ele>346.732666</ele><time>2021-08-12T10:46:07Z</time><extensions><speed>0.639641</speed><course>-1.000000</course><hAcc>0.884946</hAcc><vAcc>0.718157</vAcc></extensions></trkpt>
      <trkpt lon="-3.346103" lat="54.545379"><ele>346.526825</ele><time>2021-08-12T10:46:08Z</time><extensions><speed>0.654448</speed><course>-1.000000</course><hAcc>0.884910</hAcc><vAcc>0.717956</vAcc></extensions></trkpt>
      <trkpt lon="-3.346101" lat="54.545373"><ele>346.310913</ele><time>2021-08-12T10:46:09Z</time><extensions><speed>0.668902</speed><course>-1.000000</course><hAcc>0.884866</hAcc><vAcc>0.717739</vAcc></extensions></trkpt>
      <trkpt lon="-3.346099" lat="54.545367"><ele>346.086670</ele><time>2021-08-12T10:46:10Z</time><extensions><speed>0.682304</speed><course>-1.000000</course><hAcc>0.884818</hAcc><vAcc>0.717517</vAcc></extensions></trkpt>
      <trkpt lon="-3.346098" lat="54.545361"><ele>345.855988</ele><time>2021-08-12T10:46:11Z</time><extensions><speed>0.693721</speed><course>-1.000000</course><hAcc>0.884768</hAcc><vAcc>0.717299</vAcc></extensions></trkpt>
      <trkpt lon="-3.346096" lat="54.545355"><ele>345.620453</ele><time>2021-08-12T10:46:12Z</time><extensions><speed>0.702591</speed><course>-1.000000</course><hAcc>0.884720</hAcc><vAcc>0.717092</vAcc></extensions></trkpt>
      <trkpt lon="-3.346094" lat="54.545349"><ele>345.380890</ele><time>2021-08-12T10:46:13Z</time><extensions><speed>0.708857</speed><course>-1.000000</course><hAcc>0.884674</hAcc><vAcc>0.716901</vAcc></extensions></trkpt>
      <trkpt lon="-3.346092" lat="54.545343"><ele>345.137695</ele><time>2021-08-12T10:46:14Z</time><extensions><speed>0.712698</speed><course>-1.000000</course><hAcc>0.884632</hAcc><vAcc>0.716732</vAcc></extensions></trkpt>
      <trkpt lon="-3.346089" lat="54.545336"><ele>344.891235</ele><time>2021-08-12T10:46:15Z</time><extensions><speed>0.714281</speed><course>-1.000000</course><hAcc>0.884591</hAcc><vAcc>0.716586</vAcc></extensions></trkpt>
      <trkpt lon="-3.346087" lat="54.545330"><ele>344.641937</ele><time>2021-08-12T10:46:16Z</time><extensions><speed>0.713367</speed><course>74.830536</course><hAcc>0.884552</hAcc><vAcc>0.716461</vAcc></extensions></trkpt>
      <trkpt lon="-3.346085" lat="54.545324"><ele>344.390228</ele><time>2021-08-12T10:46:17Z</time><extensions><speed>0.709714</speed><course>62.161198</course><hAcc>0.884510</hAcc><vAcc>0.716349</vAcc></extensions></trkpt>
      <trkpt lon="-3.346082" lat="54.545318"><ele>344.136475</ele><time>2021-08-12T10:46:18Z</time><extensions><speed>0.703102</speed><course>66.043793</course><hAcc>0.884464</hAcc><vAcc>0.716238</vAcc></extensions></trkpt>
      <trkpt lon="-3.346080" lat="54.545312"><ele>343.881622</ele><time>2021-08-12T10:46:19Z</time><extensions><speed>0.693486</speed><course>75.803009</course><hAcc>0.884410</hAcc><vAcc>0.716112</vAcc></extensions></trkpt>
      <trkpt lon="-3.346077" lat="54.545306"><ele>343.627502</ele><time>2021-08-12T10:46:20Z</time><extensions><speed>0.681204</speed><course>76.191063</course><hAcc>0.884347</hAcc><vAcc>0.715955</vAcc></extensions></trkpt>
      <trkpt lon="-3.346074" lat="54.545300"><ele>343.376373</ele><time>2021-08-12T10:46:21Z</time><extensions><speed>0.666539</speed><course>76.349960</course><hAcc>0.884277</hAcc><vAcc>0.715749</vAcc></extensions></trkpt>
      <trkpt lon="-3.346071" lat="54.545294"><ele>343.130463</ele><time>2021-08-12T10:46:22Z</time><extensions><speed>0.649665</speed><course>78.477806</course><hAcc>0.884205</hAcc><vAcc>0.715471</vAcc></extensions></trkpt>
      <trkpt lon="-3.346068" lat="54.545289"><ele>342.891724</ele><time>2021-08-12T10:46:23Z</time><extensions><speed>0.630951</speed><course>75.070290</course><hAcc>0.884145</hAcc><vAcc>0.715093</vAcc></extensions></trkpt>
      <trkpt lon="-3.346065" lat="54.545283"><ele>342.661896</ele><time>2021-08-12T10:46:24Z</time><extensions><speed>0.610745</speed><course>69.086029</course><hAcc>0.884117</hAcc><vAcc>0.714587</vAcc></extensions></trkpt>
      <trkpt lon="-3.346062" lat="54.545278"><ele>342.442078</ele><time>2021-08-12T10:46:25Z</time><extensions><speed>0.589664</speed><course>68.949226</course><hAcc>0.884155</hAcc><vAcc>0.713925</vAcc></extensions></trkpt>
      <trkpt lon="-3.346059" lat="54.545273"><ele>342.232819</ele><time>2021-08-12T10:46:26Z</time><extensions><speed>0.569080</speed><course>71.686111</course><hAcc>0.884300</hAcc><vAcc>0.713082</vAcc></extensions></trkpt>
      <trkpt lon="-3.346056" lat="54.545269"><ele>342.034149</ele><time>2021-08-12T10:46:27Z</time><extensions><speed>0.550855</speed><course>76.597496</course><hAcc>0.884601</hAcc><vAcc>0.712048</vAcc></extensions></trkpt>
      <trkpt lon="-3.346053" lat="54.545264"><ele>341.845428</ele><time>2021-08-12T10:46:28Z</time><extensions><speed>0.537456</speed><course>90.005066</course><hAcc>0.885107</hAcc><vAcc>0.710829</vAcc></extensions></trkpt>
      <trkpt lon="-3.346050" lat="54.545260"><ele>341.665253</ele><time>2021-08-12T10:46:29Z</time><extensions><speed>0.531853</speed><course>83.948074</course><hAcc>0.885858</hAcc><vAcc>0.709456</vAcc></extensions></trkpt>
      <trkpt lon="-3.346047" lat="54.545255"><ele>341.490967</ele><time>2021-08-12T10:46:30Z</time><extensions><speed>0.536047</speed><course>76.996796</course><hAcc>0.886867</hAcc><vAcc>0.707990</vAcc></extensions></trkpt>
      <trkpt lon="-3.346044" lat="54.545251"><ele>341.318939</ele><time>2021-08-12T10:46:31Z</time><extensions><speed>0.550642</speed><course>79.507355</course><hAcc>0.888103</hAcc><vAcc>0.706519</vAcc></extensions></trkpt>
      <trkpt lon="-3.346041" lat="54.545246"><ele>341.145416</ele><time>2021-08-12T10:46:32Z</time><extensions><speed>0.575570</speed><course>72.096832</course><hAcc>0.889469</hAcc><vAcc>0.705148</vAcc></extensions></trkpt>
      <trkpt lon="-3.346037" lat="54.545241"><ele>340.966553</ele><time>2021-08-12T10:46:33Z</time><extensions><speed>0.610188</speed><course>80.368279</course><hAcc>0.890785</hAcc><vAcc>0.703980</vAcc></extensions></trkpt>
      <trkpt lon="-3.346034" lat="54.545236"><ele>340.778503</ele><time>2021-08-12T10:46:34Z</time><extensions><speed>0.653073</speed><course>78.982643</course><hAcc>0.891795</hAcc><vAcc>0.703099</vAcc></extensions></trkpt>
      <trkpt lon="-3.346030" lat="54.545230"><ele>340.577667</ele><time>2021-08-12T10:46:35Z</time><extensions><speed>0.701636</speed><course>81.075706</course><hAcc>0.892230</hAcc><vAcc>0.702563</vAcc></extensions></trkpt>
      <trkpt lon="-3.346025" lat="54.545224"><ele>340.361115</ele><time>2021-08-12T10:46:36Z</time><extensions><speed>0.752013</speed><course>81.007790</course><hAcc>0.891927</hAcc><vAcc>0.702389</vAcc></extensions></trkpt>
      <trkpt lon="-3.346021" lat="54.545218"><ele>340.126831</ele><time>2021-08-12T10:46:37Z</time><extensions><speed>0.799409</speed><course>78.272133</course><hAcc>0.890946</hAcc><vAcc>0.702567</vAcc></extensions></trkpt>
      <trkpt lon="-3.346016" lat="54.545211"><ele>339.873993</ele><time>2021-08-12T10:46:38Z</time><extensions><speed>0.840148</speed><course>73.069588</course><hAcc>0.889554</hAcc><vAcc>0.703063</vAcc></extensions></trkpt>
      <trkpt lon="-3.346011" lat="54.545204"><ele>339.603027</ele><time>2021-08-12T10:46:39Z</time><extensions><speed>0.872772</speed><course>77.189682</course><hAcc>0.888045</hAcc><vAcc>0.703819</vAcc></extensions></trkpt>
      <trkpt lon="-3.346007" lat="54.545196"><ele>339.315552</ele><time>2021-08-12T10:46:40Z</time><extensions><speed>0.896723</speed><course>75.197517</course><hAcc>0.886632</hAcc><vAcc>0.704761</vAcc></extensions></trkpt>
      <trkpt lon="-3.346002" lat="54.545188"><ele>339.013824</ele><time>2021-08-12T10:46:41Z</time><extensions><speed>0.912183</speed><course>67.733307</course><hAcc>0.885441</hAcc><vAcc>0.705817</vAcc></extensions></trkpt>
      <trkpt lon="-3.345997" lat="54.545181"><ele>338.700562</ele><time>2021-08-12T10:46:42Z</time><extensions><speed>0.919865</speed><course>69.123688</course><hAcc>0.884528</hAcc><vAcc>0.706923</vAcc></extensions></trkpt>
      <trkpt lon="-3.345992" lat="54.545173"><ele>338.378479</ele><time>2021-08-12T10:46:43Z</time><extensions><speed>0.920199</speed><course>71.299400</course><hAcc>0.883892</hAcc><vAcc>0.708026</vAcc></extensions></trkpt>
      <trkpt lon="-3.345988" lat="54.545165"><ele>338.049957</ele><time>2021-08-12T10:46:44Z</time><extensions><speed>0.914018</speed><course>77.479210</course><hAcc>0.883502</hAcc><vAcc>0.709085</vAcc></extensions></trkpt>
      <trkpt lon="-3.345983" lat="54.545157"><ele>337.716888</ele><time>2021-08-12T10:46:45Z</time><extensions><speed>0.903080</speed><course>68.623329</course><hAcc>0.883310</hAcc><vAcc>0.710073</vAcc></extensions></trkpt>
      <trkpt lon="-3.345979" lat="54.545150"><ele>337.380798</ele><time>2021-08-12T10:46:46Z</time><extensions><speed>0.889986</speed><course>63.866425</course><hAcc>0.883263</hAcc><vAcc>0.710974</vAcc></extensions></trkpt>
      <trkpt lon="-3.345974" lat="54.545142"><ele>337.042816</ele><time>2021-08-12T10:46:47Z</time><extensions><speed>0.877403</speed><course>76.291603</course><hAcc>0.883314</hAcc><vAcc>0.711786</vAcc></extensions></trkpt>
      <trkpt lon="-3.345970" lat="54.545135"><ele>336.703552</ele><time>2021-08-12T10:46:48Z</time><extensions><speed>0.866417</speed><course>71.777351</course><hAcc>0.883422</hAcc><vAcc>0.712512</vAcc></extensions></trkpt>
      <trkpt lon="-3.345965" lat="54.545128"><ele>336.363373</ele><time>2021-08-12T10:46:49Z</time><extensions><speed>0.857646</speed><course>76.476341</course><hAcc>0.883555</hAcc><vAcc>0.713154</vAcc></extensions></trkpt>
      <trkpt lon="-3.345961" lat="54.545120"><ele>336.022644</ele><time>2021-08-12T10:46:50Z</time><extensions><speed>0.851981</speed><course>63.346680</course><hAcc>0.883694</hAcc><vAcc>0.713715</vAcc></extensions></trkpt>
      <trkpt lon="-3.345956" lat="54.545113"><ele>335.681641</ele><time>2021-08-12T10:46:51Z</time><extensions><speed>0.849909</speed><course>60.883244</course><hAcc>0.883823</hAcc><vAcc>0.714198</vAcc></extensions></trkpt>
      <trkpt lon="-3.345952" lat="54.545106"><ele>335.340485</ele><time>2021-08-12T10:46:52Z</time><extensions><speed>0.851402</speed><course>66.100471</course><hAcc>0.883937</hAcc><vAcc>0.714597</vAcc></extensions></trkpt>
      <trkpt lon="-3.345948" lat="54.545099"><ele>334.999390</ele><time>2021-08-12T10:46:53Z</time><extensions><speed>0.856080</speed><course>66.284729</course><hAcc>0.884032</hAcc><vAcc>0.714912</vAcc></extensions></trkpt>
      <trkpt lon="-3.345943" lat="54.545091"><ele>334.658630</ele><time>2021-08-12T10:46:54Z</time><extensions><speed>0.863775</speed><course>70.183884</course><hAcc>0.884109</hAcc><vAcc>0.715146</vAcc></extensions></trkpt>
      <trkpt lon="-3.345939" lat="54.545084"><ele>334.318451</ele><time>2021-08-12T10:46:55Z</time><extensions><speed>0.873909</speed><course>69.091454</course><hAcc>0.884171</hAcc><vAcc>0.715310</vAcc></extensions></trkpt>
      <trkpt lon="-3.345936" lat="54.545076"><ele>333.978699</ele><time>2021-08-12T10:46:56Z</time><extensions><speed>0.885833</speed><course>67.595528</course><hAcc>0.884220</hAcc><vAcc>0.715421</vAcc></extensions></trkpt>
      <trkpt lon="-3.345932" lat="54.545069"><ele>333.638977</ele><time>2021-08-12T10:46:57Z</time><extensions><speed>0.898951</speed><course>69.079941</course><hAcc>0.884260</hAcc><vAcc>0.715501</vAcc></extensions></trkpt>
      <trkpt lon="-3.345929" lat="54.545061"><ele>333.298706</ele><time>2021-08-12T10:46:58Z</time><extensions><speed>0.912387</speed><course>67.638985</course><hAcc>0.884295</hAcc><vAcc>0.715572</vAcc></extensions></trkpt>
      <trkpt lon="-3.345926" lat="54.545053"><ele>332.957214</ele><time>2021-08-12T10:46:59Z</time><extensions><speed>0.925432</speed><course>67.902077</course><hAcc>0.884327</hAcc><vAcc>0.715653</vAcc></extensions></trkpt>
      <trkpt lon="-3.345922" lat="54.545045"><ele>332.613495</ele><time>2021-08-12T10:47:00Z</time><extensions><speed>0.937323</speed><course>68.213737</course><hAcc>0.884359</hAcc><vAcc>0.715756</vAcc></extensions></trkpt>
      <trkpt lon="-3.345919" lat="54.545036"><ele>332.266235</ele><time>2021-08-12T10:47:01Z</time><extensions><speed>0.947524</speed><course>58.646133</course><hAcc>0.884393</hAcc><vAcc>0.715887</vAcc></extensions></trkpt>
      <trkpt lon="-3.345916" lat="54.545028"><ele>331.914673</ele><time>2021-08-12T10:47:02Z</time><extensions><speed>0.955747</speed><course>60.787758</course><hAcc>0.884430</hAcc><vAcc>0.716048</vAcc></extensions></trkpt>
      <trkpt lon="-3.345913" lat="54.545020"><ele>331.558746</ele><time>2021-08-12T10:47:03Z</time><extensions><speed>0.961963</speed><course>59.107254</course><hAcc>0.884469</hAcc><vAcc>0.716235</vAcc></extensions></trkpt>
      <trkpt lon="-3.345909" lat="54.545011"><ele>331.199127</ele><time>2021-08-12T10:47:04Z</time><extensions><speed>0.966467</speed><course>59.308796</course><hAcc>0.884510</hAcc><vAcc>0.716442</vAcc></extensions></trkpt>
      <trkpt lon="-3.345905" lat="54.545003"><ele>330.837555</ele><time>2021-08-12T10:47:05Z</time><extensions><speed>0.969968</speed><course>63.536522</course><hAcc>0.884551</hAcc><vAcc>0.716656</vAcc></extensions></trkpt>
      <trkpt lon="-3.345901" lat="54.544994"><ele>330.476868</ele><time>2021-08-12T10:47:06Z</time><extensions><speed>0.973372</speed><course>64.110619</course><hAcc>0.884592</hAcc><vAcc>0.716861</vAcc></extensions></trkpt>
      <trkpt lon="-3.345897" lat="54.544986"><ele>330.119354</ele><time>2021-08-12T10:47:07Z</time><extensions><speed>0.976960</speed><course>57.783936</course><hAcc>0.884633</hAcc><vAcc>0.717040</vAcc></extensions></trkpt>
      <trkpt lon="-3.345892" lat="54.544978"><ele>329.766052</ele><time>2021-08-12T10:47:08Z</time><extensions><speed>0.980931</speed><course>62.673740</course><hAcc>0.884672</hAcc><vAcc>0.717184</vAcc></extensions></trkpt>
      <trkpt lon="-3.345887" lat="54.544969"><ele>329.417755</ele><time>2021-08-12T10:47:09Z</time><extensions><speed>0.985881</speed><course>68.268181</course><hAcc>0.884709</hAcc><vAcc>0.717289</vAcc></extensions></trkpt>
      <trkpt lon="-3.345882" lat="54.544961"><ele>329.075317</ele><time>2021-08-12T10:47:10Z</time><extensions><speed>0.992299</speed><course>59.735432</course><hAcc>0.884744</hAcc><vAcc>0.717365</vAcc></extensions></trkpt>
      <trkpt lon="-3.345876" lat="54.544953"><ele>328.739075</ele><time>2021-08-12T10:47:11Z</time><extensions><speed>1.000025</speed><course>59.192490</course><hAcc>0.884776</hAcc><vAcc>0.717427</vAcc></extensions></trkpt>
      <trkpt lon="-3.345870" lat="54.544944"><ele>328.408783</ele><time>2021-08-12T10:47:12Z</time><extensions><speed>1.008405</speed><course>60.825825</course><hAcc>0.884804</hAcc><vAcc>0.717489</vAcc></extensions></trkpt>
      <trkpt lon="-3.345864" lat="54.544936"><ele>328.083344</ele><time>2021-08-12T10:47:13Z</time><extensions><speed>1.016661</speed><course>62.921200</course><hAcc>0.884829</hAcc><vAcc>0.717561</vAcc></extensions></trkpt>
      <trkpt lon="-3.345857" lat="54.544928"><ele>327.760742</ele><time>2021-08-12T10:47:14Z</time><extensions><speed>1.023767</speed><course>59.145714</course><hAcc>0.884850</hAcc><vAcc>0.717648</vAcc></extensions></trkpt>
      <trkpt lon="-3.345850" lat="54.544919"><ele>327.438507</ele><time>2021-08-12T10:47:15Z</time><extensions><speed>1.029017</speed><course>54.852036</course><hAcc>0.884867</hAcc><vAcc>0.717746</vAcc></extensions></trkpt>
      <trkpt lon="-3.345843" lat="54.544911"><ele>327.114166</ele><time>2021-08-12T10:47:16Z</time><extensions><speed>1.031714</speed><course>52.958679</course><hAcc>0.884881</hAcc><vAcc>0.717845</vAcc></extensions></trkpt>
      <trkpt lon="-3.345836" lat="54.544903"><ele>326.785522</ele><time>2021-08-12T10:47:17Z</time><extensions><speed>1.030640</speed><course>51.642593</course><hAcc>0.884892</hAcc><vAcc>0.717929</vAcc></extensions></trkpt>
      <trkpt lon="-3.345829" lat="54.544895"><ele>326.450714</ele><time>2021-08-12T10:47:18Z</time><extensions><speed>1.025328</speed><course>50.915668</course><hAcc>0.884900</hAcc><vAcc>0.717987</vAcc></extensions></trkpt>
      <trkpt lon="-3.345822" lat="54.544886"><ele>326.108307</ele><time>2021-08-12T10:47:19Z</time><extensions><speed>1.016406</speed><course>43.517220</course><hAcc>0.884905</hAcc><vAcc>0.718010</vAcc></extensions></trkpt>
      <trkpt lon="-3.345815" lat="54.544878"><ele>325.757355</ele><time>2021-08-12T10:47:20Z</time><extensions><speed>1.005146</speed><course>53.213661</course><hAcc>0.884907</hAcc><vAcc>0.717998</vAcc></extensions></trkpt>
      <trkpt lon="-3.345807" lat="54.544870"><ele>325.397461</ele><time>2021-08-12T10:47:21Z</time><extensions><speed>0.992461</speed><course>42.672325</course><hAcc>0.884904</hAcc><vAcc>0.717956</vAcc></extensions></trkpt>
      <trkpt lon="-3.345800" lat="54.544863"><ele>325.028809</ele><time>2021-08-12T10:47:22Z</time><extensions><speed>0.978659</speed><course>57.842590</course><hAcc>0.884897</hAcc><vAcc>0.717894</vAcc></extensions></trkpt>
      <trkpt lon="-3.345793" lat="54.544855"><ele>324.652008</ele><time>2021-08-12T10:47:23Z</time><extensions><speed>0.964243</speed><course>54.432369</course><hAcc>0.884886</hAcc><vAcc>0.717823</vAcc></extensions></trkpt>
      <trkpt lon="-3.345786" lat="54.544847"><ele>324.268250</ele><time>2021-08-12T10:47:24Z</time><extensions><speed>0.949786</speed><course>53.099045</course><hAcc>0.884870</hAcc><vAcc>0.717750</vAcc></extensions></trkpt>
      <trkpt lon="-3.345779" lat="54.544840"><ele>323.878937</ele><time>2021-08-12T10:47:25Z</time><extensions><speed>0.935671</speed><course>52.709480</course><hAcc>0.884849</hAcc><vAcc>0.717677</vAcc></extensions></trkpt>
      <trkpt lon="-3.345772" lat="54.544833"><ele>323.485840</ele><time>2021-08-12T10:47:26Z</time><extensions><speed>0.922557</speed><course>55.566643</course><hAcc>0.884824</hAcc><vAcc>0.717601</vAcc></extensions></trkpt>
      <trkpt lon="-3.345766" lat="54.544825"><ele>323.090942</ele><time>2021-08-12T10:47:27Z</time><extensions><speed>0.911611</speed><course>50.999676</course><hAcc>0.884796</hAcc><vAcc>0.717520</vAcc></extensions></trkpt>
      <trkpt lon="-3.345760" lat="54.544818"><ele>322.696533</ele><time>2021-08-12T10:47:28Z</time><extensions><speed>0.903456</speed><course>49.932701</course><hAcc>0.884765</hAcc><vAcc>0.717430</vAcc></extensions></trkpt>
      <trkpt lon="-3.345754" lat="54.544811"><ele>322.304932</ele><time>2021-08-12T10:47:29Z</time><extensions><speed>0.898198</speed><course>44.103298</course><hAcc>0.884730</hAcc><vAcc>0.717325</vAcc></extensions></trkpt>
      <trkpt lon="-3.345748" lat="54.544803"><ele>321.918579</ele><time>2021-08-12T10:47:30Z</time><extensions><speed>0.896340</speed><course>35.959499</course><hAcc>0.884694</hAcc><vAcc>0.717199</vAcc></extensions></trkpt>
      <trkpt lon="-3.345742" lat="54.544796"><ele>321.539734</ele><time>2021-08-12T10:47:31Z</time><extensions><speed>0.897948</speed><course>30.952709</course><hAcc>0.884656</hAcc><vAcc>0.717052</vAcc></extensions></trkpt>
      <trkpt lon="-3.345737" lat="54.544788"><ele>321.170166</ele><time>2021-08-12T10:47:32Z</time><extensions><speed>0.902744</speed><course>43.709347</course><hAcc>0.884617</hAcc><vAcc>0.716887</vAcc></extensions></trkpt>
      <trkpt lon="-3.345732" lat="54.544781"><ele>320.810730</ele><time>2021-08-12T10:47:33Z</time><extensions><speed>0.910632</speed><course>37.574459</course><hAcc>0.884580</hAcc><vAcc>0.716710</vAcc></extensions></trkpt>
      <trkpt lon="-3.345727" lat="54.544773"><ele>320.461487</ele><time>2021-08-12T10:47:34Z</time><extensions><speed>0.921004</speed><course>40.028488</course><hAcc>0.884544</hAcc><vAcc>0.716534</vAcc></extensions></trkpt>
      <trkpt lon="-3.345723" lat="54.544765"><ele>320.121307</ele><time>2021-08-12T10:47:35Z</time><extensions><speed>0.932695</speed><course>39.088745</course><hAcc>0.884512</hAcc><vAcc>0.716371</vAcc></extensions></trkpt>
      <trkpt lon="-3.345718" lat="54.544757"><ele>319.788208</ele><time>2021-08-12T10:47:36Z</time><extensions><speed>0.944546</speed><course>38.227211</course><hAcc>0.884484</hAcc><vAcc>0.716231</vAcc></extensions></trkpt>
      <trkpt lon="-3.345713" lat="54.544749"><ele>319.459778</ele><time>2021-08-12T10:47:37Z</time><extensions><speed>0.955841</speed><course>38.580025</course><hAcc>0.884461</hAcc><vAcc>0.716125</vAcc></extensions></trkpt>
      <trkpt lon="-3.345708" lat="54.544741"><ele>319.134003</ele><time>2021-08-12T10:47:38Z</time><extensions><speed>0.966502</speed><course>36.225418</course><hAcc>0.884444</hAcc><vAcc>0.716060</vAcc></extensions></trkpt>
      <trkpt lon="-3.345704" lat="54.544733"><ele>318.809387</ele><time>2021-08-12T10:47:39Z</time><extensions><speed>0.976964</speed><course>36.482189</course><hAcc>0.884432</hAcc><vAcc>0.716035</vAcc></extensions></trkpt>
      <trkpt lon="-3.345699" lat="54.544724"><ele>318.485077</ele><time>2021-08-12T10:47:40Z</time><extensions><speed>0.987443</speed><course>45.117634</course><hAcc>0.884424</hAcc><vAcc>0.716046</vAcc></extensions></trkpt>
      <trkpt lon="-3.345693" lat="54.544716"><ele>318.160675</ele><time>2021-08-12T10:47:41Z</time><extensions><speed>0.997871</speed><course>40.176819</course><hAcc>0.884420</hAcc><vAcc>0.716081</vAcc></extensions></trkpt>
      <trkpt lon="-3.345688" lat="54.544707"><ele>317.836121</ele><time>2021-08-12T10:47:42Z</time><extensions><speed>1.008034</speed><course>42.588684</course><hAcc>0.884418</hAcc><vAcc>0.716125</vAcc></extensions></trkpt>
      <trkpt lon="-3.345683" lat="54.544699"><ele>317.511688</ele><time>2021-08-12T10:47:43Z</time><extensions><speed>1.017721</speed><course>41.771687</course><hAcc>0.884416</hAcc><vAcc>0.716166</vAcc></extensions></trkpt>
      <trkpt lon="-3.345678" lat="54.544690"><ele>317.187866</ele><time>2021-08-12T10:47:44Z</time><extensions><speed>1.026772</speed><course>41.372017</course><hAcc>0.884414</hAcc><vAcc>0.716189</vAcc></extensions></trkpt>
      <trkpt lon="-3.345673" lat="54.544681"><ele>316.865021</ele><time>2021-08-12T10:47:45Z</time><extensions><speed>1.034539</speed><course>37.017429</course><hAcc>0.884409</hAcc><vAcc>0.716189</vAcc></extensions></trkpt>
      <trkpt lon="-3.345668" lat="54.544672"><ele>316.543243</ele><time>2021-08-12T10:47:46Z</time><extensions><speed>1.040597</speed><course>28.588495</course><hAcc>0.884401</hAcc><vAcc>0.716161</vAcc></extensions></trkpt>
      <trkpt lon="-3.345664" lat="54.544663"><ele>316.222748</ele><time>2021-08-12T10:47:47Z</time><extensions><speed>1.045348</speed><course>39.512306</course><hAcc>0.884390</hAcc><vAcc>0.716105</vAcc></extensions></trkpt>
      <trkpt lon="-3.345660" lat="54.544654"><ele>315.903809</ele><time>2021-08-12T10:47:48Z</time><extensions><speed>1.049500</speed><course>38.955353</course><hAcc>0.884375</hAcc><vAcc>0.716025</vAcc></extensions></trkpt>
      <trkpt lon="-3.345656" lat="54.544645"><ele>315.586823</ele><time>2021-08-12T10:47:49Z</time><extensions><speed>1.053654</speed><course>35.270641</course><hAcc>0.884358</hAcc><vAcc>0.715929</vAcc></extensions></trkpt>
      <trkpt lon="-3.345653" lat="54.544636"><ele>315.272461</ele><time>2021-08-12T10:47:50Z</time><extensions><speed>1.057882</speed><course>38.302330</course><hAcc>0.884341</hAcc><vAcc>0.715825</vAcc></extensions></trkpt>
      <trkpt lon="-3.345649" lat="54.544627"><ele>314.961182</ele><time>2021-08-12T10:47:51Z</time><extensions><speed>1.061490</speed><course>40.976086</course><hAcc>0.884324</hAcc><vAcc>0.715724</vAcc></extensions></trkpt>
      <trkpt lon="-3.345646" lat="54.544617"><ele>314.652893</ele><time>2021-08-12T10:47:52Z</time><extensions><speed>1.063480</speed><course>40.718147</course><hAcc>0.884311</hAcc><vAcc>0.715638</vAcc></extensions></trkpt>
      <trkpt lon="-3.345643" lat="54.544608"><ele>314.346985</ele><time>2021-08-12T10:47:53Z</time><extensions><speed>1.062790</speed><course>40.437557</course><hAcc>0.884302</hAcc><vAcc>0.715574</vAcc></extensions></trkpt>
      <trkpt lon="-3.345640" lat="54.544599"><ele>314.042419</ele><time>2021-08-12T10:47:54Z</time><extensions><speed>1.058843</speed><course>38.315979</course><hAcc>0.884301</hAcc><vAcc>0.715542</vAcc></extensions></trkpt>
      <trkpt lon="-3.345636" lat="54.544589"><ele>313.737885</ele><time>2021-08-12T10:47:55Z</time><extensions><speed>1.052049</speed><course>28.668550</course><hAcc>0.884307</hAcc><vAcc>0.715550</vAcc></extensions></trkpt>
      <trkpt lon="-3.345632" lat="54.544580"><ele>313.432556</ele><time>2021-08-12T10:47:56Z</time><extensions><speed>1.043113</speed><course>31.392698</course><hAcc>0.884321</hAcc><vAcc>0.715602</vAcc></extensions></trkpt>
      <trkpt lon="-3.345628" lat="54.544571"><ele>313.126404</ele><time>2021-08-12T10:47:57Z</time><extensions><speed>1.032734</speed><course>32.848076</course><hAcc>0.884345</hAcc><vAcc>0.715698</vAcc></extensions></trkpt>
      <trkpt lon="-3.345623" lat="54.544562"><ele>312.820007</ele><time>2021-08-12T10:47:58Z</time><extensions><speed>1.021496</speed><course>38.096359</course><hAcc>0.884377</hAcc><vAcc>0.715836</vAcc></extensions></trkpt>
      <trkpt lon="-3.345618" lat="54.544554"><ele>312.514252</ele><time>2021-08-12T10:47:59Z</time><extensions><speed>1.009629</speed><course>27.737675</course><hAcc>0.884416</hAcc><vAcc>0.716010</vAcc></extensions></trkpt>
      <trkpt lon="-3.345613" lat="54.544545"><ele>312.210114</ele><time>2021-08-12T10:48:00Z</time><extensions><speed>0.997615</speed><course>38.820049</course><hAcc>0.884461</hAcc><vAcc>0.716213</vAcc></extensions></trkpt>
      <trkpt lon="-3.345607" lat="54.544537"><ele>311.908752</ele><time>2021-08-12T10:48:01Z</time><extensions><speed>0.986302</speed><course>40.137299</course><hAcc>0.884510</hAcc><vAcc>0.716433</vAcc></extensions></trkpt>
      <trkpt lon="-3.345601" lat="54.544529"><ele>311.611237</ele><time>2021-08-12T10:48:02Z</time><extensions><speed>0.976346</speed><course>44.560421</course><hAcc>0.884563</hAcc><vAcc>0.716659</vAcc></extensions></trkpt>
      <trkpt lon="-3.345595" lat="54.544521"><ele>311.318542</ele><time>2021-08-12T10:48:03Z</time><extensions><speed>0.968009</speed><course>41.574787</course><hAcc>0.884616</hAcc><vAcc>0.716881</vAcc></extensions></trkpt>
      <trkpt lon="-3.345588" lat="54.544513"><ele>311.030945</ele><time>2021-08-12T10:48:04Z</time><extensions><speed>0.961418</speed><course>37.402897</course><hAcc>0.884669</hAcc><vAcc>0.717089</vAcc></extensions></trkpt>
      <trkpt lon="-3.345582" lat="54.544505"><ele>310.748260</ele><time>2021-08-12T10:48:05Z</time><extensions><speed>0.957461</speed><course>38.445354</course><hAcc>0.884719</hAcc><vAcc>0.717281</vAcc></extensions></trkpt>
      <trkpt lon="-3.345576" lat="54.544498"><ele>310.470306</ele><time>2021-08-12T10:48:06Z</time><extensions><speed>0.956761</speed><course>32.932274</course><hAcc>0.884767</hAcc><vAcc>0.717454</vAcc></extensions></trkpt>
      <trkpt lon="-3.345569" lat="54.544490"><ele>310.196869</ele><time>2021-08-12T10:48:07Z</time><extensions><speed>0.959220</speed><course>27.701353</course><hAcc>0.884812</hAcc><vAcc>0.717607</vAcc></extensions></trkpt>
      <trkpt lon="-3.345562" lat="54.544482"><ele>309.927673</ele><time>2021-08-12T10:48:08Z</time><extensions><speed>0.965033</speed><course>28.233585</course><hAcc>0.884853</hAcc><vAcc>0.717742</vAcc></extensions></trkpt>
      <trkpt lon="-3.345556" lat="54.544474"><ele>309.662079</ele><time>2021-08-12T10:48:09Z</time><extensions><speed>0.973996</speed><course>30.003765</course><hAcc>0.884890</hAcc><vAcc>0.717861</vAcc></extensions></trkpt>
      <trkpt lon="-3.345549" lat="54.544466"><ele>309.399323</ele><time>2021-08-12T10:48:10Z</time><extensions><speed>0.985470</speed><course>35.586266</course><hAcc>0.884924</hAcc><vAcc>0.717969</vAcc></extensions></trkpt>
      <trkpt lon="-3.345542" lat="54.544459"><ele>309.138733</ele><time>2021-08-12T10:48:11Z</time><extensions><speed>0.998877</speed><course>41.034397</course><hAcc>0.884955</hAcc><vAcc>0.718070</vAcc></extensions></trkpt>
      <trkpt lon="-3.345535" lat="54.544450"><ele>308.880005</ele><time>2021-08-12T10:48:12Z</time><extensions><speed>1.013543</speed><course>43.040592</course><hAcc>0.884984</hAcc><vAcc>0.718169</vAcc></extensions></trkpt>
      <trkpt lon="-3.345528" lat="54.544442"><ele>308.622925</ele><time>2021-08-12T10:48:13Z</time><extensions><speed>1.028603</speed><course>49.550934</course><hAcc>0.885012</hAcc><vAcc>0.718265</vAcc></extensions></trkpt>
      <trkpt lon="-3.345520" lat="54.544434"><ele>308.367218</ele><time>2021-08-12T10:48:14Z</time><extensions><speed>1.043779</speed><course>62.069283</course><hAcc>0.885039</hAcc><vAcc>0.718361</vAcc></extensions></trkpt>
      <trkpt lon="-3.345513" lat="54.544426"><ele>308.112854</ele><time>2021-08-12T10:48:15Z</time><extensions><speed>1.059582</speed><course>68.512573</course><hAcc>0.885067</hAcc><vAcc>0.718455</vAcc></extensions></trkpt>
      <trkpt lon="-3.345505" lat="54.544417"><ele>307.860291</ele><time>2021-08-12T10:48:16Z</time><extensions><speed>1.076545</speed><course>76.544746</course><hAcc>0.885095</hAcc><vAcc>0.718551</vAcc></extensions></trkpt>
      <trkpt lon="-3.345496" lat="54.544409"><ele>307.609863</ele><time>2021-08-12T10:48:17Z</time><extensions><speed>1.095034</speed><course>91.471558</course><hAcc>0.885125</hAcc><vAcc>0.718650</vAcc></extensions></trkpt>
      <trkpt lon="-3.345487" lat="54.544401"><ele>307.361755</ele><time>2021-08-12T10:48:18Z</time><extensions><speed>1.114841</speed><course>103.707001</course><hAcc>0.885158</hAcc><vAcc>0.718757</vAcc></extensions></trkpt>
      <trkpt lon="-3.345477" lat="54.544392"><ele>307.116028</ele><time>2021-08-12T10:48:19Z</time><extensions><speed>1.135195</speed><course>102.240677</course><hAcc>0.885192</hAcc><vAcc>0.718874</vAcc></extensions></trkpt>
      <trkpt lon="-3.345467" lat="54.544384"><ele>306.872498</ele><time>2021-08-12T10:48:20Z</time><extensions><speed>1.155417</speed><course>109.008522</course><hAcc>0.885228</hAcc><vAcc>0.719004</vAcc></extensions></trkpt>
      <trkpt lon="-3.345455" lat="54.544376"><ele>306.630829</ele><time>2021-08-12T10:48:21Z</time><extensions><speed>1.175103</speed><course>120.687057</course><hAcc>0.885267</hAcc><vAcc>0.719149</vAcc></extensions></trkpt>
      <trkpt lon="-3.345443" lat="54.544368"><ele>306.390350</ele><time>2021-08-12T10:48:22Z</time><extensions><speed>1.193258</speed><course>122.518364</course><hAcc>0.885307</hAcc><vAcc>0.719308</vAcc></extensions></trkpt>
      <trkpt lon="-3.345431" lat="54.544360"><ele>306.150146</ele><time>2021-08-12T10:48:23Z</time><extensions><speed>1.209089</speed><course>116.435341</course><hAcc>0.885349</hAcc><vAcc>0.719478</vAcc></extensions></trkpt>
      <trkpt lon="-3.345417" lat="54.544352"><ele>305.909546</ele><time>2021-08-12T10:48:24Z</time><extensions><speed>1.222238</speed><course>123.806564</course><hAcc>0.885393</hAcc><vAcc>0.719654</vAcc></extensions></trkpt>
      <trkpt lon="-3.345404" lat="54.544345"><ele>305.668060</ele><time>2021-08-12T10:48:25Z</time><extensions><speed>1.232373</speed><course>121.279266</course><hAcc>0.885439</hAcc><vAcc>0.719831</vAcc></extensions></trkpt>
      <trkpt lon="-3.345390" lat="54.544337"><ele>305.425385</ele><time>2021-08-12T10:48:26Z</time><extensions><speed>1.239830</speed><course>122.295830</course><hAcc>0.885486</hAcc><vAcc>0.720007</vAcc></extensions></trkpt>
      <trkpt lon="-3.345375" lat="54.544330"><ele>305.181396</ele><time>2021-08-12T10:48:27Z</time><extensions><speed>1.245382</speed><course>116.485687</course><hAcc>0.885536</hAcc><vAcc>0.720181</vAcc></extensions></trkpt>
      <trkpt lon="-3.345361" lat="54.544322"><ele>304.936066</ele><time>2021-08-12T10:48:28Z</time><extensions><speed>1.249727</speed><course>120.837761</course><hAcc>0.885587</hAcc><vAcc>0.720353</vAcc></extensions></trkpt>
      <trkpt lon="-3.345346" lat="54.544315"><ele>304.689636</ele><time>2021-08-12T10:48:29Z</time><extensions><speed>1.253540</speed><course>121.691162</course><hAcc>0.885639</hAcc><vAcc>0.720527</vAcc></extensions></trkpt>
      <trkpt lon="-3.345332" lat="54.544307"><ele>304.442841</ele><time>2021-08-12T10:48:30Z</time><extensions><speed>1.256810</speed><course>120.429344</course><hAcc>0.885693</hAcc><vAcc>0.720706</vAcc></extensions></trkpt>
      <trkpt lon="-3.345317" lat="54.544300"><ele>304.196564</ele><time>2021-08-12T10:48:31Z</time><extensions><speed>1.259033</speed><course>127.922836</course><hAcc>0.885747</hAcc><vAcc>0.720894</vAcc></extensions></trkpt>
      <trkpt lon="-3.345302" lat="54.544293"><ele>303.951721</ele><time>2021-08-12T10:48:32Z</time><extensions><speed>1.260559</speed><course>122.773224</course><hAcc>0.885801</hAcc><vAcc>0.721091</vAcc></extensions></trkpt>
      <trkpt lon="-3.345287" lat="54.544285"><ele>303.709045</ele><time>2021-08-12T10:48:33Z</time><extensions><speed>1.262057</speed><course>127.410233</course><hAcc>0.885854</hAcc><vAcc>0.721297</vAcc></extensions></trkpt>
      <trkpt lon="-3.345273" lat="54.544278"><ele>303.468994</ele><time>2021-08-12T10:48:34Z</time><extensions><speed>1.264084</speed><course>126.293243</course><hAcc>0.885904</hAcc><vAcc>0.721509</vAcc></extensions></trkpt>
      <trkpt lon="-3.345258" lat="54.544270"><ele>303.231720</ele><time>2021-08-12T10:48:35Z</time><extensions><speed>1.265834</speed><course>113.773628</course><hAcc>0.885949</hAcc><vAcc>0.721721</vAcc></extensions></trkpt>
      <trkpt lon="-3.345243" lat="54.544263"><ele>302.997192</ele><time>2021-08-12T10:48:36Z</time><extensions><speed>1.265679</speed><course>111.597641</course><hAcc>0.885990</hAcc><vAcc>0.721921</vAcc></extensions></trkpt>
      <trkpt lon="-3.345228" lat="54.544256"><ele>302.765289</ele><time>2021-08-12T10:48:37Z</time><extensions><speed>1.263454</speed><course>118.242065</course><hAcc>0.886023</hAcc><vAcc>0.722096</vAcc></extensions></trkpt>
      <trkpt lon="-3.345214" lat="54.544248"><ele>302.536255</ele><time>2021-08-12T10:48:38Z</time><extensions><speed>1.259648</speed><course>121.318916</course><hAcc>0.886049</hAcc><vAcc>0.722232</vAcc></extensions></trkpt>
      <trkpt lon="-3.345199" lat="54.544241"><ele>302.310394</ele><time>2021-08-12T10:48:39Z</time><extensions><speed>1.254350</speed><course>126.571838</course><hAcc>0.886066</hAcc><vAcc>0.722318</vAcc></extensions></trkpt>
      <trkpt lon="-3.345184" lat="54.544233"><ele>302.087952</ele><time>2021-08-12T10:48:40Z</time><extensions><speed>1.247807</speed><course>116.053932</course><hAcc>0.886075</hAcc><vAcc>0.722347</vAcc></extensions></trkpt>
      <trkpt lon="-3.345169" lat="54.544226"><ele>301.869110</ele><time>2021-08-12T10:48:41Z</time><extensions><speed>1.240641</speed><course>122.553452</course><hAcc>0.886075</hAcc><vAcc>0.722322</vAcc></extensions></trkpt>
      <trkpt lon="-3.345155" lat="54.544219"><ele>301.653931</ele><time>2021-08-12T10:48:42Z</time><extensions><speed>1.233505</speed><course>115.362396</course><hAcc>0.886067</hAcc><vAcc>0.722249</vAcc></extensions></trkpt>
      <trkpt lon="-3.345140" lat="54.544212"><ele>301.442230</ele><time>2021-08-12T10:48:43Z</time><extensions><speed>1.226784</speed><course>120.016403</course><hAcc>0.886051</hAcc><vAcc>0.722140</vAcc></extensions></trkpt>
      <trkpt lon="-3.345125" lat="54.544205"><ele>301.234009</ele><time>2021-08-12T10:48:44Z</time><extensions><speed>1.220991</speed><course>131.521149</course><hAcc>0.886028</hAcc><vAcc>0.722009</vAcc></extensions></trkpt>
      <trkpt lon="-3.345111" lat="54.544198"><ele>301.029968</ele><time>2021-08-12T10:48:45Z</time><extensions><speed>1.215879</speed><course>124.976143</course><hAcc>0.886000</hAcc><vAcc>0.721867</vAcc></extensions></trkpt>
      <trkpt lon="-3.345096" lat="54.544191"><ele>300.831085</ele><time>2021-08-12T10:48:46Z</time><extensions><speed>1.210545</speed><course>123.546791</course><hAcc>0.885969</hAcc><vAcc>0.721725</vAcc></extensions></trkpt>
      <trkpt lon="-3.345082" lat="54.544184"><ele>300.638092</ele><time>2021-08-12T10:48:47Z</time><extensions><speed>1.204753</speed><course>116.699699</course><hAcc>0.885937</hAcc><vAcc>0.721587</vAcc></extensions></trkpt>
      <trkpt lon="-3.345068" lat="54.544177"><ele>300.451569</ele><time>2021-08-12T10:48:48Z</time><extensions><speed>1.198300</speed><course>112.924561</course><hAcc>0.885907</hAcc><vAcc>0.721461</vAcc></extensions></trkpt>
      <trkpt lon="-3.345054" lat="54.544170"><ele>300.271851</ele><time>2021-08-12T10:48:49Z</time><extensions><speed>1.190893</speed><course>117.858780</course><hAcc>0.885881</hAcc><vAcc>0.721349</vAcc></extensions></trkpt>
      <trkpt lon="-3.345040" lat="54.544163"><ele>300.098785</ele><time>2021-08-12T10:48:50Z</time><extensions><speed>1.182449</speed><course>111.630035</course><hAcc>0.885861</hAcc><vAcc>0.721258</vAcc></extensions></trkpt>
      <trkpt lon="-3.345026" lat="54.544157"><ele>299.932068</ele><time>2021-08-12T10:48:51Z</time><extensions><speed>1.172982</speed><course>115.453979</course><hAcc>0.885846</hAcc><vAcc>0.721191</vAcc></extensions></trkpt>
      <trkpt lon="-3.345012" lat="54.544150"><ele>299.771088</ele><time>2021-08-12T10:48:52Z</time><extensions><speed>1.162428</speed><course>108.625862</course><hAcc>0.885839</hAcc><vAcc>0.721153</vAcc></extensions></trkpt>
      <trkpt lon="-3.344999" lat="54.544143"><ele>299.614777</ele><time>2021-08-12T10:48:53Z</time><extensions><speed>1.150900</speed><course>116.435417</course><hAcc>0.885838</hAcc><vAcc>0.721146</vAcc></extensions></trkpt>
      <trkpt lon="-3.344986" lat="54.544136"><ele>299.461884</ele><time>2021-08-12T10:48:54Z</time><extensions><speed>1.138875</speed><course>112.323517</course><hAcc>0.885842</hAcc><vAcc>0.721171</vAcc></extensions></trkpt>
      <trkpt lon="-3.344972" lat="54.544130"><ele>299.311127</ele><time>2021-08-12T10:48:55Z</time><extensions><speed>1.126424</speed><course>117.491661</course><hAcc>0.885852</hAcc><vAcc>0.721226</vAcc></extensions></trkpt>
      <trkpt lon="-3.344959" lat="54.544123"><ele>299.161469</ele><time>2021-08-12T10:48:56Z</time><extensions><speed>1.113768</speed><course>120.293846</course><hAcc>0.885865</hAcc><vAcc>0.721307</vAcc></extensions></trkpt>
      <trkpt lon="-3.344946" lat="54.544117"><ele>299.012054</ele><time>2021-08-12T10:48:57Z</time><extensions><speed>1.101434</speed><course>115.591873</course><hAcc>0.885879</hAcc><vAcc>0.721404</vAcc></extensions></trkpt>
      <trkpt lon="-3.344933" lat="54.544110"><ele>298.862366</ele><time>2021-08-12T10:48:58Z</time><extensions><speed>1.089275</speed><course>116.468712</course><hAcc>0.885892</hAcc><vAcc>0.721507</vAcc></extensions></trkpt>
      <trkpt lon="-3.344920" lat="54.544104"><ele>298.712311</ele><time>2021-08-12T10:48:59Z</time><extensions><speed>1.077008</speed><course>116.627220</course><hAcc>0.885904</hAcc><vAcc>0.721602</vAcc></extensions></trkpt>
      <trkpt lon="-3.344907" lat="54.544098"><ele>298.562012</ele><time>2021-08-12T10:49:00Z</time><extensions><speed>1.065078</speed><course>115.487846</course><hAcc>0.885912</hAcc><vAcc>0.721675</vAcc></extensions></trkpt>
      <trkpt lon="-3.344894" lat="54.544093"><ele>298.411896</ele><time>2021-08-12T10:49:01Z</time><extensions><speed>1.054262</speed><course>110.303284</course><hAcc>0.885915</hAcc><vAcc>0.721715</vAcc></extensions></trkpt>
      <trkpt lon="-3.344881" lat="54.544087"><ele>298.262756</ele><time>2021-08-12T10:49:02Z</time><extensions><speed>1.045190</speed><course>107.900200</course><hAcc>0.885914</hAcc><vAcc>0.721714</vAcc></extensions></trkpt>
      <trkpt lon="-3.344868" lat="54.544081"><ele>298.114929</ele><time>2021-08-12T10:49:03Z</time><extensions><speed>1.038415</speed><course>104.901772</course><hAcc>0.885907</hAcc><vAcc>0.721671</vAcc></extensions></trkpt>
      <trkpt lon="-3.344856" lat="54.544075"><ele>297.968475</ele><time>2021-08-12T10:49:04Z</time><extensions><speed>1.035147</speed><course>102.625549</course><hAcc>0.885895</hAcc><vAcc>0.721592</vAcc></extensions></trkpt>
      <trkpt lon="-3.344843" lat="54.544070"><ele>297.823395</ele><time>2021-08-12T10:49:05Z</time><extensions><speed>1.037435</speed><course>101.615082</course><hAcc>0.885878</hAcc><vAcc>0.721484</vAcc></extensions></trkpt>
      <trkpt lon="-3.344830" lat="54.544064"><ele>297.679626</ele><time>2021-08-12T10:49:06Z</time><extensions><speed>1.046390</speed><course>104.820312</course><hAcc>0.885858</hAcc><vAcc>0.721358</vAcc></extensions></trkpt>
      <trkpt lon="-3.344817" lat="54.544058"><ele>297.537048</ele><time>2021-08-12T10:49:07Z</time><extensions><speed>1.061468</speed><course>97.837166</course><hAcc>0.885836</hAcc><vAcc>0.721228</vAcc></extensions></trkpt>
      <trkpt lon="-3.344804" lat="54.544052"><ele>297.394989</ele><time>2021-08-12T10:49:08Z</time><extensions><speed>1.081494</speed><course>99.518051</course><hAcc>0.885813</hAcc><vAcc>0.721103</vAcc></extensions></trkpt>
      <trkpt lon="-3.344791" lat="54.544046"><ele>297.252808</ele><time>2021-08-12T10:49:09Z</time><extensions><speed>1.105471</speed><course>105.468117</course><hAcc>0.885790</hAcc><vAcc>0.720995</vAcc></extensions></trkpt>
      <trkpt lon="-3.344778" lat="54.544040"><ele>297.109985</ele><time>2021-08-12T10:49:10Z</time><extensions><speed>1.132178</speed><course>105.021729</course><hAcc>0.885770</hAcc><vAcc>0.720911</vAcc></extensions></trkpt>
      <trkpt lon="-3.344764" lat="54.544033"><ele>296.965851</ele><time>2021-08-12T10:49:11Z</time><extensions><speed>1.159784</speed><course>105.854553</course><hAcc>0.885753</hAcc><vAcc>0.720853</vAcc></extensions></trkpt>
      <trkpt lon="-3.344750" lat="54.544027"><ele>296.819672</ele><time>2021-08-12T10:49:12Z</time><extensions><speed>1.186857</speed><course>116.038353</course><hAcc>0.885740</hAcc><vAcc>0.720823</vAcc></extensions></trkpt>
      <trkpt lon="-3.344735" lat="54.544020"><ele>296.670715</ele><time>2021-08-12T10:49:13Z</time><extensions><speed>1.212723</speed><course>116.622620</course><hAcc>0.885731</hAcc><vAcc>0.720816</vAcc></extensions></trkpt>
      <trkpt lon="-3.344720" lat="54.544013"><ele>296.518616</ele><time>2021-08-12T10:49:14Z</time><extensions><speed>1.236968</speed><course>116.023415</course><hAcc>0.885727</hAcc><vAcc>0.720829</vAcc></extensions></trkpt>
      <trkpt lon="-3.344706" lat="54.544006"><ele>296.363281</ele><time>2021-08-12T10:49:15Z</time><extensions><speed>1.258529</speed><course>111.053482</course><hAcc>0.885727</hAcc><vAcc>0.720854</vAcc></extensions></trkpt>
      <trkpt lon="-3.344691" lat="54.543999"><ele>296.205017</ele><time>2021-08-12T10:49:16Z</time><extensions><speed>1.276672</speed><course>109.683617</course><hAcc>0.885732</hAcc><vAcc>0.720886</vAcc></extensions></trkpt>
      <trkpt lon="-3.344676" lat="54.543991"><ele>296.044647</ele><time>2021-08-12T10:49:17Z</time><extensions><speed>1.291876</speed><course>107.838440</course><hAcc>0.885742</hAcc><vAcc>0.720922</vAcc></extensions></trkpt>
      <trkpt lon="-3.344661" lat="54.543983"><ele>295.883118</ele><time>2021-08-12T10:49:18Z</time><extensions><speed>1.304784</speed><course>110.196930</course><hAcc>0.885758</hAcc><vAcc>0.720963</vAcc></extensions></trkpt>
      <trkpt lon="-3.344646" lat="54.543975"><ele>295.721375</ele><time>2021-08-12T10:49:19Z</time><extensions><speed>1.316230</speed><course>111.548782</course><hAcc>0.885780</hAcc><vAcc>0.721013</vAcc></extensions></trkpt>
      <trkpt lon="-3.344632" lat="54.543967"><ele>295.560028</ele><time>2021-08-12T10:49:20Z</time><extensions><speed>1.327432</speed><course>110.420074</course><hAcc>0.885808</hAcc><vAcc>0.721078</vAcc></extensions></trkpt>
      <trkpt lon="-3.344618" lat="54.543958"><ele>295.399506</ele><time>2021-08-12T10:49:21Z</time><extensions><speed>1.339198</speed><course>99.619576</course><hAcc>0.885841</hAcc><vAcc>0.721167</vAcc></extensions></trkpt>
      <trkpt lon="-3.344603" lat="54.543949"><ele>295.239899</ele><time>2021-08-12T10:49:22Z</time><extensions><speed>1.351690</speed><course>107.102882</course><hAcc>0.885881</hAcc><vAcc>0.721288</vAcc></extensions></trkpt>
      <trkpt lon="-3.344589" lat="54.543940"><ele>295.081024</ele><time>2021-08-12T10:49:23Z</time><extensions><speed>1.364842</speed><course>98.831825</course><hAcc>0.885927</hAcc><vAcc>0.721444</vAcc></extensions></trkpt>
      <trkpt lon="-3.344576" lat="54.543931"><ele>294.922699</ele><time>2021-08-12T10:49:24Z</time><extensions><speed>1.378151</speed><course>99.864403</course><hAcc>0.885977</hAcc><vAcc>0.721638</vAcc></extensions></trkpt>
      <trkpt lon="-3.344562" lat="54.543921"><ele>294.764526</ele><time>2021-08-12T10:49:25Z</time><extensions><speed>1.390973</speed><course>99.165215</course><hAcc>0.886031</hAcc><vAcc>0.721867</vAcc></extensions></trkpt>
      <trkpt lon="-3.344547" lat="54.543912"><ele>294.606384</ele><time>2021-08-12T10:49:26Z</time><extensions><speed>1.402857</speed><course>106.876038</course><hAcc>0.886086</hAcc><vAcc>0.722121</vAcc></extensions></trkpt>
      <trkpt lon="-3.344533" lat="54.543902"><ele>294.448395</ele><time>2021-08-12T10:49:27Z</time><extensions><speed>1.412673</speed><course>100.224144</course><hAcc>0.886142</hAcc><vAcc>0.722389</vAcc></extensions></trkpt>
      <trkpt lon="-3.344518" lat="54.543893"><ele>294.290741</ele><time>2021-08-12T10:49:28Z</time><extensions><speed>1.418835</speed><course>97.870438</course><hAcc>0.886194</hAcc><vAcc>0.722654</vAcc></extensions></trkpt>
      <trkpt lon="-3.344503" lat="54.543884"><ele>294.133270</ele><time>2021-08-12T10:49:29Z</time><extensions><speed>1.420045</speed><course>109.047302</course><hAcc>0.886242</hAcc><vAcc>0.722895</vAcc></extensions></trkpt>
      <trkpt lon="-3.344488" lat="54.543875"><ele>293.975616</ele><time>2021-08-12T10:49:30Z</time><extensions><speed>1.415357</speed><course>111.386711</course><hAcc>0.886283</hAcc><vAcc>0.723095</vAcc></extensions></trkpt>
      <trkpt lon="-3.344472" lat="54.543866"><ele>293.817200</ele><time>2021-08-12T10:49:31Z</time><extensions><speed>1.404447</speed><course>110.131767</course><hAcc>0.886315</hAcc><vAcc>0.723244</vAcc></extensions></trkpt>
      <trkpt lon="-3.344456" lat="54.543857"><ele>293.656921</ele><time>2021-08-12T10:49:32Z</time><extensions><speed>1.387411</speed><course>109.748413</course><hAcc>0.886335</hAcc><vAcc>0.723334</vAcc></extensions></trkpt>
      <trkpt lon="-3.344440" lat="54.543849"><ele>293.493256</ele><time>2021-08-12T10:49:33Z</time><extensions><speed>1.364785</speed><course>116.453705</course><hAcc>0.886343</hAcc><vAcc>0.723362</vAcc></extensions></trkpt>
      <trkpt lon="-3.344425" lat="54.543841"><ele>293.324860</ele><time>2021-08-12T10:49:34Z</time><extensions><speed>1.337463</speed><course>111.019348</course><hAcc>0.886338</hAcc><vAcc>0.723329</vAcc></extensions></trkpt>
      <trkpt lon="-3.344409" lat="54.543834"><ele>293.150757</ele><time>2021-08-12T10:49:35Z</time><extensions><speed>1.306708</speed><course>106.996025</course><hAcc>0.886321</hAcc><vAcc>0.723238</vAcc></extensions></trkpt>
      <trkpt lon="-3.344393" lat="54.543827"><ele>292.970581</ele><time>2021-08-12T10:49:36Z</time><extensions><speed>1.274285</speed><course>104.594215</course><hAcc>0.886293</hAcc><vAcc>0.723095</vAcc></extensions></trkpt>
      <trkpt lon="-3.344377" lat="54.543820"><ele>292.784760</ele><time>2021-08-12T10:49:37Z</time><extensions><speed>1.242510</speed><course>101.351479</course><hAcc>0.886256</hAcc><vAcc>0.722908</vAcc></extensions></trkpt>
      <trkpt lon="-3.344362" lat="54.543813"><ele>292.594360</ele><time>2021-08-12T10:49:38Z</time><extensions><speed>1.214376</speed><course>105.952332</course><hAcc>0.886214</hAcc><vAcc>0.722691</vAcc></extensions></trkpt>
      <trkpt lon="-3.344347" lat="54.543807"><ele>292.400848</ele><time>2021-08-12T10:49:39Z</time><extensions><speed>1.192580</speed><course>113.138412</course><hAcc>0.886167</hAcc><vAcc>0.722460</vAcc></extensions></trkpt>
      <trkpt lon="-3.344332" lat="54.543801"><ele>292.205383</ele><time>2021-08-12T10:49:40Z</time><extensions><speed>1.177859</speed><course>112.944946</course><hAcc>0.886119</hAcc><vAcc>0.722230</vAcc></extensions></trkpt>
      <trkpt lon="-3.344317" lat="54.543795"><ele>292.008850</ele><time>2021-08-12T10:49:41Z</time><extensions><speed>1.169544</speed><course>108.292221</course><hAcc>0.886070</hAcc><vAcc>0.722015</vAcc></extensions></trkpt>
      <trkpt lon="-3.344302" lat="54.543789"><ele>291.811768</ele><time>2021-08-12T10:49:42Z</time><extensions><speed>1.167426</speed><course>108.436562</course><hAcc>0.886023</hAcc><vAcc>0.721824</vAcc></extensions></trkpt>
      <trkpt lon="-3.344287" lat="54.543783"><ele>291.614960</ele><time>2021-08-12T10:49:43Z</time><extensions><speed>1.170601</speed><course>102.445824</course><hAcc>0.885979</hAcc><vAcc>0.721662</vAcc></extensions></trkpt>
      <trkpt lon="-3.344272" lat="54.543778"><ele>291.419617</ele><time>2021-08-12T10:49:44Z</time><extensions><speed>1.176774</speed><course>99.628555</course><hAcc>0.885937</hAcc><vAcc>0.721528</vAcc></extensions></trkpt>
      <trkpt lon="-3.344256" lat="54.543772"><ele>291.227417</ele><time>2021-08-12T10:49:45Z</time><extensions><speed>1.183500</speed><course>103.656601</course><hAcc>0.885898</hAcc><vAcc>0.721417</vAcc></extensions></trkpt>
      <trkpt lon="-3.344241" lat="54.543766"><ele>291.039917</ele><time>2021-08-12T10:49:46Z</time><extensions><speed>1.188550</speed><course>97.309608</course><hAcc>0.885859</hAcc><vAcc>0.721318</vAcc></extensions></trkpt>
      <trkpt lon="-3.344225" lat="54.543761"><ele>290.858307</ele><time>2021-08-12T10:49:47Z</time><extensions><speed>1.190151</speed><course>95.308922</course><hAcc>0.885818</hAcc><vAcc>0.721221</vAcc></extensions></trkpt>
      <trkpt lon="-3.344210" lat="54.543755"><ele>290.683563</ele><time>2021-08-12T10:49:48Z</time><extensions><speed>1.186871</speed><course>105.665154</course><hAcc>0.885773</hAcc><vAcc>0.721113</vAcc></extensions></trkpt>
      <trkpt lon="-3.344194" lat="54.543749"><ele>290.516571</ele><time>2021-08-12T10:49:49Z</time><extensions><speed>1.177448</speed><course>120.238884</course><hAcc>0.885721</hAcc><vAcc>0.720983</vAcc></extensions></trkpt>
      <trkpt lon="-3.344179" lat="54.543744"><ele>290.357880</ele><time>2021-08-12T10:49:50Z</time><extensions><speed>1.161508</speed><course>108.474937</course><hAcc>0.885657</hAcc><vAcc>0.720817</vAcc></extensions></trkpt>
      <trkpt lon="-3.344164" lat="54.543738"><ele>290.207794</ele><time>2021-08-12T10:49:51Z</time><extensions><speed>1.139261</speed><course>104.059807</course><hAcc>0.885580</hAcc><vAcc>0.720601</vAcc></extensions></trkpt>
      <trkpt lon="-3.344149" lat="54.543733"><ele>290.066528</ele><time>2021-08-12T10:49:52Z</time><extensions><speed>1.111091</speed><course>102.572708</course><hAcc>0.885487</hAcc><vAcc>0.720318</vAcc></extensions></trkpt>
      <trkpt lon="-3.344134" lat="54.543728"><ele>289.934052</ele><time>2021-08-12T10:49:53Z</time><extensions><speed>1.077814</speed><course>107.161850</course><hAcc>0.885379</hAcc><vAcc>0.719950</vAcc></extensions></trkpt>
      <trkpt lon="-3.344120" lat="54.543724"><ele>289.810486</ele><time>2021-08-12T10:49:54Z</time><extensions><speed>1.040275</speed><course>105.046165</course><hAcc>0.885255</hAcc><vAcc>0.719488</vAcc></extensions></trkpt>
      <trkpt lon="-3.344106" lat="54.543719"><ele>289.695923</ele><time>2021-08-12T10:49:55Z</time><extensions><speed>0.999297</speed><course>107.406158</course><hAcc>0.885116</hAcc><vAcc>0.718937</vAcc></extensions></trkpt>
      <trkpt lon="-3.344092" lat="54.543716"><ele>289.590454</ele><time>2021-08-12T10:49:56Z</time><extensions><speed>0.955209</speed><course>115.429123</course><hAcc>0.884962</hAcc><vAcc>0.718310</vAcc></extensions></trkpt>
      <trkpt lon="-3.344079" lat="54.543712"><ele>289.493927</ele><time>2021-08-12T10:49:57Z</time><extensions><speed>0.907985</speed><course>116.147835</course><hAcc>0.884795</hAcc><vAcc>0.717629</vAcc></extensions></trkpt>
      <trkpt lon="-3.344066" lat="54.543709"><ele>289.406067</ele><time>2021-08-12T10:49:58Z</time><extensions><speed>0.857365</speed><course>117.699570</course><hAcc>0.884616</hAcc><vAcc>0.716913</vAcc></extensions></trkpt>
      <trkpt lon="-3.344054" lat="54.543707"><ele>289.326447</ele><time>2021-08-12T10:49:59Z</time><extensions><speed>0.803636</speed><course>118.218575</course><hAcc>0.884429</hAcc><vAcc>0.716182</vAcc></extensions></trkpt>
      <trkpt lon="-3.344043" lat="54.543705"><ele>289.254761</ele><time>2021-08-12T10:50:00Z</time><extensions><speed>0.748738</speed><course>118.864105</course><hAcc>0.884237</hAcc><vAcc>0.715452</vAcc></extensions></trkpt>
      <trkpt lon="-3.344032" lat="54.543703"><ele>289.190277</ele><time>2021-08-12T10:50:01Z</time><extensions><speed>0.696093</speed><course>117.180046</course><hAcc>0.884044</hAcc><vAcc>0.714733</vAcc></extensions></trkpt>
      <trkpt lon="-3.344022" lat="54.543702"><ele>289.131897</ele><time>2021-08-12T10:50:02Z</time><extensions><speed>0.650376</speed><course>115.856689</course><hAcc>0.883856</hAcc><vAcc>0.714032</vAcc></extensions></trkpt>
      <trkpt lon="-3.344012" lat="54.543701"><ele>289.078033</ele><time>2021-08-12T10:50:03Z</time><extensions><speed>0.616826</speed><course>112.617844</course><hAcc>0.883678</hAcc><vAcc>0.713353</vAcc></extensions></trkpt>
      <trkpt lon="-3.344003" lat="54.543700"><ele>289.027161</ele><time>2021-08-12T10:50:04Z</time><extensions><speed>0.599440</speed><course>120.157761</course><hAcc>0.883513</hAcc><vAcc>0.712704</vAcc></extensions></trkpt>
      <trkpt lon="-3.343994" lat="54.543700"><ele>288.977692</ele><time>2021-08-12T10:50:05Z</time><extensions><speed>0.599778</speed><course>116.743965</course><hAcc>0.883368</hAcc><vAcc>0.712103</vAcc></extensions></trkpt>
      <trkpt lon="-3.343984" lat="54.543699"><ele>288.927979</ele><time>2021-08-12T10:50:06Z</time><extensions><speed>0.617213</speed><course>126.528450</course><hAcc>0.883246</hAcc><vAcc>0.711575</vAcc></extensions></trkpt>
      <trkpt lon="-3.343974" lat="54.543699"><ele>288.876160</ele><time>2021-08-12T10:50:07Z</time><extensions><speed>0.649307</speed><course>122.809067</course><hAcc>0.883149</hAcc><vAcc>0.711150</vAcc></extensions></trkpt>
      <trkpt lon="-3.343964" lat="54.543699"><ele>288.820526</ele><time>2021-08-12T10:50:08Z</time><extensions><speed>0.692008</speed><course>118.437454</course><hAcc>0.883079</hAcc><vAcc>0.710855</vAcc></extensions></trkpt>
      <trkpt lon="-3.343953" lat="54.543699"><ele>288.759796</ele><time>2021-08-12T10:50:09Z</time><extensions><speed>0.740116</speed><course>113.862648</course><hAcc>0.883039</hAcc><vAcc>0.710703</vAcc></extensions></trkpt>
      <trkpt lon="-3.343941" lat="54.543698"><ele>288.693085</ele><time>2021-08-12T10:50:10Z</time><extensions><speed>0.789000</speed><course>110.315605</course><hAcc>0.883026</hAcc><vAcc>0.710693</vAcc></extensions></trkpt>
      <trkpt lon="-3.343929" lat="54.543698"><ele>288.619904</ele><time>2021-08-12T10:50:11Z</time><extensions><speed>0.835381</speed><course>111.526596</course><hAcc>0.883041</hAcc><vAcc>0.710809</vAcc></extensions></trkpt>
      <trkpt lon="-3.343915" lat="54.543698"><ele>288.540039</ele><time>2021-08-12T10:50:12Z</time><extensions><speed>0.877084</speed><course>111.825790</course><hAcc>0.883080</hAcc><vAcc>0.711028</vAcc></extensions></trkpt>
      <trkpt lon="-3.343902" lat="54.543698"><ele>288.453247</ele><time>2021-08-12T10:50:13Z</time><extensions><speed>0.912518</speed><course>110.069481</course><hAcc>0.883140</hAcc><vAcc>0.711322</vAcc></extensions></trkpt>
      <trkpt lon="-3.343887" lat="54.543698"><ele>288.359314</ele><time>2021-08-12T10:50:14Z</time><extensions><speed>0.940499</speed><course>114.632622</course><hAcc>0.883216</hAcc><vAcc>0.711672</vAcc></extensions></trkpt>
      <trkpt lon="-3.343873" lat="54.543697"><ele>288.258026</ele><time>2021-08-12T10:50:15Z</time><extensions><speed>0.960927</speed><course>103.253258</course><hAcc>0.883302</hAcc><vAcc>0.712055</vAcc></extensions></trkpt>
      <trkpt lon="-3.343858" lat="54.543697"><ele>288.149353</ele><time>2021-08-12T10:50:16Z</time><extensions><speed>0.974362</speed><course>106.301743</course><hAcc>0.883395</hAcc><vAcc>0.712452</vAcc></extensions></trkpt>
      <trkpt lon="-3.343843" lat="54.543697"><ele>288.033325</ele><time>2021-08-12T10:50:17Z</time><extensions><speed>0.981887</speed><course>102.376541</course><hAcc>0.883488</hAcc><vAcc>0.712841</vAcc></extensions></trkpt>
      <trkpt lon="-3.343827" lat="54.543697"><ele>287.910217</ele><time>2021-08-12T10:50:18Z</time><extensions><speed>0.985030</speed><course>106.795837</course><hAcc>0.883580</hAcc><vAcc>0.713200</vAcc></extensions></trkpt>
      <trkpt lon="-3.343812" lat="54.543696"><ele>287.780701</ele><time>2021-08-12T10:50:19Z</time><extensions><speed>0.985413</speed><course>105.416672</course><hAcc>0.883665</hAcc><vAcc>0.713518</vAcc></extensions></trkpt>
      <trkpt lon="-3.343797" lat="54.543696"><ele>287.645844</ele><time>2021-08-12T10:50:20Z</time><extensions><speed>0.984871</speed><course>115.994911</course><hAcc>0.883741</hAcc><vAcc>0.713787</vAcc></extensions></trkpt>
      <trkpt lon="-3.343782" lat="54.543695"><ele>287.506683</ele><time>2021-08-12T10:50:21Z</time><extensions><speed>0.984897</speed><course>121.956070</course><hAcc>0.883807</hAcc><vAcc>0.714009</vAcc></extensions></trkpt>
      <trkpt lon="-3.343767" lat="54.543695"><ele>287.364258</ele><time>2021-08-12T10:50:22Z</time><extensions><speed>0.985918</speed><course>114.918808</course><hAcc>0.883859</hAcc><vAcc>0.714188</vAcc></extensions></trkpt>
      <trkpt lon="-3.343751" lat="54.543694"><ele>287.219513</ele><time>2021-08-12T10:50:23Z</time><extensions><speed>0.986778</speed><course>112.952827</course><hAcc>0.883897</hAcc><vAcc>0.714328</vAcc></extensions></trkpt>
      <trkpt lon="-3.343736" lat="54.543693"><ele>287.073212</ele><time>2021-08-12T10:50:24Z</time><extensions><speed>0.984871</speed><course>108.521141</course><hAcc>0.883920</hAcc><vAcc>0.714432</vAcc></extensions></trkpt>
      <trkpt lon="-3.343721" lat="54.543692"><ele>286.926086</ele><time>2021-08-12T10:50:25Z</time><extensions><speed>0.977458</speed><course>105.023331</course><hAcc>0.883927</hAcc><vAcc>0.714499</vAcc></extensions></trkpt>
      <trkpt lon="-3.343706" lat="54.543691"><ele>286.778931</ele><time>2021-08-12T10:50:26Z</time><extensions><speed>0.962450</speed><course>98.270523</course><hAcc>0.883921</hAcc><vAcc>0.714520</vAcc></extensions></trkpt>
      <trkpt lon="-3.343692" lat="54.543690"><ele>286.632538</ele><time>2021-08-12T10:50:27Z</time><extensions><speed>0.938266</speed><course>104.555389</course><hAcc>0.883904</hAcc><vAcc>0.714486</vAcc></extensions></trkpt>
      <trkpt lon="-3.343678" lat="54.543688"><ele>286.487854</ele><time>2021-08-12T10:50:28Z</time><extensions><speed>0.904096</speed><course>108.798698</course><hAcc>0.883879</hAcc><vAcc>0.714394</vAcc></extensions></trkpt>
      <trkpt lon="-3.343664" lat="54.543687"><ele>286.345917</ele><time>2021-08-12T10:50:29Z</time><extensions><speed>0.860139</speed><course>107.953148</course><hAcc>0.883853</hAcc><vAcc>0.714247</vAcc></extensions></trkpt>
      <trkpt lon="-3.343652" lat="54.543685"><ele>286.207916</ele><time>2021-08-12T10:50:30Z</time><extensions><speed>0.807018</speed><course>107.561462</course><hAcc>0.883832</hAcc><vAcc>0.714063</vAcc></extensions></trkpt>
      <trkpt lon="-3.343640" lat="54.543684"><ele>286.074890</ele><time>2021-08-12T10:50:31Z</time><extensions><speed>0.745466</speed><course>98.600151</course><hAcc>0.883822</hAcc><vAcc>0.713872</vAcc></extensions></trkpt>
      <trkpt lon="-3.343629" lat="54.543682"><ele>285.947754</ele><time>2021-08-12T10:50:32Z</time><extensions><speed>0.676775</speed><course>106.179245</course><hAcc>0.883831</hAcc><vAcc>0.713723</vAcc></extensions></trkpt>
      <trkpt lon="-3.343620" lat="54.543681"><ele>285.827057</ele><time>2021-08-12T10:50:33Z</time><extensions><speed>0.603070</speed><course>99.736237</course><hAcc>0.883865</hAcc><vAcc>0.713670</vAcc></extensions></trkpt>
      <trkpt lon="-3.343612" lat="54.543679"><ele>285.713135</ele><time>2021-08-12T10:50:34Z</time><extensions><speed>0.527360</speed><course>102.027924</course><hAcc>0.883927</hAcc><vAcc>0.713769</vAcc></extensions></trkpt>
      <trkpt lon="-3.343604" lat="54.543678"><ele>285.606110</ele><time>2021-08-12T10:50:35Z</time><extensions><speed>0.453837</speed><course>94.072990</course><hAcc>0.884020</hAcc><vAcc>0.714065</vAcc></extensions></trkpt>
      <trkpt lon="-3.343598" lat="54.543676"><ele>285.505768</ele><time>2021-08-12T10:50:36Z</time><extensions><speed>0.387632</speed><course>96.463219</course><hAcc>0.884144</hAcc><vAcc>0.714578</vAcc></extensions></trkpt>
      <trkpt lon="-3.343593" lat="54.543675"><ele>285.411499</ele><time>2021-08-12T10:50:37Z</time><extensions><speed>0.333980</speed><course>96.928070</course><hAcc>0.884296</hAcc><vAcc>0.715290</vAcc></extensions></trkpt>
      <trkpt lon="-3.343589" lat="54.543674"><ele>285.322479</ele><time>2021-08-12T10:50:38Z</time><extensions><speed>0.296867</speed><course>85.766655</course><hAcc>0.884472</hAcc><vAcc>0.716153</vAcc></extensions></trkpt>
      <trkpt lon="-3.343585" lat="54.543672"><ele>285.237549</ele><time>2021-08-12T10:50:39Z</time><extensions><speed>0.277843</speed><course>93.944389</course><hAcc>0.884664</hAcc><vAcc>0.717098</vAcc></extensions></trkpt>
      <trkpt lon="-3.343581" lat="54.543671"><ele>285.155396</ele><time>2021-08-12T10:50:40Z</time><extensions><speed>0.276686</speed><course>96.280258</course><hAcc>0.884863</hAcc><vAcc>0.718052</vAcc></extensions></trkpt>
      <trkpt lon="-3.343578" lat="54.543670"><ele>285.074310</ele><time>2021-08-12T10:50:41Z</time><extensions><speed>0.292848</speed><course>103.229439</course><hAcc>0.885061</hAcc><vAcc>0.718950</vAcc></extensions></trkpt>
      <trkpt lon="-3.343573" lat="54.543669"><ele>284.992493</ele><time>2021-08-12T10:50:42Z</time><extensions><speed>0.325728</speed><course>100.069313</course><hAcc>0.885248</hAcc><vAcc>0.719738</vAcc></extensions></trkpt>
      <trkpt lon="-3.343569" lat="54.543667"><ele>284.908264</ele><time>2021-08-12T10:50:43Z</time><extensions><speed>0.373963</speed><course>107.704430</course><hAcc>0.885416</hAcc><vAcc>0.720382</vAcc></extensions></trkpt>
      <trkpt lon="-3.343563" lat="54.543666"><ele>284.820190</ele><time>2021-08-12T10:50:44Z</time><extensions><speed>0.434770</speed><course>102.019516</course><hAcc>0.885556</hAcc><vAcc>0.720866</vAcc></extensions></trkpt>
      <trkpt lon="-3.343556" lat="54.543664"><ele>284.727264</ele><time>2021-08-12T10:50:45Z</time><extensions><speed>0.504011</speed><course>101.188896</course><hAcc>0.885664</hAcc><vAcc>0.721189</vAcc></extensions></trkpt>
      <trkpt lon="-3.343548" lat="54.543662"><ele>284.628937</ele><time>2021-08-12T10:50:46Z</time><extensions><speed>0.576664</speed><course>101.655106</course><hAcc>0.885738</hAcc><vAcc>0.721361</vAcc></extensions></trkpt>
      <trkpt lon="-3.343539" lat="54.543661"><ele>284.525299</ele><time>2021-08-12T10:50:47Z</time><extensions><speed>0.647374</speed><course>97.512695</course><hAcc>0.885776</hAcc><vAcc>0.721398</vAcc></extensions></trkpt>
      <trkpt lon="-3.343529" lat="54.543659"><ele>284.416748</ele><time>2021-08-12T10:50:48Z</time><extensions><speed>0.711712</speed><course>96.923676</course><hAcc>0.885782</hAcc><vAcc>0.721319</vAcc></extensions></trkpt>
      <trkpt lon="-3.343518" lat="54.543657"><ele>284.304230</ele><time>2021-08-12T10:50:49Z</time><extensions><speed>0.766764</speed><course>96.356850</course><hAcc>0.885760</hAcc><vAcc>0.721145</vAcc></extensions></trkpt>
      <trkpt lon="-3.343507" lat="54.543655"><ele>284.189178</ele><time>2021-08-12T10:50:50Z</time><extensions><speed>0.810193</speed><course>95.959724</course><hAcc>0.885717</hAcc><vAcc>0.720899</vAcc></extensions></trkpt>
      <trkpt lon="-3.343495" lat="54.543653"><ele>284.073364</ele><time>2021-08-12T10:50:51Z</time><extensions><speed>0.839960</speed><course>95.959717</course><hAcc>0.885659</hAcc><vAcc>0.720605</vAcc></extensions></trkpt>
      <trkpt lon="-3.343482" lat="54.543651"><ele>283.958588</ele><time>2021-08-12T10:50:52Z</time><extensions><speed>0.854625</speed><course>97.361824</course><hAcc>0.885598</hAcc><vAcc>0.720292</vAcc></extensions></trkpt>
      <trkpt lon="-3.343469" lat="54.543648"><ele>283.846710</ele><time>2021-08-12T10:50:53Z</time><extensions><speed>0.853181</speed><course>97.361824</course><hAcc>0.885545</hAcc><vAcc>0.719990</vAcc></extensions></trkpt>
      <trkpt lon="-3.343457" lat="54.543646"><ele>283.739838</ele><time>2021-08-12T10:50:54Z</time><extensions><speed>0.835332</speed><course>97.361809</course><hAcc>0.885516</hAcc><vAcc>0.719732</vAcc></extensions></trkpt>
      <trkpt lon="-3.343445" lat="54.543644"><ele>283.640259</ele><time>2021-08-12T10:50:55Z</time><extensions><speed>0.801560</speed><course>97.361801</course><hAcc>0.885529</hAcc><vAcc>0.719553</vAcc></extensions></trkpt>
      <trkpt lon="-3.343433" lat="54.543642"><ele>283.550079</ele><time>2021-08-12T10:50:56Z</time><extensions><speed>0.752867</speed><course>42.884136</course><hAcc>0.885607</hAcc><vAcc>0.719495</vAcc></extensions></trkpt>
      <trkpt lon="-3.343423" lat="54.543640"><ele>283.470856</ele><time>2021-08-12T10:50:57Z</time><extensions><speed>0.691180</speed><course>35.984764</course><hAcc>0.885779</hAcc><vAcc>0.719599</vAcc></extensions></trkpt>
      <trkpt lon="-3.343413" lat="54.543638"><ele>283.403503</ele><time>2021-08-12T10:50:58Z</time><extensions><speed>0.619768</speed><course>65.852417</course><hAcc>0.886079</hAcc><vAcc>0.719913</vAcc></extensions></trkpt>
      <trkpt lon="-3.343405" lat="54.543636"><ele>283.348114</ele><time>2021-08-12T10:50:59Z</time><extensions><speed>0.542615</speed><course>86.337746</course><hAcc>0.886544</hAcc><vAcc>0.720483</vAcc></extensions></trkpt>
      <trkpt lon="-3.343398" lat="54.543634"><ele>283.303864</ele><time>2021-08-12T10:51:00Z</time><extensions><speed>0.464716</speed><course>89.071770</course><hAcc>0.887215</hAcc><vAcc>0.721350</vAcc></extensions></trkpt>
      <trkpt lon="-3.343392" lat="54.543632"><ele>283.269012</ele><time>2021-08-12T10:51:01Z</time><extensions><speed>0.391640</speed><course>92.612312</course><hAcc>0.888132</hAcc><vAcc>0.722542</vAcc></extensions></trkpt>
      <trkpt lon="-3.343387" lat="54.543631"><ele>283.241180</ele><time>2021-08-12T10:51:02Z</time><extensions><speed>0.327720</speed><course>103.461632</course><hAcc>0.889329</hAcc><vAcc>0.724066</vAcc></extensions></trkpt>
      <trkpt lon="-3.343383" lat="54.543629"><ele>283.217651</ele><time>2021-08-12T10:51:03Z</time><extensions><speed>0.275681</speed><course>104.412865</course><hAcc>0.890829</hAcc><vAcc>0.725900</vAcc></extensions></trkpt>
      <trkpt lon="-3.343380" lat="54.543628"><ele>283.195282</ele><time>2021-08-12T10:51:04Z</time><extensions><speed>0.237627</speed><course>129.601685</course><hAcc>0.892628</hAcc><vAcc>0.727992</vAcc></extensions></trkpt>
      <trkpt lon="-3.343377" lat="54.543627"><ele>283.170898</ele><time>2021-08-12T10:51:05Z</time><extensions><speed>0.216098</speed><course>149.567169</course><hAcc>0.894690</hAcc><vAcc>0.730251</vAcc></extensions></trkpt>
      <trkpt lon="-3.343374" lat="54.543626"><ele>283.141235</ele><time>2021-08-12T10:51:06Z</time><extensions><speed>0.214431</speed><course>129.327728</course><hAcc>0.896932</hAcc><vAcc>0.732551</vAcc></extensions></trkpt>
      <trkpt lon="-3.343371" lat="54.543625"><ele>283.103180</ele><time>2021-08-12T10:51:07Z</time><extensions><speed>0.236797</speed><course>129.943619</course><hAcc>0.899224</hAcc><vAcc>0.734731</vAcc></extensions></trkpt>
      <trkpt lon="-3.343367" lat="54.543624"><ele>283.053680</ele><time>2021-08-12T10:51:08Z</time><extensions><speed>0.286484</speed><course>125.470825</course><hAcc>0.901387</hAcc><vAcc>0.736615</vAcc></extensions></trkpt>
      <trkpt lon="-3.343362" lat="54.543624"><ele>282.989899</ele><time>2021-08-12T10:51:09Z</time><extensions><speed>0.364409</speed><course>125.654007</course><hAcc>0.903221</hAcc><vAcc>0.738059</vAcc></extensions></trkpt>
      <trkpt lon="-3.343356" lat="54.543623"><ele>282.909241</ele><time>2021-08-12T10:51:10Z</time><extensions><speed>0.469670</speed><course>132.941208</course><hAcc>0.904553</hAcc><vAcc>0.739023</vAcc></extensions></trkpt>
      <trkpt lon="-3.343347" lat="54.543623"><ele>282.809387</ele><time>2021-08-12T10:51:11Z</time><extensions><speed>0.600341</speed><course>128.525970</course><hAcc>0.905340</hAcc><vAcc>0.739666</vAcc></extensions></trkpt>
      <trkpt lon="-3.343337" lat="54.543623"><ele>282.688416</ele><time>2021-08-12T10:51:12Z</time><extensions><speed>0.753512</speed><course>129.747040</course><hAcc>0.905837</hAcc><vAcc>0.740491</vAcc></extensions></trkpt>
      <trkpt lon="-3.343324" lat="54.543623"><ele>282.544952</ele><time>2021-08-12T10:51:13Z</time><extensions><speed>0.924891</speed><course>133.257645</course><hAcc>0.906848</hAcc><vAcc>0.742533</vAcc></extensions></trkpt>
      <trkpt lon="-3.343308" lat="54.543623"><ele>282.378448</ele><time>2021-08-12T10:51:14Z</time><extensions><speed>1.108305</speed><course>122.834160</course><hAcc>0.910085</hAcc><vAcc>0.747590</vAcc></extensions></trkpt>
      <trkpt lon="-3.343290" lat="54.543623"><ele>282.189148</ele><time>2021-08-12T10:51:15Z</time><extensions><speed>1.295173</speed><course>121.754723</course><hAcc>0.918604</hAcc><vAcc>0.758446</vAcc></extensions></trkpt>
      <trkpt lon="-3.343268" lat="54.543623"><ele>281.978638</ele><time>2021-08-12T10:51:16Z</time><extensions><speed>1.473993</speed><course>130.620087</course><hAcc>0.937209</hAcc><vAcc>0.778987</vAcc></extensions></trkpt>
      <trkpt lon="-3.343244" lat="54.543623"><ele>281.749817</ele><time>2021-08-12T10:51:17Z</time><extensions><speed>1.629821</speed><course>128.548019</course><hAcc>0.972583</hAcc><vAcc>0.814049</vAcc></extensions></trkpt>
      <trkpt lon="-3.343215" lat="54.543624"><ele>281.828339</ele><time>2021-08-12T10:51:18Z</time><extensions><speed>2.199475</speed><course>74.967865</course><hAcc>0.934724</hAcc><vAcc>0.778166</vAcc></extensions></trkpt>
      <trkpt lon="-3.343182" lat="54.543624"><ele>281.644592</ele><time>2021-08-12T10:51:19Z</time><extensions><speed>2.140764</speed><course>75.133301</course><hAcc>0.915226</hAcc><vAcc>0.755889</vAcc></extensions></trkpt>
      <trkpt lon="-3.343149" lat="54.543623"><ele>281.479523</ele><time>2021-08-12T10:51:20Z</time><extensions><speed>2.063293</speed><course>66.099251</course><hAcc>0.907021</hAcc><vAcc>0.744447</vAcc></extensions></trkpt>
      <trkpt lon="-3.343118" lat="54.543623"><ele>281.334015</ele><time>2021-08-12T10:51:21Z</time><extensions><speed>1.976368</speed><course>81.237114</course><hAcc>0.904634</hAcc><vAcc>0.739520</vAcc></extensions></trkpt>
      <trkpt lon="-3.343088" lat="54.543622"><ele>281.206512</ele><time>2021-08-12T10:51:22Z</time><extensions><speed>1.886750</speed><course>80.566093</course><hAcc>0.904581</hAcc><vAcc>0.737983</vAcc></extensions></trkpt>
      <trkpt lon="-3.343060" lat="54.543621"><ele>281.093994</ele><time>2021-08-12T10:51:23Z</time><extensions><speed>1.799679</speed><course>80.566109</course><hAcc>0.904927</hAcc><vAcc>0.737812</vAcc></extensions></trkpt>
      <trkpt lon="-3.343033" lat="54.543620"><ele>280.992828</ele><time>2021-08-12T10:51:24Z</time><extensions><speed>1.719211</speed><course>80.566093</course><hAcc>0.904778</hAcc><vAcc>0.737840</vAcc></extensions></trkpt>
      <trkpt lon="-3.343007" lat="54.543619"><ele>280.899506</ele><time>2021-08-12T10:51:25Z</time><extensions><speed>1.647927</speed><course>80.566093</course><hAcc>0.903871</hAcc><vAcc>0.737500</vAcc></extensions></trkpt>
      <trkpt lon="-3.342982" lat="54.543617"><ele>280.811005</ele><time>2021-08-12T10:51:26Z</time><extensions><speed>1.586954</speed><course>80.566093</course><hAcc>0.902279</hAcc><vAcc>0.736610</vAcc></extensions></trkpt>
      <trkpt lon="-3.342958" lat="54.543616"><ele>280.724854</ele><time>2021-08-12T10:51:27Z</time><extensions><speed>1.536691</speed><course>77.344681</course><hAcc>0.900220</hAcc><vAcc>0.735206</vAcc></extensions></trkpt>
      <trkpt lon="-3.342934" lat="54.543614"><ele>280.638977</ele><time>2021-08-12T10:51:28Z</time><extensions><speed>1.496752</speed><course>77.923714</course><hAcc>0.897941</hAcc><vAcc>0.733435</vAcc></extensions></trkpt>
      <trkpt lon="-3.342912" lat="54.543613"><ele>280.551819</ele><time>2021-08-12T10:51:29Z</time><extensions><speed>1.466275</speed><course>87.073212</course><hAcc>0.895658</hAcc><vAcc>0.731475</vAcc></extensions></trkpt>
      <trkpt lon="-3.342889" lat="54.543611"><ele>280.462067</ele><time>2021-08-12T10:51:30Z</time><extensions><speed>1.444314</speed><course>79.233902</course><hAcc>0.893530</hAcc><vAcc>0.729495</vAcc></extensions></trkpt>
      <trkpt lon="-3.342867" lat="54.543609"><ele>280.368652</ele><time>2021-08-12T10:51:31Z</time><extensions><speed>1.429471</speed><course>96.572746</course><hAcc>0.891657</hAcc><vAcc>0.727629</vAcc></extensions></trkpt>
      <trkpt lon="-3.342846" lat="54.543607"><ele>280.270416</ele><time>2021-08-12T10:51:32Z</time><extensions><speed>1.420271</speed><course>86.920219</course><hAcc>0.890086</hAcc><vAcc>0.725969</vAcc></extensions></trkpt>
      <trkpt lon="-3.342824" lat="54.543605"><ele>280.165649</ele><time>2021-08-12T10:51:33Z</time><extensions><speed>1.415463</speed><course>76.786201</course><hAcc>0.888821</hAcc><vAcc>0.724564</vAcc></extensions></trkpt>
      <trkpt lon="-3.342802" lat="54.543604"><ele>280.051849</ele><time>2021-08-12T10:51:34Z</time><extensions><speed>1.412847</speed><course>77.162971</course><hAcc>0.887841</hAcc><vAcc>0.723426</vAcc></extensions></trkpt>
      <trkpt lon="-3.342781" lat="54.543602"><ele>279.926178</ele><time>2021-08-12T10:51:35Z</time><extensions><speed>1.410743</speed><course>69.604996</course><hAcc>0.887107</hAcc><vAcc>0.722539</vAcc></extensions></trkpt>
      <trkpt lon="-3.342759" lat="54.543600"><ele>279.786530</ele><time>2021-08-12T10:51:36Z</time><extensions><speed>1.408508</speed><course>76.115456</course><hAcc>0.886576</hAcc><vAcc>0.721868</vAcc></extensions></trkpt>
      <trkpt lon="-3.342738" lat="54.543598"><ele>279.632507</ele><time>2021-08-12T10:51:37Z</time><extensions><speed>1.405137</speed><course>83.646278</course><hAcc>0.886202</hAcc><vAcc>0.721369</vAcc></extensions></trkpt>
      <trkpt lon="-3.342716" lat="54.543597"><ele>279.465027</ele><time>2021-08-12T10:51:38Z</time><extensions><speed>1.400078</speed><course>76.408623</course><hAcc>0.885945</hAcc><vAcc>0.720997</vAcc></extensions></trkpt>
      <trkpt lon="-3.342695" lat="54.543595"><ele>279.285858</ele><time>2021-08-12T10:51:39Z</time><extensions><speed>1.393267</speed><course>79.439453</course><hAcc>0.885770</hAcc><vAcc>0.720706</vAcc></extensions></trkpt>
      <trkpt lon="-3.342673" lat="54.543594"><ele>279.097046</ele><time>2021-08-12T10:51:40Z</time><extensions><speed>1.384867</speed><course>75.300941</course><hAcc>0.885650</hAcc><vAcc>0.720462</vAcc></extensions></trkpt>
      <trkpt lon="-3.342652" lat="54.543592"><ele>278.900604</ele><time>2021-08-12T10:51:41Z</time><extensions><speed>1.375219</speed><course>76.126534</course><hAcc>0.885565</hAcc><vAcc>0.720239</vAcc></extensions></trkpt>
      <trkpt lon="-3.342631" lat="54.543591"><ele>278.698639</ele><time>2021-08-12T10:51:42Z</time><extensions><speed>1.364670</speed><course>75.233688</course><hAcc>0.885499</hAcc><vAcc>0.720020</vAcc></extensions></trkpt>
      <trkpt lon="-3.342610" lat="54.543590"><ele>278.493256</ele><time>2021-08-12T10:51:43Z</time><extensions><speed>1.353754</speed><course>81.891060</course><hAcc>0.885443</hAcc><vAcc>0.719800</vAcc></extensions></trkpt>
      <trkpt lon="-3.342590" lat="54.543589"><ele>278.286438</ele><time>2021-08-12T10:51:44Z</time><extensions><speed>1.342710</speed><course>78.263519</course><hAcc>0.885391</hAcc><vAcc>0.719579</vAcc></extensions></trkpt>
      <trkpt lon="-3.342569" lat="54.543587"><ele>278.080200</ele><time>2021-08-12T10:51:45Z</time><extensions><speed>1.331919</speed><course>74.907532</course><hAcc>0.885343</hAcc><vAcc>0.719361</vAcc></extensions></trkpt>
      <trkpt lon="-3.342549" lat="54.543586"><ele>277.876617</ele><time>2021-08-12T10:51:46Z</time><extensions><speed>1.322450</speed><course>84.941742</course><hAcc>0.885297</hAcc><vAcc>0.719151</vAcc></extensions></trkpt>
      <trkpt lon="-3.342528" lat="54.543586"><ele>277.678070</ele><time>2021-08-12T10:51:47Z</time><extensions><speed>1.315345</speed><course>73.584358</course><hAcc>0.885255</hAcc><vAcc>0.718959</vAcc></extensions></trkpt>
      <trkpt lon="-3.342508" lat="54.543585"><ele>277.486603</ele><time>2021-08-12T10:51:48Z</time><extensions><speed>1.311755</speed><course>96.346313</course><hAcc>0.885219</hAcc><vAcc>0.718795</vAcc></extensions></trkpt>
      <trkpt lon="-3.342488" lat="54.543584"><ele>277.303864</ele><time>2021-08-12T10:51:49Z</time><extensions><speed>1.311936</speed><course>87.208282</course><hAcc>0.885191</hAcc><vAcc>0.718673</vAcc></extensions></trkpt>
      <trkpt lon="-3.342468" lat="54.543583"><ele>277.130585</ele><time>2021-08-12T10:51:50Z</time><extensions><speed>1.314525</speed><course>71.034035</course><hAcc>0.885172</hAcc><vAcc>0.718602</vAcc></extensions></trkpt>
      <trkpt lon="-3.342447" lat="54.543582"><ele>276.966370</ele><time>2021-08-12T10:51:51Z</time><extensions><speed>1.317681</speed><course>74.315559</course><hAcc>0.885164</hAcc><vAcc>0.718585</vAcc></extensions></trkpt>
      <trkpt lon="-3.342427" lat="54.543581"><ele>276.810211</ele><time>2021-08-12T10:51:52Z</time><extensions><speed>1.319697</speed><course>82.074326</course><hAcc>0.885168</hAcc><vAcc>0.718620</vAcc></extensions></trkpt>
      <trkpt lon="-3.342407" lat="54.543580"><ele>276.660614</ele><time>2021-08-12T10:51:53Z</time><extensions><speed>1.319325</speed><course>78.798851</course><hAcc>0.885184</hAcc><vAcc>0.718702</vAcc></extensions></trkpt>
      <trkpt lon="-3.342386" lat="54.543578"><ele>276.515656</ele><time>2021-08-12T10:51:54Z</time><extensions><speed>1.316165</speed><course>71.049065</course><hAcc>0.885211</hAcc><vAcc>0.718827</vAcc></extensions></trkpt>
      <trkpt lon="-3.342366" lat="54.543577"><ele>276.373169</ele><time>2021-08-12T10:51:55Z</time><extensions><speed>1.310342</speed><course>66.417450</course><hAcc>0.885248</hAcc><vAcc>0.718992</vAcc></extensions></trkpt>
      <trkpt lon="-3.342346" lat="54.543575"><ele>276.230988</ele><time>2021-08-12T10:51:56Z</time><extensions><speed>1.302144</speed><course>67.881187</course><hAcc>0.885292</hAcc><vAcc>0.719192</vAcc></extensions></trkpt>
      <trkpt lon="-3.342326" lat="54.543574"><ele>276.087402</ele><time>2021-08-12T10:51:57Z</time><extensions><speed>1.291065</speed><course>73.946594</course><hAcc>0.885343</hAcc><vAcc>0.719420</vAcc></extensions></trkpt>
      <trkpt lon="-3.342307" lat="54.543572"><ele>275.941193</ele><time>2021-08-12T10:51:58Z</time><extensions><speed>1.275637</speed><course>66.868568</course><hAcc>0.885396</hAcc><vAcc>0.719663</vAcc></extensions></trkpt>
      <trkpt lon="-3.342288" lat="54.543570"><ele>275.791565</ele><time>2021-08-12T10:51:59Z</time><extensions><speed>1.254509</speed><course>57.370388</course><hAcc>0.885452</hAcc><vAcc>0.719908</vAcc></extensions></trkpt>
      <trkpt lon="-3.342269" lat="54.543568"><ele>275.637939</ele><time>2021-08-12T10:52:00Z</time><extensions><speed>1.227156</speed><course>72.859169</course><hAcc>0.885507</hAcc><vAcc>0.720141</vAcc></extensions></trkpt>
      <trkpt lon="-3.342250" lat="54.543567"><ele>275.479645</ele><time>2021-08-12T10:52:01Z</time><extensions><speed>1.193495</speed><course>73.476959</course><hAcc>0.885561</hAcc><vAcc>0.720354</vAcc></extensions></trkpt>
      <trkpt lon="-3.342232" lat="54.543565"><ele>275.316467</ele><time>2021-08-12T10:52:02Z</time><extensions><speed>1.154708</speed><course>70.985191</course><hAcc>0.885612</hAcc><vAcc>0.720540</vAcc></extensions></trkpt>
      <trkpt lon="-3.342215" lat="54.543563"><ele>275.148712</ele><time>2021-08-12T10:52:03Z</time><extensions><speed>1.113703</speed><course>67.094063</course><hAcc>0.885658</hAcc><vAcc>0.720698</vAcc></extensions></trkpt>
      <trkpt lon="-3.342198" lat="54.543562"><ele>274.977081</ele><time>2021-08-12T10:52:04Z</time><extensions><speed>1.073745</speed><course>63.802017</course><hAcc>0.885698</hAcc><vAcc>0.720832</vAcc></extensions></trkpt>
      <trkpt lon="-3.342182" lat="54.543560"><ele>274.802734</ele><time>2021-08-12T10:52:05Z</time><extensions><speed>1.037565</speed><course>59.738853</course><hAcc>0.885731</hAcc><vAcc>0.720944</vAcc></extensions></trkpt>
      <trkpt lon="-3.342167" lat="54.543559"><ele>274.627045</ele><time>2021-08-12T10:52:06Z</time><extensions><speed>1.006818</speed><course>64.752533</course><hAcc>0.885758</hAcc><vAcc>0.721035</vAcc></extensions></trkpt>
      <trkpt lon="-3.342151" lat="54.543558"><ele>274.451263</ele><time>2021-08-12T10:52:07Z</time><extensions><speed>0.982339</speed><course>62.678837</course><hAcc>0.885778</hAcc><vAcc>0.721107</vAcc></extensions></trkpt>
      <trkpt lon="-3.342136" lat="54.543557"><ele>274.276611</ele><time>2021-08-12T10:52:08Z</time><extensions><speed>0.964509</speed><course>67.622025</course><hAcc>0.885790</hAcc><vAcc>0.721157</vAcc></extensions></trkpt>
      <trkpt lon="-3.342121" lat="54.543557"><ele>274.104462</ele><time>2021-08-12T10:52:09Z</time><extensions><speed>0.953456</speed><course>76.998230</course><hAcc>0.885797</hAcc><vAcc>0.721186</vAcc></extensions></trkpt>
      <trkpt lon="-3.342107" lat="54.543557"><ele>273.936066</ele><time>2021-08-12T10:52:10Z</time><extensions><speed>0.948652</speed><course>71.279175</course><hAcc>0.885797</hAcc><vAcc>0.721193</vAcc></extensions></trkpt>
      <trkpt lon="-3.342092" lat="54.543557"><ele>273.772522</ele><time>2021-08-12T10:52:11Z</time><extensions><speed>0.948509</speed><course>66.215858</course><hAcc>0.885793</hAcc><vAcc>0.721178</vAcc></extensions></trkpt>
      <trkpt lon="-3.342077" lat="54.543557"><ele>273.614502</ele><time>2021-08-12T10:52:12Z</time><extensions><speed>0.950445</speed><course>65.869171</course><hAcc>0.885784</hAcc><vAcc>0.721144</vAcc></extensions></trkpt>
      <trkpt lon="-3.342063" lat="54.543558"><ele>273.462433</ele><time>2021-08-12T10:52:13Z</time><extensions><speed>0.951112</speed><course>67.480362</course><hAcc>0.885772</hAcc><vAcc>0.721091</vAcc></extensions></trkpt>
      <trkpt lon="-3.342048" lat="54.543558"><ele>273.316467</ele><time>2021-08-12T10:52:14Z</time><extensions><speed>0.948209</speed><course>62.467888</course><hAcc>0.885758</hAcc><vAcc>0.721022</vAcc></extensions></trkpt>
      <trkpt lon="-3.342034" lat="54.543560"><ele>273.176666</ele><time>2021-08-12T10:52:15Z</time><extensions><speed>0.940371</speed><course>57.403885</course><hAcc>0.885745</hAcc><vAcc>0.720942</vAcc></extensions></trkpt>
      <trkpt lon="-3.342020" lat="54.543561"><ele>273.043579</ele><time>2021-08-12T10:52:16Z</time><extensions><speed>0.926653</speed><course>56.104736</course><hAcc>0.885734</hAcc><vAcc>0.720860</vAcc></extensions></trkpt>
      <trkpt lon="-3.342006" lat="54.543563"><ele>272.918030</ele><time>2021-08-12T10:52:17Z</time><extensions><speed>0.907577</speed><course>57.135769</course><hAcc>0.885726</hAcc><vAcc>0.720786</vAcc></extensions></trkpt>
      <trkpt lon="-3.341992" lat="54.543564"><ele>272.801086</ele><time>2021-08-12T10:52:18Z</time><extensions><speed>0.884402</speed><course>59.466648</course><hAcc>0.885723</hAcc><vAcc>0.720731</vAcc></extensions></trkpt>
      <trkpt lon="-3.341979" lat="54.543567"><ele>272.693817</ele><time>2021-08-12T10:52:19Z</time><extensions><speed>0.859155</speed><course>56.466339</course><hAcc>0.885726</hAcc><vAcc>0.720709</vAcc></extensions></trkpt>
      <trkpt lon="-3.341967" lat="54.543569"><ele>272.596741</ele><time>2021-08-12T10:52:20Z</time><extensions><speed>0.834844</speed><course>61.082169</course><hAcc>0.885736</hAcc><vAcc>0.720726</vAcc></extensions></trkpt>
      <trkpt lon="-3.341955" lat="54.543571"><ele>272.509613</ele><time>2021-08-12T10:52:21Z</time><extensions><speed>0.815259</speed><course>63.000797</course><hAcc>0.885751</hAcc><vAcc>0.720789</vAcc></extensions></trkpt>
      <trkpt lon="-3.341943" lat="54.543574"><ele>272.431030</ele><time>2021-08-12T10:52:22Z</time><extensions><speed>0.805092</speed><course>58.373146</course><hAcc>0.885771</hAcc><vAcc>0.720895</vAcc></extensions></trkpt>
      <trkpt lon="-3.341931" lat="54.543576"><ele>272.358490</ele><time>2021-08-12T10:52:23Z</time><extensions><speed>0.808232</speed><course>59.591164</course><hAcc>0.885796</hAcc><vAcc>0.721035</vAcc></extensions></trkpt>
      <trkpt lon="-3.341920" lat="54.543579"><ele>272.288788</ele><time>2021-08-12T10:52:24Z</time><extensions><speed>0.825842</speed><course>56.078835</course><hAcc>0.885823</hAcc><vAcc>0.721197</vAcc></extensions></trkpt>
      <trkpt lon="-3.341908" lat="54.543582"><ele>272.218597</ele><time>2021-08-12T10:52:25Z</time><extensions><speed>0.856605</speed><course>61.452141</course><hAcc>0.885852</hAcc><vAcc>0.721365</vAcc></extensions></trkpt>
      <trkpt lon="-3.341895" lat="54.543585"><ele>272.144867</ele><time>2021-08-12T10:52:26Z</time><extensions><speed>0.897262</speed><course>62.349373</course><hAcc>0.885881</hAcc><vAcc>0.721522</vAcc></extensions></trkpt>
      <trkpt lon="-3.341882" lat="54.543588"><ele>272.065002</ele><time>2021-08-12T10:52:27Z</time><extensions><speed>0.943503</speed><course>67.502327</course><hAcc>0.885906</hAcc><vAcc>0.721652</vAcc></extensions></trkpt>
      <trkpt lon="-3.341868" lat="54.543592"><ele>271.976746</ele><time>2021-08-12T10:52:28Z</time><extensions><speed>0.991550</speed><course>65.148994</course><hAcc>0.885927</hAcc><vAcc>0.721748</vAcc></extensions></trkpt>
      <trkpt lon="-3.341854" lat="54.543596"><ele>271.878510</ele><time>2021-08-12T10:52:29Z</time><extensions><speed>1.038332</speed><course>61.604351</course><hAcc>0.885942</hAcc><vAcc>0.721804</vAcc></extensions></trkpt>
      <trkpt lon="-3.341839" lat="54.543600"><ele>271.769714</ele><time>2021-08-12T10:52:30Z</time><extensions><speed>1.081096</speed><course>67.356651</course><hAcc>0.885948</hAcc><vAcc>0.721817</vAcc></extensions></trkpt>
      <trkpt lon="-3.341824" lat="54.543604"><ele>271.650635</ele><time>2021-08-12T10:52:31Z</time><extensions><speed>1.117879</speed><course>56.187717</course><hAcc>0.885945</hAcc><vAcc>0.721788</vAcc></extensions></trkpt>
      <trkpt lon="-3.341808" lat="54.543608"><ele>271.522095</ele><time>2021-08-12T10:52:32Z</time><extensions><speed>1.148450</speed><course>56.273357</course><hAcc>0.885932</hAcc><vAcc>0.721721</vAcc></extensions></trkpt>
      <trkpt lon="-3.341792" lat="54.543612"><ele>271.385101</ele><time>2021-08-12T10:52:33Z</time><extensions><speed>1.174012</speed><course>59.042984</course><hAcc>0.885909</hAcc><vAcc>0.721619</vAcc></extensions></trkpt>
      <trkpt lon="-3.341775" lat="54.543617"><ele>271.240417</ele><time>2021-08-12T10:52:34Z</time><extensions><speed>1.195762</speed><course>46.754299</course><hAcc>0.885875</hAcc><vAcc>0.721490</vAcc></extensions></trkpt>
      <trkpt lon="-3.341758" lat="54.543622"><ele>271.088684</ele><time>2021-08-12T10:52:35Z</time><extensions><speed>1.213735</speed><course>46.754295</course><hAcc>0.885831</hAcc><vAcc>0.721336</vAcc></extensions></trkpt>
      <trkpt lon="-3.341742" lat="54.543627"><ele>270.930969</ele><time>2021-08-12T10:52:36Z</time><extensions><speed>1.226846</speed><course>46.754295</course><hAcc>0.885778</hAcc><vAcc>0.721156</vAcc></extensions></trkpt>
      <trkpt lon="-3.341725" lat="54.543632"><ele>270.768646</ele><time>2021-08-12T10:52:37Z</time><extensions><speed>1.233641</speed><course>46.754295</course><hAcc>0.885717</hAcc><vAcc>0.720948</vAcc></extensions></trkpt>
      <trkpt lon="-3.341709" lat="54.543638"><ele>270.603363</ele><time>2021-08-12T10:52:38Z</time><extensions><speed>1.233037</speed><course>46.754295</course><hAcc>0.885651</hAcc><vAcc>0.720709</vAcc></extensions></trkpt>
      <trkpt lon="-3.341692" lat="54.543643"><ele>270.436951</ele><time>2021-08-12T10:52:39Z</time><extensions><speed>1.224425</speed><course>46.754295</course><hAcc>0.885582</hAcc><vAcc>0.720440</vAcc></extensions></trkpt>
      <trkpt lon="-3.341676" lat="54.543649"><ele>270.271393</ele><time>2021-08-12T10:52:40Z</time><extensions><speed>1.207254</speed><course>46.754295</course><hAcc>0.885514</hAcc><vAcc>0.720148</vAcc></extensions></trkpt>
      <trkpt lon="-3.341661" lat="54.543655"><ele>270.108490</ele><time>2021-08-12T10:52:41Z</time><extensions><speed>1.181224</speed><course>46.754292</course><hAcc>0.885448</hAcc><vAcc>0.719848</vAcc></extensions></trkpt>
      <trkpt lon="-3.341646" lat="54.543661"><ele>269.949768</ele><time>2021-08-12T10:52:42Z</time><extensions><speed>1.146900</speed><course>46.754295</course><hAcc>0.885389</hAcc><vAcc>0.719557</vAcc></extensions></trkpt>
      <trkpt lon="-3.341631" lat="54.543666"><ele>269.796387</ele><time>2021-08-12T10:52:43Z</time><extensions><speed>1.105431</speed><course>86.257805</course><hAcc>0.885339</hAcc><vAcc>0.719293</vAcc></extensions></trkpt>
      <trkpt lon="-3.341617" lat="54.543672"><ele>269.649017</ele><time>2021-08-12T10:52:44Z</time><extensions><speed>1.057883</speed><course>92.864906</course><hAcc>0.885302</hAcc><vAcc>0.719077</vAcc></extensions></trkpt>
      <trkpt lon="-3.341604" lat="54.543677"><ele>269.507751</ele><time>2021-08-12T10:52:45Z</time><extensions><speed>1.005472</speed><course>94.458534</course><hAcc>0.885279</hAcc><vAcc>0.718932</vAcc></extensions></trkpt>
      <trkpt lon="-3.341591" lat="54.543681"><ele>269.371979</ele><time>2021-08-12T10:52:46Z</time><extensions><speed>0.950092</speed><course>89.165138</course><hAcc>0.885270</hAcc><vAcc>0.718877</vAcc></extensions></trkpt>
      <trkpt lon="-3.341579" lat="54.543685"><ele>269.240967</ele><time>2021-08-12T10:52:47Z</time><extensions><speed>0.895216</speed><course>98.187202</course><hAcc>0.885277</hAcc><vAcc>0.718920</vAcc></extensions></trkpt>
      <trkpt lon="-3.341567" lat="54.543689"><ele>269.114136</ele><time>2021-08-12T10:52:48Z</time><extensions><speed>0.845826</speed><course>262.094696</course><hAcc>0.885298</hAcc><vAcc>0.719051</vAcc></extensions></trkpt>
      <trkpt lon="-3.341555" lat="54.543692"><ele>268.990967</ele><time>2021-08-12T10:52:49Z</time><extensions><speed>0.807873</speed><course>273.339569</course><hAcc>0.885332</hAcc><vAcc>0.719256</vAcc></extensions></trkpt>
      <trkpt lon="-3.341544" lat="54.543695"><ele>268.870392</ele><time>2021-08-12T10:52:50Z</time><extensions><speed>0.787191</speed><course>270.133057</course><hAcc>0.885378</hAcc><vAcc>0.719511</vAcc></extensions></trkpt>
      <trkpt lon="-3.341533" lat="54.543698"><ele>268.750732</ele><time>2021-08-12T10:52:51Z</time><extensions><speed>0.786810</speed><course>264.401459</course><hAcc>0.885432</hAcc><vAcc>0.719795</vAcc></extensions></trkpt>
      <trkpt lon="-3.341521" lat="54.543700"><ele>268.629822</ele><time>2021-08-12T10:52:52Z</time><extensions><speed>0.806242</speed><course>271.206299</course><hAcc>0.885490</hAcc><vAcc>0.720084</vAcc></extensions></trkpt>
      <trkpt lon="-3.341508" lat="54.543701"><ele>268.505646</ele><time>2021-08-12T10:52:53Z</time><extensions><speed>0.842111</speed><course>270.479279</course><hAcc>0.885551</hAcc><vAcc>0.720358</vAcc></extensions></trkpt>
      <trkpt lon="-3.341495" lat="54.543703"><ele>268.376556</ele><time>2021-08-12T10:52:54Z</time><extensions><speed>0.888979</speed><course>270.479279</course><hAcc>0.885611</hAcc><vAcc>0.720599</vAcc></extensions></trkpt>
      <trkpt lon="-3.341481" lat="54.543704"><ele>268.241333</ele><time>2021-08-12T10:52:55Z</time><extensions><speed>0.940681</speed><course>270.479279</course><hAcc>0.885669</hAcc><vAcc>0.720802</vAcc></extensions></trkpt>
      <trkpt lon="-3.341467" lat="54.543705"><ele>268.099121</ele><time>2021-08-12T10:52:56Z</time><extensions><speed>0.991838</speed><course>92.836548</course><hAcc>0.885721</hAcc><vAcc>0.720964</vAcc></extensions></trkpt>
      <trkpt lon="-3.341451" lat="54.543706"><ele>267.949310</ele><time>2021-08-12T10:52:57Z</time><extensions><speed>1.039363</speed><course>91.847809</course><hAcc>0.885768</hAcc><vAcc>0.721088</vAcc></extensions></trkpt>
      <trkpt lon="-3.341434" lat="54.543706"><ele>267.791809</ele><time>2021-08-12T10:52:58Z</time><extensions><speed>1.081761</speed><course>96.972961</course><hAcc>0.885808</hAcc><vAcc>0.721183</vAcc></extensions></trkpt>
      <trkpt lon="-3.341417" lat="54.543706"><ele>267.626862</ele><time>2021-08-12T10:52:59Z</time><extensions><speed>1.118418</speed><course>101.432434</course><hAcc>0.885843</hAcc><vAcc>0.721258</vAcc></extensions></trkpt>
      <trkpt lon="-3.341400" lat="54.543706"><ele>267.455139</ele><time>2021-08-12T10:53:00Z</time><extensions><speed>1.149201</speed><course>89.921867</course><hAcc>0.885872</hAcc><vAcc>0.721324</vAcc></extensions></trkpt>
      <trkpt lon="-3.341382" lat="54.543706"><ele>267.277313</ele><time>2021-08-12T10:53:01Z</time><extensions><speed>1.173649</speed><course>79.468422</course><hAcc>0.885897</hAcc><vAcc>0.721388</vAcc></extensions></trkpt>
      <trkpt lon="-3.341364" lat="54.543705"><ele>267.094055</ele><time>2021-08-12T10:53:02Z</time><extensions><speed>1.191787</speed><course>79.668663</course><hAcc>0.885919</hAcc><vAcc>0.721454</vAcc></extensions></trkpt>
      <trkpt lon="-3.341345" lat="54.543704"><ele>266.906219</ele><time>2021-08-12T10:53:03Z</time><extensions><speed>1.204274</speed><course>70.198914</course><hAcc>0.885940</hAcc><vAcc>0.721525</vAcc></extensions></trkpt>
      <trkpt lon="-3.341327" lat="54.543704"><ele>266.714508</ele><time>2021-08-12T10:53:04Z</time><extensions><speed>1.211807</speed><course>85.811096</course><hAcc>0.885964</hAcc><vAcc>0.721604</vAcc></extensions></trkpt>
      <trkpt lon="-3.341308" lat="54.543703"><ele>266.519684</ele><time>2021-08-12T10:53:05Z</time><extensions><speed>1.216398</speed><course>87.515213</course><hAcc>0.885992</hAcc><vAcc>0.721693</vAcc></extensions></trkpt>
      <trkpt lon="-3.341289" lat="54.543701"><ele>266.322601</ele><time>2021-08-12T10:53:06Z</time><extensions><speed>1.220833</speed><course>86.802406</course><hAcc>0.886030</hAcc><vAcc>0.721801</vAcc></extensions></trkpt>
      <trkpt lon="-3.341270" lat="54.543700"><ele>266.124329</ele><time>2021-08-12T10:53:07Z</time><extensions><speed>1.227328</speed><course>85.424927</course><hAcc>0.886082</hAcc><vAcc>0.721938</vAcc></extensions></trkpt>
      <trkpt lon="-3.341252" lat="54.543699"><ele>265.926056</ele><time>2021-08-12T10:53:08Z</time><extensions><speed>1.236939</speed><course>88.911957</course><hAcc>0.886159</hAcc><vAcc>0.722122</vAcc></extensions></trkpt>
      <trkpt lon="-3.341232" lat="54.543699"><ele>265.728790</ele><time>2021-08-12T10:53:09Z</time><extensions><speed>1.248692</speed><course>93.027184</course><hAcc>0.886273</hAcc><vAcc>0.722368</vAcc></extensions></trkpt>
      <trkpt lon="-3.341213" lat="54.543698"><ele>265.532776</ele><time>2021-08-12T10:53:10Z</time><extensions><speed>1.262048</speed><course>90.763535</course><hAcc>0.886441</hAcc><vAcc>0.722698</vAcc></extensions></trkpt>
      <trkpt lon="-3.341193" lat="54.543697"><ele>265.337708</ele><time>2021-08-12T10:53:11Z</time><extensions><speed>1.277309</speed><course>83.392509</course><hAcc>0.886686</hAcc><vAcc>0.723133</vAcc></extensions></trkpt>
      <trkpt lon="-3.341174" lat="54.543697"><ele>265.143433</ele><time>2021-08-12T10:53:12Z</time><extensions><speed>1.294080</speed><course>57.334152</course><hAcc>0.887037</hAcc><vAcc>0.723698</vAcc></extensions></trkpt>
      <trkpt lon="-3.341153" lat="54.543697"><ele>264.950134</ele><time>2021-08-12T10:53:13Z</time><extensions><speed>1.311388</speed><course>29.254333</course><hAcc>0.887527</hAcc><vAcc>0.724417</vAcc></extensions></trkpt>
      <trkpt lon="-3.341133" lat="54.543698"><ele>264.758026</ele><time>2021-08-12T10:53:14Z</time><extensions><speed>1.328148</speed><course>29.254333</course><hAcc>0.888194</hAcc><vAcc>0.725310</vAcc></extensions></trkpt>
      <trkpt lon="-3.341112" lat="54.543699"><ele>264.567261</ele><time>2021-08-12T10:53:15Z</time><extensions><speed>1.343675</speed><course>29.254333</course><hAcc>0.889078</hAcc><vAcc>0.726393</vAcc></extensions></trkpt>
      <trkpt lon="-3.341092" lat="54.543700"><ele>264.377686</ele><time>2021-08-12T10:53:16Z</time><extensions><speed>1.357623</speed><course>29.254332</course><hAcc>0.890211</hAcc><vAcc>0.727666</vAcc></extensions></trkpt>
      <trkpt lon="-3.341071" lat="54.543702"><ele>264.189331</ele><time>2021-08-12T10:53:17Z</time><extensions><speed>1.369692</speed><course>29.254333</course><hAcc>0.891616</hAcc><vAcc>0.729110</vAcc></extensions></trkpt>
      <trkpt lon="-3.341050" lat="54.543704"><ele>264.002045</ele><time>2021-08-12T10:53:18Z</time><extensions><speed>1.379135</speed><course>29.254332</course><hAcc>0.893293</hAcc><vAcc>0.730680</vAcc></extensions></trkpt>
      <trkpt lon="-3.341029" lat="54.543706"><ele>263.815857</ele><time>2021-08-12T10:53:19Z</time><extensions><speed>1.384978</speed><course>29.254332</course><hAcc>0.895210</hAcc><vAcc>0.732305</vAcc></extensions></trkpt>
      <trkpt lon="-3.341008" lat="54.543709"><ele>263.631134</ele><time>2021-08-12T10:53:20Z</time><extensions><speed>1.386014</speed><course>29.254333</course><hAcc>0.897290</hAcc><vAcc>0.733882</vAcc></extensions></trkpt>
      <trkpt lon="-3.340987" lat="54.543712"><ele>263.449036</ele><time>2021-08-12T10:53:21Z</time><extensions><speed>1.380800</speed><course>29.254333</course><hAcc>0.899408</hAcc><vAcc>0.735283</vAcc></extensions></trkpt>
      <trkpt lon="-3.340967" lat="54.543715"><ele>263.271393</ele><time>2021-08-12T10:53:22Z</time><extensions><speed>1.368100</speed><course>29.254332</course><hAcc>0.901389</hAcc><vAcc>0.736370</vAcc></extensions></trkpt>
      <trkpt lon="-3.340946" lat="54.543718"><ele>263.100098</ele><time>2021-08-12T10:53:23Z</time><extensions><speed>1.347349</speed><course>29.254333</course><hAcc>0.903038</hAcc><vAcc>0.737034</vAcc></extensions></trkpt>
      <trkpt lon="-3.340926" lat="54.543720"><ele>262.936340</ele><time>2021-08-12T10:53:24Z</time><extensions><speed>1.318760</speed><course>29.254337</course><hAcc>0.904186</hAcc><vAcc>0.737255</vAcc></extensions></trkpt>
      <trkpt lon="-3.340907" lat="54.543723"><ele>262.781097</ele><time>2021-08-12T10:53:25Z</time><extensions><speed>1.282769</speed><course>29.254337</course><hAcc>0.904794</hAcc><vAcc>0.737209</vAcc></extensions></trkpt>
      <trkpt lon="-3.340888" lat="54.543726"><ele>262.635254</ele><time>2021-08-12T10:53:26Z</time><extensions><speed>1.239786</speed><course>29.254339</course><hAcc>0.905114</hAcc><vAcc>0.737407</vAcc></extensions></trkpt>
      <trkpt lon="-3.340869" lat="54.543728"><ele>262.499420</ele><time>2021-08-12T10:53:27Z</time><extensions><speed>1.190606</speed><course>29.254337</course><hAcc>0.905950</hAcc><vAcc>0.738889</vAcc></extensions></trkpt>
      <trkpt lon="-3.340852" lat="54.543730"><ele>262.374023</ele><time>2021-08-12T10:53:28Z</time><extensions><speed>1.136410</speed><course>29.254339</course><hAcc>0.909016</hAcc><vAcc>0.743458</vAcc></extensions></trkpt>
      <trkpt lon="-3.340835" lat="54.543732"><ele>262.258698</ele><time>2021-08-12T10:53:29Z</time><extensions><speed>1.078703</speed><course>353.139893</course><hAcc>0.917367</hAcc><vAcc>0.753907</vAcc></extensions></trkpt>
      <trkpt lon="-3.340819" lat="54.543734"><ele>262.152313</ele><time>2021-08-12T10:53:30Z</time><extensions><speed>1.019808</speed><course>-1.000000</course><hAcc>0.935815</hAcc><vAcc>0.774130</vAcc></extensions></trkpt>
      <trkpt lon="-3.340804" lat="54.543735"><ele>262.053436</ele><time>2021-08-12T10:53:31Z</time><extensions><speed>0.963049</speed><course>-1.000000</course><hAcc>0.971056</hAcc><vAcc>0.808975</vAcc></extensions></trkpt>
      <trkpt lon="-3.340798" lat="54.543736"><ele>261.975647</ele><time>2021-08-12T10:53:32Z</time><extensions><speed>0.344584</speed><course>74.967865</course><hAcc>0.933105</hAcc><vAcc>0.773019</vAcc></extensions></trkpt>
      <trkpt lon="-3.340793" lat="54.543735"><ele>261.936401</ele><time>2021-08-12T10:53:33Z</time><extensions><speed>0.283973</speed><course>75.133301</course><hAcc>0.913985</hAcc><vAcc>0.751858</vAcc></extensions></trkpt>
      <trkpt lon="-3.340790" lat="54.543735"><ele>261.898254</ele><time>2021-08-12T10:53:34Z</time><extensions><speed>0.224222</speed><course>66.099251</course><hAcc>0.906131</hAcc><vAcc>0.741450</vAcc></extensions></trkpt>
      <trkpt lon="-3.340787" lat="54.543734"><ele>261.861328</ele><time>2021-08-12T10:53:35Z</time><extensions><speed>0.169770</speed><course>81.237114</course><hAcc>0.904056</hAcc><vAcc>0.737459</vAcc></extensions></trkpt>
      <trkpt lon="-3.340785" lat="54.543733"><ele>261.825928</ele><time>2021-08-12T10:53:36Z</time><extensions><speed>0.123909</speed><course>80.566093</course><hAcc>0.904277</hAcc><vAcc>0.736773</vAcc></extensions></trkpt>
      <trkpt lon="-3.340784" lat="54.543733"><ele>261.792297</ele><time>2021-08-12T10:53:37Z</time><extensions><speed>0.089988</speed><course>80.566109</course><hAcc>0.904864</hAcc><vAcc>0.737390</vAcc></extensions></trkpt>
      <trkpt lon="-3.340783" lat="54.543732"><ele>261.760834</ele><time>2021-08-12T10:53:38Z</time><extensions><speed>0.071477</speed><course>80.566093</course><hAcc>0.904932</hAcc><vAcc>0.738168</vAcc></extensions></trkpt>
      <trkpt lon="-3.340783" lat="54.543731"><ele>261.731842</ele><time>2021-08-12T10:53:39Z</time><extensions><speed>0.068392</speed><course>80.566093</course><hAcc>0.904222</hAcc><vAcc>0.738557</vAcc></extensions></trkpt>
      <trkpt lon="-3.340784" lat="54.543731"><ele>261.705688</ele><time>2021-08-12T10:53:40Z</time><extensions><speed>0.074059</speed><course>80.566093</course><hAcc>0.902813</hAcc><vAcc>0.738381</vAcc></extensions></trkpt>
      <trkpt lon="-3.340785" lat="54.543730"><ele>261.682709</ele><time>2021-08-12T10:53:41Z</time><extensions><speed>0.081045</speed><course>77.344681</course><hAcc>0.900922</hAcc><vAcc>0.737671</vAcc></extensions></trkpt>
      <trkpt lon="-3.340786" lat="54.543730"><ele>261.663116</ele><time>2021-08-12T10:53:42Z</time><extensions><speed>0.085205</speed><course>77.923714</course><hAcc>0.898798</hAcc><vAcc>0.736557</vAcc></extensions></trkpt>
      <trkpt lon="-3.340787" lat="54.543729"><ele>261.646942</ele><time>2021-08-12T10:53:43Z</time><extensions><speed>0.084860</speed><course>87.073212</course><hAcc>0.896654</hAcc><vAcc>0.735200</vAcc></extensions></trkpt>
      <trkpt lon="-3.340788" lat="54.543729"><ele>261.634125</ele><time>2021-08-12T10:53:44Z</time><extensions><speed>0.079900</speed><course>79.233902</course><hAcc>0.894649</hAcc><vAcc>0.733747</vAcc></extensions></trkpt>
      <trkpt lon="-3.340788" lat="54.543728"><ele>261.624512</ele><time>2021-08-12T10:53:45Z</time><extensions><speed>0.071449</speed><course>96.572746</course><hAcc>0.892881</hAcc><vAcc>0.732316</vAcc></extensions></trkpt>
      <trkpt lon="-3.340789" lat="54.543728"><ele>261.617676</ele><time>2021-08-12T10:53:46Z</time><extensions><speed>0.061585</speed><course>86.920219</course><hAcc>0.891394</hAcc><vAcc>0.730986</vAcc></extensions></trkpt>
      <trkpt lon="-3.340789" lat="54.543727"><ele>261.613159</ele><time>2021-08-12T10:53:47Z</time><extensions><speed>0.053831</speed><course>76.786201</course><hAcc>0.890193</hAcc><vAcc>0.729805</vAcc></extensions></trkpt>
      <trkpt lon="-3.340789" lat="54.543727"><ele>261.610565</ele><time>2021-08-12T10:53:48Z</time><extensions><speed>0.052916</speed><course>77.162971</course><hAcc>0.889258</hAcc><vAcc>0.728790</vAcc></extensions></trkpt>
      <trkpt lon="-3.340789" lat="54.543726"><ele>261.609344</ele><time>2021-08-12T10:53:49Z</time><extensions><speed>0.060570</speed><course>69.604996</course><hAcc>0.888551</hAcc><vAcc>0.727939</vAcc></extensions></trkpt>
      <trkpt lon="-3.340789" lat="54.543726"><ele>261.609009</ele><time>2021-08-12T10:53:50Z</time><extensions><speed>0.073205</speed><course>76.115456</course><hAcc>0.888032</hAcc><vAcc>0.727237</vAcc></extensions></trkpt>
      <trkpt lon="-3.340788" lat="54.543725"><ele>261.609039</ele><time>2021-08-12T10:53:51Z</time><extensions><speed>0.086098</speed><course>83.646278</course><hAcc>0.887661</hAcc><vAcc>0.726663</vAcc></extensions></trkpt>
      <trkpt lon="-3.340787" lat="54.543725"><ele>261.608887</ele><time>2021-08-12T10:53:52Z</time><extensions><speed>0.095990</speed><course>76.408623</course><hAcc>0.887403</hAcc><vAcc>0.726197</vAcc></extensions></trkpt>
      <trkpt lon="-3.340785" lat="54.543724"><ele>261.608032</ele><time>2021-08-12T10:53:53Z</time><extensions><speed>0.101326</speed><course>79.439453</course><hAcc>0.887231</hAcc><vAcc>0.725827</vAcc></extensions></trkpt>
      <trkpt lon="-3.340784" lat="54.543724"><ele>261.605896</ele><time>2021-08-12T10:53:54Z</time><extensions><speed>0.102606</speed><course>75.300941</course><hAcc>0.887127</hAcc><vAcc>0.725543</vAcc></extensions></trkpt>
      <trkpt lon="-3.340783" lat="54.543723"><ele>261.602203</ele><time>2021-08-12T10:53:55Z</time><extensions><speed>0.101472</speed><course>76.126534</course><hAcc>0.887083</hAcc><vAcc>0.725346</vAcc></extensions></trkpt>
      <trkpt lon="-3.340781" lat="54.543723"><ele>261.596802</ele><time>2021-08-12T10:53:56Z</time><extensions><speed>0.099230</speed><course>75.233688</course><hAcc>0.887099</hAcc><vAcc>0.725244</vAcc></extensions></trkpt>
      <trkpt lon="-3.340780" lat="54.543722"><ele>261.589569</ele><time>2021-08-12T10:53:57Z</time><extensions><speed>0.096877</speed><course>81.891060</course><hAcc>0.887187</hAcc><vAcc>0.725253</vAcc></extensions></trkpt>
      <trkpt lon="-3.340779" lat="54.543722"><ele>261.580383</ele><time>2021-08-12T10:53:58Z</time><extensions><speed>0.094945</speed><course>78.263519</course><hAcc>0.887366</hAcc><vAcc>0.725401</vAcc></extensions></trkpt>
      <trkpt lon="-3.340778" lat="54.543721"><ele>261.569244</ele><time>2021-08-12T10:53:59Z</time><extensions><speed>0.093346</speed><course>74.907532</course><hAcc>0.887663</hAcc><vAcc>0.725716</vAcc></extensions></trkpt>
      <trkpt lon="-3.340777" lat="54.543721"><ele>261.556183</ele><time>2021-08-12T10:54:00Z</time><extensions><speed>0.091537</speed><course>84.941742</course><hAcc>0.888111</hAcc><vAcc>0.726234</vAcc></extensions></trkpt>
      <trkpt lon="-3.340775" lat="54.543720"><ele>261.541412</ele><time>2021-08-12T10:54:01Z</time><extensions><speed>0.089082</speed><course>73.584358</course><hAcc>0.888750</hAcc><vAcc>0.726983</vAcc></extensions></trkpt>
      <trkpt lon="-3.340774" lat="54.543720"><ele>261.525238</ele><time>2021-08-12T10:54:02Z</time><extensions><speed>0.086295</speed><course>96.346313</course><hAcc>0.889618</hAcc><vAcc>0.727986</vAcc></extensions></trkpt>
      <trkpt lon="-3.340773" lat="54.543719"><ele>261.507721</ele><time>2021-08-12T10:54:03Z</time><extensions><speed>0.083970</speed><course>87.208282</course><hAcc>0.890749</hAcc><vAcc>0.729249</vAcc></extensions></trkpt>
      <trkpt lon="-3.340772" lat="54.543719"><ele>261.488678</ele><time>2021-08-12T10:54:04Z</time><extensions><speed>0.082664</speed><course>71.034035</course><hAcc>0.892166</hAcc><vAcc>0.730754</vAcc></extensions></trkpt>
      <trkpt lon="-3.340771" lat="54.543718"><ele>261.467804</ele><time>2021-08-12T10:54:05Z</time><extensions><speed>0.082749</speed><course>74.315559</course><hAcc>0.893868</hAcc><vAcc>0.732456</vAcc></extensions></trkpt>
      <trkpt lon="-3.340771" lat="54.543718"><ele>261.444672</ele><time>2021-08-12T10:54:06Z</time><extensions><speed>0.084606</speed><course>82.074326</course><hAcc>0.895818</hAcc><vAcc>0.734275</vAcc></extensions></trkpt>
      <trkpt lon="-3.340770" lat="54.543717"><ele>261.418854</ele><time>2021-08-12T10:54:07Z</time><extensions><speed>0.088652</speed><course>78.798851</course><hAcc>0.897939</hAcc><vAcc>0.736093</vAcc></extensions></trkpt>
      <trkpt lon="-3.340768" lat="54.543717"><ele>261.390076</ele><time>2021-08-12T10:54:08Z</time><extensions><speed>0.095454</speed><course>71.049065</course><hAcc>0.900102</hAcc><vAcc>0.737761</vAcc></extensions></trkpt>
      <trkpt lon="-3.340767" lat="54.543716"><ele>261.357758</ele><time>2021-08-12T10:54:09Z</time><extensions><speed>0.105636</speed><course>66.417450</course><hAcc>0.902131</hAcc><vAcc>0.739125</vAcc></extensions></trkpt>
      <trkpt lon="-3.340766" lat="54.543716"><ele>261.321289</ele><time>2021-08-12T10:54:10Z</time><extensions><speed>0.119724</speed><course>67.881187</course><hAcc>0.903828</hAcc><vAcc>0.740059</vAcc></extensions></trkpt>
      <trkpt lon="-3.340764" lat="54.543715"><ele>261.279907</ele><time>2021-08-12T10:54:11Z</time><extensions><speed>0.138120</speed><course>73.946594</course><hAcc>0.905025</hAcc><vAcc>0.740530</vAcc></extensions></trkpt>
      <trkpt lon="-3.340762" lat="54.543714"><ele>261.233032</ele><time>2021-08-12T10:54:12Z</time><extensions><speed>0.161009</speed><course>66.868568</course><hAcc>0.905681</hAcc><vAcc>0.740704</vAcc></extensions></trkpt>
      <trkpt lon="-3.340760" lat="54.543714"><ele>261.180176</ele><time>2021-08-12T10:54:13Z</time><extensions><speed>0.188195</speed><course>57.370388</course><hAcc>0.906053</hAcc><vAcc>0.741084</vAcc></extensions></trkpt>
      <trkpt lon="-3.340757" lat="54.543713"><ele>261.120972</ele><time>2021-08-12T10:54:14Z</time><extensions><speed>0.219127</speed><course>72.859169</course><hAcc>0.906948</hAcc><vAcc>0.742710</vAcc></extensions></trkpt>
      <trkpt lon="-3.340754" lat="54.543712"><ele>261.055298</ele><time>2021-08-12T10:54:15Z</time><extensions><speed>0.252983</speed><course>73.476959</course><hAcc>0.910079</hAcc><vAcc>0.747392</vAcc></extensions></trkpt>
      <trkpt lon="-3.340750" lat="54.543711"><ele>260.983398</ele><time>2021-08-12T10:54:16Z</time><extensions><speed>0.288545</speed><course>70.985191</course><hAcc>0.918501</hAcc><vAcc>0.757928</vAcc></extensions></trkpt>
      <trkpt lon="-3.340746" lat="54.543709"><ele>260.905792</ele><time>2021-08-12T10:54:17Z</time><extensions><speed>0.323803</speed><course>67.094063</course><hAcc>0.937021</hAcc><vAcc>0.778219</vAcc></extensions></trkpt>
      <trkpt lon="-3.340741" lat="54.543708"><ele>260.823425</ele><time>2021-08-12T10:54:18Z</time><extensions><speed>0.355835</speed><course>63.802017</course><hAcc>0.972328</hAcc><vAcc>0.813111</vAcc></extensions></trkpt>
      <trkpt lon="-3.340734" lat="54.543705"><ele>260.741608</ele><time>2021-08-12T10:54:19Z</time><extensions><speed>0.711167</speed><course>74.967865</course><hAcc>0.934154</hAcc><vAcc>0.776438</vAcc></extensions></trkpt>
      <trkpt lon="-3.340726" lat="54.543700"><ele>260.586426</ele><time>2021-08-12T10:54:20Z</time><extensions><speed>0.731154</speed><course>75.133301</course><hAcc>0.914613</hAcc><vAcc>0.754054</vAcc></extensions></trkpt>
      <trkpt lon="-3.340718" lat="54.543696"><ele>260.433746</ele><time>2021-08-12T10:54:21Z</time><extensions><speed>0.751009</speed><course>66.099251</course><hAcc>0.906332</hAcc><vAcc>0.742383</vAcc></extensions></trkpt>
      <trkpt lon="-3.340710" lat="54.543691"><ele>260.283783</ele><time>2021-08-12T10:54:22Z</time><extensions><speed>0.770450</speed><course>81.237114</course><hAcc>0.903833</hAcc><vAcc>0.737093</vAcc></extensions></trkpt>
      <trkpt lon="-3.340702" lat="54.543685"><ele>260.136444</ele><time>2021-08-12T10:54:23Z</time><extensions><speed>0.789631</speed><course>80.566093</course><hAcc>0.903639</hAcc><vAcc>0.735062</vAcc></extensions></trkpt>
      <trkpt lon="-3.340694" lat="54.543680"><ele>259.991486</ele><time>2021-08-12T10:54:24Z</time><extensions><speed>0.808483</speed><course>80.566109</course><hAcc>0.903816</hAcc><vAcc>0.734275</vAcc></extensions></trkpt>
      <trkpt lon="-3.340686" lat="54.543674"><ele>259.848175</ele><time>2021-08-12T10:54:25Z</time><extensions><speed>0.827279</speed><course>80.566093</course><hAcc>0.903477</hAcc><vAcc>0.733584</vAcc></extensions></trkpt>
      <trkpt lon="-3.340678" lat="54.543668"><ele>259.705566</ele><time>2021-08-12T10:54:26Z</time><extensions><speed>0.846128</speed><course>80.566093</course><hAcc>0.902366</hAcc><vAcc>0.732448</vAcc></extensions></trkpt>
      <trkpt lon="-3.340670" lat="54.543662"><ele>259.562561</ele><time>2021-08-12T10:54:27Z</time><extensions><speed>0.864125</speed><course>80.566093</course><hAcc>0.900564</hAcc><vAcc>0.730718</vAcc></extensions></trkpt>
      <trkpt lon="-3.340662" lat="54.543656"><ele>259.418213</ele><time>2021-08-12T10:54:28Z</time><extensions><speed>0.880177</speed><course>77.344681</course><hAcc>0.898297</hAcc><vAcc>0.728469</vAcc></extensions></trkpt>
      <trkpt lon="-3.340654" lat="54.543650"><ele>259.272095</ele><time>2021-08-12T10:54:29Z</time><extensions><speed>0.894221</speed><course>77.923714</course><hAcc>0.895818</hAcc><vAcc>0.725886</vAcc></extensions></trkpt>
      <trkpt lon="-3.340645" lat="54.543643"><ele>259.124512</ele><time>2021-08-12T10:54:30Z</time><extensions><speed>0.906880</speed><course>87.073212</course><hAcc>0.893351</hAcc><vAcc>0.723194</vAcc></extensions></trkpt>
      <trkpt lon="-3.340637" lat="54.543637"><ele>258.975800</ele><time>2021-08-12T10:54:31Z</time><extensions><speed>0.918963</speed><course>79.233902</course><hAcc>0.891060</hAcc><vAcc>0.720590</vAcc></extensions></trkpt>
      <trkpt lon="-3.340629" lat="54.543630"><ele>258.826538</ele><time>2021-08-12T10:54:32Z</time><extensions><speed>0.931635</speed><course>96.572746</course><hAcc>0.889047</hAcc><vAcc>0.718216</vAcc></extensions></trkpt>
      <trkpt lon="-3.340620" lat="54.543623"><ele>258.677399</ele><time>2021-08-12T10:54:33Z</time><extensions><speed>0.945849</speed><course>86.920219</course><hAcc>0.887361</hAcc><vAcc>0.716148</vAcc></extensions></trkpt>
      <trkpt lon="-3.340611" lat="54.543616"><ele>258.528656</ele><time>2021-08-12T10:54:34Z</time><extensions><speed>0.961993</speed><course>76.786201</course><hAcc>0.886007</hAcc><vAcc>0.714419</vAcc></extensions></trkpt>
      <trkpt lon="-3.340602" lat="54.543609"><ele>258.379852</ele><time>2021-08-12T10:54:35Z</time><extensions><speed>0.979856</speed><course>77.162971</course><hAcc>0.884962</hAcc><vAcc>0.713024</vAcc></extensions></trkpt>
      <trkpt lon="-3.340593" lat="54.543602"><ele>258.230591</ele><time>2021-08-12T10:54:36Z</time><extensions><speed>0.998489</speed><course>69.604996</course><hAcc>0.884188</hAcc><vAcc>0.711943</vAcc></extensions></trkpt>
      <trkpt lon="-3.340584" lat="54.543595"><ele>258.080902</ele><time>2021-08-12T10:54:37Z</time><extensions><speed>1.016354</speed><course>76.115456</course><hAcc>0.883638</hAcc><vAcc>0.711142</vAcc></extensions></trkpt>
      <trkpt lon="-3.340574" lat="54.543588"><ele>257.930695</ele><time>2021-08-12T10:54:38Z</time><extensions><speed>1.031407</speed><course>83.646278</course><hAcc>0.883266</hAcc><vAcc>0.710584</vAcc></extensions></trkpt>
      <trkpt lon="-3.340564" lat="54.543581"><ele>257.779755</ele><time>2021-08-12T10:54:39Z</time><extensions><speed>1.041706</speed><course>76.408623</course><hAcc>0.883031</hAcc><vAcc>0.710228</vAcc></extensions></trkpt>
      <trkpt lon="-3.340553" lat="54.543573"><ele>257.627777</ele><time>2021-08-12T10:54:40Z</time><extensions><speed>1.045831</speed><course>79.439453</course><hAcc>0.882898</hAcc><vAcc>0.710039</vAcc></extensions></trkpt>
      <trkpt lon="-3.340543" lat="54.543566"><ele>257.474426</ele><time>2021-08-12T10:54:41Z</time><extensions><speed>1.042944</speed><course>75.300941</course><hAcc>0.882837</hAcc><vAcc>0.709983</vAcc></extensions></trkpt>
      <trkpt lon="-3.340533" lat="54.543559"><ele>257.319580</ele><time>2021-08-12T10:54:42Z</time><extensions><speed>1.033112</speed><course>76.126534</course><hAcc>0.882828</hAcc><vAcc>0.710035</vAcc></extensions></trkpt>
      <trkpt lon="-3.340522" lat="54.543552"><ele>257.163422</ele><time>2021-08-12T10:54:43Z</time><extensions><speed>1.017129</speed><course>75.233688</course><hAcc>0.882854</hAcc><vAcc>0.710172</vAcc></extensions></trkpt>
      <trkpt lon="-3.340512" lat="54.543545"><ele>257.006744</ele><time>2021-08-12T10:54:44Z</time><extensions><speed>0.996104</speed><course>81.891060</course><hAcc>0.882904</hAcc><vAcc>0.710375</vAcc></extensions></trkpt>
      <trkpt lon="-3.340503" lat="54.543538"><ele>256.850372</ele><time>2021-08-12T10:54:45Z</time><extensions><speed>0.971290</speed><course>78.263519</course><hAcc>0.882968</hAcc><vAcc>0.710632</vAcc></extensions></trkpt>
      <trkpt lon="-3.340493" lat="54.543532"><ele>256.694885</ele><time>2021-08-12T10:54:46Z</time><extensions><speed>0.944600</speed><course>74.907532</course><hAcc>0.883040</hAcc><vAcc>0.710930</vAcc></extensions></trkpt>
      <trkpt lon="-3.340484" lat="54.543525"><ele>256.540680</ele><time>2021-08-12T10:54:47Z</time><extensions><speed>0.918931</speed><course>84.941742</course><hAcc>0.883115</hAcc><vAcc>0.711259</vAcc></extensions></trkpt>
      <trkpt lon="-3.340476" lat="54.543519"><ele>256.387909</ele><time>2021-08-12T10:54:48Z</time><extensions><speed>0.898250</speed><course>73.584358</course><hAcc>0.883190</hAcc><vAcc>0.711604</vAcc></extensions></trkpt>
      <trkpt lon="-3.340468" lat="54.543512"><ele>256.236481</ele><time>2021-08-12T10:54:49Z</time><extensions><speed>0.887163</speed><course>96.346313</course><hAcc>0.883260</hAcc><vAcc>0.711942</vAcc></extensions></trkpt>
      <trkpt lon="-3.340460" lat="54.543506"><ele>256.085999</ele><time>2021-08-12T10:54:50Z</time><extensions><speed>0.889196</speed><course>87.208282</course><hAcc>0.883325</hAcc><vAcc>0.712250</vAcc></extensions></trkpt>
      <trkpt lon="-3.340452" lat="54.543499"><ele>255.935776</ele><time>2021-08-12T10:54:51Z</time><extensions><speed>0.905493</speed><course>71.034035</course><hAcc>0.883381</hAcc><vAcc>0.712508</vAcc></extensions></trkpt>
      <trkpt lon="-3.340444" lat="54.543492"><ele>255.785080</ele><time>2021-08-12T10:54:52Z</time><extensions><speed>0.935080</speed><course>74.315559</course><hAcc>0.883430</hAcc><vAcc>0.712704</vAcc></extensions></trkpt>
      <trkpt lon="-3.340436" lat="54.543485"><ele>255.633331</ele><time>2021-08-12T10:54:53Z</time><extensions><speed>0.975548</speed><course>82.074326</course><hAcc>0.883470</hAcc><vAcc>0.712836</vAcc></extensions></trkpt>
      <trkpt lon="-3.340428" lat="54.543477"><ele>255.480270</ele><time>2021-08-12T10:54:54Z</time><extensions><speed>1.023129</speed><course>78.798851</course><hAcc>0.883502</hAcc><vAcc>0.712912</vAcc></extensions></trkpt>
      <trkpt lon="-3.340419" lat="54.543469"><ele>255.326202</ele><time>2021-08-12T10:54:55Z</time><extensions><speed>1.073872</speed><course>71.049065</course><hAcc>0.883529</hAcc><vAcc>0.712949</vAcc></extensions></trkpt>
      <trkpt lon="-3.340410" lat="54.543461"><ele>255.171707</ele><time>2021-08-12T10:54:56Z</time><extensions><speed>1.124562</speed><course>66.417450</course><hAcc>0.883553</hAcc><vAcc>0.712968</vAcc></extensions></trkpt>
      <trkpt lon="-3.340400" lat="54.543452"><ele>255.017502</ele><time>2021-08-12T10:54:57Z</time><extensions><speed>1.172701</speed><course>67.881187</course><hAcc>0.883577</hAcc><vAcc>0.712992</vAcc></extensions></trkpt>
      <trkpt lon="-3.340389" lat="54.543444"><ele>254.864288</ele><time>2021-08-12T10:54:58Z</time><extensions><speed>1.216286</speed><course>73.946594</course><hAcc>0.883604</hAcc><vAcc>0.713036</vAcc></extensions></trkpt>
      <trkpt lon="-3.340378" lat="54.543435"><ele>254.712738</ele><time>2021-08-12T10:54:59Z</time><extensions><speed>1.253845</speed><course>66.868568</course><hAcc>0.883640</hAcc><vAcc>0.713114</vAcc></extensions></trkpt>
      <trkpt lon="-3.340366" lat="54.543426"><ele>254.563293</ele><time>2021-08-12T10:55:00Z</time><extensions><speed>1.284340</speed><course>57.370388</course><hAcc>0.883685</hAcc><vAcc>0.713237</vAcc></extensions></trkpt>
      <trkpt lon="-3.340353" lat="54.543417"><ele>254.416138</ele><time>2021-08-12T10:55:01Z</time><extensions><speed>1.307397</speed><course>72.859169</course><hAcc>0.883743</hAcc><vAcc>0.713420</vAcc></extensions></trkpt>
      <trkpt lon="-3.340339" lat="54.543408"><ele>254.271179</ele><time>2021-08-12T10:55:02Z</time><extensions><speed>1.323457</speed><course>73.476959</course><hAcc>0.883813</hAcc><vAcc>0.713675</vAcc></extensions></trkpt>
      <trkpt lon="-3.340325" lat="54.543400"><ele>254.128342</ele><time>2021-08-12T10:55:03Z</time><extensions><speed>1.333636</speed><course>70.985191</course><hAcc>0.883896</hAcc><vAcc>0.714004</vAcc></extensions></trkpt>
      <trkpt lon="-3.340310" lat="54.543391"><ele>253.987885</ele><time>2021-08-12T10:55:04Z</time><extensions><speed>1.339344</speed><course>67.094063</course><hAcc>0.883990</hAcc><vAcc>0.714398</vAcc></extensions></trkpt>
      <trkpt lon="-3.340295" lat="54.543383"><ele>253.850601</ele><time>2021-08-12T10:55:05Z</time><extensions><speed>1.341263</speed><course>63.802017</course><hAcc>0.884092</hAcc><vAcc>0.714842</vAcc></extensions></trkpt>
      <trkpt lon="-3.340278" lat="54.543376"><ele>253.717636</ele><time>2021-08-12T10:55:06Z</time><extensions><speed>1.340190</speed><course>59.738853</course><hAcc>0.884201</hAcc><vAcc>0.715314</vAcc></extensions></trkpt>
      <trkpt lon="-3.340262" lat="54.543369"><ele>253.590225</ele><time>2021-08-12T10:55:07Z</time><extensions><speed>1.338044</speed><course>64.752533</course><hAcc>0.884312</hAcc><vAcc>0.715791</vAcc></extensions></trkpt>
      <trkpt lon="-3.340245" lat="54.543362"><ele>253.469406</ele><time>2021-08-12T10:55:08Z</time><extensions><speed>1.336792</speed><course>62.678837</course><hAcc>0.884421</hAcc><vAcc>0.716254</vAcc></extensions></trkpt>
      <trkpt lon="-3.340227" lat="54.543356"><ele>253.356064</ele><time>2021-08-12T10:55:09Z</time><extensions><speed>1.336540</speed><course>67.622025</course><hAcc>0.884526</hAcc><vAcc>0.716685</vAcc></extensions></trkpt>
      <trkpt lon="-3.340209" lat="54.543350"><ele>253.250977</ele><time>2021-08-12T10:55:10Z</time><extensions><speed>1.335588</speed><course>76.998230</course><hAcc>0.884623</hAcc><vAcc>0.717068</vAcc></extensions></trkpt>
      <trkpt lon="-3.340190" lat="54.543345"><ele>253.154633</ele><time>2021-08-12T10:55:11Z</time><extensions><speed>1.332283</speed><course>71.279175</course><hAcc>0.884710</hAcc><vAcc>0.717396</vAcc></extensions></trkpt>
      <trkpt lon="-3.340172" lat="54.543340"><ele>253.067352</ele><time>2021-08-12T10:55:12Z</time><extensions><speed>1.325873</speed><course>66.215858</course><hAcc>0.884785</hAcc><vAcc>0.717664</vAcc></extensions></trkpt>
      <trkpt lon="-3.340153" lat="54.543335"><ele>252.989410</ele><time>2021-08-12T10:55:13Z</time><extensions><speed>1.315848</speed><course>65.869171</course><hAcc>0.884848</hAcc><vAcc>0.717870</vAcc></extensions></trkpt>
      <trkpt lon="-3.340134" lat="54.543331"><ele>252.921127</ele><time>2021-08-12T10:55:14Z</time><extensions><speed>1.301864</speed><course>67.480362</course><hAcc>0.884898</hAcc><vAcc>0.718017</vAcc></extensions></trkpt>
      <trkpt lon="-3.340115" lat="54.543328"><ele>252.862518</ele><time>2021-08-12T10:55:15Z</time><extensions><speed>1.283995</speed><course>62.467888</course><hAcc>0.884937</hAcc><vAcc>0.718113</vAcc></extensions></trkpt>
      <trkpt lon="-3.340096" lat="54.543324"><ele>252.813080</ele><time>2021-08-12T10:55:16Z</time><extensions><speed>1.262487</speed><course>57.403885</course><hAcc>0.884965</hAcc><vAcc>0.718169</vAcc></extensions></trkpt>
      <trkpt lon="-3.340078" lat="54.543321"><ele>252.771896</ele><time>2021-08-12T10:55:17Z</time><extensions><speed>1.237653</speed><course>56.104736</course><hAcc>0.884983</hAcc><vAcc>0.718196</vAcc></extensions></trkpt>
      <trkpt lon="-3.340060" lat="54.543317"><ele>252.737778</ele><time>2021-08-12T10:55:18Z</time><extensions><speed>1.210739</speed><course>57.135769</course><hAcc>0.884992</hAcc><vAcc>0.718206</vAcc></extensions></trkpt>
      <trkpt lon="-3.340042" lat="54.543314"><ele>252.709274</ele><time>2021-08-12T10:55:19Z</time><extensions><speed>1.184441</speed><course>59.466648</course><hAcc>0.884994</hAcc><vAcc>0.718205</vAcc></extensions></trkpt>
      <trkpt lon="-3.340025" lat="54.543311"><ele>252.684555</ele><time>2021-08-12T10:55:20Z</time><extensions><speed>1.161382</speed><course>56.466339</course><hAcc>0.884990</hAcc><vAcc>0.718196</vAcc></extensions></trkpt>
      <trkpt lon="-3.340008" lat="54.543307"><ele>252.661865</ele><time>2021-08-12T10:55:21Z</time><extensions><speed>1.141850</speed><course>61.082169</course><hAcc>0.884980</hAcc><vAcc>0.718179</vAcc></extensions></trkpt>
      <trkpt lon="-3.339992" lat="54.543303"><ele>252.639893</ele><time>2021-08-12T10:55:22Z</time><extensions><speed>1.124950</speed><course>63.000797</course><hAcc>0.884966</hAcc><vAcc>0.718150</vAcc></extensions></trkpt>
      <trkpt lon="-3.339977" lat="54.543298"><ele>252.617554</ele><time>2021-08-12T10:55:23Z</time><extensions><speed>1.110611</speed><course>58.373146</course><hAcc>0.884948</hAcc><vAcc>0.718104</vAcc></extensions></trkpt>
      <trkpt lon="-3.339962" lat="54.543293"><ele>252.593979</ele><time>2021-08-12T10:55:24Z</time><extensions><speed>1.098960</speed><course>59.591164</course><hAcc>0.884929</hAcc><vAcc>0.718037</vAcc></extensions></trkpt>
      <trkpt lon="-3.339948" lat="54.543288"><ele>252.568573</ele><time>2021-08-12T10:55:25Z</time><extensions><speed>1.090386</speed><course>56.078835</course><hAcc>0.884907</hAcc><vAcc>0.717946</vAcc></extensions></trkpt>
      <trkpt lon="-3.339934" lat="54.543282"><ele>252.541016</ele><time>2021-08-12T10:55:26Z</time><extensions><speed>1.084783</speed><course>61.452141</course><hAcc>0.884884</hAcc><vAcc>0.717837</vAcc></extensions></trkpt>
      <trkpt lon="-3.339921" lat="54.543276"><ele>252.510925</ele><time>2021-08-12T10:55:27Z</time><extensions><speed>1.081723</speed><course>62.349373</course><hAcc>0.884861</hAcc><vAcc>0.717717</vAcc></extensions></trkpt>
      <trkpt lon="-3.339909" lat="54.543270"><ele>252.477661</ele><time>2021-08-12T10:55:28Z</time><extensions><speed>1.080412</speed><course>67.502327</course><hAcc>0.884837</hAcc><vAcc>0.717597</vAcc></extensions></trkpt>
      <trkpt lon="-3.339897" lat="54.543263"><ele>252.440353</ele><time>2021-08-12T10:55:29Z</time><extensions><speed>1.078766</speed><course>65.148994</course><hAcc>0.884814</hAcc><vAcc>0.717487</vAcc></extensions></trkpt>
      <trkpt lon="-3.339885" lat="54.543256"><ele>252.397919</ele><time>2021-08-12T10:55:30Z</time><extensions><speed>1.074744</speed><course>61.604351</course><hAcc>0.884791</hAcc><vAcc>0.717392</vAcc></extensions></trkpt>
      <trkpt lon="-3.339873" lat="54.543249"><ele>252.349319</ele><time>2021-08-12T10:55:31Z</time><extensions><speed>1.066933</speed><course>67.356651</course><hAcc>0.884769</hAcc><vAcc>0.717315</vAcc></extensions></trkpt>
      <trkpt lon="-3.339862" lat="54.543243"><ele>252.293915</ele><time>2021-08-12T10:55:32Z</time><extensions><speed>1.053897</speed><course>56.187717</course><hAcc>0.884747</hAcc><vAcc>0.717256</vAcc></extensions></trkpt>
      <trkpt lon="-3.339851" lat="54.543236"><ele>252.231628</ele><time>2021-08-12T10:55:33Z</time><extensions><speed>1.034762</speed><course>56.273357</course><hAcc>0.884727</hAcc><vAcc>0.717208</vAcc></extensions></trkpt>
      <trkpt lon="-3.339839" lat="54.543229"><ele>252.162888</ele><time>2021-08-12T10:55:34Z</time><extensions><speed>1.010017</speed><course>59.042984</course><hAcc>0.884707</hAcc><vAcc>0.717163</vAcc></extensions></trkpt>
      <trkpt lon="-3.339828" lat="54.543223"><ele>252.088318</ele><time>2021-08-12T10:55:35Z</time><extensions><speed>0.981119</speed><course>46.754299</course><hAcc>0.884689</hAcc><vAcc>0.717112</vAcc></extensions></trkpt>
      <trkpt lon="-3.339817" lat="54.543217"><ele>252.008804</ele><time>2021-08-12T10:55:36Z</time><extensions><speed>0.950374</speed><course>46.754295</course><hAcc>0.884671</hAcc><vAcc>0.717050</vAcc></extensions></trkpt>
      <trkpt lon="-3.339806" lat="54.543212"><ele>251.925552</ele><time>2021-08-12T10:55:37Z</time><extensions><speed>0.920155</speed><course>46.754295</course><hAcc>0.884652</hAcc><vAcc>0.716980</vAcc></extensions></trkpt>
      <trkpt lon="-3.339796" lat="54.543207"><ele>251.840134</ele><time>2021-08-12T10:55:38Z</time><extensions><speed>0.890668</speed><course>46.754295</course><hAcc>0.884632</hAcc><vAcc>0.716905</vAcc></extensions></trkpt>
      <trkpt lon="-3.339785" lat="54.543202"><ele>251.754257</ele><time>2021-08-12T10:55:39Z</time><extensions><speed>0.860584</speed><course>46.754295</course><hAcc>0.884610</hAcc><vAcc>0.716828</vAcc></extensions></trkpt>
      <trkpt lon="-3.339775" lat="54.543197"><ele>251.669052</ele><time>2021-08-12T10:55:40Z</time><extensions><speed>0.829425</speed><course>46.754295</course><hAcc>0.884585</hAcc><vAcc>0.716751</vAcc></extensions></trkpt>
      <trkpt lon="-3.339764" lat="54.543193"><ele>251.585083</ele><time>2021-08-12T10:55:41Z</time><extensions><speed>0.798276</speed><course>46.754295</course><hAcc>0.884560</hAcc><vAcc>0.716667</vAcc></extensions></trkpt>
      <trkpt lon="-3.339755" lat="54.543189"><ele>251.502808</ele><time>2021-08-12T10:55:42Z</time><extensions><speed>0.770016</speed><course>46.754292</course><hAcc>0.884535</hAcc><vAcc>0.716574</vAcc></extensions></trkpt>
      <trkpt lon="-3.339745" lat="54.543185"><ele>251.422897</ele><time>2021-08-12T10:55:43Z</time><extensions><speed>0.747861</speed><course>46.754295</course><hAcc>0.884512</hAcc><vAcc>0.716468</vAcc></extensions></trkpt>
      <trkpt lon="-3.339735" lat="54.543181"><ele>251.345871</ele><time>2021-08-12T10:55:44Z</time><extensions><speed>0.734369</speed><course>86.257805</course><hAcc>0.884493</hAcc><vAcc>0.716355</vAcc></extensions></trkpt>
      <trkpt lon="-3.339726" lat="54.543178"><ele>251.272049</ele><time>2021-08-12T10:55:45Z</time><extensions><speed>0.731415</speed><course>92.864906</course><hAcc>0.884479</hAcc><vAcc>0.716246</vAcc></extensions></trkpt>
      <trkpt lon="-3.339716" lat="54.543174"><ele>251.201569</ele><time>2021-08-12T10:55:46Z</time><extensions><speed>0.739202</speed><course>94.458534</course><hAcc>0.884470</hAcc><vAcc>0.716161</vAcc></extensions></trkpt>
      <trkpt lon="-3.339706" lat="54.543171"><ele>251.134598</ele><time>2021-08-12T10:55:47Z</time><extensions><speed>0.755673</speed><course>89.165138</course><hAcc>0.884466</hAcc><vAcc>0.716118</vAcc></extensions></trkpt>
      <trkpt lon="-3.339696" lat="54.543167"><ele>251.071060</ele><time>2021-08-12T10:55:48Z</time><extensions><speed>0.777126</speed><course>98.187202</course><hAcc>0.884468</hAcc><vAcc>0.716125</vAcc></extensions></trkpt>
      <trkpt lon="-3.339685" lat="54.543164"><ele>251.009979</ele><time>2021-08-12T10:55:49Z</time><extensions><speed>0.799511</speed><course>262.094696</course><hAcc>0.884476</hAcc><vAcc>0.716180</vAcc></extensions></trkpt>
      <trkpt lon="-3.339674" lat="54.543161"><ele>250.949677</ele><time>2021-08-12T10:55:50Z</time><extensions><speed>0.819420</speed><course>273.339569</course><hAcc>0.884490</hAcc><vAcc>0.716272</vAcc></extensions></trkpt>
      <trkpt lon="-3.339663" lat="54.543157"><ele>250.888550</ele><time>2021-08-12T10:55:51Z</time><extensions><speed>0.834877</speed><course>270.133057</course><hAcc>0.884508</hAcc><vAcc>0.716389</vAcc></extensions></trkpt>
      <trkpt lon="-3.339651" lat="54.543154"><ele>250.825638</ele><time>2021-08-12T10:55:52Z</time><extensions><speed>0.845010</speed><course>264.401459</course><hAcc>0.884529</hAcc><vAcc>0.716517</vAcc></extensions></trkpt>
      <trkpt lon="-3.339640" lat="54.543150"><ele>250.760925</ele><time>2021-08-12T10:55:53Z</time><extensions><speed>0.849947</speed><course>271.206299</course><hAcc>0.884553</hAcc><vAcc>0.716646</vAcc></extensions></trkpt>
      <trkpt lon="-3.339628" lat="54.543147"><ele>250.695160</ele><time>2021-08-12T10:55:54Z</time><extensions><speed>0.851269</speed><course>270.479279</course><hAcc>0.884577</hAcc><vAcc>0.716763</vAcc></extensions></trkpt>
      <trkpt lon="-3.339617" lat="54.543143"><ele>250.628922</ele><time>2021-08-12T10:55:55Z</time><extensions><speed>0.852197</speed><course>270.479279</course><hAcc>0.884601</hAcc><vAcc>0.716863</vAcc></extensions></trkpt>
      <trkpt lon="-3.339606" lat="54.543138"><ele>250.562088</ele><time>2021-08-12T10:55:56Z</time><extensions><speed>0.857935</speed><course>270.479279</course><hAcc>0.884626</hAcc><vAcc>0.716940</vAcc></extensions></trkpt>
      <trkpt lon="-3.339595" lat="54.543134"><ele>250.494629</ele><time>2021-08-12T10:55:57Z</time><extensions><speed>0.873806</speed><course>92.836548</course><hAcc>0.884651</hAcc><vAcc>0.716997</vAcc></extensions></trkpt>
      <trkpt lon="-3.339585" lat="54.543128"><ele>250.427063</ele><time>2021-08-12T10:55:58Z</time><extensions><speed>0.902439</speed><course>91.847809</course><hAcc>0.884677</hAcc><vAcc>0.717045</vAcc></extensions></trkpt>
      <trkpt lon="-3.339574" lat="54.543123"><ele>250.360184</ele><time>2021-08-12T10:55:59Z</time><extensions><speed>0.943778</speed><course>96.972961</course><hAcc>0.884705</hAcc><vAcc>0.717097</vAcc></extensions></trkpt>
      <trkpt lon="-3.339563" lat="54.543117"><ele>250.294861</ele><time>2021-08-12T10:56:00Z</time><extensions><speed>0.995825</speed><course>101.432434</course><hAcc>0.884736</hAcc><vAcc>0.717166</vAcc></extensions></trkpt>
      <trkpt lon="-3.339552" lat="54.543111"><ele>250.232086</ele><time>2021-08-12T10:56:01Z</time><extensions><speed>1.054990</speed><course>89.921867</course><hAcc>0.884771</hAcc><vAcc>0.717262</vAcc></extensions></trkpt>
      <trkpt lon="-3.339540" lat="54.543104"><ele>250.172577</ele><time>2021-08-12T10:56:02Z</time><extensions><speed>1.117881</speed><course>79.468422</course><hAcc>0.884811</hAcc><vAcc>0.717394</vAcc></extensions></trkpt>
      <trkpt lon="-3.339527" lat="54.543097"><ele>250.116913</ele><time>2021-08-12T10:56:03Z</time><extensions><speed>1.182234</speed><course>79.668663</course><hAcc>0.884857</hAcc><vAcc>0.717565</vAcc></extensions></trkpt>
      <trkpt lon="-3.339513" lat="54.543089"><ele>250.066086</ele><time>2021-08-12T10:56:04Z</time><extensions><speed>1.246206</speed><course>70.198914</course><hAcc>0.884911</hAcc><vAcc>0.717774</vAcc></extensions></trkpt>
      <trkpt lon="-3.339498" lat="54.543082"><ele>250.020950</ele><time>2021-08-12T10:56:05Z</time><extensions><speed>1.307587</speed><course>85.811096</course><hAcc>0.884973</hAcc><vAcc>0.718015</vAcc></extensions></trkpt>
      <trkpt lon="-3.339483" lat="54.543074"><ele>249.981583</ele><time>2021-08-12T10:56:06Z</time><extensions><speed>1.364268</speed><course>87.515213</course><hAcc>0.885042</hAcc><vAcc>0.718284</vAcc></extensions></trkpt>
      <trkpt lon="-3.339467" lat="54.543066"><ele>249.947678</ele><time>2021-08-12T10:56:07Z</time><extensions><speed>1.414878</speed><course>86.802406</course><hAcc>0.885117</hAcc><vAcc>0.718576</vAcc></extensions></trkpt>
      <trkpt lon="-3.339450" lat="54.543057"><ele>249.918976</ele><time>2021-08-12T10:56:08Z</time><extensions><speed>1.458951</speed><course>85.424927</course><hAcc>0.885197</hAcc><vAcc>0.718885</vAcc></extensions></trkpt>
      <trkpt lon="-3.339432" lat="54.543049"><ele>249.895432</ele><time>2021-08-12T10:56:09Z</time><extensions><speed>1.496129</speed><course>88.911957</course><hAcc>0.885281</hAcc><vAcc>0.719206</vAcc></extensions></trkpt>
      <trkpt lon="-3.339414" lat="54.543041"><ele>249.877029</ele><time>2021-08-12T10:56:10Z</time><extensions><speed>1.525710</speed><course>93.027184</course><hAcc>0.885365</hAcc><vAcc>0.719536</vAcc></extensions></trkpt>
      <trkpt lon="-3.339395" lat="54.543032"><ele>249.863739</ele><time>2021-08-12T10:56:11Z</time><extensions><speed>1.547821</speed><course>90.763535</course><hAcc>0.885448</hAcc><vAcc>0.719868</vAcc></extensions></trkpt>
      <trkpt lon="-3.339375" lat="54.543024"><ele>249.855484</ele><time>2021-08-12T10:56:12Z</time><extensions><speed>1.563386</speed><course>83.392509</course><hAcc>0.885527</hAcc><vAcc>0.720195</vAcc></extensions></trkpt>
      <trkpt lon="-3.339356" lat="54.543016"><ele>249.851913</ele><time>2021-08-12T10:56:13Z</time><extensions><speed>1.573349</speed><course>57.334152</course><hAcc>0.885600</hAcc><vAcc>0.720503</vAcc></extensions></trkpt>
      <trkpt lon="-3.339336" lat="54.543007"><ele>249.852234</ele><time>2021-08-12T10:56:14Z</time><extensions><speed>1.578622</speed><course>29.254333</course><hAcc>0.885665</hAcc><vAcc>0.720783</vAcc></extensions></trkpt>
      <trkpt lon="-3.339316" lat="54.542999"><ele>249.855377</ele><time>2021-08-12T10:56:15Z</time><extensions><speed>1.580252</speed><course>29.254333</course><hAcc>0.885719</hAcc><vAcc>0.721024</vAcc></extensions></trkpt>
      <trkpt lon="-3.339295" lat="54.542992"><ele>249.860352</ele><time>2021-08-12T10:56:16Z</time><extensions><speed>1.579496</speed><course>29.254333</course><hAcc>0.885761</hAcc><vAcc>0.721212</vAcc></extensions></trkpt>
      <trkpt lon="-3.339274" lat="54.542984"><ele>249.866272</ele><time>2021-08-12T10:56:17Z</time><extensions><speed>1.577493</speed><course>29.254332</course><hAcc>0.885791</hAcc><vAcc>0.721339</vAcc></extensions></trkpt>
      <trkpt lon="-3.339254" lat="54.542977"><ele>249.872055</ele><time>2021-08-12T10:56:18Z</time><extensions><speed>1.574822</speed><course>29.254333</course><hAcc>0.885808</hAcc><vAcc>0.721398</vAcc></extensions></trkpt>
      <trkpt lon="-3.339232" lat="54.542970"><ele>249.876175</ele><time>2021-08-12T10:56:19Z</time><extensions><speed>1.571917</speed><course>29.254332</course><hAcc>0.885813</hAcc><vAcc>0.721392</vAcc></extensions></trkpt>
      <trkpt lon="-3.339211" lat="54.542964"><ele>249.876968</ele><time>2021-08-12T10:56:20Z</time><extensions><speed>1.569479</speed><course>29.254332</course><hAcc>0.885806</hAcc><vAcc>0.721326</vAcc></extensions></trkpt>
      <trkpt lon="-3.339189" lat="54.542957"><ele>249.872681</ele><time>2021-08-12T10:56:21Z</time><extensions><speed>1.568087</speed><course>29.254333</course><hAcc>0.885788</hAcc><vAcc>0.721213</vAcc></extensions></trkpt>
      <trkpt lon="-3.339167" lat="54.542951"><ele>249.861481</ele><time>2021-08-12T10:56:22Z</time><extensions><speed>1.568088</speed><course>29.254333</course><hAcc>0.885761</hAcc><vAcc>0.721065</vAcc></extensions></trkpt>
      <trkpt lon="-3.339145" lat="54.542946"><ele>249.841202</ele><time>2021-08-12T10:56:23Z</time><extensions><speed>1.569336</speed><course>29.254332</course><hAcc>0.885726</hAcc><vAcc>0.720895</vAcc></extensions></trkpt>
      <trkpt lon="-3.339122" lat="54.542941"><ele>249.809525</ele><time>2021-08-12T10:56:24Z</time><extensions><speed>1.570825</speed><course>29.254333</course><hAcc>0.885687</hAcc><vAcc>0.720714</vAcc></extensions></trkpt>
      <trkpt lon="-3.339100" lat="54.542936"><ele>249.764328</ele><time>2021-08-12T10:56:25Z</time><extensions><speed>1.571206</speed><course>29.254337</course><hAcc>0.885645</hAcc><vAcc>0.720531</vAcc></extensions></trkpt>
      <trkpt lon="-3.339077" lat="54.542931"><ele>249.704361</ele><time>2021-08-12T10:56:26Z</time><extensions><speed>1.569520</speed><course>29.254337</course><hAcc>0.885604</hAcc><vAcc>0.720354</vAcc></extensions></trkpt>
      <trkpt lon="-3.339054" lat="54.542927"><ele>249.629013</ele><time>2021-08-12T10:56:27Z</time><extensions><speed>1.565332</speed><course>29.254339</course><hAcc>0.885567</hAcc><vAcc>0.720189</vAcc></extensions></trkpt>
      <trkpt lon="-3.339031" lat="54.542922"><ele>249.537994</ele><time>2021-08-12T10:56:28Z</time><extensions><speed>1.558719</speed><course>29.254337</course><hAcc>0.885534</hAcc><vAcc>0.720046</vAcc></extensions></trkpt>
      <trkpt lon="-3.339008" lat="54.542918"><ele>249.432281</ele><time>2021-08-12T10:56:29Z</time><extensions><speed>1.550205</speed><course>29.254339</course><hAcc>0.885507</hAcc><vAcc>0.719932</vAcc></extensions></trkpt>
      <trkpt lon="-3.338985" lat="54.542915"><ele>249.314026</ele><time>2021-08-12T10:56:30Z</time><extensions><speed>1.540483</speed><course>353.139893</course><hAcc>0.885486</hAcc><vAcc>0.719852</vAcc></extensions></trkpt>
      <trkpt lon="-3.338962" lat="54.542911"><ele>249.185699</ele><time>2021-08-12T10:56:31Z</time><extensions><speed>1.530393</speed><course>-1.000000</course><hAcc>0.885471</hAcc><vAcc>0.719809</vAcc></extensions></trkpt>
      <trkpt lon="-3.338939" lat="54.542908"><ele>249.050369</ele><time>2021-08-12T10:56:32Z</time><extensions><speed>1.520638</speed><course>-1.000000</course><hAcc>0.885462</hAcc><vAcc>0.719797</vAcc></extensions></trkpt>
      <trkpt lon="-3.338916" lat="54.542905"><ele>248.911774</ele><time>2021-08-12T10:56:33Z</time><extensions><speed>1.511708</speed><course>-1.000000</course><hAcc>0.885459</hAcc><vAcc>0.719812</vAcc></extensions></trkpt>
      <trkpt lon="-3.338893" lat="54.542903"><ele>248.773880</ele><time>2021-08-12T10:56:34Z</time><extensions><speed>1.504020</speed><course>-1.000000</course><hAcc>0.885459</hAcc><vAcc>0.719846</vAcc></extensions></trkpt>
      <trkpt lon="-3.338870" lat="54.542900"><ele>248.640564</ele><time>2021-08-12T10:56:35Z</time><extensions><speed>1.496969</speed><course>-1.000000</course><hAcc>0.885462</hAcc><vAcc>0.719891</vAcc></extensions></trkpt>
      <trkpt lon="-3.338847" lat="54.542898"><ele>248.515198</ele><time>2021-08-12T10:56:36Z</time><extensions><speed>1.488670</speed><course>-1.000000</course><hAcc>0.885465</hAcc><vAcc>0.719937</vAcc></extensions></trkpt>
      <trkpt lon="-3.338825" lat="54.542896"><ele>248.400375</ele><time>2021-08-12T10:56:37Z</time><extensions><speed>1.478709</speed><course>-1.000000</course><hAcc>0.885467</hAcc><vAcc>0.719972</vAcc></extensions></trkpt>
      <trkpt lon="-3.338802" lat="54.542894"><ele>248.297653</ele><time>2021-08-12T10:56:38Z</time><extensions><speed>1.468008</speed><course>-1.000000</course><hAcc>0.885467</hAcc><vAcc>0.719989</vAcc></extensions></trkpt>
      <trkpt lon="-3.338780" lat="54.542893"><ele>248.207275</ele><time>2021-08-12T10:56:39Z</time><extensions><speed>1.456888</speed><course>-1.000000</course><hAcc>0.885461</hAcc><vAcc>0.719982</vAcc></extensions></trkpt>
      <trkpt lon="-3.338757" lat="54.542891"><ele>248.127609</ele><time>2021-08-12T10:56:40Z</time><extensions><speed>1.445602</speed><course>-1.000000</course><hAcc>0.885447</hAcc><vAcc>0.719951</vAcc></extensions></trkpt>
      <trkpt lon="-3.338735" lat="54.542890"><ele>248.055817</ele><time>2021-08-12T10:56:41Z</time><extensions><speed>1.434765</speed><course>-1.000000</course><hAcc>0.885425</hAcc><vAcc>0.719892</vAcc></extensions></trkpt>
      <trkpt lon="-3.338713" lat="54.542888"><ele>247.989014</ele><time>2021-08-12T10:56:42Z</time><extensions><speed>1.425091</speed><course>74.830536</course><hAcc>0.885394</hAcc><vAcc>0.719797</vAcc></extensions></trkpt>
      <trkpt lon="-3.338691" lat="54.542887"><ele>247.924866</ele><time>2021-08-12T10:56:43Z</time><extensions><speed>1.417138</speed><course>62.161198</course><hAcc>0.885353</hAcc><vAcc>0.719662</vAcc></extensions></trkpt>
      <trkpt lon="-3.338670" lat="54.542886"><ele>247.861694</ele><time>2021-08-12T10:56:44Z</time><extensions><speed>1.411021</speed><course>66.043793</course><hAcc>0.885303</hAcc><vAcc>0.719483</vAcc></extensions></trkpt>
      <trkpt lon="-3.338648" lat="54.542886"><ele>247.798523</ele><time>2021-08-12T10:56:45Z</time><extensions><speed>1.406646</speed><course>75.803009</course><hAcc>0.885247</hAcc><vAcc>0.719260</vAcc></extensions></trkpt>
      <trkpt lon="-3.338626" lat="54.542885"><ele>247.735214</ele><time>2021-08-12T10:56:46Z</time><extensions><speed>1.403917</speed><course>76.191063</course><hAcc>0.885186</hAcc><vAcc>0.718998</vAcc></extensions></trkpt>
      <trkpt lon="-3.338605" lat="54.542884"><ele>247.672241</ele><time>2021-08-12T10:56:47Z</time><extensions><speed>1.402722</speed><course>76.349960</course><hAcc>0.885122</hAcc><vAcc>0.718709</vAcc></extensions></trkpt>
      <trkpt lon="-3.338583" lat="54.542883"><ele>247.609955</ele><time>2021-08-12T10:56:48Z</time><extensions><speed>1.403236</speed><course>78.477806</course><hAcc>0.885058</hAcc><vAcc>0.718408</vAcc></extensions></trkpt>
      <trkpt lon="-3.338561" lat="54.542882"><ele>247.548325</ele><time>2021-08-12T10:56:49Z</time><extensions><speed>1.406008</speed><course>75.070290</course><hAcc>0.884997</hAcc><vAcc>0.718114</vAcc></extensions></trkpt>
      <trkpt lon="-3.338540" lat="54.542881"><ele>247.487183</ele><time>2021-08-12T10:56:50Z</time><extensions><speed>1.411487</speed><course>69.086029</course><hAcc>0.884941</hAcc><vAcc>0.717846</vAcc></extensions></trkpt>
      <trkpt lon="-3.338518" lat="54.542880"><ele>247.425919</ele><time>2021-08-12T10:56:51Z</time><extensions><speed>1.419680</speed><course>68.949226</course><hAcc>0.884891</hAcc><vAcc>0.717623</vAcc></extensions></trkpt>
      <trkpt lon="-3.338496" lat="54.542879"><ele>247.363724</ele><time>2021-08-12T10:56:52Z</time><extensions><speed>1.430086</speed><course>71.686111</course><hAcc>0.884851</hAcc><vAcc>0.717457</vAcc></extensions></trkpt>
      <trkpt lon="-3.338474" lat="54.542878"><ele>247.299911</ele><time>2021-08-12T10:56:53Z</time><extensions><speed>1.441869</speed><course>76.597496</course><hAcc>0.884822</hAcc><vAcc>0.717353</vAcc></extensions></trkpt>
      <trkpt lon="-3.338452" lat="54.542877"><ele>247.233795</ele><time>2021-08-12T10:56:54Z</time><extensions><speed>1.454524</speed><course>90.005066</course><hAcc>0.884804</hAcc><vAcc>0.717308</vAcc></extensions></trkpt>
      <trkpt lon="-3.338429" lat="54.542875"><ele>247.164734</ele><time>2021-08-12T10:56:55Z</time><extensions><speed>1.467396</speed><course>83.948074</course><hAcc>0.884797</hAcc><vAcc>0.717317</vAcc></extensions></trkpt>
      <trkpt lon="-3.338407" lat="54.542873"><ele>247.092728</ele><time>2021-08-12T10:56:56Z</time><extensions><speed>1.479196</speed><course>76.996796</course><hAcc>0.884801</hAcc><vAcc>0.717370</vAcc></extensions></trkpt>
      <trkpt lon="-3.338384" lat="54.542871"><ele>247.018631</ele><time>2021-08-12T10:56:57Z</time><extensions><speed>1.488851</speed><course>79.507355</course><hAcc>0.884813</hAcc><vAcc>0.717458</vAcc></extensions></trkpt>
      <trkpt lon="-3.338361" lat="54.542870"><ele>246.943863</ele><time>2021-08-12T10:56:58Z</time><extensions><speed>1.495554</speed><course>72.096832</course><hAcc>0.884833</hAcc><vAcc>0.717570</vAcc></extensions></trkpt>
      <trkpt lon="-3.338338" lat="54.542868"><ele>246.870209</ele><time>2021-08-12T10:56:59Z</time><extensions><speed>1.498828</speed><course>80.368279</course><hAcc>0.884859</hAcc><vAcc>0.717694</vAcc></extensions></trkpt>
      <trkpt lon="-3.338315" lat="54.542867"><ele>246.799408</ele><time>2021-08-12T10:57:00Z</time><extensions><speed>1.498324</speed><course>78.982643</course><hAcc>0.884888</hAcc><vAcc>0.717821</vAcc></extensions></trkpt>
      <trkpt lon="-3.338292" lat="54.542865"><ele>246.732666</ele><time>2021-08-12T10:57:01Z</time><extensions><speed>1.493610</speed><course>81.075706</course><hAcc>0.884918</hAcc><vAcc>0.717943</vAcc></extensions></trkpt>
      <trkpt lon="-3.338269" lat="54.542864"><ele>246.670151</ele><time>2021-08-12T10:57:02Z</time><extensions><speed>1.484481</speed><course>81.007790</course><hAcc>0.884947</hAcc><vAcc>0.718058</vAcc></extensions></trkpt>
      <trkpt lon="-3.338246" lat="54.542864"><ele>246.611450</ele><time>2021-08-12T10:57:03Z</time><extensions><speed>1.470828</speed><course>78.272133</course><hAcc>0.884973</hAcc><vAcc>0.718164</vAcc></extensions></trkpt>
      <trkpt lon="-3.338224" lat="54.542864"><ele>246.556320</ele><time>2021-08-12T10:57:04Z</time><extensions><speed>1.453269</speed><course>73.069588</course><hAcc>0.884994</hAcc><vAcc>0.718258</vAcc></extensions></trkpt>
      <trkpt lon="-3.338201" lat="54.542864"><ele>246.505356</ele><time>2021-08-12T10:57:05Z</time><extensions><speed>1.432703</speed><course>77.189682</course><hAcc>0.885011</hAcc><vAcc>0.718336</vAcc></extensions></trkpt>
      <trkpt lon="-3.338179" lat="54.542864"><ele>246.459854</ele><time>2021-08-12T10:57:06Z</time><extensions><speed>1.409679</speed><course>75.197517</course><hAcc>0.885022</hAcc><vAcc>0.718392</vAcc></extensions></trkpt>
      <trkpt lon="-3.338158" lat="54.542865"><ele>246.421432</ele><time>2021-08-12T10:57:07Z</time><extensions><speed>1.384432</speed><course>67.733307</course><hAcc>0.885027</hAcc><vAcc>0.718421</vAcc></extensions></trkpt>
      <trkpt lon="-3.338137" lat="54.542866"><ele>246.391846</ele><time>2021-08-12T10:57:08Z</time><extensions><speed>1.357203</speed><course>69.123688</course><hAcc>0.885028</hAcc><vAcc>0.718419</vAcc></extensions></trkpt>
      <trkpt lon="-3.338116" lat="54.542868"><ele>246.372498</ele><time>2021-08-12T10:57:09Z</time><extensions><speed>1.328594</speed><course>71.299400</course><hAcc>0.885025</hAcc><vAcc>0.718386</vAcc></extensions></trkpt>
      <trkpt lon="-3.338096" lat="54.542870"><ele>246.364059</ele><time>2021-08-12T10:57:10Z</time><extensions><speed>1.299966</speed><course>77.479210</course><hAcc>0.885020</hAcc><vAcc>0.718329</vAcc></extensions></trkpt>
      <trkpt lon="-3.338077" lat="54.542872"><ele>246.366257</ele><time>2021-08-12T10:57:11Z</time><extensions><speed>1.273629</speed><course>68.623329</course><hAcc>0.885012</hAcc><vAcc>0.718257</vAcc></extensions></trkpt>
      <trkpt lon="-3.338058" lat="54.542874"><ele>246.378189</ele><time>2021-08-12T10:57:12Z</time><extensions><speed>1.252473</speed><course>63.866425</course><hAcc>0.885002</hAcc><vAcc>0.718183</vAcc></extensions></trkpt>
      <trkpt lon="-3.338039" lat="54.542876"><ele>246.398254</ele><time>2021-08-12T10:57:13Z</time><extensions><speed>1.239823</speed><course>76.291603</course><hAcc>0.884991</hAcc><vAcc>0.718116</vAcc></extensions></trkpt>
      <trkpt lon="-3.338020" lat="54.542879"><ele>246.424103</ele><time>2021-08-12T10:57:14Z</time><extensions><speed>1.237900</speed><course>71.777351</course><hAcc>0.884980</hAcc><vAcc>0.718063</vAcc></extensions></trkpt>
      <trkpt lon="-3.338001" lat="54.542881"><ele>246.452744</ele><time>2021-08-12T10:57:15Z</time><extensions><speed>1.246419</speed><course>76.476341</course><hAcc>0.884968</hAcc><vAcc>0.718027</vAcc></extensions></trkpt>
      <trkpt lon="-3.337982" lat="54.542884"><ele>246.480972</ele><time>2021-08-12T10:57:16Z</time><extensions><speed>1.263300</speed><course>63.346680</course><hAcc>0.884955</hAcc><vAcc>0.718006</vAcc></extensions></trkpt>
      <trkpt lon="-3.337963" lat="54.542887"><ele>246.505600</ele><time>2021-08-12T10:57:17Z</time><extensions><speed>1.285383</speed><course>60.883244</course><hAcc>0.884940</hAcc><vAcc>0.717992</vAcc></extensions></trkpt>
      <trkpt lon="-3.337944" lat="54.542889"><ele>246.523117</ele><time>2021-08-12T10:57:18Z</time><extensions><speed>1.308854</speed><course>66.100471</course><hAcc>0.884923</hAcc><vAcc>0.717974</vAcc></extensions></trkpt>
      <trkpt lon="-3.337924" lat="54.542892"><ele>246.529984</ele><time>2021-08-12T10:57:19Z</time><extensions><speed>1.330697</speed><course>66.284729</course><hAcc>0.884903</hAcc><vAcc>0.717941</vAcc></extensions></trkpt>
      <trkpt lon="-3.337904" lat="54.542894"><ele>246.523254</ele><time>2021-08-12T10:57:20Z</time><extensions><speed>1.348828</speed><course>70.183884</course><hAcc>0.884878</hAcc><vAcc>0.717885</vAcc></extensions></trkpt>
      <trkpt lon="-3.337883" lat="54.542897"><ele>246.501083</ele><time>2021-08-12T10:57:21Z</time><extensions><speed>1.362116</speed><course>69.091454</course><hAcc>0.884847</hAcc><vAcc>0.717796</vAcc></extensions></trkpt>
      <trkpt lon="-3.337863" lat="54.542900"><ele>246.463211</ele><time>2021-08-12T10:57:22Z</time><extensions><speed>1.370301</speed><course>67.595528</course><hAcc>0.884810</hAcc><vAcc>0.717670</vAcc></extensions></trkpt>
      <trkpt lon="-3.337842" lat="54.542902"><ele>246.410782</ele><time>2021-08-12T10:57:23Z</time><extensions><speed>1.373429</speed><course>69.079941</course><hAcc>0.884768</hAcc><vAcc>0.717506</vAcc></extensions></trkpt>
      <trkpt lon="-3.337821" lat="54.542905"><ele>246.345612</ele><time>2021-08-12T10:57:24Z</time><extensions><speed>1.371967</speed><course>67.638985</course><hAcc>0.884721</hAcc><vAcc>0.717304</vAcc></extensions></trkpt>
      <trkpt lon="-3.337801" lat="54.542908"><ele>246.269257</ele><time>2021-08-12T10:57:25Z</time><extensions><speed>1.366434</speed><course>67.902077</course><hAcc>0.884670</hAcc><vAcc>0.717073</vAcc></extensions></trkpt>
      <trkpt lon="-3.337780" lat="54.542910"><ele>246.182800</ele><time>2021-08-12T10:57:26Z</time><extensions><speed>1.357902</speed><course>68.213737</course><hAcc>0.884618</hAcc><vAcc>0.716824</vAcc></extensions></trkpt>
      <trkpt lon="-3.337760" lat="54.542913"><ele>246.086990</ele><time>2021-08-12T10:57:27Z</time><extensions><speed>1.348338</speed><course>58.646133</course><hAcc>0.884567</hAcc><vAcc>0.716572</vAcc></extensions></trkpt>
      <trkpt lon="-3.337739" lat="54.542915"><ele>245.982727</ele><time>2021-08-12T10:57:28Z</time><extensions><speed>1.339830</speed><course>60.787758</course><hAcc>0.884519</hAcc><vAcc>0.716333</vAcc></extensions></trkpt>
      <trkpt lon="-3.337719" lat="54.542918"><ele>245.871567</ele><time>2021-08-12T10:57:29Z</time><extensions><speed>1.334191</speed><course>59.107254</course><hAcc>0.884476</hAcc><vAcc>0.716124</vAcc></extensions></trkpt>
      <trkpt lon="-3.337699" lat="54.542920"><ele>245.755783</ele><time>2021-08-12T10:57:30Z</time><extensions><speed>1.333410</speed><course>59.308796</course><hAcc>0.884440</hAcc><vAcc>0.715954</vAcc></extensions></trkpt>
      <trkpt lon="-3.337679" lat="54.542923"><ele>245.637833</ele><time>2021-08-12T10:57:31Z</time><extensions><speed>1.339278</speed><course>63.536522</course><hAcc>0.884413</hAcc><vAcc>0.715831</vAcc></extensions></trkpt>
      <trkpt lon="-3.337658" lat="54.542925"><ele>245.519928</ele><time>2021-08-12T10:57:32Z</time><extensions><speed>1.352077</speed><course>64.110619</course><hAcc>0.884396</hAcc><vAcc>0.715760</vAcc></extensions></trkpt>
      <trkpt lon="-3.337638" lat="54.542928"><ele>245.403702</ele><time>2021-08-12T10:57:33Z</time><extensions><speed>1.369818</speed><course>57.783936</course><hAcc>0.884390</hAcc><vAcc>0.715741</vAcc></extensions></trkpt>
      <trkpt lon="-3.337617" lat="54.542930"><ele>245.289917</ele><time>2021-08-12T10:57:34Z</time><extensions><speed>1.389924</speed><course>62.673740</course><hAcc>0.884394</hAcc><vAcc>0.715773</vAcc></extensions></trkpt>
      <trkpt lon="-3.337596" lat="54.542932"><ele>245.178711</ele><time>2021-08-12T10:57:35Z</time><extensions><speed>1.410612</speed><course>68.268181</course><hAcc>0.884410</hAcc><vAcc>0.715853</vAcc></extensions></trkpt>
      <trkpt lon="-3.337574" lat="54.542935"><ele>245.070145</ele><time>2021-08-12T10:57:36Z</time><extensions><speed>1.430531</speed><course>59.735432</course><hAcc>0.884438</hAcc><vAcc>0.715975</vAcc></extensions></trkpt>
      <trkpt lon="-3.337552" lat="54.542937"><ele>244.964111</ele><time>2021-08-12T10:57:37Z</time><extensions><speed>1.449193</speed><course>59.192490</course><hAcc>0.884480</hAcc><vAcc>0.716136</vAcc></extensions></trkpt>
      <trkpt lon="-3.337530" lat="54.542940"><ele>244.860168</ele><time>2021-08-12T10:57:38Z</time><extensions><speed>1.466697</speed><course>60.825825</course><hAcc>0.884540</hAcc><vAcc>0.716337</vAcc></extensions></trkpt>
      <trkpt lon="-3.337508" lat="54.542943"><ele>244.757782</ele><time>2021-08-12T10:57:39Z</time><extensions><speed>1.482978</speed><course>62.921200</course><hAcc>0.884625</hAcc><vAcc>0.716581</vAcc></extensions></trkpt>
      <trkpt lon="-3.337485" lat="54.542945"><ele>244.656296</ele><time>2021-08-12T10:57:40Z</time><extensions><speed>1.497865</speed><course>59.145714</course><hAcc>0.884746</hAcc><vAcc>0.716880</vAcc></extensions></trkpt>
      <trkpt lon="-3.337463" lat="54.542948"><ele>244.554642</ele><time>2021-08-12T10:57:41Z</time><extensions><speed>1.511176</speed><course>54.852036</course><hAcc>0.884918</hAcc><vAcc>0.717248</vAcc></extensions></trkpt>
      <trkpt lon="-3.337440" lat="54.542951"><ele>244.451721</ele><time>2021-08-12T10:57:42Z</time><extensions><speed>1.522694</speed><course>52.958679</course><hAcc>0.885163</hAcc><vAcc>0.717705</vAcc></extensions></trkpt>
      <trkpt lon="-3.337417" lat="54.542954"><ele>244.347534</ele><time>2021-08-12T10:57:43Z</time><extensions><speed>1.531963</speed><course>51.642593</course><hAcc>0.885510</hAcc><vAcc>0.718272</vAcc></extensions></trkpt>
      <trkpt lon="-3.337393" lat="54.542957"><ele>244.243042</ele><time>2021-08-12T10:57:44Z</time><extensions><speed>1.538705</speed><course>50.915668</course><hAcc>0.885994</hAcc><vAcc>0.718973</vAcc></extensions></trkpt>
      <trkpt lon="-3.337370" lat="54.542960"><ele>244.139236</ele><time>2021-08-12T10:57:45Z</time><extensions><speed>1.542955</speed><course>43.517220</course><hAcc>0.886653</hAcc><vAcc>0.719832</vAcc></extensions></trkpt>
      <trkpt lon="-3.337347" lat="54.542962"><ele>244.036880</ele><time>2021-08-12T10:57:46Z</time><extensions><speed>1.544469</speed><course>53.213661</course><hAcc>0.887529</hAcc><vAcc>0.720869</vAcc></extensions></trkpt>
      <trkpt lon="-3.337323" lat="54.542965"><ele>243.936462</ele><time>2021-08-12T10:57:47Z</time><extensions><speed>1.542959</speed><course>42.672325</course><hAcc>0.888657</hAcc><vAcc>0.722096</vAcc></extensions></trkpt>
      <trkpt lon="-3.337300" lat="54.542968"><ele>243.837967</ele><time>2021-08-12T10:57:48Z</time><extensions><speed>1.538127</speed><course>57.842590</course><hAcc>0.890063</hAcc><vAcc>0.723509</vAcc></extensions></trkpt>
      <trkpt lon="-3.337277" lat="54.542970"><ele>243.740997</ele><time>2021-08-12T10:57:49Z</time><extensions><speed>1.529924</speed><course>54.432369</course><hAcc>0.891750</hAcc><vAcc>0.725079</vAcc></extensions></trkpt>
      <trkpt lon="-3.337253" lat="54.542973"><ele>243.645126</ele><time>2021-08-12T10:57:50Z</time><extensions><speed>1.518693</speed><course>53.099045</course><hAcc>0.893686</hAcc><vAcc>0.726745</vAcc></extensions></trkpt>
      <trkpt lon="-3.337230" lat="54.542975"><ele>243.550095</ele><time>2021-08-12T10:57:51Z</time><extensions><speed>1.504698</speed><course>52.709480</course><hAcc>0.895797</hAcc><vAcc>0.728411</vAcc></extensions></trkpt>
      <trkpt lon="-3.337208" lat="54.542977"><ele>243.455948</ele><time>2021-08-12T10:57:52Z</time><extensions><speed>1.488686</speed><course>55.566643</course><hAcc>0.897958</hAcc><vAcc>0.729949</vAcc></extensions></trkpt>
      <trkpt lon="-3.337185" lat="54.542979"><ele>243.363052</ele><time>2021-08-12T10:57:53Z</time><extensions><speed>1.471789</speed><course>50.999676</course><hAcc>0.899994</hAcc><vAcc>0.731221</vAcc></extensions></trkpt>
      <trkpt lon="-3.337163" lat="54.542981"><ele>243.272079</ele><time>2021-08-12T10:57:54Z</time><extensions><speed>1.454207</speed><course>49.932701</course><hAcc>0.901705</hAcc><vAcc>0.732113</vAcc></extensions></trkpt>
      <trkpt lon="-3.337140" lat="54.542982"><ele>243.184448</ele><time>2021-08-12T10:57:55Z</time><extensions><speed>1.435646</speed><course>44.103298</course><hAcc>0.902919</hAcc><vAcc>0.732594</vAcc></extensions></trkpt>
      <trkpt lon="-3.337118" lat="54.542983"><ele>243.101913</ele><time>2021-08-12T10:57:56Z</time><extensions><speed>1.416356</speed><course>35.959499</course><hAcc>0.903588</hAcc><vAcc>0.732818</vAcc></extensions></trkpt>
      <trkpt lon="-3.337097" lat="54.542984"><ele>243.026215</ele><time>2021-08-12T10:57:57Z</time><extensions><speed>1.396730</speed><course>30.952709</course><hAcc>0.903960</hAcc><vAcc>0.733270</vAcc></extensions></trkpt>
      <trkpt lon="-3.337075" lat="54.542985"><ele>242.958618</ele><time>2021-08-12T10:57:58Z</time><extensions><speed>1.377054</speed><course>43.709347</course><hAcc>0.904831</hAcc><vAcc>0.734965</vAcc></extensions></trkpt>
      <trkpt lon="-3.337054" lat="54.542985"><ele>242.899414</ele><time>2021-08-12T10:57:59Z</time><extensions><speed>1.357913</speed><course>37.574459</course><hAcc>0.907907</hAcc><vAcc>0.739679</vAcc></extensions></trkpt>
      <trkpt lon="-3.337033" lat="54.542984"><ele>242.848114</ele><time>2021-08-12T10:58:00Z</time><extensions><speed>1.340244</speed><course>40.028488</course><hAcc>0.916239</hAcc><vAcc>0.750184</vAcc></extensions></trkpt>
      <trkpt lon="-3.337013" lat="54.542984"><ele>242.804245</ele><time>2021-08-12T10:58:01Z</time><extensions><speed>1.324669</speed><course>39.088745</course><hAcc>0.934638</hAcc><vAcc>0.770366</vAcc></extensions></trkpt>
      <trkpt lon="-3.336993" lat="54.542983"><ele>242.767258</ele><time>2021-08-12T10:58:02Z</time><extensions><speed>1.311189</speed><course>38.227211</course><hAcc>0.969809</hAcc><vAcc>0.805074</vAcc></extensions></trkpt>
      <trkpt lon="-3.336978" lat="54.542971"><ele>242.774643</ele><time>2021-08-12T10:58:03Z</time><extensions><speed>1.376584</speed><course>74.967865</course><hAcc>0.932086</hAcc><vAcc>0.769767</vAcc></extensions></trkpt>
      <trkpt lon="-3.336963" lat="54.542962"><ele>242.791412</ele><time>2021-08-12T10:58:04Z</time><extensions><speed>1.380902</speed><course>75.133301</course><hAcc>0.913050</hAcc><vAcc>0.748821</vAcc></extensions></trkpt>
      <trkpt lon="-3.336950" lat="54.542953"><ele>242.809570</ele><time>2021-08-12T10:58:05Z</time><extensions><speed>1.385085</speed><course>66.099251</course><hAcc>0.905250</hAcc><vAcc>0.738534</vAcc></extensions></trkpt>
      <trkpt lon="-3.336937" lat="54.542943"><ele>242.828751</ele><time>2021-08-12T10:58:06Z</time><extensions><speed>1.388976</speed><course>81.237114</course><hAcc>0.903192</hAcc><vAcc>0.734562</vAcc></extensions></trkpt>
      <trkpt lon="-3.336925" lat="54.542932"><ele>242.848022</ele><time>2021-08-12T10:58:07Z</time><extensions><speed>1.391826</speed><course>80.566093</course><hAcc>0.903398</hAcc><vAcc>0.733797</vAcc></extensions></trkpt>
      <trkpt lon="-3.336913" lat="54.542922"><ele>242.865616</ele><time>2021-08-12T10:58:08Z</time><extensions><speed>1.392503</speed><course>80.566109</course><hAcc>0.903940</hAcc><vAcc>0.734245</vAcc></extensions></trkpt>
      <trkpt lon="-3.336902" lat="54.542911"><ele>242.879349</ele><time>2021-08-12T10:58:09Z</time><extensions><speed>1.389669</speed><course>80.566093</course><hAcc>0.903939</hAcc><vAcc>0.734772</vAcc></extensions></trkpt>
      <trkpt lon="-3.336892" lat="54.542900"><ele>242.887024</ele><time>2021-08-12T10:58:10Z</time><extensions><speed>1.381792</speed><course>80.566093</course><hAcc>0.903146</hAcc><vAcc>0.734841</vAcc></extensions></trkpt>
      <trkpt lon="-3.336883" lat="54.542889"><ele>242.886688</ele><time>2021-08-12T10:58:11Z</time><extensions><speed>1.367651</speed><course>80.566093</course><hAcc>0.901642</hAcc><vAcc>0.734293</vAcc></extensions></trkpt>
      <trkpt lon="-3.336873" lat="54.542878"><ele>242.876785</ele><time>2021-08-12T10:58:12Z</time><extensions><speed>1.346295</speed><course>77.344681</course><hAcc>0.899653</hAcc><vAcc>0.733183</vAcc></extensions></trkpt>
      <trkpt lon="-3.336865" lat="54.542867"><ele>242.856110</ele><time>2021-08-12T10:58:13Z</time><extensions><speed>1.317242</speed><course>77.923714</course><hAcc>0.897431</hAcc><vAcc>0.731664</vAcc></extensions></trkpt>
      <trkpt lon="-3.336857" lat="54.542856"><ele>242.824051</ele><time>2021-08-12T10:58:14Z</time><extensions><speed>1.280504</speed><course>87.073212</course><hAcc>0.895194</hAcc><vAcc>0.729916</vAcc></extensions></trkpt>
      <trkpt lon="-3.336849" lat="54.542846"><ele>242.780960</ele><time>2021-08-12T10:58:15Z</time><extensions><speed>1.236413</speed><course>79.233902</course><hAcc>0.893103</hAcc><vAcc>0.728107</vAcc></extensions></trkpt>
      <trkpt lon="-3.336842" lat="54.542836"><ele>242.728104</ele><time>2021-08-12T10:58:16Z</time><extensions><speed>1.185643</speed><course>96.572746</course><hAcc>0.891259</hAcc><vAcc>0.726369</vAcc></extensions></trkpt>
      <trkpt lon="-3.336835" lat="54.542826"><ele>242.667404</ele><time>2021-08-12T10:58:17Z</time><extensions><speed>1.129385</speed><course>86.920219</course><hAcc>0.889705</hAcc><vAcc>0.724791</vAcc></extensions></trkpt>
      <trkpt lon="-3.336829" lat="54.542817"><ele>242.601089</ele><time>2021-08-12T10:58:18Z</time><extensions><speed>1.069201</speed><course>76.786201</course><hAcc>0.888445</hAcc><vAcc>0.723423</vAcc></extensions></trkpt>
      <trkpt lon="-3.336823" lat="54.542808"><ele>242.531418</ele><time>2021-08-12T10:58:19Z</time><extensions><speed>1.006135</speed><course>77.162971</course><hAcc>0.887458</hAcc><vAcc>0.722276</vAcc></extensions></trkpt>
      <trkpt lon="-3.336818" lat="54.542800"><ele>242.460632</ele><time>2021-08-12T10:58:20Z</time><extensions><speed>0.941013</speed><course>69.604996</course><hAcc>0.886705</hAcc><vAcc>0.721333</vAcc></extensions></trkpt>
      <trkpt lon="-3.336813" lat="54.542793"><ele>242.391113</ele><time>2021-08-12T10:58:21Z</time><extensions><speed>0.875769</speed><course>76.115456</course><hAcc>0.886143</hAcc><vAcc>0.720554</vAcc></extensions></trkpt>
      <trkpt lon="-3.336809" lat="54.542785"><ele>242.325104</ele><time>2021-08-12T10:58:22Z</time><extensions><speed>0.813402</speed><course>83.646278</course><hAcc>0.885730</hAcc><vAcc>0.719894</vAcc></extensions></trkpt>
      <trkpt lon="-3.336805" lat="54.542779"><ele>242.264236</ele><time>2021-08-12T10:58:23Z</time><extensions><speed>0.757590</speed><course>76.408623</course><hAcc>0.885428</hAcc><vAcc>0.719310</vAcc></extensions></trkpt>
      <trkpt lon="-3.336801" lat="54.542773"><ele>242.209686</ele><time>2021-08-12T10:58:24Z</time><extensions><speed>0.712456</speed><course>79.439453</course><hAcc>0.885207</hAcc><vAcc>0.718769</vAcc></extensions></trkpt>
      <trkpt lon="-3.336797" lat="54.542767"><ele>242.162216</ele><time>2021-08-12T10:58:25Z</time><extensions><speed>0.681927</speed><course>75.300941</course><hAcc>0.885044</hAcc><vAcc>0.718257</vAcc></extensions></trkpt>
      <trkpt lon="-3.336793" lat="54.542761"><ele>242.122253</ele><time>2021-08-12T10:58:26Z</time><extensions><speed>0.668940</speed><course>76.126534</course><hAcc>0.884923</hAcc><vAcc>0.717777</vAcc></extensions></trkpt>
      <trkpt lon="-3.336788" lat="54.542756"><ele>242.089874</ele><time>2021-08-12T10:58:27Z</time><extensions><speed>0.675326</speed><course>75.233688</course><hAcc>0.884833</hAcc><vAcc>0.717349</vAcc></extensions></trkpt>
      <trkpt lon="-3.336783" lat="54.542750"><ele>242.064804</ele><time>2021-08-12T10:58:28Z</time><extensions><speed>0.701619</speed><course>81.891060</course><hAcc>0.884767</hAcc><vAcc>0.717000</vAcc></extensions></trkpt>
      <trkpt lon="-3.336776" lat="54.542745"><ele>242.046707</ele><time>2021-08-12T10:58:29Z</time><extensions><speed>0.746530</speed><course>78.263519</course><hAcc>0.884721</hAcc><vAcc>0.716757</vAcc></extensions></trkpt>
      <trkpt lon="-3.336769" lat="54.542739"><ele>242.035583</ele><time>2021-08-12T10:58:30Z</time><extensions><speed>0.807116</speed><course>74.907532</course><hAcc>0.884695</hAcc><vAcc>0.716637</vAcc></extensions></trkpt>
      <trkpt lon="-3.336761" lat="54.542734"><ele>242.031204</ele><time>2021-08-12T10:58:31Z</time><extensions><speed>0.879000</speed><course>84.941742</course><hAcc>0.884688</hAcc><vAcc>0.716638</vAcc></extensions></trkpt>
      <trkpt lon="-3.336751" lat="54.542728"><ele>242.032791</ele><time>2021-08-12T10:58:32Z</time><extensions><speed>0.957512</speed><course>73.584358</course><hAcc>0.884700</hAcc><vAcc>0.716746</vAcc></extensions></trkpt>
      <trkpt lon="-3.336741" lat="54.542721"><ele>242.039322</ele><time>2021-08-12T10:58:33Z</time><extensions><speed>1.038980</speed><course>96.346313</course><hAcc>0.884730</hAcc><vAcc>0.716941</vAcc></extensions></trkpt>
      <trkpt lon="-3.336729" lat="54.542714"><ele>242.049789</ele><time>2021-08-12T10:58:34Z</time><extensions><speed>1.120191</speed><course>87.208282</course><hAcc>0.884776</hAcc><vAcc>0.717200</vAcc></extensions></trkpt>
      <trkpt lon="-3.336716" lat="54.542707"><ele>242.062943</ele><time>2021-08-12T10:58:35Z</time><extensions><speed>1.197633</speed><course>71.034035</course><hAcc>0.884836</hAcc><vAcc>0.717502</vAcc></extensions></trkpt>
      <trkpt lon="-3.336701" lat="54.542700"><ele>242.077225</ele><time>2021-08-12T10:58:36Z</time><extensions><speed>1.268475</speed><course>74.315559</course><hAcc>0.884905</hAcc><vAcc>0.717828</vAcc></extensions></trkpt>
      <trkpt lon="-3.336686" lat="54.542692"><ele>242.091171</ele><time>2021-08-12T10:58:37Z</time><extensions><speed>1.331009</speed><course>82.074326</course><hAcc>0.884981</hAcc><vAcc>0.718163</vAcc></extensions></trkpt>
      <trkpt lon="-3.336670" lat="54.542685"><ele>242.103592</ele><time>2021-08-12T10:58:38Z</time><extensions><speed>1.383697</speed><course>78.798851</course><hAcc>0.885060</hAcc><vAcc>0.718494</vAcc></extensions></trkpt>
      <trkpt lon="-3.336653" lat="54.542677"><ele>242.113541</ele><time>2021-08-12T10:58:39Z</time><extensions><speed>1.425041</speed><course>71.049065</course><hAcc>0.885137</hAcc><vAcc>0.718810</vAcc></extensions></trkpt>
      <trkpt lon="-3.336636" lat="54.542668"><ele>242.120575</ele><time>2021-08-12T10:58:40Z</time><extensions><speed>1.454682</speed><course>66.417450</course><hAcc>0.885213</hAcc><vAcc>0.719102</vAcc></extensions></trkpt>
      <trkpt lon="-3.336618" lat="54.542660"><ele>242.124908</ele><time>2021-08-12T10:58:41Z</time><extensions><speed>1.472808</speed><course>67.881187</course><hAcc>0.885283</hAcc><vAcc>0.719362</vAcc></extensions></trkpt>
      <trkpt lon="-3.336600" lat="54.542652"><ele>242.127121</ele><time>2021-08-12T10:58:42Z</time><extensions><speed>1.479672</speed><course>73.946594</course><hAcc>0.885348</hAcc><vAcc>0.719588</vAcc></extensions></trkpt>
      <trkpt lon="-3.336583" lat="54.542643"><ele>242.127930</ele><time>2021-08-12T10:58:43Z</time><extensions><speed>1.475883</speed><course>66.868568</course><hAcc>0.885407</hAcc><vAcc>0.719780</vAcc></extensions></trkpt>
      <trkpt lon="-3.336566" lat="54.542635"><ele>242.128113</ele><time>2021-08-12T10:58:44Z</time><extensions><speed>1.462679</speed><course>57.370388</course><hAcc>0.885458</hAcc><vAcc>0.719944</vAcc></extensions></trkpt>
      <trkpt lon="-3.336549" lat="54.542626"><ele>242.128372</ele><time>2021-08-12T10:58:45Z</time><extensions><speed>1.441996</speed><course>72.859169</course><hAcc>0.885503</hAcc><vAcc>0.720085</vAcc></extensions></trkpt>
      <trkpt lon="-3.336533" lat="54.542617"><ele>242.129227</ele><time>2021-08-12T10:58:46Z</time><extensions><speed>1.415992</speed><course>73.476959</course><hAcc>0.885539</hAcc><vAcc>0.720209</vAcc></extensions></trkpt>
      <trkpt lon="-3.336517" lat="54.542609"><ele>242.131104</ele><time>2021-08-12T10:58:47Z</time><extensions><speed>1.386384</speed><course>70.985191</course><hAcc>0.885567</hAcc><vAcc>0.720318</vAcc></extensions></trkpt>
      <trkpt lon="-3.336502" lat="54.542600"><ele>242.134338</ele><time>2021-08-12T10:58:48Z</time><extensions><speed>1.353878</speed><course>67.094063</course><hAcc>0.885588</hAcc><vAcc>0.720411</vAcc></extensions></trkpt>
      <trkpt lon="-3.336488" lat="54.542591"><ele>242.138763</ele><time>2021-08-12T10:58:49Z</time><extensions><speed>1.319217</speed><course>63.802017</course><hAcc>0.885601</hAcc><vAcc>0.720482</vAcc></extensions></trkpt>
      <trkpt lon="-3.336475" lat="54.542582"><ele>242.143799</ele><time>2021-08-12T10:58:50Z</time><extensions><speed>1.283401</speed><course>59.738853</course><hAcc>0.885606</hAcc><vAcc>0.720523</vAcc></extensions></trkpt>
      <trkpt lon="-3.336463" lat="54.542573"><ele>242.149002</ele><time>2021-08-12T10:58:51Z</time><extensions><speed>1.247204</speed><course>64.752533</course><hAcc>0.885603</hAcc><vAcc>0.720529</vAcc></extensions></trkpt>
      <trkpt lon="-3.336451" lat="54.542565"><ele>242.154175</ele><time>2021-08-12T10:58:52Z</time><extensions><speed>1.211601</speed><course>62.678837</course><hAcc>0.885593</hAcc><vAcc>0.720497</vAcc></extensions></trkpt>
      <trkpt lon="-3.336440" lat="54.542556"><ele>242.159363</ele><time>2021-08-12T10:58:53Z</time><extensions><speed>1.177280</speed><course>67.622025</course><hAcc>0.885573</hAcc><vAcc>0.720423</vAcc></extensions></trkpt>
      <trkpt lon="-3.336430" lat="54.542547"><ele>242.164764</ele><time>2021-08-12T10:58:54Z</time><extensions><speed>1.144176</speed><course>76.998230</course><hAcc>0.885545</hAcc><vAcc>0.720311</vAcc></extensions></trkpt>
      <trkpt lon="-3.336420" lat="54.542539"><ele>242.170975</ele><time>2021-08-12T10:58:55Z</time><extensions><speed>1.112372</speed><course>71.279175</course><hAcc>0.885507</hAcc><vAcc>0.720166</vAcc></extensions></trkpt>
      <trkpt lon="-3.336411" lat="54.542531"><ele>242.179001</ele><time>2021-08-12T10:58:56Z</time><extensions><speed>1.082473</speed><course>66.215858</course><hAcc>0.885460</hAcc><vAcc>0.719992</vAcc></extensions></trkpt>
      <trkpt lon="-3.336403" lat="54.542522"><ele>242.190170</ele><time>2021-08-12T10:58:57Z</time><extensions><speed>1.056178</speed><course>65.869171</course><hAcc>0.885403</hAcc><vAcc>0.719790</vAcc></extensions></trkpt>
      <trkpt lon="-3.336395" lat="54.542514"><ele>242.206009</ele><time>2021-08-12T10:58:58Z</time><extensions><speed>1.035762</speed><course>67.480362</course><hAcc>0.885339</hAcc><vAcc>0.719560</vAcc></extensions></trkpt>
      <trkpt lon="-3.336389" lat="54.542506"><ele>242.228027</ele><time>2021-08-12T10:58:59Z</time><extensions><speed>1.022835</speed><course>62.467888</course><hAcc>0.885268</hAcc><vAcc>0.719301</vAcc></extensions></trkpt>
      <trkpt lon="-3.336383" lat="54.542497"><ele>242.257370</ele><time>2021-08-12T10:59:00Z</time><extensions><speed>1.017742</speed><course>57.403885</course><hAcc>0.885194</hAcc><vAcc>0.719015</vAcc></extensions></trkpt>
      <trkpt lon="-3.336378" lat="54.542489"><ele>242.294678</ele><time>2021-08-12T10:59:01Z</time><extensions><speed>1.019133</speed><course>56.104736</course><hAcc>0.885119</hAcc><vAcc>0.718705</vAcc></extensions></trkpt>
      <trkpt lon="-3.336373" lat="54.542480"><ele>242.340118</ele><time>2021-08-12T10:59:02Z</time><extensions><speed>1.024781</speed><course>57.135769</course><hAcc>0.885046</hAcc><vAcc>0.718382</vAcc></extensions></trkpt>
      <trkpt lon="-3.336368" lat="54.542471"><ele>242.393433</ele><time>2021-08-12T10:59:03Z</time><extensions><speed>1.032578</speed><course>59.466648</course><hAcc>0.884977</hAcc><vAcc>0.718066</vAcc></extensions></trkpt>
      <trkpt lon="-3.336364" lat="54.542462"><ele>242.454193</ele><time>2021-08-12T10:59:04Z</time><extensions><speed>1.041103</speed><course>56.466339</course><hAcc>0.884915</hAcc><vAcc>0.717777</vAcc></extensions></trkpt>
      <trkpt lon="-3.336359" lat="54.542453"><ele>242.521896</ele><time>2021-08-12T10:59:05Z</time><extensions><speed>1.049635</speed><course>61.082169</course><hAcc>0.884863</hAcc><vAcc>0.717537</vAcc></extensions></trkpt>
      <trkpt lon="-3.336354" lat="54.542444"><ele>242.595871</ele><time>2021-08-12T10:59:06Z</time><extensions><speed>1.058801</speed><course>63.000797</course><hAcc>0.884822</hAcc><vAcc>0.717357</vAcc></extensions></trkpt>
      <trkpt lon="-3.336347" lat="54.542435"><ele>242.675247</ele><time>2021-08-12T10:59:07Z</time><extensions><speed>1.069839</speed><course>58.373146</course><hAcc>0.884795</hAcc><vAcc>0.717241</vAcc></extensions></trkpt>
      <trkpt lon="-3.336340" lat="54.542427"><ele>242.758896</ele><time>2021-08-12T10:59:08Z</time><extensions><speed>1.083296</speed><course>59.591164</course><hAcc>0.884783</hAcc><vAcc>0.717191</vAcc></extensions></trkpt>
      <trkpt lon="-3.336332" lat="54.542418"><ele>242.845505</ele><time>2021-08-12T10:59:09Z</time><extensions><speed>1.099145</speed><course>56.078835</course><hAcc>0.884786</hAcc><vAcc>0.717207</vAcc></extensions></trkpt>
      <trkpt lon="-3.336323" lat="54.542410"><ele>242.933640</ele><time>2021-08-12T10:59:10Z</time><extensions><speed>1.117411</speed><course>61.452141</course><hAcc>0.884804</hAcc><vAcc>0.717290</vAcc></extensions></trkpt>
      <trkpt lon="-3.336312" lat="54.542402"><ele>243.021942</ele><time>2021-08-12T10:59:11Z</time><extensions><speed>1.138630</speed><course>62.349373</course><hAcc>0.884833</hAcc><vAcc>0.717432</vAcc></extensions></trkpt>
      <trkpt lon="-3.336300" lat="54.542394"><ele>243.109451</ele><time>2021-08-12T10:59:12Z</time><extensions><speed>1.162630</speed><course>67.502327</course><hAcc>0.884871</hAcc><vAcc>0.717626</vAcc></extensions></trkpt>
      <trkpt lon="-3.336287" lat="54.542387"><ele>243.195663</ele><time>2021-08-12T10:59:13Z</time><extensions><speed>1.188211</speed><course>65.148994</course><hAcc>0.884914</hAcc><vAcc>0.717856</vAcc></extensions></trkpt>
      <trkpt lon="-3.336273" lat="54.542379"><ele>243.280258</ele><time>2021-08-12T10:59:14Z</time><extensions><speed>1.213263</speed><course>61.604351</course><hAcc>0.884957</hAcc><vAcc>0.718099</vAcc></extensions></trkpt>
      <trkpt lon="-3.336258" lat="54.542373"><ele>243.363068</ele><time>2021-08-12T10:59:15Z</time><extensions><speed>1.234779</speed><course>67.356651</course><hAcc>0.884996</hAcc><vAcc>0.718332</vAcc></extensions></trkpt>
      <trkpt lon="-3.336243" lat="54.542366"><ele>243.444107</ele><time>2021-08-12T10:59:16Z</time><extensions><speed>1.250602</speed><course>56.187717</course><hAcc>0.885025</hAcc><vAcc>0.718525</vAcc></extensions></trkpt>
      <trkpt lon="-3.336227" lat="54.542360"><ele>243.523529</ele><time>2021-08-12T10:59:17Z</time><extensions><speed>1.259700</speed><course>56.273357</course><hAcc>0.885040</hAcc><vAcc>0.718655</vAcc></extensions></trkpt>
      <trkpt lon="-3.336210" lat="54.542354"><ele>243.601471</ele><time>2021-08-12T10:59:18Z</time><extensions><speed>1.261125</speed><course>59.042984</course><hAcc>0.885034</hAcc><vAcc>0.718701</vAcc></extensions></trkpt>
      <trkpt lon="-3.336193" lat="54.542349"><ele>243.677795</ele><time>2021-08-12T10:59:19Z</time><extensions><speed>1.255228</speed><course>46.754299</course><hAcc>0.885004</hAcc><vAcc>0.718644</vAcc></extensions></trkpt>
      <trkpt lon="-3.336176" lat="54.542343"><ele>243.752075</ele><time>2021-08-12T10:59:20Z</time><extensions><speed>1.243496</speed><course>46.754295</course><hAcc>0.884946</hAcc><vAcc>0.718471</vAcc></extensions></trkpt>
      <trkpt lon="-3.336159" lat="54.542338"><ele>243.823685</ele><time>2021-08-12T10:59:21Z</time><extensions><speed>1.227699</speed><course>46.754295</course><hAcc>0.884858</hAcc><vAcc>0.718167</vAcc></extensions></trkpt>
      <trkpt lon="-3.336142" lat="54.542333"><ele>243.892090</ele><time>2021-08-12T10:59:22Z</time><extensions><speed>1.210165</speed><course>46.754295</course><hAcc>0.884737</hAcc><vAcc>0.717728</vAcc></extensions></trkpt>
      <trkpt lon="-3.336125" lat="54.542329"><ele>243.956772</ele><time>2021-08-12T10:59:23Z</time><extensions><speed>1.193707</speed><course>46.754295</course><hAcc>0.884583</hAcc><vAcc>0.717154</vAcc></extensions></trkpt>
      <trkpt lon="-3.336108" lat="54.542325"><ele>244.017471</ele><time>2021-08-12T10:59:24Z</time><extensions><speed>1.180695</speed><course>46.754295</course><hAcc>0.884396</hAcc><vAcc>0.716449</vAcc></extensions></trkpt>
      <trkpt lon="-3.336091" lat="54.542321"><ele>244.074173</ele><time>2021-08-12T10:59:25Z</time><extensions><speed>1.172614</speed><course>46.754295</course><hAcc>0.884176</hAcc><vAcc>0.715622</vAcc></extensions></trkpt>
      <trkpt lon="-3.336074" lat="54.542318"><ele>244.127045</ele><time>2021-08-12T10:59:26Z</time><extensions><speed>1.170627</speed><course>46.754292</course><hAcc>0.883925</hAcc><vAcc>0.714682</vAcc></extensions></trkpt>
      <trkpt lon="-3.336056" lat="54.542315"><ele>244.176300</ele><time>2021-08-12T10:59:27Z</time><extensions><speed>1.175463</speed><course>46.754295</course><hAcc>0.883647</hAcc><vAcc>0.713641</vAcc></extensions></trkpt>
      <trkpt lon="-3.336039" lat="54.542313"><ele>244.222183</ele><time>2021-08-12T10:59:28Z</time><extensions><speed>1.187141</speed><course>86.257805</course><hAcc>0.883345</hAcc><vAcc>0.712512</vAcc></extensions></trkpt>
      <trkpt lon="-3.336020" lat="54.542311"><ele>244.264954</ele><time>2021-08-12T10:59:29Z</time><extensions><speed>1.204786</speed><course>92.864906</course><hAcc>0.883023</hAcc><vAcc>0.711310</vAcc></extensions></trkpt>
      <trkpt lon="-3.336002" lat="54.542309"><ele>244.304581</ele><time>2021-08-12T10:59:30Z</time><extensions><speed>1.226291</speed><course>94.458534</course><hAcc>0.882687</hAcc><vAcc>0.710052</vAcc></extensions></trkpt>
      <trkpt lon="-3.335983" lat="54.542308"><ele>244.340591</ele><time>2021-08-12T10:59:31Z</time><extensions><speed>1.249261</speed><course>89.165138</course><hAcc>0.882343</hAcc><vAcc>0.708753</vAcc></extensions></trkpt>
      <trkpt lon="-3.335963" lat="54.542308"><ele>244.372253</ele><time>2021-08-12T10:59:32Z</time><extensions><speed>1.271944</speed><course>98.187202</course><hAcc>0.881997</hAcc><vAcc>0.707433</vAcc></extensions></trkpt>
      <trkpt lon="-3.335944" lat="54.542308"><ele>244.398773</ele><time>2021-08-12T10:59:33Z</time><extensions><speed>1.292564</speed><course>262.094696</course><hAcc>0.881658</hAcc><vAcc>0.706117</vAcc></extensions></trkpt>
      <trkpt lon="-3.335923" lat="54.542308"><ele>244.419571</ele><time>2021-08-12T10:59:34Z</time><extensions><speed>1.309619</speed><course>273.339569</course><hAcc>0.881332</hAcc><vAcc>0.704835</vAcc></extensions></trkpt>
      <trkpt lon="-3.335903" lat="54.542309"><ele>244.434616</ele><time>2021-08-12T10:59:35Z</time><extensions><speed>1.322069</speed><course>270.133057</course><hAcc>0.881027</hAcc><vAcc>0.703622</vAcc></extensions></trkpt>
      <trkpt lon="-3.335883" lat="54.542310"><ele>244.444489</ele><time>2021-08-12T10:59:36Z</time><extensions><speed>1.330173</speed><course>264.401459</course><hAcc>0.880749</hAcc><vAcc>0.702521</vAcc></extensions></trkpt>
      <trkpt lon="-3.335862" lat="54.542312"><ele>244.450134</ele><time>2021-08-12T10:59:37Z</time><extensions><speed>1.334710</speed><course>271.206299</course><hAcc>0.880503</hAcc><vAcc>0.701568</vAcc></extensions></trkpt>
      <trkpt lon="-3.335842" lat="54.542313"><ele>244.452942</ele><time>2021-08-12T10:59:38Z</time><extensions><speed>1.334687</speed><course>270.479279</course><hAcc>0.880293</hAcc><vAcc>0.700785</vAcc></extensions></trkpt>
      <trkpt lon="-3.335822" lat="54.542315"><ele>244.454529</ele><time>2021-08-12T10:59:39Z</time><extensions><speed>1.329073</speed><course>270.479279</course><hAcc>0.880118</hAcc><vAcc>0.700176</vAcc></extensions></trkpt>
      <trkpt lon="-3.335802" lat="54.542317"><ele>244.456345</ele><time>2021-08-12T10:59:40Z</time><extensions><speed>1.318437</speed><course>270.479279</course><hAcc>0.879978</hAcc><vAcc>0.699731</vAcc></extensions></trkpt>
      <trkpt lon="-3.335782" lat="54.542320"><ele>244.459030</ele><time>2021-08-12T10:59:41Z</time><extensions><speed>1.304906</speed><course>92.836548</course><hAcc>0.879869</hAcc><vAcc>0.699423</vAcc></extensions></trkpt>
      <trkpt lon="-3.335762" lat="54.542322"><ele>244.462173</ele><time>2021-08-12T10:59:42Z</time><extensions><speed>1.290697</speed><course>91.847809</course><hAcc>0.879786</hAcc><vAcc>0.699219</vAcc></extensions></trkpt>
      <trkpt lon="-3.335743" lat="54.542324"><ele>244.464798</ele><time>2021-08-12T10:59:43Z</time><extensions><speed>1.276676</speed><course>96.972961</course><hAcc>0.879725</hAcc><vAcc>0.699079</vAcc></extensions></trkpt>
      <trkpt lon="-3.335723" lat="54.542327"><ele>244.465820</ele><time>2021-08-12T10:59:44Z</time><extensions><speed>1.263036</speed><course>101.432434</course><hAcc>0.879680</hAcc><vAcc>0.698968</vAcc></extensions></trkpt>
      <trkpt lon="-3.335704" lat="54.542329"><ele>244.464340</ele><time>2021-08-12T10:59:45Z</time><extensions><speed>1.249771</speed><course>89.921867</course><hAcc>0.879647</hAcc><vAcc>0.698870</vAcc></extensions></trkpt>
      <trkpt lon="-3.335686" lat="54.542332"><ele>244.459763</ele><time>2021-08-12T10:59:46Z</time><extensions><speed>1.237425</speed><course>79.468422</course><hAcc>0.879624</hAcc><vAcc>0.698779</vAcc></extensions></trkpt>
      <trkpt lon="-3.335667" lat="54.542334"><ele>244.451340</ele><time>2021-08-12T10:59:47Z</time><extensions><speed>1.226901</speed><course>79.668663</course><hAcc>0.879609</hAcc><vAcc>0.698699</vAcc></extensions></trkpt>
      <trkpt lon="-3.335649" lat="54.542337"><ele>244.438141</ele><time>2021-08-12T10:59:48Z</time><extensions><speed>1.218775</speed><course>70.198914</course><hAcc>0.879602</hAcc><vAcc>0.698639</vAcc></extensions></trkpt>
      <trkpt lon="-3.335631" lat="54.542340"><ele>244.419647</ele><time>2021-08-12T10:59:49Z</time><extensions><speed>1.213455</speed><course>85.811096</course><hAcc>0.879603</hAcc><vAcc>0.698607</vAcc></extensions></trkpt>
      <trkpt lon="-3.335613" lat="54.542343"><ele>244.395798</ele><time>2021-08-12T10:59:50Z</time><extensions><speed>1.210778</speed><course>87.515213</course><hAcc>0.879613</hAcc><vAcc>0.698609</vAcc></extensions></trkpt>
      <trkpt lon="-3.335595" lat="54.542346"><ele>244.367004</ele><time>2021-08-12T10:59:51Z</time><extensions><speed>1.210059</speed><course>86.802406</course><hAcc>0.879634</hAcc><vAcc>0.698655</vAcc></extensions></trkpt>
      <trkpt lon="-3.335577" lat="54.542348"><ele>244.334549</ele><time>2021-08-12T10:59:52Z</time><extensions><speed>1.211476</speed><course>85.424927</course><hAcc>0.879667</hAcc><vAcc>0.698754</vAcc></extensions></trkpt>
      <trkpt lon="-3.335558" lat="54.542351"><ele>244.300385</ele><time>2021-08-12T10:59:53Z</time><extensions><speed>1.216098</speed><course>88.911957</course><hAcc>0.879713</hAcc><vAcc>0.698917</vAcc></extensions></trkpt>
      <trkpt lon="-3.335540" lat="54.542353"><ele>244.265961</ele><time>2021-08-12T10:59:54Z</time><extensions><speed>1.224487</speed><course>93.027184</course><hAcc>0.879772</hAcc><vAcc>0.699145</vAcc></extensions></trkpt>
      <trkpt lon="-3.335521" lat="54.542355"><ele>244.232101</ele><time>2021-08-12T10:59:55Z</time><extensions><speed>1.235880</speed><course>90.763535</course><hAcc>0.879844</hAcc><vAcc>0.699433</vAcc></extensions></trkpt>
      <trkpt lon="-3.335502" lat="54.542357"><ele>244.199783</ele><time>2021-08-12T10:59:56Z</time><extensions><speed>1.248777</speed><course>83.392509</course><hAcc>0.879926</hAcc><vAcc>0.699769</vAcc></extensions></trkpt>
      <trkpt lon="-3.335483" lat="54.542358"><ele>244.170288</ele><time>2021-08-12T10:59:57Z</time><extensions><speed>1.261786</speed><course>57.334152</course><hAcc>0.880016</hAcc><vAcc>0.700136</vAcc></extensions></trkpt>
      <trkpt lon="-3.335463" lat="54.542359"><ele>244.144745</ele><time>2021-08-12T10:59:58Z</time><extensions><speed>1.273446</speed><course>29.254333</course><hAcc>0.880113</hAcc><vAcc>0.700519</vAcc></extensions></trkpt>
      <trkpt lon="-3.335444" lat="54.542359"><ele>244.123825</ele><time>2021-08-12T10:59:59Z</time><extensions><speed>1.282373</speed><course>29.254333</course><hAcc>0.880213</hAcc><vAcc>0.700909</vAcc></extensions></trkpt>
      <trkpt lon="-3.335424" lat="54.542359"><ele>244.107849</ele><time>2021-08-12T11:00:00Z</time><extensions><speed>1.287959</speed><course>29.254333</course><hAcc>0.880314</hAcc><vAcc>0.701296</vAcc></extensions></trkpt>
      <trkpt lon="-3.335404" lat="54.542359"><ele>244.096817</ele><time>2021-08-12T11:00:01Z</time><extensions><speed>1.289866</speed><course>29.254332</course><hAcc>0.880413</hAcc><vAcc>0.701674</vAcc></extensions></trkpt>
      <trkpt lon="-3.335384" lat="54.542358"><ele>244.090744</ele><time>2021-08-12T11:00:02Z</time><extensions><speed>1.286780</speed><course>29.254333</course><hAcc>0.880510</hAcc><vAcc>0.702036</vAcc></extensions></trkpt>
      <trkpt lon="-3.335364" lat="54.542357"><ele>244.089630</ele><time>2021-08-12T11:00:03Z</time><extensions><speed>1.276526</speed><course>29.254332</course><hAcc>0.880602</hAcc><vAcc>0.702374</vAcc></extensions></trkpt>
      <trkpt lon="-3.335345" lat="54.542355"><ele>244.093338</ele><time>2021-08-12T11:00:04Z</time><extensions><speed>1.257530</speed><course>29.254332</course><hAcc>0.880688</hAcc><vAcc>0.702686</vAcc></extensions></trkpt>
      <trkpt lon="-3.335326" lat="54.542353"><ele>244.101212</ele><time>2021-08-12T11:00:05Z</time><extensions><speed>1.229565</speed><course>29.254333</course><hAcc>0.880767</hAcc><vAcc>0.702970</vAcc></extensions></trkpt>
      <trkpt lon="-3.335308" lat="54.542352"><ele>244.112442</ele><time>2021-08-12T11:00:06Z</time><extensions><speed>1.192843</speed><course>29.254333</course><hAcc>0.880839</hAcc><vAcc>0.703225</vAcc></extensions></trkpt>
      <trkpt lon="-3.335290" lat="54.542350"><ele>244.126083</ele><time>2021-08-12T11:00:07Z</time><extensions><speed>1.147952</speed><course>29.254332</course><hAcc>0.880904</hAcc><vAcc>0.703450</vAcc></extensions></trkpt>
      <trkpt lon="-3.335273" lat="54.542348"><ele>244.141098</ele><time>2021-08-12T11:00:08Z</time><extensions><speed>1.095713</speed><course>29.254333</course><hAcc>0.880961</hAcc><vAcc>0.703648</vAcc></extensions></trkpt>
      <trkpt lon="-3.335256" lat="54.542346"><ele>244.156448</ele><time>2021-08-12T11:00:09Z</time><extensions><speed>1.036381</speed><course>29.254337</course><hAcc>0.881010</hAcc><vAcc>0.703821</vAcc></extensions></trkpt>
      <trkpt lon="-3.335241" lat="54.542345"><ele>244.171127</ele><time>2021-08-12T11:00:10Z</time><extensions><speed>0.970586</speed><course>29.254337</course><hAcc>0.881049</hAcc><vAcc>0.703968</vAcc></extensions></trkpt>
      <trkpt lon="-3.335227" lat="54.542343"><ele>244.184143</ele><time>2021-08-12T11:00:11Z</time><extensions><speed>0.899761</speed><course>29.254339</course><hAcc>0.881079</hAcc><vAcc>0.704084</vAcc></extensions></trkpt>
      <trkpt lon="-3.335214" lat="54.542342"><ele>244.194595</ele><time>2021-08-12T11:00:12Z</time><extensions><speed>0.826439</speed><course>29.254337</course><hAcc>0.881097</hAcc><vAcc>0.704165</vAcc></extensions></trkpt>
      <trkpt lon="-3.335202" lat="54.542341"><ele>244.201721</ele><time>2021-08-12T11:00:13Z</time><extensions><speed>0.753512</speed><course>29.254339</course><hAcc>0.881102</hAcc><vAcc>0.704203</vAcc></extensions></trkpt>
      <trkpt lon="-3.335191" lat="54.542341"><ele>244.204880</ele><time>2021-08-12T11:00:14Z</time><extensions><speed>0.682709</speed><course>353.139893</course><hAcc>0.881091</hAcc><vAcc>0.704192</vAcc></extensions></trkpt>
      <trkpt lon="-3.335181" lat="54.542341"><ele>244.203918</ele><time>2021-08-12T11:00:15Z</time><extensions><speed>0.614253</speed><course>-1.000000</course><hAcc>0.881061</hAcc><vAcc>0.704124</vAcc></extensions></trkpt>
      <trkpt lon="-3.335172" lat="54.542341"><ele>244.199188</ele><time>2021-08-12T11:00:16Z</time><extensions><speed>0.547312</speed><course>-1.000000</course><hAcc>0.881010</hAcc><vAcc>0.703993</vAcc></extensions></trkpt>
      <trkpt lon="-3.335164" lat="54.542341"><ele>244.191483</ele><time>2021-08-12T11:00:17Z</time><extensions><speed>0.481453</speed><course>-1.000000</course><hAcc>0.880936</hAcc><vAcc>0.703785</vAcc></extensions></trkpt>
      <trkpt lon="-3.335157" lat="54.542341"><ele>244.181580</ele><time>2021-08-12T11:00:18Z</time><extensions><speed>0.418125</speed><course>-1.000000</course><hAcc>0.880836</hAcc><vAcc>0.703486</vAcc></extensions></trkpt>
      <trkpt lon="-3.335151" lat="54.542342"><ele>244.170181</ele><time>2021-08-12T11:00:19Z</time><extensions><speed>0.359782</speed><course>-1.000000</course><hAcc>0.880709</hAcc><vAcc>0.703077</vAcc></extensions></trkpt>
      <trkpt lon="-3.335146" lat="54.542343"><ele>244.157822</ele><time>2021-08-12T11:00:20Z</time><extensions><speed>0.308647</speed><course>-1.000000</course><hAcc>0.880558</hAcc><vAcc>0.702546</vAcc></extensions></trkpt>
      <trkpt lon="-3.335142" lat="54.542344"><ele>244.144424</ele><time>2021-08-12T11:00:21Z</time><extensions><speed>0.266716</speed><course>-1.000000</course><hAcc>0.880385</hAcc><vAcc>0.701890</vAcc></extensions></trkpt>
      <trkpt lon="-3.335139" lat="54.542345"><ele>244.129303</ele><time>2021-08-12T11:00:22Z</time><extensions><speed>0.235657</speed><course>-1.000000</course><hAcc>0.880195</hAcc><vAcc>0.701130</vAcc></extensions></trkpt>
      <trkpt lon="-3.335136" lat="54.542346"><ele>244.112015</ele><time>2021-08-12T11:00:23Z</time><extensions><speed>0.216680</speed><course>-1.000000</course><hAcc>0.879995</hAcc><vAcc>0.700296</vAcc></extensions></trkpt>
      <trkpt lon="-3.335133" lat="54.542348"><ele>244.092453</ele><time>2021-08-12T11:00:24Z</time><extensions><speed>0.209639</speed><course>-1.000000</course><hAcc>0.879792</hAcc><vAcc>0.699432</vAcc></extensions></trkpt>
      <trkpt lon="-3.335131" lat="54.542349"><ele>244.070450</ele><time>2021-08-12T11:00:25Z</time><extensions><speed>0.213460</speed><course>-1.000000</course><hAcc>0.879596</hAcc><vAcc>0.698586</vAcc></extensions></trkpt>
      <trkpt lon="-3.335129" lat="54.542351"><ele>244.045578</ele><time>2021-08-12T11:00:26Z</time><extensions><speed>0.227716</speed><course>74.830536</course><hAcc>0.879416</hAcc><vAcc>0.697815</vAcc></extensions></trkpt>
      <trkpt lon="-3.335127" lat="54.542352"><ele>244.017334</ele><time>2021-08-12T11:00:27Z</time><extensions><speed>0.253281</speed><course>62.161198</course><hAcc>0.879262</hAcc><vAcc>0.697166</vAcc></extensions></trkpt>
      <trkpt lon="-3.335123" lat="54.542354"><ele>243.985107</ele><time>2021-08-12T11:00:28Z</time><extensions><speed>0.291599</speed><course>66.043793</course><hAcc>0.879139</hAcc><vAcc>0.696683</vAcc></extensions></trkpt>
      <trkpt lon="-3.335120" lat="54.542356"><ele>243.948288</ele><time>2021-08-12T11:00:29Z</time><extensions><speed>0.343618</speed><course>75.803009</course><hAcc>0.879052</hAcc><vAcc>0.696396</vAcc></extensions></trkpt>
      <trkpt lon="-3.335115" lat="54.542358"><ele>243.906174</ele><time>2021-08-12T11:00:30Z</time><extensions><speed>0.409526</speed><course>76.191063</course><hAcc>0.879004</hAcc><vAcc>0.696322</vAcc></extensions></trkpt>
      <trkpt lon="-3.335109" lat="54.542360"><ele>243.858231</ele><time>2021-08-12T11:00:31Z</time><extensions><speed>0.488211</speed><course>76.349960</course><hAcc>0.878993</hAcc><vAcc>0.696451</vAcc></extensions></trkpt>
      <trkpt lon="-3.335102" lat="54.542362"><ele>243.804413</ele><time>2021-08-12T11:00:32Z</time><extensions><speed>0.576688</speed><course>78.477806</course><hAcc>0.879016</hAcc><vAcc>0.696736</vAcc></extensions></trkpt>
      <trkpt lon="-3.335093" lat="54.542364"><ele>243.745316</ele><time>2021-08-12T11:00:33Z</time><extensions><speed>0.671088</speed><course>75.070290</course><hAcc>0.879066</hAcc><vAcc>0.697095</vAcc></extensions></trkpt>
      <trkpt lon="-3.335083" lat="54.542367"><ele>243.682251</ele><time>2021-08-12T11:00:34Z</time><extensions><speed>0.767625</speed><course>69.086029</course><hAcc>0.879137</hAcc><vAcc>0.697441</vAcc></extensions></trkpt>
      <trkpt lon="-3.335071" lat="54.542370"><ele>243.617081</ele><time>2021-08-12T11:00:35Z</time><extensions><speed>0.862296</speed><course>68.949226</course><hAcc>0.879223</hAcc><vAcc>0.697727</vAcc></extensions></trkpt>
      <trkpt lon="-3.335058" lat="54.542373"><ele>243.551849</ele><time>2021-08-12T11:00:36Z</time><extensions><speed>0.951238</speed><course>71.686111</course><hAcc>0.879322</hAcc><vAcc>0.697963</vAcc></extensions></trkpt>
      <trkpt lon="-3.335044" lat="54.542376"><ele>243.488510</ele><time>2021-08-12T11:00:37Z</time><extensions><speed>1.031929</speed><course>76.597496</course><hAcc>0.879433</hAcc><vAcc>0.698200</vAcc></extensions></trkpt>
      <trkpt lon="-3.335028" lat="54.542379"><ele>243.428696</ele><time>2021-08-12T11:00:38Z</time><extensions><speed>1.103466</speed><course>90.005066</course><hAcc>0.879557</hAcc><vAcc>0.698501</vAcc></extensions></trkpt>
      <trkpt lon="-3.335011" lat="54.542382"><ele>243.373413</ele><time>2021-08-12T11:00:39Z</time><extensions><speed>1.166381</speed><course>83.948074</course><hAcc>0.879695</hAcc><vAcc>0.698905</vAcc></extensions></trkpt>
      <trkpt lon="-3.334993" lat="54.542385"><ele>243.322800</ele><time>2021-08-12T11:00:40Z</time><extensions><speed>1.221481</speed><course>76.996796</course><hAcc>0.879847</hAcc><vAcc>0.699422</vAcc></extensions></trkpt>
      <trkpt lon="-3.334975" lat="54.542388"><ele>243.276840</ele><time>2021-08-12T11:00:41Z</time><extensions><speed>1.269310</speed><course>79.507355</course><hAcc>0.880012</hAcc><vAcc>0.700041</vAcc></extensions></trkpt>
      <trkpt lon="-3.334956" lat="54.542390"><ele>243.235809</ele><time>2021-08-12T11:00:42Z</time><extensions><speed>1.310323</speed><course>72.096832</course><hAcc>0.880187</hAcc><vAcc>0.700739</vAcc></extensions></trkpt>
      <trkpt lon="-3.334936" lat="54.542393"><ele>243.199905</ele><time>2021-08-12T11:00:43Z</time><extensions><speed>1.344902</speed><course>80.368279</course><hAcc>0.880370</hAcc><vAcc>0.701484</vAcc></extensions></trkpt>
      <trkpt lon="-3.334915" lat="54.542396"><ele>243.169022</ele><time>2021-08-12T11:00:44Z</time><extensions><speed>1.373406</speed><course>78.982643</course><hAcc>0.880554</hAcc><vAcc>0.702239</vAcc></extensions></trkpt>
      <trkpt lon="-3.334894" lat="54.542398"><ele>243.142670</ele><time>2021-08-12T11:00:45Z</time><extensions><speed>1.396261</speed><course>81.075706</course><hAcc>0.880735</hAcc><vAcc>0.702966</vAcc></extensions></trkpt>
      <trkpt lon="-3.334873" lat="54.542400"><ele>243.120071</ele><time>2021-08-12T11:00:46Z</time><extensions><speed>1.413794</speed><course>81.007790</course><hAcc>0.880907</hAcc><vAcc>0.703640</vAcc></extensions></trkpt>
      <trkpt lon="-3.334851" lat="54.542402"><ele>243.100616</ele><time>2021-08-12T11:00:47Z</time><extensions><speed>1.426165</speed><course>78.272133</course><hAcc>0.881067</hAcc><vAcc>0.704240</vAcc></extensions></trkpt>
      <trkpt lon="-3.334829" lat="54.542404"><ele>243.083588</ele><time>2021-08-12T11:00:48Z</time><extensions><speed>1.434033</speed><course>73.069588</course><hAcc>0.881210</hAcc><vAcc>0.704759</vAcc></extensions></trkpt>
      <trkpt lon="-3.334807" lat="54.542406"><ele>243.067810</ele><time>2021-08-12T11:00:49Z</time><extensions><speed>1.438876</speed><course>77.189682</course><hAcc>0.881334</hAcc><vAcc>0.705193</vAcc></extensions></trkpt>
      <trkpt lon="-3.334785" lat="54.542408"><ele>243.052017</ele><time>2021-08-12T11:00:50Z</time><extensions><speed>1.441899</speed><course>75.197517</course><hAcc>0.881436</hAcc><vAcc>0.705542</vAcc></extensions></trkpt>
      <trkpt lon="-3.334763" lat="54.542409"><ele>243.035461</ele><time>2021-08-12T11:00:51Z</time><extensions><speed>1.444131</speed><course>67.733307</course><hAcc>0.881518</hAcc><vAcc>0.705811</vAcc></extensions></trkpt>
      <trkpt lon="-3.334741" lat="54.542410"><ele>243.018005</ele><time>2021-08-12T11:00:52Z</time><extensions><speed>1.446463</speed><course>69.123688</course><hAcc>0.881578</hAcc><vAcc>0.706005</vAcc></extensions></trkpt>
      <trkpt lon="-3.334718" lat="54.542411"><ele>242.999908</ele><time>2021-08-12T11:00:53Z</time><extensions><speed>1.448455</speed><course>71.299400</course><hAcc>0.881618</hAcc><vAcc>0.706128</vAcc></extensions></trkpt>
      <trkpt lon="-3.334696" lat="54.542412"><ele>242.981567</ele><time>2021-08-12T11:00:54Z</time><extensions><speed>1.448445</speed><course>77.479210</course><hAcc>0.881639</hAcc><vAcc>0.706187</vAcc></extensions></trkpt>
      <trkpt lon="-3.334674" lat="54.542412"><ele>242.963638</ele><time>2021-08-12T11:00:55Z</time><extensions><speed>1.444576</speed><course>68.623329</course><hAcc>0.881642</hAcc><vAcc>0.706188</vAcc></extensions></trkpt>
      <trkpt lon="-3.334652" lat="54.542412"><ele>242.947159</ele><time>2021-08-12T11:00:56Z</time><extensions><speed>1.436830</speed><course>63.866425</course><hAcc>0.881629</hAcc><vAcc>0.706136</vAcc></extensions></trkpt>
      <trkpt lon="-3.334629" lat="54.542411"><ele>242.933456</ele><time>2021-08-12T11:00:57Z</time><extensions><speed>1.426421</speed><course>76.291603</course><hAcc>0.881603</hAcc><vAcc>0.706038</vAcc></extensions></trkpt>
      <trkpt lon="-3.334608" lat="54.542410"><ele>242.923737</ele><time>2021-08-12T11:00:58Z</time><extensions><speed>1.414397</speed><course>71.777351</course><hAcc>0.881564</hAcc><vAcc>0.705893</vAcc></extensions></trkpt>
      <trkpt lon="-3.334586" lat="54.542409"><ele>242.918915</ele><time>2021-08-12T11:00:59Z</time><extensions><speed>1.401822</speed><course>76.476341</course><hAcc>0.881517</hAcc><vAcc>0.705707</vAcc></extensions></trkpt>
      <trkpt lon="-3.334565" lat="54.542407"><ele>242.919617</ele><time>2021-08-12T11:01:00Z</time><extensions><speed>1.389044</speed><course>63.346680</course><hAcc>0.881463</hAcc><vAcc>0.705484</vAcc></extensions></trkpt>
      <trkpt lon="-3.334543" lat="54.542406"><ele>242.925949</ele><time>2021-08-12T11:01:01Z</time><extensions><speed>1.375114</speed><course>60.883244</course><hAcc>0.881405</hAcc><vAcc>0.705234</vAcc></extensions></trkpt>
      <trkpt lon="-3.334523" lat="54.542403"><ele>242.937515</ele><time>2021-08-12T11:01:02Z</time><extensions><speed>1.359427</speed><course>66.100471</course><hAcc>0.881348</hAcc><vAcc>0.704971</vAcc></extensions></trkpt>
      <trkpt lon="-3.334502" lat="54.542401"><ele>242.953766</ele><time>2021-08-12T11:01:03Z</time><extensions><speed>1.341766</speed><course>66.284729</course><hAcc>0.881294</hAcc><vAcc>0.704716</vAcc></extensions></trkpt>
      <trkpt lon="-3.334482" lat="54.542398"><ele>242.974289</ele><time>2021-08-12T11:01:04Z</time><extensions><speed>1.320982</speed><course>70.183884</course><hAcc>0.881247</hAcc><vAcc>0.704490</vAcc></extensions></trkpt>
      <trkpt lon="-3.334462" lat="54.542396"><ele>242.998291</ele><time>2021-08-12T11:01:05Z</time><extensions><speed>1.296965</speed><course>69.091454</course><hAcc>0.881209</hAcc><vAcc>0.704316</vAcc></extensions></trkpt>
      <trkpt lon="-3.334443" lat="54.542393"><ele>243.024872</ele><time>2021-08-12T11:01:06Z</time><extensions><speed>1.271032</speed><course>67.595528</course><hAcc>0.881182</hAcc><vAcc>0.704205</vAcc></extensions></trkpt>
      <trkpt lon="-3.334424" lat="54.542391"><ele>243.053436</ele><time>2021-08-12T11:01:07Z</time><extensions><speed>1.244501</speed><course>69.079941</course><hAcc>0.881169</hAcc><vAcc>0.704164</vAcc></extensions></trkpt>
      <trkpt lon="-3.334406" lat="54.542388"><ele>243.083817</ele><time>2021-08-12T11:01:08Z</time><extensions><speed>1.218815</speed><course>67.638985</course><hAcc>0.881169</hAcc><vAcc>0.704189</vAcc></extensions></trkpt>
      <trkpt lon="-3.334387" lat="54.542386"><ele>243.115799</ele><time>2021-08-12T11:01:09Z</time><extensions><speed>1.195217</speed><course>67.902077</course><hAcc>0.881183</hAcc><vAcc>0.704273</vAcc></extensions></trkpt>
      <trkpt lon="-3.334369" lat="54.542384"><ele>243.148712</ele><time>2021-08-12T11:01:10Z</time><extensions><speed>1.174007</speed><course>68.213737</course><hAcc>0.881210</hAcc><vAcc>0.704403</vAcc></extensions></trkpt>
      <trkpt lon="-3.334351" lat="54.542383"><ele>243.181442</ele><time>2021-08-12T11:01:11Z</time><extensions><speed>1.154713</speed><course>58.646133</course><hAcc>0.881250</hAcc><vAcc>0.704567</vAcc></extensions></trkpt>
      <trkpt lon="-3.334334" lat="54.542381"><ele>243.213028</ele><time>2021-08-12T11:01:12Z</time><extensions><speed>1.137111</speed><course>60.787758</course><hAcc>0.881302</hAcc><vAcc>0.704755</vAcc></extensions></trkpt>
      <trkpt lon="-3.334316" lat="54.542381"><ele>243.242630</ele><time>2021-08-12T11:01:13Z</time><extensions><speed>1.121824</speed><course>59.107254</course><hAcc>0.881363</hAcc><vAcc>0.704963</vAcc></extensions></trkpt>
      <trkpt lon="-3.334299" lat="54.542380"><ele>243.269302</ele><time>2021-08-12T11:01:14Z</time><extensions><speed>1.109816</speed><course>59.308796</course><hAcc>0.881433</hAcc><vAcc>0.705199</vAcc></extensions></trkpt>
      <trkpt lon="-3.334282" lat="54.542381"><ele>243.292404</ele><time>2021-08-12T11:01:15Z</time><extensions><speed>1.103209</speed><course>63.536522</course><hAcc>0.881510</hAcc><vAcc>0.705470</vAcc></extensions></trkpt>
      <trkpt lon="-3.334265" lat="54.542381"><ele>243.311768</ele><time>2021-08-12T11:01:16Z</time><extensions><speed>1.104277</speed><course>64.110619</course><hAcc>0.881591</hAcc><vAcc>0.705781</vAcc></extensions></trkpt>
      <trkpt lon="-3.334248" lat="54.542382"><ele>243.327744</ele><time>2021-08-12T11:01:17Z</time><extensions><speed>1.112391</speed><course>57.783936</course><hAcc>0.881675</hAcc><vAcc>0.706127</vAcc></extensions></trkpt>
      <trkpt lon="-3.334231" lat="54.542384"><ele>243.341049</ele><time>2021-08-12T11:01:18Z</time><extensions><speed>1.125181</speed><course>62.673740</course><hAcc>0.881758</hAcc><vAcc>0.706489</vAcc></extensions></trkpt>
      <trkpt lon="-3.334214" lat="54.542385"><ele>243.352356</ele><time>2021-08-12T11:01:19Z</time><extensions><speed>1.141022</speed><course>68.268181</course><hAcc>0.881836</hAcc><vAcc>0.706847</vAcc></extensions></trkpt>
      <trkpt lon="-3.334196" lat="54.542387"><ele>243.362091</ele><time>2021-08-12T11:01:20Z</time><extensions><speed>1.158581</speed><course>59.735432</course><hAcc>0.881908</hAcc><vAcc>0.707177</vAcc></extensions></trkpt>
      <trkpt lon="-3.334179" lat="54.542389"><ele>243.370712</ele><time>2021-08-12T11:01:21Z</time><extensions><speed>1.176132</speed><course>59.192490</course><hAcc>0.881971</hAcc><vAcc>0.707455</vAcc></extensions></trkpt>
      <trkpt lon="-3.334161" lat="54.542392"><ele>243.379150</ele><time>2021-08-12T11:01:22Z</time><extensions><speed>1.191985</speed><course>60.825825</course><hAcc>0.882022</hAcc><vAcc>0.707664</vAcc></extensions></trkpt>
      <trkpt lon="-3.334143" lat="54.542394"><ele>243.388672</ele><time>2021-08-12T11:01:23Z</time><extensions><speed>1.204714</speed><course>62.921200</course><hAcc>0.882060</hAcc><vAcc>0.707796</vAcc></extensions></trkpt>
      <trkpt lon="-3.334124" lat="54.542396"><ele>243.400421</ele><time>2021-08-12T11:01:24Z</time><extensions><speed>1.213622</speed><course>59.145714</course><hAcc>0.882086</hAcc><vAcc>0.707855</vAcc></extensions></trkpt>
      <trkpt lon="-3.334106" lat="54.542399"><ele>243.415085</ele><time>2021-08-12T11:01:25Z</time><extensions><speed>1.219103</speed><course>54.852036</course><hAcc>0.882100</hAcc><vAcc>0.707850</vAcc></extensions></trkpt>
      <trkpt lon="-3.334088" lat="54.542401"><ele>243.433182</ele><time>2021-08-12T11:01:26Z</time><extensions><speed>1.221771</speed><course>52.958679</course><hAcc>0.882103</hAcc><vAcc>0.707797</vAcc></extensions></trkpt>
      <trkpt lon="-3.334069" lat="54.542403"><ele>243.454926</ele><time>2021-08-12T11:01:27Z</time><extensions><speed>1.222106</speed><course>51.642593</course><hAcc>0.882100</hAcc><vAcc>0.707716</vAcc></extensions></trkpt>
      <trkpt lon="-3.334050" lat="54.542404"><ele>243.480057</ele><time>2021-08-12T11:01:28Z</time><extensions><speed>1.220655</speed><course>50.915668</course><hAcc>0.882091</hAcc><vAcc>0.707625</vAcc></extensions></trkpt>
      <trkpt lon="-3.334032" lat="54.542405"><ele>243.508148</ele><time>2021-08-12T11:01:29Z</time><extensions><speed>1.217638</speed><course>43.517220</course><hAcc>0.882079</hAcc><vAcc>0.707542</vAcc></extensions></trkpt>
      <trkpt lon="-3.334013" lat="54.542407"><ele>243.538620</ele><time>2021-08-12T11:01:30Z</time><extensions><speed>1.213091</speed><course>53.213661</course><hAcc>0.882066</hAcc><vAcc>0.707481</vAcc></extensions></trkpt>
      <trkpt lon="-3.333994" lat="54.542407"><ele>243.571152</ele><time>2021-08-12T11:01:31Z</time><extensions><speed>1.206316</speed><course>42.672325</course><hAcc>0.882054</hAcc><vAcc>0.707449</vAcc></extensions></trkpt>
      <trkpt lon="-3.333976" lat="54.542408"><ele>243.605545</ele><time>2021-08-12T11:01:32Z</time><extensions><speed>1.197060</speed><course>57.842590</course><hAcc>0.882043</hAcc><vAcc>0.707441</vAcc></extensions></trkpt>
      <trkpt lon="-3.333957" lat="54.542409"><ele>243.641663</ele><time>2021-08-12T11:01:33Z</time><extensions><speed>1.186381</speed><course>54.432369</course><hAcc>0.882034</hAcc><vAcc>0.707448</vAcc></extensions></trkpt>
      <trkpt lon="-3.333939" lat="54.542409"><ele>243.679749</ele><time>2021-08-12T11:01:34Z</time><extensions><speed>1.175630</speed><course>53.099045</course><hAcc>0.882024</hAcc><vAcc>0.707460</vAcc></extensions></trkpt>
      <trkpt lon="-3.333921" lat="54.542410"><ele>243.720245</ele><time>2021-08-12T11:01:35Z</time><extensions><speed>1.166289</speed><course>52.709480</course><hAcc>0.882015</hAcc><vAcc>0.707461</vAcc></extensions></trkpt>
      <trkpt lon="-3.333903" lat="54.542410"><ele>243.763351</ele><time>2021-08-12T11:01:36Z</time><extensions><speed>1.159240</speed><course>55.566643</course><hAcc>0.882006</hAcc><vAcc>0.707442</vAcc></extensions></trkpt>
      <trkpt lon="-3.333885" lat="54.542411"><ele>243.808517</ele><time>2021-08-12T11:01:37Z</time><extensions><speed>1.155279</speed><course>50.999676</course><hAcc>0.881996</hAcc><vAcc>0.707399</vAcc></extensions></trkpt>
      <trkpt lon="-3.333867" lat="54.542411"><ele>243.854355</ele><time>2021-08-12T11:01:38Z</time><extensions><speed>1.155398</speed><course>49.932701</course><hAcc>0.881985</hAcc><vAcc>0.707336</vAcc></extensions></trkpt>
      <trkpt lon="-3.333850" lat="54.542412"><ele>243.898834</ele><time>2021-08-12T11:01:39Z</time><extensions><speed>1.159609</speed><course>44.103298</course><hAcc>0.881974</hAcc><vAcc>0.707263</vAcc></extensions></trkpt>
      <trkpt lon="-3.333832" lat="54.542413"><ele>243.939743</ele><time>2021-08-12T11:01:40Z</time><extensions><speed>1.167269</speed><course>35.959499</course><hAcc>0.881965</hAcc><vAcc>0.707190</vAcc></extensions></trkpt>
      <trkpt lon="-3.333814" lat="54.542414"><ele>243.974930</ele><time>2021-08-12T11:01:41Z</time><extensions><speed>1.177664</speed><course>30.952709</course><hAcc>0.881957</hAcc><vAcc>0.707127</vAcc></extensions></trkpt>
      <trkpt lon="-3.333796" lat="54.542416"><ele>244.002472</ele><time>2021-08-12T11:01:42Z</time><extensions><speed>1.190657</speed><course>43.709347</course><hAcc>0.881952</hAcc><vAcc>0.707083</vAcc></extensions></trkpt>
      <trkpt lon="-3.333777" lat="54.542418"><ele>244.020782</ele><time>2021-08-12T11:01:43Z</time><extensions><speed>1.205972</speed><course>37.574459</course><hAcc>0.881952</hAcc><vAcc>0.707063</vAcc></extensions></trkpt>
      <trkpt lon="-3.333759" lat="54.542420"><ele>244.028732</ele><time>2021-08-12T11:01:44Z</time><extensions><speed>1.222664</speed><course>40.028488</course><hAcc>0.881957</hAcc><vAcc>0.707072</vAcc></extensions></trkpt>
      <trkpt lon="-3.333741" lat="54.542423"><ele>244.025497</ele><time>2021-08-12T11:01:45Z</time><extensions><speed>1.239485</speed><course>39.088745</course><hAcc>0.881965</hAcc><vAcc>0.707113</vAcc></extensions></trkpt>
      <trkpt lon="-3.333722" lat="54.542426"><ele>244.010559</ele><time>2021-08-12T11:01:46Z</time><extensions><speed>1.254546</speed><course>38.227211</course><hAcc>0.881977</hAcc><vAcc>0.707185</vAcc></extensions></trkpt>
      <trkpt lon="-3.333704" lat="54.542429"><ele>243.983841</ele><time>2021-08-12T11:01:47Z</time><extensions><speed>1.266422</speed><course>38.580025</course><hAcc>0.881991</hAcc><vAcc>0.707283</vAcc></extensions></trkpt>
      <trkpt lon="-3.333685" lat="54.542433"><ele>243.945633</ele><time>2021-08-12T11:01:48Z</time><extensions><speed>1.275012</speed><course>36.225418</course><hAcc>0.882005</hAcc><vAcc>0.707392</vAcc></extensions></trkpt>
      <trkpt lon="-3.333666" lat="54.542437"><ele>243.896454</ele><time>2021-08-12T11:01:49Z</time><extensions><speed>1.280313</speed><course>36.482189</course><hAcc>0.882016</hAcc><vAcc>0.707491</vAcc></extensions></trkpt>
      <trkpt lon="-3.333648" lat="54.542441"><ele>243.836624</ele><time>2021-08-12T11:01:50Z</time><extensions><speed>1.281712</speed><course>45.117634</course><hAcc>0.882023</hAcc><vAcc>0.707559</vAcc></extensions></trkpt>
      <trkpt lon="-3.333630" lat="54.542446"><ele>243.766663</ele><time>2021-08-12T11:01:51Z</time><extensions><speed>1.279563</speed><course>40.176819</course><hAcc>0.882023</hAcc><vAcc>0.707581</vAcc></extensions></trkpt>
      <trkpt lon="-3.333612" lat="54.542450"><ele>243.687531</ele><time>2021-08-12T11:01:52Z</time><extensions><speed>1.275062</speed><course>42.588684</course><hAcc>0.882016</hAcc><vAcc>0.707552</vAcc></extensions></trkpt>
      <trkpt lon="-3.333594" lat="54.542455"><ele>243.600113</ele><time>2021-08-12T11:01:53Z</time><extensions><speed>1.269132</speed><course>41.771687</course><hAcc>0.881999</hAcc><vAcc>0.707473</vAcc></extensions></trkpt>
      <trkpt lon="-3.333576" lat="54.542460"><ele>243.505157</ele><time>2021-08-12T11:01:54Z</time><extensions><speed>1.262280</speed><course>41.372017</course><hAcc>0.881972</hAcc><vAcc>0.707352</vAcc></extensions></trkpt>
      <trkpt lon="-3.333558" lat="54.542464"><ele>243.403839</ele><time>2021-08-12T11:01:55Z</time><extensions><speed>1.255018</speed><course>37.017429</course><hAcc>0.881937</hAcc><vAcc>0.707197</vAcc></extensions></trkpt>
      <trkpt lon="-3.333541" lat="54.542469"><ele>243.298096</ele><time>2021-08-12T11:01:56Z</time><extensions><speed>1.247770</speed><course>28.588495</course><hAcc>0.881894</hAcc><vAcc>0.707016</vAcc></extensions></trkpt>
      <trkpt lon="-3.333523" lat="54.542474"><ele>243.190292</ele><time>2021-08-12T11:01:57Z</time><extensions><speed>1.240507</speed><course>39.512306</course><hAcc>0.881845</hAcc><vAcc>0.706814</vAcc></extensions></trkpt>
      <trkpt lon="-3.333506" lat="54.542478"><ele>243.082687</ele><time>2021-08-12T11:01:58Z</time><extensions><speed>1.233336</speed><course>38.955353</course><hAcc>0.881793</hAcc><vAcc>0.706599</vAcc></extensions></trkpt>
      <trkpt lon="-3.333488" lat="54.542483"><ele>242.977112</ele><time>2021-08-12T11:01:59Z</time><extensions><speed>1.226972</speed><course>35.270641</course><hAcc>0.881738</hAcc><vAcc>0.706378</vAcc></extensions></trkpt>
      <trkpt lon="-3.333471" lat="54.542487"><ele>242.875061</ele><time>2021-08-12T11:02:00Z</time><extensions><speed>1.221800</speed><course>38.302330</course><hAcc>0.881684</hAcc><vAcc>0.706163</vAcc></extensions></trkpt>
      <trkpt lon="-3.333454" lat="54.542491"><ele>242.778336</ele><time>2021-08-12T11:02:01Z</time><extensions><speed>1.217133</speed><course>40.976086</course><hAcc>0.881633</hAcc><vAcc>0.705963</vAcc></extensions></trkpt>
      <trkpt lon="-3.333437" lat="54.542496"><ele>242.689575</ele><time>2021-08-12T11:02:02Z</time><extensions><speed>1.212183</speed><course>40.718147</course><hAcc>0.881586</hAcc><vAcc>0.705784</vAcc></extensions></trkpt>
      <trkpt lon="-3.333419" lat="54.542500"><ele>242.611588</ele><time>2021-08-12T11:02:03Z</time><extensions><speed>1.207188</speed><course>40.437557</course><hAcc>0.881548</hAcc><vAcc>0.705629</vAcc></extensions></trkpt>
      <trkpt lon="-3.333402" lat="54.542504"><ele>242.546494</ele><time>2021-08-12T11:02:04Z</time><extensions><speed>1.202942</speed><course>38.315979</course><hAcc>0.881519</hAcc><vAcc>0.705502</vAcc></extensions></trkpt>
      <trkpt lon="-3.333385" lat="54.542508"><ele>242.495544</ele><time>2021-08-12T11:02:05Z</time><extensions><speed>1.199958</speed><course>28.668550</course><hAcc>0.881502</hAcc><vAcc>0.705409</vAcc></extensions></trkpt>
      <trkpt lon="-3.333368" lat="54.542512"><ele>242.459366</ele><time>2021-08-12T11:02:06Z</time><extensions><speed>1.199293</speed><course>31.392698</course><hAcc>0.881499</hAcc><vAcc>0.705361</vAcc></extensions></trkpt>
      <trkpt lon="-3.333351" lat="54.542516"><ele>242.438232</ele><time>2021-08-12T11:02:07Z</time><extensions><speed>1.202426</speed><course>32.848076</course><hAcc>0.881510</hAcc><vAcc>0.705370</vAcc></extensions></trkpt>
      <trkpt lon="-3.333334" lat="54.542521"><ele>242.432327</ele><time>2021-08-12T11:02:08Z</time><extensions><speed>1.209958</speed><course>38.096359</course><hAcc>0.881537</hAcc><vAcc>0.705450</vAcc></extensions></trkpt>
      <trkpt lon="-3.333317" lat="54.542525"><ele>242.441467</ele><time>2021-08-12T11:02:09Z</time><extensions><speed>1.221560</speed><course>27.737675</course><hAcc>0.881579</hAcc><vAcc>0.705607</vAcc></extensions></trkpt>
      <trkpt lon="-3.333299" lat="54.542530"><ele>242.464813</ele><time>2021-08-12T11:02:10Z</time><extensions><speed>1.236312</speed><course>38.820049</course><hAcc>0.881635</hAcc><vAcc>0.705842</vAcc></extensions></trkpt>
      <trkpt lon="-3.333282" lat="54.542534"><ele>242.500565</ele><time>2021-08-12T11:02:11Z</time><extensions><speed>1.252697</speed><course>40.137299</course><hAcc>0.881702</hAcc><vAcc>0.706145</vAcc></extensions></trkpt>
      <trkpt lon="-3.333264" lat="54.542539"><ele>242.546219</ele><time>2021-08-12T11:02:12Z</time><extensions><speed>1.269405</speed><course>44.560421</course><hAcc>0.881777</hAcc><vAcc>0.706496</vAcc></extensions></trkpt>
      <trkpt lon="-3.333246" lat="54.542543"><ele>242.598877</ele><time>2021-08-12T11:02:13Z</time><extensions><speed>1.286041</speed><course>41.574787</course><hAcc>0.881858</hAcc><vAcc>0.706870</vAcc></extensions></trkpt>
      <trkpt lon="-3.333228" lat="54.542548"><ele>242.655334</ele><time>2021-08-12T11:02:14Z</time><extensions><speed>1.302427</speed><course>37.402897</course><hAcc>0.881940</hAcc><vAcc>0.707237</vAcc></extensions></trkpt>
      <trkpt lon="-3.333209" lat="54.542553"><ele>242.712250</ele><time>2021-08-12T11:02:15Z</time><extensions><speed>1.317681</speed><course>38.445354</course><hAcc>0.882020</hAcc><vAcc>0.707571</vAcc></extensions></trkpt>
      <trkpt lon="-3.333191" lat="54.542559"><ele>242.766800</ele><time>2021-08-12T11:02:16Z</time><extensions><speed>1.330969</speed><course>32.932274</course><hAcc>0.882096</hAcc><vAcc>0.707856</vAcc></extensions></trkpt>
      <trkpt lon="-3.333172" lat="54.542564"><ele>242.817184</ele><time>2021-08-12T11:02:17Z</time><extensions><speed>1.341471</speed><course>27.701353</course><hAcc>0.882164</hAcc><vAcc>0.708090</vAcc></extensions></trkpt>
      <trkpt lon="-3.333154" lat="54.542569"><ele>242.862411</ele><time>2021-08-12T11:02:18Z</time><extensions><speed>1.347951</speed><course>28.233585</course><hAcc>0.882223</hAcc><vAcc>0.708277</vAcc></extensions></trkpt>
      <trkpt lon="-3.333135" lat="54.542575"><ele>242.901962</ele><time>2021-08-12T11:02:19Z</time><extensions><speed>1.349724</speed><course>30.003765</course><hAcc>0.882272</hAcc><vAcc>0.708425</vAcc></extensions></trkpt>
      <trkpt lon="-3.333117" lat="54.542580"><ele>242.935791</ele><time>2021-08-12T11:02:20Z</time><extensions><speed>1.347407</speed><course>35.586266</course><hAcc>0.882311</hAcc><vAcc>0.708544</vAcc></extensions></trkpt>
      <trkpt lon="-3.333098" lat="54.542586"><ele>242.964355</ele><time>2021-08-12T11:02:21Z</time><extensions><speed>1.342462</speed><course>41.034397</course><hAcc>0.882339</hAcc><vAcc>0.708637</vAcc></extensions></trkpt>
      <trkpt lon="-3.333080" lat="54.542591"><ele>242.988419</ele><time>2021-08-12T11:02:22Z</time><extensions><speed>1.336508</speed><course>43.040592</course><hAcc>0.882358</hAcc><vAcc>0.708708</vAcc></extensions></trkpt>
      <trkpt lon="-3.333061" lat="54.542597"><ele>243.009033</ele><time>2021-08-12T11:02:23Z</time><extensions><speed>1.330497</speed><course>49.550934</course><hAcc>0.882369</hAcc><vAcc>0.708754</vAcc></extensions></trkpt>
      <trkpt lon="-3.333043" lat="54.542602"><ele>243.027237</ele><time>2021-08-12T11:02:24Z</time><extensions><speed>1.324538</speed><course>62.069283</course><hAcc>0.882373</hAcc><vAcc>0.708774</vAcc></extensions></trkpt>
      <trkpt lon="-3.333025" lat="54.542608"><ele>243.043701</ele><time>2021-08-12T11:02:25Z</time><extensions><speed>1.319056</speed><course>68.512573</course><hAcc>0.882371</hAcc><vAcc>0.708763</vAcc></extensions></trkpt>
      <trkpt lon="-3.333007" lat="54.542613"><ele>243.058945</ele><time>2021-08-12T11:02:26Z</time><extensions><speed>1.314638</speed><course>76.544746</course><hAcc>0.882365</hAcc><vAcc>0.708723</vAcc></extensions></trkpt>
      <trkpt lon="-3.332989" lat="54.542618"><ele>243.073959</ele><time>2021-08-12T11:02:27Z</time><extensions><speed>1.311348</speed><course>91.471558</course><hAcc>0.882355</hAcc><vAcc>0.708661</vAcc></extensions></trkpt>
      <trkpt lon="-3.332971" lat="54.542623"><ele>243.090134</ele><time>2021-08-12T11:02:28Z</time><extensions><speed>1.308833</speed><course>103.707001</course><hAcc>0.882344</hAcc><vAcc>0.708585</vAcc></extensions></trkpt>
      <trkpt lon="-3.332953" lat="54.542629"><ele>243.108429</ele><time>2021-08-12T11:02:29Z</time><extensions><speed>1.307311</speed><course>102.240677</course><hAcc>0.882333</hAcc><vAcc>0.708509</vAcc></extensions></trkpt>
      <trkpt lon="-3.332935" lat="54.542634"><ele>243.129272</ele><time>2021-08-12T11:02:30Z</time><extensions><speed>1.307422</speed><course>109.008522</course><hAcc>0.882321</hAcc><vAcc>0.708443</vAcc></extensions></trkpt>
      <trkpt lon="-3.332917" lat="54.542640"><ele>243.153061</ele><time>2021-08-12T11:02:31Z</time><extensions><speed>1.309347</speed><course>120.687057</course><hAcc>0.882310</hAcc><vAcc>0.708393</vAcc></extensions></trkpt>
      <trkpt lon="-3.332899" lat="54.542645"><ele>243.180252</ele><time>2021-08-12T11:02:32Z</time><extensions><speed>1.312780</speed><course>122.518364</course><hAcc>0.882298</hAcc><vAcc>0.708360</vAcc></extensions></trkpt>
      <trkpt lon="-3.332881" lat="54.542651"><ele>243.211151</ele><time>2021-08-12T11:02:33Z</time><extensions><speed>1.317051</speed><course>116.435341</course><hAcc>0.882286</hAcc><vAcc>0.708340</vAcc></extensions></trkpt>
      <trkpt lon="-3.332863" lat="54.542657"><ele>243.245682</ele><time>2021-08-12T11:02:34Z</time><extensions><speed>1.321748</speed><course>123.806564</course><hAcc>0.882271</hAcc><vAcc>0.708324</vAcc></extensions></trkpt>
      <trkpt lon="-3.332846" lat="54.542663"><ele>243.283508</ele><time>2021-08-12T11:02:35Z</time><extensions><speed>1.325618</speed><course>121.279266</course><hAcc>0.882250</hAcc><vAcc>0.708302</vAcc></extensions></trkpt>
      <trkpt lon="-3.332828" lat="54.542669"><ele>243.324158</ele><time>2021-08-12T11:02:36Z</time><extensions><speed>1.326574</speed><course>122.295830</course><hAcc>0.882221</hAcc><vAcc>0.708260</vAcc></extensions></trkpt>
      <trkpt lon="-3.332811" lat="54.542676"><ele>243.366974</ele><time>2021-08-12T11:02:37Z</time><extensions><speed>1.323222</speed><course>116.485687</course><hAcc>0.882181</hAcc><vAcc>0.708180</vAcc></extensions></trkpt>
      <trkpt lon="-3.332794" lat="54.542682"><ele>243.410873</ele><time>2021-08-12T11:02:38Z</time><extensions><speed>1.314820</speed><course>120.837761</course><hAcc>0.882129</hAcc><vAcc>0.708045</vAcc></extensions></trkpt>
      <trkpt lon="-3.332778" lat="54.542689"><ele>243.454529</ele><time>2021-08-12T11:02:39Z</time><extensions><speed>1.301894</speed><course>121.691162</course><hAcc>0.882061</hAcc><vAcc>0.707836</vAcc></extensions></trkpt>
      <trkpt lon="-3.332762" lat="54.542696"><ele>243.496506</ele><time>2021-08-12T11:02:40Z</time><extensions><speed>1.285263</speed><course>120.429344</course><hAcc>0.881979</hAcc><vAcc>0.707545</vAcc></extensions></trkpt>
      <trkpt lon="-3.332746" lat="54.542703"><ele>243.535400</ele><time>2021-08-12T11:02:41Z</time><extensions><speed>1.264807</speed><course>127.922836</course><hAcc>0.881881</hAcc><vAcc>0.707171</vAcc></extensions></trkpt>
      <trkpt lon="-3.332731" lat="54.542710"><ele>243.570023</ele><time>2021-08-12T11:02:42Z</time><extensions><speed>1.240579</speed><course>122.773224</course><hAcc>0.881770</hAcc><vAcc>0.706724</vAcc></extensions></trkpt>
      <trkpt lon="-3.332716" lat="54.542717"><ele>243.599197</ele><time>2021-08-12T11:02:43Z</time><extensions><speed>1.213381</speed><course>127.410233</course><hAcc>0.881648</hAcc><vAcc>0.706219</vAcc></extensions></trkpt>
      <trkpt lon="-3.332702" lat="54.542724"><ele>243.621628</ele><time>2021-08-12T11:02:44Z</time><extensions><speed>1.184385</speed><course>126.293243</course><hAcc>0.881520</hAcc><vAcc>0.705676</vAcc></extensions></trkpt>
      <trkpt lon="-3.332689" lat="54.542731"><ele>243.636078</ele><time>2021-08-12T11:02:45Z</time><extensions><speed>1.154382</speed><course>113.773628</course><hAcc>0.881389</hAcc><vAcc>0.705117</vAcc></extensions></trkpt>
      <trkpt lon="-3.332675" lat="54.542738"><ele>243.641113</ele><time>2021-08-12T11:02:46Z</time><extensions><speed>1.123401</speed><course>111.597641</course><hAcc>0.881261</hAcc><vAcc>0.704569</vAcc></extensions></trkpt>
      <trkpt lon="-3.332662" lat="54.542744"><ele>243.635025</ele><time>2021-08-12T11:02:47Z</time><extensions><speed>1.091231</speed><course>118.242065</course><hAcc>0.881139</hAcc><vAcc>0.704058</vAcc></extensions></trkpt>
      <trkpt lon="-3.332650" lat="54.542750"><ele>243.616440</ele><time>2021-08-12T11:02:48Z</time><extensions><speed>1.057304</speed><course>121.318916</course><hAcc>0.881027</hAcc><vAcc>0.703605</vAcc></extensions></trkpt>
      <trkpt lon="-3.332637" lat="54.542756"><ele>243.584595</ele><time>2021-08-12T11:02:49Z</time><extensions><speed>1.020909</speed><course>126.571838</course><hAcc>0.880925</hAcc><vAcc>0.703228</vAcc></extensions></trkpt>
      <trkpt lon="-3.332625" lat="54.542762"><ele>243.539200</ele><time>2021-08-12T11:02:50Z</time><extensions><speed>0.981339</speed><course>116.053932</course><hAcc>0.880835</hAcc><vAcc>0.702931</vAcc></extensions></trkpt>
      <trkpt lon="-3.332613" lat="54.542767"><ele>243.480179</ele><time>2021-08-12T11:02:51Z</time><extensions><speed>0.938038</speed><course>122.553452</course><hAcc>0.880755</hAcc><vAcc>0.702707</vAcc></extensions></trkpt>
      <trkpt lon="-3.332601" lat="54.542771"><ele>243.407806</ele><time>2021-08-12T11:02:52Z</time><extensions><speed>0.891357</speed><course>115.362396</course><hAcc>0.880682</hAcc><vAcc>0.702536</vAcc></extensions></trkpt>
      <trkpt lon="-3.332590" lat="54.542775"><ele>243.323105</ele><time>2021-08-12T11:02:53Z</time><extensions><speed>0.841588</speed><course>120.016403</course><hAcc>0.880612</hAcc><vAcc>0.702391</vAcc></extensions></trkpt>
      <trkpt lon="-3.332578" lat="54.542779"><ele>243.227707</ele><time>2021-08-12T11:02:54Z</time><extensions><speed>0.789126</speed><course>131.521149</course><hAcc>0.880543</hAcc><vAcc>0.702240</vAcc></extensions></trkpt>
      <trkpt lon="-3.332568" lat="54.542781"><ele>243.123810</ele><time>2021-08-12T11:02:55Z</time><extensions><speed>0.736195</speed><course>124.976143</course><hAcc>0.880470</hAcc><vAcc>0.702051</vAcc></extensions></trkpt>
      <trkpt lon="-3.332558" lat="54.542784"><ele>243.014069</ele><time>2021-08-12T11:02:56Z</time><extensions><speed>0.687104</speed><course>123.546791</course><hAcc>0.880393</hAcc><vAcc>0.701802</vAcc></extensions></trkpt>
      <trkpt lon="-3.332548" lat="54.542785"><ele>242.901169</ele><time>2021-08-12T11:02:57Z</time><extensions><speed>0.647472</speed><course>116.699699</course><hAcc>0.880313</hAcc><vAcc>0.701484</vAcc></extensions></trkpt>
      <trkpt lon="-3.332538" lat="54.542786"><ele>242.787506</ele><time>2021-08-12T11:02:58Z</time><extensions><speed>0.622437</speed><course>112.924561</course><hAcc>0.880232</hAcc><vAcc>0.701111</vAcc></extensions></trkpt>
      <trkpt lon="-3.332529" lat="54.542787"><ele>242.675385</ele><time>2021-08-12T11:02:59Z</time><extensions><speed>0.614078</speed><course>117.858780</course><hAcc>0.880155</hAcc><vAcc>0.700715</vAcc></extensions></trkpt>
      <trkpt lon="-3.332519" lat="54.542787"><ele>242.566818</ele><time>2021-08-12T11:03:00Z</time><extensions><speed>0.622284</speed><course>111.630035</course><hAcc>0.880088</hAcc><vAcc>0.700336</vAcc></extensions></trkpt>
      <trkpt lon="-3.332509" lat="54.542787"><ele>242.463425</ele><time>2021-08-12T11:03:01Z</time><extensions><speed>0.647083</speed><course>115.453979</course><hAcc>0.880037</hAcc><vAcc>0.700023</vAcc></extensions></trkpt>
      <trkpt lon="-3.332499" lat="54.542786"><ele>242.366684</ele><time>2021-08-12T11:03:02Z</time><extensions><speed>0.687780</speed><course>108.625862</course><hAcc>0.880008</hAcc><vAcc>0.699821</vAcc></extensions></trkpt>
      <trkpt lon="-3.332488" lat="54.542785"><ele>242.278351</ele><time>2021-08-12T11:03:03Z</time><extensions><speed>0.741695</speed><course>116.435417</course><hAcc>0.880006</hAcc><vAcc>0.699774</vAcc></extensions></trkpt>
      <trkpt lon="-3.332476" lat="54.542784"><ele>242.200439</ele><time>2021-08-12T11:03:04Z</time><extensions><speed>0.804653</speed><course>112.323517</course><hAcc>0.880032</hAcc><vAcc>0.699906</vAcc></extensions></trkpt>
      <trkpt lon="-3.332464" lat="54.542782"><ele>242.135315</ele><time>2021-08-12T11:03:05Z</time><extensions><speed>0.871873</speed><course>117.491661</course><hAcc>0.880084</hAcc><vAcc>0.700204</vAcc></extensions></trkpt>
      <trkpt lon="-3.332450" lat="54.542780"><ele>242.085052</ele><time>2021-08-12T11:03:06Z</time><extensions><speed>0.939851</speed><course>120.293846</course><hAcc>0.880158</hAcc><vAcc>0.700624</vAcc></extensions></trkpt>
      <trkpt lon="-3.332436" lat="54.542778"><ele>242.050751</ele><time>2021-08-12T11:03:07Z</time><extensions><speed>1.006725</speed><course>115.591873</course><hAcc>0.880247</hAcc><vAcc>0.701100</vAcc></extensions></trkpt>
      <trkpt lon="-3.332420" lat="54.542775"><ele>242.032471</ele><time>2021-08-12T11:03:08Z</time><extensions><speed>1.069605</speed><course>116.468712</course><hAcc>0.880342</hAcc><vAcc>0.701574</vAcc></extensions></trkpt>
      <trkpt lon="-3.332404" lat="54.542773"><ele>242.029968</ele><time>2021-08-12T11:03:09Z</time><extensions><speed>1.125909</speed><course>116.627220</course><hAcc>0.880436</hAcc><vAcc>0.702002</vAcc></extensions></trkpt>
      <trkpt lon="-3.332387" lat="54.542770"><ele>242.043152</ele><time>2021-08-12T11:03:10Z</time><extensions><speed>1.175268</speed><course>115.487846</course><hAcc>0.880524</hAcc><vAcc>0.702351</vAcc></extensions></trkpt>
      <trkpt lon="-3.332369" lat="54.542767"><ele>242.072021</ele><time>2021-08-12T11:03:11Z</time><extensions><speed>1.218864</speed><course>110.303284</course><hAcc>0.880600</hAcc><vAcc>0.702607</vAcc></extensions></trkpt>
      <trkpt lon="-3.332351" lat="54.542764"><ele>242.115982</ele><time>2021-08-12T11:03:12Z</time><extensions><speed>1.258016</speed><course>107.900200</course><hAcc>0.880663</hAcc><vAcc>0.702772</vAcc></extensions></trkpt>
      <trkpt lon="-3.332332" lat="54.542760"><ele>242.173798</ele><time>2021-08-12T11:03:13Z</time><extensions><speed>1.292594</speed><course>104.901772</course><hAcc>0.880713</hAcc><vAcc>0.702864</vAcc></extensions></trkpt>
      <trkpt lon="-3.332312" lat="54.542757"><ele>242.243774</ele><time>2021-08-12T11:03:14Z</time><extensions><speed>1.322307</speed><course>102.625549</course><hAcc>0.880752</hAcc><vAcc>0.702908</vAcc></extensions></trkpt>
      <trkpt lon="-3.332292" lat="54.542754"><ele>242.324234</ele><time>2021-08-12T11:03:15Z</time><extensions><speed>1.347193</speed><course>101.615082</course><hAcc>0.880784</hAcc><vAcc>0.702936</vAcc></extensions></trkpt>
      <trkpt lon="-3.332272" lat="54.542751"><ele>242.413757</ele><time>2021-08-12T11:03:16Z</time><extensions><speed>1.366849</speed><course>104.820312</course><hAcc>0.880810</hAcc><vAcc>0.702974</vAcc></extensions></trkpt>
      <trkpt lon="-3.332252" lat="54.542748"><ele>242.511093</ele><time>2021-08-12T11:03:17Z</time><extensions><speed>1.380368</speed><course>97.837166</course><hAcc>0.880834</hAcc><vAcc>0.703041</vAcc></extensions></trkpt>
      <trkpt lon="-3.332231" lat="54.542745"><ele>242.615051</ele><time>2021-08-12T11:03:18Z</time><extensions><speed>1.387025</speed><course>99.518051</course><hAcc>0.880859</hAcc><vAcc>0.703139</vAcc></extensions></trkpt>
      <trkpt lon="-3.332210" lat="54.542742"><ele>242.724304</ele><time>2021-08-12T11:03:19Z</time><extensions><speed>1.387118</speed><course>105.468117</course><hAcc>0.880886</hAcc><vAcc>0.703261</vAcc></extensions></trkpt>
      <trkpt lon="-3.332189" lat="54.542740"><ele>242.837067</ele><time>2021-08-12T11:03:20Z</time><extensions><speed>1.381068</speed><course>105.021729</course><hAcc>0.880915</hAcc><vAcc>0.703397</vAcc></extensions></trkpt>
      <trkpt lon="-3.332168" lat="54.542737"><ele>242.951187</ele><time>2021-08-12T11:03:21Z</time><extensions><speed>1.369316</speed><course>105.854553</course><hAcc>0.880947</hAcc><vAcc>0.703537</vAcc></extensions></trkpt>
      <trkpt lon="-3.332147" lat="54.542735"><ele>243.064392</ele><time>2021-08-12T11:03:22Z</time><extensions><speed>1.352353</speed><course>116.038353</course><hAcc>0.880981</hAcc><vAcc>0.703678</vAcc></extensions></trkpt>
      <trkpt lon="-3.332127" lat="54.542733"><ele>243.174545</ele><time>2021-08-12T11:03:23Z</time><extensions><speed>1.330420</speed><course>116.622620</course><hAcc>0.881016</hAcc><vAcc>0.703817</vAcc></extensions></trkpt>
      <trkpt lon="-3.332107" lat="54.542732"><ele>243.279449</ele><time>2021-08-12T11:03:24Z</time><extensions><speed>1.304256</speed><course>116.023415</course><hAcc>0.881052</hAcc><vAcc>0.703953</vAcc></extensions></trkpt>
      <trkpt lon="-3.332087" lat="54.542730"><ele>243.376602</ele><time>2021-08-12T11:03:25Z</time><extensions><speed>1.274982</speed><course>111.053482</course><hAcc>0.881087</hAcc><vAcc>0.704084</vAcc></extensions></trkpt>
      <trkpt lon="-3.332068" lat="54.542729"><ele>243.463593</ele><time>2021-08-12T11:03:26Z</time><extensions><speed>1.243563</speed><course>109.683617</course><hAcc>0.881122</hAcc><vAcc>0.704205</vAcc></extensions></trkpt>
      <trkpt lon="-3.332049" lat="54.542729"><ele>243.538895</ele><time>2021-08-12T11:03:27Z</time><extensions><speed>1.210671</speed><course>107.838440</course><hAcc>0.881155</hAcc><vAcc>0.704314</vAcc></extensions></trkpt>
      <trkpt lon="-3.332030" lat="54.542728"><ele>243.602356</ele><time>2021-08-12T11:03:28Z</time><extensions><speed>1.177090</speed><course>110.196930</course><hAcc>0.881187</hAcc><vAcc>0.704413</vAcc></extensions></trkpt>
      <trkpt lon="-3.332012" lat="54.542728"><ele>243.654800</ele><time>2021-08-12T11:03:29Z</time><extensions><speed>1.144268</speed><course>111.548782</course><hAcc>0.881217</hAcc><vAcc>0.704506</vAcc></extensions></trkpt>
      <trkpt lon="-3.331995" lat="54.542727"><ele>243.697418</ele><time>2021-08-12T11:03:30Z</time><extensions><speed>1.113852</speed><course>110.420074</course><hAcc>0.881243</hAcc><vAcc>0.704601</vAcc></extensions></trkpt>
      <trkpt lon="-3.331978" lat="54.542728"><ele>243.731674</ele><time>2021-08-12T11:03:31Z</time><extensions><speed>1.086271</speed><course>99.619576</course><hAcc>0.881266</hAcc><vAcc>0.704698</vAcc></extensions></trkpt>
      <trkpt lon="-3.331961" lat="54.542728"><ele>243.759109</ele><time>2021-08-12T11:03:32Z</time><extensions><speed>1.061229</speed><course>107.102882</course><hAcc>0.881284</hAcc><vAcc>0.704789</vAcc></extensions></trkpt>
      <trkpt lon="-3.331945" lat="54.542728"><ele>243.780975</ele><time>2021-08-12T11:03:33Z</time><extensions><speed>1.039058</speed><course>98.831825</course><hAcc>0.881294</hAcc><vAcc>0.704863</vAcc></extensions></trkpt>
      <trkpt lon="-3.331929" lat="54.542729"><ele>243.798096</ele><time>2021-08-12T11:03:34Z</time><extensions><speed>1.020393</speed><course>99.864403</course><hAcc>0.881295</hAcc><vAcc>0.704908</vAcc></extensions></trkpt>
      <trkpt lon="-3.331914" lat="54.542729"><ele>243.811417</ele><time>2021-08-12T11:03:35Z</time><extensions><speed>1.004653</speed><course>99.165215</course><hAcc>0.881285</hAcc><vAcc>0.704910</vAcc></extensions></trkpt>
      <trkpt lon="-3.331898" lat="54.542730"><ele>243.822281</ele><time>2021-08-12T11:03:36Z</time><extensions><speed>0.991129</speed><course>106.876038</course><hAcc>0.881262</hAcc><vAcc>0.704857</vAcc></extensions></trkpt>
      <trkpt lon="-3.331883" lat="54.542731"><ele>243.831970</ele><time>2021-08-12T11:03:37Z</time><extensions><speed>0.980260</speed><course>100.224144</course><hAcc>0.881225</hAcc><vAcc>0.704740</vAcc></extensions></trkpt>
      <trkpt lon="-3.331868" lat="54.542732"><ele>243.841187</ele><time>2021-08-12T11:03:38Z</time><extensions><speed>0.972699</speed><course>97.870438</course><hAcc>0.881173</hAcc><vAcc>0.704555</vAcc></extensions></trkpt>
      <trkpt lon="-3.331853" lat="54.542733"><ele>243.849686</ele><time>2021-08-12T11:03:39Z</time><extensions><speed>0.969133</speed><course>109.047302</course><hAcc>0.881108</hAcc><vAcc>0.704305</vAcc></extensions></trkpt>
      <trkpt lon="-3.331839" lat="54.542735"><ele>243.857025</ele><time>2021-08-12T11:03:40Z</time><extensions><speed>0.970102</speed><course>111.386711</course><hAcc>0.881029</hAcc><vAcc>0.703997</vAcc></extensions></trkpt>
      <trkpt lon="-3.331824" lat="54.542737"><ele>243.863251</ele><time>2021-08-12T11:03:41Z</time><extensions><speed>0.975942</speed><course>110.131767</course><hAcc>0.880941</hAcc><vAcc>0.703639</vAcc></extensions></trkpt>
      <trkpt lon="-3.331809" lat="54.542738"><ele>243.868362</ele><time>2021-08-12T11:03:42Z</time><extensions><speed>0.986742</speed><course>109.748413</course><hAcc>0.880845</hAcc><vAcc>0.703246</vAcc></extensions></trkpt>
      <trkpt lon="-3.331794" lat="54.542740"><ele>243.872131</ele><time>2021-08-12T11:03:43Z</time><extensions><speed>1.002171</speed><course>116.453705</course><hAcc>0.880745</hAcc><vAcc>0.702832</vAcc></extensions></trkpt>
      <trkpt lon="-3.331779" lat="54.542742"><ele>243.874390</ele><time>2021-08-12T11:03:44Z</time><extensions><speed>1.021478</speed><course>111.019348</course><hAcc>0.880648</hAcc><vAcc>0.702416</vAcc></extensions></trkpt>
      <trkpt lon="-3.331763" lat="54.542744"><ele>243.875046</ele><time>2021-08-12T11:03:45Z</time><extensions><speed>1.043033</speed><course>106.996025</course><hAcc>0.880556</hAcc><vAcc>0.702023</vAcc></extensions></trkpt>
      <trkpt lon="-3.331747" lat="54.542746"><ele>243.873993</ele><time>2021-08-12T11:03:46Z</time><extensions><speed>1.064693</speed><course>104.594215</course><hAcc>0.880475</hAcc><vAcc>0.701676</vAcc></extensions></trkpt>
      <trkpt lon="-3.331731" lat="54.542749"><ele>243.871201</ele><time>2021-08-12T11:03:47Z</time><extensions><speed>1.084690</speed><course>101.351479</course><hAcc>0.880409</hAcc><vAcc>0.701395</vAcc></extensions></trkpt>
      <trkpt lon="-3.331715" lat="54.542751"><ele>243.866760</ele><time>2021-08-12T11:03:48Z</time><extensions><speed>1.101996</speed><course>105.952332</course><hAcc>0.880361</hAcc><vAcc>0.701194</vAcc></extensions></trkpt>
      <trkpt lon="-3.331698" lat="54.542753"><ele>243.860962</ele><time>2021-08-12T11:03:49Z</time><extensions><speed>1.116761</speed><course>113.138412</course><hAcc>0.880335</hAcc><vAcc>0.701080</vAcc></extensions></trkpt>
      <trkpt lon="-3.331681" lat="54.542756"><ele>243.854462</ele><time>2021-08-12T11:03:50Z</time><extensions><speed>1.129270</speed><course>112.944946</course><hAcc>0.880331</hAcc><vAcc>0.701063</vAcc></extensions></trkpt>
      <trkpt lon="-3.331664" lat="54.542758"><ele>243.848511</ele><time>2021-08-12T11:03:51Z</time><extensions><speed>1.139359</speed><course>108.292221</course><hAcc>0.880350</hAcc><vAcc>0.701145</vAcc></extensions></trkpt>
      <trkpt lon="-3.331647" lat="54.542760"><ele>243.844559</ele><time>2021-08-12T11:03:52Z</time><extensions><speed>1.147035</speed><course>108.436562</course><hAcc>0.880392</hAcc><vAcc>0.701324</vAcc></extensions></trkpt>
      <trkpt lon="-3.331630" lat="54.542762"><ele>243.843506</ele><time>2021-08-12T11:03:53Z</time><extensions><speed>1.152219</speed><course>102.445824</course><hAcc>0.880454</hAcc><vAcc>0.701590</vAcc></extensions></trkpt>
      <trkpt lon="-3.331612" lat="54.542765"><ele>243.845398</ele><time>2021-08-12T11:03:54Z</time><extensions><speed>1.154594</speed><course>99.628555</course><hAcc>0.880534</hAcc><vAcc>0.701927</vAcc></extensions></trkpt>
      <trkpt lon="-3.331595" lat="54.542767"><ele>243.850052</ele><time>2021-08-12T11:03:55Z</time><extensions><speed>1.154339</speed><course>103.656601</course><hAcc>0.880628</hAcc><vAcc>0.702319</vAcc></extensions></trkpt>
      <trkpt lon="-3.331577" lat="54.542768"><ele>243.857895</ele><time>2021-08-12T11:03:56Z</time><extensions><speed>1.152642</speed><course>97.309608</course><hAcc>0.880733</hAcc><vAcc>0.702752</vAcc></extensions></trkpt>
      <trkpt lon="-3.331559" lat="54.542770"><ele>243.869751</ele><time>2021-08-12T11:03:57Z</time><extensions><speed>1.150776</speed><course>95.308922</course><hAcc>0.880843</hAcc><vAcc>0.703208</vAcc></extensions></trkpt>
      <trkpt lon="-3.331542" lat="54.542772"><ele>243.886658</ele><time>2021-08-12T11:03:58Z</time><extensions><speed>1.149343</speed><course>105.665154</course><hAcc>0.880956</hAcc><vAcc>0.703664</vAcc></extensions></trkpt>
      <trkpt lon="-3.331524" lat="54.542773"><ele>243.910187</ele><time>2021-08-12T11:03:59Z</time><extensions><speed>1.148458</speed><course>120.238884</course><hAcc>0.881068</hAcc><vAcc>0.704097</vAcc></extensions></trkpt>
      <trkpt lon="-3.331507" lat="54.542774"><ele>243.941986</ele><time>2021-08-12T11:04:00Z</time><extensions><speed>1.147880</speed><course>108.474937</course><hAcc>0.881174</hAcc><vAcc>0.704492</vAcc></extensions></trkpt>
      <trkpt lon="-3.331489" lat="54.542775"><ele>243.983170</ele><time>2021-08-12T11:04:01Z</time><extensions><speed>1.147495</speed><course>104.059807</course><hAcc>0.881273</hAcc><vAcc>0.704844</vAcc></extensions></trkpt>
      <trkpt lon="-3.331471" lat="54.542775"><ele>244.034348</ele><time>2021-08-12T11:04:02Z</time><extensions><speed>1.146823</speed><course>102.572708</course><hAcc>0.881361</hAcc><vAcc>0.705153</vAcc></extensions></trkpt>
      <trkpt lon="-3.331454" lat="54.542775"><ele>244.095779</ele><time>2021-08-12T11:04:03Z</time><extensions><speed>1.144488</speed><course>107.161850</course><hAcc>0.881437</hAcc><vAcc>0.705421</vAcc></extensions></trkpt>
      <trkpt lon="-3.331436" lat="54.542776"><ele>244.167236</ele><time>2021-08-12T11:04:04Z</time><extensions><speed>1.139536</speed><course>105.046165</course><hAcc>0.881499</hAcc><vAcc>0.705649</vAcc></extensions></trkpt>
      <trkpt lon="-3.331418" lat="54.542776"><ele>244.248352</ele><time>2021-08-12T11:04:05Z</time><extensions><speed>1.131384</speed><course>107.406158</course><hAcc>0.881545</hAcc><vAcc>0.705832</vAcc></extensions></trkpt>
      <trkpt lon="-3.331401" lat="54.542775"><ele>244.338974</ele><time>2021-08-12T11:04:06Z</time><extensions><speed>1.119409</speed><course>115.429123</course><hAcc>0.881574</hAcc><vAcc>0.705964</vAcc></extensions></trkpt>
      <trkpt lon="-3.331384" lat="54.542775"><ele>244.439377</ele><time>2021-08-12T11:04:07Z</time><extensions><speed>1.103460</speed><course>116.147835</course><hAcc>0.881584</hAcc><vAcc>0.706035</vAcc></extensions></trkpt>
      <trkpt lon="-3.331367" lat="54.542775"><ele>244.550186</ele><time>2021-08-12T11:04:08Z</time><extensions><speed>1.084011</speed><course>117.699570</course><hAcc>0.881574</hAcc><vAcc>0.706037</vAcc></extensions></trkpt>
      <trkpt lon="-3.331350" lat="54.542775"><ele>244.672165</ele><time>2021-08-12T11:04:09Z</time><extensions><speed>1.062777</speed><course>118.218575</course><hAcc>0.881543</hAcc><vAcc>0.705960</vAcc></extensions></trkpt>
      <trkpt lon="-3.331334" lat="54.542774"><ele>244.805939</ele><time>2021-08-12T11:04:10Z</time><extensions><speed>1.041514</speed><course>118.864105</course><hAcc>0.881491</hAcc><vAcc>0.705796</vAcc></extensions></trkpt>
      <trkpt lon="-3.331318" lat="54.542774"><ele>244.951889</ele><time>2021-08-12T11:04:11Z</time><extensions><speed>1.020482</speed><course>117.180046</course><hAcc>0.881419</hAcc><vAcc>0.705537</vAcc></extensions></trkpt>
      <trkpt lon="-3.331303" lat="54.542774"><ele>245.109879</ele><time>2021-08-12T11:04:12Z</time><extensions><speed>0.999120</speed><course>115.856689</course><hAcc>0.881328</hAcc><vAcc>0.705185</vAcc></extensions></trkpt>
      <trkpt lon="-3.331287" lat="54.542774"><ele>245.278946</ele><time>2021-08-12T11:04:13Z</time><extensions><speed>0.976135</speed><course>112.617844</course><hAcc>0.881222</hAcc><vAcc>0.704748</vAcc></extensions></trkpt>
      <trkpt lon="-3.331272" lat="54.542774"><ele>245.457474</ele><time>2021-08-12T11:04:14Z</time><extensions><speed>0.950765</speed><course>120.157761</course><hAcc>0.881104</hAcc><vAcc>0.704245</vAcc></extensions></trkpt>
      <trkpt lon="-3.331258" lat="54.542774"><ele>245.643784</ele><time>2021-08-12T11:04:15Z</time><extensions><speed>0.923342</speed><course>116.743965</course><hAcc>0.880980</hAcc><vAcc>0.703703</vAcc></extensions></trkpt>
      <trkpt lon="-3.331244" lat="54.542774"><ele>245.835663</ele><time>2021-08-12T11:04:16Z</time><extensions><speed>0.894713</speed><course>126.528450</course><hAcc>0.880853</hAcc><vAcc>0.703153</vAcc></extensions></trkpt>
      <trkpt lon="-3.331230" lat="54.542774"><ele>246.030472</ele><time>2021-08-12T11:04:17Z</time><extensions><speed>0.866167</speed><course>122.809067</course><hAcc>0.880728</hAcc><vAcc>0.702624</vAcc></extensions></trkpt>
      <trkpt lon="-3.331217" lat="54.542774"><ele>246.225571</ele><time>2021-08-12T11:04:18Z</time><extensions><speed>0.838747</speed><course>118.437454</course><hAcc>0.880609</hAcc><vAcc>0.702142</vAcc></extensions></trkpt>
      <trkpt lon="-3.331204" lat="54.542774"><ele>246.418610</ele><time>2021-08-12T11:04:19Z</time><extensions><speed>0.813340</speed><course>113.862648</course><hAcc>0.880498</hAcc><vAcc>0.701724</vAcc></extensions></trkpt>
      <trkpt lon="-3.331192" lat="54.542774"><ele>246.607681</ele><time>2021-08-12T11:04:20Z</time><extensions><speed>0.791699</speed><course>110.315605</course><hAcc>0.880398</hAcc><vAcc>0.701381</vAcc></extensions></trkpt>
      <trkpt lon="-3.331180" lat="54.542775"><ele>246.791229</ele><time>2021-08-12T11:04:21Z</time><extensions><speed>0.775838</speed><course>111.526596</course><hAcc>0.880306</hAcc><vAcc>0.701107</vAcc></extensions></trkpt>
      <trkpt lon="-3.331168" lat="54.542775"><ele>246.967743</ele><time>2021-08-12T11:04:22Z</time><extensions><speed>0.766490</speed><course>111.825790</course><hAcc>0.880223</hAcc><vAcc>0.700887</vAcc></extensions></trkpt>
      <trkpt lon="-3.331156" lat="54.542776"><ele>247.135651</ele><time>2021-08-12T11:04:23Z</time><extensions><speed>0.763204</speed><course>110.069481</course><hAcc>0.880145</hAcc><vAcc>0.700694</vAcc></extensions></trkpt>
      <trkpt lon="-3.331145" lat="54.542777"><ele>247.293350</ele><time>2021-08-12T11:04:24Z</time><extensions><speed>0.765555</speed><course>114.632622</course><hAcc>0.880071</hAcc><vAcc>0.700502</vAcc></extensions></trkpt>
      <trkpt lon="-3.331133" lat="54.542778"><ele>247.439804</ele><time>2021-08-12T11:04:25Z</time><extensions><speed>0.773859</speed><course>103.253258</course><hAcc>0.879999</hAcc><vAcc>0.700288</vAcc></extensions></trkpt>
      <trkpt lon="-3.331121" lat="54.542779"><ele>247.574631</ele><time>2021-08-12T11:04:26Z</time><extensions><speed>0.787968</speed><course>106.301743</course><hAcc>0.879930</hAcc><vAcc>0.700040</vAcc></extensions></trkpt>
      <trkpt lon="-3.331109" lat="54.542780"><ele>247.698013</ele><time>2021-08-12T11:04:27Z</time><extensions><speed>0.807120</speed><course>102.376541</course><hAcc>0.879865</hAcc><vAcc>0.699759</vAcc></extensions></trkpt>
      <trkpt lon="-3.331096" lat="54.542781"><ele>247.810440</ele><time>2021-08-12T11:04:28Z</time><extensions><speed>0.830370</speed><course>106.795837</course><hAcc>0.879809</hAcc><vAcc>0.699463</vAcc></extensions></trkpt>
      <trkpt lon="-3.331083" lat="54.542783"><ele>247.912415</ele><time>2021-08-12T11:04:29Z</time><extensions><speed>0.856173</speed><course>105.416672</course><hAcc>0.879766</hAcc><vAcc>0.699186</vAcc></extensions></trkpt>
      <trkpt lon="-3.331070" lat="54.542784"><ele>248.004440</ele><time>2021-08-12T11:04:30Z</time><extensions><speed>0.882599</speed><course>115.994911</course><hAcc>0.879742</hAcc><vAcc>0.698977</vAcc></extensions></trkpt>
      <trkpt lon="-3.331057" lat="54.542786"><ele>248.087418</ele><time>2021-08-12T11:04:31Z</time><extensions><speed>0.908131</speed><course>121.956070</course><hAcc>0.879744</hAcc><vAcc>0.698892</vAcc></extensions></trkpt>
      <trkpt lon="-3.331043" lat="54.542789"><ele>248.162872</ele><time>2021-08-12T11:04:32Z</time><extensions><speed>0.932156</speed><course>114.918808</course><hAcc>0.879775</hAcc><vAcc>0.698970</vAcc></extensions></trkpt>
      <trkpt lon="-3.331029" lat="54.542791"><ele>248.232803</ele><time>2021-08-12T11:04:33Z</time><extensions><speed>0.953932</speed><course>112.952827</course><hAcc>0.879836</hAcc><vAcc>0.699219</vAcc></extensions></trkpt>
      <trkpt lon="-3.331015" lat="54.542794"><ele>248.299896</ele><time>2021-08-12T11:04:34Z</time><extensions><speed>0.973296</speed><course>108.521141</course><hAcc>0.879925</hAcc><vAcc>0.699616</vAcc></extensions></trkpt>
      <trkpt lon="-3.331001" lat="54.542797"><ele>248.366959</ele><time>2021-08-12T11:04:35Z</time><extensions><speed>0.990769</speed><course>105.023331</course><hAcc>0.880037</hAcc><vAcc>0.700125</vAcc></extensions></trkpt>
      <trkpt lon="-3.330986" lat="54.542800"><ele>248.436234</ele><time>2021-08-12T11:04:36Z</time><extensions><speed>1.005880</speed><course>98.270523</course><hAcc>0.880167</hAcc><vAcc>0.700703</vAcc></extensions></trkpt>
      <trkpt lon="-3.330971" lat="54.542803"><ele>248.509247</ele><time>2021-08-12T11:04:37Z</time><extensions><speed>1.018478</speed><course>104.555389</course><hAcc>0.880309</hAcc><vAcc>0.701310</vAcc></extensions></trkpt>
      <trkpt lon="-3.330957" lat="54.542806"><ele>248.586945</ele><time>2021-08-12T11:04:38Z</time><extensions><speed>1.028875</speed><course>108.798698</course><hAcc>0.880454</hAcc><vAcc>0.701911</vAcc></extensions></trkpt>
      <trkpt lon="-3.330942" lat="54.542809"><ele>248.669907</ele><time>2021-08-12T11:04:39Z</time><extensions><speed>1.036941</speed><course>107.953148</course><hAcc>0.880596</hAcc><vAcc>0.702476</vAcc></extensions></trkpt>
      <trkpt lon="-3.330927" lat="54.542812"><ele>248.758545</ele><time>2021-08-12T11:04:40Z</time><extensions><speed>1.043006</speed><course>107.561462</course><hAcc>0.880731</hAcc><vAcc>0.702988</vAcc></extensions></trkpt>
      <trkpt lon="-3.330911" lat="54.542815"><ele>248.852921</ele><time>2021-08-12T11:04:41Z</time><extensions><speed>1.047534</speed><course>98.600151</course><hAcc>0.880852</hAcc><vAcc>0.703435</vAcc></extensions></trkpt>
      <trkpt lon="-3.330896" lat="54.542819"><ele>248.952637</ele><time>2021-08-12T11:04:42Z</time><extensions><speed>1.050325</speed><course>106.179245</course><hAcc>0.880959</hAcc><vAcc>0.703811</vAcc></extensions></trkpt>
      <trkpt lon="-3.330881" lat="54.542822"><ele>249.056992</ele><time>2021-08-12T11:04:43Z</time><extensions><speed>1.051136</speed><course>99.736237</course><hAcc>0.881048</hAcc><vAcc>0.704113</vAcc></extensions></trkpt>
      <trkpt lon="-3.330866" lat="54.542826"><ele>249.165192</ele><time>2021-08-12T11:04:44Z</time><extensions><speed>1.050528</speed><course>102.027924</course><hAcc>0.881119</hAcc><vAcc>0.704341</vAcc></extensions></trkpt>
      <trkpt lon="-3.330852" lat="54.542830"><ele>249.276276</ele><time>2021-08-12T11:04:45Z</time><extensions><speed>1.050130</speed><course>94.072990</course><hAcc>0.881171</hAcc><vAcc>0.704503</vAcc></extensions></trkpt>
      <trkpt lon="-3.330837" lat="54.542834"><ele>249.389038</ele><time>2021-08-12T11:04:46Z</time><extensions><speed>1.052027</speed><course>96.463219</course><hAcc>0.881206</hAcc><vAcc>0.704605</vAcc></extensions></trkpt>
      <trkpt lon="-3.330823" lat="54.542839"><ele>249.502396</ele><time>2021-08-12T11:04:47Z</time><extensions><speed>1.056705</speed><course>96.928070</course><hAcc>0.881225</hAcc><vAcc>0.704657</vAcc></extensions></trkpt>
      <trkpt lon="-3.330808" lat="54.542843"><ele>249.615540</ele><time>2021-08-12T11:04:48Z</time><extensions><speed>1.063507</speed><course>85.766655</course><hAcc>0.881227</hAcc><vAcc>0.704664</vAcc></extensions></trkpt>
      <trkpt lon="-3.330794" lat="54.542848"><ele>249.727859</ele><time>2021-08-12T11:04:49Z</time><extensions><speed>1.072286</speed><course>93.944389</course><hAcc>0.881215</hAcc><vAcc>0.704626</vAcc></extensions></trkpt>
      <trkpt lon="-3.330780" lat="54.542854"><ele>249.838913</ele><time>2021-08-12T11:04:50Z</time><extensions><speed>1.082493</speed><course>96.280258</course><hAcc>0.881189</hAcc><vAcc>0.704539</vAcc></extensions></trkpt>
      <trkpt lon="-3.330767" lat="54.542859"><ele>249.948654</ele><time>2021-08-12T11:04:51Z</time><extensions><speed>1.093279</speed><course>103.229439</course><hAcc>0.881149</hAcc><vAcc>0.704403</vAcc></extensions></trkpt>
      <trkpt lon="-3.330753" lat="54.542865"><ele>250.057327</ele><time>2021-08-12T11:04:52Z</time><extensions><speed>1.103834</speed><course>100.069313</course><hAcc>0.881097</hAcc><vAcc>0.704216</vAcc></extensions></trkpt>
      <trkpt lon="-3.330740" lat="54.542872"><ele>250.164993</ele><time>2021-08-12T11:04:53Z</time><extensions><speed>1.113928</speed><course>107.704430</course><hAcc>0.881035</hAcc><vAcc>0.703982</vAcc></extensions></trkpt>
      <trkpt lon="-3.330727" lat="54.542878"><ele>250.271454</ele><time>2021-08-12T11:04:54Z</time><extensions><speed>1.123736</speed><course>102.019516</course><hAcc>0.880963</hAcc><vAcc>0.703705</vAcc></extensions></trkpt>
      <trkpt lon="-3.330714" lat="54.542885"><ele>250.376404</ele><time>2021-08-12T11:04:55Z</time><extensions><speed>1.132874</speed><course>101.188896</course><hAcc>0.880883</hAcc><vAcc>0.703392</vAcc></extensions></trkpt>
      <trkpt lon="-3.330702" lat="54.542892"><ele>250.479431</ele><time>2021-08-12T11:04:56Z</time><extensions><speed>1.141069</speed><course>101.655106</course><hAcc>0.880797</hAcc><vAcc>0.703051</vAcc></extensions></trkpt>
      <trkpt lon="-3.330690" lat="54.542900"><ele>250.579803</ele><time>2021-08-12T11:04:57Z</time><extensions><speed>1.148787</speed><course>97.512695</course><hAcc>0.880708</hAcc><vAcc>0.702694</vAcc></extensions></trkpt>
      <trkpt lon="-3.330678" lat="54.542907"><ele>250.676544</ele><time>2021-08-12T11:04:58Z</time><extensions><speed>1.156117</speed><course>96.923676</course><hAcc>0.880619</hAcc><vAcc>0.702334</vAcc></extensions></trkpt>
      <trkpt lon="-3.330666" lat="54.542915"><ele>250.768463</ele><time>2021-08-12T11:04:59Z</time><extensions><speed>1.162439</speed><course>96.356850</course><hAcc>0.880531</hAcc><vAcc>0.701987</vAcc></extensions></trkpt>
      <trkpt lon="-3.330654" lat="54.542923"><ele>250.854324</ele><time>2021-08-12T11:05:00Z</time><extensions><speed>1.167809</speed><course>95.959724</course><hAcc>0.880447</hAcc><vAcc>0.701666</vAcc></extensions></trkpt>
      <trkpt lon="-3.330642" lat="54.542931"><ele>250.933044</ele><time>2021-08-12T11:05:01Z</time><extensions><speed>1.172605</speed><course>95.959717</course><hAcc>0.880369</hAcc><vAcc>0.701381</vAcc></extensions></trkpt>
      <trkpt lon="-3.330631" lat="54.542939"><ele>251.003845</ele><time>2021-08-12T11:05:02Z</time><extensions><speed>1.176569</speed><course>97.361824</course><hAcc>0.880300</hAcc><vAcc>0.701135</vAcc></extensions></trkpt>
      <trkpt lon="-3.330619" lat="54.542948"><ele>251.065933</ele><time>2021-08-12T11:05:03Z</time><extensions><speed>1.179434</speed><course>97.361824</course><hAcc>0.880241</hAcc><vAcc>0.700927</vAcc></extensions></trkpt>
      <trkpt lon="-3.330608" lat="54.542956"><ele>251.118500</ele><time>2021-08-12T11:05:04Z</time><extensions><speed>1.182171</speed><course>97.361809</course><hAcc>0.880194</hAcc><vAcc>0.700753</vAcc></extensions></trkpt>
      <trkpt lon="-3.330596" lat="54.542964"><ele>251.161102</ele><time>2021-08-12T11:05:05Z</time><extensions><speed>1.186163</speed><course>97.361801</course><hAcc>0.880160</hAcc><vAcc>0.700610</vAcc></extensions></trkpt>
      <trkpt lon="-3.330584" lat="54.542972"><ele>251.193741</ele><time>2021-08-12T11:05:06Z</time><extensions><speed>1.192202</speed><course>42.884136</course><hAcc>0.880141</hAcc><vAcc>0.700506</vAcc></extensions></trkpt>
      <trkpt lon="-3.330572" lat="54.542980"><ele>251.216461</ele><time>2021-08-12T11:05:07Z</time><extensions><speed>1.200240</speed><course>35.984764</course><hAcc>0.880139</hAcc><vAcc>0.700455</vAcc></extensions></trkpt>
      <trkpt lon="-3.330560" lat="54.542988"><ele>251.229187</ele><time>2021-08-12T11:05:08Z</time><extensions><speed>1.209440</speed><course>65.852417</course><hAcc>0.880154</hAcc><vAcc>0.700478</vAcc></extensions></trkpt>
      <trkpt lon="-3.330547" lat="54.542996"><ele>251.231659</ele><time>2021-08-12T11:05:09Z</time><extensions><speed>1.219328</speed><course>86.337746</course><hAcc>0.880189</hAcc><vAcc>0.700588</vAcc></extensions></trkpt>
      <trkpt lon="-3.330534" lat="54.543004"><ele>251.223526</ele><time>2021-08-12T11:05:10Z</time><extensions><speed>1.230143</speed><course>89.071770</course><hAcc>0.880241</hAcc><vAcc>0.700792</vAcc></extensions></trkpt>
      <trkpt lon="-3.330520" lat="54.543012"><ele>251.204681</ele><time>2021-08-12T11:05:11Z</time><extensions><speed>1.242318</speed><course>92.612312</course><hAcc>0.880310</hAcc><vAcc>0.701081</vAcc></extensions></trkpt>
      <trkpt lon="-3.330505" lat="54.543019"><ele>251.175400</ele><time>2021-08-12T11:05:12Z</time><extensions><speed>1.255612</speed><course>103.461632</course><hAcc>0.880394</hAcc><vAcc>0.701439</vAcc></extensions></trkpt>
      <trkpt lon="-3.330490" lat="54.543026"><ele>251.136505</ele><time>2021-08-12T11:05:13Z</time><extensions><speed>1.268638</speed><course>104.412865</course><hAcc>0.880489</hAcc><vAcc>0.701846</vAcc></extensions></trkpt>
      <trkpt lon="-3.330474" lat="54.543033"><ele>251.089584</ele><time>2021-08-12T11:05:14Z</time><extensions><speed>1.279751</speed><course>129.601685</course><hAcc>0.880591</hAcc><vAcc>0.702277</vAcc></extensions></trkpt>
      <trkpt lon="-3.330458" lat="54.543039"><ele>251.036560</ele><time>2021-08-12T11:05:15Z</time><extensions><speed>1.288107</speed><course>149.567169</course><hAcc>0.880698</hAcc><vAcc>0.702709</vAcc></extensions></trkpt>
      <trkpt lon="-3.330441" lat="54.543046"><ele>250.979401</ele><time>2021-08-12T11:05:16Z</time><extensions><speed>1.293468</speed><course>129.327728</course><hAcc>0.880806</hAcc><vAcc>0.703125</vAcc></extensions></trkpt>
      <trkpt lon="-3.330423" lat="54.543052"><ele>250.920212</ele><time>2021-08-12T11:05:17Z</time><extensions><speed>1.296071</speed><course>129.943619</course><hAcc>0.880912</hAcc><vAcc>0.703516</vAcc></extensions></trkpt>
      <trkpt lon="-3.330406" lat="54.543057"><ele>250.861389</ele><time>2021-08-12T11:05:18Z</time><extensions><speed>1.296324</speed><course>125.470825</course><hAcc>0.881014</hAcc><vAcc>0.703879</vAcc></extensions></trkpt>
      <trkpt lon="-3.330388" lat="54.543062"><ele>250.805481</ele><time>2021-08-12T11:05:19Z</time><extensions><speed>1.294812</speed><course>125.654007</course><hAcc>0.881110</hAcc><vAcc>0.704215</vAcc></extensions></trkpt>
      <trkpt lon="-3.330369" lat="54.543066"><ele>250.755066</ele><time>2021-08-12T11:05:20Z</time><extensions><speed>1.292250</speed><course>132.941208</course><hAcc>0.881200</hAcc><vAcc>0.704529</vAcc></extensions></trkpt>
      <trkpt lon="-3.330350" lat="54.543070"><ele>250.712479</ele><time>2021-08-12T11:05:21Z</time><extensions><speed>1.289177</speed><course>128.525970</course><hAcc>0.881283</hAcc><vAcc>0.704820</vAcc></extensions></trkpt>
      <trkpt lon="-3.330331" lat="54.543073"><ele>250.679962</ele><time>2021-08-12T11:05:22Z</time><extensions><speed>1.285724</speed><course>129.747040</course><hAcc>0.881357</hAcc><vAcc>0.705087</vAcc></extensions></trkpt>
      <trkpt lon="-3.330312" lat="54.543076"><ele>250.660217</ele><time>2021-08-12T11:05:23Z</time><extensions><speed>1.282334</speed><course>133.257645</course><hAcc>0.881424</hAcc><vAcc>0.705328</vAcc></extensions></trkpt>
      <trkpt lon="-3.330293" lat="54.543078"><ele>250.656158</ele><time>2021-08-12T11:05:24Z</time><extensions><speed>1.279694</speed><course>122.834160</course><hAcc>0.881483</hAcc><vAcc>0.705543</vAcc></extensions></trkpt>
      <trkpt lon="-3.330273" lat="54.543080"><ele>250.670395</ele><time>2021-08-12T11:05:25Z</time><extensions><speed>1.278063</speed><course>121.754723</course><hAcc>0.881533</hAcc><vAcc>0.705733</vAcc></extensions></trkpt>
      <trkpt lon="-3.330253" lat="54.543080"><ele>250.704575</ele><time>2021-08-12T11:05:26Z</time><extensions><speed>1.277108</speed><course>130.620087</course><hAcc>0.881574</hAcc><vAcc>0.705895</vAcc></extensions></trkpt>
      <trkpt lon="-3.330234" lat="54.543080"><ele>250.759308</ele><time>2021-08-12T11:05:27Z</time><extensions><speed>1.276499</speed><course>128.548019</course><hAcc>0.881604</hAcc><vAcc>0.706025</vAcc></extensions></trkpt>
      <trkpt lon="-3.330214" lat="54.543080"><ele>250.834656</ele><time>2021-08-12T11:05:28Z</time><extensions><speed>1.276449</speed><course>128.034912</course><hAcc>0.881623</hAcc><vAcc>0.706113</vAcc></extensions></trkpt>
      <trkpt lon="-3.330194" lat="54.543079"><ele>250.930084</ele><time>2021-08-12T11:05:29Z</time><extensions><speed>1.276811</speed><course>128.138321</course><hAcc>0.881630</hAcc><vAcc>0.706154</vAcc></extensions></trkpt>
      <trkpt lon="-3.330175" lat="54.543077"><ele>251.044525</ele><time>2021-08-12T11:05:30Z</time><extensions><speed>1.277200</speed><course>127.788391</course><hAcc>0.881625</hAcc><vAcc>0.706141</vAcc></extensions></trkpt>
      <trkpt lon="-3.330155" lat="54.543074"><ele>251.176636</ele><time>2021-08-12T11:05:31Z</time><extensions><speed>1.277417</speed><course>111.799332</course><hAcc>0.881606</hAcc><vAcc>0.706074</vAcc></extensions></trkpt>
      <trkpt lon="-3.330136" lat="54.543071"><ele>251.325043</ele><time>2021-08-12T11:05:32Z</time><extensions><speed>1.277162</speed><course>135.894547</course><hAcc>0.881572</hAcc><vAcc>0.705955</vAcc></extensions></trkpt>
      <trkpt lon="-3.330118" lat="54.543068"><ele>251.488098</ele><time>2021-08-12T11:05:33Z</time><extensions><speed>1.276258</speed><course>135.791443</course><hAcc>0.881525</hAcc><vAcc>0.705785</vAcc></extensions></trkpt>
      <trkpt lon="-3.330100" lat="54.543063"><ele>251.663757</ele><time>2021-08-12T11:05:34Z</time><extensions><speed>1.274191</speed><course>137.532547</course><hAcc>0.881462</hAcc><vAcc>0.705562</vAcc></extensions></trkpt>
      <trkpt lon="-3.330082" lat="54.543058"><ele>251.849472</ele><time>2021-08-12T11:05:35Z</time><extensions><speed>1.270144</speed><course>139.503952</course><hAcc>0.881386</hAcc><vAcc>0.705284</vAcc></extensions></trkpt>
      <trkpt lon="-3.330065" lat="54.543053"><ele>252.042450</ele><time>2021-08-12T11:05:36Z</time><extensions><speed>1.264305</speed><course>146.422607</course><hAcc>0.881296</hAcc><vAcc>0.704951</vAcc></extensions></trkpt>
      <trkpt lon="-3.330048" lat="54.543047"><ele>252.240036</ele><time>2021-08-12T11:05:37Z</time><extensions><speed>1.257218</speed><course>123.702354</course><hAcc>0.881193</hAcc><vAcc>0.704566</vAcc></extensions></trkpt>
      <trkpt lon="-3.330032" lat="54.543041"><ele>252.440063</ele><time>2021-08-12T11:05:38Z</time><extensions><speed>1.249046</speed><course>126.795586</course><hAcc>0.881078</hAcc><vAcc>0.704133</vAcc></extensions></trkpt>
      <trkpt lon="-3.330016" lat="54.543034"><ele>252.640762</ele><time>2021-08-12T11:05:39Z</time><extensions><speed>1.239892</speed><course>132.239441</course><hAcc>0.880953</hAcc><vAcc>0.703659</vAcc></extensions></trkpt>
      <trkpt lon="-3.330001" lat="54.543027"><ele>252.840546</ele><time>2021-08-12T11:05:40Z</time><extensions><speed>1.229640</speed><course>129.200668</course><hAcc>0.880820</hAcc><vAcc>0.703158</vAcc></extensions></trkpt>
      <trkpt lon="-3.329987" lat="54.543020"><ele>253.037750</ele><time>2021-08-12T11:05:41Z</time><extensions><speed>1.218455</speed><course>125.122314</course><hAcc>0.880679</hAcc><vAcc>0.702640</vAcc></extensions></trkpt>
      <trkpt lon="-3.329973" lat="54.543013"><ele>253.230789</ele><time>2021-08-12T11:05:42Z</time><extensions><speed>1.206428</speed><course>136.265396</course><hAcc>0.880532</hAcc><vAcc>0.702111</vAcc></extensions></trkpt>
      <trkpt lon="-3.329959" lat="54.543006"><ele>253.418716</ele><time>2021-08-12T11:05:43Z</time><extensions><speed>1.193339</speed><course>135.687027</course><hAcc>0.880382</hAcc><vAcc>0.701574</vAcc></extensions></trkpt>
      <trkpt lon="-3.329946" lat="54.542998"><ele>253.600967</ele><time>2021-08-12T11:05:44Z</time><extensions><speed>1.179699</speed><course>134.189224</course><hAcc>0.880232</hAcc><vAcc>0.701028</vAcc></extensions></trkpt>
      <trkpt lon="-3.329934" lat="54.542991"><ele>253.777191</ele><time>2021-08-12T11:05:45Z</time><extensions><speed>1.166293</speed><course>130.213623</course><hAcc>0.880083</hAcc><vAcc>0.700472</vAcc></extensions></trkpt>
      <trkpt lon="-3.329921" lat="54.542983"><ele>253.947510</ele><time>2021-08-12T11:05:46Z</time><extensions><speed>1.153842</speed><course>131.249283</course><hAcc>0.879941</hAcc><vAcc>0.699912</vAcc></extensions></trkpt>
      <trkpt lon="-3.329909" lat="54.542976"><ele>254.112228</ele><time>2021-08-12T11:05:47Z</time><extensions><speed>1.142890</speed><course>132.412170</course><hAcc>0.879810</hAcc><vAcc>0.699365</vAcc></extensions></trkpt>
      <trkpt lon="-3.329897" lat="54.542968"><ele>254.271408</ele><time>2021-08-12T11:05:48Z</time><extensions><speed>1.132975</speed><course>141.387543</course><hAcc>0.879694</hAcc><vAcc>0.698863</vAcc></extensions></trkpt>
      <trkpt lon="-3.329885" lat="54.542961"><ele>254.424988</ele><time>2021-08-12T11:05:49Z</time><extensions><speed>1.123250</speed><course>147.693329</course><hAcc>0.879598</hAcc><vAcc>0.698439</vAcc></extensions></trkpt>
      <trkpt lon="-3.329872" lat="54.542954"><ele>254.572830</ele><time>2021-08-12T11:05:50Z</time><extensions><speed>1.114159</speed><course>150.557755</course><hAcc>0.879525</hAcc><vAcc>0.698126</vAcc></extensions></trkpt>
      <trkpt lon="-3.329860" lat="54.542947"><ele>254.714767</ele><time>2021-08-12T11:05:51Z</time><extensions><speed>1.107216</speed><course>146.167221</course><hAcc>0.879477</hAcc><vAcc>0.697947</vAcc></extensions></trkpt>
      <trkpt lon="-3.329847" lat="54.542941"><ele>254.850616</ele><time>2021-08-12T11:05:52Z</time><extensions><speed>1.103451</speed><course>148.113663</course><hAcc>0.879456</hAcc><vAcc>0.697905</vAcc></extensions></trkpt>
      <trkpt lon="-3.329834" lat="54.542934"><ele>254.980316</ele><time>2021-08-12T11:05:53Z</time><extensions><speed>1.103160</speed><course>138.101883</course><hAcc>0.879459</hAcc><vAcc>0.697982</vAcc></extensions></trkpt>
      <trkpt lon="-3.329821" lat="54.542928"><ele>255.103775</ele><time>2021-08-12T11:05:54Z</time><extensions><speed>1.106346</speed><course>142.914612</course><hAcc>0.879482</hAcc><vAcc>0.698147</vAcc></extensions></trkpt>
      <trkpt lon="-3.329807" lat="54.542922"><ele>255.221390</ele><time>2021-08-12T11:05:55Z</time><extensions><speed>1.112605</speed><course>148.048096</course><hAcc>0.879522</hAcc><vAcc>0.698363</vAcc></extensions></trkpt>
      <trkpt lon="-3.329792" lat="54.542917"><ele>255.334000</ele><time>2021-08-12T11:05:56Z</time><extensions><speed>1.121356</speed><course>151.450607</course><hAcc>0.879574</hAcc><vAcc>0.698604</vAcc></extensions></trkpt>
      <trkpt lon="-3.329777" lat="54.542912"><ele>255.442612</ele><time>2021-08-12T11:05:57Z</time><extensions><speed>1.132173</speed><course>136.771103</course><hAcc>0.879634</hAcc><vAcc>0.698852</vAcc></extensions></trkpt>
      <trkpt lon="-3.329762" lat="54.542907"><ele>255.548340</ele><time>2021-08-12T11:05:58Z</time><extensions><speed>1.144011</speed><course>141.808670</course><hAcc>0.879699</hAcc><vAcc>0.699101</vAcc></extensions></trkpt>
      <trkpt lon="-3.329746" lat="54.542902"><ele>255.652405</ele><time>2021-08-12T11:05:59Z</time><extensions><speed>1.155613</speed><course>141.991776</course><hAcc>0.879766</hAcc><vAcc>0.699345</vAcc></extensions></trkpt>
      <trkpt lon="-3.329730" lat="54.542897"><ele>255.756042</ele><time>2021-08-12T11:06:00Z</time><extensions><speed>1.166135</speed><course>158.861435</course><hAcc>0.879835</hAcc><vAcc>0.699580</vAcc></extensions></trkpt>
      <trkpt lon="-3.329714" lat="54.542893"><ele>255.860123</ele><time>2021-08-12T11:06:01Z</time><extensions><speed>1.174674</speed><course>158.142120</course><hAcc>0.879904</hAcc><vAcc>0.699804</vAcc></extensions></trkpt>
      <trkpt lon="-3.329697" lat="54.542889"><ele>255.964767</ele><time>2021-08-12T11:06:02Z</time><extensions><speed>1.181137</speed><course>156.536041</course><hAcc>0.879974</hAcc><vAcc>0.700021</vAcc></extensions></trkpt>
      <trkpt lon="-3.329680" lat="54.542884"><ele>256.069672</ele><time>2021-08-12T11:06:03Z</time><extensions><speed>1.185848</speed><course>138.496033</course><hAcc>0.880045</hAcc><vAcc>0.700242</vAcc></extensions></trkpt>
      <trkpt lon="-3.329663" lat="54.542880"><ele>256.174316</ele><time>2021-08-12T11:06:04Z</time><extensions><speed>1.188906</speed><course>156.669647</course><hAcc>0.880120</hAcc><vAcc>0.700479</vAcc></extensions></trkpt>
      <trkpt lon="-3.329646" lat="54.542876"><ele>256.277802</ele><time>2021-08-12T11:06:05Z</time><extensions><speed>1.189968</speed><course>143.929214</course><hAcc>0.880198</hAcc><vAcc>0.700747</vAcc></extensions></trkpt>
      <trkpt lon="-3.329629" lat="54.542873"><ele>256.379395</ele><time>2021-08-12T11:06:06Z</time><extensions><speed>1.188153</speed><course>154.114960</course><hAcc>0.880280</hAcc><vAcc>0.701052</vAcc></extensions></trkpt>
      <trkpt lon="-3.329612" lat="54.542869"><ele>256.478638</ele><time>2021-08-12T11:06:07Z</time><extensions><speed>1.183298</speed><course>157.737396</course><hAcc>0.880366</hAcc><vAcc>0.701392</vAcc></extensions></trkpt>
      <trkpt lon="-3.329594" lat="54.542866"><ele>256.575073</ele><time>2021-08-12T11:06:08Z</time><extensions><speed>1.175207</speed><course>156.437073</course><hAcc>0.880455</hAcc><vAcc>0.701754</vAcc></extensions></trkpt>
      <trkpt lon="-3.329577" lat="54.542863"><ele>256.668213</ele><time>2021-08-12T11:06:09Z</time><extensions><speed>1.163494</speed><course>159.749420</course><hAcc>0.880545</hAcc><vAcc>0.702120</vAcc></extensions></trkpt>
      <trkpt lon="-3.329560" lat="54.542860"><ele>256.757721</ele><time>2021-08-12T11:06:10Z</time><extensions><speed>1.148559</speed><course>156.029541</course><hAcc>0.880634</hAcc><vAcc>0.702476</vAcc></extensions></trkpt>
      <trkpt lon="-3.329543" lat="54.542857"><ele>256.843018</ele><time>2021-08-12T11:06:11Z</time><extensions><speed>1.130607</speed><course>159.049896</course><hAcc>0.880722</hAcc><vAcc>0.702812</vAcc></extensions></trkpt>
      <trkpt lon="-3.329526" lat="54.542854"><ele>256.923523</ele><time>2021-08-12T11:06:12Z</time><extensions><speed>1.108838</speed><course>154.355942</course><hAcc>0.880805</hAcc><vAcc>0.703123</vAcc></extensions></trkpt>
      <trkpt lon="-3.329510" lat="54.542852"><ele>256.998688</ele><time>2021-08-12T11:06:13Z</time><extensions><speed>1.083233</speed><course>162.710571</course><hAcc>0.880884</hAcc><vAcc>0.703409</vAcc></extensions></trkpt>
      <trkpt lon="-3.329494" lat="54.542850"><ele>257.068176</ele><time>2021-08-12T11:06:14Z</time><extensions><speed>1.055377</speed><course>161.899368</course><hAcc>0.880958</hAcc><vAcc>0.703672</vAcc></extensions></trkpt>
      <trkpt lon="-3.329478" lat="54.542848"><ele>257.131531</ele><time>2021-08-12T11:06:15Z</time><extensions><speed>1.027048</speed><course>160.656769</course><hAcc>0.881026</hAcc><vAcc>0.703915</vAcc></extensions></trkpt>
      <trkpt lon="-3.329462" lat="54.542847"><ele>257.188293</ele><time>2021-08-12T11:06:16Z</time><extensions><speed>0.999935</speed><course>152.471558</course><hAcc>0.881089</hAcc><vAcc>0.704136</vAcc></extensions></trkpt>
      <trkpt lon="-3.329447" lat="54.542846"><ele>257.238098</ele><time>2021-08-12T11:06:17Z</time><extensions><speed>0.974849</speed><course>148.255112</course><hAcc>0.881147</hAcc><vAcc>0.704332</vAcc></extensions></trkpt>
      <trkpt lon="-3.329433" lat="54.542845"><ele>257.280518</ele><time>2021-08-12T11:06:18Z</time><extensions><speed>0.950572</speed><course>153.394714</course><hAcc>0.881201</hAcc><vAcc>0.704500</vAcc></extensions></trkpt>
      <trkpt lon="-3.329418" lat="54.542844"><ele>257.314880</ele><time>2021-08-12T11:06:19Z</time><extensions><speed>0.924589</speed><course>156.943573</course><hAcc>0.881251</hAcc><vAcc>0.704644</vAcc></extensions></trkpt>
      <trkpt lon="-3.329404" lat="54.542844"><ele>257.340454</ele><time>2021-08-12T11:06:20Z</time><extensions><speed>0.895426</speed><course>159.515564</course><hAcc>0.881297</hAcc><vAcc>0.704780</vAcc></extensions></trkpt>
      <trkpt lon="-3.329390" lat="54.542845"><ele>257.357056</ele><time>2021-08-12T11:06:21Z</time><extensions><speed>0.863264</speed><course>158.540283</course><hAcc>0.881338</hAcc><vAcc>0.704919</vAcc></extensions></trkpt>
      <trkpt lon="-3.329377" lat="54.542845"><ele>257.365173</ele><time>2021-08-12T11:06:22Z</time><extensions><speed>0.828718</speed><course>153.751312</course><hAcc>0.881372</hAcc><vAcc>0.705069</vAcc></extensions></trkpt>
      <trkpt lon="-3.329365" lat="54.542846"><ele>257.365417</ele><time>2021-08-12T11:06:23Z</time><extensions><speed>0.792512</speed><course>159.795258</course><hAcc>0.881396</hAcc><vAcc>0.705220</vAcc></extensions></trkpt>
      <trkpt lon="-3.329353" lat="54.542847"><ele>257.358551</ele><time>2021-08-12T11:06:24Z</time><extensions><speed>0.755067</speed><course>158.187424</course><hAcc>0.881407</hAcc><vAcc>0.705351</vAcc></extensions></trkpt>
      <trkpt lon="-3.329342" lat="54.542848"><ele>257.345612</ele><time>2021-08-12T11:06:25Z</time><extensions><speed>0.716437</speed><course>160.275116</course><hAcc>0.881401</hAcc><vAcc>0.705434</vAcc></extensions></trkpt>
      <trkpt lon="-3.329331" lat="54.542849"><ele>257.327942</ele><time>2021-08-12T11:06:26Z</time><extensions><speed>0.677558</speed><course>156.643036</course><hAcc>0.881376</hAcc><vAcc>0.705438</vAcc></extensions></trkpt>
      <trkpt lon="-3.329321" lat="54.542850"><ele>257.307281</ele><time>2021-08-12T11:06:27Z</time><extensions><speed>0.639702</speed><course>162.614395</course><hAcc>0.881328</hAcc><vAcc>0.705338</vAcc></extensions></trkpt>
      <trkpt lon="-3.329312" lat="54.542852"><ele>257.285614</ele><time>2021-08-12T11:06:28Z</time><extensions><speed>0.604041</speed><course>162.054535</course><hAcc>0.881256</hAcc><vAcc>0.705114</vAcc></extensions></trkpt>
      <trkpt lon="-3.329303" lat="54.542853"><ele>257.264618</ele><time>2021-08-12T11:06:29Z</time><extensions><speed>0.572180</speed><course>177.342987</course><hAcc>0.881163</hAcc><vAcc>0.704760</vAcc></extensions></trkpt>
      <trkpt lon="-3.329295" lat="54.542855"><ele>257.245758</ele><time>2021-08-12T11:06:30Z</time><extensions><speed>0.545679</speed><course>172.891953</course><hAcc>0.881052</hAcc><vAcc>0.704285</vAcc></extensions></trkpt>
      <trkpt lon="-3.329287" lat="54.542857"><ele>257.230499</ele><time>2021-08-12T11:06:31Z</time><extensions><speed>0.526225</speed><course>169.984741</course><hAcc>0.880927</hAcc><vAcc>0.703717</vAcc></extensions></trkpt>
      <trkpt lon="-3.329280" lat="54.542858"><ele>257.220093</ele><time>2021-08-12T11:06:32Z</time><extensions><speed>0.517240</speed><course>166.246048</course><hAcc>0.880797</hAcc><vAcc>0.703096</vAcc></extensions></trkpt>
      <trkpt lon="-3.329272" lat="54.542860"><ele>257.215363</ele><time>2021-08-12T11:06:33Z</time><extensions><speed>0.522358</speed><course>166.762161</course><hAcc>0.880669</hAcc><vAcc>0.702476</vAcc></extensions></trkpt>
      <trkpt lon="-3.329265" lat="54.542862"><ele>257.216705</ele><time>2021-08-12T11:06:34Z</time><extensions><speed>0.543373</speed><course>163.016708</course><hAcc>0.880553</hAcc><vAcc>0.701918</vAcc></extensions></trkpt>
      <trkpt lon="-3.329257" lat="54.542864"><ele>257.223907</ele><time>2021-08-12T11:06:35Z</time><extensions><speed>0.580672</speed><course>159.079727</course><hAcc>0.880455</hAcc><vAcc>0.701469</vAcc></extensions></trkpt>
      <trkpt lon="-3.329248" lat="54.542866"><ele>257.236481</ele><time>2021-08-12T11:06:36Z</time><extensions><speed>0.632816</speed><course>160.816132</course><hAcc>0.880382</hAcc><vAcc>0.701154</vAcc></extensions></trkpt>
      <trkpt lon="-3.329239" lat="54.542868"><ele>257.253876</ele><time>2021-08-12T11:06:37Z</time><extensions><speed>0.696512</speed><course>163.227844</course><hAcc>0.880336</hAcc><vAcc>0.700987</vAcc></extensions></trkpt>
      <trkpt lon="-3.329229" lat="54.542871"><ele>257.275635</ele><time>2021-08-12T11:06:38Z</time><extensions><speed>0.767218</speed><course>152.149902</course><hAcc>0.880318</hAcc><vAcc>0.700968</vAcc></extensions></trkpt>
      <trkpt lon="-3.329217" lat="54.542874"><ele>257.301483</ele><time>2021-08-12T11:06:39Z</time><extensions><speed>0.841181</speed><course>159.582550</course><hAcc>0.880326</hAcc><vAcc>0.701080</vAcc></extensions></trkpt>
      <trkpt lon="-3.329205" lat="54.542877"><ele>257.331451</ele><time>2021-08-12T11:06:40Z</time><extensions><speed>0.915727</speed><course>159.987671</course><hAcc>0.880358</hAcc><vAcc>0.701292</vAcc></extensions></trkpt>
      <trkpt lon="-3.329192" lat="54.542881"><ele>257.365967</ele><time>2021-08-12T11:06:41Z</time><extensions><speed>0.988495</speed><course>163.105835</course><hAcc>0.880409</hAcc><vAcc>0.701570</vAcc></extensions></trkpt>
      <trkpt lon="-3.329177" lat="54.542885"><ele>257.405243</ele><time>2021-08-12T11:06:42Z</time><extensions><speed>1.057155</speed><course>160.869598</course><hAcc>0.880473</hAcc><vAcc>0.701881</vAcc></extensions></trkpt>
      <trkpt lon="-3.329162" lat="54.542889"><ele>257.448975</ele><time>2021-08-12T11:06:43Z</time><extensions><speed>1.119517</speed><course>172.028473</course><hAcc>0.880547</hAcc><vAcc>0.702198</vAcc></extensions></trkpt>
      <trkpt lon="-3.329147" lat="54.542894"><ele>257.496277</ele><time>2021-08-12T11:06:44Z</time><extensions><speed>1.174275</speed><course>182.583130</course><hAcc>0.880627</hAcc><vAcc>0.702504</vAcc></extensions></trkpt>
      <trkpt lon="-3.329130" lat="54.542899"><ele>257.546295</ele><time>2021-08-12T11:06:45Z</time><extensions><speed>1.221087</speed><course>175.623672</course><hAcc>0.880709</hAcc><vAcc>0.702790</vAcc></extensions></trkpt>
      <trkpt lon="-3.329113" lat="54.542904"><ele>257.597992</ele><time>2021-08-12T11:06:46Z</time><extensions><speed>1.260555</speed><course>168.997635</course><hAcc>0.880794</hAcc><vAcc>0.703057</vAcc></extensions></trkpt>
      <trkpt lon="-3.329096" lat="54.542910"><ele>257.649902</ele><time>2021-08-12T11:06:47Z</time><extensions><speed>1.292918</speed><course>166.227890</course><hAcc>0.880879</hAcc><vAcc>0.703310</vAcc></extensions></trkpt>
      <trkpt lon="-3.329078" lat="54.542916"><ele>257.700165</ele><time>2021-08-12T11:06:48Z</time><extensions><speed>1.317872</speed><course>162.222458</course><hAcc>0.880965</hAcc><vAcc>0.703561</vAcc></extensions></trkpt>
      <trkpt lon="-3.329060" lat="54.542921"><ele>257.747284</ele><time>2021-08-12T11:06:49Z</time><extensions><speed>1.335221</speed><course>162.553314</course><hAcc>0.881051</hAcc><vAcc>0.703825</vAcc></extensions></trkpt>
      <trkpt lon="-3.329042" lat="54.542927"><ele>257.790497</ele><time>2021-08-12T11:06:50Z</time><extensions><speed>1.345164</speed><course>165.735123</course><hAcc>0.881135</hAcc><vAcc>0.704112</vAcc></extensions></trkpt>
      <trkpt lon="-3.329024" lat="54.542933"><ele>257.830017</ele><time>2021-08-12T11:06:51Z</time><extensions><speed>1.347844</speed><course>166.317276</course><hAcc>0.881215</hAcc><vAcc>0.704422</vAcc></extensions></trkpt>
      <trkpt lon="-3.329006" lat="54.542939"><ele>257.866241</ele><time>2021-08-12T11:06:52Z</time><extensions><speed>1.343976</speed><course>164.590683</course><hAcc>0.881286</hAcc><vAcc>0.704744</vAcc></extensions></trkpt>
      <trkpt lon="-3.328988" lat="54.542945"><ele>257.899445</ele><time>2021-08-12T11:06:53Z</time><extensions><speed>1.334922</speed><course>167.304306</course><hAcc>0.881339</hAcc><vAcc>0.705053</vAcc></extensions></trkpt>
      <trkpt lon="-3.328970" lat="54.542951"><ele>257.930328</ele><time>2021-08-12T11:06:54Z</time><extensions><speed>1.321395</speed><course>166.209152</course><hAcc>0.881367</hAcc><vAcc>0.705315</vAcc></extensions></trkpt>
      <trkpt lon="-3.328952" lat="54.542956"><ele>257.959900</ele><time>2021-08-12T11:06:55Z</time><extensions><speed>1.303664</speed><course>170.985672</course><hAcc>0.881358</hAcc><vAcc>0.705487</vAcc></extensions></trkpt>
      <trkpt lon="-3.328935" lat="54.542962"><ele>257.989380</ele><time>2021-08-12T11:06:56Z</time><extensions><speed>1.281776</speed><course>170.155151</course><hAcc>0.881302</hAcc><vAcc>0.705513</vAcc></extensions></trkpt>
      <trkpt lon="-3.328917" lat="54.542967"><ele>258.019470</ele><time>2021-08-12T11:06:57Z</time><extensions><speed>1.256076</speed><course>173.270996</course><hAcc>0.881190</hAcc><vAcc>0.705332</vAcc></extensions></trkpt>
      <trkpt lon="-3.328900" lat="54.542972"><ele>258.050049</ele><time>2021-08-12T11:06:58Z</time><extensions><speed>1.227954</speed><course>158.977570</course><hAcc>0.881014</hAcc><vAcc>0.704884</vAcc></extensions></trkpt>
      <trkpt lon="-3.328883" lat="54.542977"><ele>258.079987</ele><time>2021-08-12T11:06:59Z</time><extensions><speed>1.199375</speed><course>154.473984</course><hAcc>0.880771</hAcc><vAcc>0.704122</vAcc></extensions></trkpt>
      <trkpt lon="-3.328866" lat="54.542981"><ele>258.107666</ele><time>2021-08-12T11:07:00Z</time><extensions><speed>1.171562</speed><course>159.955185</course><hAcc>0.880461</hAcc><vAcc>0.703020</vAcc></extensions></trkpt>
      <trkpt lon="-3.328850" lat="54.542985"><ele>258.131805</ele><time>2021-08-12T11:07:01Z</time><extensions><speed>1.145035</speed><course>153.408218</course><hAcc>0.880089</hAcc><vAcc>0.701590</vAcc></extensions></trkpt>
      <trkpt lon="-3.328834" lat="54.542989"><ele>258.152252</ele><time>2021-08-12T11:07:02Z</time><extensions><speed>1.120208</speed><course>151.142990</course><hAcc>0.879666</hAcc><vAcc>0.699881</vAcc></extensions></trkpt>
      <trkpt lon="-3.328818" lat="54.542992"><ele>258.169861</ele><time>2021-08-12T11:07:03Z</time><extensions><speed>1.098264</speed><course>153.658844</course><hAcc>0.879207</hAcc><vAcc>0.697973</vAcc></extensions></trkpt>
      <trkpt lon="-3.328802" lat="54.542996"><ele>258.185608</ele><time>2021-08-12T11:07:04Z</time><extensions><speed>1.080694</speed><course>151.540298</course><hAcc>0.878731</hAcc><vAcc>0.695965</vAcc></extensions></trkpt>
      <trkpt lon="-3.328786" lat="54.542999"><ele>258.200348</ele><time>2021-08-12T11:07:05Z</time><extensions><speed>1.067973</speed><course>151.542770</course><hAcc>0.878260</hAcc><vAcc>0.693964</vAcc></extensions></trkpt>
      <trkpt lon="-3.328771" lat="54.543002"><ele>258.214844</ele><time>2021-08-12T11:07:06Z</time><extensions><speed>1.060131</speed><course>151.184875</course><hAcc>0.877817</hAcc><vAcc>0.692085</vAcc></extensions></trkpt>
      <trkpt lon="-3.328755" lat="54.543005"><ele>258.230194</ele><time>2021-08-12T11:07:07Z</time><extensions><speed>1.056927</speed><course>148.009705</course><hAcc>0.877424</hAcc><vAcc>0.690441</vAcc></extensions></trkpt>
      <trkpt lon="-3.328739" lat="54.543007"><ele>258.247559</ele><time>2021-08-12T11:07:08Z</time><extensions><speed>1.057488</speed><course>151.132050</course><hAcc>0.877098</hAcc><vAcc>0.689120</vAcc></extensions></trkpt>
      <trkpt lon="-3.328723" lat="54.543010"><ele>258.268097</ele><time>2021-08-12T11:07:09Z</time><extensions><speed>1.060556</speed><course>147.416718</course><hAcc>0.876851</hAcc><vAcc>0.688173</vAcc></extensions></trkpt>
      <trkpt lon="-3.328707" lat="54.543012"><ele>258.292847</ele><time>2021-08-12T11:07:10Z</time><extensions><speed>1.064864</speed><course>145.946671</course><hAcc>0.876688</hAcc><vAcc>0.687607</vAcc></extensions></trkpt>
      <trkpt lon="-3.328691" lat="54.543014"><ele>258.322754</ele><time>2021-08-12T11:07:11Z</time><extensions><speed>1.069755</speed><course>158.213196</course><hAcc>0.876606</hAcc><vAcc>0.687396</vAcc></extensions></trkpt>
      <trkpt lon="-3.328675" lat="54.543016"><ele>258.358459</ele><time>2021-08-12T11:07:12Z</time><extensions><speed>1.075135</speed><course>165.532318</course><hAcc>0.876599</hAcc><vAcc>0.687484</vAcc></extensions></trkpt>
      <trkpt lon="-3.328659" lat="54.543018"><ele>258.399872</ele><time>2021-08-12T11:07:13Z</time><extensions><speed>1.081217</speed><course>155.828384</course><hAcc>0.876656</hAcc><vAcc>0.687811</vAcc></extensions></trkpt>
      <trkpt lon="-3.328642" lat="54.543020"><ele>258.446228</ele><time>2021-08-12T11:07:14Z</time><extensions><speed>1.088564</speed><course>158.510941</course><hAcc>0.876767</hAcc><vAcc>0.688319</vAcc></extensions></trkpt>
      <trkpt lon="-3.328626" lat="54.543021"><ele>258.496338</ele><time>2021-08-12T11:07:15Z</time><extensions><speed>1.097388</speed><course>158.599030</course><hAcc>0.876920</hAcc><vAcc>0.688960</vAcc></extensions></trkpt>
      <trkpt lon="-3.328609" lat="54.543023"><ele>258.548920</ele><time>2021-08-12T11:07:16Z</time><extensions><speed>1.107334</speed><course>159.122437</course><hAcc>0.877106</hAcc><vAcc>0.689693</vAcc></extensions></trkpt>
      <trkpt lon="-3.328592" lat="54.543024"><ele>258.602325</ele><time>2021-08-12T11:07:17Z</time><extensions><speed>1.118038</speed><course>161.654770</course><hAcc>0.877315</hAcc><vAcc>0.690488</vAcc></extensions></trkpt>
      <trkpt lon="-3.328575" lat="54.543026"><ele>258.654755</ele><time>2021-08-12T11:07:18Z</time><extensions><speed>1.129542</speed><course>168.809372</course><hAcc>0.877541</hAcc><vAcc>0.691324</vAcc></extensions></trkpt>
      <trkpt lon="-3.328557" lat="54.543027"><ele>258.703949</ele><time>2021-08-12T11:07:19Z</time><extensions><speed>1.142061</speed><course>164.604691</course><hAcc>0.877779</hAcc><vAcc>0.692182</vAcc></extensions></trkpt>
      <trkpt lon="-3.328540" lat="54.543029"><ele>258.747406</ele><time>2021-08-12T11:07:20Z</time><extensions><speed>1.155483</speed><course>171.894135</course><hAcc>0.878026</hAcc><vAcc>0.693052</vAcc></extensions></trkpt>
      <trkpt lon="-3.328522" lat="54.543030"><ele>258.782806</ele><time>2021-08-12T11:07:21Z</time><extensions><speed>1.169598</speed><course>183.275330</course><hAcc>0.878280</hAcc><vAcc>0.693931</vAcc></extensions></trkpt>
      <trkpt lon="-3.328504" lat="54.543032"><ele>258.807953</ele><time>2021-08-12T11:07:22Z</time><extensions><speed>1.183534</speed><course>184.743423</course><hAcc>0.878542</hAcc><vAcc>0.694825</vAcc></extensions></trkpt>
      <trkpt lon="-3.328486" lat="54.543033"><ele>258.820984</ele><time>2021-08-12T11:07:23Z</time><extensions><speed>1.195698</speed><course>187.377213</course><hAcc>0.878812</hAcc><vAcc>0.695754</vAcc></extensions></trkpt>
      <trkpt lon="-3.328467" lat="54.543035"><ele>258.820526</ele><time>2021-08-12T11:07:24Z</time><extensions><speed>1.204695</speed><course>178.027603</course><hAcc>0.879091</hAcc><vAcc>0.696736</vAcc></extensions></trkpt>
      <trkpt lon="-3.328449" lat="54.543036"><ele>258.805481</ele><time>2021-08-12T11:07:25Z</time><extensions><speed>1.209801</speed><course>178.136368</course><hAcc>0.879376</hAcc><vAcc>0.697778</vAcc></extensions></trkpt>
      <trkpt lon="-3.328430" lat="54.543038"><ele>258.774963</ele><time>2021-08-12T11:07:26Z</time><extensions><speed>1.211060</speed><course>181.274490</course><hAcc>0.879667</hAcc><vAcc>0.698876</vAcc></extensions></trkpt>
      <trkpt lon="-3.328412" lat="54.543039"><ele>258.728546</ele><time>2021-08-12T11:07:27Z</time><extensions><speed>1.208804</speed><course>197.035065</course><hAcc>0.879960</hAcc><vAcc>0.700013</vAcc></extensions></trkpt>
      <trkpt lon="-3.328393" lat="54.543041"><ele>258.666687</ele><time>2021-08-12T11:07:28Z</time><extensions><speed>1.202979</speed><course>204.692612</course><hAcc>0.880248</hAcc><vAcc>0.701163</vAcc></extensions></trkpt>
      <trkpt lon="-3.328375" lat="54.543042"><ele>258.590637</ele><time>2021-08-12T11:07:29Z</time><extensions><speed>1.192847</speed><course>213.039078</course><hAcc>0.880528</hAcc><vAcc>0.702288</vAcc></extensions></trkpt>
      <trkpt lon="-3.328357" lat="54.543043"><ele>258.501953</ele><time>2021-08-12T11:07:30Z</time><extensions><speed>1.178671</speed><course>220.763565</course><hAcc>0.880791</hAcc><vAcc>0.703350</vAcc></extensions></trkpt>
      <trkpt lon="-3.328339" lat="54.543044"><ele>258.402466</ele><time>2021-08-12T11:07:31Z</time><extensions><speed>1.162327</speed><course>226.732666</course><hAcc>0.881032</hAcc><vAcc>0.704312</vAcc></extensions></trkpt>
      <trkpt lon="-3.328321" lat="54.543046"><ele>258.295105</ele><time>2021-08-12T11:07:32Z</time><extensions><speed>1.146174</speed><course>231.810226</course><hAcc>0.881248</hAcc><vAcc>0.705145</vAcc></extensions></trkpt>
      <trkpt lon="-3.328304" lat="54.543047"><ele>258.183929</ele><time>2021-08-12T11:07:33Z</time><extensions><speed>1.132021</speed><course>257.258179</course><hAcc>0.881434</hAcc><vAcc>0.705831</vAcc></extensions></trkpt>
      <trkpt lon="-3.328286" lat="54.543048"><ele>258.074066</ele><time>2021-08-12T11:07:34Z</time><extensions><speed>1.120957</speed><course>266.164734</course><hAcc>0.881591</hAcc><vAcc>0.706363</vAcc></extensions></trkpt>
      <trkpt lon="-3.328269" lat="54.543049"><ele>257.971588</ele><time>2021-08-12T11:07:35Z</time><extensions><speed>1.113317</speed><course>266.164734</course><hAcc>0.881719</hAcc><vAcc>0.706748</vAcc></extensions></trkpt>
      <trkpt lon="-3.328252" lat="54.543050"><ele>257.882690</ele><time>2021-08-12T11:07:36Z</time><extensions><speed>1.108656</speed><course>266.164734</course><hAcc>0.881823</hAcc><vAcc>0.707009</vAcc></extensions></trkpt>
      <trkpt lon="-3.328235" lat="54.543051"><ele>257.811951</ele><time>2021-08-12T11:07:37Z</time><extensions><speed>1.105982</speed><course>220.132019</course><hAcc>0.881907</hAcc><vAcc>0.707180</vAcc></extensions></trkpt>
      <trkpt lon="-3.328218" lat="54.543052"><ele>257.761841</ele><time>2021-08-12T11:07:38Z</time><extensions><speed>1.104190</speed><course>228.232590</course><hAcc>0.881978</hAcc><vAcc>0.707299</vAcc></extensions></trkpt>
      <trkpt lon="-3.328201" lat="54.543053"><ele>257.733673</ele><time>2021-08-12T11:07:39Z</time><extensions><speed>1.102823</speed><course>234.079605</course><hAcc>0.882041</hAcc><vAcc>0.707409</vAcc></extensions></trkpt>
      <trkpt lon="-3.328184" lat="54.543053"><ele>257.728851</ele><time>2021-08-12T11:07:40Z</time><extensions><speed>1.102329</speed><course>246.469162</course><hAcc>0.882103</hAcc><vAcc>0.707546</vAcc></extensions></trkpt>
      <trkpt lon="-3.328167" lat="54.543054"><ele>257.748291</ele><time>2021-08-12T11:07:41Z</time><extensions><speed>1.102691</speed><course>245.207291</course><hAcc>0.882170</hAcc><vAcc>0.707738</vAcc></extensions></trkpt>
      <trkpt lon="-3.328150" lat="54.543055"><ele>257.791504</ele><time>2021-08-12T11:07:42Z</time><extensions><speed>1.102753</speed><course>243.898834</course><hAcc>0.882244</hAcc><vAcc>0.708003</vAcc></extensions></trkpt>
      <trkpt lon="-3.328133" lat="54.543056"><ele>257.856384</ele><time>2021-08-12T11:07:43Z</time><extensions><speed>1.102392</speed><course>238.112976</course><hAcc>0.882328</hAcc><vAcc>0.708343</vAcc></extensions></trkpt>
      <trkpt lon="-3.328116" lat="54.543056"><ele>257.939423</ele><time>2021-08-12T11:07:44Z</time><extensions><speed>1.102873</speed><course>238.308395</course><hAcc>0.882422</hAcc><vAcc>0.708750</vAcc></extensions></trkpt>
      <trkpt lon="-3.328099" lat="54.543057"><ele>258.036499</ele><time>2021-08-12T11:07:45Z</time><extensions><speed>1.105678</speed><course>242.479843</course><hAcc>0.882526</hAcc><vAcc>0.709202</vAcc></extensions></trkpt>
      <trkpt lon="-3.328082" lat="54.543057"><ele>258.143005</ele><time>2021-08-12T11:07:46Z</time><extensions><speed>1.111759</speed><course>241.402863</course><hAcc>0.882637</hAcc><vAcc>0.709676</vAcc></extensions></trkpt>
      <trkpt lon="-3.328065" lat="54.543057"><ele>258.254303</ele><time>2021-08-12T11:07:47Z</time><extensions><speed>1.120828</speed><course>237.836914</course><hAcc>0.882753</hAcc><vAcc>0.710151</vAcc></extensions></trkpt>
      <trkpt lon="-3.328047" lat="54.543058"><ele>258.367126</ele><time>2021-08-12T11:07:48Z</time><extensions><speed>1.131828</speed><course>241.232681</course><hAcc>0.882871</hAcc><vAcc>0.710612</vAcc></extensions></trkpt>
      <trkpt lon="-3.328030" lat="54.543058"><ele>258.480316</ele><time>2021-08-12T11:07:49Z</time><extensions><speed>1.143265</speed><course>262.141510</course><hAcc>0.882988</hAcc><vAcc>0.711050</vAcc></extensions></trkpt>
      <trkpt lon="-3.328012" lat="54.543059"><ele>258.593781</ele><time>2021-08-12T11:07:50Z</time><extensions><speed>1.153288</speed><course>261.447266</course><hAcc>0.883101</hAcc><vAcc>0.711459</vAcc></extensions></trkpt>
      <trkpt lon="-3.327994" lat="54.543060"><ele>258.707672</ele><time>2021-08-12T11:07:51Z</time><extensions><speed>1.160223</speed><course>261.925140</course><hAcc>0.883209</hAcc><vAcc>0.711837</vAcc></extensions></trkpt>
      <trkpt lon="-3.327976" lat="54.543061"><ele>258.821686</ele><time>2021-08-12T11:07:52Z</time><extensions><speed>1.163339</speed><course>266.740814</course><hAcc>0.883309</hAcc><vAcc>0.712184</vAcc></extensions></trkpt>
      <trkpt lon="-3.327958" lat="54.543062"><ele>258.935242</ele><time>2021-08-12T11:07:53Z</time><extensions><speed>1.163405</speed><course>263.896973</course><hAcc>0.883400</hAcc><vAcc>0.712502</vAcc></extensions></trkpt>
      <trkpt lon="-3.327941" lat="54.543063"><ele>259.047821</ele><time>2021-08-12T11:07:54Z</time><extensions><speed>1.161031</speed><course>261.924744</course><hAcc>0.883482</hAcc><vAcc>0.712793</vAcc></extensions></trkpt>
      <trkpt lon="-3.327923" lat="54.543064"><ele>259.159729</ele><time>2021-08-12T11:07:55Z</time><extensions><speed>1.155113</speed><course>264.486481</course><hAcc>0.883553</hAcc><vAcc>0.713056</vAcc></extensions></trkpt>
      <trkpt lon="-3.327905" lat="54.543066"><ele>259.271545</ele><time>2021-08-12T11:07:56Z</time><extensions><speed>1.143724</speed><course>263.217468</course><hAcc>0.883613</hAcc><vAcc>0.713284</vAcc></extensions></trkpt>
      <trkpt lon="-3.327888" lat="54.543068"><ele>259.383087</ele><time>2021-08-12T11:07:57Z</time><extensions><speed>1.125385</speed><course>266.412231</course><hAcc>0.883660</hAcc><vAcc>0.713471</vAcc></extensions></trkpt>
      <trkpt lon="-3.327871" lat="54.543069"><ele>259.493011</ele><time>2021-08-12T11:07:58Z</time><extensions><speed>1.099029</speed><course>270.399445</course><hAcc>0.883694</hAcc><vAcc>0.713614</vAcc></extensions></trkpt>
      <trkpt lon="-3.327855" lat="54.543071"><ele>259.599670</ele><time>2021-08-12T11:07:59Z</time><extensions><speed>1.063569</speed><course>260.295807</course><hAcc>0.883713</hAcc><vAcc>0.713705</vAcc></extensions></trkpt>
      <trkpt lon="-3.327839" lat="54.543073"><ele>259.701965</ele><time>2021-08-12T11:08:00Z</time><extensions><speed>1.018898</speed><course>254.591400</course><hAcc>0.883716</hAcc><vAcc>0.713741</vAcc></extensions></trkpt>
      <trkpt lon="-3.327824" lat="54.543076"><ele>259.799408</ele><time>2021-08-12T11:08:01Z</time><extensions><speed>0.965990</speed><course>246.407776</course><hAcc>0.883702</hAcc><vAcc>0.713718</vAcc></extensions></trkpt>
      <trkpt lon="-3.327810" lat="54.543078"><ele>259.891907</ele><time>2021-08-12T11:08:02Z</time><extensions><speed>0.906207</speed><course>240.825714</course><hAcc>0.883669</hAcc><vAcc>0.713631</vAcc></extensions></trkpt>
      <trkpt lon="-3.327797" lat="54.543080"><ele>259.979797</ele><time>2021-08-12T11:08:03Z</time><extensions><speed>0.841514</speed><course>235.078873</course><hAcc>0.883619</hAcc><vAcc>0.713477</vAcc></extensions></trkpt>
      <trkpt lon="-3.327785" lat="54.543082"><ele>260.063385</ele><time>2021-08-12T11:08:04Z</time><extensions><speed>0.774505</speed><course>230.996750</course><hAcc>0.883553</hAcc><vAcc>0.713249</vAcc></extensions></trkpt>
      <trkpt lon="-3.327774" lat="54.543083"><ele>260.142426</ele><time>2021-08-12T11:08:05Z</time><extensions><speed>0.709435</speed><course>237.371124</course><hAcc>0.883473</hAcc><vAcc>0.712948</vAcc></extensions></trkpt>
      <trkpt lon="-3.327764" lat="54.543085"><ele>260.216492</ele><time>2021-08-12T11:08:06Z</time><extensions><speed>0.652415</speed><course>233.251434</course><hAcc>0.883384</hAcc><vAcc>0.712577</vAcc></extensions></trkpt>
      <trkpt lon="-3.327755" lat="54.543087"><ele>260.284973</ele><time>2021-08-12T11:08:07Z</time><extensions><speed>0.609630</speed><course>229.059296</course><hAcc>0.883290</hAcc><vAcc>0.712150</vAcc></extensions></trkpt>
      <trkpt lon="-3.327746" lat="54.543088"><ele>260.347229</ele><time>2021-08-12T11:08:08Z</time><extensions><speed>0.585880</speed><course>237.299759</course><hAcc>0.883198</hAcc><vAcc>0.711694</vAcc></extensions></trkpt>
      <trkpt lon="-3.327737" lat="54.543090"><ele>260.402405</ele><time>2021-08-12T11:08:09Z</time><extensions><speed>0.583724</speed><course>228.636597</course><hAcc>0.883114</hAcc><vAcc>0.711248</vAcc></extensions></trkpt>
      <trkpt lon="-3.327728" lat="54.543091"><ele>260.449677</ele><time>2021-08-12T11:08:10Z</time><extensions><speed>0.603725</speed><course>232.788193</course><hAcc>0.883042</hAcc><vAcc>0.710857</vAcc></extensions></trkpt>
      <trkpt lon="-3.327719" lat="54.543092"><ele>260.488129</ele><time>2021-08-12T11:08:11Z</time><extensions><speed>0.644926</speed><course>226.630402</course><hAcc>0.882989</hAcc><vAcc>0.710562</vAcc></extensions></trkpt>
      <trkpt lon="-3.327709" lat="54.543094"><ele>260.516937</ele><time>2021-08-12T11:08:12Z</time><extensions><speed>0.704784</speed><course>231.208252</course><hAcc>0.882957</hAcc><vAcc>0.710396</vAcc></extensions></trkpt>
      <trkpt lon="-3.327697" lat="54.543095"><ele>260.535339</ele><time>2021-08-12T11:08:13Z</time><extensions><speed>0.779103</speed><course>221.171371</course><hAcc>0.882951</hAcc><vAcc>0.710377</vAcc></extensions></trkpt>
      <trkpt lon="-3.327685" lat="54.543097"><ele>260.542816</ele><time>2021-08-12T11:08:14Z</time><extensions><speed>0.862280</speed><course>226.944763</course><hAcc>0.882970</hAcc><vAcc>0.710504</vAcc></extensions></trkpt>
      <trkpt lon="-3.327671" lat="54.543099"><ele>260.538910</ele><time>2021-08-12T11:08:15Z</time><extensions><speed>0.948820</speed><course>229.173843</course><hAcc>0.883013</hAcc><vAcc>0.710756</vAcc></extensions></trkpt>
      <trkpt lon="-3.327656" lat="54.543100"><ele>260.523102</ele><time>2021-08-12T11:08:16Z</time><extensions><speed>1.034003</speed><course>219.367737</course><hAcc>0.883079</hAcc><vAcc>0.711099</vAcc></extensions></trkpt>
      <trkpt lon="-3.327640" lat="54.543102"><ele>260.495178</ele><time>2021-08-12T11:08:17Z</time><extensions><speed>1.114288</speed><course>228.114029</course><hAcc>0.883165</hAcc><vAcc>0.711500</vAcc></extensions></trkpt>
      <trkpt lon="-3.327623" lat="54.543105"><ele>260.455536</ele><time>2021-08-12T11:08:18Z</time><extensions><speed>1.187892</speed><course>227.965424</course><hAcc>0.883265</hAcc><vAcc>0.711932</vAcc></extensions></trkpt>
      <trkpt lon="-3.327604" lat="54.543107"><ele>260.405243</ele><time>2021-08-12T11:08:19Z</time><extensions><speed>1.254046</speed><course>229.338791</course><hAcc>0.883376</hAcc><vAcc>0.712373</vAcc></extensions></trkpt>
      <trkpt lon="-3.327585" lat="54.543109"><ele>260.345734</ele><time>2021-08-12T11:08:20Z</time><extensions><speed>1.312548</speed><course>231.293549</course><hAcc>0.883493</hAcc><vAcc>0.712813</vAcc></extensions></trkpt>
      <trkpt lon="-3.327565" lat="54.543112"><ele>260.278687</ele><time>2021-08-12T11:08:21Z</time><extensions><speed>1.362982</speed><course>238.754257</course><hAcc>0.883612</hAcc><vAcc>0.713243</vAcc></extensions></trkpt>
      <trkpt lon="-3.327544" lat="54.543114"><ele>260.206024</ele><time>2021-08-12T11:08:22Z</time><extensions><speed>1.405020</speed><course>238.093399</course><hAcc>0.883729</hAcc><vAcc>0.713663</vAcc></extensions></trkpt>
      <trkpt lon="-3.327522" lat="54.543116"><ele>260.129761</ele><time>2021-08-12T11:08:23Z</time><extensions><speed>1.439180</speed><course>230.021591</course><hAcc>0.883842</hAcc><vAcc>0.714073</vAcc></extensions></trkpt>
      <trkpt lon="-3.327500" lat="54.543119"><ele>260.052002</ele><time>2021-08-12T11:08:24Z</time><extensions><speed>1.466287</speed><course>229.821030</course><hAcc>0.883948</hAcc><vAcc>0.714470</vAcc></extensions></trkpt>
      <trkpt lon="-3.327477" lat="54.543121"><ele>259.974579</ele><time>2021-08-12T11:08:25Z</time><extensions><speed>1.487192</speed><course>228.941864</course><hAcc>0.884047</hAcc><vAcc>0.714850</vAcc></extensions></trkpt>
      <trkpt lon="-3.327455" lat="54.543123"><ele>259.898682</ele><time>2021-08-12T11:08:26Z</time><extensions><speed>1.502486</speed><course>224.795181</course><hAcc>0.884137</hAcc><vAcc>0.715204</vAcc></extensions></trkpt>
      <trkpt lon="-3.327432" lat="54.543124"><ele>259.825043</ele><time>2021-08-12T11:08:27Z</time><extensions><speed>1.512238</speed><course>216.307693</course><hAcc>0.884219</hAcc><vAcc>0.715522</vAcc></extensions></trkpt>
      <trkpt lon="-3.327408" lat="54.543126"><ele>259.754120</ele><time>2021-08-12T11:08:28Z</time><extensions><speed>1.517081</speed><course>222.735626</course><hAcc>0.884292</hAcc><vAcc>0.715799</vAcc></extensions></trkpt>
      <trkpt lon="-3.327385" lat="54.543127"><ele>259.686310</ele><time>2021-08-12T11:08:29Z</time><extensions><speed>1.517606</speed><course>223.242310</course><hAcc>0.884358</hAcc><vAcc>0.716031</vAcc></extensions></trkpt>
      <trkpt lon="-3.327362" lat="54.543129"><ele>259.622131</ele><time>2021-08-12T11:08:30Z</time><extensions><speed>1.513880</speed><course>230.312881</course><hAcc>0.884415</hAcc><vAcc>0.716220</vAcc></extensions></trkpt>
      <trkpt lon="-3.327338" lat="54.543130"><ele>259.562164</ele><time>2021-08-12T11:08:31Z</time><extensions><speed>1.506369</speed><course>225.102798</course><hAcc>0.884467</hAcc><vAcc>0.716373</vAcc></extensions></trkpt>
      <trkpt lon="-3.327315" lat="54.543131"><ele>259.507507</ele><time>2021-08-12T11:08:32Z</time><extensions><speed>1.495423</speed><course>221.291122</course><hAcc>0.884513</hAcc><vAcc>0.716497</vAcc></extensions></trkpt>
      <trkpt lon="-3.327292" lat="54.543132"><ele>259.459229</ele><time>2021-08-12T11:08:33Z</time><extensions><speed>1.481158</speed><course>215.623337</course><hAcc>0.884555</hAcc><vAcc>0.716604</vAcc></extensions></trkpt>
      <trkpt lon="-3.327270" lat="54.543132"><ele>259.417969</ele><time>2021-08-12T11:08:34Z</time><extensions><speed>1.464028</speed><course>211.427963</course><hAcc>0.884594</hAcc><vAcc>0.716707</vAcc></extensions></trkpt>
      <trkpt lon="-3.327247" lat="54.543133"><ele>259.383759</ele><time>2021-08-12T11:08:35Z</time><extensions><speed>1.444586</speed><course>214.863312</course><hAcc>0.884631</hAcc><vAcc>0.716817</vAcc></extensions></trkpt>
      <trkpt lon="-3.327225" lat="54.543133"><ele>259.356110</ele><time>2021-08-12T11:08:36Z</time><extensions><speed>1.423117</speed><course>209.288147</course><hAcc>0.884667</hAcc><vAcc>0.716941</vAcc></extensions></trkpt>
      <trkpt lon="-3.327203" lat="54.543133"><ele>259.334290</ele><time>2021-08-12T11:08:37Z</time><extensions><speed>1.400123</speed><course>213.399612</course><hAcc>0.884700</hAcc><vAcc>0.717083</vAcc></extensions></trkpt>
      <trkpt lon="-3.327182" lat="54.543133"><ele>259.317108</ele><time>2021-08-12T11:08:38Z</time><extensions><speed>1.375537</speed><course>209.037766</course><hAcc>0.884732</hAcc><vAcc>0.717238</vAcc></extensions></trkpt>
      <trkpt lon="-3.327161" lat="54.543132"><ele>259.303375</ele><time>2021-08-12T11:08:39Z</time><extensions><speed>1.348428</speed><course>198.395279</course><hAcc>0.884762</hAcc><vAcc>0.717396</vAcc></extensions></trkpt>
      <trkpt lon="-3.327140" lat="54.543132"><ele>259.292542</ele><time>2021-08-12T11:08:40Z</time><extensions><speed>1.318200</speed><course>210.540466</course><hAcc>0.884789</hAcc><vAcc>0.717541</vAcc></extensions></trkpt>
      <trkpt lon="-3.327120" lat="54.543131"><ele>259.284607</ele><time>2021-08-12T11:08:41Z</time><extensions><speed>1.284837</speed><course>216.565186</course><hAcc>0.884814</hAcc><vAcc>0.717662</vAcc></extensions></trkpt>
      <trkpt lon="-3.327101" lat="54.543130"><ele>259.279785</ele><time>2021-08-12T11:08:42Z</time><extensions><speed>1.248789</speed><course>216.875626</course><hAcc>0.884835</hAcc><vAcc>0.717750</vAcc></extensions></trkpt>
      <trkpt lon="-3.327082" lat="54.543129"><ele>259.278168</ele><time>2021-08-12T11:08:43Z</time><extensions><speed>1.210917</speed><course>213.073944</course><hAcc>0.884851</hAcc><vAcc>0.717803</vAcc></extensions></trkpt>
      <trkpt lon="-3.327063" lat="54.543128"><ele>259.279877</ele><time>2021-08-12T11:08:44Z</time><extensions><speed>1.172743</speed><course>206.496414</course><hAcc>0.884863</hAcc><vAcc>0.717824</vAcc></extensions></trkpt>
      <trkpt lon="-3.327046" lat="54.543127"><ele>259.285248</ele><time>2021-08-12T11:08:45Z</time><extensions><speed>1.135808</speed><course>207.745499</course><hAcc>0.884870</hAcc><vAcc>0.717819</vAcc></extensions></trkpt>
      <trkpt lon="-3.327029" lat="54.543125"><ele>259.294434</ele><time>2021-08-12T11:08:46Z</time><extensions><speed>1.101317</speed><course>210.428009</course><hAcc>0.884873</hAcc><vAcc>0.717796</vAcc></extensions></trkpt>
      <trkpt lon="-3.327012" lat="54.543124"><ele>259.307220</ele><time>2021-08-12T11:08:47Z</time><extensions><speed>1.070349</speed><course>207.611023</course><hAcc>0.884873</hAcc><vAcc>0.717765</vAcc></extensions></trkpt>
      <trkpt lon="-3.326996" lat="54.543122"><ele>259.322937</ele><time>2021-08-12T11:08:48Z</time><extensions><speed>1.044127</speed><course>210.041336</course><hAcc>0.884870</hAcc><vAcc>0.717733</vAcc></extensions></trkpt>
      <trkpt lon="-3.326980" lat="54.543120"><ele>259.340973</ele><time>2021-08-12T11:08:49Z</time><extensions><speed>1.023820</speed><course>211.119202</course><hAcc>0.884866</hAcc><vAcc>0.717705</vAcc></extensions></trkpt>
      <trkpt lon="-3.326965" lat="54.543119"><ele>259.361084</ele><time>2021-08-12T11:08:50Z</time><extensions><speed>1.009448</speed><course>215.032761</course><hAcc>0.884863</hAcc><vAcc>0.717684</vAcc></extensions></trkpt>
      <trkpt lon="-3.326950" lat="54.543117"><ele>259.383148</ele><time>2021-08-12T11:08:51Z</time><extensions><speed>1.000436</speed><course>215.892059</course><hAcc>0.884862</hAcc><vAcc>0.717672</vAcc></extensions></trkpt>
      <trkpt lon="-3.326935" lat="54.543115"><ele>259.407135</ele><time>2021-08-12T11:08:52Z</time><extensions><speed>0.996072</speed><course>208.710144</course><hAcc>0.884864</hAcc><vAcc>0.717672</vAcc></extensions></trkpt>
      <trkpt lon="-3.326920" lat="54.543113"><ele>259.432922</ele><time>2021-08-12T11:08:53Z</time><extensions><speed>0.995713</speed><course>204.101471</course><hAcc>0.884871</hAcc><vAcc>0.717687</vAcc></extensions></trkpt>
      <trkpt lon="-3.326905" lat="54.543111"><ele>259.460205</ele><time>2021-08-12T11:08:54Z</time><extensions><speed>0.999200</speed><course>208.109482</course><hAcc>0.884884</hAcc><vAcc>0.717722</vAcc></extensions></trkpt>
      <trkpt lon="-3.326889" lat="54.543109"><ele>259.488922</ele><time>2021-08-12T11:08:55Z</time><extensions><speed>1.007139</speed><course>201.394348</course><hAcc>0.884903</hAcc><vAcc>0.717780</vAcc></extensions></trkpt>
      <trkpt lon="-3.326874" lat="54.543107"><ele>259.519379</ele><time>2021-08-12T11:08:56Z</time><extensions><speed>1.019489</speed><course>199.619629</course><hAcc>0.884927</hAcc><vAcc>0.717863</vAcc></extensions></trkpt>
      <trkpt lon="-3.326858" lat="54.543105"><ele>259.552094</ele><time>2021-08-12T11:08:57Z</time><extensions><speed>1.034565</speed><course>197.929596</course><hAcc>0.884958</hAcc><vAcc>0.717973</vAcc></extensions></trkpt>
      <trkpt lon="-3.326843" lat="54.543104"><ele>259.587433</ele><time>2021-08-12T11:08:58Z</time><extensions><speed>1.050710</speed><course>207.567093</course><hAcc>0.884995</hAcc><vAcc>0.718110</vAcc></extensions></trkpt>
      <trkpt lon="-3.326827" lat="54.543102"><ele>259.625610</ele><time>2021-08-12T11:08:59Z</time><extensions><speed>1.067070</speed><course>211.052994</course><hAcc>0.885037</hAcc><vAcc>0.718271</vAcc></extensions></trkpt>
      <trkpt lon="-3.326810" lat="54.543100"><ele>259.666809</ele><time>2021-08-12T11:09:00Z</time><extensions><speed>1.083200</speed><course>209.388504</course><hAcc>0.885083</hAcc><vAcc>0.718454</vAcc></extensions></trkpt>
      <trkpt lon="-3.326794" lat="54.543099"><ele>259.711151</ele><time>2021-08-12T11:09:01Z</time><extensions><speed>1.098444</speed><course>208.868835</course><hAcc>0.885131</hAcc><vAcc>0.718656</vAcc></extensions></trkpt>
      <trkpt lon="-3.326777" lat="54.543097"><ele>259.758820</ele><time>2021-08-12T11:09:02Z</time><extensions><speed>1.111722</speed><course>206.360352</course><hAcc>0.885179</hAcc><vAcc>0.718869</vAcc></extensions></trkpt>
      <trkpt lon="-3.326760" lat="54.543095"><ele>259.809814</ele><time>2021-08-12T11:09:03Z</time><extensions><speed>1.122038</speed><course>191.999023</course><hAcc>0.885225</hAcc><vAcc>0.719084</vAcc></extensions></trkpt>
      <trkpt lon="-3.326743" lat="54.543094"><ele>259.863953</ele><time>2021-08-12T11:09:04Z</time><extensions><speed>1.128393</speed><course>180.180435</course><hAcc>0.885267</hAcc><vAcc>0.719288</vAcc></extensions></trkpt>
      <trkpt lon="-3.326725" lat="54.543092"><ele>259.920593</ele><time>2021-08-12T11:09:05Z</time><extensions><speed>1.130205</speed><course>177.079514</course><hAcc>0.885303</hAcc><vAcc>0.719464</vAcc></extensions></trkpt>
      <trkpt lon="-3.326708" lat="54.543091"><ele>259.978973</ele><time>2021-08-12T11:09:06Z</time><extensions><speed>1.127916</speed><course>177.153732</course><hAcc>0.885332</hAcc><vAcc>0.719601</vAcc></extensions></trkpt>
      <trkpt lon="-3.326691" lat="54.543089"><ele>260.038025</ele><time>2021-08-12T11:09:07Z</time><extensions><speed>1.122615</speed><course>181.696198</course><hAcc>0.885352</hAcc><vAcc>0.719691</vAcc></extensions></trkpt>
      <trkpt lon="-3.326674" lat="54.543088"><ele>260.096588</ele><time>2021-08-12T11:09:08Z</time><extensions><speed>1.115017</speed><course>179.829865</course><hAcc>0.885362</hAcc><vAcc>0.719729</vAcc></extensions></trkpt>
      <trkpt lon="-3.326657" lat="54.543086"><ele>260.153473</ele><time>2021-08-12T11:09:09Z</time><extensions><speed>1.105753</speed><course>189.386703</course><hAcc>0.885361</hAcc><vAcc>0.719715</vAcc></extensions></trkpt>
      <trkpt lon="-3.326640" lat="54.543085"><ele>260.207703</ele><time>2021-08-12T11:09:10Z</time><extensions><speed>1.095448</speed><course>186.380737</course><hAcc>0.885350</hAcc><vAcc>0.719651</vAcc></extensions></trkpt>
      <trkpt lon="-3.326623" lat="54.543084"><ele>260.258423</ele><time>2021-08-12T11:09:11Z</time><extensions><speed>1.084972</speed><course>181.688873</course><hAcc>0.885329</hAcc><vAcc>0.719543</vAcc></extensions></trkpt>
      <trkpt lon="-3.326607" lat="54.543083"><ele>260.305084</ele><time>2021-08-12T11:09:12Z</time><extensions><speed>1.075229</speed><course>178.930069</course><hAcc>0.885300</hAcc><vAcc>0.719401</vAcc></extensions></trkpt>
      <trkpt lon="-3.326590" lat="54.543082"><ele>260.347198</ele><time>2021-08-12T11:09:13Z</time><extensions><speed>1.066209</speed><course>176.699600</course><hAcc>0.885264</hAcc><vAcc>0.719233</vAcc></extensions></trkpt>
      <trkpt lon="-3.326574" lat="54.543081"><ele>260.384460</ele><time>2021-08-12T11:09:14Z</time><extensions><speed>1.057889</speed><course>171.339767</course><hAcc>0.885222</hAcc><vAcc>0.719047</vAcc></extensions></trkpt>
      <trkpt lon="-3.326557" lat="54.543081"><ele>260.416290</ele><time>2021-08-12T11:09:15Z</time><extensions><speed>1.051347</speed><course>176.652649</course><hAcc>0.885178</hAcc><vAcc>0.718854</vAcc></extensions></trkpt>
      <trkpt lon="-3.326541" lat="54.543080"><ele>260.442017</ele><time>2021-08-12T11:09:16Z</time><extensions><speed>1.048079</speed><course>186.094208</course><hAcc>0.885132</hAcc><vAcc>0.718661</vAcc></extensions></trkpt>
      <trkpt lon="-3.326525" lat="54.543080"><ele>260.461456</ele><time>2021-08-12T11:09:17Z</time><extensions><speed>1.048728</speed><course>174.229980</course><hAcc>0.885088</hAcc><vAcc>0.718478</vAcc></extensions></trkpt>
      <trkpt lon="-3.326509" lat="54.543079"><ele>260.475311</ele><time>2021-08-12T11:09:18Z</time><extensions><speed>1.053543</speed><course>169.447403</course><hAcc>0.885045</hAcc><vAcc>0.718311</vAcc></extensions></trkpt>
      <trkpt lon="-3.326493" lat="54.543079"><ele>260.485199</ele><time>2021-08-12T11:09:19Z</time><extensions><speed>1.063081</speed><course>184.388611</course><hAcc>0.885007</hAcc><vAcc>0.718165</vAcc></extensions></trkpt>
      <trkpt lon="-3.326476" lat="54.543079"><ele>260.493011</ele><time>2021-08-12T11:09:20Z</time><extensions><speed>1.076969</speed><course>177.773834</course><hAcc>0.884973</hAcc><vAcc>0.718042</vAcc></extensions></trkpt>
      <trkpt lon="-3.326459" lat="54.543079"><ele>260.500427</ele><time>2021-08-12T11:09:21Z</time><extensions><speed>1.093643</speed><course>188.552094</course><hAcc>0.884945</hAcc><vAcc>0.717944</vAcc></extensions></trkpt>
      <trkpt lon="-3.326442" lat="54.543078"><ele>260.508789</ele><time>2021-08-12T11:09:22Z</time><extensions><speed>1.111384</speed><course>192.357071</course><hAcc>0.884923</hAcc><vAcc>0.717868</vAcc></extensions></trkpt>
      <trkpt lon="-3.326425" lat="54.543078"><ele>260.519775</ele><time>2021-08-12T11:09:23Z</time><extensions><speed>1.128523</speed><course>185.665771</course><hAcc>0.884908</hAcc><vAcc>0.717815</vAcc></extensions></trkpt>
      <trkpt lon="-3.326407" lat="54.543077"><ele>260.535187</ele><time>2021-08-12T11:09:24Z</time><extensions><speed>1.143904</speed><course>164.292023</course><hAcc>0.884901</hAcc><vAcc>0.717785</vAcc></extensions></trkpt>
      <trkpt lon="-3.326390" lat="54.543076"><ele>260.556610</ele><time>2021-08-12T11:09:25Z</time><extensions><speed>1.156884</speed><course>172.060730</course><hAcc>0.884900</hAcc><vAcc>0.717779</vAcc></extensions></trkpt>
      <trkpt lon="-3.326372" lat="54.543076"><ele>260.584991</ele><time>2021-08-12T11:09:26Z</time><extensions><speed>1.166228</speed><course>173.775192</course><hAcc>0.884905</hAcc><vAcc>0.717794</vAcc></extensions></trkpt>
      <trkpt lon="-3.326354" lat="54.543075"><ele>260.620422</ele><time>2021-08-12T11:09:27Z</time><extensions><speed>1.170871</speed><course>179.079193</course><hAcc>0.884916</hAcc><vAcc>0.717832</vAcc></extensions></trkpt>
      <trkpt lon="-3.326336" lat="54.543074"><ele>260.662384</ele><time>2021-08-12T11:09:28Z</time><extensions><speed>1.170886</speed><course>187.556046</course><hAcc>0.884933</hAcc><vAcc>0.717892</vAcc></extensions></trkpt>
      <trkpt lon="-3.326318" lat="54.543073"><ele>260.709808</ele><time>2021-08-12T11:09:29Z</time><extensions><speed>1.166405</speed><course>185.595901</course><hAcc>0.884952</hAcc><vAcc>0.717975</vAcc></extensions></trkpt>
      <trkpt lon="-3.326300" lat="54.543072"><ele>260.761230</ele><time>2021-08-12T11:09:30Z</time><extensions><speed>1.158015</speed><course>185.894623</course><hAcc>0.884973</hAcc><vAcc>0.718078</vAcc></extensions></trkpt>
      <trkpt lon="-3.326282" lat="54.543071"><ele>260.814697</ele><time>2021-08-12T11:09:31Z</time><extensions><speed>1.147299</speed><course>190.244247</course><hAcc>0.884994</hAcc><vAcc>0.718192</vAcc></extensions></trkpt>
      <trkpt lon="-3.326265" lat="54.543070"><ele>260.867889</ele><time>2021-08-12T11:09:32Z</time><extensions><speed>1.136661</speed><course>187.044601</course><hAcc>0.885013</hAcc><vAcc>0.718306</vAcc></extensions></trkpt>
      <trkpt lon="-3.326247" lat="54.543070"><ele>260.918457</ele><time>2021-08-12T11:09:33Z</time><extensions><speed>1.128633</speed><course>176.253296</course><hAcc>0.885029</hAcc><vAcc>0.718408</vAcc></extensions></trkpt>
      <trkpt lon="-3.326230" lat="54.543070"><ele>260.964172</ele><time>2021-08-12T11:09:34Z</time><extensions><speed>1.124710</speed><course>185.408890</course><hAcc>0.885041</hAcc><vAcc>0.718487</vAcc></extensions></trkpt>
      <trkpt lon="-3.326212" lat="54.543070"><ele>261.003357</ele><time>2021-08-12T11:09:35Z</time><extensions><speed>1.125145</speed><course>180.674866</course><hAcc>0.885046</hAcc><vAcc>0.718533</vAcc></extensions></trkpt>
      <trkpt lon="-3.326195" lat="54.543070"><ele>261.034637</ele><time>2021-08-12T11:09:36Z</time><extensions><speed>1.129326</speed><course>183.635086</course><hAcc>0.885044</hAcc><vAcc>0.718539</vAcc></extensions></trkpt>
      <trkpt lon="-3.326177" lat="54.543070"><ele>261.056671</ele><time>2021-08-12T11:09:37Z</time><extensions><speed>1.136182</speed><course>191.052750</course><hAcc>0.885036</hAcc><vAcc>0.718504</vAcc></extensions></trkpt>
      <trkpt lon="-3.326160" lat="54.543071"><ele>261.068146</ele><time>2021-08-12T11:09:38Z</time><extensions><speed>1.144155</speed><course>177.175522</course><hAcc>0.885020</hAcc><vAcc>0.718428</vAcc></extensions></trkpt>
      <trkpt lon="-3.326142" lat="54.543073"><ele>261.068268</ele><time>2021-08-12T11:09:39Z</time><extensions><speed>1.151832</speed><course>190.008408</course><hAcc>0.884998</hAcc><vAcc>0.718318</vAcc></extensions></trkpt>
      <trkpt lon="-3.326125" lat="54.543074"><ele>261.057159</ele><time>2021-08-12T11:09:40Z</time><extensions><speed>1.159342</speed><course>198.960236</course><hAcc>0.884971</hAcc><vAcc>0.718182</vAcc></extensions></trkpt>
      <trkpt lon="-3.326107" lat="54.543076"><ele>261.035309</ele><time>2021-08-12T11:09:41Z</time><extensions><speed>1.167167</speed><course>204.894943</course><hAcc>0.884941</hAcc><vAcc>0.718029</vAcc></extensions></trkpt>
      <trkpt lon="-3.326089" lat="54.543077"><ele>261.003235</ele><time>2021-08-12T11:09:42Z</time><extensions><speed>1.175241</speed><course>198.802200</course><hAcc>0.884911</hAcc><vAcc>0.717869</vAcc></extensions></trkpt>
      <trkpt lon="-3.326071" lat="54.543079"><ele>260.961884</ele><time>2021-08-12T11:09:43Z</time><extensions><speed>1.183276</speed><course>197.317261</course><hAcc>0.884883</hAcc><vAcc>0.717714</vAcc></extensions></trkpt>
      <trkpt lon="-3.326053" lat="54.543081"><ele>260.913025</ele><time>2021-08-12T11:09:44Z</time><extensions><speed>1.190540</speed><course>196.061050</course><hAcc>0.884857</hAcc><vAcc>0.717579</vAcc></extensions></trkpt>
      <trkpt lon="-3.326035" lat="54.543083"><ele>260.859070</ele><time>2021-08-12T11:09:45Z</time><extensions><speed>1.195817</speed><course>202.882050</course><hAcc>0.884836</hAcc><vAcc>0.717475</vAcc></extensions></trkpt>
      <trkpt lon="-3.326017" lat="54.543085"><ele>260.802612</ele><time>2021-08-12T11:09:46Z</time><extensions><speed>1.198082</speed><course>203.317627</course><hAcc>0.884821</hAcc><vAcc>0.717410</vAcc></extensions></trkpt>
      <trkpt lon="-3.325998" lat="54.543086"><ele>260.746185</ele><time>2021-08-12T11:09:47Z</time><extensions><speed>1.197373</speed><course>195.786957</course><hAcc>0.884810</hAcc><vAcc>0.717384</vAcc></extensions></trkpt>
      <trkpt lon="-3.325980" lat="54.543088"><ele>260.691833</ele><time>2021-08-12T11:09:48Z</time><extensions><speed>1.193966</speed><course>203.624710</course><hAcc>0.884805</hAcc><vAcc>0.717393</vAcc></extensions></trkpt>
      <trkpt lon="-3.325962" lat="54.543089"><ele>260.640533</ele><time>2021-08-12T11:09:49Z</time><extensions><speed>1.187782</speed><course>211.298859</course><hAcc>0.884803</hAcc><vAcc>0.717427</vAcc></extensions></trkpt>
      <trkpt lon="-3.325944" lat="54.543090"><ele>260.592072</ele><time>2021-08-12T11:09:50Z</time><extensions><speed>1.178786</speed><course>211.550430</course><hAcc>0.884802</hAcc><vAcc>0.717473</vAcc></extensions></trkpt>
      <trkpt lon="-3.325926" lat="54.543092"><ele>260.545227</ele><time>2021-08-12T11:09:51Z</time><extensions><speed>1.166695</speed><course>212.935287</course><hAcc>0.884802</hAcc><vAcc>0.717518</vAcc></extensions></trkpt>
      <trkpt lon="-3.325908" lat="54.543093"><ele>260.498108</ele><time>2021-08-12T11:09:52Z</time><extensions><speed>1.151358</speed><course>205.316910</course><hAcc>0.884798</hAcc><vAcc>0.717548</vAcc></extensions></trkpt>
      <trkpt lon="-3.325890" lat="54.543095"><ele>260.448517</ele><time>2021-08-12T11:09:53Z</time><extensions><speed>1.133416</speed><course>201.370926</course><hAcc>0.884790</hAcc><vAcc>0.717550</vAcc></extensions></trkpt>
      <trkpt lon="-3.325873" lat="54.543096"><ele>260.394501</ele><time>2021-08-12T11:09:54Z</time><extensions><speed>1.114008</speed><course>207.980240</course><hAcc>0.884776</hAcc><vAcc>0.717515</vAcc></extensions></trkpt>
      <trkpt lon="-3.325857" lat="54.543098"><ele>260.334198</ele><time>2021-08-12T11:09:55Z</time><extensions><speed>1.094240</speed><course>218.794739</course><hAcc>0.884753</hAcc><vAcc>0.717435</vAcc></extensions></trkpt>
      <trkpt lon="-3.325840" lat="54.543100"><ele>260.265961</ele><time>2021-08-12T11:09:56Z</time><extensions><speed>1.074845</speed><course>208.166870</course><hAcc>0.884724</hAcc><vAcc>0.717309</vAcc></extensions></trkpt>
      <trkpt lon="-3.325824" lat="54.543103"><ele>260.188873</ele><time>2021-08-12T11:09:57Z</time><extensions><speed>1.057215</speed><course>203.084564</course><hAcc>0.884689</hAcc><vAcc>0.717142</vAcc></extensions></trkpt>
      <trkpt lon="-3.325809" lat="54.543106"><ele>260.102997</ele><time>2021-08-12T11:09:58Z</time><extensions><speed>1.043233</speed><course>207.057602</course><hAcc>0.884650</hAcc><vAcc>0.716944</vAcc></extensions></trkpt>
      <trkpt lon="-3.325794" lat="54.543109"><ele>260.009247</ele><time>2021-08-12T11:09:59Z</time><extensions><speed>1.033823</speed><course>197.667023</course><hAcc>0.884611</hAcc><vAcc>0.716730</vAcc></extensions></trkpt>
      <trkpt lon="-3.325779" lat="54.543113"><ele>259.908936</ele><time>2021-08-12T11:10:00Z</time><extensions><speed>1.029205</speed><course>193.281815</course><hAcc>0.884580</hAcc><vAcc>0.716524</vAcc></extensions></trkpt>
      <trkpt lon="-3.325765" lat="54.543116"><ele>259.803528</ele><time>2021-08-12T11:10:01Z</time><extensions><speed>1.029729</speed><course>196.556885</course><hAcc>0.884563</hAcc><vAcc>0.716351</vAcc></extensions></trkpt>
      <trkpt lon="-3.325750" lat="54.543121"><ele>259.694550</ele><time>2021-08-12T11:10:02Z</time><extensions><speed>1.035491</speed><course>203.186966</course><hAcc>0.884571</hAcc><vAcc>0.716243</vAcc></extensions></trkpt>
      <trkpt lon="-3.325736" lat="54.543125"><ele>259.583282</ele><time>2021-08-12T11:10:03Z</time><extensions><speed>1.045913</speed><course>212.697037</course><hAcc>0.884620</hAcc><vAcc>0.716232</vAcc></extensions></trkpt>
      <trkpt lon="-3.325722" lat="54.543129"><ele>259.470886</ele><time>2021-08-12T11:10:04Z</time><extensions><speed>1.059865</speed><course>205.962631</course><hAcc>0.884726</hAcc><vAcc>0.716350</vAcc></extensions></trkpt>
      <trkpt lon="-3.325707" lat="54.543134"><ele>259.358002</ele><time>2021-08-12T11:10:05Z</time><extensions><speed>1.076314</speed><course>207.149033</course><hAcc>0.884915</hAcc><vAcc>0.716624</vAcc></extensions></trkpt>
      <trkpt lon="-3.325693" lat="54.543139"><ele>259.244873</ele><time>2021-08-12T11:10:06Z</time><extensions><speed>1.094339</speed><course>214.878525</course><hAcc>0.885214</hAcc><vAcc>0.717070</vAcc></extensions></trkpt>
      <trkpt lon="-3.325678" lat="54.543144"><ele>259.131622</ele><time>2021-08-12T11:10:07Z</time><extensions><speed>1.113232</speed><course>214.006729</course><hAcc>0.885658</hAcc><vAcc>0.717701</vAcc></extensions></trkpt>
      <trkpt lon="-3.325663" lat="54.543149"><ele>259.018219</ele><time>2021-08-12T11:10:08Z</time><extensions><speed>1.132022</speed><course>203.780624</course><hAcc>0.886286</hAcc><vAcc>0.718524</vAcc></extensions></trkpt>
      <trkpt lon="-3.325648" lat="54.543155"><ele>258.904175</ele><time>2021-08-12T11:10:09Z</time><extensions><speed>1.149836</speed><course>196.955612</course><hAcc>0.887136</hAcc><vAcc>0.719545</vAcc></extensions></trkpt>
      <trkpt lon="-3.325633" lat="54.543160"><ele>258.788635</ele><time>2021-08-12T11:10:10Z</time><extensions><speed>1.165860</speed><course>192.010574</course><hAcc>0.888244</hAcc><vAcc>0.720755</vAcc></extensions></trkpt>
      <trkpt lon="-3.325618" lat="54.543166"><ele>258.670929</ele><time>2021-08-12T11:10:11Z</time><extensions><speed>1.179450</speed><course>192.008179</course><hAcc>0.889631</hAcc><vAcc>0.722135</vAcc></extensions></trkpt>
      <trkpt lon="-3.325603" lat="54.543172"><ele>258.550903</ele><time>2021-08-12T11:10:12Z</time><extensions><speed>1.190961</speed><course>196.158051</course><hAcc>0.891299</hAcc><vAcc>0.723645</vAcc></extensions></trkpt>
      <trkpt lon="-3.325587" lat="54.543178"><ele>258.428986</ele><time>2021-08-12T11:10:13Z</time><extensions><speed>1.200130</speed><course>191.694901</course><hAcc>0.893216</hAcc><vAcc>0.725222</vAcc></extensions></trkpt>
      <trkpt lon="-3.325572" lat="54.543184"><ele>258.305573</ele><time>2021-08-12T11:10:14Z</time><extensions><speed>1.205678</speed><course>188.330658</course><hAcc>0.895303</hAcc><vAcc>0.726767</vAcc></extensions></trkpt>
      <trkpt lon="-3.325557" lat="54.543190"><ele>258.180847</ele><time>2021-08-12T11:10:15Z</time><extensions><speed>1.206160</speed><course>181.434692</course><hAcc>0.897432</hAcc><vAcc>0.728150</vAcc></extensions></trkpt>
      <trkpt lon="-3.325542" lat="54.543196"><ele>258.054718</ele><time>2021-08-12T11:10:16Z</time><extensions><speed>1.201043</speed><course>188.145386</course><hAcc>0.899423</hAcc><vAcc>0.729220</vAcc></extensions></trkpt>
      <trkpt lon="-3.325527" lat="54.543203"><ele>257.927185</ele><time>2021-08-12T11:10:17Z</time><extensions><speed>1.190470</speed><course>178.798050</course><hAcc>0.901070</hAcc><vAcc>0.729847</vAcc></extensions></trkpt>
      <trkpt lon="-3.325513" lat="54.543209"><ele>257.798737</ele><time>2021-08-12T11:10:18Z</time><extensions><speed>1.174374</speed><course>170.916321</course><hAcc>0.902189</hAcc><vAcc>0.729977</vAcc></extensions></trkpt>
      <trkpt lon="-3.325499" lat="54.543216"><ele>257.670227</ele><time>2021-08-12T11:10:19Z</time><extensions><speed>1.153093</speed><course>168.600174</course><hAcc>0.902718</hAcc><vAcc>0.729740</vAcc></extensions></trkpt>
      <trkpt lon="-3.325485" lat="54.543223"><ele>257.542633</ele><time>2021-08-12T11:10:20Z</time><extensions><speed>1.126886</speed><course>171.284561</course><hAcc>0.902887</hAcc><vAcc>0.729582</vAcc></extensions></trkpt>
      <trkpt lon="-3.325472" lat="54.543229"><ele>257.416992</ele><time>2021-08-12T11:10:21Z</time><extensions><speed>1.095964</speed><course>171.842682</course><hAcc>0.903472</hAcc><vAcc>0.730459</vAcc></extensions></trkpt>
      <trkpt lon="-3.325460" lat="54.543236"><ele>257.294403</ele><time>2021-08-12T11:10:22Z</time><extensions><speed>1.061834</speed><course>181.313644</course><hAcc>0.906158</hAcc><vAcc>0.734083</vAcc></extensions></trkpt>
      <trkpt lon="-3.325449" lat="54.543242"><ele>257.175659</ele><time>2021-08-12T11:10:23Z</time><extensions><speed>1.026404</speed><course>190.410019</course><hAcc>0.913985</hAcc><vAcc>0.743158</vAcc></extensions></trkpt>
      <trkpt lon="-3.325438" lat="54.543249"><ele>257.061127</ele><time>2021-08-12T11:10:24Z</time><extensions><speed>0.991209</speed><course>183.456787</course><hAcc>0.931772</hAcc><vAcc>0.761539</vAcc></extensions></trkpt>
      <trkpt lon="-3.325428" lat="54.543255"><ele>256.951294</ele><time>2021-08-12T11:10:25Z</time><extensions><speed>0.958072</speed><course>177.845047</course><hAcc>0.966256</hAcc><vAcc>0.794115</vAcc></extensions></trkpt>
      <trkpt lon="-3.325423" lat="54.543259"><ele>256.863922</ele><time>2021-08-12T11:10:26Z</time><extensions><speed>0.325573</speed><course>74.967865</course><hAcc>0.928673</hAcc><vAcc>0.758767</vAcc></extensions></trkpt>
      <trkpt lon="-3.325420" lat="54.543261"><ele>256.834259</ele><time>2021-08-12T11:10:27Z</time><extensions><speed>0.279317</speed><course>75.133301</course><hAcc>0.909547</hAcc><vAcc>0.737025</vAcc></extensions></trkpt>
      <trkpt lon="-3.325418" lat="54.543263"><ele>256.811523</ele><time>2021-08-12T11:10:28Z</time><extensions><speed>0.229496</speed><course>66.099251</course><hAcc>0.901613</hAcc><vAcc>0.725770</vAcc></extensions></trkpt>
      <trkpt lon="-3.325416" lat="54.543265"><ele>256.795441</ele><time>2021-08-12T11:10:29Z</time><extensions><speed>0.179617</speed><course>81.237114</course><hAcc>0.899386</hAcc><vAcc>0.720749</vAcc></extensions></trkpt>
      <trkpt lon="-3.325415" lat="54.543266"><ele>256.785461</ele><time>2021-08-12T11:10:30Z</time><extensions><speed>0.132889</speed><course>80.566093</course><hAcc>0.899403</hAcc><vAcc>0.718946</vAcc></extensions></trkpt>
      <trkpt lon="-3.325414" lat="54.543267"><ele>256.780792</ele><time>2021-08-12T11:10:31Z</time><extensions><speed>0.092002</speed><course>80.566109</course><hAcc>0.899761</hAcc><vAcc>0.718468</vAcc></extensions></trkpt>
      <trkpt lon="-3.325414" lat="54.543267"><ele>256.780487</ele><time>2021-08-12T11:10:32Z</time><extensions><speed>0.060570</speed><course>80.566093</course><hAcc>0.899605</hAcc><vAcc>0.718286</vAcc></extensions></trkpt>
      <trkpt lon="-3.325414" lat="54.543268"><ele>256.783661</ele><time>2021-08-12T11:10:33Z</time><extensions><speed>0.044729</speed><course>80.566093</course><hAcc>0.898710</hAcc><vAcc>0.717953</vAcc></extensions></trkpt>
      <trkpt lon="-3.325414" lat="54.543268"><ele>256.789520</ele><time>2021-08-12T11:10:34Z</time><extensions><speed>0.046933</speed><course>80.566093</course><hAcc>0.897177</hAcc><vAcc>0.717369</vAcc></extensions></trkpt>
      <trkpt lon="-3.325415" lat="54.543268"><ele>256.797455</ele><time>2021-08-12T11:10:35Z</time><extensions><speed>0.056236</speed><course>77.344681</course><hAcc>0.895246</hAcc><vAcc>0.716613</vAcc></extensions></trkpt>
      <trkpt lon="-3.325416" lat="54.543268"><ele>256.806915</ele><time>2021-08-12T11:10:36Z</time><extensions><speed>0.063034</speed><course>77.923714</course><hAcc>0.893172</hAcc><vAcc>0.715826</vAcc></extensions></trkpt>
      <trkpt lon="-3.325417" lat="54.543268"><ele>256.817261</ele><time>2021-08-12T11:10:37Z</time><extensions><speed>0.063202</speed><course>87.073212</course><hAcc>0.891172</hAcc><vAcc>0.715149</vAcc></extensions></trkpt>
      <trkpt lon="-3.325418" lat="54.543268"><ele>256.827972</ele><time>2021-08-12T11:10:38Z</time><extensions><speed>0.054752</speed><course>79.233902</course><hAcc>0.889397</hAcc><vAcc>0.714699</vAcc></extensions></trkpt>
      <trkpt lon="-3.325418" lat="54.543268"><ele>256.838776</ele><time>2021-08-12T11:10:39Z</time><extensions><speed>0.036603</speed><course>96.572746</course><hAcc>0.887933</hAcc><vAcc>0.714542</vAcc></extensions></trkpt>
      <trkpt lon="-3.325419" lat="54.543268"><ele>256.849548</ele><time>2021-08-12T11:10:40Z</time><extensions><speed>0.011570</speed><course>86.920219</course><hAcc>0.886809</hAcc><vAcc>0.714695</vAcc></extensions></trkpt>
      <trkpt lon="-3.325418" lat="54.543268"><ele>256.860291</ele><time>2021-08-12T11:10:41Z</time><extensions><speed>0.038088</speed><course>76.786201</course><hAcc>0.886010</hAcc><vAcc>0.715122</vAcc></extensions></trkpt>
      <trkpt lon="-3.325417" lat="54.543268"><ele>256.871033</ele><time>2021-08-12T11:10:42Z</time><extensions><speed>0.092593</speed><course>77.162971</course><hAcc>0.885496</hAcc><vAcc>0.715762</vAcc></extensions></trkpt>
      <trkpt lon="-3.325415" lat="54.543268"><ele>256.881927</ele><time>2021-08-12T11:10:43Z</time><extensions><speed>0.162012</speed><course>69.604996</course><hAcc>0.885213</hAcc><vAcc>0.716542</vAcc></extensions></trkpt>
      <trkpt lon="-3.325412" lat="54.543268"><ele>256.893005</ele><time>2021-08-12T11:10:44Z</time><extensions><speed>0.246663</speed><course>76.115456</course><hAcc>0.885100</hAcc><vAcc>0.717388</vAcc></extensions></trkpt>
      <trkpt lon="-3.325408" lat="54.543268"><ele>256.904388</ele><time>2021-08-12T11:10:45Z</time><extensions><speed>0.346835</speed><course>83.646278</course><hAcc>0.885102</hAcc><vAcc>0.718231</vAcc></extensions></trkpt>
      <trkpt lon="-3.325402" lat="54.543269"><ele>256.916260</ele><time>2021-08-12T11:10:46Z</time><extensions><speed>0.462244</speed><course>76.408623</course><hAcc>0.885168</hAcc><vAcc>0.719011</vAcc></extensions></trkpt>
      <trkpt lon="-3.325394" lat="54.543270"><ele>256.928772</ele><time>2021-08-12T11:10:47Z</time><extensions><speed>0.591724</speed><course>79.439453</course><hAcc>0.885256</hAcc><vAcc>0.719673</vAcc></extensions></trkpt>
      <trkpt lon="-3.325383" lat="54.543270"><ele>256.942047</ele><time>2021-08-12T11:10:48Z</time><extensions><speed>0.732906</speed><course>75.300941</course><hAcc>0.885336</hAcc><vAcc>0.720169</vAcc></extensions></trkpt>
      <trkpt lon="-3.325371" lat="54.543271"><ele>256.956329</ele><time>2021-08-12T11:10:49Z</time><extensions><speed>0.881868</speed><course>76.126534</course><hAcc>0.885385</hAcc><vAcc>0.720458</vAcc></extensions></trkpt>
      <trkpt lon="-3.325356" lat="54.543272"><ele>256.971924</ele><time>2021-08-12T11:10:50Z</time><extensions><speed>1.032750</speed><course>75.233688</course><hAcc>0.885388</hAcc><vAcc>0.720513</vAcc></extensions></trkpt>
      <trkpt lon="-3.325339" lat="54.543273"><ele>256.989227</ele><time>2021-08-12T11:10:51Z</time><extensions><speed>1.177377</speed><course>81.891060</course><hAcc>0.885338</hAcc><vAcc>0.720321</vAcc></extensions></trkpt>
      <trkpt lon="-3.325320" lat="54.543274"><ele>257.008789</ele><time>2021-08-12T11:10:52Z</time><extensions><speed>1.304873</speed><course>78.263519</course><hAcc>0.885229</hAcc><vAcc>0.719878</vAcc></extensions></trkpt>
      <trkpt lon="-3.325299" lat="54.543275"><ele>257.031342</ele><time>2021-08-12T11:10:53Z</time><extensions><speed>1.401298</speed><course>74.907532</course><hAcc>0.885064</hAcc><vAcc>0.719196</vAcc></extensions></trkpt>
      <trkpt lon="-3.325277" lat="54.543276"><ele>257.057770</ele><time>2021-08-12T11:10:54Z</time><extensions><speed>1.461424</speed><course>84.941742</course><hAcc>0.884846</hAcc><vAcc>0.718296</vAcc></extensions></trkpt>
      <trkpt lon="-3.325255" lat="54.543277"><ele>257.089294</ele><time>2021-08-12T11:10:55Z</time><extensions><speed>1.490754</speed><course>73.584358</course><hAcc>0.884579</hAcc><vAcc>0.717211</vAcc></extensions></trkpt>
      <trkpt lon="-3.325232" lat="54.543278"><ele>257.127472</ele><time>2021-08-12T11:10:56Z</time><extensions><speed>1.495686</speed><course>96.346313</course><hAcc>0.884273</hAcc><vAcc>0.715977</vAcc></extensions></trkpt>
      <trkpt lon="-3.325209" lat="54.543278"><ele>257.174072</ele><time>2021-08-12T11:10:57Z</time><extensions><speed>1.483372</speed><course>87.208282</course><hAcc>0.883934</hAcc><vAcc>0.714633</vAcc></extensions></trkpt>
      <trkpt lon="-3.325186" lat="54.543278"><ele>257.230408</ele><time>2021-08-12T11:10:58Z</time><extensions><speed>1.459760</speed><course>71.034035</course><hAcc>0.883573</hAcc><vAcc>0.713217</vAcc></extensions></trkpt>
      <trkpt lon="-3.325164" lat="54.543277"><ele>257.297180</ele><time>2021-08-12T11:10:59Z</time><extensions><speed>1.428901</speed><course>74.315559</course><hAcc>0.883197</hAcc><vAcc>0.711764</vAcc></extensions></trkpt>
      <trkpt lon="-3.325142" lat="54.543276"><ele>257.374634</ele><time>2021-08-12T11:11:00Z</time><extensions><speed>1.394248</speed><course>82.074326</course><hAcc>0.882816</hAcc><vAcc>0.710306</vAcc></extensions></trkpt>
      <trkpt lon="-3.325121" lat="54.543275"><ele>257.462830</ele><time>2021-08-12T11:11:01Z</time><extensions><speed>1.358892</speed><course>78.798851</course><hAcc>0.882439</hAcc><vAcc>0.708874</vAcc></extensions></trkpt>
      <trkpt lon="-3.325100" lat="54.543273"><ele>257.561523</ele><time>2021-08-12T11:11:02Z</time><extensions><speed>1.325471</speed><course>71.049065</course><hAcc>0.882072</hAcc><vAcc>0.707495</vAcc></extensions></trkpt>
      <trkpt lon="-3.325080" lat="54.543271"><ele>257.669922</ele><time>2021-08-12T11:11:03Z</time><extensions><speed>1.295215</speed><course>66.417450</course><hAcc>0.881722</hAcc><vAcc>0.706190</vAcc></extensions></trkpt>
      <trkpt lon="-3.325061" lat="54.543269"><ele>257.787018</ele><time>2021-08-12T11:11:04Z</time><extensions><speed>1.268430</speed><course>67.881187</course><hAcc>0.881397</hAcc><vAcc>0.704971</vAcc></extensions></trkpt>
      <trkpt lon="-3.325042" lat="54.543267"><ele>257.911652</ele><time>2021-08-12T11:11:05Z</time><extensions><speed>1.246009</speed><course>73.946594</course><hAcc>0.881100</hAcc><vAcc>0.703854</vAcc></extensions></trkpt>
      <trkpt lon="-3.325023" lat="54.543265"><ele>258.042877</ele><time>2021-08-12T11:11:06Z</time><extensions><speed>1.228588</speed><course>66.868568</course><hAcc>0.880836</hAcc><vAcc>0.702857</vAcc></extensions></trkpt>
      <trkpt lon="-3.325004" lat="54.543263"><ele>258.180054</ele><time>2021-08-12T11:11:07Z</time><extensions><speed>1.215577</speed><course>57.370388</course><hAcc>0.880610</hAcc><vAcc>0.701999</vAcc></extensions></trkpt>
      <trkpt lon="-3.324986" lat="54.543261"><ele>258.322205</ele><time>2021-08-12T11:11:08Z</time><extensions><speed>1.205399</speed><course>72.859169</course><hAcc>0.880424</hAcc><vAcc>0.701291</vAcc></extensions></trkpt>
      <trkpt lon="-3.324968" lat="54.543259"><ele>258.467834</ele><time>2021-08-12T11:11:09Z</time><extensions><speed>1.195911</speed><course>73.476959</course><hAcc>0.880280</hAcc><vAcc>0.700744</vAcc></extensions></trkpt>
      <trkpt lon="-3.324950" lat="54.543257"><ele>258.615082</ele><time>2021-08-12T11:11:10Z</time><extensions><speed>1.185929</speed><course>70.985191</course><hAcc>0.880179</hAcc><vAcc>0.700366</vAcc></extensions></trkpt>
      <trkpt lon="-3.324932" lat="54.543255"><ele>258.761749</ele><time>2021-08-12T11:11:11Z</time><extensions><speed>1.175293</speed><course>67.094063</course><hAcc>0.880118</hAcc><vAcc>0.700156</vAcc></extensions></trkpt>
      <trkpt lon="-3.324914" lat="54.543254"><ele>258.905518</ele><time>2021-08-12T11:11:12Z</time><extensions><speed>1.163963</speed><course>63.802017</course><hAcc>0.880097</hAcc><vAcc>0.700107</vAcc></extensions></trkpt>
      <trkpt lon="-3.324896" lat="54.543253"><ele>259.043976</ele><time>2021-08-12T11:11:13Z</time><extensions><speed>1.151994</speed><course>59.738853</course><hAcc>0.880112</hAcc><vAcc>0.700207</vAcc></extensions></trkpt>
      <trkpt lon="-3.324878" lat="54.543252"><ele>259.174805</ele><time>2021-08-12T11:11:14Z</time><extensions><speed>1.140350</speed><course>64.752533</course><hAcc>0.880156</hAcc><vAcc>0.700439</vAcc></extensions></trkpt>
      <trkpt lon="-3.324861" lat="54.543251"><ele>259.296326</ele><time>2021-08-12T11:11:15Z</time><extensions><speed>1.130386</speed><course>62.678837</course><hAcc>0.880223</hAcc><vAcc>0.700780</vAcc></extensions></trkpt>
      <trkpt lon="-3.324843" lat="54.543251"><ele>259.407104</ele><time>2021-08-12T11:11:16Z</time><extensions><speed>1.122103</speed><course>67.622025</course><hAcc>0.880307</hAcc><vAcc>0.701195</vAcc></extensions></trkpt>
      <trkpt lon="-3.324826" lat="54.543251"><ele>259.506195</ele><time>2021-08-12T11:11:17Z</time><extensions><speed>1.115371</speed><course>76.998230</course><hAcc>0.880398</hAcc><vAcc>0.701643</vAcc></extensions></trkpt>
      <trkpt lon="-3.324809" lat="54.543252"><ele>259.593323</ele><time>2021-08-12T11:11:18Z</time><extensions><speed>1.110542</speed><course>71.279175</course><hAcc>0.880491</hAcc><vAcc>0.702085</vAcc></extensions></trkpt>
      <trkpt lon="-3.324792" lat="54.543253"><ele>259.668488</ele><time>2021-08-12T11:11:19Z</time><extensions><speed>1.108094</speed><course>66.215858</course><hAcc>0.880578</hAcc><vAcc>0.702485</vAcc></extensions></trkpt>
      <trkpt lon="-3.324775" lat="54.543254"><ele>259.731812</ele><time>2021-08-12T11:11:20Z</time><extensions><speed>1.107915</speed><course>65.869171</course><hAcc>0.880655</hAcc><vAcc>0.702811</vAcc></extensions></trkpt>
      <trkpt lon="-3.324758" lat="54.543256"><ele>259.783997</ele><time>2021-08-12T11:11:21Z</time><extensions><speed>1.109394</speed><course>67.480362</course><hAcc>0.880719</hAcc><vAcc>0.703043</vAcc></extensions></trkpt>
      <trkpt lon="-3.324741" lat="54.543257"><ele>259.826019</ele><time>2021-08-12T11:11:22Z</time><extensions><speed>1.112404</speed><course>62.467888</course><hAcc>0.880772</hAcc><vAcc>0.703178</vAcc></extensions></trkpt>
      <trkpt lon="-3.324724" lat="54.543259"><ele>259.858673</ele><time>2021-08-12T11:11:23Z</time><extensions><speed>1.117377</speed><course>57.403885</course><hAcc>0.880813</hAcc><vAcc>0.703231</vAcc></extensions></trkpt>
      <trkpt lon="-3.324707" lat="54.543261"><ele>259.882812</ele><time>2021-08-12T11:11:24Z</time><extensions><speed>1.125751</speed><course>56.104736</course><hAcc>0.880847</hAcc><vAcc>0.703236</vAcc></extensions></trkpt>
      <trkpt lon="-3.324690" lat="54.543263"><ele>259.899078</ele><time>2021-08-12T11:11:25Z</time><extensions><speed>1.138761</speed><course>57.135769</course><hAcc>0.880878</hAcc><vAcc>0.703234</vAcc></extensions></trkpt>
      <trkpt lon="-3.324673" lat="54.543266"><ele>259.907928</ele><time>2021-08-12T11:11:26Z</time><extensions><speed>1.156000</speed><course>59.466648</course><hAcc>0.880911</hAcc><vAcc>0.703262</vAcc></extensions></trkpt>
      <trkpt lon="-3.324655" lat="54.543268"><ele>259.909943</ele><time>2021-08-12T11:11:27Z</time><extensions><speed>1.175904</speed><course>56.466339</course><hAcc>0.880949</hAcc><vAcc>0.703347</vAcc></extensions></trkpt>
      <trkpt lon="-3.324637" lat="54.543271"><ele>259.905762</ele><time>2021-08-12T11:11:28Z</time><extensions><speed>1.196528</speed><course>61.082169</course><hAcc>0.880997</hAcc><vAcc>0.703501</vAcc></extensions></trkpt>
      <trkpt lon="-3.324619" lat="54.543273"><ele>259.895660</ele><time>2021-08-12T11:11:29Z</time><extensions><speed>1.216089</speed><course>63.000797</course><hAcc>0.881056</hAcc><vAcc>0.703726</vAcc></extensions></trkpt>
      <trkpt lon="-3.324601" lat="54.543276"><ele>259.879669</ele><time>2021-08-12T11:11:30Z</time><extensions><speed>1.233650</speed><course>58.373146</course><hAcc>0.881126</hAcc><vAcc>0.704021</vAcc></extensions></trkpt>
      <trkpt lon="-3.324582" lat="54.543279"><ele>259.857635</ele><time>2021-08-12T11:11:31Z</time><extensions><speed>1.249133</speed><course>59.591164</course><hAcc>0.881205</hAcc><vAcc>0.704378</vAcc></extensions></trkpt>
      <trkpt lon="-3.324564" lat="54.543281"><ele>259.829651</ele><time>2021-08-12T11:11:32Z</time><extensions><speed>1.262495</speed><course>56.078835</course><hAcc>0.881289</hAcc><vAcc>0.704778</vAcc></extensions></trkpt>
      <trkpt lon="-3.324544" lat="54.543284"><ele>259.795959</ele><time>2021-08-12T11:11:33Z</time><extensions><speed>1.273850</speed><course>61.452141</course><hAcc>0.881376</hAcc><vAcc>0.705193</vAcc></extensions></trkpt>
      <trkpt lon="-3.324525" lat="54.543287"><ele>259.757111</ele><time>2021-08-12T11:11:34Z</time><extensions><speed>1.283134</speed><course>62.349373</course><hAcc>0.881461</hAcc><vAcc>0.705589</vAcc></extensions></trkpt>
      <trkpt lon="-3.324506" lat="54.543289"><ele>259.713837</ele><time>2021-08-12T11:11:35Z</time><extensions><speed>1.289727</speed><course>67.502327</course><hAcc>0.881540</hAcc><vAcc>0.705940</vAcc></extensions></trkpt>
      <trkpt lon="-3.324486" lat="54.543292"><ele>259.666809</ele><time>2021-08-12T11:11:36Z</time><extensions><speed>1.293314</speed><course>65.148994</course><hAcc>0.881611</hAcc><vAcc>0.706228</vAcc></extensions></trkpt>
      <trkpt lon="-3.324467" lat="54.543294"><ele>259.616425</ele><time>2021-08-12T11:11:37Z</time><extensions><speed>1.293636</speed><course>61.604351</course><hAcc>0.881674</hAcc><vAcc>0.706446</vAcc></extensions></trkpt>
      <trkpt lon="-3.324447" lat="54.543296"><ele>259.563232</ele><time>2021-08-12T11:11:38Z</time><extensions><speed>1.290491</speed><course>67.356651</course><hAcc>0.881728</hAcc><vAcc>0.706595</vAcc></extensions></trkpt>
      <trkpt lon="-3.324428" lat="54.543298"><ele>259.507507</ele><time>2021-08-12T11:11:39Z</time><extensions><speed>1.283660</speed><course>56.187717</course><hAcc>0.881775</hAcc><vAcc>0.706684</vAcc></extensions></trkpt>
      <trkpt lon="-3.324408" lat="54.543300"><ele>259.449219</ele><time>2021-08-12T11:11:40Z</time><extensions><speed>1.272408</speed><course>56.273357</course><hAcc>0.881819</hAcc><vAcc>0.706734</vAcc></extensions></trkpt>
      <trkpt lon="-3.324389" lat="54.543302"><ele>259.388275</ele><time>2021-08-12T11:11:41Z</time><extensions><speed>1.256050</speed><course>59.042984</course><hAcc>0.881863</hAcc><vAcc>0.706779</vAcc></extensions></trkpt>
      <trkpt lon="-3.324370" lat="54.543304"><ele>259.324554</ele><time>2021-08-12T11:11:42Z</time><extensions><speed>1.234681</speed><course>46.754299</course><hAcc>0.881910</hAcc><vAcc>0.706853</vAcc></extensions></trkpt>
      <trkpt lon="-3.324351" lat="54.543305"><ele>259.257538</ele><time>2021-08-12T11:11:43Z</time><extensions><speed>1.209284</speed><course>46.754295</course><hAcc>0.881960</hAcc><vAcc>0.706988</vAcc></extensions></trkpt>
      <trkpt lon="-3.324333" lat="54.543307"><ele>259.186218</ele><time>2021-08-12T11:11:44Z</time><extensions><speed>1.180729</speed><course>46.754295</course><hAcc>0.882015</hAcc><vAcc>0.707195</vAcc></extensions></trkpt>
      <trkpt lon="-3.324315" lat="54.543308"><ele>259.109650</ele><time>2021-08-12T11:11:45Z</time><extensions><speed>1.148253</speed><course>46.754295</course><hAcc>0.882072</hAcc><vAcc>0.707468</vAcc></extensions></trkpt>
      <trkpt lon="-3.324298" lat="54.543310"><ele>259.027893</ele><time>2021-08-12T11:11:46Z</time><extensions><speed>1.109290</speed><course>46.754295</course><hAcc>0.882126</hAcc><vAcc>0.707780</vAcc></extensions></trkpt>
      <trkpt lon="-3.324281" lat="54.543311"><ele>258.941925</ele><time>2021-08-12T11:11:47Z</time><extensions><speed>1.062165</speed><course>46.754295</course><hAcc>0.882171</hAcc><vAcc>0.708094</vAcc></extensions></trkpt>
      <trkpt lon="-3.324265" lat="54.543312"><ele>258.853699</ele><time>2021-08-12T11:11:48Z</time><extensions><speed>1.006840</speed><course>46.754295</course><hAcc>0.882198</hAcc><vAcc>0.708363</vAcc></extensions></trkpt>
      <trkpt lon="-3.324250" lat="54.543313"><ele>258.766144</ele><time>2021-08-12T11:11:49Z</time><extensions><speed>0.944528</speed><course>46.754292</course><hAcc>0.882200</hAcc><vAcc>0.708538</vAcc></extensions></trkpt>
      <trkpt lon="-3.324236" lat="54.543314"><ele>258.682526</ele><time>2021-08-12T11:11:50Z</time><extensions><speed>0.877594</speed><course>46.754295</course><hAcc>0.882166</hAcc><vAcc>0.708568</vAcc></extensions></trkpt>
      <trkpt lon="-3.324223" lat="54.543315"><ele>258.605682</ele><time>2021-08-12T11:11:51Z</time><extensions><speed>0.808890</speed><course>86.257805</course><hAcc>0.882090</hAcc><vAcc>0.708408</vAcc></extensions></trkpt>
      <trkpt lon="-3.324211" lat="54.543316"><ele>258.538025</ele><time>2021-08-12T11:11:52Z</time><extensions><speed>0.741522</speed><course>92.864906</course><hAcc>0.881965</hAcc><vAcc>0.708020</vAcc></extensions></trkpt>
      <trkpt lon="-3.324201" lat="54.543316"><ele>258.480988</ele><time>2021-08-12T11:11:53Z</time><extensions><speed>0.678891</speed><course>94.458534</course><hAcc>0.881787</hAcc><vAcc>0.707389</vAcc></extensions></trkpt>
      <trkpt lon="-3.324190" lat="54.543317"><ele>258.435211</ele><time>2021-08-12T11:11:54Z</time><extensions><speed>0.624547</speed><course>89.165138</course><hAcc>0.881555</hAcc><vAcc>0.706518</vAcc></extensions></trkpt>
      <trkpt lon="-3.324181" lat="54.543317"><ele>258.400452</ele><time>2021-08-12T11:11:55Z</time><extensions><speed>0.581633</speed><course>98.187202</course><hAcc>0.881269</hAcc><vAcc>0.705427</vAcc></extensions></trkpt>
      <trkpt lon="-3.324172" lat="54.543317"><ele>258.375671</ele><time>2021-08-12T11:11:56Z</time><extensions><speed>0.553311</speed><course>262.094696</course><hAcc>0.880933</hAcc><vAcc>0.704147</vAcc></extensions></trkpt>
      <trkpt lon="-3.324164" lat="54.543317"><ele>258.359222</ele><time>2021-08-12T11:11:57Z</time><extensions><speed>0.542020</speed><course>273.339569</course><hAcc>0.880557</hAcc><vAcc>0.702709</vAcc></extensions></trkpt>
      <trkpt lon="-3.324156" lat="54.543317"><ele>258.349152</ele><time>2021-08-12T11:11:58Z</time><extensions><speed>0.548035</speed><course>270.133057</course><hAcc>0.880152</hAcc><vAcc>0.701150</vAcc></extensions></trkpt>
      <trkpt lon="-3.324147" lat="54.543317"><ele>258.343567</ele><time>2021-08-12T11:11:59Z</time><extensions><speed>0.569563</speed><course>264.401459</course><hAcc>0.879732</hAcc><vAcc>0.699515</vAcc></extensions></trkpt>
      <trkpt lon="-3.324138" lat="54.543317"><ele>258.340942</ele><time>2021-08-12T11:12:00Z</time><extensions><speed>0.603708</speed><course>271.206299</course><hAcc>0.879317</hAcc><vAcc>0.697857</vAcc></extensions></trkpt>
      <trkpt lon="-3.324128" lat="54.543317"><ele>258.339844</ele><time>2021-08-12T11:12:01Z</time><extensions><speed>0.647355</speed><course>270.479279</course><hAcc>0.878927</hAcc><vAcc>0.696246</vAcc></extensions></trkpt>
      <trkpt lon="-3.324118" lat="54.543317"><ele>258.339020</ele><time>2021-08-12T11:12:02Z</time><extensions><speed>0.697506</speed><course>270.479279</course><hAcc>0.878585</hAcc><vAcc>0.694773</vAcc></extensions></trkpt>
      <trkpt lon="-3.324107" lat="54.543318"><ele>258.337128</ele><time>2021-08-12T11:12:03Z</time><extensions><speed>0.751608</speed><course>270.479279</course><hAcc>0.878314</hAcc><vAcc>0.693556</vAcc></extensions></trkpt>
      <trkpt lon="-3.324095" lat="54.543318"><ele>258.332825</ele><time>2021-08-12T11:12:04Z</time><extensions><speed>0.808060</speed><course>92.836548</course><hAcc>0.878135</hAcc><vAcc>0.692714</vAcc></extensions></trkpt>
      <trkpt lon="-3.324082" lat="54.543319"><ele>258.325012</ele><time>2021-08-12T11:12:05Z</time><extensions><speed>0.865395</speed><course>91.847809</course><hAcc>0.878065</hAcc><vAcc>0.692353</vAcc></extensions></trkpt>
      <trkpt lon="-3.324068" lat="54.543320"><ele>258.312775</ele><time>2021-08-12T11:12:06Z</time><extensions><speed>0.921417</speed><course>96.972961</course><hAcc>0.878115</hAcc><vAcc>0.692539</vAcc></extensions></trkpt>
      <trkpt lon="-3.324053" lat="54.543321"><ele>258.295532</ele><time>2021-08-12T11:12:07Z</time><extensions><speed>0.973860</speed><course>101.432434</course><hAcc>0.878286</hAcc><vAcc>0.693283</vAcc></extensions></trkpt>
      <trkpt lon="-3.324038" lat="54.543322"><ele>258.272858</ele><time>2021-08-12T11:12:08Z</time><extensions><speed>1.021093</speed><course>89.921867</course><hAcc>0.878568</hAcc><vAcc>0.694528</vAcc></extensions></trkpt>
      <trkpt lon="-3.324022" lat="54.543324"><ele>258.244385</ele><time>2021-08-12T11:12:09Z</time><extensions><speed>1.062395</speed><course>79.468422</course><hAcc>0.878945</hAcc><vAcc>0.696165</vAcc></extensions></trkpt>
      <trkpt lon="-3.324006" lat="54.543326"><ele>258.209686</ele><time>2021-08-12T11:12:10Z</time><extensions><speed>1.098799</speed><course>79.668663</course><hAcc>0.879395</hAcc><vAcc>0.698062</vAcc></extensions></trkpt>
      <trkpt lon="-3.323989" lat="54.543328"><ele>258.168488</ele><time>2021-08-12T11:12:11Z</time><extensions><speed>1.131312</speed><course>70.198914</course><hAcc>0.879894</hAcc><vAcc>0.700096</vAcc></extensions></trkpt>
      <trkpt lon="-3.323972" lat="54.543331"><ele>258.121124</ele><time>2021-08-12T11:12:12Z</time><extensions><speed>1.159619</speed><course>85.811096</course><hAcc>0.880420</hAcc><vAcc>0.702162</vAcc></extensions></trkpt>
      <trkpt lon="-3.323954" lat="54.543333"><ele>258.068909</ele><time>2021-08-12T11:12:13Z</time><extensions><speed>1.184158</speed><course>87.515213</course><hAcc>0.880952</hAcc><vAcc>0.704184</vAcc></extensions></trkpt>
      <trkpt lon="-3.323937" lat="54.543336"><ele>258.013611</ele><time>2021-08-12T11:12:14Z</time><extensions><speed>1.206071</speed><course>86.802406</course><hAcc>0.881472</hAcc><vAcc>0.706114</vAcc></extensions></trkpt>
      <trkpt lon="-3.323918" lat="54.543339"><ele>257.956635</ele><time>2021-08-12T11:12:15Z</time><extensions><speed>1.225888</speed><course>85.424927</course><hAcc>0.881967</hAcc><vAcc>0.707922</vAcc></extensions></trkpt>
      <trkpt lon="-3.323900" lat="54.543341"><ele>257.899017</ele><time>2021-08-12T11:12:16Z</time><extensions><speed>1.242968</speed><course>88.911957</course><hAcc>0.882426</hAcc><vAcc>0.709585</vAcc></extensions></trkpt>
      <trkpt lon="-3.323881" lat="54.543344"><ele>257.841919</ele><time>2021-08-12T11:12:17Z</time><extensions><speed>1.256393</speed><course>93.027184</course><hAcc>0.882843</hAcc><vAcc>0.711089</vAcc></extensions></trkpt>
      <trkpt lon="-3.323862" lat="54.543347"><ele>257.786682</ele><time>2021-08-12T11:12:18Z</time><extensions><speed>1.266103</speed><course>90.763535</course><hAcc>0.883217</hAcc><vAcc>0.712417</vAcc></extensions></trkpt>
      <trkpt lon="-3.323843" lat="54.543349"><ele>257.734619</ele><time>2021-08-12T11:12:19Z</time><extensions><speed>1.272370</speed><course>83.392509</course><hAcc>0.883547</hAcc><vAcc>0.713564</vAcc></extensions></trkpt>
      <trkpt lon="-3.323824" lat="54.543352"><ele>257.687134</ele><time>2021-08-12T11:12:20Z</time><extensions><speed>1.275059</speed><course>57.334152</course><hAcc>0.883836</hAcc><vAcc>0.714534</vAcc></extensions></trkpt>
      <trkpt lon="-3.323805" lat="54.543354"><ele>257.645172</ele><time>2021-08-12T11:12:21Z</time><extensions><speed>1.274014</speed><course>29.254333</course><hAcc>0.884087</hAcc><vAcc>0.715342</vAcc></extensions></trkpt>
      <trkpt lon="-3.323786" lat="54.543357"><ele>257.609344</ele><time>2021-08-12T11:12:22Z</time><extensions><speed>1.269292</speed><course>29.254333</course><hAcc>0.884303</hAcc><vAcc>0.716017</vAcc></extensions></trkpt>
      <trkpt lon="-3.323766" lat="54.543359"><ele>257.579773</ele><time>2021-08-12T11:12:23Z</time><extensions><speed>1.261087</speed><course>29.254333</course><hAcc>0.884490</hAcc><vAcc>0.716590</vAcc></extensions></trkpt>
      <trkpt lon="-3.323747" lat="54.543361"><ele>257.556091</ele><time>2021-08-12T11:12:24Z</time><extensions><speed>1.250074</speed><course>29.254332</course><hAcc>0.884651</hAcc><vAcc>0.717091</vAcc></extensions></trkpt>
      <trkpt lon="-3.323728" lat="54.543363"><ele>257.537598</ele><time>2021-08-12T11:12:25Z</time><extensions><speed>1.237158</speed><course>29.254333</course><hAcc>0.884792</hAcc><vAcc>0.717545</vAcc></extensions></trkpt>
      <trkpt lon="-3.323710" lat="54.543365"><ele>257.523376</ele><time>2021-08-12T11:12:26Z</time><extensions><speed>1.223100</speed><course>29.254332</course><hAcc>0.884917</hAcc><vAcc>0.717968</vAcc></extensions></trkpt>
      <trkpt lon="-3.323691" lat="54.543366"><ele>257.512726</ele><time>2021-08-12T11:12:27Z</time><extensions><speed>1.208356</speed><course>29.254332</course><hAcc>0.885028</hAcc><vAcc>0.718369</vAcc></extensions></trkpt>
      <trkpt lon="-3.323673" lat="54.543368"><ele>257.505127</ele><time>2021-08-12T11:12:28Z</time><extensions><speed>1.193327</speed><course>29.254333</course><hAcc>0.885129</hAcc><vAcc>0.718754</vAcc></extensions></trkpt>
      <trkpt lon="-3.323655" lat="54.543370"><ele>257.500061</ele><time>2021-08-12T11:12:29Z</time><extensions><speed>1.178143</speed><course>29.254333</course><hAcc>0.885222</hAcc><vAcc>0.719121</vAcc></extensions></trkpt>
      <trkpt lon="-3.323637" lat="54.543371"><ele>257.497009</ele><time>2021-08-12T11:12:30Z</time><extensions><speed>1.162853</speed><course>29.254332</course><hAcc>0.885308</hAcc><vAcc>0.719461</vAcc></extensions></trkpt>
      <trkpt lon="-3.323619" lat="54.543372"><ele>257.495331</ele><time>2021-08-12T11:12:31Z</time><extensions><speed>1.147780</speed><course>29.254333</course><hAcc>0.885387</hAcc><vAcc>0.719768</vAcc></extensions></trkpt>
      <trkpt lon="-3.323602" lat="54.543374"><ele>257.494446</ele><time>2021-08-12T11:12:32Z</time><extensions><speed>1.132944</speed><course>29.254337</course><hAcc>0.885460</hAcc><vAcc>0.720039</vAcc></extensions></trkpt>
      <trkpt lon="-3.323584" lat="54.543375"><ele>257.493896</ele><time>2021-08-12T11:12:33Z</time><extensions><speed>1.118160</speed><course>29.254337</course><hAcc>0.885525</hAcc><vAcc>0.720273</vAcc></extensions></trkpt>
      <trkpt lon="-3.323567" lat="54.543376"><ele>257.493500</ele><time>2021-08-12T11:12:34Z</time><extensions><speed>1.103857</speed><course>29.254339</course><hAcc>0.885580</hAcc><vAcc>0.720472</vAcc></extensions></trkpt>
      <trkpt lon="-3.323550" lat="54.543377"><ele>257.493195</ele><time>2021-08-12T11:12:35Z</time><extensions><speed>1.090676</speed><course>29.254337</course><hAcc>0.885626</hAcc><vAcc>0.720637</vAcc></extensions></trkpt>
      <trkpt lon="-3.323534" lat="54.543378"><ele>257.493042</ele><time>2021-08-12T11:12:36Z</time><extensions><speed>1.078436</speed><course>29.254339</course><hAcc>0.885662</hAcc><vAcc>0.720767</vAcc></extensions></trkpt>
      <trkpt lon="-3.323517" lat="54.543379"><ele>257.492798</ele><time>2021-08-12T11:12:37Z</time><extensions><speed>1.066467</speed><course>353.139893</course><hAcc>0.885686</hAcc><vAcc>0.720862</vAcc></extensions></trkpt>
      <trkpt lon="-3.323501" lat="54.543379"><ele>257.491943</ele><time>2021-08-12T11:12:38Z</time><extensions><speed>1.054488</speed><course>-1.000000</course><hAcc>0.885700</hAcc><vAcc>0.720920</vAcc></extensions></trkpt>
      <trkpt lon="-3.323485" lat="54.543380"><ele>257.489532</ele><time>2021-08-12T11:12:39Z</time><extensions><speed>1.043063</speed><course>-1.000000</course><hAcc>0.885703</hAcc><vAcc>0.720938</vAcc></extensions></trkpt>
      <trkpt lon="-3.323469" lat="54.543381"><ele>257.484497</ele><time>2021-08-12T11:12:40Z</time><extensions><speed>1.033056</speed><course>-1.000000</course><hAcc>0.885696</hAcc><vAcc>0.720916</vAcc></extensions></trkpt>
      <trkpt lon="-3.323453" lat="54.543382"><ele>257.475464</ele><time>2021-08-12T11:12:41Z</time><extensions><speed>1.025107</speed><course>-1.000000</course><hAcc>0.885681</hAcc><vAcc>0.720853</vAcc></extensions></trkpt>
      <trkpt lon="-3.323437" lat="54.543382"><ele>257.461182</ele><time>2021-08-12T11:12:42Z</time><extensions><speed>1.019819</speed><course>-1.000000</course><hAcc>0.885660</hAcc><vAcc>0.720751</vAcc></extensions></trkpt>
      <trkpt lon="-3.323421" lat="54.543383"><ele>257.440643</ele><time>2021-08-12T11:12:43Z</time><extensions><speed>1.017385</speed><course>-1.000000</course><hAcc>0.885633</hAcc><vAcc>0.720617</vAcc></extensions></trkpt>
      <trkpt lon="-3.323406" lat="54.543384"><ele>257.413086</ele><time>2021-08-12T11:12:44Z</time><extensions><speed>1.018208</speed><course>-1.000000</course><hAcc>0.885603</hAcc><vAcc>0.720460</vAcc></extensions></trkpt>
      <trkpt lon="-3.323390" lat="54.543384"><ele>257.378082</ele><time>2021-08-12T11:12:45Z</time><extensions><speed>1.022408</speed><course>-1.000000</course><hAcc>0.885572</hAcc><vAcc>0.720292</vAcc></extensions></trkpt>
      <trkpt lon="-3.323374" lat="54.543385"><ele>257.335571</ele><time>2021-08-12T11:12:46Z</time><extensions><speed>1.028886</speed><course>-1.000000</course><hAcc>0.885542</hAcc><vAcc>0.720127</vAcc></extensions></trkpt>
      <trkpt lon="-3.323358" lat="54.543386"><ele>257.285706</ele><time>2021-08-12T11:12:47Z</time><extensions><speed>1.036343</speed><course>-1.000000</course><hAcc>0.885514</hAcc><vAcc>0.719983</vAcc></extensions></trkpt>
      <trkpt lon="-3.323342" lat="54.543387"><ele>257.229034</ele><time>2021-08-12T11:12:48Z</time><extensions><speed>1.043764</speed><course>-1.000000</course><hAcc>0.885490</hAcc><vAcc>0.719870</vAcc></extensions></trkpt>
      <trkpt lon="-3.323326" lat="54.543388"><ele>257.166718</ele><time>2021-08-12T11:12:49Z</time><extensions><speed>1.050586</speed><course>74.830536</course><hAcc>0.885469</hAcc><vAcc>0.719797</vAcc></extensions></trkpt>
      <trkpt lon="-3.323310" lat="54.543388"><ele>257.100708</ele><time>2021-08-12T11:12:50Z</time><extensions><speed>1.056308</speed><course>62.161198</course><hAcc>0.885455</hAcc><vAcc>0.719762</vAcc></extensions></trkpt>
      <trkpt lon="-3.323294" lat="54.543389"><ele>257.033417</ele><time>2021-08-12T11:12:51Z</time><extensions><speed>1.060675</speed><course>66.043793</course><hAcc>0.885446</hAcc><vAcc>0.719759</vAcc></extensions></trkpt>
      <trkpt lon="-3.323277" lat="54.543390"><ele>256.967224</ele><time>2021-08-12T11:12:52Z</time><extensions><speed>1.063497</speed><course>75.803009</course><hAcc>0.885443</hAcc><vAcc>0.719779</vAcc></extensions></trkpt>
      <trkpt lon="-3.323261" lat="54.543391"><ele>256.904510</ele><time>2021-08-12T11:12:53Z</time><extensions><speed>1.064465</speed><course>76.191063</course><hAcc>0.885445</hAcc><vAcc>0.719817</vAcc></extensions></trkpt>
      <trkpt lon="-3.323245" lat="54.543392"><ele>256.847260</ele><time>2021-08-12T11:12:54Z</time><extensions><speed>1.063911</speed><course>76.349960</course><hAcc>0.885453</hAcc><vAcc>0.719868</vAcc></extensions></trkpt>
      <trkpt lon="-3.323228" lat="54.543393"><ele>256.797058</ele><time>2021-08-12T11:12:55Z</time><extensions><speed>1.062937</speed><course>78.477806</course><hAcc>0.885464</hAcc><vAcc>0.719923</vAcc></extensions></trkpt>
      <trkpt lon="-3.323212" lat="54.543394"><ele>256.754913</ele><time>2021-08-12T11:12:56Z</time><extensions><speed>1.062515</speed><course>75.070290</course><hAcc>0.885479</hAcc><vAcc>0.719977</vAcc></extensions></trkpt>
      <trkpt lon="-3.323196" lat="54.543395"><ele>256.721161</ele><time>2021-08-12T11:12:57Z</time><extensions><speed>1.063328</speed><course>69.086029</course><hAcc>0.885496</hAcc><vAcc>0.720030</vAcc></extensions></trkpt>
      <trkpt lon="-3.323179" lat="54.543396"><ele>256.695557</ele><time>2021-08-12T11:12:58Z</time><extensions><speed>1.066104</speed><course>68.949226</course><hAcc>0.885515</hAcc><vAcc>0.720086</vAcc></extensions></trkpt>
      <trkpt lon="-3.323163" lat="54.543397"><ele>256.677399</ele><time>2021-08-12T11:12:59Z</time><extensions><speed>1.071160</speed><course>71.686111</course><hAcc>0.885534</hAcc><vAcc>0.720147</vAcc></extensions></trkpt>
      <trkpt lon="-3.323146" lat="54.543398"><ele>256.666107</ele><time>2021-08-12T11:13:00Z</time><extensions><speed>1.078019</speed><course>76.597496</course><hAcc>0.885552</hAcc><vAcc>0.720216</vAcc></extensions></trkpt>
      <trkpt lon="-3.323130" lat="54.543399"><ele>256.661377</ele><time>2021-08-12T11:13:01Z</time><extensions><speed>1.085397</speed><course>90.005066</course><hAcc>0.885570</hAcc><vAcc>0.720291</vAcc></extensions></trkpt>
      <trkpt lon="-3.323113" lat="54.543401"><ele>256.663239</ele><time>2021-08-12T11:13:02Z</time><extensions><speed>1.092548</speed><course>83.948074</course><hAcc>0.885587</hAcc><vAcc>0.720368</vAcc></extensions></trkpt>
      <trkpt lon="-3.323096" lat="54.543402"><ele>256.671783</ele><time>2021-08-12T11:13:03Z</time><extensions><speed>1.099042</speed><course>76.996796</course><hAcc>0.885603</hAcc><vAcc>0.720441</vAcc></extensions></trkpt>
      <trkpt lon="-3.323079" lat="54.543403"><ele>256.686890</ele><time>2021-08-12T11:13:04Z</time><extensions><speed>1.104322</speed><course>79.507355</course><hAcc>0.885619</hAcc><vAcc>0.720505</vAcc></extensions></trkpt>
      <trkpt lon="-3.323062" lat="54.543404"><ele>256.708282</ele><time>2021-08-12T11:13:05Z</time><extensions><speed>1.107652</speed><course>72.096832</course><hAcc>0.885633</hAcc><vAcc>0.720558</vAcc></extensions></trkpt>
      <trkpt lon="-3.323045" lat="54.543406"><ele>256.735748</ele><time>2021-08-12T11:13:06Z</time><extensions><speed>1.108715</speed><course>80.368279</course><hAcc>0.885646</hAcc><vAcc>0.720601</vAcc></extensions></trkpt>
      <trkpt lon="-3.323029" lat="54.543407"><ele>256.769257</ele><time>2021-08-12T11:13:07Z</time><extensions><speed>1.108078</speed><course>78.982643</course><hAcc>0.885656</hAcc><vAcc>0.720637</vAcc></extensions></trkpt>
      <trkpt lon="-3.323012" lat="54.543409"><ele>256.808655</ele><time>2021-08-12T11:13:08Z</time><extensions><speed>1.106538</speed><course>81.075706</course><hAcc>0.885663</hAcc><vAcc>0.720667</vAcc></extensions></trkpt>
      <trkpt lon="-3.322995" lat="54.543410"><ele>256.853638</ele><time>2021-08-12T11:13:09Z</time><extensions><speed>1.104960</speed><course>81.007790</course><hAcc>0.885667</hAcc><vAcc>0.720690</vAcc></extensions></trkpt>
      <trkpt lon="-3.322978" lat="54.543412"><ele>256.903656</ele><time>2021-08-12T11:13:10Z</time><extensions><speed>1.104225</speed><course>78.272133</course><hAcc>0.885669</hAcc><vAcc>0.720704</vAcc></extensions></trkpt>
      <trkpt lon="-3.322961" lat="54.543414"><ele>256.958038</ele><time>2021-08-12T11:13:11Z</time><extensions><speed>1.105450</speed><course>73.069588</course><hAcc>0.885669</hAcc><vAcc>0.720707</vAcc></extensions></trkpt>
      <trkpt lon="-3.322944" lat="54.543415"><ele>257.016602</ele><time>2021-08-12T11:13:12Z</time><extensions><speed>1.108891</speed><course>77.189682</course><hAcc>0.885668</hAcc><vAcc>0.720698</vAcc></extensions></trkpt>
      <trkpt lon="-3.322927" lat="54.543417"><ele>257.079224</ele><time>2021-08-12T11:13:13Z</time><extensions><speed>1.113316</speed><course>75.197517</course><hAcc>0.885666</hAcc><vAcc>0.720677</vAcc></extensions></trkpt>
      <trkpt lon="-3.322910" lat="54.543419"><ele>257.145660</ele><time>2021-08-12T11:13:14Z</time><extensions><speed>1.116991</speed><course>67.733307</course><hAcc>0.885665</hAcc><vAcc>0.720647</vAcc></extensions></trkpt>
      <trkpt lon="-3.322894" lat="54.543421"><ele>257.215698</ele><time>2021-08-12T11:13:15Z</time><extensions><speed>1.119363</speed><course>69.123688</course><hAcc>0.885664</hAcc><vAcc>0.720615</vAcc></extensions></trkpt>
      <trkpt lon="-3.322877" lat="54.543423"><ele>257.289124</ele><time>2021-08-12T11:13:16Z</time><extensions><speed>1.120793</speed><course>71.299400</course><hAcc>0.885664</hAcc><vAcc>0.720588</vAcc></extensions></trkpt>
      <trkpt lon="-3.322860" lat="54.543425"><ele>257.366150</ele><time>2021-08-12T11:13:17Z</time><extensions><speed>1.120805</speed><course>77.479210</course><hAcc>0.885666</hAcc><vAcc>0.720574</vAcc></extensions></trkpt>
      <trkpt lon="-3.322843" lat="54.543427"><ele>257.447327</ele><time>2021-08-12T11:13:18Z</time><extensions><speed>1.118321</speed><course>68.623329</course><hAcc>0.885668</hAcc><vAcc>0.720579</vAcc></extensions></trkpt>
      <trkpt lon="-3.322826" lat="54.543429"><ele>257.532715</ele><time>2021-08-12T11:13:19Z</time><extensions><speed>1.113332</speed><course>63.866425</course><hAcc>0.885670</hAcc><vAcc>0.720605</vAcc></extensions></trkpt>
      <trkpt lon="-3.322809" lat="54.543430"><ele>257.621704</ele><time>2021-08-12T11:13:20Z</time><extensions><speed>1.106758</speed><course>76.291603</course><hAcc>0.885672</hAcc><vAcc>0.720648</vAcc></extensions></trkpt>
      <trkpt lon="-3.322792" lat="54.543432"><ele>257.713165</ele><time>2021-08-12T11:13:21Z</time><extensions><speed>1.099737</speed><course>71.777351</course><hAcc>0.885674</hAcc><vAcc>0.720697</vAcc></extensions></trkpt>
      <trkpt lon="-3.322775" lat="54.543434"><ele>257.805725</ele><time>2021-08-12T11:13:22Z</time><extensions><speed>1.092680</speed><course>76.476341</course><hAcc>0.885675</hAcc><vAcc>0.720738</vAcc></extensions></trkpt>
      <trkpt lon="-3.322759" lat="54.543435"><ele>257.898071</ele><time>2021-08-12T11:13:23Z</time><extensions><speed>1.085153</speed><course>63.346680</course><hAcc>0.885675</hAcc><vAcc>0.720762</vAcc></extensions></trkpt>
      <trkpt lon="-3.322742" lat="54.543436"><ele>257.989197</ele><time>2021-08-12T11:13:24Z</time><extensions><speed>1.077544</speed><course>60.883244</course><hAcc>0.885674</hAcc><vAcc>0.720765</vAcc></extensions></trkpt>
      <trkpt lon="-3.322726" lat="54.543438"><ele>258.077972</ele><time>2021-08-12T11:13:25Z</time><extensions><speed>1.070558</speed><course>66.100471</course><hAcc>0.885670</hAcc><vAcc>0.720745</vAcc></extensions></trkpt>
      <trkpt lon="-3.322709" lat="54.543439"><ele>258.163025</ele><time>2021-08-12T11:13:26Z</time><extensions><speed>1.063815</speed><course>66.284729</course><hAcc>0.885663</hAcc><vAcc>0.720705</vAcc></extensions></trkpt>
      <trkpt lon="-3.322693" lat="54.543440"><ele>258.242706</ele><time>2021-08-12T11:13:27Z</time><extensions><speed>1.056506</speed><course>70.183884</course><hAcc>0.885653</hAcc><vAcc>0.720647</vAcc></extensions></trkpt>
      <trkpt lon="-3.322677" lat="54.543442"><ele>258.315857</ele><time>2021-08-12T11:13:28Z</time><extensions><speed>1.049028</speed><course>69.091454</course><hAcc>0.885639</hAcc><vAcc>0.720574</vAcc></extensions></trkpt>
      <trkpt lon="-3.322661" lat="54.543444"><ele>258.381653</ele><time>2021-08-12T11:13:29Z</time><extensions><speed>1.042518</speed><course>67.595528</course><hAcc>0.885622</hAcc><vAcc>0.720492</vAcc></extensions></trkpt>
      <trkpt lon="-3.322645" lat="54.543445"><ele>258.438995</ele><time>2021-08-12T11:13:30Z</time><extensions><speed>1.038003</speed><course>69.079941</course><hAcc>0.885604</hAcc><vAcc>0.720404</vAcc></extensions></trkpt>
      <trkpt lon="-3.322630" lat="54.543447"><ele>258.486755</ele><time>2021-08-12T11:13:31Z</time><extensions><speed>1.036327</speed><course>67.638985</course><hAcc>0.885584</hAcc><vAcc>0.720315</vAcc></extensions></trkpt>
      <trkpt lon="-3.322614" lat="54.543449"><ele>258.524261</ele><time>2021-08-12T11:13:32Z</time><extensions><speed>1.037815</speed><course>67.902077</course><hAcc>0.885563</hAcc><vAcc>0.720226</vAcc></extensions></trkpt>
      <trkpt lon="-3.322598" lat="54.543451"><ele>258.551453</ele><time>2021-08-12T11:13:33Z</time><extensions><speed>1.041961</speed><course>68.213737</course><hAcc>0.885544</hAcc><vAcc>0.720140</vAcc></extensions></trkpt>
      <trkpt lon="-3.322583" lat="54.543453"><ele>258.568878</ele><time>2021-08-12T11:13:34Z</time><extensions><speed>1.047597</speed><course>58.646133</course><hAcc>0.885526</hAcc><vAcc>0.720058</vAcc></extensions></trkpt>
      <trkpt lon="-3.322567" lat="54.543456"><ele>258.577240</ele><time>2021-08-12T11:13:35Z</time><extensions><speed>1.053257</speed><course>60.787758</course><hAcc>0.885512</hAcc><vAcc>0.719983</vAcc></extensions></trkpt>
      <trkpt lon="-3.322551" lat="54.543458"><ele>258.577240</ele><time>2021-08-12T11:13:36Z</time><extensions><speed>1.058262</speed><course>59.107254</course><hAcc>0.885502</hAcc><vAcc>0.719919</vAcc></extensions></trkpt>
      <trkpt lon="-3.322535" lat="54.543461"><ele>258.569733</ele><time>2021-08-12T11:13:37Z</time><extensions><speed>1.062824</speed><course>59.308796</course><hAcc>0.885496</hAcc><vAcc>0.719870</vAcc></extensions></trkpt>
      <trkpt lon="-3.322519" lat="54.543463"><ele>258.555878</ele><time>2021-08-12T11:13:38Z</time><extensions><speed>1.066985</speed><course>63.536522</course><hAcc>0.885497</hAcc><vAcc>0.719847</vAcc></extensions></trkpt>
      <trkpt lon="-3.322503" lat="54.543465"><ele>258.536865</ele><time>2021-08-12T11:13:39Z</time><extensions><speed>1.070595</speed><course>64.110619</course><hAcc>0.885506</hAcc><vAcc>0.719858</vAcc></extensions></trkpt>
      <trkpt lon="-3.322487" lat="54.543467"><ele>258.513641</ele><time>2021-08-12T11:13:40Z</time><extensions><speed>1.073840</speed><course>57.783936</course><hAcc>0.885525</hAcc><vAcc>0.719909</vAcc></extensions></trkpt>
      <trkpt lon="-3.322471" lat="54.543469"><ele>258.486847</ele><time>2021-08-12T11:13:41Z</time><extensions><speed>1.077283</speed><course>62.673740</course><hAcc>0.885558</hAcc><vAcc>0.720008</vAcc></extensions></trkpt>
      <trkpt lon="-3.322454" lat="54.543471"><ele>258.456665</ele><time>2021-08-12T11:13:42Z</time><extensions><speed>1.081248</speed><course>68.268181</course><hAcc>0.885611</hAcc><vAcc>0.720160</vAcc></extensions></trkpt>
      <trkpt lon="-3.322438" lat="54.543473"><ele>258.423645</ele><time>2021-08-12T11:13:43Z</time><extensions><speed>1.085556</speed><course>59.735432</course><hAcc>0.885693</hAcc><vAcc>0.720380</vAcc></extensions></trkpt>
      <trkpt lon="-3.322421" lat="54.543474"><ele>258.388702</ele><time>2021-08-12T11:13:44Z</time><extensions><speed>1.090231</speed><course>59.192490</course><hAcc>0.885816</hAcc><vAcc>0.720681</vAcc></extensions></trkpt>
      <trkpt lon="-3.322405" lat="54.543476"><ele>258.352844</ele><time>2021-08-12T11:13:45Z</time><extensions><speed>1.095180</speed><course>60.825825</course><hAcc>0.885996</hAcc><vAcc>0.721081</vAcc></extensions></trkpt>
      <trkpt lon="-3.322388" lat="54.543477"><ele>258.316650</ele><time>2021-08-12T11:13:46Z</time><extensions><speed>1.099581</speed><course>62.921200</course><hAcc>0.886257</hAcc><vAcc>0.721597</vAcc></extensions></trkpt>
      <trkpt lon="-3.322371" lat="54.543478"><ele>258.280426</ele><time>2021-08-12T11:13:47Z</time><extensions><speed>1.102667</speed><course>59.145714</course><hAcc>0.886626</hAcc><vAcc>0.722249</vAcc></extensions></trkpt>
      <trkpt lon="-3.322354" lat="54.543479"><ele>258.244171</ele><time>2021-08-12T11:13:48Z</time><extensions><speed>1.104077</speed><course>54.852036</course><hAcc>0.887139</hAcc><vAcc>0.723057</vAcc></extensions></trkpt>
      <trkpt lon="-3.322337" lat="54.543479"><ele>258.208038</ele><time>2021-08-12T11:13:49Z</time><extensions><speed>1.103841</speed><course>52.958679</course><hAcc>0.887832</hAcc><vAcc>0.724043</vAcc></extensions></trkpt>
      <trkpt lon="-3.322320" lat="54.543480"><ele>258.172424</ele><time>2021-08-12T11:13:50Z</time><extensions><speed>1.102215</speed><course>51.642593</course><hAcc>0.888746</hAcc><vAcc>0.725223</vAcc></extensions></trkpt>
      <trkpt lon="-3.322303" lat="54.543480"><ele>258.137726</ele><time>2021-08-12T11:13:51Z</time><extensions><speed>1.099424</speed><course>50.915668</course><hAcc>0.889914</hAcc><vAcc>0.726604</vAcc></extensions></trkpt>
      <trkpt lon="-3.322286" lat="54.543481"><ele>258.104187</ele><time>2021-08-12T11:13:52Z</time><extensions><speed>1.095246</speed><course>43.517220</course><hAcc>0.891358</hAcc><vAcc>0.728172</vAcc></extensions></trkpt>
      <trkpt lon="-3.322269" lat="54.543481"><ele>258.072174</ele><time>2021-08-12T11:13:53Z</time><extensions><speed>1.089037</speed><course>53.213661</course><hAcc>0.893079</hAcc><vAcc>0.729890</vAcc></extensions></trkpt>
      <trkpt lon="-3.322252" lat="54.543482"><ele>258.042023</ele><time>2021-08-12T11:13:54Z</time><extensions><speed>1.080391</speed><course>42.672325</course><hAcc>0.895042</hAcc><vAcc>0.731683</vAcc></extensions></trkpt>
      <trkpt lon="-3.322236" lat="54.543482"><ele>258.014252</ele><time>2021-08-12T11:13:55Z</time><extensions><speed>1.069069</speed><course>57.842590</course><hAcc>0.897171</hAcc><vAcc>0.733445</vAcc></extensions></trkpt>
      <trkpt lon="-3.322219" lat="54.543483"><ele>257.989288</ele><time>2021-08-12T11:13:56Z</time><extensions><speed>1.054720</speed><course>54.432369</course><hAcc>0.899336</hAcc><vAcc>0.735034</vAcc></extensions></trkpt>
      <trkpt lon="-3.322203" lat="54.543483"><ele>257.967682</ele><time>2021-08-12T11:13:57Z</time><extensions><speed>1.037260</speed><course>53.099045</course><hAcc>0.901359</hAcc><vAcc>0.736297</vAcc></extensions></trkpt>
      <trkpt lon="-3.322187" lat="54.543483"><ele>257.950165</ele><time>2021-08-12T11:13:58Z</time><extensions><speed>1.016806</speed><course>52.709480</course><hAcc>0.903037</hAcc><vAcc>0.737104</vAcc></extensions></trkpt>
      <trkpt lon="-3.322172" lat="54.543484"><ele>257.937775</ele><time>2021-08-12T11:13:59Z</time><extensions><speed>0.992751</speed><course>55.566643</course><hAcc>0.904192</hAcc><vAcc>0.737409</vAcc></extensions></trkpt>
      <trkpt lon="-3.322157" lat="54.543484"><ele>257.931000</ele><time>2021-08-12T11:14:00Z</time><extensions><speed>0.963672</speed><course>50.999676</course><hAcc>0.904770</hAcc><vAcc>0.737353</vAcc></extensions></trkpt>
      <trkpt lon="-3.322142" lat="54.543484"><ele>257.929932</ele><time>2021-08-12T11:14:01Z</time><extensions><speed>0.929029</speed><course>49.932701</course><hAcc>0.905009</hAcc><vAcc>0.737398</vAcc></extensions></trkpt>
      <trkpt lon="-3.322128" lat="54.543485"><ele>257.934509</ele><time>2021-08-12T11:14:02Z</time><extensions><speed>0.889975</speed><course>44.103298</course><hAcc>0.905697</hAcc><vAcc>0.738526</vAcc></extensions></trkpt>
      <trkpt lon="-3.322115" lat="54.543485"><ele>257.944611</ele><time>2021-08-12T11:14:03Z</time><extensions><speed>0.847600</speed><course>35.959499</course><hAcc>0.908527</hAcc><vAcc>0.742469</vAcc></extensions></trkpt>
      <trkpt lon="-3.322102" lat="54.543486"><ele>257.959351</ele><time>2021-08-12T11:14:04Z</time><extensions><speed>0.802899</speed><course>30.952709</course><hAcc>0.916540</hAcc><vAcc>0.751951</vAcc></extensions></trkpt>
      <trkpt lon="-3.322090" lat="54.543486"><ele>257.977356</ele><time>2021-08-12T11:14:05Z</time><extensions><speed>0.757899</speed><course>43.709347</course><hAcc>0.934547</hAcc><vAcc>0.770820</vAcc></extensions></trkpt>
      <trkpt lon="-3.322079" lat="54.543486"><ele>257.997467</ele><time>2021-08-12T11:14:06Z</time><extensions><speed>0.715491</speed><course>37.574459</course><hAcc>0.969264</hAcc><vAcc>0.803932</vAcc></extensions></trkpt>
      <trkpt lon="-3.322075" lat="54.543487"><ele>258.016663</ele><time>2021-08-12T11:14:07Z</time><extensions><speed>0.245617</speed><course>74.967865</course><hAcc>0.931862</hAcc><vAcc>0.768524</vAcc></extensions></trkpt>
      <trkpt lon="-3.322072" lat="54.543487"><ele>258.057526</ele><time>2021-08-12T11:14:08Z</time><extensions><speed>0.201135</speed><course>75.133301</course><hAcc>0.912474</hAcc><vAcc>0.745673</vAcc></extensions></trkpt>
      <trkpt lon="-3.322069" lat="54.543487"><ele>258.093994</ele><time>2021-08-12T11:14:09Z</time><extensions><speed>0.156617</speed><course>66.099251</course><hAcc>0.904419</hAcc><vAcc>0.733435</vAcc></extensions></trkpt>
      <trkpt lon="-3.322067" lat="54.543488"><ele>258.125854</ele><time>2021-08-12T11:14:10Z</time><extensions><speed>0.114754</speed><course>81.237114</course><hAcc>0.902241</hAcc><vAcc>0.727528</vAcc></extensions></trkpt>
      <trkpt lon="-3.322065" lat="54.543488"><ele>258.152863</ele><time>2021-08-12T11:14:11Z</time><extensions><speed>0.077244</speed><course>80.566093</course><hAcc>0.902493</hAcc><vAcc>0.724874</vAcc></extensions></trkpt>
      <trkpt lon="-3.322064" lat="54.543488"><ele>258.174835</ele><time>2021-08-12T11:14:12Z</time><extensions><speed>0.045812</speed><course>80.566109</course><hAcc>0.903281</hAcc><vAcc>0.723485</vAcc></extensions></trkpt>
      <trkpt lon="-3.322064" lat="54.543488"><ele>258.191589</ele><time>2021-08-12T11:14:13Z</time><extensions><speed>0.024256</speed><course>80.566093</course><hAcc>0.903749</hAcc><vAcc>0.722211</vAcc></extensions></trkpt>
      <trkpt lon="-3.322064" lat="54.543488"><ele>258.202911</ele><time>2021-08-12T11:14:14Z</time><extensions><speed>0.021196</speed><course>80.566093</course><hAcc>0.903660</hAcc><vAcc>0.720477</vAcc></extensions></trkpt>
      <trkpt lon="-3.322064" lat="54.543489"><ele>258.208588</ele><time>2021-08-12T11:14:15Z</time><extensions><speed>0.030007</speed><course>80.566093</course><hAcc>0.903084</hAcc><vAcc>0.718061</vAcc></extensions></trkpt>
      <trkpt lon="-3.322065" lat="54.543489"><ele>258.208466</ele><time>2021-08-12T11:14:16Z</time><extensions><speed>0.037279</speed><course>77.344681</course><hAcc>0.902193</hAcc><vAcc>0.714941</vAcc></extensions></trkpt>
      <trkpt lon="-3.322065" lat="54.543489"><ele>258.202362</ele><time>2021-08-12T11:14:17Z</time><extensions><speed>0.039892</speed><course>77.923714</course><hAcc>0.901139</hAcc><vAcc>0.711204</vAcc></extensions></trkpt>
      <trkpt lon="-3.322066" lat="54.543489"><ele>258.190186</ele><time>2021-08-12T11:14:18Z</time><extensions><speed>0.037901</speed><course>87.073212</course><hAcc>0.899990</hAcc><vAcc>0.706991</vAcc></extensions></trkpt>
      <trkpt lon="-3.322066" lat="54.543489"><ele>258.171997</ele><time>2021-08-12T11:14:19Z</time><extensions><speed>0.033038</speed><course>79.233902</course><hAcc>0.898724</hAcc><vAcc>0.702482</vAcc></extensions></trkpt>
      <trkpt lon="-3.322066" lat="54.543490"><ele>258.147949</ele><time>2021-08-12T11:14:20Z</time><extensions><speed>0.029290</speed><course>96.572746</course><hAcc>0.897268</hAcc><vAcc>0.697900</vAcc></extensions></trkpt>
      <trkpt lon="-3.322066" lat="54.543490"><ele>258.118500</ele><time>2021-08-12T11:14:21Z</time><extensions><speed>0.032492</speed><course>86.920219</course><hAcc>0.895609</hAcc><vAcc>0.693581</vAcc></extensions></trkpt>
      <trkpt lon="-3.322066" lat="54.543490"><ele>258.084137</ele><time>2021-08-12T11:14:23Z</time><extensions><speed>0.044248</speed><course>76.786201</course><hAcc>0.893951</hAcc><vAcc>0.690085</vAcc></extensions></trkpt>
      <trkpt lon="-3.322065" lat="54.543491"><ele>258.045319</ele><time>2021-08-12T11:14:23Z</time><extensions><speed>0.061896</speed><course>77.162971</course><hAcc>0.893051</hAcc><vAcc>0.688439</vAcc></extensions></trkpt>
      <trkpt lon="-3.322064" lat="54.543491"><ele>258.001801</ele><time>2021-08-12T11:14:24Z</time><extensions><speed>0.083931</speed><course>69.604996</course><hAcc>0.894547</hAcc><vAcc>0.690308</vAcc></extensions></trkpt>
      <trkpt lon="-3.322063" lat="54.543491"><ele>257.953644</ele><time>2021-08-12T11:14:25Z</time><extensions><speed>0.108599</speed><course>76.115456</course><hAcc>0.901404</hAcc><vAcc>0.698272</vAcc></extensions></trkpt>
      <trkpt lon="-3.322061" lat="54.543491"><ele>257.901215</ele><time>2021-08-12T11:14:26Z</time><extensions><speed>0.134300</speed><course>83.646278</course><hAcc>0.918410</hAcc><vAcc>0.716045</vAcc></extensions></trkpt>
      <trkpt lon="-3.322058" lat="54.543491"><ele>257.845154</ele><time>2021-08-12T11:14:27Z</time><extensions><speed>0.159528</speed><course>76.408623</course><hAcc>0.952319</hAcc><vAcc>0.748392</vAcc></extensions></trkpt>
      <trkpt lon="-3.322048" lat="54.543493"><ele>257.858704</ele><time>2021-08-12T11:14:28Z</time><extensions><speed>0.742102</speed><course>74.967865</course><hAcc>0.914593</hAcc><vAcc>0.713886</vAcc></extensions></trkpt>
      <trkpt lon="-3.322037" lat="54.543493"><ele>257.799927</ele><time>2021-08-12T11:14:29Z</time><extensions><speed>0.802703</speed><course>75.133301</course><hAcc>0.898742</hAcc><vAcc>0.702310</vAcc></extensions></trkpt>
      <trkpt lon="-3.322024" lat="54.543493"><ele>257.746948</ele><time>2021-08-12T11:14:30Z</time><extensions><speed>0.869850</speed><course>66.099251</course><hAcc>0.893578</hAcc><vAcc>0.699585</vAcc></extensions></trkpt>
      <trkpt lon="-3.322010" lat="54.543494"><ele>257.700378</ele><time>2021-08-12T11:14:31Z</time><extensions><speed>0.939232</speed><course>81.237114</course><hAcc>0.893581</hAcc><vAcc>0.701513</vAcc></extensions></trkpt>
      <trkpt lon="-3.321995" lat="54.543494"><ele>257.660431</ele><time>2021-08-12T11:14:32Z</time><extensions><speed>1.006794</speed><course>80.566093</course><hAcc>0.895345</hAcc><vAcc>0.705327</vAcc></extensions></trkpt>
      <trkpt lon="-3.321979" lat="54.543494"><ele>257.627167</ele><time>2021-08-12T11:14:33Z</time><extensions><speed>1.069192</speed><course>80.566109</course><hAcc>0.897054</hAcc><vAcc>0.709405</vAcc></extensions></trkpt>
      <trkpt lon="-3.321962" lat="54.543495"><ele>257.600586</ele><time>2021-08-12T11:14:34Z</time><extensions><speed>1.123377</speed><course>80.566093</course><hAcc>0.897940</hAcc><vAcc>0.712936</vAcc></extensions></trkpt>
      <trkpt lon="-3.321944" lat="54.543495"><ele>257.580627</ele><time>2021-08-12T11:14:35Z</time><extensions><speed>1.166539</speed><course>80.566093</course><hAcc>0.897847</hAcc><vAcc>0.715620</vAcc></extensions></trkpt>
      <trkpt lon="-3.321926" lat="54.543495"><ele>257.567139</ele><time>2021-08-12T11:14:36Z</time><extensions><speed>1.197859</speed><course>80.566093</course><hAcc>0.896932</hAcc><vAcc>0.717443</vAcc></extensions></trkpt>
      <trkpt lon="-3.321907" lat="54.543495"><ele>257.559296</ele><time>2021-08-12T11:14:37Z</time><extensions><speed>1.218369</speed><course>77.344681</course><hAcc>0.895468</hAcc><vAcc>0.718534</vAcc></extensions></trkpt>
      <trkpt lon="-3.321888" lat="54.543496"><ele>257.555817</ele><time>2021-08-12T11:14:38Z</time><extensions><speed>1.228984</speed><course>77.923714</course><hAcc>0.893736</hAcc><vAcc>0.719079</vAcc></extensions></trkpt>
      <trkpt lon="-3.321869" lat="54.543496"><ele>257.555511</ele><time>2021-08-12T11:14:39Z</time><extensions><speed>1.230699</speed><course>87.073212</course><hAcc>0.891969</hAcc><vAcc>0.719261</vAcc></extensions></trkpt>
      <trkpt lon="-3.321850" lat="54.543496"><ele>257.557861</ele><time>2021-08-12T11:14:40Z</time><extensions><speed>1.224473</speed><course>79.233902</course><hAcc>0.890332</hAcc><vAcc>0.719234</vAcc></extensions></trkpt>
      <trkpt lon="-3.321831" lat="54.543496"><ele>257.562408</ele><time>2021-08-12T11:14:41Z</time><extensions><speed>1.211542</speed><course>96.572746</course><hAcc>0.888921</hAcc><vAcc>0.719117</vAcc></extensions></trkpt>
      <trkpt lon="-3.321813" lat="54.543496"><ele>257.568787</ele><time>2021-08-12T11:14:42Z</time><extensions><speed>1.193483</speed><course>86.920219</course><hAcc>0.887776</hAcc><vAcc>0.718985</vAcc></extensions></trkpt>
      <trkpt lon="-3.321795" lat="54.543496"><ele>257.576874</ele><time>2021-08-12T11:14:43Z</time><extensions><speed>1.171026</speed><course>76.786201</course><hAcc>0.886897</hAcc><vAcc>0.718885</vAcc></extensions></trkpt>
      <trkpt lon="-3.321777" lat="54.543495"><ele>257.586792</ele><time>2021-08-12T11:14:44Z</time><extensions><speed>1.144760</speed><course>77.162971</course><hAcc>0.886256</hAcc><vAcc>0.718833</vAcc></extensions></trkpt>
      <trkpt lon="-3.321759" lat="54.543495"><ele>257.598877</ele><time>2021-08-12T11:14:45Z</time><extensions><speed>1.115824</speed><course>69.604996</course><hAcc>0.885813</hAcc><vAcc>0.718827</vAcc></extensions></trkpt>
      <trkpt lon="-3.321742" lat="54.543494"><ele>257.613678</ele><time>2021-08-12T11:14:46Z</time><extensions><speed>1.085322</speed><course>76.115456</course><hAcc>0.885524</hAcc><vAcc>0.718853</vAcc></extensions></trkpt>
      <trkpt lon="-3.321726" lat="54.543494"><ele>257.631866</ele><time>2021-08-12T11:14:47Z</time><extensions><speed>1.054770</speed><course>83.646278</course><hAcc>0.885349</hAcc><vAcc>0.718891</vAcc></extensions></trkpt>
      <trkpt lon="-3.321710" lat="54.543493"><ele>257.653717</ele><time>2021-08-12T11:14:48Z</time><extensions><speed>1.025412</speed><course>76.408623</course><hAcc>0.885250</hAcc><vAcc>0.718922</vAcc></extensions></trkpt>
      <trkpt lon="-3.321694" lat="54.543493"><ele>257.678619</ele><time>2021-08-12T11:14:49Z</time><extensions><speed>0.997881</speed><course>79.439453</course><hAcc>0.885200</hAcc><vAcc>0.718934</vAcc></extensions></trkpt>
      <trkpt lon="-3.321679" lat="54.543492"><ele>257.705048</ele><time>2021-08-12T11:14:50Z</time><extensions><speed>0.972569</speed><course>75.300941</course><hAcc>0.885177</hAcc><vAcc>0.718921</vAcc></extensions></trkpt>
      <trkpt lon="-3.321664" lat="54.543491"><ele>257.731323</ele><time>2021-08-12T11:14:51Z</time><extensions><speed>0.949711</speed><course>76.126534</course><hAcc>0.885167</hAcc><vAcc>0.718883</vAcc></extensions></trkpt>
      <trkpt lon="-3.321650" lat="54.543490"><ele>257.756226</ele><time>2021-08-12T11:14:52Z</time><extensions><speed>0.929232</speed><course>75.233688</course><hAcc>0.885159</hAcc><vAcc>0.718824</vAcc></extensions></trkpt>
      <trkpt lon="-3.321635" lat="54.543490"><ele>257.778839</ele><time>2021-08-12T11:14:53Z</time><extensions><speed>0.910756</speed><course>81.891060</course><hAcc>0.885149</hAcc><vAcc>0.718751</vAcc></extensions></trkpt>
      <trkpt lon="-3.321622" lat="54.543489"><ele>257.798889</ele><time>2021-08-12T11:14:54Z</time><extensions><speed>0.893994</speed><course>78.263519</course><hAcc>0.885136</hAcc><vAcc>0.718669</vAcc></extensions></trkpt>
      <trkpt lon="-3.321608" lat="54.543488"><ele>257.816406</ele><time>2021-08-12T11:14:55Z</time><extensions><speed>0.877706</speed><course>74.907532</course><hAcc>0.885120</hAcc><vAcc>0.718583</vAcc></extensions></trkpt>
      <trkpt lon="-3.321595" lat="54.543487"><ele>257.831818</ele><time>2021-08-12T11:14:56Z</time><extensions><speed>0.860559</speed><course>84.941742</course><hAcc>0.885103</hAcc><vAcc>0.718497</vAcc></extensions></trkpt>
      <trkpt lon="-3.321582" lat="54.543486"><ele>257.845673</ele><time>2021-08-12T11:14:57Z</time><extensions><speed>0.842522</speed><course>73.584358</course><hAcc>0.885087</hAcc><vAcc>0.718420</vAcc></extensions></trkpt>
      <trkpt lon="-3.321569" lat="54.543485"><ele>257.858948</ele><time>2021-08-12T11:14:58Z</time><extensions><speed>0.823767</speed><course>96.346313</course><hAcc>0.885074</hAcc><vAcc>0.718357</vAcc></extensions></trkpt>
      <trkpt lon="-3.321556" lat="54.543485"><ele>257.872681</ele><time>2021-08-12T11:14:59Z</time><extensions><speed>0.804379</speed><course>87.208282</course><hAcc>0.885068</hAcc><vAcc>0.718317</vAcc></extensions></trkpt>
      <trkpt lon="-3.321544" lat="54.543484"><ele>257.887482</ele><time>2021-08-12T11:15:00Z</time><extensions><speed>0.785179</speed><course>71.034035</course><hAcc>0.885068</hAcc><vAcc>0.718307</vAcc></extensions></trkpt>
      <trkpt lon="-3.321532" lat="54.543483"><ele>257.903900</ele><time>2021-08-12T11:15:01Z</time><extensions><speed>0.768245</speed><course>74.315559</course><hAcc>0.885076</hAcc><vAcc>0.718335</vAcc></extensions></trkpt>
      <trkpt lon="-3.321521" lat="54.543482"><ele>257.922577</ele><time>2021-08-12T11:15:02Z</time><extensions><speed>0.756681</speed><course>82.074326</course><hAcc>0.885094</hAcc><vAcc>0.718405</vAcc></extensions></trkpt>
      <trkpt lon="-3.321509" lat="54.543481"><ele>257.944122</ele><time>2021-08-12T11:15:03Z</time><extensions><speed>0.752571</speed><course>78.798851</course><hAcc>0.885121</hAcc><vAcc>0.718517</vAcc></extensions></trkpt>
      <trkpt lon="-3.321498" lat="54.543479"><ele>257.969025</ele><time>2021-08-12T11:15:04Z</time><extensions><speed>0.755037</speed><course>71.049065</course><hAcc>0.885157</hAcc><vAcc>0.718667</vAcc></extensions></trkpt>
      <trkpt lon="-3.321486" lat="54.543478"><ele>257.997528</ele><time>2021-08-12T11:15:05Z</time><extensions><speed>0.761686</speed><course>66.417450</course><hAcc>0.885202</hAcc><vAcc>0.718852</vAcc></extensions></trkpt>
      <trkpt lon="-3.321474" lat="54.543477"><ele>258.029480</ele><time>2021-08-12T11:15:06Z</time><extensions><speed>0.770574</speed><course>67.881187</course><hAcc>0.885253</hAcc><vAcc>0.719068</vAcc></extensions></trkpt>
      <trkpt lon="-3.321463" lat="54.543476"><ele>258.064240</ele><time>2021-08-12T11:15:07Z</time><extensions><speed>0.780088</speed><course>73.946594</course><hAcc>0.885310</hAcc><vAcc>0.719307</vAcc></extensions></trkpt>
      <trkpt lon="-3.321451" lat="54.543475"><ele>258.100891</ele><time>2021-08-12T11:15:08Z</time><extensions><speed>0.788442</speed><course>66.868568</course><hAcc>0.885369</hAcc><vAcc>0.719560</vAcc></extensions></trkpt>
      <trkpt lon="-3.321439" lat="54.543473"><ele>258.138489</ele><time>2021-08-12T11:15:09Z</time><extensions><speed>0.794089</speed><course>57.370388</course><hAcc>0.885430</hAcc><vAcc>0.719817</vAcc></extensions></trkpt>
      <trkpt lon="-3.321426" lat="54.543472"><ele>258.175262</ele><time>2021-08-12T11:15:10Z</time><extensions><speed>0.795991</speed><course>72.859169</course><hAcc>0.885491</hAcc><vAcc>0.720068</vAcc></extensions></trkpt>
      <trkpt lon="-3.321414" lat="54.543471"><ele>258.209106</ele><time>2021-08-12T11:15:11Z</time><extensions><speed>0.794053</speed><course>73.476959</course><hAcc>0.885548</hAcc><vAcc>0.720304</vAcc></extensions></trkpt>
      <trkpt lon="-3.321402" lat="54.543470"><ele>258.237915</ele><time>2021-08-12T11:15:12Z</time><extensions><speed>0.789440</speed><course>70.985191</course><hAcc>0.885602</hAcc><vAcc>0.720517</vAcc></extensions></trkpt>
      <trkpt lon="-3.321390" lat="54.543469"><ele>258.259827</ele><time>2021-08-12T11:15:13Z</time><extensions><speed>0.783910</speed><course>67.094063</course><hAcc>0.885649</hAcc><vAcc>0.720701</vAcc></extensions></trkpt>
      <trkpt lon="-3.321378" lat="54.543468"><ele>258.273315</ele><time>2021-08-12T11:15:14Z</time><extensions><speed>0.778980</speed><course>63.802017</course><hAcc>0.885690</hAcc><vAcc>0.720853</vAcc></extensions></trkpt>
      <trkpt lon="-3.321366" lat="54.543468"><ele>258.277679</ele><time>2021-08-12T11:15:15Z</time><extensions><speed>0.775290</speed><course>59.738853</course><hAcc>0.885722</hAcc><vAcc>0.720972</vAcc></extensions></trkpt>
      <trkpt lon="-3.321354" lat="54.543467"><ele>258.273193</ele><time>2021-08-12T11:15:16Z</time><extensions><speed>0.773283</speed><course>64.752533</course><hAcc>0.885744</hAcc><vAcc>0.721058</vAcc></extensions></trkpt>
      <trkpt lon="-3.321342" lat="54.543467"><ele>258.260773</ele><time>2021-08-12T11:15:17Z</time><extensions><speed>0.774271</speed><course>62.678837</course><hAcc>0.885758</hAcc><vAcc>0.721110</vAcc></extensions></trkpt>
      <trkpt lon="-3.321330" lat="54.543467"><ele>258.241638</ele><time>2021-08-12T11:15:18Z</time><extensions><speed>0.779733</speed><course>67.622025</course><hAcc>0.885763</hAcc><vAcc>0.721129</vAcc></extensions></trkpt>
      <trkpt lon="-3.321318" lat="54.543468"><ele>258.216644</ele><time>2021-08-12T11:15:19Z</time><extensions><speed>0.789735</speed><course>76.998230</course><hAcc>0.885760</hAcc><vAcc>0.721115</vAcc></extensions></trkpt>
      <trkpt lon="-3.321306" lat="54.543468"><ele>258.186279</ele><time>2021-08-12T11:15:20Z</time><extensions><speed>0.803290</speed><course>71.279175</course><hAcc>0.885750</hAcc><vAcc>0.721071</vAcc></extensions></trkpt>
      <trkpt lon="-3.321293" lat="54.543469"><ele>258.151123</ele><time>2021-08-12T11:15:21Z</time><extensions><speed>0.820123</speed><course>66.215858</course><hAcc>0.885736</hAcc><vAcc>0.721000</vAcc></extensions></trkpt>
      <trkpt lon="-3.321281" lat="54.543469"><ele>258.112183</ele><time>2021-08-12T11:15:22Z</time><extensions><speed>0.839535</speed><course>65.869171</course><hAcc>0.885720</hAcc><vAcc>0.720907</vAcc></extensions></trkpt>
      <trkpt lon="-3.321268" lat="54.543470"><ele>258.070801</ele><time>2021-08-12T11:15:23Z</time><extensions><speed>0.860786</speed><course>67.480362</course><hAcc>0.885705</hAcc><vAcc>0.720801</vAcc></extensions></trkpt>
      <trkpt lon="-3.321254" lat="54.543470"><ele>258.028503</ele><time>2021-08-12T11:15:24Z</time><extensions><speed>0.885182</speed><course>62.467888</course><hAcc>0.885691</hAcc><vAcc>0.720694</vAcc></extensions></trkpt>
      <trkpt lon="-3.321240" lat="54.543471"><ele>257.987030</ele><time>2021-08-12T11:15:25Z</time><extensions><speed>0.913852</speed><course>57.403885</course><hAcc>0.885682</hAcc><vAcc>0.720602</vAcc></extensions></trkpt>
      <trkpt lon="-3.321226" lat="54.543471"><ele>257.948059</ele><time>2021-08-12T11:15:26Z</time><extensions><speed>0.946610</speed><course>56.104736</course><hAcc>0.885679</hAcc><vAcc>0.720541</vAcc></extensions></trkpt>
      <trkpt lon="-3.321211" lat="54.543471"><ele>257.913544</ele><time>2021-08-12T11:15:27Z</time><extensions><speed>0.982204</speed><course>57.135769</course><hAcc>0.885681</hAcc><vAcc>0.720526</vAcc></extensions></trkpt>
      <trkpt lon="-3.321196" lat="54.543470"><ele>257.885315</ele><time>2021-08-12T11:15:28Z</time><extensions><speed>1.018508</speed><course>59.466648</course><hAcc>0.885688</hAcc><vAcc>0.720561</vAcc></extensions></trkpt>
      <trkpt lon="-3.321180" lat="54.543469"><ele>257.864929</ele><time>2021-08-12T11:15:29Z</time><extensions><speed>1.053238</speed><course>56.466339</course><hAcc>0.885701</hAcc><vAcc>0.720642</vAcc></extensions></trkpt>
      <trkpt lon="-3.321163" lat="54.543468"><ele>257.853088</ele><time>2021-08-12T11:15:30Z</time><extensions><speed>1.083727</speed><course>61.082169</course><hAcc>0.885717</hAcc><vAcc>0.720758</vAcc></extensions></trkpt>
      <trkpt lon="-3.321147" lat="54.543466"><ele>257.849762</ele><time>2021-08-12T11:15:31Z</time><extensions><speed>1.107010</speed><course>63.000797</course><hAcc>0.885735</hAcc><vAcc>0.720891</vAcc></extensions></trkpt>
      <trkpt lon="-3.321130" lat="54.543464"><ele>257.854248</ele><time>2021-08-12T11:15:32Z</time><extensions><speed>1.120998</speed><course>58.373146</course><hAcc>0.885750</hAcc><vAcc>0.721022</vAcc></extensions></trkpt>
      <trkpt lon="-3.321113" lat="54.543462"><ele>257.866028</ele><time>2021-08-12T11:15:33Z</time><extensions><speed>1.124692</speed><course>59.591164</course><hAcc>0.885758</hAcc><vAcc>0.721131</vAcc></extensions></trkpt>
      <trkpt lon="-3.321096" lat="54.543459"><ele>257.885101</ele><time>2021-08-12T11:15:34Z</time><extensions><speed>1.118571</speed><course>56.078835</course><hAcc>0.885754</hAcc><vAcc>0.721196</vAcc></extensions></trkpt>
      <trkpt lon="-3.321080" lat="54.543456"><ele>257.911743</ele><time>2021-08-12T11:15:35Z</time><extensions><speed>1.103861</speed><course>61.452141</course><hAcc>0.885734</hAcc><vAcc>0.721199</vAcc></extensions></trkpt>
      <trkpt lon="-3.321064" lat="54.543453"><ele>257.945892</ele><time>2021-08-12T11:15:36Z</time><extensions><speed>1.081301</speed><course>62.349373</course><hAcc>0.885692</hAcc><vAcc>0.721120</vAcc></extensions></trkpt>
      <trkpt lon="-3.321049" lat="54.543449"><ele>257.987122</ele><time>2021-08-12T11:15:37Z</time><extensions><speed>1.051554</speed><course>67.502327</course><hAcc>0.885624</hAcc><vAcc>0.720940</vAcc></extensions></trkpt>
      <trkpt lon="-3.321034" lat="54.543445"><ele>258.034943</ele><time>2021-08-12T11:15:38Z</time><extensions><speed>1.015935</speed><course>65.148994</course><hAcc>0.885526</hAcc><vAcc>0.720644</vAcc></extensions></trkpt>
      <trkpt lon="-3.321021" lat="54.543441"><ele>258.089417</ele><time>2021-08-12T11:15:39Z</time><extensions><speed>0.976326</speed><course>61.604351</course><hAcc>0.885397</hAcc><vAcc>0.720217</vAcc></extensions></trkpt>
      <trkpt lon="-3.321008" lat="54.543437"><ele>258.150848</ele><time>2021-08-12T11:15:40Z</time><extensions><speed>0.932852</speed><course>67.356651</course><hAcc>0.885236</hAcc><vAcc>0.719651</vAcc></extensions></trkpt>
      <trkpt lon="-3.320996" lat="54.543432"><ele>258.219269</ele><time>2021-08-12T11:15:41Z</time><extensions><speed>0.883181</speed><course>56.187717</course><hAcc>0.885043</hAcc><vAcc>0.718942</vAcc></extensions></trkpt>
      <trkpt lon="-3.320985" lat="54.543428"><ele>258.294128</ele><time>2021-08-12T11:15:42Z</time><extensions><speed>0.824508</speed><course>56.273357</course><hAcc>0.884819</hAcc><vAcc>0.718093</vAcc></extensions></trkpt>
      <trkpt lon="-3.320975" lat="54.543424"><ele>258.374390</ele><time>2021-08-12T11:15:43Z</time><extensions><speed>0.755566</speed><course>59.042984</course><hAcc>0.884569</hAcc><vAcc>0.717116</vAcc></extensions></trkpt>
      <trkpt lon="-3.320967" lat="54.543420"><ele>258.458588</ele><time>2021-08-12T11:15:44Z</time><extensions><speed>0.677191</speed><course>46.754299</course><hAcc>0.884297</hAcc><vAcc>0.716029</vAcc></extensions></trkpt>
      <trkpt lon="-3.320959" lat="54.543416"><ele>258.545135</ele><time>2021-08-12T11:15:45Z</time><extensions><speed>0.591089</speed><course>46.754295</course><hAcc>0.884006</hAcc><vAcc>0.714859</vAcc></extensions></trkpt>
      <trkpt lon="-3.320953" lat="54.543413"><ele>258.632660</ele><time>2021-08-12T11:15:46Z</time><extensions><speed>0.499584</speed><course>46.754295</course><hAcc>0.883702</hAcc><vAcc>0.713643</vAcc></extensions></trkpt>
      <trkpt lon="-3.320948" lat="54.543410"><ele>258.719818</ele><time>2021-08-12T11:15:47Z</time><extensions><speed>0.406127</speed><course>46.754295</course><hAcc>0.883387</hAcc><vAcc>0.712416</vAcc></extensions></trkpt>
      <trkpt lon="-3.320945" lat="54.543407"><ele>258.805206</ele><time>2021-08-12T11:15:48Z</time><extensions><speed>0.315213</speed><course>46.754295</course><hAcc>0.883067</hAcc><vAcc>0.711204</vAcc></extensions></trkpt>
      <trkpt lon="-3.320942" lat="54.543405"><ele>258.887604</ele><time>2021-08-12T11:15:49Z</time><extensions><speed>0.230882</speed><course>46.754295</course><hAcc>0.882744</hAcc><vAcc>0.710017</vAcc></extensions></trkpt>
      <trkpt lon="-3.320941" lat="54.543404"><ele>258.966034</ele><time>2021-08-12T11:15:50Z</time><extensions><speed>0.156241</speed><course>46.754295</course><hAcc>0.882422</hAcc><vAcc>0.708856</vAcc></extensions></trkpt>
      <trkpt lon="-3.320940" lat="54.543403"><ele>259.039673</ele><time>2021-08-12T11:15:51Z</time><extensions><speed>0.094280</speed><course>46.754292</course><hAcc>0.882103</hAcc><vAcc>0.707718</vAcc></extensions></trkpt>
      <trkpt lon="-3.320941" lat="54.543402"><ele>259.107513</ele><time>2021-08-12T11:15:52Z</time><extensions><speed>0.049525</speed><course>46.754295</course><hAcc>0.881789</hAcc><vAcc>0.706601</vAcc></extensions></trkpt>
      <trkpt lon="-3.320941" lat="54.543402"><ele>259.168488</ele><time>2021-08-12T11:15:53Z</time><extensions><speed>0.042358</speed><course>86.257805</course><hAcc>0.881480</hAcc><vAcc>0.705509</vAcc></extensions></trkpt>
      <trkpt lon="-3.320942" lat="54.543402"><ele>259.221436</ele><time>2021-08-12T11:15:54Z</time><extensions><speed>0.074972</speed><course>92.864906</course><hAcc>0.881177</hAcc><vAcc>0.704437</vAcc></extensions></trkpt>
      <trkpt lon="-3.320942" lat="54.543403"><ele>259.265289</ele><time>2021-08-12T11:15:55Z</time><extensions><speed>0.120648</speed><course>94.458534</course><hAcc>0.880883</hAcc><vAcc>0.703379</vAcc></extensions></trkpt>
      <trkpt lon="-3.320942" lat="54.543404"><ele>259.299164</ele><time>2021-08-12T11:15:56Z</time><extensions><speed>0.175015</speed><course>89.165138</course><hAcc>0.880598</hAcc><vAcc>0.702330</vAcc></extensions></trkpt>
      <trkpt lon="-3.320942" lat="54.543406"><ele>259.322357</ele><time>2021-08-12T11:15:57Z</time><extensions><speed>0.238470</speed><course>98.187202</course><hAcc>0.880328</hAcc><vAcc>0.701301</vAcc></extensions></trkpt>
      <trkpt lon="-3.320941" lat="54.543409"><ele>259.334137</ele><time>2021-08-12T11:15:58Z</time><extensions><speed>0.311062</speed><course>262.094696</course><hAcc>0.880074</hAcc><vAcc>0.700311</vAcc></extensions></trkpt>
      <trkpt lon="-3.320938" lat="54.543411"><ele>259.333832</ele><time>2021-08-12T11:15:59Z</time><extensions><speed>0.391819</speed><course>273.339569</course><hAcc>0.879843</hAcc><vAcc>0.699391</vAcc></extensions></trkpt>
      <trkpt lon="-3.320935" lat="54.543415"><ele>259.320801</ele><time>2021-08-12T11:16:00Z</time><extensions><speed>0.478919</speed><course>270.133057</course><hAcc>0.879638</hAcc><vAcc>0.698570</vAcc></extensions></trkpt>
      <trkpt lon="-3.320931" lat="54.543419"><ele>259.294617</ele><time>2021-08-12T11:16:01Z</time><extensions><speed>0.569836</speed><course>264.401459</course><hAcc>0.879463</hAcc><vAcc>0.697878</vAcc></extensions></trkpt>
      <trkpt lon="-3.320925" lat="54.543423"><ele>259.255005</ele><time>2021-08-12T11:16:02Z</time><extensions><speed>0.661476</speed><course>271.206299</course><hAcc>0.879323</hAcc><vAcc>0.697335</vAcc></extensions></trkpt>
      <trkpt lon="-3.320919" lat="54.543428"><ele>259.202179</ele><time>2021-08-12T11:16:03Z</time><extensions><speed>0.750735</speed><course>270.479279</course><hAcc>0.879217</hAcc><vAcc>0.696951</vAcc></extensions></trkpt>
      <trkpt lon="-3.320911" lat="54.543434"><ele>259.136414</ele><time>2021-08-12T11:16:04Z</time><extensions><speed>0.835060</speed><course>270.479279</course><hAcc>0.879147</hAcc><vAcc>0.696724</vAcc></extensions></trkpt>
      <trkpt lon="-3.320902" lat="54.543440"><ele>259.058014</ele><time>2021-08-12T11:16:05Z</time><extensions><speed>0.912239</speed><course>270.479279</course><hAcc>0.879111</hAcc><vAcc>0.696642</vAcc></extensions></trkpt>
      <trkpt lon="-3.320892" lat="54.543446"><ele>258.967316</ele><time>2021-08-12T11:16:06Z</time><extensions><speed>0.980108</speed><course>92.836548</course><hAcc>0.879105</hAcc><vAcc>0.696684</vAcc></extensions></trkpt>
      <trkpt lon="-3.320882" lat="54.543453"><ele>258.864502</ele><time>2021-08-12T11:16:07Z</time><extensions><speed>1.037115</speed><course>91.847809</course><hAcc>0.879125</hAcc><vAcc>0.696824</vAcc></extensions></trkpt>
      <trkpt lon="-3.320871" lat="54.543460"><ele>258.750031</ele><time>2021-08-12T11:16:08Z</time><extensions><speed>1.082670</speed><course>96.972961</course><hAcc>0.879165</hAcc><vAcc>0.697035</vAcc></extensions></trkpt>
      <trkpt lon="-3.320859" lat="54.543467"><ele>258.624512</ele><time>2021-08-12T11:16:09Z</time><extensions><speed>1.116898</speed><course>101.432434</course><hAcc>0.879222</hAcc><vAcc>0.697289</vAcc></extensions></trkpt>
      <trkpt lon="-3.320847" lat="54.543475"><ele>258.488739</ele><time>2021-08-12T11:16:10Z</time><extensions><speed>1.140689</speed><course>89.921867</course><hAcc>0.879288</hAcc><vAcc>0.697568</vAcc></extensions></trkpt>
      <trkpt lon="-3.320835" lat="54.543482"><ele>258.343445</ele><time>2021-08-12T11:16:11Z</time><extensions><speed>1.155325</speed><course>79.468422</course><hAcc>0.879361</hAcc><vAcc>0.697853</vAcc></extensions></trkpt>
      <trkpt lon="-3.320824" lat="54.543490"><ele>258.189423</ele><time>2021-08-12T11:16:12Z</time><extensions><speed>1.162015</speed><course>79.668663</course><hAcc>0.879435</hAcc><vAcc>0.698134</vAcc></extensions></trkpt>
      <trkpt lon="-3.320812" lat="54.543498"><ele>258.027618</ele><time>2021-08-12T11:16:13Z</time><extensions><speed>1.161677</speed><course>70.198914</course><hAcc>0.879507</hAcc><vAcc>0.698401</vAcc></extensions></trkpt>
      <trkpt lon="-3.320800" lat="54.543506"><ele>257.859009</ele><time>2021-08-12T11:16:14Z</time><extensions><speed>1.154601</speed><course>85.811096</course><hAcc>0.879574</hAcc><vAcc>0.698649</vAcc></extensions></trkpt>
      <trkpt lon="-3.320789" lat="54.543514"><ele>257.684631</ele><time>2021-08-12T11:16:15Z</time><extensions><speed>1.140574</speed><course>87.515213</course><hAcc>0.879632</hAcc><vAcc>0.698875</vAcc></extensions></trkpt>
      <trkpt lon="-3.320779" lat="54.543522"><ele>257.505859</ele><time>2021-08-12T11:16:16Z</time><extensions><speed>1.119415</speed><course>86.802406</course><hAcc>0.879681</hAcc><vAcc>0.699074</vAcc></extensions></trkpt>
      <trkpt lon="-3.320768" lat="54.543530"><ele>257.324310</ele><time>2021-08-12T11:16:17Z</time><extensions><speed>1.090875</speed><course>85.424927</course><hAcc>0.879716</hAcc><vAcc>0.699238</vAcc></extensions></trkpt>
      <trkpt lon="-3.320759" lat="54.543538"><ele>257.141876</ele><time>2021-08-12T11:16:18Z</time><extensions><speed>1.054437</speed><course>88.911957</course><hAcc>0.879736</hAcc><vAcc>0.699357</vAcc></extensions></trkpt>
      <trkpt lon="-3.320750" lat="54.543546"><ele>256.960358</ele><time>2021-08-12T11:16:19Z</time><extensions><speed>1.010026</speed><course>93.027184</course><hAcc>0.879739</hAcc><vAcc>0.699413</vAcc></extensions></trkpt>
      <trkpt lon="-3.320742" lat="54.543553"><ele>256.781555</ele><time>2021-08-12T11:16:20Z</time><extensions><speed>0.958236</speed><course>90.763535</course><hAcc>0.879725</hAcc><vAcc>0.699390</vAcc></extensions></trkpt>
      <trkpt lon="-3.320735" lat="54.543560"><ele>256.607178</ele><time>2021-08-12T11:16:21Z</time><extensions><speed>0.900109</speed><course>83.392509</course><hAcc>0.879693</hAcc><vAcc>0.699277</vAcc></extensions></trkpt>
      <trkpt lon="-3.320728" lat="54.543567"><ele>256.438843</ele><time>2021-08-12T11:16:22Z</time><extensions><speed>0.837290</speed><course>57.334152</course><hAcc>0.879645</hAcc><vAcc>0.699075</vAcc></extensions></trkpt>
      <trkpt lon="-3.320723" lat="54.543573"><ele>256.277863</ele><time>2021-08-12T11:16:23Z</time><extensions><speed>0.771904</speed><course>29.254333</course><hAcc>0.879584</hAcc><vAcc>0.698797</vAcc></extensions></trkpt>
      <trkpt lon="-3.320718" lat="54.543579"><ele>256.124939</ele><time>2021-08-12T11:16:24Z</time><extensions><speed>0.705794</speed><course>29.254333</course><hAcc>0.879515</hAcc><vAcc>0.698467</vAcc></extensions></trkpt>
      <trkpt lon="-3.320713" lat="54.543585"><ele>255.979858</ele><time>2021-08-12T11:16:25Z</time><extensions><speed>0.640741</speed><course>29.254333</course><hAcc>0.879442</hAcc><vAcc>0.698118</vAcc></extensions></trkpt>
      <trkpt lon="-3.320710" lat="54.543590"><ele>255.841949</ele><time>2021-08-12T11:16:26Z</time><extensions><speed>0.579399</speed><course>29.254332</course><hAcc>0.879372</hAcc><vAcc>0.697784</vAcc></extensions></trkpt>
      <trkpt lon="-3.320707" lat="54.543595"><ele>255.710236</ele><time>2021-08-12T11:16:27Z</time><extensions><speed>0.524989</speed><course>29.254333</course><hAcc>0.879310</hAcc><vAcc>0.697496</vAcc></extensions></trkpt>
      <trkpt lon="-3.320705" lat="54.543599"><ele>255.583588</ele><time>2021-08-12T11:16:28Z</time><extensions><speed>0.481068</speed><course>29.254332</course><hAcc>0.879261</hAcc><vAcc>0.697276</vAcc></extensions></trkpt>
      <trkpt lon="-3.320704" lat="54.543603"><ele>255.460587</ele><time>2021-08-12T11:16:29Z</time><extensions><speed>0.450875</speed><course>29.254332</course><hAcc>0.879230</hAcc><vAcc>0.697139</vAcc></extensions></trkpt>
      <trkpt lon="-3.320704" lat="54.543607"><ele>255.339569</ele><time>2021-08-12T11:16:30Z</time><extensions><speed>0.436662</speed><course>29.254333</course><hAcc>0.879220</hAcc><vAcc>0.697093</vAcc></extensions></trkpt>
      <trkpt lon="-3.320704" lat="54.543611"><ele>255.218674</ele><time>2021-08-12T11:16:31Z</time><extensions><speed>0.439691</speed><course>29.254333</course><hAcc>0.879234</hAcc><vAcc>0.697142</vAcc></extensions></trkpt>
      <trkpt lon="-3.320705" lat="54.543615"><ele>255.095886</ele><time>2021-08-12T11:16:32Z</time><extensions><speed>0.459896</speed><course>29.254332</course><hAcc>0.879272</hAcc><vAcc>0.697287</vAcc></extensions></trkpt>
      <trkpt lon="-3.320706" lat="54.543619"><ele>254.969254</ele><time>2021-08-12T11:16:33Z</time><extensions><speed>0.496029</speed><course>29.254333</course><hAcc>0.879336</hAcc><vAcc>0.697528</vAcc></extensions></trkpt>
      <trkpt lon="-3.320708" lat="54.543624"><ele>254.837082</ele><time>2021-08-12T11:16:34Z</time><extensions><speed>0.545741</speed><course>29.254337</course><hAcc>0.879423</hAcc><vAcc>0.697864</vAcc></extensions></trkpt>
      <trkpt lon="-3.320711" lat="54.543629"><ele>254.698181</ele><time>2021-08-12T11:16:35Z</time><extensions><speed>0.605708</speed><course>29.254337</course><hAcc>0.879534</hAcc><vAcc>0.698289</vAcc></extensions></trkpt>
      <trkpt lon="-3.320715" lat="54.543634"><ele>254.552109</ele><time>2021-08-12T11:16:36Z</time><extensions><speed>0.671789</speed><course>29.254339</course><hAcc>0.879667</hAcc><vAcc>0.698794</vAcc></extensions></trkpt>
      <trkpt lon="-3.320719" lat="54.543640"><ele>254.399216</ele><time>2021-08-12T11:16:37Z</time><extensions><speed>0.739621</speed><course>29.254337</course><hAcc>0.879819</hAcc><vAcc>0.699367</vAcc></extensions></trkpt>
      <trkpt lon="-3.320724" lat="54.543646"><ele>254.240585</ele><time>2021-08-12T11:16:38Z</time><extensions><speed>0.805718</speed><course>29.254339</course><hAcc>0.879987</hAcc><vAcc>0.699994</vAcc></extensions></trkpt>
      <trkpt lon="-3.320730" lat="54.543653"><ele>254.077881</ele><time>2021-08-12T11:16:39Z</time><extensions><speed>0.867699</speed><course>353.139893</course><hAcc>0.880168</hAcc><vAcc>0.700667</vAcc></extensions></trkpt>
      <trkpt lon="-3.320736" lat="54.543660"><ele>253.912903</ele><time>2021-08-12T11:16:40Z</time><extensions><speed>0.923833</speed><course>-1.000000</course><hAcc>0.880360</hAcc><vAcc>0.701381</vAcc></extensions></trkpt>
      <trkpt lon="-3.320744" lat="54.543667"><ele>253.747025</ele><time>2021-08-12T11:16:41Z</time><extensions><speed>0.972914</speed><course>-1.000000</course><hAcc>0.880559</hAcc><vAcc>0.702130</vAcc></extensions></trkpt>
      <trkpt lon="-3.320752" lat="54.543675"><ele>253.580978</ele><time>2021-08-12T11:16:42Z</time><extensions><speed>1.014160</speed><course>-1.000000</course><hAcc>0.880762</hAcc><vAcc>0.702903</vAcc></extensions></trkpt>
      <trkpt lon="-3.320761" lat="54.543683"><ele>253.415146</ele><time>2021-08-12T11:16:43Z</time><extensions><speed>1.046857</speed><course>-1.000000</course><hAcc>0.880966</hAcc><vAcc>0.703686</vAcc></extensions></trkpt>
      <trkpt lon="-3.320770" lat="54.543690"><ele>253.249908</ele><time>2021-08-12T11:16:44Z</time><extensions><speed>1.070241</speed><course>-1.000000</course><hAcc>0.881167</hAcc><vAcc>0.704461</vAcc></extensions></trkpt>
      <trkpt lon="-3.320780" lat="54.543698"><ele>253.085632</ele><time>2021-08-12T11:16:45Z</time><extensions><speed>1.084050</speed><course>-1.000000</course><hAcc>0.881361</hAcc><vAcc>0.705209</vAcc></extensions></trkpt>
      <trkpt lon="-3.320790" lat="54.543706"><ele>252.922729</ele><time>2021-08-12T11:16:46Z</time><extensions><speed>1.089102</speed><course>-1.000000</course><hAcc>0.881547</hAcc><vAcc>0.705911</vAcc></extensions></trkpt>
      <trkpt lon="-3.320800" lat="54.543714"><ele>252.761475</ele><time>2021-08-12T11:16:47Z</time><extensions><speed>1.087208</speed><course>-1.000000</course><hAcc>0.881721</hAcc><vAcc>0.706551</vAcc></extensions></trkpt>
      <trkpt lon="-3.320809" lat="54.543722"><ele>252.601883</ele><time>2021-08-12T11:16:48Z</time><extensions><speed>1.080803</speed><course>-1.000000</course><hAcc>0.881882</hAcc><vAcc>0.707126</vAcc></extensions></trkpt>
      <trkpt lon="-3.320818" lat="54.543730"><ele>252.443512</ele><time>2021-08-12T11:16:49Z</time><extensions><speed>1.072679</speed><course>-1.000000</course><hAcc>0.882026</hAcc><vAcc>0.707637</vAcc></extensions></trkpt>
      <trkpt lon="-3.320827" lat="54.543738"><ele>252.285614</ele><time>2021-08-12T11:16:50Z</time><extensions><speed>1.065848</speed><course>-1.000000</course><hAcc>0.882153</hAcc><vAcc>0.708087</vAcc></extensions></trkpt>
      <trkpt lon="-3.320834" lat="54.543747"><ele>252.126938</ele><time>2021-08-12T11:16:51Z</time><extensions><speed>1.062654</speed><course>74.830536</course><hAcc>0.882261</hAcc><vAcc>0.708480</vAcc></extensions></trkpt>
      <trkpt lon="-3.320841" lat="54.543756"><ele>251.965454</ele><time>2021-08-12T11:16:52Z</time><extensions><speed>1.064223</speed><course>62.161198</course><hAcc>0.882349</hAcc><vAcc>0.708812</vAcc></extensions></trkpt>
      <trkpt lon="-3.320848" lat="54.543764"><ele>251.798920</ele><time>2021-08-12T11:16:53Z</time><extensions><speed>1.070131</speed><course>66.043793</course><hAcc>0.882417</hAcc><vAcc>0.709080</vAcc></extensions></trkpt>
      <trkpt lon="-3.320853" lat="54.543774"><ele>251.625473</ele><time>2021-08-12T11:16:54Z</time><extensions><speed>1.078826</speed><course>75.803009</course><hAcc>0.882464</hAcc><vAcc>0.709274</vAcc></extensions></trkpt>
      <trkpt lon="-3.320858" lat="54.543783"><ele>251.443649</ele><time>2021-08-12T11:16:55Z</time><extensions><speed>1.088781</speed><course>76.191063</course><hAcc>0.882490</hAcc><vAcc>0.709389</vAcc></extensions></trkpt>
      <trkpt lon="-3.320861" lat="54.543792"><ele>251.252640</ele><time>2021-08-12T11:16:56Z</time><extensions><speed>1.098327</speed><course>76.349960</course><hAcc>0.882495</hAcc><vAcc>0.709420</vAcc></extensions></trkpt>
      <trkpt lon="-3.320864" lat="54.543802"><ele>251.052292</ele><time>2021-08-12T11:16:57Z</time><extensions><speed>1.105670</speed><course>78.477806</course><hAcc>0.882481</hAcc><vAcc>0.709366</vAcc></extensions></trkpt>
      <trkpt lon="-3.320867" lat="54.543812"><ele>250.842743</ele><time>2021-08-12T11:16:58Z</time><extensions><speed>1.109125</speed><course>75.070290</course><hAcc>0.882448</hAcc><vAcc>0.709230</vAcc></extensions></trkpt>
      <trkpt lon="-3.320868" lat="54.543822"><ele>250.624634</ele><time>2021-08-12T11:16:59Z</time><extensions><speed>1.106915</speed><course>69.086029</course><hAcc>0.882399</hAcc><vAcc>0.709019</vAcc></extensions></trkpt>
      <trkpt lon="-3.320869" lat="54.543832"><ele>250.399429</ele><time>2021-08-12T11:17:00Z</time><extensions><speed>1.097295</speed><course>68.949226</course><hAcc>0.882336</hAcc><vAcc>0.708743</vAcc></extensions></trkpt>
      <trkpt lon="-3.320869" lat="54.543842"><ele>250.169830</ele><time>2021-08-12T11:17:01Z</time><extensions><speed>1.079070</speed><course>71.686111</course><hAcc>0.882262</hAcc><vAcc>0.708415</vAcc></extensions></trkpt>
      <trkpt lon="-3.320869" lat="54.543851"><ele>249.939209</ele><time>2021-08-12T11:17:02Z</time><extensions><speed>1.051518</speed><course>76.597496</course><hAcc>0.882182</hAcc><vAcc>0.708053</vAcc></extensions></trkpt>
      <trkpt lon="-3.320869" lat="54.543861"><ele>249.710892</ele><time>2021-08-12T11:17:03Z</time><extensions><speed>1.014313</speed><course>90.005066</course><hAcc>0.882097</hAcc><vAcc>0.707677</vAcc></extensions></trkpt>
      <trkpt lon="-3.320869" lat="54.543869"><ele>249.488022</ele><time>2021-08-12T11:17:04Z</time><extensions><speed>0.967612</speed><course>83.948074</course><hAcc>0.882011</hAcc><vAcc>0.707310</vAcc></extensions></trkpt>
      <trkpt lon="-3.320868" lat="54.543878"><ele>249.273590</ele><time>2021-08-12T11:17:05Z</time><extensions><speed>0.911970</speed><course>76.996796</course><hAcc>0.881924</hAcc><vAcc>0.706967</vAcc></extensions></trkpt>
      <trkpt lon="-3.320868" lat="54.543886"><ele>249.069977</ele><time>2021-08-12T11:17:06Z</time><extensions><speed>0.848575</speed><course>79.507355</course><hAcc>0.881838</hAcc><vAcc>0.706658</vAcc></extensions></trkpt>
      <trkpt lon="-3.320868" lat="54.543893"><ele>248.878830</ele><time>2021-08-12T11:17:07Z</time><extensions><speed>0.779365</speed><course>72.096832</course><hAcc>0.881751</hAcc><vAcc>0.706385</vAcc></extensions></trkpt>
      <trkpt lon="-3.320868" lat="54.543900"><ele>248.701080</ele><time>2021-08-12T11:17:08Z</time><extensions><speed>0.706885</speed><course>80.368279</course><hAcc>0.881661</hAcc><vAcc>0.706139</vAcc></extensions></trkpt>
      <trkpt lon="-3.320869" lat="54.543906"><ele>248.537048</ele><time>2021-08-12T11:17:09Z</time><extensions><speed>0.633957</speed><course>78.982643</course><hAcc>0.881564</hAcc><vAcc>0.705904</vAcc></extensions></trkpt>
      <trkpt lon="-3.320870" lat="54.543911"><ele>248.386795</ele><time>2021-08-12T11:17:10Z</time><extensions><speed>0.563388</speed><course>81.075706</course><hAcc>0.881458</hAcc><vAcc>0.705650</vAcc></extensions></trkpt>
      <trkpt lon="-3.320871" lat="54.543916"><ele>248.250214</ele><time>2021-08-12T11:17:11Z</time><extensions><speed>0.497857</speed><course>81.007790</course><hAcc>0.881339</hAcc><vAcc>0.705338</vAcc></extensions></trkpt>
      <trkpt lon="-3.320872" lat="54.543920"><ele>248.126801</ele><time>2021-08-12T11:17:12Z</time><extensions><speed>0.440182</speed><course>78.272133</course><hAcc>0.881206</hAcc><vAcc>0.704932</vAcc></extensions></trkpt>
      <trkpt lon="-3.320873" lat="54.543924"><ele>248.015656</ele><time>2021-08-12T11:17:13Z</time><extensions><speed>0.393014</speed><course>73.069588</course><hAcc>0.881060</hAcc><vAcc>0.704406</vAcc></extensions></trkpt>
      <trkpt lon="-3.320875" lat="54.543927"><ele>247.915604</ele><time>2021-08-12T11:17:14Z</time><extensions><speed>0.358238</speed><course>77.189682</course><hAcc>0.880901</hAcc><vAcc>0.703765</vAcc></extensions></trkpt>
      <trkpt lon="-3.320877" lat="54.543930"><ele>247.825348</ele><time>2021-08-12T11:17:15Z</time><extensions><speed>0.336906</speed><course>75.197517</course><hAcc>0.880735</hAcc><vAcc>0.703038</vAcc></extensions></trkpt>
      <trkpt lon="-3.320879" lat="54.543932"><ele>247.743637</ele><time>2021-08-12T11:17:16Z</time><extensions><speed>0.328502</speed><course>67.733307</course><hAcc>0.880565</hAcc><vAcc>0.702270</vAcc></extensions></trkpt>
      <trkpt lon="-3.320882" lat="54.543935"><ele>247.669342</ele><time>2021-08-12T11:17:17Z</time><extensions><speed>0.330785</speed><course>69.123688</course><hAcc>0.880399</hAcc><vAcc>0.701514</vAcc></extensions></trkpt>
      <trkpt lon="-3.320885" lat="54.543938"><ele>247.601349</ele><time>2021-08-12T11:17:18Z</time><extensions><speed>0.341047</speed><course>71.299400</course><hAcc>0.880243</hAcc><vAcc>0.700822</vAcc></extensions></trkpt>
      <trkpt lon="-3.320888" lat="54.543940"><ele>247.538681</ele><time>2021-08-12T11:17:19Z</time><extensions><speed>0.356934</speed><course>77.479210</course><hAcc>0.880104</hAcc><vAcc>0.700237</vAcc></extensions></trkpt>
      <trkpt lon="-3.320891" lat="54.543943"><ele>247.480606</ele><time>2021-08-12T11:17:20Z</time><extensions><speed>0.376523</speed><course>68.623329</course><hAcc>0.879985</hAcc><vAcc>0.699781</vAcc></extensions></trkpt>
      <trkpt lon="-3.320895" lat="54.543945"><ele>247.426651</ele><time>2021-08-12T11:17:21Z</time><extensions><speed>0.398578</speed><course>63.866425</course><hAcc>0.879888</hAcc><vAcc>0.699453</vAcc></extensions></trkpt>
      <trkpt lon="-3.320899" lat="54.543948"><ele>247.376587</ele><time>2021-08-12T11:17:22Z</time><extensions><speed>0.422248</speed><course>76.291603</course><hAcc>0.879811</hAcc><vAcc>0.699232</vAcc></extensions></trkpt>
      <trkpt lon="-3.320903" lat="54.543951"><ele>247.330246</ele><time>2021-08-12T11:17:23Z</time><extensions><speed>0.446021</speed><course>71.777351</course><hAcc>0.879753</hAcc><vAcc>0.699095</vAcc></extensions></trkpt>
      <trkpt lon="-3.320907" lat="54.543955"><ele>247.287476</ele><time>2021-08-12T11:17:24Z</time><extensions><speed>0.468774</speed><course>76.476341</course><hAcc>0.879708</hAcc><vAcc>0.699016</vAcc></extensions></trkpt>
      <trkpt lon="-3.320912" lat="54.543958"><ele>247.248459</ele><time>2021-08-12T11:17:25Z</time><extensions><speed>0.490107</speed><course>63.346680</course><hAcc>0.879671</hAcc><vAcc>0.698972</vAcc></extensions></trkpt>
      <trkpt lon="-3.320916" lat="54.543962"><ele>247.213623</ele><time>2021-08-12T11:17:26Z</time><extensions><speed>0.509219</speed><course>60.883244</course><hAcc>0.879636</hAcc><vAcc>0.698932</vAcc></extensions></trkpt>
      <trkpt lon="-3.320921" lat="54.543965"><ele>247.183395</ele><time>2021-08-12T11:17:27Z</time><extensions><speed>0.525088</speed><course>66.100471</course><hAcc>0.879595</hAcc><vAcc>0.698864</vAcc></extensions></trkpt>
      <trkpt lon="-3.320926" lat="54.543969"><ele>247.158432</ele><time>2021-08-12T11:17:28Z</time><extensions><speed>0.537439</speed><course>66.284729</course><hAcc>0.879544</hAcc><vAcc>0.698736</vAcc></extensions></trkpt>
      <trkpt lon="-3.320930" lat="54.543973"><ele>247.139709</ele><time>2021-08-12T11:17:29Z</time><extensions><speed>0.546303</speed><course>70.183884</course><hAcc>0.879478</hAcc><vAcc>0.698527</vAcc></extensions></trkpt>
      <trkpt lon="-3.320935" lat="54.543978"><ele>247.128143</ele><time>2021-08-12T11:17:30Z</time><extensions><speed>0.551784</speed><course>69.091454</course><hAcc>0.879395</hAcc><vAcc>0.698227</vAcc></extensions></trkpt>
      <trkpt lon="-3.320939" lat="54.543982"><ele>247.124069</ele><time>2021-08-12T11:17:31Z</time><extensions><speed>0.554803</speed><course>67.595528</course><hAcc>0.879294</hAcc><vAcc>0.697839</vAcc></extensions></trkpt>
      <trkpt lon="-3.320943" lat="54.543986"><ele>247.127274</ele><time>2021-08-12T11:17:32Z</time><extensions><speed>0.555300</speed><course>69.079941</course><hAcc>0.879176</hAcc><vAcc>0.697380</vAcc></extensions></trkpt>
      <trkpt lon="-3.320947" lat="54.543991"><ele>247.137177</ele><time>2021-08-12T11:17:33Z</time><extensions><speed>0.552042</speed><course>67.638985</course><hAcc>0.879045</hAcc><vAcc>0.696874</vAcc></extensions></trkpt>
      <trkpt lon="-3.320951" lat="54.543995"><ele>247.152985</ele><time>2021-08-12T11:17:34Z</time><extensions><speed>0.543751</speed><course>67.902077</course><hAcc>0.878905</hAcc><vAcc>0.696341</vAcc></extensions></trkpt>
      <trkpt lon="-3.320955" lat="54.543999"><ele>247.173752</ele><time>2021-08-12T11:17:35Z</time><extensions><speed>0.529884</speed><course>68.213737</course><hAcc>0.878764</hAcc><vAcc>0.695795</vAcc></extensions></trkpt>
      <trkpt lon="-3.320958" lat="54.544004"><ele>247.198105</ele><time>2021-08-12T11:17:36Z</time><extensions><speed>0.510561</speed><course>58.646133</course><hAcc>0.878629</hAcc><vAcc>0.695247</vAcc></extensions></trkpt>
      <trkpt lon="-3.320960" lat="54.544008"><ele>247.224319</ele><time>2021-08-12T11:17:37Z</time><extensions><speed>0.486434</speed><course>60.787758</course><hAcc>0.878509</hAcc><vAcc>0.694718</vAcc></extensions></trkpt>
      <trkpt lon="-3.320962" lat="54.544012"><ele>247.250427</ele><time>2021-08-12T11:17:38Z</time><extensions><speed>0.459329</speed><course>59.107254</course><hAcc>0.878416</hAcc><vAcc>0.694247</vAcc></extensions></trkpt>
      <trkpt lon="-3.320963" lat="54.544016"><ele>247.274704</ele><time>2021-08-12T11:17:39Z</time><extensions><speed>0.431771</speed><course>59.308796</course><hAcc>0.878360</hAcc><vAcc>0.693895</vAcc></extensions></trkpt>
      <trkpt lon="-3.320964" lat="54.544020"><ele>247.295715</ele><time>2021-08-12T11:17:40Z</time><extensions><speed>0.406158</speed><course>63.536522</course><hAcc>0.878352</hAcc><vAcc>0.693735</vAcc></extensions></trkpt>
      <trkpt lon="-3.320963" lat="54.544023"><ele>247.312164</ele><time>2021-08-12T11:17:41Z</time><extensions><speed>0.384457</speed><course>64.110619</course><hAcc>0.878402</hAcc><vAcc>0.693833</vAcc></extensions></trkpt>
      <trkpt lon="-3.320962" lat="54.544027"><ele>247.322952</ele><time>2021-08-12T11:17:42Z</time><extensions><speed>0.368206</speed><course>57.783936</course><hAcc>0.878514</hAcc><vAcc>0.694233</vAcc></extensions></trkpt>
      <trkpt lon="-3.320961" lat="54.544030"><ele>247.327316</ele><time>2021-08-12T11:17:43Z</time><extensions><speed>0.359156</speed><course>62.673740</course><hAcc>0.878685</hAcc><vAcc>0.694936</vAcc></extensions></trkpt>
      <trkpt lon="-3.320958" lat="54.544033"><ele>247.325027</ele><time>2021-08-12T11:17:44Z</time><extensions><speed>0.358399</speed><course>68.268181</course><hAcc>0.878909</hAcc><vAcc>0.695903</vAcc></extensions></trkpt>
      <trkpt lon="-3.320955" lat="54.544035"><ele>247.316223</ele><time>2021-08-12T11:17:45Z</time><extensions><speed>0.364901</speed><course>59.735432</course><hAcc>0.879171</hAcc><vAcc>0.697066</vAcc></extensions></trkpt>
      <trkpt lon="-3.320951" lat="54.544038"><ele>247.301239</ele><time>2021-08-12T11:17:46Z</time><extensions><speed>0.376522</speed><course>59.192490</course><hAcc>0.879457</hAcc><vAcc>0.698340</vAcc></extensions></trkpt>
      <trkpt lon="-3.320946" lat="54.544040"><ele>247.280411</ele><time>2021-08-12T11:17:47Z</time><extensions><speed>0.391060</speed><course>60.825825</course><hAcc>0.879747</hAcc><vAcc>0.699634</vAcc></extensions></trkpt>
      <trkpt lon="-3.320941" lat="54.544042"><ele>247.254120</ele><time>2021-08-12T11:17:48Z</time><extensions><speed>0.406120</speed><course>62.921200</course><hAcc>0.880022</hAcc><vAcc>0.700856</vAcc></extensions></trkpt>
      <trkpt lon="-3.320936" lat="54.544044"><ele>247.223038</ele><time>2021-08-12T11:17:49Z</time><extensions><speed>0.419840</speed><course>59.145714</course><hAcc>0.880265</hAcc><vAcc>0.701926</vAcc></extensions></trkpt>
      <trkpt lon="-3.320930" lat="54.544046"><ele>247.188446</ele><time>2021-08-12T11:17:50Z</time><extensions><speed>0.431776</speed><course>54.852036</course><hAcc>0.880460</hAcc><vAcc>0.702777</vAcc></extensions></trkpt>
      <trkpt lon="-3.320925" lat="54.544048"><ele>247.152176</ele><time>2021-08-12T11:17:51Z</time><extensions><speed>0.442288</speed><course>52.958679</course><hAcc>0.880596</hAcc><vAcc>0.703361</vAcc></extensions></trkpt>
      <trkpt lon="-3.320919" lat="54.544050"><ele>247.116348</ele><time>2021-08-12T11:17:52Z</time><extensions><speed>0.451779</speed><course>51.642593</course><hAcc>0.880663</hAcc><vAcc>0.703646</vAcc></extensions></trkpt>
      <trkpt lon="-3.320913" lat="54.544053"><ele>247.083115</ele><time>2021-08-12T11:17:53Z</time><extensions><speed>0.462055</speed><course>50.915668</course><hAcc>0.880660</hAcc><vAcc>0.703615</vAcc></extensions></trkpt>
      <trkpt lon="-3.320908" lat="54.544056"><ele>247.054443</ele><time>2021-08-12T11:17:54Z</time><extensions><speed>0.476290</speed><course>43.517220</course><hAcc>0.880587</hAcc><vAcc>0.703264</vAcc></extensions></trkpt>
      <trkpt lon="-3.320903" lat="54.544059"><ele>247.032425</ele><time>2021-08-12T11:17:55Z</time><extensions><speed>0.497405</speed><course>53.213661</course><hAcc>0.880448</hAcc><vAcc>0.702615</vAcc></extensions></trkpt>
      <trkpt lon="-3.320899" lat="54.544063"><ele>247.019135</ele><time>2021-08-12T11:17:56Z</time><extensions><speed>0.527111</speed><course>42.672325</course><hAcc>0.880250</hAcc><vAcc>0.701709</vAcc></extensions></trkpt>
      <trkpt lon="-3.320895" lat="54.544067"><ele>247.016266</ele><time>2021-08-12T11:17:57Z</time><extensions><speed>0.565092</speed><course>57.842590</course><hAcc>0.880001</hAcc><vAcc>0.700614</vAcc></extensions></trkpt>
      <trkpt lon="-3.320891" lat="54.544072"><ele>247.025085</ele><time>2021-08-12T11:17:58Z</time><extensions><speed>0.609452</speed><course>54.432369</course><hAcc>0.879707</hAcc><vAcc>0.699405</vAcc></extensions></trkpt>
      <trkpt lon="-3.320887" lat="54.544077"><ele>247.046600</ele><time>2021-08-12T11:17:59Z</time><extensions><speed>0.656940</speed><course>53.099045</course><hAcc>0.879372</hAcc><vAcc>0.698141</vAcc></extensions></trkpt>
      <trkpt lon="-3.320883" lat="54.544083"><ele>247.081345</ele><time>2021-08-12T11:18:00Z</time><extensions><speed>0.703242</speed><course>52.709480</course><hAcc>0.878998</hAcc><vAcc>0.696842</vAcc></extensions></trkpt>
      <trkpt lon="-3.320880" lat="54.544089"><ele>247.129349</ele><time>2021-08-12T11:18:01Z</time><extensions><speed>0.743911</speed><course>55.566643</course><hAcc>0.878582</hAcc><vAcc>0.695476</vAcc></extensions></trkpt>
      <trkpt lon="-3.320876" lat="54.544096"><ele>247.190109</ele><time>2021-08-12T11:18:02Z</time><extensions><speed>0.776127</speed><course>50.999676</course><hAcc>0.878118</hAcc><vAcc>0.693981</vAcc></extensions></trkpt>
      <trkpt lon="-3.320872" lat="54.544102"><ele>247.262650</ele><time>2021-08-12T11:18:03Z</time><extensions><speed>0.799074</speed><course>49.932701</course><hAcc>0.877602</hAcc><vAcc>0.692291</vAcc></extensions></trkpt>
      <trkpt lon="-3.320869" lat="54.544109"><ele>247.345535</ele><time>2021-08-12T11:18:04Z</time><extensions><speed>0.812158</speed><course>44.103298</course><hAcc>0.877028</hAcc><vAcc>0.690359</vAcc></extensions></trkpt>
      <trkpt lon="-3.320865" lat="54.544116"><ele>247.437531</ele><time>2021-08-12T11:18:05Z</time><extensions><speed>0.815053</speed><course>35.959499</course><hAcc>0.876397</hAcc><vAcc>0.688163</vAcc></extensions></trkpt>
      <trkpt lon="-3.320861" lat="54.544123"><ele>247.538040</ele><time>2021-08-12T11:18:06Z</time><extensions><speed>0.807902</speed><course>30.952709</course><hAcc>0.875713</hAcc><vAcc>0.685711</vAcc></extensions></trkpt>
      <trkpt lon="-3.320858" lat="54.544130"><ele>247.646790</ele><time>2021-08-12T11:18:07Z</time><extensions><speed>0.791150</speed><course>43.709347</course><hAcc>0.874985</hAcc><vAcc>0.683038</vAcc></extensions></trkpt>
      <trkpt lon="-3.320855" lat="54.544137"><ele>247.763260</ele><time>2021-08-12T11:18:08Z</time><extensions><speed>0.765684</speed><course>37.574459</course><hAcc>0.874229</hAcc><vAcc>0.680205</vAcc></extensions></trkpt>
      <trkpt lon="-3.320851" lat="54.544143"><ele>247.886490</ele><time>2021-08-12T11:18:09Z</time><extensions><speed>0.732887</speed><course>40.028488</course><hAcc>0.873467</hAcc><vAcc>0.677301</vAcc></extensions></trkpt>
      <trkpt lon="-3.320849" lat="54.544150"><ele>248.015045</ele><time>2021-08-12T11:18:10Z</time><extensions><speed>0.694672</speed><course>39.088745</course><hAcc>0.872728</hAcc><vAcc>0.674438</vAcc></extensions></trkpt>
      <trkpt lon="-3.320846" lat="54.544155"><ele>248.147110</ele><time>2021-08-12T11:18:11Z</time><extensions><speed>0.653066</speed><course>38.227211</course><hAcc>0.872043</hAcc><vAcc>0.671752</vAcc></extensions></trkpt>
      <trkpt lon="-3.320844" lat="54.544161"><ele>248.281067</ele><time>2021-08-12T11:18:12Z</time><extensions><speed>0.609847</speed><course>38.580025</course><hAcc>0.871450</hAcc><vAcc>0.669398</vAcc></extensions></trkpt>
      <trkpt lon="-3.320842" lat="54.544166"><ele>248.415558</ele><time>2021-08-12T11:18:13Z</time><extensions><speed>0.566832</speed><course>36.225418</course><hAcc>0.870981</hAcc><vAcc>0.667531</vAcc></extensions></trkpt>
      <trkpt lon="-3.320841" lat="54.544171"><ele>248.549149</ele><time>2021-08-12T11:18:14Z</time><extensions><speed>0.526163</speed><course>36.482189</course><hAcc>0.870665</hAcc><vAcc>0.666275</vAcc></extensions></trkpt>
      <trkpt lon="-3.320840" lat="54.544176"><ele>248.680176</ele><time>2021-08-12T11:18:15Z</time><extensions><speed>0.489621</speed><course>45.117634</course><hAcc>0.870515</hAcc><vAcc>0.665689</vAcc></extensions></trkpt>
      <trkpt lon="-3.320840" lat="54.544180"><ele>248.807220</ele><time>2021-08-12T11:18:16Z</time><extensions><speed>0.458379</speed><course>40.176819</course><hAcc>0.870533</hAcc><vAcc>0.665774</vAcc></extensions></trkpt>
      <trkpt lon="-3.320840" lat="54.544184"><ele>248.929672</ele><time>2021-08-12T11:18:17Z</time><extensions><speed>0.432967</speed><course>42.588684</course><hAcc>0.870712</hAcc><vAcc>0.666499</vAcc></extensions></trkpt>
      <trkpt lon="-3.320840" lat="54.544188"><ele>249.047653</ele><time>2021-08-12T11:18:18Z</time><extensions><speed>0.412936</speed><course>41.771687</course><hAcc>0.871039</hAcc><vAcc>0.667813</vAcc></extensions></trkpt>
      <trkpt lon="-3.320840" lat="54.544191"><ele>249.161713</ele><time>2021-08-12T11:18:19Z</time><extensions><speed>0.397672</speed><course>41.372017</course><hAcc>0.871497</hAcc><vAcc>0.669656</vAcc></extensions></trkpt>
      <trkpt lon="-3.320841" lat="54.544195"><ele>249.272781</ele><time>2021-08-12T11:18:20Z</time><extensions><speed>0.387468</speed><course>37.017429</course><hAcc>0.872068</hAcc><vAcc>0.671956</vAcc></extensions></trkpt>
      <trkpt lon="-3.320842" lat="54.544198"><ele>249.382172</ele><time>2021-08-12T11:18:21Z</time><extensions><speed>0.383023</speed><course>28.588495</course><hAcc>0.872721</hAcc><vAcc>0.674599</vAcc></extensions></trkpt>
      <trkpt lon="-3.320843" lat="54.544202"><ele>249.491486</ele><time>2021-08-12T11:18:22Z</time><extensions><speed>0.384211</speed><course>39.512306</course><hAcc>0.873417</hAcc><vAcc>0.677407</vAcc></extensions></trkpt>
      <trkpt lon="-3.320844" lat="54.544205"><ele>249.602356</ele><time>2021-08-12T11:18:23Z</time><extensions><speed>0.389946</speed><course>38.955353</course><hAcc>0.874109</hAcc><vAcc>0.680173</vAcc></extensions></trkpt>
      <trkpt lon="-3.320846" lat="54.544208"><ele>249.716263</ele><time>2021-08-12T11:18:24Z</time><extensions><speed>0.398590</speed><course>35.270641</course><hAcc>0.874753</hAcc><vAcc>0.682716</vAcc></extensions></trkpt>
      <trkpt lon="-3.320848" lat="54.544212"><ele>249.834381</ele><time>2021-08-12T11:18:25Z</time><extensions><speed>0.408534</speed><course>38.302330</course><hAcc>0.875310</hAcc><vAcc>0.684897</vAcc></extensions></trkpt>
      <trkpt lon="-3.320850" lat="54.544215"><ele>249.957428</ele><time>2021-08-12T11:18:26Z</time><extensions><speed>0.418824</speed><course>40.976086</course><hAcc>0.875747</hAcc><vAcc>0.686609</vAcc></extensions></trkpt>
      <trkpt lon="-3.320852" lat="54.544219"><ele>250.085678</ele><time>2021-08-12T11:18:27Z</time><extensions><speed>0.428901</speed><course>40.718147</course><hAcc>0.876039</hAcc><vAcc>0.687760</vAcc></extensions></trkpt>
      <trkpt lon="-3.320853" lat="54.544223"><ele>250.218979</ele><time>2021-08-12T11:18:28Z</time><extensions><speed>0.438456</speed><course>40.437557</course><hAcc>0.876168</hAcc><vAcc>0.688282</vAcc></extensions></trkpt>
      <trkpt lon="-3.320855" lat="54.544227"><ele>250.356812</ele><time>2021-08-12T11:18:29Z</time><extensions><speed>0.447474</speed><course>38.315979</course><hAcc>0.876125</hAcc><vAcc>0.688143</vAcc></extensions></trkpt>
      <trkpt lon="-3.320857" lat="54.544230"><ele>250.498688</ele><time>2021-08-12T11:18:30Z</time><extensions><speed>0.455833</speed><course>28.668550</course><hAcc>0.875908</hAcc><vAcc>0.687343</vAcc></extensions></trkpt>
      <trkpt lon="-3.320859" lat="54.544235"><ele>250.644165</ele><time>2021-08-12T11:18:31Z</time><extensions><speed>0.463468</speed><course>31.392698</course><hAcc>0.875527</hAcc><vAcc>0.685913</vAcc></extensions></trkpt>
      <trkpt lon="-3.320860" lat="54.544239"><ele>250.792847</ele><time>2021-08-12T11:18:32Z</time><extensions><speed>0.470211</speed><course>32.848076</course><hAcc>0.874999</hAcc><vAcc>0.683908</vAcc></extensions></trkpt>
      <trkpt lon="-3.320861" lat="54.544243"><ele>250.944122</ele><time>2021-08-12T11:18:33Z</time><extensions><speed>0.475616</speed><course>38.096359</course><hAcc>0.874353</hAcc><vAcc>0.681418</vAcc></extensions></trkpt>
      <trkpt lon="-3.320862" lat="54.544247"><ele>251.097229</ele><time>2021-08-12T11:18:34Z</time><extensions><speed>0.479490</speed><course>27.737675</course><hAcc>0.873625</hAcc><vAcc>0.678578</vAcc></extensions></trkpt>
      <trkpt lon="-3.320863" lat="54.544251"><ele>251.251373</ele><time>2021-08-12T11:18:35Z</time><extensions><speed>0.481407</speed><course>38.820049</course><hAcc>0.872858</hAcc><vAcc>0.675570</vAcc></extensions></trkpt>
      <trkpt lon="-3.320864" lat="54.544256"><ele>251.405655</ele><time>2021-08-12T11:18:36Z</time><extensions><speed>0.481205</speed><course>40.137299</course><hAcc>0.872103</hAcc><vAcc>0.672603</vAcc></extensions></trkpt>
      <trkpt lon="-3.320864" lat="54.544260"><ele>251.558884</ele><time>2021-08-12T11:18:37Z</time><extensions><speed>0.479200</speed><course>44.560421</course><hAcc>0.871410</hAcc><vAcc>0.669873</vAcc></extensions></trkpt>
      <trkpt lon="-3.320865" lat="54.544264"><ele>251.709671</ele><time>2021-08-12T11:18:38Z</time><extensions><speed>0.475504</speed><course>41.574787</course><hAcc>0.870827</hAcc><vAcc>0.667570</vAcc></extensions></trkpt>
      <trkpt lon="-3.320865" lat="54.544268"><ele>251.856598</ele><time>2021-08-12T11:18:39Z</time><extensions><speed>0.470156</speed><course>37.402897</course><hAcc>0.870405</hAcc><vAcc>0.665898</vAcc></extensions></trkpt>
      <trkpt lon="-3.320865" lat="54.544273"><ele>251.998062</ele><time>2021-08-12T11:18:40Z</time><extensions><speed>0.463442</speed><course>38.445354</course><hAcc>0.870191</hAcc><vAcc>0.665056</vAcc></extensions></trkpt>
      <trkpt lon="-3.320865" lat="54.544277"><ele>252.132111</ele><time>2021-08-12T11:18:41Z</time><extensions><speed>0.455613</speed><course>32.932274</course><hAcc>0.870213</hAcc><vAcc>0.665164</vAcc></extensions></trkpt>
      <trkpt lon="-3.320865" lat="54.544281"><ele>252.256775</ele><time>2021-08-12T11:18:42Z</time><extensions><speed>0.446572</speed><course>27.701353</course><hAcc>0.870469</hAcc><vAcc>0.666191</vAcc></extensions></trkpt>
      <trkpt lon="-3.320865" lat="54.544285"><ele>252.370377</ele><time>2021-08-12T11:18:43Z</time><extensions><speed>0.435672</speed><course>28.233585</course><hAcc>0.870921</hAcc><vAcc>0.667968</vAcc></extensions></trkpt>
      <trkpt lon="-3.320865" lat="54.544289"><ele>252.471863</ele><time>2021-08-12T11:18:44Z</time><extensions><speed>0.422299</speed><course>30.003765</course><hAcc>0.871524</hAcc><vAcc>0.670273</vAcc></extensions></trkpt>
      <trkpt lon="-3.320865" lat="54.544292"><ele>252.561020</ele><time>2021-08-12T11:18:45Z</time><extensions><speed>0.406234</speed><course>35.586266</course><hAcc>0.872229</hAcc><vAcc>0.672903</vAcc></extensions></trkpt>
      <trkpt lon="-3.320864" lat="54.544296"><ele>252.638519</ele><time>2021-08-12T11:18:46Z</time><extensions><speed>0.387515</speed><course>41.034397</course><hAcc>0.872998</hAcc><vAcc>0.675700</vAcc></extensions></trkpt>
      <trkpt lon="-3.320864" lat="54.544299"><ele>252.705704</ele><time>2021-08-12T11:18:47Z</time><extensions><speed>0.366113</speed><course>43.040592</course><hAcc>0.873799</hAcc><vAcc>0.678567</vAcc></extensions></trkpt>
      <trkpt lon="-3.320863" lat="54.544302"><ele>252.764114</ele><time>2021-08-12T11:18:48Z</time><extensions><speed>0.341685</speed><course>49.550934</course><hAcc>0.874610</hAcc><vAcc>0.681453</vAcc></extensions></trkpt>
      <trkpt lon="-3.320861" lat="54.544305"><ele>252.815353</ele><time>2021-08-12T11:18:49Z</time><extensions><speed>0.314432</speed><course>62.069283</course><hAcc>0.875414</hAcc><vAcc>0.684342</vAcc></extensions></trkpt>
      <trkpt lon="-3.320860" lat="54.544308"><ele>252.861160</ele><time>2021-08-12T11:18:50Z</time><extensions><speed>0.285316</speed><course>68.512573</course><hAcc>0.876200</hAcc><vAcc>0.687221</vAcc></extensions></trkpt>
      <trkpt lon="-3.320858" lat="54.544310"><ele>252.903503</ele><time>2021-08-12T11:18:51Z</time><extensions><speed>0.255638</speed><course>76.544746</course><hAcc>0.876955</hAcc><vAcc>0.690046</vAcc></extensions></trkpt>
      <trkpt lon="-3.320857" lat="54.544312"><ele>252.944229</ele><time>2021-08-12T11:18:52Z</time><extensions><speed>0.226738</speed><course>91.471558</course><hAcc>0.877668</hAcc><vAcc>0.692748</vAcc></extensions></trkpt>
      <trkpt lon="-3.320855" lat="54.544314"><ele>252.984512</ele><time>2021-08-12T11:18:53Z</time><extensions><speed>0.199382</speed><course>103.707001</course><hAcc>0.878325</hAcc><vAcc>0.695241</vAcc></extensions></trkpt>
      <trkpt lon="-3.320853" lat="54.544315"><ele>253.024887</ele><time>2021-08-12T11:18:54Z</time><extensions><speed>0.173529</speed><course>102.240677</course><hAcc>0.878916</hAcc><vAcc>0.697445</vAcc></extensions></trkpt>
      <trkpt lon="-3.320851" lat="54.544316"><ele>253.065384</ele><time>2021-08-12T11:18:55Z</time><extensions><speed>0.149094</speed><course>109.008522</course><hAcc>0.879432</hAcc><vAcc>0.699309</vAcc></extensions></trkpt>
      <trkpt lon="-3.320850" lat="54.544317"><ele>253.105774</ele><time>2021-08-12T11:18:56Z</time><extensions><speed>0.125937</speed><course>120.687057</course><hAcc>0.879870</hAcc><vAcc>0.700814</vAcc></extensions></trkpt>
      <trkpt lon="-3.320849" lat="54.544318"><ele>253.145493</ele><time>2021-08-12T11:18:57Z</time><extensions><speed>0.103791</speed><course>122.518364</course><hAcc>0.880228</hAcc><vAcc>0.701978</vAcc></extensions></trkpt>
      <trkpt lon="-3.320847" lat="54.544318"><ele>253.183701</ele><time>2021-08-12T11:18:58Z</time><extensions><speed>0.082559</speed><course>116.435341</course><hAcc>0.880507</hAcc><vAcc>0.702830</vAcc></extensions></trkpt>
      <trkpt lon="-3.320847" lat="54.544318"><ele>253.219559</ele><time>2021-08-12T11:18:59Z</time><extensions><speed>0.062321</speed><course>123.806564</course><hAcc>0.880713</hAcc><vAcc>0.703408</vAcc></extensions></trkpt>
      <trkpt lon="-3.320846" lat="54.544319"><ele>253.252319</ele><time>2021-08-12T11:19:00Z</time><extensions><speed>0.043363</speed><course>121.279266</course><hAcc>0.880854</hAcc><vAcc>0.703755</vAcc></extensions></trkpt>
      <trkpt lon="-3.320845" lat="54.544319"><ele>253.281158</ele><time>2021-08-12T11:19:01Z</time><extensions><speed>0.026172</speed><course>122.295830</course><hAcc>0.880938</hAcc><vAcc>0.703920</vAcc></extensions></trkpt>
      <trkpt lon="-3.320845" lat="54.544319"><ele>253.305252</ele><time>2021-08-12T11:19:02Z</time><extensions><speed>0.012278</speed><course>116.485687</course><hAcc>0.880977</hAcc><vAcc>0.703952</vAcc></extensions></trkpt>
      <trkpt lon="-3.320845" lat="54.544319"><ele>253.324066</ele><time>2021-08-12T11:19:03Z</time><extensions><speed>0.010256</speed><course>120.837761</course><hAcc>0.880981</hAcc><vAcc>0.703888</vAcc></extensions></trkpt>
      <trkpt lon="-3.320845" lat="54.544319"><ele>253.337524</ele><time>2021-08-12T11:19:04Z</time><extensions><speed>0.019217</speed><course>121.691162</course><hAcc>0.880961</hAcc><vAcc>0.703756</vAcc></extensions></trkpt>
      <trkpt lon="-3.320845" lat="54.544319"><ele>253.345657</ele><time>2021-08-12T11:19:05Z</time><extensions><speed>0.028149</speed><course>120.429344</course><hAcc>0.880930</hAcc><vAcc>0.703576</vAcc></extensions></trkpt>
      <trkpt lon="-3.320845" lat="54.544318"><ele>253.348495</ele><time>2021-08-12T11:19:06Z</time><extensions><speed>0.035464</speed><course>127.922836</course><hAcc>0.880899</hAcc><vAcc>0.703373</vAcc></extensions></trkpt>
      <trkpt lon="-3.320846" lat="54.544318"><ele>253.346298</ele><time>2021-08-12T11:19:07Z</time><extensions><speed>0.040953</speed><course>122.773224</course><hAcc>0.880881</hAcc><vAcc>0.703180</vAcc></extensions></trkpt>
      <trkpt lon="-3.320846" lat="54.544318"><ele>253.339600</ele><time>2021-08-12T11:19:08Z</time><extensions><speed>0.044693</speed><course>127.410233</course><hAcc>0.880889</hAcc><vAcc>0.703044</vAcc></extensions></trkpt>
      <trkpt lon="-3.320846" lat="54.544317"><ele>253.329300</ele><time>2021-08-12T11:19:09Z</time><extensions><speed>0.046932</speed><course>126.293243</course><hAcc>0.880933</hAcc><vAcc>0.703028</vAcc></extensions></trkpt>
      <trkpt lon="-3.320846" lat="54.544317"><ele>253.316269</ele><time>2021-08-12T11:19:10Z</time><extensions><speed>0.047869</speed><course>113.773628</course><hAcc>0.881025</hAcc><vAcc>0.703203</vAcc></extensions></trkpt>
      <trkpt lon="-3.320847" lat="54.544316"><ele>253.301254</ele><time>2021-08-12T11:19:11Z</time><extensions><speed>0.047703</speed><course>111.597641</course><hAcc>0.881175</hAcc><vAcc>0.703638</vAcc></extensions></trkpt>
      <trkpt lon="-3.320847" lat="54.544316"><ele>253.284866</ele><time>2021-08-12T11:19:12Z</time><extensions><speed>0.046765</speed><course>118.242065</course><hAcc>0.881388</hAcc><vAcc>0.704392</vAcc></extensions></trkpt>
      <trkpt lon="-3.320847" lat="54.544316"><ele>253.267731</ele><time>2021-08-12T11:19:13Z</time><extensions><speed>0.045379</speed><course>121.318916</course><hAcc>0.881670</hAcc><vAcc>0.705489</vAcc></extensions></trkpt>
      <trkpt lon="-3.320847" lat="54.544315"><ele>253.250381</ele><time>2021-08-12T11:19:14Z</time><extensions><speed>0.043758</speed><course>126.571838</course><hAcc>0.882021</hAcc><vAcc>0.706915</vAcc></extensions></trkpt>
      <trkpt lon="-3.320847" lat="54.544315"><ele>253.233368</ele><time>2021-08-12T11:19:15Z</time><extensions><speed>0.041976</speed><course>116.053932</course><hAcc>0.882441</hAcc><vAcc>0.708612</vAcc></extensions></trkpt>
      <trkpt lon="-3.320848" lat="54.544315"><ele>253.217117</ele><time>2021-08-12T11:19:16Z</time><extensions><speed>0.040001</speed><course>122.553452</course><hAcc>0.882930</hAcc><vAcc>0.710500</vAcc></extensions></trkpt>
      <trkpt lon="-3.320848" lat="54.544314"><ele>253.201996</ele><time>2021-08-12T11:19:17Z</time><extensions><speed>0.037739</speed><course>115.362396</course><hAcc>0.883490</hAcc><vAcc>0.712508</vAcc></extensions></trkpt>
      <trkpt lon="-3.320848" lat="54.544314"><ele>253.188370</ele><time>2021-08-12T11:19:18Z</time><extensions><speed>0.035034</speed><course>120.016403</course><hAcc>0.884128</hAcc><vAcc>0.714577</vAcc></extensions></trkpt>
      <trkpt lon="-3.320848" lat="54.544314"><ele>253.176544</ele><time>2021-08-12T11:19:19Z</time><extensions><speed>0.031680</speed><course>131.521149</course><hAcc>0.884860</hAcc><vAcc>0.716666</vAcc></extensions></trkpt>
      <trkpt lon="-3.320848" lat="54.544313"><ele>253.166809</ele><time>2021-08-12T11:19:20Z</time><extensions><speed>0.027426</speed><course>124.976143</course><hAcc>0.885706</hAcc><vAcc>0.718752</vAcc></extensions></trkpt>
      <trkpt lon="-3.320848" lat="54.544313"><ele>253.159454</ele><time>2021-08-12T11:19:21Z</time><extensions><speed>0.021978</speed><course>123.546791</course><hAcc>0.886695</hAcc><vAcc>0.720828</vAcc></extensions></trkpt>
      <trkpt lon="-3.320848" lat="54.544313"><ele>253.154770</ele><time>2021-08-12T11:19:22Z</time><extensions><speed>0.015014</speed><course>116.699699</course><hAcc>0.887859</hAcc><vAcc>0.722894</vAcc></extensions></trkpt>
      <trkpt lon="-3.320848" lat="54.544313"><ele>253.153015</ele><time>2021-08-12T11:19:23Z</time><extensions><speed>0.006197</speed><course>112.924561</course><hAcc>0.889229</hAcc><vAcc>0.724951</vAcc></extensions></trkpt>
      <trkpt lon="-3.320848" lat="54.544313"><ele>253.154480</ele><time>2021-08-12T11:19:24Z</time><extensions><speed>0.004995</speed><course>117.858780</course><hAcc>0.890829</hAcc><vAcc>0.726991</vAcc></extensions></trkpt>
      <trkpt lon="-3.320848" lat="54.544313"><ele>253.159454</ele><time>2021-08-12T11:19:25Z</time><extensions><speed>0.018662</speed><course>111.630035</course><hAcc>0.892660</hAcc><vAcc>0.728990</vAcc></extensions></trkpt>
      <trkpt lon="-3.320848" lat="54.544313"><ele>253.168213</ele><time>2021-08-12T11:19:26Z</time><extensions><speed>0.035352</speed><course>115.453979</course><hAcc>0.894695</hAcc><vAcc>0.730901</vAcc></extensions></trkpt>
      <trkpt lon="-3.320848" lat="54.544314"><ele>253.181046</ele><time>2021-08-12T11:19:27Z</time><extensions><speed>0.055377</speed><course>108.625862</course><hAcc>0.896861</hAcc><vAcc>0.732648</vAcc></extensions></trkpt>
      <trkpt lon="-3.320848" lat="54.544314"><ele>253.198196</ele><time>2021-08-12T11:19:28Z</time><extensions><speed>0.079023</speed><course>116.435417</course><hAcc>0.899036</hAcc><vAcc>0.734130</vAcc></extensions></trkpt>
      <trkpt lon="-3.320848" lat="54.544315"><ele>253.219925</ele><time>2021-08-12T11:19:29Z</time><extensions><speed>0.106503</speed><course>112.323517</course><hAcc>0.901051</hAcc><vAcc>0.735231</vAcc></extensions></trkpt>
      <trkpt lon="-3.320848" lat="54.544316"><ele>253.246460</ele><time>2021-08-12T11:19:30Z</time><extensions><speed>0.137917</speed><course>117.491661</course><hAcc>0.902710</hAcc><vAcc>0.735853</vAcc></extensions></trkpt>
      <trkpt lon="-3.320848" lat="54.544317"><ele>253.277985</ele><time>2021-08-12T11:19:31Z</time><extensions><speed>0.173214</speed><course>120.293846</course><hAcc>0.903840</hAcc><vAcc>0.735979</vAcc></extensions></trkpt>
      <trkpt lon="-3.320847" lat="54.544319"><ele>253.314651</ele><time>2021-08-12T11:19:32Z</time><extensions><speed>0.212146</speed><course>115.591873</course><hAcc>0.904394</hAcc><vAcc>0.735771</vAcc></extensions></trkpt>
      <trkpt lon="-3.320847" lat="54.544321"><ele>253.356583</ele><time>2021-08-12T11:19:33Z</time><extensions><speed>0.254215</speed><course>116.468712</course><hAcc>0.904615</hAcc><vAcc>0.735718</vAcc></extensions></trkpt>
      <trkpt lon="-3.320847" lat="54.544324"><ele>253.403778</ele><time>2021-08-12T11:19:34Z</time><extensions><speed>0.298620</speed><course>116.627220</course><hAcc>0.905293</hAcc><vAcc>0.736817</vAcc></extensions></trkpt>
      <trkpt lon="-3.320847" lat="54.544327"><ele>253.456223</ele><time>2021-08-12T11:19:35Z</time><extensions><speed>0.344192</speed><course>115.487846</course><hAcc>0.908123</hAcc><vAcc>0.740809</vAcc></extensions></trkpt>
      <trkpt lon="-3.320847" lat="54.544330"><ele>253.513840</ele><time>2021-08-12T11:19:36Z</time><extensions><speed>0.389336</speed><course>110.303284</course><hAcc>0.916153</hAcc><vAcc>0.750420</vAcc></extensions></trkpt>
      <trkpt lon="-3.320847" lat="54.544334"><ele>253.576447</ele><time>2021-08-12T11:19:37Z</time><extensions><speed>0.431968</speed><course>107.900200</course><hAcc>0.934192</hAcc><vAcc>0.769492</vAcc></extensions></trkpt>
      <trkpt lon="-3.320847" lat="54.544338"><ele>253.643799</ele><time>2021-08-12T11:19:38Z</time><extensions><speed>0.469451</speed><course>104.901772</course><hAcc>0.968959</hAcc><vAcc>0.802866</vAcc></extensions></trkpt>
      <trkpt lon="-3.320847" lat="54.544346"><ele>253.923584</ele><time>2021-08-12T11:19:39Z</time><extensions><speed>0.871119</speed><course>74.967865</course><hAcc>0.931364</hAcc><vAcc>0.767518</vAcc></extensions></trkpt>
      <trkpt lon="-3.320847" lat="54.544353"><ele>254.175781</ele><time>2021-08-12T11:19:40Z</time><extensions><speed>0.869946</speed><course>75.133301</course><hAcc>0.912024</hAcc><vAcc>0.745349</vAcc></extensions></trkpt>
      <trkpt lon="-3.320847" lat="54.544361"><ele>254.434341</ele><time>2021-08-12T11:19:41Z</time><extensions><speed>0.865537</speed><course>66.099251</course><hAcc>0.903908</hAcc><vAcc>0.733768</vAcc></extensions></trkpt>
      <trkpt lon="-3.320847" lat="54.544369"><ele>254.699112</ele><time>2021-08-12T11:19:42Z</time><extensions><speed>0.858435</speed><course>81.237114</course><hAcc>0.901530</hAcc><vAcc>0.728501</vAcc></extensions></trkpt>
      <trkpt lon="-3.320847" lat="54.544377"><ele>254.969498</ele><time>2021-08-12T11:19:43Z</time><extensions><speed>0.848534</speed><course>80.566093</course><hAcc>0.901415</hAcc><vAcc>0.726491</vAcc></extensions></trkpt>
      <trkpt lon="-3.320847" lat="54.544384"><ele>255.244705</ele><time>2021-08-12T11:19:44Z</time><extensions><speed>0.836131</speed><course>80.566109</course><hAcc>0.901643</hAcc><vAcc>0.725773</vAcc></extensions></trkpt>
      <trkpt lon="-3.320847" lat="54.544392"><ele>255.523697</ele><time>2021-08-12T11:19:45Z</time><extensions><speed>0.822264</speed><course>80.566093</course><hAcc>0.901336</hAcc><vAcc>0.725230</vAcc></extensions></trkpt>
      <trkpt lon="-3.320848" lat="54.544399"><ele>255.805298</ele><time>2021-08-12T11:19:46Z</time><extensions><speed>0.807831</speed><course>80.566093</course><hAcc>0.900251</hAcc><vAcc>0.724326</vAcc></extensions></trkpt>
      <trkpt lon="-3.320848" lat="54.544406"><ele>256.088226</ele><time>2021-08-12T11:19:47Z</time><extensions><speed>0.793441</speed><course>80.566093</course><hAcc>0.898475</hAcc><vAcc>0.722897</vAcc></extensions></trkpt>
      <trkpt lon="-3.320848" lat="54.544413"><ele>256.371033</ele><time>2021-08-12T11:19:48Z</time><extensions><speed>0.779424</speed><course>77.344681</course><hAcc>0.896239</hAcc><vAcc>0.720987</vAcc></extensions></trkpt>
      <trkpt lon="-3.320849" lat="54.544420"><ele>256.652252</ele><time>2021-08-12T11:19:49Z</time><extensions><speed>0.766185</speed><course>77.923714</course><hAcc>0.893798</hAcc><vAcc>0.718744</vAcc></extensions></trkpt>
      <trkpt lon="-3.320849" lat="54.544427"><ele>256.930664</ele><time>2021-08-12T11:19:50Z</time><extensions><speed>0.754187</speed><course>87.073212</course><hAcc>0.891374</hAcc><vAcc>0.716349</vAcc></extensions></trkpt>
      <trkpt lon="-3.320850" lat="54.544434"><ele>257.205109</ele><time>2021-08-12T11:19:51Z</time><extensions><speed>0.743916</speed><course>79.233902</course><hAcc>0.889131</hAcc><vAcc>0.713971</vAcc></extensions></trkpt>
      <trkpt lon="-3.320851" lat="54.544440"><ele>257.474609</ele><time>2021-08-12T11:19:52Z</time><extensions><speed>0.735737</speed><course>96.572746</course><hAcc>0.887167</hAcc><vAcc>0.711748</vAcc></extensions></trkpt>
      <trkpt lon="-3.320853" lat="54.544447"><ele>257.738190</ele><time>2021-08-12T11:19:53Z</time><extensions><speed>0.729744</speed><course>86.920219</course><hAcc>0.885531</hAcc><vAcc>0.709781</vAcc></extensions></trkpt>
      <trkpt lon="-3.320854" lat="54.544453"><ele>257.994659</ele><time>2021-08-12T11:19:54Z</time><extensions><speed>0.725813</speed><course>76.786201</course><hAcc>0.884225</hAcc><vAcc>0.708130</vAcc></extensions></trkpt>
      <trkpt lon="-3.320856" lat="54.544460"><ele>258.243073</ele><time>2021-08-12T11:19:55Z</time><extensions><speed>0.723363</speed><course>77.162971</course><hAcc>0.883226</hAcc><vAcc>0.706826</vAcc></extensions></trkpt>
      <trkpt lon="-3.320858" lat="54.544466"><ele>258.482666</ele><time>2021-08-12T11:19:56Z</time><extensions><speed>0.721946</speed><course>69.604996</course><hAcc>0.882495</hAcc><vAcc>0.705862</vAcc></extensions></trkpt>
      <trkpt lon="-3.320859" lat="54.544473"><ele>258.713043</ele><time>2021-08-12T11:19:57Z</time><extensions><speed>0.721488</speed><course>76.115456</course><hAcc>0.881982</hAcc><vAcc>0.705205</vAcc></extensions></trkpt>
      <trkpt lon="-3.320861" lat="54.544479"><ele>258.933960</ele><time>2021-08-12T11:19:58Z</time><extensions><speed>0.721968</speed><course>83.646278</course><hAcc>0.881642</hAcc><vAcc>0.704800</vAcc></extensions></trkpt>
      <trkpt lon="-3.320863" lat="54.544485"><ele>259.145752</ele><time>2021-08-12T11:19:59Z</time><extensions><speed>0.723361</speed><course>76.408623</course><hAcc>0.881429</hAcc><vAcc>0.704587</vAcc></extensions></trkpt>
      <trkpt lon="-3.320864" lat="54.544492"><ele>259.349335</ele><time>2021-08-12T11:20:00Z</time><extensions><speed>0.726057</speed><course>79.439453</course><hAcc>0.881307</hAcc><vAcc>0.704503</vAcc></extensions></trkpt>
      <trkpt lon="-3.320865" lat="54.544498"><ele>259.546143</ele><time>2021-08-12T11:20:01Z</time><extensions><speed>0.730483</speed><course>75.300941</course><hAcc>0.881244</hAcc><vAcc>0.704494</vAcc></extensions></trkpt>
      <trkpt lon="-3.320866" lat="54.544505"><ele>259.737610</ele><time>2021-08-12T11:20:02Z</time><extensions><speed>0.736478</speed><course>76.126534</course><hAcc>0.881216</hAcc><vAcc>0.704517</vAcc></extensions></trkpt>
      <trkpt lon="-3.320866" lat="54.544512"><ele>259.925354</ele><time>2021-08-12T11:20:03Z</time><extensions><speed>0.743898</speed><course>75.233688</course><hAcc>0.881207</hAcc><vAcc>0.704538</vAcc></extensions></trkpt>
      <trkpt lon="-3.320866" lat="54.544518"><ele>260.111237</ele><time>2021-08-12T11:20:04Z</time><extensions><speed>0.752628</speed><course>81.891060</course><hAcc>0.881206</hAcc><vAcc>0.704539</vAcc></extensions></trkpt>
      <trkpt lon="-3.320865" lat="54.544525"><ele>260.297150</ele><time>2021-08-12T11:20:05Z</time><extensions><speed>0.762282</speed><course>78.263519</course><hAcc>0.881204</hAcc><vAcc>0.704510</vAcc></extensions></trkpt>
      <trkpt lon="-3.320864" lat="54.544532"><ele>260.484985</ele><time>2021-08-12T11:20:06Z</time><extensions><speed>0.771766</speed><course>74.907532</course><hAcc>0.881200</hAcc><vAcc>0.704454</vAcc></extensions></trkpt>
      <trkpt lon="-3.320862" lat="54.544539"><ele>260.676514</ele><time>2021-08-12T11:20:07Z</time><extensions><speed>0.779363</speed><course>84.941742</course><hAcc>0.881190</hAcc><vAcc>0.704380</vAcc></extensions></trkpt>
      <trkpt lon="-3.320860" lat="54.544546"><ele>260.873108</ele><time>2021-08-12T11:20:08Z</time><extensions><speed>0.783771</speed><course>73.584358</course><hAcc>0.881177</hAcc><vAcc>0.704298</vAcc></extensions></trkpt>
      <trkpt lon="-3.320859" lat="54.544553"><ele>261.075714</ele><time>2021-08-12T11:20:09Z</time><extensions><speed>0.784244</speed><course>96.346313</course><hAcc>0.881159</hAcc><vAcc>0.704215</vAcc></extensions></trkpt>
      <trkpt lon="-3.320857" lat="54.544560"><ele>261.284698</ele><time>2021-08-12T11:20:10Z</time><extensions><speed>0.780486</speed><course>87.208282</course><hAcc>0.881138</hAcc><vAcc>0.704135</vAcc></extensions></trkpt>
      <trkpt lon="-3.320855" lat="54.544567"><ele>261.499939</ele><time>2021-08-12T11:20:11Z</time><extensions><speed>0.772644</speed><course>71.034035</course><hAcc>0.881113</hAcc><vAcc>0.704059</vAcc></extensions></trkpt>
      <trkpt lon="-3.320853" lat="54.544573"><ele>261.720978</ele><time>2021-08-12T11:20:12Z</time><extensions><speed>0.760763</speed><course>74.315559</course><hAcc>0.881083</hAcc><vAcc>0.703985</vAcc></extensions></trkpt>
      <trkpt lon="-3.320852" lat="54.544580"><ele>261.947357</ele><time>2021-08-12T11:20:13Z</time><extensions><speed>0.745377</speed><course>82.074326</course><hAcc>0.881043</hAcc><vAcc>0.703903</vAcc></extensions></trkpt>
      <trkpt lon="-3.320851" lat="54.544587"><ele>262.178528</ele><time>2021-08-12T11:20:14Z</time><extensions><speed>0.727569</speed><course>78.798851</course><hAcc>0.880990</hAcc><vAcc>0.703795</vAcc></extensions></trkpt>
      <trkpt lon="-3.320850" lat="54.544593"><ele>262.413849</ele><time>2021-08-12T11:20:15Z</time><extensions><speed>0.708179</speed><course>71.049065</course><hAcc>0.880917</hAcc><vAcc>0.703637</vAcc></extensions></trkpt>
      <trkpt lon="-3.320849" lat="54.544599"><ele>262.652191</ele><time>2021-08-12T11:20:16Z</time><extensions><speed>0.687931</speed><course>66.417450</course><hAcc>0.880820</hAcc><vAcc>0.703400</vAcc></extensions></trkpt>
      <trkpt lon="-3.320850" lat="54.544606"><ele>262.891815</ele><time>2021-08-12T11:20:17Z</time><extensions><speed>0.667602</speed><course>67.881187</course><hAcc>0.880691</hAcc><vAcc>0.703050</vAcc></extensions></trkpt>
      <trkpt lon="-3.320850" lat="54.544611"><ele>263.130707</ele><time>2021-08-12T11:20:18Z</time><extensions><speed>0.647915</speed><course>73.946594</course><hAcc>0.880526</hAcc><vAcc>0.702557</vAcc></extensions></trkpt>
      <trkpt lon="-3.320850" lat="54.544617"><ele>263.366943</ele><time>2021-08-12T11:20:19Z</time><extensions><speed>0.629066</speed><course>66.868568</course><hAcc>0.880322</hAcc><vAcc>0.701897</vAcc></extensions></trkpt>
      <trkpt lon="-3.320851" lat="54.544623"><ele>263.598877</ele><time>2021-08-12T11:20:20Z</time><extensions><speed>0.610921</speed><course>57.370388</course><hAcc>0.880077</hAcc><vAcc>0.701052</vAcc></extensions></trkpt>
      <trkpt lon="-3.320852" lat="54.544628"><ele>263.824982</ele><time>2021-08-12T11:20:21Z</time><extensions><speed>0.593545</speed><course>72.859169</course><hAcc>0.879793</hAcc><vAcc>0.700020</vAcc></extensions></trkpt>
      <trkpt lon="-3.320853" lat="54.544633"><ele>264.043671</ele><time>2021-08-12T11:20:22Z</time><extensions><speed>0.577309</speed><course>73.476959</course><hAcc>0.879478</hAcc><vAcc>0.698816</vAcc></extensions></trkpt>
      <trkpt lon="-3.320854" lat="54.544638"><ele>264.253479</ele><time>2021-08-12T11:20:23Z</time><extensions><speed>0.562788</speed><course>70.985191</course><hAcc>0.879139</hAcc><vAcc>0.697474</vAcc></extensions></trkpt>
      <trkpt lon="-3.320855" lat="54.544643"><ele>264.453705</ele><time>2021-08-12T11:20:24Z</time><extensions><speed>0.550004</speed><course>67.094063</course><hAcc>0.878791</hAcc><vAcc>0.696050</vAcc></extensions></trkpt>
      <trkpt lon="-3.320856" lat="54.544648"><ele>264.644287</ele><time>2021-08-12T11:20:25Z</time><extensions><speed>0.538990</speed><course>63.802017</course><hAcc>0.878448</hAcc><vAcc>0.694614</vAcc></extensions></trkpt>
      <trkpt lon="-3.320857" lat="54.544653"><ele>264.825928</ele><time>2021-08-12T11:20:26Z</time><extensions><speed>0.530019</speed><course>59.738853</course><hAcc>0.878128</hAcc><vAcc>0.693247</vAcc></extensions></trkpt>
      <trkpt lon="-3.320858" lat="54.544658"><ele>264.999573</ele><time>2021-08-12T11:20:27Z</time><extensions><speed>0.523047</speed><course>64.752533</course><hAcc>0.877850</hAcc><vAcc>0.692037</vAcc></extensions></trkpt>
      <trkpt lon="-3.320859" lat="54.544662"><ele>265.166077</ele><time>2021-08-12T11:20:28Z</time><extensions><speed>0.517853</speed><course>62.678837</course><hAcc>0.877628</hAcc><vAcc>0.691069</vAcc></extensions></trkpt>
      <trkpt lon="-3.320860" lat="54.544667"><ele>265.326172</ele><time>2021-08-12T11:20:29Z</time><extensions><speed>0.513868</speed><course>67.622025</course><hAcc>0.877477</hAcc><vAcc>0.690416</vAcc></extensions></trkpt>
      <trkpt lon="-3.320860" lat="54.544672"><ele>265.480316</ele><time>2021-08-12T11:20:30Z</time><extensions><speed>0.510324</speed><course>76.998230</course><hAcc>0.877406</hAcc><vAcc>0.690133</vAcc></extensions></trkpt>
      <trkpt lon="-3.320861" lat="54.544676"><ele>265.628815</ele><time>2021-08-12T11:20:31Z</time><extensions><speed>0.506538</speed><course>71.279175</course><hAcc>0.877418</hAcc><vAcc>0.690240</vAcc></extensions></trkpt>
      <trkpt lon="-3.320862" lat="54.544681"><ele>265.771759</ele><time>2021-08-12T11:20:32Z</time><extensions><speed>0.502085</speed><course>66.215858</course><hAcc>0.877506</hAcc><vAcc>0.690720</vAcc></extensions></trkpt>
      <trkpt lon="-3.320863" lat="54.544685"><ele>265.909088</ele><time>2021-08-12T11:20:33Z</time><extensions><speed>0.496980</speed><course>65.869171</course><hAcc>0.877661</hAcc><vAcc>0.691508</vAcc></extensions></trkpt>
      <trkpt lon="-3.320863" lat="54.544689"><ele>266.040833</ele><time>2021-08-12T11:20:34Z</time><extensions><speed>0.491516</speed><course>67.480362</course><hAcc>0.877865</hAcc><vAcc>0.692507</vAcc></extensions></trkpt>
      <trkpt lon="-3.320864" lat="54.544694"><ele>266.167084</ele><time>2021-08-12T11:20:35Z</time><extensions><speed>0.486119</speed><course>62.467888</course><hAcc>0.878098</hAcc><vAcc>0.693596</vAcc></extensions></trkpt>
      <trkpt lon="-3.320864" lat="54.544698"><ele>266.288391</ele><time>2021-08-12T11:20:36Z</time><extensions><speed>0.481888</speed><course>57.403885</course><hAcc>0.878340</hAcc><vAcc>0.694667</vAcc></extensions></trkpt>
      <trkpt lon="-3.320865" lat="54.544702"><ele>266.405731</ele><time>2021-08-12T11:20:37Z</time><extensions><speed>0.480208</speed><course>56.104736</course><hAcc>0.878575</hAcc><vAcc>0.695635</vAcc></extensions></trkpt>
      <trkpt lon="-3.320865" lat="54.544707"><ele>266.520142</ele><time>2021-08-12T11:20:38Z</time><extensions><speed>0.482025</speed><course>57.135769</course><hAcc>0.878789</hAcc><vAcc>0.696447</vAcc></extensions></trkpt>
      <trkpt lon="-3.320865" lat="54.544711"><ele>266.632751</ele><time>2021-08-12T11:20:39Z</time><extensions><speed>0.487715</speed><course>59.466648</course><hAcc>0.878976</hAcc><vAcc>0.697077</vAcc></extensions></trkpt>
      <trkpt lon="-3.320865" lat="54.544716"><ele>266.744812</ele><time>2021-08-12T11:20:40Z</time><extensions><speed>0.496967</speed><course>56.466339</course><hAcc>0.879134</hAcc><vAcc>0.697528</vAcc></extensions></trkpt>
      <trkpt lon="-3.320865" lat="54.544720"><ele>266.857544</ele><time>2021-08-12T11:20:41Z</time><extensions><speed>0.509132</speed><course>61.082169</course><hAcc>0.879264</hAcc><vAcc>0.697830</vAcc></extensions></trkpt>
      <trkpt lon="-3.320866" lat="54.544725"><ele>266.972046</ele><time>2021-08-12T11:20:42Z</time><extensions><speed>0.523889</speed><course>63.000797</course><hAcc>0.879374</hAcc><vAcc>0.698032</vAcc></extensions></trkpt>
      <trkpt lon="-3.320867" lat="54.544730"><ele>267.089172</ele><time>2021-08-12T11:20:43Z</time><extensions><speed>0.541125</speed><course>58.373146</course><hAcc>0.879472</hAcc><vAcc>0.698196</vAcc></extensions></trkpt>
      <trkpt lon="-3.320867" lat="54.544734"><ele>267.209686</ele><time>2021-08-12T11:20:44Z</time><extensions><speed>0.560665</speed><course>59.591164</course><hAcc>0.879569</hAcc><vAcc>0.698388</vAcc></extensions></trkpt>
      <trkpt lon="-3.320869" lat="54.544740"><ele>267.333954</ele><time>2021-08-12T11:20:45Z</time><extensions><speed>0.582386</speed><course>56.078835</course><hAcc>0.879673</hAcc><vAcc>0.698663</vAcc></extensions></trkpt>
      <trkpt lon="-3.320870" lat="54.544745"><ele>267.461975</ele><time>2021-08-12T11:20:46Z</time><extensions><speed>0.606313</speed><course>61.452141</course><hAcc>0.879791</hAcc><vAcc>0.699058</vAcc></extensions></trkpt>
      <trkpt lon="-3.320872" lat="54.544750"><ele>267.593567</ele><time>2021-08-12T11:20:47Z</time><extensions><speed>0.632652</speed><course>62.349373</course><hAcc>0.879927</hAcc><vAcc>0.699588</vAcc></extensions></trkpt>
      <trkpt lon="-3.320873" lat="54.544756"><ele>267.728394</ele><time>2021-08-12T11:20:48Z</time><extensions><speed>0.661523</speed><course>67.502327</course><hAcc>0.880081</hAcc><vAcc>0.700243</vAcc></extensions></trkpt>
      <trkpt lon="-3.320875" lat="54.544762"><ele>267.866028</ele><time>2021-08-12T11:20:49Z</time><extensions><speed>0.692679</speed><course>65.148994</course><hAcc>0.880251</hAcc><vAcc>0.700991</vAcc></extensions></trkpt>
      <trkpt lon="-3.320877" lat="54.544768"><ele>268.005890</ele><time>2021-08-12T11:20:50Z</time><extensions><speed>0.725443</speed><course>61.604351</course><hAcc>0.880433</hAcc><vAcc>0.701784</vAcc></extensions></trkpt>
      <trkpt lon="-3.320879" lat="54.544775"><ele>268.147552</ele><time>2021-08-12T11:20:51Z</time><extensions><speed>0.758887</speed><course>67.356651</course><hAcc>0.880619</hAcc><vAcc>0.702574</vAcc></extensions></trkpt>
      <trkpt lon="-3.320881" lat="54.544782"><ele>268.290771</ele><time>2021-08-12T11:20:52Z</time><extensions><speed>0.792230</speed><course>56.187717</course><hAcc>0.880804</hAcc><vAcc>0.703321</vAcc></extensions></trkpt>
      <trkpt lon="-3.320883" lat="54.544789"><ele>268.435638</ele><time>2021-08-12T11:20:53Z</time><extensions><speed>0.824871</speed><course>56.273357</course><hAcc>0.880983</hAcc><vAcc>0.703997</vAcc></extensions></trkpt>
      <trkpt lon="-3.320884" lat="54.544796"><ele>268.582458</ele><time>2021-08-12T11:20:54Z</time><extensions><speed>0.856281</speed><course>59.042984</course><hAcc>0.881150</hAcc><vAcc>0.704591</vAcc></extensions></trkpt>
      <trkpt lon="-3.320886" lat="54.544804"><ele>268.731537</ele><time>2021-08-12T11:20:55Z</time><extensions><speed>0.886076</speed><course>46.754299</course><hAcc>0.881303</hAcc><vAcc>0.705105</vAcc></extensions></trkpt>
      <trkpt lon="-3.320887" lat="54.544812"><ele>268.883667</ele><time>2021-08-12T11:20:56Z</time><extensions><speed>0.914095</speed><course>46.754295</course><hAcc>0.881441</hAcc><vAcc>0.705546</vAcc></extensions></trkpt>
      <trkpt lon="-3.320889" lat="54.544821"><ele>269.040039</ele><time>2021-08-12T11:20:57Z</time><extensions><speed>0.939717</speed><course>46.754295</course><hAcc>0.881563</hAcc><vAcc>0.705929</vAcc></extensions></trkpt>
      <trkpt lon="-3.320890" lat="54.544829"><ele>269.202393</ele><time>2021-08-12T11:20:58Z</time><extensions><speed>0.961887</speed><course>46.754295</course><hAcc>0.881670</hAcc><vAcc>0.706268</vAcc></extensions></trkpt>
      <trkpt lon="-3.320892" lat="54.544838"><ele>269.372437</ele><time>2021-08-12T11:20:59Z</time><extensions><speed>0.979719</speed><course>46.754295</course><hAcc>0.881764</hAcc><vAcc>0.706577</vAcc></extensions></trkpt>
      <trkpt lon="-3.320893" lat="54.544847"><ele>269.551697</ele><time>2021-08-12T11:21:00Z</time><extensions><speed>0.993047</speed><course>46.754295</course><hAcc>0.881846</hAcc><vAcc>0.706862</vAcc></extensions></trkpt>
      <trkpt lon="-3.320895" lat="54.544855"><ele>269.741058</ele><time>2021-08-12T11:21:01Z</time><extensions><speed>1.002146</speed><course>46.754295</course><hAcc>0.881917</hAcc><vAcc>0.707124</vAcc></extensions></trkpt>
      <trkpt lon="-3.320896" lat="54.544864"><ele>269.941132</ele><time>2021-08-12T11:21:02Z</time><extensions><speed>1.007121</speed><course>46.754292</course><hAcc>0.881979</hAcc><vAcc>0.707361</vAcc></extensions></trkpt>
      <trkpt lon="-3.320898" lat="54.544873"><ele>270.152222</ele><time>2021-08-12T11:21:03Z</time><extensions><speed>1.008024</speed><course>46.754295</course><hAcc>0.882033</hAcc><vAcc>0.707568</vAcc></extensions></trkpt>
      <trkpt lon="-3.320899" lat="54.544882"><ele>270.374390</ele><time>2021-08-12T11:21:04Z</time><extensions><speed>1.004724</speed><course>86.257805</course><hAcc>0.882080</hAcc><vAcc>0.707742</vAcc></extensions></trkpt>
      <trkpt lon="-3.320901" lat="54.544891"><ele>270.607117</ele><time>2021-08-12T11:21:05Z</time><extensions><speed>0.997224</speed><course>92.864906</course><hAcc>0.882119</hAcc><vAcc>0.707884</vAcc></extensions></trkpt>
      <trkpt lon="-3.320902" lat="54.544900"><ele>270.849335</ele><time>2021-08-12T11:21:06Z</time><extensions><speed>0.985956</speed><course>94.458534</course><hAcc>0.882151</hAcc><vAcc>0.707994</vAcc></extensions></trkpt>
      <trkpt lon="-3.320904" lat="54.544909"><ele>271.099823</ele><time>2021-08-12T11:21:07Z</time><extensions><speed>0.971741</speed><course>89.165138</course><hAcc>0.882177</hAcc><vAcc>0.708078</vAcc></extensions></trkpt>
      <trkpt lon="-3.320905" lat="54.544918"><ele>271.357208</ele><time>2021-08-12T11:21:08Z</time><extensions><speed>0.955565</speed><course>98.187202</course><hAcc>0.882196</hAcc><vAcc>0.708140</vAcc></extensions></trkpt>
      <trkpt lon="-3.320906" lat="54.544926"><ele>271.619781</ele><time>2021-08-12T11:21:09Z</time><extensions><speed>0.938533</speed><course>262.094696</course><hAcc>0.882211</hAcc><vAcc>0.708183</vAcc></extensions></trkpt>
      <trkpt lon="-3.320908" lat="54.544934"><ele>271.885315</ele><time>2021-08-12T11:21:10Z</time><extensions><speed>0.921793</speed><course>273.339569</course><hAcc>0.882221</hAcc><vAcc>0.708208</vAcc></extensions></trkpt>
      <trkpt lon="-3.320909" lat="54.544943"><ele>272.151489</ele><time>2021-08-12T11:21:11Z</time><extensions><speed>0.906694</speed><course>270.133057</course><hAcc>0.882227</hAcc><vAcc>0.708218</vAcc></extensions></trkpt>
      <trkpt lon="-3.320910" lat="54.544951"><ele>272.416016</ele><time>2021-08-12T11:21:12Z</time><extensions><speed>0.894405</speed><course>264.401459</course><hAcc>0.882231</hAcc><vAcc>0.708215</vAcc></extensions></trkpt>
      <trkpt lon="-3.320912" lat="54.544959"><ele>272.676880</ele><time>2021-08-12T11:21:13Z</time><extensions><speed>0.885275</speed><course>271.206299</course><hAcc>0.882232</hAcc><vAcc>0.708207</vAcc></extensions></trkpt>
      <trkpt lon="-3.320913" lat="54.544966"><ele>272.931976</ele><time>2021-08-12T11:21:14Z</time><extensions><speed>0.879265</speed><course>270.479279</course><hAcc>0.882233</hAcc><vAcc>0.708200</vAcc></extensions></trkpt>
      <trkpt lon="-3.320914" lat="54.544974"><ele>273.179138</ele><time>2021-08-12T11:21:15Z</time><extensions><speed>0.876501</speed><course>270.479279</course><hAcc>0.882233</hAcc><vAcc>0.708196</vAcc></extensions></trkpt>
      <trkpt lon="-3.320915" lat="54.544982"><ele>273.416168</ele><time>2021-08-12T11:21:16Z</time><extensions><speed>0.877019</speed><course>270.479279</course><hAcc>0.882233</hAcc><vAcc>0.708197</vAcc></extensions></trkpt>
      <trkpt lon="-3.320916" lat="54.544990"><ele>273.640991</ele><time>2021-08-12T11:21:17Z</time><extensions><speed>0.880615</speed><course>92.836548</course><hAcc>0.882235</hAcc><vAcc>0.708202</vAcc></extensions></trkpt>
      <trkpt lon="-3.320918" lat="54.544998"><ele>273.852173</ele><time>2021-08-12T11:21:18Z</time><extensions><speed>0.886840</speed><course>91.847809</course><hAcc>0.882238</hAcc><vAcc>0.708212</vAcc></extensions></trkpt>
      <trkpt lon="-3.320918" lat="54.545006"><ele>274.048859</ele><time>2021-08-12T11:21:19Z</time><extensions><speed>0.895025</speed><course>96.972961</course><hAcc>0.882243</hAcc><vAcc>0.708227</vAcc></extensions></trkpt>
      <trkpt lon="-3.320919" lat="54.545014"><ele>274.230530</ele><time>2021-08-12T11:21:20Z</time><extensions><speed>0.904722</speed><course>101.432434</course><hAcc>0.882252</hAcc><vAcc>0.708249</vAcc></extensions></trkpt>
      <trkpt lon="-3.320919" lat="54.545022"><ele>274.396545</ele><time>2021-08-12T11:21:21Z</time><extensions><speed>0.915743</speed><course>89.921867</course><hAcc>0.882264</hAcc><vAcc>0.708282</vAcc></extensions></trkpt>
      <trkpt lon="-3.320919" lat="54.545030"><ele>274.546478</ele><time>2021-08-12T11:21:22Z</time><extensions><speed>0.927863</speed><course>79.468422</course><hAcc>0.882281</hAcc><vAcc>0.708328</vAcc></extensions></trkpt>
      <trkpt lon="-3.320919" lat="54.545039"><ele>274.679962</ele><time>2021-08-12T11:21:23Z</time><extensions><speed>0.941247</speed><course>79.668663</course><hAcc>0.882302</hAcc><vAcc>0.708394</vAcc></extensions></trkpt>
      <trkpt lon="-3.320918" lat="54.545047"><ele>274.796661</ele><time>2021-08-12T11:21:24Z</time><extensions><speed>0.956581</speed><course>70.198914</course><hAcc>0.882330</hAcc><vAcc>0.708482</vAcc></extensions></trkpt>
      <trkpt lon="-3.320916" lat="54.545056"><ele>274.896332</ele><time>2021-08-12T11:21:25Z</time><extensions><speed>0.974395</speed><course>85.811096</course><hAcc>0.882363</hAcc><vAcc>0.708598</vAcc></extensions></trkpt>
      <trkpt lon="-3.320914" lat="54.545065"><ele>274.979401</ele><time>2021-08-12T11:21:26Z</time><extensions><speed>0.994699</speed><course>87.515213</course><hAcc>0.882403</hAcc><vAcc>0.708744</vAcc></extensions></trkpt>
      <trkpt lon="-3.320911" lat="54.545074"><ele>275.047424</ele><time>2021-08-12T11:21:27Z</time><extensions><speed>1.016703</speed><course>86.802406</course><hAcc>0.882450</hAcc><vAcc>0.708920</vAcc></extensions></trkpt>
      <trkpt lon="-3.320907" lat="54.545082"><ele>275.102631</ele><time>2021-08-12T11:21:28Z</time><extensions><speed>1.038842</speed><course>85.424927</course><hAcc>0.882503</hAcc><vAcc>0.709122</vAcc></extensions></trkpt>
      <trkpt lon="-3.320902" lat="54.545092"><ele>275.147583</ele><time>2021-08-12T11:21:29Z</time><extensions><speed>1.059411</speed><course>88.911957</course><hAcc>0.882562</hAcc><vAcc>0.709346</vAcc></extensions></trkpt>
      <trkpt lon="-3.320898" lat="54.545101"><ele>275.184906</ele><time>2021-08-12T11:21:30Z</time><extensions><speed>1.076908</speed><course>93.027184</course><hAcc>0.882627</hAcc><vAcc>0.709588</vAcc></extensions></trkpt>
      <trkpt lon="-3.320893" lat="54.545110"><ele>275.217224</ele><time>2021-08-12T11:21:31Z</time><extensions><speed>1.090062</speed><course>90.763535</course><hAcc>0.882697</hAcc><vAcc>0.709849</vAcc></extensions></trkpt>
      <trkpt lon="-3.320888" lat="54.545119"><ele>275.246948</ele><time>2021-08-12T11:21:32Z</time><extensions><speed>1.098123</speed><course>83.392509</course><hAcc>0.882771</hAcc><vAcc>0.710128</vAcc></extensions></trkpt>
      <trkpt lon="-3.320883" lat="54.545129"><ele>275.276794</ele><time>2021-08-12T11:21:33Z</time><extensions><speed>1.100816</speed><course>57.334152</course><hAcc>0.882849</hAcc><vAcc>0.710424</vAcc></extensions></trkpt>
      <trkpt lon="-3.320879" lat="54.545139"><ele>275.309662</ele><time>2021-08-12T11:21:34Z</time><extensions><speed>1.098464</speed><course>29.254333</course><hAcc>0.882929</hAcc><vAcc>0.710730</vAcc></extensions></trkpt>
      <trkpt lon="-3.320876" lat="54.545148"><ele>275.348633</ele><time>2021-08-12T11:21:35Z</time><extensions><speed>1.092548</speed><course>29.254333</course><hAcc>0.883012</hAcc><vAcc>0.711040</vAcc></extensions></trkpt>
      <trkpt lon="-3.320874" lat="54.545158"><ele>275.396271</ele><time>2021-08-12T11:21:36Z</time><extensions><speed>1.085048</speed><course>29.254333</course><hAcc>0.883096</hAcc><vAcc>0.711347</vAcc></extensions></trkpt>
      <trkpt lon="-3.320873" lat="54.545168"><ele>275.454041</ele><time>2021-08-12T11:21:37Z</time><extensions><speed>1.078071</speed><course>29.254332</course><hAcc>0.883181</hAcc><vAcc>0.711649</vAcc></extensions></trkpt>
      <trkpt lon="-3.320873" lat="54.545177"><ele>275.522217</ele><time>2021-08-12T11:21:38Z</time><extensions><speed>1.073574</speed><course>29.254333</course><hAcc>0.883266</hAcc><vAcc>0.711946</vAcc></extensions></trkpt>
      <trkpt lon="-3.320874" lat="54.545187"><ele>275.600311</ele><time>2021-08-12T11:21:39Z</time><extensions><speed>1.072684</speed><course>29.254332</course><hAcc>0.883348</hAcc><vAcc>0.712244</vAcc></extensions></trkpt>
      <trkpt lon="-3.320877" lat="54.545196"><ele>275.687622</ele><time>2021-08-12T11:21:40Z</time><extensions><speed>1.075496</speed><course>29.254332</course><hAcc>0.883425</hAcc><vAcc>0.712547</vAcc></extensions></trkpt>
      <trkpt lon="-3.320881" lat="54.545206"><ele>275.783264</ele><time>2021-08-12T11:21:41Z</time><extensions><speed>1.080742</speed><course>29.254333</course><hAcc>0.883495</hAcc><vAcc>0.712850</vAcc></extensions></trkpt>
      <trkpt lon="-3.320886" lat="54.545215"><ele>275.885498</ele><time>2021-08-12T11:21:42Z</time><extensions><speed>1.086316</speed><course>29.254333</course><hAcc>0.883557</hAcc><vAcc>0.713142</vAcc></extensions></trkpt>
      <trkpt lon="-3.320891" lat="54.545224"><ele>275.991882</ele><time>2021-08-12T11:21:43Z</time><extensions><speed>1.090677</speed><course>29.254332</course><hAcc>0.883609</hAcc><vAcc>0.713403</vAcc></extensions></trkpt>
      <trkpt lon="-3.320897" lat="54.545233"><ele>276.099640</ele><time>2021-08-12T11:21:44Z</time><extensions><speed>1.093170</speed><course>29.254333</course><hAcc>0.883651</hAcc><vAcc>0.713609</vAcc></extensions></trkpt>
      <trkpt lon="-3.320904" lat="54.545243"><ele>276.206207</ele><time>2021-08-12T11:21:45Z</time><extensions><speed>1.094293</speed><course>29.254337</course><hAcc>0.883681</hAcc><vAcc>0.713744</vAcc></extensions></trkpt>
      <trkpt lon="-3.320910" lat="54.545252"><ele>276.309631</ele><time>2021-08-12T11:21:46Z</time><extensions><speed>1.095346</speed><course>29.254337</course><hAcc>0.883701</hAcc><vAcc>0.713799</vAcc></extensions></trkpt>
      <trkpt lon="-3.320916" lat="54.545261"><ele>276.408417</ele><time>2021-08-12T11:21:47Z</time><extensions><speed>1.097295</speed><course>29.254339</course><hAcc>0.883711</hAcc><vAcc>0.713779</vAcc></extensions></trkpt>
      <trkpt lon="-3.320923" lat="54.545270"><ele>276.501740</ele><time>2021-08-12T11:21:48Z</time><extensions><speed>1.100740</speed><course>29.254337</course><hAcc>0.883711</hAcc><vAcc>0.713701</vAcc></extensions></trkpt>
      <trkpt lon="-3.320929" lat="54.545279"><ele>276.589813</ele><time>2021-08-12T11:21:49Z</time><extensions><speed>1.105897</speed><course>29.254339</course><hAcc>0.883703</hAcc><vAcc>0.713587</vAcc></extensions></trkpt>
      <trkpt lon="-3.320935" lat="54.545289"><ele>276.673950</ele><time>2021-08-12T11:21:50Z</time><extensions><speed>1.112298</speed><course>353.139893</course><hAcc>0.883688</hAcc><vAcc>0.713460</vAcc></extensions></trkpt>
      <trkpt lon="-3.320941" lat="54.545298"><ele>276.756348</ele><time>2021-08-12T11:21:51Z</time><extensions><speed>1.119025</speed><course>-1.000000</course><hAcc>0.883667</hAcc><vAcc>0.713338</vAcc></extensions></trkpt>
      <trkpt lon="-3.320946" lat="54.545308"><ele>276.839569</ele><time>2021-08-12T11:21:52Z</time><extensions><speed>1.124746</speed><course>-1.000000</course><hAcc>0.883641</hAcc><vAcc>0.713234</vAcc></extensions></trkpt>
      <trkpt lon="-3.320952" lat="54.545317"><ele>276.926422</ele><time>2021-08-12T11:21:53Z</time><extensions><speed>1.127337</speed><course>-1.000000</course><hAcc>0.883610</hAcc><vAcc>0.713151</vAcc></extensions></trkpt>
      <trkpt lon="-3.320958" lat="54.545327"><ele>277.019196</ele><time>2021-08-12T11:21:54Z</time><extensions><speed>1.125100</speed><course>-1.000000</course><hAcc>0.883574</hAcc><vAcc>0.713078</vAcc></extensions></trkpt>
      <trkpt lon="-3.320963" lat="54.545336"><ele>277.119690</ele><time>2021-08-12T11:21:55Z</time><extensions><speed>1.117455</speed><course>-1.000000</course><hAcc>0.883533</hAcc><vAcc>0.712996</vAcc></extensions></trkpt>
      <trkpt lon="-3.320969" lat="54.545346"><ele>277.229218</ele><time>2021-08-12T11:21:56Z</time><extensions><speed>1.104099</speed><course>-1.000000</course><hAcc>0.883484</hAcc><vAcc>0.712887</vAcc></extensions></trkpt>
      <trkpt lon="-3.320974" lat="54.545355"><ele>277.348145</ele><time>2021-08-12T11:21:57Z</time><extensions><speed>1.085029</speed><course>-1.000000</course><hAcc>0.883426</hAcc><vAcc>0.712735</vAcc></extensions></trkpt>
      <trkpt lon="-3.320979" lat="54.545364"><ele>277.475983</ele><time>2021-08-12T11:21:58Z</time><extensions><speed>1.060814</speed><course>-1.000000</course><hAcc>0.883357</hAcc><vAcc>0.712525</vAcc></extensions></trkpt>
      <trkpt lon="-3.320984" lat="54.545373"><ele>277.611481</ele><time>2021-08-12T11:21:59Z</time><extensions><speed>1.032486</speed><course>-1.000000</course><hAcc>0.883276</hAcc><vAcc>0.712248</vAcc></extensions></trkpt>
      <trkpt lon="-3.320989" lat="54.545382"><ele>277.752777</ele><time>2021-08-12T11:22:00Z</time><extensions><speed>1.001140</speed><course>-1.000000</course><hAcc>0.883184</hAcc><vAcc>0.711899</vAcc></extensions></trkpt>
      <trkpt lon="-3.320993" lat="54.545390"><ele>277.897491</ele><time>2021-08-12T11:22:01Z</time><extensions><speed>0.968124</speed><course>-1.000000</course><hAcc>0.883081</hAcc><vAcc>0.711484</vAcc></extensions></trkpt>
      <trkpt lon="-3.320997" lat="54.545399"><ele>278.043457</ele><time>2021-08-12T11:22:02Z</time><extensions><speed>0.934891</speed><course>74.830536</course><hAcc>0.882969</hAcc><vAcc>0.711017</vAcc></extensions></trkpt>
      <trkpt lon="-3.321000" lat="54.545407"><ele>278.189423</ele><time>2021-08-12T11:22:03Z</time><extensions><speed>0.902654</speed><course>62.161198</course><hAcc>0.882849</hAcc><vAcc>0.710517</vAcc></extensions></trkpt>
      <trkpt lon="-3.321003" lat="54.545414"><ele>278.335022</ele><time>2021-08-12T11:22:04Z</time><extensions><speed>0.872330</speed><course>66.043793</course><hAcc>0.882727</hAcc><vAcc>0.710003</vAcc></extensions></trkpt>
      <trkpt lon="-3.321005" lat="54.545422"><ele>278.480103</ele><time>2021-08-12T11:22:05Z</time><extensions><speed>0.844360</speed><course>75.803009</course><hAcc>0.882604</hAcc><vAcc>0.709498</vAcc></extensions></trkpt>
      <trkpt lon="-3.321007" lat="54.545429"><ele>278.624756</ele><time>2021-08-12T11:22:06Z</time><extensions><speed>0.819101</speed><course>76.191063</course><hAcc>0.882486</hAcc><vAcc>0.709018</vAcc></extensions></trkpt>
      <trkpt lon="-3.321009" lat="54.545437"><ele>278.768250</ele><time>2021-08-12T11:22:07Z</time><extensions><speed>0.796949</speed><course>76.349960</course><hAcc>0.882376</hAcc><vAcc>0.708579</vAcc></extensions></trkpt>
      <trkpt lon="-3.321010" lat="54.545444"><ele>278.909271</ele><time>2021-08-12T11:22:08Z</time><extensions><speed>0.778122</speed><course>78.477806</course><hAcc>0.882277</hAcc><vAcc>0.708193</vAcc></extensions></trkpt>
      <trkpt lon="-3.321012" lat="54.545450"><ele>279.046967</ele><time>2021-08-12T11:22:09Z</time><extensions><speed>0.762538</speed><course>75.070290</course><hAcc>0.882193</hAcc><vAcc>0.707869</vAcc></extensions></trkpt>
      <trkpt lon="-3.321013" lat="54.545457"><ele>279.181244</ele><time>2021-08-12T11:22:10Z</time><extensions><speed>0.750116</speed><course>69.086029</course><hAcc>0.882124</hAcc><vAcc>0.707612</vAcc></extensions></trkpt>
      <trkpt lon="-3.321013" lat="54.545464"><ele>279.312164</ele><time>2021-08-12T11:22:11Z</time><extensions><speed>0.740831</speed><course>68.949226</course><hAcc>0.882074</hAcc><vAcc>0.707426</vAcc></extensions></trkpt>
      <trkpt lon="-3.321014" lat="54.545471"><ele>279.439453</ele><time>2021-08-12T11:22:12Z</time><extensions><speed>0.734513</speed><course>71.686111</course><hAcc>0.882041</hAcc><vAcc>0.707312</vAcc></extensions></trkpt>
      <trkpt lon="-3.321015" lat="54.545477"><ele>279.562469</ele><time>2021-08-12T11:22:13Z</time><extensions><speed>0.730901</speed><course>76.597496</course><hAcc>0.882025</hAcc><vAcc>0.707267</vAcc></extensions></trkpt>
      <trkpt lon="-3.321015" lat="54.545484"><ele>279.680267</ele><time>2021-08-12T11:22:14Z</time><extensions><speed>0.729661</speed><course>90.005066</course><hAcc>0.882026</hAcc><vAcc>0.707287</vAcc></extensions></trkpt>
      <trkpt lon="-3.321016" lat="54.545490"><ele>279.792297</ele><time>2021-08-12T11:22:15Z</time><extensions><speed>0.730536</speed><course>83.948074</course><hAcc>0.882041</hAcc><vAcc>0.707369</vAcc></extensions></trkpt>
      <trkpt lon="-3.321016" lat="54.545497"><ele>279.898590</ele><time>2021-08-12T11:22:16Z</time><extensions><speed>0.733460</speed><course>76.996796</course><hAcc>0.882067</hAcc><vAcc>0.707504</vAcc></extensions></trkpt>
      <trkpt lon="-3.321017" lat="54.545503"><ele>279.999481</ele><time>2021-08-12T11:22:17Z</time><extensions><speed>0.738235</speed><course>79.507355</course><hAcc>0.882103</hAcc><vAcc>0.707681</vAcc></extensions></trkpt>
      <trkpt lon="-3.321018" lat="54.545510"><ele>280.095215</ele><time>2021-08-12T11:22:18Z</time><extensions><speed>0.744601</speed><course>72.096832</course><hAcc>0.882145</hAcc><vAcc>0.707883</vAcc></extensions></trkpt>
      <trkpt lon="-3.321018" lat="54.545517"><ele>280.185760</ele><time>2021-08-12T11:22:19Z</time><extensions><speed>0.752345</speed><course>80.368279</course><hAcc>0.882189</hAcc><vAcc>0.708093</vAcc></extensions></trkpt>
      <trkpt lon="-3.321019" lat="54.545524"><ele>280.271179</ele><time>2021-08-12T11:22:20Z</time><extensions><speed>0.761512</speed><course>78.982643</course><hAcc>0.882234</hAcc><vAcc>0.708294</vAcc></extensions></trkpt>
      <trkpt lon="-3.321020" lat="54.545530"><ele>280.351746</ele><time>2021-08-12T11:22:21Z</time><extensions><speed>0.772251</speed><course>81.075706</course><hAcc>0.882277</hAcc><vAcc>0.708471</vAcc></extensions></trkpt>
      <trkpt lon="-3.321021" lat="54.545537"><ele>280.427917</ele><time>2021-08-12T11:22:22Z</time><extensions><speed>0.784381</speed><course>81.007790</course><hAcc>0.882317</hAcc><vAcc>0.708618</vAcc></extensions></trkpt>
      <trkpt lon="-3.321022" lat="54.545544"><ele>280.500183</ele><time>2021-08-12T11:22:23Z</time><extensions><speed>0.797511</speed><course>78.272133</course><hAcc>0.882351</hAcc><vAcc>0.708733</vAcc></extensions></trkpt>
      <trkpt lon="-3.321023" lat="54.545552"><ele>280.568817</ele><time>2021-08-12T11:22:24Z</time><extensions><speed>0.811107</speed><course>73.069588</course><hAcc>0.882380</hAcc><vAcc>0.708818</vAcc></extensions></trkpt>
      <trkpt lon="-3.321024" lat="54.545559"><ele>280.633820</ele><time>2021-08-12T11:22:25Z</time><extensions><speed>0.824208</speed><course>77.189682</course><hAcc>0.882405</hAcc><vAcc>0.708880</vAcc></extensions></trkpt>
      <trkpt lon="-3.321026" lat="54.545566"><ele>280.695557</ele><time>2021-08-12T11:22:26Z</time><extensions><speed>0.835952</speed><course>75.197517</course><hAcc>0.882425</hAcc><vAcc>0.708928</vAcc></extensions></trkpt>
      <trkpt lon="-3.321027" lat="54.545574"><ele>280.754517</ele><time>2021-08-12T11:22:27Z</time><extensions><speed>0.846219</speed><course>67.733307</course><hAcc>0.882442</hAcc><vAcc>0.708972</vAcc></extensions></trkpt>
      <trkpt lon="-3.321029" lat="54.545581"><ele>280.811005</ele><time>2021-08-12T11:22:28Z</time><extensions><speed>0.854215</speed><course>69.123688</course><hAcc>0.882459</hAcc><vAcc>0.709020</vAcc></extensions></trkpt>
      <trkpt lon="-3.321031" lat="54.545589"><ele>280.865112</ele><time>2021-08-12T11:22:29Z</time><extensions><speed>0.858872</speed><course>71.299400</course><hAcc>0.882478</hAcc><vAcc>0.709074</vAcc></extensions></trkpt>
      <trkpt lon="-3.321034" lat="54.545597"><ele>280.916656</ele><time>2021-08-12T11:22:30Z</time><extensions><speed>0.859435</speed><course>77.479210</course><hAcc>0.882500</hAcc><vAcc>0.709140</vAcc></extensions></trkpt>
      <trkpt lon="-3.321036" lat="54.545604"><ele>280.965424</ele><time>2021-08-12T11:22:31Z</time><extensions><speed>0.855135</speed><course>68.623329</course><hAcc>0.882530</hAcc><vAcc>0.709223</vAcc></extensions></trkpt>
      <trkpt lon="-3.321039" lat="54.545612"><ele>281.010895</ele><time>2021-08-12T11:22:32Z</time><extensions><speed>0.845550</speed><course>63.866425</course><hAcc>0.882571</hAcc><vAcc>0.709331</vAcc></extensions></trkpt>
      <trkpt lon="-3.321042" lat="54.545619"><ele>281.052704</ele><time>2021-08-12T11:22:33Z</time><extensions><speed>0.830557</speed><course>76.291603</course><hAcc>0.882625</hAcc><vAcc>0.709476</vAcc></extensions></trkpt>
      <trkpt lon="-3.321045" lat="54.545626"><ele>281.090729</ele><time>2021-08-12T11:22:34Z</time><extensions><speed>0.810402</speed><course>71.777351</course><hAcc>0.882694</hAcc><vAcc>0.709677</vAcc></extensions></trkpt>
      <trkpt lon="-3.321049" lat="54.545633"><ele>281.124847</ele><time>2021-08-12T11:22:35Z</time><extensions><speed>0.785419</speed><course>76.476341</course><hAcc>0.882782</hAcc><vAcc>0.709949</vAcc></extensions></trkpt>
      <trkpt lon="-3.321052" lat="54.545640"><ele>281.155060</ele><time>2021-08-12T11:22:36Z</time><extensions><speed>0.755666</speed><course>63.346680</course><hAcc>0.882890</hAcc><vAcc>0.710311</vAcc></extensions></trkpt>
      <trkpt lon="-3.321055" lat="54.545646"><ele>281.181366</ele><time>2021-08-12T11:22:37Z</time><extensions><speed>0.720997</speed><course>60.883244</course><hAcc>0.883017</hAcc><vAcc>0.710772</vAcc></extensions></trkpt>
      <trkpt lon="-3.321059" lat="54.545652"><ele>281.204193</ele><time>2021-08-12T11:22:38Z</time><extensions><speed>0.681367</speed><course>66.100471</course><hAcc>0.883163</hAcc><vAcc>0.711334</vAcc></extensions></trkpt>
      <trkpt lon="-3.321062" lat="54.545658"><ele>281.224274</ele><time>2021-08-12T11:22:39Z</time><extensions><speed>0.636730</speed><course>66.284729</course><hAcc>0.883327</hAcc><vAcc>0.711989</vAcc></extensions></trkpt>
      <trkpt lon="-3.321065" lat="54.545663"><ele>281.242767</ele><time>2021-08-12T11:22:40Z</time><extensions><speed>0.587151</speed><course>70.183884</course><hAcc>0.883505</hAcc><vAcc>0.712717</vAcc></extensions></trkpt>
      <trkpt lon="-3.321067" lat="54.545668"><ele>281.260925</ele><time>2021-08-12T11:22:41Z</time><extensions><speed>0.533392</speed><course>69.091454</course><hAcc>0.883693</hAcc><vAcc>0.713491</vAcc></extensions></trkpt>
      <trkpt lon="-3.321069" lat="54.545672"><ele>281.279877</ele><time>2021-08-12T11:22:42Z</time><extensions><speed>0.477436</speed><course>67.595528</course><hAcc>0.883886</hAcc><vAcc>0.714281</vAcc></extensions></trkpt>
      <trkpt lon="-3.321070" lat="54.545676"><ele>281.300690</ele><time>2021-08-12T11:22:43Z</time><extensions><speed>0.423021</speed><course>69.079941</course><hAcc>0.884079</hAcc><vAcc>0.715061</vAcc></extensions></trkpt>
      <trkpt lon="-3.321070" lat="54.545680"><ele>281.324463</ele><time>2021-08-12T11:22:44Z</time><extensions><speed>0.374656</speed><course>67.638985</course><hAcc>0.884266</hAcc><vAcc>0.715806</vAcc></extensions></trkpt>
      <trkpt lon="-3.321070" lat="54.545683"><ele>281.352051</ele><time>2021-08-12T11:22:45Z</time><extensions><speed>0.336346</speed><course>67.902077</course><hAcc>0.884440</hAcc><vAcc>0.716499</vAcc></extensions></trkpt>
      <trkpt lon="-3.321068" lat="54.545686"><ele>281.384186</ele><time>2021-08-12T11:22:46Z</time><extensions><speed>0.311185</speed><course>68.213737</course><hAcc>0.884596</hAcc><vAcc>0.717121</vAcc></extensions></trkpt>
      <trkpt lon="-3.321066" lat="54.545688"><ele>281.421326</ele><time>2021-08-12T11:22:47Z</time><extensions><speed>0.300690</speed><course>58.646133</course><hAcc>0.884728</hAcc><vAcc>0.717655</vAcc></extensions></trkpt>
      <trkpt lon="-3.321063" lat="54.545690"><ele>281.463684</ele><time>2021-08-12T11:22:48Z</time><extensions><speed>0.303807</speed><course>60.787758</course><hAcc>0.884833</hAcc><vAcc>0.718081</vAcc></extensions></trkpt>
      <trkpt lon="-3.321060" lat="54.545692"><ele>281.511353</ele><time>2021-08-12T11:22:49Z</time><extensions><speed>0.316688</speed><course>59.107254</course><hAcc>0.884907</hAcc><vAcc>0.718383</vAcc></extensions></trkpt>
      <trkpt lon="-3.321055" lat="54.545693"><ele>281.564056</ele><time>2021-08-12T11:22:50Z</time><extensions><speed>0.334341</speed><course>59.308796</course><hAcc>0.884948</hAcc><vAcc>0.718550</vAcc></extensions></trkpt>
      <trkpt lon="-3.321051" lat="54.545695"><ele>281.621307</ele><time>2021-08-12T11:22:51Z</time><extensions><speed>0.351797</speed><course>63.536522</course><hAcc>0.884954</hAcc><vAcc>0.718576</vAcc></extensions></trkpt>
      <trkpt lon="-3.321046" lat="54.545696"><ele>281.682190</ele><time>2021-08-12T11:22:52Z</time><extensions><speed>0.364812</speed><course>64.110619</course><hAcc>0.884923</hAcc><vAcc>0.718462</vAcc></extensions></trkpt>
      <trkpt lon="-3.321040" lat="54.545697"><ele>281.745544</ele><time>2021-08-12T11:22:53Z</time><extensions><speed>0.370047</speed><course>57.783936</course><hAcc>0.884855</hAcc><vAcc>0.718213</vAcc></extensions></trkpt>
      <trkpt lon="-3.321035" lat="54.545698"><ele>281.809570</ele><time>2021-08-12T11:22:54Z</time><extensions><speed>0.365801</speed><course>62.673740</course><hAcc>0.884752</hAcc><vAcc>0.717833</vAcc></extensions></trkpt>
      <trkpt lon="-3.321029" lat="54.545699"><ele>281.872162</ele><time>2021-08-12T11:22:55Z</time><extensions><speed>0.351884</speed><course>68.268181</course><hAcc>0.884616</hAcc><vAcc>0.717327</vAcc></extensions></trkpt>
      <trkpt lon="-3.321024" lat="54.545699"><ele>281.931030</ele><time>2021-08-12T11:22:56Z</time><extensions><speed>0.328610</speed><course>59.735432</course><hAcc>0.884450</hAcc><vAcc>0.716699</vAcc></extensions></trkpt>
      <trkpt lon="-3.321019" lat="54.545700"><ele>281.984039</ele><time>2021-08-12T11:22:57Z</time><extensions><speed>0.297507</speed><course>59.192490</course><hAcc>0.884262</hAcc><vAcc>0.715958</vAcc></extensions></trkpt>
      <trkpt lon="-3.321015" lat="54.545700"><ele>282.029144</ele><time>2021-08-12T11:22:58Z</time><extensions><speed>0.261891</speed><course>60.825825</course><hAcc>0.884057</hAcc><vAcc>0.715120</vAcc></extensions></trkpt>
      <trkpt lon="-3.321011" lat="54.545701"><ele>282.064514</ele><time>2021-08-12T11:22:59Z</time><extensions><speed>0.226176</speed><course>62.921200</course><hAcc>0.883842</hAcc><vAcc>0.714213</vAcc></extensions></trkpt>
      <trkpt lon="-3.321008" lat="54.545701"><ele>282.089142</ele><time>2021-08-12T11:23:00Z</time><extensions><speed>0.194634</speed><course>59.145714</course><hAcc>0.883622</hAcc><vAcc>0.713276</vAcc></extensions></trkpt>
      <trkpt lon="-3.321006" lat="54.545702"><ele>282.103027</ele><time>2021-08-12T11:23:01Z</time><extensions><speed>0.170981</speed><course>54.852036</course><hAcc>0.883402</hAcc><vAcc>0.712351</vAcc></extensions></trkpt>
      <trkpt lon="-3.321003" lat="54.545702"><ele>282.106842</ele><time>2021-08-12T11:23:02Z</time><extensions><speed>0.158563</speed><course>52.958679</course><hAcc>0.883187</hAcc><vAcc>0.711477</vAcc></extensions></trkpt>
      <trkpt lon="-3.321001" lat="54.545703"><ele>282.101959</ele><time>2021-08-12T11:23:03Z</time><extensions><speed>0.159682</speed><course>51.642593</course><hAcc>0.882981</hAcc><vAcc>0.710679</vAcc></extensions></trkpt>
      <trkpt lon="-3.320999" lat="54.545704"><ele>282.089966</ele><time>2021-08-12T11:23:04Z</time><extensions><speed>0.174991</speed><course>50.915668</course><hAcc>0.882783</hAcc><vAcc>0.709963</vAcc></extensions></trkpt>
      <trkpt lon="-3.320998" lat="54.545706"><ele>282.072784</ele><time>2021-08-12T11:23:05Z</time><extensions><speed>0.203677</speed><course>43.517220</course><hAcc>0.882596</hAcc><vAcc>0.709325</vAcc></extensions></trkpt>
      <trkpt lon="-3.320995" lat="54.545707"><ele>282.052368</ele><time>2021-08-12T11:23:06Z</time><extensions><speed>0.244503</speed><course>53.213661</course><hAcc>0.882416</hAcc><vAcc>0.708749</vAcc></extensions></trkpt>
      <trkpt lon="-3.320993" lat="54.545709"><ele>282.030640</ele><time>2021-08-12T11:23:07Z</time><extensions><speed>0.296536</speed><course>42.672325</course><hAcc>0.882240</hAcc><vAcc>0.708215</vAcc></extensions></trkpt>
      <trkpt lon="-3.320990" lat="54.545712"><ele>282.009399</ele><time>2021-08-12T11:23:08Z</time><extensions><speed>0.359012</speed><course>57.842590</course><hAcc>0.882064</hAcc><vAcc>0.707697</vAcc></extensions></trkpt>
      <trkpt lon="-3.320986" lat="54.545714"><ele>281.990265</ele><time>2021-08-12T11:23:09Z</time><extensions><speed>0.431032</speed><course>54.432369</course><hAcc>0.881885</hAcc><vAcc>0.707165</vAcc></extensions></trkpt>
      <trkpt lon="-3.320982" lat="54.545718"><ele>281.974884</ele><time>2021-08-12T11:23:10Z</time><extensions><speed>0.511148</speed><course>53.099045</course><hAcc>0.881697</hAcc><vAcc>0.706595</vAcc></extensions></trkpt>
      <trkpt lon="-3.320977" lat="54.545722"><ele>281.964874</ele><time>2021-08-12T11:23:11Z</time><extensions><speed>0.597121</speed><course>52.709480</course><hAcc>0.881500</hAcc><vAcc>0.705958</vAcc></extensions></trkpt>
      <trkpt lon="-3.320971" lat="54.545726"><ele>281.961792</ele><time>2021-08-12T11:23:12Z</time><extensions><speed>0.686201</speed><course>55.566643</course><hAcc>0.881296</hAcc><vAcc>0.705236</vAcc></extensions></trkpt>
      <trkpt lon="-3.320963" lat="54.545731"><ele>281.967255</ele><time>2021-08-12T11:23:13Z</time><extensions><speed>0.775865</speed><course>50.999676</course><hAcc>0.881086</hAcc><vAcc>0.704424</vAcc></extensions></trkpt>
      <trkpt lon="-3.320955" lat="54.545737"><ele>281.983032</ele><time>2021-08-12T11:23:14Z</time><extensions><speed>0.864411</speed><course>49.932701</course><hAcc>0.880880</hAcc><vAcc>0.703547</vAcc></extensions></trkpt>
      <trkpt lon="-3.320946" lat="54.545743"><ele>282.011078</ele><time>2021-08-12T11:23:15Z</time><extensions><speed>0.950723</speed><course>44.103298</course><hAcc>0.880684</hAcc><vAcc>0.702654</vAcc></extensions></trkpt>
      <trkpt lon="-3.320935" lat="54.545749"><ele>282.053741</ele><time>2021-08-12T11:23:16Z</time><extensions><speed>1.033835</speed><course>35.959499</course><hAcc>0.880510</hAcc><vAcc>0.701818</vAcc></extensions></trkpt>
      <trkpt lon="-3.320924" lat="54.545756"><ele>282.113129</ele><time>2021-08-12T11:23:17Z</time><extensions><speed>1.112528</speed><course>30.952709</course><hAcc>0.880370</hAcc><vAcc>0.701118</vAcc></extensions></trkpt>
      <trkpt lon="-3.320911" lat="54.545764"><ele>282.190643</ele><time>2021-08-12T11:23:18Z</time><extensions><speed>1.185104</speed><course>43.709347</course><hAcc>0.880273</hAcc><vAcc>0.700630</vAcc></extensions></trkpt>
      <trkpt lon="-3.320898" lat="54.545771"><ele>282.286560</ele><time>2021-08-12T11:23:19Z</time><extensions><speed>1.250168</speed><course>37.574459</course><hAcc>0.880228</hAcc><vAcc>0.700403</vAcc></extensions></trkpt>
      <trkpt lon="-3.320884" lat="54.545779"><ele>282.399963</ele><time>2021-08-12T11:23:20Z</time><extensions><speed>1.306975</speed><course>40.028488</course><hAcc>0.880239</hAcc><vAcc>0.700451</vAcc></extensions></trkpt>
      <trkpt lon="-3.320868" lat="54.545787"><ele>282.529266</ele><time>2021-08-12T11:23:21Z</time><extensions><speed>1.355390</speed><course>39.088745</course><hAcc>0.880308</hAcc><vAcc>0.700753</vAcc></extensions></trkpt>
      <trkpt lon="-3.320853" lat="54.545796"><ele>282.672363</ele><time>2021-08-12T11:23:22Z</time><extensions><speed>1.395511</speed><course>38.227211</course><hAcc>0.880430</hAcc><vAcc>0.701277</vAcc></extensions></trkpt>
      <trkpt lon="-3.320836" lat="54.545804"><ele>282.826630</ele><time>2021-08-12T11:23:23Z</time><extensions><speed>1.427518</speed><course>38.580025</course><hAcc>0.880603</hAcc><vAcc>0.701993</vAcc></extensions></trkpt>
      <trkpt lon="-3.320820" lat="54.545813"><ele>282.989075</ele><time>2021-08-12T11:23:24Z</time><extensions><speed>1.452092</speed><course>36.225418</course><hAcc>0.880818</hAcc><vAcc>0.702872</vAcc></extensions></trkpt>
      <trkpt lon="-3.320803" lat="54.545821"><ele>283.156891</ele><time>2021-08-12T11:23:25Z</time><extensions><speed>1.469479</speed><course>36.482189</course><hAcc>0.881067</hAcc><vAcc>0.703881</vAcc></extensions></trkpt>
      <trkpt lon="-3.320785" lat="54.545830"><ele>283.327454</ele><time>2021-08-12T11:23:26Z</time><extensions><speed>1.479319</speed><course>45.117634</course><hAcc>0.881343</hAcc><vAcc>0.704980</vAcc></extensions></trkpt>
      <trkpt lon="-3.320768" lat="54.545839"><ele>283.498566</ele><time>2021-08-12T11:23:27Z</time><extensions><speed>1.481846</speed><course>40.176819</course><hAcc>0.881636</hAcc><vAcc>0.706130</vAcc></extensions></trkpt>
      <trkpt lon="-3.320751" lat="54.545847"><ele>283.668457</ele><time>2021-08-12T11:23:28Z</time><extensions><speed>1.478490</speed><course>42.588684</course><hAcc>0.881937</hAcc><vAcc>0.707292</vAcc></extensions></trkpt>
      <trkpt lon="-3.320734" lat="54.545856"><ele>283.836090</ele><time>2021-08-12T11:23:29Z</time><extensions><speed>1.470913</speed><course>41.771687</course><hAcc>0.882238</hAcc><vAcc>0.708438</vAcc></extensions></trkpt>
      <trkpt lon="-3.320717" lat="54.545865"><ele>284.001038</ele><time>2021-08-12T11:23:30Z</time><extensions><speed>1.459687</speed><course>41.372017</course><hAcc>0.882531</hAcc><vAcc>0.709545</vAcc></extensions></trkpt>
      <trkpt lon="-3.320700" lat="54.545873"><ele>284.163239</ele><time>2021-08-12T11:23:31Z</time><extensions><speed>1.445037</speed><course>37.017429</course><hAcc>0.882809</hAcc><vAcc>0.710595</vAcc></extensions></trkpt>
      <trkpt lon="-3.320683" lat="54.545882"><ele>284.323029</ele><time>2021-08-12T11:23:32Z</time><extensions><speed>1.427151</speed><course>28.588495</course><hAcc>0.883067</hAcc><vAcc>0.711569</vAcc></extensions></trkpt>
      <trkpt lon="-3.320667" lat="54.545890"><ele>284.480682</ele><time>2021-08-12T11:23:33Z</time><extensions><speed>1.405767</speed><course>39.512306</course><hAcc>0.883300</hAcc><vAcc>0.712453</vAcc></extensions></trkpt>
      <trkpt lon="-3.320651" lat="54.545899"><ele>284.636200</ele><time>2021-08-12T11:23:34Z</time><extensions><speed>1.381191</speed><course>38.955353</course><hAcc>0.883505</hAcc><vAcc>0.713231</vAcc></extensions></trkpt>
      <trkpt lon="-3.320635" lat="54.545907"><ele>284.789581</ele><time>2021-08-12T11:23:35Z</time><extensions><speed>1.354408</speed><course>35.270641</course><hAcc>0.883678</hAcc><vAcc>0.713889</vAcc></extensions></trkpt>
      <trkpt lon="-3.320620" lat="54.545915"><ele>284.940765</ele><time>2021-08-12T11:23:36Z</time><extensions><speed>1.326392</speed><course>38.302330</course><hAcc>0.883819</hAcc><vAcc>0.714418</vAcc></extensions></trkpt>
      <trkpt lon="-3.320605" lat="54.545923"><ele>285.090149</ele><time>2021-08-12T11:23:37Z</time><extensions><speed>1.297693</speed><course>40.976086</course><hAcc>0.883926</hAcc><vAcc>0.714812</vAcc></extensions></trkpt>
      <trkpt lon="-3.320591" lat="54.545931"><ele>285.238647</ele><time>2021-08-12T11:23:38Z</time><extensions><speed>1.268432</speed><course>40.718147</course><hAcc>0.883999</hAcc><vAcc>0.715071</vAcc></extensions></trkpt>
      <trkpt lon="-3.320577" lat="54.545939"><ele>285.387329</ele><time>2021-08-12T11:23:39Z</time><extensions><speed>1.239204</speed><course>40.437557</course><hAcc>0.884040</hAcc><vAcc>0.715197</vAcc></extensions></trkpt>
      <trkpt lon="-3.320563" lat="54.545947"><ele>285.537048</ele><time>2021-08-12T11:23:40Z</time><extensions><speed>1.211040</speed><course>38.315979</course><hAcc>0.884052</hAcc><vAcc>0.715194</vAcc></extensions></trkpt>
      <trkpt lon="-3.320550" lat="54.545954"><ele>285.688232</ele><time>2021-08-12T11:23:41Z</time><extensions><speed>1.184942</speed><course>28.668550</course><hAcc>0.884037</hAcc><vAcc>0.715075</vAcc></extensions></trkpt>
      <trkpt lon="-3.320537" lat="54.545961"><ele>285.841217</ele><time>2021-08-12T11:23:42Z</time><extensions><speed>1.161379</speed><course>31.392698</course><hAcc>0.883998</hAcc><vAcc>0.714859</vAcc></extensions></trkpt>
      <trkpt lon="-3.320524" lat="54.545969"><ele>285.996429</ele><time>2021-08-12T11:23:43Z</time><extensions><speed>1.139850</speed><course>32.848076</course><hAcc>0.883940</hAcc><vAcc>0.714570</vAcc></extensions></trkpt>
      <trkpt lon="-3.320512" lat="54.545976"><ele>286.154510</ele><time>2021-08-12T11:23:44Z</time><extensions><speed>1.119829</speed><course>38.096359</course><hAcc>0.883866</hAcc><vAcc>0.714232</vAcc></extensions></trkpt>
      <trkpt lon="-3.320499" lat="54.545983"><ele>286.316437</ele><time>2021-08-12T11:23:45Z</time><extensions><speed>1.100993</speed><course>27.737675</course><hAcc>0.883781</hAcc><vAcc>0.713867</vAcc></extensions></trkpt>
      <trkpt lon="-3.320487" lat="54.545990"><ele>286.483429</ele><time>2021-08-12T11:23:46Z</time><extensions><speed>1.083186</speed><course>38.820049</course><hAcc>0.883688</hAcc><vAcc>0.713490</vAcc></extensions></trkpt>
      <trkpt lon="-3.320476" lat="54.545996"><ele>286.656342</ele><time>2021-08-12T11:23:47Z</time><extensions><speed>1.067046</speed><course>40.137299</course><hAcc>0.883591</hAcc><vAcc>0.713115</vAcc></extensions></trkpt>
      <trkpt lon="-3.320464" lat="54.546003"><ele>286.835449</ele><time>2021-08-12T11:23:48Z</time><extensions><speed>1.053539</speed><course>44.560421</course><hAcc>0.883495</hAcc><vAcc>0.712748</vAcc></extensions></trkpt>
      <trkpt lon="-3.320452" lat="54.546010"><ele>287.020508</ele><time>2021-08-12T11:23:49Z</time><extensions><speed>1.042536</speed><course>41.574787</course><hAcc>0.883401</hAcc><vAcc>0.712396</vAcc></extensions></trkpt>
      <trkpt lon="-3.320441" lat="54.546016"><ele>287.210938</ele><time>2021-08-12T11:23:50Z</time><extensions><speed>1.033759</speed><course>37.402897</course><hAcc>0.883313</hAcc><vAcc>0.712063</vAcc></extensions></trkpt>
      <trkpt lon="-3.320430" lat="54.546023"><ele>287.405548</ele><time>2021-08-12T11:23:51Z</time><extensions><speed>1.027482</speed><course>38.445354</course><hAcc>0.883233</hAcc><vAcc>0.711754</vAcc></extensions></trkpt>
      <trkpt lon="-3.320418" lat="54.546029"><ele>287.602783</ele><time>2021-08-12T11:23:52Z</time><extensions><speed>1.023984</speed><course>32.932274</course><hAcc>0.883163</hAcc><vAcc>0.711475</vAcc></extensions></trkpt>
      <trkpt lon="-3.320407" lat="54.546035"><ele>287.800964</ele><time>2021-08-12T11:23:53Z</time><extensions><speed>1.023595</speed><course>27.701353</course><hAcc>0.883103</hAcc><vAcc>0.711234</vAcc></extensions></trkpt>
      <trkpt lon="-3.320395" lat="54.546042"><ele>287.998627</ele><time>2021-08-12T11:23:54Z</time><extensions><speed>1.025904</speed><course>28.233585</course><hAcc>0.883054</hAcc><vAcc>0.711041</vAcc></extensions></trkpt>
      <trkpt lon="-3.320383" lat="54.546048"><ele>288.194519</ele><time>2021-08-12T11:23:55Z</time><extensions><speed>1.030094</speed><course>30.003765</course><hAcc>0.883016</hAcc><vAcc>0.710899</vAcc></extensions></trkpt>
      <trkpt lon="-3.320372" lat="54.546054"><ele>288.387451</ele><time>2021-08-12T11:23:56Z</time><extensions><speed>1.035789</speed><course>35.586266</course><hAcc>0.882989</hAcc><vAcc>0.710812</vAcc></extensions></trkpt>
      <trkpt lon="-3.320359" lat="54.546060"><ele>288.576477</ele><time>2021-08-12T11:23:57Z</time><extensions><speed>1.042635</speed><course>41.034397</course><hAcc>0.882971</hAcc><vAcc>0.710775</vAcc></extensions></trkpt>
      <trkpt lon="-3.320347" lat="54.546066"><ele>288.760742</ele><time>2021-08-12T11:23:58Z</time><extensions><speed>1.050193</speed><course>43.040592</course><hAcc>0.882962</hAcc><vAcc>0.710779</vAcc></extensions></trkpt>
      <trkpt lon="-3.320335" lat="54.546073"><ele>288.939545</ele><time>2021-08-12T11:23:59Z</time><extensions><speed>1.058371</speed><course>49.550934</course><hAcc>0.882959</hAcc><vAcc>0.710812</vAcc></extensions></trkpt>
      <trkpt lon="-3.320322" lat="54.546079"><ele>289.112366</ele><time>2021-08-12T11:24:00Z</time><extensions><speed>1.066563</speed><course>62.069283</course><hAcc>0.882961</hAcc><vAcc>0.710857</vAcc></extensions></trkpt>
      <trkpt lon="-3.320310" lat="54.546085"><ele>289.279205</ele><time>2021-08-12T11:24:01Z</time><extensions><speed>1.073792</speed><course>68.512573</course><hAcc>0.882967</hAcc><vAcc>0.710903</vAcc></extensions></trkpt>
      <trkpt lon="-3.320297" lat="54.546091"><ele>289.440155</ele><time>2021-08-12T11:24:02Z</time><extensions><speed>1.079613</speed><course>76.544746</course><hAcc>0.882974</hAcc><vAcc>0.710939</vAcc></extensions></trkpt>
      <trkpt lon="-3.320284" lat="54.546097"><ele>289.594940</ele><time>2021-08-12T11:24:03Z</time><extensions><speed>1.083995</speed><course>91.471558</course><hAcc>0.882982</hAcc><vAcc>0.710966</vAcc></extensions></trkpt>
      <trkpt lon="-3.320271" lat="54.546103"><ele>289.742706</ele><time>2021-08-12T11:24:04Z</time><extensions><speed>1.087204</speed><course>103.707001</course><hAcc>0.882988</hAcc><vAcc>0.710983</vAcc></extensions></trkpt>
      <trkpt lon="-3.320257" lat="54.546109"><ele>289.882294</ele><time>2021-08-12T11:24:05Z</time><extensions><speed>1.089346</speed><course>102.240677</course><hAcc>0.882992</hAcc><vAcc>0.710993</vAcc></extensions></trkpt>
      <trkpt lon="-3.320244" lat="54.546115"><ele>290.013092</ele><time>2021-08-12T11:24:06Z</time><extensions><speed>1.090077</speed><course>109.008522</course><hAcc>0.882993</hAcc><vAcc>0.710996</vAcc></extensions></trkpt>
      <trkpt lon="-3.320231" lat="54.546121"><ele>290.135468</ele><time>2021-08-12T11:24:07Z</time><extensions><speed>1.088892</speed><course>120.687057</course><hAcc>0.882991</hAcc><vAcc>0.710993</vAcc></extensions></trkpt>
      <trkpt lon="-3.320217" lat="54.546127"><ele>290.249908</ele><time>2021-08-12T11:24:08Z</time><extensions><speed>1.085445</speed><course>122.518364</course><hAcc>0.882987</hAcc><vAcc>0.710981</vAcc></extensions></trkpt>
      <trkpt lon="-3.320203" lat="54.546132"><ele>290.355743</ele><time>2021-08-12T11:24:09Z</time><extensions><speed>1.080663</speed><course>116.435341</course><hAcc>0.882980</hAcc><vAcc>0.710958</vAcc></extensions></trkpt>
      <trkpt lon="-3.320189" lat="54.546138"><ele>290.452087</ele><time>2021-08-12T11:24:10Z</time><extensions><speed>1.075881</speed><course>123.806564</course><hAcc>0.882972</hAcc><vAcc>0.710922</vAcc></extensions></trkpt>
      <trkpt lon="-3.320176" lat="54.546143"><ele>290.538666</ele><time>2021-08-12T11:24:11Z</time><extensions><speed>1.072001</speed><course>121.279266</course><hAcc>0.882964</hAcc><vAcc>0.710878</vAcc></extensions></trkpt>
      <trkpt lon="-3.320162" lat="54.546148"><ele>290.615417</ele><time>2021-08-12T11:24:12Z</time><extensions><speed>1.069710</speed><course>122.295830</course><hAcc>0.882955</hAcc><vAcc>0.710828</vAcc></extensions></trkpt>
      <trkpt lon="-3.320147" lat="54.546153"><ele>290.682556</ele><time>2021-08-12T11:24:13Z</time><extensions><speed>1.069520</speed><course>116.485687</course><hAcc>0.882949</hAcc><vAcc>0.710782</vAcc></extensions></trkpt>
      <trkpt lon="-3.320133" lat="54.546158"><ele>290.740479</ele><time>2021-08-12T11:24:14Z</time><extensions><speed>1.071495</speed><course>120.837761</course><hAcc>0.882945</hAcc><vAcc>0.710745</vAcc></extensions></trkpt>
      <trkpt lon="-3.320119" lat="54.546163"><ele>290.790100</ele><time>2021-08-12T11:24:15Z</time><extensions><speed>1.075816</speed><course>121.691162</course><hAcc>0.882944</hAcc><vAcc>0.710726</vAcc></extensions></trkpt>
      <trkpt lon="-3.320104" lat="54.546167"><ele>290.833130</ele><time>2021-08-12T11:24:16Z</time><extensions><speed>1.082647</speed><course>120.429344</course><hAcc>0.882949</hAcc><vAcc>0.710730</vAcc></extensions></trkpt>
      <trkpt lon="-3.320089" lat="54.546172"><ele>290.871887</ele><time>2021-08-12T11:24:17Z</time><extensions><speed>1.091545</speed><course>127.922836</course><hAcc>0.882959</hAcc><vAcc>0.710762</vAcc></extensions></trkpt>
      <trkpt lon="-3.320074" lat="54.546176"><ele>290.909271</ele><time>2021-08-12T11:24:18Z</time><extensions><speed>1.102121</speed><course>122.773224</course><hAcc>0.882974</hAcc><vAcc>0.710822</vAcc></extensions></trkpt>
      <trkpt lon="-3.320059" lat="54.546181"><ele>290.948334</ele><time>2021-08-12T11:24:19Z</time><extensions><speed>1.113884</speed><course>127.410233</course><hAcc>0.882997</hAcc><vAcc>0.710907</vAcc></extensions></trkpt>
      <trkpt lon="-3.320043" lat="54.546185"><ele>290.991638</ele><time>2021-08-12T11:24:20Z</time><extensions><speed>1.126316</speed><course>126.293243</course><hAcc>0.883025</hAcc><vAcc>0.711015</vAcc></extensions></trkpt>
      <trkpt lon="-3.320027" lat="54.546189"><ele>291.040466</ele><time>2021-08-12T11:24:21Z</time><extensions><speed>1.138973</speed><course>113.773628</course><hAcc>0.883059</hAcc><vAcc>0.711143</vAcc></extensions></trkpt>
      <trkpt lon="-3.320011" lat="54.546194"><ele>291.095520</ele><time>2021-08-12T11:24:22Z</time><extensions><speed>1.151957</speed><course>111.597641</course><hAcc>0.883098</hAcc><vAcc>0.711293</vAcc></extensions></trkpt>
      <trkpt lon="-3.319995" lat="54.546198"><ele>291.156982</ele><time>2021-08-12T11:24:23Z</time><extensions><speed>1.165290</speed><course>118.242065</course><hAcc>0.883139</hAcc><vAcc>0.711462</vAcc></extensions></trkpt>
      <trkpt lon="-3.319978" lat="54.546202"><ele>291.224854</ele><time>2021-08-12T11:24:24Z</time><extensions><speed>1.178521</speed><course>121.318916</course><hAcc>0.883183</hAcc><vAcc>0.711647</vAcc></extensions></trkpt>
      <trkpt lon="-3.319961" lat="54.546206"><ele>291.299103</ele><time>2021-08-12T11:24:25Z</time><extensions><speed>1.190987</speed><course>126.571838</course><hAcc>0.883226</hAcc><vAcc>0.711841</vAcc></extensions></trkpt>
      <trkpt lon="-3.319944" lat="54.546211"><ele>291.379883</ele><time>2021-08-12T11:24:26Z</time><extensions><speed>1.201599</speed><course>116.053932</course><hAcc>0.883268</hAcc><vAcc>0.712029</vAcc></extensions></trkpt>
      <trkpt lon="-3.319928" lat="54.546215"><ele>291.467133</ele><time>2021-08-12T11:24:27Z</time><extensions><speed>1.209451</speed><course>122.553452</course><hAcc>0.883307</hAcc><vAcc>0.712200</vAcc></extensions></trkpt>
      <trkpt lon="-3.319911" lat="54.546220"><ele>291.560760</ele><time>2021-08-12T11:24:28Z</time><extensions><speed>1.214302</speed><course>115.362396</course><hAcc>0.883342</hAcc><vAcc>0.712341</vAcc></extensions></trkpt>
      <trkpt lon="-3.319894" lat="54.546225"><ele>291.660339</ele><time>2021-08-12T11:24:29Z</time><extensions><speed>1.216403</speed><course>120.016403</course><hAcc>0.883372</hAcc><vAcc>0.712452</vAcc></extensions></trkpt>
      <trkpt lon="-3.319878" lat="54.546230"><ele>291.765442</ele><time>2021-08-12T11:24:30Z</time><extensions><speed>1.215861</speed><course>131.521149</course><hAcc>0.883396</hAcc><vAcc>0.712532</vAcc></extensions></trkpt>
      <trkpt lon="-3.319861" lat="54.546236"><ele>291.875946</ele><time>2021-08-12T11:24:31Z</time><extensions><speed>1.213366</speed><course>124.976143</course><hAcc>0.883415</hAcc><vAcc>0.712586</vAcc></extensions></trkpt>
      <trkpt lon="-3.319845" lat="54.546242"><ele>291.992004</ele><time>2021-08-12T11:24:32Z</time><extensions><speed>1.210235</speed><course>123.546791</course><hAcc>0.883427</hAcc><vAcc>0.712615</vAcc></extensions></trkpt>
      <trkpt lon="-3.319830" lat="54.546248"><ele>292.114166</ele><time>2021-08-12T11:24:33Z</time><extensions><speed>1.207909</speed><course>116.699699</course><hAcc>0.883435</hAcc><vAcc>0.712624</vAcc></extensions></trkpt>
      <trkpt lon="-3.319815" lat="54.546254"><ele>292.242798</ele><time>2021-08-12T11:24:34Z</time><extensions><speed>1.207569</speed><course>112.924561</course><hAcc>0.883440</hAcc><vAcc>0.712620</vAcc></extensions></trkpt>
      <trkpt lon="-3.319800" lat="54.546261"><ele>292.377716</ele><time>2021-08-12T11:24:35Z</time><extensions><speed>1.209719</speed><course>117.858780</course><hAcc>0.883442</hAcc><vAcc>0.712608</vAcc></extensions></trkpt>
      <trkpt lon="-3.319786" lat="54.546268"><ele>292.517883</ele><time>2021-08-12T11:24:36Z</time><extensions><speed>1.214420</speed><course>111.630035</course><hAcc>0.883443</hAcc><vAcc>0.712593</vAcc></extensions></trkpt>
      <trkpt lon="-3.319772" lat="54.546275"><ele>292.661713</ele><time>2021-08-12T11:24:37Z</time><extensions><speed>1.221203</speed><course>115.453979</course><hAcc>0.883445</hAcc><vAcc>0.712582</vAcc></extensions></trkpt>
      <trkpt lon="-3.319759" lat="54.546283"><ele>292.807678</ele><time>2021-08-12T11:24:38Z</time><extensions><speed>1.229441</speed><course>108.625862</course><hAcc>0.883450</hAcc><vAcc>0.712581</vAcc></extensions></trkpt>
      <trkpt lon="-3.319746" lat="54.546291"><ele>292.954498</ele><time>2021-08-12T11:24:39Z</time><extensions><speed>1.238828</speed><course>116.435417</course><hAcc>0.883459</hAcc><vAcc>0.712595</vAcc></extensions></trkpt>
      <trkpt lon="-3.319733" lat="54.546300"><ele>293.101105</ele><time>2021-08-12T11:24:40Z</time><extensions><speed>1.249287</speed><course>112.323517</course><hAcc>0.883472</hAcc><vAcc>0.712632</vAcc></extensions></trkpt>
      <trkpt lon="-3.319721" lat="54.546308"><ele>293.246368</ele><time>2021-08-12T11:24:41Z</time><extensions><speed>1.260648</speed><course>117.491661</course><hAcc>0.883490</hAcc><vAcc>0.712694</vAcc></extensions></trkpt>
      <trkpt lon="-3.319709" lat="54.546317"><ele>293.389648</ele><time>2021-08-12T11:24:42Z</time><extensions><speed>1.272116</speed><course>120.293846</course><hAcc>0.883514</hAcc><vAcc>0.712785</vAcc></extensions></trkpt>
      <trkpt lon="-3.319697" lat="54.546327"><ele>293.530670</ele><time>2021-08-12T11:24:43Z</time><extensions><speed>1.282754</speed><course>115.591873</course><hAcc>0.883542</hAcc><vAcc>0.712902</vAcc></extensions></trkpt>
      <trkpt lon="-3.319686" lat="54.546336"><ele>293.669617</ele><time>2021-08-12T11:24:44Z</time><extensions><speed>1.292164</speed><course>116.468712</course><hAcc>0.883575</hAcc><vAcc>0.713041</vAcc></extensions></trkpt>
      <trkpt lon="-3.319675" lat="54.546346"><ele>293.807220</ele><time>2021-08-12T11:24:45Z</time><extensions><speed>1.300136</speed><course>116.627220</course><hAcc>0.883611</hAcc><vAcc>0.713193</vAcc></extensions></trkpt>
      <trkpt lon="-3.319664" lat="54.546356"><ele>293.944946</ele><time>2021-08-12T11:24:46Z</time><extensions><speed>1.306221</speed><course>115.487846</course><hAcc>0.883648</hAcc><vAcc>0.713350</vAcc></extensions></trkpt>
      <trkpt lon="-3.319653" lat="54.546365"><ele>294.084473</ele><time>2021-08-12T11:24:47Z</time><extensions><speed>1.309299</speed><course>110.303284</course><hAcc>0.883684</hAcc><vAcc>0.713504</vAcc></extensions></trkpt>
      <trkpt lon="-3.319642" lat="54.546375"><ele>294.227203</ele><time>2021-08-12T11:24:48Z</time><extensions><speed>1.308018</speed><course>107.900200</course><hAcc>0.883715</hAcc><vAcc>0.713650</vAcc></extensions></trkpt>
      <trkpt lon="-3.319631" lat="54.546385"><ele>294.374481</ele><time>2021-08-12T11:24:49Z</time><extensions><speed>1.301937</speed><course>104.901772</course><hAcc>0.883738</hAcc><vAcc>0.713775</vAcc></extensions></trkpt>
      <trkpt lon="-3.319620" lat="54.546395"><ele>294.527527</ele><time>2021-08-12T11:24:50Z</time><extensions><speed>1.291241</speed><course>102.625549</course><hAcc>0.883749</hAcc><vAcc>0.713864</vAcc></extensions></trkpt>
      <trkpt lon="-3.319609" lat="54.546405"><ele>294.687469</ele><time>2021-08-12T11:24:51Z</time><extensions><speed>1.276365</speed><course>101.615082</course><hAcc>0.883745</hAcc><vAcc>0.713899</vAcc></extensions></trkpt>
      <trkpt lon="-3.319598" lat="54.546414"><ele>294.855103</ele><time>2021-08-12T11:24:52Z</time><extensions><speed>1.257737</speed><course>104.820312</course><hAcc>0.883720</hAcc><vAcc>0.713867</vAcc></extensions></trkpt>
      <trkpt lon="-3.319587" lat="54.546423"><ele>295.030945</ele><time>2021-08-12T11:24:53Z</time><extensions><speed>1.235256</speed><course>97.837166</course><hAcc>0.883671</hAcc><vAcc>0.713754</vAcc></extensions></trkpt>
      <trkpt lon="-3.319577" lat="54.546432"><ele>295.215179</ele><time>2021-08-12T11:24:54Z</time><extensions><speed>1.208952</speed><course>99.518051</course><hAcc>0.883594</hAcc><vAcc>0.713546</vAcc></extensions></trkpt>
      <trkpt lon="-3.319566" lat="54.546441"><ele>295.407318</ele><time>2021-08-12T11:24:55Z</time><extensions><speed>1.179207</speed><course>105.468117</course><hAcc>0.883487</hAcc><vAcc>0.713228</vAcc></extensions></trkpt>
      <trkpt lon="-3.319554" lat="54.546449"><ele>295.605988</ele><time>2021-08-12T11:24:56Z</time><extensions><speed>1.146213</speed><course>105.021729</course><hAcc>0.883350</hAcc><vAcc>0.712781</vAcc></extensions></trkpt>
      <trkpt lon="-3.319543" lat="54.546457"><ele>295.809052</ele><time>2021-08-12T11:24:57Z</time><extensions><speed>1.110464</speed><course>105.854553</course><hAcc>0.883182</hAcc><vAcc>0.712195</vAcc></extensions></trkpt>
      <trkpt lon="-3.319532" lat="54.546464"><ele>296.014252</ele><time>2021-08-12T11:24:58Z</time><extensions><speed>1.072993</speed><course>116.038353</course><hAcc>0.882989</hAcc><vAcc>0.711463</vAcc></extensions></trkpt>
      <trkpt lon="-3.319521" lat="54.546471"><ele>296.219086</ele><time>2021-08-12T11:24:59Z</time><extensions><speed>1.034956</speed><course>116.622620</course><hAcc>0.882774</hAcc><vAcc>0.710600</vAcc></extensions></trkpt>
      <trkpt lon="-3.319511" lat="54.546478"><ele>296.420837</ele><time>2021-08-12T11:25:00Z</time><extensions><speed>0.997598</speed><course>116.023415</course><hAcc>0.882544</hAcc><vAcc>0.709637</vAcc></extensions></trkpt>
      <trkpt lon="-3.319500" lat="54.546484"><ele>296.617188</ele><time>2021-08-12T11:25:01Z</time><extensions><speed>0.961996</speed><course>111.053482</course><hAcc>0.882307</hAcc><vAcc>0.708619</vAcc></extensions></trkpt>
      <trkpt lon="-3.319489" lat="54.546490"><ele>296.806305</ele><time>2021-08-12T11:25:02Z</time><extensions><speed>0.928951</speed><course>109.683617</course><hAcc>0.882071</hAcc><vAcc>0.707600</vAcc></extensions></trkpt>
      <trkpt lon="-3.319478" lat="54.546495"><ele>296.986572</ele><time>2021-08-12T11:25:03Z</time><extensions><speed>0.899177</speed><course>107.838440</course><hAcc>0.881846</hAcc><vAcc>0.706633</vAcc></extensions></trkpt>
      <trkpt lon="-3.319467" lat="54.546500"><ele>297.156525</ele><time>2021-08-12T11:25:04Z</time><extensions><speed>0.873409</speed><course>110.196930</course><hAcc>0.881641</hAcc><vAcc>0.705765</vAcc></extensions></trkpt>
      <trkpt lon="-3.319457" lat="54.546505"><ele>297.315094</ele><time>2021-08-12T11:25:05Z</time><extensions><speed>0.851941</speed><course>111.548782</course><hAcc>0.881465</hAcc><vAcc>0.705034</vAcc></extensions></trkpt>
      <trkpt lon="-3.319446" lat="54.546509"><ele>297.461548</ele><time>2021-08-12T11:25:06Z</time><extensions><speed>0.834956</speed><course>110.420074</course><hAcc>0.881324</hAcc><vAcc>0.704465</vAcc></extensions></trkpt>
      <trkpt lon="-3.319435" lat="54.546513"><ele>297.595398</ele><time>2021-08-12T11:25:07Z</time><extensions><speed>0.822648</speed><course>99.619576</course><hAcc>0.881224</hAcc><vAcc>0.704075</vAcc></extensions></trkpt>
      <trkpt lon="-3.319424" lat="54.546516"><ele>297.715942</ele><time>2021-08-12T11:25:08Z</time><extensions><speed>0.815197</speed><course>107.102882</course><hAcc>0.881169</hAcc><vAcc>0.703873</vAcc></extensions></trkpt>
      <trkpt lon="-3.319413" lat="54.546520"><ele>297.822601</ele><time>2021-08-12T11:25:09Z</time><extensions><speed>0.812466</speed><course>98.831825</course><hAcc>0.881158</hAcc><vAcc>0.703859</vAcc></extensions></trkpt>
      <trkpt lon="-3.319402" lat="54.546523"><ele>297.914795</ele><time>2021-08-12T11:25:10Z</time><extensions><speed>0.813675</speed><course>99.864403</course><hAcc>0.881190</hAcc><vAcc>0.704024</vAcc></extensions></trkpt>
      <trkpt lon="-3.319390" lat="54.546526"><ele>297.992218</ele><time>2021-08-12T11:25:11Z</time><extensions><speed>0.818000</speed><course>99.165215</course><hAcc>0.881263</hAcc><vAcc>0.704354</vAcc></extensions></trkpt>
      <trkpt lon="-3.319379" lat="54.546529"><ele>298.054901</ele><time>2021-08-12T11:25:12Z</time><extensions><speed>0.824940</speed><course>106.876038</course><hAcc>0.881371</hAcc><vAcc>0.704827</vAcc></extensions></trkpt>
      <trkpt lon="-3.319367" lat="54.546532"><ele>298.103180</ele><time>2021-08-12T11:25:13Z</time><extensions><speed>0.834002</speed><course>100.224144</course><hAcc>0.881507</hAcc><vAcc>0.705415</vAcc></extensions></trkpt>
      <trkpt lon="-3.319355" lat="54.546535"><ele>298.137421</ele><time>2021-08-12T11:25:14Z</time><extensions><speed>0.844207</speed><course>97.870438</course><hAcc>0.881665</hAcc><vAcc>0.706090</vAcc></extensions></trkpt>
      <trkpt lon="-3.319343" lat="54.546538"><ele>298.157928</ele><time>2021-08-12T11:25:15Z</time><extensions><speed>0.854994</speed><course>109.047302</course><hAcc>0.881838</hAcc><vAcc>0.706817</vAcc></extensions></trkpt>
      <trkpt lon="-3.319331" lat="54.546542"><ele>298.165161</ele><time>2021-08-12T11:25:16Z</time><extensions><speed>0.866725</speed><course>111.386711</course><hAcc>0.882018</hAcc><vAcc>0.707563</vAcc></extensions></trkpt>
      <trkpt lon="-3.319319" lat="54.546545"><ele>298.159668</ele><time>2021-08-12T11:25:17Z</time><extensions><speed>0.880187</speed><course>110.131767</course><hAcc>0.882200</hAcc><vAcc>0.708295</vAcc></extensions></trkpt>
      <trkpt lon="-3.319307" lat="54.546549"><ele>298.141632</ele><time>2021-08-12T11:25:18Z</time><extensions><speed>0.896037</speed><course>109.748413</course><hAcc>0.882379</hAcc><vAcc>0.708986</vAcc></extensions></trkpt>
      <trkpt lon="-3.319295" lat="54.546553"><ele>298.111084</ele><time>2021-08-12T11:25:19Z</time><extensions><speed>0.914571</speed><course>116.453705</course><hAcc>0.882551</hAcc><vAcc>0.709619</vAcc></extensions></trkpt>
      <trkpt lon="-3.319283" lat="54.546558"><ele>298.068604</ele><time>2021-08-12T11:25:20Z</time><extensions><speed>0.935725</speed><course>111.019348</course><hAcc>0.882715</hAcc><vAcc>0.710186</vAcc></extensions></trkpt>
      <trkpt lon="-3.319271" lat="54.546563"><ele>298.016144</ele><time>2021-08-12T11:25:21Z</time><extensions><speed>0.959195</speed><course>106.996025</course><hAcc>0.882869</hAcc><vAcc>0.710692</vAcc></extensions></trkpt>
      <trkpt lon="-3.319259" lat="54.546568"><ele>297.957092</ele><time>2021-08-12T11:25:22Z</time><extensions><speed>0.984460</speed><course>104.594215</course><hAcc>0.883014</hAcc><vAcc>0.711151</vAcc></extensions></trkpt>
      <trkpt lon="-3.319247" lat="54.546574"><ele>297.895752</ele><time>2021-08-12T11:25:23Z</time><extensions><speed>1.010620</speed><course>101.351479</course><hAcc>0.883151</hAcc><vAcc>0.711581</vAcc></extensions></trkpt>
      <trkpt lon="-3.319235" lat="54.546579"><ele>297.836365</ele><time>2021-08-12T11:25:24Z</time><extensions><speed>1.036752</speed><course>105.952332</course><hAcc>0.883281</hAcc><vAcc>0.712001</vAcc></extensions></trkpt>
      <trkpt lon="-3.319222" lat="54.546585"><ele>297.782318</ele><time>2021-08-12T11:25:25Z</time><extensions><speed>1.062027</speed><course>113.138412</course><hAcc>0.883407</hAcc><vAcc>0.712427</vAcc></extensions></trkpt>
      <trkpt lon="-3.319209" lat="54.546591"><ele>297.736420</ele><time>2021-08-12T11:25:26Z</time><extensions><speed>1.086743</speed><course>112.944946</course><hAcc>0.883531</hAcc><vAcc>0.712865</vAcc></extensions></trkpt>
      <trkpt lon="-3.319195" lat="54.546597"><ele>297.700409</ele><time>2021-08-12T11:25:27Z</time><extensions><speed>1.112125</speed><course>108.292221</course><hAcc>0.883653</hAcc><vAcc>0.713316</vAcc></extensions></trkpt>
      <trkpt lon="-3.319181" lat="54.546603"><ele>297.675049</ele><time>2021-08-12T11:25:28Z</time><extensions><speed>1.139055</speed><course>108.436562</course><hAcc>0.883774</hAcc><vAcc>0.713776</vAcc></extensions></trkpt>
      <trkpt lon="-3.319166" lat="54.546608"><ele>297.660645</ele><time>2021-08-12T11:25:29Z</time><extensions><speed>1.167649</speed><course>102.445824</course><hAcc>0.883894</hAcc><vAcc>0.714240</vAcc></extensions></trkpt>
      <trkpt lon="-3.319150" lat="54.546614"><ele>297.657104</ele><time>2021-08-12T11:25:30Z</time><extensions><speed>1.196976</speed><course>99.628555</course><hAcc>0.884012</hAcc><vAcc>0.714703</vAcc></extensions></trkpt>
      <trkpt lon="-3.319134" lat="54.546619"><ele>297.663757</ele><time>2021-08-12T11:25:31Z</time><extensions><speed>1.225119</speed><course>103.656601</course><hAcc>0.884127</hAcc><vAcc>0.715159</vAcc></extensions></trkpt>
      <trkpt lon="-3.319117" lat="54.546624"><ele>297.679657</ele><time>2021-08-12T11:25:32Z</time><extensions><speed>1.249955</speed><course>97.309608</course><hAcc>0.884236</hAcc><vAcc>0.715598</vAcc></extensions></trkpt>
      <trkpt lon="-3.319099" lat="54.546629"><ele>297.703857</ele><time>2021-08-12T11:25:33Z</time><extensions><speed>1.270509</speed><course>95.308922</course><hAcc>0.884338</hAcc><vAcc>0.716010</vAcc></extensions></trkpt>
      <trkpt lon="-3.319081" lat="54.546634"><ele>297.735596</ele><time>2021-08-12T11:25:34Z</time><extensions><speed>1.286865</speed><course>105.665154</course><hAcc>0.884433</hAcc><vAcc>0.716383</vAcc></extensions></trkpt>
      <trkpt lon="-3.319063" lat="54.546639"><ele>297.774292</ele><time>2021-08-12T11:25:35Z</time><extensions><speed>1.299278</speed><course>120.238884</course><hAcc>0.884518</hAcc><vAcc>0.716710</vAcc></extensions></trkpt>
      <trkpt lon="-3.319045" lat="54.546643"><ele>297.819916</ele><time>2021-08-12T11:25:36Z</time><extensions><speed>1.307879</speed><course>108.474937</course><hAcc>0.884594</hAcc><vAcc>0.716985</vAcc></extensions></trkpt>
      <trkpt lon="-3.319026" lat="54.546648"><ele>297.872467</ele><time>2021-08-12T11:25:37Z</time><extensions><speed>1.312931</speed><course>104.059807</course><hAcc>0.884661</hAcc><vAcc>0.717209</vAcc></extensions></trkpt>
      <trkpt lon="-3.319008" lat="54.546653"><ele>297.931885</ele><time>2021-08-12T11:25:38Z</time><extensions><speed>1.314932</speed><course>102.572708</course><hAcc>0.884720</hAcc><vAcc>0.717385</vAcc></extensions></trkpt>
      <trkpt lon="-3.318989" lat="54.546658"><ele>297.997467</ele><time>2021-08-12T11:25:39Z</time><extensions><speed>1.314278</speed><course>107.161850</course><hAcc>0.884771</hAcc><vAcc>0.717521</vAcc></extensions></trkpt>
      <trkpt lon="-3.318971" lat="54.546663"><ele>298.068176</ele><time>2021-08-12T11:25:40Z</time><extensions><speed>1.311181</speed><course>105.046165</course><hAcc>0.884817</hAcc><vAcc>0.717632</vAcc></extensions></trkpt>
      <trkpt lon="-3.318953" lat="54.546669"><ele>298.142822</ele><time>2021-08-12T11:25:41Z</time><extensions><speed>1.305909</speed><course>107.406158</course><hAcc>0.884858</hAcc><vAcc>0.717731</vAcc></extensions></trkpt>
      <trkpt lon="-3.318935" lat="54.546674"><ele>298.220184</ele><time>2021-08-12T11:25:42Z</time><extensions><speed>1.299029</speed><course>115.429123</course><hAcc>0.884895</hAcc><vAcc>0.717833</vAcc></extensions></trkpt>
      <trkpt lon="-3.318917" lat="54.546679"><ele>298.299133</ele><time>2021-08-12T11:25:43Z</time><extensions><speed>1.291505</speed><course>116.147835</course><hAcc>0.884930</hAcc><vAcc>0.717948</vAcc></extensions></trkpt>
      <trkpt lon="-3.318900" lat="54.546685"><ele>298.379028</ele><time>2021-08-12T11:25:44Z</time><extensions><speed>1.283695</speed><course>117.699570</course><hAcc>0.884964</hAcc><vAcc>0.718079</vAcc></extensions></trkpt>
      <trkpt lon="-3.318882" lat="54.546690"><ele>298.460358</ele><time>2021-08-12T11:25:45Z</time><extensions><speed>1.275616</speed><course>118.218575</course><hAcc>0.884997</hAcc><vAcc>0.718222</vAcc></extensions></trkpt>
      <trkpt lon="-3.318865" lat="54.546695"><ele>298.544708</ele><time>2021-08-12T11:25:46Z</time><extensions><speed>1.267254</speed><course>118.864105</course><hAcc>0.885030</hAcc><vAcc>0.718370</vAcc></extensions></trkpt>
      <trkpt lon="-3.318847" lat="54.546701"><ele>298.634186</ele><time>2021-08-12T11:25:47Z</time><extensions><speed>1.258484</speed><course>117.180046</course><hAcc>0.885062</hAcc><vAcc>0.718515</vAcc></extensions></trkpt>
      <trkpt lon="-3.318830" lat="54.546706"><ele>298.730255</ele><time>2021-08-12T11:25:48Z</time><extensions><speed>1.250149</speed><course>115.856689</course><hAcc>0.885092</hAcc><vAcc>0.718651</vAcc></extensions></trkpt>
      <trkpt lon="-3.318813" lat="54.546710"><ele>298.833618</ele><time>2021-08-12T11:25:49Z</time><extensions><speed>1.242995</speed><course>112.617844</course><hAcc>0.885119</hAcc><vAcc>0.718774</vAcc></extensions></trkpt>
      <trkpt lon="-3.318795" lat="54.546715"><ele>298.944458</ele><time>2021-08-12T11:25:50Z</time><extensions><speed>1.236538</speed><course>120.157761</course><hAcc>0.885143</hAcc><vAcc>0.718877</vAcc></extensions></trkpt>
      <trkpt lon="-3.318778" lat="54.546719"><ele>299.063110</ele><time>2021-08-12T11:25:51Z</time><extensions><speed>1.230560</speed><course>116.743965</course><hAcc>0.885162</hAcc><vAcc>0.718956</vAcc></extensions></trkpt>
      <trkpt lon="-3.318760" lat="54.546724"><ele>299.189758</ele><time>2021-08-12T11:25:52Z</time><extensions><speed>1.225255</speed><course>126.528450</course><hAcc>0.885175</hAcc><vAcc>0.719009</vAcc></extensions></trkpt>
      <trkpt lon="-3.318743" lat="54.546728"><ele>299.324341</ele><time>2021-08-12T11:25:53Z</time><extensions><speed>1.220592</speed><course>122.809067</course><hAcc>0.885183</hAcc><vAcc>0.719034</vAcc></extensions></trkpt>
      <trkpt lon="-3.318725" lat="54.546731"><ele>299.466583</ele><time>2021-08-12T11:25:54Z</time><extensions><speed>1.216390</speed><course>118.437454</course><hAcc>0.885185</hAcc><vAcc>0.719031</vAcc></extensions></trkpt>
      <trkpt lon="-3.318707" lat="54.546735"><ele>299.616669</ele><time>2021-08-12T11:25:55Z</time><extensions><speed>1.212708</speed><course>113.862648</course><hAcc>0.885181</hAcc><vAcc>0.719003</vAcc></extensions></trkpt>
      <trkpt lon="-3.318689" lat="54.546738"><ele>299.775208</ele><time>2021-08-12T11:25:56Z</time><extensions><speed>1.209690</speed><course>110.315605</course><hAcc>0.885173</hAcc><vAcc>0.718954</vAcc></extensions></trkpt>
      <trkpt lon="-3.318671" lat="54.546741"><ele>299.942047</ele><time>2021-08-12T11:25:57Z</time><extensions><speed>1.206397</speed><course>111.526596</course><hAcc>0.885161</hAcc><vAcc>0.718886</vAcc></extensions></trkpt>
      <trkpt lon="-3.318653" lat="54.546743"><ele>300.116272</ele><time>2021-08-12T11:25:58Z</time><extensions><speed>1.201706</speed><course>111.825790</course><hAcc>0.885146</hAcc><vAcc>0.718805</vAcc></extensions></trkpt>
      <trkpt lon="-3.318635" lat="54.546746"><ele>300.296448</ele><time>2021-08-12T11:25:59Z</time><extensions><speed>1.195716</speed><course>110.069481</course><hAcc>0.885130</hAcc><vAcc>0.718717</vAcc></extensions></trkpt>
      <trkpt lon="-3.318617" lat="54.546748"><ele>300.480469</ele><time>2021-08-12T11:26:00Z</time><extensions><speed>1.188923</speed><course>114.632622</course><hAcc>0.885112</hAcc><vAcc>0.718632</vAcc></extensions></trkpt>
      <trkpt lon="-3.318599" lat="54.546750"><ele>300.665802</ele><time>2021-08-12T11:26:01Z</time><extensions><speed>1.181632</speed><course>103.253258</course><hAcc>0.885094</hAcc><vAcc>0.718556</vAcc></extensions></trkpt>
      <trkpt lon="-3.318581" lat="54.546752"><ele>300.850098</ele><time>2021-08-12T11:26:02Z</time><extensions><speed>1.174042</speed><course>106.301743</course><hAcc>0.885075</hAcc><vAcc>0.718493</vAcc></extensions></trkpt>
      <trkpt lon="-3.318563" lat="54.546753"><ele>301.031342</ele><time>2021-08-12T11:26:03Z</time><extensions><speed>1.165841</speed><course>102.376541</course><hAcc>0.885056</hAcc><vAcc>0.718442</vAcc></extensions></trkpt>
      <trkpt lon="-3.318546" lat="54.546755"><ele>301.207520</ele><time>2021-08-12T11:26:04Z</time><extensions><speed>1.156908</speed><course>106.795837</course><hAcc>0.885038</hAcc><vAcc>0.718399</vAcc></extensions></trkpt>
      <trkpt lon="-3.318528" lat="54.546757"><ele>301.376373</ele><time>2021-08-12T11:26:05Z</time><extensions><speed>1.147927</speed><course>105.416672</course><hAcc>0.885019</hAcc><vAcc>0.718357</vAcc></extensions></trkpt>
      <trkpt lon="-3.318510" lat="54.546758"><ele>301.535858</ele><time>2021-08-12T11:26:06Z</time><extensions><speed>1.140461</speed><course>115.994911</course><hAcc>0.885002</hAcc><vAcc>0.718311</vAcc></extensions></trkpt>
      <trkpt lon="-3.318493" lat="54.546760"><ele>301.684235</ele><time>2021-08-12T11:26:07Z</time><extensions><speed>1.135929</speed><course>121.956070</course><hAcc>0.884987</hAcc><vAcc>0.718257</vAcc></extensions></trkpt>
      <trkpt lon="-3.318476" lat="54.546761"><ele>301.820160</ele><time>2021-08-12T11:26:08Z</time><extensions><speed>1.135158</speed><course>114.918808</course><hAcc>0.884973</hAcc><vAcc>0.718195</vAcc></extensions></trkpt>
      <trkpt lon="-3.318458" lat="54.546763"><ele>301.942719</ele><time>2021-08-12T11:26:09Z</time><extensions><speed>1.138658</speed><course>112.952827</course><hAcc>0.884963</hAcc><vAcc>0.718128</vAcc></extensions></trkpt>
      <trkpt lon="-3.318441" lat="54.546765"><ele>302.051819</ele><time>2021-08-12T11:26:10Z</time><extensions><speed>1.146354</speed><course>108.521141</course><hAcc>0.884956</hAcc><vAcc>0.718066</vAcc></extensions></trkpt>
      <trkpt lon="-3.318424" lat="54.546767"><ele>302.148041</ele><time>2021-08-12T11:26:11Z</time><extensions><speed>1.157845</speed><course>105.023331</course><hAcc>0.884953</hAcc><vAcc>0.718017</vAcc></extensions></trkpt>
      <trkpt lon="-3.318406" lat="54.546768"><ele>302.232666</ele><time>2021-08-12T11:26:12Z</time><extensions><speed>1.172720</speed><course>98.270523</course><hAcc>0.884955</hAcc><vAcc>0.717993</vAcc></extensions></trkpt>
      <trkpt lon="-3.318388" lat="54.546770"><ele>302.307343</ele><time>2021-08-12T11:26:13Z</time><extensions><speed>1.190673</speed><course>104.555389</course><hAcc>0.884963</hAcc><vAcc>0.717999</vAcc></extensions></trkpt>
      <trkpt lon="-3.318370" lat="54.546772"><ele>302.373749</ele><time>2021-08-12T11:26:14Z</time><extensions><speed>1.211128</speed><course>108.798698</course><hAcc>0.884977</hAcc><vAcc>0.718041</vAcc></extensions></trkpt>
      <trkpt lon="-3.318351" lat="54.546774"><ele>302.433319</ele><time>2021-08-12T11:26:15Z</time><extensions><speed>1.232628</speed><course>107.953148</course><hAcc>0.884998</hAcc><vAcc>0.718120</vAcc></extensions></trkpt>
      <trkpt lon="-3.318332" lat="54.546776"><ele>302.487366</ele><time>2021-08-12T11:26:16Z</time><extensions><speed>1.253821</speed><course>107.561462</course><hAcc>0.885024</hAcc><vAcc>0.718234</vAcc></extensions></trkpt>
      <trkpt lon="-3.318313" lat="54.546778"><ele>302.537231</ele><time>2021-08-12T11:26:17Z</time><extensions><speed>1.273622</speed><course>98.600151</course><hAcc>0.885055</hAcc><vAcc>0.718378</vAcc></extensions></trkpt>
      <trkpt lon="-3.318293" lat="54.546780"><ele>302.584595</ele><time>2021-08-12T11:26:18Z</time><extensions><speed>1.290747</speed><course>106.179245</course><hAcc>0.885089</hAcc><vAcc>0.718541</vAcc></extensions></trkpt>
      <trkpt lon="-3.318274" lat="54.546782"><ele>302.631104</ele><time>2021-08-12T11:26:19Z</time><extensions><speed>1.305036</speed><course>99.736237</course><hAcc>0.885124</hAcc><vAcc>0.718714</vAcc></extensions></trkpt>
      <trkpt lon="-3.318254" lat="54.546784"><ele>302.677856</ele><time>2021-08-12T11:26:20Z</time><extensions><speed>1.316557</speed><course>102.027924</course><hAcc>0.885157</hAcc><vAcc>0.718887</vAcc></extensions></trkpt>
      <trkpt lon="-3.318233" lat="54.546786"><ele>302.725403</ele><time>2021-08-12T11:26:21Z</time><extensions><speed>1.324606</speed><course>94.072990</course><hAcc>0.885187</hAcc><vAcc>0.719047</vAcc></extensions></trkpt>
      <trkpt lon="-3.318213" lat="54.546788"><ele>302.774078</ele><time>2021-08-12T11:26:22Z</time><extensions><speed>1.328991</speed><course>96.463219</course><hAcc>0.885210</hAcc><vAcc>0.719181</vAcc></extensions></trkpt>
      <trkpt lon="-3.318193" lat="54.546790"><ele>302.824036</ele><time>2021-08-12T11:26:23Z</time><extensions><speed>1.330196</speed><course>96.928070</course><hAcc>0.885227</hAcc><vAcc>0.719279</vAcc></extensions></trkpt>
      <trkpt lon="-3.318173" lat="54.546792"><ele>302.875336</ele><time>2021-08-12T11:26:24Z</time><extensions><speed>1.329046</speed><course>85.766655</course><hAcc>0.885235</hAcc><vAcc>0.719330</vAcc></extensions></trkpt>
      <trkpt lon="-3.318153" lat="54.546794"><ele>302.928009</ele><time>2021-08-12T11:26:25Z</time><extensions><speed>1.327118</speed><course>93.944389</course><hAcc>0.885237</hAcc><vAcc>0.719329</vAcc></extensions></trkpt>
      <trkpt lon="-3.318132" lat="54.546796"><ele>302.982300</ele><time>2021-08-12T11:26:26Z</time><extensions><speed>1.325772</speed><course>96.280258</course><hAcc>0.885231</hAcc><vAcc>0.719276</vAcc></extensions></trkpt>
      <trkpt lon="-3.318112" lat="54.546799"><ele>303.038757</ele><time>2021-08-12T11:26:27Z</time><extensions><speed>1.325383</speed><course>103.229439</course><hAcc>0.885221</hAcc><vAcc>0.719180</vAcc></extensions></trkpt>
      <trkpt lon="-3.318092" lat="54.546801"><ele>303.097900</ele><time>2021-08-12T11:26:28Z</time><extensions><speed>1.325720</speed><course>100.069313</course><hAcc>0.885208</hAcc><vAcc>0.719057</vAcc></extensions></trkpt>
      <trkpt lon="-3.318073" lat="54.546804"><ele>303.160065</ele><time>2021-08-12T11:26:29Z</time><extensions><speed>1.326380</speed><course>107.704430</course><hAcc>0.885194</hAcc><vAcc>0.718925</vAcc></extensions></trkpt>
      <trkpt lon="-3.318053" lat="54.546807"><ele>303.225433</ele><time>2021-08-12T11:26:30Z</time><extensions><speed>1.326674</speed><course>102.019516</course><hAcc>0.885182</hAcc><vAcc>0.718806</vAcc></extensions></trkpt>
      <trkpt lon="-3.318033" lat="54.546810"><ele>303.293762</ele><time>2021-08-12T11:26:31Z</time><extensions><speed>1.325993</speed><course>101.188896</course><hAcc>0.885173</hAcc><vAcc>0.718721</vAcc></extensions></trkpt>
      <trkpt lon="-3.318013" lat="54.546813"><ele>303.364807</ele><time>2021-08-12T11:26:32Z</time><extensions><speed>1.324586</speed><course>101.655106</course><hAcc>0.885170</hAcc><vAcc>0.718683</vAcc></extensions></trkpt>
      <trkpt lon="-3.317993" lat="54.546817"><ele>303.438507</ele><time>2021-08-12T11:26:33Z</time><extensions><speed>1.322568</speed><course>97.512695</course><hAcc>0.885173</hAcc><vAcc>0.718700</vAcc></extensions></trkpt>
      <trkpt lon="-3.317974" lat="54.546820"><ele>303.515198</ele><time>2021-08-12T11:26:34Z</time><extensions><speed>1.319689</speed><course>96.923676</course><hAcc>0.885184</hAcc><vAcc>0.718771</vAcc></extensions></trkpt>
      <trkpt lon="-3.317954" lat="54.546823"><ele>303.594940</ele><time>2021-08-12T11:26:35Z</time><extensions><speed>1.316064</speed><course>96.356850</course><hAcc>0.885202</hAcc><vAcc>0.718887</vAcc></extensions></trkpt>
      <trkpt lon="-3.317934" lat="54.546826"><ele>303.677490</ele><time>2021-08-12T11:26:36Z</time><extensions><speed>1.311996</speed><course>95.959724</course><hAcc>0.885227</hAcc><vAcc>0.719032</vAcc></extensions></trkpt>
      <trkpt lon="-3.317915" lat="54.546829"><ele>303.762054</ele><time>2021-08-12T11:26:37Z</time><extensions><speed>1.307658</speed><course>95.959717</course><hAcc>0.885256</hAcc><vAcc>0.719193</vAcc></extensions></trkpt>
      <trkpt lon="-3.317895" lat="54.546831"><ele>303.847748</ele><time>2021-08-12T11:26:38Z</time><extensions><speed>1.303018</speed><course>97.361824</course><hAcc>0.885289</hAcc><vAcc>0.719356</vAcc></extensions></trkpt>
      <trkpt lon="-3.317876" lat="54.546834"><ele>303.933990</ele><time>2021-08-12T11:26:39Z</time><extensions><speed>1.298162</speed><course>97.361824</course><hAcc>0.885323</hAcc><vAcc>0.719511</vAcc></extensions></trkpt>
      <trkpt lon="-3.317856" lat="54.546836"><ele>304.020874</ele><time>2021-08-12T11:26:40Z</time><extensions><speed>1.293298</speed><course>97.361809</course><hAcc>0.885356</hAcc><vAcc>0.719651</vAcc></extensions></trkpt>
      <trkpt lon="-3.317836" lat="54.546839"><ele>304.108612</ele><time>2021-08-12T11:26:41Z</time><extensions><speed>1.288456</speed><course>97.361801</course><hAcc>0.885386</hAcc><vAcc>0.719770</vAcc></extensions></trkpt>
      <trkpt lon="-3.317817" lat="54.546841"><ele>304.196899</ele><time>2021-08-12T11:26:42Z</time><extensions><speed>1.283837</speed><course>42.884136</course><hAcc>0.885410</hAcc><vAcc>0.719865</vAcc></extensions></trkpt>
      <trkpt lon="-3.317797" lat="54.546843"><ele>304.285553</ele><time>2021-08-12T11:26:43Z</time><extensions><speed>1.279539</speed><course>35.984764</course><hAcc>0.885430</hAcc><vAcc>0.719933</vAcc></extensions></trkpt>
      <trkpt lon="-3.317778" lat="54.546845"><ele>304.374725</ele><time>2021-08-12T11:26:44Z</time><extensions><speed>1.275427</speed><course>65.852417</course><hAcc>0.885444</hAcc><vAcc>0.719975</vAcc></extensions></trkpt>
      <trkpt lon="-3.317758" lat="54.546847"><ele>304.465057</ele><time>2021-08-12T11:26:45Z</time><extensions><speed>1.271195</speed><course>86.337746</course><hAcc>0.885452</hAcc><vAcc>0.719991</vAcc></extensions></trkpt>
      <trkpt lon="-3.317739" lat="54.546848"><ele>304.556946</ele><time>2021-08-12T11:26:46Z</time><extensions><speed>1.266870</speed><course>89.071770</course><hAcc>0.885455</hAcc><vAcc>0.719983</vAcc></extensions></trkpt>
      <trkpt lon="-3.317720" lat="54.546850"><ele>304.650299</ele><time>2021-08-12T11:26:47Z</time><extensions><speed>1.262441</speed><course>92.612312</course><hAcc>0.885455</hAcc><vAcc>0.719958</vAcc></extensions></trkpt>
      <trkpt lon="-3.317701" lat="54.546852"><ele>304.744568</ele><time>2021-08-12T11:26:48Z</time><extensions><speed>1.257209</speed><course>103.461632</course><hAcc>0.885451</hAcc><vAcc>0.719920</vAcc></extensions></trkpt>
      <trkpt lon="-3.317682" lat="54.546854"><ele>304.838806</ele><time>2021-08-12T11:26:49Z</time><extensions><speed>1.250755</speed><course>104.412865</course><hAcc>0.885445</hAcc><vAcc>0.719878</vAcc></extensions></trkpt>
      <trkpt lon="-3.317663" lat="54.546856"><ele>304.931854</ele><time>2021-08-12T11:26:50Z</time><extensions><speed>1.243163</speed><course>129.601685</course><hAcc>0.885439</hAcc><vAcc>0.719838</vAcc></extensions></trkpt>
      <trkpt lon="-3.317644" lat="54.546858"><ele>305.022980</ele><time>2021-08-12T11:26:51Z</time><extensions><speed>1.235140</speed><course>149.567169</course><hAcc>0.885433</hAcc><vAcc>0.719806</vAcc></extensions></trkpt>
      <trkpt lon="-3.317625" lat="54.546860"><ele>305.111786</ele><time>2021-08-12T11:26:52Z</time><extensions><speed>1.227870</speed><course>129.327728</course><hAcc>0.885428</hAcc><vAcc>0.719782</vAcc></extensions></trkpt>
      <trkpt lon="-3.317606" lat="54.546862"><ele>305.198181</ele><time>2021-08-12T11:26:53Z</time><extensions><speed>1.222568</speed><course>129.943619</course><hAcc>0.885427</hAcc><vAcc>0.719770</vAcc></extensions></trkpt>
      <trkpt lon="-3.317588" lat="54.546864"><ele>305.282135</ele><time>2021-08-12T11:26:54Z</time><extensions><speed>1.220252</speed><course>125.470825</course><hAcc>0.885429</hAcc><vAcc>0.719770</vAcc></extensions></trkpt>
      <trkpt lon="-3.317570" lat="54.546867"><ele>305.363770</ele><time>2021-08-12T11:26:55Z</time><extensions><speed>1.220951</speed><course>125.654007</course><hAcc>0.885436</hAcc><vAcc>0.719783</vAcc></extensions></trkpt>
      <trkpt lon="-3.317551" lat="54.546870"><ele>305.443787</ele><time>2021-08-12T11:26:56Z</time><extensions><speed>1.223712</speed><course>132.941208</course><hAcc>0.885447</hAcc><vAcc>0.719815</vAcc></extensions></trkpt>
      <trkpt lon="-3.317533" lat="54.546872"><ele>305.523254</ele><time>2021-08-12T11:26:57Z</time><extensions><speed>1.227494</speed><course>128.525970</course><hAcc>0.885462</hAcc><vAcc>0.719867</vAcc></extensions></trkpt>
      <trkpt lon="-3.317515" lat="54.546875"><ele>305.603241</ele><time>2021-08-12T11:26:58Z</time><extensions><speed>1.232116</speed><course>129.747040</course><hAcc>0.885480</hAcc><vAcc>0.719941</vAcc></extensions></trkpt>
      <trkpt lon="-3.317496" lat="54.546878"><ele>305.684662</ele><time>2021-08-12T11:26:59Z</time><extensions><speed>1.237462</speed><course>133.257645</course><hAcc>0.885499</hAcc><vAcc>0.720037</vAcc></extensions></trkpt>
      <trkpt lon="-3.317478" lat="54.546882"><ele>305.768372</ele><time>2021-08-12T11:27:00Z</time><extensions><speed>1.243198</speed><course>122.834160</course><hAcc>0.885518</hAcc><vAcc>0.720148</vAcc></extensions></trkpt>
      <trkpt lon="-3.317460" lat="54.546885"><ele>305.855042</ele><time>2021-08-12T11:27:01Z</time><extensions><speed>1.249341</speed><course>121.754723</course><hAcc>0.885536</hAcc><vAcc>0.720261</vAcc></extensions></trkpt>
      <trkpt lon="-3.317441" lat="54.546888"><ele>305.945190</ele><time>2021-08-12T11:27:02Z</time><extensions><speed>1.255792</speed><course>130.620087</course><hAcc>0.885551</hAcc><vAcc>0.720361</vAcc></extensions></trkpt>
      <trkpt lon="-3.317423" lat="54.546892"><ele>306.039062</ele><time>2021-08-12T11:27:03Z</time><extensions><speed>1.262935</speed><course>128.548019</course><hAcc>0.885564</hAcc><vAcc>0.720436</vAcc></extensions></trkpt>
      <trkpt lon="-3.317404" lat="54.546896"><ele>306.136780</ele><time>2021-08-12T11:27:04Z</time><extensions><speed>1.271573</speed><course>128.034912</course><hAcc>0.885571</hAcc><vAcc>0.720478</vAcc></extensions></trkpt>
      <trkpt lon="-3.317386" lat="54.546899"><ele>306.238037</ele><time>2021-08-12T11:27:05Z</time><extensions><speed>1.282122</speed><course>128.138321</course><hAcc>0.885571</hAcc><vAcc>0.720484</vAcc></extensions></trkpt>
      <trkpt lon="-3.317367" lat="54.546904"><ele>306.342285</ele><time>2021-08-12T11:27:06Z</time><extensions><speed>1.293812</speed><course>127.788391</course><hAcc>0.885564</hAcc><vAcc>0.720454</vAcc></extensions></trkpt>
      <trkpt lon="-3.317348" lat="54.546908"><ele>306.448792</ele><time>2021-08-12T11:27:07Z</time><extensions><speed>1.305394</speed><course>111.799332</course><hAcc>0.885548</hAcc><vAcc>0.720388</vAcc></extensions></trkpt>
      <trkpt lon="-3.317330" lat="54.546912"><ele>306.557159</ele><time>2021-08-12T11:27:08Z</time><extensions><speed>1.315778</speed><course>135.894547</course><hAcc>0.885524</hAcc><vAcc>0.720288</vAcc></extensions></trkpt>
      <trkpt lon="-3.317311" lat="54.546917"><ele>306.667297</ele><time>2021-08-12T11:27:09Z</time><extensions><speed>1.324738</speed><course>135.791443</course><hAcc>0.885490</hAcc><vAcc>0.720156</vAcc></extensions></trkpt>
      <trkpt lon="-3.317292" lat="54.546922"><ele>306.778809</ele><time>2021-08-12T11:27:10Z</time><extensions><speed>1.332813</speed><course>137.532547</course><hAcc>0.885447</hAcc><vAcc>0.719996</vAcc></extensions></trkpt>
      <trkpt lon="-3.317274" lat="54.546927"><ele>306.890808</ele><time>2021-08-12T11:27:11Z</time><extensions><speed>1.339696</speed><course>139.503952</course><hAcc>0.885397</hAcc><vAcc>0.719810</vAcc></extensions></trkpt>
      <trkpt lon="-3.317255" lat="54.546933"><ele>307.002594</ele><time>2021-08-12T11:27:12Z</time><extensions><speed>1.344073</speed><course>146.422607</course><hAcc>0.885341</hAcc><vAcc>0.719599</vAcc></extensions></trkpt>
      <trkpt lon="-3.317237" lat="54.546939"><ele>307.114075</ele><time>2021-08-12T11:27:13Z</time><extensions><speed>1.344678</speed><course>123.702354</course><hAcc>0.885280</hAcc><vAcc>0.719365</vAcc></extensions></trkpt>
      <trkpt lon="-3.317220" lat="54.546945"><ele>307.225464</ele><time>2021-08-12T11:27:14Z</time><extensions><speed>1.341151</speed><course>126.795586</course><hAcc>0.885216</hAcc><vAcc>0.719109</vAcc></extensions></trkpt>
      <trkpt lon="-3.317202" lat="54.546952"><ele>307.337708</ele><time>2021-08-12T11:27:15Z</time><extensions><speed>1.333687</speed><course>132.239441</course><hAcc>0.885151</hAcc><vAcc>0.718838</vAcc></extensions></trkpt>
      <trkpt lon="-3.317185" lat="54.546958"><ele>307.451660</ele><time>2021-08-12T11:27:16Z</time><extensions><speed>1.322562</speed><course>129.200668</course><hAcc>0.885087</hAcc><vAcc>0.718561</vAcc></extensions></trkpt>
      <trkpt lon="-3.317169" lat="54.546965"><ele>307.567169</ele><time>2021-08-12T11:27:17Z</time><extensions><speed>1.307620</speed><course>125.122314</course><hAcc>0.885024</hAcc><vAcc>0.718289</vAcc></extensions></trkpt>
      <trkpt lon="-3.317153" lat="54.546972"><ele>307.683594</ele><time>2021-08-12T11:27:18Z</time><extensions><speed>1.288118</speed><course>136.265396</course><hAcc>0.884962</hAcc><vAcc>0.718036</vAcc></extensions></trkpt>
      <trkpt lon="-3.317137" lat="54.546980"><ele>307.800354</ele><time>2021-08-12T11:27:19Z</time><extensions><speed>1.263105</speed><course>135.687027</course><hAcc>0.884901</hAcc><vAcc>0.717808</vAcc></extensions></trkpt>
      <trkpt lon="-3.317123" lat="54.546987"><ele>307.917145</ele><time>2021-08-12T11:27:20Z</time><extensions><speed>1.231807</speed><course>134.189224</course><hAcc>0.884842</hAcc><vAcc>0.717608</vAcc></extensions></trkpt>
      <trkpt lon="-3.317109" lat="54.546994"><ele>308.033661</ele><time>2021-08-12T11:27:21Z</time><extensions><speed>1.194216</speed><course>130.213623</course><hAcc>0.884781</hAcc><vAcc>0.717428</vAcc></extensions></trkpt>
      <trkpt lon="-3.317096" lat="54.547002"><ele>308.149780</ele><time>2021-08-12T11:27:22Z</time><extensions><speed>1.150641</speed><course>131.249283</course><hAcc>0.884719</hAcc><vAcc>0.717256</vAcc></extensions></trkpt>
      <trkpt lon="-3.317085" lat="54.547009"><ele>308.265747</ele><time>2021-08-12T11:27:23Z</time><extensions><speed>1.101009</speed><course>132.412170</course><hAcc>0.884652</hAcc><vAcc>0.717078</vAcc></extensions></trkpt>
      <trkpt lon="-3.317074" lat="54.547016"><ele>308.381470</ele><time>2021-08-12T11:27:24Z</time><extensions><speed>1.046032</speed><course>141.387543</course><hAcc>0.884579</hAcc><vAcc>0.716877</vAcc></extensions></trkpt>
      <trkpt lon="-3.317064" lat="54.547024"><ele>308.496582</ele><time>2021-08-12T11:27:25Z</time><extensions><speed>0.986920</speed><course>147.693329</course><hAcc>0.884497</hAcc><vAcc>0.716635</vAcc></extensions></trkpt>
      <trkpt lon="-3.317055" lat="54.547031"><ele>308.610687</ele><time>2021-08-12T11:27:26Z</time><extensions><speed>0.924205</speed><course>150.557755</course><hAcc>0.884404</hAcc><vAcc>0.716335</vAcc></extensions></trkpt>
      <trkpt lon="-3.317048" lat="54.547037"><ele>308.723541</ele><time>2021-08-12T11:27:27Z</time><extensions><speed>0.858394</speed><course>146.167221</course><hAcc>0.884298</hAcc><vAcc>0.715971</vAcc></extensions></trkpt>
      <trkpt lon="-3.317041" lat="54.547044"><ele>308.834930</ele><time>2021-08-12T11:27:28Z</time><extensions><speed>0.789597</speed><course>148.113663</course><hAcc>0.884178</hAcc><vAcc>0.715539</vAcc></extensions></trkpt>
      <trkpt lon="-3.317036" lat="54.547050"><ele>308.944427</ele><time>2021-08-12T11:27:29Z</time><extensions><speed>0.717961</speed><course>138.101883</course><hAcc>0.884042</hAcc><vAcc>0.715043</vAcc></extensions></trkpt>
      <trkpt lon="-3.317031" lat="54.547055"><ele>309.051788</ele><time>2021-08-12T11:27:30Z</time><extensions><speed>0.644468</speed><course>142.914612</course><hAcc>0.883893</hAcc><vAcc>0.714486</vAcc></extensions></trkpt>
      <trkpt lon="-3.317028" lat="54.547060"><ele>309.157013</ele><time>2021-08-12T11:27:31Z</time><extensions><speed>0.570369</speed><course>148.048096</course><hAcc>0.883732</hAcc><vAcc>0.713875</vAcc></extensions></trkpt>
      <trkpt lon="-3.317025" lat="54.547065"><ele>309.260284</ele><time>2021-08-12T11:27:32Z</time><extensions><speed>0.496856</speed><course>151.450607</course><hAcc>0.883564</hAcc><vAcc>0.713217</vAcc></extensions></trkpt>
      <trkpt lon="-3.317023" lat="54.547069"><ele>309.361542</ele><time>2021-08-12T11:27:33Z</time><extensions><speed>0.425296</speed><course>136.771103</course><hAcc>0.883393</hAcc><vAcc>0.712529</vAcc></extensions></trkpt>
      <trkpt lon="-3.317021" lat="54.547072"><ele>309.460236</ele><time>2021-08-12T11:27:34Z</time><extensions><speed>0.357514</speed><course>141.808670</course><hAcc>0.883225</hAcc><vAcc>0.711831</vAcc></extensions></trkpt>
      <trkpt lon="-3.317020" lat="54.547075"><ele>309.555573</ele><time>2021-08-12T11:27:35Z</time><extensions><speed>0.295547</speed><course>141.991776</course><hAcc>0.883066</hAcc><vAcc>0.711151</vAcc></extensions></trkpt>
      <trkpt lon="-3.317020" lat="54.547077"><ele>309.646759</ele><time>2021-08-12T11:27:36Z</time><extensions><speed>0.241422</speed><course>158.861435</course><hAcc>0.882922</hAcc><vAcc>0.710523</vAcc></extensions></trkpt>
      <trkpt lon="-3.317020" lat="54.547079"><ele>309.733368</ele><time>2021-08-12T11:27:37Z</time><extensions><speed>0.197377</speed><course>158.142120</course><hAcc>0.882798</hAcc><vAcc>0.709973</vAcc></extensions></trkpt>
      <trkpt lon="-3.317020" lat="54.547081"><ele>309.815308</ele><time>2021-08-12T11:27:38Z</time><extensions><speed>0.166312</speed><course>156.536041</course><hAcc>0.882698</hAcc><vAcc>0.709529</vAcc></extensions></trkpt>
      <trkpt lon="-3.317021" lat="54.547082"><ele>309.892792</ele><time>2021-08-12T11:27:39Z</time><extensions><speed>0.151032</speed><course>138.496033</course><hAcc>0.882623</hAcc><vAcc>0.709213</vAcc></extensions></trkpt>
      <trkpt lon="-3.317023" lat="54.547083"><ele>309.966217</ele><time>2021-08-12T11:27:40Z</time><extensions><speed>0.152227</speed><course>156.669647</course><hAcc>0.882574</hAcc><vAcc>0.709037</vAcc></extensions></trkpt>
      <trkpt lon="-3.317024" lat="54.547084"><ele>310.036316</ele><time>2021-08-12T11:27:41Z</time><extensions><speed>0.167872</speed><course>143.929214</course><hAcc>0.882546</hAcc><vAcc>0.709002</vAcc></extensions></trkpt>
      <trkpt lon="-3.317026" lat="54.547086"><ele>310.104218</ele><time>2021-08-12T11:27:42Z</time><extensions><speed>0.195177</speed><course>154.114960</course><hAcc>0.882533</hAcc><vAcc>0.709087</vAcc></extensions></trkpt>
      <trkpt lon="-3.317029" lat="54.547087"><ele>310.170959</ele><time>2021-08-12T11:27:43Z</time><extensions><speed>0.232328</speed><course>157.737396</course><hAcc>0.882526</hAcc><vAcc>0.709253</vAcc></extensions></trkpt>
      <trkpt lon="-3.317032" lat="54.547088"><ele>310.237335</ele><time>2021-08-12T11:27:44Z</time><extensions><speed>0.278626</speed><course>156.437073</course><hAcc>0.882515</hAcc><vAcc>0.709443</vAcc></extensions></trkpt>
      <trkpt lon="-3.317036" lat="54.547090"><ele>310.303955</ele><time>2021-08-12T11:27:45Z</time><extensions><speed>0.333700</speed><course>159.749420</course><hAcc>0.882489</hAcc><vAcc>0.709592</vAcc></extensions></trkpt>
      <trkpt lon="-3.317040" lat="54.547092"><ele>310.371246</ele><time>2021-08-12T11:27:46Z</time><extensions><speed>0.396876</speed><course>156.029541</course><hAcc>0.882435</hAcc><vAcc>0.709625</vAcc></extensions></trkpt>
      <trkpt lon="-3.317045" lat="54.547095"><ele>310.439423</ele><time>2021-08-12T11:27:47Z</time><extensions><speed>0.466718</speed><course>159.049896</course><hAcc>0.882345</hAcc><vAcc>0.709474</vAcc></extensions></trkpt>
      <trkpt lon="-3.317050" lat="54.547098"><ele>310.508484</ele><time>2021-08-12T11:27:48Z</time><extensions><speed>0.540839</speed><course>154.355942</course><hAcc>0.882210</hAcc><vAcc>0.709089</vAcc></extensions></trkpt>
      <trkpt lon="-3.317056" lat="54.547102"><ele>310.578400</ele><time>2021-08-12T11:27:49Z</time><extensions><speed>0.615710</speed><course>162.710571</course><hAcc>0.882026</hAcc><vAcc>0.708447</vAcc></extensions></trkpt>
      <trkpt lon="-3.317063" lat="54.547106"><ele>310.649170</ele><time>2021-08-12T11:27:50Z</time><extensions><speed>0.687852</speed><course>161.899368</course><hAcc>0.881791</hAcc><vAcc>0.707550</vAcc></extensions></trkpt>
      <trkpt lon="-3.317070" lat="54.547111"><ele>310.721161</ele><time>2021-08-12T11:27:51Z</time><extensions><speed>0.754559</speed><course>160.656769</course><hAcc>0.881508</hAcc><vAcc>0.706418</vAcc></extensions></trkpt>
      <trkpt lon="-3.317078" lat="54.547117"><ele>310.795227</ele><time>2021-08-12T11:27:52Z</time><extensions><speed>0.813524</speed><course>152.471558</course><hAcc>0.881183</hAcc><vAcc>0.705085</vAcc></extensions></trkpt>
      <trkpt lon="-3.317086" lat="54.547123"><ele>310.872253</ele><time>2021-08-12T11:27:53Z</time><extensions><speed>0.863803</speed><course>148.255112</course><hAcc>0.880827</hAcc><vAcc>0.703601</vAcc></extensions></trkpt>
      <trkpt lon="-3.317094" lat="54.547129"><ele>310.952820</ele><time>2021-08-12T11:27:54Z</time><extensions><speed>0.906052</speed><course>153.394714</course><hAcc>0.880453</hAcc><vAcc>0.702029</vAcc></extensions></trkpt>
      <trkpt lon="-3.317102" lat="54.547136"><ele>311.037262</ele><time>2021-08-12T11:27:55Z</time><extensions><speed>0.941568</speed><course>156.943573</course><hAcc>0.880077</hAcc><vAcc>0.700440</vAcc></extensions></trkpt>
      <trkpt lon="-3.317110" lat="54.547143"><ele>311.125824</ele><time>2021-08-12T11:27:56Z</time><extensions><speed>0.971621</speed><course>159.515564</course><hAcc>0.879714</hAcc><vAcc>0.698905</vAcc></extensions></trkpt>
      <trkpt lon="-3.317119" lat="54.547150"><ele>311.218506</ele><time>2021-08-12T11:27:57Z</time><extensions><speed>0.997569</speed><course>158.540283</course><hAcc>0.879378</hAcc><vAcc>0.697500</vAcc></extensions></trkpt>
      <trkpt lon="-3.317128" lat="54.547158"><ele>311.314758</ele><time>2021-08-12T11:27:58Z</time><extensions><speed>1.021112</speed><course>153.751312</course><hAcc>0.879084</hAcc><vAcc>0.696290</vAcc></extensions></trkpt>
      <trkpt lon="-3.317137" lat="54.547165"><ele>311.413513</ele><time>2021-08-12T11:28:00Z</time><extensions><speed>1.043926</speed><course>159.795258</course><hAcc>0.878821</hAcc><vAcc>0.695305</vAcc></extensions></trkpt>
      <trkpt lon="-3.317147" lat="54.547173"><ele>311.513275</ele><time>2021-08-12T11:28:01Z</time><extensions><speed>1.066705</speed><course>158.187424</course><hAcc>0.878594</hAcc><vAcc>0.694563</vAcc></extensions></trkpt>
      <trkpt lon="-3.317157" lat="54.547180"><ele>311.613159</ele><time>2021-08-12T11:28:02Z</time><extensions><speed>1.089662</speed><course>160.275116</course><hAcc>0.878420</hAcc><vAcc>0.694058</vAcc></extensions></trkpt>
      <trkpt lon="-3.317168" lat="54.547188"><ele>311.712402</ele><time>2021-08-12T11:28:03Z</time><extensions><speed>1.112020</speed><course>156.643036</course><hAcc>0.878294</hAcc><vAcc>0.693746</vAcc></extensions></trkpt>
      <trkpt lon="-3.317179" lat="54.547196"><ele>311.810242</ele><time>2021-08-12T11:28:04Z</time><extensions><speed>1.132332</speed><course>162.614395</course><hAcc>0.878208</hAcc><vAcc>0.693572</vAcc></extensions></trkpt>
      <trkpt lon="-3.317190" lat="54.547204"><ele>311.905731</ele><time>2021-08-12T11:28:05Z</time><extensions><speed>1.150221</speed><course>162.054535</course><hAcc>0.878155</hAcc><vAcc>0.693490</vAcc></extensions></trkpt>
      <trkpt lon="-3.317202" lat="54.547212"><ele>311.997742</ele><time>2021-08-12T11:28:06Z</time><extensions><speed>1.165858</speed><course>177.342987</course><hAcc>0.878127</hAcc><vAcc>0.693467</vAcc></extensions></trkpt>
      <trkpt lon="-3.317213" lat="54.547220"><ele>312.085236</ele><time>2021-08-12T11:28:07Z</time><extensions><speed>1.179527</speed><course>172.891953</course><hAcc>0.878117</hAcc><vAcc>0.693488</vAcc></extensions></trkpt>
      <trkpt lon="-3.317225" lat="54.547228"><ele>312.167938</ele><time>2021-08-12T11:28:07Z</time><extensions><speed>1.191879</speed><course>169.984741</course><hAcc>0.878139</hAcc><vAcc>0.693564</vAcc></extensions></trkpt>
      <trkpt lon="-3.317238" lat="54.547236"><ele>312.246552</ele><time>2021-08-12T11:28:08Z</time><extensions><speed>1.203064</speed><course>166.246048</course><hAcc>0.878188</hAcc><vAcc>0.693694</vAcc></extensions></trkpt>
      <trkpt lon="-3.317250" lat="54.547244"><ele>312.321991</ele><time>2021-08-12T11:28:09Z</time><extensions><speed>1.212890</speed><course>166.762161</course><hAcc>0.878243</hAcc><vAcc>0.693865</vAcc></extensions></trkpt>
      <trkpt lon="-3.317262" lat="54.547252"><ele>312.394806</ele><time>2021-08-12T11:28:10Z</time><extensions><speed>1.221270</speed><course>163.016708</course><hAcc>0.878300</hAcc><vAcc>0.694068</vAcc></extensions></trkpt>
      <trkpt lon="-3.317275" lat="54.547260"><ele>312.465271</ele><time>2021-08-12T11:28:11Z</time><extensions><speed>1.227808</speed><course>159.079727</course><hAcc>0.878357</hAcc><vAcc>0.694290</vAcc></extensions></trkpt>
      <trkpt lon="-3.317287" lat="54.547269"><ele>312.533875</ele><time>2021-08-12T11:28:12Z</time><extensions><speed>1.231801</speed><course>160.816132</course><hAcc>0.878408</hAcc><vAcc>0.694510</vAcc></extensions></trkpt>
      <trkpt lon="-3.317299" lat="54.547277"><ele>312.601562</ele><time>2021-08-12T11:28:13Z</time><extensions><speed>1.232738</speed><course>163.227844</course><hAcc>0.878449</hAcc><vAcc>0.694712</vAcc></extensions></trkpt>
      <trkpt lon="-3.317311" lat="54.547286"><ele>312.669586</ele><time>2021-08-12T11:28:14Z</time><extensions><speed>1.230791</speed><course>152.149902</course><hAcc>0.878475</hAcc><vAcc>0.694875</vAcc></extensions></trkpt>
      <trkpt lon="-3.317323" lat="54.547295"><ele>312.739532</ele><time>2021-08-12T11:28:15Z</time><extensions><speed>1.226169</speed><course>159.582550</course><hAcc>0.878481</hAcc><vAcc>0.694972</vAcc></extensions></trkpt>
      <trkpt lon="-3.317334" lat="54.547304"><ele>312.812805</ele><time>2021-08-12T11:28:16Z</time><extensions><speed>1.219845</speed><course>159.987671</course><hAcc>0.878463</hAcc><vAcc>0.694973</vAcc></extensions></trkpt>
      <trkpt lon="-3.317344" lat="54.547313"><ele>312.890503</ele><time>2021-08-12T11:28:17Z</time><extensions><speed>1.213295</speed><course>163.105835</course><hAcc>0.878417</hAcc><vAcc>0.694851</vAcc></extensions></trkpt>
      <trkpt lon="-3.317355" lat="54.547322"><ele>312.973724</ele><time>2021-08-12T11:28:18Z</time><extensions><speed>1.207234</speed><course>160.869598</course><hAcc>0.878339</hAcc><vAcc>0.694588</vAcc></extensions></trkpt>
      <trkpt lon="-3.317365" lat="54.547331"><ele>313.063873</ele><time>2021-08-12T11:28:19Z</time><extensions><speed>1.202653</speed><course>172.028473</course><hAcc>0.878231</hAcc><vAcc>0.694178</vAcc></extensions></trkpt>
      <trkpt lon="-3.317374" lat="54.547340"><ele>313.162659</ele><time>2021-08-12T11:28:20Z</time><extensions><speed>1.200630</speed><course>182.583130</course><hAcc>0.878093</hAcc><vAcc>0.693632</vAcc></extensions></trkpt>
      <trkpt lon="-3.317384" lat="54.547349"><ele>313.271393</ele><time>2021-08-12T11:28:21Z</time><extensions><speed>1.201459</speed><course>175.623672</course><hAcc>0.877929</hAcc><vAcc>0.692971</vAcc></extensions></trkpt>
      <trkpt lon="-3.317393" lat="54.547359"><ele>313.390594</ele><time>2021-08-12T11:28:22Z</time><extensions><speed>1.205218</speed><course>168.997635</course><hAcc>0.877744</hAcc><vAcc>0.692225</vAcc></extensions></trkpt>
      <trkpt lon="-3.317402" lat="54.547368"><ele>313.520386</ele><time>2021-08-12T11:28:23Z</time><extensions><speed>1.211745</speed><course>166.227890</course><hAcc>0.877544</hAcc><vAcc>0.691428</vAcc></extensions></trkpt>
      <trkpt lon="-3.317412" lat="54.547378"><ele>313.660980</ele><time>2021-08-12T11:28:24Z</time><extensions><speed>1.220818</speed><course>162.222458</course><hAcc>0.877336</hAcc><vAcc>0.690612</vAcc></extensions></trkpt>
      <trkpt lon="-3.317421" lat="54.547387"><ele>313.812592</ele><time>2021-08-12T11:28:25Z</time><extensions><speed>1.231825</speed><course>162.553314</course><hAcc>0.877124</hAcc><vAcc>0.689803</vAcc></extensions></trkpt>
      <trkpt lon="-3.317431" lat="54.547397"><ele>313.974731</ele><time>2021-08-12T11:28:26Z</time><extensions><speed>1.243732</speed><course>165.735123</course><hAcc>0.876915</hAcc><vAcc>0.689020</vAcc></extensions></trkpt>
      <trkpt lon="-3.317441" lat="54.547406"><ele>314.146027</ele><time>2021-08-12T11:28:27Z</time><extensions><speed>1.255789</speed><course>166.317276</course><hAcc>0.876713</hAcc><vAcc>0.688274</vAcc></extensions></trkpt>
      <trkpt lon="-3.317452" lat="54.547416"><ele>314.324860</ele><time>2021-08-12T11:28:28Z</time><extensions><speed>1.267357</speed><course>164.590683</course><hAcc>0.876522</hAcc><vAcc>0.687576</vAcc></extensions></trkpt>
      <trkpt lon="-3.317462" lat="54.547425"><ele>314.509888</ele><time>2021-08-12T11:28:29Z</time><extensions><speed>1.278079</speed><course>167.304306</course><hAcc>0.876346</hAcc><vAcc>0.686932</vAcc></extensions></trkpt>
      <trkpt lon="-3.317473" lat="54.547435"><ele>314.700104</ele><time>2021-08-12T11:28:30Z</time><extensions><speed>1.287880</speed><course>166.209152</course><hAcc>0.876188</hAcc><vAcc>0.686352</vAcc></extensions></trkpt>
      <trkpt lon="-3.317484" lat="54.547445"><ele>314.894623</ele><time>2021-08-12T11:28:31Z</time><extensions><speed>1.296433</speed><course>170.985672</course><hAcc>0.876051</hAcc><vAcc>0.685840</vAcc></extensions></trkpt>
      <trkpt lon="-3.317495" lat="54.547455"><ele>315.092499</ele><time>2021-08-12T11:28:32Z</time><extensions><speed>1.303091</speed><course>170.155151</course><hAcc>0.875938</hAcc><vAcc>0.685408</vAcc></extensions></trkpt>
      <trkpt lon="-3.317506" lat="54.547464"><ele>315.292938</ele><time>2021-08-12T11:28:33Z</time><extensions><speed>1.307141</speed><course>173.270996</course><hAcc>0.875851</hAcc><vAcc>0.685068</vAcc></extensions></trkpt>
      <trkpt lon="-3.317517" lat="54.547474"><ele>315.495697</ele><time>2021-08-12T11:28:34Z</time><extensions><speed>1.307930</speed><course>158.977570</course><hAcc>0.875794</hAcc><vAcc>0.684837</vAcc></extensions></trkpt>
      <trkpt lon="-3.317528" lat="54.547484"><ele>315.700745</ele><time>2021-08-12T11:28:35Z</time><extensions><speed>1.305052</speed><course>154.473984</course><hAcc>0.875768</hAcc><vAcc>0.684726</vAcc></extensions></trkpt>
      <trkpt lon="-3.317540" lat="54.547494"><ele>315.907715</ele><time>2021-08-12T11:28:36Z</time><extensions><speed>1.297762</speed><course>159.955185</course><hAcc>0.875775</hAcc><vAcc>0.684745</vAcc></extensions></trkpt>
      <trkpt lon="-3.317551" lat="54.547503"><ele>316.115814</ele><time>2021-08-12T11:28:37Z</time><extensions><speed>1.285336</speed><course>153.408218</course><hAcc>0.875813</hAcc><vAcc>0.684899</vAcc></extensions></trkpt>
      <trkpt lon="-3.317561" lat="54.547513"><ele>316.323975</ele><time>2021-08-12T11:28:38Z</time><extensions><speed>1.267691</speed><course>151.142990</course><hAcc>0.875882</hAcc><vAcc>0.685184</vAcc></extensions></trkpt>
      <trkpt lon="-3.317572" lat="54.547522"><ele>316.531128</ele><time>2021-08-12T11:28:39Z</time><extensions><speed>1.245132</speed><course>153.658844</course><hAcc>0.875977</hAcc><vAcc>0.685584</vAcc></extensions></trkpt>
      <trkpt lon="-3.317583" lat="54.547532"><ele>316.736420</ele><time>2021-08-12T11:28:40Z</time><extensions><speed>1.218234</speed><course>151.540298</course><hAcc>0.876093</hAcc><vAcc>0.686068</vAcc></extensions></trkpt>
      <trkpt lon="-3.317593" lat="54.547541"><ele>316.939270</ele><time>2021-08-12T11:28:41Z</time><extensions><speed>1.187715</speed><course>151.542770</course><hAcc>0.876223</hAcc><vAcc>0.686600</vAcc></extensions></trkpt>
      <trkpt lon="-3.317603" lat="54.547549"><ele>317.138794</ele><time>2021-08-12T11:28:42Z</time><extensions><speed>1.154433</speed><course>151.184875</course><hAcc>0.876360</hAcc><vAcc>0.687149</vAcc></extensions></trkpt>
      <trkpt lon="-3.317612" lat="54.547558"><ele>317.333801</ele><time>2021-08-12T11:28:43Z</time><extensions><speed>1.119263</speed><course>148.009705</course><hAcc>0.876498</hAcc><vAcc>0.687692</vAcc></extensions></trkpt>
      <trkpt lon="-3.317621" lat="54.547566"><ele>317.523132</ele><time>2021-08-12T11:28:44Z</time><extensions><speed>1.083213</speed><course>151.132050</course><hAcc>0.876631</hAcc><vAcc>0.688203</vAcc></extensions></trkpt>
      <trkpt lon="-3.317630" lat="54.547575"><ele>317.706116</ele><time>2021-08-12T11:28:45Z</time><extensions><speed>1.047038</speed><course>147.416718</course><hAcc>0.876756</hAcc><vAcc>0.688666</vAcc></extensions></trkpt>
      <trkpt lon="-3.317638" lat="54.547583"><ele>317.883026</ele><time>2021-08-12T11:28:46Z</time><extensions><speed>1.011506</speed><course>145.946671</course><hAcc>0.876869</hAcc><vAcc>0.689070</vAcc></extensions></trkpt>
      <trkpt lon="-3.317645" lat="54.547590"><ele>318.054565</ele><time>2021-08-12T11:28:47Z</time><extensions><speed>0.978223</speed><course>158.213196</course><hAcc>0.876967</hAcc><vAcc>0.689412</vAcc></extensions></trkpt>
      <trkpt lon="-3.317652" lat="54.547598"><ele>318.221344</ele><time>2021-08-12T11:28:48Z</time><extensions><speed>0.948441</speed><course>165.532318</course><hAcc>0.877049</hAcc><vAcc>0.689693</vAcc></extensions></trkpt>
      <trkpt lon="-3.317659" lat="54.547605"><ele>318.383636</ele><time>2021-08-12T11:28:49Z</time><extensions><speed>0.922393</speed><course>155.828384</course><hAcc>0.877115</hAcc><vAcc>0.689915</vAcc></extensions></trkpt>
      <trkpt lon="-3.317666" lat="54.547613"><ele>318.541504</ele><time>2021-08-12T11:28:50Z</time><extensions><speed>0.899903</speed><course>158.510941</course><hAcc>0.877164</hAcc><vAcc>0.690083</vAcc></extensions></trkpt>
      <trkpt lon="-3.317672" lat="54.547620"><ele>318.695221</ele><time>2021-08-12T11:28:51Z</time><extensions><speed>0.880229</speed><course>158.599030</course><hAcc>0.877196</hAcc><vAcc>0.690206</vAcc></extensions></trkpt>
      <trkpt lon="-3.317677" lat="54.547627"><ele>318.845825</ele><time>2021-08-12T11:28:52Z</time><extensions><speed>0.862634</speed><course>159.122437</course><hAcc>0.877212</hAcc><vAcc>0.690294</vAcc></extensions></trkpt>
      <trkpt lon="-3.317683" lat="54.547634"><ele>318.994659</ele><time>2021-08-12T11:28:53Z</time><extensions><speed>0.847093</speed><course>161.654770</course><hAcc>0.877211</hAcc><vAcc>0.690344</vAcc></extensions></trkpt>
      <trkpt lon="-3.317688" lat="54.547641"><ele>319.142792</ele><time>2021-08-12T11:28:54Z</time><extensions><speed>0.834166</speed><course>168.809372</course><hAcc>0.877192</hAcc><vAcc>0.690336</vAcc></extensions></trkpt>
      <trkpt lon="-3.317693" lat="54.547648"><ele>319.291016</ele><time>2021-08-12T11:28:55Z</time><extensions><speed>0.824224</speed><course>164.604691</course><hAcc>0.877155</hAcc><vAcc>0.690243</vAcc></extensions></trkpt>
      <trkpt lon="-3.317698" lat="54.547654"><ele>319.439362</ele><time>2021-08-12T11:28:56Z</time><extensions><speed>0.817030</speed><course>171.894135</course><hAcc>0.877100</hAcc><vAcc>0.690043</vAcc></extensions></trkpt>
      <trkpt lon="-3.317703" lat="54.547661"><ele>319.587585</ele><time>2021-08-12T11:28:57Z</time><extensions><speed>0.812196</speed><course>183.275330</course><hAcc>0.877030</hAcc><vAcc>0.689739</vAcc></extensions></trkpt>
      <trkpt lon="-3.317708" lat="54.547668"><ele>319.735626</ele><time>2021-08-12T11:28:58Z</time><extensions><speed>0.809049</speed><course>184.743423</course><hAcc>0.876951</hAcc><vAcc>0.689356</vAcc></extensions></trkpt>
      <trkpt lon="-3.317713" lat="54.547675"><ele>319.883484</ele><time>2021-08-12T11:28:59Z</time><extensions><speed>0.806806</speed><course>187.377213</course><hAcc>0.876870</hAcc><vAcc>0.688942</vAcc></extensions></trkpt>
      <trkpt lon="-3.317717" lat="54.547681"><ele>320.030731</ele><time>2021-08-12T11:29:00Z</time><extensions><speed>0.804845</speed><course>178.027603</course><hAcc>0.876797</hAcc><vAcc>0.688553</vAcc></extensions></trkpt>
      <trkpt lon="-3.317722" lat="54.547688"><ele>320.176849</ele><time>2021-08-12T11:29:01Z</time><extensions><speed>0.802913</speed><course>178.136368</course><hAcc>0.876740</hAcc><vAcc>0.688242</vAcc></extensions></trkpt>
      <trkpt lon="-3.317727" lat="54.547695"><ele>320.321533</ele><time>2021-08-12T11:29:02Z</time><extensions><speed>0.801180</speed><course>181.274490</course><hAcc>0.876705</hAcc><vAcc>0.688057</vAcc></extensions></trkpt>
      <trkpt lon="-3.317732" lat="54.547701"><ele>320.464508</ele><time>2021-08-12T11:29:03Z</time><extensions><speed>0.800158</speed><course>197.035065</course><hAcc>0.876695</hAcc><vAcc>0.688024</vAcc></extensions></trkpt>
      <trkpt lon="-3.317737" lat="54.547708"><ele>320.605347</ele><time>2021-08-12T11:29:04Z</time><extensions><speed>0.800200</speed><course>204.692612</course><hAcc>0.876709</hAcc><vAcc>0.688141</vAcc></extensions></trkpt>
      <trkpt lon="-3.317742" lat="54.547714"><ele>320.743378</ele><time>2021-08-12T11:29:05Z</time><extensions><speed>0.801029</speed><course>213.039078</course><hAcc>0.876743</hAcc><vAcc>0.688378</vAcc></extensions></trkpt>
      <trkpt lon="-3.317748" lat="54.547721"><ele>320.878174</ele><time>2021-08-12T11:29:06Z</time><extensions><speed>0.802269</speed><course>220.763565</course><hAcc>0.876788</hAcc><vAcc>0.688680</vAcc></extensions></trkpt>
      <trkpt lon="-3.317753" lat="54.547727"><ele>321.009277</ele><time>2021-08-12T11:29:07Z</time><extensions><speed>0.803544</speed><course>226.732666</course><hAcc>0.876833</hAcc><vAcc>0.688986</vAcc></extensions></trkpt>
      <trkpt lon="-3.317759" lat="54.547734"><ele>321.136688</ele><time>2021-08-12T11:29:08Z</time><extensions><speed>0.804472</speed><course>231.810226</course><hAcc>0.876868</hAcc><vAcc>0.689228</vAcc></extensions></trkpt>
      <trkpt lon="-3.317765" lat="54.547740"><ele>321.261353</ele><time>2021-08-12T11:29:09Z</time><extensions><speed>0.804681</speed><course>257.258179</course><hAcc>0.876884</hAcc><vAcc>0.689354</vAcc></extensions></trkpt>
      <trkpt lon="-3.317771" lat="54.547746"><ele>321.384949</ele><time>2021-08-12T11:29:10Z</time><extensions><speed>0.803476</speed><course>266.164734</course><hAcc>0.876873</hAcc><vAcc>0.689334</vAcc></extensions></trkpt>
      <trkpt lon="-3.317777" lat="54.547753"><ele>321.509216</ele><time>2021-08-12T11:29:11Z</time><extensions><speed>0.799881</speed><course>266.164734</course><hAcc>0.876832</hAcc><vAcc>0.689164</vAcc></extensions></trkpt>
      <trkpt lon="-3.317782" lat="54.547759"><ele>321.635620</ele><time>2021-08-12T11:29:12Z</time><extensions><speed>0.793170</speed><course>266.164734</course><hAcc>0.876760</hAcc><vAcc>0.688857</vAcc></extensions></trkpt>
      <trkpt lon="-3.317787" lat="54.547765"><ele>321.765381</ele><time>2021-08-12T11:29:13Z</time><extensions><speed>0.782965</speed><course>220.132019</course><hAcc>0.876660</hAcc><vAcc>0.688434</vAcc></extensions></trkpt>
      <trkpt lon="-3.317792" lat="54.547772"><ele>321.899109</ele><time>2021-08-12T11:29:14Z</time><extensions><speed>0.769997</speed><course>228.232590</course><hAcc>0.876536</hAcc><vAcc>0.687922</vAcc></extensions></trkpt>
      <trkpt lon="-3.317797" lat="54.547778"><ele>322.036926</ele><time>2021-08-12T11:29:15Z</time><extensions><speed>0.755584</speed><course>234.079605</course><hAcc>0.876394</hAcc><vAcc>0.687345</vAcc></extensions></trkpt>
      <trkpt lon="-3.317800" lat="54.547785"><ele>322.178833</ele><time>2021-08-12T11:29:16Z</time><extensions><speed>0.740440</speed><course>246.469162</course><hAcc>0.876240</hAcc><vAcc>0.686726</vAcc></extensions></trkpt>
      <trkpt lon="-3.317804" lat="54.547791"><ele>322.324799</ele><time>2021-08-12T11:29:17Z</time><extensions><speed>0.725544</speed><course>245.207291</course><hAcc>0.876083</hAcc><vAcc>0.686092</vAcc></extensions></trkpt>
      <trkpt lon="-3.317807" lat="54.547797"><ele>322.474274</ele><time>2021-08-12T11:29:18Z</time><extensions><speed>0.712285</speed><course>243.898834</course><hAcc>0.875931</hAcc><vAcc>0.685473</vAcc></extensions></trkpt>
      <trkpt lon="-3.317810" lat="54.547803"><ele>322.626038</ele><time>2021-08-12T11:29:19Z</time><extensions><speed>0.701867</speed><course>238.112976</course><hAcc>0.875793</hAcc><vAcc>0.684903</vAcc></extensions></trkpt>
      <trkpt lon="-3.317812" lat="54.547809"><ele>322.778442</ele><time>2021-08-12T11:29:20Z</time><extensions><speed>0.695312</speed><course>238.308395</course><hAcc>0.875677</hAcc><vAcc>0.684420</vAcc></extensions></trkpt>
      <trkpt lon="-3.317814" lat="54.547815"><ele>322.929596</ele><time>2021-08-12T11:29:21Z</time><extensions><speed>0.693237</speed><course>242.479843</course><hAcc>0.875591</hAcc><vAcc>0.684060</vAcc></extensions></trkpt>
      <trkpt lon="-3.317817" lat="54.547821"><ele>323.078033</ele><time>2021-08-12T11:29:22Z</time><extensions><speed>0.695935</speed><course>241.402863</course><hAcc>0.875542</hAcc><vAcc>0.683852</vAcc></extensions></trkpt>
      <trkpt lon="-3.317819" lat="54.547828"><ele>323.222809</ele><time>2021-08-12T11:29:23Z</time><extensions><speed>0.703064</speed><course>237.836914</course><hAcc>0.875532</hAcc><vAcc>0.683814</vAcc></extensions></trkpt>
      <trkpt lon="-3.317822" lat="54.547834"><ele>323.363373</ele><time>2021-08-12T11:29:24Z</time><extensions><speed>0.713345</speed><course>241.232681</course><hAcc>0.875562</hAcc><vAcc>0.683944</vAcc></extensions></trkpt>
      <trkpt lon="-3.317824" lat="54.547840"><ele>323.499451</ele><time>2021-08-12T11:29:25Z</time><extensions><speed>0.725810</speed><course>262.141510</course><hAcc>0.875629</hAcc><vAcc>0.684229</vAcc></extensions></trkpt>
      <trkpt lon="-3.317827" lat="54.547846"><ele>323.630615</ele><time>2021-08-12T11:29:26Z</time><extensions><speed>0.740016</speed><course>261.447266</course><hAcc>0.875729</hAcc><vAcc>0.684646</vAcc></extensions></trkpt>
      <trkpt lon="-3.317830" lat="54.547853"><ele>323.755798</ele><time>2021-08-12T11:29:27Z</time><extensions><speed>0.755880</speed><course>261.925140</course><hAcc>0.875855</hAcc><vAcc>0.685163</vAcc></extensions></trkpt>
      <trkpt lon="-3.317832" lat="54.547860"><ele>323.873596</ele><time>2021-08-12T11:29:28Z</time><extensions><speed>0.773607</speed><course>266.740814</course><hAcc>0.875999</hAcc><vAcc>0.685750</vAcc></extensions></trkpt>
      <trkpt lon="-3.317835" lat="54.547867"><ele>323.982788</ele><time>2021-08-12T11:29:29Z</time><extensions><speed>0.793087</speed><course>263.896973</course><hAcc>0.876154</hAcc><vAcc>0.686380</vAcc></extensions></trkpt>
      <trkpt lon="-3.317838" lat="54.547874"><ele>324.082520</ele><time>2021-08-12T11:29:30Z</time><extensions><speed>0.814219</speed><course>261.924744</course><hAcc>0.876311</hAcc><vAcc>0.687027</vAcc></extensions></trkpt>
      <trkpt lon="-3.317840" lat="54.547881"><ele>324.172272</ele><time>2021-08-12T11:29:31Z</time><extensions><speed>0.837052</speed><course>264.486481</course><hAcc>0.876463</hAcc><vAcc>0.687658</vAcc></extensions></trkpt>
      <trkpt lon="-3.317843" lat="54.547888"><ele>324.251953</ele><time>2021-08-12T11:29:32Z</time><extensions><speed>0.861744</speed><course>263.217468</course><hAcc>0.876604</hAcc><vAcc>0.688243</vAcc></extensions></trkpt>
      <trkpt lon="-3.317846" lat="54.547896"><ele>324.321381</ele><time>2021-08-12T11:29:33Z</time><extensions><speed>0.888607</speed><course>266.412231</course><hAcc>0.876727</hAcc><vAcc>0.688747</vAcc></extensions></trkpt>
      <trkpt lon="-3.317849" lat="54.547904"><ele>324.381073</ele><time>2021-08-12T11:29:34Z</time><extensions><speed>0.917584</speed><course>270.399445</course><hAcc>0.876832</hAcc><vAcc>0.689145</vAcc></extensions></trkpt>
      <trkpt lon="-3.317852" lat="54.547912"><ele>324.432800</ele><time>2021-08-12T11:29:35Z</time><extensions><speed>0.948818</speed><course>260.295807</course><hAcc>0.876917</hAcc><vAcc>0.689421</vAcc></extensions></trkpt>
      <trkpt lon="-3.317855" lat="54.547921"><ele>324.479401</ele><time>2021-08-12T11:29:36Z</time><extensions><speed>0.982586</speed><course>254.591400</course><hAcc>0.876987</hAcc><vAcc>0.689587</vAcc></extensions></trkpt>
      <trkpt lon="-3.317858" lat="54.547929"><ele>324.523834</ele><time>2021-08-12T11:29:37Z</time><extensions><speed>1.018506</speed><course>246.407776</course><hAcc>0.877050</hAcc><vAcc>0.689682</vAcc></extensions></trkpt>
      <trkpt lon="-3.317862" lat="54.547938"><ele>324.568878</ele><time>2021-08-12T11:29:38Z</time><extensions><speed>1.055586</speed><course>240.825714</course><hAcc>0.877117</hAcc><vAcc>0.689766</vAcc></extensions></trkpt>
      <trkpt lon="-3.317866" lat="54.547948"><ele>324.616516</ele><time>2021-08-12T11:29:39Z</time><extensions><speed>1.092312</speed><course>235.078873</course><hAcc>0.877199</hAcc><vAcc>0.689909</vAcc></extensions></trkpt>
      <trkpt lon="-3.317871" lat="54.547957"><ele>324.667358</ele><time>2021-08-12T11:29:40Z</time><extensions><speed>1.127164</speed><course>230.996750</course><hAcc>0.877308</hAcc><vAcc>0.690185</vAcc></extensions></trkpt>
      <trkpt lon="-3.317876" lat="54.547967"><ele>324.721283</ele><time>2021-08-12T11:29:41Z</time><extensions><speed>1.158827</speed><course>237.371124</course><hAcc>0.877453</hAcc><vAcc>0.690657</vAcc></extensions></trkpt>
      <trkpt lon="-3.317881" lat="54.547977"><ele>324.778137</ele><time>2021-08-12T11:29:42Z</time><extensions><speed>1.186386</speed><course>233.251434</course><hAcc>0.877640</hAcc><vAcc>0.691365</vAcc></extensions></trkpt>
      <trkpt lon="-3.317886" lat="54.547988"><ele>324.838318</ele><time>2021-08-12T11:29:43Z</time><extensions><speed>1.209070</speed><course>229.059296</course><hAcc>0.877869</hAcc><vAcc>0.692316</vAcc></extensions></trkpt>
      <trkpt lon="-3.317892" lat="54.547998"><ele>324.902039</ele><time>2021-08-12T11:29:44Z</time><extensions><speed>1.225947</speed><course>237.299759</course><hAcc>0.878136</hAcc><vAcc>0.693474</vAcc></extensions></trkpt>
      <trkpt lon="-3.317897" lat="54.548009"><ele>324.968903</ele><time>2021-08-12T11:29:45Z</time><extensions><speed>1.236916</speed><course>228.636597</course><hAcc>0.878427</hAcc><vAcc>0.694754</vAcc></extensions></trkpt>
      <trkpt lon="-3.317903" lat="54.548019"><ele>325.037872</ele><time>2021-08-12T11:29:46Z</time><extensions><speed>1.242789</speed><course>232.788193</course><hAcc>0.878727</hAcc><vAcc>0.696048</vAcc></extensions></trkpt>
      <trkpt lon="-3.317909" lat="54.548030"><ele>325.108093</ele><time>2021-08-12T11:29:47Z</time><extensions><speed>1.244352</speed><course>226.630402</course><hAcc>0.879019</hAcc><vAcc>0.697258</vAcc></extensions></trkpt>
      <trkpt lon="-3.317915" lat="54.548041"><ele>325.179626</ele><time>2021-08-12T11:29:48Z</time><extensions><speed>1.242506</speed><course>231.208252</course><hAcc>0.879286</hAcc><vAcc>0.698310</vAcc></extensions></trkpt>
      <trkpt lon="-3.317920" lat="54.548051"><ele>325.252991</ele><time>2021-08-12T11:29:49Z</time><extensions><speed>1.238340</speed><course>221.171371</course><hAcc>0.879512</hAcc><vAcc>0.699161</vAcc></extensions></trkpt>
      <trkpt lon="-3.317926" lat="54.548062"><ele>325.328918</ele><time>2021-08-12T11:29:50Z</time><extensions><speed>1.232601</speed><course>226.944763</course><hAcc>0.879685</hAcc><vAcc>0.699791</vAcc></extensions></trkpt>
      <trkpt lon="-3.317932" lat="54.548072"><ele>325.407806</ele><time>2021-08-12T11:29:51Z</time><extensions><speed>1.225510</speed><course>229.173843</course><hAcc>0.879792</hAcc><vAcc>0.700190</vAcc></extensions></trkpt>
      <trkpt lon="-3.317938" lat="54.548083"><ele>325.490326</ele><time>2021-08-12T11:29:52Z</time><extensions><speed>1.216843</speed><course>219.367737</course><hAcc>0.879824</hAcc><vAcc>0.700345</vAcc></extensions></trkpt>
      <trkpt lon="-3.317943" lat="54.548093"><ele>325.577515</ele><time>2021-08-12T11:29:53Z</time><extensions><speed>1.206329</speed><course>228.114029</course><hAcc>0.879773</hAcc><vAcc>0.700231</vAcc></extensions></trkpt>
      <trkpt lon="-3.317948" lat="54.548104"><ele>325.670410</ele><time>2021-08-12T11:29:54Z</time><extensions><speed>1.193907</speed><course>227.965424</course><hAcc>0.879632</hAcc><vAcc>0.699816</vAcc></extensions></trkpt>
      <trkpt lon="-3.317952" lat="54.548114"><ele>325.769684</ele><time>2021-08-12T11:29:55Z</time><extensions><speed>1.180226</speed><course>229.338791</course><hAcc>0.879398</hAcc><vAcc>0.699064</vAcc></extensions></trkpt>
      <trkpt lon="-3.317956" lat="54.548124"><ele>325.875793</ele><time>2021-08-12T11:29:56Z</time><extensions><speed>1.166750</speed><course>231.293549</course><hAcc>0.879066</hAcc><vAcc>0.697946</vAcc></extensions></trkpt>
      <trkpt lon="-3.317958" lat="54.548135"><ele>325.988953</ele><time>2021-08-12T11:29:57Z</time><extensions><speed>1.155421</speed><course>238.754257</course><hAcc>0.878638</hAcc><vAcc>0.696441</vAcc></extensions></trkpt>
      <trkpt lon="-3.317960" lat="54.548145"><ele>326.109406</ele><time>2021-08-12T11:29:58Z</time><extensions><speed>1.148132</speed><course>238.093399</course><hAcc>0.878117</hAcc><vAcc>0.694548</vAcc></extensions></trkpt>
      <trkpt lon="-3.317960" lat="54.548155"><ele>326.237366</ele><time>2021-08-12T11:29:59Z</time><extensions><speed>1.146085</speed><course>230.021591</course><hAcc>0.877508</hAcc><vAcc>0.692296</vAcc></extensions></trkpt>
      <trkpt lon="-3.317959" lat="54.548166"><ele>326.372772</ele><time>2021-08-12T11:30:00Z</time><extensions><speed>1.149606</speed><course>229.821030</course><hAcc>0.876821</hAcc><vAcc>0.689734</vAcc></extensions></trkpt>
      <trkpt lon="-3.317957" lat="54.548176"><ele>326.514862</ele><time>2021-08-12T11:30:01Z</time><extensions><speed>1.158197</speed><course>228.941864</course><hAcc>0.876068</hAcc><vAcc>0.686924</vAcc></extensions></trkpt>
      <trkpt lon="-3.317954" lat="54.548186"><ele>326.662079</ele><time>2021-08-12T11:30:02Z</time><extensions><speed>1.171005</speed><course>224.795181</course><hAcc>0.875267</hAcc><vAcc>0.683925</vAcc></extensions></trkpt>
      <trkpt lon="-3.317950" lat="54.548196"><ele>326.812469</ele><time>2021-08-12T11:30:03Z</time><extensions><speed>1.186792</speed><course>216.307693</course><hAcc>0.874435</hAcc><vAcc>0.680803</vAcc></extensions></trkpt>
      <trkpt lon="-3.317946" lat="54.548207"><ele>326.964752</ele><time>2021-08-12T11:30:04Z</time><extensions><speed>1.204193</speed><course>222.735626</course><hAcc>0.873597</hAcc><vAcc>0.677636</vAcc></extensions></trkpt>
      <trkpt lon="-3.317940" lat="54.548217"><ele>327.117981</ele><time>2021-08-12T11:30:05Z</time><extensions><speed>1.222140</speed><course>223.242310</course><hAcc>0.872781</hAcc><vAcc>0.674529</vAcc></extensions></trkpt>
      <trkpt lon="-3.317934" lat="54.548228"><ele>327.270813</ele><time>2021-08-12T11:30:06Z</time><extensions><speed>1.239846</speed><course>230.312881</course><hAcc>0.872019</hAcc><vAcc>0.671602</vAcc></extensions></trkpt>
      <trkpt lon="-3.317928" lat="54.548239"><ele>327.421631</ele><time>2021-08-12T11:30:07Z</time><extensions><speed>1.256762</speed><course>225.102798</course><hAcc>0.871345</hAcc><vAcc>0.668991</vAcc></extensions></trkpt>
      <trkpt lon="-3.317922" lat="54.548249"><ele>327.569855</ele><time>2021-08-12T11:30:08Z</time><extensions><speed>1.272805</speed><course>221.291122</course><hAcc>0.870798</hAcc><vAcc>0.666842</vAcc></extensions></trkpt>
      <trkpt lon="-3.317916" lat="54.548260"><ele>327.715424</ele><time>2021-08-12T11:30:09Z</time><extensions><speed>1.288512</speed><course>215.623337</course><hAcc>0.870415</hAcc><vAcc>0.665306</vAcc></extensions></trkpt>
      <trkpt lon="-3.317910" lat="54.548271"><ele>327.858368</ele><time>2021-08-12T11:30:10Z</time><extensions><speed>1.304323</speed><course>211.427963</course><hAcc>0.870235</hAcc><vAcc>0.664528</vAcc></extensions></trkpt>
      <trkpt lon="-3.317904" lat="54.548283"><ele>327.999634</ele><time>2021-08-12T11:30:11Z</time><extensions><speed>1.319936</speed><course>214.863312</course><hAcc>0.870291</hAcc><vAcc>0.664623</vAcc></extensions></trkpt>
      <trkpt lon="-3.317898" lat="54.548294"><ele>328.140686</ele><time>2021-08-12T11:30:12Z</time><extensions><speed>1.334691</speed><course>209.288147</course><hAcc>0.870609</hAcc><vAcc>0.665651</vAcc></extensions></trkpt>
      <trkpt lon="-3.317893" lat="54.548306"><ele>328.282257</ele><time>2021-08-12T11:30:13Z</time><extensions><speed>1.347669</speed><course>213.399612</course><hAcc>0.871201</hAcc><vAcc>0.667586</vAcc></extensions></trkpt>
      <trkpt lon="-3.317888" lat="54.548317"><ele>328.423462</ele><time>2021-08-12T11:30:14Z</time><extensions><speed>1.357600</speed><course>209.037766</course><hAcc>0.872066</hAcc><vAcc>0.670320</vAcc></extensions></trkpt>
      <trkpt lon="-3.317883" lat="54.548329"><ele>328.562042</ele><time>2021-08-12T11:30:15Z</time><extensions><speed>1.363699</speed><course>198.395279</course><hAcc>0.873199</hAcc><vAcc>0.673703</vAcc></extensions></trkpt>
      <trkpt lon="-3.317879" lat="54.548341"><ele>328.695099</ele><time>2021-08-12T11:30:16Z</time><extensions><speed>1.365628</speed><course>210.540466</course><hAcc>0.874600</hAcc><vAcc>0.677576</vAcc></extensions></trkpt>
      <trkpt lon="-3.317875" lat="54.548353"><ele>328.820404</ele><time>2021-08-12T11:30:17Z</time><extensions><speed>1.363136</speed><course>216.565186</course><hAcc>0.876268</hAcc><vAcc>0.681783</vAcc></extensions></trkpt>
      <trkpt lon="-3.317871" lat="54.548365"><ele>328.936798</ele><time>2021-08-12T11:30:18Z</time><extensions><speed>1.356262</speed><course>216.875626</course><hAcc>0.878203</hAcc><vAcc>0.686173</vAcc></extensions></trkpt>
      <trkpt lon="-3.317867" lat="54.548377"><ele>329.044342</ele><time>2021-08-12T11:30:19Z</time><extensions><speed>1.345354</speed><course>213.073944</course><hAcc>0.880400</hAcc><vAcc>0.690603</vAcc></extensions></trkpt>
      <trkpt lon="-3.317863" lat="54.548389"><ele>329.144318</ele><time>2021-08-12T11:30:20Z</time><extensions><speed>1.330650</speed><course>206.496414</course><hAcc>0.882838</hAcc><vAcc>0.694935</vAcc></extensions></trkpt>
      <trkpt lon="-3.317860" lat="54.548401"><ele>329.238800</ele><time>2021-08-12T11:30:21Z</time><extensions><speed>1.311989</speed><course>207.745499</course><hAcc>0.885470</hAcc><vAcc>0.699044</vAcc></extensions></trkpt>
      <trkpt lon="-3.317856" lat="54.548412"><ele>329.330200</ele><time>2021-08-12T11:30:22Z</time><extensions><speed>1.289559</speed><course>210.428009</course><hAcc>0.888212</hAcc><vAcc>0.702799</vAcc></extensions></trkpt>
      <trkpt lon="-3.317852" lat="54.548424"><ele>329.420685</ele><time>2021-08-12T11:30:23Z</time><extensions><speed>1.263980</speed><course>207.611023</course><hAcc>0.890932</hAcc><vAcc>0.706075</vAcc></extensions></trkpt>
      <trkpt lon="-3.317848" lat="54.548434"><ele>329.512207</ele><time>2021-08-12T11:30:24Z</time><extensions><speed>1.235842</speed><course>210.041336</course><hAcc>0.893454</hAcc><vAcc>0.708759</vAcc></extensions></trkpt>
      <trkpt lon="-3.317843" lat="54.548445"><ele>329.606689</ele><time>2021-08-12T11:30:25Z</time><extensions><speed>1.205669</speed><course>211.119202</course><hAcc>0.895577</hAcc><vAcc>0.710776</vAcc></extensions></trkpt>
      <trkpt lon="-3.317838" lat="54.548455"><ele>329.705109</ele><time>2021-08-12T11:30:26Z</time><extensions><speed>1.174451</speed><course>215.032761</course><hAcc>0.897125</hAcc><vAcc>0.712138</vAcc></extensions></trkpt>
      <trkpt lon="-3.317833" lat="54.548465"><ele>329.807037</ele><time>2021-08-12T11:30:27Z</time><extensions><speed>1.143594</speed><course>215.892059</course><hAcc>0.898046</hAcc><vAcc>0.713034</vAcc></extensions></trkpt>
      <trkpt lon="-3.317827" lat="54.548475"><ele>329.911285</ele><time>2021-08-12T11:30:28Z</time><extensions><speed>1.113891</speed><course>208.710144</course><hAcc>0.898580</hAcc><vAcc>0.713976</vAcc></extensions></trkpt>
      <trkpt lon="-3.317821" lat="54.548484"><ele>330.016998</ele><time>2021-08-12T11:30:29Z</time><extensions><speed>1.085828</speed><course>204.101471</course><hAcc>0.899513</hAcc><vAcc>0.715991</vAcc></extensions></trkpt>
      <trkpt lon="-3.317814" lat="54.548493"><ele>330.123871</ele><time>2021-08-12T11:30:30Z</time><extensions><speed>1.060322</speed><course>208.109482</course><hAcc>0.902546</hAcc><vAcc>0.720858</vAcc></extensions></trkpt>
      <trkpt lon="-3.317807" lat="54.548501"><ele>330.231903</ele><time>2021-08-12T11:30:31Z</time><extensions><speed>1.038337</speed><course>201.394348</course><hAcc>0.910732</hAcc><vAcc>0.731354</vAcc></extensions></trkpt>
      <trkpt lon="-3.317799" lat="54.548509"><ele>330.340942</ele><time>2021-08-12T11:30:32Z</time><extensions><speed>1.020435</speed><course>199.619629</course><hAcc>0.928903</hAcc><vAcc>0.751379</vAcc></extensions></trkpt>
      <trkpt lon="-3.317791" lat="54.548517"><ele>330.450806</ele><time>2021-08-12T11:30:33Z</time><extensions><speed>1.006985</speed><course>197.929596</course><hAcc>0.963808</hAcc><vAcc>0.785820</vAcc></extensions></trkpt>
      <trkpt lon="-3.317774" lat="54.548519"><ele>330.552429</ele><time>2021-08-12T11:30:34Z</time><extensions><speed>1.057653</speed><course>74.967865</course><hAcc>0.926277</hAcc><vAcc>0.751442</vAcc></extensions></trkpt>
      <trkpt lon="-3.317757" lat="54.548520"><ele>330.586792</ele><time>2021-08-12T11:30:35Z</time><extensions><speed>1.101395</speed><course>75.133301</course><hAcc>0.908372</hAcc><vAcc>0.733828</vAcc></extensions></trkpt>
      <trkpt lon="-3.317740" lat="54.548521"><ele>330.624573</ele><time>2021-08-12T11:30:36Z</time><extensions><speed>1.151898</speed><course>66.099251</course><hAcc>0.901551</hAcc><vAcc>0.726395</vAcc></extensions></trkpt>
      <trkpt lon="-3.317721" lat="54.548520"><ele>330.666016</ele><time>2021-08-12T11:30:37Z</time><extensions><speed>1.206452</speed><course>81.237114</course><hAcc>0.900292</hAcc><vAcc>0.724783</vAcc></extensions></trkpt>
      <trkpt lon="-3.317702" lat="54.548520"><ele>330.711029</ele><time>2021-08-12T11:30:38Z</time><extensions><speed>1.261578</speed><course>80.566093</course><hAcc>0.901124</hAcc><vAcc>0.725938</vAcc></extensions></trkpt>
      <trkpt lon="-3.317682" lat="54.548519"><ele>330.759430</ele><time>2021-08-12T11:30:39Z</time><extensions><speed>1.313621</speed><course>80.566109</course><hAcc>0.902149</hAcc><vAcc>0.727952</vAcc></extensions></trkpt>
      <trkpt lon="-3.317662" lat="54.548517"><ele>330.810974</ele><time>2021-08-12T11:30:40Z</time><extensions><speed>1.359301</speed><course>80.566093</course><hAcc>0.902517</hAcc><vAcc>0.729772</vAcc></extensions></trkpt>
      <trkpt lon="-3.317641" lat="54.548515"><ele>330.865265</ele><time>2021-08-12T11:30:41Z</time><extensions><speed>1.396812</speed><course>80.566093</course><hAcc>0.902004</hAcc><vAcc>0.730923</vAcc></extensions></trkpt>
      <trkpt lon="-3.317620" lat="54.548513"><ele>330.921997</ele><time>2021-08-12T11:30:42Z</time><extensions><speed>1.425371</speed><course>80.566093</course><hAcc>0.900717</hAcc><vAcc>0.731281</vAcc></extensions></trkpt>
      <trkpt lon="-3.317598" lat="54.548510"><ele>330.981049</ele><time>2021-08-12T11:30:43Z</time><extensions><speed>1.443912</speed><course>77.344681</course><hAcc>0.898894</hAcc><vAcc>0.730914</vAcc></extensions></trkpt>
      <trkpt lon="-3.317576" lat="54.548507"><ele>331.042847</ele><time>2021-08-12T11:30:44Z</time><extensions><speed>1.452210</speed><course>77.923714</course><hAcc>0.896801</hAcc><vAcc>0.729977</vAcc></extensions></trkpt>
      <trkpt lon="-3.317555" lat="54.548503"><ele>331.107941</ele><time>2021-08-12T11:30:45Z</time><extensions><speed>1.451319</speed><course>87.073212</course><hAcc>0.894661</hAcc><vAcc>0.728649</vAcc></extensions></trkpt>
      <trkpt lon="-3.317534" lat="54.548499"><ele>331.176453</ele><time>2021-08-12T11:30:46Z</time><extensions><speed>1.442871</speed><course>79.233902</course><hAcc>0.892641</hAcc><vAcc>0.727105</vAcc></extensions></trkpt>
      <trkpt lon="-3.317513" lat="54.548494"><ele>331.247070</ele><time>2021-08-12T11:30:47Z</time><extensions><speed>1.428666</speed><course>96.572746</course><hAcc>0.890842</hAcc><vAcc>0.725490</vAcc></extensions></trkpt>
      <trkpt lon="-3.317492" lat="54.548490"><ele>331.317078</ele><time>2021-08-12T11:30:48Z</time><extensions><speed>1.410347</speed><course>86.920219</course><hAcc>0.889311</hAcc><vAcc>0.723914</vAcc></extensions></trkpt>
      <trkpt lon="-3.317473" lat="54.548484"><ele>331.383667</ele><time>2021-08-12T11:30:49Z</time><extensions><speed>1.388902</speed><course>76.786201</course><hAcc>0.888057</hAcc><vAcc>0.722444</vAcc></extensions></trkpt>
      <trkpt lon="-3.317454" lat="54.548479"><ele>331.444794</ele><time>2021-08-12T11:30:50Z</time><extensions><speed>1.364694</speed><course>77.162971</course><hAcc>0.887059</hAcc><vAcc>0.721122</vAcc></extensions></trkpt>
      <trkpt lon="-3.317435" lat="54.548473"><ele>331.499878</ele><time>2021-08-12T11:30:51Z</time><extensions><speed>1.338535</speed><course>69.604996</course><hAcc>0.886284</hAcc><vAcc>0.719959</vAcc></extensions></trkpt>
      <trkpt lon="-3.317418" lat="54.548467"><ele>331.549683</ele><time>2021-08-12T11:30:52Z</time><extensions><speed>1.312103</speed><course>76.115456</course><hAcc>0.885691</hAcc><vAcc>0.718948</vAcc></extensions></trkpt>
      <trkpt lon="-3.317401" lat="54.548461"><ele>331.595612</ele><time>2021-08-12T11:30:53Z</time><extensions><speed>1.287464</speed><course>83.646278</course><hAcc>0.885242</hAcc><vAcc>0.718068</vAcc></extensions></trkpt>
      <trkpt lon="-3.317385" lat="54.548454"><ele>331.639099</ele><time>2021-08-12T11:30:54Z</time><extensions><speed>1.266473</speed><course>76.408623</course><hAcc>0.884901</hAcc><vAcc>0.717295</vAcc></extensions></trkpt>
      <trkpt lon="-3.317369" lat="54.548447"><ele>331.681030</ele><time>2021-08-12T11:30:55Z</time><extensions><speed>1.250561</speed><course>79.439453</course><hAcc>0.884638</hAcc><vAcc>0.716606</vAcc></extensions></trkpt>
      <trkpt lon="-3.317354" lat="54.548440"><ele>331.722290</ele><time>2021-08-12T11:30:56Z</time><extensions><speed>1.240273</speed><course>75.300941</course><hAcc>0.884432</hAcc><vAcc>0.715985</vAcc></extensions></trkpt>
      <trkpt lon="-3.317340" lat="54.548433"><ele>331.764008</ele><time>2021-08-12T11:30:57Z</time><extensions><speed>1.235185</speed><course>76.126534</course><hAcc>0.884263</hAcc><vAcc>0.715422</vAcc></extensions></trkpt>
      <trkpt lon="-3.317326" lat="54.548425"><ele>331.807587</ele><time>2021-08-12T11:30:58Z</time><extensions><speed>1.234730</speed><course>75.233688</course><hAcc>0.884121</hAcc><vAcc>0.714910</vAcc></extensions></trkpt>
      <trkpt lon="-3.317312" lat="54.548418"><ele>331.854675</ele><time>2021-08-12T11:30:59Z</time><extensions><speed>1.237731</speed><course>81.891060</course><hAcc>0.883997</hAcc><vAcc>0.714446</vAcc></extensions></trkpt>
      <trkpt lon="-3.317298" lat="54.548410"><ele>331.906006</ele><time>2021-08-12T11:31:00Z</time><extensions><speed>1.242521</speed><course>78.263519</course><hAcc>0.883887</hAcc><vAcc>0.714031</vAcc></extensions></trkpt>
      <trkpt lon="-3.317285" lat="54.548402"><ele>331.961945</ele><time>2021-08-12T11:31:01Z</time><extensions><speed>1.247667</speed><course>74.907532</course><hAcc>0.883788</hAcc><vAcc>0.713661</vAcc></extensions></trkpt>
      <trkpt lon="-3.317271" lat="54.548394"><ele>332.023621</ele><time>2021-08-12T11:31:02Z</time><extensions><speed>1.251638</speed><course>84.941742</course><hAcc>0.883698</hAcc><vAcc>0.713336</vAcc></extensions></trkpt>
      <trkpt lon="-3.317257" lat="54.548386"><ele>332.092621</ele><time>2021-08-12T11:31:03Z</time><extensions><speed>1.253099</speed><course>73.584358</course><hAcc>0.883619</hAcc><vAcc>0.713054</vAcc></extensions></trkpt>
      <trkpt lon="-3.317244" lat="54.548378"><ele>332.169678</ele><time>2021-08-12T11:31:04Z</time><extensions><speed>1.251554</speed><course>96.346313</course><hAcc>0.883547</hAcc><vAcc>0.712813</vAcc></extensions></trkpt>
      <trkpt lon="-3.317230" lat="54.548370"><ele>332.254364</ele><time>2021-08-12T11:31:05Z</time><extensions><speed>1.246623</speed><course>87.208282</course><hAcc>0.883485</hAcc><vAcc>0.712612</vAcc></extensions></trkpt>
      <trkpt lon="-3.317217" lat="54.548362"><ele>332.345306</ele><time>2021-08-12T11:31:06Z</time><extensions><speed>1.237702</speed><course>71.034035</course><hAcc>0.883430</hAcc><vAcc>0.712449</vAcc></extensions></trkpt>
      <trkpt lon="-3.317204" lat="54.548354"><ele>332.440643</ele><time>2021-08-12T11:31:07Z</time><extensions><speed>1.224162</speed><course>74.315559</course><hAcc>0.883382</hAcc><vAcc>0.712318</vAcc></extensions></trkpt>
      <trkpt lon="-3.317191" lat="54.548346"><ele>332.537842</ele><time>2021-08-12T11:31:08Z</time><extensions><speed>1.205716</speed><course>82.074326</course><hAcc>0.883341</hAcc><vAcc>0.712209</vAcc></extensions></trkpt>
      <trkpt lon="-3.317178" lat="54.548339"><ele>332.634033</ele><time>2021-08-12T11:31:09Z</time><extensions><speed>1.182337</speed><course>78.798851</course><hAcc>0.883307</hAcc><vAcc>0.712114</vAcc></extensions></trkpt>
      <trkpt lon="-3.317165" lat="54.548331"><ele>332.726746</ele><time>2021-08-12T11:31:10Z</time><extensions><speed>1.155376</speed><course>71.049065</course><hAcc>0.883281</hAcc><vAcc>0.712024</vAcc></extensions></trkpt>
      <trkpt lon="-3.317152" lat="54.548324"><ele>332.813782</ele><time>2021-08-12T11:31:11Z</time><extensions><speed>1.127002</speed><course>66.417450</course><hAcc>0.883263</hAcc><vAcc>0.711939</vAcc></extensions></trkpt>
      <trkpt lon="-3.317140" lat="54.548317"><ele>332.893219</ele><time>2021-08-12T11:31:12Z</time><extensions><speed>1.098069</speed><course>67.881187</course><hAcc>0.883255</hAcc><vAcc>0.711868</vAcc></extensions></trkpt>
      <trkpt lon="-3.317127" lat="54.548311"><ele>332.963745</ele><time>2021-08-12T11:31:13Z</time><extensions><speed>1.068715</speed><course>73.946594</course><hAcc>0.883258</hAcc><vAcc>0.711826</vAcc></extensions></trkpt>
      <trkpt lon="-3.317115" lat="54.548305"><ele>333.024963</ele><time>2021-08-12T11:31:14Z</time><extensions><speed>1.039453</speed><course>66.868568</course><hAcc>0.883273</hAcc><vAcc>0.711829</vAcc></extensions></trkpt>
      <trkpt lon="-3.317103" lat="54.548299"><ele>333.077057</ele><time>2021-08-12T11:31:15Z</time><extensions><speed>1.010992</speed><course>57.370388</course><hAcc>0.883301</hAcc><vAcc>0.711892</vAcc></extensions></trkpt>
      <trkpt lon="-3.317090" lat="54.548293"><ele>333.120605</ele><time>2021-08-12T11:31:16Z</time><extensions><speed>0.984233</speed><course>72.859169</course><hAcc>0.883344</hAcc><vAcc>0.712025</vAcc></extensions></trkpt>
      <trkpt lon="-3.317078" lat="54.548288"><ele>333.156342</ele><time>2021-08-12T11:31:17Z</time><extensions><speed>0.960529</speed><course>73.476959</course><hAcc>0.883400</hAcc><vAcc>0.712234</vAcc></extensions></trkpt>
      <trkpt lon="-3.317066" lat="54.548284"><ele>333.185059</ele><time>2021-08-12T11:31:18Z</time><extensions><speed>0.940933</speed><course>70.985191</course><hAcc>0.883470</hAcc><vAcc>0.712520</vAcc></extensions></trkpt>
      <trkpt lon="-3.317054" lat="54.548279"><ele>333.208099</ele><time>2021-08-12T11:31:19Z</time><extensions><speed>0.926168</speed><course>67.094063</course><hAcc>0.883552</hAcc><vAcc>0.712875</vAcc></extensions></trkpt>
      <trkpt lon="-3.317041" lat="54.548275"><ele>333.228241</ele><time>2021-08-12T11:31:20Z</time><extensions><speed>0.917345</speed><course>63.802017</course><hAcc>0.883644</hAcc><vAcc>0.713282</vAcc></extensions></trkpt>
      <trkpt lon="-3.317028" lat="54.548272"><ele>333.249512</ele><time>2021-08-12T11:31:21Z</time><extensions><speed>0.914737</speed><course>59.738853</course><hAcc>0.883744</hAcc><vAcc>0.713718</vAcc></extensions></trkpt>
      <trkpt lon="-3.317016" lat="54.548268"><ele>333.275879</ele><time>2021-08-12T11:31:22Z</time><extensions><speed>0.917240</speed><course>64.752533</course><hAcc>0.883850</hAcc><vAcc>0.714163</vAcc></extensions></trkpt>
      <trkpt lon="-3.317002" lat="54.548265"><ele>333.310486</ele><time>2021-08-12T11:31:23Z</time><extensions><speed>0.923527</speed><course>62.678837</course><hAcc>0.883957</hAcc><vAcc>0.714596</vAcc></extensions></trkpt>
      <trkpt lon="-3.316989" lat="54.548262"><ele>333.355408</ele><time>2021-08-12T11:31:24Z</time><extensions><speed>0.931919</speed><course>67.622025</course><hAcc>0.884065</hAcc><vAcc>0.715004</vAcc></extensions></trkpt>
      <trkpt lon="-3.316975" lat="54.548260"><ele>333.410919</ele><time>2021-08-12T11:31:25Z</time><extensions><speed>0.940439</speed><course>76.998230</course><hAcc>0.884170</hAcc><vAcc>0.715386</vAcc></extensions></trkpt>
      <trkpt lon="-3.316961" lat="54.548258"><ele>333.475891</ele><time>2021-08-12T11:31:26Z</time><extensions><speed>0.948085</speed><course>71.279175</course><hAcc>0.884269</hAcc><vAcc>0.715740</vAcc></extensions></trkpt>
      <trkpt lon="-3.316947" lat="54.548256"><ele>333.548584</ele><time>2021-08-12T11:31:27Z</time><extensions><speed>0.955038</speed><course>66.215858</course><hAcc>0.884362</hAcc><vAcc>0.716067</vAcc></extensions></trkpt>
      <trkpt lon="-3.316932" lat="54.548254"><ele>333.627502</ele><time>2021-08-12T11:31:28Z</time><extensions><speed>0.961893</speed><course>65.869171</course><hAcc>0.884449</hAcc><vAcc>0.716366</vAcc></extensions></trkpt>
      <trkpt lon="-3.316917" lat="54.548253"><ele>333.711670</ele><time>2021-08-12T11:31:29Z</time><extensions><speed>0.969506</speed><course>67.480362</course><hAcc>0.884529</hAcc><vAcc>0.716640</vAcc></extensions></trkpt>
      <trkpt lon="-3.316902" lat="54.548252"><ele>333.799500</ele><time>2021-08-12T11:31:30Z</time><extensions><speed>0.979763</speed><course>62.467888</course><hAcc>0.884601</hAcc><vAcc>0.716893</vAcc></extensions></trkpt>
      <trkpt lon="-3.316887" lat="54.548251"><ele>333.888885</ele><time>2021-08-12T11:31:31Z</time><extensions><speed>0.994777</speed><course>57.403885</course><hAcc>0.884668</hAcc><vAcc>0.717129</vAcc></extensions></trkpt>
      <trkpt lon="-3.316872" lat="54.548250"><ele>333.977448</ele><time>2021-08-12T11:31:32Z</time><extensions><speed>1.015439</speed><course>56.104736</course><hAcc>0.884729</hAcc><vAcc>0.717348</vAcc></extensions></trkpt>
      <trkpt lon="-3.316856" lat="54.548250"><ele>334.061829</ele><time>2021-08-12T11:31:33Z</time><extensions><speed>1.041247</speed><course>57.135769</course><hAcc>0.884785</hAcc><vAcc>0.717551</vAcc></extensions></trkpt>
      <trkpt lon="-3.316839" lat="54.548250"><ele>334.137787</ele><time>2021-08-12T11:31:34Z</time><extensions><speed>1.070386</speed><course>59.466648</course><hAcc>0.884837</hAcc><vAcc>0.717737</vAcc></extensions></trkpt>
      <trkpt lon="-3.316823" lat="54.548250"><ele>334.201202</ele><time>2021-08-12T11:31:35Z</time><extensions><speed>1.101676</speed><course>56.466339</course><hAcc>0.884886</hAcc><vAcc>0.717908</vAcc></extensions></trkpt>
      <trkpt lon="-3.316805" lat="54.548251"><ele>334.249512</ele><time>2021-08-12T11:31:36Z</time><extensions><speed>1.133552</speed><course>61.082169</course><hAcc>0.884933</hAcc><vAcc>0.718067</vAcc></extensions></trkpt>
      <trkpt lon="-3.316788" lat="54.548251"><ele>334.282379</ele><time>2021-08-12T11:31:37Z</time><extensions><speed>1.164131</speed><course>63.000797</course><hAcc>0.884979</hAcc><vAcc>0.718218</vAcc></extensions></trkpt>
      <trkpt lon="-3.316770" lat="54.548252"><ele>334.300385</ele><time>2021-08-12T11:31:38Z</time><extensions><speed>1.192821</speed><course>58.373146</course><hAcc>0.885024</hAcc><vAcc>0.718366</vAcc></extensions></trkpt>
      <trkpt lon="-3.316751" lat="54.548252"><ele>334.303558</ele><time>2021-08-12T11:31:39Z</time><extensions><speed>1.219068</speed><course>59.591164</course><hAcc>0.885068</hAcc><vAcc>0.718514</vAcc></extensions></trkpt>
      <trkpt lon="-3.316732" lat="54.548253"><ele>334.291199</ele><time>2021-08-12T11:31:40Z</time><extensions><speed>1.241927</speed><course>56.078835</course><hAcc>0.885111</hAcc><vAcc>0.718665</vAcc></extensions></trkpt>
      <trkpt lon="-3.316713" lat="54.548254"><ele>334.261444</ele><time>2021-08-12T11:31:41Z</time><extensions><speed>1.261132</speed><course>61.452141</course><hAcc>0.885153</hAcc><vAcc>0.718819</vAcc></extensions></trkpt>
      <trkpt lon="-3.316693" lat="54.548255"><ele>334.212006</ele><time>2021-08-12T11:31:42Z</time><extensions><speed>1.276622</speed><course>62.349373</course><hAcc>0.885193</hAcc><vAcc>0.718976</vAcc></extensions></trkpt>
      <trkpt lon="-3.316673" lat="54.548256"><ele>334.141144</ele><time>2021-08-12T11:31:43Z</time><extensions><speed>1.287596</speed><course>67.502327</course><hAcc>0.885231</hAcc><vAcc>0.719135</vAcc></extensions></trkpt>
      <trkpt lon="-3.316653" lat="54.548257"><ele>334.049652</ele><time>2021-08-12T11:31:44Z</time><extensions><speed>1.292934</speed><course>65.148994</course><hAcc>0.885265</hAcc><vAcc>0.719291</vAcc></extensions></trkpt>
      <trkpt lon="-3.316634" lat="54.548258"><ele>333.940979</ele><time>2021-08-12T11:31:45Z</time><extensions><speed>1.293015</speed><course>61.604351</course><hAcc>0.885293</hAcc><vAcc>0.719435</vAcc></extensions></trkpt>
      <trkpt lon="-3.316614" lat="54.548258"><ele>333.820282</ele><time>2021-08-12T11:31:46Z</time><extensions><speed>1.289822</speed><course>67.356651</course><hAcc>0.885315</hAcc><vAcc>0.719556</vAcc></extensions></trkpt>
      <trkpt lon="-3.316594" lat="54.548259"><ele>333.694672</ele><time>2021-08-12T11:31:47Z</time><extensions><speed>1.284634</speed><course>56.187717</course><hAcc>0.885330</hAcc><vAcc>0.719641</vAcc></extensions></trkpt>
      <trkpt lon="-3.316574" lat="54.548260"><ele>333.573181</ele><time>2021-08-12T11:31:48Z</time><extensions><speed>1.277637</speed><course>56.273357</course><hAcc>0.885336</hAcc><vAcc>0.719681</vAcc></extensions></trkpt>
      <trkpt lon="-3.316554" lat="54.548261"><ele>333.465332</ele><time>2021-08-12T11:31:49Z</time><extensions><speed>1.268162</speed><course>59.042984</course><hAcc>0.885332</hAcc><vAcc>0.719671</vAcc></extensions></trkpt>
      <trkpt lon="-3.316535" lat="54.548262"><ele>333.380035</ele><time>2021-08-12T11:31:50Z</time><extensions><speed>1.254617</speed><course>46.754299</course><hAcc>0.885318</hAcc><vAcc>0.719614</vAcc></extensions></trkpt>
      <trkpt lon="-3.316516" lat="54.548262"><ele>333.324982</ele><time>2021-08-12T11:31:51Z</time><extensions><speed>1.235062</speed><course>46.754295</course><hAcc>0.885292</hAcc><vAcc>0.719511</vAcc></extensions></trkpt>
      <trkpt lon="-3.316497" lat="54.548263"><ele>333.305298</ele><time>2021-08-12T11:31:52Z</time><extensions><speed>1.207468</speed><course>46.754295</course><hAcc>0.885255</hAcc><vAcc>0.719367</vAcc></extensions></trkpt>
      <trkpt lon="-3.316479" lat="54.548263"><ele>333.322754</ele><time>2021-08-12T11:31:53Z</time><extensions><speed>1.169426</speed><course>46.754295</course><hAcc>0.885205</hAcc><vAcc>0.719184</vAcc></extensions></trkpt>
      <trkpt lon="-3.316461" lat="54.548263"><ele>333.376160</ele><time>2021-08-12T11:31:54Z</time><extensions><speed>1.119016</speed><course>46.754295</course><hAcc>0.885146</hAcc><vAcc>0.718962</vAcc></extensions></trkpt>
      <trkpt lon="-3.316444" lat="54.548263"><ele>333.461945</ele><time>2021-08-12T11:31:55Z</time><extensions><speed>1.055320</speed><course>46.754295</course><hAcc>0.885077</hAcc><vAcc>0.718703</vAcc></extensions></trkpt>
      <trkpt lon="-3.316428" lat="54.548263"><ele>333.575500</ele><time>2021-08-12T11:31:56Z</time><extensions><speed>0.978520</speed><course>46.754295</course><hAcc>0.885000</hAcc><vAcc>0.718408</vAcc></extensions></trkpt>
      <trkpt lon="-3.316414" lat="54.548262"><ele>333.710876</ele><time>2021-08-12T11:31:57Z</time><extensions><speed>0.889398</speed><course>46.754292</course><hAcc>0.884918</hAcc><vAcc>0.718082</vAcc></extensions></trkpt>
      <trkpt lon="-3.316401" lat="54.548262"><ele>333.860413</ele><time>2021-08-12T11:31:58Z</time><extensions><speed>0.789545</speed><course>46.754295</course><hAcc>0.884832</hAcc><vAcc>0.717731</vAcc></extensions></trkpt>
      <trkpt lon="-3.316390" lat="54.548261"><ele>334.014587</ele><time>2021-08-12T11:31:59Z</time><extensions><speed>0.681609</speed><course>86.257805</course><hAcc>0.884742</hAcc><vAcc>0.717363</vAcc></extensions></trkpt>
      <trkpt lon="-3.316380" lat="54.548261"><ele>334.162598</ele><time>2021-08-12T11:32:00Z</time><extensions><speed>0.569436</speed><course>92.864906</course><hAcc>0.884651</hAcc><vAcc>0.716988</vAcc></extensions></trkpt>
      <trkpt lon="-3.316372" lat="54.548260"><ele>334.294037</ele><time>2021-08-12T11:32:01Z</time><extensions><speed>0.458850</speed><course>94.458534</course><hAcc>0.884556</hAcc><vAcc>0.716614</vAcc></extensions></trkpt>
      <trkpt lon="-3.316366" lat="54.548260"><ele>334.400177</ele><time>2021-08-12T11:32:02Z</time><extensions><speed>0.355434</speed><course>89.165138</course><hAcc>0.884458</hAcc><vAcc>0.716251</vAcc></extensions></trkpt>
      <trkpt lon="-3.316361" lat="54.548259"><ele>334.475006</ele><time>2021-08-12T11:32:03Z</time><extensions><speed>0.262801</speed><course>98.187202</course><hAcc>0.884352</hAcc><vAcc>0.715901</vAcc></extensions></trkpt>
      <trkpt lon="-3.316358" lat="54.548259"><ele>334.514679</ele><time>2021-08-12T11:32:04Z</time><extensions><speed>0.183381</speed><course>262.094696</course><hAcc>0.884235</hAcc><vAcc>0.715553</vAcc></extensions></trkpt>
      <trkpt lon="-3.316356" lat="54.548259"><ele>334.517273</ele><time>2021-08-12T11:32:05Z</time><extensions><speed>0.118783</speed><course>273.339569</course><hAcc>0.884104</hAcc><vAcc>0.715185</vAcc></extensions></trkpt>
      <trkpt lon="-3.316354" lat="54.548258"><ele>334.483276</ele><time>2021-08-12T11:32:06Z</time><extensions><speed>0.070945</speed><course>270.133057</course><hAcc>0.883954</hAcc><vAcc>0.714763</vAcc></extensions></trkpt>
      <trkpt lon="-3.316354" lat="54.548258"><ele>334.416168</ele><time>2021-08-12T11:32:07Z</time><extensions><speed>0.044510</speed><course>264.401459</course><hAcc>0.883781</hAcc><vAcc>0.714251</vAcc></extensions></trkpt>
      <trkpt lon="-3.316354" lat="54.548257"><ele>334.321655</ele><time>2021-08-12T11:32:08Z</time><extensions><speed>0.042184</speed><course>271.206299</course><hAcc>0.883579</hAcc><vAcc>0.713618</vAcc></extensions></trkpt>
      <trkpt lon="-3.316354" lat="54.548257"><ele>334.206329</ele><time>2021-08-12T11:32:09Z</time><extensions><speed>0.050513</speed><course>270.479279</course><hAcc>0.883347</hAcc><vAcc>0.712841</vAcc></extensions></trkpt>
      <trkpt lon="-3.316354" lat="54.548257"><ele>334.076569</ele><time>2021-08-12T11:32:10Z</time><extensions><speed>0.059180</speed><course>270.479279</course><hAcc>0.883080</hAcc><vAcc>0.711907</vAcc></extensions></trkpt>
      <trkpt lon="-3.316354" lat="54.548256"><ele>333.938049</ele><time>2021-08-12T11:32:11Z</time><extensions><speed>0.068761</speed><course>270.479279</course><hAcc>0.882778</hAcc><vAcc>0.710810</vAcc></extensions></trkpt>
      <trkpt lon="-3.316354" lat="54.548255"><ele>333.795807</ele><time>2021-08-12T11:32:12Z</time><extensions><speed>0.084348</speed><course>92.836548</course><hAcc>0.882443</hAcc><vAcc>0.709557</vAcc></extensions></trkpt>
      <trkpt lon="-3.316354" lat="54.548254"><ele>333.653870</ele><time>2021-08-12T11:32:13Z</time><extensions><speed>0.110165</speed><course>91.847809</course><hAcc>0.882078</hAcc><vAcc>0.708168</vAcc></extensions></trkpt>
      <trkpt lon="-3.316353" lat="54.548253"><ele>333.514954</ele><time>2021-08-12T11:32:14Z</time><extensions><speed>0.147271</speed><course>96.972961</course><hAcc>0.881691</hAcc><vAcc>0.706672</vAcc></extensions></trkpt>
      <trkpt lon="-3.316352" lat="54.548252"><ele>333.380768</ele><time>2021-08-12T11:32:15Z</time><extensions><speed>0.195251</speed><course>101.432434</course><hAcc>0.881288</hAcc><vAcc>0.705110</vAcc></extensions></trkpt>
      <trkpt lon="-3.316350" lat="54.548251"><ele>333.252472</ele><time>2021-08-12T11:32:16Z</time><extensions><speed>0.253917</speed><course>89.921867</course><hAcc>0.880883</hAcc><vAcc>0.703522</vAcc></extensions></trkpt>
      <trkpt lon="-3.316347" lat="54.548249"><ele>333.130157</ele><time>2021-08-12T11:32:17Z</time><extensions><speed>0.323267</speed><course>79.468422</course><hAcc>0.880488</hAcc><vAcc>0.701953</vAcc></extensions></trkpt>
      <trkpt lon="-3.316343" lat="54.548246"><ele>333.013275</ele><time>2021-08-12T11:32:18Z</time><extensions><speed>0.403010</speed><course>79.668663</course><hAcc>0.880118</hAcc><vAcc>0.700453</vAcc></extensions></trkpt>
      <trkpt lon="-3.316338" lat="54.548244"><ele>332.901672</ele><time>2021-08-12T11:32:19Z</time><extensions><speed>0.492496</speed><course>70.198914</course><hAcc>0.879790</hAcc><vAcc>0.699080</vAcc></extensions></trkpt>
      <trkpt lon="-3.316331" lat="54.548241"><ele>332.795502</ele><time>2021-08-12T11:32:20Z</time><extensions><speed>0.590035</speed><course>85.811096</course><hAcc>0.879518</hAcc><vAcc>0.697904</vAcc></extensions></trkpt>
      <trkpt lon="-3.316323" lat="54.548237"><ele>332.695770</ele><time>2021-08-12T11:32:21Z</time><extensions><speed>0.692541</speed><course>87.515213</course><hAcc>0.879318</hAcc><vAcc>0.697007</vAcc></extensions></trkpt>
      <trkpt lon="-3.316314" lat="54.548233"><ele>332.604614</ele><time>2021-08-12T11:32:22Z</time><extensions><speed>0.795716</speed><course>86.802406</course><hAcc>0.879202</hAcc><vAcc>0.696468</vAcc></extensions></trkpt>
      <trkpt lon="-3.316304" lat="54.548229"><ele>332.524597</ele><time>2021-08-12T11:32:23Z</time><extensions><speed>0.895030</speed><course>85.424927</course><hAcc>0.879179</hAcc><vAcc>0.696344</vAcc></extensions></trkpt>
      <trkpt lon="-3.316292" lat="54.548224"><ele>332.457550</ele><time>2021-08-12T11:32:24Z</time><extensions><speed>0.986222</speed><course>88.911957</course><hAcc>0.879250</hAcc><vAcc>0.696647</vAcc></extensions></trkpt>
      <trkpt lon="-3.316279" lat="54.548218"><ele>332.405060</ele><time>2021-08-12T11:32:25Z</time><extensions><speed>1.065621</speed><course>93.027184</course><hAcc>0.879413</hAcc><vAcc>0.697360</vAcc></extensions></trkpt>
      <trkpt lon="-3.316265" lat="54.548213"><ele>332.368988</ele><time>2021-08-12T11:32:26Z</time><extensions><speed>1.130759</speed><course>90.763535</course><hAcc>0.879662</hAcc><vAcc>0.698438</vAcc></extensions></trkpt>
      <trkpt lon="-3.316250" lat="54.548207"><ele>332.351410</ele><time>2021-08-12T11:32:27Z</time><extensions><speed>1.180839</speed><course>83.392509</course><hAcc>0.879987</hAcc><vAcc>0.699811</vAcc></extensions></trkpt>
      <trkpt lon="-3.316234" lat="54.548201"><ele>332.354095</ele><time>2021-08-12T11:32:28Z</time><extensions><speed>1.216495</speed><course>57.334152</course><hAcc>0.880382</hAcc><vAcc>0.701391</vAcc></extensions></trkpt>
      <trkpt lon="-3.316218" lat="54.548195"><ele>332.378052</ele><time>2021-08-12T11:32:29Z</time><extensions><speed>1.239074</speed><course>29.254333</course><hAcc>0.880841</hAcc><vAcc>0.703098</vAcc></extensions></trkpt>
      <trkpt lon="-3.316202" lat="54.548190"><ele>332.423645</ele><time>2021-08-12T11:32:30Z</time><extensions><speed>1.251166</speed><course>29.254333</course><hAcc>0.881366</hAcc><vAcc>0.704872</vAcc></extensions></trkpt>
      <trkpt lon="-3.316185" lat="54.548184"><ele>332.490631</ele><time>2021-08-12T11:32:31Z</time><extensions><speed>1.256148</speed><course>29.254333</course><hAcc>0.881963</hAcc><vAcc>0.706684</vAcc></extensions></trkpt>
      <trkpt lon="-3.316168" lat="54.548178"><ele>332.577942</ele><time>2021-08-12T11:32:32Z</time><extensions><speed>1.256371</speed><course>29.254332</course><hAcc>0.882651</hAcc><vAcc>0.708523</vAcc></extensions></trkpt>
      <trkpt lon="-3.316151" lat="54.548173"><ele>332.683960</ele><time>2021-08-12T11:32:33Z</time><extensions><speed>1.253308</speed><course>29.254333</course><hAcc>0.883456</hAcc><vAcc>0.710398</vAcc></extensions></trkpt>
      <trkpt lon="-3.316134" lat="54.548168"><ele>332.806427</ele><time>2021-08-12T11:32:34Z</time><extensions><speed>1.248943</speed><course>29.254332</course><hAcc>0.884411</hAcc><vAcc>0.712325</vAcc></extensions></trkpt>
      <trkpt lon="-3.316117" lat="54.548163"><ele>332.942566</ele><time>2021-08-12T11:32:35Z</time><extensions><speed>1.244431</speed><course>29.254332</course><hAcc>0.885554</hAcc><vAcc>0.714320</vAcc></extensions></trkpt>
      <trkpt lon="-3.316099" lat="54.548158"><ele>333.089355</ele><time>2021-08-12T11:32:36Z</time><extensions><speed>1.238524</speed><course>29.254333</course><hAcc>0.886923</hAcc><vAcc>0.716397</vAcc></extensions></trkpt>
      <trkpt lon="-3.316082" lat="54.548153"><ele>333.243408</ele><time>2021-08-12T11:32:37Z</time><extensions><speed>1.229178</speed><course>29.254333</course><hAcc>0.888543</hAcc><vAcc>0.718553</vAcc></extensions></trkpt>
      <trkpt lon="-3.316065" lat="54.548149"><ele>333.401733</ele><time>2021-08-12T11:32:38Z</time><extensions><speed>1.214956</speed><course>29.254332</course><hAcc>0.890419</hAcc><vAcc>0.720764</vAcc></extensions></trkpt>
      <trkpt lon="-3.316047" lat="54.548145"><ele>333.561371</ele><time>2021-08-12T11:32:39Z</time><extensions><speed>1.195061</speed><course>29.254333</course><hAcc>0.892524</hAcc><vAcc>0.722977</vAcc></extensions></trkpt>
      <trkpt lon="-3.316030" lat="54.548142"><ele>333.719421</ele><time>2021-08-12T11:32:40Z</time><extensions><speed>1.168918</speed><course>29.254337</course><hAcc>0.894785</hAcc><vAcc>0.725105</vAcc></extensions></trkpt>
      <trkpt lon="-3.316013" lat="54.548138"><ele>333.873322</ele><time>2021-08-12T11:32:41Z</time><extensions><speed>1.135945</speed><course>29.254337</course><hAcc>0.897077</hAcc><vAcc>0.727031</vAcc></extensions></trkpt>
      <trkpt lon="-3.315997" lat="54.548135"><ele>334.020660</ele><time>2021-08-12T11:32:42Z</time><extensions><speed>1.096026</speed><course>29.254339</course><hAcc>0.899221</hAcc><vAcc>0.728622</vAcc></extensions></trkpt>
      <trkpt lon="-3.315981" lat="54.548132"><ele>334.158630</ele><time>2021-08-12T11:32:43Z</time><extensions><speed>1.049339</speed><course>29.254337</course><hAcc>0.901012</hAcc><vAcc>0.729759</vAcc></extensions></trkpt>
      <trkpt lon="-3.315966" lat="54.548129"><ele>334.283905</ele><time>2021-08-12T11:32:44Z</time><extensions><speed>0.995735</speed><course>29.254339</course><hAcc>0.902266</hAcc><vAcc>0.730396</vAcc></extensions></trkpt>
      <trkpt lon="-3.315952" lat="54.548126"><ele>334.392761</ele><time>2021-08-12T11:32:45Z</time><extensions><speed>0.935329</speed><course>353.139893</course><hAcc>0.902918</hAcc><vAcc>0.730653</vAcc></extensions></trkpt>
      <trkpt lon="-3.315939" lat="54.548124"><ele>334.482117</ele><time>2021-08-12T11:32:46Z</time><extensions><speed>0.869132</speed><course>-1.000000</course><hAcc>0.903196</hAcc><vAcc>0.730957</vAcc></extensions></trkpt>
      <trkpt lon="-3.315926" lat="54.548122"><ele>334.549774</ele><time>2021-08-12T11:32:47Z</time><extensions><speed>0.799026</speed><course>-1.000000</course><hAcc>0.903869</hAcc><vAcc>0.732237</vAcc></extensions></trkpt>
      <trkpt lon="-3.315915" lat="54.548120"><ele>334.594879</ele><time>2021-08-12T11:32:48Z</time><extensions><speed>0.727617</speed><course>-1.000000</course><hAcc>0.906616</hAcc><vAcc>0.736166</vAcc></extensions></trkpt>
      <trkpt lon="-3.315905" lat="54.548118"><ele>334.618774</ele><time>2021-08-12T11:32:49Z</time><extensions><speed>0.657730</speed><course>-1.000000</course><hAcc>0.914470</hAcc><vAcc>0.745402</vAcc></extensions></trkpt>
      <trkpt lon="-3.315896" lat="54.548116"><ele>334.624878</ele><time>2021-08-12T11:32:50Z</time><extensions><speed>0.592777</speed><course>-1.000000</course><hAcc>0.932238</hAcc><vAcc>0.763742</vAcc></extensions></trkpt>
      <trkpt lon="-3.315887" lat="54.548115"><ele>334.617889</ele><time>2021-08-12T11:32:51Z</time><extensions><speed>0.536416</speed><course>-1.000000</course><hAcc>0.966653</hAcc><vAcc>0.796029</vAcc></extensions></trkpt>
      <trkpt lon="-3.315885" lat="54.548115"><ele>334.553375</ele><time>2021-08-12T11:32:52Z</time><extensions><speed>0.140393</speed><course>74.967865</course><hAcc>0.929837</hAcc><vAcc>0.762537</vAcc></extensions></trkpt>
      <trkpt lon="-3.315884" lat="54.548114"><ele>334.400055</ele><time>2021-08-12T11:32:53Z</time><extensions><speed>0.131421</speed><course>75.133301</course><hAcc>0.910600</hAcc><vAcc>0.740417</vAcc></extensions></trkpt>
      <trkpt lon="-3.315882" lat="54.548114"><ele>334.267548</ele><time>2021-08-12T11:32:54Z</time><extensions><speed>0.124743</speed><course>66.099251</course><hAcc>0.902596</hAcc><vAcc>0.728951</vAcc></extensions></trkpt>
      <trkpt lon="-3.315881" lat="54.548113"><ele>334.156982</ele><time>2021-08-12T11:32:55Z</time><extensions><speed>0.120441</speed><course>81.237114</course><hAcc>0.900338</hAcc><vAcc>0.723905</vAcc></extensions></trkpt>
      <trkpt lon="-3.315879" lat="54.548112"><ele>334.069305</ele><time>2021-08-12T11:32:56Z</time><extensions><speed>0.118273</speed><course>80.566093</course><hAcc>0.900354</hAcc><vAcc>0.722254</vAcc></extensions></trkpt>
      <trkpt lon="-3.315878" lat="54.548111"><ele>334.005432</ele><time>2021-08-12T11:32:57Z</time><extensions><speed>0.117641</speed><course>80.566109</course><hAcc>0.900730</hAcc><vAcc>0.722055</vAcc></extensions></trkpt>
      <trkpt lon="-3.315877" lat="54.548111"><ele>333.966339</ele><time>2021-08-12T11:32:58Z</time><extensions><speed>0.117823</speed><course>80.566093</course><hAcc>0.900596</hAcc><vAcc>0.722190</vAcc></extensions></trkpt>
      <trkpt lon="-3.315875" lat="54.548110"><ele>333.952820</ele><time>2021-08-12T11:32:59Z</time><extensions><speed>0.118652</speed><course>80.566093</course><hAcc>0.899713</hAcc><vAcc>0.722100</vAcc></extensions></trkpt>
      <trkpt lon="-3.315874" lat="54.548109"><ele>333.964630</ele><time>2021-08-12T11:33:00Z</time><extensions><speed>0.119547</speed><course>80.566093</course><hAcc>0.898174</hAcc><vAcc>0.721585</vAcc></extensions></trkpt>
      <trkpt lon="-3.315873" lat="54.548109"><ele>333.999603</ele><time>2021-08-12T11:33:01Z</time><extensions><speed>0.119626</speed><course>77.344681</course><hAcc>0.896209</hAcc><vAcc>0.720669</vAcc></extensions></trkpt>
      <trkpt lon="-3.315871" lat="54.548108"><ele>334.053314</ele><time>2021-08-12T11:33:02Z</time><extensions><speed>0.118200</speed><course>77.923714</course><hAcc>0.894072</hAcc><vAcc>0.719508</vAcc></extensions></trkpt>
      <trkpt lon="-3.315869" lat="54.548107"><ele>334.120209</ele><time>2021-08-12T11:33:03Z</time><extensions><speed>0.114304</speed><course>87.073212</course><hAcc>0.891981</hAcc><vAcc>0.718306</vAcc></extensions></trkpt>
      <trkpt lon="-3.315868" lat="54.548107"><ele>334.196289</ele><time>2021-08-12T11:33:04Z</time><extensions><speed>0.107387</speed><course>79.233902</course><hAcc>0.890092</hAcc><vAcc>0.717251</vAcc></extensions></trkpt>
      <trkpt lon="-3.315867" lat="54.548107"><ele>334.279419</ele><time>2021-08-12T11:33:05Z</time><extensions><speed>0.097561</speed><course>96.572746</course><hAcc>0.888498</hAcc><vAcc>0.716469</vAcc></extensions></trkpt>
      <trkpt lon="-3.315865" lat="54.548106"><ele>334.367584</ele><time>2021-08-12T11:33:06Z</time><extensions><speed>0.085542</speed><course>86.920219</course><hAcc>0.887237</hAcc><vAcc>0.716017</vAcc></extensions></trkpt>
      <trkpt lon="-3.315864" lat="54.548106"><ele>334.457733</ele><time>2021-08-12T11:33:07Z</time><extensions><speed>0.071901</speed><course>76.786201</course><hAcc>0.886306</hAcc><vAcc>0.715893</vAcc></extensions></trkpt>
      <trkpt lon="-3.315863" lat="54.548106"><ele>334.545685</ele><time>2021-08-12T11:33:08Z</time><extensions><speed>0.056956</speed><course>77.162971</course><hAcc>0.885672</hAcc><vAcc>0.716055</vAcc></extensions></trkpt>
      <trkpt lon="-3.315863" lat="54.548105"><ele>334.626617</ele><time>2021-08-12T11:33:09Z</time><extensions><speed>0.040713</speed><course>69.604996</course><hAcc>0.885289</hAcc><vAcc>0.716445</vAcc></extensions></trkpt>
      <trkpt lon="-3.315862" lat="54.548105"><ele>334.695099</ele><time>2021-08-12T11:33:10Z</time><extensions><speed>0.022794</speed><course>76.115456</course><hAcc>0.885104</hAcc><vAcc>0.717005</vAcc></extensions></trkpt>
      <trkpt lon="-3.315862" lat="54.548105"><ele>334.745300</ele><time>2021-08-12T11:33:11Z</time><extensions><speed>0.002553</speed><course>83.646278</course><hAcc>0.885064</hAcc><vAcc>0.717676</vAcc></extensions></trkpt>
      <trkpt lon="-3.315862" lat="54.548105"><ele>334.772003</ele><time>2021-08-12T11:33:12Z</time><extensions><speed>0.020862</speed><course>76.408623</course><hAcc>0.885122</hAcc><vAcc>0.718405</vAcc></extensions></trkpt>
      <trkpt lon="-3.315863" lat="54.548105"><ele>334.772217</ele><time>2021-08-12T11:33:13Z</time><extensions><speed>0.047890</speed><course>79.439453</course><hAcc>0.885238</hAcc><vAcc>0.719146</vAcc></extensions></trkpt>
      <trkpt lon="-3.315864" lat="54.548106"><ele>334.746033</ele><time>2021-08-12T11:33:14Z</time><extensions><speed>0.080050</speed><course>75.300941</course><hAcc>0.885379</hAcc><vAcc>0.719861</vAcc></extensions></trkpt>
      <trkpt lon="-3.315865" lat="54.548106"><ele>334.695526</ele><time>2021-08-12T11:33:15Z</time><extensions><speed>0.119035</speed><course>76.126534</course><hAcc>0.885521</hAcc><vAcc>0.720514</vAcc></extensions></trkpt>
      <trkpt lon="-3.315867" lat="54.548107"><ele>334.623505</ele><time>2021-08-12T11:33:16Z</time><extensions><speed>0.166603</speed><course>75.233688</course><hAcc>0.885647</hAcc><vAcc>0.721073</vAcc></extensions></trkpt>
      <trkpt lon="-3.315870" lat="54.548107"><ele>334.532715</ele><time>2021-08-12T11:33:17Z</time><extensions><speed>0.224216</speed><course>81.891060</course><hAcc>0.885745</hAcc><vAcc>0.721508</vAcc></extensions></trkpt>
      <trkpt lon="-3.315873" lat="54.548108"><ele>334.425903</ele><time>2021-08-12T11:33:18Z</time><extensions><speed>0.292908</speed><course>78.263519</course><hAcc>0.885809</hAcc><vAcc>0.721795</vAcc></extensions></trkpt>
      <trkpt lon="-3.315878" lat="54.548109"><ele>334.305756</ele><time>2021-08-12T11:33:19Z</time><extensions><speed>0.373129</speed><course>74.907532</course><hAcc>0.885837</hAcc><vAcc>0.721919</vAcc></extensions></trkpt>
      <trkpt lon="-3.315884" lat="54.548110"><ele>334.175079</ele><time>2021-08-12T11:33:20Z</time><extensions><speed>0.464580</speed><course>84.941742</course><hAcc>0.885830</hAcc><vAcc>0.721875</vAcc></extensions></trkpt>
      <trkpt lon="-3.315892" lat="54.548112"><ele>334.037109</ele><time>2021-08-12T11:33:21Z</time><extensions><speed>0.566007</speed><course>73.584358</course><hAcc>0.885790</hAcc><vAcc>0.721668</vAcc></extensions></trkpt>
      <trkpt lon="-3.315901" lat="54.548114"><ele>333.895508</ele><time>2021-08-12T11:33:22Z</time><extensions><speed>0.674972</speed><course>96.346313</course><hAcc>0.885724</hAcc><vAcc>0.721314</vAcc></extensions></trkpt>
      <trkpt lon="-3.315912" lat="54.548116"><ele>333.754700</ele><time>2021-08-12T11:33:23Z</time><extensions><speed>0.787599</speed><course>87.208282</course><hAcc>0.885638</hAcc><vAcc>0.720845</vAcc></extensions></trkpt>
      <trkpt lon="-3.315924" lat="54.548118"><ele>333.619202</ele><time>2021-08-12T11:33:24Z</time><extensions><speed>0.899796</speed><course>71.034035</course><hAcc>0.885536</hAcc><vAcc>0.720307</vAcc></extensions></trkpt>
      <trkpt lon="-3.315938" lat="54.548120"><ele>333.492523</ele><time>2021-08-12T11:33:25Z</time><extensions><speed>1.007648</speed><course>74.315559</course><hAcc>0.885426</hAcc><vAcc>0.719748</vAcc></extensions></trkpt>
      <trkpt lon="-3.315954" lat="54.548123"><ele>333.376465</ele><time>2021-08-12T11:33:26Z</time><extensions><speed>1.107004</speed><course>82.074326</course><hAcc>0.885313</hAcc><vAcc>0.719216</vAcc></extensions></trkpt>
      <trkpt lon="-3.315971" lat="54.548126"><ele>333.271362</ele><time>2021-08-12T11:33:27Z</time><extensions><speed>1.193493</speed><course>78.798851</course><hAcc>0.885201</hAcc><vAcc>0.718747</vAcc></extensions></trkpt>
      <trkpt lon="-3.315989" lat="54.548129"><ele>333.176147</ele><time>2021-08-12T11:33:28Z</time><extensions><speed>1.263739</speed><course>71.049065</course><hAcc>0.885096</hAcc><vAcc>0.718356</vAcc></extensions></trkpt>
      <trkpt lon="-3.316008" lat="54.548133"><ele>333.088684</ele><time>2021-08-12T11:33:29Z</time><extensions><speed>1.316545</speed><course>66.417450</course><hAcc>0.884999</hAcc><vAcc>0.718044</vAcc></extensions></trkpt>
      <trkpt lon="-3.316028" lat="54.548137"><ele>333.006378</ele><time>2021-08-12T11:33:30Z</time><extensions><speed>1.352962</speed><course>67.881187</course><hAcc>0.884915</hAcc><vAcc>0.717801</vAcc></extensions></trkpt>
      <trkpt lon="-3.316048" lat="54.548141"><ele>332.927032</ele><time>2021-08-12T11:33:31Z</time><extensions><speed>1.375611</speed><course>73.946594</course><hAcc>0.884842</hAcc><vAcc>0.717608</vAcc></extensions></trkpt>
      <trkpt lon="-3.316068" lat="54.548145"><ele>332.850311</ele><time>2021-08-12T11:33:32Z</time><extensions><speed>1.387204</speed><course>66.868568</course><hAcc>0.884779</hAcc><vAcc>0.717446</vAcc></extensions></trkpt>
      <trkpt lon="-3.316088" lat="54.548150"><ele>332.777618</ele><time>2021-08-12T11:33:33Z</time><extensions><speed>1.389506</speed><course>57.370388</course><hAcc>0.884725</hAcc><vAcc>0.717300</vAcc></extensions></trkpt>
      <trkpt lon="-3.316107" lat="54.548154"><ele>332.711639</ele><time>2021-08-12T11:33:34Z</time><extensions><speed>1.382839</speed><course>72.859169</course><hAcc>0.884676</hAcc><vAcc>0.717151</vAcc></extensions></trkpt>
      <trkpt lon="-3.316127" lat="54.548159"><ele>332.655426</ele><time>2021-08-12T11:33:35Z</time><extensions><speed>1.366404</speed><course>73.476959</course><hAcc>0.884628</hAcc><vAcc>0.716990</vAcc></extensions></trkpt>
      <trkpt lon="-3.316146" lat="54.548164"><ele>332.611053</ele><time>2021-08-12T11:33:36Z</time><extensions><speed>1.338258</speed><course>70.985191</course><hAcc>0.884576</hAcc><vAcc>0.716804</vAcc></extensions></trkpt>
      <trkpt lon="-3.316164" lat="54.548169"><ele>332.579620</ele><time>2021-08-12T11:33:37Z</time><extensions><speed>1.296513</speed><course>67.094063</course><hAcc>0.884514</hAcc><vAcc>0.716587</vAcc></extensions></trkpt>
      <trkpt lon="-3.316182" lat="54.548174"><ele>332.561890</ele><time>2021-08-12T11:33:38Z</time><extensions><speed>1.240136</speed><course>63.802017</course><hAcc>0.884436</hAcc><vAcc>0.716328</vAcc></extensions></trkpt>
      <trkpt lon="-3.316199" lat="54.548179"><ele>332.558624</ele><time>2021-08-12T11:33:39Z</time><extensions><speed>1.168570</speed><course>59.738853</course><hAcc>0.884335</hAcc><vAcc>0.716015</vAcc></extensions></trkpt>
      <trkpt lon="-3.316214" lat="54.548184"><ele>332.570404</ele><time>2021-08-12T11:33:40Z</time><extensions><speed>1.082212</speed><course>64.752533</course><hAcc>0.884204</hAcc><vAcc>0.715626</vAcc></extensions></trkpt>
      <trkpt lon="-3.316228" lat="54.548188"><ele>332.597870</ele><time>2021-08-12T11:33:41Z</time><extensions><speed>0.983630</speed><course>62.678837</course><hAcc>0.884034</hAcc><vAcc>0.715134</vAcc></extensions></trkpt>
      <trkpt lon="-3.316240" lat="54.548193"><ele>332.641785</ele><time>2021-08-12T11:33:42Z</time><extensions><speed>0.876404</speed><course>67.622025</course><hAcc>0.883818</hAcc><vAcc>0.714505</vAcc></extensions></trkpt>
      <trkpt lon="-3.316251" lat="54.548196"><ele>332.702667</ele><time>2021-08-12T11:33:43Z</time><extensions><speed>0.763925</speed><course>76.998230</course><hAcc>0.883551</hAcc><vAcc>0.713704</vAcc></extensions></trkpt>
      <trkpt lon="-3.316260" lat="54.548200"><ele>332.780151</ele><time>2021-08-12T11:33:44Z</time><extensions><speed>0.649812</speed><course>71.279175</course><hAcc>0.883228</hAcc><vAcc>0.712695</vAcc></extensions></trkpt>
      <trkpt lon="-3.316268" lat="54.548203"><ele>332.872772</ele><time>2021-08-12T11:33:45Z</time><extensions><speed>0.538229</speed><course>66.215858</course><hAcc>0.882850</hAcc><vAcc>0.711447</vAcc></extensions></trkpt>
      <trkpt lon="-3.316274" lat="54.548206"><ele>332.978241</ele><time>2021-08-12T11:33:46Z</time><extensions><speed>0.433764</speed><course>65.869171</course><hAcc>0.882421</hAcc><vAcc>0.709941</vAcc></extensions></trkpt>
      <trkpt lon="-3.316278" lat="54.548208"><ele>333.093658</ele><time>2021-08-12T11:33:47Z</time><extensions><speed>0.339714</speed><course>67.480362</course><hAcc>0.881953</hAcc><vAcc>0.708180</vAcc></extensions></trkpt>
      <trkpt lon="-3.316282" lat="54.548209"><ele>333.214874</ele><time>2021-08-12T11:33:48Z</time><extensions><speed>0.257673</speed><course>62.467888</course><hAcc>0.881465</hAcc><vAcc>0.706194</vAcc></extensions></trkpt>
      <trkpt lon="-3.316284" lat="54.548211"><ele>333.336212</ele><time>2021-08-12T11:33:49Z</time><extensions><speed>0.188235</speed><course>57.403885</course><hAcc>0.880984</hAcc><vAcc>0.704043</vAcc></extensions></trkpt>
      <trkpt lon="-3.316286" lat="54.548212"><ele>333.451080</ele><time>2021-08-12T11:33:50Z</time><extensions><speed>0.131377</speed><course>56.104736</course><hAcc>0.880544</hAcc><vAcc>0.701825</vAcc></extensions></trkpt>
      <trkpt lon="-3.316287" lat="54.548213"><ele>333.553741</ele><time>2021-08-12T11:33:51Z</time><extensions><speed>0.087256</speed><course>57.135769</course><hAcc>0.880189</hAcc><vAcc>0.699662</vAcc></extensions></trkpt>
      <trkpt lon="-3.316287" lat="54.548214"><ele>333.640106</ele><time>2021-08-12T11:33:52Z</time><extensions><speed>0.057292</speed><course>59.466648</course><hAcc>0.879968</hAcc><vAcc>0.697682</vAcc></extensions></trkpt>
      <trkpt lon="-3.316287" lat="54.548214"><ele>333.707733</ele><time>2021-08-12T11:33:53Z</time><extensions><speed>0.045143</speed><course>56.466339</course><hAcc>0.879935</hAcc><vAcc>0.695989</vAcc></extensions></trkpt>
      <trkpt lon="-3.316286" lat="54.548214"><ele>333.754791</ele><time>2021-08-12T11:33:54Z</time><extensions><speed>0.049486</speed><course>61.082169</course><hAcc>0.880145</hAcc><vAcc>0.694652</vAcc></extensions></trkpt>
      <trkpt lon="-3.316286" lat="54.548214"><ele>333.779755</ele><time>2021-08-12T11:33:55Z</time><extensions><speed>0.060096</speed><course>63.000797</course><hAcc>0.880645</hAcc><vAcc>0.693713</vAcc></extensions></trkpt>
      <trkpt lon="-3.316285" lat="54.548214"><ele>333.782013</ele><time>2021-08-12T11:33:56Z</time><extensions><speed>0.070496</speed><course>58.373146</course><hAcc>0.881471</hAcc><vAcc>0.693184</vAcc></extensions></trkpt>
      <trkpt lon="-3.316283" lat="54.548215"><ele>333.762299</ele><time>2021-08-12T11:33:57Z</time><extensions><speed>0.078848</speed><course>59.591164</course><hAcc>0.882638</hAcc><vAcc>0.693032</vAcc></extensions></trkpt>
      <trkpt lon="-3.316282" lat="54.548214"><ele>333.723114</ele><time>2021-08-12T11:33:58Z</time><extensions><speed>0.084754</speed><course>56.078835</course><hAcc>0.884122</hAcc><vAcc>0.693176</vAcc></extensions></trkpt>
      <trkpt lon="-3.316281" lat="54.548214"><ele>333.667847</ele><time>2021-08-12T11:33:59Z</time><extensions><speed>0.088618</speed><course>61.452141</course><hAcc>0.885857</hAcc><vAcc>0.693493</vAcc></extensions></trkpt>
      <trkpt lon="-3.316279" lat="54.548214"><ele>333.600220</ele><time>2021-08-12T11:34:00Z</time><extensions><speed>0.090472</speed><course>62.349373</course><hAcc>0.887725</hAcc><vAcc>0.693841</vAcc></extensions></trkpt>
      <trkpt lon="-3.316278" lat="54.548214"><ele>333.524414</ele><time>2021-08-12T11:34:01Z</time><extensions><speed>0.090667</speed><course>67.502327</course><hAcc>0.889558</hAcc><vAcc>0.694117</vAcc></extensions></trkpt>
      <trkpt lon="-3.316277" lat="54.548214"><ele>333.443848</ele><time>2021-08-12T11:34:02Z</time><extensions><speed>0.089708</speed><course>65.148994</course><hAcc>0.891168</hAcc><vAcc>0.694307</vAcc></extensions></trkpt>
      <trkpt lon="-3.316275" lat="54.548214"><ele>333.361267</ele><time>2021-08-12T11:34:03Z</time><extensions><speed>0.087446</speed><course>61.604351</course><hAcc>0.892390</hAcc><vAcc>0.694524</vAcc></extensions></trkpt>
      <trkpt lon="-3.316274" lat="54.548214"><ele>333.278961</ele><time>2021-08-12T11:34:04Z</time><extensions><speed>0.083967</speed><course>67.356651</course><hAcc>0.893179</hAcc><vAcc>0.695057</vAcc></extensions></trkpt>
      <trkpt lon="-3.316273" lat="54.548213"><ele>333.198608</ele><time>2021-08-12T11:34:05Z</time><extensions><speed>0.079115</speed><course>56.187717</course><hAcc>0.893772</hAcc><vAcc>0.696465</vAcc></extensions></trkpt>
      <trkpt lon="-3.316272" lat="54.548213"><ele>333.121674</ele><time>2021-08-12T11:34:06Z</time><extensions><speed>0.073128</speed><course>56.273357</course><hAcc>0.894944</hAcc><vAcc>0.699731</vAcc></extensions></trkpt>
      <trkpt lon="-3.316271" lat="54.548213"><ele>333.048920</ele><time>2021-08-12T11:34:07Z</time><extensions><speed>0.066794</speed><course>59.042984</course><hAcc>0.898366</hAcc><vAcc>0.706486</vAcc></extensions></trkpt>
      <trkpt lon="-3.316270" lat="54.548213"><ele>332.980438</ele><time>2021-08-12T11:34:08Z</time><extensions><speed>0.060671</speed><course>46.754299</course><hAcc>0.907058</hAcc><vAcc>0.719272</vAcc></extensions></trkpt>
      <trkpt lon="-3.316269" lat="54.548212"><ele>332.916016</ele><time>2021-08-12T11:34:09Z</time><extensions><speed>0.055173</speed><course>46.754295</course><hAcc>0.925811</hAcc><vAcc>0.741737</vAcc></extensions></trkpt>
      <trkpt lon="-3.316268" lat="54.548212"><ele>332.855164</ele><time>2021-08-12T11:34:10Z</time><extensions><speed>0.050568</speed><course>46.754295</course><hAcc>0.961329</hAcc><vAcc>0.778532</vAcc></extensions></trkpt>
      <trkpt lon="-3.316274" lat="54.548218"><ele>333.362183</ele><time>2021-08-12T11:34:11Z</time><extensions><speed>0.715221</speed><course>74.967865</course><hAcc>0.922460</hAcc><vAcc>0.741220</vAcc></extensions></trkpt>
      <trkpt lon="-3.316283" lat="54.548222"><ele>333.484863</ele><time>2021-08-12T11:34:12Z</time><extensions><speed>0.792815</speed><course>75.133301</course><hAcc>0.905328</hAcc><vAcc>0.725871</vAcc></extensions></trkpt>
      <trkpt lon="-3.316292" lat="54.548227"><ele>333.600800</ele><time>2021-08-12T11:34:13Z</time><extensions><speed>0.884518</speed><course>66.099251</course><hAcc>0.898910</hAcc><vAcc>0.719413</vAcc></extensions></trkpt>
      <trkpt lon="-3.316304" lat="54.548233"><ele>333.706818</ele><time>2021-08-12T11:34:14Z</time><extensions><speed>0.986685</speed><course>81.237114</course><hAcc>0.897713</hAcc><vAcc>0.717638</vAcc></extensions></trkpt>
      <trkpt lon="-3.316316" lat="54.548239"><ele>333.798859</ele><time>2021-08-12T11:34:15Z</time><extensions><speed>1.093768</speed><course>80.566093</course><hAcc>0.898326</hAcc><vAcc>0.717689</vAcc></extensions></trkpt>
      <trkpt lon="-3.316330" lat="54.548245"><ele>333.872162</ele><time>2021-08-12T11:34:16Z</time><extensions><speed>1.198070</speed><course>80.566109</course><hAcc>0.898913</hAcc><vAcc>0.717849</vAcc></extensions></trkpt>
      <trkpt lon="-3.316345" lat="54.548252"><ele>333.921051</ele><time>2021-08-12T11:34:17Z</time><extensions><speed>1.289503</speed><course>80.566093</course><hAcc>0.898691</hAcc><vAcc>0.717253</vAcc></extensions></trkpt>
      <trkpt lon="-3.316362" lat="54.548259"><ele>333.939941</ele><time>2021-08-12T11:34:18Z</time><extensions><speed>1.363021</speed><course>80.566093</course><hAcc>0.897496</hAcc><vAcc>0.715621</vAcc></extensions></trkpt>
      <trkpt lon="-3.316379" lat="54.548266"><ele>333.925690</ele><time>2021-08-12T11:34:19Z</time><extensions><speed>1.419240</speed><course>80.566093</course><hAcc>0.895483</hAcc><vAcc>0.713035</vAcc></extensions></trkpt>
      <trkpt lon="-3.316397" lat="54.548274"><ele>333.878632</ele><time>2021-08-12T11:34:20Z</time><extensions><speed>1.457535</speed><course>77.344681</course><hAcc>0.892940</hAcc><vAcc>0.709764</vAcc></extensions></trkpt>
      <trkpt lon="-3.316415" lat="54.548282"><ele>333.801788</ele><time>2021-08-12T11:34:21Z</time><extensions><speed>1.477658</speed><course>77.923714</course><hAcc>0.890168</hAcc><vAcc>0.706134</vAcc></extensions></trkpt>
      <trkpt lon="-3.316434" lat="54.548289"><ele>333.699249</ele><time>2021-08-12T11:34:22Z</time><extensions><speed>1.480782</speed><course>87.073212</course><hAcc>0.887421</hAcc><vAcc>0.702447</vAcc></extensions></trkpt>
      <trkpt lon="-3.316452" lat="54.548297"><ele>333.574341</ele><time>2021-08-12T11:34:23Z</time><extensions><speed>1.468655</speed><course>79.233902</course><hAcc>0.884886</hAcc><vAcc>0.698945</vAcc></extensions></trkpt>
      <trkpt lon="-3.316471" lat="54.548305"><ele>333.428986</ele><time>2021-08-12T11:34:24Z</time><extensions><speed>1.443299</speed><course>96.572746</course><hAcc>0.882678</hAcc><vAcc>0.695804</vAcc></extensions></trkpt>
      <trkpt lon="-3.316488" lat="54.548312"><ele>333.264313</ele><time>2021-08-12T11:34:25Z</time><extensions><speed>1.407140</speed><course>86.920219</course><hAcc>0.880847</hAcc><vAcc>0.693131</vAcc></extensions></trkpt>
      <trkpt lon="-3.316505" lat="54.548320"><ele>333.081909</ele><time>2021-08-12T11:34:26Z</time><extensions><speed>1.362704</speed><course>76.786201</course><hAcc>0.879399</hAcc><vAcc>0.690976</vAcc></extensions></trkpt>
      <trkpt lon="-3.316522" lat="54.548327"><ele>332.884552</ele><time>2021-08-12T11:34:27Z</time><extensions><speed>1.312752</speed><course>77.162971</course><hAcc>0.878305</hAcc><vAcc>0.689335</vAcc></extensions></trkpt>
      <trkpt lon="-3.316537" lat="54.548335"><ele>332.675690</ele><time>2021-08-12T11:34:28Z</time><extensions><speed>1.260038</speed><course>69.604996</course><hAcc>0.877518</hAcc><vAcc>0.688174</vAcc></extensions></trkpt>
      <trkpt lon="-3.316551" lat="54.548342"><ele>332.459320</ele><time>2021-08-12T11:34:29Z</time><extensions><speed>1.207170</speed><course>76.115456</course><hAcc>0.876981</hAcc><vAcc>0.687424</vAcc></extensions></trkpt>
      <trkpt lon="-3.316564" lat="54.548349"><ele>332.239624</ele><time>2021-08-12T11:34:30Z</time><extensions><speed>1.156547</speed><course>83.646278</course><hAcc>0.876637</hAcc><vAcc>0.687001</vAcc></extensions></trkpt>
      <trkpt lon="-3.316576" lat="54.548357"><ele>332.020325</ele><time>2021-08-12T11:34:31Z</time><extensions><speed>1.111016</speed><course>76.408623</course><hAcc>0.876431</hAcc><vAcc>0.686810</vAcc></extensions></trkpt>
      <trkpt lon="-3.316587" lat="54.548364"><ele>331.804779</ele><time>2021-08-12T11:34:32Z</time><extensions><speed>1.074431</speed><course>79.439453</course><hAcc>0.876319</hAcc><vAcc>0.686756</vAcc></extensions></trkpt>
      <trkpt lon="-3.316596" lat="54.548372"><ele>331.595398</ele><time>2021-08-12T11:34:33Z</time><extensions><speed>1.050249</speed><course>75.300941</course><hAcc>0.876261</hAcc><vAcc>0.686750</vAcc></extensions></trkpt>
      <trkpt lon="-3.316605" lat="54.548380"><ele>331.393799</ele><time>2021-08-12T11:34:34Z</time><extensions><speed>1.040137</speed><course>76.126534</course><hAcc>0.876228</hAcc><vAcc>0.686729</vAcc></extensions></trkpt>
      <trkpt lon="-3.316612" lat="54.548389"><ele>331.201111</ele><time>2021-08-12T11:34:35Z</time><extensions><speed>1.043096</speed><course>75.233688</course><hAcc>0.876203</hAcc><vAcc>0.686653</vAcc></extensions></trkpt>
      <trkpt lon="-3.316618" lat="54.548397"><ele>331.018494</ele><time>2021-08-12T11:34:36Z</time><extensions><speed>1.055747</speed><course>81.891060</course><hAcc>0.876174</hAcc><vAcc>0.686513</vAcc></extensions></trkpt>
      <trkpt lon="-3.316624" lat="54.548406"><ele>330.847626</ele><time>2021-08-12T11:34:37Z</time><extensions><speed>1.073347</speed><course>78.263519</course><hAcc>0.876136</hAcc><vAcc>0.686317</vAcc></extensions></trkpt>
      <trkpt lon="-3.316630" lat="54.548415"><ele>330.690399</ele><time>2021-08-12T11:34:38Z</time><extensions><speed>1.091371</speed><course>74.907532</course><hAcc>0.876089</hAcc><vAcc>0.686086</vAcc></extensions></trkpt>
      <trkpt lon="-3.316636" lat="54.548425"><ele>330.548309</ele><time>2021-08-12T11:34:39Z</time><extensions><speed>1.106454</speed><course>84.941742</course><hAcc>0.876037</hAcc><vAcc>0.685843</vAcc></extensions></trkpt>
      <trkpt lon="-3.316642" lat="54.548434"><ele>330.421783</ele><time>2021-08-12T11:34:40Z</time><extensions><speed>1.117343</speed><course>73.584358</course><hAcc>0.875983</hAcc><vAcc>0.685609</vAcc></extensions></trkpt>
      <trkpt lon="-3.316648" lat="54.548443"><ele>330.310242</ele><time>2021-08-12T11:34:41Z</time><extensions><speed>1.124625</speed><course>96.346313</course><hAcc>0.875934</hAcc><vAcc>0.685404</vAcc></extensions></trkpt>
      <trkpt lon="-3.316656" lat="54.548452"><ele>330.212616</ele><time>2021-08-12T11:34:42Z</time><extensions><speed>1.129505</speed><course>87.208282</course><hAcc>0.875893</hAcc><vAcc>0.685248</vAcc></extensions></trkpt>
      <trkpt lon="-3.316664" lat="54.548461"><ele>330.128754</ele><time>2021-08-12T11:34:43Z</time><extensions><speed>1.133769</speed><course>71.034035</course><hAcc>0.875865</hAcc><vAcc>0.685148</vAcc></extensions></trkpt>
      <trkpt lon="-3.316673" lat="54.548470"><ele>330.059814</ele><time>2021-08-12T11:34:44Z</time><extensions><speed>1.139999</speed><course>74.315559</course><hAcc>0.875854</hAcc><vAcc>0.685111</vAcc></extensions></trkpt>
      <trkpt lon="-3.316684" lat="54.548478"><ele>330.007294</ele><time>2021-08-12T11:34:45Z</time><extensions><speed>1.151089</speed><course>82.074326</course><hAcc>0.875862</hAcc><vAcc>0.685137</vAcc></extensions></trkpt>
      <trkpt lon="-3.316695" lat="54.548486"><ele>329.971985</ele><time>2021-08-12T11:34:46Z</time><extensions><speed>1.168581</speed><course>78.798851</course><hAcc>0.875892</hAcc><vAcc>0.685233</vAcc></extensions></trkpt>
      <trkpt lon="-3.316709" lat="54.548494"><ele>329.953766</ele><time>2021-08-12T11:34:47Z</time><extensions><speed>1.192656</speed><course>71.049065</course><hAcc>0.875947</hAcc><vAcc>0.685410</vAcc></extensions></trkpt>
      <trkpt lon="-3.316723" lat="54.548500"><ele>329.951538</ele><time>2021-08-12T11:34:48Z</time><extensions><speed>1.222463</speed><course>66.417450</course><hAcc>0.876029</hAcc><vAcc>0.685687</vAcc></extensions></trkpt>
      <trkpt lon="-3.316739" lat="54.548507"><ele>329.963593</ele><time>2021-08-12T11:34:49Z</time><extensions><speed>1.255839</speed><course>67.881187</course><hAcc>0.876141</hAcc><vAcc>0.686076</vAcc></extensions></trkpt>
      <trkpt lon="-3.316756" lat="54.548513"><ele>329.988190</ele><time>2021-08-12T11:34:50Z</time><extensions><speed>1.290403</speed><course>73.946594</course><hAcc>0.876283</hAcc><vAcc>0.686588</vAcc></extensions></trkpt>
      <trkpt lon="-3.316774" lat="54.548518"><ele>330.024048</ele><time>2021-08-12T11:34:51Z</time><extensions><speed>1.324362</speed><course>66.868568</course><hAcc>0.876455</hAcc><vAcc>0.687225</vAcc></extensions></trkpt>
      <trkpt lon="-3.316793" lat="54.548522"><ele>330.069824</ele><time>2021-08-12T11:34:52Z</time><extensions><speed>1.356112</speed><course>57.370388</course><hAcc>0.876653</hAcc><vAcc>0.687985</vAcc></extensions></trkpt>
      <trkpt lon="-3.316813" lat="54.548527"><ele>330.124268</ele><time>2021-08-12T11:34:53Z</time><extensions><speed>1.383739</speed><course>72.859169</course><hAcc>0.876874</hAcc><vAcc>0.688851</vAcc></extensions></trkpt>
      <trkpt lon="-3.316833" lat="54.548530"><ele>330.185883</ele><time>2021-08-12T11:34:54Z</time><extensions><speed>1.404847</speed><course>73.476959</course><hAcc>0.877112</hAcc><vAcc>0.689795</vAcc></extensions></trkpt>
      <trkpt lon="-3.316855" lat="54.548533"><ele>330.252991</ele><time>2021-08-12T11:34:55Z</time><extensions><speed>1.416554</speed><course>70.985191</course><hAcc>0.877360</hAcc><vAcc>0.690777</vAcc></extensions></trkpt>
      <trkpt lon="-3.316876" lat="54.548536"><ele>330.323395</ele><time>2021-08-12T11:34:56Z</time><extensions><speed>1.416330</speed><course>67.094063</course><hAcc>0.877611</hAcc><vAcc>0.691755</vAcc></extensions></trkpt>
      <trkpt lon="-3.316897" lat="54.548539"><ele>330.394867</ele><time>2021-08-12T11:34:57Z</time><extensions><speed>1.402214</speed><course>63.802017</course><hAcc>0.877859</hAcc><vAcc>0.692694</vAcc></extensions></trkpt>
      <trkpt lon="-3.316918" lat="54.548541"><ele>330.464783</ele><time>2021-08-12T11:34:58Z</time><extensions><speed>1.372890</speed><course>59.738853</course><hAcc>0.878097</hAcc><vAcc>0.693573</vAcc></extensions></trkpt>
      <trkpt lon="-3.316939" lat="54.548543"><ele>330.530304</ele><time>2021-08-12T11:34:59Z</time><extensions><speed>1.328331</speed><course>64.752533</course><hAcc>0.878323</hAcc><vAcc>0.694381</vAcc></extensions></trkpt>
      <trkpt lon="-3.316959" lat="54.548545"><ele>330.589874</ele><time>2021-08-12T11:35:00Z</time><extensions><speed>1.268662</speed><course>62.678837</course><hAcc>0.878534</hAcc><vAcc>0.695119</vAcc></extensions></trkpt>
      <trkpt lon="-3.316977" lat="54.548547"><ele>330.643036</ele><time>2021-08-12T11:35:01Z</time><extensions><speed>1.193714</speed><course>67.622025</course><hAcc>0.878731</hAcc><vAcc>0.695789</vAcc></extensions></trkpt>
      <trkpt lon="-3.316995" lat="54.548549"><ele>330.689606</ele><time>2021-08-12T11:35:02Z</time><extensions><speed>1.103782</speed><course>76.998230</course><hAcc>0.878914</hAcc><vAcc>0.696397</vAcc></extensions></trkpt>
      <trkpt lon="-3.317011" lat="54.548550"><ele>330.729309</ele><time>2021-08-12T11:35:03Z</time><extensions><speed>0.999894</speed><course>71.279175</course><hAcc>0.879083</hAcc><vAcc>0.696956</vAcc></extensions></trkpt>
      <trkpt lon="-3.317025" lat="54.548552"><ele>330.762268</ele><time>2021-08-12T11:35:04Z</time><extensions><speed>0.884132</speed><course>66.215858</course><hAcc>0.879241</hAcc><vAcc>0.697482</vAcc></extensions></trkpt>
      <trkpt lon="-3.317038" lat="54.548553"><ele>330.789246</ele><time>2021-08-12T11:35:05Z</time><extensions><speed>0.760449</speed><course>65.869171</course><hAcc>0.879387</hAcc><vAcc>0.697991</vAcc></extensions></trkpt>
      <trkpt lon="-3.317048" lat="54.548554"><ele>330.811462</ele><time>2021-08-12T11:35:06Z</time><extensions><speed>0.633822</speed><course>67.480362</course><hAcc>0.879523</hAcc><vAcc>0.698493</vAcc></extensions></trkpt>
      <trkpt lon="-3.317057" lat="54.548555"><ele>330.829315</ele><time>2021-08-12T11:35:07Z</time><extensions><speed>0.509757</speed><course>62.467888</course><hAcc>0.879646</hAcc><vAcc>0.698991</vAcc></extensions></trkpt>
      <trkpt lon="-3.317064" lat="54.548556"><ele>330.841461</ele><time>2021-08-12T11:35:08Z</time><extensions><speed>0.394564</speed><course>57.403885</course><hAcc>0.879756</hAcc><vAcc>0.699472</vAcc></extensions></trkpt>
      <trkpt lon="-3.317069" lat="54.548557"><ele>330.845154</ele><time>2021-08-12T11:35:09Z</time><extensions><speed>0.294279</speed><course>56.104736</course><hAcc>0.879848</hAcc><vAcc>0.699913</vAcc></extensions></trkpt>
      <trkpt lon="-3.317072" lat="54.548558"><ele>330.837372</ele><time>2021-08-12T11:35:10Z</time><extensions><speed>0.213790</speed><course>57.135769</course><hAcc>0.879920</hAcc><vAcc>0.700279</vAcc></extensions></trkpt>
      <trkpt lon="-3.317075" lat="54.548559"><ele>330.815765</ele><time>2021-08-12T11:35:11Z</time><extensions><speed>0.156322</speed><course>59.466648</course><hAcc>0.879970</hAcc><vAcc>0.700536</vAcc></extensions></trkpt>
      <trkpt lon="-3.317076" lat="54.548560"><ele>330.778595</ele><time>2021-08-12T11:35:12Z</time><extensions><speed>0.122761</speed><course>56.466339</course><hAcc>0.879997</hAcc><vAcc>0.700657</vAcc></extensions></trkpt>
      <trkpt lon="-3.317077" lat="54.548561"><ele>330.725098</ele><time>2021-08-12T11:35:13Z</time><extensions><speed>0.108491</speed><course>61.082169</course><hAcc>0.880001</hAcc><vAcc>0.700630</vAcc></extensions></trkpt>
      <trkpt lon="-3.317078" lat="54.548562"><ele>330.655701</ele><time>2021-08-12T11:35:14Z</time><extensions><speed>0.106103</speed><course>63.000797</course><hAcc>0.879985</hAcc><vAcc>0.700471</vAcc></extensions></trkpt>
      <trkpt lon="-3.317079" lat="54.548562"><ele>330.571228</ele><time>2021-08-12T11:35:15Z</time><extensions><speed>0.115716</speed><course>58.373146</course><hAcc>0.879952</hAcc><vAcc>0.700224</vAcc></extensions></trkpt>
      <trkpt lon="-3.317080" lat="54.548563"><ele>330.472473</ele><time>2021-08-12T11:35:16Z</time><extensions><speed>0.145489</speed><course>59.591164</course><hAcc>0.879908</hAcc><vAcc>0.699935</vAcc></extensions></trkpt>
      <trkpt lon="-3.317083" lat="54.548564"><ele>330.360596</ele><time>2021-08-12T11:35:17Z</time><extensions><speed>0.200592</speed><course>56.078835</course><hAcc>0.879856</hAcc><vAcc>0.699646</vAcc></extensions></trkpt>
      <trkpt lon="-3.317086" lat="54.548565"><ele>330.237671</ele><time>2021-08-12T11:35:18Z</time><extensions><speed>0.279341</speed><course>61.452141</course><hAcc>0.879802</hAcc><vAcc>0.699383</vAcc></extensions></trkpt>
      <trkpt lon="-3.317091" lat="54.548566"><ele>330.106842</ele><time>2021-08-12T11:35:19Z</time><extensions><speed>0.377627</speed><course>62.349373</course><hAcc>0.879748</hAcc><vAcc>0.699163</vAcc></extensions></trkpt>
      <trkpt lon="-3.317098" lat="54.548566"><ele>329.972473</ele><time>2021-08-12T11:35:20Z</time><extensions><speed>0.490963</speed><course>67.502327</course><hAcc>0.879697</hAcc><vAcc>0.698980</vAcc></extensions></trkpt>
      <trkpt lon="-3.317106" lat="54.548567"><ele>329.840271</ele><time>2021-08-12T11:35:21Z</time><extensions><speed>0.614540</speed><course>65.148994</course><hAcc>0.879648</hAcc><vAcc>0.698823</vAcc></extensions></trkpt>
      <trkpt lon="-3.317117" lat="54.548567"><ele>329.716370</ele><time>2021-08-12T11:35:22Z</time><extensions><speed>0.742815</speed><course>61.604351</course><hAcc>0.879600</hAcc><vAcc>0.698679</vAcc></extensions></trkpt>
      <trkpt lon="-3.317129" lat="54.548568"><ele>329.604889</ele><time>2021-08-12T11:35:23Z</time><extensions><speed>0.870153</speed><course>67.356651</course><hAcc>0.879552</hAcc><vAcc>0.698542</vAcc></extensions></trkpt>
      <trkpt lon="-3.317143" lat="54.548569"><ele>329.506622</ele><time>2021-08-12T11:35:24Z</time><extensions><speed>0.991844</speed><course>56.187717</course><hAcc>0.879501</hAcc><vAcc>0.698404</vAcc></extensions></trkpt>
      <trkpt lon="-3.317159" lat="54.548569"><ele>329.419861</ele><time>2021-08-12T11:35:25Z</time><extensions><speed>1.104283</speed><course>56.273357</course><hAcc>0.879445</hAcc><vAcc>0.698246</vAcc></extensions></trkpt>
      <trkpt lon="-3.317177" lat="54.548570"><ele>329.341858</ele><time>2021-08-12T11:35:26Z</time><extensions><speed>1.204420</speed><course>59.042984</course><hAcc>0.879382</hAcc><vAcc>0.698048</vAcc></extensions></trkpt>
      <trkpt lon="-3.317196" lat="54.548571"><ele>329.269745</ele><time>2021-08-12T11:35:27Z</time><extensions><speed>1.290331</speed><course>46.754299</course><hAcc>0.879313</hAcc><vAcc>0.697794</vAcc></extensions></trkpt>
      <trkpt lon="-3.317217" lat="54.548572"><ele>329.200989</ele><time>2021-08-12T11:35:28Z</time><extensions><speed>1.361585</speed><course>46.754295</course><hAcc>0.879239</hAcc><vAcc>0.697490</vAcc></extensions></trkpt>
      <trkpt lon="-3.317238" lat="54.548573"><ele>329.133667</ele><time>2021-08-12T11:35:29Z</time><extensions><speed>1.419018</speed><course>46.754295</course><hAcc>0.879167</hAcc><vAcc>0.697153</vAcc></extensions></trkpt>
      <trkpt lon="-3.317261" lat="54.548574"><ele>329.067902</ele><time>2021-08-12T11:35:30Z</time><extensions><speed>1.464521</speed><course>46.754295</course><hAcc>0.879108</hAcc><vAcc>0.696818</vAcc></extensions></trkpt>
      <trkpt lon="-3.317283" lat="54.548575"><ele>329.006683</ele><time>2021-08-12T11:35:31Z</time><extensions><speed>1.499954</speed><course>46.754295</course><hAcc>0.879075</hAcc><vAcc>0.696523</vAcc></extensions></trkpt>
      <trkpt lon="-3.317307" lat="54.548576"><ele>328.955658</ele><time>2021-08-12T11:35:32Z</time><extensions><speed>1.527163</speed><course>46.754295</course><hAcc>0.879090</hAcc><vAcc>0.696306</vAcc></extensions></trkpt>
      <trkpt lon="-3.317330" lat="54.548577"><ele>328.921021</ele><time>2021-08-12T11:35:33Z</time><extensions><speed>1.547068</speed><course>46.754295</course><hAcc>0.879179</hAcc><vAcc>0.696203</vAcc></extensions></trkpt>
      <trkpt lon="-3.317354" lat="54.548578"><ele>328.907043</ele><time>2021-08-12T11:35:34Z</time><extensions><speed>1.559324</speed><course>46.754292</course><hAcc>0.879375</hAcc><vAcc>0.696243</vAcc></extensions></trkpt>
      <trkpt lon="-3.317378" lat="54.548579"><ele>328.914642</ele><time>2021-08-12T11:35:35Z</time><extensions><speed>1.563608</speed><course>46.754295</course><hAcc>0.879715</hAcc><vAcc>0.696460</vAcc></extensions></trkpt>
      <trkpt lon="-3.317403" lat="54.548579"><ele>328.942200</ele><time>2021-08-12T11:35:36Z</time><extensions><speed>1.560193</speed><course>86.257805</course><hAcc>0.880245</hAcc><vAcc>0.696899</vAcc></extensions></trkpt>
      <trkpt lon="-3.317427" lat="54.548580"><ele>328.986725</ele><time>2021-08-12T11:35:37Z</time><extensions><speed>1.549755</speed><course>92.864906</course><hAcc>0.881009</hAcc><vAcc>0.697603</vAcc></extensions></trkpt>
      <trkpt lon="-3.317450" lat="54.548580"><ele>329.044037</ele><time>2021-08-12T11:35:38Z</time><extensions><speed>1.533062</speed><course>94.458534</course><hAcc>0.882049</hAcc><vAcc>0.698597</vAcc></extensions></trkpt>
      <trkpt lon="-3.317474" lat="54.548581"><ele>329.109192</ele><time>2021-08-12T11:35:39Z</time><extensions><speed>1.512075</speed><course>89.165138</course><hAcc>0.883393</hAcc><vAcc>0.699875</vAcc></extensions></trkpt>
      <trkpt lon="-3.317497" lat="54.548581"><ele>329.177521</ele><time>2021-08-12T11:35:40Z</time><extensions><speed>1.488731</speed><course>98.187202</course><hAcc>0.885049</hAcc><vAcc>0.701397</vAcc></extensions></trkpt>
      <trkpt lon="-3.317520" lat="54.548580"><ele>329.245483</ele><time>2021-08-12T11:35:41Z</time><extensions><speed>1.463756</speed><course>262.094696</course><hAcc>0.886986</hAcc><vAcc>0.703081</vAcc></extensions></trkpt>
      <trkpt lon="-3.317542" lat="54.548580"><ele>329.310577</ele><time>2021-08-12T11:35:42Z</time><extensions><speed>1.437039</speed><course>273.339569</course><hAcc>0.889133</hAcc><vAcc>0.704818</vAcc></extensions></trkpt>
      <trkpt lon="-3.317564" lat="54.548579"><ele>329.371094</ele><time>2021-08-12T11:35:43Z</time><extensions><speed>1.408354</speed><course>270.133057</course><hAcc>0.891361</hAcc><vAcc>0.706472</vAcc></extensions></trkpt>
      <trkpt lon="-3.317586" lat="54.548578"><ele>329.424561</ele><time>2021-08-12T11:35:44Z</time><extensions><speed>1.377654</speed><course>264.401459</course><hAcc>0.893492</hAcc><vAcc>0.707905</vAcc></extensions></trkpt>
      <trkpt lon="-3.317606" lat="54.548576"><ele>329.467438</ele><time>2021-08-12T11:35:45Z</time><extensions><speed>1.344599</speed><course>271.206299</course><hAcc>0.895316</hAcc><vAcc>0.709008</vAcc></extensions></trkpt>
      <trkpt lon="-3.317627" lat="54.548574"><ele>329.496796</ele><time>2021-08-12T11:35:46Z</time><extensions><speed>1.309685</speed><course>270.479279</course><hAcc>0.896646</hAcc><vAcc>0.709753</vAcc></extensions></trkpt>
      <trkpt lon="-3.317646" lat="54.548572"><ele>329.512146</ele><time>2021-08-12T11:35:47Z</time><extensions><speed>1.273752</speed><course>270.479279</course><hAcc>0.897415</hAcc><vAcc>0.710283</vAcc></extensions></trkpt>
      <trkpt lon="-3.317665" lat="54.548569"><ele>329.515106</ele><time>2021-08-12T11:35:48Z</time><extensions><speed>1.238084</speed><course>270.479279</course><hAcc>0.897842</hAcc><vAcc>0.711044</vAcc></extensions></trkpt>
      <trkpt lon="-3.317683" lat="54.548566"><ele>329.508209</ele><time>2021-08-12T11:35:49Z</time><extensions><speed>1.204353</speed><course>92.836548</course><hAcc>0.898695</hAcc><vAcc>0.712986</vAcc></extensions></trkpt>
      <trkpt lon="-3.317700" lat="54.548563"><ele>329.494019</ele><time>2021-08-12T11:35:50Z</time><extensions><speed>1.173739</speed><course>91.847809</course><hAcc>0.901656</hAcc><vAcc>0.717808</vAcc></extensions></trkpt>
      <trkpt lon="-3.317717" lat="54.548559"><ele>329.474823</ele><time>2021-08-12T11:35:51Z</time><extensions><speed>1.147356</speed><course>96.972961</course><hAcc>0.909762</hAcc><vAcc>0.728210</vAcc></extensions></trkpt>
      <trkpt lon="-3.317733" lat="54.548554"><ele>329.452332</ele><time>2021-08-12T11:35:52Z</time><extensions><speed>1.126211</speed><course>101.432434</course><hAcc>0.927836</hAcc><vAcc>0.748034</vAcc></extensions></trkpt>
      <trkpt lon="-3.317748" lat="54.548549"><ele>329.427643</ele><time>2021-08-12T11:35:53Z</time><extensions><speed>1.110436</speed><course>89.921867</course><hAcc>0.962623</hAcc><vAcc>0.782132</vAcc></extensions></trkpt>
      <trkpt lon="-3.317757" lat="54.548539"><ele>329.334656</ele><time>2021-08-12T11:35:54Z</time><extensions><speed>1.333612</speed><course>74.967865</course><hAcc>0.925282</hAcc><vAcc>0.748212</vAcc></extensions></trkpt>
      <trkpt lon="-3.317766" lat="54.548528"><ele>329.326233</ele><time>2021-08-12T11:35:55Z</time><extensions><speed>1.352888</speed><course>75.133301</course><hAcc>0.907361</hAcc><vAcc>0.730398</vAcc></extensions></trkpt>
      <trkpt lon="-3.317775" lat="54.548517"><ele>329.320404</ele><time>2021-08-12T11:35:56Z</time><extensions><speed>1.375160</speed><course>66.099251</course><hAcc>0.900499</hAcc><vAcc>0.722673</vAcc></extensions></trkpt>
      <trkpt lon="-3.317783" lat="54.548506"><ele>329.317902</ele><time>2021-08-12T11:35:57Z</time><extensions><speed>1.399716</speed><course>81.237114</course><hAcc>0.899180</hAcc><vAcc>0.720713</vAcc></extensions></trkpt>
      <trkpt lon="-3.317791" lat="54.548494"><ele>329.319122</ele><time>2021-08-12T11:35:58Z</time><extensions><speed>1.425575</speed><course>80.566093</course><hAcc>0.899941</hAcc><vAcc>0.721500</vAcc></extensions></trkpt>
      <trkpt lon="-3.317799" lat="54.548482"><ele>329.323669</ele><time>2021-08-12T11:35:59Z</time><extensions><speed>1.452134</speed><course>80.566109</course><hAcc>0.900894</hAcc><vAcc>0.723156</vAcc></extensions></trkpt>
      <trkpt lon="-3.317806" lat="54.548469"><ele>329.330200</ele><time>2021-08-12T11:36:00Z</time><extensions><speed>1.478700</speed><course>80.566093</course><hAcc>0.901197</hAcc><vAcc>0.724659</vAcc></extensions></trkpt>
      <trkpt lon="-3.317813" lat="54.548456"><ele>329.336548</ele><time>2021-08-12T11:36:01Z</time><extensions><speed>1.504297</speed><course>80.566093</course><hAcc>0.900637</hAcc><vAcc>0.725567</vAcc></extensions></trkpt>
      <trkpt lon="-3.317819" lat="54.548443"><ele>329.339752</ele><time>2021-08-12T11:36:02Z</time><extensions><speed>1.527685</speed><course>80.566093</course><hAcc>0.899326</hAcc><vAcc>0.725789</vAcc></extensions></trkpt>
      <trkpt lon="-3.317825" lat="54.548430"><ele>329.336060</ele><time>2021-08-12T11:36:03Z</time><extensions><speed>1.547905</speed><course>77.344681</course><hAcc>0.897509</hAcc><vAcc>0.725424</vAcc></extensions></trkpt>
      <trkpt lon="-3.317831" lat="54.548416"><ele>329.321625</ele><time>2021-08-12T11:36:04Z</time><extensions><speed>1.564472</speed><course>77.923714</course><hAcc>0.895448</hAcc><vAcc>0.724648</vAcc></extensions></trkpt>
      <trkpt lon="-3.317837" lat="54.548403"><ele>329.293762</ele><time>2021-08-12T11:36:05Z</time><extensions><speed>1.577366</speed><course>87.073212</course><hAcc>0.893370</hAcc><vAcc>0.723644</vAcc></extensions></trkpt>
      <trkpt lon="-3.317842" lat="54.548389"><ele>329.251404</ele><time>2021-08-12T11:36:06Z</time><extensions><speed>1.586753</speed><course>79.233902</course><hAcc>0.891437</hAcc><vAcc>0.722559</vAcc></extensions></trkpt>
      <trkpt lon="-3.317848" lat="54.548375"><ele>329.194763</ele><time>2021-08-12T11:36:07Z</time><extensions><speed>1.592544</speed><course>96.572746</course><hAcc>0.889744</hAcc><vAcc>0.721493</vAcc></extensions></trkpt>
      <trkpt lon="-3.317853" lat="54.548361"><ele>329.124237</ele><time>2021-08-12T11:36:08Z</time><extensions><speed>1.594682</speed><course>86.920219</course><hAcc>0.888335</hAcc><vAcc>0.720503</vAcc></extensions></trkpt>
      <trkpt lon="-3.317859" lat="54.548347"><ele>329.039764</ele><time>2021-08-12T11:36:09Z</time><extensions><speed>1.593328</speed><course>76.786201</course><hAcc>0.887211</hAcc><vAcc>0.719615</vAcc></extensions></trkpt>
      <trkpt lon="-3.317864" lat="54.548333"><ele>328.941498</ele><time>2021-08-12T11:36:10Z</time><extensions><speed>1.589014</speed><course>77.162971</course><hAcc>0.886346</hAcc><vAcc>0.718836</vAcc></extensions></trkpt>
      <trkpt lon="-3.317870" lat="54.548319"><ele>328.830536</ele><time>2021-08-12T11:36:11Z</time><extensions><speed>1.582385</speed><course>69.604996</course><hAcc>0.885699</hAcc><vAcc>0.718157</vAcc></extensions></trkpt>
      <trkpt lon="-3.317876" lat="54.548305"><ele>328.708374</ele><time>2021-08-12T11:36:12Z</time><extensions><speed>1.573922</speed><course>76.115456</course><hAcc>0.885226</hAcc><vAcc>0.717564</vAcc></extensions></trkpt>
      <trkpt lon="-3.317882" lat="54.548292"><ele>328.576965</ele><time>2021-08-12T11:36:13Z</time><extensions><speed>1.563959</speed><course>83.646278</course><hAcc>0.884886</hAcc><vAcc>0.717038</vAcc></extensions></trkpt>
      <trkpt lon="-3.317889" lat="54.548278"><ele>328.437836</ele><time>2021-08-12T11:36:14Z</time><extensions><speed>1.552655</speed><course>76.408623</course><hAcc>0.884640</hAcc><vAcc>0.716562</vAcc></extensions></trkpt>
      <trkpt lon="-3.317896" lat="54.548265"><ele>328.292023</ele><time>2021-08-12T11:36:15Z</time><extensions><speed>1.539945</speed><course>79.439453</course><hAcc>0.884463</hAcc><vAcc>0.716120</vAcc></extensions></trkpt>
      <trkpt lon="-3.317903" lat="54.548252"><ele>328.140106</ele><time>2021-08-12T11:36:16Z</time><extensions><speed>1.525844</speed><course>75.300941</course><hAcc>0.884331</hAcc><vAcc>0.715704</vAcc></extensions></trkpt>
      <trkpt lon="-3.317909" lat="54.548239"><ele>327.982483</ele><time>2021-08-12T11:36:17Z</time><extensions><speed>1.510416</speed><course>76.126534</course><hAcc>0.884231</hAcc><vAcc>0.715315</vAcc></extensions></trkpt>
      <trkpt lon="-3.317916" lat="54.548226"><ele>327.819611</ele><time>2021-08-12T11:36:18Z</time><extensions><speed>1.494000</speed><course>75.233688</course><hAcc>0.884151</hAcc><vAcc>0.714966</vAcc></extensions></trkpt>
      <trkpt lon="-3.317923" lat="54.548213"><ele>327.653107</ele><time>2021-08-12T11:36:19Z</time><extensions><speed>1.477405</speed><course>81.891060</course><hAcc>0.884087</hAcc><vAcc>0.714676</vAcc></extensions></trkpt>
      <trkpt lon="-3.317929" lat="54.548200"><ele>327.485840</ele><time>2021-08-12T11:36:20Z</time><extensions><speed>1.460686</speed><course>78.263519</course><hAcc>0.884031</hAcc><vAcc>0.714457</vAcc></extensions></trkpt>
      <trkpt lon="-3.317935" lat="54.548188"><ele>327.321167</ele><time>2021-08-12T11:36:21Z</time><extensions><speed>1.443256</speed><course>74.907532</course><hAcc>0.883982</hAcc><vAcc>0.714310</vAcc></extensions></trkpt>
      <trkpt lon="-3.317940" lat="54.548175"><ele>327.162201</ele><time>2021-08-12T11:36:22Z</time><extensions><speed>1.425491</speed><course>84.941742</course><hAcc>0.883936</hAcc><vAcc>0.714227</vAcc></extensions></trkpt>
      <trkpt lon="-3.317944" lat="54.548163"><ele>327.011963</ele><time>2021-08-12T11:36:23Z</time><extensions><speed>1.408708</speed><course>73.584358</course><hAcc>0.883890</hAcc><vAcc>0.714185</vAcc></extensions></trkpt>
      <trkpt lon="-3.317947" lat="54.548150"><ele>326.872986</ele><time>2021-08-12T11:36:24Z</time><extensions><speed>1.394582</speed><course>96.346313</course><hAcc>0.883841</hAcc><vAcc>0.714147</vAcc></extensions></trkpt>
      <trkpt lon="-3.317948" lat="54.548138"><ele>326.746918</ele><time>2021-08-12T11:36:25Z</time><extensions><speed>1.384861</speed><course>87.208282</course><hAcc>0.883787</hAcc><vAcc>0.714072</vAcc></extensions></trkpt>
      <trkpt lon="-3.317948" lat="54.548125"><ele>326.634918</ele><time>2021-08-12T11:36:26Z</time><extensions><speed>1.381217</speed><course>71.034035</course><hAcc>0.883725</hAcc><vAcc>0.713926</vAcc></extensions></trkpt>
      <trkpt lon="-3.317947" lat="54.548113"><ele>326.538025</ele><time>2021-08-12T11:36:27Z</time><extensions><speed>1.384403</speed><course>74.315559</course><hAcc>0.883651</hAcc><vAcc>0.713691</vAcc></extensions></trkpt>
      <trkpt lon="-3.317944" lat="54.548101"><ele>326.456787</ele><time>2021-08-12T11:36:28Z</time><extensions><speed>1.393591</speed><course>82.074326</course><hAcc>0.883562</hAcc><vAcc>0.713366</vAcc></extensions></trkpt>
      <trkpt lon="-3.317939" lat="54.548088"><ele>326.390656</ele><time>2021-08-12T11:36:29Z</time><extensions><speed>1.406737</speed><course>78.798851</course><hAcc>0.883456</hAcc><vAcc>0.712961</vAcc></extensions></trkpt>
      <trkpt lon="-3.317934" lat="54.548076"><ele>326.337433</ele><time>2021-08-12T11:36:30Z</time><extensions><speed>1.420813</speed><course>71.049065</course><hAcc>0.883333</hAcc><vAcc>0.712490</vAcc></extensions></trkpt>
      <trkpt lon="-3.317927" lat="54.548064"><ele>326.293365</ele><time>2021-08-12T11:36:31Z</time><extensions><speed>1.432579</speed><course>66.417450</course><hAcc>0.883194</hAcc><vAcc>0.711959</vAcc></extensions></trkpt>
      <trkpt lon="-3.317920" lat="54.548052"><ele>326.253754</ele><time>2021-08-12T11:36:32Z</time><extensions><speed>1.439935</speed><course>67.881187</course><hAcc>0.883041</hAcc><vAcc>0.711370</vAcc></extensions></trkpt>
      <trkpt lon="-3.317912" lat="54.548040"><ele>326.213654</ele><time>2021-08-12T11:36:33Z</time><extensions><speed>1.441861</speed><course>73.946594</course><hAcc>0.882880</hAcc><vAcc>0.710729</vAcc></extensions></trkpt>
      <trkpt lon="-3.317903" lat="54.548028"><ele>326.168060</ele><time>2021-08-12T11:36:34Z</time><extensions><speed>1.438046</speed><course>66.868568</course><hAcc>0.882713</hAcc><vAcc>0.710051</vAcc></extensions></trkpt>
      <trkpt lon="-3.317894" lat="54.548016"><ele>326.112396</ele><time>2021-08-12T11:36:35Z</time><extensions><speed>1.428898</speed><course>57.370388</course><hAcc>0.882545</hAcc><vAcc>0.709363</vAcc></extensions></trkpt>
      <trkpt lon="-3.317886" lat="54.548004"><ele>326.043030</ele><time>2021-08-12T11:36:36Z</time><extensions><speed>1.414704</speed><course>72.859169</course><hAcc>0.882379</hAcc><vAcc>0.708697</vAcc></extensions></trkpt>
      <trkpt lon="-3.317877" lat="54.547993"><ele>325.957001</ele><time>2021-08-12T11:36:37Z</time><extensions><speed>1.395506</speed><course>73.476959</course><hAcc>0.882220</hAcc><vAcc>0.708081</vAcc></extensions></trkpt>
      <trkpt lon="-3.317868" lat="54.547981"><ele>325.851807</ele><time>2021-08-12T11:36:38Z</time><extensions><speed>1.371651</speed><course>70.985191</course><hAcc>0.882070</hAcc><vAcc>0.707528</vAcc></extensions></trkpt>
      <trkpt lon="-3.317859" lat="54.547970"><ele>325.725403</ele><time>2021-08-12T11:36:39Z</time><extensions><speed>1.343230</speed><course>67.094063</course><hAcc>0.881932</hAcc><vAcc>0.707034</vAcc></extensions></trkpt>
      <trkpt lon="-3.317851" lat="54.547959"><ele>325.576691</ele><time>2021-08-12T11:36:40Z</time><extensions><speed>1.310493</speed><course>63.802017</course><hAcc>0.881806</hAcc><vAcc>0.706591</vAcc></extensions></trkpt>
      <trkpt lon="-3.317843" lat="54.547949"><ele>325.405762</ele><time>2021-08-12T11:36:41Z</time><extensions><speed>1.274321</speed><course>59.738853</course><hAcc>0.881694</hAcc><vAcc>0.706195</vAcc></extensions></trkpt>
      <trkpt lon="-3.317836" lat="54.547938"><ele>325.214417</ele><time>2021-08-12T11:36:42Z</time><extensions><speed>1.235637</speed><course>64.752533</course><hAcc>0.881597</hAcc><vAcc>0.705840</vAcc></extensions></trkpt>
      <trkpt lon="-3.317830" lat="54.547928"><ele>325.005798</ele><time>2021-08-12T11:36:43Z</time><extensions><speed>1.194833</speed><course>62.678837</course><hAcc>0.881513</hAcc><vAcc>0.705524</vAcc></extensions></trkpt>
      <trkpt lon="-3.317825" lat="54.547918"><ele>324.783569</ele><time>2021-08-12T11:36:44Z</time><extensions><speed>1.151832</speed><course>67.622025</course><hAcc>0.881442</hAcc><vAcc>0.705248</vAcc></extensions></trkpt>
      <trkpt lon="-3.317820" lat="54.547908"><ele>324.550995</ele><time>2021-08-12T11:36:45Z</time><extensions><speed>1.106543</speed><course>76.998230</course><hAcc>0.881382</hAcc><vAcc>0.705018</vAcc></extensions></trkpt>
      <trkpt lon="-3.317817" lat="54.547898"><ele>324.310638</ele><time>2021-08-12T11:36:46Z</time><extensions><speed>1.058850</speed><course>71.279175</course><hAcc>0.881329</hAcc><vAcc>0.704837</vAcc></extensions></trkpt>
      <trkpt lon="-3.317814" lat="54.547889"><ele>324.065277</ele><time>2021-08-12T11:36:47Z</time><extensions><speed>1.008188</speed><course>66.215858</course><hAcc>0.881281</hAcc><vAcc>0.704704</vAcc></extensions></trkpt>
      <trkpt lon="-3.317812" lat="54.547881"><ele>323.818634</ele><time>2021-08-12T11:36:48Z</time><extensions><speed>0.954007</speed><course>65.869171</course><hAcc>0.881233</hAcc><vAcc>0.704606</vAcc></extensions></trkpt>
      <trkpt lon="-3.317811" lat="54.547872"><ele>323.575470</ele><time>2021-08-12T11:36:49Z</time><extensions><speed>0.895955</speed><course>67.480362</course><hAcc>0.881179</hAcc><vAcc>0.704517</vAcc></extensions></trkpt>
      <trkpt lon="-3.317810" lat="54.547865"><ele>323.340332</ele><time>2021-08-12T11:36:50Z</time><extensions><speed>0.833947</speed><course>62.467888</course><hAcc>0.881113</hAcc><vAcc>0.704402</vAcc></extensions></trkpt>
      <trkpt lon="-3.317809" lat="54.547857"><ele>323.116730</ele><time>2021-08-12T11:36:51Z</time><extensions><speed>0.768201</speed><course>57.403885</course><hAcc>0.881030</hAcc><vAcc>0.704219</vAcc></extensions></trkpt>
      <trkpt lon="-3.317810" lat="54.547851"><ele>322.906891</ele><time>2021-08-12T11:36:52Z</time><extensions><speed>0.699381</speed><course>56.104736</course><hAcc>0.880927</hAcc><vAcc>0.703934</vAcc></extensions></trkpt>
      <trkpt lon="-3.317810" lat="54.547845"><ele>322.712250</ele><time>2021-08-12T11:36:53Z</time><extensions><speed>0.629259</speed><course>57.135769</course><hAcc>0.880800</hAcc><vAcc>0.703522</vAcc></extensions></trkpt>
      <trkpt lon="-3.317810" lat="54.547839"><ele>322.533539</ele><time>2021-08-12T11:36:54Z</time><extensions><speed>0.560596</speed><course>59.466648</course><hAcc>0.880651</hAcc><vAcc>0.702973</vAcc></extensions></trkpt>
      <trkpt lon="-3.317811" lat="54.547835"><ele>322.370819</ele><time>2021-08-12T11:36:55Z</time><extensions><speed>0.496907</speed><course>56.466339</course><hAcc>0.880480</hAcc><vAcc>0.702294</vAcc></extensions></trkpt>
      <trkpt lon="-3.317812" lat="54.547831"><ele>322.223328</ele><time>2021-08-12T11:36:56Z</time><extensions><speed>0.441419</speed><course>61.082169</course><hAcc>0.880294</hAcc><vAcc>0.701511</vAcc></extensions></trkpt>
      <trkpt lon="-3.317812" lat="54.547827"><ele>322.090027</ele><time>2021-08-12T11:36:57Z</time><extensions><speed>0.397137</speed><course>63.000797</course><hAcc>0.880101</hAcc><vAcc>0.700665</vAcc></extensions></trkpt>
      <trkpt lon="-3.317813" lat="54.547823"><ele>321.969269</ele><time>2021-08-12T11:36:58Z</time><extensions><speed>0.366667</speed><course>58.373146</course><hAcc>0.879909</hAcc><vAcc>0.699811</vAcc></extensions></trkpt>
      <trkpt lon="-3.317813" lat="54.547820"><ele>321.858856</ele><time>2021-08-12T11:36:59Z</time><extensions><speed>0.351976</speed><course>59.591164</course><hAcc>0.879729</hAcc><vAcc>0.699007</vAcc></extensions></trkpt>
      <trkpt lon="-3.317812" lat="54.547817"><ele>321.755981</ele><time>2021-08-12T11:37:00Z</time><extensions><speed>0.354705</speed><course>56.078835</course><hAcc>0.879571</hAcc><vAcc>0.698307</vAcc></extensions></trkpt>
      <trkpt lon="-3.317811" lat="54.547814"><ele>321.657928</ele><time>2021-08-12T11:37:01Z</time><extensions><speed>0.375402</speed><course>61.452141</course><hAcc>0.879444</hAcc><vAcc>0.697757</vAcc></extensions></trkpt>
      <trkpt lon="-3.317810" lat="54.547810"><ele>321.562164</ele><time>2021-08-12T11:37:02Z</time><extensions><speed>0.413176</speed><course>62.349373</course><hAcc>0.879356</hAcc><vAcc>0.697388</vAcc></extensions></trkpt>
      <trkpt lon="-3.317808" lat="54.547806"><ele>321.466431</ele><time>2021-08-12T11:37:03Z</time><extensions><speed>0.465962</speed><course>67.502327</course><hAcc>0.879310</hAcc><vAcc>0.697218</vAcc></extensions></trkpt>
      <trkpt lon="-3.317805" lat="54.547802"><ele>321.368958</ele><time>2021-08-12T11:37:04Z</time><extensions><speed>0.530607</speed><course>65.148994</course><hAcc>0.879308</hAcc><vAcc>0.697248</vAcc></extensions></trkpt>
      <trkpt lon="-3.317802" lat="54.547798"><ele>321.268524</ele><time>2021-08-12T11:37:05Z</time><extensions><speed>0.602955</speed><course>61.604351</course><hAcc>0.879349</hAcc><vAcc>0.697465</vAcc></extensions></trkpt>
      <trkpt lon="-3.317798" lat="54.547792"><ele>321.164734</ele><time>2021-08-12T11:37:06Z</time><extensions><speed>0.678759</speed><course>67.356651</course><hAcc>0.879428</hAcc><vAcc>0.697842</vAcc></extensions></trkpt>
      <trkpt lon="-3.317793" lat="54.547787"><ele>321.058167</ele><time>2021-08-12T11:37:07Z</time><extensions><speed>0.754761</speed><course>56.187717</course><hAcc>0.879539</hAcc><vAcc>0.698343</vAcc></extensions></trkpt>
      <trkpt lon="-3.317788" lat="54.547780"><ele>320.949524</ele><time>2021-08-12T11:37:08Z</time><extensions><speed>0.828200</speed><course>56.273357</course><hAcc>0.879676</hAcc><vAcc>0.698928</vAcc></extensions></trkpt>
      <trkpt lon="-3.317781" lat="54.547773"><ele>320.839142</ele><time>2021-08-12T11:37:09Z</time><extensions><speed>0.896063</speed><course>59.042984</course><hAcc>0.879831</hAcc><vAcc>0.699564</vAcc></extensions></trkpt>
      <trkpt lon="-3.317775" lat="54.547766"><ele>320.726868</ele><time>2021-08-12T11:37:10Z</time><extensions><speed>0.955801</speed><course>46.754299</course><hAcc>0.879995</hAcc><vAcc>0.700224</vAcc></extensions></trkpt>
      <trkpt lon="-3.317768" lat="54.547758"><ele>320.612122</ele><time>2021-08-12T11:37:11Z</time><extensions><speed>1.005527</speed><course>46.754295</course><hAcc>0.880161</hAcc><vAcc>0.700881</vAcc></extensions></trkpt>
      <trkpt lon="-3.317760" lat="54.547750"><ele>320.493683</ele><time>2021-08-12T11:37:12Z</time><extensions><speed>1.043872</speed><course>46.754295</course><hAcc>0.880324</hAcc><vAcc>0.701509</vAcc></extensions></trkpt>
      <trkpt lon="-3.317753" lat="54.547742"><ele>320.369965</ele><time>2021-08-12T11:37:13Z</time><extensions><speed>1.070618</speed><course>46.754295</course><hAcc>0.880476</hAcc><vAcc>0.702088</vAcc></extensions></trkpt>
      <trkpt lon="-3.317745" lat="54.547733"><ele>320.239685</ele><time>2021-08-12T11:37:14Z</time><extensions><speed>1.086681</speed><course>46.754295</course><hAcc>0.880613</hAcc><vAcc>0.702605</vAcc></extensions></trkpt>
      <trkpt lon="-3.317737" lat="54.547724"><ele>320.102051</ele><time>2021-08-12T11:37:15Z</time><extensions><speed>1.094110</speed><course>46.754295</course><hAcc>0.880731</hAcc><vAcc>0.703055</vAcc></extensions></trkpt>
      <trkpt lon="-3.317730" lat="54.547716"><ele>319.956635</ele><time>2021-08-12T11:37:16Z</time><extensions><speed>1.095500</speed><course>46.754295</course><hAcc>0.880828</hAcc><vAcc>0.703433</vAcc></extensions></trkpt>
      <trkpt lon="-3.317722" lat="54.547707"><ele>319.803131</ele><time>2021-08-12T11:37:17Z</time><extensions><speed>1.092639</speed><course>46.754292</course><hAcc>0.880901</hAcc><vAcc>0.703730</vAcc></extensions></trkpt>
      <trkpt lon="-3.317715" lat="54.547698"><ele>319.641846</ele><time>2021-08-12T11:37:18Z</time><extensions><speed>1.087119</speed><course>46.754295</course><hAcc>0.880950</hAcc><vAcc>0.703931</vAcc></extensions></trkpt>
      <trkpt lon="-3.317708" lat="54.547689"><ele>319.473816</ele><time>2021-08-12T11:37:19Z</time><extensions><speed>1.081178</speed><course>86.257805</course><hAcc>0.880975</hAcc><vAcc>0.704024</vAcc></extensions></trkpt>
      <trkpt lon="-3.317701" lat="54.547680"><ele>319.300323</ele><time>2021-08-12T11:37:20Z</time><extensions><speed>1.076308</speed><course>92.864906</course><hAcc>0.880979</hAcc><vAcc>0.704005</vAcc></extensions></trkpt>
      <trkpt lon="-3.317694" lat="54.547671"><ele>319.122803</ele><time>2021-08-12T11:37:21Z</time><extensions><speed>1.072656</speed><course>94.458534</course><hAcc>0.880965</hAcc><vAcc>0.703886</vAcc></extensions></trkpt>
      <trkpt lon="-3.317688" lat="54.547663"><ele>318.942749</ele><time>2021-08-12T11:37:22Z</time><extensions><speed>1.069974</speed><course>89.165138</course><hAcc>0.880935</hAcc><vAcc>0.703689</vAcc></extensions></trkpt>
      <trkpt lon="-3.317681" lat="54.547654"><ele>318.761780</ele><time>2021-08-12T11:37:23Z</time><extensions><speed>1.068066</speed><course>98.187202</course><hAcc>0.880895</hAcc><vAcc>0.703445</vAcc></extensions></trkpt>
      <trkpt lon="-3.317674" lat="54.547645"><ele>318.581390</ele><time>2021-08-12T11:37:24Z</time><extensions><speed>1.066848</speed><course>262.094696</course><hAcc>0.880849</hAcc><vAcc>0.703189</vAcc></extensions></trkpt>
      <trkpt lon="-3.317668" lat="54.547636"><ele>318.402588</ele><time>2021-08-12T11:37:25Z</time><extensions><speed>1.066354</speed><course>273.339569</course><hAcc>0.880799</hAcc><vAcc>0.702954</vAcc></extensions></trkpt>
      <trkpt lon="-3.317661" lat="54.547628"><ele>318.225922</ele><time>2021-08-12T11:37:26Z</time><extensions><speed>1.066681</speed><course>270.133057</course><hAcc>0.880750</hAcc><vAcc>0.702760</vAcc></extensions></trkpt>
      <trkpt lon="-3.317654" lat="54.547619"><ele>318.051361</ele><time>2021-08-12T11:37:27Z</time><extensions><speed>1.067817</speed><course>264.401459</course><hAcc>0.880703</hAcc><vAcc>0.702611</vAcc></extensions></trkpt>
      <trkpt lon="-3.317646" lat="54.547610"><ele>317.878296</ele><time>2021-08-12T11:37:28Z</time><extensions><speed>1.070579</speed><course>271.206299</course><hAcc>0.880657</hAcc><vAcc>0.702497</vAcc></extensions></trkpt>
      <trkpt lon="-3.317639" lat="54.547602"><ele>317.705597</ele><time>2021-08-12T11:37:29Z</time><extensions><speed>1.076400</speed><course>270.479279</course><hAcc>0.880612</hAcc><vAcc>0.702401</vAcc></extensions></trkpt>
      <trkpt lon="-3.317632" lat="54.547593"><ele>317.532013</ele><time>2021-08-12T11:37:30Z</time><extensions><speed>1.086076</speed><course>270.479279</course><hAcc>0.880566</hAcc><vAcc>0.702303</vAcc></extensions></trkpt>
      <trkpt lon="-3.317624" lat="54.547584"><ele>317.356384</ele><time>2021-08-12T11:37:31Z</time><extensions><speed>1.099492</speed><course>270.479279</course><hAcc>0.880518</hAcc><vAcc>0.702180</vAcc></extensions></trkpt>
      <trkpt lon="-3.317616" lat="54.547575"><ele>317.177856</ele><time>2021-08-12T11:37:32Z</time><extensions><speed>1.116210</speed><course>92.836548</course><hAcc>0.880466</hAcc><vAcc>0.702016</vAcc></extensions></trkpt>
      <trkpt lon="-3.317607" lat="54.547567"><ele>316.996277</ele><time>2021-08-12T11:37:33Z</time><extensions><speed>1.136591</speed><course>91.847809</course><hAcc>0.880410</hAcc><vAcc>0.701803</vAcc></extensions></trkpt>
      <trkpt lon="-3.317598" lat="54.547558"><ele>316.812408</ele><time>2021-08-12T11:37:34Z</time><extensions><speed>1.161287</speed><course>96.972961</course><hAcc>0.880351</hAcc><vAcc>0.701547</vAcc></extensions></trkpt>
      <trkpt lon="-3.317589" lat="54.547549"><ele>316.628082</ele><time>2021-08-12T11:37:35Z</time><extensions><speed>1.190627</speed><course>101.432434</course><hAcc>0.880290</hAcc><vAcc>0.701265</vAcc></extensions></trkpt>
      <trkpt lon="-3.317579" lat="54.547539"><ele>316.445404</ele><time>2021-08-12T11:37:36Z</time><extensions><speed>1.224401</speed><course>89.921867</course><hAcc>0.880230</hAcc><vAcc>0.700982</vAcc></extensions></trkpt>
      <trkpt lon="-3.317568" lat="54.547530"><ele>316.265991</ele><time>2021-08-12T11:37:37Z</time><extensions><speed>1.260863</speed><course>79.468422</course><hAcc>0.880173</hAcc><vAcc>0.700725</vAcc></extensions></trkpt>
      <trkpt lon="-3.317557" lat="54.547521"><ele>316.091461</ele><time>2021-08-12T11:37:38Z</time><extensions><speed>1.298180</speed><course>79.668663</course><hAcc>0.880123</hAcc><vAcc>0.700509</vAcc></extensions></trkpt>
      <trkpt lon="-3.317546" lat="54.547511"><ele>315.923767</ele><time>2021-08-12T11:37:39Z</time><extensions><speed>1.335770</speed><course>70.198914</course><hAcc>0.880081</hAcc><vAcc>0.700341</vAcc></extensions></trkpt>
      <trkpt lon="-3.317533" lat="54.547501"><ele>315.764587</ele><time>2021-08-12T11:37:40Z</time><extensions><speed>1.372305</speed><course>85.811096</course><hAcc>0.880050</hAcc><vAcc>0.700220</vAcc></extensions></trkpt>
      <trkpt lon="-3.317521" lat="54.547491"><ele>315.614014</ele><time>2021-08-12T11:37:41Z</time><extensions><speed>1.406161</speed><course>87.515213</course><hAcc>0.880031</hAcc><vAcc>0.700144</vAcc></extensions></trkpt>
      <trkpt lon="-3.317508" lat="54.547481"><ele>315.470581</ele><time>2021-08-12T11:37:42Z</time><extensions><speed>1.436451</speed><course>86.802406</course><hAcc>0.880025</hAcc><vAcc>0.700113</vAcc></extensions></trkpt>
      <trkpt lon="-3.317495" lat="54.547470"><ele>315.332092</ele><time>2021-08-12T11:37:43Z</time><extensions><speed>1.461955</speed><course>85.424927</course><hAcc>0.880031</hAcc><vAcc>0.700132</vAcc></extensions></trkpt>
      <trkpt lon="-3.317482" lat="54.547459"><ele>315.196228</ele><time>2021-08-12T11:37:44Z</time><extensions><speed>1.482045</speed><course>88.911957</course><hAcc>0.880050</hAcc><vAcc>0.700204</vAcc></extensions></trkpt>
      <trkpt lon="-3.317468" lat="54.547448"><ele>315.060760</ele><time>2021-08-12T11:37:45Z</time><extensions><speed>1.496922</speed><course>93.027184</course><hAcc>0.880079</hAcc><vAcc>0.700331</vAcc></extensions></trkpt>
      <trkpt lon="-3.317455" lat="54.547437"><ele>314.923706</ele><time>2021-08-12T11:37:46Z</time><extensions><speed>1.507072</speed><course>90.763535</course><hAcc>0.880116</hAcc><vAcc>0.700510</vAcc></extensions></trkpt>
      <trkpt lon="-3.317441" lat="54.547426"><ele>314.782928</ele><time>2021-08-12T11:37:47Z</time><extensions><speed>1.513129</speed><course>83.392509</course><hAcc>0.880159</hAcc><vAcc>0.700728</vAcc></extensions></trkpt>
      <trkpt lon="-3.317428" lat="54.547415"><ele>314.636169</ele><time>2021-08-12T11:37:48Z</time><extensions><speed>1.515186</speed><course>57.334152</course><hAcc>0.880204</hAcc><vAcc>0.700967</vAcc></extensions></trkpt>
      <trkpt lon="-3.317415" lat="54.547404"><ele>314.481537</ele><time>2021-08-12T11:37:49Z</time><extensions><speed>1.513276</speed><course>29.254333</course><hAcc>0.880251</hAcc><vAcc>0.701203</vAcc></extensions></trkpt>
      <trkpt lon="-3.317403" lat="54.547392"><ele>314.317322</ele><time>2021-08-12T11:37:50Z</time><extensions><speed>1.508170</speed><course>29.254333</course><hAcc>0.880296</hAcc><vAcc>0.701413</vAcc></extensions></trkpt>
      <trkpt lon="-3.317390" lat="54.547381"><ele>314.141998</ele><time>2021-08-12T11:37:51Z</time><extensions><speed>1.500999</speed><course>29.254333</course><hAcc>0.880340</hAcc><vAcc>0.701581</vAcc></extensions></trkpt>
      <trkpt lon="-3.317378" lat="54.547370"><ele>313.954834</ele><time>2021-08-12T11:37:52Z</time><extensions><speed>1.492766</speed><course>29.254332</course><hAcc>0.880384</hAcc><vAcc>0.701704</vAcc></extensions></trkpt>
      <trkpt lon="-3.317366" lat="54.547358"><ele>313.756226</ele><time>2021-08-12T11:37:53Z</time><extensions><speed>1.484609</speed><course>29.254333</course><hAcc>0.880433</hAcc><vAcc>0.701797</vAcc></extensions></trkpt>
      <trkpt lon="-3.317354" lat="54.547347"><ele>313.547882</ele><time>2021-08-12T11:37:54Z</time><extensions><speed>1.477928</speed><course>29.254332</course><hAcc>0.880491</hAcc><vAcc>0.701888</vAcc></extensions></trkpt>
      <trkpt lon="-3.317342" lat="54.547336"><ele>313.332581</ele><time>2021-08-12T11:37:55Z</time><extensions><speed>1.473960</speed><course>29.254332</course><hAcc>0.880565</hAcc><vAcc>0.702020</vAcc></extensions></trkpt>
      <trkpt lon="-3.317329" lat="54.547325"><ele>313.113281</ele><time>2021-08-12T11:37:56Z</time><extensions><speed>1.473217</speed><course>29.254333</course><hAcc>0.880659</hAcc><vAcc>0.702242</vAcc></extensions></trkpt>
      <trkpt lon="-3.317317" lat="54.547314"><ele>312.892609</ele><time>2021-08-12T11:37:57Z</time><extensions><speed>1.474946</speed><course>29.254333</course><hAcc>0.880781</hAcc><vAcc>0.702604</vAcc></extensions></trkpt>
      <trkpt lon="-3.317304" lat="54.547303"><ele>312.672699</ele><time>2021-08-12T11:37:58Z</time><extensions><speed>1.476819</speed><course>29.254332</course><hAcc>0.880931</hAcc><vAcc>0.703139</vAcc></extensions></trkpt>
      <trkpt lon="-3.317290" lat="54.547292"><ele>312.454895</ele><time>2021-08-12T11:37:59Z</time><extensions><speed>1.476560</speed><course>29.254333</course><hAcc>0.881112</hAcc><vAcc>0.703849</vAcc></extensions></trkpt>
      <trkpt lon="-3.317276" lat="54.547281"><ele>312.239929</ele><time>2021-08-12T11:38:00Z</time><extensions><speed>1.473028</speed><course>29.254337</course><hAcc>0.881319</hAcc><vAcc>0.704709</vAcc></extensions></trkpt>
      <trkpt lon="-3.317262" lat="54.547271"><ele>312.029144</ele><time>2021-08-12T11:38:01Z</time><extensions><speed>1.465680</speed><course>29.254337</course><hAcc>0.881548</hAcc><vAcc>0.705677</vAcc></extensions></trkpt>
      <trkpt lon="-3.317247" lat="54.547261"><ele>311.824615</ele><time>2021-08-12T11:38:02Z</time><extensions><speed>1.454634</speed><course>29.254339</course><hAcc>0.881789</hAcc><vAcc>0.706707</vAcc></extensions></trkpt>
      <trkpt lon="-3.317233" lat="54.547251"><ele>311.628510</ele><time>2021-08-12T11:38:03Z</time><extensions><speed>1.440432</speed><course>29.254337</course><hAcc>0.882035</hAcc><vAcc>0.707746</vAcc></extensions></trkpt>
      <trkpt lon="-3.317218" lat="54.547242"><ele>311.441833</ele><time>2021-08-12T11:38:04Z</time><extensions><speed>1.423503</speed><course>29.254339</course><hAcc>0.882276</hAcc><vAcc>0.708745</vAcc></extensions></trkpt>
      <trkpt lon="-3.317204" lat="54.547232"><ele>311.264282</ele><time>2021-08-12T11:38:05Z</time><extensions><speed>1.404279</speed><course>353.139893</course><hAcc>0.882501</hAcc><vAcc>0.709658</vAcc></extensions></trkpt>
      <trkpt lon="-3.317190" lat="54.547223"><ele>311.094513</ele><time>2021-08-12T11:38:06Z</time><extensions><speed>1.383787</speed><course>-1.000000</course><hAcc>0.882703</hAcc><vAcc>0.710450</vAcc></extensions></trkpt>
      <trkpt lon="-3.317175" lat="54.547213"><ele>310.931152</ele><time>2021-08-12T11:38:07Z</time><extensions><speed>1.363423</speed><course>-1.000000</course><hAcc>0.882873</hAcc><vAcc>0.711098</vAcc></extensions></trkpt>
      <trkpt lon="-3.317161" lat="54.547204"><ele>310.773224</ele><time>2021-08-12T11:38:08Z</time><extensions><speed>1.344324</speed><course>-1.000000</course><hAcc>0.883003</hAcc><vAcc>0.711587</vAcc></extensions></trkpt>
      <trkpt lon="-3.317148" lat="54.547195"><ele>310.620453</ele><time>2021-08-12T11:38:09Z</time><extensions><speed>1.326944</speed><course>-1.000000</course><hAcc>0.883090</hAcc><vAcc>0.711910</vAcc></extensions></trkpt>
      <trkpt lon="-3.317134" lat="54.547187"><ele>310.473053</ele><time>2021-08-12T11:38:10Z</time><extensions><speed>1.310750</speed><course>-1.000000</course><hAcc>0.883130</hAcc><vAcc>0.712064</vAcc></extensions></trkpt>
      <trkpt lon="-3.317121" lat="54.547178"><ele>310.331360</ele><time>2021-08-12T11:38:11Z</time><extensions><speed>1.294888</speed><course>-1.000000</course><hAcc>0.883120</hAcc><vAcc>0.712046</vAcc></extensions></trkpt>
      <trkpt lon="-3.317108" lat="54.547169"><ele>310.195404</ele><time>2021-08-12T11:38:12Z</time><extensions><speed>1.278541</speed><course>-1.000000</course><hAcc>0.883060</hAcc><vAcc>0.711850</vAcc></extensions></trkpt>
      <trkpt lon="-3.317096" lat="54.547160"><ele>310.065063</ele><time>2021-08-12T11:38:13Z</time><extensions><speed>1.262101</speed><course>-1.000000</course><hAcc>0.882955</hAcc><vAcc>0.711468</vAcc></extensions></trkpt>
      <trkpt lon="-3.317084" lat="54.547151"><ele>309.940277</ele><time>2021-08-12T11:38:14Z</time><extensions><speed>1.247239</speed><course>-1.000000</course><hAcc>0.882806</hAcc><vAcc>0.710899</vAcc></extensions></trkpt>
      <trkpt lon="-3.317072" lat="54.547142"><ele>309.821198</ele><time>2021-08-12T11:38:15Z</time><extensions><speed>1.235565</speed><course>-1.000000</course><hAcc>0.882619</hAcc><vAcc>0.710154</vAcc></extensions></trkpt>
      <trkpt lon="-3.317062" lat="54.547133"><ele>309.708191</ele><time>2021-08-12T11:38:16Z</time><extensions><speed>1.228684</speed><course>-1.000000</course><hAcc>0.882399</hAcc><vAcc>0.709258</vAcc></extensions></trkpt>
      <trkpt lon="-3.317051" lat="54.547124"><ele>309.601776</ele><time>2021-08-12T11:38:17Z</time><extensions><speed>1.226572</speed><course>74.830536</course><hAcc>0.882154</hAcc><vAcc>0.708250</vAcc></extensions></trkpt>
      <trkpt lon="-3.317041" lat="54.547114"><ele>309.502502</ele><time>2021-08-12T11:38:18Z</time><extensions><speed>1.227833</speed><course>62.161198</course><hAcc>0.881890</hAcc><vAcc>0.707171</vAcc></extensions></trkpt>
      <trkpt lon="-3.317032" lat="54.547105"><ele>309.410950</ele><time>2021-08-12T11:38:19Z</time><extensions><speed>1.231519</speed><course>66.043793</course><hAcc>0.881614</hAcc><vAcc>0.706062</vAcc></extensions></trkpt>
      <trkpt lon="-3.317023" lat="54.547095"><ele>309.327484</ele><time>2021-08-12T11:38:20Z</time><extensions><speed>1.236299</speed><course>75.803009</course><hAcc>0.881334</hAcc><vAcc>0.704958</vAcc></extensions></trkpt>
      <trkpt lon="-3.317014" lat="54.547085"><ele>309.252045</ele><time>2021-08-12T11:38:21Z</time><extensions><speed>1.240374</speed><course>76.191063</course><hAcc>0.881057</hAcc><vAcc>0.703885</vAcc></extensions></trkpt>
      <trkpt lon="-3.317005" lat="54.547075"><ele>309.184326</ele><time>2021-08-12T11:38:22Z</time><extensions><speed>1.242452</speed><course>76.349960</course><hAcc>0.880789</hAcc><vAcc>0.702868</vAcc></extensions></trkpt>
      <trkpt lon="-3.316997" lat="54.547065"><ele>309.124207</ele><time>2021-08-12T11:38:23Z</time><extensions><speed>1.242055</speed><course>78.477806</course><hAcc>0.880534</hAcc><vAcc>0.701919</vAcc></extensions></trkpt>
      <trkpt lon="-3.316989" lat="54.547055"><ele>309.071777</ele><time>2021-08-12T11:38:24Z</time><extensions><speed>1.239098</speed><course>75.070290</course><hAcc>0.880297</hAcc><vAcc>0.701049</vAcc></extensions></trkpt>
      <trkpt lon="-3.316982" lat="54.547045"><ele>309.027344</ele><time>2021-08-12T11:38:25Z</time><extensions><speed>1.233402</speed><course>69.086029</course><hAcc>0.880080</hAcc><vAcc>0.700262</vAcc></extensions></trkpt>
      <trkpt lon="-3.316976" lat="54.547034"><ele>308.990906</ele><time>2021-08-12T11:38:26Z</time><extensions><speed>1.224933</speed><course>68.949226</course><hAcc>0.879885</hAcc><vAcc>0.699560</vAcc></extensions></trkpt>
      <trkpt lon="-3.316970" lat="54.547024"><ele>308.962097</ele><time>2021-08-12T11:38:27Z</time><extensions><speed>1.214385</speed><course>71.686111</course><hAcc>0.879711</hAcc><vAcc>0.698944</vAcc></extensions></trkpt>
      <trkpt lon="-3.316965" lat="54.547013"><ele>308.940521</ele><time>2021-08-12T11:38:28Z</time><extensions><speed>1.203135</speed><course>76.597496</course><hAcc>0.879558</hAcc><vAcc>0.698412</vAcc></extensions></trkpt>
      <trkpt lon="-3.316961" lat="54.547003"><ele>308.925842</ele><time>2021-08-12T11:38:29Z</time><extensions><speed>1.192149</speed><course>90.005066</course><hAcc>0.879426</hAcc><vAcc>0.697959</vAcc></extensions></trkpt>
      <trkpt lon="-3.316957" lat="54.546993"><ele>308.917297</ele><time>2021-08-12T11:38:30Z</time><extensions><speed>1.181681</speed><course>83.948074</course><hAcc>0.879312</hAcc><vAcc>0.697574</vAcc></extensions></trkpt>
      <trkpt lon="-3.316953" lat="54.546982"><ele>308.913757</ele><time>2021-08-12T11:38:31Z</time><extensions><speed>1.172143</speed><course>76.996796</course><hAcc>0.879216</hAcc><vAcc>0.697246</vAcc></extensions></trkpt>
      <trkpt lon="-3.316950" lat="54.546972"><ele>308.914032</ele><time>2021-08-12T11:38:32Z</time><extensions><speed>1.164389</speed><course>79.507355</course><hAcc>0.879137</hAcc><vAcc>0.696969</vAcc></extensions></trkpt>
      <trkpt lon="-3.316947" lat="54.546962"><ele>308.917297</ele><time>2021-08-12T11:38:33Z</time><extensions><speed>1.159190</speed><course>72.096832</course><hAcc>0.879074</hAcc><vAcc>0.696740</vAcc></extensions></trkpt>
      <trkpt lon="-3.316945" lat="54.546951"><ele>308.922607</ele><time>2021-08-12T11:38:34Z</time><extensions><speed>1.156976</speed><course>80.368279</course><hAcc>0.879025</hAcc><vAcc>0.696558</vAcc></extensions></trkpt>
      <trkpt lon="-3.316943" lat="54.546941"><ele>308.928741</ele><time>2021-08-12T11:38:35Z</time><extensions><speed>1.157832</speed><course>78.982643</course><hAcc>0.878993</hAcc><vAcc>0.696425</vAcc></extensions></trkpt>
      <trkpt lon="-3.316940" lat="54.546931"><ele>308.934387</ele><time>2021-08-12T11:38:36Z</time><extensions><speed>1.161247</speed><course>81.075706</course><hAcc>0.878977</hAcc><vAcc>0.696345</vAcc></extensions></trkpt>
      <trkpt lon="-3.316938" lat="54.546920"><ele>308.938873</ele><time>2021-08-12T11:38:37Z</time><extensions><speed>1.166557</speed><course>81.007790</course><hAcc>0.878978</hAcc><vAcc>0.696325</vAcc></extensions></trkpt>
      <trkpt lon="-3.316936" lat="54.546910"><ele>308.942291</ele><time>2021-08-12T11:38:38Z</time><extensions><speed>1.173332</speed><course>78.272133</course><hAcc>0.878996</hAcc><vAcc>0.696371</vAcc></extensions></trkpt>
      <trkpt lon="-3.316933" lat="54.546899"><ele>308.945435</ele><time>2021-08-12T11:38:39Z</time><extensions><speed>1.181453</speed><course>73.069588</course><hAcc>0.879033</hAcc><vAcc>0.696492</vAcc></extensions></trkpt>
      <trkpt lon="-3.316931" lat="54.546889"><ele>308.949585</ele><time>2021-08-12T11:38:40Z</time><extensions><speed>1.191313</speed><course>77.189682</course><hAcc>0.879087</hAcc><vAcc>0.696691</vAcc></extensions></trkpt>
      <trkpt lon="-3.316928" lat="54.546878"><ele>308.956146</ele><time>2021-08-12T11:38:41Z</time><extensions><speed>1.202101</speed><course>75.197517</course><hAcc>0.879159</hAcc><vAcc>0.696965</vAcc></extensions></trkpt>
      <trkpt lon="-3.316924" lat="54.546868"><ele>308.966034</ele><time>2021-08-12T11:38:42Z</time><extensions><speed>1.211851</speed><course>67.733307</course><hAcc>0.879246</hAcc><vAcc>0.697308</vAcc></extensions></trkpt>
      <trkpt lon="-3.316921" lat="54.546857"><ele>308.979218</ele><time>2021-08-12T11:38:43Z</time><extensions><speed>1.219107</speed><course>69.123688</course><hAcc>0.879346</hAcc><vAcc>0.697712</vAcc></extensions></trkpt>
      <trkpt lon="-3.316917" lat="54.546846"><ele>308.994385</ele><time>2021-08-12T11:38:44Z</time><extensions><speed>1.222684</speed><course>71.299400</course><hAcc>0.879455</hAcc><vAcc>0.698164</vAcc></extensions></trkpt>
      <trkpt lon="-3.316913" lat="54.546835"><ele>309.009155</ele><time>2021-08-12T11:38:45Z</time><extensions><speed>1.221439</speed><course>77.479210</course><hAcc>0.879570</hAcc><vAcc>0.698649</vAcc></extensions></trkpt>
      <trkpt lon="-3.316909" lat="54.546825"><ele>309.020813</ele><time>2021-08-12T11:38:46Z</time><extensions><speed>1.214890</speed><course>68.623329</course><hAcc>0.879686</hAcc><vAcc>0.699143</vAcc></extensions></trkpt>
      <trkpt lon="-3.316905" lat="54.546814"><ele>309.026550</ele><time>2021-08-12T11:38:47Z</time><extensions><speed>1.203063</speed><course>63.866425</course><hAcc>0.879802</hAcc><vAcc>0.699613</vAcc></extensions></trkpt>
      <trkpt lon="-3.316901" lat="54.546804"><ele>309.023224</ele><time>2021-08-12T11:38:48Z</time><extensions><speed>1.186387</speed><course>76.291603</course><hAcc>0.879912</hAcc><vAcc>0.700036</vAcc></extensions></trkpt>
      <trkpt lon="-3.316897" lat="54.546793"><ele>309.007385</ele><time>2021-08-12T11:38:49Z</time><extensions><speed>1.165658</speed><course>71.777351</course><hAcc>0.880015</hAcc><vAcc>0.700397</vAcc></extensions></trkpt>
      <trkpt lon="-3.316893" lat="54.546783"><ele>308.975433</ele><time>2021-08-12T11:38:50Z</time><extensions><speed>1.141480</speed><course>76.476341</course><hAcc>0.880112</hAcc><vAcc>0.700701</vAcc></extensions></trkpt>
      <trkpt lon="-3.316889" lat="54.546773"><ele>308.924072</ele><time>2021-08-12T11:38:51Z</time><extensions><speed>1.114879</speed><course>63.346680</course><hAcc>0.880201</hAcc><vAcc>0.700969</vAcc></extensions></trkpt>
      <trkpt lon="-3.316885" lat="54.546764"><ele>308.850769</ele><time>2021-08-12T11:38:52Z</time><extensions><speed>1.087113</speed><course>60.883244</course><hAcc>0.880285</hAcc><vAcc>0.701225</vAcc></extensions></trkpt>
      <trkpt lon="-3.316881" lat="54.546754"><ele>308.753906</ele><time>2021-08-12T11:38:53Z</time><extensions><speed>1.058957</speed><course>66.100471</course><hAcc>0.880366</hAcc><vAcc>0.701490</vAcc></extensions></trkpt>
      <trkpt lon="-3.316877" lat="54.546745"><ele>308.632629</ele><time>2021-08-12T11:38:54Z</time><extensions><speed>1.030284</speed><course>66.284729</course><hAcc>0.880445</hAcc><vAcc>0.701773</vAcc></extensions></trkpt>
      <trkpt lon="-3.316873" lat="54.546736"><ele>308.486786</ele><time>2021-08-12T11:38:55Z</time><extensions><speed>1.000441</speed><course>70.183884</course><hAcc>0.880527</hAcc><vAcc>0.702074</vAcc></extensions></trkpt>
      <trkpt lon="-3.316869" lat="54.546728"><ele>308.317078</ele><time>2021-08-12T11:38:56Z</time><extensions><speed>0.969243</speed><course>69.091454</course><hAcc>0.880613</hAcc><vAcc>0.702387</vAcc></extensions></trkpt>
      <trkpt lon="-3.316864" lat="54.546720"><ele>308.124969</ele><time>2021-08-12T11:38:57Z</time><extensions><speed>0.936969</speed><course>67.595528</course><hAcc>0.880708</hAcc><vAcc>0.702705</vAcc></extensions></trkpt>
      <trkpt lon="-3.316860" lat="54.546712"><ele>307.912262</ele><time>2021-08-12T11:38:58Z</time><extensions><speed>0.904220</speed><course>69.079941</course><hAcc>0.880814</hAcc><vAcc>0.703036</vAcc></extensions></trkpt>
      <trkpt lon="-3.316856" lat="54.546704"><ele>307.681000</ele><time>2021-08-12T11:38:59Z</time><extensions><speed>0.872269</speed><course>67.638985</course><hAcc>0.880935</hAcc><vAcc>0.703401</vAcc></extensions></trkpt>
      <trkpt lon="-3.316851" lat="54.546697"><ele>307.433777</ele><time>2021-08-12T11:39:00Z</time><extensions><speed>0.842898</speed><course>67.902077</course><hAcc>0.881075</hAcc><vAcc>0.703830</vAcc></extensions></trkpt>
      <trkpt lon="-3.316845" lat="54.546690"><ele>307.173859</ele><time>2021-08-12T11:39:01Z</time><extensions><speed>0.818370</speed><course>68.213737</course><hAcc>0.881235</hAcc><vAcc>0.704348</vAcc></extensions></trkpt>
      <trkpt lon="-3.316839" lat="54.546684"><ele>306.905060</ele><time>2021-08-12T11:39:02Z</time><extensions><speed>0.801161</speed><course>58.646133</course><hAcc>0.881419</hAcc><vAcc>0.704979</vAcc></extensions></trkpt>
      <trkpt lon="-3.316832" lat="54.546678"><ele>306.631470</ele><time>2021-08-12T11:39:03Z</time><extensions><speed>0.793198</speed><course>60.787758</course><hAcc>0.881626</hAcc><vAcc>0.705740</vAcc></extensions></trkpt>
      <trkpt lon="-3.316825" lat="54.546673"><ele>306.357056</ele><time>2021-08-12T11:39:04Z</time><extensions><speed>0.795275</speed><course>59.107254</course><hAcc>0.881855</hAcc><vAcc>0.706629</vAcc></extensions></trkpt>
      <trkpt lon="-3.316816" lat="54.546667"><ele>306.085388</ele><time>2021-08-12T11:39:05Z</time><extensions><speed>0.807328</speed><course>59.308796</course><hAcc>0.882102</hAcc><vAcc>0.707625</vAcc></extensions></trkpt>
      <trkpt lon="-3.316807" lat="54.546662"><ele>305.819397</ele><time>2021-08-12T11:39:06Z</time><extensions><speed>0.829407</speed><course>63.536522</course><hAcc>0.882363</hAcc><vAcc>0.708696</vAcc></extensions></trkpt>
      <trkpt lon="-3.316796" lat="54.546658"><ele>305.561218</ele><time>2021-08-12T11:39:07Z</time><extensions><speed>0.861193</speed><course>64.110619</course><hAcc>0.882631</hAcc><vAcc>0.709803</vAcc></extensions></trkpt>
      <trkpt lon="-3.316785" lat="54.546653"><ele>305.312592</ele><time>2021-08-12T11:39:08Z</time><extensions><speed>0.900957</speed><course>57.783936</course><hAcc>0.882902</hAcc><vAcc>0.710903</vAcc></extensions></trkpt>
      <trkpt lon="-3.316773" lat="54.546649"><ele>305.075073</ele><time>2021-08-12T11:39:09Z</time><extensions><speed>0.945527</speed><course>62.673740</course><hAcc>0.883167</hAcc><vAcc>0.711957</vAcc></extensions></trkpt>
      <trkpt lon="-3.316760" lat="54.546645"><ele>304.850006</ele><time>2021-08-12T11:39:10Z</time><extensions><speed>0.991190</speed><course>68.268181</course><hAcc>0.883422</hAcc><vAcc>0.712935</vAcc></extensions></trkpt>
      <trkpt lon="-3.316746" lat="54.546641"><ele>304.638580</ele><time>2021-08-12T11:39:11Z</time><extensions><speed>1.034629</speed><course>59.735432</course><hAcc>0.883663</hAcc><vAcc>0.713819</vAcc></extensions></trkpt>
      <trkpt lon="-3.316731" lat="54.546637"><ele>304.441925</ele><time>2021-08-12T11:39:12Z</time><extensions><speed>1.073618</speed><course>59.192490</course><hAcc>0.883884</hAcc><vAcc>0.714599</vAcc></extensions></trkpt>
      <trkpt lon="-3.316716" lat="54.546633"><ele>304.260468</ele><time>2021-08-12T11:39:13Z</time><extensions><speed>1.107500</speed><course>60.825825</course><hAcc>0.884084</hAcc><vAcc>0.715277</vAcc></extensions></trkpt>
      <trkpt lon="-3.316700" lat="54.546629"><ele>304.094055</ele><time>2021-08-12T11:39:14Z</time><extensions><speed>1.136796</speed><course>62.921200</course><hAcc>0.884261</hAcc><vAcc>0.715863</vAcc></extensions></trkpt>
      <trkpt lon="-3.316684" lat="54.546624"><ele>303.942047</ele><time>2021-08-12T11:39:15Z</time><extensions><speed>1.162828</speed><course>59.145714</course><hAcc>0.884415</hAcc><vAcc>0.716370</vAcc></extensions></trkpt>
      <trkpt lon="-3.316668" lat="54.546619"><ele>303.803284</ele><time>2021-08-12T11:39:16Z</time><extensions><speed>1.186412</speed><course>54.852036</course><hAcc>0.884546</hAcc><vAcc>0.716807</vAcc></extensions></trkpt>
      <trkpt lon="-3.316651" lat="54.546614"><ele>303.676453</ele><time>2021-08-12T11:39:17Z</time><extensions><speed>1.207441</speed><course>52.958679</course><hAcc>0.884654</hAcc><vAcc>0.717182</vAcc></extensions></trkpt>
      <trkpt lon="-3.316635" lat="54.546609"><ele>303.560181</ele><time>2021-08-12T11:39:18Z</time><extensions><speed>1.226391</speed><course>51.642593</course><hAcc>0.884742</hAcc><vAcc>0.717496</vAcc></extensions></trkpt>
      <trkpt lon="-3.316619" lat="54.546603"><ele>303.453247</ele><time>2021-08-12T11:39:19Z</time><extensions><speed>1.243611</speed><course>50.915668</course><hAcc>0.884809</hAcc><vAcc>0.717751</vAcc></extensions></trkpt>
      <trkpt lon="-3.316603" lat="54.546597"><ele>303.354309</ele><time>2021-08-12T11:39:20Z</time><extensions><speed>1.258637</speed><course>43.517220</course><hAcc>0.884857</hAcc><vAcc>0.717946</vAcc></extensions></trkpt>
      <trkpt lon="-3.316587" lat="54.546590"><ele>303.261902</ele><time>2021-08-12T11:39:21Z</time><extensions><speed>1.270925</speed><course>53.213661</course><hAcc>0.884886</hAcc><vAcc>0.718078</vAcc></extensions></trkpt>
      <trkpt lon="-3.316571" lat="54.546583"><ele>303.174500</ele><time>2021-08-12T11:39:22Z</time><extensions><speed>1.280072</speed><course>42.672325</course><hAcc>0.884897</hAcc><vAcc>0.718145</vAcc></extensions></trkpt>
      <trkpt lon="-3.316556" lat="54.546576"><ele>303.090363</ele><time>2021-08-12T11:39:23Z</time><extensions><speed>1.285059</speed><course>57.842590</course><hAcc>0.884892</hAcc><vAcc>0.718147</vAcc></extensions></trkpt>
      <trkpt lon="-3.316541" lat="54.546568"><ele>303.007507</ele><time>2021-08-12T11:39:24Z</time><extensions><speed>1.284685</speed><course>54.432369</course><hAcc>0.884871</hAcc><vAcc>0.718080</vAcc></extensions></trkpt>
      <trkpt lon="-3.316526" lat="54.546561"><ele>302.924011</ele><time>2021-08-12T11:39:25Z</time><extensions><speed>1.278521</speed><course>53.099045</course><hAcc>0.884839</hAcc><vAcc>0.717943</vAcc></extensions></trkpt>
      <trkpt lon="-3.316512" lat="54.546553"><ele>302.838257</ele><time>2021-08-12T11:39:26Z</time><extensions><speed>1.266844</speed><course>52.709480</course><hAcc>0.884798</hAcc><vAcc>0.717739</vAcc></extensions></trkpt>
      <trkpt lon="-3.316498" lat="54.546545"><ele>302.749817</ele><time>2021-08-12T11:39:27Z</time><extensions><speed>1.250460</speed><course>55.566643</course><hAcc>0.884751</hAcc><vAcc>0.717484</vAcc></extensions></trkpt>
      <trkpt lon="-3.316484" lat="54.546537"><ele>302.658997</ele><time>2021-08-12T11:39:28Z</time><extensions><speed>1.230567</speed><course>50.999676</course><hAcc>0.884702</hAcc><vAcc>0.717202</vAcc></extensions></trkpt>
      <trkpt lon="-3.316470" lat="54.546530"><ele>302.566650</ele><time>2021-08-12T11:39:29Z</time><extensions><speed>1.208685</speed><course>49.932701</course><hAcc>0.884654</hAcc><vAcc>0.716920</vAcc></extensions></trkpt>
      <trkpt lon="-3.316456" lat="54.546523"><ele>302.473999</ele><time>2021-08-12T11:39:30Z</time><extensions><speed>1.185773</speed><course>44.103298</course><hAcc>0.884609</hAcc><vAcc>0.716668</vAcc></extensions></trkpt>
      <trkpt lon="-3.316443" lat="54.546516"><ele>302.382629</ele><time>2021-08-12T11:39:31Z</time><extensions><speed>1.161770</speed><course>35.959499</course><hAcc>0.884569</hAcc><vAcc>0.716467</vAcc></extensions></trkpt>
      <trkpt lon="-3.316429" lat="54.546509"><ele>302.294128</ele><time>2021-08-12T11:39:32Z</time><extensions><speed>1.135482</speed><course>30.952709</course><hAcc>0.884534</hAcc><vAcc>0.716330</vAcc></extensions></trkpt>
      <trkpt lon="-3.316416" lat="54.546503"><ele>302.209991</ele><time>2021-08-12T11:39:33Z</time><extensions><speed>1.104087</speed><course>43.709347</course><hAcc>0.884503</hAcc><vAcc>0.716259</vAcc></extensions></trkpt>
      <trkpt lon="-3.316402" lat="54.546497"><ele>302.131409</ele><time>2021-08-12T11:39:34Z</time><extensions><speed>1.063756</speed><course>37.574459</course><hAcc>0.884475</hAcc><vAcc>0.716245</vAcc></extensions></trkpt>
      <trkpt lon="-3.316389" lat="54.546491"><ele>302.058899</ele><time>2021-08-12T11:39:35Z</time><extensions><speed>1.011136</speed><course>40.028488</course><hAcc>0.884447</hAcc><vAcc>0.716262</vAcc></extensions></trkpt>
      <trkpt lon="-3.316377" lat="54.546486"><ele>301.992554</ele><time>2021-08-12T11:39:36Z</time><extensions><speed>0.944744</speed><course>39.088745</course><hAcc>0.884416</hAcc><vAcc>0.716276</vAcc></extensions></trkpt>
      <trkpt lon="-3.316366" lat="54.546481"><ele>301.932495</ele><time>2021-08-12T11:39:37Z</time><extensions><speed>0.864962</speed><course>38.227211</course><hAcc>0.884376</hAcc><vAcc>0.716252</vAcc></extensions></trkpt>
      <trkpt lon="-3.316356" lat="54.546477"><ele>301.879028</ele><time>2021-08-12T11:39:38Z</time><extensions><speed>0.773662</speed><course>38.580025</course><hAcc>0.884326</hAcc><vAcc>0.716160</vAcc></extensions></trkpt>
      <trkpt lon="-3.316347" lat="54.546473"><ele>301.832703</ele><time>2021-08-12T11:39:39Z</time><extensions><speed>0.674507</speed><course>36.225418</course><hAcc>0.884261</hAcc><vAcc>0.715978</vAcc></extensions></trkpt>
      <trkpt lon="-3.316340" lat="54.546469"><ele>301.794464</ele><time>2021-08-12T11:39:40Z</time><extensions><speed>0.572403</speed><course>36.482189</course><hAcc>0.884179</hAcc><vAcc>0.715695</vAcc></extensions></trkpt>
      <trkpt lon="-3.316334" lat="54.546466"><ele>301.765594</ele><time>2021-08-12T11:39:41Z</time><extensions><speed>0.473161</speed><course>45.117634</course><hAcc>0.884080</hAcc><vAcc>0.715307</vAcc></extensions></trkpt>
      <trkpt lon="-3.316330" lat="54.546463"><ele>301.747528</ele><time>2021-08-12T11:39:42Z</time><extensions><speed>0.383092</speed><course>40.176819</course><hAcc>0.883965</hAcc><vAcc>0.714822</vAcc></extensions></trkpt>
      <trkpt lon="-3.316327" lat="54.546460"><ele>301.740875</ele><time>2021-08-12T11:39:43Z</time><extensions><speed>0.308164</speed><course>42.588684</course><hAcc>0.883836</hAcc><vAcc>0.714260</vAcc></extensions></trkpt>
      <trkpt lon="-3.316325" lat="54.546458"><ele>301.744843</ele><time>2021-08-12T11:39:44Z</time><extensions><speed>0.252210</speed><course>41.771687</course><hAcc>0.883699</hAcc><vAcc>0.713653</vAcc></extensions></trkpt>
      <trkpt lon="-3.316325" lat="54.546456"><ele>301.757416</ele><time>2021-08-12T11:39:45Z</time><extensions><speed>0.214966</speed><course>41.372017</course><hAcc>0.883557</hAcc><vAcc>0.713036</vAcc></extensions></trkpt>
      <trkpt lon="-3.316325" lat="54.546454"><ele>301.775909</ele><time>2021-08-12T11:39:46Z</time><extensions><speed>0.190874</speed><course>37.017429</course><hAcc>0.883417</hAcc><vAcc>0.712441</vAcc></extensions></trkpt>
      <trkpt lon="-3.316326" lat="54.546453"><ele>301.797180</ele><time>2021-08-12T11:39:47Z</time><extensions><speed>0.171694</speed><course>28.588495</course><hAcc>0.883286</hAcc><vAcc>0.711892</vAcc></extensions></trkpt>
      <trkpt lon="-3.316326" lat="54.546451"><ele>301.817749</ele><time>2021-08-12T11:39:48Z</time><extensions><speed>0.153012</speed><course>39.512306</course><hAcc>0.883171</hAcc><vAcc>0.711408</vAcc></extensions></trkpt>
      <trkpt lon="-3.316327" lat="54.546450"><ele>301.833527</ele><time>2021-08-12T11:39:49Z</time><extensions><speed>0.141504</speed><course>38.955353</course><hAcc>0.883077</hAcc><vAcc>0.711006</vAcc></extensions></trkpt>
      <trkpt lon="-3.316326" lat="54.546449"><ele>301.840332</ele><time>2021-08-12T11:39:50Z</time><extensions><speed>0.156740</speed><course>35.270641</course><hAcc>0.883011</hAcc><vAcc>0.710702</vAcc></extensions></trkpt>
      <trkpt lon="-3.316324" lat="54.546447"><ele>301.834412</ele><time>2021-08-12T11:39:51Z</time><extensions><speed>0.209168</speed><course>38.302330</course><hAcc>0.882974</hAcc><vAcc>0.710515</vAcc></extensions></trkpt>
      <trkpt lon="-3.316321" lat="54.546446"><ele>301.812805</ele><time>2021-08-12T11:39:52Z</time><extensions><speed>0.288719</speed><course>40.976086</course><hAcc>0.882968</hAcc><vAcc>0.710462</vAcc></extensions></trkpt>
      <trkpt lon="-3.316317" lat="54.546444"><ele>301.773132</ele><time>2021-08-12T11:39:53Z</time><extensions><speed>0.383001</speed><course>40.718147</course><hAcc>0.882991</hAcc><vAcc>0.710562</vAcc></extensions></trkpt>
      <trkpt lon="-3.316311" lat="54.546442"><ele>301.713501</ele><time>2021-08-12T11:39:54Z</time><extensions><speed>0.482714</speed><course>40.437557</course><hAcc>0.883038</hAcc><vAcc>0.710820</vAcc></extensions></trkpt>
      <trkpt lon="-3.316304" lat="54.546440"><ele>301.632416</ele><time>2021-08-12T11:39:55Z</time><extensions><speed>0.580425</speed><course>38.315979</course><hAcc>0.883102</hAcc><vAcc>0.711211</vAcc></extensions></trkpt>
      <trkpt lon="-3.316295" lat="54.546438"><ele>301.528961</ele><time>2021-08-12T11:39:56Z</time><extensions><speed>0.670029</speed><course>28.668550</course><hAcc>0.883173</hAcc><vAcc>0.711682</vAcc></extensions></trkpt>
      <trkpt lon="-3.316286" lat="54.546435"><ele>301.403107</ele><time>2021-08-12T11:39:57Z</time><extensions><speed>0.746787</speed><course>31.392698</course><hAcc>0.883242</hAcc><vAcc>0.712160</vAcc></extensions></trkpt>
      <trkpt lon="-3.316275" lat="54.546431"><ele>301.255341</ele><time>2021-08-12T11:39:58Z</time><extensions><speed>0.806395</speed><course>32.848076</course><hAcc>0.883295</hAcc><vAcc>0.712572</vAcc></extensions></trkpt>
      <trkpt lon="-3.316265" lat="54.546427"><ele>301.086609</ele><time>2021-08-12T11:39:59Z</time><extensions><speed>0.848223</speed><course>38.096359</course><hAcc>0.883322</hAcc><vAcc>0.712853</vAcc></extensions></trkpt>
      <trkpt lon="-3.316254" lat="54.546422"><ele>300.898529</ele><time>2021-08-12T11:40:00Z</time><extensions><speed>0.875836</speed><course>27.737675</course><hAcc>0.883312</hAcc><vAcc>0.712953</vAcc></extensions></trkpt>
      <trkpt lon="-3.316243" lat="54.546417"><ele>300.692871</ele><time>2021-08-12T11:40:01Z</time><extensions><speed>0.893539</speed><course>38.820049</course><hAcc>0.883257</hAcc><vAcc>0.712835</vAcc></extensions></trkpt>
      <trkpt lon="-3.316233" lat="54.546412"><ele>300.471313</ele><time>2021-08-12T11:40:02Z</time><extensions><speed>0.905723</speed><course>40.137299</course><hAcc>0.883151</hAcc><vAcc>0.712477</vAcc></extensions></trkpt>
      <trkpt lon="-3.316224" lat="54.546405"><ele>300.235565</ele><time>2021-08-12T11:40:03Z</time><extensions><speed>0.915717</speed><course>44.560421</course><hAcc>0.882993</hAcc><vAcc>0.711873</vAcc></extensions></trkpt>
      <trkpt lon="-3.316216" lat="54.546399"><ele>299.987640</ele><time>2021-08-12T11:40:04Z</time><extensions><speed>0.925532</speed><course>41.574787</course><hAcc>0.882785</hAcc><vAcc>0.711032</vAcc></extensions></trkpt>
      <trkpt lon="-3.316208" lat="54.546392"><ele>299.729858</ele><time>2021-08-12T11:40:05Z</time><extensions><speed>0.935826</speed><course>37.402897</course><hAcc>0.882533</hAcc><vAcc>0.709981</vAcc></extensions></trkpt>
      <trkpt lon="-3.316201" lat="54.546384"><ele>299.464142</ele><time>2021-08-12T11:40:06Z</time><extensions><speed>0.946238</speed><course>38.445354</course><hAcc>0.882245</hAcc><vAcc>0.708764</vAcc></extensions></trkpt>
      <trkpt lon="-3.316195" lat="54.546377"><ele>299.191925</ele><time>2021-08-12T11:40:07Z</time><extensions><speed>0.956504</speed><course>32.932274</course><hAcc>0.881932</hAcc><vAcc>0.707435</vAcc></extensions></trkpt>
      <trkpt lon="-3.316189" lat="54.546369"><ele>298.914276</ele><time>2021-08-12T11:40:08Z</time><extensions><speed>0.966273</speed><course>27.701353</course><hAcc>0.881606</hAcc><vAcc>0.706057</vAcc></extensions></trkpt>
      <trkpt lon="-3.316184" lat="54.546360"><ele>298.632050</ele><time>2021-08-12T11:40:09Z</time><extensions><speed>0.974701</speed><course>28.233585</course><hAcc>0.881281</hAcc><vAcc>0.704694</vAcc></extensions></trkpt>
      <trkpt lon="-3.316180" lat="54.546352"><ele>298.346039</ele><time>2021-08-12T11:40:10Z</time><extensions><speed>0.980450</speed><course>30.003765</course><hAcc>0.880969</hAcc><vAcc>0.703408</vAcc></extensions></trkpt>
      <trkpt lon="-3.316176" lat="54.546343"><ele>298.057281</ele><time>2021-08-12T11:40:11Z</time><extensions><speed>0.982310</speed><course>35.586266</course><hAcc>0.880683</hAcc><vAcc>0.702251</vAcc></extensions></trkpt>
      <trkpt lon="-3.316172" lat="54.546335"><ele>297.767090</ele><time>2021-08-12T11:40:12Z</time><extensions><speed>0.980046</speed><course>41.034397</course><hAcc>0.880432</hAcc><vAcc>0.701264</vAcc></extensions></trkpt>
      <trkpt lon="-3.316169" lat="54.546326"><ele>297.476959</ele><time>2021-08-12T11:40:13Z</time><extensions><speed>0.973802</speed><course>43.040592</course><hAcc>0.880224</hAcc><vAcc>0.700476</vAcc></extensions></trkpt>
      <trkpt lon="-3.316166" lat="54.546318"><ele>297.188293</ele><time>2021-08-12T11:40:14Z</time><extensions><speed>0.963921</speed><course>49.550934</course><hAcc>0.880061</hAcc><vAcc>0.699898</vAcc></extensions></trkpt>
      <trkpt lon="-3.316163" lat="54.546310"><ele>296.902740</ele><time>2021-08-12T11:40:15Z</time><extensions><speed>0.951201</speed><course>62.069283</course><hAcc>0.879946</hAcc><vAcc>0.699527</vAcc></extensions></trkpt>
      <trkpt lon="-3.316159" lat="54.546301"><ele>296.621918</ele><time>2021-08-12T11:40:16Z</time><extensions><speed>0.936881</speed><course>68.512573</course><hAcc>0.879878</hAcc><vAcc>0.699343</vAcc></extensions></trkpt>
      <trkpt lon="-3.316156" lat="54.546293"><ele>296.347412</ele><time>2021-08-12T11:40:17Z</time><extensions><speed>0.921584</speed><course>76.544746</course><hAcc>0.879851</hAcc><vAcc>0.699320</vAcc></extensions></trkpt>
      <trkpt lon="-3.316153" lat="54.546285"><ele>296.080566</ele><time>2021-08-12T11:40:18Z</time><extensions><speed>0.905496</speed><course>91.471558</course><hAcc>0.879862</hAcc><vAcc>0.699431</vAcc></extensions></trkpt>
      <trkpt lon="-3.316149" lat="54.546277"><ele>295.822723</ele><time>2021-08-12T11:40:19Z</time><extensions><speed>0.888821</speed><course>103.707001</course><hAcc>0.879904</hAcc><vAcc>0.699650</vAcc></extensions></trkpt>
      <trkpt lon="-3.316146" lat="54.546270"><ele>295.575470</ele><time>2021-08-12T11:40:20Z</time><extensions><speed>0.871492</speed><course>102.240677</course><hAcc>0.879972</hAcc><vAcc>0.699951</vAcc></extensions></trkpt>
      <trkpt lon="-3.316142" lat="54.546262"><ele>295.340698</ele><time>2021-08-12T11:40:21Z</time><extensions><speed>0.853684</speed><course>109.008522</course><hAcc>0.880058</hAcc><vAcc>0.700311</vAcc></extensions></trkpt>
      <trkpt lon="-3.316138" lat="54.546255"><ele>295.120148</ele><time>2021-08-12T11:40:22Z</time><extensions><speed>0.835600</speed><course>120.687057</course><hAcc>0.880157</hAcc><vAcc>0.700711</vAcc></extensions></trkpt>
      <trkpt lon="-3.316135" lat="54.546248"><ele>294.915314</ele><time>2021-08-12T11:40:23Z</time><extensions><speed>0.816815</speed><course>122.518364</course><hAcc>0.880263</hAcc><vAcc>0.701136</vAcc></extensions></trkpt>
      <trkpt lon="-3.316131" lat="54.546241"><ele>294.727356</ele><time>2021-08-12T11:40:24Z</time><extensions><speed>0.796074</speed><course>116.435341</course><hAcc>0.880371</hAcc><vAcc>0.701571</vAcc></extensions></trkpt>
      <trkpt lon="-3.316127" lat="54.546234"><ele>294.556580</ele><time>2021-08-12T11:40:25Z</time><extensions><speed>0.771816</speed><course>123.806564</course><hAcc>0.880477</hAcc><vAcc>0.702000</vAcc></extensions></trkpt>
      <trkpt lon="-3.316124" lat="54.546228"><ele>294.402924</ele><time>2021-08-12T11:40:26Z</time><extensions><speed>0.742737</speed><course>121.279266</course><hAcc>0.880577</hAcc><vAcc>0.702400</vAcc></extensions></trkpt>
      <trkpt lon="-3.316120" lat="54.546222"><ele>294.266235</ele><time>2021-08-12T11:40:27Z</time><extensions><speed>0.708248</speed><course>122.295830</course><hAcc>0.880667</hAcc><vAcc>0.702747</vAcc></extensions></trkpt>
      <trkpt lon="-3.316116" lat="54.546216"><ele>294.146606</ele><time>2021-08-12T11:40:28Z</time><extensions><speed>0.668441</speed><course>116.485687</course><hAcc>0.880745</hAcc><vAcc>0.703027</vAcc></extensions></trkpt>
      <trkpt lon="-3.316112" lat="54.546210"><ele>294.044067</ele><time>2021-08-12T11:40:29Z</time><extensions><speed>0.623840</speed><course>120.837761</course><hAcc>0.880808</hAcc><vAcc>0.703236</vAcc></extensions></trkpt>
      <trkpt lon="-3.316109" lat="54.546206"><ele>293.958557</ele><time>2021-08-12T11:40:30Z</time><extensions><speed>0.576124</speed><course>121.691162</course><hAcc>0.880852</hAcc><vAcc>0.703385</vAcc></extensions></trkpt>
      <trkpt lon="-3.316105" lat="54.546201"><ele>293.889313</ele><time>2021-08-12T11:40:31Z</time><extensions><speed>0.526894</speed><course>120.429344</course><hAcc>0.880877</hAcc><vAcc>0.703485</vAcc></extensions></trkpt>
      <trkpt lon="-3.316102" lat="54.546197"><ele>293.834595</ele><time>2021-08-12T11:40:32Z</time><extensions><speed>0.477388</speed><course>127.922836</course><hAcc>0.880880</hAcc><vAcc>0.703537</vAcc></extensions></trkpt>
      <trkpt lon="-3.316098" lat="54.546193"><ele>293.792023</ele><time>2021-08-12T11:40:33Z</time><extensions><speed>0.429376</speed><course>122.773224</course><hAcc>0.880858</hAcc><vAcc>0.703529</vAcc></extensions></trkpt>
      <trkpt lon="-3.316095" lat="54.546190"><ele>293.759247</ele><time>2021-08-12T11:40:34Z</time><extensions><speed>0.384308</speed><course>127.410233</course><hAcc>0.880810</hAcc><vAcc>0.703441</vAcc></extensions></trkpt>
      <trkpt lon="-3.316092" lat="54.546188"><ele>293.733643</ele><time>2021-08-12T11:40:35Z</time><extensions><speed>0.343109</speed><course>126.293243</course><hAcc>0.880735</hAcc><vAcc>0.703250</vAcc></extensions></trkpt>
      <trkpt lon="-3.316089" lat="54.546185"><ele>293.712372</ele><time>2021-08-12T11:40:36Z</time><extensions><speed>0.306214</speed><course>113.773628</course><hAcc>0.880634</hAcc><vAcc>0.702932</vAcc></extensions></trkpt>
      <trkpt lon="-3.316086" lat="54.546183"><ele>293.692657</ele><time>2021-08-12T11:40:37Z</time><extensions><speed>0.274154</speed><course>111.597641</course><hAcc>0.880509</hAcc><vAcc>0.702470</vAcc></extensions></trkpt>
      <trkpt lon="-3.316084" lat="54.546181"><ele>293.672333</ele><time>2021-08-12T11:40:38Z</time><extensions><speed>0.247486</speed><course>118.242065</course><hAcc>0.880365</hAcc><vAcc>0.701870</vAcc></extensions></trkpt>
      <trkpt lon="-3.316082" lat="54.546180"><ele>293.650116</ele><time>2021-08-12T11:40:39Z</time><extensions><speed>0.226525</speed><course>121.318916</course><hAcc>0.880208</hAcc><vAcc>0.701169</vAcc></extensions></trkpt>
      <trkpt lon="-3.316080" lat="54.546178"><ele>293.625336</ele><time>2021-08-12T11:40:40Z</time><extensions><speed>0.212054</speed><course>126.571838</course><hAcc>0.880047</hAcc><vAcc>0.700422</vAcc></extensions></trkpt>
      <trkpt lon="-3.316078" lat="54.546176"><ele>293.597961</ele><time>2021-08-12T11:40:41Z</time><extensions><speed>0.205665</speed><course>116.053932</course><hAcc>0.879888</hAcc><vAcc>0.699690</vAcc></extensions></trkpt>
      <trkpt lon="-3.316076" lat="54.546175"><ele>293.568390</ele><time>2021-08-12T11:40:42Z</time><extensions><speed>0.209329</speed><course>122.553452</course><hAcc>0.879741</hAcc><vAcc>0.699024</vAcc></extensions></trkpt>
      <trkpt lon="-3.316075" lat="54.546173"><ele>293.537140</ele><time>2021-08-12T11:40:43Z</time><extensions><speed>0.224648</speed><course>115.362396</course><hAcc>0.879614</hAcc><vAcc>0.698468</vAcc></extensions></trkpt>
      <trkpt lon="-3.316075" lat="54.546171"><ele>293.504608</ele><time>2021-08-12T11:40:44Z</time><extensions><speed>0.251997</speed><course>120.016403</course><hAcc>0.879513</hAcc><vAcc>0.698057</vAcc></extensions></trkpt>
      <trkpt lon="-3.316075" lat="54.546168"><ele>293.470795</ele><time>2021-08-12T11:40:45Z</time><extensions><speed>0.290187</speed><course>131.521149</course><hAcc>0.879442</hAcc><vAcc>0.697811</vAcc></extensions></trkpt>
      <trkpt lon="-3.316075" lat="54.546166"><ele>293.435638</ele><time>2021-08-12T11:40:46Z</time><extensions><speed>0.337283</speed><course>124.976143</course><hAcc>0.879400</hAcc><vAcc>0.697729</vAcc></extensions></trkpt>
      <trkpt lon="-3.316075" lat="54.546162"><ele>293.399048</ele><time>2021-08-12T11:40:47Z</time><extensions><speed>0.391377</speed><course>123.546791</course><hAcc>0.879387</hAcc><vAcc>0.697787</vAcc></extensions></trkpt>
      <trkpt lon="-3.316076" lat="54.546159"><ele>293.361053</ele><time>2021-08-12T11:40:48Z</time><extensions><speed>0.450491</speed><course>116.699699</course><hAcc>0.879400</hAcc><vAcc>0.697952</vAcc></extensions></trkpt>
      <trkpt lon="-3.316078" lat="54.546154"><ele>293.321808</ele><time>2021-08-12T11:40:49Z</time><extensions><speed>0.512678</speed><course>112.924561</course><hAcc>0.879433</hAcc><vAcc>0.698177</vAcc></extensions></trkpt>
      <trkpt lon="-3.316079" lat="54.546150"><ele>293.281311</ele><time>2021-08-12T11:40:50Z</time><extensions><speed>0.576168</speed><course>117.858780</course><hAcc>0.879481</hAcc><vAcc>0.698413</vAcc></extensions></trkpt>
      <trkpt lon="-3.316082" lat="54.546144"><ele>293.239380</ele><time>2021-08-12T11:40:51Z</time><extensions><speed>0.639060</speed><course>111.630035</course><hAcc>0.879540</hAcc><vAcc>0.698640</vAcc></extensions></trkpt>
      <trkpt lon="-3.316085" lat="54.546139"><ele>293.195465</ele><time>2021-08-12T11:40:52Z</time><extensions><speed>0.699044</speed><course>115.453979</course><hAcc>0.879608</hAcc><vAcc>0.698858</vAcc></extensions></trkpt>
      <trkpt lon="-3.316089" lat="54.546132"><ele>293.148346</ele><time>2021-08-12T11:40:53Z</time><extensions><speed>0.753649</speed><course>108.625862</course><hAcc>0.879682</hAcc><vAcc>0.699075</vAcc></extensions></trkpt>
      <trkpt lon="-3.316093" lat="54.546126"><ele>293.096436</ele><time>2021-08-12T11:40:54Z</time><extensions><speed>0.801324</speed><course>116.435417</course><hAcc>0.879763</hAcc><vAcc>0.699301</vAcc></extensions></trkpt>
      <trkpt lon="-3.316098" lat="54.546119"><ele>293.037964</ele><time>2021-08-12T11:40:55Z</time><extensions><speed>0.841415</speed><course>112.323517</course><hAcc>0.879851</hAcc><vAcc>0.699555</vAcc></extensions></trkpt>
      <trkpt lon="-3.316104" lat="54.546112"><ele>292.971100</ele><time>2021-08-12T11:40:56Z</time><extensions><speed>0.873651</speed><course>117.491661</course><hAcc>0.879948</hAcc><vAcc>0.699859</vAcc></extensions></trkpt>
      <trkpt lon="-3.316111" lat="54.546105"><ele>292.894348</ele><time>2021-08-12T11:40:57Z</time><extensions><speed>0.898348</speed><course>120.293846</course><hAcc>0.880055</hAcc><vAcc>0.700230</vAcc></extensions></trkpt>
      <trkpt lon="-3.316118" lat="54.546098"><ele>292.806915</ele><time>2021-08-12T11:40:58Z</time><extensions><speed>0.915677</speed><course>115.591873</course><hAcc>0.880173</hAcc><vAcc>0.700666</vAcc></extensions></trkpt>
      <trkpt lon="-3.316126" lat="54.546092"><ele>292.708496</ele><time>2021-08-12T11:40:59Z</time><extensions><speed>0.925864</speed><course>116.468712</course><hAcc>0.880302</hAcc><vAcc>0.701157</vAcc></extensions></trkpt>
      <trkpt lon="-3.316135" lat="54.546085"><ele>292.599060</ele><time>2021-08-12T11:41:00Z</time><extensions><speed>0.929575</speed><course>116.627220</course><hAcc>0.880442</hAcc><vAcc>0.701690</vAcc></extensions></trkpt>
      <trkpt lon="-3.316144" lat="54.546078"><ele>292.478882</ele><time>2021-08-12T11:41:01Z</time><extensions><speed>0.927996</speed><course>115.487846</course><hAcc>0.880591</hAcc><vAcc>0.702252</vAcc></extensions></trkpt>
      <trkpt lon="-3.316153" lat="54.546072"><ele>292.348846</ele><time>2021-08-12T11:41:02Z</time><extensions><speed>0.922552</speed><course>110.303284</course><hAcc>0.880749</hAcc><vAcc>0.702835</vAcc></extensions></trkpt>
      <trkpt lon="-3.316163" lat="54.546066"><ele>292.210205</ele><time>2021-08-12T11:41:03Z</time><extensions><speed>0.914507</speed><course>107.900200</course><hAcc>0.880914</hAcc><vAcc>0.703433</vAcc></extensions></trkpt>
      <trkpt lon="-3.316173" lat="54.546060"><ele>292.064392</ele><time>2021-08-12T11:41:04Z</time><extensions><speed>0.905668</speed><course>104.901772</course><hAcc>0.881084</hAcc><vAcc>0.704047</vAcc></extensions></trkpt>
      <trkpt lon="-3.316183" lat="54.546054"><ele>291.912872</ele><time>2021-08-12T11:41:05Z</time><extensions><speed>0.897837</speed><course>102.625549</course><hAcc>0.881258</hAcc><vAcc>0.704677</vAcc></extensions></trkpt>
      <trkpt lon="-3.316192" lat="54.546049"><ele>291.757019</ele><time>2021-08-12T11:41:06Z</time><extensions><speed>0.892321</speed><course>101.615082</course><hAcc>0.881433</hAcc><vAcc>0.705326</vAcc></extensions></trkpt>
      <trkpt lon="-3.316202" lat="54.546043"><ele>291.598419</ele><time>2021-08-12T11:41:07Z</time><extensions><speed>0.890289</speed><course>104.820312</course><hAcc>0.881607</hAcc><vAcc>0.705992</vAcc></extensions></trkpt>
      <trkpt lon="-3.316213" lat="54.546038"><ele>291.438629</ele><time>2021-08-12T11:41:08Z</time><extensions><speed>0.892951</speed><course>97.837166</course><hAcc>0.881778</hAcc><vAcc>0.706665</vAcc></extensions></trkpt>
      <trkpt lon="-3.316223" lat="54.546033"><ele>291.279449</ele><time>2021-08-12T11:41:09Z</time><extensions><speed>0.901396</speed><course>99.518051</course><hAcc>0.881943</hAcc><vAcc>0.707322</vAcc></extensions></trkpt>
      <trkpt lon="-3.316233" lat="54.546027"><ele>291.122711</ele><time>2021-08-12T11:41:10Z</time><extensions><speed>0.916466</speed><course>105.468117</course><hAcc>0.882099</hAcc><vAcc>0.707942</vAcc></extensions></trkpt>
      <trkpt lon="-3.316244" lat="54.546021"><ele>290.970276</ele><time>2021-08-12T11:41:11Z</time><extensions><speed>0.938261</speed><course>105.021729</course><hAcc>0.882245</hAcc><vAcc>0.708502</vAcc></extensions></trkpt>
      <trkpt lon="-3.316255" lat="54.546016"><ele>290.823853</ele><time>2021-08-12T11:41:12Z</time><extensions><speed>0.965956</speed><course>105.854553</course><hAcc>0.882378</hAcc><vAcc>0.708990</vAcc></extensions></trkpt>
      <trkpt lon="-3.316266" lat="54.546010"><ele>290.684448</ele><time>2021-08-12T11:41:13Z</time><extensions><speed>0.998525</speed><course>116.038353</course><hAcc>0.882497</hAcc><vAcc>0.709405</vAcc></extensions></trkpt>
      <trkpt lon="-3.316278" lat="54.546004"><ele>290.552399</ele><time>2021-08-12T11:41:14Z</time><extensions><speed>1.034633</speed><course>116.622620</course><hAcc>0.882600</hAcc><vAcc>0.709751</vAcc></extensions></trkpt>
      <trkpt lon="-3.316291" lat="54.545998"><ele>290.427551</ele><time>2021-08-12T11:41:15Z</time><extensions><speed>1.071989</speed><course>116.023415</course><hAcc>0.882689</hAcc><vAcc>0.710038</vAcc></extensions></trkpt>
      <trkpt lon="-3.316304" lat="54.545992"><ele>290.309021</ele><time>2021-08-12T11:41:16Z</time><extensions><speed>1.108017</speed><course>111.053482</course><hAcc>0.882762</hAcc><vAcc>0.710273</vAcc></extensions></trkpt>
      <trkpt lon="-3.316317" lat="54.545985"><ele>290.195404</ele><time>2021-08-12T11:41:17Z</time><extensions><speed>1.140872</speed><course>109.683617</course><hAcc>0.882821</hAcc><vAcc>0.710463</vAcc></extensions></trkpt>
      <trkpt lon="-3.316331" lat="54.545979"><ele>290.085388</ele><time>2021-08-12T11:41:18Z</time><extensions><speed>1.169027</speed><course>107.838440</course><hAcc>0.882866</hAcc><vAcc>0.710612</vAcc></extensions></trkpt>
      <trkpt lon="-3.316346" lat="54.545973"><ele>289.977692</ele><time>2021-08-12T11:41:19Z</time><extensions><speed>1.191286</speed><course>110.196930</course><hAcc>0.882899</hAcc><vAcc>0.710725</vAcc></extensions></trkpt>
      <trkpt lon="-3.316361" lat="54.545966"><ele>289.871033</ele><time>2021-08-12T11:41:20Z</time><extensions><speed>1.207082</speed><course>111.548782</course><hAcc>0.882921</hAcc><vAcc>0.710805</vAcc></extensions></trkpt>
      <trkpt lon="-3.316376" lat="54.545960"><ele>289.764221</ele><time>2021-08-12T11:41:21Z</time><extensions><speed>1.215920</speed><course>110.420074</course><hAcc>0.882932</hAcc><vAcc>0.710854</vAcc></extensions></trkpt>
      <trkpt lon="-3.316391" lat="54.545953"><ele>289.656403</ele><time>2021-08-12T11:41:22Z</time><extensions><speed>1.217081</speed><course>99.619576</course><hAcc>0.882934</hAcc><vAcc>0.710870</vAcc></extensions></trkpt>
      <trkpt lon="-3.316406" lat="54.545947"><ele>289.547211</ele><time>2021-08-12T11:41:23Z</time><extensions><speed>1.210063</speed><course>107.102882</course><hAcc>0.882926</hAcc><vAcc>0.710849</vAcc></extensions></trkpt>
      <trkpt lon="-3.316421" lat="54.545940"><ele>289.436981</ele><time>2021-08-12T11:41:24Z</time><extensions><speed>1.194887</speed><course>98.831825</course><hAcc>0.882910</hAcc><vAcc>0.710790</vAcc></extensions></trkpt>
      <trkpt lon="-3.316435" lat="54.545934"><ele>289.326538</ele><time>2021-08-12T11:41:25Z</time><extensions><speed>1.172170</speed><course>99.864403</course><hAcc>0.882888</hAcc><vAcc>0.710693</vAcc></extensions></trkpt>
      <trkpt lon="-3.316450" lat="54.545927"><ele>289.216949</ele><time>2021-08-12T11:41:26Z</time><extensions><speed>1.142574</speed><course>99.165215</course><hAcc>0.882859</hAcc><vAcc>0.710567</vAcc></extensions></trkpt>
      <trkpt lon="-3.316463" lat="54.545921"><ele>289.109222</ele><time>2021-08-12T11:41:27Z</time><extensions><speed>1.106590</speed><course>106.876038</course><hAcc>0.882826</hAcc><vAcc>0.710426</vAcc></extensions></trkpt>
      <trkpt lon="-3.316477" lat="54.545915"><ele>289.003693</ele><time>2021-08-12T11:41:28Z</time><extensions><speed>1.065368</speed><course>100.224144</course><hAcc>0.882789</hAcc><vAcc>0.710276</vAcc></extensions></trkpt>
      <trkpt lon="-3.316489" lat="54.545909"><ele>288.899811</ele><time>2021-08-12T11:41:29Z</time><extensions><speed>1.021239</speed><course>97.870438</course><hAcc>0.882751</hAcc><vAcc>0.710123</vAcc></extensions></trkpt>
      <trkpt lon="-3.316501" lat="54.545904"><ele>288.796265</ele><time>2021-08-12T11:41:30Z</time><extensions><speed>0.977866</speed><course>109.047302</course><hAcc>0.882714</hAcc><vAcc>0.709965</vAcc></extensions></trkpt>
      <trkpt lon="-3.316512" lat="54.545898"><ele>288.692047</ele><time>2021-08-12T11:41:31Z</time><extensions><speed>0.939742</speed><course>111.386711</course><hAcc>0.882680</hAcc><vAcc>0.709809</vAcc></extensions></trkpt>
      <trkpt lon="-3.316523" lat="54.545893"><ele>288.586914</ele><time>2021-08-12T11:41:32Z</time><extensions><speed>0.911030</speed><course>110.131767</course><hAcc>0.882650</hAcc><vAcc>0.709666</vAcc></extensions></trkpt>
      <trkpt lon="-3.316534" lat="54.545888"><ele>288.480988</ele><time>2021-08-12T11:41:33Z</time><extensions><speed>0.893895</speed><course>109.748413</course><hAcc>0.882627</hAcc><vAcc>0.709548</vAcc></extensions></trkpt>
      <trkpt lon="-3.316545" lat="54.545883"><ele>288.374207</ele><time>2021-08-12T11:41:34Z</time><extensions><speed>0.888044</speed><course>116.453705</course><hAcc>0.882610</hAcc><vAcc>0.709465</vAcc></extensions></trkpt>
      <trkpt lon="-3.316555" lat="54.545877"><ele>288.266174</ele><time>2021-08-12T11:41:35Z</time><extensions><speed>0.891017</speed><course>111.019348</course><hAcc>0.882602</hAcc><vAcc>0.709423</vAcc></extensions></trkpt>
      <trkpt lon="-3.316566" lat="54.545872"><ele>288.156036</ele><time>2021-08-12T11:41:36Z</time><extensions><speed>0.898402</speed><course>106.996025</course><hAcc>0.882601</hAcc><vAcc>0.709426</vAcc></extensions></trkpt>
      <trkpt lon="-3.316577" lat="54.545867"><ele>288.042816</ele><time>2021-08-12T11:41:37Z</time><extensions><speed>0.905200</speed><course>104.594215</course><hAcc>0.882608</hAcc><vAcc>0.709472</vAcc></extensions></trkpt>
      <trkpt lon="-3.316588" lat="54.545862"><ele>287.925323</ele><time>2021-08-12T11:41:38Z</time><extensions><speed>0.907871</speed><course>101.351479</course><hAcc>0.882621</hAcc><vAcc>0.709553</vAcc></extensions></trkpt>
      <trkpt lon="-3.316599" lat="54.545857"><ele>287.802490</ele><time>2021-08-12T11:41:39Z</time><extensions><speed>0.905104</speed><course>105.952332</course><hAcc>0.882638</hAcc><vAcc>0.709658</vAcc></extensions></trkpt>
      <trkpt lon="-3.316609" lat="54.545852"><ele>287.673218</ele><time>2021-08-12T11:41:40Z</time><extensions><speed>0.897219</speed><course>113.138412</course><hAcc>0.882658</hAcc><vAcc>0.709773</vAcc></extensions></trkpt>
      <trkpt lon="-3.316620" lat="54.545847"><ele>287.536469</ele><time>2021-08-12T11:41:41Z</time><extensions><speed>0.885047</speed><course>112.944946</course><hAcc>0.882677</hAcc><vAcc>0.709885</vAcc></extensions></trkpt>
      <trkpt lon="-3.316631" lat="54.545842"><ele>287.391418</ele><time>2021-08-12T11:41:42Z</time><extensions><speed>0.869839</speed><course>108.292221</course><hAcc>0.882692</hAcc><vAcc>0.709981</vAcc></extensions></trkpt>
      <trkpt lon="-3.316642" lat="54.545838"><ele>287.237732</ele><time>2021-08-12T11:41:43Z</time><extensions><speed>0.853238</speed><course>108.436562</course><hAcc>0.882703</hAcc><vAcc>0.710047</vAcc></extensions></trkpt>
      <trkpt lon="-3.316652" lat="54.545833"><ele>287.075897</ele><time>2021-08-12T11:41:44Z</time><extensions><speed>0.836488</speed><course>102.445824</course><hAcc>0.882707</hAcc><vAcc>0.710074</vAcc></extensions></trkpt>
      <trkpt lon="-3.316663" lat="54.545829"><ele>286.907166</ele><time>2021-08-12T11:41:45Z</time><extensions><speed>0.820469</speed><course>99.628555</course><hAcc>0.882702</hAcc><vAcc>0.710055</vAcc></extensions></trkpt>
      <trkpt lon="-3.316673" lat="54.545825"><ele>286.733063</ele><time>2021-08-12T11:41:46Z</time><extensions><speed>0.805445</speed><course>103.656601</course><hAcc>0.882688</hAcc><vAcc>0.709990</vAcc></extensions></trkpt>
      <trkpt lon="-3.316684" lat="54.545821"><ele>286.555023</ele><time>2021-08-12T11:41:47Z</time><extensions><speed>0.791061</speed><course>97.309608</course><hAcc>0.882663</hAcc><vAcc>0.709884</vAcc></extensions></trkpt>
      <trkpt lon="-3.316694" lat="54.545817"><ele>286.374512</ele><time>2021-08-12T11:41:48Z</time><extensions><speed>0.776517</speed><course>95.308922</course><hAcc>0.882627</hAcc><vAcc>0.709743</vAcc></extensions></trkpt>
      <trkpt lon="-3.316704" lat="54.545814"><ele>286.192871</ele><time>2021-08-12T11:41:49Z</time><extensions><speed>0.760697</speed><course>105.665154</course><hAcc>0.882579</hAcc><vAcc>0.709573</vAcc></extensions></trkpt>
      <trkpt lon="-3.316715" lat="54.545811"><ele>286.011383</ele><time>2021-08-12T11:41:50Z</time><extensions><speed>0.742884</speed><course>120.238884</course><hAcc>0.882521</hAcc><vAcc>0.709373</vAcc></extensions></trkpt>
      <trkpt lon="-3.316725" lat="54.545808"><ele>285.831268</ele><time>2021-08-12T11:41:51Z</time><extensions><speed>0.723089</speed><course>108.474937</course><hAcc>0.882454</hAcc><vAcc>0.709138</vAcc></extensions></trkpt>
      <trkpt lon="-3.316735" lat="54.545805"><ele>285.653595</ele><time>2021-08-12T11:41:52Z</time><extensions><speed>0.702018</speed><course>104.059807</course><hAcc>0.882379</hAcc><vAcc>0.708865</vAcc></extensions></trkpt>
      <trkpt lon="-3.316744" lat="54.545802"><ele>285.479065</ele><time>2021-08-12T11:41:53Z</time><extensions><speed>0.680628</speed><course>102.572708</course><hAcc>0.882298</hAcc><vAcc>0.708555</vAcc></extensions></trkpt>
      <trkpt lon="-3.316753" lat="54.545799"><ele>285.307770</ele><time>2021-08-12T11:41:54Z</time><extensions><speed>0.660350</speed><course>107.161850</course><hAcc>0.882214</hAcc><vAcc>0.708213</vAcc></extensions></trkpt>
      <trkpt lon="-3.316762" lat="54.545797"><ele>285.139160</ele><time>2021-08-12T11:41:55Z</time><extensions><speed>0.643146</speed><course>105.046165</course><hAcc>0.882129</hAcc><vAcc>0.707854</vAcc></extensions></trkpt>
      <trkpt lon="-3.316771" lat="54.545794"><ele>284.972595</ele><time>2021-08-12T11:41:56Z</time><extensions><speed>0.630778</speed><course>107.406158</course><hAcc>0.882047</hAcc><vAcc>0.707499</vAcc></extensions></trkpt>
      <trkpt lon="-3.316779" lat="54.545791"><ele>284.807404</ele><time>2021-08-12T11:41:57Z</time><extensions><speed>0.623898</speed><course>115.429123</course><hAcc>0.881970</hAcc><vAcc>0.707169</vAcc></extensions></trkpt>
      <trkpt lon="-3.316787" lat="54.545788"><ele>284.643372</ele><time>2021-08-12T11:41:58Z</time><extensions><speed>0.623050</speed><course>116.147835</course><hAcc>0.881902</hAcc><vAcc>0.706882</vAcc></extensions></trkpt>
      <trkpt lon="-3.316795" lat="54.545785"><ele>284.480713</ele><time>2021-08-12T11:41:59Z</time><extensions><speed>0.629378</speed><course>117.699570</course><hAcc>0.881845</hAcc><vAcc>0.706649</vAcc></extensions></trkpt>
      <trkpt lon="-3.316803" lat="54.545781"><ele>284.319977</ele><time>2021-08-12T11:42:00Z</time><extensions><speed>0.643121</speed><course>118.218575</course><hAcc>0.881803</hAcc><vAcc>0.706478</vAcc></extensions></trkpt>
      <trkpt lon="-3.316811" lat="54.545777"><ele>284.161743</ele><time>2021-08-12T11:42:01Z</time><extensions><speed>0.663784</speed><course>118.864105</course><hAcc>0.881778</hAcc><vAcc>0.706374</vAcc></extensions></trkpt>
      <trkpt lon="-3.316819" lat="54.545774"><ele>284.006775</ele><time>2021-08-12T11:42:02Z</time><extensions><speed>0.691128</speed><course>117.180046</course><hAcc>0.881770</hAcc><vAcc>0.706339</vAcc></extensions></trkpt>
      <trkpt lon="-3.316827" lat="54.545769"><ele>283.855927</ele><time>2021-08-12T11:42:03Z</time><extensions><speed>0.724902</speed><course>115.856689</course><hAcc>0.881782</hAcc><vAcc>0.706377</vAcc></extensions></trkpt>
      <trkpt lon="-3.316836" lat="54.545765"><ele>283.709656</ele><time>2021-08-12T11:42:04Z</time><extensions><speed>0.764010</speed><course>112.617844</course><hAcc>0.881813</hAcc><vAcc>0.706491</vAcc></extensions></trkpt>
      <trkpt lon="-3.316845" lat="54.545761"><ele>283.567505</ele><time>2021-08-12T11:42:05Z</time><extensions><speed>0.806942</speed><course>120.157761</course><hAcc>0.881863</hAcc><vAcc>0.706680</vAcc></extensions></trkpt>
      <trkpt lon="-3.316855" lat="54.545756"><ele>283.428162</ele><time>2021-08-12T11:42:06Z</time><extensions><speed>0.852171</speed><course>116.743965</course><hAcc>0.881932</hAcc><vAcc>0.706942</vAcc></extensions></trkpt>
      <trkpt lon="-3.316865" lat="54.545751"><ele>283.289520</ele><time>2021-08-12T11:42:07Z</time><extensions><speed>0.898562</speed><course>126.528450</course><hAcc>0.882016</hAcc><vAcc>0.707270</vAcc></extensions></trkpt>
      <trkpt lon="-3.316876" lat="54.545745"><ele>283.148926</ele><time>2021-08-12T11:42:08Z</time><extensions><speed>0.944158</speed><course>122.809067</course><hAcc>0.882114</hAcc><vAcc>0.707660</vAcc></extensions></trkpt>
      <trkpt lon="-3.316888" lat="54.545740"><ele>283.003510</ele><time>2021-08-12T11:42:09Z</time><extensions><speed>0.986625</speed><course>118.437454</course><hAcc>0.882222</hAcc><vAcc>0.708103</vAcc></extensions></trkpt>
      <trkpt lon="-3.316899" lat="54.545734"><ele>282.850952</ele><time>2021-08-12T11:42:10Z</time><extensions><speed>1.024510</speed><course>113.862648</course><hAcc>0.882338</hAcc><vAcc>0.708583</vAcc></extensions></trkpt>
      <trkpt lon="-3.316912" lat="54.545728"><ele>282.690277</ele><time>2021-08-12T11:42:11Z</time><extensions><speed>1.056378</speed><course>110.315605</course><hAcc>0.882459</hAcc><vAcc>0.709081</vAcc></extensions></trkpt>
      <trkpt lon="-3.316924" lat="54.545722"><ele>282.521729</ele><time>2021-08-12T11:42:12Z</time><extensions><speed>1.081613</speed><course>111.526596</course><hAcc>0.882580</hAcc><vAcc>0.709572</vAcc></extensions></trkpt>
      <trkpt lon="-3.316937" lat="54.545715"><ele>282.346771</ele><time>2021-08-12T11:42:13Z</time><extensions><speed>1.100678</speed><course>111.825790</course><hAcc>0.882700</hAcc><vAcc>0.710040</vAcc></extensions></trkpt>
      <trkpt lon="-3.316950" lat="54.545709"><ele>282.167664</ele><time>2021-08-12T11:42:14Z</time><extensions><speed>1.114012</speed><course>110.069481</course><hAcc>0.882816</hAcc><vAcc>0.710475</vAcc></extensions></trkpt>
      <trkpt lon="-3.316963" lat="54.545702"><ele>281.987000</ele><time>2021-08-12T11:42:15Z</time><extensions><speed>1.122801</speed><course>114.632622</course><hAcc>0.882926</hAcc><vAcc>0.710870</vAcc></extensions></trkpt>
      <trkpt lon="-3.316976" lat="54.545695"><ele>281.807220</ele><time>2021-08-12T11:42:16Z</time><extensions><speed>1.128479</speed><course>103.253258</course><hAcc>0.883028</hAcc><vAcc>0.711224</vAcc></extensions></trkpt>
      <trkpt lon="-3.316989" lat="54.545689"><ele>281.630615</ele><time>2021-08-12T11:42:17Z</time><extensions><speed>1.131751</speed><course>106.301743</course><hAcc>0.883121</hAcc><vAcc>0.711537</vAcc></extensions></trkpt>
      <trkpt lon="-3.317002" lat="54.545682"><ele>281.459229</ele><time>2021-08-12T11:42:18Z</time><extensions><speed>1.133616</speed><course>102.376541</course><hAcc>0.883205</hAcc><vAcc>0.711813</vAcc></extensions></trkpt>
      <trkpt lon="-3.317015" lat="54.545675"><ele>281.294556</ele><time>2021-08-12T11:42:19Z</time><extensions><speed>1.134479</speed><course>106.795837</course><hAcc>0.883279</hAcc><vAcc>0.712061</vAcc></extensions></trkpt>
      <trkpt lon="-3.317028" lat="54.545668"><ele>281.137451</ele><time>2021-08-12T11:42:20Z</time><extensions><speed>1.134087</speed><course>105.416672</course><hAcc>0.883342</hAcc><vAcc>0.712285</vAcc></extensions></trkpt>
      <trkpt lon="-3.317040" lat="54.545661"><ele>280.987610</ele><time>2021-08-12T11:42:21Z</time><extensions><speed>1.132106</speed><course>115.994911</course><hAcc>0.883393</hAcc><vAcc>0.712492</vAcc></extensions></trkpt>
      <trkpt lon="-3.317053" lat="54.545654"><ele>280.843567</ele><time>2021-08-12T11:42:22Z</time><extensions><speed>1.128580</speed><course>121.956070</course><hAcc>0.883431</hAcc><vAcc>0.712677</vAcc></extensions></trkpt>
      <trkpt lon="-3.317065" lat="54.545647"><ele>280.703674</ele><time>2021-08-12T11:42:23Z</time><extensions><speed>1.124014</speed><course>114.918808</course><hAcc>0.883455</hAcc><vAcc>0.712832</vAcc></extensions></trkpt>
      <trkpt lon="-3.317077" lat="54.545639"><ele>280.566803</ele><time>2021-08-12T11:42:24Z</time><extensions><speed>1.119488</speed><course>112.952827</course><hAcc>0.883465</hAcc><vAcc>0.712938</vAcc></extensions></trkpt>
      <trkpt lon="-3.317088" lat="54.545632"><ele>280.432190</ele><time>2021-08-12T11:42:25Z</time><extensions><speed>1.116946</speed><course>108.521141</course><hAcc>0.883460</hAcc><vAcc>0.712975</vAcc></extensions></trkpt>
      <trkpt lon="-3.317099" lat="54.545624"><ele>280.299347</ele><time>2021-08-12T11:42:26Z</time><extensions><speed>1.118258</speed><course>105.023331</course><hAcc>0.883442</hAcc><vAcc>0.712928</vAcc></extensions></trkpt>
      <trkpt lon="-3.317110" lat="54.545616"><ele>280.168365</ele><time>2021-08-12T11:42:27Z</time><extensions><speed>1.124700</speed><course>98.270523</course><hAcc>0.883412</hAcc><vAcc>0.712792</vAcc></extensions></trkpt>
      <trkpt lon="-3.317121" lat="54.545608"><ele>280.039490</ele><time>2021-08-12T11:42:28Z</time><extensions><speed>1.136152</speed><course>104.555389</course><hAcc>0.883373</hAcc><vAcc>0.712576</vAcc></extensions></trkpt>
      <trkpt lon="-3.317131" lat="54.545600"><ele>279.912903</ele><time>2021-08-12T11:42:29Z</time><extensions><speed>1.150987</speed><course>108.798698</course><hAcc>0.883325</hAcc><vAcc>0.712300</vAcc></extensions></trkpt>
      <trkpt lon="-3.317142" lat="54.545591"><ele>279.788666</ele><time>2021-08-12T11:42:30Z</time><extensions><speed>1.167000</speed><course>107.953148</course><hAcc>0.883273</hAcc><vAcc>0.711997</vAcc></extensions></trkpt>
      <trkpt lon="-3.317152" lat="54.545583"><ele>279.666809</ele><time>2021-08-12T11:42:31Z</time><extensions><speed>1.182392</speed><course>107.561462</course><hAcc>0.883218</hAcc><vAcc>0.711704</vAcc></extensions></trkpt>
      <trkpt lon="-3.317162" lat="54.545574"><ele>279.547638</ele><time>2021-08-12T11:42:32Z</time><extensions><speed>1.195691</speed><course>98.600151</course><hAcc>0.883163</hAcc><vAcc>0.711454</vAcc></extensions></trkpt>
      <trkpt lon="-3.317172" lat="54.545565"><ele>279.431335</ele><time>2021-08-12T11:42:33Z</time><extensions><speed>1.205395</speed><course>106.179245</course><hAcc>0.883110</hAcc><vAcc>0.711260</vAcc></extensions></trkpt>
      <trkpt lon="-3.317183" lat="54.545556"><ele>279.317993</ele><time>2021-08-12T11:42:34Z</time><extensions><speed>1.210915</speed><course>99.736237</course><hAcc>0.883060</hAcc><vAcc>0.711117</vAcc></extensions></trkpt>
      <trkpt lon="-3.317193" lat="54.545547"><ele>279.207458</ele><time>2021-08-12T11:42:35Z</time><extensions><speed>1.212091</speed><course>102.027924</course><hAcc>0.883013</hAcc><vAcc>0.711002</vAcc></extensions></trkpt>
      <trkpt lon="-3.317203" lat="54.545538"><ele>279.099457</ele><time>2021-08-12T11:42:36Z</time><extensions><speed>1.208780</speed><course>94.072990</course><hAcc>0.882970</hAcc><vAcc>0.710893</vAcc></extensions></trkpt>
      <trkpt lon="-3.317214" lat="54.545529"><ele>278.994171</ele><time>2021-08-12T11:42:37Z</time><extensions><speed>1.201308</speed><course>96.463219</course><hAcc>0.882929</hAcc><vAcc>0.710773</vAcc></extensions></trkpt>
      <trkpt lon="-3.317225" lat="54.545520"><ele>278.892609</ele><time>2021-08-12T11:42:38Z</time><extensions><speed>1.189845</speed><course>96.928070</course><hAcc>0.882887</hAcc><vAcc>0.710636</vAcc></extensions></trkpt>
      <trkpt lon="-3.317235" lat="54.545511"><ele>278.795593</ele><time>2021-08-12T11:42:39Z</time><extensions><speed>1.173645</speed><course>85.766655</course><hAcc>0.882843</hAcc><vAcc>0.710478</vAcc></extensions></trkpt>
      <trkpt lon="-3.317246" lat="54.545503"><ele>278.703735</ele><time>2021-08-12T11:42:40Z</time><extensions><speed>1.151469</speed><course>93.944389</course><hAcc>0.882795</hAcc><vAcc>0.710296</vAcc></extensions></trkpt>
      <trkpt lon="-3.317256" lat="54.545495"><ele>278.617554</ele><time>2021-08-12T11:42:41Z</time><extensions><speed>1.122844</speed><course>96.280258</course><hAcc>0.882743</hAcc><vAcc>0.710088</vAcc></extensions></trkpt>
      <trkpt lon="-3.317267" lat="54.545487"><ele>278.538208</ele><time>2021-08-12T11:42:42Z</time><extensions><speed>1.088148</speed><course>103.229439</course><hAcc>0.882685</hAcc><vAcc>0.709854</vAcc></extensions></trkpt>
      <trkpt lon="-3.317277" lat="54.545479"><ele>278.466827</ele><time>2021-08-12T11:42:43Z</time><extensions><speed>1.047490</speed><course>100.069313</course><hAcc>0.882622</hAcc><vAcc>0.709595</vAcc></extensions></trkpt>
      <trkpt lon="-3.317287" lat="54.545472"><ele>278.404144</ele><time>2021-08-12T11:42:44Z</time><extensions><speed>1.000545</speed><course>107.704430</course><hAcc>0.882556</hAcc><vAcc>0.709319</vAcc></extensions></trkpt>
      <trkpt lon="-3.317296" lat="54.545465"><ele>278.350769</ele><time>2021-08-12T11:42:45Z</time><extensions><speed>0.946796</speed><course>102.019516</course><hAcc>0.882490</hAcc><vAcc>0.709035</vAcc></extensions></trkpt>
      <trkpt lon="-3.317304" lat="54.545458"><ele>278.307404</ele><time>2021-08-12T11:42:46Z</time><extensions><speed>0.885576</speed><course>101.188896</course><hAcc>0.882428</hAcc><vAcc>0.708756</vAcc></extensions></trkpt>
      <trkpt lon="-3.317312" lat="54.545452"><ele>278.274231</ele><time>2021-08-12T11:42:47Z</time><extensions><speed>0.817075</speed><course>101.655106</course><hAcc>0.882378</hAcc><vAcc>0.708489</vAcc></extensions></trkpt>
      <trkpt lon="-3.317319" lat="54.545447"><ele>278.250854</ele><time>2021-08-12T11:42:48Z</time><extensions><speed>0.741984</speed><course>97.512695</course><hAcc>0.882351</hAcc><vAcc>0.708236</vAcc></extensions></trkpt>
      <trkpt lon="-3.317325" lat="54.545441"><ele>278.236481</ele><time>2021-08-12T11:42:49Z</time><extensions><speed>0.661133</speed><course>96.923676</course><hAcc>0.882362</hAcc><vAcc>0.707994</vAcc></extensions></trkpt>
      <trkpt lon="-3.317330" lat="54.545437"><ele>278.229675</ele><time>2021-08-12T11:42:50Z</time><extensions><speed>0.576334</speed><course>96.356850</course><hAcc>0.882435</hAcc><vAcc>0.707753</vAcc></extensions></trkpt>
      <trkpt lon="-3.317334" lat="54.545432"><ele>278.228912</ele><time>2021-08-12T11:42:51Z</time><extensions><speed>0.490935</speed><course>95.959724</course><hAcc>0.882596</hAcc><vAcc>0.707507</vAcc></extensions></trkpt>
      <trkpt lon="-3.317337" lat="54.545429"><ele>278.233032</ele><time>2021-08-12T11:42:52Z</time><extensions><speed>0.409336</speed><course>95.959717</course><hAcc>0.882881</hAcc><vAcc>0.707247</vAcc></extensions></trkpt>
      <trkpt lon="-3.317339" lat="54.545426"><ele>278.241150</ele><time>2021-08-12T11:42:53Z</time><extensions><speed>0.335810</speed><course>97.361824</course><hAcc>0.883328</hAcc><vAcc>0.706965</vAcc></extensions></trkpt>
      <trkpt lon="-3.317341" lat="54.545423"><ele>278.252136</ele><time>2021-08-12T11:42:54Z</time><extensions><speed>0.273444</speed><course>97.361824</course><hAcc>0.883976</hAcc><vAcc>0.706656</vAcc></extensions></trkpt>
      <trkpt lon="-3.317341" lat="54.545421"><ele>278.264404</ele><time>2021-08-12T11:42:55Z</time><extensions><speed>0.223807</speed><course>97.361809</course><hAcc>0.884856</hAcc><vAcc>0.706303</vAcc></extensions></trkpt>
      <trkpt lon="-3.317341" lat="54.545419"><ele>278.276215</ele><time>2021-08-12T11:42:56Z</time><extensions><speed>0.187188</speed><course>97.361801</course><hAcc>0.885985</hAcc><vAcc>0.705875</vAcc></extensions></trkpt>
      <trkpt lon="-3.317341" lat="54.545418"><ele>278.285767</ele><time>2021-08-12T11:42:57Z</time><extensions><speed>0.162066</speed><course>42.884136</course><hAcc>0.887350</hAcc><vAcc>0.705332</vAcc></extensions></trkpt>
      <trkpt lon="-3.317340" lat="54.545416"><ele>278.291107</ele><time>2021-08-12T11:42:58Z</time><extensions><speed>0.145531</speed><course>35.984764</course><hAcc>0.888897</hAcc><vAcc>0.704645</vAcc></extensions></trkpt>
      <trkpt lon="-3.317339" lat="54.545415"><ele>278.290283</ele><time>2021-08-12T11:42:59Z</time><extensions><speed>0.134656</speed><course>65.852417</course><hAcc>0.890520</hAcc><vAcc>0.703794</vAcc></extensions></trkpt>
      <trkpt lon="-3.317338" lat="54.545414"><ele>278.281219</ele><time>2021-08-12T11:43:00Z</time><extensions><speed>0.127865</speed><course>86.337746</course><hAcc>0.892059</hAcc><vAcc>0.702766</vAcc></extensions></trkpt>
      <trkpt lon="-3.317338" lat="54.545413"><ele>278.261810</ele><time>2021-08-12T11:43:01Z</time><extensions><speed>0.125524</speed><course>89.071770</course><hAcc>0.893319</hAcc><vAcc>0.701561</vAcc></extensions></trkpt>
      <trkpt lon="-3.317337" lat="54.545412"><ele>278.229950</ele><time>2021-08-12T11:43:02Z</time><extensions><speed>0.129585</speed><course>92.612312</course><hAcc>0.894114</hAcc><vAcc>0.700226</vAcc></extensions></trkpt>
      <trkpt lon="-3.317337" lat="54.545411"><ele>278.183746</ele><time>2021-08-12T11:43:03Z</time><extensions><speed>0.142043</speed><course>103.461632</course><hAcc>0.894366</hAcc><vAcc>0.698915</vAcc></extensions></trkpt>
      <trkpt lon="-3.317338" lat="54.545409"><ele>278.121735</ele><time>2021-08-12T11:43:04Z</time><extensions><speed>0.163603</speed><course>104.412865</course><hAcc>0.894265</hAcc><vAcc>0.698022</vAcc></extensions></trkpt>
      <trkpt lon="-3.317338" lat="54.545408"><ele>278.042877</ele><time>2021-08-12T11:43:05Z</time><extensions><speed>0.193423</speed><course>129.601685</course><hAcc>0.894537</hAcc><vAcc>0.698365</vAcc></extensions></trkpt>
      <trkpt lon="-3.317340" lat="54.545406"><ele>277.946777</ele><time>2021-08-12T11:43:06Z</time><extensions><speed>0.229640</speed><course>149.567169</course><hAcc>0.896806</hAcc><vAcc>0.701424</vAcc></extensions></trkpt>
      <trkpt lon="-3.317341" lat="54.545404"><ele>277.833557</ele><time>2021-08-12T11:43:07Z</time><extensions><speed>0.269945</speed><course>129.327728</course><hAcc>0.904058</hAcc><vAcc>0.709626</vAcc></extensions></trkpt>
      <trkpt lon="-3.317344" lat="54.545402"><ele>277.704163</ele><time>2021-08-12T11:43:08Z</time><extensions><speed>0.311625</speed><course>129.943619</course><hAcc>0.921090</hAcc><vAcc>0.726581</vAcc></extensions></trkpt>
      <trkpt lon="-3.317347" lat="54.545399"><ele>277.560669</ele><time>2021-08-12T11:43:09Z</time><extensions><speed>0.351156</speed><course>125.470825</course><hAcc>0.954679</hAcc><vAcc>0.757061</vAcc></extensions></trkpt>
      <trkpt lon="-3.317355" lat="54.545392"><ele>277.568512</ele><time>2021-08-12T11:43:10Z</time><extensions><speed>1.040133</speed><course>74.967865</course><hAcc>0.918315</hAcc><vAcc>0.725687</vAcc></extensions></trkpt>
      <trkpt lon="-3.317365" lat="54.545384"><ele>277.440643</ele><time>2021-08-12T11:43:11Z</time><extensions><speed>1.079213</speed><course>75.133301</course><hAcc>0.901109</hAcc><vAcc>0.709410</vAcc></extensions></trkpt>
      <trkpt lon="-3.317375" lat="54.545376"><ele>277.329529</ele><time>2021-08-12T11:43:12Z</time><extensions><speed>1.119190</speed><course>66.099251</course><hAcc>0.894793</hAcc><vAcc>0.702721</vAcc></extensions></trkpt>
      <trkpt lon="-3.317385" lat="54.545368"><ele>277.237091</ele><time>2021-08-12T11:43:13Z</time><extensions><speed>1.157801</speed><course>81.237114</course><hAcc>0.893862</hAcc><vAcc>0.701478</vAcc></extensions></trkpt>
      <trkpt lon="-3.317395" lat="54.545359"><ele>277.163483</ele><time>2021-08-12T11:43:14Z</time><extensions><speed>1.192941</speed><course>80.566093</course><hAcc>0.894892</hAcc><vAcc>0.702854</vAcc></extensions></trkpt>
      <trkpt lon="-3.317406" lat="54.545351"><ele>277.107117</ele><time>2021-08-12T11:43:15Z</time><extensions><speed>1.222411</speed><course>80.566109</course><hAcc>0.896036</hAcc><vAcc>0.705111</vAcc></extensions></trkpt>
      <trkpt lon="-3.317418" lat="54.545342"><ele>277.065002</ele><time>2021-08-12T11:43:16Z</time><extensions><speed>1.244303</speed><course>80.566093</course><hAcc>0.896489</hAcc><vAcc>0.707296</vAcc></extensions></trkpt>
      <trkpt lon="-3.317429" lat="54.545333"><ele>277.033020</ele><time>2021-08-12T11:43:17Z</time><extensions><speed>1.256776</speed><course>80.566093</course><hAcc>0.896062</hAcc><vAcc>0.708966</vAcc></extensions></trkpt>
      <trkpt lon="-3.317440" lat="54.545323"><ele>277.006927</ele><time>2021-08-12T11:43:18Z</time><extensions><speed>1.258666</speed><course>80.566093</course><hAcc>0.894882</hAcc><vAcc>0.709991</vAcc></extensions></trkpt>
      <trkpt lon="-3.317452" lat="54.545314"><ele>276.982910</ele><time>2021-08-12T11:43:19Z</time><extensions><speed>1.249626</speed><course>77.344681</course><hAcc>0.893200</hAcc><vAcc>0.710414</vAcc></extensions></trkpt>
      <trkpt lon="-3.317463" lat="54.545305"><ele>276.957214</ele><time>2021-08-12T11:43:20Z</time><extensions><speed>1.228926</speed><course>77.923714</course><hAcc>0.891279</hAcc><vAcc>0.710353</vAcc></extensions></trkpt>
      <trkpt lon="-3.317473" lat="54.545296"><ele>276.926178</ele><time>2021-08-12T11:43:21Z</time><extensions><speed>1.196666</speed><course>87.073212</course><hAcc>0.889342</hAcc><vAcc>0.709943</vAcc></extensions></trkpt>
      <trkpt lon="-3.317483" lat="54.545287"><ele>276.886261</ele><time>2021-08-12T11:43:22Z</time><extensions><speed>1.153957</speed><course>79.233902</course><hAcc>0.887544</hAcc><vAcc>0.709314</vAcc></extensions></trkpt>
      <trkpt lon="-3.317492" lat="54.545278"><ele>276.834076</ele><time>2021-08-12T11:43:23Z</time><extensions><speed>1.101877</speed><course>96.572746</course><hAcc>0.885979</hAcc><vAcc>0.708575</vAcc></extensions></trkpt>
      <trkpt lon="-3.317500" lat="54.545270"><ele>276.766174</ele><time>2021-08-12T11:43:24Z</time><extensions><speed>1.042311</speed><course>86.920219</course><hAcc>0.884688</hAcc><vAcc>0.707813</vAcc></extensions></trkpt>
      <trkpt lon="-3.317507" lat="54.545262"><ele>276.678833</ele><time>2021-08-12T11:43:25Z</time><extensions><speed>0.977891</speed><course>76.786201</course><hAcc>0.883672</hAcc><vAcc>0.707092</vAcc></extensions></trkpt>
      <trkpt lon="-3.317512" lat="54.545254"><ele>276.568634</ele><time>2021-08-12T11:43:26Z</time><extensions><speed>0.911750</speed><course>77.162971</course><hAcc>0.882909</hAcc><vAcc>0.706460</vAcc></extensions></trkpt>
      <trkpt lon="-3.317516" lat="54.545247"><ele>276.433105</ele><time>2021-08-12T11:43:27Z</time><extensions><speed>0.846750</speed><course>69.604996</course><hAcc>0.882365</hAcc><vAcc>0.705956</vAcc></extensions></trkpt>
      <trkpt lon="-3.317519" lat="54.545239"><ele>276.270386</ele><time>2021-08-12T11:43:28Z</time><extensions><speed>0.785515</speed><course>76.115456</course><hAcc>0.881999</hAcc><vAcc>0.705605</vAcc></extensions></trkpt>
      <trkpt lon="-3.317521" lat="54.545233"><ele>276.079346</ele><time>2021-08-12T11:43:29Z</time><extensions><speed>0.730527</speed><course>83.646278</course><hAcc>0.881775</hAcc><vAcc>0.705419</vAcc></extensions></trkpt>
      <trkpt lon="-3.317522" lat="54.545226"><ele>275.860107</ele><time>2021-08-12T11:43:30Z</time><extensions><speed>0.683043</speed><course>76.408623</course><hAcc>0.881659</hAcc><vAcc>0.705396</vAcc></extensions></trkpt>
      <trkpt lon="-3.317522" lat="54.545220"><ele>275.614136</ele><time>2021-08-12T11:43:31Z</time><extensions><speed>0.643035</speed><course>79.439453</course><hAcc>0.881623</hAcc><vAcc>0.705519</vAcc></extensions></trkpt>
      <trkpt lon="-3.317522" lat="54.545215"><ele>275.344208</ele><time>2021-08-12T11:43:32Z</time><extensions><speed>0.609499</speed><course>75.300941</course><hAcc>0.881645</hAcc><vAcc>0.705764</vAcc></extensions></trkpt>
      <trkpt lon="-3.317521" lat="54.545209"><ele>275.054535</ele><time>2021-08-12T11:43:33Z</time><extensions><speed>0.581535</speed><course>76.126534</course><hAcc>0.881707</hAcc><vAcc>0.706096</vAcc></extensions></trkpt>
      <trkpt lon="-3.317521" lat="54.545204"><ele>274.749786</ele><time>2021-08-12T11:43:34Z</time><extensions><speed>0.559834</speed><course>75.233688</course><hAcc>0.881795</hAcc><vAcc>0.706487</vAcc></extensions></trkpt>
      <trkpt lon="-3.317522" lat="54.545199"><ele>274.434937</ele><time>2021-08-12T11:43:35Z</time><extensions><speed>0.546887</speed><course>81.891060</course><hAcc>0.881898</hAcc><vAcc>0.706910</vAcc></extensions></trkpt>
      <trkpt lon="-3.317523" lat="54.545194"><ele>274.114746</ele><time>2021-08-12T11:43:36Z</time><extensions><speed>0.546221</speed><course>78.263519</course><hAcc>0.882008</hAcc><vAcc>0.707349</vAcc></extensions></trkpt>
      <trkpt lon="-3.317525" lat="54.545190"><ele>273.793762</ele><time>2021-08-12T11:43:37Z</time><extensions><speed>0.559557</speed><course>74.907532</course><hAcc>0.882118</hAcc><vAcc>0.707791</vAcc></extensions></trkpt>
      <trkpt lon="-3.317529" lat="54.545185"><ele>273.475769</ele><time>2021-08-12T11:43:38Z</time><extensions><speed>0.584545</speed><course>84.941742</course><hAcc>0.882222</hAcc><vAcc>0.708217</vAcc></extensions></trkpt>
      <trkpt lon="-3.317533" lat="54.545180"><ele>273.163666</ele><time>2021-08-12T11:43:39Z</time><extensions><speed>0.616417</speed><course>73.584358</course><hAcc>0.882315</hAcc><vAcc>0.708610</vAcc></extensions></trkpt>
      <trkpt lon="-3.317539" lat="54.545176"><ele>272.859039</ele><time>2021-08-12T11:43:40Z</time><extensions><speed>0.650348</speed><course>96.346313</course><hAcc>0.882393</hAcc><vAcc>0.708952</vAcc></extensions></trkpt>
      <trkpt lon="-3.317545" lat="54.545171"><ele>272.562378</ele><time>2021-08-12T11:43:41Z</time><extensions><speed>0.682097</speed><course>87.208282</course><hAcc>0.882453</hAcc><vAcc>0.709224</vAcc></extensions></trkpt>
      <trkpt lon="-3.317552" lat="54.545166"><ele>272.273315</ele><time>2021-08-12T11:43:42Z</time><extensions><speed>0.708948</speed><course>71.034035</course><hAcc>0.882492</hAcc><vAcc>0.709412</vAcc></extensions></trkpt>
      <trkpt lon="-3.317559" lat="54.545161"><ele>271.991028</ele><time>2021-08-12T11:43:43Z</time><extensions><speed>0.729559</speed><course>74.315559</course><hAcc>0.882509</hAcc><vAcc>0.709505</vAcc></extensions></trkpt>
      <trkpt lon="-3.317567" lat="54.545156"><ele>271.714447</ele><time>2021-08-12T11:43:44Z</time><extensions><speed>0.743249</speed><course>82.074326</course><hAcc>0.882502</hAcc><vAcc>0.709497</vAcc></extensions></trkpt>
      <trkpt lon="-3.317575" lat="54.545151"><ele>271.442902</ele><time>2021-08-12T11:43:45Z</time><extensions><speed>0.750889</speed><course>78.798851</course><hAcc>0.882472</hAcc><vAcc>0.709386</vAcc></extensions></trkpt>
      <trkpt lon="-3.317582" lat="54.545146"><ele>271.176361</ele><time>2021-08-12T11:43:46Z</time><extensions><speed>0.753834</speed><course>71.049065</course><hAcc>0.882420</hAcc><vAcc>0.709176</vAcc></extensions></trkpt>
      <trkpt lon="-3.317590" lat="54.545141"><ele>270.915039</ele><time>2021-08-12T11:43:47Z</time><extensions><speed>0.752918</speed><course>66.417450</course><hAcc>0.882351</hAcc><vAcc>0.708876</vAcc></extensions></trkpt>
      <trkpt lon="-3.317597" lat="54.545136"><ele>270.659210</ele><time>2021-08-12T11:43:48Z</time><extensions><speed>0.748806</speed><course>67.881187</course><hAcc>0.882267</hAcc><vAcc>0.708501</vAcc></extensions></trkpt>
      <trkpt lon="-3.317604" lat="54.545131"><ele>270.408905</ele><time>2021-08-12T11:43:49Z</time><extensions><speed>0.742351</speed><course>73.946594</course><hAcc>0.882173</hAcc><vAcc>0.708075</vAcc></extensions></trkpt>
      <trkpt lon="-3.317611" lat="54.545125"><ele>270.164093</ele><time>2021-08-12T11:43:50Z</time><extensions><speed>0.734695</speed><course>66.868568</course><hAcc>0.882076</hAcc><vAcc>0.707629</vAcc></extensions></trkpt>
      <trkpt lon="-3.317618" lat="54.545120"><ele>269.924744</ele><time>2021-08-12T11:43:51Z</time><extensions><speed>0.726873</speed><course>57.370388</course><hAcc>0.881979</hAcc><vAcc>0.707193</vAcc></extensions></trkpt>
      <trkpt lon="-3.317624" lat="54.545115"><ele>269.690735</ele><time>2021-08-12T11:43:52Z</time><extensions><speed>0.719993</speed><course>72.859169</course><hAcc>0.881887</hAcc><vAcc>0.706796</vAcc></extensions></trkpt>
      <trkpt lon="-3.317630" lat="54.545109"><ele>269.461914</ele><time>2021-08-12T11:43:53Z</time><extensions><speed>0.714814</speed><course>73.476959</course><hAcc>0.881807</hAcc><vAcc>0.706459</vAcc></extensions></trkpt>
      <trkpt lon="-3.317636" lat="54.545104"><ele>269.238281</ele><time>2021-08-12T11:43:54Z</time><extensions><speed>0.712107</speed><course>70.985191</course><hAcc>0.881740</hAcc><vAcc>0.706196</vAcc></extensions></trkpt>
      <trkpt lon="-3.317642" lat="54.545098"><ele>269.020264</ele><time>2021-08-12T11:43:55Z</time><extensions><speed>0.712878</speed><course>67.094063</course><hAcc>0.881689</hAcc><vAcc>0.706013</vAcc></extensions></trkpt>
      <trkpt lon="-3.317648" lat="54.545093"><ele>268.808502</ele><time>2021-08-12T11:43:56Z</time><extensions><speed>0.717365</speed><course>63.802017</course><hAcc>0.881655</hAcc><vAcc>0.705910</vAcc></extensions></trkpt>
      <trkpt lon="-3.317654" lat="54.545087"><ele>268.603088</ele><time>2021-08-12T11:43:57Z</time><extensions><speed>0.725221</speed><course>59.738853</course><hAcc>0.881639</hAcc><vAcc>0.705878</vAcc></extensions></trkpt>
      <trkpt lon="-3.317660" lat="54.545082"><ele>268.403595</ele><time>2021-08-12T11:43:58Z</time><extensions><speed>0.735733</speed><course>64.752533</course><hAcc>0.881638</hAcc><vAcc>0.705910</vAcc></extensions></trkpt>
      <trkpt lon="-3.317666" lat="54.545076"><ele>268.209473</ele><time>2021-08-12T11:43:59Z</time><extensions><speed>0.748284</speed><course>62.678837</course><hAcc>0.881652</hAcc><vAcc>0.705995</vAcc></extensions></trkpt>
      <trkpt lon="-3.317672" lat="54.545070"><ele>268.020111</ele><time>2021-08-12T11:44:00Z</time><extensions><speed>0.762628</speed><course>67.622025</course><hAcc>0.881678</hAcc><vAcc>0.706126</vAcc></extensions></trkpt>
      <trkpt lon="-3.317678" lat="54.545065"><ele>267.834961</ele><time>2021-08-12T11:44:01Z</time><extensions><speed>0.778733</speed><course>76.998230</course><hAcc>0.881713</hAcc><vAcc>0.706292</vAcc></extensions></trkpt>
      <trkpt lon="-3.317684" lat="54.545059"><ele>267.653168</ele><time>2021-08-12T11:44:02Z</time><extensions><speed>0.796929</speed><course>71.279175</course><hAcc>0.881754</hAcc><vAcc>0.706479</vAcc></extensions></trkpt>
      <trkpt lon="-3.317691" lat="54.545052"><ele>267.473755</ele><time>2021-08-12T11:44:03Z</time><extensions><speed>0.817998</speed><course>66.215858</course><hAcc>0.881798</hAcc><vAcc>0.706674</vAcc></extensions></trkpt>
      <trkpt lon="-3.317698" lat="54.545046"><ele>267.295990</ele><time>2021-08-12T11:44:04Z</time><extensions><speed>0.842654</speed><course>65.869171</course><hAcc>0.881845</hAcc><vAcc>0.706865</vAcc></extensions></trkpt>
      <trkpt lon="-3.317705" lat="54.545040"><ele>267.119354</ele><time>2021-08-12T11:44:05Z</time><extensions><speed>0.870938</speed><course>67.480362</course><hAcc>0.881891</hAcc><vAcc>0.707042</vAcc></extensions></trkpt>
      <trkpt lon="-3.317712" lat="54.545033"><ele>266.943237</ele><time>2021-08-12T11:44:06Z</time><extensions><speed>0.902506</speed><course>62.467888</course><hAcc>0.881936</hAcc><vAcc>0.707199</vAcc></extensions></trkpt>
      <trkpt lon="-3.317720" lat="54.545026"><ele>266.766846</ele><time>2021-08-12T11:44:07Z</time><extensions><speed>0.936198</speed><course>57.403885</course><hAcc>0.881979</hAcc><vAcc>0.707337</vAcc></extensions></trkpt>
      <trkpt lon="-3.317728" lat="54.545019"><ele>266.589417</ele><time>2021-08-12T11:44:08Z</time><extensions><speed>0.970076</speed><course>56.104736</course><hAcc>0.882021</hAcc><vAcc>0.707462</vAcc></extensions></trkpt>
      <trkpt lon="-3.317736" lat="54.545011"><ele>266.409912</ele><time>2021-08-12T11:44:09Z</time><extensions><speed>1.002849</speed><course>57.135769</course><hAcc>0.882061</hAcc><vAcc>0.707584</vAcc></extensions></trkpt>
      <trkpt lon="-3.317745" lat="54.545004"><ele>266.227203</ele><time>2021-08-12T11:44:10Z</time><extensions><speed>1.034149</speed><course>59.466648</course><hAcc>0.882099</hAcc><vAcc>0.707713</vAcc></extensions></trkpt>
      <trkpt lon="-3.317754" lat="54.544996"><ele>266.040131</ele><time>2021-08-12T11:44:11Z</time><extensions><speed>1.063625</speed><course>56.466339</course><hAcc>0.882136</hAcc><vAcc>0.707849</vAcc></extensions></trkpt>
      <trkpt lon="-3.317763" lat="54.544988"><ele>265.847809</ele><time>2021-08-12T11:44:12Z</time><extensions><speed>1.091050</speed><course>61.082169</course><hAcc>0.882173</hAcc><vAcc>0.707989</vAcc></extensions></trkpt>
      <trkpt lon="-3.317772" lat="54.544979"><ele>265.649536</ele><time>2021-08-12T11:44:13Z</time><extensions><speed>1.115924</speed><course>63.000797</course><hAcc>0.882210</hAcc><vAcc>0.708129</vAcc></extensions></trkpt>
      <trkpt lon="-3.317781" lat="54.544971"><ele>265.444397</ele><time>2021-08-12T11:44:14Z</time><extensions><speed>1.138119</speed><course>58.373146</course><hAcc>0.882247</hAcc><vAcc>0.708264</vAcc></extensions></trkpt>
      <trkpt lon="-3.317790" lat="54.544962"><ele>265.231750</ele><time>2021-08-12T11:44:15Z</time><extensions><speed>1.158611</speed><course>59.591164</course><hAcc>0.882285</hAcc><vAcc>0.708395</vAcc></extensions></trkpt>
      <trkpt lon="-3.317799" lat="54.544953"><ele>265.011627</ele><time>2021-08-12T11:44:16Z</time><extensions><speed>1.178096</speed><course>56.078835</course><hAcc>0.882324</hAcc><vAcc>0.708523</vAcc></extensions></trkpt>
      <trkpt lon="-3.317808" lat="54.544943"><ele>264.784424</ele><time>2021-08-12T11:44:17Z</time><extensions><speed>1.195919</speed><course>61.452141</course><hAcc>0.882362</hAcc><vAcc>0.708653</vAcc></extensions></trkpt>
      <trkpt lon="-3.317817" lat="54.544934"><ele>264.550964</ele><time>2021-08-12T11:44:18Z</time><extensions><speed>1.210814</speed><course>62.349373</course><hAcc>0.882400</hAcc><vAcc>0.708792</vAcc></extensions></trkpt>
      <trkpt lon="-3.317826" lat="54.544924"><ele>264.312195</ele><time>2021-08-12T11:44:19Z</time><extensions><speed>1.222184</speed><course>67.502327</course><hAcc>0.882436</hAcc><vAcc>0.708942</vAcc></extensions></trkpt>
      <trkpt lon="-3.317836" lat="54.544915"><ele>264.069397</ele><time>2021-08-12T11:44:20Z</time><extensions><speed>1.229895</speed><course>65.148994</course><hAcc>0.882470</hAcc><vAcc>0.709100</vAcc></extensions></trkpt>
      <trkpt lon="-3.317846" lat="54.544905"><ele>263.823914</ele><time>2021-08-12T11:44:21Z</time><extensions><speed>1.234040</speed><course>61.604351</course><hAcc>0.882502</hAcc><vAcc>0.709256</vAcc></extensions></trkpt>
      <trkpt lon="-3.317856" lat="54.544896"><ele>263.577148</ele><time>2021-08-12T11:44:22Z</time><extensions><speed>1.235494</speed><course>67.356651</course><hAcc>0.882530</hAcc><vAcc>0.709393</vAcc></extensions></trkpt>
      <trkpt lon="-3.317867" lat="54.544887"><ele>263.330658</ele><time>2021-08-12T11:44:23Z</time><extensions><speed>1.235563</speed><course>56.187717</course><hAcc>0.882555</hAcc><vAcc>0.709497</vAcc></extensions></trkpt>
      <trkpt lon="-3.317878" lat="54.544878"><ele>263.086060</ele><time>2021-08-12T11:44:24Z</time><extensions><speed>1.235416</speed><course>56.273357</course><hAcc>0.882577</hAcc><vAcc>0.709567</vAcc></extensions></trkpt>
      <trkpt lon="-3.317889" lat="54.544869"><ele>262.845093</ele><time>2021-08-12T11:44:25Z</time><extensions><speed>1.236144</speed><course>59.042984</course><hAcc>0.882596</hAcc><vAcc>0.709609</vAcc></extensions></trkpt>
      <trkpt lon="-3.317902" lat="54.544861"><ele>262.609406</ele><time>2021-08-12T11:44:26Z</time><extensions><speed>1.238985</speed><course>46.754299</course><hAcc>0.882614</hAcc><vAcc>0.709634</vAcc></extensions></trkpt>
      <trkpt lon="-3.317915" lat="54.544852"><ele>262.380554</ele><time>2021-08-12T11:44:27Z</time><extensions><speed>1.245314</speed><course>46.754295</course><hAcc>0.882631</hAcc><vAcc>0.709652</vAcc></extensions></trkpt>
      <trkpt lon="-3.317928" lat="54.544844"><ele>262.159882</ele><time>2021-08-12T11:44:28Z</time><extensions><speed>1.255264</speed><course>46.754295</course><hAcc>0.882650</hAcc><vAcc>0.709673</vAcc></extensions></trkpt>
      <trkpt lon="-3.317942" lat="54.544837"><ele>261.948303</ele><time>2021-08-12T11:44:29Z</time><extensions><speed>1.267182</speed><course>46.754295</course><hAcc>0.882673</hAcc><vAcc>0.709708</vAcc></extensions></trkpt>
      <trkpt lon="-3.317957" lat="54.544829"><ele>261.746155</ele><time>2021-08-12T11:44:30Z</time><extensions><speed>1.279322</speed><course>46.754295</course><hAcc>0.882701</hAcc><vAcc>0.709769</vAcc></extensions></trkpt>
      <trkpt lon="-3.317972" lat="54.544822"><ele>261.553192</ele><time>2021-08-12T11:44:31Z</time><extensions><speed>1.290247</speed><course>46.754295</course><hAcc>0.882736</hAcc><vAcc>0.709871</vAcc></extensions></trkpt>
      <trkpt lon="-3.317988" lat="54.544814"><ele>261.368713</ele><time>2021-08-12T11:44:32Z</time><extensions><speed>1.299005</speed><course>46.754295</course><hAcc>0.882777</hAcc><vAcc>0.710021</vAcc></extensions></trkpt>
      <trkpt lon="-3.318004" lat="54.544807"><ele>261.191559</ele><time>2021-08-12T11:44:33Z</time><extensions><speed>1.305840</speed><course>46.754292</course><hAcc>0.882823</hAcc><vAcc>0.710220</vAcc></extensions></trkpt>
      <trkpt lon="-3.318020" lat="54.544800"><ele>261.019928</ele><time>2021-08-12T11:44:34Z</time><extensions><speed>1.311200</speed><course>46.754295</course><hAcc>0.882874</hAcc><vAcc>0.710459</vAcc></extensions></trkpt>
      <trkpt lon="-3.318037" lat="54.544793"><ele>260.851837</ele><time>2021-08-12T11:44:35Z</time><extensions><speed>1.315851</speed><course>86.257805</course><hAcc>0.882927</hAcc><vAcc>0.710723</vAcc></extensions></trkpt>
      <trkpt lon="-3.318054" lat="54.544787"><ele>260.684998</ele><time>2021-08-12T11:44:36Z</time><extensions><speed>1.320326</speed><course>92.864906</course><hAcc>0.882980</hAcc><vAcc>0.710990</vAcc></extensions></trkpt>
      <trkpt lon="-3.318070" lat="54.544780"><ele>260.517120</ele><time>2021-08-12T11:44:37Z</time><extensions><speed>1.325329</speed><course>94.458534</course><hAcc>0.883030</hAcc><vAcc>0.711238</vAcc></extensions></trkpt>
      <trkpt lon="-3.318087" lat="54.544773"><ele>260.345917</ele><time>2021-08-12T11:44:38Z</time><extensions><speed>1.331622</speed><course>89.165138</course><hAcc>0.883075</hAcc><vAcc>0.711447</vAcc></extensions></trkpt>
      <trkpt lon="-3.318105" lat="54.544767"><ele>260.168701</ele><time>2021-08-12T11:44:39Z</time><extensions><speed>1.339212</speed><course>98.187202</course><hAcc>0.883112</hAcc><vAcc>0.711602</vAcc></extensions></trkpt>
      <trkpt lon="-3.318122" lat="54.544760"><ele>259.983002</ele><time>2021-08-12T11:44:40Z</time><extensions><speed>1.347812</speed><course>262.094696</course><hAcc>0.883142</hAcc><vAcc>0.711698</vAcc></extensions></trkpt>
      <trkpt lon="-3.318139" lat="54.544753"><ele>259.786865</ele><time>2021-08-12T11:44:41Z</time><extensions><speed>1.357014</speed><course>273.339569</course><hAcc>0.883164</hAcc><vAcc>0.711738</vAcc></extensions></trkpt>
      <trkpt lon="-3.318157" lat="54.544747"><ele>259.578705</ele><time>2021-08-12T11:44:42Z</time><extensions><speed>1.366493</speed><course>270.133057</course><hAcc>0.883179</hAcc><vAcc>0.711733</vAcc></extensions></trkpt>
      <trkpt lon="-3.318175" lat="54.544740"><ele>259.356750</ele><time>2021-08-12T11:44:43Z</time><extensions><speed>1.375141</speed><course>264.401459</course><hAcc>0.883186</hAcc><vAcc>0.711700</vAcc></extensions></trkpt>
      <trkpt lon="-3.318193" lat="54.544734"><ele>259.118439</ele><time>2021-08-12T11:44:44Z</time><extensions><speed>1.381057</speed><course>271.206299</course><hAcc>0.883189</hAcc><vAcc>0.711659</vAcc></extensions></trkpt>
      <trkpt lon="-3.318211" lat="54.544727"><ele>258.861176</ele><time>2021-08-12T11:44:45Z</time><extensions><speed>1.382619</speed><course>270.479279</course><hAcc>0.883188</hAcc><vAcc>0.711625</vAcc></extensions></trkpt>
      <trkpt lon="-3.318230" lat="54.544721"><ele>258.583954</ele><time>2021-08-12T11:44:46Z</time><extensions><speed>1.379274</speed><course>270.479279</course><hAcc>0.883186</hAcc><vAcc>0.711607</vAcc></extensions></trkpt>
      <trkpt lon="-3.318248" lat="54.544714"><ele>258.287842</ele><time>2021-08-12T11:44:47Z</time><extensions><speed>1.371624</speed><course>270.479279</course><hAcc>0.883186</hAcc><vAcc>0.711605</vAcc></extensions></trkpt>
      <trkpt lon="-3.318266" lat="54.544708"><ele>257.975952</ele><time>2021-08-12T11:44:48Z</time><extensions><speed>1.361122</speed><course>92.836548</course><hAcc>0.883188</hAcc><vAcc>0.711616</vAcc></extensions></trkpt>
      <trkpt lon="-3.318284" lat="54.544702"><ele>257.653198</ele><time>2021-08-12T11:44:49Z</time><extensions><speed>1.348971</speed><course>91.847809</course><hAcc>0.883195</hAcc><vAcc>0.711640</vAcc></extensions></trkpt>
      <trkpt lon="-3.318302" lat="54.544696"><ele>257.325775</ele><time>2021-08-12T11:44:50Z</time><extensions><speed>1.335236</speed><course>96.972961</course><hAcc>0.883207</hAcc><vAcc>0.711678</vAcc></extensions></trkpt>
      <trkpt lon="-3.318320" lat="54.544690"><ele>257.000305</ele><time>2021-08-12T11:44:51Z</time><extensions><speed>1.319068</speed><course>101.432434</course><hAcc>0.883225</hAcc><vAcc>0.711734</vAcc></extensions></trkpt>
      <trkpt lon="-3.318338" lat="54.544685"><ele>256.682556</ele><time>2021-08-12T11:44:52Z</time><extensions><speed>1.299757</speed><course>89.921867</course><hAcc>0.883248</hAcc><vAcc>0.711815</vAcc></extensions></trkpt>
      <trkpt lon="-3.318355" lat="54.544679"><ele>256.376801</ele><time>2021-08-12T11:44:53Z</time><extensions><speed>1.276830</speed><course>79.468422</course><hAcc>0.883276</hAcc><vAcc>0.711922</vAcc></extensions></trkpt>
      <trkpt lon="-3.318372" lat="54.544673"><ele>256.086090</ele><time>2021-08-12T11:44:54Z</time><extensions><speed>1.251012</speed><course>79.668663</course><hAcc>0.883309</hAcc><vAcc>0.712054</vAcc></extensions></trkpt>
      <trkpt lon="-3.318389" lat="54.544668"><ele>255.812393</ele><time>2021-08-12T11:44:55Z</time><extensions><speed>1.223676</speed><course>70.198914</course><hAcc>0.883347</hAcc><vAcc>0.712204</vAcc></extensions></trkpt>
      <trkpt lon="-3.318405" lat="54.544663"><ele>255.556427</ele><time>2021-08-12T11:44:56Z</time><extensions><speed>1.195940</speed><course>85.811096</course><hAcc>0.883387</hAcc><vAcc>0.712367</vAcc></extensions></trkpt>
      <trkpt lon="-3.318421" lat="54.544658"><ele>255.318024</ele><time>2021-08-12T11:44:57Z</time><extensions><speed>1.169009</speed><course>87.515213</course><hAcc>0.883429</hAcc><vAcc>0.712538</vAcc></extensions></trkpt>
      <trkpt lon="-3.318437" lat="54.544653"><ele>255.096115</ele><time>2021-08-12T11:44:58Z</time><extensions><speed>1.143332</speed><course>86.802406</course><hAcc>0.883472</hAcc><vAcc>0.712710</vAcc></extensions></trkpt>
      <trkpt lon="-3.318452" lat="54.544648"><ele>254.888412</ele><time>2021-08-12T11:44:59Z</time><extensions><speed>1.118449</speed><course>85.424927</course><hAcc>0.883514</hAcc><vAcc>0.712878</vAcc></extensions></trkpt>
      <trkpt lon="-3.318467" lat="54.544643"><ele>254.691589</ele><time>2021-08-12T11:45:00Z</time><extensions><speed>1.093343</speed><course>88.911957</course><hAcc>0.883552</hAcc><vAcc>0.713038</vAcc></extensions></trkpt>
      <trkpt lon="-3.318481" lat="54.544638"><ele>254.502274</ele><time>2021-08-12T11:45:01Z</time><extensions><speed>1.067385</speed><course>93.027184</course><hAcc>0.883586</hAcc><vAcc>0.713185</vAcc></extensions></trkpt>
      <trkpt lon="-3.318495" lat="54.544633"><ele>254.317886</ele><time>2021-08-12T11:45:02Z</time><extensions><speed>1.040275</speed><course>90.763535</course><hAcc>0.883613</hAcc><vAcc>0.713312</vAcc></extensions></trkpt>
      <trkpt lon="-3.318508" lat="54.544628"><ele>254.136658</ele><time>2021-08-12T11:45:03Z</time><extensions><speed>1.011965</speed><course>83.392509</course><hAcc>0.883633</hAcc><vAcc>0.713407</vAcc></extensions></trkpt>
      <trkpt lon="-3.318521" lat="54.544623"><ele>253.957047</ele><time>2021-08-12T11:45:04Z</time><extensions><speed>0.982796</speed><course>57.334152</course><hAcc>0.883644</hAcc><vAcc>0.713462</vAcc></extensions></trkpt>
      <trkpt lon="-3.318533" lat="54.544618"><ele>253.777176</ele><time>2021-08-12T11:45:05Z</time><extensions><speed>0.953492</speed><course>29.254333</course><hAcc>0.883645</hAcc><vAcc>0.713469</vAcc></extensions></trkpt>
      <trkpt lon="-3.318545" lat="54.544613"><ele>253.595078</ele><time>2021-08-12T11:45:06Z</time><extensions><speed>0.924951</speed><course>29.254333</course><hAcc>0.883636</hAcc><vAcc>0.713430</vAcc></extensions></trkpt>
      <trkpt lon="-3.318556" lat="54.544607"><ele>253.409119</ele><time>2021-08-12T11:45:07Z</time><extensions><speed>0.897721</speed><course>29.254333</course><hAcc>0.883615</hAcc><vAcc>0.713347</vAcc></extensions></trkpt>
      <trkpt lon="-3.318567" lat="54.544602"><ele>253.218338</ele><time>2021-08-12T11:45:08Z</time><extensions><speed>0.871981</speed><course>29.254332</course><hAcc>0.883583</hAcc><vAcc>0.713226</vAcc></extensions></trkpt>
      <trkpt lon="-3.318576" lat="54.544597"><ele>253.022766</ele><time>2021-08-12T11:45:09Z</time><extensions><speed>0.847805</speed><course>29.254333</course><hAcc>0.883539</hAcc><vAcc>0.713069</vAcc></extensions></trkpt>
      <trkpt lon="-3.318586" lat="54.544592"><ele>252.822922</ele><time>2021-08-12T11:45:10Z</time><extensions><speed>0.825021</speed><course>29.254332</course><hAcc>0.883483</hAcc><vAcc>0.712875</vAcc></extensions></trkpt>
      <trkpt lon="-3.318595" lat="54.544587"><ele>252.619431</ele><time>2021-08-12T11:45:11Z</time><extensions><speed>0.803292</speed><course>29.254332</course><hAcc>0.883417</hAcc><vAcc>0.712640</vAcc></extensions></trkpt>
      <trkpt lon="-3.318603" lat="54.544581"><ele>252.412659</ele><time>2021-08-12T11:45:12Z</time><extensions><speed>0.782879</speed><course>29.254333</course><hAcc>0.883341</hAcc><vAcc>0.712364</vAcc></extensions></trkpt>
      <trkpt lon="-3.318610" lat="54.544576"><ele>252.202850</ele><time>2021-08-12T11:45:13Z</time><extensions><speed>0.764663</speed><course>29.254333</course><hAcc>0.883257</hAcc><vAcc>0.712048</vAcc></extensions></trkpt>
      <trkpt lon="-3.318617" lat="54.544571"><ele>251.990585</ele><time>2021-08-12T11:45:14Z</time><extensions><speed>0.749474</speed><course>29.254332</course><hAcc>0.883168</hAcc><vAcc>0.711692</vAcc></extensions></trkpt>
      <trkpt lon="-3.318623" lat="54.544565"><ele>251.776855</ele><time>2021-08-12T11:45:15Z</time><extensions><speed>0.737928</speed><course>29.254333</course><hAcc>0.883073</hAcc><vAcc>0.711303</vAcc></extensions></trkpt>
      <trkpt lon="-3.318629" lat="54.544559"><ele>251.562836</ele><time>2021-08-12T11:45:16Z</time><extensions><speed>0.730188</speed><course>29.254337</course><hAcc>0.882976</hAcc><vAcc>0.710897</vAcc></extensions></trkpt>
      <trkpt lon="-3.318635" lat="54.544554"><ele>251.349319</ele><time>2021-08-12T11:45:17Z</time><extensions><speed>0.725544</speed><course>29.254337</course><hAcc>0.882875</hAcc><vAcc>0.710492</vAcc></extensions></trkpt>
      <trkpt lon="-3.318640" lat="54.544548"><ele>251.136520</ele><time>2021-08-12T11:45:18Z</time><extensions><speed>0.723202</speed><course>29.254339</course><hAcc>0.882770</hAcc><vAcc>0.710101</vAcc></extensions></trkpt>
      <trkpt lon="-3.318644" lat="54.544542"><ele>250.924286</ele><time>2021-08-12T11:45:19Z</time><extensions><speed>0.722595</speed><course>29.254337</course><hAcc>0.882662</hAcc><vAcc>0.709729</vAcc></extensions></trkpt>
      <trkpt lon="-3.318649" lat="54.544536"><ele>250.712021</ele><time>2021-08-12T11:45:20Z</time><extensions><speed>0.723081</speed><course>29.254339</course><hAcc>0.882549</hAcc><vAcc>0.709371</vAcc></extensions></trkpt>
      <trkpt lon="-3.318653" lat="54.544530"><ele>250.498672</ele><time>2021-08-12T11:45:21Z</time><extensions><speed>0.723963</speed><course>353.139893</course><hAcc>0.882430</hAcc><vAcc>0.709011</vAcc></extensions></trkpt>
      <trkpt lon="-3.318657" lat="54.544524"><ele>250.282852</ele><time>2021-08-12T11:45:22Z</time><extensions><speed>0.724901</speed><course>-1.000000</course><hAcc>0.882303</hAcc><vAcc>0.708627</vAcc></extensions></trkpt>
      <trkpt lon="-3.318660" lat="54.544517"><ele>250.063293</ele><time>2021-08-12T11:45:23Z</time><extensions><speed>0.726423</speed><course>-1.000000</course><hAcc>0.882166</hAcc><vAcc>0.708194</vAcc></extensions></trkpt>
      <trkpt lon="-3.318663" lat="54.544511"><ele>249.838821</ele><time>2021-08-12T11:45:24Z</time><extensions><speed>0.729065</speed><course>-1.000000</course><hAcc>0.882020</hAcc><vAcc>0.707694</vAcc></extensions></trkpt>
      <trkpt lon="-3.318665" lat="54.544505"><ele>249.608154</ele><time>2021-08-12T11:45:25Z</time><extensions><speed>0.732384</speed><course>-1.000000</course><hAcc>0.881863</hAcc><vAcc>0.707120</vAcc></extensions></trkpt>
      <trkpt lon="-3.318667" lat="54.544498"><ele>249.370010</ele><time>2021-08-12T11:45:26Z</time><extensions><speed>0.735892</speed><course>-1.000000</course><hAcc>0.881696</hAcc><vAcc>0.706475</vAcc></extensions></trkpt>
      <trkpt lon="-3.318669" lat="54.544492"><ele>249.123550</ele><time>2021-08-12T11:45:27Z</time><extensions><speed>0.739300</speed><course>-1.000000</course><hAcc>0.881521</hAcc><vAcc>0.705775</vAcc></extensions></trkpt>
      <trkpt lon="-3.318670" lat="54.544485"><ele>248.868484</ele><time>2021-08-12T11:45:28Z</time><extensions><speed>0.742128</speed><course>-1.000000</course><hAcc>0.881340</hAcc><vAcc>0.705040</vAcc></extensions></trkpt>
      <trkpt lon="-3.318671" lat="54.544478"><ele>248.604843</ele><time>2021-08-12T11:45:29Z</time><extensions><speed>0.744236</speed><course>-1.000000</course><hAcc>0.881156</hAcc><vAcc>0.704296</vAcc></extensions></trkpt>
      <trkpt lon="-3.318671" lat="54.544472"><ele>248.332565</ele><time>2021-08-12T11:45:30Z</time><extensions><speed>0.745688</speed><course>-1.000000</course><hAcc>0.880971</hAcc><vAcc>0.703570</vAcc></extensions></trkpt>
      <trkpt lon="-3.318672" lat="54.544465"><ele>248.051727</ele><time>2021-08-12T11:45:31Z</time><extensions><speed>0.746840</speed><course>-1.000000</course><hAcc>0.880787</hAcc><vAcc>0.702883</vAcc></extensions></trkpt>
      <trkpt lon="-3.318672" lat="54.544458"><ele>247.763062</ele><time>2021-08-12T11:45:32Z</time><extensions><speed>0.748238</speed><course>-1.000000</course><hAcc>0.880607</hAcc><vAcc>0.702242</vAcc></extensions></trkpt>
      <trkpt lon="-3.318673" lat="54.544452"><ele>247.467453</ele><time>2021-08-12T11:45:33Z</time><extensions><speed>0.750109</speed><course>74.830536</course><hAcc>0.880431</hAcc><vAcc>0.701642</vAcc></extensions></trkpt>
      <trkpt lon="-3.318672" lat="54.544445"><ele>247.165634</ele><time>2021-08-12T11:45:34Z</time><extensions><speed>0.752649</speed><course>62.161198</course><hAcc>0.880259</hAcc><vAcc>0.701069</vAcc></extensions></trkpt>
      <trkpt lon="-3.318672" lat="54.544438"><ele>246.858200</ele><time>2021-08-12T11:45:35Z</time><extensions><speed>0.755808</speed><course>66.043793</course><hAcc>0.880093</hAcc><vAcc>0.700508</vAcc></extensions></trkpt>
      <trkpt lon="-3.318671" lat="54.544431"><ele>246.545776</ele><time>2021-08-12T11:45:36Z</time><extensions><speed>0.759408</speed><course>75.803009</course><hAcc>0.879934</hAcc><vAcc>0.699950</vAcc></extensions></trkpt>
      <trkpt lon="-3.318670" lat="54.544425"><ele>246.229416</ele><time>2021-08-12T11:45:37Z</time><extensions><speed>0.763909</speed><course>76.191063</course><hAcc>0.879783</hAcc><vAcc>0.699393</vAcc></extensions></trkpt>
      <trkpt lon="-3.318668" lat="54.544418"><ele>245.911011</ele><time>2021-08-12T11:45:38Z</time><extensions><speed>0.770214</speed><course>76.349960</course><hAcc>0.879645</hAcc><vAcc>0.698844</vAcc></extensions></trkpt>
      <trkpt lon="-3.318665" lat="54.544411"><ele>245.592468</ele><time>2021-08-12T11:45:39Z</time><extensions><speed>0.779067</speed><course>78.477806</course><hAcc>0.879523</hAcc><vAcc>0.698325</vAcc></extensions></trkpt>
      <trkpt lon="-3.318662" lat="54.544404"><ele>245.275391</ele><time>2021-08-12T11:45:40Z</time><extensions><speed>0.790853</speed><course>75.070290</course><hAcc>0.879422</hAcc><vAcc>0.697868</vAcc></extensions></trkpt>
      <trkpt lon="-3.318658" lat="54.544397"><ele>244.960907</ele><time>2021-08-12T11:45:41Z</time><extensions><speed>0.805342</speed><course>69.086029</course><hAcc>0.879349</hAcc><vAcc>0.697511</vAcc></extensions></trkpt>
      <trkpt lon="-3.318653" lat="54.544391"><ele>244.649673</ele><time>2021-08-12T11:45:42Z</time><extensions><speed>0.821754</speed><course>68.949226</course><hAcc>0.879309</hAcc><vAcc>0.697288</vAcc></extensions></trkpt>
      <trkpt lon="-3.318648" lat="54.544384"><ele>244.342163</ele><time>2021-08-12T11:45:43Z</time><extensions><speed>0.838984</speed><course>71.686111</course><hAcc>0.879306</hAcc><vAcc>0.697227</vAcc></extensions></trkpt>
      <trkpt lon="-3.318642" lat="54.544377"><ele>244.038895</ele><time>2021-08-12T11:45:44Z</time><extensions><speed>0.855560</speed><course>76.597496</course><hAcc>0.879342</hAcc><vAcc>0.697345</vAcc></extensions></trkpt>
      <trkpt lon="-3.318636" lat="54.544370"><ele>243.740402</ele><time>2021-08-12T11:45:45Z</time><extensions><speed>0.869780</speed><course>90.005066</course><hAcc>0.879419</hAcc><vAcc>0.697650</vAcc></extensions></trkpt>
      <trkpt lon="-3.318628" lat="54.544364"><ele>243.447067</ele><time>2021-08-12T11:45:46Z</time><extensions><speed>0.880092</speed><course>83.948074</course><hAcc>0.879533</hAcc><vAcc>0.698133</vAcc></extensions></trkpt>
      <trkpt lon="-3.318621" lat="54.544357"><ele>243.158936</ele><time>2021-08-12T11:45:47Z</time><extensions><speed>0.885204</speed><course>76.996796</course><hAcc>0.879681</hAcc><vAcc>0.698768</vAcc></extensions></trkpt>
      <trkpt lon="-3.318613" lat="54.544350"><ele>242.875610</ele><time>2021-08-12T11:45:48Z</time><extensions><speed>0.884593</speed><course>79.507355</course><hAcc>0.879856</hAcc><vAcc>0.699515</vAcc></extensions></trkpt>
      <trkpt lon="-3.318605" lat="54.544344"><ele>242.596756</ele><time>2021-08-12T11:45:49Z</time><extensions><speed>0.878397</speed><course>72.096832</course><hAcc>0.880049</hAcc><vAcc>0.700328</vAcc></extensions></trkpt>
      <trkpt lon="-3.318596" lat="54.544338"><ele>242.322327</ele><time>2021-08-12T11:45:50Z</time><extensions><speed>0.866791</speed><course>80.368279</course><hAcc>0.880252</hAcc><vAcc>0.701163</vAcc></extensions></trkpt>
      <trkpt lon="-3.318588" lat="54.544332"><ele>242.052811</ele><time>2021-08-12T11:45:51Z</time><extensions><speed>0.850074</speed><course>78.982643</course><hAcc>0.880457</hAcc><vAcc>0.701988</vAcc></extensions></trkpt>
      <trkpt lon="-3.318579" lat="54.544326"><ele>241.789200</ele><time>2021-08-12T11:45:52Z</time><extensions><speed>0.828758</speed><course>81.075706</course><hAcc>0.880656</hAcc><vAcc>0.702769</vAcc></extensions></trkpt>
      <trkpt lon="-3.318571" lat="54.544321"><ele>241.532516</ele><time>2021-08-12T11:45:53Z</time><extensions><speed>0.803961</speed><course>81.007790</course><hAcc>0.880842</hAcc><vAcc>0.703480</vAcc></extensions></trkpt>
      <trkpt lon="-3.318563" lat="54.544316"><ele>241.283478</ele><time>2021-08-12T11:45:54Z</time><extensions><speed>0.778171</speed><course>78.272133</course><hAcc>0.881010</hAcc><vAcc>0.704100</vAcc></extensions></trkpt>
      <trkpt lon="-3.318555" lat="54.544311"><ele>241.042252</ele><time>2021-08-12T11:45:55Z</time><extensions><speed>0.754650</speed><course>73.069588</course><hAcc>0.881156</hAcc><vAcc>0.704620</vAcc></extensions></trkpt>
      <trkpt lon="-3.318547" lat="54.544306"><ele>240.808319</ele><time>2021-08-12T11:45:56Z</time><extensions><speed>0.736713</speed><course>77.189682</course><hAcc>0.881279</hAcc><vAcc>0.705042</vAcc></extensions></trkpt>
      <trkpt lon="-3.318539" lat="54.544301"><ele>240.580658</ele><time>2021-08-12T11:45:57Z</time><extensions><speed>0.726645</speed><course>75.197517</course><hAcc>0.881377</hAcc><vAcc>0.705372</vAcc></extensions></trkpt>
      <trkpt lon="-3.318532" lat="54.544296"><ele>240.357925</ele><time>2021-08-12T11:45:58Z</time><extensions><speed>0.724872</speed><course>67.733307</course><hAcc>0.881450</hAcc><vAcc>0.705615</vAcc></extensions></trkpt>
      <trkpt lon="-3.318524" lat="54.544291"><ele>240.138672</ele><time>2021-08-12T11:45:59Z</time><extensions><speed>0.730663</speed><course>69.123688</course><hAcc>0.881500</hAcc><vAcc>0.705775</vAcc></extensions></trkpt>
      <trkpt lon="-3.318516" lat="54.544287"><ele>239.921387</ele><time>2021-08-12T11:46:00Z</time><extensions><speed>0.742550</speed><course>71.299400</course><hAcc>0.881530</hAcc><vAcc>0.705858</vAcc></extensions></trkpt>
      <trkpt lon="-3.318508" lat="54.544282"><ele>239.704681</ele><time>2021-08-12T11:46:01Z</time><extensions><speed>0.758086</speed><course>77.479210</course><hAcc>0.881541</hAcc><vAcc>0.705871</vAcc></extensions></trkpt>
      <trkpt lon="-3.318499" lat="54.544277"><ele>239.487091</ele><time>2021-08-12T11:46:02Z</time><extensions><speed>0.775042</speed><course>68.623329</course><hAcc>0.881538</hAcc><vAcc>0.705826</vAcc></extensions></trkpt>
      <trkpt lon="-3.318490" lat="54.544272"><ele>239.267090</ele><time>2021-08-12T11:46:03Z</time><extensions><speed>0.792455</speed><course>63.866425</course><hAcc>0.881525</hAcc><vAcc>0.705735</vAcc></extensions></trkpt>
      <trkpt lon="-3.318482" lat="54.544267"><ele>239.043137</ele><time>2021-08-12T11:46:04Z</time><extensions><speed>0.809951</speed><course>76.291603</course><hAcc>0.881504</hAcc><vAcc>0.705613</vAcc></extensions></trkpt>
      <trkpt lon="-3.318472" lat="54.544262"><ele>238.813889</ele><time>2021-08-12T11:46:05Z</time><extensions><speed>0.826791</speed><course>71.777351</course><hAcc>0.881482</hAcc><vAcc>0.705477</vAcc></extensions></trkpt>
      <trkpt lon="-3.318463" lat="54.544257"><ele>238.578247</ele><time>2021-08-12T11:46:06Z</time><extensions><speed>0.841987</speed><course>76.476341</course><hAcc>0.881461</hAcc><vAcc>0.705346</vAcc></extensions></trkpt>
      <trkpt lon="-3.318453" lat="54.544252"><ele>238.335602</ele><time>2021-08-12T11:46:07Z</time><extensions><speed>0.855270</speed><course>63.346680</course><hAcc>0.881446</hAcc><vAcc>0.705239</vAcc></extensions></trkpt>
      <trkpt lon="-3.318443" lat="54.544247"><ele>238.085892</ele><time>2021-08-12T11:46:08Z</time><extensions><speed>0.867059</speed><course>60.883244</course><hAcc>0.881439</hAcc><vAcc>0.705172</vAcc></extensions></trkpt>
      <trkpt lon="-3.318433" lat="54.544242"><ele>237.829590</ele><time>2021-08-12T11:46:09Z</time><extensions><speed>0.877420</speed><course>66.100471</course><hAcc>0.881442</hAcc><vAcc>0.705158</vAcc></extensions></trkpt>
      <trkpt lon="-3.318423" lat="54.544236"><ele>237.567245</ele><time>2021-08-12T11:46:10Z</time><extensions><speed>0.885321</speed><course>66.284729</course><hAcc>0.881455</hAcc><vAcc>0.705204</vAcc></extensions></trkpt>
      <trkpt lon="-3.318412" lat="54.544231"><ele>237.299561</ele><time>2021-08-12T11:46:11Z</time><extensions><speed>0.889864</speed><course>70.183884</course><hAcc>0.881479</hAcc><vAcc>0.705311</vAcc></extensions></trkpt>
      <trkpt lon="-3.318402" lat="54.544226"><ele>237.027435</ele><time>2021-08-12T11:46:12Z</time><extensions><speed>0.890879</speed><course>69.091454</course><hAcc>0.881510</hAcc><vAcc>0.705476</vAcc></extensions></trkpt>
      <trkpt lon="-3.318391" lat="54.544221"><ele>236.751968</ele><time>2021-08-12T11:46:13Z</time><extensions><speed>0.888478</speed><course>67.595528</course><hAcc>0.881547</hAcc><vAcc>0.705683</vAcc></extensions></trkpt>
      <trkpt lon="-3.318381" lat="54.544216"><ele>236.474335</ele><time>2021-08-12T11:46:14Z</time><extensions><speed>0.882928</speed><course>69.079941</course><hAcc>0.881584</hAcc><vAcc>0.705908</vAcc></extensions></trkpt>
      <trkpt lon="-3.318370" lat="54.544211"><ele>236.195648</ele><time>2021-08-12T11:46:15Z</time><extensions><speed>0.874715</speed><course>67.638985</course><hAcc>0.881617</hAcc><vAcc>0.706120</vAcc></extensions></trkpt>
      <trkpt lon="-3.318360" lat="54.544206"><ele>235.917007</ele><time>2021-08-12T11:46:16Z</time><extensions><speed>0.864790</speed><course>67.902077</course><hAcc>0.881643</hAcc><vAcc>0.706290</vAcc></extensions></trkpt>
      <trkpt lon="-3.318350" lat="54.544201"><ele>235.639481</ele><time>2021-08-12T11:46:17Z</time><extensions><speed>0.853880</speed><course>68.213737</course><hAcc>0.881657</hAcc><vAcc>0.706393</vAcc></extensions></trkpt>
      <trkpt lon="-3.318340" lat="54.544196"><ele>235.363922</ele><time>2021-08-12T11:46:18Z</time><extensions><speed>0.842635</speed><course>58.646133</course><hAcc>0.881657</hAcc><vAcc>0.706416</vAcc></extensions></trkpt>
      <trkpt lon="-3.318331" lat="54.544190"><ele>235.090714</ele><time>2021-08-12T11:46:19Z</time><extensions><speed>0.832210</speed><course>60.787758</course><hAcc>0.881643</hAcc><vAcc>0.706352</vAcc></extensions></trkpt>
      <trkpt lon="-3.318322" lat="54.544185"><ele>234.819962</ele><time>2021-08-12T11:46:20Z</time><extensions><speed>0.824131</speed><course>59.107254</course><hAcc>0.881614</hAcc><vAcc>0.706208</vAcc></extensions></trkpt>
      <trkpt lon="-3.318313" lat="54.544180"><ele>234.551880</ele><time>2021-08-12T11:46:21Z</time><extensions><speed>0.819403</speed><course>59.308796</course><hAcc>0.881573</hAcc><vAcc>0.705997</vAcc></extensions></trkpt>
      <trkpt lon="-3.318304" lat="54.544175"><ele>234.287125</ele><time>2021-08-12T11:46:22Z</time><extensions><speed>0.818231</speed><course>63.536522</course><hAcc>0.881525</hAcc><vAcc>0.705742</vAcc></extensions></trkpt>
      <trkpt lon="-3.318295" lat="54.544170"><ele>234.026352</ele><time>2021-08-12T11:46:23Z</time><extensions><speed>0.820723</speed><course>64.110619</course><hAcc>0.881475</hAcc><vAcc>0.705467</vAcc></extensions></trkpt>
      <trkpt lon="-3.318286" lat="54.544165"><ele>233.769623</ele><time>2021-08-12T11:46:24Z</time><extensions><speed>0.826587</speed><course>57.783936</course><hAcc>0.881430</hAcc><vAcc>0.705199</vAcc></extensions></trkpt>
      <trkpt lon="-3.318276" lat="54.544159"><ele>233.516541</ele><time>2021-08-12T11:46:25Z</time><extensions><speed>0.835329</speed><course>62.673740</course><hAcc>0.881394</hAcc><vAcc>0.704970</vAcc></extensions></trkpt>
      <trkpt lon="-3.318267" lat="54.544154"><ele>233.266281</ele><time>2021-08-12T11:46:26Z</time><extensions><speed>0.845709</speed><course>68.268181</course><hAcc>0.881376</hAcc><vAcc>0.704818</vAcc></extensions></trkpt>
      <trkpt lon="-3.318257" lat="54.544149"><ele>233.017776</ele><time>2021-08-12T11:46:27Z</time><extensions><speed>0.855683</speed><course>59.735432</course><hAcc>0.881378</hAcc><vAcc>0.704776</vAcc></extensions></trkpt>
      <trkpt lon="-3.318246" lat="54.544144"><ele>232.769531</ele><time>2021-08-12T11:46:28Z</time><extensions><speed>0.863588</speed><course>59.192490</course><hAcc>0.881405</hAcc><vAcc>0.704866</vAcc></extensions></trkpt>
      <trkpt lon="-3.318236" lat="54.544140"><ele>232.519974</ele><time>2021-08-12T11:46:29Z</time><extensions><speed>0.869151</speed><course>60.825825</course><hAcc>0.881458</hAcc><vAcc>0.705092</vAcc></extensions></trkpt>
      <trkpt lon="-3.318225" lat="54.544135"><ele>232.267868</ele><time>2021-08-12T11:46:30Z</time><extensions><speed>0.872921</speed><course>62.921200</course><hAcc>0.881535</hAcc><vAcc>0.705440</vAcc></extensions></trkpt>
      <trkpt lon="-3.318214" lat="54.544131"><ele>232.012741</ele><time>2021-08-12T11:46:31Z</time><extensions><speed>0.875661</speed><course>59.145714</course><hAcc>0.881636</hAcc><vAcc>0.705885</vAcc></extensions></trkpt>
      <trkpt lon="-3.318202" lat="54.544127"><ele>231.754944</ele><time>2021-08-12T11:46:32Z</time><extensions><speed>0.878270</speed><course>54.852036</course><hAcc>0.881756</hAcc><vAcc>0.706398</vAcc></extensions></trkpt>
      <trkpt lon="-3.318191" lat="54.544123"><ele>231.495453</ele><time>2021-08-12T11:46:33Z</time><extensions><speed>0.880246</speed><course>52.958679</course><hAcc>0.881891</hAcc><vAcc>0.706951</vAcc></extensions></trkpt>
      <trkpt lon="-3.318179" lat="54.544119"><ele>231.235123</ele><time>2021-08-12T11:46:34Z</time><extensions><speed>0.879808</speed><course>51.642593</course><hAcc>0.882035</hAcc><vAcc>0.707524</vAcc></extensions></trkpt>
      <trkpt lon="-3.318167" lat="54.544115"><ele>230.974228</ele><time>2021-08-12T11:46:35Z</time><extensions><speed>0.875486</speed><course>50.915668</course><hAcc>0.882184</hAcc><vAcc>0.708100</vAcc></extensions></trkpt>
      <trkpt lon="-3.318155" lat="54.544111"><ele>230.712921</ele><time>2021-08-12T11:46:36Z</time><extensions><speed>0.867225</speed><course>43.517220</course><hAcc>0.882330</hAcc><vAcc>0.708664</vAcc></extensions></trkpt>
      <trkpt lon="-3.318143" lat="54.544108"><ele>230.451996</ele><time>2021-08-12T11:46:37Z</time><extensions><speed>0.856717</speed><course>53.213661</course><hAcc>0.882469</hAcc><vAcc>0.709203</vAcc></extensions></trkpt>
      <trkpt lon="-3.318131" lat="54.544104"><ele>230.193207</ele><time>2021-08-12T11:46:38Z</time><extensions><speed>0.845608</speed><course>42.672325</course><hAcc>0.882595</hAcc><vAcc>0.709704</vAcc></extensions></trkpt>
      <trkpt lon="-3.318120" lat="54.544101"><ele>229.938843</ele><time>2021-08-12T11:46:39Z</time><extensions><speed>0.834954</speed><course>57.842590</course><hAcc>0.882702</hAcc><vAcc>0.710148</vAcc></extensions></trkpt>
      <trkpt lon="-3.318108" lat="54.544097"><ele>229.691208</ele><time>2021-08-12T11:46:40Z</time><extensions><speed>0.825642</speed><course>54.432369</course><hAcc>0.882787</hAcc><vAcc>0.710517</vAcc></extensions></trkpt>
      <trkpt lon="-3.318097" lat="54.544094"><ele>229.452484</ele><time>2021-08-12T11:46:41Z</time><extensions><speed>0.818158</speed><course>53.099045</course><hAcc>0.882843</hAcc><vAcc>0.710785</vAcc></extensions></trkpt>
      <trkpt lon="-3.318086" lat="54.544090"><ele>229.224686</ele><time>2021-08-12T11:46:42Z</time><extensions><speed>0.812257</speed><course>52.709480</course><hAcc>0.882866</hAcc><vAcc>0.710929</vAcc></extensions></trkpt>
      <trkpt lon="-3.318075" lat="54.544087"><ele>229.009552</ele><time>2021-08-12T11:46:43Z</time><extensions><speed>0.806741</speed><course>55.566643</course><hAcc>0.882853</hAcc><vAcc>0.710925</vAcc></extensions></trkpt>
      <trkpt lon="-3.318065" lat="54.544083"><ele>228.808578</ele><time>2021-08-12T11:46:44Z</time><extensions><speed>0.799827</speed><course>50.999676</course><hAcc>0.882797</hAcc><vAcc>0.710759</vAcc></extensions></trkpt>
      <trkpt lon="-3.318055" lat="54.544079"><ele>228.622467</ele><time>2021-08-12T11:46:45Z</time><extensions><speed>0.790324</speed><course>49.932701</course><hAcc>0.882697</hAcc><vAcc>0.710420</vAcc></extensions></trkpt>
      <trkpt lon="-3.318045" lat="54.544075"><ele>228.451431</ele><time>2021-08-12T11:46:46Z</time><extensions><speed>0.777612</speed><course>44.103298</course><hAcc>0.882547</hAcc><vAcc>0.709903</vAcc></extensions></trkpt>
      <trkpt lon="-3.318035" lat="54.544071"><ele>228.295425</ele><time>2021-08-12T11:46:47Z</time><extensions><speed>0.761068</speed><course>35.959499</course><hAcc>0.882345</hAcc><vAcc>0.709202</vAcc></extensions></trkpt>
      <trkpt lon="-3.318026" lat="54.544067"><ele>228.154129</ele><time>2021-08-12T11:46:48Z</time><extensions><speed>0.740245</speed><course>30.952709</course><hAcc>0.882091</hAcc><vAcc>0.708315</vAcc></extensions></trkpt>
      <trkpt lon="-3.318017" lat="54.544062"><ele>228.026978</ele><time>2021-08-12T11:46:49Z</time><extensions><speed>0.714922</speed><course>43.709347</course><hAcc>0.881784</hAcc><vAcc>0.707238</vAcc></extensions></trkpt>
      <trkpt lon="-3.318009" lat="54.544058"><ele>227.913177</ele><time>2021-08-12T11:46:50Z</time><extensions><speed>0.684955</speed><course>37.574459</course><hAcc>0.881426</hAcc><vAcc>0.705971</vAcc></extensions></trkpt>
      <trkpt lon="-3.318002" lat="54.544054"><ele>227.811600</ele><time>2021-08-12T11:46:51Z</time><extensions><speed>0.650215</speed><course>40.028488</course><hAcc>0.881021</hAcc><vAcc>0.704516</vAcc></extensions></trkpt>
      <trkpt lon="-3.317995" lat="54.544050"><ele>227.720917</ele><time>2021-08-12T11:46:52Z</time><extensions><speed>0.610643</speed><course>39.088745</course><hAcc>0.880576</hAcc><vAcc>0.702886</vAcc></extensions></trkpt>
      <trkpt lon="-3.317989" lat="54.544046"><ele>227.639572</ele><time>2021-08-12T11:46:53Z</time><extensions><speed>0.565902</speed><course>38.227211</course><hAcc>0.880102</hAcc><vAcc>0.701102</vAcc></extensions></trkpt>
      <trkpt lon="-3.317983" lat="54.544043"><ele>227.566315</ele><time>2021-08-12T11:46:54Z</time><extensions><speed>0.516726</speed><course>38.580025</course><hAcc>0.879611</hAcc><vAcc>0.699203</vAcc></extensions></trkpt>
      <trkpt lon="-3.317978" lat="54.544039"><ele>227.499985</ele><time>2021-08-12T11:46:55Z</time><extensions><speed>0.465405</speed><course>36.225418</course><hAcc>0.879119</hAcc><vAcc>0.697248</vAcc></extensions></trkpt>
      <trkpt lon="-3.317974" lat="54.544036"><ele>227.438965</ele><time>2021-08-12T11:46:56Z</time><extensions><speed>0.413697</speed><course>36.482189</course><hAcc>0.878643</hAcc><vAcc>0.695313</vAcc></extensions></trkpt>
      <trkpt lon="-3.317970" lat="54.544034"><ele>227.381454</ele><time>2021-08-12T11:46:57Z</time><extensions><speed>0.362740</speed><course>45.117634</course><hAcc>0.878202</hAcc><vAcc>0.693491</vAcc></extensions></trkpt>
      <trkpt lon="-3.317966" lat="54.544031"><ele>227.325897</ele><time>2021-08-12T11:46:58Z</time><extensions><speed>0.313847</speed><course>40.176819</course><hAcc>0.877815</hAcc><vAcc>0.691883</vAcc></extensions></trkpt>
      <trkpt lon="-3.317963" lat="54.544029"><ele>227.270782</ele><time>2021-08-12T11:46:59Z</time><extensions><speed>0.268092</speed><course>42.588684</course><hAcc>0.877497</hAcc><vAcc>0.690581</vAcc></extensions></trkpt>
      <trkpt lon="-3.317960" lat="54.544028"><ele>227.214584</ele><time>2021-08-12T11:47:00Z</time><extensions><speed>0.226838</speed><course>41.771687</course><hAcc>0.877259</hAcc><vAcc>0.689649</vAcc></extensions></trkpt>
      <trkpt lon="-3.317958" lat="54.544027"><ele>227.156189</ele><time>2021-08-12T11:47:01Z</time><extensions><speed>0.192434</speed><course>41.372017</course><hAcc>0.877105</hAcc><vAcc>0.689103</vAcc></extensions></trkpt>
      <trkpt lon="-3.317955" lat="54.544026"><ele>227.095413</ele><time>2021-08-12T11:47:02Z</time><extensions><speed>0.168730</speed><course>37.017429</course><hAcc>0.877032</hAcc><vAcc>0.688928</vAcc></extensions></trkpt>
      <trkpt lon="-3.317953" lat="54.544026"><ele>227.032928</ele><time>2021-08-12T11:47:03Z</time><extensions><speed>0.161090</speed><course>28.588495</course><hAcc>0.877032</hAcc><vAcc>0.689075</vAcc></extensions></trkpt>
      <trkpt lon="-3.317950" lat="54.544026"><ele>226.969955</ele><time>2021-08-12T11:47:04Z</time><extensions><speed>0.171553</speed><course>39.512306</course><hAcc>0.877094</hAcc><vAcc>0.689476</vAcc></extensions></trkpt>
      <trkpt lon="-3.317948" lat="54.544027"><ele>226.908005</ele><time>2021-08-12T11:47:05Z</time><extensions><speed>0.196424</speed><course>38.955353</course><hAcc>0.877202</hAcc><vAcc>0.690049</vAcc></extensions></trkpt>
      <trkpt lon="-3.317945" lat="54.544028"><ele>226.848526</ele><time>2021-08-12T11:47:06Z</time><extensions><speed>0.230420</speed><course>35.270641</course><hAcc>0.877341</hAcc><vAcc>0.690712</vAcc></extensions></trkpt>
      <trkpt lon="-3.317942" lat="54.544029"><ele>226.792953</ele><time>2021-08-12T11:47:07Z</time><extensions><speed>0.269491</speed><course>38.302330</course><hAcc>0.877498</hAcc><vAcc>0.691394</vAcc></extensions></trkpt>
      <trkpt lon="-3.317938" lat="54.544031"><ele>226.742706</ele><time>2021-08-12T11:47:08Z</time><extensions><speed>0.310703</speed><course>40.976086</course><hAcc>0.877660</hAcc><vAcc>0.692049</vAcc></extensions></trkpt>
      <trkpt lon="-3.317935" lat="54.544033"><ele>226.699295</ele><time>2021-08-12T11:47:09Z</time><extensions><speed>0.351564</speed><course>40.718147</course><hAcc>0.877822</hAcc><vAcc>0.692655</vAcc></extensions></trkpt>
      <trkpt lon="-3.317931" lat="54.544035"><ele>226.664246</ele><time>2021-08-12T11:47:10Z</time><extensions><speed>0.389416</speed><course>40.437557</course><hAcc>0.877978</hAcc><vAcc>0.693211</vAcc></extensions></trkpt>
      <trkpt lon="-3.317927" lat="54.544038"><ele>226.639038</ele><time>2021-08-12T11:47:11Z</time><extensions><speed>0.421120</speed><course>38.315979</course><hAcc>0.878128</hAcc><vAcc>0.693712</vAcc></extensions></trkpt>
      <trkpt lon="-3.317922" lat="54.544041"><ele>226.625137</ele><time>2021-08-12T11:47:12Z</time><extensions><speed>0.443331</speed><course>28.668550</course><hAcc>0.878273</hAcc><vAcc>0.694155</vAcc></extensions></trkpt>
      <trkpt lon="-3.317918" lat="54.544044"><ele>226.623749</ele><time>2021-08-12T11:47:13Z</time><extensions><speed>0.453362</speed><course>31.392698</course><hAcc>0.878415</hAcc><vAcc>0.694555</vAcc></extensions></trkpt>
      <trkpt lon="-3.317913" lat="54.544047"><ele>226.635742</ele><time>2021-08-12T11:47:14Z</time><extensions><speed>0.449875</speed><course>32.848076</course><hAcc>0.878560</hAcc><vAcc>0.694957</vAcc></extensions></trkpt>
      <trkpt lon="-3.317909" lat="54.544050"><ele>226.661316</ele><time>2021-08-12T11:47:15Z</time><extensions><speed>0.433755</speed><course>38.096359</course><hAcc>0.878712</hAcc><vAcc>0.695417</vAcc></extensions></trkpt>
      <trkpt lon="-3.317905" lat="54.544053"><ele>226.699768</ele><time>2021-08-12T11:47:16Z</time><extensions><speed>0.408017</speed><course>27.737675</course><hAcc>0.878873</hAcc><vAcc>0.695982</vAcc></extensions></trkpt>
      <trkpt lon="-3.317901" lat="54.544056"><ele>226.749710</ele><time>2021-08-12T11:47:17Z</time><extensions><speed>0.376333</speed><course>38.820049</course><hAcc>0.879041</hAcc><vAcc>0.696667</vAcc></extensions></trkpt>
      <trkpt lon="-3.317898" lat="54.544059"><ele>226.809067</ele><time>2021-08-12T11:47:18Z</time><extensions><speed>0.342684</speed><course>40.137299</course><hAcc>0.879209</hAcc><vAcc>0.697436</vAcc></extensions></trkpt>
      <trkpt lon="-3.317896" lat="54.544061"><ele>226.875732</ele><time>2021-08-12T11:47:19Z</time><extensions><speed>0.310561</speed><course>44.560421</course><hAcc>0.879362</hAcc><vAcc>0.698208</vAcc></extensions></trkpt>
      <trkpt lon="-3.317893" lat="54.544063"><ele>226.948242</ele><time>2021-08-12T11:47:20Z</time><extensions><speed>0.282348</speed><course>41.574787</course><hAcc>0.879483</hAcc><vAcc>0.698881</vAcc></extensions></trkpt>
      <trkpt lon="-3.317891" lat="54.544066"><ele>227.025497</ele><time>2021-08-12T11:47:21Z</time><extensions><speed>0.259712</speed><course>37.402897</course><hAcc>0.879551</hAcc><vAcc>0.699354</vAcc></extensions></trkpt>
      <trkpt lon="-3.317890" lat="54.544068"><ele>227.106079</ele><time>2021-08-12T11:47:22Z</time><extensions><speed>0.243850</speed><course>38.445354</course><hAcc>0.879544</hAcc><vAcc>0.699539</vAcc></extensions></trkpt>
      <trkpt lon="-3.317889" lat="54.544070"><ele>227.188416</ele><time>2021-08-12T11:47:23Z</time><extensions><speed>0.235716</speed><course>32.932274</course><hAcc>0.879439</hAcc><vAcc>0.699358</vAcc></extensions></trkpt>
      <trkpt lon="-3.317888" lat="54.544072"><ele>227.271240</ele><time>2021-08-12T11:47:24Z</time><extensions><speed>0.235969</speed><course>27.701353</course><hAcc>0.879211</hAcc><vAcc>0.698740</vAcc></extensions></trkpt>
      <trkpt lon="-3.317887" lat="54.544074"><ele>227.353775</ele><time>2021-08-12T11:47:25Z</time><extensions><speed>0.244855</speed><course>28.233585</course><hAcc>0.878841</hAcc><vAcc>0.697621</vAcc></extensions></trkpt>
      <trkpt lon="-3.317886" lat="54.544076"><ele>227.435654</ele><time>2021-08-12T11:47:26Z</time><extensions><speed>0.262206</speed><course>30.003765</course><hAcc>0.878306</hAcc><vAcc>0.695945</vAcc></extensions></trkpt>
      <trkpt lon="-3.317885" lat="54.544079"><ele>227.516724</ele><time>2021-08-12T11:47:27Z</time><extensions><speed>0.287589</speed><course>35.586266</course><hAcc>0.877591</hAcc><vAcc>0.693663</vAcc></extensions></trkpt>
      <trkpt lon="-3.317884" lat="54.544081"><ele>227.596725</ele><time>2021-08-12T11:47:28Z</time><extensions><speed>0.320523</speed><course>41.034397</course><hAcc>0.876683</hAcc><vAcc>0.690730</vAcc></extensions></trkpt>
      <trkpt lon="-3.317883" lat="54.544084"><ele>227.675461</ele><time>2021-08-12T11:47:29Z</time><extensions><speed>0.360585</speed><course>43.040592</course><hAcc>0.875580</hAcc><vAcc>0.687110</vAcc></extensions></trkpt>
      <trkpt lon="-3.317882" lat="54.544088"><ele>227.752899</ele><time>2021-08-12T11:47:30Z</time><extensions><speed>0.407227</speed><course>49.550934</course><hAcc>0.874285</hAcc><vAcc>0.682779</vAcc></extensions></trkpt>
      <trkpt lon="-3.317881" lat="54.544091"><ele>227.829163</ele><time>2021-08-12T11:47:31Z</time><extensions><speed>0.459430</speed><course>62.069283</course><hAcc>0.872819</hAcc><vAcc>0.677741</vAcc></extensions></trkpt>
      <trkpt lon="-3.317879" lat="54.544096"><ele>227.904465</ele><time>2021-08-12T11:47:32Z</time><extensions><speed>0.515795</speed><course>68.512573</course><hAcc>0.871217</hAcc><vAcc>0.672061</vAcc></extensions></trkpt>
      <trkpt lon="-3.317876" lat="54.544100"><ele>227.978897</ele><time>2021-08-12T11:47:33Z</time><extensions><speed>0.574708</speed><course>76.544746</course><hAcc>0.869534</hAcc><vAcc>0.665908</vAcc></extensions></trkpt>
      <trkpt lon="-3.317873" lat="54.544105"><ele>228.052155</ele><time>2021-08-12T11:47:34Z</time><extensions><speed>0.633931</speed><course>91.471558</course><hAcc>0.867844</hAcc><vAcc>0.659565</vAcc></extensions></trkpt>
      <trkpt lon="-3.317869" lat="54.544111"><ele>228.123459</ele><time>2021-08-12T11:47:35Z</time><extensions><speed>0.690741</speed><course>103.707001</course><hAcc>0.866239</hAcc><vAcc>0.653412</vAcc></extensions></trkpt>
      <trkpt lon="-3.317865" lat="54.544117"><ele>228.191574</ele><time>2021-08-12T11:47:36Z</time><extensions><speed>0.742759</speed><course>102.240677</course><hAcc>0.864816</hAcc><vAcc>0.647870</vAcc></extensions></trkpt>
      <trkpt lon="-3.317859" lat="54.544123"><ele>228.255325</ele><time>2021-08-12T11:47:37Z</time><extensions><speed>0.788675</speed><course>109.008522</course><hAcc>0.863667</hAcc><vAcc>0.643332</vAcc></extensions></trkpt>
      <trkpt lon="-3.317853" lat="54.544129"><ele>228.314072</ele><time>2021-08-12T11:47:38Z</time><extensions><speed>0.828245</speed><course>120.687057</course><hAcc>0.862865</hAcc><vAcc>0.640117</vAcc></extensions></trkpt>
      <trkpt lon="-3.317846" lat="54.544135"><ele>228.367477</ele><time>2021-08-12T11:47:39Z</time><extensions><speed>0.861881</speed><course>122.518364</course><hAcc>0.862459</hAcc><vAcc>0.638431</vAcc></extensions></trkpt>
      <trkpt lon="-3.317837" lat="54.544142"><ele>228.415680</ele><time>2021-08-12T11:47:40Z</time><extensions><speed>0.890674</speed><course>116.435341</course><hAcc>0.862466</hAcc><vAcc>0.638348</vAcc></extensions></trkpt>
      <trkpt lon="-3.317828" lat="54.544148"><ele>228.459213</ele><time>2021-08-12T11:47:41Z</time><extensions><speed>0.916185</speed><course>123.806564</course><hAcc>0.862869</hAcc><vAcc>0.639793</vAcc></extensions></trkpt>
      <trkpt lon="-3.317817" lat="54.544153"><ele>228.498062</ele><time>2021-08-12T11:47:42Z</time><extensions><speed>0.940386</speed><course>121.279266</course><hAcc>0.863612</hAcc><vAcc>0.642549</vAcc></extensions></trkpt>
      <trkpt lon="-3.317806" lat="54.544159"><ele>228.530960</ele><time>2021-08-12T11:47:43Z</time><extensions><speed>0.964940</speed><course>122.295830</course><hAcc>0.864629</hAcc><vAcc>0.646353</vAcc></extensions></trkpt>
      <trkpt lon="-3.317793" lat="54.544163"><ele>228.555573</ele><time>2021-08-12T11:47:44Z</time><extensions><speed>0.990253</speed><course>116.485687</course><hAcc>0.865857</hAcc><vAcc>0.650962</vAcc></extensions></trkpt>
      <trkpt lon="-3.317780" lat="54.544168"><ele>228.568512</ele><time>2021-08-12T11:47:45Z</time><extensions><speed>1.016399</speed><course>120.837761</course><hAcc>0.867245</hAcc><vAcc>0.656180</vAcc></extensions></trkpt>
      <trkpt lon="-3.317765" lat="54.544172"><ele>228.566452</ele><time>2021-08-12T11:47:46Z</time><extensions><speed>1.043907</speed><course>121.691162</course><hAcc>0.868743</hAcc><vAcc>0.661813</vAcc></extensions></trkpt>
      <trkpt lon="-3.317750" lat="54.544175"><ele>228.547501</ele><time>2021-08-12T11:47:47Z</time><extensions><speed>1.072964</speed><course>120.429344</course><hAcc>0.870297</hAcc><vAcc>0.667633</vAcc></extensions></trkpt>
      <trkpt lon="-3.317734" lat="54.544178"><ele>228.511383</ele><time>2021-08-12T11:47:48Z</time><extensions><speed>1.103681</speed><course>127.922836</course><hAcc>0.871850</hAcc><vAcc>0.673389</vAcc></extensions></trkpt>
      <trkpt lon="-3.317717" lat="54.544181"><ele>228.459274</ele><time>2021-08-12T11:47:49Z</time><extensions><speed>1.135572</speed><course>122.773224</course><hAcc>0.873349</hAcc><vAcc>0.678856</vAcc></extensions></trkpt>
      <trkpt lon="-3.317700" lat="54.544183"><ele>228.393280</ele><time>2021-08-12T11:47:50Z</time><extensions><speed>1.167221</speed><course>127.410233</course><hAcc>0.874752</hAcc><vAcc>0.683867</vAcc></extensions></trkpt>
      <trkpt lon="-3.317682" lat="54.544185"><ele>228.315765</ele><time>2021-08-12T11:47:51Z</time><extensions><speed>1.197163</speed><course>126.293243</course><hAcc>0.876028</hAcc><vAcc>0.688321</vAcc></extensions></trkpt>
      <trkpt lon="-3.317664" lat="54.544187"><ele>228.229309</ele><time>2021-08-12T11:47:52Z</time><extensions><speed>1.223996</speed><course>113.773628</course><hAcc>0.877159</hAcc><vAcc>0.692177</vAcc></extensions></trkpt>
      <trkpt lon="-3.317645" lat="54.544189"><ele>228.136414</ele><time>2021-08-12T11:47:53Z</time><extensions><speed>1.246498</speed><course>111.597641</course><hAcc>0.878136</hAcc><vAcc>0.695436</vAcc></extensions></trkpt>
      <trkpt lon="-3.317626" lat="54.544190"><ele>228.039108</ele><time>2021-08-12T11:47:54Z</time><extensions><speed>1.263406</speed><course>118.242065</course><hAcc>0.878959</hAcc><vAcc>0.698129</vAcc></extensions></trkpt>
      <trkpt lon="-3.317606" lat="54.544192"><ele>227.938629</ele><time>2021-08-12T11:47:55Z</time><extensions><speed>1.275126</speed><course>121.318916</course><hAcc>0.879633</hAcc><vAcc>0.700301</vAcc></extensions></trkpt>
      <trkpt lon="-3.317587" lat="54.544193"><ele>227.835678</ele><time>2021-08-12T11:47:56Z</time><extensions><speed>1.283186</speed><course>126.571838</course><hAcc>0.880171</hAcc><vAcc>0.702005</vAcc></extensions></trkpt>
      <trkpt lon="-3.317567" lat="54.544195"><ele>227.730698</ele><time>2021-08-12T11:47:57Z</time><extensions><speed>1.289691</speed><course>116.053932</course><hAcc>0.880586</hAcc><vAcc>0.703296</vAcc></extensions></trkpt>
      <trkpt lon="-3.317547" lat="54.544197"><ele>227.624237</ele><time>2021-08-12T11:47:58Z</time><extensions><speed>1.296428</speed><course>122.553452</course><hAcc>0.880893</hAcc><vAcc>0.704227</vAcc></extensions></trkpt>
      <trkpt lon="-3.317527" lat="54.544199"><ele>227.517029</ele><time>2021-08-12T11:47:59Z</time><extensions><speed>1.303966</speed><course>115.362396</course><hAcc>0.881108</hAcc><vAcc>0.704848</vAcc></extensions></trkpt>
      <trkpt lon="-3.317507" lat="54.544201"><ele>227.409622</ele><time>2021-08-12T11:48:00Z</time><extensions><speed>1.312137</speed><course>120.016403</course><hAcc>0.881248</hAcc><vAcc>0.705210</vAcc></extensions></trkpt>
      <trkpt lon="-3.317487" lat="54.544203"><ele>227.302185</ele><time>2021-08-12T11:48:01Z</time><extensions><speed>1.320197</speed><course>131.521149</course><hAcc>0.881327</hAcc><vAcc>0.705363</vAcc></extensions></trkpt>
      <trkpt lon="-3.317467" lat="54.544205"><ele>227.194794</ele><time>2021-08-12T11:48:02Z</time><extensions><speed>1.327977</speed><course>124.976143</course><hAcc>0.881360</hAcc><vAcc>0.705355</vAcc></extensions></trkpt>
      <trkpt lon="-3.317447" lat="54.544207"><ele>227.087646</ele><time>2021-08-12T11:48:03Z</time><extensions><speed>1.335177</speed><course>123.546791</course><hAcc>0.881358</hAcc><vAcc>0.705235</vAcc></extensions></trkpt>
      <trkpt lon="-3.317427" lat="54.544210"><ele>226.980728</ele><time>2021-08-12T11:48:04Z</time><extensions><speed>1.340543</speed><course>116.699699</course><hAcc>0.881333</hAcc><vAcc>0.705049</vAcc></extensions></trkpt>
      <trkpt lon="-3.317406" lat="54.544212"><ele>226.873489</ele><time>2021-08-12T11:48:05Z</time><extensions><speed>1.343523</speed><course>112.924561</course><hAcc>0.881294</hAcc><vAcc>0.704835</vAcc></extensions></trkpt>
      <trkpt lon="-3.317386" lat="54.544214"><ele>226.765030</ele><time>2021-08-12T11:48:06Z</time><extensions><speed>1.344896</speed><course>117.858780</course><hAcc>0.881248</hAcc><vAcc>0.704623</vAcc></extensions></trkpt>
      <trkpt lon="-3.317366" lat="54.544216"><ele>226.654617</ele><time>2021-08-12T11:48:07Z</time><extensions><speed>1.345585</speed><course>111.630035</course><hAcc>0.881203</hAcc><vAcc>0.704430</vAcc></extensions></trkpt>
      <trkpt lon="-3.317345" lat="54.544218"><ele>226.541718</ele><time>2021-08-12T11:48:08Z</time><extensions><speed>1.345892</speed><course>115.453979</course><hAcc>0.881164</hAcc><vAcc>0.704267</vAcc></extensions></trkpt>
      <trkpt lon="-3.317325" lat="54.544220"><ele>226.425751</ele><time>2021-08-12T11:48:09Z</time><extensions><speed>1.345296</speed><course>108.625862</course><hAcc>0.881133</hAcc><vAcc>0.704143</vAcc></extensions></trkpt>
      <trkpt lon="-3.317304" lat="54.544222"><ele>226.305984</ele><time>2021-08-12T11:48:10Z</time><extensions><speed>1.343563</speed><course>116.435417</course><hAcc>0.881115</hAcc><vAcc>0.704062</vAcc></extensions></trkpt>
      <trkpt lon="-3.317284" lat="54.544224"><ele>226.181961</ele><time>2021-08-12T11:48:11Z</time><extensions><speed>1.339983</speed><course>112.323517</course><hAcc>0.881111</hAcc><vAcc>0.704029</vAcc></extensions></trkpt>
      <trkpt lon="-3.317263" lat="54.544226"><ele>226.053589</ele><time>2021-08-12T11:48:12Z</time><extensions><speed>1.333626</speed><course>117.491661</course><hAcc>0.881121</hAcc><vAcc>0.704049</vAcc></extensions></trkpt>
      <trkpt lon="-3.317243" lat="54.544228"><ele>225.921173</ele><time>2021-08-12T11:48:13Z</time><extensions><speed>1.324543</speed><course>120.293846</course><hAcc>0.881147</hAcc><vAcc>0.704126</vAcc></extensions></trkpt>
      <trkpt lon="-3.317223" lat="54.544230"><ele>225.785706</ele><time>2021-08-12T11:48:14Z</time><extensions><speed>1.312967</speed><course>115.591873</course><hAcc>0.881188</hAcc><vAcc>0.704266</vAcc></extensions></trkpt>
      <trkpt lon="-3.317203" lat="54.544232"><ele>225.648804</ele><time>2021-08-12T11:48:15Z</time><extensions><speed>1.299839</speed><course>116.468712</course><hAcc>0.881242</hAcc><vAcc>0.704472</vAcc></extensions></trkpt>
      <trkpt lon="-3.317183" lat="54.544234"><ele>225.512161</ele><time>2021-08-12T11:48:16Z</time><extensions><speed>1.286324</speed><course>116.627220</course><hAcc>0.881307</hAcc><vAcc>0.704741</vAcc></extensions></trkpt>
      <trkpt lon="-3.317164" lat="54.544237"><ele>225.377213</ele><time>2021-08-12T11:48:17Z</time><extensions><speed>1.272977</speed><course>115.487846</course><hAcc>0.881379</hAcc><vAcc>0.705061</vAcc></extensions></trkpt>
      <trkpt lon="-3.317145" lat="54.544239"><ele>225.245270</ele><time>2021-08-12T11:48:18Z</time><extensions><speed>1.260635</speed><course>110.303284</course><hAcc>0.881455</hAcc><vAcc>0.705409</vAcc></extensions></trkpt>
      <trkpt lon="-3.317126" lat="54.544241"><ele>225.117493</ele><time>2021-08-12T11:48:19Z</time><extensions><speed>1.250668</speed><course>107.900200</course><hAcc>0.881532</hAcc><vAcc>0.705761</vAcc></extensions></trkpt>
      <trkpt lon="-3.317107" lat="54.544244"><ele>224.995117</ele><time>2021-08-12T11:48:20Z</time><extensions><speed>1.243818</speed><course>104.901772</course><hAcc>0.881603</hAcc><vAcc>0.706088</vAcc></extensions></trkpt>
      <trkpt lon="-3.317088" lat="54.544247"><ele>224.879272</ele><time>2021-08-12T11:48:21Z</time><extensions><speed>1.240772</speed><course>102.625549</course><hAcc>0.881667</hAcc><vAcc>0.706368</vAcc></extensions></trkpt>
      <trkpt lon="-3.317070" lat="54.544249"><ele>224.771088</ele><time>2021-08-12T11:48:22Z</time><extensions><speed>1.241994</speed><course>101.615082</course><hAcc>0.881719</hAcc><vAcc>0.706583</vAcc></extensions></trkpt>
      <trkpt lon="-3.317052" lat="54.544253"><ele>224.671555</ele><time>2021-08-12T11:48:23Z</time><extensions><speed>1.247152</speed><course>104.820312</course><hAcc>0.881758</hAcc><vAcc>0.706722</vAcc></extensions></trkpt>
      <trkpt lon="-3.317033" lat="54.544256"><ele>224.580978</ele><time>2021-08-12T11:48:24Z</time><extensions><speed>1.255299</speed><course>97.837166</course><hAcc>0.881781</hAcc><vAcc>0.706786</vAcc></extensions></trkpt>
      <trkpt lon="-3.317014" lat="54.544259"><ele>224.498642</ele><time>2021-08-12T11:48:25Z</time><extensions><speed>1.264669</speed><course>99.518051</course><hAcc>0.881790</hAcc><vAcc>0.706779</vAcc></extensions></trkpt>
      <trkpt lon="-3.316996" lat="54.544263"><ele>224.422974</ele><time>2021-08-12T11:48:26Z</time><extensions><speed>1.273716</speed><course>105.468117</course><hAcc>0.881784</hAcc><vAcc>0.706713</vAcc></extensions></trkpt>
      <trkpt lon="-3.316977" lat="54.544266"><ele>224.351761</ele><time>2021-08-12T11:48:27Z</time><extensions><speed>1.281612</speed><course>105.021729</course><hAcc>0.881766</hAcc><vAcc>0.706604</vAcc></extensions></trkpt>
      <trkpt lon="-3.316958" lat="54.544269"><ele>224.282166</ele><time>2021-08-12T11:48:28Z</time><extensions><speed>1.288774</speed><course>105.854553</course><hAcc>0.881736</hAcc><vAcc>0.706468</vAcc></extensions></trkpt>
      <trkpt lon="-3.316939" lat="54.544273"><ele>224.211288</ele><time>2021-08-12T11:48:29Z</time><extensions><speed>1.296444</speed><course>116.038353</course><hAcc>0.881698</hAcc><vAcc>0.706317</vAcc></extensions></trkpt>
      <trkpt lon="-3.316919" lat="54.544275"><ele>224.136368</ele><time>2021-08-12T11:48:30Z</time><extensions><speed>1.305335</speed><course>116.622620</course><hAcc>0.881654</hAcc><vAcc>0.706155</vAcc></extensions></trkpt>
      <trkpt lon="-3.316899" lat="54.544278"><ele>224.054810</ele><time>2021-08-12T11:48:31Z</time><extensions><speed>1.314291</speed><course>116.023415</course><hAcc>0.881609</hAcc><vAcc>0.705981</vAcc></extensions></trkpt>
      <trkpt lon="-3.316879" lat="54.544280"><ele>223.964020</ele><time>2021-08-12T11:48:32Z</time><extensions><speed>1.321513</speed><course>111.053482</course><hAcc>0.881565</hAcc><vAcc>0.705799</vAcc></extensions></trkpt>
      <trkpt lon="-3.316859" lat="54.544282"><ele>223.861130</ele><time>2021-08-12T11:48:33Z</time><extensions><speed>1.325550</speed><course>109.683617</course><hAcc>0.881527</hAcc><vAcc>0.705617</vAcc></extensions></trkpt>
      <trkpt lon="-3.316839" lat="54.544284"><ele>223.742966</ele><time>2021-08-12T11:48:34Z</time><extensions><speed>1.325281</speed><course>107.838440</course><hAcc>0.881500</hAcc><vAcc>0.705454</vAcc></extensions></trkpt>
      <trkpt lon="-3.316819" lat="54.544285"><ele>223.606979</ele><time>2021-08-12T11:48:35Z</time><extensions><speed>1.320869</speed><course>110.196930</course><hAcc>0.881487</hAcc><vAcc>0.705333</vAcc></extensions></trkpt>
      <trkpt lon="-3.316798" lat="54.544285"><ele>223.451431</ele><time>2021-08-12T11:48:36Z</time><extensions><speed>1.313248</speed><course>111.548782</course><hAcc>0.881492</hAcc><vAcc>0.705283</vAcc></extensions></trkpt>
      <trkpt lon="-3.316778" lat="54.544286"><ele>223.275253</ele><time>2021-08-12T11:48:37Z</time><extensions><speed>1.303406</speed><course>110.420074</course><hAcc>0.881520</hAcc><vAcc>0.705327</vAcc></extensions></trkpt>
      <trkpt lon="-3.316758" lat="54.544286"><ele>223.077957</ele><time>2021-08-12T11:48:38Z</time><extensions><speed>1.292179</speed><course>99.619576</course><hAcc>0.881572</hAcc><vAcc>0.705483</vAcc></extensions></trkpt>
      <trkpt lon="-3.316738" lat="54.544285"><ele>222.859604</ele><time>2021-08-12T11:48:39Z</time><extensions><speed>1.279309</speed><course>107.102882</course><hAcc>0.881650</hAcc><vAcc>0.705760</vAcc></extensions></trkpt>
      <trkpt lon="-3.316719" lat="54.544285"><ele>222.620575</ele><time>2021-08-12T11:48:40Z</time><extensions><speed>1.263446</speed><course>98.831825</course><hAcc>0.881754</hAcc><vAcc>0.706156</vAcc></extensions></trkpt>
      <trkpt lon="-3.316699" lat="54.544284"><ele>222.361969</ele><time>2021-08-12T11:48:41Z</time><extensions><speed>1.245111</speed><course>99.864403</course><hAcc>0.881883</hAcc><vAcc>0.706666</vAcc></extensions></trkpt>
      <trkpt lon="-3.316680" lat="54.544283"><ele>222.085800</ele><time>2021-08-12T11:48:42Z</time><extensions><speed>1.226489</speed><course>99.165215</course><hAcc>0.882032</hAcc><vAcc>0.707274</vAcc></extensions></trkpt>
      <trkpt lon="-3.316661" lat="54.544282"><ele>221.794800</ele><time>2021-08-12T11:48:43Z</time><extensions><speed>1.209241</speed><course>106.876038</course><hAcc>0.882197</hAcc><vAcc>0.707960</vAcc></extensions></trkpt>
      <trkpt lon="-3.316643" lat="54.544281"><ele>221.492050</ele><time>2021-08-12T11:48:44Z</time><extensions><speed>1.193781</speed><course>100.224144</course><hAcc>0.882372</hAcc><vAcc>0.708699</vAcc></extensions></trkpt>
      <trkpt lon="-3.316625" lat="54.544280"><ele>221.180756</ele><time>2021-08-12T11:48:45Z</time><extensions><speed>1.179668</speed><course>97.870438</course><hAcc>0.882550</hAcc><vAcc>0.709459</vAcc></extensions></trkpt>
      <trkpt lon="-3.316607" lat="54.544279"><ele>220.864258</ele><time>2021-08-12T11:48:46Z</time><extensions><speed>1.166648</speed><course>109.047302</course><hAcc>0.882725</hAcc><vAcc>0.710207</vAcc></extensions></trkpt>
      <trkpt lon="-3.316589" lat="54.544278"><ele>220.546112</ele><time>2021-08-12T11:48:47Z</time><extensions><speed>1.155210</speed><course>111.386711</course><hAcc>0.882891</hAcc><vAcc>0.710905</vAcc></extensions></trkpt>
      <trkpt lon="-3.316571" lat="54.544277"><ele>220.229813</ele><time>2021-08-12T11:48:48Z</time><extensions><speed>1.146397</speed><course>110.131767</course><hAcc>0.883042</hAcc><vAcc>0.711520</vAcc></extensions></trkpt>
      <trkpt lon="-3.316553" lat="54.544276"><ele>219.918716</ele><time>2021-08-12T11:48:49Z</time><extensions><speed>1.140398</speed><course>109.748413</course><hAcc>0.883176</hAcc><vAcc>0.712029</vAcc></extensions></trkpt>
      <trkpt lon="-3.316536" lat="54.544275"><ele>219.615707</ele><time>2021-08-12T11:48:50Z</time><extensions><speed>1.137159</speed><course>116.453705</course><hAcc>0.883288</hAcc><vAcc>0.712422</vAcc></extensions></trkpt>
      <trkpt lon="-3.316518" lat="54.544274"><ele>219.322922</ele><time>2021-08-12T11:48:51Z</time><extensions><speed>1.136577</speed><course>111.019348</course><hAcc>0.883379</hAcc><vAcc>0.712703</vAcc></extensions></trkpt>
      <trkpt lon="-3.316501" lat="54.544273"><ele>219.041367</ele><time>2021-08-12T11:48:52Z</time><extensions><speed>1.137926</speed><course>106.996025</course><hAcc>0.883447</hAcc><vAcc>0.712883</vAcc></extensions></trkpt>
      <trkpt lon="-3.316483" lat="54.544272"><ele>218.770996</ele><time>2021-08-12T11:48:53Z</time><extensions><speed>1.139956</speed><course>104.594215</course><hAcc>0.883494</hAcc><vAcc>0.712978</vAcc></extensions></trkpt>
      <trkpt lon="-3.316466" lat="54.544271"><ele>218.511063</ele><time>2021-08-12T11:48:54Z</time><extensions><speed>1.142378</speed><course>101.351479</course><hAcc>0.883522</hAcc><vAcc>0.713009</vAcc></extensions></trkpt>
      <trkpt lon="-3.316448" lat="54.544270"><ele>218.260361</ele><time>2021-08-12T11:48:55Z</time><extensions><speed>1.145285</speed><course>105.952332</course><hAcc>0.883535</hAcc><vAcc>0.712994</vAcc></extensions></trkpt>
      <trkpt lon="-3.316431" lat="54.544269"><ele>218.017456</ele><time>2021-08-12T11:48:56Z</time><extensions><speed>1.148747</speed><course>113.138412</course><hAcc>0.883536</hAcc><vAcc>0.712949</vAcc></extensions></trkpt>
      <trkpt lon="-3.316413" lat="54.544268"><ele>217.780884</ele><time>2021-08-12T11:48:57Z</time><extensions><speed>1.153900</speed><course>112.944946</course><hAcc>0.883528</hAcc><vAcc>0.712889</vAcc></extensions></trkpt>
      <trkpt lon="-3.316395" lat="54.544267"><ele>217.549545</ele><time>2021-08-12T11:48:58Z</time><extensions><speed>1.161507</speed><course>108.292221</course><hAcc>0.883515</hAcc><vAcc>0.712823</vAcc></extensions></trkpt>
      <trkpt lon="-3.316377" lat="54.544267"><ele>217.322617</ele><time>2021-08-12T11:48:59Z</time><extensions><speed>1.171038</speed><course>108.436562</course><hAcc>0.883499</hAcc><vAcc>0.712757</vAcc></extensions></trkpt>
      <trkpt lon="-3.316359" lat="54.544266"><ele>217.099121</ele><time>2021-08-12T11:49:00Z</time><extensions><speed>1.180999</speed><course>102.445824</course><hAcc>0.883482</hAcc><vAcc>0.712696</vAcc></extensions></trkpt>
      <trkpt lon="-3.316341" lat="54.544265"><ele>216.877441</ele><time>2021-08-12T11:49:01Z</time><extensions><speed>1.189996</speed><course>99.628555</course><hAcc>0.883465</hAcc><vAcc>0.712641</vAcc></extensions></trkpt>
      <trkpt lon="-3.316322" lat="54.544265"><ele>216.655701</ele><time>2021-08-12T11:49:02Z</time><extensions><speed>1.197420</speed><course>103.656601</course><hAcc>0.883449</hAcc><vAcc>0.712594</vAcc></extensions></trkpt>
      <trkpt lon="-3.316304" lat="54.544265"><ele>216.432510</ele><time>2021-08-12T11:49:03Z</time><extensions><speed>1.203385</speed><course>97.309608</course><hAcc>0.883436</hAcc><vAcc>0.712553</vAcc></extensions></trkpt>
      <trkpt lon="-3.316285" lat="54.544264"><ele>216.207077</ele><time>2021-08-12T11:49:04Z</time><extensions><speed>1.207413</speed><course>95.308922</course><hAcc>0.883425</hAcc><vAcc>0.712517</vAcc></extensions></trkpt>
      <trkpt lon="-3.316266" lat="54.544264"><ele>215.978592</ele><time>2021-08-12T11:49:05Z</time><extensions><speed>1.208268</speed><course>105.665154</course><hAcc>0.883417</hAcc><vAcc>0.712484</vAcc></extensions></trkpt>
      <trkpt lon="-3.316248" lat="54.544264"><ele>215.746185</ele><time>2021-08-12T11:49:06Z</time><extensions><speed>1.205027</speed><course>120.238884</course><hAcc>0.883413</hAcc><vAcc>0.712456</vAcc></extensions></trkpt>
      <trkpt lon="-3.316229" lat="54.544264"><ele>215.509079</ele><time>2021-08-12T11:49:07Z</time><extensions><speed>1.197302</speed><course>108.474937</course><hAcc>0.883411</hAcc><vAcc>0.712437</vAcc></extensions></trkpt>
      <trkpt lon="-3.316211" lat="54.544264"><ele>215.266647</ele><time>2021-08-12T11:49:08Z</time><extensions><speed>1.185545</speed><course>104.059807</course><hAcc>0.883412</hAcc><vAcc>0.712429</vAcc></extensions></trkpt>
      <trkpt lon="-3.316193" lat="54.544264"><ele>215.018356</ele><time>2021-08-12T11:49:09Z</time><extensions><speed>1.170877</speed><course>102.572708</course><hAcc>0.883416</hAcc><vAcc>0.712435</vAcc></extensions></trkpt>
      <trkpt lon="-3.316175" lat="54.544264"><ele>214.763519</ele><time>2021-08-12T11:49:10Z</time><extensions><speed>1.155232</speed><course>107.161850</course><hAcc>0.883421</hAcc><vAcc>0.712456</vAcc></extensions></trkpt>
      <trkpt lon="-3.316157" lat="54.544264"><ele>214.501328</ele><time>2021-08-12T11:49:11Z</time><extensions><speed>1.140374</speed><course>105.046165</course><hAcc>0.883427</hAcc><vAcc>0.712491</vAcc></extensions></trkpt>
      <trkpt lon="-3.316139" lat="54.544264"><ele>214.231308</ele><time>2021-08-12T11:49:12Z</time><extensions><speed>1.127472</speed><course>107.406158</course><hAcc>0.883432</hAcc><vAcc>0.712536</vAcc></extensions></trkpt>
      <trkpt lon="-3.316122" lat="54.544264"><ele>213.953568</ele><time>2021-08-12T11:49:13Z</time><extensions><speed>1.117554</speed><course>115.429123</course><hAcc>0.883435</hAcc><vAcc>0.712582</vAcc></extensions></trkpt>
      <trkpt lon="-3.316105" lat="54.544263"><ele>213.668121</ele><time>2021-08-12T11:49:14Z</time><extensions><speed>1.110368</speed><course>116.147835</course><hAcc>0.883434</hAcc><vAcc>0.712615</vAcc></extensions></trkpt>
      <trkpt lon="-3.316088" lat="54.544263"><ele>213.374695</ele><time>2021-08-12T11:49:15Z</time><extensions><speed>1.105052</speed><course>117.699570</course><hAcc>0.883427</hAcc><vAcc>0.712623</vAcc></extensions></trkpt>
      <trkpt lon="-3.316071" lat="54.544262"><ele>213.072983</ele><time>2021-08-12T11:49:16Z</time><extensions><speed>1.101251</speed><course>118.218575</course><hAcc>0.883413</hAcc><vAcc>0.712599</vAcc></extensions></trkpt>
      <trkpt lon="-3.316054" lat="54.544261"><ele>212.763123</ele><time>2021-08-12T11:49:17Z</time><extensions><speed>1.098726</speed><course>118.864105</course><hAcc>0.883390</hAcc><vAcc>0.712536</vAcc></extensions></trkpt>
      <trkpt lon="-3.316037" lat="54.544260"><ele>212.445435</ele><time>2021-08-12T11:49:18Z</time><extensions><speed>1.096283</speed><course>117.180046</course><hAcc>0.883358</hAcc><vAcc>0.712426</vAcc></extensions></trkpt>
      <trkpt lon="-3.316020" lat="54.544259"><ele>212.120377</ele><time>2021-08-12T11:49:19Z</time><extensions><speed>1.092229</speed><course>115.856689</course><hAcc>0.883317</hAcc><vAcc>0.712265</vAcc></extensions></trkpt>
      <trkpt lon="-3.316003" lat="54.544258"><ele>211.788742</ele><time>2021-08-12T11:49:20Z</time><extensions><speed>1.086070</speed><course>112.617844</course><hAcc>0.883267</hAcc><vAcc>0.712050</vAcc></extensions></trkpt>
      <trkpt lon="-3.315987" lat="54.544257"><ele>211.451569</ele><time>2021-08-12T11:49:21Z</time><extensions><speed>1.078452</speed><course>120.157761</course><hAcc>0.883210</hAcc><vAcc>0.711790</vAcc></extensions></trkpt>
      <trkpt lon="-3.315970" lat="54.544256"><ele>211.109787</ele><time>2021-08-12T11:49:22Z</time><extensions><speed>1.070253</speed><course>116.743965</course><hAcc>0.883147</hAcc><vAcc>0.711497</vAcc></extensions></trkpt>
      <trkpt lon="-3.315954" lat="54.544255"><ele>210.764114</ele><time>2021-08-12T11:49:23Z</time><extensions><speed>1.062406</speed><course>126.528450</course><hAcc>0.883081</hAcc><vAcc>0.711191</vAcc></extensions></trkpt>
      <trkpt lon="-3.315938" lat="54.544253"><ele>210.415054</ele><time>2021-08-12T11:49:24Z</time><extensions><speed>1.055711</speed><course>122.809067</course><hAcc>0.883015</hAcc><vAcc>0.710889</vAcc></extensions></trkpt>
      <trkpt lon="-3.315922" lat="54.544252"><ele>210.063187</ele><time>2021-08-12T11:49:25Z</time><extensions><speed>1.050163</speed><course>118.437454</course><hAcc>0.882953</hAcc><vAcc>0.710605</vAcc></extensions></trkpt>
      <trkpt lon="-3.315906" lat="54.544251"><ele>209.709198</ele><time>2021-08-12T11:49:26Z</time><extensions><speed>1.045079</speed><course>113.862648</course><hAcc>0.882897</hAcc><vAcc>0.710355</vAcc></extensions></trkpt>
      <trkpt lon="-3.315889" lat="54.544251"><ele>209.353973</ele><time>2021-08-12T11:49:27Z</time><extensions><speed>1.039501</speed><course>110.315605</course><hAcc>0.882854</hAcc><vAcc>0.710150</vAcc></extensions></trkpt>
      <trkpt lon="-3.315874" lat="54.544250"><ele>208.998352</ele><time>2021-08-12T11:49:28Z</time><extensions><speed>1.032644</speed><course>111.526596</course><hAcc>0.882832</hAcc><vAcc>0.709999</vAcc></extensions></trkpt>
      <trkpt lon="-3.315858" lat="54.544250"><ele>208.643005</ele><time>2021-08-12T11:49:29Z</time><extensions><speed>1.024130</speed><course>111.825790</course><hAcc>0.882839</hAcc><vAcc>0.709906</vAcc></extensions></trkpt>
      <trkpt lon="-3.315842" lat="54.544249"><ele>208.288422</ele><time>2021-08-12T11:49:30Z</time><extensions><speed>1.014338</speed><course>110.069481</course><hAcc>0.882889</hAcc><vAcc>0.709869</vAcc></extensions></trkpt>
      <trkpt lon="-3.315826" lat="54.544250"><ele>207.934952</ele><time>2021-08-12T11:49:31Z</time><extensions><speed>1.004809</speed><course>114.632622</course><hAcc>0.883003</hAcc><vAcc>0.709879</vAcc></extensions></trkpt>
      <trkpt lon="-3.315811" lat="54.544250"><ele>207.582748</ele><time>2021-08-12T11:49:32Z</time><extensions><speed>0.995947</speed><course>103.253258</course><hAcc>0.883205</hAcc><vAcc>0.709927</vAcc></extensions></trkpt>
      <trkpt lon="-3.315796" lat="54.544251"><ele>207.232025</ele><time>2021-08-12T11:49:33Z</time><extensions><speed>0.987380</speed><course>106.301743</course><hAcc>0.883528</hAcc><vAcc>0.709994</vAcc></extensions></trkpt>
      <trkpt lon="-3.315781" lat="54.544252"><ele>206.883438</ele><time>2021-08-12T11:49:34Z</time><extensions><speed>0.978929</speed><course>102.376541</course><hAcc>0.884007</hAcc><vAcc>0.710066</vAcc></extensions></trkpt>
      <trkpt lon="-3.315766" lat="54.544253"><ele>206.537994</ele><time>2021-08-12T11:49:35Z</time><extensions><speed>0.969949</speed><course>106.795837</course><hAcc>0.884679</hAcc><vAcc>0.710137</vAcc></extensions></trkpt>
      <trkpt lon="-3.315751" lat="54.544255"><ele>206.196991</ele><time>2021-08-12T11:49:36Z</time><extensions><speed>0.960349</speed><course>105.416672</course><hAcc>0.885576</hAcc><vAcc>0.710215</vAcc></extensions></trkpt>
      <trkpt lon="-3.315737" lat="54.544257"><ele>205.861954</ele><time>2021-08-12T11:49:37Z</time><extensions><speed>0.950995</speed><course>115.994911</course><hAcc>0.886714</hAcc><vAcc>0.710315</vAcc></extensions></trkpt>
      <trkpt lon="-3.315722" lat="54.544259"><ele>205.534439</ele><time>2021-08-12T11:49:38Z</time><extensions><speed>0.942044</speed><course>121.956070</course><hAcc>0.888085</hAcc><vAcc>0.710455</vAcc></extensions></trkpt>
      <trkpt lon="-3.315709" lat="54.544261"><ele>205.215958</ele><time>2021-08-12T11:49:39Z</time><extensions><speed>0.932540</speed><course>114.918808</course><hAcc>0.889644</hAcc><vAcc>0.710642</vAcc></extensions></trkpt>
      <trkpt lon="-3.315695" lat="54.544264"><ele>204.907837</ele><time>2021-08-12T11:49:40Z</time><extensions><speed>0.921776</speed><course>112.952827</course><hAcc>0.891307</hAcc><vAcc>0.710878</vAcc></extensions></trkpt>
      <trkpt lon="-3.315682" lat="54.544267"><ele>204.611053</ele><time>2021-08-12T11:49:41Z</time><extensions><speed>0.909678</speed><course>108.521141</course><hAcc>0.892970</hAcc><vAcc>0.711156</vAcc></extensions></trkpt>
      <trkpt lon="-3.315669" lat="54.544269"><ele>204.326111</ele><time>2021-08-12T11:49:42Z</time><extensions><speed>0.897600</speed><course>105.023331</course><hAcc>0.894541</hAcc><vAcc>0.711460</vAcc></extensions></trkpt>
      <trkpt lon="-3.315656" lat="54.544272"><ele>204.052933</ele><time>2021-08-12T11:49:43Z</time><extensions><speed>0.886791</speed><course>98.270523</course><hAcc>0.895946</hAcc><vAcc>0.711768</vAcc></extensions></trkpt>
      <trkpt lon="-3.315643" lat="54.544275"><ele>203.790863</ele><time>2021-08-12T11:49:44Z</time><extensions><speed>0.877655</speed><course>104.555389</course><hAcc>0.897145</hAcc><vAcc>0.712052</vAcc></extensions></trkpt>
      <trkpt lon="-3.315631" lat="54.544278"><ele>203.538864</ele><time>2021-08-12T11:49:45Z</time><extensions><speed>0.870196</speed><course>108.798698</course><hAcc>0.898121</hAcc><vAcc>0.712286</vAcc></extensions></trkpt>
      <trkpt lon="-3.315618" lat="54.544282"><ele>203.295685</ele><time>2021-08-12T11:49:46Z</time><extensions><speed>0.864003</speed><course>107.953148</course><hAcc>0.898882</hAcc><vAcc>0.712450</vAcc></extensions></trkpt>
      <trkpt lon="-3.315606" lat="54.544285"><ele>203.059860</ele><time>2021-08-12T11:49:47Z</time><extensions><speed>0.858919</speed><course>107.561462</course><hAcc>0.899455</hAcc><vAcc>0.712535</vAcc></extensions></trkpt>
      <trkpt lon="-3.315594" lat="54.544288"><ele>202.830063</ele><time>2021-08-12T11:49:48Z</time><extensions><speed>0.855363</speed><course>98.600151</course><hAcc>0.899872</hAcc><vAcc>0.712537</vAcc></extensions></trkpt>
      <trkpt lon="-3.315583" lat="54.544292"><ele>202.605316</ele><time>2021-08-12T11:49:49Z</time><extensions><speed>0.853752</speed><course>106.179245</course><hAcc>0.900177</hAcc><vAcc>0.712467</vAcc></extensions></trkpt>
      <trkpt lon="-3.315571" lat="54.544295"><ele>202.385162</ele><time>2021-08-12T11:49:50Z</time><extensions><speed>0.854013</speed><course>99.736237</course><hAcc>0.900431</hAcc><vAcc>0.712341</vAcc></extensions></trkpt>
      <trkpt lon="-3.315559" lat="54.544299"><ele>202.169617</ele><time>2021-08-12T11:49:51Z</time><extensions><speed>0.855977</speed><course>102.027924</course><hAcc>0.900699</hAcc><vAcc>0.712183</vAcc></extensions></trkpt>
      <trkpt lon="-3.315547" lat="54.544302"><ele>201.959259</ele><time>2021-08-12T11:49:52Z</time><extensions><speed>0.859048</speed><course>94.072990</course><hAcc>0.901041</hAcc><vAcc>0.712016</vAcc></extensions></trkpt>
      <trkpt lon="-3.315535" lat="54.544306"><ele>201.754990</ele><time>2021-08-12T11:49:53Z</time><extensions><speed>0.861890</speed><course>96.463219</course><hAcc>0.901475</hAcc><vAcc>0.711861</vAcc></extensions></trkpt>
      <trkpt lon="-3.315524" lat="54.544309"><ele>201.557709</ele><time>2021-08-12T11:49:54Z</time><extensions><speed>0.863182</speed><course>96.928070</course><hAcc>0.901976</hAcc><vAcc>0.711730</vAcc></extensions></trkpt>
      <trkpt lon="-3.315512" lat="54.544313"><ele>201.368286</ele><time>2021-08-12T11:49:55Z</time><extensions><speed>0.862099</speed><course>85.766655</course><hAcc>0.902481</hAcc><vAcc>0.711624</vAcc></extensions></trkpt>
      <trkpt lon="-3.315500" lat="54.544316"><ele>201.187561</ele><time>2021-08-12T11:49:56Z</time><extensions><speed>0.858367</speed><course>93.944389</course><hAcc>0.902912</hAcc><vAcc>0.711534</vAcc></extensions></trkpt>
      <trkpt lon="-3.315488" lat="54.544319"><ele>201.016403</ele><time>2021-08-12T11:49:57Z</time><extensions><speed>0.852255</speed><course>96.280258</course><hAcc>0.903185</hAcc><vAcc>0.711451</vAcc></extensions></trkpt>
      <trkpt lon="-3.315476" lat="54.544323"><ele>200.855545</ele><time>2021-08-12T11:49:58Z</time><extensions><speed>0.844591</speed><course>103.229439</course><hAcc>0.903237</hAcc><vAcc>0.711364</vAcc></extensions></trkpt>
      <trkpt lon="-3.315464" lat="54.544326"><ele>200.705551</ele><time>2021-08-12T11:49:59Z</time><extensions><speed>0.837109</speed><course>100.069313</course><hAcc>0.903034</hAcc><vAcc>0.711271</vAcc></extensions></trkpt>
      <trkpt lon="-3.315452" lat="54.544329"><ele>200.566605</ele><time>2021-08-12T11:50:00Z</time><extensions><speed>0.831316</speed><course>107.704430</course><hAcc>0.902586</hAcc><vAcc>0.711171</vAcc></extensions></trkpt>
      <trkpt lon="-3.315440" lat="54.544332"><ele>200.438492</ele><time>2021-08-12T11:50:01Z</time><extensions><speed>0.827645</speed><course>102.019516</course><hAcc>0.901961</hAcc><vAcc>0.711068</vAcc></extensions></trkpt>
      <trkpt lon="-3.315429" lat="54.544334"><ele>200.320450</ele><time>2021-08-12T11:50:02Z</time><extensions><speed>0.826647</speed><course>101.188896</course><hAcc>0.901275</hAcc><vAcc>0.710978</vAcc></extensions></trkpt>
      <trkpt lon="-3.315417" lat="54.544337"><ele>200.211014</ele><time>2021-08-12T11:50:03Z</time><extensions><speed>0.829615</speed><course>101.655106</course><hAcc>0.900682</hAcc><vAcc>0.710919</vAcc></extensions></trkpt>
      <trkpt lon="-3.315404" lat="54.544339"><ele>200.108017</ele><time>2021-08-12T11:50:04Z</time><extensions><speed>0.837889</speed><course>97.512695</course><hAcc>0.900339</hAcc><vAcc>0.710906</vAcc></extensions></trkpt>
      <trkpt lon="-3.315392" lat="54.544342"><ele>200.008987</ele><time>2021-08-12T11:50:05Z</time><extensions><speed>0.852600</speed><course>96.923676</course><hAcc>0.900374</hAcc><vAcc>0.710943</vAcc></extensions></trkpt>
      <trkpt lon="-3.315379" lat="54.544344"><ele>199.911575</ele><time>2021-08-12T11:50:06Z</time><extensions><speed>0.874917</speed><course>96.356850</course><hAcc>0.900842</hAcc><vAcc>0.711021</vAcc></extensions></trkpt>
      <trkpt lon="-3.315366" lat="54.544346"><ele>199.813858</ele><time>2021-08-12T11:50:07Z</time><extensions><speed>0.905066</speed><course>95.959724</course><hAcc>0.901708</hAcc><vAcc>0.711121</vAcc></extensions></trkpt>
      <trkpt lon="-3.315352" lat="54.544348"><ele>199.714401</ele><time>2021-08-12T11:50:08Z</time><extensions><speed>0.941709</speed><course>95.959717</course><hAcc>0.902841</hAcc><vAcc>0.711219</vAcc></extensions></trkpt>
      <trkpt lon="-3.315338" lat="54.544350"><ele>199.612518</ele><time>2021-08-12T11:50:09Z</time><extensions><speed>0.982633</speed><course>97.361824</course><hAcc>0.904058</hAcc><vAcc>0.711294</vAcc></extensions></trkpt>
      <trkpt lon="-3.315323" lat="54.544353"><ele>199.507980</ele><time>2021-08-12T11:50:10Z</time><extensions><speed>1.024622</speed><course>97.361824</course><hAcc>0.905164</hAcc><vAcc>0.711325</vAcc></extensions></trkpt>
      <trkpt lon="-3.315307" lat="54.544355"><ele>199.400772</ele><time>2021-08-12T11:50:11Z</time><extensions><speed>1.064731</speed><course>97.361809</course><hAcc>0.905999</hAcc><vAcc>0.711301</vAcc></extensions></trkpt>
      <trkpt lon="-3.315291" lat="54.544358"><ele>199.290756</ele><time>2021-08-12T11:50:12Z</time><extensions><speed>1.100492</speed><course>97.361801</course><hAcc>0.906470</hAcc><vAcc>0.711214</vAcc></extensions></trkpt>
      <trkpt lon="-3.315275" lat="54.544360"><ele>199.177246</ele><time>2021-08-12T11:50:13Z</time><extensions><speed>1.129730</speed><course>42.884136</course><hAcc>0.906540</hAcc><vAcc>0.711059</vAcc></extensions></trkpt>
      <trkpt lon="-3.315258" lat="54.544363"><ele>199.059311</ele><time>2021-08-12T11:50:14Z</time><extensions><speed>1.151180</speed><course>35.984764</course><hAcc>0.906223</hAcc><vAcc>0.710833</vAcc></extensions></trkpt>
      <trkpt lon="-3.315241" lat="54.544366"><ele>198.935974</ele><time>2021-08-12T11:50:15Z</time><extensions><speed>1.164167</speed><course>65.852417</course><hAcc>0.905579</hAcc><vAcc>0.710536</vAcc></extensions></trkpt>
      <trkpt lon="-3.315223" lat="54.544370"><ele>198.806198</ele><time>2021-08-12T11:50:16Z</time><extensions><speed>1.168609</speed><course>86.337746</course><hAcc>0.904712</hAcc><vAcc>0.710172</vAcc></extensions></trkpt>
      <trkpt lon="-3.315206" lat="54.544373"><ele>198.669037</ele><time>2021-08-12T11:50:17Z</time><extensions><speed>1.164946</speed><course>89.071770</course><hAcc>0.903776</hAcc><vAcc>0.709757</vAcc></extensions></trkpt>
      <trkpt lon="-3.315190" lat="54.544377"><ele>198.524017</ele><time>2021-08-12T11:50:18Z</time><extensions><speed>1.154673</speed><course>92.612312</course><hAcc>0.902941</hAcc><vAcc>0.709312</vAcc></extensions></trkpt>
      <trkpt lon="-3.315173" lat="54.544381"><ele>198.371185</ele><time>2021-08-12T11:50:19Z</time><extensions><speed>1.140094</speed><course>103.461632</course><hAcc>0.902344</hAcc><vAcc>0.708860</vAcc></extensions></trkpt>
      <trkpt lon="-3.315157" lat="54.544385"><ele>198.211075</ele><time>2021-08-12T11:50:20Z</time><extensions><speed>1.123334</speed><course>104.412865</course><hAcc>0.902041</hAcc><vAcc>0.708417</vAcc></extensions></trkpt>
      <trkpt lon="-3.315141" lat="54.544389"><ele>198.044830</ele><time>2021-08-12T11:50:21Z</time><extensions><speed>1.105455</speed><course>129.601685</course><hAcc>0.901997</hAcc><vAcc>0.707992</vAcc></extensions></trkpt>
      <trkpt lon="-3.315126" lat="54.544393"><ele>197.874237</ele><time>2021-08-12T11:50:22Z</time><extensions><speed>1.086645</speed><course>149.567169</course><hAcc>0.902112</hAcc><vAcc>0.707599</vAcc></extensions></trkpt>
      <trkpt lon="-3.315111" lat="54.544397"><ele>197.701324</ele><time>2021-08-12T11:50:23Z</time><extensions><speed>1.066721</speed><course>129.327728</course><hAcc>0.902268</hAcc><vAcc>0.707250</vAcc></extensions></trkpt>
      <trkpt lon="-3.315096" lat="54.544401"><ele>197.527710</ele><time>2021-08-12T11:50:24Z</time><extensions><speed>1.045740</speed><course>129.943619</course><hAcc>0.902364</hAcc><vAcc>0.706969</vAcc></extensions></trkpt>
      <trkpt lon="-3.315082" lat="54.544405"><ele>197.354126</ele><time>2021-08-12T11:50:25Z</time><extensions><speed>1.023625</speed><course>125.470825</course><hAcc>0.902342</hAcc><vAcc>0.706781</vAcc></extensions></trkpt>
      <trkpt lon="-3.315068" lat="54.544409"><ele>197.180847</ele><time>2021-08-12T11:50:26Z</time><extensions><speed>0.999991</speed><course>125.654007</course><hAcc>0.902192</hAcc><vAcc>0.706712</vAcc></extensions></trkpt>
      <trkpt lon="-3.315053" lat="54.544412"><ele>197.007568</ele><time>2021-08-12T11:50:27Z</time><extensions><speed>0.975852</speed><course>132.941208</course><hAcc>0.901945</hAcc><vAcc>0.706782</vAcc></extensions></trkpt>
      <trkpt lon="-3.315040" lat="54.544416"><ele>196.833084</ele><time>2021-08-12T11:50:28Z</time><extensions><speed>0.952480</speed><course>128.525970</course><hAcc>0.901663</hAcc><vAcc>0.706992</vAcc></extensions></trkpt>
      <trkpt lon="-3.315026" lat="54.544418"><ele>196.655655</ele><time>2021-08-12T11:50:29Z</time><extensions><speed>0.930148</speed><course>129.747040</course><hAcc>0.901416</hAcc><vAcc>0.707321</vAcc></extensions></trkpt>
      <trkpt lon="-3.315013" lat="54.544421"><ele>196.473618</ele><time>2021-08-12T11:50:30Z</time><extensions><speed>0.908861</speed><course>133.257645</course><hAcc>0.901264</hAcc><vAcc>0.707735</vAcc></extensions></trkpt>
      <trkpt lon="-3.314999" lat="54.544423"><ele>196.285980</ele><time>2021-08-12T11:50:31Z</time><extensions><speed>0.888816</speed><course>122.834160</course><hAcc>0.901235</hAcc><vAcc>0.708191</vAcc></extensions></trkpt>
      <trkpt lon="-3.314986" lat="54.544426"><ele>196.092148</ele><time>2021-08-12T11:50:32Z</time><extensions><speed>0.870454</speed><course>121.754723</course><hAcc>0.901331</hAcc><vAcc>0.708650</vAcc></extensions></trkpt>
      <trkpt lon="-3.314973" lat="54.544427"><ele>195.891373</ele><time>2021-08-12T11:50:33Z</time><extensions><speed>0.854485</speed><course>130.620087</course><hAcc>0.901532</hAcc><vAcc>0.709083</vAcc></extensions></trkpt>
      <trkpt lon="-3.314960" lat="54.544429"><ele>195.682983</ele><time>2021-08-12T11:50:34Z</time><extensions><speed>0.842397</speed><course>128.548019</course><hAcc>0.901816</hAcc><vAcc>0.709479</vAcc></extensions></trkpt>
      <trkpt lon="-3.314948" lat="54.544430"><ele>195.466705</ele><time>2021-08-12T11:50:35Z</time><extensions><speed>0.835576</speed><course>128.034912</course><hAcc>0.902161</hAcc><vAcc>0.709836</vAcc></extensions></trkpt>
      <trkpt lon="-3.314935" lat="54.544432"><ele>195.242706</ele><time>2021-08-12T11:50:36Z</time><extensions><speed>0.835045</speed><course>128.138321</course><hAcc>0.902544</hAcc><vAcc>0.710158</vAcc></extensions></trkpt>
      <trkpt lon="-3.314922" lat="54.544433"><ele>195.011795</ele><time>2021-08-12T11:50:37Z</time><extensions><speed>0.841450</speed><course>127.788391</course><hAcc>0.902948</hAcc><vAcc>0.710446</vAcc></extensions></trkpt>
      <trkpt lon="-3.314909" lat="54.544434"><ele>194.775253</ele><time>2021-08-12T11:50:38Z</time><extensions><speed>0.853997</speed><course>111.799332</course><hAcc>0.903360</hAcc><vAcc>0.710692</vAcc></extensions></trkpt>
      <trkpt lon="-3.314896" lat="54.544434"><ele>194.534668</ele><time>2021-08-12T11:50:39Z</time><extensions><speed>0.871297</speed><course>135.894547</course><hAcc>0.903783</hAcc><vAcc>0.710884</vAcc></extensions></trkpt>
      <trkpt lon="-3.314882" lat="54.544435"><ele>194.291641</ele><time>2021-08-12T11:50:40Z</time><extensions><speed>0.891683</speed><course>135.791443</course><hAcc>0.904214</hAcc><vAcc>0.711006</vAcc></extensions></trkpt>
      <trkpt lon="-3.314868" lat="54.544436"><ele>194.047394</ele><time>2021-08-12T11:50:41Z</time><extensions><speed>0.912941</speed><course>137.532547</course><hAcc>0.904644</hAcc><vAcc>0.711038</vAcc></extensions></trkpt>
      <trkpt lon="-3.314854" lat="54.544436"><ele>193.802597</ele><time>2021-08-12T11:50:42Z</time><extensions><speed>0.933549</speed><course>139.503952</course><hAcc>0.905054</hAcc><vAcc>0.710962</vAcc></extensions></trkpt>
      <trkpt lon="-3.314840" lat="54.544437"><ele>193.557785</ele><time>2021-08-12T11:50:43Z</time><extensions><speed>0.952385</speed><course>146.422607</course><hAcc>0.905408</hAcc><vAcc>0.710764</vAcc></extensions></trkpt>
      <trkpt lon="-3.314825" lat="54.544438"><ele>193.313339</ele><time>2021-08-12T11:50:44Z</time><extensions><speed>0.968093</speed><course>123.702354</course><hAcc>0.905663</hAcc><vAcc>0.710434</vAcc></extensions></trkpt>
      <trkpt lon="-3.314810" lat="54.544438"><ele>193.069138</ele><time>2021-08-12T11:50:45Z</time><extensions><speed>0.980571</speed><course>126.795586</course><hAcc>0.905761</hAcc><vAcc>0.709973</vAcc></extensions></trkpt>
      <trkpt lon="-3.314795" lat="54.544438"><ele>192.824570</ele><time>2021-08-12T11:50:46Z</time><extensions><speed>0.991333</speed><course>132.239441</course><hAcc>0.905653</hAcc><vAcc>0.709397</vAcc></extensions></trkpt>
      <trkpt lon="-3.314779" lat="54.544439"><ele>192.578827</ele><time>2021-08-12T11:50:47Z</time><extensions><speed>1.002394</speed><course>129.200668</course><hAcc>0.905321</hAcc><vAcc>0.708737</vAcc></extensions></trkpt>
      <trkpt lon="-3.314764" lat="54.544439"><ele>192.330963</ele><time>2021-08-12T11:50:48Z</time><extensions><speed>1.015184</speed><course>125.122314</course><hAcc>0.904779</hAcc><vAcc>0.708036</vAcc></extensions></trkpt>
      <trkpt lon="-3.314748" lat="54.544439"><ele>192.079849</ele><time>2021-08-12T11:50:49Z</time><extensions><speed>1.029212</speed><course>136.265396</course><hAcc>0.904070</hAcc><vAcc>0.707341</vAcc></extensions></trkpt>
      <trkpt lon="-3.314732" lat="54.544439"><ele>191.824127</ele><time>2021-08-12T11:50:50Z</time><extensions><speed>1.043253</speed><course>135.687027</course><hAcc>0.903256</hAcc><vAcc>0.706702</vAcc></extensions></trkpt>
      <trkpt lon="-3.314716" lat="54.544439"><ele>191.562698</ele><time>2021-08-12T11:50:51Z</time><extensions><speed>1.056215</speed><course>134.189224</course><hAcc>0.902405</hAcc><vAcc>0.706164</vAcc></extensions></trkpt>
      <trkpt lon="-3.314699" lat="54.544439"><ele>191.295242</ele><time>2021-08-12T11:50:52Z</time><extensions><speed>1.066474</speed><course>130.213623</course><hAcc>0.901580</hAcc><vAcc>0.705764</vAcc></extensions></trkpt>
      <trkpt lon="-3.314683" lat="54.544439"><ele>191.022034</ele><time>2021-08-12T11:50:53Z</time><extensions><speed>1.072989</speed><course>131.249283</course><hAcc>0.900826</hAcc><vAcc>0.705519</vAcc></extensions></trkpt>
      <trkpt lon="-3.314666" lat="54.544439"><ele>190.743774</ele><time>2021-08-12T11:50:54Z</time><extensions><speed>1.075427</speed><course>132.412170</course><hAcc>0.900178</hAcc><vAcc>0.705436</vAcc></extensions></trkpt>
      <trkpt lon="-3.314649" lat="54.544439"><ele>190.461426</ele><time>2021-08-12T11:50:55Z</time><extensions><speed>1.074733</speed><course>141.387543</course><hAcc>0.899678</hAcc><vAcc>0.705514</vAcc></extensions></trkpt>
      <trkpt lon="-3.314633" lat="54.544439"><ele>190.175995</ele><time>2021-08-12T11:50:56Z</time><extensions><speed>1.072531</speed><course>147.693329</course><hAcc>0.899379</hAcc><vAcc>0.705750</vAcc></extensions></trkpt>
      <trkpt lon="-3.314616" lat="54.544439"><ele>189.888199</ele><time>2021-08-12T11:50:57Z</time><extensions><speed>1.069941</speed><course>150.557755</course><hAcc>0.899307</hAcc><vAcc>0.706128</vAcc></extensions></trkpt>
      <trkpt lon="-3.314600" lat="54.544440"><ele>189.598373</ele><time>2021-08-12T11:50:58Z</time><extensions><speed>1.068232</speed><course>146.167221</course><hAcc>0.899441</hAcc><vAcc>0.706623</vAcc></extensions></trkpt>
      <trkpt lon="-3.314583" lat="54.544440"><ele>189.306595</ele><time>2021-08-12T11:50:59Z</time><extensions><speed>1.067706</speed><course>148.113663</course><hAcc>0.899721</hAcc><vAcc>0.707200</vAcc></extensions></trkpt>
      <trkpt lon="-3.314567" lat="54.544441"><ele>189.012985</ele><time>2021-08-12T11:51:00Z</time><extensions><speed>1.067976</speed><course>138.101883</course><hAcc>0.900059</hAcc><vAcc>0.707824</vAcc></extensions></trkpt>
      <trkpt lon="-3.314550" lat="54.544441"><ele>188.717712</ele><time>2021-08-12T11:51:01Z</time><extensions><speed>1.069638</speed><course>142.914612</course><hAcc>0.900367</hAcc><vAcc>0.708462</vAcc></extensions></trkpt>
      <trkpt lon="-3.314534" lat="54.544442"><ele>188.421219</ele><time>2021-08-12T11:51:02Z</time><extensions><speed>1.073572</speed><course>148.048096</course><hAcc>0.900570</hAcc><vAcc>0.709080</vAcc></extensions></trkpt>
      <trkpt lon="-3.314517" lat="54.544443"><ele>188.124039</ele><time>2021-08-12T11:51:03Z</time><extensions><speed>1.079743</speed><course>151.450607</course><hAcc>0.900606</hAcc><vAcc>0.709652</vAcc></extensions></trkpt>
      <trkpt lon="-3.314501" lat="54.544444"><ele>187.826813</ele><time>2021-08-12T11:51:04Z</time><extensions><speed>1.088017</speed><course>136.771103</course><hAcc>0.900436</hAcc><vAcc>0.710158</vAcc></extensions></trkpt>
      <trkpt lon="-3.314484" lat="54.544445"><ele>187.530212</ele><time>2021-08-12T11:51:05Z</time><extensions><speed>1.097304</speed><course>141.808670</course><hAcc>0.900044</hAcc><vAcc>0.710582</vAcc></extensions></trkpt>
      <trkpt lon="-3.314467" lat="54.544446"><ele>187.234589</ele><time>2021-08-12T11:51:06Z</time><extensions><speed>1.105515</speed><course>141.991776</course><hAcc>0.899450</hAcc><vAcc>0.710919</vAcc></extensions></trkpt>
      <trkpt lon="-3.314450" lat="54.544447"><ele>186.940063</ele><time>2021-08-12T11:51:07Z</time><extensions><speed>1.111651</speed><course>158.861435</course><hAcc>0.898698</hAcc><vAcc>0.711170</vAcc></extensions></trkpt>
      <trkpt lon="-3.314433" lat="54.544448"><ele>186.646927</ele><time>2021-08-12T11:51:08Z</time><extensions><speed>1.115131</speed><course>158.142120</course><hAcc>0.897851</hAcc><vAcc>0.711341</vAcc></extensions></trkpt>
      <trkpt lon="-3.314416" lat="54.544450"><ele>186.355927</ele><time>2021-08-12T11:51:09Z</time><extensions><speed>1.115379</speed><course>156.536041</course><hAcc>0.896975</hAcc><vAcc>0.711447</vAcc></extensions></trkpt>
      <trkpt lon="-3.314399" lat="54.544452"><ele>186.068253</ele><time>2021-08-12T11:51:10Z</time><extensions><speed>1.112211</speed><course>138.496033</course><hAcc>0.896117</hAcc><vAcc>0.711500</vAcc></extensions></trkpt>
      <trkpt lon="-3.314382" lat="54.544454"><ele>185.785385</ele><time>2021-08-12T11:51:11Z</time><extensions><speed>1.106856</speed><course>156.669647</course><hAcc>0.895301</hAcc><vAcc>0.711513</vAcc></extensions></trkpt>
      <trkpt lon="-3.314366" lat="54.544457"><ele>185.508698</ele><time>2021-08-12T11:51:12Z</time><extensions><speed>1.101323</speed><course>143.929214</course><hAcc>0.894535</hAcc><vAcc>0.711495</vAcc></extensions></trkpt>
      <trkpt lon="-3.314350" lat="54.544460"><ele>185.239487</ele><time>2021-08-12T11:51:13Z</time><extensions><speed>1.097220</speed><course>154.114960</course><hAcc>0.893825</hAcc><vAcc>0.711457</vAcc></extensions></trkpt>
      <trkpt lon="-3.314334" lat="54.544463"><ele>184.978912</ele><time>2021-08-12T11:51:14Z</time><extensions><speed>1.096658</speed><course>157.737396</course><hAcc>0.893185</hAcc><vAcc>0.711405</vAcc></extensions></trkpt>
      <trkpt lon="-3.314318" lat="54.544467"><ele>184.728058</ele><time>2021-08-12T11:51:15Z</time><extensions><speed>1.101226</speed><course>156.437073</course><hAcc>0.892623</hAcc><vAcc>0.711346</vAcc></extensions></trkpt>
      <trkpt lon="-3.314302" lat="54.544471"><ele>184.487747</ele><time>2021-08-12T11:51:16Z</time><extensions><speed>1.111385</speed><course>159.749420</course><hAcc>0.892146</hAcc><vAcc>0.711286</vAcc></extensions></trkpt>
      <trkpt lon="-3.314287" lat="54.544475"><ele>184.258713</ele><time>2021-08-12T11:51:17Z</time><extensions><speed>1.126789</speed><course>156.029541</course><hAcc>0.891756</hAcc><vAcc>0.711227</vAcc></extensions></trkpt>
      <trkpt lon="-3.314271" lat="54.544480"><ele>184.041702</ele><time>2021-08-12T11:51:18Z</time><extensions><speed>1.146443</speed><course>159.049896</course><hAcc>0.891461</hAcc><vAcc>0.711172</vAcc></extensions></trkpt>
      <trkpt lon="-3.314255" lat="54.544485"><ele>183.837402</ele><time>2021-08-12T11:51:19Z</time><extensions><speed>1.168976</speed><course>154.355942</course><hAcc>0.891266</hAcc><vAcc>0.711118</vAcc></extensions></trkpt>
      <trkpt lon="-3.314240" lat="54.544490"><ele>183.646225</ele><time>2021-08-12T11:51:20Z</time><extensions><speed>1.193375</speed><course>162.710571</course><hAcc>0.891162</hAcc><vAcc>0.711060</vAcc></extensions></trkpt>
      <trkpt lon="-3.314224" lat="54.544496"><ele>183.468002</ele><time>2021-08-12T11:51:21Z</time><extensions><speed>1.218877</speed><course>161.899368</course><hAcc>0.891115</hAcc><vAcc>0.710991</vAcc></extensions></trkpt>
      <trkpt lon="-3.314208" lat="54.544502"><ele>183.301971</ele><time>2021-08-12T11:51:22Z</time><extensions><speed>1.243619</speed><course>160.656769</course><hAcc>0.891079</hAcc><vAcc>0.710899</vAcc></extensions></trkpt>
      <trkpt lon="-3.314191" lat="54.544508"><ele>183.146912</ele><time>2021-08-12T11:51:23Z</time><extensions><speed>1.266324</speed><course>152.471558</course><hAcc>0.891011</hAcc><vAcc>0.710774</vAcc></extensions></trkpt>
      <trkpt lon="-3.314175" lat="54.544514"><ele>183.001831</ele><time>2021-08-12T11:51:24Z</time><extensions><speed>1.286327</speed><course>148.255112</course><hAcc>0.890900</hAcc><vAcc>0.710614</vAcc></extensions></trkpt>
      <trkpt lon="-3.314158" lat="54.544520"><ele>182.866135</ele><time>2021-08-12T11:51:25Z</time><extensions><speed>1.303808</speed><course>153.394714</course><hAcc>0.890783</hAcc><vAcc>0.710425</vAcc></extensions></trkpt>
      <trkpt lon="-3.314141" lat="54.544527"><ele>182.739365</ele><time>2021-08-12T11:51:26Z</time><extensions><speed>1.319336</speed><course>156.943573</course><hAcc>0.890726</hAcc><vAcc>0.710224</vAcc></extensions></trkpt>
      <trkpt lon="-3.314124" lat="54.544533"><ele>182.620880</ele><time>2021-08-12T11:51:27Z</time><extensions><speed>1.332829</speed><course>159.515564</course><hAcc>0.890793</hAcc><vAcc>0.710022</vAcc></extensions></trkpt>
      <trkpt lon="-3.314107" lat="54.544540"><ele>182.509567</ele><time>2021-08-12T11:51:28Z</time><extensions><speed>1.344373</speed><course>158.540283</course><hAcc>0.891025</hAcc><vAcc>0.709822</vAcc></extensions></trkpt>
      <trkpt lon="-3.314090" lat="54.544547"><ele>182.404129</ele><time>2021-08-12T11:51:29Z</time><extensions><speed>1.353558</speed><course>153.751312</course><hAcc>0.891433</hAcc><vAcc>0.709614</vAcc></extensions></trkpt>
      <trkpt lon="-3.314073" lat="54.544555"><ele>182.303604</ele><time>2021-08-12T11:51:30Z</time><extensions><speed>1.359938</speed><course>159.795258</course><hAcc>0.892004</hAcc><vAcc>0.709377</vAcc></extensions></trkpt>
      <trkpt lon="-3.314057" lat="54.544562"><ele>182.207352</ele><time>2021-08-12T11:51:31Z</time><extensions><speed>1.363329</speed><course>158.187424</course><hAcc>0.892711</hAcc><vAcc>0.709089</vAcc></extensions></trkpt>
      <trkpt lon="-3.314040" lat="54.544570"><ele>182.114960</ele><time>2021-08-12T11:51:32Z</time><extensions><speed>1.363162</speed><course>160.275116</course><hAcc>0.893509</hAcc><vAcc>0.708732</vAcc></extensions></trkpt>
      <trkpt lon="-3.314024" lat="54.544578"><ele>182.025909</ele><time>2021-08-12T11:51:33Z</time><extensions><speed>1.358713</speed><course>156.643036</course><hAcc>0.894339</hAcc><vAcc>0.708300</vAcc></extensions></trkpt>
      <trkpt lon="-3.314009" lat="54.544586"><ele>181.939560</ele><time>2021-08-12T11:51:34Z</time><extensions><speed>1.350264</speed><course>162.614395</course><hAcc>0.895146</hAcc><vAcc>0.707794</vAcc></extensions></trkpt>
      <trkpt lon="-3.313994" lat="54.544594"><ele>181.855591</ele><time>2021-08-12T11:51:35Z</time><extensions><speed>1.338521</speed><course>162.054535</course><hAcc>0.895887</hAcc><vAcc>0.707228</vAcc></extensions></trkpt>
      <trkpt lon="-3.313979" lat="54.544603"><ele>181.773849</ele><time>2021-08-12T11:51:36Z</time><extensions><speed>1.324080</speed><course>177.342987</course><hAcc>0.896540</hAcc><vAcc>0.706617</vAcc></extensions></trkpt>
      <trkpt lon="-3.313965" lat="54.544611"><ele>181.694397</ele><time>2021-08-12T11:51:37Z</time><extensions><speed>1.308162</speed><course>172.891953</course><hAcc>0.897102</hAcc><vAcc>0.705979</vAcc></extensions></trkpt>
      <trkpt lon="-3.313950" lat="54.544619"><ele>181.617325</ele><time>2021-08-12T11:51:38Z</time><extensions><speed>1.291710</speed><course>169.984741</course><hAcc>0.897574</hAcc><vAcc>0.705333</vAcc></extensions></trkpt>
      <trkpt lon="-3.313937" lat="54.544627"><ele>181.542404</ele><time>2021-08-12T11:51:39Z</time><extensions><speed>1.274764</speed><course>166.246048</course><hAcc>0.897956</hAcc><vAcc>0.704702</vAcc></extensions></trkpt>
      <trkpt lon="-3.313923" lat="54.544636"><ele>181.469040</ele><time>2021-08-12T11:51:40Z</time><extensions><speed>1.256838</speed><course>166.762161</course><hAcc>0.898243</hAcc><vAcc>0.704113</vAcc></extensions></trkpt>
      <trkpt lon="-3.313909" lat="54.544643"><ele>181.396194</ele><time>2021-08-12T11:51:41Z</time><extensions><speed>1.237074</speed><course>163.016708</course><hAcc>0.898434</hAcc><vAcc>0.703592</vAcc></extensions></trkpt>
      <trkpt lon="-3.313895" lat="54.544651"><ele>181.322220</ele><time>2021-08-12T11:51:42Z</time><extensions><speed>1.214885</speed><course>159.079727</course><hAcc>0.898531</hAcc><vAcc>0.703166</vAcc></extensions></trkpt>
      <trkpt lon="-3.313882" lat="54.544658"><ele>181.245132</ele><time>2021-08-12T11:51:43Z</time><extensions><speed>1.190509</speed><course>160.816132</course><hAcc>0.898544</hAcc><vAcc>0.702855</vAcc></extensions></trkpt>
      <trkpt lon="-3.313868" lat="54.544665"><ele>181.162857</ele><time>2021-08-12T11:51:44Z</time><extensions><speed>1.164826</speed><course>163.227844</course><hAcc>0.898484</hAcc><vAcc>0.702670</vAcc></extensions></trkpt>
      <trkpt lon="-3.313853" lat="54.544671"><ele>181.073395</ele><time>2021-08-12T11:51:45Z</time><extensions><speed>1.138823</speed><course>152.149902</course><hAcc>0.898360</hAcc><vAcc>0.702618</vAcc></extensions></trkpt>
      <trkpt lon="-3.313839" lat="54.544677"><ele>180.974716</ele><time>2021-08-12T11:51:46Z</time><extensions><speed>1.113345</speed><course>159.582550</course><hAcc>0.898159</hAcc><vAcc>0.702700</vAcc></extensions></trkpt>
      <trkpt lon="-3.313824" lat="54.544681"><ele>180.864685</ele><time>2021-08-12T11:51:47Z</time><extensions><speed>1.089348</speed><course>159.987671</course><hAcc>0.897848</hAcc><vAcc>0.702913</vAcc></extensions></trkpt>
      <trkpt lon="-3.313809" lat="54.544685"><ele>180.741104</ele><time>2021-08-12T11:51:48Z</time><extensions><speed>1.068227</speed><course>163.105835</course><hAcc>0.897375</hAcc><vAcc>0.703254</vAcc></extensions></trkpt>
      <trkpt lon="-3.313793" lat="54.544689"><ele>180.601868</ele><time>2021-08-12T11:51:49Z</time><extensions><speed>1.051491</speed><course>160.869598</course><hAcc>0.896688</hAcc><vAcc>0.703714</vAcc></extensions></trkpt>
      <trkpt lon="-3.313778" lat="54.544691"><ele>180.445160</ele><time>2021-08-12T11:51:50Z</time><extensions><speed>1.039863</speed><course>172.028473</course><hAcc>0.895754</hAcc><vAcc>0.704274</vAcc></extensions></trkpt>
      <trkpt lon="-3.313762" lat="54.544693"><ele>180.269592</ele><time>2021-08-12T11:51:51Z</time><extensions><speed>1.033014</speed><course>182.583130</course><hAcc>0.894574</hAcc><vAcc>0.704905</vAcc></extensions></trkpt>
      <trkpt lon="-3.313746" lat="54.544693"><ele>180.074493</ele><time>2021-08-12T11:51:52Z</time><extensions><speed>1.030242</speed><course>175.623672</course><hAcc>0.893191</hAcc><vAcc>0.705571</vAcc></extensions></trkpt>
      <trkpt lon="-3.313730" lat="54.544694"><ele>179.860245</ele><time>2021-08-12T11:51:53Z</time><extensions><speed>1.029672</speed><course>168.997635</course><hAcc>0.891685</hAcc><vAcc>0.706235</vAcc></extensions></trkpt>
      <trkpt lon="-3.313714" lat="54.544693"><ele>179.627945</ele><time>2021-08-12T11:51:54Z</time><extensions><speed>1.027394</speed><course>166.227890</course><hAcc>0.890148</hAcc><vAcc>0.706866</vAcc></extensions></trkpt>
      <trkpt lon="-3.313698" lat="54.544692"><ele>179.379196</ele><time>2021-08-12T11:51:55Z</time><extensions><speed>1.020182</speed><course>162.222458</course><hAcc>0.888670</hAcc><vAcc>0.707441</vAcc></extensions></trkpt>
      <trkpt lon="-3.313683" lat="54.544691"><ele>179.115997</ele><time>2021-08-12T11:51:56Z</time><extensions><speed>1.006610</speed><course>162.553314</course><hAcc>0.887319</hAcc><vAcc>0.707948</vAcc></extensions></trkpt>
      <trkpt lon="-3.313668" lat="54.544689"><ele>178.840652</ele><time>2021-08-12T11:51:57Z</time><extensions><speed>0.986568</speed><course>165.735123</course><hAcc>0.886145</hAcc><vAcc>0.708381</vAcc></extensions></trkpt>
      <trkpt lon="-3.313653" lat="54.544687"><ele>178.555496</ele><time>2021-08-12T11:51:58Z</time><extensions><speed>0.960308</speed><course>166.317276</course><hAcc>0.885174</hAcc><vAcc>0.708747</vAcc></extensions></trkpt>
      <trkpt lon="-3.313639" lat="54.544685"><ele>178.262894</ele><time>2021-08-12T11:51:59Z</time><extensions><speed>0.928829</speed><course>164.590683</course><hAcc>0.884413</hAcc><vAcc>0.709052</vAcc></extensions></trkpt>
      <trkpt lon="-3.313625" lat="54.544683"><ele>177.965530</ele><time>2021-08-12T11:52:00Z</time><extensions><speed>0.894734</speed><course>167.304306</course><hAcc>0.883844</hAcc><vAcc>0.709303</vAcc></extensions></trkpt>
      <trkpt lon="-3.313612" lat="54.544681"><ele>177.666626</ele><time>2021-08-12T11:52:01Z</time><extensions><speed>0.860128</speed><course>166.209152</course><hAcc>0.883440</hAcc><vAcc>0.709504</vAcc></extensions></trkpt>
      <trkpt lon="-3.313600" lat="54.544679"><ele>177.369736</ele><time>2021-08-12T11:52:02Z</time><extensions><speed>0.826012</speed><course>170.985672</course><hAcc>0.883168</hAcc><vAcc>0.709652</vAcc></extensions></trkpt>
      <trkpt lon="-3.313588" lat="54.544677"><ele>177.078400</ele><time>2021-08-12T11:52:03Z</time><extensions><speed>0.793339</speed><course>170.155151</course><hAcc>0.882995</hAcc><vAcc>0.709747</vAcc></extensions></trkpt>
      <trkpt lon="-3.313576" lat="54.544676"><ele>176.796051</ele><time>2021-08-12T11:52:04Z</time><extensions><speed>0.762666</speed><course>173.270996</course><hAcc>0.882892</hAcc><vAcc>0.709792</vAcc></extensions></trkpt>
      <trkpt lon="-3.313565" lat="54.544674"><ele>176.525742</ele><time>2021-08-12T11:52:05Z</time><extensions><speed>0.732439</speed><course>158.977570</course><hAcc>0.882834</hAcc><vAcc>0.709796</vAcc></extensions></trkpt>
      <trkpt lon="-3.313554" lat="54.544672"><ele>176.269897</ele><time>2021-08-12T11:52:06Z</time><extensions><speed>0.700213</speed><course>154.473984</course><hAcc>0.882803</hAcc><vAcc>0.709778</vAcc></extensions></trkpt>
      <trkpt lon="-3.313544" lat="54.544671"><ele>176.030060</ele><time>2021-08-12T11:52:07Z</time><extensions><speed>0.663432</speed><course>159.955185</course><hAcc>0.882785</hAcc><vAcc>0.709757</vAcc></extensions></trkpt>
      <trkpt lon="-3.313534" lat="54.544669"><ele>175.806992</ele><time>2021-08-12T11:52:08Z</time><extensions><speed>0.619804</speed><course>153.408218</course><hAcc>0.882775</hAcc><vAcc>0.709749</vAcc></extensions></trkpt>
      <trkpt lon="-3.313525" lat="54.544668"><ele>175.601089</ele><time>2021-08-12T11:52:09Z</time><extensions><speed>0.568972</speed><course>151.142990</course><hAcc>0.882769</hAcc><vAcc>0.709763</vAcc></extensions></trkpt>
      <trkpt lon="-3.313517" lat="54.544667"><ele>175.412613</ele><time>2021-08-12T11:52:10Z</time><extensions><speed>0.513162</speed><course>153.658844</course><hAcc>0.882766</hAcc><vAcc>0.709803</vAcc></extensions></trkpt>
      <trkpt lon="-3.313510" lat="54.544666"><ele>175.241409</ele><time>2021-08-12T11:52:11Z</time><extensions><speed>0.455893</speed><course>151.540298</course><hAcc>0.882765</hAcc><vAcc>0.709864</vAcc></extensions></trkpt>
      <trkpt lon="-3.313504" lat="54.544664"><ele>175.086700</ele><time>2021-08-12T11:52:12Z</time><extensions><speed>0.400379</speed><course>151.542770</course><hAcc>0.882763</hAcc><vAcc>0.709936</vAcc></extensions></trkpt>
      <trkpt lon="-3.313498" lat="54.544663"><ele>174.947098</ele><time>2021-08-12T11:52:13Z</time><extensions><speed>0.350495</speed><course>151.184875</course><hAcc>0.882756</hAcc><vAcc>0.710007</vAcc></extensions></trkpt>
      <trkpt lon="-3.313493" lat="54.544662"><ele>174.820755</ele><time>2021-08-12T11:52:14Z</time><extensions><speed>0.310170</speed><course>148.009705</course><hAcc>0.882739</hAcc><vAcc>0.710054</vAcc></extensions></trkpt>
      <trkpt lon="-3.313489" lat="54.544661"><ele>174.705505</ele><time>2021-08-12T11:52:15Z</time><extensions><speed>0.281450</speed><course>151.132050</course><hAcc>0.882706</hAcc><vAcc>0.710054</vAcc></extensions></trkpt>
      <trkpt lon="-3.313485" lat="54.544660"><ele>174.599014</ele><time>2021-08-12T11:52:16Z</time><extensions><speed>0.265013</speed><course>147.416718</course><hAcc>0.882652</hAcc><vAcc>0.709979</vAcc></extensions></trkpt>
      <trkpt lon="-3.313482" lat="54.544659"><ele>174.498672</ele><time>2021-08-12T11:52:17Z</time><extensions><speed>0.260423</speed><course>145.946671</course><hAcc>0.882568</hAcc><vAcc>0.709805</vAcc></extensions></trkpt>
      <trkpt lon="-3.313478" lat="54.544658"><ele>174.401794</ele><time>2021-08-12T11:52:18Z</time><extensions><speed>0.266615</speed><course>158.213196</course><hAcc>0.882450</hAcc><vAcc>0.709503</vAcc></extensions></trkpt>
      <trkpt lon="-3.313474" lat="54.544658"><ele>174.305801</ele><time>2021-08-12T11:52:19Z</time><extensions><speed>0.282657</speed><course>165.532318</course><hAcc>0.882294</hAcc><vAcc>0.709051</vAcc></extensions></trkpt>
      <trkpt lon="-3.313470" lat="54.544657"><ele>174.208527</ele><time>2021-08-12T11:52:20Z</time><extensions><speed>0.307374</speed><course>155.828384</course><hAcc>0.882100</hAcc><vAcc>0.708429</vAcc></extensions></trkpt>
      <trkpt lon="-3.313465" lat="54.544656"><ele>174.108032</ele><time>2021-08-12T11:52:21Z</time><extensions><speed>0.339161</speed><course>158.510941</course><hAcc>0.881868</hAcc><vAcc>0.707626</vAcc></extensions></trkpt>
      <trkpt lon="-3.313460" lat="54.544655"><ele>174.002640</ele><time>2021-08-12T11:52:22Z</time><extensions><speed>0.375906</speed><course>158.599030</course><hAcc>0.881607</hAcc><vAcc>0.706644</vAcc></extensions></trkpt>
      <trkpt lon="-3.313454" lat="54.544654"><ele>173.891052</ele><time>2021-08-12T11:52:23Z</time><extensions><speed>0.415578</speed><course>159.122437</course><hAcc>0.881326</hAcc><vAcc>0.705503</vAcc></extensions></trkpt>
      <trkpt lon="-3.313447" lat="54.544653"><ele>173.772430</ele><time>2021-08-12T11:52:24Z</time><extensions><speed>0.456401</speed><course>161.654770</course><hAcc>0.881041</hAcc><vAcc>0.704250</vAcc></extensions></trkpt>
      <trkpt lon="-3.313440" lat="54.544653"><ele>173.646194</ele><time>2021-08-12T11:52:25Z</time><extensions><speed>0.496877</speed><course>168.809372</course><hAcc>0.880767</hAcc><vAcc>0.702963</vAcc></extensions></trkpt>
      <trkpt lon="-3.313432" lat="54.544652"><ele>173.511673</ele><time>2021-08-12T11:52:26Z</time><extensions><speed>0.536011</speed><course>164.604691</course><hAcc>0.880523</hAcc><vAcc>0.701754</vAcc></extensions></trkpt>
      <trkpt lon="-3.313423" lat="54.544652"><ele>173.368179</ele><time>2021-08-12T11:52:27Z</time><extensions><speed>0.573281</speed><course>171.894135</course><hAcc>0.880324</hAcc><vAcc>0.700749</vAcc></extensions></trkpt>
      <trkpt lon="-3.313414" lat="54.544652"><ele>173.215454</ele><time>2021-08-12T11:52:28Z</time><extensions><speed>0.608832</speed><course>183.275330</course><hAcc>0.880187</hAcc><vAcc>0.700061</vAcc></extensions></trkpt>
      <trkpt lon="-3.313404" lat="54.544653"><ele>173.053650</ele><time>2021-08-12T11:52:29Z</time><extensions><speed>0.643382</speed><course>184.743423</course><hAcc>0.880118</hAcc><vAcc>0.699757</vAcc></extensions></trkpt>
      <trkpt lon="-3.313394" lat="54.544654"><ele>172.882980</ele><time>2021-08-12T11:52:30Z</time><extensions><speed>0.677068</speed><course>187.377213</course><hAcc>0.880121</hAcc><vAcc>0.699837</vAcc></extensions></trkpt>
      <trkpt lon="-3.313384" lat="54.544655"><ele>172.703674</ele><time>2021-08-12T11:52:31Z</time><extensions><speed>0.709891</speed><course>178.027603</course><hAcc>0.880192</hAcc><vAcc>0.700251</vAcc></extensions></trkpt>
      <trkpt lon="-3.313373" lat="54.544657"><ele>172.526047</ele><time>2021-08-12T11:52:32Z</time><extensions><speed>0.740858</speed><course>81.891060</course><hAcc>0.880284</hAcc><vAcc>0.700840</vAcc></extensions></trkpt>
      <trkpt lon="-3.313362" lat="54.544659"><ele>172.329681</ele><time>2021-08-12T11:52:33Z</time><extensions><speed>0.774041</speed><course>78.263519</course><hAcc>0.880423</hAcc><vAcc>0.701586</vAcc></extensions></trkpt>
      <trkpt lon="-3.313350" lat="54.544661"><ele>172.128311</ele><time>2021-08-12T11:52:34Z</time><extensions><speed>0.807764</speed><course>74.907532</course><hAcc>0.880586</hAcc><vAcc>0.702388</vAcc></extensions></trkpt>
      <trkpt lon="-3.313339" lat="54.544665"><ele>171.923538</ele><time>2021-08-12T11:52:35Z</time><extensions><speed>0.839632</speed><course>84.941742</course><hAcc>0.880756</hAcc><vAcc>0.703161</vAcc></extensions></trkpt>
      <trkpt lon="-3.313327" lat="54.544668"><ele>171.717102</ele><time>2021-08-12T11:52:36Z</time><extensions><speed>0.867581</speed><course>73.584358</course><hAcc>0.880925</hAcc><vAcc>0.703843</vAcc></extensions></trkpt>
      <trkpt lon="-3.313316" lat="54.544672"><ele>171.510880</ele><time>2021-08-12T11:52:37Z</time><extensions><speed>0.890315</speed><course>96.346313</course><hAcc>0.881086</hAcc><vAcc>0.704396</vAcc></extensions></trkpt>
      <trkpt lon="-3.313304" lat="54.544677"><ele>171.306778</ele><time>2021-08-12T11:52:38Z</time><extensions><speed>0.907383</speed><course>87.208282</course><hAcc>0.881243</hAcc><vAcc>0.704804</vAcc></extensions></trkpt>
      <trkpt lon="-3.313293" lat="54.544682"><ele>171.106476</ele><time>2021-08-12T11:52:39Z</time><extensions><speed>0.918691</speed><course>71.034035</course><hAcc>0.881405</hAcc><vAcc>0.705071</vAcc></extensions></trkpt>
      <trkpt lon="-3.313281" lat="54.544686"><ele>170.911102</ele><time>2021-08-12T11:52:40Z</time><extensions><speed>0.923313</speed><course>74.315559</course><hAcc>0.881591</hAcc><vAcc>0.705225</vAcc></extensions></trkpt>
      <trkpt lon="-3.313270" lat="54.544691"><ele>170.721466</ele><time>2021-08-12T11:52:41Z</time><extensions><speed>0.920735</speed><course>82.074326</course><hAcc>0.881825</hAcc><vAcc>0.705313</vAcc></extensions></trkpt>
      <trkpt lon="-3.313259" lat="54.544696"><ele>170.537933</ele><time>2021-08-12T11:52:42Z</time><extensions><speed>0.912507</speed><course>78.798851</course><hAcc>0.882137</hAcc><vAcc>0.705389</vAcc></extensions></trkpt>
      <trkpt lon="-3.313247" lat="54.544701"><ele>170.360184</ele><time>2021-08-12T11:52:43Z</time><extensions><speed>0.900910</speed><course>71.049065</course><hAcc>0.882562</hAcc><vAcc>0.705508</vAcc></extensions></trkpt>
      <trkpt lon="-3.313236" lat="54.544706"><ele>170.187210</ele><time>2021-08-12T11:52:44Z</time><extensions><speed>0.887601</speed><course>66.417450</course><hAcc>0.883133</hAcc><vAcc>0.705714</vAcc></extensions></trkpt>
      <trkpt lon="-3.313224" lat="54.544710"><ele>170.017593</ele><time>2021-08-12T11:52:45Z</time><extensions><speed>0.873780</speed><course>67.881187</course><hAcc>0.883874</hAcc><vAcc>0.706037</vAcc></extensions></trkpt>
      <trkpt lon="-3.313213" lat="54.544714"><ele>169.849899</ele><time>2021-08-12T11:52:46Z</time><extensions><speed>0.860283</speed><course>73.946594</course><hAcc>0.884800</hAcc><vAcc>0.706490</vAcc></extensions></trkpt>
      <trkpt lon="-3.313201" lat="54.544717"><ele>169.682617</ele><time>2021-08-12T11:52:47Z</time><extensions><speed>0.847505</speed><course>66.868568</course><hAcc>0.885903</hAcc><vAcc>0.707075</vAcc></extensions></trkpt>
      <trkpt lon="-3.313189" lat="54.544720"><ele>169.514221</ele><time>2021-08-12T11:52:48Z</time><extensions><speed>0.835064</speed><course>57.370388</course><hAcc>0.887150</hAcc><vAcc>0.707772</vAcc></extensions></trkpt>
      <trkpt lon="-3.313177" lat="54.544723"><ele>169.343475</ele><time>2021-08-12T11:52:49Z</time><extensions><speed>0.822075</speed><course>72.859169</course><hAcc>0.888488</hAcc><vAcc>0.708551</vAcc></extensions></trkpt>
      <trkpt lon="-3.313165" lat="54.544725"><ele>169.169678</ele><time>2021-08-12T11:52:50Z</time><extensions><speed>0.808013</speed><course>73.476959</course><hAcc>0.889849</hAcc><vAcc>0.709371</vAcc></extensions></trkpt>
      <trkpt lon="-3.313153" lat="54.544727"><ele>168.992752</ele><time>2021-08-12T11:52:51Z</time><extensions><speed>0.794060</speed><course>70.985191</course><hAcc>0.891167</hAcc><vAcc>0.710194</vAcc></extensions></trkpt>
      <trkpt lon="-3.313141" lat="54.544729"><ele>168.813324</ele><time>2021-08-12T11:52:52Z</time><extensions><speed>0.782006</speed><course>67.094063</course><hAcc>0.892371</hAcc><vAcc>0.710986</vAcc></extensions></trkpt>
      <trkpt lon="-3.313130" lat="54.544730"><ele>168.632141</ele><time>2021-08-12T11:52:53Z</time><extensions><speed>0.772670</speed><course>63.802017</course><hAcc>0.893394</hAcc><vAcc>0.711724</vAcc></extensions></trkpt>
      <trkpt lon="-3.313118" lat="54.544732"><ele>168.449722</ele><time>2021-08-12T11:52:54Z</time><extensions><speed>0.766116</speed><course>59.738853</course><hAcc>0.894195</hAcc><vAcc>0.712394</vAcc></extensions></trkpt>
      <trkpt lon="-3.313106" lat="54.544733"><ele>168.266220</ele><time>2021-08-12T11:52:55Z</time><extensions><speed>0.762197</speed><course>64.752533</course><hAcc>0.894783</hAcc><vAcc>0.712996</vAcc></extensions></trkpt>
      <trkpt lon="-3.313095" lat="54.544734"><ele>168.081116</ele><time>2021-08-12T11:52:56Z</time><extensions><speed>0.760284</speed><course>62.678837</course><hAcc>0.895217</hAcc><vAcc>0.713538</vAcc></extensions></trkpt>
      <trkpt lon="-3.313083" lat="54.544735"><ele>167.893524</ele><time>2021-08-12T11:52:57Z</time><extensions><speed>0.759960</speed><course>67.622025</course><hAcc>0.895578</hAcc><vAcc>0.714036</vAcc></extensions></trkpt>
      <trkpt lon="-3.313071" lat="54.544736"><ele>167.703278</ele><time>2021-08-12T11:52:58Z</time><extensions><speed>0.761753</speed><course>76.998230</course><hAcc>0.895948</hAcc><vAcc>0.714505</vAcc></extensions></trkpt>
      <trkpt lon="-3.313060" lat="54.544737"><ele>167.510956</ele><time>2021-08-12T11:52:59Z</time><extensions><speed>0.764981</speed><course>71.279175</course><hAcc>0.896400</hAcc><vAcc>0.714956</vAcc></extensions></trkpt>
      <trkpt lon="-3.313048" lat="54.544738"><ele>167.316971</ele><time>2021-08-12T11:53:00Z</time><extensions><speed>0.767469</speed><course>66.215858</course><hAcc>0.896975</hAcc><vAcc>0.715392</vAcc></extensions></trkpt>
      <trkpt lon="-3.313036" lat="54.544739"><ele>167.121460</ele><time>2021-08-12T11:53:01Z</time><extensions><speed>0.767680</speed><course>65.869171</course><hAcc>0.897673</hAcc><vAcc>0.715803</vAcc></extensions></trkpt>
      <trkpt lon="-3.313025" lat="54.544740"><ele>166.924561</ele><time>2021-08-12T11:53:02Z</time><extensions><speed>0.765422</speed><course>67.480362</course><hAcc>0.898452</hAcc><vAcc>0.716175</vAcc></extensions></trkpt>
      <trkpt lon="-3.313013" lat="54.544742"><ele>166.726761</ele><time>2021-08-12T11:53:03Z</time><extensions><speed>0.760925</speed><course>62.467888</course><hAcc>0.899253</hAcc><vAcc>0.716486</vAcc></extensions></trkpt>
      <trkpt lon="-3.313002" lat="54.544744"><ele>166.528793</ele><time>2021-08-12T11:53:04Z</time><extensions><speed>0.754770</speed><course>57.403885</course><hAcc>0.900017</hAcc><vAcc>0.716719</vAcc></extensions></trkpt>
      <trkpt lon="-3.312991" lat="54.544746"><ele>166.331726</ele><time>2021-08-12T11:53:05Z</time><extensions><speed>0.747619</speed><course>56.104736</course><hAcc>0.900710</hAcc><vAcc>0.716854</vAcc></extensions></trkpt>
      <trkpt lon="-3.312980" lat="54.544749"><ele>166.136932</ele><time>2021-08-12T11:53:06Z</time><extensions><speed>0.740439</speed><course>57.135769</course><hAcc>0.901323</hAcc><vAcc>0.716872</vAcc></extensions></trkpt>
      <trkpt lon="-3.312970" lat="54.544751"><ele>165.946060</ele><time>2021-08-12T11:53:07Z</time><extensions><speed>0.734235</speed><course>59.466648</course><hAcc>0.901868</hAcc><vAcc>0.716753</vAcc></extensions></trkpt>
      <trkpt lon="-3.312960" lat="54.544754"><ele>165.760880</ele><time>2021-08-12T11:53:08Z</time><extensions><speed>0.729356</speed><course>56.466339</course><hAcc>0.902357</hAcc><vAcc>0.716486</vAcc></extensions></trkpt>
      <trkpt lon="-3.312950" lat="54.544758"><ele>165.583191</ele><time>2021-08-12T11:53:09Z</time><extensions><speed>0.726446</speed><course>61.082169</course><hAcc>0.902776</hAcc><vAcc>0.716062</vAcc></extensions></trkpt>
      <trkpt lon="-3.312941" lat="54.544761"><ele>165.414642</ele><time>2021-08-12T11:53:10Z</time><extensions><speed>0.726472</speed><course>63.000797</course><hAcc>0.903085</hAcc><vAcc>0.715482</vAcc></extensions></trkpt>
      <trkpt lon="-3.312932" lat="54.544765"><ele>165.256592</ele><time>2021-08-12T11:53:11Z</time><extensions><speed>0.729664</speed><course>58.373146</course><hAcc>0.903241</hAcc><vAcc>0.714762</vAcc></extensions></trkpt>
      <trkpt lon="-3.312923" lat="54.544769"><ele>165.109985</ele><time>2021-08-12T11:53:12Z</time><extensions><speed>0.736127</speed><course>59.591164</course><hAcc>0.903226</hAcc><vAcc>0.713937</vAcc></extensions></trkpt>
      <trkpt lon="-3.312914" lat="54.544773"><ele>164.975388</ele><time>2021-08-12T11:53:13Z</time><extensions><speed>0.746262</speed><course>56.078835</course><hAcc>0.903060</hAcc><vAcc>0.713063</vAcc></extensions></trkpt>
      <trkpt lon="-3.312905" lat="54.544777"><ele>164.853027</ele><time>2021-08-12T11:53:14Z</time><extensions><speed>0.760796</speed><course>61.452141</course><hAcc>0.902784</hAcc><vAcc>0.712197</vAcc></extensions></trkpt>
      <trkpt lon="-3.312895" lat="54.544782"><ele>164.742813</ele><time>2021-08-12T11:53:15Z</time><extensions><speed>0.780270</speed><course>62.349373</course><hAcc>0.902457</hAcc><vAcc>0.711395</vAcc></extensions></trkpt>
      <trkpt lon="-3.312885" lat="54.544786"><ele>164.644012</ele><time>2021-08-12T11:53:16Z</time><extensions><speed>0.804273</speed><course>67.502327</course><hAcc>0.902145</hAcc><vAcc>0.710693</vAcc></extensions></trkpt>
      <trkpt lon="-3.312875" lat="54.544790"><ele>164.554962</ele><time>2021-08-12T11:53:17Z</time><extensions><speed>0.832319</speed><course>65.148994</course><hAcc>0.901902</hAcc><vAcc>0.710111</vAcc></extensions></trkpt>
      <trkpt lon="-3.312864" lat="54.544794"><ele>164.473312</ele><time>2021-08-12T11:53:18Z</time><extensions><speed>0.863675</speed><course>61.604351</course><hAcc>0.901756</hAcc><vAcc>0.709660</vAcc></extensions></trkpt>
      <trkpt lon="-3.312852" lat="54.544798"><ele>164.396667</ele><time>2021-08-12T11:53:19Z</time><extensions><speed>0.897153</speed><course>67.356651</course><hAcc>0.901711</hAcc><vAcc>0.709341</vAcc></extensions></trkpt>
      <trkpt lon="-3.312840" lat="54.544802"><ele>164.323090</ele><time>2021-08-12T11:53:20Z</time><extensions><speed>0.930940</speed><course>56.187717</course><hAcc>0.901757</hAcc><vAcc>0.709152</vAcc></extensions></trkpt>
      <trkpt lon="-3.312827" lat="54.544806"><ele>164.251373</ele><time>2021-08-12T11:53:21Z</time><extensions><speed>0.962893</speed><course>56.273357</course><hAcc>0.901877</hAcc><vAcc>0.709083</vAcc></extensions></trkpt>
      <trkpt lon="-3.312813" lat="54.544810"><ele>164.181183</ele><time>2021-08-12T11:53:22Z</time><extensions><speed>0.991100</speed><course>59.042984</course><hAcc>0.902060</hAcc><vAcc>0.709114</vAcc></extensions></trkpt>
      <trkpt lon="-3.312799" lat="54.544814"><ele>164.112946</ele><time>2021-08-12T11:53:23Z</time><extensions><speed>1.014240</speed><course>46.754299</course><hAcc>0.902290</hAcc><vAcc>0.709216</vAcc></extensions></trkpt>
      <trkpt lon="-3.312785" lat="54.544817"><ele>164.047333</ele><time>2021-08-12T11:53:24Z</time><extensions><speed>1.032308</speed><course>46.754295</course><hAcc>0.902542</hAcc><vAcc>0.709357</vAcc></extensions></trkpt>
      <trkpt lon="-3.312770" lat="54.544821"><ele>163.984787</ele><time>2021-08-12T11:53:25Z</time><extensions><speed>1.045677</speed><course>46.754295</course><hAcc>0.902772</hAcc><vAcc>0.709505</vAcc></extensions></trkpt>
      <trkpt lon="-3.312755" lat="54.544825"><ele>163.925552</ele><time>2021-08-12T11:53:26Z</time><extensions><speed>1.055212</speed><course>46.754295</course><hAcc>0.902908</hAcc><vAcc>0.709634</vAcc></extensions></trkpt>
      <trkpt lon="-3.312740" lat="54.544828"><ele>163.869949</ele><time>2021-08-12T11:53:27Z</time><extensions><speed>1.062720</speed><course>46.754295</course><hAcc>0.902869</hAcc><vAcc>0.709719</vAcc></extensions></trkpt>
      <trkpt lon="-3.312724" lat="54.544832"><ele>163.818512</ele><time>2021-08-12T11:53:28Z</time><extensions><speed>1.069470</speed><course>46.754295</course><hAcc>0.902584</hAcc><vAcc>0.709736</vAcc></extensions></trkpt>
      <trkpt lon="-3.312709" lat="54.544835"><ele>163.771729</ele><time>2021-08-12T11:53:29Z</time><extensions><speed>1.075526</speed><course>46.754295</course><hAcc>0.902009</hAcc><vAcc>0.709662</vAcc></extensions></trkpt>
      <trkpt lon="-3.312694" lat="54.544839"><ele>163.729919</ele><time>2021-08-12T11:53:30Z</time><extensions><speed>1.080320</speed><course>46.754292</course><hAcc>0.901127</hAcc><vAcc>0.709477</vAcc></extensions></trkpt>
      <trkpt lon="-3.312678" lat="54.544843"><ele>163.692841</ele><time>2021-08-12T11:53:31Z</time><extensions><speed>1.083756</speed><course>46.754295</course><hAcc>0.899954</hAcc><vAcc>0.709177</vAcc></extensions></trkpt>
      <trkpt lon="-3.312663" lat="54.544847"><ele>163.659744</ele><time>2021-08-12T11:53:32Z</time><extensions><speed>1.086304</speed><course>86.257805</course><hAcc>0.898532</hAcc><vAcc>0.708769</vAcc></extensions></trkpt>
      <trkpt lon="-3.312647" lat="54.544850"><ele>163.629608</ele><time>2021-08-12T11:53:33Z</time><extensions><speed>1.088367</speed><course>92.864906</course><hAcc>0.896926</hAcc><vAcc>0.708276</vAcc></extensions></trkpt>
      <trkpt lon="-3.312632" lat="54.544854"><ele>163.601303</ele><time>2021-08-12T11:53:34Z</time><extensions><speed>1.088961</speed><course>94.458534</course><hAcc>0.895217</hAcc><vAcc>0.707729</vAcc></extensions></trkpt>
      <trkpt lon="-3.312616" lat="54.544858"><ele>163.573486</ele><time>2021-08-12T11:53:35Z</time><extensions><speed>1.086484</speed><course>89.165138</course><hAcc>0.893498</hAcc><vAcc>0.707168</vAcc></extensions></trkpt>
      <trkpt lon="-3.312601" lat="54.544862"><ele>163.544540</ele><time>2021-08-12T11:53:36Z</time><extensions><speed>1.080540</speed><course>98.187202</course><hAcc>0.891860</hAcc><vAcc>0.706637</vAcc></extensions></trkpt>
      <trkpt lon="-3.312585" lat="54.544865"><ele>163.512527</ele><time>2021-08-12T11:53:37Z</time><extensions><speed>1.071360</speed><course>262.094696</course><hAcc>0.890377</hAcc><vAcc>0.706173</vAcc></extensions></trkpt>
      <trkpt lon="-3.312570" lat="54.544868"><ele>163.475540</ele><time>2021-08-12T11:53:38Z</time><extensions><speed>1.059276</speed><course>273.339569</course><hAcc>0.889088</hAcc><vAcc>0.705806</vAcc></extensions></trkpt>
      <trkpt lon="-3.312554" lat="54.544871"><ele>163.431702</ele><time>2021-08-12T11:53:39Z</time><extensions><speed>1.045105</speed><course>270.133057</course><hAcc>0.887988</hAcc><vAcc>0.705547</vAcc></extensions></trkpt>
      <trkpt lon="-3.312539" lat="54.544874"><ele>163.379303</ele><time>2021-08-12T11:53:40Z</time><extensions><speed>1.030468</speed><course>264.401459</course><hAcc>0.887038</hAcc><vAcc>0.705398</vAcc></extensions></trkpt>
      <trkpt lon="-3.312523" lat="54.544876"><ele>163.317429</ele><time>2021-08-12T11:53:41Z</time><extensions><speed>1.016328</speed><course>271.206299</course><hAcc>0.886189</hAcc><vAcc>0.705348</vAcc></extensions></trkpt>
      <trkpt lon="-3.312508" lat="54.544878"><ele>163.245636</ele><time>2021-08-12T11:53:42Z</time><extensions><speed>1.003415</speed><course>270.479279</course><hAcc>0.885406</hAcc><vAcc>0.705383</vAcc></extensions></trkpt>
      <trkpt lon="-3.312493" lat="54.544879"><ele>163.163315</ele><time>2021-08-12T11:53:43Z</time><extensions><speed>0.992642</speed><course>270.479279</course><hAcc>0.884678</hAcc><vAcc>0.705483</vAcc></extensions></trkpt>
      <trkpt lon="-3.312478" lat="54.544880"><ele>163.069962</ele><time>2021-08-12T11:53:44Z</time><extensions><speed>0.983637</speed><course>270.479279</course><hAcc>0.884018</hAcc><vAcc>0.705631</vAcc></extensions></trkpt>
      <trkpt lon="-3.312463" lat="54.544881"><ele>162.965393</ele><time>2021-08-12T11:53:45Z</time><extensions><speed>0.974941</speed><course>92.836548</course><hAcc>0.883445</hAcc><vAcc>0.705803</vAcc></extensions></trkpt>
      <trkpt lon="-3.312448" lat="54.544882"><ele>162.849823</ele><time>2021-08-12T11:53:46Z</time><extensions><speed>0.964991</speed><course>91.847809</course><hAcc>0.882968</hAcc><vAcc>0.705972</vAcc></extensions></trkpt>
      <trkpt lon="-3.312433" lat="54.544882"><ele>162.723663</ele><time>2021-08-12T11:53:47Z</time><extensions><speed>0.952617</speed><course>96.972961</course><hAcc>0.882582</hAcc><vAcc>0.706111</vAcc></extensions></trkpt>
      <trkpt lon="-3.312418" lat="54.544881"><ele>162.587479</ele><time>2021-08-12T11:53:48Z</time><extensions><speed>0.936375</speed><course>101.432434</course><hAcc>0.882275</hAcc><vAcc>0.706191</vAcc></extensions></trkpt>
      <trkpt lon="-3.312404" lat="54.544881"><ele>162.441849</ele><time>2021-08-12T11:53:49Z</time><extensions><speed>0.915736</speed><course>89.921867</course><hAcc>0.882029</hAcc><vAcc>0.706186</vAcc></extensions></trkpt>
      <trkpt lon="-3.312390" lat="54.544880"><ele>162.287506</ele><time>2021-08-12T11:53:50Z</time><extensions><speed>0.892648</speed><course>79.468422</course><hAcc>0.881822</hAcc><vAcc>0.706076</vAcc></extensions></trkpt>
      <trkpt lon="-3.312377" lat="54.544879"><ele>162.125519</ele><time>2021-08-12T11:53:51Z</time><extensions><speed>0.870300</speed><course>79.668663</course><hAcc>0.881633</hAcc><vAcc>0.705842</vAcc></extensions></trkpt>
      <trkpt lon="-3.312364" lat="54.544877"><ele>161.957016</ele><time>2021-08-12T11:53:52Z</time><extensions><speed>0.851461</speed><course>70.198914</course><hAcc>0.881447</hAcc><vAcc>0.705471</vAcc></extensions></trkpt>
      <trkpt lon="-3.312351" lat="54.544875"><ele>161.782898</ele><time>2021-08-12T11:53:53Z</time><extensions><speed>0.837638</speed><course>85.811096</course><hAcc>0.881248</hAcc><vAcc>0.704951</vAcc></extensions></trkpt>
      <trkpt lon="-3.312339" lat="54.544873"><ele>161.603851</ele><time>2021-08-12T11:53:54Z</time><extensions><speed>0.829127</speed><course>87.515213</course><hAcc>0.881029</hAcc><vAcc>0.704270</vAcc></extensions></trkpt>
      <trkpt lon="-3.312327" lat="54.544870"><ele>161.420380</ele><time>2021-08-12T11:53:55Z</time><extensions><speed>0.825544</speed><course>86.802406</course><hAcc>0.880785</hAcc><vAcc>0.703423</vAcc></extensions></trkpt>
      <trkpt lon="-3.312316" lat="54.544867"><ele>161.232956</ele><time>2021-08-12T11:53:56Z</time><extensions><speed>0.826085</speed><course>85.424927</course><hAcc>0.880515</hAcc><vAcc>0.702416</vAcc></extensions></trkpt>
      <trkpt lon="-3.312304" lat="54.544863"><ele>161.042526</ele><time>2021-08-12T11:53:57Z</time><extensions><speed>0.829518</speed><course>88.911957</course><hAcc>0.880223</hAcc><vAcc>0.701274</vAcc></extensions></trkpt>
      <trkpt lon="-3.312293" lat="54.544859"><ele>160.850967</ele><time>2021-08-12T11:53:58Z</time><extensions><speed>0.834323</speed><course>93.027184</course><hAcc>0.879913</hAcc><vAcc>0.700033</vAcc></extensions></trkpt>
      <trkpt lon="-3.312282" lat="54.544855"><ele>160.661118</ele><time>2021-08-12T11:53:59Z</time><extensions><speed>0.838952</speed><course>90.763535</course><hAcc>0.879594</hAcc><vAcc>0.698746</vAcc></extensions></trkpt>
      <trkpt lon="-3.312272" lat="54.544851"><ele>160.475754</ele><time>2021-08-12T11:54:00Z</time><extensions><speed>0.842001</speed><course>83.392509</course><hAcc>0.879272</hAcc><vAcc>0.697463</vAcc></extensions></trkpt>
      <trkpt lon="-3.312261" lat="54.544847"><ele>160.296707</ele><time>2021-08-12T11:54:01Z</time><extensions><speed>0.842233</speed><course>57.334152</course><hAcc>0.878954</hAcc><vAcc>0.696226</vAcc></extensions></trkpt>
      <trkpt lon="-3.312250" lat="54.544843"><ele>160.124969</ele><time>2021-08-12T11:54:02Z</time><extensions><speed>0.837809</speed><course>29.254333</course><hAcc>0.878644</hAcc><vAcc>0.695069</vAcc></extensions></trkpt>
      <trkpt lon="-3.312239" lat="54.544839"><ele>159.961517</ele><time>2021-08-12T11:54:03Z</time><extensions><speed>0.827022</speed><course>29.254333</course><hAcc>0.878347</hAcc><vAcc>0.694011</vAcc></extensions></trkpt>
      <trkpt lon="-3.312228" lat="54.544835"><ele>159.807556</ele><time>2021-08-12T11:54:04Z</time><extensions><speed>0.809419</speed><course>29.254333</course><hAcc>0.878061</hAcc><vAcc>0.693056</vAcc></extensions></trkpt>
      <trkpt lon="-3.312218" lat="54.544831"><ele>159.663773</ele><time>2021-08-12T11:54:05Z</time><extensions><speed>0.785448</speed><course>29.254332</course><hAcc>0.877783</hAcc><vAcc>0.692187</vAcc></extensions></trkpt>
      <trkpt lon="-3.312207" lat="54.544828"><ele>159.530014</ele><time>2021-08-12T11:54:06Z</time><extensions><speed>0.756742</speed><course>29.254333</course><hAcc>0.877511</hAcc><vAcc>0.691369</vAcc></extensions></trkpt>
      <trkpt lon="-3.312196" lat="54.544826"><ele>159.405426</ele><time>2021-08-12T11:54:07Z</time><extensions><speed>0.725635</speed><course>29.254332</course><hAcc>0.877237</hAcc><vAcc>0.690551</vAcc></extensions></trkpt>
      <trkpt lon="-3.312186" lat="54.544825"><ele>159.288849</ele><time>2021-08-12T11:54:08Z</time><extensions><speed>0.695644</speed><course>29.254332</course><hAcc>0.876959</hAcc><vAcc>0.689686</vAcc></extensions></trkpt>
      <trkpt lon="-3.312175" lat="54.544824"><ele>159.179352</ele><time>2021-08-12T11:54:09Z</time><extensions><speed>0.672580</speed><course>29.254333</course><hAcc>0.876677</hAcc><vAcc>0.688741</vAcc></extensions></trkpt>
      <trkpt lon="-3.312165" lat="54.544824"><ele>159.076797</ele><time>2021-08-12T11:54:10Z</time><extensions><speed>0.662298</speed><course>29.254333</course><hAcc>0.876394</hAcc><vAcc>0.687709</vAcc></extensions></trkpt>
      <trkpt lon="-3.312155" lat="54.544824"><ele>158.981628</ele><time>2021-08-12T11:54:11Z</time><extensions><speed>0.666913</speed><course>29.254332</course><hAcc>0.876121</hAcc><vAcc>0.686618</vAcc></extensions></trkpt>
      <trkpt lon="-3.312145" lat="54.544826"><ele>158.894501</ele><time>2021-08-12T11:54:12Z</time><extensions><speed>0.684188</speed><course>29.254333</course><hAcc>0.875870</hAcc><vAcc>0.685545</vAcc></extensions></trkpt>
      <trkpt lon="-3.312135" lat="54.544829"><ele>158.816223</ele><time>2021-08-12T11:54:13Z</time><extensions><speed>0.709432</speed><course>29.254337</course><hAcc>0.875661</hAcc><vAcc>0.684609</vAcc></extensions></trkpt>
      <trkpt lon="-3.312125" lat="54.544832"><ele>158.747482</ele><time>2021-08-12T11:54:14Z</time><extensions><speed>0.737947</speed><course>29.254337</course><hAcc>0.875507</hAcc><vAcc>0.683913</vAcc></extensions></trkpt>
      <trkpt lon="-3.312115" lat="54.544835"><ele>158.688583</ele><time>2021-08-12T11:54:15Z</time><extensions><speed>0.765556</speed><course>29.254339</course><hAcc>0.875413</hAcc><vAcc>0.683499</vAcc></extensions></trkpt>
      <trkpt lon="-3.312106" lat="54.544840"><ele>158.639389</ele><time>2021-08-12T11:54:16Z</time><extensions><speed>0.788338</speed><course>29.254337</course><hAcc>0.875376</hAcc><vAcc>0.683349</vAcc></extensions></trkpt>
      <trkpt lon="-3.312096" lat="54.544844"><ele>158.599442</ele><time>2021-08-12T11:54:17Z</time><extensions><speed>0.803630</speed><course>29.254339</course><hAcc>0.875391</hAcc><vAcc>0.683427</vAcc></extensions></trkpt>
      <trkpt lon="-3.312087" lat="54.544849"><ele>158.567886</ele><time>2021-08-12T11:54:18Z</time><extensions><speed>0.809678</speed><course>353.139893</course><hAcc>0.875451</hAcc><vAcc>0.683686</vAcc></extensions></trkpt>
      <trkpt lon="-3.312078" lat="54.544854"><ele>158.543182</ele><time>2021-08-12T11:54:19Z</time><extensions><speed>0.805219</speed><course>-1.000000</course><hAcc>0.875544</hAcc><vAcc>0.684077</vAcc></extensions></trkpt>
      <trkpt lon="-3.312069" lat="54.544859"><ele>158.522858</ele><time>2021-08-12T11:54:20Z</time><extensions><speed>0.789624</speed><course>-1.000000</course><hAcc>0.875664</hAcc><vAcc>0.684552</vAcc></extensions></trkpt>
      <trkpt lon="-3.312060" lat="54.544863"><ele>158.503479</ele><time>2021-08-12T11:54:21Z</time><extensions><speed>0.763788</speed><course>-1.000000</course><hAcc>0.875800</hAcc><vAcc>0.685074</vAcc></extensions></trkpt>
      <trkpt lon="-3.312051" lat="54.544868"><ele>158.480911</ele><time>2021-08-12T11:54:22Z</time><extensions><speed>0.730279</speed><course>-1.000000</course><hAcc>0.875947</hAcc><vAcc>0.685623</vAcc></extensions></trkpt>
      <trkpt lon="-3.312042" lat="54.544871"><ele>158.450653</ele><time>2021-08-12T11:54:23Z</time><extensions><speed>0.692636</speed><course>-1.000000</course><hAcc>0.876098</hAcc><vAcc>0.686185</vAcc></extensions></trkpt>
      <trkpt lon="-3.312033" lat="54.544874"><ele>158.408356</ele><time>2021-08-12T11:54:24Z</time><extensions><speed>0.654986</speed><course>-1.000000</course><hAcc>0.876249</hAcc><vAcc>0.686753</vAcc></extensions></trkpt>
      <trkpt lon="-3.312024" lat="54.544877"><ele>158.350494</ele><time>2021-08-12T11:54:25Z</time><extensions><speed>0.621522</speed><course>-1.000000</course><hAcc>0.876397</hAcc><vAcc>0.687321</vAcc></extensions></trkpt>
      <trkpt lon="-3.312015" lat="54.544878"><ele>158.275024</ele><time>2021-08-12T11:54:26Z</time><extensions><speed>0.595762</speed><course>-1.000000</course><hAcc>0.876538</hAcc><vAcc>0.687874</vAcc></extensions></trkpt>
      <trkpt lon="-3.312006" lat="54.544879"><ele>158.181564</ele><time>2021-08-12T11:54:27Z</time><extensions><speed>0.580213</speed><course>-1.000000</course><hAcc>0.876671</hAcc><vAcc>0.688394</vAcc></extensions></trkpt>
      <trkpt lon="-3.311997" lat="54.544880"><ele>158.071152</ele><time>2021-08-12T11:54:28Z</time><extensions><speed>0.575614</speed><course>-1.000000</course><hAcc>0.876795</hAcc><vAcc>0.688864</vAcc></extensions></trkpt>
      <trkpt lon="-3.311988" lat="54.544879"><ele>157.945908</ele><time>2021-08-12T11:54:29Z</time><extensions><speed>0.580257</speed><course>-1.000000</course><hAcc>0.876911</hAcc><vAcc>0.689274</vAcc></extensions></trkpt>
      <trkpt lon="-3.311979" lat="54.544879"><ele>157.808319</ele><time>2021-08-12T11:54:30Z</time><extensions><speed>0.591765</speed><course>74.830536</course><hAcc>0.877024</hAcc><vAcc>0.689623</vAcc></extensions></trkpt>
      <trkpt lon="-3.311970" lat="54.544877"><ele>157.660706</ele><time>2021-08-12T11:54:31Z</time><extensions><speed>0.608339</speed><course>62.161198</course><hAcc>0.877140</hAcc><vAcc>0.689929</vAcc></extensions></trkpt>
      <trkpt lon="-3.311961" lat="54.544876"><ele>157.505112</ele><time>2021-08-12T11:54:32Z</time><extensions><speed>0.628608</speed><course>66.043793</course><hAcc>0.877270</hAcc><vAcc>0.690244</vAcc></extensions></trkpt>
      <trkpt lon="-3.311952" lat="54.544874"><ele>157.343369</ele><time>2021-08-12T11:54:33Z</time><extensions><speed>0.651882</speed><course>75.803009</course><hAcc>0.877425</hAcc><vAcc>0.690646</vAcc></extensions></trkpt>
      <trkpt lon="-3.311942" lat="54.544872"><ele>157.176880</ele><time>2021-08-12T11:54:34Z</time><extensions><speed>0.677951</speed><course>76.191063</course><hAcc>0.877615</hAcc><vAcc>0.691213</vAcc></extensions></trkpt>
      <trkpt lon="-3.311932" lat="54.544870"><ele>157.006973</ele><time>2021-08-12T11:54:35Z</time><extensions><speed>0.707774</speed><course>76.349960</course><hAcc>0.877849</hAcc><vAcc>0.692002</vAcc></extensions></trkpt>
      <trkpt lon="-3.311921" lat="54.544868"><ele>156.835571</ele><time>2021-08-12T11:54:36Z</time><extensions><speed>0.743019</speed><course>78.477806</course><hAcc>0.878130</hAcc><vAcc>0.693037</vAcc></extensions></trkpt>
      <trkpt lon="-3.311909" lat="54.544867"><ele>156.665161</ele><time>2021-08-12T11:54:37Z</time><extensions><speed>0.784426</speed><course>75.070290</course><hAcc>0.878458</hAcc><vAcc>0.694307</vAcc></extensions></trkpt>
      <trkpt lon="-3.311897" lat="54.544866"><ele>156.498383</ele><time>2021-08-12T11:54:38Z</time><extensions><speed>0.832213</speed><course>69.086029</course><hAcc>0.878825</hAcc><vAcc>0.695778</vAcc></extensions></trkpt>
      <trkpt lon="-3.311884" lat="54.544866"><ele>156.338196</ele><time>2021-08-12T11:54:39Z</time><extensions><speed>0.885712</speed><course>68.949226</course><hAcc>0.879224</hAcc><vAcc>0.697396</vAcc></extensions></trkpt>
      <trkpt lon="-3.311869" lat="54.544866"><ele>156.187561</ele><time>2021-08-12T11:54:40Z</time><extensions><speed>0.943112</speed><course>71.686111</course><hAcc>0.879641</hAcc><vAcc>0.699090</vAcc></extensions></trkpt>
      <trkpt lon="-3.311854" lat="54.544867"><ele>156.048904</ele><time>2021-08-12T11:54:41Z</time><extensions><speed>1.001673</speed><course>76.597496</course><hAcc>0.880063</hAcc><vAcc>0.700785</vAcc></extensions></trkpt>
      <trkpt lon="-3.311839" lat="54.544868"><ele>155.923935</ele><time>2021-08-12T11:54:42Z</time><extensions><speed>1.058213</speed><course>90.005066</course><hAcc>0.880477</hAcc><vAcc>0.702411</vAcc></extensions></trkpt>
      <trkpt lon="-3.311822" lat="54.544870"><ele>155.813583</ele><time>2021-08-12T11:54:43Z</time><extensions><speed>1.110076</speed><course>83.948074</course><hAcc>0.880869</hAcc><vAcc>0.703916</vAcc></extensions></trkpt>
      <trkpt lon="-3.311805" lat="54.544872"><ele>155.718048</ele><time>2021-08-12T11:54:44Z</time><extensions><speed>1.155256</speed><course>76.996796</course><hAcc>0.881228</hAcc><vAcc>0.705264</vAcc></extensions></trkpt>
      <trkpt lon="-3.311787" lat="54.544874"><ele>155.636749</ele><time>2021-08-12T11:54:45Z</time><extensions><speed>1.192320</speed><course>79.507355</course><hAcc>0.881546</hAcc><vAcc>0.706431</vAcc></extensions></trkpt>
      <trkpt lon="-3.311769" lat="54.544877"><ele>155.568192</ele><time>2021-08-12T11:54:46Z</time><extensions><speed>1.219724</speed><course>72.096832</course><hAcc>0.881817</hAcc><vAcc>0.707406</vAcc></extensions></trkpt>
      <trkpt lon="-3.311751" lat="54.544880"><ele>155.509857</ele><time>2021-08-12T11:54:47Z</time><extensions><speed>1.237140</speed><course>80.368279</course><hAcc>0.882037</hAcc><vAcc>0.708183</vAcc></extensions></trkpt>
      <trkpt lon="-3.311732" lat="54.544882"><ele>155.458511</ele><time>2021-08-12T11:54:48Z</time><extensions><speed>1.245207</speed><course>78.982643</course><hAcc>0.882205</hAcc><vAcc>0.708759</vAcc></extensions></trkpt>
      <trkpt lon="-3.311714" lat="54.544885"><ele>155.410919</ele><time>2021-08-12T11:54:49Z</time><extensions><speed>1.243969</speed><course>81.075706</course><hAcc>0.882323</hAcc><vAcc>0.709136</vAcc></extensions></trkpt>
      <trkpt lon="-3.311695" lat="54.544888"><ele>155.364243</ele><time>2021-08-12T11:54:50Z</time><extensions><speed>1.233281</speed><course>81.007790</course><hAcc>0.882394</hAcc><vAcc>0.709322</vAcc></extensions></trkpt>
      <trkpt lon="-3.311677" lat="54.544890"><ele>155.315948</ele><time>2021-08-12T11:54:51Z</time><extensions><speed>1.213999</speed><course>78.272133</course><hAcc>0.882422</hAcc><vAcc>0.709336</vAcc></extensions></trkpt>
      <trkpt lon="-3.311659" lat="54.544893"><ele>155.263870</ele><time>2021-08-12T11:54:52Z</time><extensions><speed>1.187685</speed><course>73.069588</course><hAcc>0.882412</hAcc><vAcc>0.709200</vAcc></extensions></trkpt>
      <trkpt lon="-3.311641" lat="54.544895"><ele>155.206436</ele><time>2021-08-12T11:54:53Z</time><extensions><speed>1.154929</speed><course>77.189682</course><hAcc>0.882371</hAcc><vAcc>0.708946</vAcc></extensions></trkpt>
      <trkpt lon="-3.311624" lat="54.544897"><ele>155.142319</ele><time>2021-08-12T11:54:54Z</time><extensions><speed>1.116321</speed><course>75.197517</course><hAcc>0.882303</hAcc><vAcc>0.708604</vAcc></extensions></trkpt>
      <trkpt lon="-3.311607" lat="54.544899"><ele>155.070435</ele><time>2021-08-12T11:54:55Z</time><extensions><speed>1.073552</speed><course>67.733307</course><hAcc>0.882213</hAcc><vAcc>0.708207</vAcc></extensions></trkpt>
      <trkpt lon="-3.311591" lat="54.544900"><ele>154.989960</ele><time>2021-08-12T11:54:56Z</time><extensions><speed>1.029379</speed><course>69.123688</course><hAcc>0.882105</hAcc><vAcc>0.707785</vAcc></extensions></trkpt>
      <trkpt lon="-3.311576" lat="54.544901"><ele>154.900284</ele><time>2021-08-12T11:54:57Z</time><extensions><speed>0.987599</speed><course>71.299400</course><hAcc>0.881982</hAcc><vAcc>0.707354</vAcc></extensions></trkpt>
      <trkpt lon="-3.311561" lat="54.544901"><ele>154.801239</ele><time>2021-08-12T11:54:58Z</time><extensions><speed>0.951407</speed><course>77.479210</course><hAcc>0.881848</hAcc><vAcc>0.706918</vAcc></extensions></trkpt>
      <trkpt lon="-3.311546" lat="54.544901"><ele>154.693069</ele><time>2021-08-12T11:54:59Z</time><extensions><speed>0.922358</speed><course>68.623329</course><hAcc>0.881704</hAcc><vAcc>0.706465</vAcc></extensions></trkpt>
      <trkpt lon="-3.311532" lat="54.544901"><ele>154.576065</ele><time>2021-08-12T11:55:00Z</time><extensions><speed>0.900576</speed><course>63.866425</course><hAcc>0.881553</hAcc><vAcc>0.705976</vAcc></extensions></trkpt>
      <trkpt lon="-3.311518" lat="54.544899"><ele>154.450455</ele><time>2021-08-12T11:55:01Z</time><extensions><speed>0.885692</speed><course>76.291603</course><hAcc>0.881399</hAcc><vAcc>0.705434</vAcc></extensions></trkpt>
      <trkpt lon="-3.311505" lat="54.544898"><ele>154.316315</ele><time>2021-08-12T11:55:02Z</time><extensions><speed>0.877801</speed><course>71.777351</course><hAcc>0.881247</hAcc><vAcc>0.704841</vAcc></extensions></trkpt>
      <trkpt lon="-3.311492" lat="54.544896"><ele>154.173447</ele><time>2021-08-12T11:55:03Z</time><extensions><speed>0.877577</speed><course>76.476341</course><hAcc>0.881102</hAcc><vAcc>0.704218</vAcc></extensions></trkpt>
      <trkpt lon="-3.311479" lat="54.544893"><ele>154.021622</ele><time>2021-08-12T11:55:04Z</time><extensions><speed>0.886390</speed><course>63.346680</course><hAcc>0.880971</hAcc><vAcc>0.703603</vAcc></extensions></trkpt>
      <trkpt lon="-3.311466" lat="54.544890"><ele>153.861084</ele><time>2021-08-12T11:55:05Z</time><extensions><speed>0.904177</speed><course>60.883244</course><hAcc>0.880862</hAcc><vAcc>0.703047</vAcc></extensions></trkpt>
      <trkpt lon="-3.311453" lat="54.544887"><ele>153.692596</ele><time>2021-08-12T11:55:06Z</time><extensions><speed>0.929298</speed><course>66.100471</course><hAcc>0.880783</hAcc><vAcc>0.702610</vAcc></extensions></trkpt>
      <trkpt lon="-3.311440" lat="54.544884"><ele>153.517349</ele><time>2021-08-12T11:55:07Z</time><extensions><speed>0.960474</speed><course>66.284729</course><hAcc>0.880742</hAcc><vAcc>0.702346</vAcc></extensions></trkpt>
      <trkpt lon="-3.311426" lat="54.544880"><ele>153.336716</ele><time>2021-08-12T11:55:08Z</time><extensions><speed>0.997477</speed><course>70.183884</course><hAcc>0.880742</hAcc><vAcc>0.702292</vAcc></extensions></trkpt>
      <trkpt lon="-3.311411" lat="54.544877"><ele>153.152115</ele><time>2021-08-12T11:55:09Z</time><extensions><speed>1.040507</speed><course>69.091454</course><hAcc>0.880788</hAcc><vAcc>0.702463</vAcc></extensions></trkpt>
      <trkpt lon="-3.311395" lat="54.544874"><ele>152.964478</ele><time>2021-08-12T11:55:10Z</time><extensions><speed>1.089199</speed><course>67.595528</course><hAcc>0.880879</hAcc><vAcc>0.702848</vAcc></extensions></trkpt>
      <trkpt lon="-3.311379" lat="54.544871"><ele>152.774643</ele><time>2021-08-12T11:55:11Z</time><extensions><speed>1.143037</speed><course>69.079941</course><hAcc>0.881010</hAcc><vAcc>0.703423</vAcc></extensions></trkpt>
      <trkpt lon="-3.311361" lat="54.544868"><ele>152.583313</ele><time>2021-08-12T11:55:12Z</time><extensions><speed>1.199859</speed><course>67.638985</course><hAcc>0.881177</hAcc><vAcc>0.704155</vAcc></extensions></trkpt>
      <trkpt lon="-3.311343" lat="54.544866"><ele>152.391113</ele><time>2021-08-12T11:55:13Z</time><extensions><speed>1.256476</speed><course>67.902077</course><hAcc>0.881370</hAcc><vAcc>0.705003</vAcc></extensions></trkpt>
      <trkpt lon="-3.311323" lat="54.544864"><ele>152.199020</ele><time>2021-08-12T11:55:14Z</time><extensions><speed>1.310827</speed><course>68.213737</course><hAcc>0.881581</hAcc><vAcc>0.705916</vAcc></extensions></trkpt>
      <trkpt lon="-3.311303" lat="54.544863"><ele>152.008728</ele><time>2021-08-12T11:55:15Z</time><extensions><speed>1.361290</speed><course>58.646133</course><hAcc>0.881799</hAcc><vAcc>0.706843</vAcc></extensions></trkpt>
      <trkpt lon="-3.311282" lat="54.544862"><ele>151.821793</ele><time>2021-08-12T11:55:16Z</time><extensions><speed>1.406148</speed><course>60.787758</course><hAcc>0.882014</hAcc><vAcc>0.707735</vAcc></extensions></trkpt>
      <trkpt lon="-3.311260" lat="54.544861"><ele>151.639374</ele><time>2021-08-12T11:55:17Z</time><extensions><speed>1.443957</speed><course>59.107254</course><hAcc>0.882217</hAcc><vAcc>0.708553</vAcc></extensions></trkpt>
      <trkpt lon="-3.311237" lat="54.544861"><ele>151.462006</ele><time>2021-08-12T11:55:18Z</time><extensions><speed>1.473764</speed><course>59.308796</course><hAcc>0.882402</hAcc><vAcc>0.709268</vAcc></extensions></trkpt>
      <trkpt lon="-3.311214" lat="54.544862"><ele>151.289368</ele><time>2021-08-12T11:55:19Z</time><extensions><speed>1.495287</speed><course>63.536522</course><hAcc>0.882562</hAcc><vAcc>0.709860</vAcc></extensions></trkpt>
      <trkpt lon="-3.311191" lat="54.544863"><ele>151.120560</ele><time>2021-08-12T11:55:20Z</time><extensions><speed>1.509143</speed><course>64.110619</course><hAcc>0.882694</hAcc><vAcc>0.710322</vAcc></extensions></trkpt>
      <trkpt lon="-3.311168" lat="54.544864"><ele>150.954834</ele><time>2021-08-12T11:55:21Z</time><extensions><speed>1.516305</speed><course>57.783936</course><hAcc>0.882797</hAcc><vAcc>0.710657</vAcc></extensions></trkpt>
      <trkpt lon="-3.311144" lat="54.544866"><ele>150.791794</ele><time>2021-08-12T11:55:22Z</time><extensions><speed>1.517624</speed><course>62.673740</course><hAcc>0.882872</hAcc><vAcc>0.710873</vAcc></extensions></trkpt>
      <trkpt lon="-3.311121" lat="54.544868"><ele>150.631042</ele><time>2021-08-12T11:55:23Z</time><extensions><speed>1.513563</speed><course>68.268181</course><hAcc>0.882921</hAcc><vAcc>0.710983</vAcc></extensions></trkpt>
      <trkpt lon="-3.311098" lat="54.544870"><ele>150.472153</ele><time>2021-08-12T11:55:24Z</time><extensions><speed>1.504425</speed><course>59.735432</course><hAcc>0.882947</hAcc><vAcc>0.711003</vAcc></extensions></trkpt>
      <trkpt lon="-3.311076" lat="54.544872"><ele>150.314590</ele><time>2021-08-12T11:55:25Z</time><extensions><speed>1.490458</speed><course>59.192490</course><hAcc>0.882955</hAcc><vAcc>0.710954</vAcc></extensions></trkpt>
      <trkpt lon="-3.311053" lat="54.544875"><ele>150.157913</ele><time>2021-08-12T11:55:26Z</time><extensions><speed>1.471739</speed><course>60.825825</course><hAcc>0.882950</hAcc><vAcc>0.710858</vAcc></extensions></trkpt>
      <trkpt lon="-3.311031" lat="54.544877"><ele>150.001831</ele><time>2021-08-12T11:55:27Z</time><extensions><speed>1.448111</speed><course>62.921200</course><hAcc>0.882937</hAcc><vAcc>0.710742</vAcc></extensions></trkpt>
      <trkpt lon="-3.311009" lat="54.544880"><ele>149.846146</ele><time>2021-08-12T11:55:28Z</time><extensions><speed>1.419558</speed><course>59.145714</course><hAcc>0.882919</hAcc><vAcc>0.710626</vAcc></extensions></trkpt>
      <trkpt lon="-3.310988" lat="54.544883"><ele>149.690979</ele><time>2021-08-12T11:55:29Z</time><extensions><speed>1.386282</speed><course>54.852036</course><hAcc>0.882901</hAcc><vAcc>0.710528</vAcc></extensions></trkpt>
      <trkpt lon="-3.310968" lat="54.544885"><ele>149.536621</ele><time>2021-08-12T11:55:30Z</time><extensions><speed>1.348585</speed><course>52.958679</course><hAcc>0.882885</hAcc><vAcc>0.710459</vAcc></extensions></trkpt>
      <trkpt lon="-3.310948" lat="54.544888"><ele>149.383453</ele><time>2021-08-12T11:55:31Z</time><extensions><speed>1.307032</speed><course>51.642593</course><hAcc>0.882871</hAcc><vAcc>0.710421</vAcc></extensions></trkpt>
      <trkpt lon="-3.310928" lat="54.544891"><ele>149.231949</ele><time>2021-08-12T11:55:32Z</time><extensions><speed>1.262413</speed><course>50.915668</course><hAcc>0.882861</hAcc><vAcc>0.710410</vAcc></extensions></trkpt>
      <trkpt lon="-3.310910" lat="54.544894"><ele>149.082260</ele><time>2021-08-12T11:55:33Z</time><extensions><speed>1.215722</speed><course>43.517220</course><hAcc>0.882853</hAcc><vAcc>0.710419</vAcc></extensions></trkpt>
      <trkpt lon="-3.310892" lat="54.544897"><ele>148.933777</ele><time>2021-08-12T11:55:34Z</time><extensions><speed>1.168101</speed><course>53.213661</course><hAcc>0.882845</hAcc><vAcc>0.710436</vAcc></extensions></trkpt>
      <trkpt lon="-3.310875" lat="54.544900"><ele>148.785126</ele><time>2021-08-12T11:55:35Z</time><extensions><speed>1.120680</speed><course>42.672325</course><hAcc>0.882834</hAcc><vAcc>0.710451</vAcc></extensions></trkpt>
      <trkpt lon="-3.310859" lat="54.544902"><ele>148.634384</ele><time>2021-08-12T11:55:36Z</time><extensions><speed>1.074855</speed><course>57.842590</course><hAcc>0.882817</hAcc><vAcc>0.710449</vAcc></extensions></trkpt>
      <trkpt lon="-3.310843" lat="54.544905"><ele>148.479660</ele><time>2021-08-12T11:55:37Z</time><extensions><speed>1.032208</speed><course>54.432369</course><hAcc>0.882790</hAcc><vAcc>0.710416</vAcc></extensions></trkpt>
      <trkpt lon="-3.310828" lat="54.544907"><ele>148.319778</ele><time>2021-08-12T11:55:38Z</time><extensions><speed>0.994172</speed><course>53.099045</course><hAcc>0.882749</hAcc><vAcc>0.710331</vAcc></extensions></trkpt>
      <trkpt lon="-3.310813" lat="54.544910"><ele>148.154373</ele><time>2021-08-12T11:55:39Z</time><extensions><speed>0.962370</speed><course>52.709480</course><hAcc>0.882693</hAcc><vAcc>0.710176</vAcc></extensions></trkpt>
      <trkpt lon="-3.310799" lat="54.544912"><ele>147.983902</ele><time>2021-08-12T11:55:40Z</time><extensions><speed>0.938289</speed><course>55.566643</course><hAcc>0.882618</hAcc><vAcc>0.709935</vAcc></extensions></trkpt>
      <trkpt lon="-3.310786" lat="54.544915"><ele>147.809372</ele><time>2021-08-12T11:55:41Z</time><extensions><speed>0.921832</speed><course>50.999676</course><hAcc>0.882523</hAcc><vAcc>0.709597</vAcc></extensions></trkpt>
      <trkpt lon="-3.310772" lat="54.544917"><ele>147.632324</ele><time>2021-08-12T11:55:42Z</time><extensions><speed>0.911418</speed><course>49.932701</course><hAcc>0.882408</hAcc><vAcc>0.709158</vAcc></extensions></trkpt>
      <trkpt lon="-3.310759" lat="54.544920"><ele>147.454712</ele><time>2021-08-12T11:55:43Z</time><extensions><speed>0.905472</speed><course>44.103298</course><hAcc>0.882273</hAcc><vAcc>0.708626</vAcc></extensions></trkpt>
      <trkpt lon="-3.310746" lat="54.544923"><ele>147.278290</ele><time>2021-08-12T11:55:44Z</time><extensions><speed>0.903007</speed><course>35.959499</course><hAcc>0.882118</hAcc><vAcc>0.708017</vAcc></extensions></trkpt>
      <trkpt lon="-3.310733" lat="54.544926"><ele>147.104248</ele><time>2021-08-12T11:55:45Z</time><extensions><speed>0.902897</speed><course>30.952709</course><hAcc>0.881946</hAcc><vAcc>0.707347</vAcc></extensions></trkpt>
      <trkpt lon="-3.310720" lat="54.544929"><ele>146.932724</ele><time>2021-08-12T11:55:46Z</time><extensions><speed>0.903991</speed><course>43.709347</course><hAcc>0.881757</hAcc><vAcc>0.706628</vAcc></extensions></trkpt>
      <trkpt lon="-3.310707" lat="54.544932"><ele>146.763168</ele><time>2021-08-12T11:55:47Z</time><extensions><speed>0.906001</speed><course>37.574459</course><hAcc>0.881554</hAcc><vAcc>0.705866</vAcc></extensions></trkpt>
      <trkpt lon="-3.310694" lat="54.544935"><ele>146.594925</ele><time>2021-08-12T11:55:48Z</time><extensions><speed>0.908916</speed><course>40.028488</course><hAcc>0.881338</hAcc><vAcc>0.705068</vAcc></extensions></trkpt>
      <trkpt lon="-3.310681" lat="54.544939"><ele>146.427689</ele><time>2021-08-12T11:55:49Z</time><extensions><speed>0.913221</speed><course>39.088745</course><hAcc>0.881110</hAcc><vAcc>0.704244</vAcc></extensions></trkpt>
      <trkpt lon="-3.310669" lat="54.544942"><ele>146.261383</ele><time>2021-08-12T11:55:50Z</time><extensions><speed>0.919787</speed><course>38.227211</course><hAcc>0.880872</hAcc><vAcc>0.703401</vAcc></extensions></trkpt>
      <trkpt lon="-3.310656" lat="54.544946"><ele>146.095734</ele><time>2021-08-12T11:55:51Z</time><extensions><speed>0.929316</speed><course>38.580025</course><hAcc>0.880624</hAcc><vAcc>0.702540</vAcc></extensions></trkpt>
      <trkpt lon="-3.310644" lat="54.544950"><ele>145.929977</ele><time>2021-08-12T11:55:52Z</time><extensions><speed>0.941425</speed><course>36.225418</course><hAcc>0.880367</hAcc><vAcc>0.701654</vAcc></extensions></trkpt>
      <trkpt lon="-3.310631" lat="54.544955"><ele>145.763138</ele><time>2021-08-12T11:55:53Z</time><extensions><speed>0.955132</speed><course>36.482189</course><hAcc>0.880104</hAcc><vAcc>0.700731</vAcc></extensions></trkpt>
      <trkpt lon="-3.310619" lat="54.544960"><ele>145.594498</ele><time>2021-08-12T11:55:54Z</time><extensions><speed>0.969277</speed><course>45.117634</course><hAcc>0.879836</hAcc><vAcc>0.699760</vAcc></extensions></trkpt>
      <trkpt lon="-3.310608" lat="54.544966"><ele>145.423950</ele><time>2021-08-12T11:55:55Z</time><extensions><speed>0.983312</speed><course>40.176819</course><hAcc>0.879569</hAcc><vAcc>0.698747</vAcc></extensions></trkpt>
      <trkpt lon="-3.310596" lat="54.544971"><ele>145.252625</ele><time>2021-08-12T11:55:56Z</time><extensions><speed>0.997772</speed><course>42.588684</course><hAcc>0.879307</hAcc><vAcc>0.697713</vAcc></extensions></trkpt>
      <trkpt lon="-3.310585" lat="54.544978"><ele>145.082581</ele><time>2021-08-12T11:55:57Z</time><extensions><speed>1.012602</speed><course>41.771687</course><hAcc>0.879057</hAcc><vAcc>0.696701</vAcc></extensions></trkpt>
      <trkpt lon="-3.310574" lat="54.544984"><ele>144.916153</ele><time>2021-08-12T11:55:58Z</time><extensions><speed>1.026800</speed><course>41.372017</course><hAcc>0.878827</hAcc><vAcc>0.695761</vAcc></extensions></trkpt>
      <trkpt lon="-3.310563" lat="54.544991"><ele>144.755692</ele><time>2021-08-12T11:55:59Z</time><extensions><speed>1.039058</speed><course>37.017429</course><hAcc>0.878622</hAcc><vAcc>0.694940</vAcc></extensions></trkpt>
      <trkpt lon="-3.310552" lat="54.544998"><ele>144.603592</ele><time>2021-08-12T11:56:00Z</time><extensions><speed>1.048462</speed><course>28.588495</course><hAcc>0.878447</hAcc><vAcc>0.694268</vAcc></extensions></trkpt>
      <trkpt lon="-3.310541" lat="54.545005"><ele>144.461960</ele><time>2021-08-12T11:56:01Z</time><extensions><speed>1.054575</speed><course>39.512306</course><hAcc>0.878307</hAcc><vAcc>0.693754</vAcc></extensions></trkpt>
      <trkpt lon="-3.310530" lat="54.545012"><ele>144.332016</ele><time>2021-08-12T11:56:02Z</time><extensions><speed>1.057437</speed><course>38.955353</course><hAcc>0.878203</hAcc><vAcc>0.693398</vAcc></extensions></trkpt>
      <trkpt lon="-3.310519" lat="54.545019"><ele>144.214096</ele><time>2021-08-12T11:56:03Z</time><extensions><speed>1.056553</speed><course>35.270641</course><hAcc>0.878135</hAcc><vAcc>0.693192</vAcc></extensions></trkpt>
      <trkpt lon="-3.310509" lat="54.545026"><ele>144.108002</ele><time>2021-08-12T11:56:04Z</time><extensions><speed>1.050736</speed><course>38.302330</course><hAcc>0.878104</hAcc><vAcc>0.693126</vAcc></extensions></trkpt>
      <trkpt lon="-3.310498" lat="54.545033"><ele>144.013382</ele><time>2021-08-12T11:56:05Z</time><extensions><speed>1.040143</speed><course>40.976086</course><hAcc>0.878108</hAcc><vAcc>0.693182</vAcc></extensions></trkpt>
      <trkpt lon="-3.310487" lat="54.545040"><ele>143.929672</ele><time>2021-08-12T11:56:06Z</time><extensions><speed>1.025741</speed><course>40.718147</course><hAcc>0.878145</hAcc><vAcc>0.693337</vAcc></extensions></trkpt>
      <trkpt lon="-3.310477" lat="54.545047"><ele>143.855881</ele><time>2021-08-12T11:56:07Z</time><extensions><speed>1.007502</speed><course>40.437557</course><hAcc>0.878214</hAcc><vAcc>0.693576</vAcc></extensions></trkpt>
      <trkpt lon="-3.310466" lat="54.545053"><ele>143.790771</ele><time>2021-08-12T11:56:08Z</time><extensions><speed>0.985989</speed><course>38.315979</course><hAcc>0.878315</hAcc><vAcc>0.693902</vAcc></extensions></trkpt>
      <trkpt lon="-3.310455" lat="54.545060"><ele>143.733185</ele><time>2021-08-12T11:56:09Z</time><extensions><speed>0.963283</speed><course>28.668550</course><hAcc>0.878447</hAcc><vAcc>0.694339</vAcc></extensions></trkpt>
      <trkpt lon="-3.310445" lat="54.545065"><ele>143.682098</ele><time>2021-08-12T11:56:10Z</time><extensions><speed>0.942013</speed><course>31.392698</course><hAcc>0.878609</hAcc><vAcc>0.694916</vAcc></extensions></trkpt>
      <trkpt lon="-3.310434" lat="54.545071"><ele>143.636475</ele><time>2021-08-12T11:56:11Z</time><extensions><speed>0.924129</speed><course>32.848076</course><hAcc>0.878800</hAcc><vAcc>0.695644</vAcc></extensions></trkpt>
      <trkpt lon="-3.310423" lat="54.545076"><ele>143.595078</ele><time>2021-08-12T11:56:12Z</time><extensions><speed>0.910227</speed><course>38.096359</course><hAcc>0.879014</hAcc><vAcc>0.696505</vAcc></extensions></trkpt>
      <trkpt lon="-3.310412" lat="54.545081"><ele>143.556519</ele><time>2021-08-12T11:56:13Z</time><extensions><speed>0.900026</speed><course>27.737675</course><hAcc>0.879244</hAcc><vAcc>0.697453</vAcc></extensions></trkpt>
      <trkpt lon="-3.310401" lat="54.545086"><ele>143.519501</ele><time>2021-08-12T11:56:14Z</time><extensions><speed>0.893238</speed><course>38.820049</course><hAcc>0.879481</hAcc><vAcc>0.698430</vAcc></extensions></trkpt>
      <trkpt lon="-3.310389" lat="54.545090"><ele>143.483047</ele><time>2021-08-12T11:56:15Z</time><extensions><speed>0.889744</speed><course>40.137299</course><hAcc>0.879715</hAcc><vAcc>0.699383</vAcc></extensions></trkpt>
      <trkpt lon="-3.310378" lat="54.545095"><ele>143.446457</ele><time>2021-08-12T11:56:16Z</time><extensions><speed>0.889367</speed><course>44.560421</course><hAcc>0.879938</hAcc><vAcc>0.700273</vAcc></extensions></trkpt>
      <trkpt lon="-3.310366" lat="54.545099"><ele>143.409271</ele><time>2021-08-12T11:56:17Z</time><extensions><speed>0.891616</speed><course>41.574787</course><hAcc>0.880141</hAcc><vAcc>0.701066</vAcc></extensions></trkpt>
      <trkpt lon="-3.310354" lat="54.545103"><ele>143.371323</ele><time>2021-08-12T11:56:18Z</time><extensions><speed>0.895253</speed><course>37.402897</course><hAcc>0.880318</hAcc><vAcc>0.701740</vAcc></extensions></trkpt>
      <trkpt lon="-3.310342" lat="54.545107"><ele>143.332520</ele><time>2021-08-12T11:56:19Z</time><extensions><speed>0.899268</speed><course>38.445354</course><hAcc>0.880466</hAcc><vAcc>0.702278</vAcc></extensions></trkpt>
      <trkpt lon="-3.310330" lat="54.545111"><ele>143.292908</ele><time>2021-08-12T11:56:20Z</time><extensions><speed>0.903042</speed><course>32.932274</course><hAcc>0.880581</hAcc><vAcc>0.702673</vAcc></extensions></trkpt>
      <trkpt lon="-3.310318" lat="54.545115"><ele>143.252930</ele><time>2021-08-12T11:56:21Z</time><extensions><speed>0.905688</speed><course>27.701353</course><hAcc>0.880663</hAcc><vAcc>0.702928</vAcc></extensions></trkpt>
      <trkpt lon="-3.310306" lat="54.545119"><ele>143.213226</ele><time>2021-08-12T11:56:22Z</time><extensions><speed>0.906953</speed><course>28.233585</course><hAcc>0.880714</hAcc><vAcc>0.703055</vAcc></extensions></trkpt>
      <trkpt lon="-3.310294" lat="54.545123"><ele>143.174606</ele><time>2021-08-12T11:56:23Z</time><extensions><speed>0.907458</speed><course>30.003765</course><hAcc>0.880738</hAcc><vAcc>0.703073</vAcc></extensions></trkpt>
      <trkpt lon="-3.310282" lat="54.545128"><ele>143.137817</ele><time>2021-08-12T11:56:24Z</time><extensions><speed>0.907542</speed><course>35.586266</course><hAcc>0.880739</hAcc><vAcc>0.703002</vAcc></extensions></trkpt>
      <trkpt lon="-3.310271" lat="54.545133"><ele>143.103302</ele><time>2021-08-12T11:56:25Z</time><extensions><speed>0.906679</speed><course>41.034397</course><hAcc>0.880722</hAcc><vAcc>0.702867</vAcc></extensions></trkpt>
      <trkpt lon="-3.310259" lat="54.545137"><ele>143.071198</ele><time>2021-08-12T11:56:26Z</time><extensions><speed>0.904200</speed><course>43.040592</course><hAcc>0.880694</hAcc><vAcc>0.702693</vAcc></extensions></trkpt>
      <trkpt lon="-3.310248" lat="54.545142"><ele>143.041641</ele><time>2021-08-12T11:56:27Z</time><extensions><speed>0.900252</speed><course>49.550934</course><hAcc>0.880661</hAcc><vAcc>0.702506</vAcc></extensions></trkpt>
      <trkpt lon="-3.310237" lat="54.545147"><ele>143.014664</ele><time>2021-08-12T11:56:28Z</time><extensions><speed>0.895572</speed><course>62.069283</course><hAcc>0.880629</hAcc><vAcc>0.702330</vAcc></extensions></trkpt>
      <trkpt lon="-3.310226" lat="54.545152"><ele>142.989944</ele><time>2021-08-12T11:56:29Z</time><extensions><speed>0.890773</speed><course>68.512573</course><hAcc>0.880602</hAcc><vAcc>0.702185</vAcc></extensions></trkpt>
      <trkpt lon="-3.310215" lat="54.545156"><ele>142.966492</ele><time>2021-08-12T11:56:30Z</time><extensions><speed>0.886613</speed><course>76.544746</course><hAcc>0.880584</hAcc><vAcc>0.702089</vAcc></extensions></trkpt>
      <trkpt lon="-3.310204" lat="54.545161"><ele>142.942764</ele><time>2021-08-12T11:56:31Z</time><extensions><speed>0.884156</speed><course>91.471558</course><hAcc>0.880579</hAcc><vAcc>0.702054</vAcc></extensions></trkpt>
      <trkpt lon="-3.310192" lat="54.545165"><ele>142.916992</ele><time>2021-08-12T11:56:32Z</time><extensions><speed>0.884274</speed><course>103.707001</course><hAcc>0.880587</hAcc><vAcc>0.702088</vAcc></extensions></trkpt>
      <trkpt lon="-3.310180" lat="54.545169"><ele>142.887497</ele><time>2021-08-12T11:56:33Z</time><extensions><speed>0.887672</speed><course>102.240677</course><hAcc>0.880608</hAcc><vAcc>0.702188</vAcc></extensions></trkpt>
      <trkpt lon="-3.310168" lat="54.545173"><ele>142.853012</ele><time>2021-08-12T11:56:34Z</time><extensions><speed>0.894803</speed><course>109.008522</course><hAcc>0.880641</hAcc><vAcc>0.702348</vAcc></extensions></trkpt>
      <trkpt lon="-3.310156" lat="54.545177"><ele>142.812790</ele><time>2021-08-12T11:56:35Z</time><extensions><speed>0.904847</speed><course>120.687057</course><hAcc>0.880683</hAcc><vAcc>0.702552</vAcc></extensions></trkpt>
      <trkpt lon="-3.310143" lat="54.545180"><ele>142.766434</ele><time>2021-08-12T11:56:36Z</time><extensions><speed>0.915928</speed><course>122.518364</course><hAcc>0.880729</hAcc><vAcc>0.702781</vAcc></extensions></trkpt>
      <trkpt lon="-3.310129" lat="54.545183"><ele>142.713531</ele><time>2021-08-12T11:56:37Z</time><extensions><speed>0.926238</speed><course>116.435341</course><hAcc>0.880776</hAcc><vAcc>0.703017</vAcc></extensions></trkpt>
      <trkpt lon="-3.310116" lat="54.545185"><ele>142.653687</ele><time>2021-08-12T11:56:38Z</time><extensions><speed>0.934699</speed><course>123.806564</course><hAcc>0.880819</hAcc><vAcc>0.703237</vAcc></extensions></trkpt>
      <trkpt lon="-3.310102" lat="54.545188"><ele>142.586212</ele><time>2021-08-12T11:56:39Z</time><extensions><speed>0.941116</speed><course>121.279266</course><hAcc>0.880852</hAcc><vAcc>0.703419</vAcc></extensions></trkpt>
      <trkpt lon="-3.310088" lat="54.545191"><ele>142.510590</ele><time>2021-08-12T11:56:40Z</time><extensions><speed>0.945851</speed><course>122.295830</course><hAcc>0.880873</hAcc><vAcc>0.703544</vAcc></extensions></trkpt>
      <trkpt lon="-3.310074" lat="54.545193"><ele>142.426544</ele><time>2021-08-12T11:56:41Z</time><extensions><speed>0.948580</speed><course>116.485687</course><hAcc>0.880878</hAcc><vAcc>0.703595</vAcc></extensions></trkpt>
      <trkpt lon="-3.310060" lat="54.545196"><ele>142.333740</ele><time>2021-08-12T11:56:42Z</time><extensions><speed>0.947905</speed><course>120.837761</course><hAcc>0.880866</hAcc><vAcc>0.703563</vAcc></extensions></trkpt>
      <trkpt lon="-3.310046" lat="54.545198"><ele>142.231857</ele><time>2021-08-12T11:56:43Z</time><extensions><speed>0.943930</speed><course>121.691162</course><hAcc>0.880835</hAcc><vAcc>0.703440</vAcc></extensions></trkpt>
      <trkpt lon="-3.310033" lat="54.545201"><ele>142.121063</ele><time>2021-08-12T11:56:44Z</time><extensions><speed>0.938230</speed><course>120.429344</course><hAcc>0.880789</hAcc><vAcc>0.703227</vAcc></extensions></trkpt>
      <trkpt lon="-3.310019" lat="54.545204"><ele>142.001923</ele><time>2021-08-12T11:56:45Z</time><extensions><speed>0.932743</speed><course>127.922836</course><hAcc>0.880728</hAcc><vAcc>0.702942</vAcc></extensions></trkpt>
      <trkpt lon="-3.310006" lat="54.545207"><ele>141.875626</ele><time>2021-08-12T11:56:46Z</time><extensions><speed>0.928233</speed><course>122.773224</course><hAcc>0.880657</hAcc><vAcc>0.702610</vAcc></extensions></trkpt>
      <trkpt lon="-3.309993" lat="54.545211"><ele>141.743637</ele><time>2021-08-12T11:56:47Z</time><extensions><speed>0.923278</speed><course>127.410233</course><hAcc>0.880579</hAcc><vAcc>0.702263</vAcc></extensions></trkpt>
      <trkpt lon="-3.309980" lat="54.545214"><ele>141.607162</ele><time>2021-08-12T11:56:48Z</time><extensions><speed>0.917193</speed><course>126.293243</course><hAcc>0.880499</hAcc><vAcc>0.701922</vAcc></extensions></trkpt>
      <trkpt lon="-3.309967" lat="54.545217"><ele>141.467560</ele><time>2021-08-12T11:56:49Z</time><extensions><speed>0.910824</speed><course>113.773628</course><hAcc>0.880422</hAcc><vAcc>0.701602</vAcc></extensions></trkpt>
      <trkpt lon="-3.309954" lat="54.545221"><ele>141.326462</ele><time>2021-08-12T11:56:50Z</time><extensions><speed>0.905627</speed><course>111.597641</course><hAcc>0.880351</hAcc><vAcc>0.701316</vAcc></extensions></trkpt>
      <trkpt lon="-3.309941" lat="54.545224"><ele>141.185272</ele><time>2021-08-12T11:56:51Z</time><extensions><speed>0.903278</speed><course>118.242065</course><hAcc>0.880291</hAcc><vAcc>0.701073</vAcc></extensions></trkpt>
      <trkpt lon="-3.309929" lat="54.545228"><ele>141.044983</ele><time>2021-08-12T11:56:52Z</time><extensions><speed>0.904625</speed><course>121.318916</course><hAcc>0.880244</hAcc><vAcc>0.700882</vAcc></extensions></trkpt>
      <trkpt lon="-3.309916" lat="54.545231"><ele>140.905807</ele><time>2021-08-12T11:56:53Z</time><extensions><speed>0.909493</speed><course>126.571838</course><hAcc>0.880215</hAcc><vAcc>0.700753</vAcc></extensions></trkpt>
      <trkpt lon="-3.309903" lat="54.545234"><ele>140.767380</ele><time>2021-08-12T11:56:54Z</time><extensions><speed>0.917791</speed><course>116.053932</course><hAcc>0.880204</hAcc><vAcc>0.700694</vAcc></extensions></trkpt>
      <trkpt lon="-3.309890" lat="54.545238"><ele>140.629547</ele><time>2021-08-12T11:56:55Z</time><extensions><speed>0.929937</speed><course>122.553452</course><hAcc>0.880213</hAcc><vAcc>0.700716</vAcc></extensions></trkpt>
      <trkpt lon="-3.309877" lat="54.545241"><ele>140.492401</ele><time>2021-08-12T11:56:56Z</time><extensions><speed>0.946198</speed><course>115.362396</course><hAcc>0.880243</hAcc><vAcc>0.700821</vAcc></extensions></trkpt>
      <trkpt lon="-3.309863" lat="54.545244"><ele>140.355820</ele><time>2021-08-12T11:56:57Z</time><extensions><speed>0.966815</speed><course>120.016403</course><hAcc>0.880293</hAcc><vAcc>0.701012</vAcc></extensions></trkpt>
      <trkpt lon="-3.309849" lat="54.545248"><ele>140.219604</ele><time>2021-08-12T11:56:58Z</time><extensions><speed>0.991092</speed><course>131.521149</course><hAcc>0.880360</hAcc><vAcc>0.701286</vAcc></extensions></trkpt>
      <trkpt lon="-3.309835" lat="54.545251"><ele>140.083817</ele><time>2021-08-12T11:56:59Z</time><extensions><speed>1.016705</speed><course>124.976143</course><hAcc>0.880442</hAcc><vAcc>0.701627</vAcc></extensions></trkpt>
      <trkpt lon="-3.309821" lat="54.545255"><ele>139.948593</ele><time>2021-08-12T11:57:00Z</time><extensions><speed>1.041528</speed><course>123.546791</course><hAcc>0.880534</hAcc><vAcc>0.702014</vAcc></extensions></trkpt>
      <trkpt lon="-3.309806" lat="54.545259"><ele>139.814316</ele><time>2021-08-12T11:57:01Z</time><extensions><speed>1.064764</speed><course>116.699699</course><hAcc>0.880630</hAcc><vAcc>0.702422</vAcc></extensions></trkpt>
      <trkpt lon="-3.309791" lat="54.545264"><ele>139.682129</ele><time>2021-08-12T11:57:02Z</time><extensions><speed>1.086156</speed><course>112.924561</course><hAcc>0.880724</hAcc><vAcc>0.702830</vAcc></extensions></trkpt>
      <trkpt lon="-3.309776" lat="54.545268"><ele>139.553131</ele><time>2021-08-12T11:57:03Z</time><extensions><speed>1.105222</speed><course>117.858780</course><hAcc>0.880810</hAcc><vAcc>0.703219</vAcc></extensions></trkpt>
      <trkpt lon="-3.309761" lat="54.545273"><ele>139.427841</ele><time>2021-08-12T11:57:04Z</time><extensions><speed>1.121260</speed><course>111.630035</course><hAcc>0.880880</hAcc><vAcc>0.703565</vAcc></extensions></trkpt>
      <trkpt lon="-3.309746" lat="54.545278"><ele>139.306686</ele><time>2021-08-12T11:57:05Z</time><extensions><speed>1.133223</speed><course>115.453979</course><hAcc>0.880928</hAcc><vAcc>0.703839</vAcc></extensions></trkpt>
      <trkpt lon="-3.309731" lat="54.545283"><ele>139.190292</ele><time>2021-08-12T11:57:06Z</time><extensions><speed>1.140650</speed><course>108.625862</course><hAcc>0.880948</hAcc><vAcc>0.704010</vAcc></extensions></trkpt>
      <trkpt lon="-3.309716" lat="54.545289"><ele>139.079086</ele><time>2021-08-12T11:57:07Z</time><extensions><speed>1.144251</speed><course>116.435417</course><hAcc>0.880936</hAcc><vAcc>0.704046</vAcc></extensions></trkpt>
      <trkpt lon="-3.309701" lat="54.545295"><ele>138.973007</ele><time>2021-08-12T11:57:08Z</time><extensions><speed>1.144915</speed><course>112.323517</course><hAcc>0.880890</hAcc><vAcc>0.703924</vAcc></extensions></trkpt>
      <trkpt lon="-3.309687" lat="54.545300"><ele>138.871658</ele><time>2021-08-12T11:57:09Z</time><extensions><speed>1.143377</speed><course>117.491661</course><hAcc>0.880811</hAcc><vAcc>0.703631</vAcc></extensions></trkpt>
      <trkpt lon="-3.309672" lat="54.545306"><ele>138.774811</ele><time>2021-08-12T11:57:10Z</time><extensions><speed>1.140576</speed><course>120.293846</course><hAcc>0.880701</hAcc><vAcc>0.703169</vAcc></extensions></trkpt>
      <trkpt lon="-3.309658" lat="54.545312"><ele>138.682297</ele><time>2021-08-12T11:57:11Z</time><extensions><speed>1.137055</speed><course>115.591873</course><hAcc>0.880567</hAcc><vAcc>0.702564</vAcc></extensions></trkpt>
      <trkpt lon="-3.309644" lat="54.545318"><ele>138.593613</ele><time>2021-08-12T11:57:12Z</time><extensions><speed>1.133828</speed><course>116.468712</course><hAcc>0.880415</hAcc><vAcc>0.701862</vAcc></extensions></trkpt>
      <trkpt lon="-3.309630" lat="54.545325"><ele>138.507935</ele><time>2021-08-12T11:57:13Z</time><extensions><speed>1.132157</speed><course>116.627220</course><hAcc>0.880256</hAcc><vAcc>0.701122</vAcc></extensions></trkpt>
      <trkpt lon="-3.309616" lat="54.545331"><ele>138.424377</ele><time>2021-08-12T11:57:14Z</time><extensions><speed>1.131807</speed><course>115.487846</course><hAcc>0.880098</hAcc><vAcc>0.700408</vAcc></extensions></trkpt>
      <trkpt lon="-3.309601" lat="54.545336"><ele>138.342392</ele><time>2021-08-12T11:57:15Z</time><extensions><speed>1.132313</speed><course>110.303284</course><hAcc>0.879952</hAcc><vAcc>0.699770</vAcc></extensions></trkpt>
      <trkpt lon="-3.309587" lat="54.545342"><ele>138.261566</ele><time>2021-08-12T11:57:16Z</time><extensions><speed>1.134392</speed><course>107.900200</course><hAcc>0.879827</hAcc><vAcc>0.699245</vAcc></extensions></trkpt>
      <trkpt lon="-3.309573" lat="54.545348"><ele>138.181396</ele><time>2021-08-12T11:57:17Z</time><extensions><speed>1.139274</speed><course>104.901772</course><hAcc>0.879730</hAcc><vAcc>0.698854</vAcc></extensions></trkpt>
      <trkpt lon="-3.309558" lat="54.545354"><ele>138.101181</ele><time>2021-08-12T11:57:18Z</time><extensions><speed>1.147084</speed><course>102.625549</course><hAcc>0.879665</hAcc><vAcc>0.698600</vAcc></extensions></trkpt>
      <trkpt lon="-3.309543" lat="54.545359"><ele>138.020432</ele><time>2021-08-12T11:57:19Z</time><extensions><speed>1.157180</speed><course>101.615082</course><hAcc>0.879636</hAcc><vAcc>0.698486</vAcc></extensions></trkpt>
      <trkpt lon="-3.309527" lat="54.545364"><ele>137.938919</ele><time>2021-08-12T11:57:20Z</time><extensions><speed>1.169068</speed><course>104.820312</course><hAcc>0.879643</hAcc><vAcc>0.698517</vAcc></extensions></trkpt>
      <trkpt lon="-3.309511" lat="54.545370"><ele>137.856476</ele><time>2021-08-12T11:57:21Z</time><extensions><speed>1.181941</speed><course>97.837166</course><hAcc>0.879686</hAcc><vAcc>0.698694</vAcc></extensions></trkpt>
      <trkpt lon="-3.309495" lat="54.545374"><ele>137.773315</ele><time>2021-08-12T11:57:22Z</time><extensions><speed>1.194829</speed><course>99.518051</course><hAcc>0.879760</hAcc><vAcc>0.699009</vAcc></extensions></trkpt>
      <trkpt lon="-3.309478" lat="54.545379"><ele>137.690247</ele><time>2021-08-12T11:57:23Z</time><extensions><speed>1.206638</speed><course>105.468117</course><hAcc>0.879860</hAcc><vAcc>0.699446</vAcc></extensions></trkpt>
      <trkpt lon="-3.309461" lat="54.545384"><ele>137.608414</ele><time>2021-08-12T11:57:24Z</time><extensions><speed>1.216109</speed><course>105.021729</course><hAcc>0.879978</hAcc><vAcc>0.699977</vAcc></extensions></trkpt>
      <trkpt lon="-3.309444" lat="54.545388"><ele>137.528641</ele><time>2021-08-12T11:57:25Z</time><extensions><speed>1.222515</speed><course>105.854553</course><hAcc>0.880105</hAcc><vAcc>0.700567</vAcc></extensions></trkpt>
      <trkpt lon="-3.309426" lat="54.545392"><ele>137.451355</ele><time>2021-08-12T11:57:26Z</time><extensions><speed>1.225307</speed><course>116.038353</course><hAcc>0.880229</hAcc><vAcc>0.701170</vAcc></extensions></trkpt>
      <trkpt lon="-3.309409" lat="54.545396"><ele>137.376312</ele><time>2021-08-12T11:57:27Z</time><extensions><speed>1.224028</speed><course>116.622620</course><hAcc>0.880342</hAcc><vAcc>0.701729</vAcc></extensions></trkpt>
      <trkpt lon="-3.309391" lat="54.545400"><ele>137.302750</ele><time>2021-08-12T11:57:28Z</time><extensions><speed>1.219082</speed><course>116.023415</course><hAcc>0.880432</hAcc><vAcc>0.702190</vAcc></extensions></trkpt>
      <trkpt lon="-3.309373" lat="54.545403"><ele>137.229965</ele><time>2021-08-12T11:57:29Z</time><extensions><speed>1.211412</speed><course>111.053482</course><hAcc>0.880492</hAcc><vAcc>0.702505</vAcc></extensions></trkpt>
      <trkpt lon="-3.309356" lat="54.545407"><ele>137.157532</ele><time>2021-08-12T11:57:30Z</time><extensions><speed>1.202290</speed><course>109.683617</course><hAcc>0.880517</hAcc><vAcc>0.702643</vAcc></extensions></trkpt>
      <trkpt lon="-3.309338" lat="54.545410"><ele>137.085052</ele><time>2021-08-12T11:57:31Z</time><extensions><speed>1.193351</speed><course>107.838440</course><hAcc>0.880503</hAcc><vAcc>0.702588</vAcc></extensions></trkpt>
      <trkpt lon="-3.309320" lat="54.545413"><ele>137.011826</ele><time>2021-08-12T11:57:32Z</time><extensions><speed>1.185682</speed><course>110.196930</course><hAcc>0.880451</hAcc><vAcc>0.702344</vAcc></extensions></trkpt>
      <trkpt lon="-3.309303" lat="54.545417"><ele>136.936829</ele><time>2021-08-12T11:57:33Z</time><extensions><speed>1.179248</speed><course>111.548782</course><hAcc>0.880364</hAcc><vAcc>0.701932</vAcc></extensions></trkpt>
      <trkpt lon="-3.309286" lat="54.545420"><ele>136.859283</ele><time>2021-08-12T11:57:34Z</time><extensions><speed>1.173346</speed><course>110.420074</course><hAcc>0.880249</hAcc><vAcc>0.701384</vAcc></extensions></trkpt>
      <trkpt lon="-3.309268" lat="54.545423"><ele>136.778351</ele><time>2021-08-12T11:57:35Z</time><extensions><speed>1.166933</speed><course>99.619576</course><hAcc>0.880114</hAcc><vAcc>0.700744</vAcc></extensions></trkpt>
      <trkpt lon="-3.309251" lat="54.545425"><ele>136.693100</ele><time>2021-08-12T11:57:36Z</time><extensions><speed>1.159736</speed><course>107.102882</course><hAcc>0.879970</hAcc><vAcc>0.700061</vAcc></extensions></trkpt>
      <trkpt lon="-3.309234" lat="54.545428"><ele>136.602768</ele><time>2021-08-12T11:57:37Z</time><extensions><speed>1.152833</speed><course>98.831825</course><hAcc>0.879827</hAcc><vAcc>0.699392</vAcc></extensions></trkpt>
      <trkpt lon="-3.309217" lat="54.545431"><ele>136.507065</ele><time>2021-08-12T11:57:38Z</time><extensions><speed>1.147703</speed><course>99.864403</course><hAcc>0.879696</hAcc><vAcc>0.698797</vAcc></extensions></trkpt>
      <trkpt lon="-3.309200" lat="54.545434"><ele>136.406219</ele><time>2021-08-12T11:57:39Z</time><extensions><speed>1.145262</speed><course>99.165215</course><hAcc>0.879583</hAcc><vAcc>0.698318</vAcc></extensions></trkpt>
      <trkpt lon="-3.309182" lat="54.545436"><ele>136.300934</ele><time>2021-08-12T11:57:40Z</time><extensions><speed>1.145370</speed><course>106.876038</course><hAcc>0.879494</hAcc><vAcc>0.697979</vAcc></extensions></trkpt>
      <trkpt lon="-3.309165" lat="54.545439"><ele>136.192017</ele><time>2021-08-12T11:57:41Z</time><extensions><speed>1.147473</speed><course>100.224144</course><hAcc>0.879430</hAcc><vAcc>0.697776</vAcc></extensions></trkpt>
      <trkpt lon="-3.309148" lat="54.545442"><ele>136.080063</ele><time>2021-08-12T11:57:42Z</time><extensions><speed>1.151067</speed><course>97.870438</course><hAcc>0.879390</hAcc><vAcc>0.697691</vAcc></extensions></trkpt>
      <trkpt lon="-3.309131" lat="54.545444"><ele>135.965851</ele><time>2021-08-12T11:57:43Z</time><extensions><speed>1.155243</speed><course>109.047302</course><hAcc>0.879369</hAcc><vAcc>0.697698</vAcc></extensions></trkpt>
      <trkpt lon="-3.309114" lat="54.545447"><ele>135.850082</ele><time>2021-08-12T11:57:44Z</time><extensions><speed>1.158745</speed><course>111.386711</course><hAcc>0.879362</hAcc><vAcc>0.697763</vAcc></extensions></trkpt>
      <trkpt lon="-3.309097" lat="54.545451"><ele>135.733307</ele><time>2021-08-12T11:57:45Z</time><extensions><speed>1.161073</speed><course>110.131767</course><hAcc>0.879360</hAcc><vAcc>0.697846</vAcc></extensions></trkpt>
      <trkpt lon="-3.309080" lat="54.545454"><ele>135.616180</ele><time>2021-08-12T11:57:46Z</time><extensions><speed>1.163127</speed><course>109.748413</course><hAcc>0.879356</hAcc><vAcc>0.697907</vAcc></extensions></trkpt>
      <trkpt lon="-3.309063" lat="54.545458"><ele>135.499176</ele><time>2021-08-12T11:57:47Z</time><extensions><speed>1.166053</speed><course>116.453705</course><hAcc>0.879341</hAcc><vAcc>0.697912</vAcc></extensions></trkpt>
      <trkpt lon="-3.309047" lat="54.545462"><ele>135.382187</ele><time>2021-08-12T11:57:48Z</time><extensions><speed>1.170415</speed><course>111.019348</course><hAcc>0.879310</hAcc><vAcc>0.697841</vAcc></extensions></trkpt>
      <trkpt lon="-3.309031" lat="54.545467"><ele>135.264694</ele><time>2021-08-12T11:57:49Z</time><extensions><speed>1.176716</speed><course>106.996025</course><hAcc>0.879257</hAcc><vAcc>0.697682</vAcc></extensions></trkpt>
      <trkpt lon="-3.309015" lat="54.545472"><ele>135.146072</ele><time>2021-08-12T11:57:50Z</time><extensions><speed>1.185452</speed><course>104.594215</course><hAcc>0.879181</hAcc><vAcc>0.697428</vAcc></extensions></trkpt>
      <trkpt lon="-3.308999" lat="54.545478"><ele>135.025818</ele><time>2021-08-12T11:57:51Z</time><extensions><speed>1.196925</speed><course>101.351479</course><hAcc>0.879082</hAcc><vAcc>0.697079</vAcc></extensions></trkpt>
      <trkpt lon="-3.308983" lat="54.545484"><ele>134.903275</ele><time>2021-08-12T11:57:52Z</time><extensions><speed>1.211425</speed><course>105.952332</course><hAcc>0.878960</hAcc><vAcc>0.696636</vAcc></extensions></trkpt>
      <trkpt lon="-3.308968" lat="54.545490"><ele>134.777573</ele><time>2021-08-12T11:57:53Z</time><extensions><speed>1.229229</speed><course>113.138412</course><hAcc>0.878817</hAcc><vAcc>0.696102</vAcc></extensions></trkpt>
      <trkpt lon="-3.308953" lat="54.545497"><ele>134.647766</ele><time>2021-08-12T11:57:54Z</time><extensions><speed>1.250064</speed><course>112.944946</course><hAcc>0.878658</hAcc><vAcc>0.695489</vAcc></extensions></trkpt>
      <trkpt lon="-3.308938" lat="54.545505"><ele>134.513367</ele><time>2021-08-12T11:57:55Z</time><extensions><speed>1.272769</speed><course>108.292221</course><hAcc>0.878485</hAcc><vAcc>0.694815</vAcc></extensions></trkpt>
      <trkpt lon="-3.308924" lat="54.545512"><ele>134.374359</ele><time>2021-08-12T11:57:56Z</time><extensions><speed>1.295280</speed><course>108.436562</course><hAcc>0.878304</hAcc><vAcc>0.694103</vAcc></extensions></trkpt>
      <trkpt lon="-3.308909" lat="54.545520"><ele>134.230759</ele><time>2021-08-12T11:57:57Z</time><extensions><speed>1.315196</speed><course>102.445824</course><hAcc>0.878120</hAcc><vAcc>0.693379</vAcc></extensions></trkpt>
      <trkpt lon="-3.308894" lat="54.545529"><ele>134.082779</ele><time>2021-08-12T11:57:58Z</time><extensions><speed>1.330861</speed><course>99.628555</course><hAcc>0.877937</hAcc><vAcc>0.692666</vAcc></extensions></trkpt>
      <trkpt lon="-3.308880" lat="54.545537"><ele>133.931046</ele><time>2021-08-12T11:57:59Z</time><extensions><speed>1.341274</speed><course>103.656601</course><hAcc>0.877759</hAcc><vAcc>0.691986</vAcc></extensions></trkpt>
      <trkpt lon="-3.308865" lat="54.545546"><ele>133.776184</ele><time>2021-08-12T11:58:00Z</time><extensions><speed>1.345636</speed><course>97.309608</course><hAcc>0.877588</hAcc><vAcc>0.691351</vAcc></extensions></trkpt>
      <trkpt lon="-3.308850" lat="54.545554"><ele>133.618530</ele><time>2021-08-12T11:58:01Z</time><extensions><speed>1.343671</speed><course>95.308922</course><hAcc>0.877423</hAcc><vAcc>0.690769</vAcc></extensions></trkpt>
      <trkpt lon="-3.308835" lat="54.545562"><ele>133.458435</ele><time>2021-08-12T11:58:02Z</time><extensions><speed>1.335421</speed><course>105.665154</course><hAcc>0.877264</hAcc><vAcc>0.690234</vAcc></extensions></trkpt>
      <trkpt lon="-3.308821" lat="54.545571"><ele>133.296555</ele><time>2021-08-12T11:58:03Z</time><extensions><speed>1.320527</speed><course>120.238884</course><hAcc>0.877105</hAcc><vAcc>0.689732</vAcc></extensions></trkpt>
      <trkpt lon="-3.308806" lat="54.545579"><ele>133.133530</ele><time>2021-08-12T11:58:04Z</time><extensions><speed>1.298573</speed><course>108.474937</course><hAcc>0.876942</hAcc><vAcc>0.689239</vAcc></extensions></trkpt>
      <trkpt lon="-3.308791" lat="54.545587"><ele>132.970230</ele><time>2021-08-12T11:58:05Z</time><extensions><speed>1.270478</speed><course>104.059807</course><hAcc>0.876766</hAcc><vAcc>0.688719</vAcc></extensions></trkpt>
      <trkpt lon="-3.308777" lat="54.545594"><ele>132.807800</ele><time>2021-08-12T11:58:06Z</time><extensions><speed>1.238446</speed><course>102.572708</course><hAcc>0.876572</hAcc><vAcc>0.688129</vAcc></extensions></trkpt>
      <trkpt lon="-3.308763" lat="54.545601"><ele>132.647110</ele><time>2021-08-12T11:58:07Z</time><extensions><speed>1.204608</speed><course>107.161850</course><hAcc>0.876352</hAcc><vAcc>0.687430</vAcc></extensions></trkpt>
      <trkpt lon="-3.308748" lat="54.545608"><ele>132.488586</ele><time>2021-08-12T11:58:08Z</time><extensions><speed>1.170743</speed><course>105.046165</course><hAcc>0.876102</hAcc><vAcc>0.686591</vAcc></extensions></trkpt>
      <trkpt lon="-3.308734" lat="54.545615"><ele>132.332169</ele><time>2021-08-12T11:58:09Z</time><extensions><speed>1.138231</speed><course>107.406158</course><hAcc>0.875822</hAcc><vAcc>0.685600</vAcc></extensions></trkpt>
      <trkpt lon="-3.308721" lat="54.545621"><ele>132.177444</ele><time>2021-08-12T11:58:10Z</time><extensions><speed>1.107813</speed><course>115.429123</course><hAcc>0.875515</hAcc><vAcc>0.684470</vAcc></extensions></trkpt>
      <trkpt lon="-3.308707" lat="54.545626"><ele>132.023682</ele><time>2021-08-12T11:58:11Z</time><extensions><speed>1.080077</speed><course>116.147835</course><hAcc>0.875191</hAcc><vAcc>0.683231</vAcc></extensions></trkpt>
      <trkpt lon="-3.308693" lat="54.545632"><ele>131.869965</ele><time>2021-08-12T11:58:12Z</time><extensions><speed>1.056227</speed><course>117.699570</course><hAcc>0.874859</hAcc><vAcc>0.681926</vAcc></extensions></trkpt>
      <trkpt lon="-3.308679" lat="54.545637"><ele>131.715363</ele><time>2021-08-12T11:58:13Z</time><extensions><speed>1.037381</speed><course>118.218575</course><hAcc>0.874536</hAcc><vAcc>0.680613</vAcc></extensions></trkpt>
      <trkpt lon="-3.308665" lat="54.545641"><ele>131.559219</ele><time>2021-08-12T11:58:14Z</time><extensions><speed>1.024077</speed><course>118.864105</course><hAcc>0.874242</hAcc><vAcc>0.679377</vAcc></extensions></trkpt>
      <trkpt lon="-3.308651" lat="54.545645"><ele>131.401306</ele><time>2021-08-12T11:58:15Z</time><extensions><speed>1.016751</speed><course>117.180046</course><hAcc>0.873997</hAcc><vAcc>0.678318</vAcc></extensions></trkpt>
      <trkpt lon="-3.308637" lat="54.545649"><ele>131.241898</ele><time>2021-08-12T11:58:16Z</time><extensions><speed>1.015614</speed><course>115.856689</course><hAcc>0.873825</hAcc><vAcc>0.677541</vAcc></extensions></trkpt>
      <trkpt lon="-3.308623" lat="54.545653"><ele>131.081589</ele><time>2021-08-12T11:58:17Z</time><extensions><speed>1.019971</speed><course>112.617844</course><hAcc>0.873743</hAcc><vAcc>0.677138</vAcc></extensions></trkpt>
      <trkpt lon="-3.308608" lat="54.545656"><ele>130.921295</ele><time>2021-08-12T11:58:18Z</time><extensions><speed>1.028369</speed><course>120.157761</course><hAcc>0.873765</hAcc><vAcc>0.677171</vAcc></extensions></trkpt>
      <trkpt lon="-3.308592" lat="54.545658"><ele>130.762039</ele><time>2021-08-12T11:58:19Z</time><extensions><speed>1.039582</speed><course>116.743965</course><hAcc>0.873897</hAcc><vAcc>0.677669</vAcc></extensions></trkpt>
      <trkpt lon="-3.308577" lat="54.545661"><ele>130.604935</ele><time>2021-08-12T11:58:20Z</time><extensions><speed>1.052935</speed><course>126.528450</course><hAcc>0.874134</hAcc><vAcc>0.678619</vAcc></extensions></trkpt>
      <trkpt lon="-3.308561" lat="54.545663"><ele>130.451340</ele><time>2021-08-12T11:58:21Z</time><extensions><speed>1.067588</speed><course>122.809067</course><hAcc>0.874467</hAcc><vAcc>0.679971</vAcc></extensions></trkpt>
      <trkpt lon="-3.308545" lat="54.545666"><ele>130.302872</ele><time>2021-08-12T11:58:22Z</time><extensions><speed>1.082872</speed><course>118.437454</course><hAcc>0.874879</hAcc><vAcc>0.681646</vAcc></extensions></trkpt>
      <trkpt lon="-3.308528" lat="54.545668"><ele>130.161240</ele><time>2021-08-12T11:58:23Z</time><extensions><speed>1.098507</speed><course>113.862648</course><hAcc>0.875347</hAcc><vAcc>0.683550</vAcc></extensions></trkpt>
      <trkpt lon="-3.308512" lat="54.545670"><ele>130.028259</ele><time>2021-08-12T11:58:24Z</time><extensions><speed>1.114075</speed><course>110.315605</course><hAcc>0.875847</hAcc><vAcc>0.685577</vAcc></extensions></trkpt>
      <trkpt lon="-3.308495" lat="54.545672"><ele>129.905777</ele><time>2021-08-12T11:58:25Z</time><extensions><speed>1.129109</speed><course>111.526596</course><hAcc>0.876356</hAcc><vAcc>0.687618</vAcc></extensions></trkpt>
      <trkpt lon="-3.308478" lat="54.545675"><ele>129.794968</ele><time>2021-08-12T11:58:26Z</time><extensions><speed>1.142960</speed><course>111.825790</course><hAcc>0.876850</hAcc><vAcc>0.689569</vAcc></extensions></trkpt>
      <trkpt lon="-3.308461" lat="54.545678"><ele>129.695816</ele><time>2021-08-12T11:58:27Z</time><extensions><speed>1.156226</speed><course>110.069481</course><hAcc>0.877306</hAcc><vAcc>0.691337</vAcc></extensions></trkpt>
      <trkpt lon="-3.308444" lat="54.545681"><ele>129.607269</ele><time>2021-08-12T11:58:28Z</time><extensions><speed>1.170278</speed><course>114.632622</course><hAcc>0.877709</hAcc><vAcc>0.692857</vAcc></extensions></trkpt>
      <trkpt lon="-3.308426" lat="54.545684"><ele>129.527710</ele><time>2021-08-12T11:58:29Z</time><extensions><speed>1.185340</speed><course>103.253258</course><hAcc>0.878047</hAcc><vAcc>0.694088</vAcc></extensions></trkpt>
      <trkpt lon="-3.308409" lat="54.545688"><ele>129.455032</ele><time>2021-08-12T11:58:30Z</time><extensions><speed>1.201011</speed><course>106.301743</course><hAcc>0.878312</hAcc><vAcc>0.695008</vAcc></extensions></trkpt>
      <trkpt lon="-3.308392" lat="54.545692"><ele>129.386780</ele><time>2021-08-12T11:58:31Z</time><extensions><speed>1.216505</speed><course>102.376541</course><hAcc>0.878502</hAcc><vAcc>0.695617</vAcc></extensions></trkpt>
      <trkpt lon="-3.308375" lat="54.545697"><ele>129.320663</ele><time>2021-08-12T11:58:32Z</time><extensions><speed>1.230945</speed><course>106.795837</course><hAcc>0.878619</hAcc><vAcc>0.695927</vAcc></extensions></trkpt>
      <trkpt lon="-3.308358" lat="54.545702"><ele>129.254898</ele><time>2021-08-12T11:58:33Z</time><extensions><speed>1.243991</speed><course>105.416672</course><hAcc>0.878668</hAcc><vAcc>0.695970</vAcc></extensions></trkpt>
      <trkpt lon="-3.308342" lat="54.545708"><ele>129.188293</ele><time>2021-08-12T11:58:34Z</time><extensions><speed>1.254882</speed><course>115.994911</course><hAcc>0.878655</hAcc><vAcc>0.695790</vAcc></extensions></trkpt>
      <trkpt lon="-3.308326" lat="54.545715"><ele>129.120163</ele><time>2021-08-12T11:58:35Z</time><extensions><speed>1.261643</speed><course>121.956070</course><hAcc>0.878591</hAcc><vAcc>0.695434</vAcc></extensions></trkpt>
      <trkpt lon="-3.308310" lat="54.545722"><ele>129.050232</ele><time>2021-08-12T11:58:36Z</time><extensions><speed>1.262656</speed><course>114.918808</course><hAcc>0.878482</hAcc><vAcc>0.694945</vAcc></extensions></trkpt>
      <trkpt lon="-3.308296" lat="54.545729"><ele>128.978241</ele><time>2021-08-12T11:58:37Z</time><extensions><speed>1.257177</speed><course>112.952827</course><hAcc>0.878336</hAcc><vAcc>0.694357</vAcc></extensions></trkpt>
      <trkpt lon="-3.308282" lat="54.545737"><ele>128.903900</ele><time>2021-08-12T11:58:38Z</time><extensions><speed>1.244205</speed><course>108.521141</course><hAcc>0.878159</hAcc><vAcc>0.693687</vAcc></extensions></trkpt>
      <trkpt lon="-3.308269" lat="54.545745"><ele>128.827118</ele><time>2021-08-12T11:58:39Z</time><extensions><speed>1.223510</speed><course>105.023331</course><hAcc>0.877953</hAcc><vAcc>0.692946</vAcc></extensions></trkpt>
      <trkpt lon="-3.308258" lat="54.545754"><ele>128.748276</ele><time>2021-08-12T11:58:40Z</time><extensions><speed>1.196321</speed><course>98.270523</course><hAcc>0.877719</hAcc><vAcc>0.692131</vAcc></extensions></trkpt>
      <trkpt lon="-3.308248" lat="54.545763"><ele>128.668274</ele><time>2021-08-12T11:58:41Z</time><extensions><speed>1.165124</speed><course>104.555389</course><hAcc>0.877454</hAcc><vAcc>0.691230</vAcc></extensions></trkpt>
      <trkpt lon="-3.308239" lat="54.545772"><ele>128.588486</ele><time>2021-08-12T11:58:42Z</time><extensions><speed>1.132605</speed><course>108.798698</course><hAcc>0.877154</hAcc><vAcc>0.690224</vAcc></extensions></trkpt>
      <trkpt lon="-3.308231" lat="54.545781"><ele>128.510925</ele><time>2021-08-12T11:58:43Z</time><extensions><speed>1.100718</speed><course>107.953148</course><hAcc>0.876811</hAcc><vAcc>0.689096</vAcc></extensions></trkpt>
      <trkpt lon="-3.308225" lat="54.545790"><ele>128.437759</ele><time>2021-08-12T11:58:44Z</time><extensions><speed>1.070978</speed><course>107.561462</course><hAcc>0.876417</hAcc><vAcc>0.687822</vAcc></extensions></trkpt>
      <trkpt lon="-3.308220" lat="54.545799"><ele>128.371002</ele><time>2021-08-12T11:58:45Z</time><extensions><speed>1.045116</speed><course>98.600151</course><hAcc>0.875963</hAcc><vAcc>0.686367</vAcc></extensions></trkpt>
      <trkpt lon="-3.308217" lat="54.545808"><ele>128.312225</ele><time>2021-08-12T11:58:46Z</time><extensions><speed>1.024990</speed><course>106.179245</course><hAcc>0.875438</hAcc><vAcc>0.684673</vAcc></extensions></trkpt>
      <trkpt lon="-3.308214" lat="54.545817"><ele>128.262115</ele><time>2021-08-12T11:58:47Z</time><extensions><speed>1.011452</speed><course>99.736237</course><hAcc>0.874836</hAcc><vAcc>0.682676</vAcc></extensions></trkpt>
      <trkpt lon="-3.308213" lat="54.545826"><ele>128.220322</ele><time>2021-08-12T11:58:48Z</time><extensions><speed>1.004183</speed><course>102.027924</course><hAcc>0.874152</hAcc><vAcc>0.680329</vAcc></extensions></trkpt>
      <trkpt lon="-3.308212" lat="54.545835"><ele>128.186157</ele><time>2021-08-12T11:58:49Z</time><extensions><speed>1.001211</speed><course>94.072990</course><hAcc>0.873392</hAcc><vAcc>0.677621</vAcc></extensions></trkpt>
      <trkpt lon="-3.308213" lat="54.545844"><ele>128.159225</ele><time>2021-08-12T11:58:50Z</time><extensions><speed>0.999308</speed><course>96.463219</course><hAcc>0.872569</hAcc><vAcc>0.674599</vAcc></extensions></trkpt>
      <trkpt lon="-3.308214" lat="54.545853"><ele>128.139404</ele><time>2021-08-12T11:58:51Z</time><extensions><speed>0.995383</speed><course>96.928070</course><hAcc>0.871706</hAcc><vAcc>0.671357</vAcc></extensions></trkpt>
      <trkpt lon="-3.308215" lat="54.545862"><ele>128.126709</ele><time>2021-08-12T11:58:52Z</time><extensions><speed>0.987723</speed><course>85.766655</course><hAcc>0.870834</hAcc><vAcc>0.668027</vAcc></extensions></trkpt>
      <trkpt lon="-3.308216" lat="54.545870"><ele>128.121384</ele><time>2021-08-12T11:58:53Z</time><extensions><speed>0.976409</speed><course>93.944389</course><hAcc>0.869989</hAcc><vAcc>0.664767</vAcc></extensions></trkpt>
      <trkpt lon="-3.308216" lat="54.545879"><ele>128.123245</ele><time>2021-08-12T11:58:54Z</time><extensions><speed>0.962803</speed><course>96.280258</course><hAcc>0.869214</hAcc><vAcc>0.661748</vAcc></extensions></trkpt>
      <trkpt lon="-3.308216" lat="54.545888"><ele>128.131256</ele><time>2021-08-12T11:58:55Z</time><extensions><speed>0.949333</speed><course>103.229439</course><hAcc>0.868550</hAcc><vAcc>0.659148</vAcc></extensions></trkpt>
      <trkpt lon="-3.308215" lat="54.545896"><ele>128.144287</ele><time>2021-08-12T11:58:56Z</time><extensions><speed>0.939075</speed><course>100.069313</course><hAcc>0.868038</hAcc><vAcc>0.657137</vAcc></extensions></trkpt>
      <trkpt lon="-3.308213" lat="54.545904"><ele>128.161438</ele><time>2021-08-12T11:58:57Z</time><extensions><speed>0.935040</speed><course>107.704430</course><hAcc>0.867714</hAcc><vAcc>0.655857</vAcc></extensions></trkpt>
      <trkpt lon="-3.308210" lat="54.545913"><ele>128.181213</ele><time>2021-08-12T11:58:58Z</time><extensions><speed>0.940075</speed><course>102.019516</course><hAcc>0.867602</hAcc><vAcc>0.655418</vAcc></extensions></trkpt>
      <trkpt lon="-3.308205" lat="54.545921"><ele>128.200455</ele><time>2021-08-12T11:58:59Z</time><extensions><speed>0.956752</speed><course>101.188896</course><hAcc>0.867720</hAcc><vAcc>0.655884</vAcc></extensions></trkpt>
      <trkpt lon="-3.308198" lat="54.545929"><ele>128.215225</ele><time>2021-08-12T11:59:00Z</time><extensions><speed>0.986436</speed><course>101.655106</course><hAcc>0.868069</hAcc><vAcc>0.657262</vAcc></extensions></trkpt>
      <trkpt lon="-3.308190" lat="54.545936"><ele>128.221939</ele><time>2021-08-12T11:59:01Z</time><extensions><speed>1.027154</speed><course>97.512695</course><hAcc>0.868635</hAcc><vAcc>0.659483</vAcc></extensions></trkpt>
      <trkpt lon="-3.308181" lat="54.545944"><ele>128.218033</ele><time>2021-08-12T11:59:02Z</time><extensions><speed>1.074938</speed><course>96.923676</course><hAcc>0.869385</hAcc><vAcc>0.662407</vAcc></extensions></trkpt>
      <trkpt lon="-3.308170" lat="54.545952"><ele>128.202103</ele><time>2021-08-12T11:59:03Z</time><extensions><speed>1.126053</speed><course>96.356850</course><hAcc>0.870276</hAcc><vAcc>0.665846</vAcc></extensions></trkpt>
      <trkpt lon="-3.308158" lat="54.545959"><ele>128.173965</ele><time>2021-08-12T11:59:04Z</time><extensions><speed>1.176694</speed><course>95.959724</course><hAcc>0.871262</hAcc><vAcc>0.669603</vAcc></extensions></trkpt>
      <trkpt lon="-3.308144" lat="54.545966"><ele>128.134293</ele><time>2021-08-12T11:59:05Z</time><extensions><speed>1.224011</speed><course>95.959717</course><hAcc>0.872298</hAcc><vAcc>0.673500</vAcc></extensions></trkpt>
      <trkpt lon="-3.308129" lat="54.545973"><ele>128.083801</ele><time>2021-08-12T11:59:06Z</time><extensions><speed>1.266518</speed><course>97.361824</course><hAcc>0.873346</hAcc><vAcc>0.677392</vAcc></extensions></trkpt>
      <trkpt lon="-3.308113" lat="54.545980"><ele>128.022568</ele><time>2021-08-12T11:59:07Z</time><extensions><speed>1.303224</speed><course>97.361824</course><hAcc>0.874374</hAcc><vAcc>0.681171</vAcc></extensions></trkpt>
      <trkpt lon="-3.308097" lat="54.545987"><ele>127.950157</ele><time>2021-08-12T11:59:08Z</time><extensions><speed>1.334110</speed><course>97.361809</course><hAcc>0.875358</hAcc><vAcc>0.684745</vAcc></extensions></trkpt>
      <trkpt lon="-3.308079" lat="54.545994"><ele>127.866333</ele><time>2021-08-12T11:59:09Z</time><extensions><speed>1.359534</speed><course>97.361801</course><hAcc>0.876277</hAcc><vAcc>0.688043</vAcc></extensions></trkpt>
      <trkpt lon="-3.308061" lat="54.546000"><ele>127.771492</ele><time>2021-08-12T11:59:10Z</time><extensions><speed>1.380116</speed><course>42.884136</course><hAcc>0.877120</hAcc><vAcc>0.691020</vAcc></extensions></trkpt>
      <trkpt lon="-3.308043" lat="54.546007"><ele>127.666451</ele><time>2021-08-12T11:59:11Z</time><extensions><speed>1.397059</speed><course>35.984764</course><hAcc>0.877877</hAcc><vAcc>0.693652</vAcc></extensions></trkpt>
      <trkpt lon="-3.308024" lat="54.546013"><ele>127.552330</ele><time>2021-08-12T11:59:12Z</time><extensions><speed>1.411089</speed><course>65.852417</course><hAcc>0.878547</hAcc><vAcc>0.695940</vAcc></extensions></trkpt>
      <trkpt lon="-3.308005" lat="54.546019"><ele>127.430573</ele><time>2021-08-12T11:59:13Z</time><extensions><speed>1.421752</speed><course>86.337746</course><hAcc>0.879131</hAcc><vAcc>0.697903</vAcc></extensions></trkpt>
      <trkpt lon="-3.307985" lat="54.546025"><ele>127.302849</ele><time>2021-08-12T11:59:14Z</time><extensions><speed>1.427922</speed><course>89.071770</course><hAcc>0.879631</hAcc><vAcc>0.699576</vAcc></extensions></trkpt>
      <trkpt lon="-3.307966" lat="54.546031"><ele>127.170891</ele><time>2021-08-12T11:59:15Z</time><extensions><speed>1.428377</speed><course>92.612312</course><hAcc>0.880054</hAcc><vAcc>0.700993</vAcc></extensions></trkpt>
      <trkpt lon="-3.307946" lat="54.546037"><ele>127.036285</ele><time>2021-08-12T11:59:16Z</time><extensions><speed>1.422410</speed><course>103.461632</course><hAcc>0.880404</hAcc><vAcc>0.702188</vAcc></extensions></trkpt>
      <trkpt lon="-3.307927" lat="54.546042"><ele>126.900558</ele><time>2021-08-12T11:59:17Z</time><extensions><speed>1.410477</speed><course>104.412865</course><hAcc>0.880688</hAcc><vAcc>0.703182</vAcc></extensions></trkpt>
      <trkpt lon="-3.307907" lat="54.546048"><ele>126.765289</ele><time>2021-08-12T11:59:18Z</time><extensions><speed>1.394230</speed><course>129.601685</course><hAcc>0.880910</hAcc><vAcc>0.703984</vAcc></extensions></trkpt>
      <trkpt lon="-3.307888" lat="54.546054"><ele>126.631866</ele><time>2021-08-12T11:59:19Z</time><extensions><speed>1.376127</speed><course>149.567169</course><hAcc>0.881075</hAcc><vAcc>0.704597</vAcc></extensions></trkpt>
      <trkpt lon="-3.307870" lat="54.546060"><ele>126.501411</ele><time>2021-08-12T11:59:20Z</time><extensions><speed>1.358555</speed><course>129.327728</course><hAcc>0.881188</hAcc><vAcc>0.705022</vAcc></extensions></trkpt>
      <trkpt lon="-3.307852" lat="54.546066"><ele>126.374916</ele><time>2021-08-12T11:59:21Z</time><extensions><speed>1.342254</speed><course>129.943619</course><hAcc>0.881251</hAcc><vAcc>0.705265</vAcc></extensions></trkpt>
      <trkpt lon="-3.307835" lat="54.546073"><ele>126.253380</ele><time>2021-08-12T11:59:22Z</time><extensions><speed>1.327337</speed><course>125.470825</course><hAcc>0.881270</hAcc><vAcc>0.705330</vAcc></extensions></trkpt>
      <trkpt lon="-3.307818" lat="54.546079"><ele>126.138016</ele><time>2021-08-12T11:59:23Z</time><extensions><speed>1.315018</speed><course>125.654007</course><hAcc>0.881250</hAcc><vAcc>0.705223</vAcc></extensions></trkpt>
      <trkpt lon="-3.307802" lat="54.546087"><ele>126.030006</ele><time>2021-08-12T11:59:24Z</time><extensions><speed>1.306949</speed><course>132.941208</course><hAcc>0.881199</hAcc><vAcc>0.704955</vAcc></extensions></trkpt>
      <trkpt lon="-3.307786" lat="54.546094"><ele>125.929558</ele><time>2021-08-12T11:59:25Z</time><extensions><speed>1.305315</speed><course>128.525970</course><hAcc>0.881123</hAcc><vAcc>0.704555</vAcc></extensions></trkpt>
      <trkpt lon="-3.307772" lat="54.546102"><ele>125.835869</ele><time>2021-08-12T11:59:26Z</time><extensions><speed>1.311756</speed><course>129.747040</course><hAcc>0.881031</hAcc><vAcc>0.704066</vAcc></extensions></trkpt>
      <trkpt lon="-3.307757" lat="54.546111"><ele>125.747581</ele><time>2021-08-12T11:59:27Z</time><extensions><speed>1.325349</speed><course>133.257645</course><hAcc>0.880930</hAcc><vAcc>0.703547</vAcc></extensions></trkpt>
      <trkpt lon="-3.307743" lat="54.546119"><ele>125.663162</ele><time>2021-08-12T11:59:28Z</time><extensions><speed>1.343354</speed><course>122.834160</course><hAcc>0.880828</hAcc><vAcc>0.703057</vAcc></extensions></trkpt>
      <trkpt lon="-3.307729" lat="54.546128"><ele>125.581314</ele><time>2021-08-12T11:59:29Z</time><extensions><speed>1.363100</speed><course>121.754723</course><hAcc>0.880731</hAcc><vAcc>0.702636</vAcc></extensions></trkpt>
      <trkpt lon="-3.307715" lat="54.546138"><ele>125.501038</ele><time>2021-08-12T11:59:30Z</time><extensions><speed>1.381883</speed><course>130.620087</course><hAcc>0.880643</hAcc><vAcc>0.702302</vAcc></extensions></trkpt>
      <trkpt lon="-3.307702" lat="54.546147"><ele>125.421425</ele><time>2021-08-12T11:59:31Z</time><extensions><speed>1.397158</speed><course>128.548019</course><hAcc>0.880565</hAcc><vAcc>0.702047</vAcc></extensions></trkpt>
      <trkpt lon="-3.307688" lat="54.546157"><ele>125.341896</ele><time>2021-08-12T11:59:32Z</time><extensions><speed>1.407627</speed><course>128.034912</course><hAcc>0.880497</hAcc><vAcc>0.701851</vAcc></extensions></trkpt>
      <trkpt lon="-3.307675" lat="54.546167"><ele>125.262619</ele><time>2021-08-12T11:59:33Z</time><extensions><speed>1.413209</speed><course>128.138321</course><hAcc>0.880437</hAcc><vAcc>0.701692</vAcc></extensions></trkpt>
      <trkpt lon="-3.307661" lat="54.546177"><ele>125.184395</ele><time>2021-08-12T11:59:34Z</time><extensions><speed>1.414075</speed><course>127.788391</course><hAcc>0.880383</hAcc><vAcc>0.701552</vAcc></extensions></trkpt>
      <trkpt lon="-3.307647" lat="54.546187"><ele>125.108070</ele><time>2021-08-12T11:59:35Z</time><extensions><speed>1.410535</speed><course>111.799332</course><hAcc>0.880329</hAcc><vAcc>0.701420</vAcc></extensions></trkpt>
      <trkpt lon="-3.307634" lat="54.546197"><ele>125.033752</ele><time>2021-08-12T11:59:36Z</time><extensions><speed>1.402789</speed><course>135.894547</course><hAcc>0.880272</hAcc><vAcc>0.701282</vAcc></extensions></trkpt>
      <trkpt lon="-3.307620" lat="54.546207"><ele>124.960655</ele><time>2021-08-12T11:59:37Z</time><extensions><speed>1.390907</speed><course>135.791443</course><hAcc>0.880206</hAcc><vAcc>0.701118</vAcc></extensions></trkpt>
      <trkpt lon="-3.307607" lat="54.546216"><ele>124.887695</ele><time>2021-08-12T11:59:38Z</time><extensions><speed>1.375159</speed><course>137.532547</course><hAcc>0.880130</hAcc><vAcc>0.700906</vAcc></extensions></trkpt>
      <trkpt lon="-3.307594" lat="54.546226"><ele>124.813988</ele><time>2021-08-12T11:59:39Z</time><extensions><speed>1.356486</speed><course>139.503952</course><hAcc>0.880041</hAcc><vAcc>0.700621</vAcc></extensions></trkpt>
      <trkpt lon="-3.307581" lat="54.546235"><ele>124.738960</ele><time>2021-08-12T11:59:40Z</time><extensions><speed>1.336455</speed><course>146.422607</course><hAcc>0.879940</hAcc><vAcc>0.700247</vAcc></extensions></trkpt>
      <trkpt lon="-3.307568" lat="54.546245"><ele>124.662361</ele><time>2021-08-12T11:59:41Z</time><extensions><speed>1.316755</speed><course>123.702354</course><hAcc>0.879829</hAcc><vAcc>0.699785</vAcc></extensions></trkpt>
      <trkpt lon="-3.307555" lat="54.546254"><ele>124.584175</ele><time>2021-08-12T11:59:42Z</time><extensions><speed>1.298593</speed><course>126.795586</course><hAcc>0.879713</hAcc><vAcc>0.699262</vAcc></extensions></trkpt>
      <trkpt lon="-3.307542" lat="54.546262"><ele>124.504570</ele><time>2021-08-12T11:59:43Z</time><extensions><speed>1.282366</speed><course>132.239441</course><hAcc>0.879596</hAcc><vAcc>0.698720</vAcc></extensions></trkpt>
      <trkpt lon="-3.307529" lat="54.546271"><ele>124.423828</ele><time>2021-08-12T11:59:44Z</time><extensions><speed>1.268086</speed><course>129.200668</course><hAcc>0.879487</hAcc><vAcc>0.698207</vAcc></extensions></trkpt>
      <trkpt lon="-3.307516" lat="54.546279"><ele>124.342224</ele><time>2021-08-12T11:59:45Z</time><extensions><speed>1.255759</speed><course>125.122314</course><hAcc>0.879393</hAcc><vAcc>0.697768</vAcc></extensions></trkpt>
      <trkpt lon="-3.307502" lat="54.546287"><ele>124.259598</ele><time>2021-08-12T11:59:46Z</time><extensions><speed>1.245451</speed><course>136.265396</course><hAcc>0.879320</hAcc><vAcc>0.697436</vAcc></extensions></trkpt>
      <trkpt lon="-3.307488" lat="54.546295"><ele>124.175240</ele><time>2021-08-12T11:59:47Z</time><extensions><speed>1.237184</speed><course>135.687027</course><hAcc>0.879273</hAcc><vAcc>0.697231</vAcc></extensions></trkpt>
      <trkpt lon="-3.307474" lat="54.546303"><ele>124.088272</ele><time>2021-08-12T11:59:48Z</time><extensions><speed>1.230435</speed><course>134.189224</course><hAcc>0.879258</hAcc><vAcc>0.697161</vAcc></extensions></trkpt>
      <trkpt lon="-3.307460" lat="54.546310"><ele>123.997772</ele><time>2021-08-12T11:59:49Z</time><extensions><speed>1.224439</speed><course>130.213623</course><hAcc>0.879275</hAcc><vAcc>0.697224</vAcc></extensions></trkpt>
      <trkpt lon="-3.307446" lat="54.546317"><ele>123.902916</ele><time>2021-08-12T11:59:50Z</time><extensions><speed>1.218668</speed><course>131.249283</course><hAcc>0.879326</hAcc><vAcc>0.697423</vAcc></extensions></trkpt>
      <trkpt lon="-3.307432" lat="54.546324"><ele>123.803276</ele><time>2021-08-12T11:59:51Z</time><extensions><speed>1.211994</speed><course>132.412170</course><hAcc>0.879409</hAcc><vAcc>0.697754</vAcc></extensions></trkpt>
      <trkpt lon="-3.307418" lat="54.546331"><ele>123.698807</ele><time>2021-08-12T11:59:52Z</time><extensions><speed>1.202887</speed><course>141.387543</course><hAcc>0.879521</hAcc><vAcc>0.698211</vAcc></extensions></trkpt>
      <trkpt lon="-3.307403" lat="54.546338"><ele>123.589851</ele><time>2021-08-12T11:59:53Z</time><extensions><speed>1.190640</speed><course>147.693329</course><hAcc>0.879659</hAcc><vAcc>0.698776</vAcc></extensions></trkpt>
      <trkpt lon="-3.307389" lat="54.546345"><ele>123.476883</ele><time>2021-08-12T11:59:54Z</time><extensions><speed>1.175767</speed><course>150.557755</course><hAcc>0.879816</hAcc><vAcc>0.699426</vAcc></extensions></trkpt>
      <trkpt lon="-3.307374" lat="54.546351"><ele>123.360458</ele><time>2021-08-12T11:59:55Z</time><extensions><speed>1.159577</speed><course>146.167221</course><hAcc>0.879986</hAcc><vAcc>0.700131</vAcc></extensions></trkpt>
      <trkpt lon="-3.307360" lat="54.546357"><ele>123.241577</ele><time>2021-08-12T11:59:56Z</time><extensions><speed>1.143296</speed><course>148.113663</course><hAcc>0.880161</hAcc><vAcc>0.700857</vAcc></extensions></trkpt>
      <trkpt lon="-3.307346" lat="54.546363"><ele>123.121841</ele><time>2021-08-12T11:59:57Z</time><extensions><speed>1.126975</speed><course>138.101883</course><hAcc>0.880335</hAcc><vAcc>0.701569</vAcc></extensions></trkpt>
      <trkpt lon="-3.307331" lat="54.546369"><ele>123.002945</ele><time>2021-08-12T11:59:58Z</time><extensions><speed>1.110008</speed><course>142.914612</course><hAcc>0.880501</hAcc><vAcc>0.702230</vAcc></extensions></trkpt>
      <trkpt lon="-3.307317" lat="54.546374"><ele>122.886322</ele><time>2021-08-12T11:59:59Z</time><extensions><speed>1.092050</speed><course>148.048096</course><hAcc>0.880651</hAcc><vAcc>0.702811</vAcc></extensions></trkpt>
      <trkpt lon="-3.307303" lat="54.546379"><ele>122.773369</ele><time>2021-08-12T12:00:00Z</time><extensions><speed>1.072306</speed><course>151.450607</course><hAcc>0.880781</hAcc><vAcc>0.703294</vAcc></extensions></trkpt>
      <trkpt lon="-3.307288" lat="54.546383"><ele>122.665672</ele><time>2021-08-12T12:00:01Z</time><extensions><speed>1.049445</speed><course>136.771103</course><hAcc>0.880885</hAcc><vAcc>0.703669</vAcc></extensions></trkpt>
      <trkpt lon="-3.307274" lat="54.546388"><ele>122.564697</ele><time>2021-08-12T12:00:02Z</time><extensions><speed>1.022771</speed><course>141.808670</course><hAcc>0.880959</hAcc><vAcc>0.703939</vAcc></extensions></trkpt>
      <trkpt lon="-3.307260" lat="54.546391"><ele>122.471680</ele><time>2021-08-12T12:00:03Z</time><extensions><speed>0.991505</speed><course>141.991776</course><hAcc>0.880997</hAcc><vAcc>0.704102</vAcc></extensions></trkpt>
      <trkpt lon="-3.307246" lat="54.546395"><ele>122.387733</ele><time>2021-08-12T12:00:04Z</time><extensions><speed>0.954025</speed><course>158.861435</course><hAcc>0.880995</hAcc><vAcc>0.704152</vAcc></extensions></trkpt>
      <trkpt lon="-3.307232" lat="54.546397"><ele>122.313980</ele><time>2021-08-12T12:00:05Z</time><extensions><speed>0.909023</speed><course>158.142120</course><hAcc>0.880950</hAcc><vAcc>0.704071</vAcc></extensions></trkpt>
      <trkpt lon="-3.307219" lat="54.546399"><ele>122.251389</ele><time>2021-08-12T12:00:06Z</time><extensions><speed>0.856501</speed><course>156.536041</course><hAcc>0.880858</hAcc><vAcc>0.703838</vAcc></extensions></trkpt>
      <trkpt lon="-3.307206" lat="54.546401"><ele>122.200264</ele><time>2021-08-12T12:00:07Z</time><extensions><speed>0.798413</speed><course>138.496033</course><hAcc>0.880718</hAcc><vAcc>0.703429</vAcc></extensions></trkpt>
      <trkpt lon="-3.307195" lat="54.546402"><ele>122.159866</ele><time>2021-08-12T12:00:08Z</time><extensions><speed>0.737397</speed><course>156.669647</course><hAcc>0.880527</hAcc><vAcc>0.702821</vAcc></extensions></trkpt>
      <trkpt lon="-3.307184" lat="54.546402"><ele>122.128441</ele><time>2021-08-12T12:00:09Z</time><extensions><speed>0.675600</speed><course>143.929214</course><hAcc>0.880289</hAcc><vAcc>0.701992</vAcc></extensions></trkpt>
      <trkpt lon="-3.307174" lat="54.546401"><ele>122.103569</ele><time>2021-08-12T12:00:10Z</time><extensions><speed>0.615037</speed><course>154.114960</course><hAcc>0.880005</hAcc><vAcc>0.700939</vAcc></extensions></trkpt>
      <trkpt lon="-3.307165" lat="54.546400"><ele>122.082626</ele><time>2021-08-12T12:00:11Z</time><extensions><speed>0.557743</speed><course>157.737396</course><hAcc>0.879681</hAcc><vAcc>0.699675</vAcc></extensions></trkpt>
      <trkpt lon="-3.307157" lat="54.546399"><ele>122.063446</ele><time>2021-08-12T12:00:12Z</time><extensions><speed>0.505271</speed><course>156.437073</course><hAcc>0.879324</hAcc><vAcc>0.698245</vAcc></extensions></trkpt>
      <trkpt lon="-3.307150" lat="54.546397"><ele>122.044960</ele><time>2021-08-12T12:00:13Z</time><extensions><speed>0.457914</speed><course>159.749420</course><hAcc>0.878942</hAcc><vAcc>0.696715</vAcc></extensions></trkpt>
      <trkpt lon="-3.307145" lat="54.546395"><ele>122.026955</ele><time>2021-08-12T12:00:14Z</time><extensions><speed>0.415086</speed><course>156.029541</course><hAcc>0.878540</hAcc><vAcc>0.695158</vAcc></extensions></trkpt>
      <trkpt lon="-3.307140" lat="54.546393"><ele>122.009491</ele><time>2021-08-12T12:00:15Z</time><extensions><speed>0.376245</speed><course>159.049896</course><hAcc>0.878124</hAcc><vAcc>0.693628</vAcc></extensions></trkpt>
      <trkpt lon="-3.307136" lat="54.546390"><ele>121.992867</ele><time>2021-08-12T12:00:16Z</time><extensions><speed>0.341642</speed><course>154.355942</course><hAcc>0.877695</hAcc><vAcc>0.692137</vAcc></extensions></trkpt>
      <trkpt lon="-3.307134" lat="54.546388"><ele>121.978172</ele><time>2021-08-12T12:00:17Z</time><extensions><speed>0.312479</speed><course>162.710571</course><hAcc>0.877252</hAcc><vAcc>0.690649</vAcc></extensions></trkpt>
      <trkpt lon="-3.307132" lat="54.546386"><ele>121.967049</ele><time>2021-08-12T12:00:18Z</time><extensions><speed>0.288764</speed><course>161.899368</course><hAcc>0.876792</hAcc><vAcc>0.689097</vAcc></extensions></trkpt>
      <trkpt lon="-3.307131" lat="54.546383"><ele>121.961006</ele><time>2021-08-12T12:00:19Z</time><extensions><speed>0.268959</speed><course>160.656769</course><hAcc>0.876313</hAcc><vAcc>0.687426</vAcc></extensions></trkpt>
      <trkpt lon="-3.307130" lat="54.546381"><ele>121.961136</ele><time>2021-08-12T12:00:20Z</time><extensions><speed>0.251167</speed><course>152.471558</course><hAcc>0.875817</hAcc><vAcc>0.685614</vAcc></extensions></trkpt>
      <trkpt lon="-3.307130" lat="54.546379"><ele>121.967979</ele><time>2021-08-12T12:00:21Z</time><extensions><speed>0.233946</speed><course>148.255112</course><hAcc>0.875312</hAcc><vAcc>0.683675</vAcc></extensions></trkpt>
      <trkpt lon="-3.307130" lat="54.546377"><ele>121.981529</ele><time>2021-08-12T12:00:22Z</time><extensions><speed>0.216820</speed><course>153.394714</course><hAcc>0.874806</hAcc><vAcc>0.681629</vAcc></extensions></trkpt>
      <trkpt lon="-3.307131" lat="54.546375"><ele>122.001350</ele><time>2021-08-12T12:00:23Z</time><extensions><speed>0.200173</speed><course>156.943573</course><hAcc>0.874311</hAcc><vAcc>0.679482</vAcc></extensions></trkpt>
      <trkpt lon="-3.307132" lat="54.546373"><ele>122.026619</ele><time>2021-08-12T12:00:24Z</time><extensions><speed>0.184774</speed><course>159.515564</course><hAcc>0.873842</hAcc><vAcc>0.677240</vAcc></extensions></trkpt>
      <trkpt lon="-3.307133" lat="54.546372"><ele>122.056160</ele><time>2021-08-12T12:00:25Z</time><extensions><speed>0.171762</speed><course>158.540283</course><hAcc>0.873418</hAcc><vAcc>0.674955</vAcc></extensions></trkpt>
      <trkpt lon="-3.307134" lat="54.546370"><ele>122.088516</ele><time>2021-08-12T12:00:26Z</time><extensions><speed>0.162137</speed><course>153.751312</course><hAcc>0.873061</hAcc><vAcc>0.672734</vAcc></extensions></trkpt>
      <trkpt lon="-3.307136" lat="54.546369"><ele>122.122192</ele><time>2021-08-12T12:00:27Z</time><extensions><speed>0.156210</speed><course>159.795258</course><hAcc>0.872793</hAcc><vAcc>0.670715</vAcc></extensions></trkpt>
      <trkpt lon="-3.307138" lat="54.546369"><ele>122.155983</ele><time>2021-08-12T12:00:28Z</time><extensions><speed>0.153452</speed><course>158.187424</course><hAcc>0.872627</hAcc><vAcc>0.669062</vAcc></extensions></trkpt>
      <trkpt lon="-3.307140" lat="54.546368"><ele>122.188934</ele><time>2021-08-12T12:00:29Z</time><extensions><speed>0.152587</speed><course>160.275116</course><hAcc>0.872567</hAcc><vAcc>0.667945</vAcc></extensions></trkpt>
      <trkpt lon="-3.307142" lat="54.546367"><ele>122.219887</ele><time>2021-08-12T12:00:30Z</time><extensions><speed>0.152422</speed><course>156.643036</course><hAcc>0.872602</hAcc><vAcc>0.667519</vAcc></extensions></trkpt>
      <trkpt lon="-3.307144" lat="54.546367"><ele>122.247536</ele><time>2021-08-12T12:00:31Z</time><extensions><speed>0.152000</speed><course>162.614395</course><hAcc>0.872716</hAcc><vAcc>0.667900</vAcc></extensions></trkpt>
      <trkpt lon="-3.307147" lat="54.546367"><ele>122.270790</ele><time>2021-08-12T12:00:32Z</time><extensions><speed>0.150074</speed><course>162.054535</course><hAcc>0.872914</hAcc><vAcc>0.669143</vAcc></extensions></trkpt>
      <trkpt lon="-3.307149" lat="54.546367"><ele>122.288902</ele><time>2021-08-12T12:00:33Z</time><extensions><speed>0.145701</speed><course>177.342987</course><hAcc>0.873226</hAcc><vAcc>0.671214</vAcc></extensions></trkpt>
      <trkpt lon="-3.307151" lat="54.546367"><ele>122.301163</ele><time>2021-08-12T12:00:34Z</time><extensions><speed>0.138873</speed><course>172.891953</course><hAcc>0.873674</hAcc><vAcc>0.673997</vAcc></extensions></trkpt>
      <trkpt lon="-3.307153" lat="54.546367"><ele>122.306992</ele><time>2021-08-12T12:00:35Z</time><extensions><speed>0.130895</speed><course>169.984741</course><hAcc>0.874257</hAcc><vAcc>0.677319</vAcc></extensions></trkpt>
      <trkpt lon="-3.307155" lat="54.546367"><ele>122.306145</ele><time>2021-08-12T12:00:36Z</time><extensions><speed>0.123146</speed><course>166.246048</course><hAcc>0.874956</hAcc><vAcc>0.680968</vAcc></extensions></trkpt>
      <trkpt lon="-3.307157" lat="54.546368"><ele>122.298668</ele><time>2021-08-12T12:00:37Z</time><extensions><speed>0.115953</speed><course>166.762161</course><hAcc>0.875739</hAcc><vAcc>0.684728</vAcc></extensions></trkpt>
      <trkpt lon="-3.307158" lat="54.546368"><ele>122.284615</ele><time>2021-08-12T12:00:38Z</time><extensions><speed>0.109527</speed><course>163.016708</course><hAcc>0.876570</hAcc><vAcc>0.688409</vAcc></extensions></trkpt>
      <trkpt lon="-3.307160" lat="54.546369"><ele>122.264091</ele><time>2021-08-12T12:00:39Z</time><extensions><speed>0.104043</speed><course>159.079727</course><hAcc>0.877414</hAcc><vAcc>0.691872</vAcc></extensions></trkpt>
      <trkpt lon="-3.307161" lat="54.546369"><ele>122.237389</ele><time>2021-08-12T12:00:40Z</time><extensions><speed>0.099163</speed><course>160.816132</course><hAcc>0.878242</hAcc><vAcc>0.695034</vAcc></extensions></trkpt>
      <trkpt lon="-3.307162" lat="54.546370"><ele>122.205162</ele><time>2021-08-12T12:00:41Z</time><extensions><speed>0.094071</speed><course>163.227844</course><hAcc>0.879033</hAcc><vAcc>0.697881</vAcc></extensions></trkpt>
      <trkpt lon="-3.307163" lat="54.546371"><ele>122.168312</ele><time>2021-08-12T12:00:42Z</time><extensions><speed>0.088525</speed><course>152.149902</course><hAcc>0.879773</hAcc><vAcc>0.700455</vAcc></extensions></trkpt>
      <trkpt lon="-3.307163" lat="54.546371"><ele>122.127831</ele><time>2021-08-12T12:00:43Z</time><extensions><speed>0.083375</speed><course>159.582550</course><hAcc>0.880453</hAcc><vAcc>0.702810</vAcc></extensions></trkpt>
      <trkpt lon="-3.307163" lat="54.546372"><ele>122.084740</ele><time>2021-08-12T12:00:44Z</time><extensions><speed>0.079102</speed><course>159.987671</course><hAcc>0.881071</hAcc><vAcc>0.704972</vAcc></extensions></trkpt>
      <trkpt lon="-3.307163" lat="54.546373"><ele>122.039986</ele><time>2021-08-12T12:00:45Z</time><extensions><speed>0.075157</speed><course>163.105835</course><hAcc>0.881627</hAcc><vAcc>0.706935</vAcc></extensions></trkpt>
      <trkpt lon="-3.307163" lat="54.546373"><ele>121.994331</ele><time>2021-08-12T12:00:46Z</time><extensions><speed>0.070703</speed><course>160.869598</course><hAcc>0.882124</hAcc><vAcc>0.708681</vAcc></extensions></trkpt>
      <trkpt lon="-3.307163" lat="54.546374"><ele>121.948486</ele><time>2021-08-12T12:00:47Z</time><extensions><speed>0.065080</speed><course>172.028473</course><hAcc>0.882564</hAcc><vAcc>0.710203</vAcc></extensions></trkpt>
      <trkpt lon="-3.307163" lat="54.546374"><ele>121.903183</ele><time>2021-08-12T12:00:48Z</time><extensions><speed>0.058232</speed><course>182.583130</course><hAcc>0.882950</hAcc><vAcc>0.711514</vAcc></extensions></trkpt>
      <trkpt lon="-3.307163" lat="54.546375"><ele>121.859161</ele><time>2021-08-12T12:00:49Z</time><extensions><speed>0.050915</speed><course>175.623672</course><hAcc>0.883282</hAcc><vAcc>0.712642</vAcc></extensions></trkpt>
      <trkpt lon="-3.307163" lat="54.546375"><ele>121.817062</ele><time>2021-08-12T12:00:50Z</time><extensions><speed>0.044108</speed><course>168.997635</course><hAcc>0.883560</hAcc><vAcc>0.713613</vAcc></extensions></trkpt>
      <trkpt lon="-3.307163" lat="54.546376"><ele>121.777573</ele><time>2021-08-12T12:00:51Z</time><extensions><speed>0.038352</speed><course>166.227890</course><hAcc>0.883785</hAcc><vAcc>0.714435</vAcc></extensions></trkpt>
      <trkpt lon="-3.307163" lat="54.546376"><ele>121.741539</ele><time>2021-08-12T12:00:52Z</time><extensions><speed>0.032927</speed><course>162.222458</course><hAcc>0.883956</hAcc><vAcc>0.715098</vAcc></extensions></trkpt>
      <trkpt lon="-3.307163" lat="54.546376"><ele>121.709923</ele><time>2021-08-12T12:00:53Z</time><extensions><speed>0.026589</speed><course>162.553314</course><hAcc>0.884073</hAcc><vAcc>0.715583</vAcc></extensions></trkpt>
      <trkpt lon="-3.307163" lat="54.546376"><ele>121.683548</ele><time>2021-08-12T12:00:54Z</time><extensions><speed>0.019101</speed><course>165.735123</course><hAcc>0.884135</hAcc><vAcc>0.715873</vAcc></extensions></trkpt>
      <trkpt lon="-3.307164" lat="54.546376"><ele>121.663063</ele><time>2021-08-12T12:00:55Z</time><extensions><speed>0.011370</speed><course>166.317276</course><hAcc>0.884137</hAcc><vAcc>0.715956</vAcc></extensions></trkpt>
      <trkpt lon="-3.307164" lat="54.546376"><ele>121.648911</ele><time>2021-08-12T12:00:56Z</time><extensions><speed>0.007563</speed><course>164.590683</course><hAcc>0.884078</hAcc><vAcc>0.715819</vAcc></extensions></trkpt>
      <trkpt lon="-3.307164" lat="54.546376"><ele>121.641418</ele><time>2021-08-12T12:00:57Z</time><extensions><speed>0.012856</speed><course>167.304306</course><hAcc>0.883957</hAcc><vAcc>0.715451</vAcc></extensions></trkpt>
      <trkpt lon="-3.307164" lat="54.546376"><ele>121.640762</ele><time>2021-08-12T12:00:58Z</time><extensions><speed>0.020749</speed><course>166.209152</course><hAcc>0.883772</hAcc><vAcc>0.714839</vAcc></extensions></trkpt>
      <trkpt lon="-3.307164" lat="54.546376"><ele>121.646942</ele><time>2021-08-12T12:00:59Z</time><extensions><speed>0.028170</speed><course>170.985672</course><hAcc>0.883528</hAcc><vAcc>0.713967</vAcc></extensions></trkpt>
      <trkpt lon="-3.307163" lat="54.546376"><ele>121.659737</ele><time>2021-08-12T12:01:00Z</time><extensions><speed>0.034387</speed><course>170.155151</course><hAcc>0.883226</hAcc><vAcc>0.712830</vAcc></extensions></trkpt>
      <trkpt lon="-3.307163" lat="54.546376"><ele>121.678680</ele><time>2021-08-12T12:01:01Z</time><extensions><speed>0.038912</speed><course>173.270996</course><hAcc>0.882872</hAcc><vAcc>0.711450</vAcc></extensions></trkpt>
      <trkpt lon="-3.307163" lat="54.546375"><ele>121.703072</ele><time>2021-08-12T12:01:02Z</time><extensions><speed>0.041481</speed><course>158.977570</course><hAcc>0.882470</hAcc><vAcc>0.709872</vAcc></extensions></trkpt>
      <trkpt lon="-3.307162" lat="54.546375"><ele>121.731964</ele><time>2021-08-12T12:01:03Z</time><extensions><speed>0.042519</speed><course>154.473984</course><hAcc>0.882025</hAcc><vAcc>0.708154</vAcc></extensions></trkpt>
      <trkpt lon="-3.307162" lat="54.546375"><ele>121.764290</ele><time>2021-08-12T12:01:04Z</time><extensions><speed>0.042916</speed><course>159.955185</course><hAcc>0.881542</hAcc><vAcc>0.706345</vAcc></extensions></trkpt>
      <trkpt lon="-3.307161" lat="54.546375"><ele>121.799057</ele><time>2021-08-12T12:01:05Z</time><extensions><speed>0.043594</speed><course>153.408218</course><hAcc>0.881030</hAcc><vAcc>0.704467</vAcc></extensions></trkpt>
      <trkpt lon="-3.307160" lat="54.546374"><ele>121.835220</ele><time>2021-08-12T12:01:06Z</time><extensions><speed>0.045214</speed><course>151.142990</course><hAcc>0.880499</hAcc><vAcc>0.702531</vAcc></extensions></trkpt>
      <trkpt lon="-3.307160" lat="54.546374"><ele>121.871704</ele><time>2021-08-12T12:01:07Z</time><extensions><speed>0.047798</speed><course>153.658844</course><hAcc>0.879961</hAcc><vAcc>0.700552</vAcc></extensions></trkpt>
      <trkpt lon="-3.307159" lat="54.546374"><ele>121.907501</ele><time>2021-08-12T12:01:08Z</time><extensions><speed>0.050557</speed><course>151.540298</course><hAcc>0.879430</hAcc><vAcc>0.698554</vAcc></extensions></trkpt>
      <trkpt lon="-3.307158" lat="54.546374"><ele>121.941719</ele><time>2021-08-12T12:01:09Z</time><extensions><speed>0.052323</speed><course>151.542770</course><hAcc>0.878926</hAcc><vAcc>0.696575</vAcc></extensions></trkpt>
      <trkpt lon="-3.307157" lat="54.546375"><ele>121.973549</ele><time>2021-08-12T12:01:10Z</time><extensions><speed>0.051960</speed><course>151.184875</course><hAcc>0.878467</hAcc><vAcc>0.694690</vAcc></extensions></trkpt>
      <trkpt lon="-3.307157" lat="54.546375"><ele>122.002335</ele><time>2021-08-12T12:01:11Z</time><extensions><speed>0.050091</speed><course>148.009705</course><hAcc>0.878075</hAcc><vAcc>0.693016</vAcc></extensions></trkpt>
      <trkpt lon="-3.307156" lat="54.546375"><ele>122.027779</ele><time>2021-08-12T12:01:12Z</time><extensions><speed>0.048720</speed><course>151.132050</course><hAcc>0.877768</hAcc><vAcc>0.691684</vAcc></extensions></trkpt>
      <trkpt lon="-3.307156" lat="54.546376"><ele>122.050026</ele><time>2021-08-12T12:01:13Z</time><extensions><speed>0.048573</speed><course>147.416718</course><hAcc>0.877558</hAcc><vAcc>0.690791</vAcc></extensions></trkpt>
      <trkpt lon="-3.307156" lat="54.546376"><ele>122.069580</ele><time>2021-08-12T12:01:14Z</time><extensions><speed>0.048832</speed><course>145.946671</course><hAcc>0.877451</hAcc><vAcc>0.690371</vAcc></extensions></trkpt>
      <trkpt lon="-3.307156" lat="54.546377"><ele>122.087189</ele><time>2021-08-12T12:01:15Z</time><extensions><speed>0.048418</speed><course>158.213196</course><hAcc>0.877442</hAcc><vAcc>0.690407</vAcc></extensions></trkpt>
      <trkpt lon="-3.307156" lat="54.546377"><ele>122.103554</ele><time>2021-08-12T12:01:16Z</time><extensions><speed>0.046626</speed><course>165.532318</course><hAcc>0.877522</hAcc><vAcc>0.690840</vAcc></extensions></trkpt>
      <trkpt lon="-3.307156" lat="54.546377"><ele>122.118935</ele><time>2021-08-12T12:01:17Z</time><extensions><speed>0.043106</speed><course>155.828384</course><hAcc>0.877677</hAcc><vAcc>0.691582</vAcc></extensions></trkpt>
      <trkpt lon="-3.307156" lat="54.546378"><ele>122.133133</ele><time>2021-08-12T12:01:18Z</time><extensions><speed>0.037770</speed><course>158.510941</course><hAcc>0.877889</hAcc><vAcc>0.692528</vAcc></extensions></trkpt>
      <trkpt lon="-3.307157" lat="54.546378"><ele>122.145767</ele><time>2021-08-12T12:01:19Z</time><extensions><speed>0.030585</speed><course>158.599030</course><hAcc>0.878141</hAcc><vAcc>0.693581</vAcc></extensions></trkpt>
      <trkpt lon="-3.307157" lat="54.546378"><ele>122.156403</ele><time>2021-08-12T12:01:20Z</time><extensions><speed>0.021625</speed><course>159.122437</course><hAcc>0.878418</hAcc><vAcc>0.694664</vAcc></extensions></trkpt>
      <trkpt lon="-3.307157" lat="54.546378"><ele>122.164627</ele><time>2021-08-12T12:01:21Z</time><extensions><speed>0.011222</speed><course>161.654770</course><hAcc>0.878706</hAcc><vAcc>0.695727</vAcc></extensions></trkpt>
      <trkpt lon="-3.307157" lat="54.546378"><ele>122.169991</ele><time>2021-08-12T12:01:22Z</time><extensions><speed>0.002052</speed><course>168.809372</course><hAcc>0.878996</hAcc><vAcc>0.696748</vAcc></extensions></trkpt>
      <trkpt lon="-3.307157" lat="54.546378"><ele>122.171806</ele><time>2021-08-12T12:01:23Z</time><extensions><speed>0.012422</speed><course>164.604691</course><hAcc>0.879285</hAcc><vAcc>0.697729</vAcc></extensions></trkpt>
      <trkpt lon="-3.307157" lat="54.546378"><ele>122.169243</ele><time>2021-08-12T12:01:24Z</time><extensions><speed>0.023828</speed><course>171.894135</course><hAcc>0.879570</hAcc><vAcc>0.698684</vAcc></extensions></trkpt>
      <trkpt lon="-3.307157" lat="54.546378"><ele>122.161484</ele><time>2021-08-12T12:01:25Z</time><extensions><speed>0.034494</speed><course>183.275330</course><hAcc>0.879853</hAcc><vAcc>0.699630</vAcc></extensions></trkpt>
      <trkpt lon="-3.307156" lat="54.546378"><ele>122.147896</ele><time>2021-08-12T12:01:26Z</time><extensions><speed>0.043900</speed><course>184.743423</course><hAcc>0.880138</hAcc><vAcc>0.700583</vAcc></extensions></trkpt>
      <trkpt lon="-3.307156" lat="54.546377"><ele>122.128334</ele><time>2021-08-12T12:01:27Z</time><extensions><speed>0.051753</speed><course>187.377213</course><hAcc>0.880430</hAcc><vAcc>0.701557</vAcc></extensions></trkpt>
      <trkpt lon="-3.307156" lat="54.546377"><ele>122.103394</ele><time>2021-08-12T12:01:28Z</time><extensions><speed>0.057918</speed><course>178.027603</course><hAcc>0.880739</hAcc><vAcc>0.702577</vAcc></extensions></trkpt>
      <trkpt lon="-3.307155" lat="54.546376"><ele>122.074402</ele><time>2021-08-12T12:01:29Z</time><extensions><speed>0.062313</speed><course>178.136368</course><hAcc>0.881072</hAcc><vAcc>0.703680</vAcc></extensions></trkpt>
      <trkpt lon="-3.307155" lat="54.546376"><ele>122.043091</ele><time>2021-08-12T12:01:30Z</time><extensions><speed>0.065026</speed><course>181.274490</course><hAcc>0.881443</hAcc><vAcc>0.704905</vAcc></extensions></trkpt>
      <trkpt lon="-3.307155" lat="54.546375"><ele>122.011162</ele><time>2021-08-12T12:01:31Z</time><extensions><speed>0.066037</speed><course>197.035065</course><hAcc>0.881866</hAcc><vAcc>0.706288</vAcc></extensions></trkpt>
      <trkpt lon="-3.307154" lat="54.546375"><ele>121.979958</ele><time>2021-08-12T12:01:32Z</time><extensions><speed>0.065047</speed><course>204.692612</course><hAcc>0.882358</hAcc><vAcc>0.707850</vAcc></extensions></trkpt>
      <trkpt lon="-3.307154" lat="54.546374"><ele>121.950371</ele><time>2021-08-12T12:01:33Z</time><extensions><speed>0.062168</speed><course>213.039078</course><hAcc>0.882940</hAcc><vAcc>0.709598</vAcc></extensions></trkpt>
      <trkpt lon="-3.307154" lat="54.546373"><ele>121.922943</ele><time>2021-08-12T12:01:34Z</time><extensions><speed>0.057966</speed><course>220.763565</course><hAcc>0.883638</hAcc><vAcc>0.711536</vAcc></extensions></trkpt>
      <trkpt lon="-3.307154" lat="54.546373"><ele>121.897972</ele><time>2021-08-12T12:01:35Z</time><extensions><speed>0.052905</speed><course>226.732666</course><hAcc>0.884482</hAcc><vAcc>0.713662</vAcc></extensions></trkpt>
      <trkpt lon="-3.307154" lat="54.546373"><ele>121.875572</ele><time>2021-08-12T12:01:36Z</time><extensions><speed>0.047358</speed><course>231.810226</course><hAcc>0.885504</hAcc><vAcc>0.715961</vAcc></extensions></trkpt>
      <trkpt lon="-3.307154" lat="54.546372"><ele>121.855789</ele><time>2021-08-12T12:01:37Z</time><extensions><speed>0.041623</speed><course>257.258179</course><hAcc>0.886738</hAcc><vAcc>0.718413</vAcc></extensions></trkpt>
      <trkpt lon="-3.307154" lat="54.546372"><ele>121.838554</ele><time>2021-08-12T12:01:38Z</time><extensions><speed>0.035930</speed><course>266.164734</course><hAcc>0.888212</hAcc><vAcc>0.720990</vAcc></extensions></trkpt>
      <trkpt lon="-3.307153" lat="54.546372"><ele>121.823784</ele><time>2021-08-12T12:01:39Z</time><extensions><speed>0.030453</speed><course>266.164734</course><hAcc>0.889943</hAcc><vAcc>0.723655</vAcc></extensions></trkpt>
      <trkpt lon="-3.307153" lat="54.546371"><ele>121.811310</ele><time>2021-08-12T12:01:40Z</time><extensions><speed>0.025316</speed><course>266.164734</course><hAcc>0.891928</hAcc><vAcc>0.726352</vAcc></extensions></trkpt>
      <trkpt lon="-3.307153" lat="54.546371"><ele>121.800980</ele><time>2021-08-12T12:01:41Z</time><extensions><speed>0.020603</speed><course>220.132019</course><hAcc>0.894128</hAcc><vAcc>0.728996</vAcc></extensions></trkpt>
      <trkpt lon="-3.307153" lat="54.546371"><ele>121.792580</ele><time>2021-08-12T12:01:42Z</time><extensions><speed>0.016364</speed><course>228.232590</course><hAcc>0.896465</hAcc><vAcc>0.731479</vAcc></extensions></trkpt>
      <trkpt lon="-3.307153" lat="54.546371"><ele>121.785919</ele><time>2021-08-12T12:01:43Z</time><extensions><speed>0.012621</speed><course>234.079605</course><hAcc>0.898811</hAcc><vAcc>0.733667</vAcc></extensions></trkpt>
      <trkpt lon="-3.307153" lat="54.546371"><ele>121.780792</ele><time>2021-08-12T12:01:44Z</time><extensions><speed>0.009378</speed><course>246.469162</course><hAcc>0.900990</hAcc><vAcc>0.735425</vAcc></extensions></trkpt>
      <trkpt lon="-3.307153" lat="54.546371"><ele>121.776993</ele><time>2021-08-12T12:01:45Z</time><extensions><speed>0.006621</speed><course>245.207291</course><hAcc>0.902803</hAcc><vAcc>0.736645</vAcc></extensions></trkpt>
      <trkpt lon="-3.307153" lat="54.546371"><ele>121.774345</ele><time>2021-08-12T12:01:46Z</time><extensions><speed>0.004332</speed><course>243.898834</course><hAcc>0.904080</hAcc><vAcc>0.737308</vAcc></extensions></trkpt>
      <trkpt lon="-3.307153" lat="54.546371"><ele>121.772659</ele><time>2021-08-12T12:01:47Z</time><extensions><speed>0.002504</speed><course>238.112976</course><hAcc>0.904775</hAcc><vAcc>0.737582</vAcc></extensions></trkpt>
      <trkpt lon="-3.307153" lat="54.546371"><ele>121.771774</ele><time>2021-08-12T12:01:48Z</time><extensions><speed>0.001236</speed><course>238.308395</course><hAcc>0.905140</hAcc><vAcc>0.737966</vAcc></extensions></trkpt>
      <trkpt lon="-3.307153" lat="54.546370"><ele>121.771545</ele><time>2021-08-12T12:01:49Z</time><extensions><speed>0.001064</speed><course>242.479843</course><hAcc>0.905974</hAcc><vAcc>0.739478</vAcc></extensions></trkpt>
      <trkpt lon="-3.307153" lat="54.546371"><ele>121.771828</ele><time>2021-08-12T12:01:50Z</time><extensions><speed>0.001679</speed><course>241.402863</course><hAcc>0.908984</hAcc><vAcc>0.743896</vAcc></extensions></trkpt>
      <trkpt lon="-3.307153" lat="54.546371"><ele>121.772514</ele><time>2021-08-12T12:01:51Z</time><extensions><speed>0.002278</speed><course>237.836914</course><hAcc>0.917222</hAcc><vAcc>0.753985</vAcc></extensions></trkpt>
      <trkpt lon="-3.307153" lat="54.546371"><ele>121.773506</ele><time>2021-08-12T12:01:52Z</time><extensions><speed>0.002733</speed><course>241.232681</course><hAcc>0.935500</hAcc><vAcc>0.773630</vAcc></extensions></trkpt>
      <trkpt lon="-3.307154" lat="54.546371"><ele>121.774712</ele><time>2021-08-12T12:01:53Z</time><extensions><speed>0.003050</speed><course>262.141510</course><hAcc>0.970523</hAcc><vAcc>0.807689</vAcc></extensions></trkpt>
      <trkpt lon="-3.307154" lat="54.546371"><ele>121.789772</ele><time>2021-08-12T12:01:54Z</time><extensions><speed>0.000000</speed><course>74.967865</course><hAcc>0.933581</hAcc><vAcc>0.773637</vAcc></extensions></trkpt>
      <trkpt lon="-3.307154" lat="54.546371"><ele>121.789772</ele><time>2021-08-12T12:01:55Z</time><extensions><speed>0.000000</speed><course>75.133301</course><hAcc>0.914663</hAcc><vAcc>0.752324</vAcc></extensions></trkpt>
      <trkpt lon="-3.307154" lat="54.546371"><ele>121.789772</ele><time>2021-08-12T12:01:56Z</time><extensions><speed>0.000000</speed><course>66.099251</course><hAcc>0.907205</hAcc><vAcc>0.742061</vAcc></extensions></trkpt>
      <trkpt lon="-3.307154" lat="54.546371"><ele>121.789772</ele><time>2021-08-12T12:01:57Z</time><extensions><speed>0.000000</speed><course>81.237114</course><hAcc>0.905743</hAcc><vAcc>0.738542</vAcc></extensions></trkpt>
      <trkpt lon="-3.307154" lat="54.546371"><ele>121.789772</ele><time>2021-08-12T12:01:58Z</time><extensions><speed>0.000000</speed><course>80.566093</course><hAcc>0.906824</hAcc><vAcc>0.738658</vAcc></extensions></trkpt>
      <trkpt lon="-3.307154" lat="54.546371"><ele>121.789772</ele><time>2021-08-12T12:01:59Z</time><extensions><speed>0.000000</speed><course>80.566109</course><hAcc>0.908538</hAcc><vAcc>0.740388</vAcc></extensions></trkpt>
      <trkpt lon="-3.307154" lat="54.546371"><ele>121.789772</ele><time>2021-08-12T12:02:00Z</time><extensions><speed>0.000000</speed><course>80.566093</course><hAcc>0.910015</hAcc><vAcc>0.742541</vAcc></extensions></trkpt>
      <trkpt lon="-3.307154" lat="54.546371"><ele>121.789772</ele><time>2021-08-12T12:02:01Z</time><extensions><speed>0.000000</speed><course>80.566093</course><hAcc>0.910990</hAcc><vAcc>0.744495</vAcc></extensions></trkpt>
      <trkpt lon="-3.307154" lat="54.546371"><ele>121.789772</ele><time>2021-08-12T12:02:02Z</time><extensions><speed>0.000000</speed><course>80.566093</course><hAcc>0.911506</hAcc><vAcc>0.745975</vAcc></extensions></trkpt>
      <trkpt lon="-3.307154" lat="54.546371"><ele>121.789772</ele><time>2021-08-12T12:02:03Z</time><extensions><speed>0.000000</speed><course>77.344681</course><hAcc>0.911702</hAcc><vAcc>0.746888</vAcc></extensions></trkpt>
      <trkpt lon="-3.307154" lat="54.546371"><ele>121.789772</ele><time>2021-08-12T12:02:04Z</time><extensions><speed>0.000000</speed><course>77.923714</course><hAcc>0.911697</hAcc><vAcc>0.747223</vAcc></extensions></trkpt>
      <trkpt lon="-3.307154" lat="54.546371"><ele>121.789772</ele><time>2021-08-12T12:02:05Z</time><extensions><speed>0.000000</speed><course>87.073212</course><hAcc>0.911529</hAcc><vAcc>0.746995</vAcc></extensions></trkpt>
      <trkpt lon="-3.307154" lat="54.546371"><ele>121.789772</ele><time>2021-08-12T12:02:06Z</time><extensions><speed>0.000000</speed><course>79.233902</course><hAcc>0.911159</hAcc><vAcc>0.746242</vAcc></extensions></trkpt>
      <trkpt lon="-3.307154" lat="54.546371"><ele>121.789772</ele><time>2021-08-12T12:02:07Z</time><extensions><speed>0.000000</speed><course>96.572746</course><hAcc>0.910516</hAcc><vAcc>0.745066</vAcc></extensions></trkpt>
      <trkpt lon="-3.307154" lat="54.546371"><ele>121.789772</ele><time>2021-08-12T12:02:08Z</time><extensions><speed>0.000000</speed><course>86.920219</course><hAcc>0.909605</hAcc><vAcc>0.743724</vAcc></extensions></trkpt>
      <trkpt lon="-3.307154" lat="54.546371"><ele>121.789772</ele><time>2021-08-12T12:02:09Z</time><extensions><speed>0.000000</speed><course>76.786201</course><hAcc>0.908692</hAcc><vAcc>0.742783</vAcc></extensions></trkpt>
      <trkpt lon="-3.307154" lat="54.546371"><ele>121.789772</ele><time>2021-08-12T12:02:10Z</time><extensions><speed>0.000000</speed><course>77.162971</course><hAcc>0.908565</hAcc><vAcc>0.743310</vAcc></extensions></trkpt>
      <trkpt lon="-3.307154" lat="54.546371"><ele>121.789772</ele><time>2021-08-12T12:02:11Z</time><extensions><speed>0.000000</speed><course>69.604996</course><hAcc>0.910912</hAcc><vAcc>0.747119</vAcc></extensions></trkpt>
      <trkpt lon="-3.307154" lat="54.546371"><ele>121.789772</ele><time>2021-08-12T12:02:12Z</time><extensions><speed>0.000000</speed><course>76.115456</course><hAcc>0.918759</hAcc><vAcc>0.757006</vAcc></extensions></trkpt>
      <trkpt lon="-3.307154" lat="54.546371"><ele>121.789772</ele><time>2021-08-12T12:02:13Z</time><extensions><speed>0.000000</speed><course>83.646278</course><hAcc>0.936885</hAcc><vAcc>0.776862</vAcc></extensions></trkpt>
      <trkpt lon="-3.307154" lat="54.546371"><ele>121.789772</ele><time>2021-08-12T12:02:14Z</time><extensions><speed>0.000000</speed><course>76.408623</course><hAcc>0.971958</hAcc><vAcc>0.811524</vAcc></extensions></trkpt>
      <trkpt lon="-3.307154" lat="54.546371"><ele>121.789772</ele><time>2021-08-12T12:02:15Z</time><extensions><speed>0.000000</speed><course>74.967865</course><hAcc>0.934212</hAcc><vAcc>0.775853</vAcc></extensions></trkpt>
      <trkpt lon="-3.307154" lat="54.546371"><ele>121.789772</ele><time>2021-08-12T12:02:16Z</time><extensions><speed>0.000000</speed><course>75.133301</course><hAcc>0.915358</hAcc><vAcc>0.754940</vAcc></extensions></trkpt>
      <trkpt lon="-3.307154" lat="54.546371"><ele>121.789772</ele><time>2021-08-12T12:02:17Z</time><extensions><speed>0.000000</speed><course>66.099251</course><hAcc>0.907946</hAcc><vAcc>0.744998</vAcc></extensions></trkpt>
      <trkpt lon="-3.307154" lat="54.546371"><ele>121.789772</ele><time>2021-08-12T12:02:18Z</time><extensions><speed>0.000000</speed><course>81.237114</course><hAcc>0.906513</hAcc><vAcc>0.741691</vAcc></extensions></trkpt>
      <trkpt lon="-3.307154" lat="54.546371"><ele>121.789772</ele><time>2021-08-12T12:02:19Z</time><extensions><speed>0.000000</speed><course>80.566093</course><hAcc>0.907608</hAcc><vAcc>0.741895</vAcc></extensions></trkpt>
      <trkpt lon="-3.307154" lat="54.546371"><ele>121.789772</ele><time>2021-08-12T12:02:20Z</time><extensions><speed>0.000000</speed><course>80.566109</course><hAcc>0.909322</hAcc><vAcc>0.743589</vAcc></extensions></trkpt>
      <trkpt lon="-3.307154" lat="54.546371"><ele>121.789772</ele><time>2021-08-12T12:02:21Z</time><extensions><speed>0.000000</speed><course>80.566093</course><hAcc>0.910785</hAcc><vAcc>0.745598</vAcc></extensions></trkpt>
      <trkpt lon="-3.307154" lat="54.546371"><ele>121.789772</ele><time>2021-08-12T12:02:22Z</time><extensions><speed>0.000000</speed><course>80.566093</course><hAcc>0.911734</hAcc><vAcc>0.747326</vAcc></extensions></trkpt>
      <trkpt lon="-3.307154" lat="54.546371"><ele>121.789772</ele><time>2021-08-12T12:02:23Z</time><extensions><speed>0.000000</speed><course>80.566093</course><hAcc>0.912211</hAcc><vAcc>0.748527</vAcc></extensions></trkpt>
      <trkpt lon="-3.307154" lat="54.546371"><ele>121.789772</ele><time>2021-08-12T12:02:24Z</time><extensions><speed>0.000000</speed><course>77.344681</course><hAcc>0.912357</hAcc><vAcc>0.749141</vAcc></extensions></trkpt>
      <trkpt lon="-3.307154" lat="54.546371"><ele>121.789772</ele><time>2021-08-12T12:02:25Z</time><extensions><speed>0.000000</speed><course>77.923714</course><hAcc>0.912292</hAcc><vAcc>0.749182</vAcc></extensions></trkpt>
      <trkpt lon="-3.307154" lat="54.546371"><ele>121.789772</ele><time>2021-08-12T12:02:26Z</time><extensions><speed>0.000000</speed><course>87.073212</course><hAcc>0.912060</hAcc><vAcc>0.748683</vAcc></extensions></trkpt>
      <trkpt lon="-3.307154" lat="54.546371"><ele>121.789772</ele><time>2021-08-12T12:02:27Z</time><extensions><speed>0.000000</speed><course>79.233902</course><hAcc>0.911623</hAcc><vAcc>0.747685</vAcc></extensions></trkpt>
      <trkpt lon="-3.307154" lat="54.546371"><ele>121.789772</ele><time>2021-08-12T12:02:28Z</time><extensions><speed>0.000000</speed><course>96.572746</course><hAcc>0.910909</hAcc><vAcc>0.746291</vAcc></extensions></trkpt>
      <trkpt lon="-3.307154" lat="54.546371"><ele>121.789772</ele><time>2021-08-12T12:02:29Z</time><extensions><speed>0.000000</speed><course>86.920219</course><hAcc>0.909926</hAcc><vAcc>0.744751</vAcc></extensions></trkpt>
      <trkpt lon="-3.307154" lat="54.546371"><ele>121.789772</ele><time>2021-08-12T12:02:30Z</time><extensions><speed>0.000000</speed><course>76.786201</course><hAcc>0.908935</hAcc><vAcc>0.743615</vAcc></extensions></trkpt>
      <trkpt lon="-3.307154" lat="54.546371"><ele>121.789772</ele><time>2021-08-12T12:02:31Z</time><extensions><speed>0.000000</speed><course>77.162971</course><hAcc>0.908723</hAcc><vAcc>0.743930</vAcc></extensions></trkpt>
      <trkpt lon="-3.307154" lat="54.546371"><ele>121.789772</ele><time>2021-08-12T12:02:32Z</time><extensions><speed>0.000000</speed><course>69.604996</course><hAcc>0.910973</hAcc><vAcc>0.747486</vAcc></extensions></trkpt>
      <trkpt lon="-3.307154" lat="54.546371"><ele>121.789772</ele><time>2021-08-12T12:02:33Z</time><extensions><speed>0.000000</speed><course>76.115456</course><hAcc>0.918708</hAcc><vAcc>0.757054</vAcc></extensions></trkpt>
      <trkpt lon="-3.307154" lat="54.546371"><ele>121.789772</ele><time>2021-08-12T12:02:34Z</time><extensions><speed>0.000000</speed><course>83.646278</course><hAcc>0.936706</hAcc><vAcc>0.776510</vAcc></extensions></trkpt>
      <trkpt lon="-3.307154" lat="54.546371"><ele>121.789772</ele><time>2021-08-12T12:02:35Z</time><extensions><speed>0.000000</speed><course>76.408623</course><hAcc>0.971639</hAcc><vAcc>0.810688</vAcc></extensions></trkpt>
      <trkpt lon="-3.307154" lat="54.546371"><ele>121.789772</ele><time>2021-08-12T12:02:36Z</time><extensions><speed>0.000000</speed><course>74.967865</course><hAcc>0.934064</hAcc><vAcc>0.775307</vAcc></extensions></trkpt>
      <trkpt lon="-3.307154" lat="54.546371"><ele>121.789772</ele><time>2021-08-12T12:02:37Z</time><extensions><speed>0.000000</speed><course>75.133301</course><hAcc>0.915060</hAcc><vAcc>0.753829</vAcc></extensions></trkpt>
      <trkpt lon="-3.307154" lat="54.546371"><ele>121.789772</ele><time>2021-08-12T12:02:38Z</time><extensions><speed>0.000000</speed><course>66.099251</course><hAcc>0.907503</hAcc><vAcc>0.743342</vAcc></extensions></trkpt>
      <trkpt lon="-3.307154" lat="54.546371"><ele>121.789772</ele><time>2021-08-12T12:02:39Z</time><extensions><speed>0.000000</speed><course>81.237114</course><hAcc>0.905935</hAcc><vAcc>0.739530</vAcc></extensions></trkpt>
      <trkpt lon="-3.307154" lat="54.546371"><ele>121.789772</ele><time>2021-08-12T12:02:40Z</time><extensions><speed>0.000000</speed><course>80.566093</course><hAcc>0.906902</hAcc><vAcc>0.739279</vAcc></extensions></trkpt>
      <trkpt lon="-3.307154" lat="54.546371"><ele>121.789772</ele><time>2021-08-12T12:02:41Z</time><extensions><speed>0.000000</speed><course>80.566109</course><hAcc>0.908497</hAcc><vAcc>0.740568</vAcc></extensions></trkpt>
      <trkpt lon="-3.307154" lat="54.546371"><ele>121.789772</ele><time>2021-08-12T12:02:42Z</time><extensions><speed>0.000000</speed><course>80.566093</course><hAcc>0.909851</hAcc><vAcc>0.742221</vAcc></extensions></trkpt>
      <trkpt lon="-3.307154" lat="54.546371"><ele>121.789772</ele><time>2021-08-12T12:02:43Z</time><extensions><speed>0.000000</speed><course>80.566093</course><hAcc>0.910701</hAcc><vAcc>0.743639</vAcc></extensions></trkpt>
      <trkpt lon="-3.307154" lat="54.546371"><ele>121.789772</ele><time>2021-08-12T12:02:44Z</time><extensions><speed>0.000000</speed><course>80.566093</course><hAcc>0.911092</hAcc><vAcc>0.744570</vAcc></extensions></trkpt>
      <trkpt lon="-3.307154" lat="54.546371"><ele>121.789772</ele><time>2021-08-12T12:02:45Z</time><extensions><speed>0.000000</speed><course>77.344681</course><hAcc>0.911165</hAcc><vAcc>0.744948</vAcc></extensions></trkpt>
      <trkpt lon="-3.307154" lat="54.546371"><ele>121.789772</ele><time>2021-08-12T12:02:46Z</time><extensions><speed>0.000000</speed><course>77.923714</course><hAcc>0.911044</hAcc><vAcc>0.744780</vAcc></extensions></trkpt>
      <trkpt lon="-3.307154" lat="54.546371"><ele>121.789772</ele><time>2021-08-12T12:02:47Z</time><extensions><speed>0.000000</speed><course>87.073212</course><hAcc>0.910769</hAcc><vAcc>0.744091</vAcc></extensions></trkpt>
      <trkpt lon="-3.307154" lat="54.546371"><ele>121.789772</ele><time>2021-08-12T12:02:48Z</time><extensions><speed>0.000000</speed><course>79.233902</course><hAcc>0.910303</hAcc><vAcc>0.742927</vAcc></extensions></trkpt>
      <trkpt lon="-3.307154" lat="54.546371"><ele>121.789772</ele><time>2021-08-12T12:02:49Z</time><extensions><speed>0.000000</speed><course>96.572746</course><hAcc>0.909570</hAcc><vAcc>0.741393</vAcc></extensions></trkpt>
      <trkpt lon="-3.307154" lat="54.546371"><ele>121.789772</ele><time>2021-08-12T12:02:50Z</time><extensions><speed>0.000000</speed><course>86.920219</course><hAcc>0.908573</hAcc><vAcc>0.739746</vAcc></extensions></trkpt>
      <trkpt lon="-3.307154" lat="54.546371"><ele>121.789772</ele><time>2021-08-12T12:02:51Z</time><extensions><speed>0.000000</speed><course>76.786201</course><hAcc>0.907568</hAcc><vAcc>0.738538</vAcc></extensions></trkpt>
      <trkpt lon="-3.307154" lat="54.546371"><ele>121.789772</ele><time>2021-08-12T12:02:52Z</time><extensions><speed>0.000000</speed><course>77.162971</course><hAcc>0.907339</hAcc><vAcc>0.738817</vAcc></extensions></trkpt>
      <trkpt lon="-3.307154" lat="54.546371"><ele>121.789772</ele><time>2021-08-12T12:02:53Z</time><extensions><speed>0.000000</speed><course>69.604996</course><hAcc>0.909562</hAcc><vAcc>0.742367</vAcc></extensions></trkpt>
      <trkpt lon="-3.307154" lat="54.546371"><ele>121.789772</ele><time>2021-08-12T12:02:54Z</time><extensions><speed>0.000000</speed><course>76.115456</course><hAcc>0.917261</hAcc><vAcc>0.751954</vAcc></extensions></trkpt>
      <trkpt lon="-3.307154" lat="54.546371"><ele>121.789772</ele><time>2021-08-12T12:02:55Z</time><extensions><speed>0.000000</speed><course>83.646278</course><hAcc>0.935219</hAcc><vAcc>0.771452</vAcc></extensions></trkpt>
      <trkpt lon="-3.307154" lat="54.546371"><ele>121.789772</ele><time>2021-08-12T12:02:56Z</time><extensions><speed>0.000000</speed><course>76.408623</course><hAcc>0.970115</hAcc><vAcc>0.805697</vAcc></extensions></trkpt>
      <trkpt lon="-3.307154" lat="54.546371"><ele>121.789772</ele><time>2021-08-12T12:02:57Z</time><extensions><speed>0.000000</speed><course>74.967865</course><hAcc>0.932517</hAcc><vAcc>0.770471</vAcc></extensions></trkpt>
      <trkpt lon="-3.307154" lat="54.546371"><ele>121.789772</ele><time>2021-08-12T12:02:58Z</time><extensions><speed>0.000000</speed><course>75.133301</course><hAcc>0.913892</hAcc><vAcc>0.750157</vAcc></extensions></trkpt>
      <trkpt lon="-3.307154" lat="54.546371"><ele>121.789772</ele><time>2021-08-12T12:02:59Z</time><extensions><speed>0.000000</speed><course>66.099251</course><hAcc>0.906666</hAcc><vAcc>0.740685</vAcc></extensions></trkpt>
      <trkpt lon="-3.307154" lat="54.546371"><ele>121.789772</ele><time>2021-08-12T12:03:00Z</time><extensions><speed>0.000000</speed><course>81.237114</course><hAcc>0.905367</hAcc><vAcc>0.737721</vAcc></extensions></trkpt>
      <trkpt lon="-3.307154" lat="54.546371"><ele>121.789772</ele><time>2021-08-12T12:03:01Z</time><extensions><speed>0.000000</speed><course>80.566093</course><hAcc>0.906546</hAcc><vAcc>0.738159</vAcc></extensions></trkpt>
      <trkpt lon="-3.307154" lat="54.546371"><ele>121.789772</ele><time>2021-08-12T12:03:02Z</time><extensions><speed>0.000000</speed><course>80.566109</course><hAcc>0.908302</hAcc><vAcc>0.739995</vAcc></extensions></trkpt>
      <trkpt lon="-3.307154" lat="54.546371"><ele>121.789772</ele><time>2021-08-12T12:03:03Z</time><extensions><speed>0.000000</speed><course>80.566093</course><hAcc>0.909773</hAcc><vAcc>0.742071</vAcc></extensions></trkpt>
      <trkpt lon="-3.307154" lat="54.546371"><ele>121.789772</ele><time>2021-08-12T12:03:04Z</time><extensions><speed>0.000000</speed><course>80.566093</course><hAcc>0.910708</hAcc><vAcc>0.743802</vAcc></extensions></trkpt>
      <trkpt lon="-3.307154" lat="54.546371"><ele>121.789772</ele><time>2021-08-12T12:03:05Z</time><extensions><speed>0.000000</speed><course>80.566093</course><hAcc>0.911156</hAcc><vAcc>0.744950</vAcc></extensions></trkpt>
      <trkpt lon="-3.307154" lat="54.546371"><ele>121.789772</ele><time>2021-08-12T12:03:06Z</time><extensions><speed>0.000000</speed><course>77.344681</course><hAcc>0.911268</hAcc><vAcc>0.745460</vAcc></extensions></trkpt>
      <trkpt lon="-3.307154" lat="54.546371"><ele>121.789772</ele><time>2021-08-12T12:03:07Z</time><extensions><speed>0.000000</speed><course>77.923714</course><hAcc>0.911170</hAcc><vAcc>0.745357</vAcc></extensions></trkpt>
      <trkpt lon="-3.307154" lat="54.546371"><ele>121.789772</ele><time>2021-08-12T12:03:08Z</time><extensions><speed>0.000000</speed><course>87.073212</course><hAcc>0.910910</hAcc><vAcc>0.744690</vAcc></extensions></trkpt>
      <trkpt lon="-3.307154" lat="54.546371"><ele>121.789772</ele><time>2021-08-12T12:03:09Z</time><extensions><speed>0.000000</speed><course>79.233902</course><hAcc>0.910455</hAcc><vAcc>0.743527</vAcc></extensions></trkpt>
      <trkpt lon="-3.307154" lat="54.546371"><ele>121.789772</ele><time>2021-08-12T12:03:10Z</time><extensions><speed>0.000000</speed><course>96.572746</course><hAcc>0.909740</hAcc><vAcc>0.741997</vAcc></extensions></trkpt>
      <trkpt lon="-3.307154" lat="54.546371"><ele>121.789772</ele><time>2021-08-12T12:03:11Z</time><extensions><speed>0.000000</speed><course>86.920219</course><hAcc>0.908772</hAcc><vAcc>0.740385</vAcc></extensions></trkpt>
      <trkpt lon="-3.307154" lat="54.546371"><ele>121.789772</ele><time>2021-08-12T12:03:12Z</time><extensions><speed>0.000000</speed><course>76.786201</course><hAcc>0.907818</hAcc><vAcc>0.739274</vAcc></extensions></trkpt>
      <trkpt lon="-3.307154" lat="54.546371"><ele>121.789772</ele><time>2021-08-12T12:03:13Z</time><extensions><speed>0.000000</speed><course>77.162971</course><hAcc>0.907670</hAcc><vAcc>0.739747</vAcc></extensions></trkpt>
      <trkpt lon="-3.307154" lat="54.546371"><ele>121.789772</ele><time>2021-08-12T12:03:14Z</time><extensions><speed>0.000000</speed><course>69.604996</course><hAcc>0.910014</hAcc><vAcc>0.743627</vAcc></extensions></trkpt>
      <trkpt lon="-3.307154" lat="54.546371"><ele>121.789772</ele><time>2021-08-12T12:03:15Z</time><extensions><speed>0.000000</speed><course>76.115456</course><hAcc>0.917876</hAcc><vAcc>0.753707</vAcc></extensions></trkpt>
      <trkpt lon="-3.307154" lat="54.546371"><ele>121.789772</ele><time>2021-08-12T12:03:16Z</time><extensions><speed>0.000000</speed><course>83.646278</course><hAcc>0.936041</hAcc><vAcc>0.773867</vAcc></extensions></trkpt>
      <trkpt lon="-3.307154" lat="54.546371"><ele>121.789772</ele><time>2021-08-12T12:03:17Z</time><extensions><speed>0.000000</speed><course>76.408623</course><hAcc>0.971174</hAcc><vAcc>0.808919</vAcc></extensions></trkpt>
      <trkpt lon="-3.307154" lat="54.546371"><ele>121.789772</ele><time>2021-08-12T12:03:18Z</time><extensions><speed>0.000000</speed><course>74.967865</course><hAcc>0.933089</hAcc><vAcc>0.772568</vAcc></extensions></trkpt>
      <trkpt lon="-3.307154" lat="54.546371"><ele>121.789772</ele><time>2021-08-12T12:03:19Z</time><extensions><speed>0.000000</speed><course>75.133301</course><hAcc>0.914521</hAcc><vAcc>0.752553</vAcc></extensions></trkpt>
      <trkpt lon="-3.307154" lat="54.546371"><ele>121.789772</ele><time>2021-08-12T12:03:20Z</time><extensions><speed>0.000000</speed><course>66.099251</course><hAcc>0.907346</hAcc><vAcc>0.743317</vAcc></extensions></trkpt>
      <trkpt lon="-3.307154" lat="54.546371"><ele>121.789772</ele><time>2021-08-12T12:03:21Z</time><extensions><speed>0.000000</speed><course>81.237114</course><hAcc>0.906099</hAcc><vAcc>0.740529</vAcc></extensions></trkpt>
      <trkpt lon="-3.307154" lat="54.546371"><ele>121.789772</ele><time>2021-08-12T12:03:22Z</time><extensions><speed>0.000000</speed><course>80.566093</course><hAcc>0.907329</hAcc><vAcc>0.741091</vAcc></extensions></trkpt>
      <trkpt lon="-3.307154" lat="54.546371"><ele>121.789772</ele><time>2021-08-12T12:03:23Z</time><extensions><speed>0.000000</speed><course>80.566109</course><hAcc>0.909138</hAcc><vAcc>0.743021</vAcc></extensions></trkpt>
      <trkpt lon="-3.307154" lat="54.546371"><ele>121.789772</ele><time>2021-08-12T12:03:24Z</time><extensions><speed>0.000000</speed><course>80.566093</course><hAcc>0.910662</hAcc><vAcc>0.745183</vAcc></extensions></trkpt>
      <trkpt lon="-3.307154" lat="54.546371"><ele>121.789772</ele><time>2021-08-12T12:03:25Z</time><extensions><speed>0.000000</speed><course>80.566093</course><hAcc>0.911649</hAcc><vAcc>0.747011</vAcc></extensions></trkpt>
      <trkpt lon="-3.307154" lat="54.546371"><ele>121.789772</ele><time>2021-08-12T12:03:26Z</time><extensions><speed>0.000000</speed><course>80.566093</course><hAcc>0.912145</hAcc><vAcc>0.748280</vAcc></extensions></trkpt>
      <trkpt lon="-3.307154" lat="54.546371"><ele>121.789772</ele><time>2021-08-12T12:03:27Z</time><extensions><speed>0.000000</speed><course>77.344681</course><hAcc>0.912297</hAcc><vAcc>0.748937</vAcc></extensions></trkpt>
      <trkpt lon="-3.307154" lat="54.546371"><ele>121.789772</ele><time>2021-08-12T12:03:28Z</time><extensions><speed>0.000000</speed><course>77.923714</course><hAcc>0.912230</hAcc><vAcc>0.748997</vAcc></extensions></trkpt>
      <trkpt lon="-3.307154" lat="54.546371"><ele>121.789772</ele><time>2021-08-12T12:03:29Z</time><extensions><speed>0.000000</speed><course>87.073212</course><hAcc>0.911987</hAcc><vAcc>0.748490</vAcc></extensions></trkpt>
      <trkpt lon="-3.307154" lat="54.546371"><ele>121.789772</ele><time>2021-08-12T12:03:30Z</time><extensions><speed>0.000000</speed><course>79.233902</course><hAcc>0.911532</hAcc><vAcc>0.747458</vAcc></extensions></trkpt>
      <trkpt lon="-3.307154" lat="54.546371"><ele>121.789772</ele><time>2021-08-12T12:03:31Z</time><extensions><speed>0.000000</speed><course>96.572746</course><hAcc>0.910793</hAcc><vAcc>0.745995</vAcc></extensions></trkpt>
      <trkpt lon="-3.307154" lat="54.546371"><ele>121.789772</ele><time>2021-08-12T12:03:32Z</time><extensions><speed>0.000000</speed><course>86.920219</course><hAcc>0.909775</hAcc><vAcc>0.744347</vAcc></extensions></trkpt>
      <trkpt lon="-3.307154" lat="54.546371"><ele>121.789772</ele><time>2021-08-12T12:03:33Z</time><extensions><speed>0.000000</speed><course>76.786201</course><hAcc>0.908741</hAcc><vAcc>0.743058</vAcc></extensions></trkpt>
      <trkpt lon="-3.307154" lat="54.546371"><ele>121.789772</ele><time>2021-08-12T12:03:34Z</time><extensions><speed>0.000000</speed><course>77.162971</course><hAcc>0.908477</hAcc><vAcc>0.743172</vAcc></extensions></trkpt>
      <trkpt lon="-3.307154" lat="54.546371"><ele>121.789772</ele><time>2021-08-12T12:03:35Z</time><extensions><speed>0.000000</speed><course>69.604996</course><hAcc>0.910664</hAcc><vAcc>0.746485</vAcc></extensions></trkpt>
      <trkpt lon="-3.307154" lat="54.546371"><ele>121.789772</ele><time>2021-08-12T12:03:36Z</time><extensions><speed>0.000000</speed><course>76.115456</course><hAcc>0.918326</hAcc><vAcc>0.755781</vAcc></extensions></trkpt>
      <trkpt lon="-3.307154" lat="54.546371"><ele>121.789772</ele><time>2021-08-12T12:03:37Z</time><extensions><speed>0.000000</speed><course>83.646278</course><hAcc>0.936247</hAcc><vAcc>0.774960</vAcc></extensions></trkpt>
      <trkpt lon="-3.307154" lat="54.546371"><ele>121.789772</ele><time>2021-08-12T12:03:38Z</time><extensions><speed>0.000000</speed><course>76.408623</course><hAcc>0.971102</hAcc><vAcc>0.808890</vAcc></extensions></trkpt>
      <trkpt lon="-3.307154" lat="54.546371"><ele>121.789772</ele><time>2021-08-12T12:03:39Z</time><extensions><speed>0.000000</speed><course>74.967865</course><hAcc>0.933656</hAcc><vAcc>0.773839</vAcc></extensions></trkpt>
      <trkpt lon="-3.307154" lat="54.546371"><ele>121.789772</ele><time>2021-08-12T12:03:40Z</time><extensions><speed>0.000000</speed><course>75.133301</course><hAcc>0.914728</hAcc><vAcc>0.752583</vAcc></extensions></trkpt>
      <trkpt lon="-3.307154" lat="54.546371"><ele>121.789772</ele><time>2021-08-12T12:03:41Z</time><extensions><speed>0.000000</speed><course>66.099251</course><hAcc>0.907253</hAcc><vAcc>0.742371</vAcc></extensions></trkpt>
      <trkpt lon="-3.307154" lat="54.546371"><ele>121.789772</ele><time>2021-08-12T12:03:42Z</time><extensions><speed>0.000000</speed><course>81.237114</course><hAcc>0.905768</hAcc><vAcc>0.738864</vAcc></extensions></trkpt>
      <trkpt lon="-3.307154" lat="54.546371"><ele>121.789772</ele><time>2021-08-12T12:03:43Z</time><extensions><speed>0.000000</speed><course>80.566093</course><hAcc>0.906818</hAcc><vAcc>0.738927</vAcc></extensions></trkpt>
      <trkpt lon="-3.307154" lat="54.546371"><ele>121.789772</ele><time>2021-08-12T12:03:44Z</time><extensions><speed>0.000000</speed><course>80.566109</course><hAcc>0.908493</hAcc><vAcc>0.740527</vAcc></extensions></trkpt>
      <trkpt lon="-3.307154" lat="54.546371"><ele>121.789772</ele><time>2021-08-12T12:03:45Z</time><extensions><speed>0.000000</speed><course>80.566093</course><hAcc>0.909923</hAcc><vAcc>0.742479</vAcc></extensions></trkpt>
      <trkpt lon="-3.307154" lat="54.546371"><ele>121.789772</ele><time>2021-08-12T12:03:46Z</time><extensions><speed>0.000000</speed><course>80.566093</course><hAcc>0.910844</hAcc><vAcc>0.744172</vAcc></extensions></trkpt>
      <trkpt lon="-3.307154" lat="54.546371"><ele>121.789772</ele><time>2021-08-12T12:03:47Z</time><extensions><speed>0.000000</speed><course>80.566093</course><hAcc>0.911300</hAcc><vAcc>0.745348</vAcc></extensions></trkpt>
      <trkpt lon="-3.307154" lat="54.546371"><ele>121.789772</ele><time>2021-08-12T12:03:48Z</time><extensions><speed>0.000000</speed><course>77.344681</course><hAcc>0.911430</hAcc><vAcc>0.745937</vAcc></extensions></trkpt>
      <trkpt lon="-3.307154" lat="54.546371"><ele>121.789772</ele><time>2021-08-12T12:03:49Z</time><extensions><speed>0.000000</speed><course>77.923714</course><hAcc>0.911356</hAcc><vAcc>0.745945</vAcc></extensions></trkpt>
      <trkpt lon="-3.307154" lat="54.546371"><ele>121.789772</ele><time>2021-08-12T12:03:50Z</time><extensions><speed>0.000000</speed><course>87.073212</course><hAcc>0.911116</hAcc><vAcc>0.745399</vAcc></extensions></trkpt>
      <trkpt lon="-3.307154" lat="54.546371"><ele>121.789772</ele><time>2021-08-12T12:03:51Z</time><extensions><speed>0.000000</speed><course>79.233902</course><hAcc>0.910671</hAcc><vAcc>0.744339</vAcc></extensions></trkpt>
      <trkpt lon="-3.307154" lat="54.546371"><ele>121.789772</ele><time>2021-08-12T12:03:52Z</time><extensions><speed>0.000000</speed><course>96.572746</course><hAcc>0.909945</hAcc><vAcc>0.742863</vAcc></extensions></trkpt>
      <trkpt lon="-3.307154" lat="54.546371"><ele>121.789772</ele><time>2021-08-12T12:03:53Z</time><extensions><speed>0.000000</speed><course>86.920219</course><hAcc>0.908939</hAcc><vAcc>0.741215</vAcc></extensions></trkpt>
      <trkpt lon="-3.307154" lat="54.546371"><ele>121.789772</ele><time>2021-08-12T12:03:54Z</time><extensions><speed>0.000000</speed><course>76.786201</course><hAcc>0.907910</hAcc><vAcc>0.739940</vAcc></extensions></trkpt>
      <trkpt lon="-3.307154" lat="54.546371"><ele>121.789772</ele><time>2021-08-12T12:03:55Z</time><extensions><speed>0.000000</speed><course>77.162971</course><hAcc>0.907638</hAcc><vAcc>0.740077</vAcc></extensions></trkpt>
      <trkpt lon="-3.307154" lat="54.546371"><ele>121.789772</ele><time>2021-08-12T12:03:56Z</time><extensions><speed>0.000000</speed><course>69.604996</course><hAcc>0.909801</hAcc><vAcc>0.743407</vAcc></extensions></trkpt>
      <trkpt lon="-3.307154" lat="54.546371"><ele>121.789772</ele><time>2021-08-12T12:03:57Z</time><extensions><speed>0.000000</speed><course>76.115456</course><hAcc>0.917419</hAcc><vAcc>0.752695</vAcc></extensions></trkpt>
      <trkpt lon="-3.307154" lat="54.546371"><ele>121.789772</ele><time>2021-08-12T12:03:58Z</time><extensions><speed>0.000000</speed><course>83.646278</course><hAcc>0.935280</hAcc><vAcc>0.771820</vAcc></extensions></trkpt>
      <trkpt lon="-3.307154" lat="54.546371"><ele>121.789772</ele><time>2021-08-12T12:03:59Z</time><extensions><speed>0.000000</speed><course>76.408623</course><hAcc>0.970064</hAcc><vAcc>0.805635</vAcc></extensions></trkpt>
      <trkpt lon="-3.307154" lat="54.546371"><ele>121.789772</ele><time>2021-08-12T12:04:00Z</time><extensions><speed>0.000000</speed><course>74.967865</course><hAcc>0.932526</hAcc><vAcc>0.770427</vAcc></extensions></trkpt>
      <trkpt lon="-3.307154" lat="54.546371"><ele>121.789772</ele><time>2021-08-12T12:04:01Z</time><extensions><speed>0.000000</speed><course>75.133301</course><hAcc>0.913702</hAcc><vAcc>0.749428</vAcc></extensions></trkpt>
      <trkpt lon="-3.307154" lat="54.546371"><ele>121.789772</ele><time>2021-08-12T12:04:02Z</time><extensions><speed>0.000000</speed><course>66.099251</course><hAcc>0.906285</hAcc><vAcc>0.739307</vAcc></extensions></trkpt>
      <trkpt lon="-3.307154" lat="54.546371"><ele>121.789772</ele><time>2021-08-12T12:04:03Z</time><extensions><speed>0.000000</speed><course>81.237114</course><hAcc>0.904812</hAcc><vAcc>0.735741</vAcc></extensions></trkpt>
      <trkpt lon="-3.307154" lat="54.546371"><ele>121.789772</ele><time>2021-08-12T12:04:04Z</time><extensions><speed>0.000000</speed><course>80.566093</course><hAcc>0.905832</hAcc><vAcc>0.735622</vAcc></extensions></trkpt>
      <trkpt lon="-3.307154" lat="54.546371"><ele>121.789772</ele><time>2021-08-12T12:04:05Z</time><extensions><speed>0.000000</speed><course>80.566109</course><hAcc>0.907450</hAcc><vAcc>0.736947</vAcc></extensions></trkpt>
      <trkpt lon="-3.307154" lat="54.546371"><ele>121.789772</ele><time>2021-08-12T12:04:06Z</time><extensions><speed>0.000000</speed><course>80.566093</course><hAcc>0.908804</hAcc><vAcc>0.738564</vAcc></extensions></trkpt>
      <trkpt lon="-3.307154" lat="54.546371"><ele>121.789772</ele><time>2021-08-12T12:04:07Z</time><extensions><speed>0.000000</speed><course>80.566093</course><hAcc>0.909644</hAcc><vAcc>0.739903</vAcc></extensions></trkpt>
      <trkpt lon="-3.307154" lat="54.546371"><ele>121.789772</ele><time>2021-08-12T12:04:08Z</time><extensions><speed>0.000000</speed><course>80.566093</course><hAcc>0.910023</hAcc><vAcc>0.740748</vAcc></extensions></trkpt>
      <trkpt lon="-3.307154" lat="54.546371"><ele>121.789772</ele><time>2021-08-12T12:04:09Z</time><extensions><speed>0.000000</speed><course>77.344681</course><hAcc>0.910090</hAcc><vAcc>0.741061</vAcc></extensions></trkpt>
      <trkpt lon="-3.307154" lat="54.546371"><ele>121.789772</ele><time>2021-08-12T12:04:10Z</time><extensions><speed>0.000000</speed><course>77.923714</course><hAcc>0.909974</hAcc><vAcc>0.740873</vAcc></extensions></trkpt>
      <trkpt lon="-3.307154" lat="54.546371"><ele>121.789772</ele><time>2021-08-12T12:04:11Z</time><extensions><speed>0.000000</speed><course>87.073212</course><hAcc>0.909719</hAcc><vAcc>0.740234</vAcc></extensions></trkpt>
      <trkpt lon="-3.307154" lat="54.546371"><ele>121.789772</ele><time>2021-08-12T12:04:12Z</time><extensions><speed>0.000000</speed><course>79.233902</course><hAcc>0.909288</hAcc><vAcc>0.739198</vAcc></extensions></trkpt>
      <trkpt lon="-3.307154" lat="54.546371"><ele>121.789772</ele><time>2021-08-12T12:04:13Z</time><extensions><speed>0.000000</speed><course>96.572746</course><hAcc>0.908606</hAcc><vAcc>0.737866</vAcc></extensions></trkpt>
      <trkpt lon="-3.307154" lat="54.546371"><ele>121.789772</ele><time>2021-08-12T12:04:14Z</time><extensions><speed>0.000000</speed><course>86.920219</course><hAcc>0.907674</hAcc><vAcc>0.736482</vAcc></extensions></trkpt>
      <trkpt lon="-3.307154" lat="54.546371"><ele>121.789772</ele><time>2021-08-12T12:04:15Z</time><extensions><speed>0.000000</speed><course>76.786201</course><hAcc>0.906744</hAcc><vAcc>0.735579</vAcc></extensions></trkpt>
      <trkpt lon="-3.307154" lat="54.546371"><ele>121.789772</ele><time>2021-08-12T12:04:16Z</time><extensions><speed>0.000000</speed><course>77.162971</course><hAcc>0.906597</hAcc><vAcc>0.736189</vAcc></extensions></trkpt>
      <trkpt lon="-3.307154" lat="54.546371"><ele>121.789772</ele><time>2021-08-12T12:04:17Z</time><extensions><speed>0.000000</speed><course>69.604996</course><hAcc>0.908906</hAcc><vAcc>0.740086</vAcc></extensions></trkpt>
      <trkpt lon="-3.307154" lat="54.546371"><ele>121.789772</ele><time>2021-08-12T12:04:18Z</time><extensions><speed>0.000000</speed><course>76.115456</course><hAcc>0.916692</hAcc><vAcc>0.750022</vAcc></extensions></trkpt>
      <trkpt lon="-3.307154" lat="54.546371"><ele>121.789772</ele><time>2021-08-12T12:04:19Z</time><extensions><speed>0.000000</speed><course>83.646278</course><hAcc>0.934735</hAcc><vAcc>0.769861</vAcc></extensions></trkpt>
      <trkpt lon="-3.307154" lat="54.546371"><ele>121.789772</ele><time>2021-08-12T12:04:20Z</time><extensions><speed>0.000000</speed><course>76.408623</course><hAcc>0.969711</hAcc><vAcc>0.804426</vAcc></extensions></trkpt>
      <trkpt lon="-3.307154" lat="54.546371"><ele>121.789772</ele><time>2021-08-12T12:04:21Z</time><extensions><speed>0.000000</speed><course>74.967865</course><hAcc>0.932076</hAcc><vAcc>0.769180</vAcc></extensions></trkpt>
      <trkpt lon="-3.307154" lat="54.546371"><ele>121.789772</ele><time>2021-08-12T12:04:22Z</time><extensions><speed>0.000000</speed><course>75.133301</course><hAcc>0.913554</hAcc><vAcc>0.749193</vAcc></extensions></trkpt>
      <trkpt lon="-3.307154" lat="54.546371"><ele>121.789772</ele><time>2021-08-12T12:04:23Z</time><extensions><speed>0.000000</speed><course>66.099251</course><hAcc>0.906411</hAcc><vAcc>0.739971</vAcc></extensions></trkpt>
      <trkpt lon="-3.307154" lat="54.546371"><ele>121.789772</ele><time>2021-08-12T12:04:24Z</time><extensions><speed>0.000000</speed><course>81.237114</course><hAcc>0.905175</hAcc><vAcc>0.737183</vAcc></extensions></trkpt>
      <trkpt lon="-3.307154" lat="54.546371"><ele>121.789772</ele><time>2021-08-12T12:04:25Z</time><extensions><speed>0.000000</speed><course>80.566093</course><hAcc>0.906399</hAcc><vAcc>0.737733</vAcc></extensions></trkpt>
      <trkpt lon="-3.307154" lat="54.546371"><ele>121.789772</ele><time>2021-08-12T12:04:26Z</time><extensions><speed>0.000000</speed><course>80.566109</course><hAcc>0.908188</hAcc><vAcc>0.739636</vAcc></extensions></trkpt>
      <trkpt lon="-3.307154" lat="54.546371"><ele>121.789772</ele><time>2021-08-12T12:04:27Z</time><extensions><speed>0.000000</speed><course>80.566093</course><hAcc>0.909682</hAcc><vAcc>0.741751</vAcc></extensions></trkpt>
      <trkpt lon="-3.307154" lat="54.546371"><ele>121.789772</ele><time>2021-08-12T12:04:28Z</time><extensions><speed>0.000000</speed><course>80.566093</course><hAcc>0.910634</hAcc><vAcc>0.743508</vAcc></extensions></trkpt>
      <trkpt lon="-3.307154" lat="54.546371"><ele>121.789772</ele><time>2021-08-12T12:04:29Z</time><extensions><speed>0.000000</speed><course>80.566093</course><hAcc>0.911096</hAcc><vAcc>0.744681</vAcc></extensions></trkpt>
      <trkpt lon="-3.307154" lat="54.546371"><ele>121.789772</ele><time>2021-08-12T12:04:30Z</time><extensions><speed>0.000000</speed><course>77.344681</course><hAcc>0.911221</hAcc><vAcc>0.745225</vAcc></extensions></trkpt>
      <trkpt lon="-3.307154" lat="54.546371"><ele>121.789772</ele><time>2021-08-12T12:04:31Z</time><extensions><speed>0.000000</speed><course>77.923714</course><hAcc>0.911135</hAcc><vAcc>0.745169</vAcc></extensions></trkpt>
      <trkpt lon="-3.307154" lat="54.546371"><ele>121.789772</ele><time>2021-08-12T12:04:32Z</time><extensions><speed>0.000000</speed><course>87.073212</course><hAcc>0.910886</hAcc><vAcc>0.744559</vAcc></extensions></trkpt>
      <trkpt lon="-3.307154" lat="54.546371"><ele>121.789772</ele><time>2021-08-12T12:04:33Z</time><extensions><speed>0.000000</speed><course>79.233902</course><hAcc>0.910437</hAcc><vAcc>0.743453</vAcc></extensions></trkpt>
      <trkpt lon="-3.307154" lat="54.546371"><ele>121.789772</ele><time>2021-08-12T12:04:34Z</time><extensions><speed>0.000000</speed><course>96.572746</course><hAcc>0.909718</hAcc><vAcc>0.741966</vAcc></extensions></trkpt>
      <trkpt lon="-3.307154" lat="54.546371"><ele>121.789772</ele><time>2021-08-12T12:04:35Z</time><extensions><speed>0.000000</speed><course>86.920219</course><hAcc>0.908732</hAcc><vAcc>0.740357</vAcc></extensions></trkpt>
      <trkpt lon="-3.307154" lat="54.546371"><ele>121.789772</ele><time>2021-08-12T12:04:36Z</time><extensions><speed>0.000000</speed><course>76.786201</course><hAcc>0.907740</hAcc><vAcc>0.739182</vAcc></extensions></trkpt>
      <trkpt lon="-3.307154" lat="54.546371"><ele>121.789772</ele><time>2021-08-12T12:04:37Z</time><extensions><speed>0.000000</speed><course>77.162971</course><hAcc>0.907524</hAcc><vAcc>0.739493</vAcc></extensions></trkpt>
      <trkpt lon="-3.307154" lat="54.546371"><ele>121.789772</ele><time>2021-08-12T12:04:38Z</time><extensions><speed>0.000000</speed><course>69.604996</course><hAcc>0.909762</hAcc><vAcc>0.743081</vAcc></extensions></trkpt>
      <trkpt lon="-3.307154" lat="54.546371"><ele>121.789772</ele><time>2021-08-12T12:04:39Z</time><extensions><speed>0.000000</speed><course>76.115456</course><hAcc>0.917478</hAcc><vAcc>0.752713</vAcc></extensions></trkpt>
      <trkpt lon="-3.307154" lat="54.546371"><ele>121.789772</ele><time>2021-08-12T12:04:40Z</time><extensions><speed>0.000000</speed><course>83.646278</course><hAcc>0.935453</hAcc><vAcc>0.772257</vAcc></extensions></trkpt>
      <trkpt lon="-3.307154" lat="54.546371"><ele>121.789772</ele><time>2021-08-12T12:04:41Z</time><extensions><speed>0.000000</speed><course>76.408623</course><hAcc>0.970365</hAcc><vAcc>0.806542</vAcc></extensions></trkpt>
      <trkpt lon="-3.307154" lat="54.546371"><ele>121.789772</ele><time>2021-08-12T12:04:42Z</time><extensions><speed>0.000000</speed><course>74.967865</course><hAcc>0.932516</hAcc><vAcc>0.770618</vAcc></extensions></trkpt>
      <trkpt lon="-3.307154" lat="54.546371"><ele>121.789772</ele><time>2021-08-12T12:04:43Z</time><extensions><speed>0.000000</speed><course>75.133301</course><hAcc>0.913786</hAcc><vAcc>0.749969</vAcc></extensions></trkpt>
      <trkpt lon="-3.307154" lat="54.546371"><ele>121.789772</ele><time>2021-08-12T12:04:44Z</time><extensions><speed>0.000000</speed><course>66.099251</course><hAcc>0.906444</hAcc><vAcc>0.740103</vAcc></extensions></trkpt>
      <trkpt lon="-3.307154" lat="54.546371"><ele>121.789772</ele><time>2021-08-12T12:04:45Z</time><extensions><speed>0.000000</speed><course>81.237114</course><hAcc>0.905026</hAcc><vAcc>0.736703</vAcc></extensions></trkpt>
      <trkpt lon="-3.307154" lat="54.546371"><ele>121.789772</ele><time>2021-08-12T12:04:46Z</time><extensions><speed>0.000000</speed><course>80.566093</course><hAcc>0.906082</hAcc><vAcc>0.736681</vAcc></extensions></trkpt>
      <trkpt lon="-3.307154" lat="54.546371"><ele>121.789772</ele><time>2021-08-12T12:04:47Z</time><extensions><speed>0.000000</speed><course>80.566109</course><hAcc>0.907715</hAcc><vAcc>0.738052</vAcc></extensions></trkpt>
      <trkpt lon="-3.307154" lat="54.546371"><ele>121.789772</ele><time>2021-08-12T12:04:48Z</time><extensions><speed>0.000000</speed><course>80.566093</course><hAcc>0.909063</hAcc><vAcc>0.739672</vAcc></extensions></trkpt>
      <trkpt lon="-3.307154" lat="54.546371"><ele>121.789772</ele><time>2021-08-12T12:04:49Z</time><extensions><speed>0.000000</speed><course>80.566093</course><hAcc>0.909874</hAcc><vAcc>0.740965</vAcc></extensions></trkpt>
      <trkpt lon="-3.307154" lat="54.546371"><ele>121.789772</ele><time>2021-08-12T12:04:50Z</time><extensions><speed>0.000000</speed><course>80.566093</course><hAcc>0.910198</hAcc><vAcc>0.741687</vAcc></extensions></trkpt>
      <trkpt lon="-3.307154" lat="54.546371"><ele>121.789772</ele><time>2021-08-12T12:04:51Z</time><extensions><speed>0.000000</speed><course>77.344681</course><hAcc>0.910183</hAcc><vAcc>0.741771</vAcc></extensions></trkpt>
      <trkpt lon="-3.307154" lat="54.546371"><ele>121.789772</ele><time>2021-08-12T12:04:52Z</time><extensions><speed>0.000000</speed><course>77.923714</course><hAcc>0.909951</hAcc><vAcc>0.741214</vAcc></extensions></trkpt>
      <trkpt lon="-3.307154" lat="54.546371"><ele>121.789772</ele><time>2021-08-12T12:04:53Z</time><extensions><speed>0.000000</speed><course>87.073212</course><hAcc>0.909539</hAcc><vAcc>0.740025</vAcc></extensions></trkpt>
      <trkpt lon="-3.307154" lat="54.546371"><ele>121.789772</ele><time>2021-08-12T12:04:54Z</time><extensions><speed>0.000000</speed><course>79.233902</course><hAcc>0.908899</hAcc><vAcc>0.738222</vAcc></extensions></trkpt>
      <trkpt lon="-3.307154" lat="54.546371"><ele>121.789772</ele><time>2021-08-12T12:04:55Z</time><extensions><speed>0.000000</speed><course>96.572746</course><hAcc>0.907942</hAcc><vAcc>0.735871</vAcc></extensions></trkpt>
      <trkpt lon="-3.307154" lat="54.546371"><ele>121.789772</ele><time>2021-08-12T12:04:56Z</time><extensions><speed>0.000000</speed><course>86.920219</course><hAcc>0.906648</hAcc><vAcc>0.733178</vAcc></extensions></trkpt>
      <trkpt lon="-3.307154" lat="54.546371"><ele>121.789772</ele><time>2021-08-12T12:04:57Z</time><extensions><speed>0.000000</speed><course>76.786201</course><hAcc>0.905245</hAcc><vAcc>0.730634</vAcc></extensions></trkpt>
      <trkpt lon="-3.307154" lat="54.546371"><ele>121.789772</ele><time>2021-08-12T12:04:58Z</time><extensions><speed>0.000000</speed><course>77.162971</course><hAcc>0.904483</hAcc><vAcc>0.729218</vAcc></extensions></trkpt>
      <trkpt lon="-3.307154" lat="54.546371"><ele>121.789772</ele><time>2021-08-12T12:04:59Z</time><extensions><speed>0.000000</speed><course>69.604996</course><hAcc>0.906007</hAcc><vAcc>0.730648</vAcc></extensions></trkpt>
      <trkpt lon="-3.307154" lat="54.546371"><ele>121.789772</ele><time>2021-08-12T12:05:00Z</time><extensions><speed>0.000000</speed><course>76.115456</course><hAcc>0.912821</hAcc><vAcc>0.737634</vAcc></extensions></trkpt>
      <trkpt lon="-3.307154" lat="54.546371"><ele>121.789772</ele><time>2021-08-12T12:05:01Z</time><extensions><speed>0.000000</speed><course>83.646278</course><hAcc>0.929720</hAcc><vAcc>0.754037</vAcc></extensions></trkpt>
      <trkpt lon="-3.307154" lat="54.546371"><ele>121.789772</ele><time>2021-08-12T12:05:02Z</time><extensions><speed>0.000000</speed><course>76.408623</course><hAcc>0.963444</hAcc><vAcc>0.784760</vAcc></extensions></trkpt>
      <trkpt lon="-3.307154" lat="54.546371"><ele>121.789772</ele><time>2021-08-12T12:05:03Z</time><extensions><speed>0.000000</speed><course>74.967865</course><hAcc>0.926239</hAcc><vAcc>0.750180</vAcc></extensions></trkpt>
      <trkpt lon="-3.307154" lat="54.546371"><ele>121.789772</ele><time>2021-08-12T12:05:04Z</time><extensions><speed>0.000000</speed><course>75.133301</course><hAcc>0.907744</hAcc><vAcc>0.729650</vAcc></extensions></trkpt>
      <trkpt lon="-3.307154" lat="54.546371"><ele>121.789772</ele><time>2021-08-12T12:05:05Z</time><extensions><speed>0.000000</speed><course>66.099251</course><hAcc>0.900556</hAcc><vAcc>0.719650</vAcc></extensions></trkpt>
      <trkpt lon="-3.307154" lat="54.546371"><ele>121.789772</ele><time>2021-08-12T12:05:06Z</time><extensions><speed>0.000000</speed><course>81.237114</course><hAcc>0.899202</hAcc><vAcc>0.715927</vAcc></extensions></trkpt>
      <trkpt lon="-3.307154" lat="54.546371"><ele>121.789772</ele><time>2021-08-12T12:05:07Z</time><extensions><speed>0.000000</speed><course>80.566093</course><hAcc>0.900250</hAcc><vAcc>0.715498</vAcc></extensions></trkpt>
      <trkpt lon="-3.307154" lat="54.546371"><ele>121.789772</ele><time>2021-08-12T12:05:08Z</time><extensions><speed>0.000000</speed><course>80.566109</course><hAcc>0.901835</hAcc><vAcc>0.716499</vAcc></extensions></trkpt>
      <trkpt lon="-3.307154" lat="54.546371"><ele>121.789772</ele><time>2021-08-12T12:05:09Z</time><extensions><speed>0.000000</speed><course>80.566093</course><hAcc>0.903132</hAcc><vAcc>0.717893</vAcc></extensions></trkpt>
      <trkpt lon="-3.307154" lat="54.546371"><ele>121.789772</ele><time>2021-08-12T12:05:10Z</time><extensions><speed>0.000000</speed><course>80.566093</course><hAcc>0.903924</hAcc><vAcc>0.719180</vAcc></extensions></trkpt>
      <trkpt lon="-3.307154" lat="54.546371"><ele>121.789772</ele><time>2021-08-12T12:05:11Z</time><extensions><speed>0.000000</speed><course>80.566093</course><hAcc>0.904288</hAcc><vAcc>0.720171</vAcc></extensions></trkpt>
      <trkpt lon="-3.307154" lat="54.546371"><ele>121.789772</ele><time>2021-08-12T12:05:12Z</time><extensions><speed>0.000000</speed><course>77.344681</course><hAcc>0.904388</hAcc><vAcc>0.720817</vAcc></extensions></trkpt>
      <trkpt lon="-3.307154" lat="54.546371"><ele>121.789772</ele><time>2021-08-12T12:05:13Z</time><extensions><speed>0.000000</speed><course>77.923714</course><hAcc>0.904355</hAcc><vAcc>0.721110</vAcc></extensions></trkpt>
      <trkpt lon="-3.307154" lat="54.546371"><ele>121.789772</ele><time>2021-08-12T12:05:14Z</time><extensions><speed>0.000000</speed><course>87.073212</course><hAcc>0.904225</hAcc><vAcc>0.721039</vAcc></extensions></trkpt>
      <trkpt lon="-3.307154" lat="54.546371"><ele>121.789772</ele><time>2021-08-12T12:05:15Z</time><extensions><speed>0.000000</speed><course>79.233902</course><hAcc>0.903940</hAcc><vAcc>0.720589</vAcc></extensions></trkpt>
      <trkpt lon="-3.307154" lat="54.546371"><ele>121.789772</ele><time>2021-08-12T12:05:16Z</time><extensions><speed>0.000000</speed><course>96.572746</course><hAcc>0.903398</hAcc><vAcc>0.719776</vAcc></extensions></trkpt>
      <trkpt lon="-3.307154" lat="54.546371"><ele>121.789772</ele><time>2021-08-12T12:05:17Z</time><extensions><speed>0.000000</speed><course>86.920219</course><hAcc>0.902563</hAcc><vAcc>0.718757</vAcc></extensions></trkpt>
      <trkpt lon="-3.307154" lat="54.546371"><ele>121.789772</ele><time>2021-08-12T12:05:18Z</time><extensions><speed>0.000000</speed><course>76.786201</course><hAcc>0.901650</hAcc><vAcc>0.717977</vAcc></extensions></trkpt>
      <trkpt lon="-3.307154" lat="54.546371"><ele>121.789772</ele><time>2021-08-12T12:05:19Z</time><extensions><speed>0.000000</speed><course>77.162971</course><hAcc>0.901401</hAcc><vAcc>0.718384</vAcc></extensions></trkpt>
      <trkpt lon="-3.307154" lat="54.546371"><ele>121.789772</ele><time>2021-08-12T12:05:20Z</time><extensions><speed>0.000000</speed><course>69.604996</course><hAcc>0.903457</hAcc><vAcc>0.721684</vAcc></extensions></trkpt>
      <trkpt lon="-3.307154" lat="54.546371"><ele>121.789772</ele><time>2021-08-12T12:05:21Z</time><extensions><speed>0.000000</speed><course>76.115456</course><hAcc>0.910821</hAcc><vAcc>0.730587</vAcc></extensions></trkpt>
      <trkpt lon="-3.307154" lat="54.546371"><ele>121.789772</ele><time>2021-08-12T12:05:22Z</time><extensions><speed>0.000000</speed><course>83.646278</course><hAcc>0.928286</hAcc><vAcc>0.748961</vAcc></extensions></trkpt>
      <trkpt lon="-3.307154" lat="54.546371"><ele>121.789772</ele><time>2021-08-12T12:05:23Z</time><extensions><speed>0.000000</speed><course>76.408623</course><hAcc>0.962583</hAcc><vAcc>0.781699</vAcc></extensions></trkpt>
      <trkpt lon="-3.307154" lat="54.546371"><ele>121.789772</ele><time>2021-08-12T12:05:24Z</time><extensions><speed>0.000000</speed><course>74.967865</course><hAcc>0.925589</hAcc><vAcc>0.748162</vAcc></extensions></trkpt>
      <trkpt lon="-3.307154" lat="54.546371"><ele>121.789772</ele><time>2021-08-12T12:05:25Z</time><extensions><speed>0.000000</speed><course>75.133301</course><hAcc>0.907757</hAcc><vAcc>0.729919</vAcc></extensions></trkpt>
      <trkpt lon="-3.307154" lat="54.546371"><ele>121.789772</ele><time>2021-08-12T12:05:26Z</time><extensions><speed>0.000000</speed><course>66.099251</course><hAcc>0.901182</hAcc><vAcc>0.722090</vAcc></extensions></trkpt>
      <trkpt lon="-3.307154" lat="54.546371"><ele>121.789772</ele><time>2021-08-12T12:05:27Z</time><extensions><speed>0.000000</speed><course>81.237114</course><hAcc>0.900371</hAcc><vAcc>0.720342</vAcc></extensions></trkpt>
      <trkpt lon="-3.307154" lat="54.546371"><ele>121.789772</ele><time>2021-08-12T12:05:28Z</time><extensions><speed>0.000000</speed><course>80.566093</course><hAcc>0.901884</hAcc><vAcc>0.721638</vAcc></extensions></trkpt>
      <trkpt lon="-3.307154" lat="54.546371"><ele>121.789772</ele><time>2021-08-12T12:05:29Z</time><extensions><speed>0.000000</speed><course>80.566109</course><hAcc>0.903853</hAcc><vAcc>0.724075</vAcc></extensions></trkpt>
      <trkpt lon="-3.307154" lat="54.546371"><ele>121.789772</ele><time>2021-08-12T12:05:30Z</time><extensions><speed>0.000000</speed><course>80.566093</course><hAcc>0.905450</hAcc><vAcc>0.726594</vAcc></extensions></trkpt>
      <trkpt lon="-3.307154" lat="54.546371"><ele>121.789772</ele><time>2021-08-12T12:05:31Z</time><extensions><speed>0.000000</speed><course>80.566093</course><hAcc>0.906456</hAcc><vAcc>0.728679</vAcc></extensions></trkpt>
      <trkpt lon="-3.307154" lat="54.546371"><ele>121.789772</ele><time>2021-08-12T12:05:32Z</time><extensions><speed>0.000000</speed><course>80.566093</course><hAcc>0.906947</hAcc><vAcc>0.730128</vAcc></extensions></trkpt>
      <trkpt lon="-3.307154" lat="54.546371"><ele>121.789772</ele><time>2021-08-12T12:05:33Z</time><extensions><speed>0.000000</speed><course>77.344681</course><hAcc>0.907091</hAcc><vAcc>0.730895</vAcc></extensions></trkpt>
      <trkpt lon="-3.307154" lat="54.546371"><ele>121.789772</ele><time>2021-08-12T12:05:34Z</time><extensions><speed>0.000000</speed><course>77.923714</course><hAcc>0.907025</hAcc><vAcc>0.730998</vAcc></extensions></trkpt>
      <trkpt lon="-3.307154" lat="54.546371"><ele>121.789772</ele><time>2021-08-12T12:05:35Z</time><extensions><speed>0.000000</speed><course>87.073212</course><hAcc>0.906795</hAcc><vAcc>0.730465</vAcc></extensions></trkpt>
      <trkpt lon="-3.307154" lat="54.546371"><ele>121.789772</ele><time>2021-08-12T12:05:36Z</time><extensions><speed>0.000000</speed><course>79.233902</course><hAcc>0.906360</hAcc><vAcc>0.729341</vAcc></extensions></trkpt>
      <trkpt lon="-3.307154" lat="54.546371"><ele>121.789772</ele><time>2021-08-12T12:05:37Z</time><extensions><speed>0.000000</speed><course>96.572746</course><hAcc>0.905637</hAcc><vAcc>0.727727</vAcc></extensions></trkpt>
      <trkpt lon="-3.307154" lat="54.546371"><ele>121.789772</ele><time>2021-08-12T12:05:38Z</time><extensions><speed>0.000000</speed><course>86.920219</course><hAcc>0.904613</hAcc><vAcc>0.725870</vAcc></extensions></trkpt>
      <trkpt lon="-3.307154" lat="54.546371"><ele>121.789772</ele><time>2021-08-12T12:05:39Z</time><extensions><speed>0.000000</speed><course>76.786201</course><hAcc>0.903524</hAcc><vAcc>0.724310</vAcc></extensions></trkpt>
      <trkpt lon="-3.307154" lat="54.546371"><ele>121.789772</ele><time>2021-08-12T12:05:40Z</time><extensions><speed>0.000000</speed><course>77.162971</course><hAcc>0.903131</hAcc><vAcc>0.724081</vAcc></extensions></trkpt>
      <trkpt lon="-3.307154" lat="54.546371"><ele>121.789772</ele><time>2021-08-12T12:05:41Z</time><extensions><speed>0.000000</speed><course>69.604996</course><hAcc>0.905097</hAcc><vAcc>0.726955</vAcc></extensions></trkpt>
      <trkpt lon="-3.307154" lat="54.546371"><ele>121.789772</ele><time>2021-08-12T12:05:42Z</time><extensions><speed>0.000000</speed><course>76.115456</course><hAcc>0.912435</hAcc><vAcc>0.735689</vAcc></extensions></trkpt>
      <trkpt lon="-3.307154" lat="54.546371"><ele>121.789772</ele><time>2021-08-12T12:05:43Z</time><extensions><speed>0.000000</speed><course>83.646278</course><hAcc>0.929942</hAcc><vAcc>0.754160</vAcc></extensions></trkpt>
      <trkpt lon="-3.307154" lat="54.546371"><ele>121.789772</ele><time>2021-08-12T12:05:44Z</time><extensions><speed>0.000000</speed><course>76.408623</course><hAcc>0.964342</hAcc><vAcc>0.787237</vAcc></extensions></trkpt>
      <trkpt lon="-3.307154" lat="54.546371"><ele>121.789772</ele><time>2021-08-12T12:05:45Z</time><extensions><speed>0.000000</speed><course>74.967865</course><hAcc>0.926770</hAcc><vAcc>0.752234</vAcc></extensions></trkpt>
      <trkpt lon="-3.307154" lat="54.546371"><ele>121.789772</ele><time>2021-08-12T12:05:46Z</time><extensions><speed>0.000000</speed><course>75.133301</course><hAcc>0.908936</hAcc><vAcc>0.734095</vAcc></extensions></trkpt>
      <trkpt lon="-3.307154" lat="54.546371"><ele>121.789772</ele><time>2021-08-12T12:05:47Z</time><extensions><speed>0.000000</speed><course>66.099251</course><hAcc>0.902359</hAcc><vAcc>0.726326</vAcc></extensions></trkpt>
      <trkpt lon="-3.307154" lat="54.546371"><ele>121.789772</ele><time>2021-08-12T12:05:48Z</time><extensions><speed>0.000000</speed><course>81.237114</course><hAcc>0.901553</hAcc><vAcc>0.724612</vAcc></extensions></trkpt>
      <trkpt lon="-3.307154" lat="54.546371"><ele>121.789772</ele><time>2021-08-12T12:05:49Z</time><extensions><speed>0.000000</speed><course>80.566093</course><hAcc>0.903081</hAcc><vAcc>0.725933</vAcc></extensions></trkpt>
      <trkpt lon="-3.307154" lat="54.546371"><ele>121.789772</ele><time>2021-08-12T12:05:50Z</time><extensions><speed>0.000000</speed><course>80.566109</course><hAcc>0.905074</hAcc><vAcc>0.728398</vAcc></extensions></trkpt>
      <trkpt lon="-3.307154" lat="54.546371"><ele>121.789772</ele><time>2021-08-12T12:05:51Z</time><extensions><speed>0.000000</speed><course>80.566093</course><hAcc>0.906703</hAcc><vAcc>0.730950</vAcc></extensions></trkpt>
      <trkpt lon="-3.307154" lat="54.546371"><ele>121.789772</ele><time>2021-08-12T12:05:52Z</time><extensions><speed>0.000000</speed><course>80.566093</course><hAcc>0.907747</hAcc><vAcc>0.733086</vAcc></extensions></trkpt>
      <trkpt lon="-3.307154" lat="54.546371"><ele>121.789772</ele><time>2021-08-12T12:05:53Z</time><extensions><speed>0.000000</speed><course>80.566093</course><hAcc>0.908281</hAcc><vAcc>0.734619</vAcc></extensions></trkpt>
      <trkpt lon="-3.307154" lat="54.546371"><ele>121.789772</ele><time>2021-08-12T12:05:54Z</time><extensions><speed>0.000000</speed><course>77.344681</course><hAcc>0.908468</hAcc><vAcc>0.735520</vAcc></extensions></trkpt>
      <trkpt lon="-3.307154" lat="54.546371"><ele>121.789772</ele><time>2021-08-12T12:05:55Z</time><extensions><speed>0.000000</speed><course>77.923714</course><hAcc>0.908442</hAcc><vAcc>0.735808</vAcc></extensions></trkpt>
      <trkpt lon="-3.307154" lat="54.546371"><ele>121.789772</ele><time>2021-08-12T12:05:56Z</time><extensions><speed>0.000000</speed><course>87.073212</course><hAcc>0.908248</hAcc><vAcc>0.735504</vAcc></extensions></trkpt>
      <trkpt lon="-3.307154" lat="54.546371"><ele>121.789772</ele><time>2021-08-12T12:05:57Z</time><extensions><speed>0.000000</speed><course>79.233902</course><hAcc>0.907841</hAcc><vAcc>0.734625</vAcc></extensions></trkpt>
      <trkpt lon="-3.307154" lat="54.546371"><ele>121.789772</ele><time>2021-08-12T12:05:58Z</time><extensions><speed>0.000000</speed><course>96.572746</course><hAcc>0.907136</hAcc><vAcc>0.733237</vAcc></extensions></trkpt>
      <trkpt lon="-3.307154" lat="54.546371"><ele>121.789772</ele><time>2021-08-12T12:05:59Z</time><extensions><speed>0.000000</speed><course>86.920219</course><hAcc>0.906119</hAcc><vAcc>0.731546</vAcc></extensions></trkpt>
      <trkpt lon="-3.307154" lat="54.546371"><ele>121.789772</ele><time>2021-08-12T12:06:00Z</time><extensions><speed>0.000000</speed><course>76.786201</course><hAcc>0.905029</hAcc><vAcc>0.730056</vAcc></extensions></trkpt>
      <trkpt lon="-3.307154" lat="54.546371"><ele>121.789772</ele><time>2021-08-12T12:06:01Z</time><extensions><speed>0.000000</speed><course>77.162971</course><hAcc>0.904627</hAcc><vAcc>0.729779</vAcc></extensions></trkpt>
      <trkpt lon="-3.307154" lat="54.546371"><ele>121.789772</ele><time>2021-08-12T12:06:02Z</time><extensions><speed>0.000000</speed><course>69.604996</course><hAcc>0.906575</hAcc><vAcc>0.732479</vAcc></extensions></trkpt>
      <trkpt lon="-3.307154" lat="54.546371"><ele>121.789772</ele><time>2021-08-12T12:06:03Z</time><extensions><speed>0.000000</speed><course>76.115456</course><hAcc>0.913887</hAcc><vAcc>0.740923</vAcc></extensions></trkpt>
      <trkpt lon="-3.307154" lat="54.546371"><ele>121.789772</ele><time>2021-08-12T12:06:04Z</time><extensions><speed>0.000000</speed><course>83.646278</course><hAcc>0.931361</hAcc><vAcc>0.759023</vAcc></extensions></trkpt>
      <trkpt lon="-3.307154" lat="54.546371"><ele>121.789772</ele><time>2021-08-12T12:06:05Z</time><extensions><speed>0.000000</speed><course>76.408623</course><hAcc>0.965717</hAcc><vAcc>0.791700</vAcc></extensions></trkpt>
      <trkpt lon="-3.307154" lat="54.546371"><ele>121.789772</ele><time>2021-08-12T12:06:06Z</time><extensions><speed>0.000000</speed><course>74.967865</course><hAcc>0.928550</hAcc><vAcc>0.757508</vAcc></extensions></trkpt>
      <trkpt lon="-3.307154" lat="54.546371"><ele>121.789772</ele><time>2021-08-12T12:06:07Z</time><extensions><speed>0.000000</speed><course>75.133301</course><hAcc>0.910279</hAcc><vAcc>0.738007</vAcc></extensions></trkpt>
      <trkpt lon="-3.307154" lat="54.546371"><ele>121.789772</ele><time>2021-08-12T12:06:08Z</time><extensions><speed>0.000000</speed><course>66.099251</course><hAcc>0.903357</hAcc><vAcc>0.729235</vAcc></extensions></trkpt>
      <trkpt lon="-3.307154" lat="54.546371"><ele>121.789772</ele><time>2021-08-12T12:06:09Z</time><extensions><speed>0.000000</speed><course>81.237114</course><hAcc>0.902300</hAcc><vAcc>0.726839</vAcc></extensions></trkpt>
      <trkpt lon="-3.307154" lat="54.546371"><ele>121.789772</ele><time>2021-08-12T12:06:10Z</time><extensions><speed>0.000000</speed><course>80.566093</course><hAcc>0.903659</hAcc><vAcc>0.727735</vAcc></extensions></trkpt>
      <trkpt lon="-3.307154" lat="54.546371"><ele>121.789772</ele><time>2021-08-12T12:06:11Z</time><extensions><speed>0.000000</speed><course>80.566109</course><hAcc>0.905546</hAcc><vAcc>0.729962</vAcc></extensions></trkpt>
      <trkpt lon="-3.307154" lat="54.546371"><ele>121.789772</ele><time>2021-08-12T12:06:12Z</time><extensions><speed>0.000000</speed><course>80.566093</course><hAcc>0.907116</hAcc><vAcc>0.732403</vAcc></extensions></trkpt>
      <trkpt lon="-3.307154" lat="54.546371"><ele>121.789772</ele><time>2021-08-12T12:06:13Z</time><extensions><speed>0.000000</speed><course>80.566093</course><hAcc>0.908132</hAcc><vAcc>0.734501</vAcc></extensions></trkpt>
      <trkpt lon="-3.307154" lat="54.546371"><ele>121.789772</ele><time>2021-08-12T12:06:14Z</time><extensions><speed>0.000000</speed><course>80.566093</course><hAcc>0.908656</hAcc><vAcc>0.736032</vAcc></extensions></trkpt>
      <trkpt lon="-3.307154" lat="54.546371"><ele>121.789772</ele><time>2021-08-12T12:06:15Z</time><extensions><speed>0.000000</speed><course>77.344681</course><hAcc>0.908846</hAcc><vAcc>0.736937</vAcc></extensions></trkpt>
      <trkpt lon="-3.307154" lat="54.546371"><ele>121.789772</ele><time>2021-08-12T12:06:16Z</time><extensions><speed>0.000000</speed><course>77.923714</course><hAcc>0.908833</hAcc><vAcc>0.737228</vAcc></extensions></trkpt>
      <trkpt lon="-3.307154" lat="54.546371"><ele>121.789772</ele><time>2021-08-12T12:06:17Z</time><extensions><speed>0.000000</speed><course>87.073212</course><hAcc>0.908661</hAcc><vAcc>0.736932</vAcc></extensions></trkpt>
      <trkpt lon="-3.307154" lat="54.546371"><ele>121.789772</ele><time>2021-08-12T12:06:18Z</time><extensions><speed>0.000000</speed><course>79.233902</course><hAcc>0.908291</hAcc><vAcc>0.736091</vAcc></extensions></trkpt>
      <trkpt lon="-3.307154" lat="54.546371"><ele>121.789772</ele><time>2021-08-12T12:06:19Z</time><extensions><speed>0.000000</speed><course>96.572746</course><hAcc>0.907645</hAcc><vAcc>0.734806</vAcc></extensions></trkpt>
      <trkpt lon="-3.307154" lat="54.546371"><ele>121.789772</ele><time>2021-08-12T12:06:20Z</time><extensions><speed>0.000000</speed><course>86.920219</course><hAcc>0.906720</hAcc><vAcc>0.733333</vAcc></extensions></trkpt>
      <trkpt lon="-3.307154" lat="54.546371"><ele>121.789772</ele><time>2021-08-12T12:06:21Z</time><extensions><speed>0.000000</speed><course>76.786201</course><hAcc>0.905763</hAcc><vAcc>0.732231</vAcc></extensions></trkpt>
      <trkpt lon="-3.307154" lat="54.546371"><ele>121.789772</ele><time>2021-08-12T12:06:22Z</time><extensions><speed>0.000000</speed><course>77.162971</course><hAcc>0.905549</hAcc><vAcc>0.732554</vAcc></extensions></trkpt>
      <trkpt lon="-3.307154" lat="54.546371"><ele>121.789772</ele><time>2021-08-12T12:06:23Z</time><extensions><speed>0.000000</speed><course>69.604996</course><hAcc>0.907750</hAcc><vAcc>0.736092</vAcc></extensions></trkpt>
      <trkpt lon="-3.307154" lat="54.546371"><ele>121.789772</ele><time>2021-08-12T12:06:24Z</time><extensions><speed>0.000000</speed><course>76.115456</course><hAcc>0.915384</hAcc><vAcc>0.745609</vAcc></extensions></trkpt>
      <trkpt lon="-3.307154" lat="54.546371"><ele>121.789772</ele><time>2021-08-12T12:06:25Z</time><extensions><speed>0.000000</speed><course>83.646278</course><hAcc>0.933239</hAcc><vAcc>0.764970</vAcc></extensions></trkpt>
      <trkpt lon="-3.307154" lat="54.546371"><ele>121.789772</ele><time>2021-08-12T12:06:26Z</time><extensions><speed>0.000000</speed><course>76.408623</course><hAcc>0.968010</hAcc><vAcc>0.799009</vAcc></extensions></trkpt>
      <trkpt lon="-3.307154" lat="54.546371"><ele>121.789772</ele><time>2021-08-12T12:06:27Z</time><extensions><speed>0.000000</speed><course>74.967865</course><hAcc>0.930323</hAcc><vAcc>0.763654</vAcc></extensions></trkpt>
      <trkpt lon="-3.307154" lat="54.546371"><ele>121.789772</ele><time>2021-08-12T12:06:28Z</time><extensions><speed>0.000000</speed><course>75.133301</course><hAcc>0.912040</hAcc><vAcc>0.744293</vAcc></extensions></trkpt>
      <trkpt lon="-3.307154" lat="54.546371"><ele>121.789772</ele><time>2021-08-12T12:06:29Z</time><extensions><speed>0.000000</speed><course>66.099251</course><hAcc>0.905096</hAcc><vAcc>0.735553</vAcc></extensions></trkpt>
      <trkpt lon="-3.307154" lat="54.546371"><ele>121.789772</ele><time>2021-08-12T12:06:30Z</time><extensions><speed>0.000000</speed><course>81.237114</course><hAcc>0.904016</hAcc><vAcc>0.733122</vAcc></extensions></trkpt>
      <trkpt lon="-3.307154" lat="54.546371"><ele>121.789772</ele><time>2021-08-12T12:06:31Z</time><extensions><speed>0.000000</speed><course>80.566093</course><hAcc>0.905356</hAcc><vAcc>0.733941</vAcc></extensions></trkpt>
      <trkpt lon="-3.307154" lat="54.546371"><ele>121.789772</ele><time>2021-08-12T12:06:32Z</time><extensions><speed>0.000000</speed><course>80.566109</course><hAcc>0.907230</hAcc><vAcc>0.736065</vAcc></extensions></trkpt>
      <trkpt lon="-3.307154" lat="54.546371"><ele>121.789772</ele><time>2021-08-12T12:06:33Z</time><extensions><speed>0.000000</speed><course>80.566093</course><hAcc>0.908790</hAcc><vAcc>0.738388</vAcc></extensions></trkpt>
      <trkpt lon="-3.307154" lat="54.546371"><ele>121.789772</ele><time>2021-08-12T12:06:34Z</time><extensions><speed>0.000000</speed><course>80.566093</course><hAcc>0.909799</hAcc><vAcc>0.740364</vAcc></extensions></trkpt>
      <trkpt lon="-3.307154" lat="54.546371"><ele>121.789772</ele><time>2021-08-12T12:06:35Z</time><extensions><speed>0.000000</speed><course>80.566093</course><hAcc>0.910317</hAcc><vAcc>0.741782</vAcc></extensions></trkpt>
      <trkpt lon="-3.307154" lat="54.546371"><ele>121.789772</ele><time>2021-08-12T12:06:36Z</time><extensions><speed>0.000000</speed><course>77.344681</course><hAcc>0.910499</hAcc><vAcc>0.742598</vAcc></extensions></trkpt>
      <trkpt lon="-3.307154" lat="54.546371"><ele>121.789772</ele><time>2021-08-12T12:06:37Z</time><extensions><speed>0.000000</speed><course>77.923714</course><hAcc>0.910476</hAcc><vAcc>0.742833</vAcc></extensions></trkpt>
      <trkpt lon="-3.307154" lat="54.546371"><ele>121.789772</ele><time>2021-08-12T12:06:38Z</time><extensions><speed>0.000000</speed><course>87.073212</course><hAcc>0.910293</hAcc><vAcc>0.742519</vAcc></extensions></trkpt>
      <trkpt lon="-3.307154" lat="54.546371"><ele>121.789772</ele><time>2021-08-12T12:06:39Z</time><extensions><speed>0.000000</speed><course>79.233902</course><hAcc>0.909911</hAcc><vAcc>0.741700</vAcc></extensions></trkpt>
      <trkpt lon="-3.307154" lat="54.546371"><ele>121.789772</ele><time>2021-08-12T12:06:40Z</time><extensions><speed>0.000000</speed><course>96.572746</course><hAcc>0.909253</hAcc><vAcc>0.740471</vAcc></extensions></trkpt>
      <trkpt lon="-3.307154" lat="54.546371"><ele>121.789772</ele><time>2021-08-12T12:06:41Z</time><extensions><speed>0.000000</speed><course>86.920219</course><hAcc>0.908318</hAcc><vAcc>0.739073</vAcc></extensions></trkpt>
      <trkpt lon="-3.307154" lat="54.546371"><ele>121.789772</ele><time>2021-08-12T12:06:42Z</time><extensions><speed>0.000000</speed><course>76.786201</course><hAcc>0.907355</hAcc><vAcc>0.738040</vAcc></extensions></trkpt>
      <trkpt lon="-3.307154" lat="54.546371"><ele>121.789772</ele><time>2021-08-12T12:06:43Z</time><extensions><speed>0.000000</speed><course>77.162971</course><hAcc>0.907139</hAcc><vAcc>0.738401</vAcc></extensions></trkpt>
      <trkpt lon="-3.307154" lat="54.546371"><ele>121.789772</ele><time>2021-08-12T12:06:44Z</time><extensions><speed>0.000000</speed><course>69.604996</course><hAcc>0.909343</hAcc><vAcc>0.741921</vAcc></extensions></trkpt>
      <trkpt lon="-3.307154" lat="54.546371"><ele>121.789772</ele><time>2021-08-12T12:06:45Z</time><extensions><speed>0.000000</speed><course>76.115456</course><hAcc>0.916981</hAcc><vAcc>0.751343</vAcc></extensions></trkpt>
      <trkpt lon="-3.307154" lat="54.546371"><ele>121.789772</ele><time>2021-08-12T12:06:46Z</time><extensions><speed>0.000000</speed><course>83.646278</course><hAcc>0.934835</hAcc><vAcc>0.770522</vAcc></extensions></trkpt>
      <trkpt lon="-3.307154" lat="54.546371"><ele>121.789772</ele><time>2021-08-12T12:06:47Z</time><extensions><speed>0.000000</speed><course>76.408623</course><hAcc>0.969588</hAcc><vAcc>0.804289</vAcc></extensions></trkpt>
      <trkpt lon="-3.307154" lat="54.546371"><ele>121.789772</ele><time>2021-08-12T12:06:48Z</time><extensions><speed>0.000000</speed><course>74.967865</course><hAcc>0.932050</hAcc><vAcc>0.769056</vAcc></extensions></trkpt>
      <trkpt lon="-3.307154" lat="54.546371"><ele>121.789772</ele><time>2021-08-12T12:06:49Z</time><extensions><speed>0.000000</speed><course>75.133301</course><hAcc>0.913233</hAcc><vAcc>0.748038</vAcc></extensions></trkpt>
      <trkpt lon="-3.307154" lat="54.546371"><ele>121.789772</ele><time>2021-08-12T12:06:50Z</time><extensions><speed>0.000000</speed><course>66.099251</course><hAcc>0.905804</hAcc><vAcc>0.737794</vAcc></extensions></trkpt>
      <trkpt lon="-3.307154" lat="54.546371"><ele>121.789772</ele><time>2021-08-12T12:06:51Z</time><extensions><speed>0.000000</speed><course>81.237114</course><hAcc>0.904300</hAcc><vAcc>0.734029</vAcc></extensions></trkpt>
      <trkpt lon="-3.307154" lat="54.546371"><ele>121.789772</ele><time>2021-08-12T12:06:52Z</time><extensions><speed>0.000000</speed><course>80.566093</course><hAcc>0.905275</hAcc><vAcc>0.733671</vAcc></extensions></trkpt>
      <trkpt lon="-3.307154" lat="54.546371"><ele>121.789772</ele><time>2021-08-12T12:06:53Z</time><extensions><speed>0.000000</speed><course>80.566109</course><hAcc>0.906834</hAcc><vAcc>0.734752</vAcc></extensions></trkpt>
      <trkpt lon="-3.307154" lat="54.546371"><ele>121.789772</ele><time>2021-08-12T12:06:54Z</time><extensions><speed>0.000000</speed><course>80.566093</course><hAcc>0.908122</hAcc><vAcc>0.736136</vAcc></extensions></trkpt>
      <trkpt lon="-3.307154" lat="54.546371"><ele>121.789772</ele><time>2021-08-12T12:06:55Z</time><extensions><speed>0.000000</speed><course>80.566093</course><hAcc>0.908893</hAcc><vAcc>0.737257</vAcc></extensions></trkpt>
      <trkpt lon="-3.307154" lat="54.546371"><ele>121.789772</ele><time>2021-08-12T12:06:56Z</time><extensions><speed>0.000000</speed><course>80.566093</course><hAcc>0.909203</hAcc><vAcc>0.737890</vAcc></extensions></trkpt>
      <trkpt lon="-3.307154" lat="54.546371"><ele>121.789772</ele><time>2021-08-12T12:06:57Z</time><extensions><speed>0.000000</speed><course>77.344681</course><hAcc>0.909205</hAcc><vAcc>0.737991</vAcc></extensions></trkpt>
      <trkpt lon="-3.307154" lat="54.546371"><ele>121.789772</ele><time>2021-08-12T12:06:58Z</time><extensions><speed>0.000000</speed><course>77.923714</course><hAcc>0.909028</hAcc><vAcc>0.737585</vAcc></extensions></trkpt>
      <trkpt lon="-3.307154" lat="54.546371"><ele>121.789772</ele><time>2021-08-12T12:06:59Z</time><extensions><speed>0.000000</speed><course>87.073212</course><hAcc>0.908713</hAcc><vAcc>0.736713</vAcc></extensions></trkpt>
      <trkpt lon="-3.307154" lat="54.546371"><ele>121.789772</ele><time>2021-08-12T12:07:00Z</time><extensions><speed>0.000000</speed><course>79.233902</course><hAcc>0.908219</hAcc><vAcc>0.735420</vAcc></extensions></trkpt>
      <trkpt lon="-3.307154" lat="54.546371"><ele>121.789772</ele><time>2021-08-12T12:07:01Z</time><extensions><speed>0.000000</speed><course>96.572746</course><hAcc>0.907463</hAcc><vAcc>0.733794</vAcc></extensions></trkpt>
      <trkpt lon="-3.307154" lat="54.546371"><ele>121.789772</ele><time>2021-08-12T12:07:02Z</time><extensions><speed>0.000000</speed><course>86.920219</course><hAcc>0.906433</hAcc><vAcc>0.732056</vAcc></extensions></trkpt>
      <trkpt lon="-3.307154" lat="54.546371"><ele>121.789772</ele><time>2021-08-12T12:07:03Z</time><extensions><speed>0.000000</speed><course>76.786201</course><hAcc>0.905369</hAcc><vAcc>0.730715</vAcc></extensions></trkpt>
      <trkpt lon="-3.307154" lat="54.546371"><ele>121.789772</ele><time>2021-08-12T12:07:04Z</time><extensions><speed>0.000000</speed><course>77.162971</course><hAcc>0.905035</hAcc><vAcc>0.730771</vAcc></extensions></trkpt>
      <trkpt lon="-3.307154" lat="54.546371"><ele>121.789772</ele><time>2021-08-12T12:07:05Z</time><extensions><speed>0.000000</speed><course>69.604996</course><hAcc>0.907090</hAcc><vAcc>0.733961</vAcc></extensions></trkpt>
      <trkpt lon="-3.307154" lat="54.546371"><ele>121.789772</ele><time>2021-08-12T12:07:06Z</time><extensions><speed>0.000000</speed><course>76.115456</course><hAcc>0.914546</hAcc><vAcc>0.743006</vAcc></extensions></trkpt>
      <trkpt lon="-3.307154" lat="54.546371"><ele>121.789772</ele><time>2021-08-12T12:07:07Z</time><extensions><speed>0.000000</speed><course>83.646278</course><hAcc>0.932189</hAcc><vAcc>0.761751</vAcc></extensions></trkpt>
      <trkpt lon="-3.307154" lat="54.546371"><ele>121.789772</ele><time>2021-08-12T12:07:08Z</time><extensions><speed>0.000000</speed><course>76.408623</course><hAcc>0.966721</hAcc><vAcc>0.795035</vAcc></extensions></trkpt>
      <trkpt lon="-3.307154" lat="54.546371"><ele>121.789772</ele><time>2021-08-12T12:07:09Z</time><extensions><speed>0.000000</speed><course>74.967865</course><hAcc>0.929386</hAcc><vAcc>0.760473</vAcc></extensions></trkpt>
      <trkpt lon="-3.307154" lat="54.546371"><ele>121.789772</ele><time>2021-08-12T12:07:10Z</time><extensions><speed>0.000000</speed><course>75.133301</course><hAcc>0.911062</hAcc><vAcc>0.740826</vAcc></extensions></trkpt>
      <trkpt lon="-3.307154" lat="54.546371"><ele>121.789772</ele><time>2021-08-12T12:07:11Z</time><extensions><speed>0.000000</speed><course>66.099251</course><hAcc>0.904079</hAcc><vAcc>0.731830</vAcc></extensions></trkpt>
      <trkpt lon="-3.307154" lat="54.546371"><ele>121.789772</ele><time>2021-08-12T12:07:12Z</time><extensions><speed>0.000000</speed><course>81.237114</course><hAcc>0.902963</hAcc><vAcc>0.729185</vAcc></extensions></trkpt>
      <trkpt lon="-3.307154" lat="54.546371"><ele>121.789772</ele><time>2021-08-12T12:07:13Z</time><extensions><speed>0.000000</speed><course>80.566093</course><hAcc>0.904270</hAcc><vAcc>0.729844</vAcc></extensions></trkpt>
      <trkpt lon="-3.307154" lat="54.546371"><ele>121.789772</ele><time>2021-08-12T12:07:14Z</time><extensions><speed>0.000000</speed><course>80.566109</course><hAcc>0.906118</hAcc><vAcc>0.731875</vAcc></extensions></trkpt>
      <trkpt lon="-3.307154" lat="54.546371"><ele>121.789772</ele><time>2021-08-12T12:07:15Z</time><extensions><speed>0.000000</speed><course>80.566093</course><hAcc>0.907661</hAcc><vAcc>0.734174</vAcc></extensions></trkpt>
      <trkpt lon="-3.307154" lat="54.546371"><ele>121.789772</ele><time>2021-08-12T12:07:16Z</time><extensions><speed>0.000000</speed><course>80.566093</course><hAcc>0.908666</hAcc><vAcc>0.736195</vAcc></extensions></trkpt>
      <trkpt lon="-3.307154" lat="54.546371"><ele>121.789772</ele><time>2021-08-12T12:07:17Z</time><extensions><speed>0.000000</speed><course>80.566093</course><hAcc>0.909194</hAcc><vAcc>0.737716</vAcc></extensions></trkpt>
      <trkpt lon="-3.307154" lat="54.546371"><ele>121.789772</ele><time>2021-08-12T12:07:18Z</time><extensions><speed>0.000000</speed><course>77.344681</course><hAcc>0.909401</hAcc><vAcc>0.738681</vAcc></extensions></trkpt>
      <trkpt lon="-3.307154" lat="54.546371"><ele>121.789772</ele><time>2021-08-12T12:07:19Z</time><extensions><speed>0.000000</speed><course>77.923714</course><hAcc>0.909415</hAcc><vAcc>0.739097</vAcc></extensions></trkpt>
      <trkpt lon="-3.307154" lat="54.546371"><ele>121.789772</ele><time>2021-08-12T12:07:20Z</time><extensions><speed>0.000000</speed><course>87.073212</course><hAcc>0.909280</hAcc><vAcc>0.738985</vAcc></extensions></trkpt>
      <trkpt lon="-3.307154" lat="54.546371"><ele>121.789772</ele><time>2021-08-12T12:07:21Z</time><extensions><speed>0.000000</speed><course>79.233902</course><hAcc>0.908952</hAcc><vAcc>0.738375</vAcc></extensions></trkpt>
      <trkpt lon="-3.307154" lat="54.546371"><ele>121.789772</ele><time>2021-08-12T12:07:22Z</time><extensions><speed>0.000000</speed><course>96.572746</course><hAcc>0.908348</hAcc><vAcc>0.737348</vAcc></extensions></trkpt>
      <trkpt lon="-3.307154" lat="54.546371"><ele>121.789772</ele><time>2021-08-12T12:07:23Z</time><extensions><speed>0.000000</speed><course>86.920219</course><hAcc>0.907462</hAcc><vAcc>0.736132</vAcc></extensions></trkpt>
      <trkpt lon="-3.307154" lat="54.546371"><ele>121.789772</ele><time>2021-08-12T12:07:24Z</time><extensions><speed>0.000000</speed><course>76.786201</course><hAcc>0.906538</hAcc><vAcc>0.735248</vAcc></extensions></trkpt>
      <trkpt lon="-3.307154" lat="54.546371"><ele>121.789772</ele><time>2021-08-12T12:07:25Z</time><extensions><speed>0.000000</speed><course>77.162971</course><hAcc>0.906345</hAcc><vAcc>0.735711</vAcc></extensions></trkpt>
      <trkpt lon="-3.307154" lat="54.546371"><ele>121.789772</ele><time>2021-08-12T12:07:26Z</time><extensions><speed>0.000000</speed><course>69.604996</course><hAcc>0.908552</hAcc><vAcc>0.739275</vAcc></extensions></trkpt>
      <trkpt lon="-3.307154" lat="54.546371"><ele>121.789772</ele><time>2021-08-12T12:07:27Z</time><extensions><speed>0.000000</speed><course>76.115456</course><hAcc>0.916173</hAcc><vAcc>0.748677</vAcc></extensions></trkpt>
      <trkpt lon="-3.307154" lat="54.546371"><ele>121.789772</ele><time>2021-08-12T12:07:28Z</time><extensions><speed>0.000000</speed><course>83.646278</course><hAcc>0.933989</hAcc><vAcc>0.767774</vAcc></extensions></trkpt>
      <trkpt lon="-3.307154" lat="54.546371"><ele>121.789772</ele><time>2021-08-12T12:07:29Z</time><extensions><speed>0.000000</speed><course>76.408623</course><hAcc>0.968691</hAcc><vAcc>0.801409</vAcc></extensions></trkpt>
      <trkpt lon="-3.307154" lat="54.546371"><ele>121.789772</ele><time>2021-08-12T12:07:30Z</time><extensions><speed>0.000000</speed><course>74.967865</course><hAcc>0.931460</hAcc><vAcc>0.766962</vAcc></extensions></trkpt>
      <trkpt lon="-3.307154" lat="54.546371"><ele>121.789772</ele><time>2021-08-12T12:07:31Z</time><extensions><speed>0.000000</speed><course>75.133301</course><hAcc>0.912887</hAcc><vAcc>0.746602</vAcc></extensions></trkpt>
      <trkpt lon="-3.307154" lat="54.546371"><ele>121.789772</ele><time>2021-08-12T12:07:32Z</time><extensions><speed>0.000000</speed><course>66.099251</course><hAcc>0.905727</hAcc><vAcc>0.737133</vAcc></extensions></trkpt>
      <trkpt lon="-3.307154" lat="54.546371"><ele>121.789772</ele><time>2021-08-12T12:07:33Z</time><extensions><speed>0.000000</speed><course>81.237114</course><hAcc>0.904509</hAcc><vAcc>0.734256</vAcc></extensions></trkpt>
      <trkpt lon="-3.307154" lat="54.546371"><ele>121.789772</ele><time>2021-08-12T12:07:34Z</time><extensions><speed>0.000000</speed><course>80.566093</course><hAcc>0.905783</hAcc><vAcc>0.734902</vAcc></extensions></trkpt>
      <trkpt lon="-3.307154" lat="54.546371"><ele>121.789772</ele><time>2021-08-12T12:07:35Z</time><extensions><speed>0.000000</speed><course>80.566109</course><hAcc>0.907651</hAcc><vAcc>0.737097</vAcc></extensions></trkpt>
      <trkpt lon="-3.307154" lat="54.546371"><ele>121.789772</ele><time>2021-08-12T12:07:36Z</time><extensions><speed>0.000000</speed><course>80.566093</course><hAcc>0.909251</hAcc><vAcc>0.739694</vAcc></extensions></trkpt>
      <trkpt lon="-3.307154" lat="54.546371"><ele>121.789772</ele><time>2021-08-12T12:07:37Z</time><extensions><speed>0.000000</speed><course>80.566093</course><hAcc>0.910333</hAcc><vAcc>0.742091</vAcc></extensions></trkpt>
      <trkpt lon="-3.307154" lat="54.546371"><ele>121.789772</ele><time>2021-08-12T12:07:38Z</time><extensions><speed>0.000000</speed><course>80.566093</course><hAcc>0.910943</hAcc><vAcc>0.744006</vAcc></extensions></trkpt>
      <trkpt lon="-3.307154" lat="54.546371"><ele>121.789772</ele><time>2021-08-12T12:07:39Z</time><extensions><speed>0.000000</speed><course>77.344681</course><hAcc>0.911227</hAcc><vAcc>0.745334</vAcc></extensions></trkpt>
      <trkpt lon="-3.307154" lat="54.546371"><ele>121.789772</ele><time>2021-08-12T12:07:40Z</time><extensions><speed>0.000000</speed><course>77.923714</course><hAcc>0.911303</hAcc><vAcc>0.746043</vAcc></extensions></trkpt>
      <trkpt lon="-3.307154" lat="54.546371"><ele>121.789772</ele><time>2021-08-12T12:07:41Z</time><extensions><speed>0.000000</speed><course>87.073212</course><hAcc>0.911210</hAcc><vAcc>0.746134</vAcc></extensions></trkpt>
      <trkpt lon="-3.307154" lat="54.546371"><ele>121.789772</ele><time>2021-08-12T12:07:42Z</time><extensions><speed>0.000000</speed><course>79.233902</course><hAcc>0.910902</hAcc><vAcc>0.745631</vAcc></extensions></trkpt>
      <trkpt lon="-3.307154" lat="54.546371"><ele>121.789772</ele><time>2021-08-12T12:07:43Z</time><extensions><speed>0.000000</speed><course>96.572746</course><hAcc>0.910304</hAcc><vAcc>0.744626</vAcc></extensions></trkpt>
      <trkpt lon="-3.307154" lat="54.546371"><ele>121.789772</ele><time>2021-08-12T12:07:44Z</time><extensions><speed>0.000000</speed><course>86.920219</course><hAcc>0.909415</hAcc><vAcc>0.743366</vAcc></extensions></trkpt>
      <trkpt lon="-3.307154" lat="54.546371"><ele>121.789772</ele><time>2021-08-12T12:07:45Z</time><extensions><speed>0.000000</speed><course>76.786201</course><hAcc>0.908493</hAcc><vAcc>0.742403</vAcc></extensions></trkpt>
      <trkpt lon="-3.307154" lat="54.546371"><ele>121.789772</ele><time>2021-08-12T12:07:46Z</time><extensions><speed>0.000000</speed><course>77.162971</course><hAcc>0.908323</hAcc><vAcc>0.742788</vAcc></extensions></trkpt>
      <trkpt lon="-3.307154" lat="54.546371"><ele>121.789772</ele><time>2021-08-12T12:07:47Z</time><extensions><speed>0.000000</speed><course>69.604996</course><hAcc>0.910586</hAcc><vAcc>0.746322</vAcc></extensions></trkpt>
      <trkpt lon="-3.307154" lat="54.546371"><ele>121.789772</ele><time>2021-08-12T12:07:48Z</time><extensions><speed>0.000000</speed><course>76.115456</course><hAcc>0.918304</hAcc><vAcc>0.755788</vAcc></extensions></trkpt>
      <trkpt lon="-3.307154" lat="54.546371"><ele>121.789772</ele><time>2021-08-12T12:07:49Z</time><extensions><speed>0.000000</speed><course>83.646278</course><hAcc>0.936261</hAcc><vAcc>0.775080</vAcc></extensions></trkpt>
      <trkpt lon="-3.307154" lat="54.546371"><ele>121.789772</ele><time>2021-08-12T12:07:50Z</time><extensions><speed>0.000000</speed><course>76.408623</course><hAcc>0.971132</hAcc><vAcc>0.809058</vAcc></extensions></trkpt>
      <trkpt lon="-3.307154" lat="54.546371"><ele>121.789772</ele><time>2021-08-12T12:07:51Z</time><extensions><speed>0.000000</speed><course>74.967865</course><hAcc>0.933634</hAcc><vAcc>0.773841</vAcc></extensions></trkpt>
      <trkpt lon="-3.307154" lat="54.546371"><ele>121.789772</ele><time>2021-08-12T12:07:52Z</time><extensions><speed>0.000000</speed><course>75.133301</course><hAcc>0.914668</hAcc><vAcc>0.752434</vAcc></extensions></trkpt>
      <trkpt lon="-3.307154" lat="54.546371"><ele>121.789772</ele><time>2021-08-12T12:07:53Z</time><extensions><speed>0.000000</speed><course>66.099251</course><hAcc>0.907152</hAcc><vAcc>0.742040</vAcc></extensions></trkpt>
      <trkpt lon="-3.307154" lat="54.546371"><ele>121.789772</ele><time>2021-08-12T12:07:54Z</time><extensions><speed>0.000000</speed><course>81.237114</course><hAcc>0.905626</hAcc><vAcc>0.738336</vAcc></extensions></trkpt>
      <trkpt lon="-3.307154" lat="54.546371"><ele>121.789772</ele><time>2021-08-12T12:07:55Z</time><extensions><speed>0.000000</speed><course>80.566093</course><hAcc>0.906635</hAcc><vAcc>0.738207</vAcc></extensions></trkpt>
      <trkpt lon="-3.307154" lat="54.546371"><ele>121.789772</ele><time>2021-08-12T12:07:56Z</time><extensions><speed>0.000000</speed><course>80.566109</course><hAcc>0.908273</hAcc><vAcc>0.739637</vAcc></extensions></trkpt>
      <trkpt lon="-3.307154" lat="54.546371"><ele>121.789772</ele><time>2021-08-12T12:07:57Z</time><extensions><speed>0.000000</speed><course>80.566093</course><hAcc>0.909666</hAcc><vAcc>0.741453</vAcc></extensions></trkpt>
      <trkpt lon="-3.307154" lat="54.546371"><ele>121.789772</ele><time>2021-08-12T12:07:58Z</time><extensions><speed>0.000000</speed><course>80.566093</course><hAcc>0.910554</hAcc><vAcc>0.743055</vAcc></extensions></trkpt>
      <trkpt lon="-3.307154" lat="54.546371"><ele>121.789772</ele><time>2021-08-12T12:07:59Z</time><extensions><speed>0.000000</speed><course>80.566093</course><hAcc>0.910978</hAcc><vAcc>0.744181</vAcc></extensions></trkpt>
      <trkpt lon="-3.307154" lat="54.546371"><ele>121.789772</ele><time>2021-08-12T12:08:00Z</time><extensions><speed>0.000000</speed><course>77.344681</course><hAcc>0.911080</hAcc><vAcc>0.744744</vAcc></extensions></trkpt>
      <trkpt lon="-3.307154" lat="54.546371"><ele>121.789772</ele><time>2021-08-12T12:08:01Z</time><extensions><speed>0.000000</speed><course>77.923714</course><hAcc>0.910980</hAcc><vAcc>0.744725</vAcc></extensions></trkpt>
      <trkpt lon="-3.307154" lat="54.546371"><ele>121.789772</ele><time>2021-08-12T12:08:02Z</time><extensions><speed>0.000000</speed><course>87.073212</course><hAcc>0.910720</hAcc><vAcc>0.744131</vAcc></extensions></trkpt>
      <trkpt lon="-3.307154" lat="54.546371"><ele>121.789772</ele><time>2021-08-12T12:08:03Z</time><extensions><speed>0.000000</speed><course>79.233902</course><hAcc>0.910259</hAcc><vAcc>0.742993</vAcc></extensions></trkpt>
      <trkpt lon="-3.307154" lat="54.546371"><ele>121.789772</ele><time>2021-08-12T12:08:04Z</time><extensions><speed>0.000000</speed><course>96.572746</course><hAcc>0.909522</hAcc><vAcc>0.741412</vAcc></extensions></trkpt>
      <trkpt lon="-3.307154" lat="54.546371"><ele>121.789772</ele><time>2021-08-12T12:08:05Z</time><extensions><speed>0.000000</speed><course>86.920219</course><hAcc>0.908508</hAcc><vAcc>0.739652</vAcc></extensions></trkpt>
      <trkpt lon="-3.307154" lat="54.546371"><ele>121.789772</ele><time>2021-08-12T12:08:06Z</time><extensions><speed>0.000000</speed><course>76.786201</course><hAcc>0.907473</hAcc><vAcc>0.738275</vAcc></extensions></trkpt>
      <trkpt lon="-3.307154" lat="54.546371"><ele>121.789772</ele><time>2021-08-12T12:08:07Z</time><extensions><speed>0.000000</speed><course>77.162971</course><hAcc>0.907199</hAcc><vAcc>0.738343</vAcc></extensions></trkpt>
      <trkpt lon="-3.307154" lat="54.546371"><ele>121.789772</ele><time>2021-08-12T12:08:08Z</time><extensions><speed>0.000000</speed><course>69.604996</course><hAcc>0.909363</hAcc><vAcc>0.741658</vAcc></extensions></trkpt>
      <trkpt lon="-3.307154" lat="54.546371"><ele>121.789772</ele><time>2021-08-12T12:08:09Z</time><extensions><speed>0.000000</speed><course>76.115456</course><hAcc>0.916988</hAcc><vAcc>0.750999</vAcc></extensions></trkpt>
      <trkpt lon="-3.307154" lat="54.546371"><ele>121.789772</ele><time>2021-08-12T12:08:10Z</time><extensions><speed>0.000000</speed><course>83.646278</course><hAcc>0.934862</hAcc><vAcc>0.770250</vAcc></extensions></trkpt>
      <trkpt lon="-3.307154" lat="54.546371"><ele>121.789772</ele><time>2021-08-12T12:08:11Z</time><extensions><speed>0.000000</speed><course>76.408623</course><hAcc>0.969670</hAcc><vAcc>0.804253</vAcc></extensions></trkpt>
      <trkpt lon="-3.307154" lat="54.546371"><ele>121.789772</ele><time>2021-08-12T12:08:12Z</time><extensions><speed>0.000000</speed><course>74.967865</course><hAcc>0.931998</hAcc><vAcc>0.768849</vAcc></extensions></trkpt>
      <trkpt lon="-3.307154" lat="54.546371"><ele>121.789772</ele><time>2021-08-12T12:08:13Z</time><extensions><speed>0.000000</speed><course>75.133301</course><hAcc>0.913429</hAcc><vAcc>0.748684</vAcc></extensions></trkpt>
      <trkpt lon="-3.307154" lat="54.546371"><ele>121.789772</ele><time>2021-08-12T12:08:14Z</time><extensions><speed>0.000000</speed><course>66.099251</course><hAcc>0.906246</hAcc><vAcc>0.739316</vAcc></extensions></trkpt>
      <trkpt lon="-3.307154" lat="54.546371"><ele>121.789772</ele><time>2021-08-12T12:08:15Z</time><extensions><speed>0.000000</speed><course>81.237114</course><hAcc>0.904980</hAcc><vAcc>0.736414</vAcc></extensions></trkpt>
      <trkpt lon="-3.307154" lat="54.546371"><ele>121.789772</ele><time>2021-08-12T12:08:16Z</time><extensions><speed>0.000000</speed><course>80.566093</course><hAcc>0.906181</hAcc><vAcc>0.736883</vAcc></extensions></trkpt>
      <trkpt lon="-3.307154" lat="54.546371"><ele>121.789772</ele><time>2021-08-12T12:08:17Z</time><extensions><speed>0.000000</speed><course>80.566109</course><hAcc>0.907952</hAcc><vAcc>0.738733</vAcc></extensions></trkpt>
      <trkpt lon="-3.307154" lat="54.546371"><ele>121.789772</ele><time>2021-08-12T12:08:18Z</time><extensions><speed>0.000000</speed><course>80.566093</course><hAcc>0.909435</hAcc><vAcc>0.740818</vAcc></extensions></trkpt>
      <trkpt lon="-3.307154" lat="54.546371"><ele>121.789772</ele><time>2021-08-12T12:08:19Z</time><extensions><speed>0.000000</speed><course>80.566093</course><hAcc>0.910381</hAcc><vAcc>0.742564</vAcc></extensions></trkpt>
      <trkpt lon="-3.307154" lat="54.546371"><ele>121.789772</ele><time>2021-08-12T12:08:20Z</time><extensions><speed>0.000000</speed><course>80.566093</course><hAcc>0.910843</hAcc><vAcc>0.743745</vAcc></extensions></trkpt>
      <trkpt lon="-3.307154" lat="54.546371"><ele>121.789772</ele><time>2021-08-12T12:08:21Z</time><extensions><speed>0.000000</speed><course>77.344681</course><hAcc>0.910971</hAcc><vAcc>0.744314</vAcc></extensions></trkpt>
      <trkpt lon="-3.307154" lat="54.546371"><ele>121.789772</ele><time>2021-08-12T12:08:22Z</time><extensions><speed>0.000000</speed><course>77.923714</course><hAcc>0.910891</hAcc><vAcc>0.744297</vAcc></extensions></trkpt>
      <trkpt lon="-3.307154" lat="54.546371"><ele>121.789772</ele><time>2021-08-12T12:08:23Z</time><extensions><speed>0.000000</speed><course>87.073212</course><hAcc>0.910651</hAcc><vAcc>0.743734</vAcc></extensions></trkpt>
      <trkpt lon="-3.307154" lat="54.546371"><ele>121.789772</ele><time>2021-08-12T12:08:24Z</time><extensions><speed>0.000000</speed><course>79.233902</course><hAcc>0.910212</hAcc><vAcc>0.742676</vAcc></extensions></trkpt>
      <trkpt lon="-3.307154" lat="54.546371"><ele>121.789772</ele><time>2021-08-12T12:08:25Z</time><extensions><speed>0.000000</speed><course>96.572746</course><hAcc>0.909503</hAcc><vAcc>0.741233</vAcc></extensions></trkpt>
      <trkpt lon="-3.307154" lat="54.546371"><ele>121.789772</ele><time>2021-08-12T12:08:26Z</time><extensions><speed>0.000000</speed><course>86.920219</course><hAcc>0.908528</hAcc><vAcc>0.739662</vAcc></extensions></trkpt>
      <trkpt lon="-3.307154" lat="54.546371"><ele>121.789772</ele><time>2021-08-12T12:08:27Z</time><extensions><speed>0.000000</speed><course>76.786201</course><hAcc>0.907543</hAcc><vAcc>0.738517</vAcc></extensions></trkpt>
      <trkpt lon="-3.307154" lat="54.546371"><ele>121.789772</ele><time>2021-08-12T12:08:28Z</time><extensions><speed>0.000000</speed><course>77.162971</course><hAcc>0.907332</hAcc><vAcc>0.738846</vAcc></extensions></trkpt>
      <trkpt lon="-3.307154" lat="54.546371"><ele>121.789772</ele><time>2021-08-12T12:08:29Z</time><extensions><speed>0.000000</speed><course>69.604996</course><hAcc>0.909574</hAcc><vAcc>0.742439</vAcc></extensions></trkpt>
      <trkpt lon="-3.307154" lat="54.546371"><ele>121.789772</ele><time>2021-08-12T12:08:30Z</time><extensions><speed>0.000000</speed><course>76.115456</course><hAcc>0.917291</hAcc><vAcc>0.752068</vAcc></extensions></trkpt>
      <trkpt lon="-3.307154" lat="54.546371"><ele>121.789772</ele><time>2021-08-12T12:08:31Z</time><extensions><speed>0.000000</speed><course>83.646278</course><hAcc>0.935265</hAcc><vAcc>0.771611</vAcc></extensions></trkpt>
      <trkpt lon="-3.307154" lat="54.546371"><ele>121.789772</ele><time>2021-08-12T12:08:32Z</time><extensions><speed>0.000000</speed><course>76.408623</course><hAcc>0.970176</hAcc><vAcc>0.805902</vAcc></extensions></trkpt>
      <trkpt lon="-3.307154" lat="54.546371"><ele>121.789772</ele><time>2021-08-12T12:08:33Z</time><extensions><speed>0.000000</speed><course>74.967865</course><hAcc>0.932666</hAcc><vAcc>0.770887</vAcc></extensions></trkpt>
      <trkpt lon="-3.307154" lat="54.546371"><ele>121.789772</ele><time>2021-08-12T12:08:34Z</time><extensions><speed>0.000000</speed><course>75.133301</course><hAcc>0.914005</hAcc><vAcc>0.750459</vAcc></extensions></trkpt>
      <trkpt lon="-3.307154" lat="54.546371"><ele>121.789772</ele><time>2021-08-12T12:08:35Z</time><extensions><speed>0.000000</speed><course>66.099251</course><hAcc>0.906757</hAcc><vAcc>0.740919</vAcc></extensions></trkpt>
      <trkpt lon="-3.307154" lat="54.546371"><ele>121.789772</ele><time>2021-08-12T12:08:36Z</time><extensions><speed>0.000000</speed><course>81.237114</course><hAcc>0.905455</hAcc><vAcc>0.737932</vAcc></extensions></trkpt>
      <trkpt lon="-3.307154" lat="54.546371"><ele>121.789772</ele><time>2021-08-12T12:08:37Z</time><extensions><speed>0.000000</speed><course>80.566093</course><hAcc>0.906645</hAcc><vAcc>0.738390</vAcc></extensions></trkpt>
      <trkpt lon="-3.307154" lat="54.546371"><ele>121.789772</ele><time>2021-08-12T12:08:38Z</time><extensions><speed>0.000000</speed><course>80.566109</course><hAcc>0.908426</hAcc><vAcc>0.740293</vAcc></extensions></trkpt>
      <trkpt lon="-3.307154" lat="54.546371"><ele>121.789772</ele><time>2021-08-12T12:08:39Z</time><extensions><speed>0.000000</speed><course>80.566093</course><hAcc>0.909935</hAcc><vAcc>0.742483</vAcc></extensions></trkpt>
      <trkpt lon="-3.307154" lat="54.546371"><ele>121.789772</ele><time>2021-08-12T12:08:40Z</time><extensions><speed>0.000000</speed><course>80.566093</course><hAcc>0.910917</hAcc><vAcc>0.744375</vAcc></extensions></trkpt>
      <trkpt lon="-3.307154" lat="54.546371"><ele>121.789772</ele><time>2021-08-12T12:08:41Z</time><extensions><speed>0.000000</speed><course>80.566093</course><hAcc>0.911419</hAcc><vAcc>0.745728</vAcc></extensions></trkpt>
      <trkpt lon="-3.307154" lat="54.546371"><ele>121.789772</ele><time>2021-08-12T12:08:42Z</time><extensions><speed>0.000000</speed><course>77.344681</course><hAcc>0.911589</hAcc><vAcc>0.746482</vAcc></extensions></trkpt>
      <trkpt lon="-3.307154" lat="54.546371"><ele>121.789772</ele><time>2021-08-12T12:08:43Z</time><extensions><speed>0.000000</speed><course>77.923714</course><hAcc>0.911552</hAcc><vAcc>0.746650</vAcc></extensions></trkpt>
      <trkpt lon="-3.307154" lat="54.546371"><ele>121.789772</ele><time>2021-08-12T12:08:44Z</time><extensions><speed>0.000000</speed><course>87.073212</course><hAcc>0.911353</hAcc><vAcc>0.746266</vAcc></extensions></trkpt>
      <trkpt lon="-3.307154" lat="54.546371"><ele>121.789772</ele><time>2021-08-12T12:08:45Z</time><extensions><speed>0.000000</speed><course>79.233902</course><hAcc>0.910958</hAcc><vAcc>0.745382</vAcc></extensions></trkpt>
      <trkpt lon="-3.307154" lat="54.546371"><ele>121.789772</ele><time>2021-08-12T12:08:46Z</time><extensions><speed>0.000000</speed><course>96.572746</course><hAcc>0.910296</hAcc><vAcc>0.744114</vAcc></extensions></trkpt>
      <trkpt lon="-3.307154" lat="54.546371"><ele>121.789772</ele><time>2021-08-12T12:08:47Z</time><extensions><speed>0.000000</speed><course>86.920219</course><hAcc>0.909378</hAcc><vAcc>0.742729</vAcc></extensions></trkpt>
      <trkpt lon="-3.307154" lat="54.546371"><ele>121.789772</ele><time>2021-08-12T12:08:48Z</time><extensions><speed>0.000000</speed><course>76.786201</course><hAcc>0.908468</hAcc><vAcc>0.741799</vAcc></extensions></trkpt>
      <trkpt lon="-3.307154" lat="54.546371"><ele>121.789772</ele><time>2021-08-12T12:08:49Z</time><extensions><speed>0.000000</speed><course>77.162971</course><hAcc>0.908356</hAcc><vAcc>0.742396</vAcc></extensions></trkpt>
      <trkpt lon="-3.307154" lat="54.546371"><ele>121.789772</ele><time>2021-08-12T12:08:50Z</time><extensions><speed>0.000000</speed><course>69.604996</course><hAcc>0.910726</hAcc><vAcc>0.746335</vAcc></extensions></trkpt>
      <trkpt lon="-3.307154" lat="54.546371"><ele>121.789772</ele><time>2021-08-12T12:08:51Z</time><extensions><speed>0.000000</speed><course>76.115456</course><hAcc>0.918605</hAcc><vAcc>0.756400</vAcc></extensions></trkpt>
      <trkpt lon="-3.307154" lat="54.546371"><ele>121.789772</ele><time>2021-08-12T12:08:52Z</time><extensions><speed>0.000000</speed><course>83.646278</course><hAcc>0.936770</hAcc><vAcc>0.776467</vAcc></extensions></trkpt>
      <trkpt lon="-3.307154" lat="54.546371"><ele>121.789772</ele><time>2021-08-12T12:08:53Z</time><extensions><speed>0.000000</speed><course>76.408623</course><hAcc>0.971885</hAcc><vAcc>0.811342</vAcc></extensions></trkpt>
      <trkpt lon="-3.307154" lat="54.546371"><ele>121.789772</ele><time>2021-08-12T12:08:54Z</time><extensions><speed>0.000000</speed><course>74.967865</course><hAcc>0.934006</hAcc><vAcc>0.775379</vAcc></extensions></trkpt>
      <trkpt lon="-3.307154" lat="54.546371"><ele>121.789772</ele><time>2021-08-12T12:08:55Z</time><extensions><speed>0.000000</speed><course>75.133301</course><hAcc>0.915227</hAcc><vAcc>0.754695</vAcc></extensions></trkpt>
      <trkpt lon="-3.307154" lat="54.546371"><ele>121.789772</ele><time>2021-08-12T12:08:56Z</time><extensions><speed>0.000000</speed><course>66.099251</course><hAcc>0.907874</hAcc><vAcc>0.744897</vAcc></extensions></trkpt>
      <trkpt lon="-3.307154" lat="54.546371"><ele>121.789772</ele><time>2021-08-12T12:08:57Z</time><extensions><speed>0.000000</speed><course>81.237114</course><hAcc>0.906487</hAcc><vAcc>0.741668</vAcc></extensions></trkpt>
      <trkpt lon="-3.307154" lat="54.546371"><ele>121.789772</ele><time>2021-08-12T12:08:58Z</time><extensions><speed>0.000000</speed><course>80.566093</course><hAcc>0.907612</hAcc><vAcc>0.741910</vAcc></extensions></trkpt>
      <trkpt lon="-3.307154" lat="54.546371"><ele>121.789772</ele><time>2021-08-12T12:08:59Z</time><extensions><speed>0.000000</speed><course>80.566109</course><hAcc>0.909346</hAcc><vAcc>0.743625</vAcc></extensions></trkpt>
      <trkpt lon="-3.307154" lat="54.546371"><ele>121.789772</ele><time>2021-08-12T12:09:00Z</time><extensions><speed>0.000000</speed><course>80.566093</course><hAcc>0.910819</hAcc><vAcc>0.745652</vAcc></extensions></trkpt>
      <trkpt lon="-3.307154" lat="54.546371"><ele>121.789772</ele><time>2021-08-12T12:09:01Z</time><extensions><speed>0.000000</speed><course>80.566093</course><hAcc>0.911773</hAcc><vAcc>0.747403</vAcc></extensions></trkpt>
      <trkpt lon="-3.307154" lat="54.546371"><ele>121.789772</ele><time>2021-08-12T12:09:02Z</time><extensions><speed>0.000000</speed><course>80.566093</course><hAcc>0.912251</hAcc><vAcc>0.748632</vAcc></extensions></trkpt>
      <trkpt lon="-3.307154" lat="54.546371"><ele>121.789772</ele><time>2021-08-12T12:09:03Z</time><extensions><speed>0.000000</speed><course>77.344681</course><hAcc>0.912396</hAcc><vAcc>0.749274</vAcc></extensions></trkpt>
      <trkpt lon="-3.307154" lat="54.546371"><ele>121.789772</ele><time>2021-08-12T12:09:04Z</time><extensions><speed>0.000000</speed><course>77.923714</course><hAcc>0.912331</hAcc><vAcc>0.749339</vAcc></extensions></trkpt>
      <trkpt lon="-3.307154" lat="54.546371"><ele>121.789772</ele><time>2021-08-12T12:09:05Z</time><extensions><speed>0.000000</speed><course>87.073212</course><hAcc>0.912099</hAcc><vAcc>0.748854</vAcc></extensions></trkpt>
      <trkpt lon="-3.307154" lat="54.546371"><ele>121.789772</ele><time>2021-08-12T12:09:06Z</time><extensions><speed>0.000000</speed><course>79.233902</course><hAcc>0.911662</hAcc><vAcc>0.747865</vAcc></extensions></trkpt>
      <trkpt lon="-3.307154" lat="54.546371"><ele>121.789772</ele><time>2021-08-12T12:09:07Z</time><extensions><speed>0.000000</speed><course>96.572746</course><hAcc>0.910950</hAcc><vAcc>0.746475</vAcc></extensions></trkpt>
      <trkpt lon="-3.307154" lat="54.546371"><ele>121.789772</ele><time>2021-08-12T12:09:08Z</time><extensions><speed>0.000000</speed><course>86.920219</course><hAcc>0.909972</hAcc><vAcc>0.744942</vAcc></extensions></trkpt>
      <trkpt lon="-3.307154" lat="54.546371"><ele>121.789772</ele><time>2021-08-12T12:09:09Z</time><extensions><speed>0.000000</speed><course>76.786201</course><hAcc>0.908992</hAcc><vAcc>0.743819</vAcc></extensions></trkpt>
      <trkpt lon="-3.307154" lat="54.546371"><ele>121.789772</ele><time>2021-08-12T12:09:10Z</time><extensions><speed>0.000000</speed><course>77.162971</course><hAcc>0.908798</hAcc><vAcc>0.744162</vAcc></extensions></trkpt>
      <trkpt lon="-3.307154" lat="54.546371"><ele>121.789772</ele><time>2021-08-12T12:09:11Z</time><extensions><speed>0.000000</speed><course>69.604996</course><hAcc>0.911076</hAcc><vAcc>0.747770</vAcc></extensions></trkpt>
      <trkpt lon="-3.307154" lat="54.546371"><ele>121.789772</ele><time>2021-08-12T12:09:12Z</time><extensions><speed>0.000000</speed><course>76.115456</course><hAcc>0.918850</hAcc><vAcc>0.757427</vAcc></extensions></trkpt>
      <trkpt lon="-3.307154" lat="54.546371"><ele>121.789772</ele><time>2021-08-12T12:09:13Z</time><extensions><speed>0.000000</speed><course>83.646278</course><hAcc>0.936899</hAcc><vAcc>0.777021</vAcc></extensions></trkpt>
      <trkpt lon="-3.307154" lat="54.546371"><ele>121.789772</ele><time>2021-08-12T12:09:14Z</time><extensions><speed>0.000000</speed><course>76.408623</course><hAcc>0.971890</hAcc><vAcc>0.811392</vAcc></extensions></trkpt>
      <trkpt lon="-3.307154" lat="54.546371"><ele>121.789772</ele><time>2021-08-12T12:09:15Z</time><extensions><speed>0.000000</speed><course>74.967865</course><hAcc>0.934368</hAcc><vAcc>0.776176</vAcc></extensions></trkpt>
      <trkpt lon="-3.307154" lat="54.546371"><ele>121.789772</ele><time>2021-08-12T12:09:16Z</time><extensions><speed>0.000000</speed><course>75.133301</course><hAcc>0.915456</hAcc><vAcc>0.755021</vAcc></extensions></trkpt>
      <trkpt lon="-3.307154" lat="54.546371"><ele>121.789772</ele><time>2021-08-12T12:09:17Z</time><extensions><speed>0.000000</speed><course>66.099251</course><hAcc>0.908012</hAcc><vAcc>0.744936</vAcc></extensions></trkpt>
      <trkpt lon="-3.307154" lat="54.546371"><ele>121.789772</ele><time>2021-08-12T12:09:18Z</time><extensions><speed>0.000000</speed><course>81.237114</course><hAcc>0.906575</hAcc><vAcc>0.741590</vAcc></extensions></trkpt>
      <trkpt lon="-3.307154" lat="54.546371"><ele>121.789772</ele><time>2021-08-12T12:09:19Z</time><extensions><speed>0.000000</speed><course>80.566093</course><hAcc>0.907688</hAcc><vAcc>0.741859</vAcc></extensions></trkpt>
      <trkpt lon="-3.307154" lat="54.546371"><ele>121.789772</ele><time>2021-08-12T12:09:20Z</time><extensions><speed>0.000000</speed><course>80.566109</course><hAcc>0.909439</hAcc><vAcc>0.743715</vAcc></extensions></trkpt>
      <trkpt lon="-3.307154" lat="54.546371"><ele>121.789772</ele><time>2021-08-12T12:09:21Z</time><extensions><speed>0.000000</speed><course>80.566093</course><hAcc>0.910950</hAcc><vAcc>0.745969</vAcc></extensions></trkpt>
      <trkpt lon="-3.307154" lat="54.546371"><ele>121.789772</ele><time>2021-08-12T12:09:22Z</time><extensions><speed>0.000000</speed><course>80.566093</course><hAcc>0.911957</hAcc><vAcc>0.747997</vAcc></extensions></trkpt>
      <trkpt lon="-3.307154" lat="54.546371"><ele>121.789772</ele><time>2021-08-12T12:09:23Z</time><extensions><speed>0.000000</speed><course>80.566093</course><hAcc>0.912495</hAcc><vAcc>0.749523</vAcc></extensions></trkpt>
      <trkpt lon="-3.307154" lat="54.546371"><ele>121.789772</ele><time>2021-08-12T12:09:24Z</time><extensions><speed>0.000000</speed><course>77.344681</course><hAcc>0.912704</hAcc><vAcc>0.750455</vAcc></extensions></trkpt>
      <trkpt lon="-3.307154" lat="54.546371"><ele>121.789772</ele><time>2021-08-12T12:09:25Z</time><extensions><speed>0.000000</speed><course>77.923714</course><hAcc>0.912700</hAcc><vAcc>0.750784</vAcc></extensions></trkpt>
      <trkpt lon="-3.307154" lat="54.546371"><ele>121.789772</ele><time>2021-08-12T12:09:26Z</time><extensions><speed>0.000000</speed><course>87.073212</course><hAcc>0.912524</hAcc><vAcc>0.750530</vAcc></extensions></trkpt>
      <trkpt lon="-3.307154" lat="54.546371"><ele>121.789772</ele><time>2021-08-12T12:09:27Z</time><extensions><speed>0.000000</speed><course>79.233902</course><hAcc>0.912138</hAcc><vAcc>0.749736</vAcc></extensions></trkpt>
      <trkpt lon="-3.307154" lat="54.546371"><ele>121.789772</ele><time>2021-08-12T12:09:28Z</time><extensions><speed>0.000000</speed><course>96.572746</course><hAcc>0.911474</hAcc><vAcc>0.748507</vAcc></extensions></trkpt>
      <trkpt lon="-3.307154" lat="54.546371"><ele>121.789772</ele><time>2021-08-12T12:09:29Z</time><extensions><speed>0.000000</speed><course>86.920219</course><hAcc>0.910544</hAcc><vAcc>0.747106</vAcc></extensions></trkpt>
      <trkpt lon="-3.307154" lat="54.546371"><ele>121.789772</ele><time>2021-08-12T12:09:30Z</time><extensions><speed>0.000000</speed><course>76.786201</course><hAcc>0.909615</hAcc><vAcc>0.746104</vAcc></extensions></trkpt>
      <trkpt lon="-3.307154" lat="54.546371"><ele>121.789772</ele><time>2021-08-12T12:09:31Z</time><extensions><speed>0.000000</speed><course>77.162971</course><hAcc>0.909484</hAcc><vAcc>0.746578</vAcc></extensions></trkpt>
      <trkpt lon="-3.307154" lat="54.546371"><ele>121.789772</ele><time>2021-08-12T12:09:32Z</time><extensions><speed>0.000000</speed><course>69.604996</course><hAcc>0.911840</hAcc><vAcc>0.750353</vAcc></extensions></trkpt>
      <trkpt lon="-3.307154" lat="54.546371"><ele>121.789772</ele><time>2021-08-12T12:09:33Z</time><extensions><speed>0.000000</speed><course>76.115456</course><hAcc>0.919710</hAcc><vAcc>0.760233</vAcc></extensions></trkpt>
      <trkpt lon="-3.307154" lat="54.546371"><ele>121.789772</ele><time>2021-08-12T12:09:34Z</time><extensions><speed>0.000000</speed><course>83.646278</course><hAcc>0.937871</hAcc><vAcc>0.780113</vAcc></extensions></trkpt>
      <trkpt lon="-3.307154" lat="54.546371"><ele>121.789772</ele><time>2021-08-12T12:09:35Z</time><extensions><speed>0.000000</speed><course>76.408623</course><hAcc>0.972984</hAcc><vAcc>0.814819</vAcc></extensions></trkpt>
      <trkpt lon="-3.307154" lat="54.546371"><ele>121.789772</ele><time>2021-08-12T12:09:36Z</time><extensions><speed>0.000000</speed><course>74.967865</course><hAcc>0.935120</hAcc><vAcc>0.778717</vAcc></extensions></trkpt>
      <trkpt lon="-3.307154" lat="54.546371"><ele>121.789772</ele><time>2021-08-12T12:09:37Z</time><extensions><speed>0.000000</speed><course>75.133301</course><hAcc>0.916062</hAcc><vAcc>0.757191</vAcc></extensions></trkpt>
      <trkpt lon="-3.307154" lat="54.546371"><ele>121.789772</ele><time>2021-08-12T12:09:38Z</time><extensions><speed>0.000000</speed><course>66.099251</course><hAcc>0.908472</hAcc><vAcc>0.746701</vAcc></extensions></trkpt>
      <trkpt lon="-3.307154" lat="54.546371"><ele>121.789772</ele><time>2021-08-12T12:09:39Z</time><extensions><speed>0.000000</speed><course>81.237114</course><hAcc>0.906895</hAcc><vAcc>0.742924</vAcc></extensions></trkpt>
      <trkpt lon="-3.307154" lat="54.546371"><ele>121.789772</ele><time>2021-08-12T12:09:40Z</time><extensions><speed>0.000000</speed><course>80.566093</course><hAcc>0.907876</hAcc><vAcc>0.742741</vAcc></extensions></trkpt>
      <trkpt lon="-3.307154" lat="54.546371"><ele>121.789772</ele><time>2021-08-12T12:09:41Z</time><extensions><speed>0.000000</speed><course>80.566109</course><hAcc>0.909503</hAcc><vAcc>0.744129</vAcc></extensions></trkpt>
      <trkpt lon="-3.307154" lat="54.546371"><ele>121.789772</ele><time>2021-08-12T12:09:42Z</time><extensions><speed>0.000000</speed><course>80.566093</course><hAcc>0.910897</hAcc><vAcc>0.745908</vAcc></extensions></trkpt>
      <trkpt lon="-3.307154" lat="54.546371"><ele>121.789772</ele><time>2021-08-12T12:09:43Z</time><extensions><speed>0.000000</speed><course>80.566093</course><hAcc>0.911791</hAcc><vAcc>0.747470</vAcc></extensions></trkpt>
      <trkpt lon="-3.307154" lat="54.546371"><ele>121.789772</ele><time>2021-08-12T12:09:44Z</time><extensions><speed>0.000000</speed><course>80.566093</course><hAcc>0.912221</hAcc><vAcc>0.748550</vAcc></extensions></trkpt>
      <trkpt lon="-3.307154" lat="54.546371"><ele>121.789772</ele><time>2021-08-12T12:09:45Z</time><extensions><speed>0.000000</speed><course>77.344681</course><hAcc>0.912327</hAcc><vAcc>0.749065</vAcc></extensions></trkpt>
      <trkpt lon="-3.307154" lat="54.546371"><ele>121.789772</ele><time>2021-08-12T12:09:46Z</time><extensions><speed>0.000000</speed><course>77.923714</course><hAcc>0.912228</hAcc><vAcc>0.749008</vAcc></extensions></trkpt>
      <trkpt lon="-3.307154" lat="54.546371"><ele>121.789772</ele><time>2021-08-12T12:09:47Z</time><extensions><speed>0.000000</speed><course>87.073212</course><hAcc>0.911964</hAcc><vAcc>0.748397</vAcc></extensions></trkpt>
      <trkpt lon="-3.307154" lat="54.546371"><ele>121.789772</ele><time>2021-08-12T12:09:48Z</time><extensions><speed>0.000000</speed><course>79.233902</course><hAcc>0.911496</hAcc><vAcc>0.747271</vAcc></extensions></trkpt>
      <trkpt lon="-3.307154" lat="54.546371"><ele>121.789772</ele><time>2021-08-12T12:09:49Z</time><extensions><speed>0.000000</speed><course>96.572746</course><hAcc>0.910753</hAcc><vAcc>0.745733</vAcc></extensions></trkpt>
      <trkpt lon="-3.307154" lat="54.546371"><ele>121.789772</ele><time>2021-08-12T12:09:50Z</time><extensions><speed>0.000000</speed><course>86.920219</course><hAcc>0.909741</hAcc><vAcc>0.744040</vAcc></extensions></trkpt>
      <trkpt lon="-3.307154" lat="54.546371"><ele>121.789772</ele><time>2021-08-12T12:09:51Z</time><extensions><speed>0.000000</speed><course>76.786201</course><hAcc>0.908721</hAcc><vAcc>0.742754</vAcc></extensions></trkpt>
      <trkpt lon="-3.307154" lat="54.546371"><ele>121.789772</ele><time>2021-08-12T12:09:52Z</time><extensions><speed>0.000000</speed><course>77.162971</course><hAcc>0.908481</hAcc><vAcc>0.742933</vAcc></extensions></trkpt>
      <trkpt lon="-3.307154" lat="54.546371"><ele>121.789772</ele><time>2021-08-12T12:09:53Z</time><extensions><speed>0.000000</speed><course>69.604996</course><hAcc>0.910704</hAcc><vAcc>0.746383</vAcc></extensions></trkpt>
      <trkpt lon="-3.307154" lat="54.546371"><ele>121.789772</ele><time>2021-08-12T12:09:54Z</time><extensions><speed>0.000000</speed><course>76.115456</course><hAcc>0.918414</hAcc><vAcc>0.755884</vAcc></extensions></trkpt>
      <trkpt lon="-3.307154" lat="54.546371"><ele>121.789772</ele><time>2021-08-12T12:09:55Z</time><extensions><speed>0.000000</speed><course>83.646278</course><hAcc>0.936393</hAcc><vAcc>0.775322</vAcc></extensions></trkpt>
      <trkpt lon="-3.307154" lat="54.546371"><ele>121.789772</ele><time>2021-08-12T12:09:56Z</time><extensions><speed>0.000000</speed><course>76.408623</course><hAcc>0.971315</hAcc><vAcc>0.809536</vAcc></extensions></trkpt>
      <trkpt lon="-3.307154" lat="54.546371"><ele>121.789772</ele><time>2021-08-12T12:09:57Z</time><extensions><speed>0.000000</speed><course>74.967865</course><hAcc>0.933613</hAcc><vAcc>0.773920</vAcc></extensions></trkpt>
      <trkpt lon="-3.307154" lat="54.546371"><ele>121.789772</ele><time>2021-08-12T12:09:58Z</time><extensions><speed>0.000000</speed><course>75.133301</course><hAcc>0.914760</hAcc><vAcc>0.752928</vAcc></extensions></trkpt>
      <trkpt lon="-3.307154" lat="54.546371"><ele>121.789772</ele><time>2021-08-12T12:09:59Z</time><extensions><speed>0.000000</speed><course>66.099251</course><hAcc>0.907339</hAcc><vAcc>0.742874</vAcc></extensions></trkpt>
      <trkpt lon="-3.307154" lat="54.546371"><ele>121.789772</ele><time>2021-08-12T12:10:00Z</time><extensions><speed>0.000000</speed><course>81.237114</course><hAcc>0.905889</hAcc><vAcc>0.739436</vAcc></extensions></trkpt>
      <trkpt lon="-3.307154" lat="54.546371"><ele>121.789772</ele><time>2021-08-12T12:10:01Z</time><extensions><speed>0.000000</speed><course>80.566093</course><hAcc>0.906956</hAcc><vAcc>0.739502</vAcc></extensions></trkpt>
      <trkpt lon="-3.307154" lat="54.546371"><ele>121.789772</ele><time>2021-08-12T12:10:02Z</time><extensions><speed>0.000000</speed><course>80.566109</course><hAcc>0.908636</hAcc><vAcc>0.741064</vAcc></extensions></trkpt>
      <trkpt lon="-3.307154" lat="54.546371"><ele>121.789772</ele><time>2021-08-12T12:10:03Z</time><extensions><speed>0.000000</speed><course>80.566093</course><hAcc>0.910061</hAcc><vAcc>0.742955</vAcc></extensions></trkpt>
      <trkpt lon="-3.307154" lat="54.546371"><ele>121.789772</ele><time>2021-08-12T12:10:04Z</time><extensions><speed>0.000000</speed><course>80.566093</course><hAcc>0.910973</hAcc><vAcc>0.744581</vAcc></extensions></trkpt>
      <trkpt lon="-3.307154" lat="54.546371"><ele>121.789772</ele><time>2021-08-12T12:10:05Z</time><extensions><speed>0.000000</speed><course>80.566093</course><hAcc>0.911416</hAcc><vAcc>0.745698</vAcc></extensions></trkpt>
      <trkpt lon="-3.307154" lat="54.546371"><ele>121.789772</ele><time>2021-08-12T12:10:06Z</time><extensions><speed>0.000000</speed><course>77.344681</course><hAcc>0.911535</hAcc><vAcc>0.746243</vAcc></extensions></trkpt>
      <trkpt lon="-3.307154" lat="54.546371"><ele>121.789772</ele><time>2021-08-12T12:10:07Z</time><extensions><speed>0.000000</speed><course>77.923714</course><hAcc>0.911453</hAcc><vAcc>0.746228</vAcc></extensions></trkpt>
      <trkpt lon="-3.307154" lat="54.546371"><ele>121.789772</ele><time>2021-08-12T12:10:08Z</time><extensions><speed>0.000000</speed><course>87.073212</course><hAcc>0.911213</hAcc><vAcc>0.745684</vAcc></extensions></trkpt>
      <trkpt lon="-3.307154" lat="54.546371"><ele>121.789772</ele><time>2021-08-12T12:10:09Z</time><extensions><speed>0.000000</speed><course>79.233902</course><hAcc>0.910777</hAcc><vAcc>0.744659</vAcc></extensions></trkpt>
      <trkpt lon="-3.307154" lat="54.546371"><ele>121.789772</ele><time>2021-08-12T12:10:10Z</time><extensions><speed>0.000000</speed><course>96.572746</course><hAcc>0.910074</hAcc><vAcc>0.743257</vAcc></extensions></trkpt>
      <trkpt lon="-3.307154" lat="54.546371"><ele>121.789772</ele><time>2021-08-12T12:10:11Z</time><extensions><speed>0.000000</speed><course>86.920219</course><hAcc>0.909110</hAcc><vAcc>0.741736</vAcc></extensions></trkpt>
      <trkpt lon="-3.307154" lat="54.546371"><ele>121.789772</ele><time>2021-08-12T12:10:12Z</time><extensions><speed>0.000000</speed><course>76.786201</course><hAcc>0.908144</hAcc><vAcc>0.740651</vAcc></extensions></trkpt>
      <trkpt lon="-3.307154" lat="54.546371"><ele>121.789772</ele><time>2021-08-12T12:10:13Z</time><extensions><speed>0.000000</speed><course>77.162971</course><hAcc>0.907964</hAcc><vAcc>0.741059</vAcc></extensions></trkpt>
      <trkpt lon="-3.307154" lat="54.546371"><ele>121.789772</ele><time>2021-08-12T12:10:14Z</time><extensions><speed>0.000000</speed><course>69.604996</course><hAcc>0.910250</hAcc><vAcc>0.744758</vAcc></extensions></trkpt>
      <trkpt lon="-3.307154" lat="54.546371"><ele>121.789772</ele><time>2021-08-12T12:10:15Z</time><extensions><speed>0.000000</speed><course>76.115456</course><hAcc>0.918026</hAcc><vAcc>0.754524</vAcc></extensions></trkpt>
      <trkpt lon="-3.307154" lat="54.546371"><ele>121.789772</ele><time>2021-08-12T12:10:16Z</time><extensions><speed>0.000000</speed><course>83.646278</course><hAcc>0.936072</hAcc><vAcc>0.774235</vAcc></extensions></trkpt>
      <trkpt lon="-3.307154" lat="54.546371"><ele>121.789772</ele><time>2021-08-12T12:10:17Z</time><extensions><speed>0.000000</speed><course>76.408623</course><hAcc>0.971059</hAcc><vAcc>0.808718</vAcc></extensions></trkpt>
      <trkpt lon="-3.307154" lat="54.546371"><ele>121.789772</ele><time>2021-08-12T12:10:18Z</time><extensions><speed>0.000000</speed><course>74.967865</course><hAcc>0.933424</hAcc><vAcc>0.773366</vAcc></extensions></trkpt>
      <trkpt lon="-3.307154" lat="54.546371"><ele>121.789772</ele><time>2021-08-12T12:10:19Z</time><extensions><speed>0.000000</speed><course>75.133301</course><hAcc>0.914711</hAcc><vAcc>0.752835</vAcc></extensions></trkpt>
      <trkpt lon="-3.307154" lat="54.546371"><ele>121.789772</ele><time>2021-08-12T12:10:20Z</time><extensions><speed>0.000000</speed><course>66.099251</course><hAcc>0.907421</hAcc><vAcc>0.743220</vAcc></extensions></trkpt>
      <trkpt lon="-3.307154" lat="54.546371"><ele>121.789772</ele><time>2021-08-12T12:10:21Z</time><extensions><speed>0.000000</speed><course>81.237114</course><hAcc>0.906088</hAcc><vAcc>0.740191</vAcc></extensions></trkpt>
      <trkpt lon="-3.307154" lat="54.546371"><ele>121.789772</ele><time>2021-08-12T12:10:22Z</time><extensions><speed>0.000000</speed><course>80.566093</course><hAcc>0.907257</hAcc><vAcc>0.740634</vAcc></extensions></trkpt>
      <trkpt lon="-3.307154" lat="54.546371"><ele>121.789772</ele><time>2021-08-12T12:10:23Z</time><extensions><speed>0.000000</speed><course>80.566109</course><hAcc>0.909021</hAcc><vAcc>0.742535</vAcc></extensions></trkpt>
      <trkpt lon="-3.307154" lat="54.546371"><ele>121.789772</ele><time>2021-08-12T12:10:24Z</time><extensions><speed>0.000000</speed><course>80.566093</course><hAcc>0.910512</hAcc><vAcc>0.744720</vAcc></extensions></trkpt>
      <trkpt lon="-3.307154" lat="54.546371"><ele>121.789772</ele><time>2021-08-12T12:10:25Z</time><extensions><speed>0.000000</speed><course>80.566093</course><hAcc>0.911469</hAcc><vAcc>0.746576</vAcc></extensions></trkpt>
      <trkpt lon="-3.307154" lat="54.546371"><ele>121.789772</ele><time>2021-08-12T12:10:26Z</time><extensions><speed>0.000000</speed><course>80.566093</course><hAcc>0.911937</hAcc><vAcc>0.747838</vAcc></extensions></trkpt>
      <trkpt lon="-3.307154" lat="54.546371"><ele>121.789772</ele><time>2021-08-12T12:10:27Z</time><extensions><speed>0.000000</speed><course>77.344681</course><hAcc>0.912058</hAcc><vAcc>0.748423</vAcc></extensions></trkpt>
      <trkpt lon="-3.307154" lat="54.546371"><ele>121.789772</ele><time>2021-08-12T12:10:28Z</time><extensions><speed>0.000000</speed><course>77.923714</course><hAcc>0.911952</hAcc><vAcc>0.748325</vAcc></extensions></trkpt>
      <trkpt lon="-3.307154" lat="54.546371"><ele>121.789772</ele><time>2021-08-12T12:10:29Z</time><extensions><speed>0.000000</speed><course>87.073212</course><hAcc>0.911660</hAcc><vAcc>0.747572</vAcc></extensions></trkpt>
      <trkpt lon="-3.307154" lat="54.546371"><ele>121.789772</ele><time>2021-08-12T12:10:30Z</time><extensions><speed>0.000000</speed><course>79.233902</course><hAcc>0.911141</hAcc><vAcc>0.746209</vAcc></extensions></trkpt>
      <trkpt lon="-3.307154" lat="54.546371"><ele>121.789772</ele><time>2021-08-12T12:10:31Z</time><extensions><speed>0.000000</speed><course>96.572746</course><hAcc>0.910321</hAcc><vAcc>0.744340</vAcc></extensions></trkpt>
      <trkpt lon="-3.307154" lat="54.546371"><ele>121.789772</ele><time>2021-08-12T12:10:32Z</time><extensions><speed>0.000000</speed><course>86.920219</course><hAcc>0.909200</hAcc><vAcc>0.742221</vAcc></extensions></trkpt>
      <trkpt lon="-3.307154" lat="54.546371"><ele>121.789772</ele><time>2021-08-12T12:10:33Z</time><extensions><speed>0.000000</speed><course>76.786201</course><hAcc>0.908032</hAcc><vAcc>0.740402</vAcc></extensions></trkpt>
      <trkpt lon="-3.307154" lat="54.546371"><ele>121.789772</ele><time>2021-08-12T12:10:34Z</time><extensions><speed>0.000000</speed><course>77.162971</course><hAcc>0.907596</hAcc><vAcc>0.739931</vAcc></extensions></trkpt>
      <trkpt lon="-3.307154" lat="54.546371"><ele>121.789772</ele><time>2021-08-12T12:10:35Z</time><extensions><speed>0.000000</speed><course>69.604996</course><hAcc>0.909565</hAcc><vAcc>0.742597</vAcc></extensions></trkpt>
      <trkpt lon="-3.307154" lat="54.546371"><ele>121.789772</ele><time>2021-08-12T12:10:36Z</time><extensions><speed>0.000000</speed><course>76.115456</course><hAcc>0.916959</hAcc><vAcc>0.751173</vAcc></extensions></trkpt>
      <trkpt lon="-3.307154" lat="54.546371"><ele>121.789772</ele><time>2021-08-12T12:10:37Z</time><extensions><speed>0.000000</speed><course>83.646278</course><hAcc>0.934566</hAcc><vAcc>0.769541</vAcc></extensions></trkpt>
      <trkpt lon="-3.307154" lat="54.546371"><ele>121.789772</ele><time>2021-08-12T12:10:38Z</time><extensions><speed>0.000000</speed><course>76.408623</course><hAcc>0.969085</hAcc><vAcc>0.802568</vAcc></extensions></trkpt>
      <trkpt lon="-3.307153" lat="54.546371"><ele>121.789436</ele><time>2021-08-12T12:10:39Z</time><extensions><speed>0.000980</speed><course>74.967865</course><hAcc>0.931022</hAcc><vAcc>0.766315</vAcc></extensions></trkpt>
      <trkpt lon="-3.307153" lat="54.546371"><ele>121.788582</ele><time>2021-08-12T12:10:40Z</time><extensions><speed>0.001064</speed><course>75.133301</course><hAcc>0.911916</hAcc><vAcc>0.744912</vAcc></extensions></trkpt>
      <trkpt lon="-3.307153" lat="54.546371"><ele>121.787697</ele><time>2021-08-12T12:10:41Z</time><extensions><speed>0.001379</speed><course>66.099251</course><hAcc>0.904050</hAcc><vAcc>0.734164</vAcc></extensions></trkpt>
      <trkpt lon="-3.307153" lat="54.546371"><ele>121.786804</ele><time>2021-08-12T12:10:42Z</time><extensions><speed>0.001954</speed><course>81.237114</course><hAcc>0.901934</hAcc><vAcc>0.729772</vAcc></extensions></trkpt>
      <trkpt lon="-3.307153" lat="54.546371"><ele>121.785904</ele><time>2021-08-12T12:10:43Z</time><extensions><speed>0.002776</speed><course>80.566093</course><hAcc>0.902093</hAcc><vAcc>0.728673</vAcc></extensions></trkpt>
      <trkpt lon="-3.307153" lat="54.546371"><ele>121.785019</ele><time>2021-08-12T12:10:44Z</time><extensions><speed>0.003838</speed><course>80.566109</course><hAcc>0.902605</hAcc><vAcc>0.728912</vAcc></extensions></trkpt>
      <trkpt lon="-3.307153" lat="54.546371"><ele>121.784172</ele><time>2021-08-12T12:10:45Z</time><extensions><speed>0.005142</speed><course>80.566093</course><hAcc>0.902595</hAcc><vAcc>0.729386</vAcc></extensions></trkpt>
      <trkpt lon="-3.307153" lat="54.546371"><ele>121.783409</ele><time>2021-08-12T12:10:46Z</time><extensions><speed>0.006692</speed><course>80.566093</course><hAcc>0.901818</hAcc><vAcc>0.729569</vAcc></extensions></trkpt>
      <trkpt lon="-3.307153" lat="54.546371"><ele>121.782761</ele><time>2021-08-12T12:10:47Z</time><extensions><speed>0.008493</speed><course>80.566093</course><hAcc>0.900360</hAcc><vAcc>0.729293</vAcc></extensions></trkpt>
      <trkpt lon="-3.307153" lat="54.546371"><ele>121.782280</ele><time>2021-08-12T12:10:48Z</time><extensions><speed>0.010538</speed><course>77.344681</course><hAcc>0.898446</hAcc><vAcc>0.728590</vAcc></extensions></trkpt>
      <trkpt lon="-3.307153" lat="54.546371"><ele>121.782036</ele><time>2021-08-12T12:10:49Z</time><extensions><speed>0.012816</speed><course>77.923714</course><hAcc>0.896329</hAcc><vAcc>0.727585</vAcc></extensions></trkpt>
      <trkpt lon="-3.307153" lat="54.546370"><ele>121.782089</ele><time>2021-08-12T12:10:50Z</time><extensions><speed>0.015300</speed><course>87.073212</course><hAcc>0.894224</hAcc><vAcc>0.726432</vAcc></extensions></trkpt>
      <trkpt lon="-3.307153" lat="54.546370"><ele>121.782516</ele><time>2021-08-12T12:10:51Z</time><extensions><speed>0.017949</speed><course>79.233902</course><hAcc>0.892287</hAcc><vAcc>0.725267</vAcc></extensions></trkpt>
      <trkpt lon="-3.307153" lat="54.546370"><ele>121.783371</ele><time>2021-08-12T12:10:52Z</time><extensions><speed>0.020703</speed><course>96.572746</course><hAcc>0.890614</hAcc><vAcc>0.724199</vAcc></extensions></trkpt>
      <trkpt lon="-3.307153" lat="54.546370"><ele>121.784744</ele><time>2021-08-12T12:10:53Z</time><extensions><speed>0.023479</speed><course>86.920219</course><hAcc>0.889244</hAcc><vAcc>0.723302</vAcc></extensions></trkpt>
      <trkpt lon="-3.307154" lat="54.546370"><ele>121.786682</ele><time>2021-08-12T12:10:54Z</time><extensions><speed>0.026170</speed><course>76.786201</course><hAcc>0.888180</hAcc><vAcc>0.722611</vAcc></extensions></trkpt>
      <trkpt lon="-3.307154" lat="54.546369"><ele>121.789230</ele><time>2021-08-12T12:10:55Z</time><extensions><speed>0.028641</speed><course>77.162971</course><hAcc>0.887394</hAcc><vAcc>0.722138</vAcc></extensions></trkpt>
      <trkpt lon="-3.307154" lat="54.546369"><ele>121.792419</ele><time>2021-08-12T12:10:56Z</time><extensions><speed>0.030730</speed><course>69.604996</course><hAcc>0.886846</hAcc><vAcc>0.721870</vAcc></extensions></trkpt>
      <trkpt lon="-3.307154" lat="54.546369"><ele>121.796234</ele><time>2021-08-12T12:10:57Z</time><extensions><speed>0.032246</speed><course>76.115456</course><hAcc>0.886490</hAcc><vAcc>0.721780</vAcc></extensions></trkpt>
      <trkpt lon="-3.307154" lat="54.546369"><ele>121.800629</ele><time>2021-08-12T12:10:58Z</time><extensions><speed>0.032981</speed><course>83.646278</course><hAcc>0.886281</hAcc><vAcc>0.721833</vAcc></extensions></trkpt>
      <trkpt lon="-3.307154" lat="54.546368"><ele>121.805489</ele><time>2021-08-12T12:10:59Z</time><extensions><speed>0.032734</speed><course>76.408623</course><hAcc>0.886178</hAcc><vAcc>0.721987</vAcc></extensions></trkpt>
      <trkpt lon="-3.307155" lat="54.546368"><ele>121.810654</ele><time>2021-08-12T12:11:00Z</time><extensions><speed>0.031367</speed><course>79.439453</course><hAcc>0.886149</hAcc><vAcc>0.722205</vAcc></extensions></trkpt>
      <trkpt lon="-3.307155" lat="54.546368"><ele>121.815857</ele><time>2021-08-12T12:11:01Z</time><extensions><speed>0.028968</speed><course>75.300941</course><hAcc>0.886166</hAcc><vAcc>0.722452</vAcc></extensions></trkpt>
      <trkpt lon="-3.307155" lat="54.546368"><ele>121.820770</ele><time>2021-08-12T12:11:02Z</time><extensions><speed>0.026273</speed><course>76.126534</course><hAcc>0.886210</hAcc><vAcc>0.722701</vAcc></extensions></trkpt>
      <trkpt lon="-3.307156" lat="54.546368"><ele>121.824936</ele><time>2021-08-12T12:11:03Z</time><extensions><speed>0.025570</speed><course>75.233688</course><hAcc>0.886265</hAcc><vAcc>0.722934</vAcc></extensions></trkpt>
      <trkpt lon="-3.307156" lat="54.546368"><ele>121.827797</ele><time>2021-08-12T12:11:04Z</time><extensions><speed>0.030694</speed><course>81.891060</course><hAcc>0.886321</hAcc><vAcc>0.723142</vAcc></extensions></trkpt>
      <trkpt lon="-3.307157" lat="54.546368"><ele>121.828667</ele><time>2021-08-12T12:11:05Z</time><extensions><speed>0.043636</speed><course>78.263519</course><hAcc>0.886371</hAcc><vAcc>0.723317</vAcc></extensions></trkpt>
      <trkpt lon="-3.307157" lat="54.546369"><ele>121.826744</ele><time>2021-08-12T12:11:06Z</time><extensions><speed>0.063814</speed><course>74.907532</course><hAcc>0.886411</hAcc><vAcc>0.723458</vAcc></extensions></trkpt>
      <trkpt lon="-3.307157" lat="54.546369"><ele>121.821106</ele><time>2021-08-12T12:11:07Z</time><extensions><speed>0.090627</speed><course>84.941742</course><hAcc>0.886439</hAcc><vAcc>0.723561</vAcc></extensions></trkpt>
      <trkpt lon="-3.307157" lat="54.546370"><ele>121.810722</ele><time>2021-08-12T12:11:08Z</time><extensions><speed>0.123995</speed><course>73.584358</course><hAcc>0.886452</hAcc><vAcc>0.723626</vAcc></extensions></trkpt>
      <trkpt lon="-3.307157" lat="54.546371"><ele>121.794472</ele><time>2021-08-12T12:11:09Z</time><extensions><speed>0.164061</speed><course>96.346313</course><hAcc>0.886450</hAcc><vAcc>0.723646</vAcc></extensions></trkpt>
      <trkpt lon="-3.307157" lat="54.546373"><ele>121.771202</ele><time>2021-08-12T12:11:10Z</time><extensions><speed>0.210973</speed><course>87.208282</course><hAcc>0.886432</hAcc><vAcc>0.723617</vAcc></extensions></trkpt>
      <trkpt lon="-3.307156" lat="54.546375"><ele>121.739761</ele><time>2021-08-12T12:11:11Z</time><extensions><speed>0.264737</speed><course>71.034035</course><hAcc>0.886398</hAcc><vAcc>0.723529</vAcc></extensions></trkpt>
      <trkpt lon="-3.307155" lat="54.546378"><ele>121.699074</ele><time>2021-08-12T12:11:12Z</time><extensions><speed>0.325113</speed><course>74.315559</course><hAcc>0.886346</hAcc><vAcc>0.723375</vAcc></extensions></trkpt>
      <trkpt lon="-3.307154" lat="54.546381"><ele>121.648239</ele><time>2021-08-12T12:11:13Z</time><extensions><speed>0.391509</speed><course>82.074326</course><hAcc>0.886277</hAcc><vAcc>0.723148</vAcc></extensions></trkpt>
      <trkpt lon="-3.307152" lat="54.546385"><ele>121.586639</ele><time>2021-08-12T12:11:14Z</time><extensions><speed>0.462867</speed><course>78.798851</course><hAcc>0.886188</hAcc><vAcc>0.722846</vAcc></extensions></trkpt>
      <trkpt lon="-3.307149" lat="54.546389"><ele>121.514084</ele><time>2021-08-12T12:11:15Z</time><extensions><speed>0.537540</speed><course>71.049065</course><hAcc>0.886077</hAcc><vAcc>0.722466</vAcc></extensions></trkpt>
      <trkpt lon="-3.307146" lat="54.546394"><ele>121.430992</ele><time>2021-08-12T12:11:16Z</time><extensions><speed>0.613159</speed><course>66.417450</course><hAcc>0.885942</hAcc><vAcc>0.722009</vAcc></extensions></trkpt>
      <trkpt lon="-3.307141" lat="54.546399"><ele>121.338577</ele><time>2021-08-12T12:11:17Z</time><extensions><speed>0.686498</speed><course>67.881187</course><hAcc>0.885783</hAcc><vAcc>0.721470</vAcc></extensions></trkpt>
      <trkpt lon="-3.307136" lat="54.546405"><ele>121.239105</ele><time>2021-08-12T12:11:18Z</time><extensions><speed>0.753338</speed><course>73.946594</course><hAcc>0.885600</hAcc><vAcc>0.720843</vAcc></extensions></trkpt>
      <trkpt lon="-3.307130" lat="54.546411"><ele>121.136086</ele><time>2021-08-12T12:11:19Z</time><extensions><speed>0.808347</speed><course>66.868568</course><hAcc>0.885394</hAcc><vAcc>0.720118</vAcc></extensions></trkpt>
      <trkpt lon="-3.307123" lat="54.546417"><ele>121.033775</ele><time>2021-08-12T12:11:20Z</time><extensions><speed>0.848457</speed><course>57.370388</course><hAcc>0.885167</hAcc><vAcc>0.719288</vAcc></extensions></trkpt>
      <trkpt lon="-3.307115" lat="54.546423"><ele>120.935760</ele><time>2021-08-12T12:11:21Z</time><extensions><speed>0.873565</speed><course>72.859169</course><hAcc>0.884923</hAcc><vAcc>0.718358</vAcc></extensions></trkpt>
      <trkpt lon="-3.307107" lat="54.546429"><ele>120.844620</ele><time>2021-08-12T12:11:22Z</time><extensions><speed>0.883737</speed><course>73.476959</course><hAcc>0.884666</hAcc><vAcc>0.717341</vAcc></extensions></trkpt>
      <trkpt lon="-3.307098" lat="54.546435"><ele>120.762352</ele><time>2021-08-12T12:11:23Z</time><extensions><speed>0.879099</speed><course>70.985191</course><hAcc>0.884398</hAcc><vAcc>0.716265</vAcc></extensions></trkpt>
      <trkpt lon="-3.307089" lat="54.546441"><ele>120.690430</ele><time>2021-08-12T12:11:24Z</time><extensions><speed>0.860165</speed><course>67.094063</course><hAcc>0.884124</hAcc><vAcc>0.715159</vAcc></extensions></trkpt>
      <trkpt lon="-3.307080" lat="54.546447"><ele>120.629845</ele><time>2021-08-12T12:11:25Z</time><extensions><speed>0.828229</speed><course>63.802017</course><hAcc>0.883849</hAcc><vAcc>0.714058</vAcc></extensions></trkpt>
      <trkpt lon="-3.307071" lat="54.546452"><ele>120.581268</ele><time>2021-08-12T12:11:26Z</time><extensions><speed>0.785055</speed><course>59.738853</course><hAcc>0.883576</hAcc><vAcc>0.712992</vAcc></extensions></trkpt>
      <trkpt lon="-3.307062" lat="54.546456"><ele>120.544983</ele><time>2021-08-12T12:11:27Z</time><extensions><speed>0.732385</speed><course>64.752533</course><hAcc>0.883310</hAcc><vAcc>0.711984</vAcc></extensions></trkpt>
      <trkpt lon="-3.307054" lat="54.546460"><ele>120.520691</ele><time>2021-08-12T12:11:28Z</time><extensions><speed>0.672394</speed><course>62.678837</course><hAcc>0.883056</hAcc><vAcc>0.711042</vAcc></extensions></trkpt>
      <trkpt lon="-3.307047" lat="54.546464"><ele>120.507568</ele><time>2021-08-12T12:11:29Z</time><extensions><speed>0.607723</speed><course>67.622025</course><hAcc>0.882816</hAcc><vAcc>0.710169</vAcc></extensions></trkpt>
      <trkpt lon="-3.307040" lat="54.546468"><ele>120.504456</ele><time>2021-08-12T12:11:30Z</time><extensions><speed>0.541765</speed><course>76.998230</course><hAcc>0.882595</hAcc><vAcc>0.709365</vAcc></extensions></trkpt>
      <trkpt lon="-3.307034" lat="54.546470"><ele>120.509888</ele><time>2021-08-12T12:11:31Z</time><extensions><speed>0.477961</speed><course>71.279175</course><hAcc>0.882395</hAcc><vAcc>0.708634</vAcc></extensions></trkpt>
      <trkpt lon="-3.307028" lat="54.546473"><ele>120.522194</ele><time>2021-08-12T12:11:32Z</time><extensions><speed>0.418733</speed><course>66.215858</course><hAcc>0.882219</hAcc><vAcc>0.707982</vAcc></extensions></trkpt>
      <trkpt lon="-3.307024" lat="54.546475"><ele>120.539665</ele><time>2021-08-12T12:11:33Z</time><extensions><speed>0.365629</speed><course>65.869171</course><hAcc>0.882069</hAcc><vAcc>0.707417</vAcc></extensions></trkpt>
      <trkpt lon="-3.307019" lat="54.546477"><ele>120.560684</ele><time>2021-08-12T12:11:34Z</time><extensions><speed>0.319460</speed><course>67.480362</course><hAcc>0.881947</hAcc><vAcc>0.706947</vAcc></extensions></trkpt>
      <trkpt lon="-3.307015" lat="54.546478"><ele>120.583771</ele><time>2021-08-12T12:11:35Z</time><extensions><speed>0.280501</speed><course>62.467888</course><hAcc>0.881857</hAcc><vAcc>0.706580</vAcc></extensions></trkpt>
      <trkpt lon="-3.307012" lat="54.546480"><ele>120.607582</ele><time>2021-08-12T12:11:36Z</time><extensions><speed>0.248388</speed><course>57.403885</course><hAcc>0.881799</hAcc><vAcc>0.706330</vAcc></extensions></trkpt>
      <trkpt lon="-3.307009" lat="54.546481"><ele>120.630890</ele><time>2021-08-12T12:11:37Z</time><extensions><speed>0.222388</speed><course>56.104736</course><hAcc>0.881776</hAcc><vAcc>0.706207</vAcc></extensions></trkpt>
      <trkpt lon="-3.307006" lat="54.546482"><ele>120.652466</ele><time>2021-08-12T12:11:38Z</time><extensions><speed>0.201589</speed><course>57.135769</course><hAcc>0.881788</hAcc><vAcc>0.706227</vAcc></extensions></trkpt>
      <trkpt lon="-3.307003" lat="54.546482"><ele>120.671257</ele><time>2021-08-12T12:11:39Z</time><extensions><speed>0.184787</speed><course>59.466648</course><hAcc>0.881834</hAcc><vAcc>0.706398</vAcc></extensions></trkpt>
      <trkpt lon="-3.307001" lat="54.546483"><ele>120.686554</ele><time>2021-08-12T12:11:40Z</time><extensions><speed>0.170805</speed><course>56.466339</course><hAcc>0.881912</hAcc><vAcc>0.706722</vAcc></extensions></trkpt>
      <trkpt lon="-3.306998" lat="54.546484"><ele>120.697975</ele><time>2021-08-12T12:11:41Z</time><extensions><speed>0.158473</speed><course>61.082169</course><hAcc>0.882020</hAcc><vAcc>0.707187</vAcc></extensions></trkpt>
      <trkpt lon="-3.306996" lat="54.546484"><ele>120.705605</ele><time>2021-08-12T12:11:42Z</time><extensions><speed>0.146493</speed><course>63.000797</course><hAcc>0.882151</hAcc><vAcc>0.707765</vAcc></extensions></trkpt>
      <trkpt lon="-3.306994" lat="54.546485"><ele>120.710129</ele><time>2021-08-12T12:11:43Z</time><extensions><speed>0.133430</speed><course>58.373146</course><hAcc>0.882299</hAcc><vAcc>0.708414</vAcc></extensions></trkpt>
      <trkpt lon="-3.306993" lat="54.546485"><ele>120.712570</ele><time>2021-08-12T12:11:44Z</time><extensions><speed>0.118735</speed><course>59.591164</course><hAcc>0.882458</hAcc><vAcc>0.709093</vAcc></extensions></trkpt>
      <trkpt lon="-3.306991" lat="54.546485"><ele>120.713676</ele><time>2021-08-12T12:11:45Z</time><extensions><speed>0.103184</speed><course>56.078835</course><hAcc>0.882617</hAcc><vAcc>0.709772</vAcc></extensions></trkpt>
      <trkpt lon="-3.306990" lat="54.546486"><ele>120.713799</ele><time>2021-08-12T12:11:46Z</time><extensions><speed>0.087752</speed><course>61.452141</course><hAcc>0.882769</hAcc><vAcc>0.710424</vAcc></extensions></trkpt>
      <trkpt lon="-3.306988" lat="54.546486"><ele>120.713196</ele><time>2021-08-12T12:11:47Z</time><extensions><speed>0.073292</speed><course>62.349373</course><hAcc>0.882906</hAcc><vAcc>0.711020</vAcc></extensions></trkpt>
      <trkpt lon="-3.306987" lat="54.546486"><ele>120.712196</ele><time>2021-08-12T12:11:48Z</time><extensions><speed>0.060550</speed><course>67.502327</course><hAcc>0.883019</hAcc><vAcc>0.711522</vAcc></extensions></trkpt>
      <trkpt lon="-3.306987" lat="54.546486"><ele>120.711212</ele><time>2021-08-12T12:11:49Z</time><extensions><speed>0.049802</speed><course>65.148994</course><hAcc>0.883105</hAcc><vAcc>0.711897</vAcc></extensions></trkpt>
      <trkpt lon="-3.306986" lat="54.546487"><ele>120.710594</ele><time>2021-08-12T12:11:50Z</time><extensions><speed>0.040870</speed><course>61.604351</course><hAcc>0.883157</hAcc><vAcc>0.712119</vAcc></extensions></trkpt>
      <trkpt lon="-3.306985" lat="54.546487"><ele>120.710487</ele><time>2021-08-12T12:11:51Z</time><extensions><speed>0.033772</speed><course>67.356651</course><hAcc>0.883173</hAcc><vAcc>0.712179</vAcc></extensions></trkpt>
      <trkpt lon="-3.306985" lat="54.546487"><ele>120.710777</ele><time>2021-08-12T12:11:52Z</time><extensions><speed>0.028682</speed><course>56.187717</course><hAcc>0.883152</hAcc><vAcc>0.712074</vAcc></extensions></trkpt>
      <trkpt lon="-3.306985" lat="54.546487"><ele>120.710976</ele><time>2021-08-12T12:11:53Z</time><extensions><speed>0.025507</speed><course>56.273357</course><hAcc>0.883095</hAcc><vAcc>0.711814</vAcc></extensions></trkpt>
      <trkpt lon="-3.306984" lat="54.546487"><ele>120.710320</ele><time>2021-08-12T12:11:54Z</time><extensions><speed>0.023904</speed><course>59.042984</course><hAcc>0.883003</hAcc><vAcc>0.711416</vAcc></extensions></trkpt>
      <trkpt lon="-3.306984" lat="54.546487"><ele>120.707878</ele><time>2021-08-12T12:11:55Z</time><extensions><speed>0.023403</speed><course>46.754299</course><hAcc>0.882881</hAcc><vAcc>0.710902</vAcc></extensions></trkpt>
      <trkpt lon="-3.306984" lat="54.546487"><ele>120.702682</ele><time>2021-08-12T12:11:56Z</time><extensions><speed>0.023385</speed><course>46.754295</course><hAcc>0.882736</hAcc><vAcc>0.710296</vAcc></extensions></trkpt>
      <trkpt lon="-3.306983" lat="54.546487"><ele>120.693825</ele><time>2021-08-12T12:11:57Z</time><extensions><speed>0.023276</speed><course>46.754295</course><hAcc>0.882574</hAcc><vAcc>0.709625</vAcc></extensions></trkpt>
      <trkpt lon="-3.306983" lat="54.546487"><ele>120.680580</ele><time>2021-08-12T12:11:58Z</time><extensions><speed>0.022797</speed><course>46.754295</course><hAcc>0.882405</hAcc><vAcc>0.708915</vAcc></extensions></trkpt>
      <trkpt lon="-3.306983" lat="54.546488"><ele>120.662491</ele><time>2021-08-12T12:11:59Z</time><extensions><speed>0.022004</speed><course>46.754295</course><hAcc>0.882239</hAcc><vAcc>0.708198</vAcc></extensions></trkpt>
      <trkpt lon="-3.306982" lat="54.546488"><ele>120.639267</ele><time>2021-08-12T12:12:00Z</time><extensions><speed>0.021046</speed><course>46.754295</course><hAcc>0.882087</hAcc><vAcc>0.707511</vAcc></extensions></trkpt>
      <trkpt lon="-3.306982" lat="54.546488"><ele>120.610703</ele><time>2021-08-12T12:12:01Z</time><extensions><speed>0.019852</speed><course>46.754295</course><hAcc>0.881959</hAcc><vAcc>0.706895</vAcc></extensions></trkpt>
      <trkpt lon="-3.306982" lat="54.546488"><ele>120.576897</ele><time>2021-08-12T12:12:02Z</time><extensions><speed>0.018256</speed><course>46.754292</course><hAcc>0.881865</hAcc><vAcc>0.706397</vAcc></extensions></trkpt>
      <trkpt lon="-3.306982" lat="54.546488"><ele>120.538422</ele><time>2021-08-12T12:12:03Z</time><extensions><speed>0.016200</speed><course>46.754295</course><hAcc>0.881814</hAcc><vAcc>0.706064</vAcc></extensions></trkpt>
      <trkpt lon="-3.306981" lat="54.546488"><ele>120.496269</ele><time>2021-08-12T12:12:04Z</time><extensions><speed>0.013896</speed><course>86.257805</course><hAcc>0.881811</hAcc><vAcc>0.705938</vAcc></extensions></trkpt>
      <trkpt lon="-3.306981" lat="54.546488"><ele>120.451775</ele><time>2021-08-12T12:12:06Z</time><extensions><speed>0.012038</speed><course>92.864906</course><hAcc>0.881842</hAcc><vAcc>0.706035</vAcc></extensions></trkpt>
      <trkpt lon="-3.306981" lat="54.546487"><ele>120.406494</ele><time>2021-08-12T12:12:07Z</time><extensions><speed>0.011828</speed><course>94.458534</course><hAcc>0.881905</hAcc><vAcc>0.706367</vAcc></extensions></trkpt>
      <trkpt lon="-3.306981" lat="54.546487"><ele>120.361664</ele><time>2021-08-12T12:12:08Z</time><extensions><speed>0.014314</speed><course>89.165138</course><hAcc>0.882014</hAcc><vAcc>0.706932</vAcc></extensions></trkpt>
      <trkpt lon="-3.306981" lat="54.546487"><ele>120.318336</ele><time>2021-08-12T12:12:09Z</time><extensions><speed>0.019449</speed><course>98.187202</course><hAcc>0.882160</hAcc><vAcc>0.707685</vAcc></extensions></trkpt>
      <trkpt lon="-3.306981" lat="54.546487"><ele>120.277466</ele><time>2021-08-12T12:12:10Z</time><extensions><speed>0.026590</speed><course>262.094696</course><hAcc>0.882331</hAcc><vAcc>0.708556</vAcc></extensions></trkpt>
      <trkpt lon="-3.306982" lat="54.546487"><ele>120.239960</ele><time>2021-08-12T12:12:11Z</time><extensions><speed>0.035124</speed><course>273.339569</course><hAcc>0.882515</hAcc><vAcc>0.709465</vAcc></extensions></trkpt>
      <trkpt lon="-3.306982" lat="54.546487"><ele>120.206589</ele><time>2021-08-12T12:12:12Z</time><extensions><speed>0.044405</speed><course>270.133057</course><hAcc>0.882696</hAcc><vAcc>0.710339</vAcc></extensions></trkpt>
      <trkpt lon="-3.306983" lat="54.546486"><ele>120.177887</ele><time>2021-08-12T12:12:13Z</time><extensions><speed>0.053798</speed><course>264.401459</course><hAcc>0.882862</hAcc><vAcc>0.711114</vAcc></extensions></trkpt>
      <trkpt lon="-3.306984" lat="54.546486"><ele>120.154251</ele><time>2021-08-12T12:12:14Z</time><extensions><speed>0.062624</speed><course>271.206299</course><hAcc>0.883002</hAcc><vAcc>0.711744</vAcc></extensions></trkpt>
      <trkpt lon="-3.306984" lat="54.546486"><ele>120.135925</ele><time>2021-08-12T12:12:15Z</time><extensions><speed>0.070117</speed><course>270.479279</course><hAcc>0.883105</hAcc><vAcc>0.712195</vAcc></extensions></trkpt>
      <trkpt lon="-3.306985" lat="54.546486"><ele>120.123039</ele><time>2021-08-12T12:12:16Z</time><extensions><speed>0.075386</speed><course>270.479279</course><hAcc>0.883167</hAcc><vAcc>0.712450</vAcc></extensions></trkpt>
      <trkpt lon="-3.306987" lat="54.546485"><ele>120.115601</ele><time>2021-08-12T12:12:17Z</time><extensions><speed>0.078037</speed><course>270.479279</course><hAcc>0.883185</hAcc><vAcc>0.712506</vAcc></extensions></trkpt>
      <trkpt lon="-3.306988" lat="54.546485"><ele>120.113434</ele><time>2021-08-12T12:12:18Z</time><extensions><speed>0.078309</speed><course>92.836548</course><hAcc>0.883161</hAcc><vAcc>0.712370</vAcc></extensions></trkpt>
      <trkpt lon="-3.306989" lat="54.546485"><ele>120.116196</ele><time>2021-08-12T12:12:19Z</time><extensions><speed>0.076429</speed><course>91.847809</course><hAcc>0.883100</hAcc><vAcc>0.712059</vAcc></extensions></trkpt>
      <trkpt lon="-3.306990" lat="54.546485"><ele>120.123375</ele><time>2021-08-12T12:12:19Z</time><extensions><speed>0.072471</speed><course>96.972961</course><hAcc>0.883030</hAcc><vAcc>0.711619</vAcc></extensions></trkpt>
      <trkpt lon="-3.306991" lat="54.546485"><ele>120.134346</ele><time>2021-08-12T12:12:20Z</time><extensions><speed>0.066868</speed><course>101.432434</course><hAcc>0.882960</hAcc><vAcc>0.711105</vAcc></extensions></trkpt>
      <trkpt lon="-3.306992" lat="54.546485"><ele>120.148598</ele><time>2021-08-12T12:12:21Z</time><extensions><speed>0.060460</speed><course>89.921867</course><hAcc>0.882883</hAcc><vAcc>0.710577</vAcc></extensions></trkpt>
      <trkpt lon="-3.306993" lat="54.546485"><ele>120.165939</ele><time>2021-08-12T12:12:22Z</time><extensions><speed>0.054070</speed><course>79.468422</course><hAcc>0.882810</hAcc><vAcc>0.710110</vAcc></extensions></trkpt>
      <trkpt lon="-3.306994" lat="54.546485"><ele>120.186089</ele><time>2021-08-12T12:12:23Z</time><extensions><speed>0.048382</speed><course>79.668663</course><hAcc>0.882750</hAcc><vAcc>0.709759</vAcc></extensions></trkpt>
      <trkpt lon="-3.306994" lat="54.546485"><ele>120.208496</ele><time>2021-08-12T12:12:24Z</time><extensions><speed>0.043896</speed><course>70.198914</course><hAcc>0.882711</hAcc><vAcc>0.709554</vAcc></extensions></trkpt>
      <trkpt lon="-3.306995" lat="54.546486"><ele>120.232666</ele><time>2021-08-12T12:12:25Z</time><extensions><speed>0.041241</speed><course>85.811096</course><hAcc>0.882700</hAcc><vAcc>0.709501</vAcc></extensions></trkpt>
      <trkpt lon="-3.306995" lat="54.546486"><ele>120.258324</ele><time>2021-08-12T12:12:26Z</time><extensions><speed>0.040632</speed><course>87.515213</course><hAcc>0.882719</hAcc><vAcc>0.709596</vAcc></extensions></trkpt>
      <trkpt lon="-3.306995" lat="54.546486"><ele>120.285133</ele><time>2021-08-12T12:12:27Z</time><extensions><speed>0.041251</speed><course>86.802406</course><hAcc>0.882769</hAcc><vAcc>0.709830</vAcc></extensions></trkpt>
      <trkpt lon="-3.306995" lat="54.546487"><ele>120.312500</ele><time>2021-08-12T12:12:28Z</time><extensions><speed>0.041749</speed><course>85.424927</course><hAcc>0.882847</hAcc><vAcc>0.710187</vAcc></extensions></trkpt>
      <trkpt lon="-3.306995" lat="54.546487"><ele>120.339638</ele><time>2021-08-12T12:12:29Z</time><extensions><speed>0.041150</speed><course>88.911957</course><hAcc>0.882949</hAcc><vAcc>0.710643</vAcc></extensions></trkpt>
      <trkpt lon="-3.306995" lat="54.546487"><ele>120.365829</ele><time>2021-08-12T12:12:30Z</time><extensions><speed>0.039251</speed><course>93.027184</course><hAcc>0.883070</hAcc><vAcc>0.711169</vAcc></extensions></trkpt>
      <trkpt lon="-3.306995" lat="54.546488"><ele>120.390594</ele><time>2021-08-12T12:12:31Z</time><extensions><speed>0.036116</speed><course>90.763535</course><hAcc>0.883206</hAcc><vAcc>0.711734</vAcc></extensions></trkpt>
      <trkpt lon="-3.306994" lat="54.546488"><ele>120.413589</ele><time>2021-08-12T12:12:32Z</time><extensions><speed>0.031918</speed><course>83.392509</course><hAcc>0.883350</hAcc><vAcc>0.712309</vAcc></extensions></trkpt>
      <trkpt lon="-3.306994" lat="54.546488"><ele>120.434639</ele><time>2021-08-12T12:12:33Z</time><extensions><speed>0.026857</speed><course>57.334152</course><hAcc>0.883497</hAcc><vAcc>0.712874</vAcc></extensions></trkpt>
      <trkpt lon="-3.306994" lat="54.546488"><ele>120.453682</ele><time>2021-08-12T12:12:34Z</time><extensions><speed>0.021126</speed><course>29.254333</course><hAcc>0.883644</hAcc><vAcc>0.713414</vAcc></extensions></trkpt>
      <trkpt lon="-3.306994" lat="54.546488"><ele>120.470757</ele><time>2021-08-12T12:12:35Z</time><extensions><speed>0.014907</speed><course>29.254333</course><hAcc>0.883788</hAcc><vAcc>0.713922</vAcc></extensions></trkpt>
      <trkpt lon="-3.306994" lat="54.546489"><ele>120.485985</ele><time>2021-08-12T12:12:36Z</time><extensions><speed>0.008377</speed><course>29.254333</course><hAcc>0.883927</hAcc><vAcc>0.714398</vAcc></extensions></trkpt>
      <trkpt lon="-3.306994" lat="54.546489"><ele>120.499519</ele><time>2021-08-12T12:12:37Z</time><extensions><speed>0.002049</speed><course>29.254332</course><hAcc>0.884062</hAcc><vAcc>0.714850</vAcc></extensions></trkpt>
      <trkpt lon="-3.306994" lat="54.546489"><ele>120.511589</ele><time>2021-08-12T12:12:38Z</time><extensions><speed>0.005582</speed><course>29.254333</course><hAcc>0.884196</hAcc><vAcc>0.715288</vAcc></extensions></trkpt>
      <trkpt lon="-3.306994" lat="54.546489"><ele>120.522430</ele><time>2021-08-12T12:12:39Z</time><extensions><speed>0.012280</speed><course>29.254332</course><hAcc>0.884335</hAcc><vAcc>0.715727</vAcc></extensions></trkpt>
      <trkpt lon="-3.306994" lat="54.546488"><ele>120.532265</ele><time>2021-08-12T12:12:40Z</time><extensions><speed>0.018842</speed><course>29.254332</course><hAcc>0.884486</hAcc><vAcc>0.716182</vAcc></extensions></trkpt>
      <trkpt lon="-3.306994" lat="54.546488"><ele>120.541336</ele><time>2021-08-12T12:12:41Z</time><extensions><speed>0.025034</speed><course>29.254333</course><hAcc>0.884665</hAcc><vAcc>0.716673</vAcc></extensions></trkpt>
      <trkpt lon="-3.306995" lat="54.546488"><ele>120.549835</ele><time>2021-08-12T12:12:42Z</time><extensions><speed>0.030629</speed><course>29.254333</course><hAcc>0.884889</hAcc><vAcc>0.717218</vAcc></extensions></trkpt>
      <trkpt lon="-3.306995" lat="54.546488"><ele>120.557938</ele><time>2021-08-12T12:12:43Z</time><extensions><speed>0.035356</speed><course>29.254332</course><hAcc>0.885183</hAcc><vAcc>0.717839</vAcc></extensions></trkpt>
      <trkpt lon="-3.306995" lat="54.546488"><ele>120.565735</ele><time>2021-08-12T12:12:44Z</time><extensions><speed>0.038882</speed><course>29.254333</course><hAcc>0.885576</hAcc><vAcc>0.718562</vAcc></extensions></trkpt>
      <trkpt lon="-3.306996" lat="54.546488"><ele>120.573257</ele><time>2021-08-12T12:12:45Z</time><extensions><speed>0.040804</speed><course>29.254337</course><hAcc>0.886104</hAcc><vAcc>0.719415</vAcc></extensions></trkpt>
      <trkpt lon="-3.306997" lat="54.546487"><ele>120.580452</ele><time>2021-08-12T12:12:46Z</time><extensions><speed>0.040655</speed><course>29.254337</course><hAcc>0.886807</hAcc><vAcc>0.720427</vAcc></extensions></trkpt>
      <trkpt lon="-3.306997" lat="54.546487"><ele>120.587158</ele><time>2021-08-12T12:12:47Z</time><extensions><speed>0.037935</speed><course>29.254339</course><hAcc>0.887725</hAcc><vAcc>0.721621</vAcc></extensions></trkpt>
      <trkpt lon="-3.306998" lat="54.546487"><ele>120.593079</ele><time>2021-08-12T12:12:48Z</time><extensions><speed>0.032231</speed><course>29.254337</course><hAcc>0.888894</hAcc><vAcc>0.723006</vAcc></extensions></trkpt>
      <trkpt lon="-3.306998" lat="54.546487"><ele>120.597809</ele><time>2021-08-12T12:12:49Z</time><extensions><speed>0.023828</speed><course>29.254339</course><hAcc>0.890339</hAcc><vAcc>0.724574</vAcc></extensions></trkpt>
      <trkpt lon="-3.306998" lat="54.546487"><ele>120.600784</ele><time>2021-08-12T12:12:50Z</time><extensions><speed>0.017634</speed><course>353.139893</course><hAcc>0.892062</hAcc><vAcc>0.726289</vAcc></extensions></trkpt>
      <trkpt lon="-3.306998" lat="54.546487"><ele>120.601295</ele><time>2021-08-12T12:12:51Z</time><extensions><speed>0.028534</speed><course>-1.000000</course><hAcc>0.894032</hAcc><vAcc>0.728081</vAcc></extensions></trkpt>
      <trkpt lon="-3.306998" lat="54.546488"><ele>120.598465</ele><time>2021-08-12T12:12:52Z</time><extensions><speed>0.054723</speed><course>-1.000000</course><hAcc>0.896173</hAcc><vAcc>0.729847</vAcc></extensions></trkpt>
      <trkpt lon="-3.306997" lat="54.546488"><ele>120.591286</ele><time>2021-08-12T12:12:53Z</time><extensions><speed>0.090886</speed><course>-1.000000</course><hAcc>0.898359</hAcc><vAcc>0.731455</vAcc></extensions></trkpt>
      <trkpt lon="-3.306996" lat="54.546489"><ele>120.578598</ele><time>2021-08-12T12:12:54Z</time><extensions><speed>0.136459</speed><course>-1.000000</course><hAcc>0.900415</hAcc><vAcc>0.732760</vAcc></extensions></trkpt>
      <trkpt lon="-3.306995" lat="54.546490"><ele>120.559128</ele><time>2021-08-12T12:12:55Z</time><extensions><speed>0.191714</speed><course>-1.000000</course><hAcc>0.902138</hAcc><vAcc>0.733642</vAcc></extensions></trkpt>
      <trkpt lon="-3.306992" lat="54.546491"><ele>120.531502</ele><time>2021-08-12T12:12:57Z</time><extensions><speed>0.256999</speed><course>-1.000000</course><hAcc>0.903336</hAcc><vAcc>0.734057</vAcc></extensions></trkpt>
      <trkpt lon="-3.306988" lat="54.546493"><ele>120.494400</ele><time>2021-08-12T12:12:58Z</time><extensions><speed>0.331916</speed><course>-1.000000</course><hAcc>0.903953</hAcc><vAcc>0.734152</vAcc></extensions></trkpt>
      <trkpt lon="-3.306984" lat="54.546495"><ele>120.446487</ele><time>2021-08-12T12:12:59Z</time><extensions><speed>0.415904</speed><course>-1.000000</course><hAcc>0.904252</hAcc><vAcc>0.734417</vAcc></extensions></trkpt>
      <trkpt lon="-3.306978" lat="54.546498"><ele>120.386604</ele><time>2021-08-12T12:13:00Z</time><extensions><speed>0.507539</speed><course>-1.000000</course><hAcc>0.905021</hAcc><vAcc>0.735844</vAcc></extensions></trkpt>
      <trkpt lon="-3.306971" lat="54.546501"><ele>120.313866</ele><time>2021-08-12T12:13:01Z</time><extensions><speed>0.604447</speed><course>-1.000000</course><hAcc>0.907958</hAcc><vAcc>0.740181</vAcc></extensions></trkpt>
      <trkpt lon="-3.306963" lat="54.546504"><ele>120.227798</ele><time>2021-08-12T12:13:02Z</time><extensions><speed>0.703090</speed><course>-1.000000</course><hAcc>0.916108</hAcc><vAcc>0.750163</vAcc></extensions></trkpt>
      <trkpt lon="-3.306954" lat="54.546508"><ele>120.128540</ele><time>2021-08-12T12:13:03Z</time><extensions><speed>0.798528</speed><course>74.830536</course><hAcc>0.934283</hAcc><vAcc>0.769648</vAcc></extensions></trkpt>
      <trkpt lon="-3.306943" lat="54.546512"><ele>120.017052</ele><time>2021-08-12T12:13:04Z</time><extensions><speed>0.884189</speed><course>62.161198</course><hAcc>0.969195</hAcc><vAcc>0.803481</vAcc></extensions></trkpt>
      <trkpt lon="-3.306922" lat="54.546521"><ele>119.892540</ele><time>2021-08-12T12:13:05Z</time><extensions><speed>1.603851</speed><course>74.967865</course><hAcc>0.931517</hAcc><vAcc>0.768042</vAcc></extensions></trkpt>
      <trkpt lon="-3.306904" lat="54.546531"><ele>119.752823</ele><time>2021-08-12T12:13:06Z</time><extensions><speed>1.614624</speed><course>75.133301</course><hAcc>0.912245</hAcc><vAcc>0.746167</vAcc></extensions></trkpt>
      <trkpt lon="-3.306886" lat="54.546541"><ele>119.613899</ele><time>2021-08-12T12:13:07Z</time><extensions><speed>1.618146</speed><course>66.099251</course><hAcc>0.904186</hAcc><vAcc>0.734866</vAcc></extensions></trkpt>
      <trkpt lon="-3.306868" lat="54.546551"><ele>119.476738</ele><time>2021-08-12T12:13:08Z</time><extensions><speed>1.614465</speed><course>81.237114</course><hAcc>0.901851</hAcc><vAcc>0.729841</vAcc></extensions></trkpt>
      <trkpt lon="-3.306850" lat="54.546561"><ele>119.342148</ele><time>2021-08-12T12:13:09Z</time><extensions><speed>1.603629</speed><course>80.566093</course><hAcc>0.901763</hAcc><vAcc>0.728007</vAcc></extensions></trkpt>
      <trkpt lon="-3.306833" lat="54.546572"><ele>119.210663</ele><time>2021-08-12T12:13:10Z</time><extensions><speed>1.586232</speed><course>80.566109</course><hAcc>0.901999</hAcc><vAcc>0.727380</vAcc></extensions></trkpt>
      <trkpt lon="-3.306816" lat="54.546582"><ele>119.082573</ele><time>2021-08-12T12:13:11Z</time><extensions><speed>1.563002</speed><course>80.566093</course><hAcc>0.901680</hAcc><vAcc>0.726826</vAcc></extensions></trkpt>
      <trkpt lon="-3.306801" lat="54.546592"><ele>118.957794</ele><time>2021-08-12T12:13:12Z</time><extensions><speed>1.535198</speed><course>80.566093</course><hAcc>0.900559</hAcc><vAcc>0.725807</vAcc></extensions></trkpt>
      <trkpt lon="-3.306786" lat="54.546603"><ele>118.835709</ele><time>2021-08-12T12:13:13Z</time><extensions><speed>1.504855</speed><course>80.566093</course><hAcc>0.898722</hAcc><vAcc>0.724156</vAcc></extensions></trkpt>
      <trkpt lon="-3.306772" lat="54.546614"><ele>118.715218</ele><time>2021-08-12T12:13:14Z</time><extensions><speed>1.473428</speed><course>77.344681</course><hAcc>0.896398</hAcc><vAcc>0.721922</vAcc></extensions></trkpt>
      <trkpt lon="-3.306759" lat="54.546624"><ele>118.595230</ele><time>2021-08-12T12:13:15Z</time><extensions><speed>1.442102</speed><course>77.923714</course><hAcc>0.893843</hAcc><vAcc>0.719256</vAcc></extensions></trkpt>
      <trkpt lon="-3.306746" lat="54.546635"><ele>118.474899</ele><time>2021-08-12T12:13:16Z</time><extensions><speed>1.411900</speed><course>87.073212</course><hAcc>0.891277</hAcc><vAcc>0.716338</vAcc></extensions></trkpt>
      <trkpt lon="-3.306735" lat="54.546645"><ele>118.353699</ele><time>2021-08-12T12:13:17Z</time><extensions><speed>1.383391</speed><course>79.233902</course><hAcc>0.888864</hAcc><vAcc>0.713344</vAcc></extensions></trkpt>
      <trkpt lon="-3.306724" lat="54.546656"><ele>118.231522</ele><time>2021-08-12T12:13:18Z</time><extensions><speed>1.356890</speed><course>96.572746</course><hAcc>0.886706</hAcc><vAcc>0.710421</vAcc></extensions></trkpt>
      <trkpt lon="-3.306714" lat="54.546667"><ele>118.108765</ele><time>2021-08-12T12:13:19Z</time><extensions><speed>1.332773</speed><course>86.920219</course><hAcc>0.884850</hAcc><vAcc>0.707673</vAcc></extensions></trkpt>
      <trkpt lon="-3.306704" lat="54.546677"><ele>117.986206</ele><time>2021-08-12T12:13:20Z</time><extensions><speed>1.311332</speed><course>76.786201</course><hAcc>0.883304</hAcc><vAcc>0.705158</vAcc></extensions></trkpt>
      <trkpt lon="-3.306696" lat="54.546688"><ele>117.864693</ele><time>2021-08-12T12:13:21Z</time><extensions><speed>1.292528</speed><course>77.162971</course><hAcc>0.882047</hAcc><vAcc>0.702903</vAcc></extensions></trkpt>
      <trkpt lon="-3.306688" lat="54.546698"><ele>117.745125</ele><time>2021-08-12T12:13:22Z</time><extensions><speed>1.276126</speed><course>69.604996</course><hAcc>0.881044</hAcc><vAcc>0.700907</vAcc></extensions></trkpt>
      <trkpt lon="-3.306680" lat="54.546709"><ele>117.628487</ele><time>2021-08-12T12:13:23Z</time><extensions><speed>1.261537</speed><course>76.115456</course><hAcc>0.880252</hAcc><vAcc>0.699158</vAcc></extensions></trkpt>
      <trkpt lon="-3.306673" lat="54.546719"><ele>117.515579</ele><time>2021-08-12T12:13:24Z</time><extensions><speed>1.248251</speed><course>83.646278</course><hAcc>0.879632</hAcc><vAcc>0.697633</vAcc></extensions></trkpt>
      <trkpt lon="-3.306667" lat="54.546730"><ele>117.406593</ele><time>2021-08-12T12:13:25Z</time><extensions><speed>1.235970</speed><course>76.408623</course><hAcc>0.879146</hAcc><vAcc>0.696313</vAcc></extensions></trkpt>
      <trkpt lon="-3.306662" lat="54.546740"><ele>117.300888</ele><time>2021-08-12T12:13:26Z</time><extensions><speed>1.224556</speed><course>79.439453</course><hAcc>0.878766</hAcc><vAcc>0.695181</vAcc></extensions></trkpt>
      <trkpt lon="-3.306657" lat="54.546751"><ele>117.197258</ele><time>2021-08-12T12:13:27Z</time><extensions><speed>1.214123</speed><course>75.300941</course><hAcc>0.878468</hAcc><vAcc>0.694227</vAcc></extensions></trkpt>
      <trkpt lon="-3.306652" lat="54.546762"><ele>117.094254</ele><time>2021-08-12T12:13:28Z</time><extensions><speed>1.205266</speed><course>76.126534</course><hAcc>0.878237</hAcc><vAcc>0.693438</vAcc></extensions></trkpt>
      <trkpt lon="-3.306648" lat="54.546772"><ele>116.990501</ele><time>2021-08-12T12:13:29Z</time><extensions><speed>1.199242</speed><course>75.233688</course><hAcc>0.878062</hAcc><vAcc>0.692808</vAcc></extensions></trkpt>
      <trkpt lon="-3.306644" lat="54.546783"><ele>116.885033</ele><time>2021-08-12T12:13:30Z</time><extensions><speed>1.197382</speed><course>81.891060</course><hAcc>0.877936</hAcc><vAcc>0.692334</vAcc></extensions></trkpt>
      <trkpt lon="-3.306641" lat="54.546793"><ele>116.777573</ele><time>2021-08-12T12:13:31Z</time><extensions><speed>1.200456</speed><course>78.263519</course><hAcc>0.877855</hAcc><vAcc>0.692021</vAcc></extensions></trkpt>
      <trkpt lon="-3.306638" lat="54.546804"><ele>116.668175</ele><time>2021-08-12T12:13:32Z</time><extensions><speed>1.208294</speed><course>74.907532</course><hAcc>0.877819</hAcc><vAcc>0.691879</vAcc></extensions></trkpt>
      <trkpt lon="-3.306634" lat="54.546815"><ele>116.556747</ele><time>2021-08-12T12:13:33Z</time><extensions><speed>1.220614</speed><course>84.941742</course><hAcc>0.877826</hAcc><vAcc>0.691913</vAcc></extensions></trkpt>
      <trkpt lon="-3.306631" lat="54.546825"><ele>116.443092</ele><time>2021-08-12T12:13:34Z</time><extensions><speed>1.237933</speed><course>73.584358</course><hAcc>0.877874</hAcc><vAcc>0.692120</vAcc></extensions></trkpt>
      <trkpt lon="-3.306627" lat="54.546836"><ele>116.326950</ele><time>2021-08-12T12:13:35Z</time><extensions><speed>1.260248</speed><course>96.346313</course><hAcc>0.877961</hAcc><vAcc>0.692483</vAcc></extensions></trkpt>
      <trkpt lon="-3.306623" lat="54.546848"><ele>116.207870</ele><time>2021-08-12T12:13:36Z</time><extensions><speed>1.286496</speed><course>87.208282</course><hAcc>0.878082</hAcc><vAcc>0.692985</vAcc></extensions></trkpt>
      <trkpt lon="-3.306619" lat="54.546859"><ele>116.085342</ele><time>2021-08-12T12:13:37Z</time><extensions><speed>1.315011</speed><course>71.034035</course><hAcc>0.878234</hAcc><vAcc>0.693604</vAcc></extensions></trkpt>
      <trkpt lon="-3.306614" lat="54.546871"><ele>115.959221</ele><time>2021-08-12T12:13:38Z</time><extensions><speed>1.344103</speed><course>74.315559</course><hAcc>0.878410</hAcc><vAcc>0.694314</vAcc></extensions></trkpt>
      <trkpt lon="-3.306609" lat="54.546882"><ele>115.830116</ele><time>2021-08-12T12:13:39Z</time><extensions><speed>1.372409</speed><course>82.074326</course><hAcc>0.878604</hAcc><vAcc>0.695084</vAcc></extensions></trkpt>
      <trkpt lon="-3.306603" lat="54.546894"><ele>115.699165</ele><time>2021-08-12T12:13:40Z</time><extensions><speed>1.398826</speed><course>78.798851</course><hAcc>0.878809</hAcc><vAcc>0.695888</vAcc></extensions></trkpt>
      <trkpt lon="-3.306597" lat="54.546907"><ele>115.567406</ele><time>2021-08-12T12:13:41Z</time><extensions><speed>1.422481</speed><course>71.049065</course><hAcc>0.879019</hAcc><vAcc>0.696703</vAcc></extensions></trkpt>
      <trkpt lon="-3.306590" lat="54.546919"><ele>115.435455</ele><time>2021-08-12T12:13:42Z</time><extensions><speed>1.442745</speed><course>66.417450</course><hAcc>0.879228</hAcc><vAcc>0.697507</vAcc></extensions></trkpt>
      <trkpt lon="-3.306583" lat="54.546931"><ele>115.303535</ele><time>2021-08-12T12:13:43Z</time><extensions><speed>1.459848</speed><course>67.881187</course><hAcc>0.879428</hAcc><vAcc>0.698281</vAcc></extensions></trkpt>
      <trkpt lon="-3.306576" lat="54.546944"><ele>115.171562</ele><time>2021-08-12T12:13:44Z</time><extensions><speed>1.474530</speed><course>73.946594</course><hAcc>0.879616</hAcc><vAcc>0.699003</vAcc></extensions></trkpt>
      <trkpt lon="-3.306569" lat="54.546956"><ele>115.039352</ele><time>2021-08-12T12:13:45Z</time><extensions><speed>1.487152</speed><course>66.868568</course><hAcc>0.879786</hAcc><vAcc>0.699658</vAcc></extensions></trkpt>
      <trkpt lon="-3.306562" lat="54.546969"><ele>114.906891</ele><time>2021-08-12T12:13:46Z</time><extensions><speed>1.497697</speed><course>57.370388</course><hAcc>0.879934</hAcc><vAcc>0.700232</vAcc></extensions></trkpt>
      <trkpt lon="-3.306554" lat="54.546982"><ele>114.774475</ele><time>2021-08-12T12:13:47Z</time><extensions><speed>1.506387</speed><course>72.859169</course><hAcc>0.880058</hAcc><vAcc>0.700711</vAcc></extensions></trkpt>
      <trkpt lon="-3.306546" lat="54.546995"><ele>114.642525</ele><time>2021-08-12T12:13:48Z</time><extensions><speed>1.513566</speed><course>73.476959</course><hAcc>0.880156</hAcc><vAcc>0.701083</vAcc></extensions></trkpt>
      <trkpt lon="-3.306537" lat="54.547007"><ele>114.511314</ele><time>2021-08-12T12:13:49Z</time><extensions><speed>1.519582</speed><course>70.985191</course><hAcc>0.880229</hAcc><vAcc>0.701342</vAcc></extensions></trkpt>
      <trkpt lon="-3.306528" lat="54.547020"><ele>114.381042</ele><time>2021-08-12T12:13:50Z</time><extensions><speed>1.524901</speed><course>67.094063</course><hAcc>0.880278</hAcc><vAcc>0.701485</vAcc></extensions></trkpt>
      <trkpt lon="-3.306519" lat="54.547033"><ele>114.252083</ele><time>2021-08-12T12:13:51Z</time><extensions><speed>1.530011</speed><course>63.802017</course><hAcc>0.880305</hAcc><vAcc>0.701521</vAcc></extensions></trkpt>
      <trkpt lon="-3.306509" lat="54.547045"><ele>114.124794</ele><time>2021-08-12T12:13:52Z</time><extensions><speed>1.535315</speed><course>59.738853</course><hAcc>0.880316</hAcc><vAcc>0.701471</vAcc></extensions></trkpt>
      <trkpt lon="-3.306499" lat="54.547058"><ele>113.999413</ele><time>2021-08-12T12:13:53Z</time><extensions><speed>1.541265</speed><course>64.752533</course><hAcc>0.880314</hAcc><vAcc>0.701367</vAcc></extensions></trkpt>
      <trkpt lon="-3.306488" lat="54.547070"><ele>113.876083</ele><time>2021-08-12T12:13:54Z</time><extensions><speed>1.547456</speed><course>62.678837</course><hAcc>0.880306</hAcc><vAcc>0.701243</vAcc></extensions></trkpt>
      <trkpt lon="-3.306477" lat="54.547082"><ele>113.754814</ele><time>2021-08-12T12:13:55Z</time><extensions><speed>1.552778</speed><course>67.622025</course><hAcc>0.880295</hAcc><vAcc>0.701132</vAcc></extensions></trkpt>
      <trkpt lon="-3.306465" lat="54.547094"><ele>113.635529</ele><time>2021-08-12T12:13:56Z</time><extensions><speed>1.556427</speed><course>76.998230</course><hAcc>0.880285</hAcc><vAcc>0.701057</vAcc></extensions></trkpt>
      <trkpt lon="-3.306453" lat="54.547107"><ele>113.518242</ele><time>2021-08-12T12:13:57Z</time><extensions><speed>1.557881</speed><course>71.279175</course><hAcc>0.880278</hAcc><vAcc>0.701032</vAcc></extensions></trkpt>
      <trkpt lon="-3.306441" lat="54.547119"><ele>113.403175</ele><time>2021-08-12T12:13:58Z</time><extensions><speed>1.556809</speed><course>66.215858</course><hAcc>0.880274</hAcc><vAcc>0.701057</vAcc></extensions></trkpt>
      <trkpt lon="-3.306429" lat="54.547131"><ele>113.290657</ele><time>2021-08-12T12:13:59Z</time><extensions><speed>1.553414</speed><course>65.869171</course><hAcc>0.880273</hAcc><vAcc>0.701120</vAcc></extensions></trkpt>
      <trkpt lon="-3.306416" lat="54.547142"><ele>113.180725</ele><time>2021-08-12T12:14:00Z</time><extensions><speed>1.548234</speed><course>67.480362</course><hAcc>0.880271</hAcc><vAcc>0.701196</vAcc></extensions></trkpt>
      <trkpt lon="-3.306403" lat="54.547154"><ele>113.073021</ele><time>2021-08-12T12:14:01Z</time><extensions><speed>1.541462</speed><course>62.467888</course><hAcc>0.880265</hAcc><vAcc>0.701259</vAcc></extensions></trkpt>
      <trkpt lon="-3.306391" lat="54.547166"><ele>112.966942</ele><time>2021-08-12T12:14:02Z</time><extensions><speed>1.533213</speed><course>57.403885</course><hAcc>0.880252</hAcc><vAcc>0.701285</vAcc></extensions></trkpt>
      <trkpt lon="-3.306378" lat="54.547177"><ele>112.862068</ele><time>2021-08-12T12:14:03Z</time><extensions><speed>1.523978</speed><course>56.104736</course><hAcc>0.880227</hAcc><vAcc>0.701253</vAcc></extensions></trkpt>
      <trkpt lon="-3.306365" lat="54.547189"><ele>112.758430</ele><time>2021-08-12T12:14:04Z</time><extensions><speed>1.514657</speed><course>57.135769</course><hAcc>0.880190</hAcc><vAcc>0.701146</vAcc></extensions></trkpt>
      <trkpt lon="-3.306353" lat="54.547200"><ele>112.656555</ele><time>2021-08-12T12:14:05Z</time><extensions><speed>1.506090</speed><course>59.466648</course><hAcc>0.880140</hAcc><vAcc>0.700956</vAcc></extensions></trkpt>
      <trkpt lon="-3.306340" lat="54.547212"><ele>112.557335</ele><time>2021-08-12T12:14:06Z</time><extensions><speed>1.498842</speed><course>56.466339</course><hAcc>0.880078</hAcc><vAcc>0.700687</vAcc></extensions></trkpt>
      <trkpt lon="-3.306328" lat="54.547223"><ele>112.462044</ele><time>2021-08-12T12:14:07Z</time><extensions><speed>1.493314</speed><course>61.082169</course><hAcc>0.880008</hAcc><vAcc>0.700354</vAcc></extensions></trkpt>
      <trkpt lon="-3.306316" lat="54.547235"><ele>112.372314</ele><time>2021-08-12T12:14:08Z</time><extensions><speed>1.490075</speed><course>63.000797</course><hAcc>0.879934</hAcc><vAcc>0.699984</vAcc></extensions></trkpt>
      <trkpt lon="-3.306304" lat="54.547246"><ele>112.289932</ele><time>2021-08-12T12:14:09Z</time><extensions><speed>1.489303</speed><course>58.373146</course><hAcc>0.879863</hAcc><vAcc>0.699614</vAcc></extensions></trkpt>
      <trkpt lon="-3.306292" lat="54.547257"><ele>112.216454</ele><time>2021-08-12T12:14:10Z</time><extensions><speed>1.490556</speed><course>59.591164</course><hAcc>0.879799</hAcc><vAcc>0.699284</vAcc></extensions></trkpt>
      <trkpt lon="-3.306279" lat="54.547269"><ele>112.152649</ele><time>2021-08-12T12:14:11Z</time><extensions><speed>1.493503</speed><course>56.078835</course><hAcc>0.879749</hAcc><vAcc>0.699032</vAcc></extensions></trkpt>
      <trkpt lon="-3.306267" lat="54.547280"><ele>112.098541</ele><time>2021-08-12T12:14:12Z</time><extensions><speed>1.497886</speed><course>61.452141</course><hAcc>0.879714</hAcc><vAcc>0.698882</vAcc></extensions></trkpt>
      <trkpt lon="-3.306254" lat="54.547291"><ele>112.053543</ele><time>2021-08-12T12:14:13Z</time><extensions><speed>1.503187</speed><course>62.349373</course><hAcc>0.879696</hAcc><vAcc>0.698849</vAcc></extensions></trkpt>
      <trkpt lon="-3.306241" lat="54.547302"><ele>112.016525</ele><time>2021-08-12T12:14:14Z</time><extensions><speed>1.508628</speed><course>67.502327</course><hAcc>0.879694</hAcc><vAcc>0.698928</vAcc></extensions></trkpt>
      <trkpt lon="-3.306227" lat="54.547313"><ele>111.985855</ele><time>2021-08-12T12:14:15Z</time><extensions><speed>1.513309</speed><course>65.148994</course><hAcc>0.879703</hAcc><vAcc>0.699098</vAcc></extensions></trkpt>
      <trkpt lon="-3.306212" lat="54.547324"><ele>111.959717</ele><time>2021-08-12T12:14:16Z</time><extensions><speed>1.516898</speed><course>61.604351</course><hAcc>0.879718</hAcc><vAcc>0.699317</vAcc></extensions></trkpt>
      <trkpt lon="-3.306198" lat="54.547335"><ele>111.936447</ele><time>2021-08-12T12:14:17Z</time><extensions><speed>1.519342</speed><course>67.356651</course><hAcc>0.879732</hAcc><vAcc>0.699535</vAcc></extensions></trkpt>
      <trkpt lon="-3.306182" lat="54.547345"><ele>111.914467</ele><time>2021-08-12T12:14:17Z</time><extensions><speed>1.520428</speed><course>56.187717</course><hAcc>0.879757</hAcc><vAcc>0.699719</vAcc></extensions></trkpt>
      <trkpt lon="-3.306167" lat="54.547355"><ele>111.891861</ele><time>2021-08-12T12:14:18Z</time><extensions><speed>1.520124</speed><course>56.273357</course><hAcc>0.879787</hAcc><vAcc>0.699836</vAcc></extensions></trkpt>
      <trkpt lon="-3.306151" lat="54.547365"><ele>111.866447</ele><time>2021-08-12T12:14:19Z</time><extensions><speed>1.519084</speed><course>59.042984</course><hAcc>0.879802</hAcc><vAcc>0.699859</vAcc></extensions></trkpt>
      <trkpt lon="-3.306135" lat="54.547375"><ele>111.835999</ele><time>2021-08-12T12:14:20Z</time><extensions><speed>1.518397</speed><course>46.754299</course><hAcc>0.879802</hAcc><vAcc>0.699787</vAcc></extensions></trkpt>
      <trkpt lon="-3.306120" lat="54.547385"><ele>111.798721</ele><time>2021-08-12T12:14:21Z</time><extensions><speed>1.518741</speed><course>46.754295</course><hAcc>0.879790</hAcc><vAcc>0.699639</vAcc></extensions></trkpt>
      <trkpt lon="-3.306103" lat="54.547395"><ele>111.753380</ele><time>2021-08-12T12:14:22Z</time><extensions><speed>1.520605</speed><course>46.754295</course><hAcc>0.879769</hAcc><vAcc>0.699447</vAcc></extensions></trkpt>
      <trkpt lon="-3.306087" lat="54.547405"><ele>111.699280</ele><time>2021-08-12T12:14:23Z</time><extensions><speed>1.524493</speed><course>46.754295</course><hAcc>0.879745</hAcc><vAcc>0.699248</vAcc></extensions></trkpt>
      <trkpt lon="-3.306071" lat="54.547415"><ele>111.636063</ele><time>2021-08-12T12:14:24Z</time><extensions><speed>1.530436</speed><course>46.754295</course><hAcc>0.879725</hAcc><vAcc>0.699080</vAcc></extensions></trkpt>
      <trkpt lon="-3.306055" lat="54.547425"><ele>111.563416</ele><time>2021-08-12T12:14:25Z</time><extensions><speed>1.538195</speed><course>46.754295</course><hAcc>0.879714</hAcc><vAcc>0.698969</vAcc></extensions></trkpt>
      <trkpt lon="-3.306039" lat="54.547436"><ele>111.481071</ele><time>2021-08-12T12:14:26Z</time><extensions><speed>1.547467</speed><course>46.754295</course><hAcc>0.879717</hAcc><vAcc>0.698934</vAcc></extensions></trkpt>
      <trkpt lon="-3.306022" lat="54.547446"><ele>111.389008</ele><time>2021-08-12T12:14:27Z</time><extensions><speed>1.557838</speed><course>46.754292</course><hAcc>0.879738</hAcc><vAcc>0.698990</vAcc></extensions></trkpt>
      <trkpt lon="-3.306006" lat="54.547456"><ele>111.287643</ele><time>2021-08-12T12:14:28Z</time><extensions><speed>1.568860</speed><course>46.754295</course><hAcc>0.879781</hAcc><vAcc>0.699147</vAcc></extensions></trkpt>
      <trkpt lon="-3.305990" lat="54.547467"><ele>111.177765</ele><time>2021-08-12T12:14:29Z</time><extensions><speed>1.579600</speed><course>86.257805</course><hAcc>0.879845</hAcc><vAcc>0.699406</vAcc></extensions></trkpt>
      <trkpt lon="-3.305973" lat="54.547477"><ele>111.060127</ele><time>2021-08-12T12:14:30Z</time><extensions><speed>1.589905</speed><course>92.864906</course><hAcc>0.879931</hAcc><vAcc>0.699756</vAcc></extensions></trkpt>
      <trkpt lon="-3.305956" lat="54.547488"><ele>110.935440</ele><time>2021-08-12T12:14:31Z</time><extensions><speed>1.600150</speed><course>94.458534</course><hAcc>0.880036</hAcc><vAcc>0.700181</vAcc></extensions></trkpt>
      <trkpt lon="-3.305940" lat="54.547498"><ele>110.804634</ele><time>2021-08-12T12:14:32Z</time><extensions><speed>1.609779</speed><course>89.165138</course><hAcc>0.880157</hAcc><vAcc>0.700664</vAcc></extensions></trkpt>
      <trkpt lon="-3.305923" lat="54.547509"><ele>110.668861</ele><time>2021-08-12T12:14:33Z</time><extensions><speed>1.617757</speed><course>98.187202</course><hAcc>0.880291</hAcc><vAcc>0.701194</vAcc></extensions></trkpt>
      <trkpt lon="-3.305906" lat="54.547520"><ele>110.529518</ele><time>2021-08-12T12:14:34Z</time><extensions><speed>1.622980</speed><course>262.094696</course><hAcc>0.880434</hAcc><vAcc>0.701755</vAcc></extensions></trkpt>
      <trkpt lon="-3.305889" lat="54.547531"><ele>110.388519</ele><time>2021-08-12T12:14:35Z</time><extensions><speed>1.624855</speed><course>273.339569</course><hAcc>0.880580</hAcc><vAcc>0.702327</vAcc></extensions></trkpt>
      <trkpt lon="-3.305873" lat="54.547542"><ele>110.247986</ele><time>2021-08-12T12:14:36Z</time><extensions><speed>1.622987</speed><course>270.133057</course><hAcc>0.880724</hAcc><vAcc>0.702891</vAcc></extensions></trkpt>
      <trkpt lon="-3.305856" lat="54.547553"><ele>110.109795</ele><time>2021-08-12T12:14:37Z</time><extensions><speed>1.616941</speed><course>264.401459</course><hAcc>0.880863</hAcc><vAcc>0.703430</vAcc></extensions></trkpt>
      <trkpt lon="-3.305840" lat="54.547564"><ele>109.975418</ele><time>2021-08-12T12:14:38Z</time><extensions><speed>1.606658</speed><course>271.206299</course><hAcc>0.880990</hAcc><vAcc>0.703927</vAcc></extensions></trkpt>
      <trkpt lon="-3.305824" lat="54.547575"><ele>109.845947</ele><time>2021-08-12T12:14:39Z</time><extensions><speed>1.592305</speed><course>270.479279</course><hAcc>0.881102</hAcc><vAcc>0.704367</vAcc></extensions></trkpt>
      <trkpt lon="-3.305809" lat="54.547586"><ele>109.721962</ele><time>2021-08-12T12:14:40Z</time><extensions><speed>1.574077</speed><course>270.479279</course><hAcc>0.881193</hAcc><vAcc>0.704735</vAcc></extensions></trkpt>
      <trkpt lon="-3.305794" lat="54.547597"><ele>109.603447</ele><time>2021-08-12T12:14:41Z</time><extensions><speed>1.552244</speed><course>270.479279</course><hAcc>0.881259</hAcc><vAcc>0.705015</vAcc></extensions></trkpt>
      <trkpt lon="-3.305779" lat="54.547607"><ele>109.490288</ele><time>2021-08-12T12:14:42Z</time><extensions><speed>1.526816</speed><course>92.836548</course><hAcc>0.881296</hAcc><vAcc>0.705191</vAcc></extensions></trkpt>
      <trkpt lon="-3.305764" lat="54.547618"><ele>109.382515</ele><time>2021-08-12T12:14:43Z</time><extensions><speed>1.497631</speed><course>91.847809</course><hAcc>0.881299</hAcc><vAcc>0.705247</vAcc></extensions></trkpt>
      <trkpt lon="-3.305750" lat="54.547629"><ele>109.280113</ele><time>2021-08-12T12:14:44Z</time><extensions><speed>1.464759</speed><course>96.972961</course><hAcc>0.881266</hAcc><vAcc>0.705170</vAcc></extensions></trkpt>
      <trkpt lon="-3.305737" lat="54.547639"><ele>109.182922</ele><time>2021-08-12T12:14:45Z</time><extensions><speed>1.428311</speed><course>101.432434</course><hAcc>0.881192</hAcc><vAcc>0.704944</vAcc></extensions></trkpt>
      <trkpt lon="-3.305724" lat="54.547649"><ele>109.090508</ele><time>2021-08-12T12:14:46Z</time><extensions><speed>1.388402</speed><course>89.921867</course><hAcc>0.881075</hAcc><vAcc>0.704560</vAcc></extensions></trkpt>
      <trkpt lon="-3.305711" lat="54.547659"><ele>109.002266</ele><time>2021-08-12T12:14:47Z</time><extensions><speed>1.345321</speed><course>79.468422</course><hAcc>0.880913</hAcc><vAcc>0.704012</vAcc></extensions></trkpt>
      <trkpt lon="-3.305699" lat="54.547668"><ele>108.917625</ele><time>2021-08-12T12:14:48Z</time><extensions><speed>1.299407</speed><course>79.668663</course><hAcc>0.880706</hAcc><vAcc>0.703297</vAcc></extensions></trkpt>
      <trkpt lon="-3.305687" lat="54.547678"><ele>108.835907</ele><time>2021-08-12T12:14:49Z</time><extensions><speed>1.251505</speed><course>70.198914</course><hAcc>0.880455</hAcc><vAcc>0.702413</vAcc></extensions></trkpt>
      <trkpt lon="-3.305676" lat="54.547687"><ele>108.756218</ele><time>2021-08-12T12:14:50Z</time><extensions><speed>1.203137</speed><course>85.811096</course><hAcc>0.880163</hAcc><vAcc>0.701356</vAcc></extensions></trkpt>
      <trkpt lon="-3.305666" lat="54.547695"><ele>108.677628</ele><time>2021-08-12T12:14:51Z</time><extensions><speed>1.155729</speed><course>87.515213</course><hAcc>0.879835</hAcc><vAcc>0.700127</vAcc></extensions></trkpt>
      <trkpt lon="-3.305657" lat="54.547704"><ele>108.599365</ele><time>2021-08-12T12:14:52Z</time><extensions><speed>1.110136</speed><course>86.802406</course><hAcc>0.879478</hAcc><vAcc>0.698750</vAcc></extensions></trkpt>
      <trkpt lon="-3.305648" lat="54.547712"><ele>108.521004</ele><time>2021-08-12T12:14:53Z</time><extensions><speed>1.066538</speed><course>85.424927</course><hAcc>0.879100</hAcc><vAcc>0.697261</vAcc></extensions></trkpt>
      <trkpt lon="-3.305639" lat="54.547720"><ele>108.442520</ele><time>2021-08-12T12:14:54Z</time><extensions><speed>1.024707</speed><course>88.911957</course><hAcc>0.878709</hAcc><vAcc>0.695714</vAcc></extensions></trkpt>
      <trkpt lon="-3.305631" lat="54.547728"><ele>108.364029</ele><time>2021-08-12T12:14:55Z</time><extensions><speed>0.984291</speed><course>93.027184</course><hAcc>0.878317</hAcc><vAcc>0.694161</vAcc></extensions></trkpt>
      <trkpt lon="-3.305624" lat="54.547736"><ele>108.285599</ele><time>2021-08-12T12:14:56Z</time><extensions><speed>0.945018</speed><course>90.763535</course><hAcc>0.877931</hAcc><vAcc>0.692654</vAcc></extensions></trkpt>
      <trkpt lon="-3.305617" lat="54.547743"><ele>108.207268</ele><time>2021-08-12T12:14:57Z</time><extensions><speed>0.907014</speed><course>83.392509</course><hAcc>0.877559</hAcc><vAcc>0.691233</vAcc></extensions></trkpt>
      <trkpt lon="-3.305611" lat="54.547750"><ele>108.129005</ele><time>2021-08-12T12:14:58Z</time><extensions><speed>0.871346</speed><course>57.334152</course><hAcc>0.877204</hAcc><vAcc>0.689926</vAcc></extensions></trkpt>
      <trkpt lon="-3.305605" lat="54.547757"><ele>108.050751</ele><time>2021-08-12T12:14:59Z</time><extensions><speed>0.839879</speed><course>29.254333</course><hAcc>0.876869</hAcc><vAcc>0.688738</vAcc></extensions></trkpt>
      <trkpt lon="-3.305600" lat="54.547764"><ele>107.972305</ele><time>2021-08-12T12:15:00Z</time><extensions><speed>0.814804</speed><course>29.254333</course><hAcc>0.876551</hAcc><vAcc>0.687657</vAcc></extensions></trkpt>
      <trkpt lon="-3.305596" lat="54.547770"><ele>107.893486</ele><time>2021-08-12T12:15:01Z</time><extensions><speed>0.798606</speed><course>29.254333</course><hAcc>0.876244</hAcc><vAcc>0.686650</vAcc></extensions></trkpt>
      <trkpt lon="-3.305592" lat="54.547777"><ele>107.814133</ele><time>2021-08-12T12:15:02Z</time><extensions><speed>0.793783</speed><course>29.254332</course><hAcc>0.875942</hAcc><vAcc>0.685676</vAcc></extensions></trkpt>
      <trkpt lon="-3.305588" lat="54.547784"><ele>107.734039</ele><time>2021-08-12T12:15:03Z</time><extensions><speed>0.801420</speed><course>29.254333</course><hAcc>0.875637</hAcc><vAcc>0.684693</vAcc></extensions></trkpt>
      <trkpt lon="-3.305585" lat="54.547791"><ele>107.653038</ele><time>2021-08-12T12:15:04Z</time><extensions><speed>0.820885</speed><course>29.254332</course><hAcc>0.875324</hAcc><vAcc>0.683661</vAcc></extensions></trkpt>
      <trkpt lon="-3.305583" lat="54.547799"><ele>107.571091</ele><time>2021-08-12T12:15:05Z</time><extensions><speed>0.850358</speed><course>29.254332</course><hAcc>0.874999</hAcc><vAcc>0.682556</vAcc></extensions></trkpt>
      <trkpt lon="-3.305580" lat="54.547806"><ele>107.488457</ele><time>2021-08-12T12:15:06Z</time><extensions><speed>0.887075</speed><course>29.254333</course><hAcc>0.874662</hAcc><vAcc>0.681369</vAcc></extensions></trkpt>
      <trkpt lon="-3.305578" lat="54.547814"><ele>107.405670</ele><time>2021-08-12T12:15:07Z</time><extensions><speed>0.928645</speed><course>29.254333</course><hAcc>0.874317</hAcc><vAcc>0.680116</vAcc></extensions></trkpt>
      <trkpt lon="-3.305577" lat="54.547823"><ele>107.323486</ele><time>2021-08-12T12:15:08Z</time><extensions><speed>0.973238</speed><course>29.254332</course><hAcc>0.873973</hAcc><vAcc>0.678829</vAcc></extensions></trkpt>
      <trkpt lon="-3.305576" lat="54.547832"><ele>107.242599</ele><time>2021-08-12T12:15:09Z</time><extensions><speed>1.018901</speed><course>29.254333</course><hAcc>0.873643</hAcc><vAcc>0.677560</vAcc></extensions></trkpt>
      <trkpt lon="-3.305575" lat="54.547841"><ele>107.163689</ele><time>2021-08-12T12:15:10Z</time><extensions><speed>1.063907</speed><course>29.254337</course><hAcc>0.873344</hAcc><vAcc>0.676379</vAcc></extensions></trkpt>
      <trkpt lon="-3.305575" lat="54.547851"><ele>107.087463</ele><time>2021-08-12T12:15:11Z</time><extensions><speed>1.106738</speed><course>29.254337</course><hAcc>0.873095</hAcc><vAcc>0.675378</vAcc></extensions></trkpt>
      <trkpt lon="-3.305575" lat="54.547861"><ele>107.014549</ele><time>2021-08-12T12:15:12Z</time><extensions><speed>1.145898</speed><course>29.254339</course><hAcc>0.872919</hAcc><vAcc>0.674666</vAcc></extensions></trkpt>
      <trkpt lon="-3.305575" lat="54.547871"><ele>106.945274</ele><time>2021-08-12T12:15:13Z</time><extensions><speed>1.179836</speed><course>29.254337</course><hAcc>0.872835</hAcc><vAcc>0.674341</vAcc></extensions></trkpt>
      <trkpt lon="-3.305576" lat="54.547882"><ele>106.879738</ele><time>2021-08-12T12:15:14Z</time><extensions><speed>1.207043</speed><course>29.254339</course><hAcc>0.872848</hAcc><vAcc>0.674431</vAcc></extensions></trkpt>
      <trkpt lon="-3.305577" lat="54.547893"><ele>106.817894</ele><time>2021-08-12T12:15:15Z</time><extensions><speed>1.226220</speed><course>353.139893</course><hAcc>0.872947</hAcc><vAcc>0.674872</vAcc></extensions></trkpt>
      <trkpt lon="-3.305578" lat="54.547904"><ele>106.759666</ele><time>2021-08-12T12:15:16Z</time><extensions><speed>1.236371</speed><course>-1.000000</course><hAcc>0.873113</hAcc><vAcc>0.675566</vAcc></extensions></trkpt>
      <trkpt lon="-3.305579" lat="54.547915"><ele>106.704987</ele><time>2021-08-12T12:15:17Z</time><extensions><speed>1.237276</speed><course>-1.000000</course><hAcc>0.873327</hAcc><vAcc>0.676414</vAcc></extensions></trkpt>
      <trkpt lon="-3.305581" lat="54.547926"><ele>106.654167</ele><time>2021-08-12T12:15:18Z</time><extensions><speed>1.229360</speed><course>-1.000000</course><hAcc>0.873569</hAcc><vAcc>0.677328</vAcc></extensions></trkpt>
      <trkpt lon="-3.305583" lat="54.547937"><ele>106.608070</ele><time>2021-08-12T12:15:19Z</time><extensions><speed>1.213728</speed><course>-1.000000</course><hAcc>0.873825</hAcc><vAcc>0.678251</vAcc></extensions></trkpt>
      <trkpt lon="-3.305585" lat="54.547948"><ele>106.567764</ele><time>2021-08-12T12:15:20Z</time><extensions><speed>1.191440</speed><course>-1.000000</course><hAcc>0.874082</hAcc><vAcc>0.679159</vAcc></extensions></trkpt>
      <trkpt lon="-3.305588" lat="54.547958"><ele>106.534340</ele><time>2021-08-12T12:15:21Z</time><extensions><speed>1.163468</speed><course>-1.000000</course><hAcc>0.874333</hAcc><vAcc>0.680041</vAcc></extensions></trkpt>
      <trkpt lon="-3.305591" lat="54.547968"><ele>106.509193</ele><time>2021-08-12T12:15:22Z</time><extensions><speed>1.131408</speed><course>-1.000000</course><hAcc>0.874572</hAcc><vAcc>0.680888</vAcc></extensions></trkpt>
      <trkpt lon="-3.305594" lat="54.547978"><ele>106.493835</ele><time>2021-08-12T12:15:23Z</time><extensions><speed>1.097317</speed><course>-1.000000</course><hAcc>0.874792</hAcc><vAcc>0.681690</vAcc></extensions></trkpt>
      <trkpt lon="-3.305598" lat="54.547988"><ele>106.489502</ele><time>2021-08-12T12:15:24Z</time><extensions><speed>1.062963</speed><course>-1.000000</course><hAcc>0.874991</hAcc><vAcc>0.682433</vAcc></extensions></trkpt>
      <trkpt lon="-3.305603" lat="54.547997"><ele>106.496490</ele><time>2021-08-12T12:15:25Z</time><extensions><speed>1.028895</speed><course>-1.000000</course><hAcc>0.875165</hAcc><vAcc>0.683097</vAcc></extensions></trkpt>
      <trkpt lon="-3.305607" lat="54.548005"><ele>106.514267</ele><time>2021-08-12T12:15:26Z</time><extensions><speed>0.995888</speed><course>-1.000000</course><hAcc>0.875311</hAcc><vAcc>0.683657</vAcc></extensions></trkpt>
      <trkpt lon="-3.305612" lat="54.548014"><ele>106.542137</ele><time>2021-08-12T12:15:27Z</time><extensions><speed>0.965403</speed><course>74.830536</course><hAcc>0.875428</hAcc><vAcc>0.684090</vAcc></extensions></trkpt>
      <trkpt lon="-3.305618" lat="54.548022"><ele>106.579079</ele><time>2021-08-12T12:15:28Z</time><extensions><speed>0.938831</speed><course>62.161198</course><hAcc>0.875518</hAcc><vAcc>0.684386</vAcc></extensions></trkpt>
      <trkpt lon="-3.305623" lat="54.548029"><ele>106.623436</ele><time>2021-08-12T12:15:29Z</time><extensions><speed>0.917346</speed><course>66.043793</course><hAcc>0.875587</hAcc><vAcc>0.684558</vAcc></extensions></trkpt>
      <trkpt lon="-3.305629" lat="54.548037"><ele>106.673271</ele><time>2021-08-12T12:15:30Z</time><extensions><speed>0.901544</speed><course>75.803009</course><hAcc>0.875644</hAcc><vAcc>0.684644</vAcc></extensions></trkpt>
      <trkpt lon="-3.305635" lat="54.548044"><ele>106.726875</ele><time>2021-08-12T12:15:31Z</time><extensions><speed>0.892343</speed><course>76.191063</course><hAcc>0.875700</hAcc><vAcc>0.684699</vAcc></extensions></trkpt>
      <trkpt lon="-3.305642" lat="54.548051"><ele>106.782700</ele><time>2021-08-12T12:15:32Z</time><extensions><speed>0.891047</speed><course>76.349960</course><hAcc>0.875769</hAcc><vAcc>0.684795</vAcc></extensions></trkpt>
      <trkpt lon="-3.305649" lat="54.548058"><ele>106.839455</ele><time>2021-08-12T12:15:33Z</time><extensions><speed>0.898824</speed><course>78.477806</course><hAcc>0.875864</hAcc><vAcc>0.685004</vAcc></extensions></trkpt>
      <trkpt lon="-3.305656" lat="54.548065"><ele>106.896751</ele><time>2021-08-12T12:15:34Z</time><extensions><speed>0.915816</speed><course>75.070290</course><hAcc>0.875998</hAcc><vAcc>0.685394</vAcc></extensions></trkpt>
      <trkpt lon="-3.305664" lat="54.548072"><ele>106.955002</ele><time>2021-08-12T12:15:35Z</time><extensions><speed>0.940303</speed><course>69.086029</course><hAcc>0.876177</hAcc><vAcc>0.686016</vAcc></extensions></trkpt>
      <trkpt lon="-3.305673" lat="54.548079"><ele>107.014954</ele><time>2021-08-12T12:15:36Z</time><extensions><speed>0.969772</speed><course>68.949226</course><hAcc>0.876406</hAcc><vAcc>0.686893</vAcc></extensions></trkpt>
      <trkpt lon="-3.305681" lat="54.548086"><ele>107.077400</ele><time>2021-08-12T12:15:37Z</time><extensions><speed>1.001200</speed><course>71.686111</course><hAcc>0.876680</hAcc><vAcc>0.688015</vAcc></extensions></trkpt>
      <trkpt lon="-3.305690" lat="54.548094"><ele>107.142838</ele><time>2021-08-12T12:15:38Z</time><extensions><speed>1.030853</speed><course>76.597496</course><hAcc>0.876989</hAcc><vAcc>0.689329</vAcc></extensions></trkpt>
      <trkpt lon="-3.305699" lat="54.548101"><ele>107.211151</ele><time>2021-08-12T12:15:39Z</time><extensions><speed>1.056511</speed><course>90.005066</course><hAcc>0.877318</hAcc><vAcc>0.690754</vAcc></extensions></trkpt>
      <trkpt lon="-3.305708" lat="54.548109"><ele>107.281563</ele><time>2021-08-12T12:15:40Z</time><extensions><speed>1.077625</speed><course>83.948074</course><hAcc>0.877649</hAcc><vAcc>0.692193</vAcc></extensions></trkpt>
      <trkpt lon="-3.305717" lat="54.548118"><ele>107.352898</ele><time>2021-08-12T12:15:41Z</time><extensions><speed>1.094308</speed><course>76.996796</course><hAcc>0.877966</hAcc><vAcc>0.693547</vAcc></extensions></trkpt>
      <trkpt lon="-3.305725" lat="54.548127"><ele>107.423775</ele><time>2021-08-12T12:15:42Z</time><extensions><speed>1.108498</speed><course>79.507355</course><hAcc>0.878251</hAcc><vAcc>0.694727</vAcc></extensions></trkpt>
      <trkpt lon="-3.305732" lat="54.548136"><ele>107.492889</ele><time>2021-08-12T12:15:43Z</time><extensions><speed>1.122801</speed><course>72.096832</course><hAcc>0.878491</hAcc><vAcc>0.695664</vAcc></extensions></trkpt>
      <trkpt lon="-3.305738" lat="54.548145"><ele>107.559273</ele><time>2021-08-12T12:15:44Z</time><extensions><speed>1.139568</speed><course>80.368279</course><hAcc>0.878680</hAcc><vAcc>0.696324</vAcc></extensions></trkpt>
      <trkpt lon="-3.305743" lat="54.548155"><ele>107.622498</ele><time>2021-08-12T12:15:45Z</time><extensions><speed>1.161015</speed><course>78.982643</course><hAcc>0.878815</hAcc><vAcc>0.696707</vAcc></extensions></trkpt>
      <trkpt lon="-3.305747" lat="54.548165"><ele>107.682487</ele><time>2021-08-12T12:15:46Z</time><extensions><speed>1.188087</speed><course>81.075706</course><hAcc>0.878899</hAcc><vAcc>0.696845</vAcc></extensions></trkpt>
      <trkpt lon="-3.305750" lat="54.548176"><ele>107.739182</ele><time>2021-08-12T12:15:47Z</time><extensions><speed>1.220254</speed><course>81.007790</course><hAcc>0.878938</hAcc><vAcc>0.696790</vAcc></extensions></trkpt>
      <trkpt lon="-3.305752" lat="54.548187"><ele>107.792549</ele><time>2021-08-12T12:15:48Z</time><extensions><speed>1.255458</speed><course>78.272133</course><hAcc>0.878945</hAcc><vAcc>0.696603</vAcc></extensions></trkpt>
      <trkpt lon="-3.305752" lat="54.548199"><ele>107.842514</ele><time>2021-08-12T12:15:49Z</time><extensions><speed>1.290988</speed><course>73.069588</course><hAcc>0.878932</hAcc><vAcc>0.696354</vAcc></extensions></trkpt>
      <trkpt lon="-3.305752" lat="54.548210"><ele>107.888924</ele><time>2021-08-12T12:15:50Z</time><extensions><speed>1.324660</speed><course>77.189682</course><hAcc>0.878913</hAcc><vAcc>0.696111</vAcc></extensions></trkpt>
      <trkpt lon="-3.305752" lat="54.548222"><ele>107.932014</ele><time>2021-08-12T12:15:51Z</time><extensions><speed>1.354749</speed><course>75.197517</course><hAcc>0.878901</hAcc><vAcc>0.695939</vAcc></extensions></trkpt>
      <trkpt lon="-3.305751" lat="54.548235"><ele>107.972420</ele><time>2021-08-12T12:15:52Z</time><extensions><speed>1.380024</speed><course>67.733307</course><hAcc>0.878906</hAcc><vAcc>0.695891</vAcc></extensions></trkpt>
      <trkpt lon="-3.305750" lat="54.548247"><ele>108.010742</ele><time>2021-08-12T12:15:53Z</time><extensions><speed>1.399443</speed><course>69.123688</course><hAcc>0.878935</hAcc><vAcc>0.695994</vAcc></extensions></trkpt>
      <trkpt lon="-3.305749" lat="54.548260"><ele>108.047447</ele><time>2021-08-12T12:15:54Z</time><extensions><speed>1.412425</speed><course>71.299400</course><hAcc>0.878993</hAcc><vAcc>0.696253</vAcc></extensions></trkpt>
      <trkpt lon="-3.305748" lat="54.548272"><ele>108.083023</ele><time>2021-08-12T12:15:55Z</time><extensions><speed>1.419385</speed><course>77.479210</course><hAcc>0.879077</hAcc><vAcc>0.696646</vAcc></extensions></trkpt>
      <trkpt lon="-3.305748" lat="54.548285"><ele>108.117966</ele><time>2021-08-12T12:15:56Z</time><extensions><speed>1.421608</speed><course>68.623329</course><hAcc>0.879185</hAcc><vAcc>0.697136</vAcc></extensions></trkpt>
      <trkpt lon="-3.305748" lat="54.548298"><ele>108.152779</ele><time>2021-08-12T12:15:57Z</time><extensions><speed>1.420635</speed><course>63.866425</course><hAcc>0.879312</hAcc><vAcc>0.697684</vAcc></extensions></trkpt>
      <trkpt lon="-3.305749" lat="54.548311"><ele>108.187668</ele><time>2021-08-12T12:15:58Z</time><extensions><speed>1.417670</speed><course>76.291603</course><hAcc>0.879449</hAcc><vAcc>0.698257</vAcc></extensions></trkpt>
      <trkpt lon="-3.305750" lat="54.548323"><ele>108.222054</ele><time>2021-08-12T12:15:59Z</time><extensions><speed>1.413441</speed><course>71.777351</course><hAcc>0.879592</hAcc><vAcc>0.698833</vAcc></extensions></trkpt>
      <trkpt lon="-3.305752" lat="54.548336"><ele>108.254555</ele><time>2021-08-12T12:16:00Z</time><extensions><speed>1.407973</speed><course>76.476341</course><hAcc>0.879734</hAcc><vAcc>0.699393</vAcc></extensions></trkpt>
      <trkpt lon="-3.305755" lat="54.548349"><ele>108.283524</ele><time>2021-08-12T12:16:01Z</time><extensions><speed>1.400770</speed><course>63.346680</course><hAcc>0.879869</hAcc><vAcc>0.699920</vAcc></extensions></trkpt>
      <trkpt lon="-3.305758" lat="54.548361"><ele>108.307327</ele><time>2021-08-12T12:16:02Z</time><extensions><speed>1.391874</speed><course>60.883244</course><hAcc>0.879993</hAcc><vAcc>0.700394</vAcc></extensions></trkpt>
      <trkpt lon="-3.305761" lat="54.548373"><ele>108.324379</ele><time>2021-08-12T12:16:03Z</time><extensions><speed>1.381763</speed><course>66.100471</course><hAcc>0.880103</hAcc><vAcc>0.700798</vAcc></extensions></trkpt>
      <trkpt lon="-3.305765" lat="54.548385"><ele>108.333115</ele><time>2021-08-12T12:16:04Z</time><extensions><speed>1.370732</speed><course>66.284729</course><hAcc>0.880197</hAcc><vAcc>0.701127</vAcc></extensions></trkpt>
      <trkpt lon="-3.305769" lat="54.548397"><ele>108.332413</ele><time>2021-08-12T12:16:05Z</time><extensions><speed>1.358688</speed><course>70.183884</course><hAcc>0.880273</hAcc><vAcc>0.701386</vAcc></extensions></trkpt>
      <trkpt lon="-3.305774" lat="54.548409"><ele>108.321716</ele><time>2021-08-12T12:16:06Z</time><extensions><speed>1.345535</speed><course>69.091454</course><hAcc>0.880333</hAcc><vAcc>0.701587</vAcc></extensions></trkpt>
      <trkpt lon="-3.305779" lat="54.548421"><ele>108.300735</ele><time>2021-08-12T12:16:07Z</time><extensions><speed>1.331842</speed><course>67.595528</course><hAcc>0.880378</hAcc><vAcc>0.701738</vAcc></extensions></trkpt>
      <trkpt lon="-3.305784" lat="54.548432"><ele>108.269157</ele><time>2021-08-12T12:16:08Z</time><extensions><speed>1.318244</speed><course>69.079941</course><hAcc>0.880411</hAcc><vAcc>0.701844</vAcc></extensions></trkpt>
      <trkpt lon="-3.305789" lat="54.548444"><ele>108.226982</ele><time>2021-08-12T12:16:09Z</time><extensions><speed>1.305457</speed><course>67.638985</course><hAcc>0.880437</hAcc><vAcc>0.701906</vAcc></extensions></trkpt>
      <trkpt lon="-3.305795" lat="54.548455"><ele>108.174805</ele><time>2021-08-12T12:16:10Z</time><extensions><speed>1.294264</speed><course>67.902077</course><hAcc>0.880459</hAcc><vAcc>0.701930</vAcc></extensions></trkpt>
      <trkpt lon="-3.305801" lat="54.548466"><ele>108.114067</ele><time>2021-08-12T12:16:11Z</time><extensions><speed>1.285085</speed><course>68.213737</course><hAcc>0.880484</hAcc><vAcc>0.701931</vAcc></extensions></trkpt>
      <trkpt lon="-3.305808" lat="54.548477"><ele>108.047005</ele><time>2021-08-12T12:16:12Z</time><extensions><speed>1.278149</speed><course>58.646133</course><hAcc>0.880517</hAcc><vAcc>0.701941</vAcc></extensions></trkpt>
      <trkpt lon="-3.305815" lat="54.548488"><ele>107.976097</ele><time>2021-08-12T12:16:13Z</time><extensions><speed>1.273873</speed><course>60.787758</course><hAcc>0.880562</hAcc><vAcc>0.702001</vAcc></extensions></trkpt>
      <trkpt lon="-3.305822" lat="54.548498"><ele>107.904022</ele><time>2021-08-12T12:16:14Z</time><extensions><speed>1.272600</speed><course>59.107254</course><hAcc>0.880625</hAcc><vAcc>0.702151</vAcc></extensions></trkpt>
      <trkpt lon="-3.305831" lat="54.548509"><ele>107.833923</ele><time>2021-08-12T12:16:15Z</time><extensions><speed>1.273932</speed><course>59.308796</course><hAcc>0.880707</hAcc><vAcc>0.702423</vAcc></extensions></trkpt>
      <trkpt lon="-3.305839" lat="54.548519"><ele>107.769218</ele><time>2021-08-12T12:16:16Z</time><extensions><speed>1.276235</speed><course>63.536522</course><hAcc>0.880808</hAcc><vAcc>0.702825</vAcc></extensions></trkpt>
      <trkpt lon="-3.305849" lat="54.548529"><ele>107.712631</ele><time>2021-08-12T12:16:17Z</time><extensions><speed>1.277189</speed><course>64.110619</course><hAcc>0.880925</hAcc><vAcc>0.703339</vAcc></extensions></trkpt>
      <trkpt lon="-3.305859" lat="54.548539"><ele>107.665718</ele><time>2021-08-12T12:16:18Z</time><extensions><speed>1.275094</speed><course>57.783936</course><hAcc>0.881053</hAcc><vAcc>0.703927</vAcc></extensions></trkpt>
      <trkpt lon="-3.305869" lat="54.548548"><ele>107.629211</ele><time>2021-08-12T12:16:19Z</time><extensions><speed>1.268762</speed><course>62.673740</course><hAcc>0.881184</hAcc><vAcc>0.704532</vAcc></extensions></trkpt>
      <trkpt lon="-3.305879" lat="54.548558"><ele>107.603165</ele><time>2021-08-12T12:16:20Z</time><extensions><speed>1.257508</speed><course>68.268181</course><hAcc>0.881310</hAcc><vAcc>0.705100</vAcc></extensions></trkpt>
      <trkpt lon="-3.305890" lat="54.548568"><ele>107.587059</ele><time>2021-08-12T12:16:21Z</time><extensions><speed>1.241665</speed><course>59.735432</course><hAcc>0.881420</hAcc><vAcc>0.705587</vAcc></extensions></trkpt>
      <trkpt lon="-3.305900" lat="54.548577"><ele>107.579880</ele><time>2021-08-12T12:16:23Z</time><extensions><speed>1.222281</speed><course>59.192490</course><hAcc>0.881488</hAcc><vAcc>0.705943</vAcc></extensions></trkpt>
      <trkpt lon="-3.305909" lat="54.548586"><ele>107.580246</ele><time>2021-08-12T12:16:24Z</time><extensions><speed>1.201058</speed><course>60.825825</course><hAcc>0.881503</hAcc><vAcc>0.706133</vAcc></extensions></trkpt>
      <trkpt lon="-3.305918" lat="54.548596"><ele>107.586624</ele><time>2021-08-12T12:16:25Z</time><extensions><speed>1.180284</speed><course>62.921200</course><hAcc>0.881476</hAcc><vAcc>0.706139</vAcc></extensions></trkpt>
      <trkpt lon="-3.305927" lat="54.548605"><ele>107.597801</ele><time>2021-08-12T12:16:26Z</time><extensions><speed>1.162427</speed><course>59.145714</course><hAcc>0.881400</hAcc><vAcc>0.705939</vAcc></extensions></trkpt>
      <trkpt lon="-3.305934" lat="54.548614"><ele>107.613205</ele><time>2021-08-12T12:16:27Z</time><extensions><speed>1.149657</speed><course>54.852036</course><hAcc>0.881270</hAcc><vAcc>0.705522</vAcc></extensions></trkpt>
      <trkpt lon="-3.305940" lat="54.548624"><ele>107.632767</ele><time>2021-08-12T12:16:28Z</time><extensions><speed>1.143028</speed><course>52.958679</course><hAcc>0.881084</hAcc><vAcc>0.704889</vAcc></extensions></trkpt>
      <trkpt lon="-3.305946" lat="54.548634"><ele>107.656555</ele><time>2021-08-12T12:16:28Z</time><extensions><speed>1.142945</speed><course>51.642593</course><hAcc>0.880862</hAcc><vAcc>0.704061</vAcc></extensions></trkpt>
      <trkpt lon="-3.305950" lat="54.548644"><ele>107.684593</ele><time>2021-08-12T12:16:29Z</time><extensions><speed>1.149187</speed><course>50.915668</course><hAcc>0.880607</hAcc><vAcc>0.703052</vAcc></extensions></trkpt>
      <trkpt lon="-3.305954" lat="54.548654"><ele>107.716766</ele><time>2021-08-12T12:16:30Z</time><extensions><speed>1.161089</speed><course>43.517220</course><hAcc>0.880307</hAcc><vAcc>0.701873</vAcc></extensions></trkpt>
      <trkpt lon="-3.305957" lat="54.548664"><ele>107.752823</ele><time>2021-08-12T12:16:31Z</time><extensions><speed>1.178517</speed><course>53.213661</course><hAcc>0.879972</hAcc><vAcc>0.700557</vAcc></extensions></trkpt>
      <trkpt lon="-3.305959" lat="54.548675"><ele>107.792519</ele><time>2021-08-12T12:16:32Z</time><extensions><speed>1.200594</speed><course>42.672325</course><hAcc>0.879615</hAcc><vAcc>0.699139</vAcc></extensions></trkpt>
      <trkpt lon="-3.305960" lat="54.548686"><ele>107.835579</ele><time>2021-08-12T12:16:33Z</time><extensions><speed>1.225718</speed><course>57.842590</course><hAcc>0.879247</hAcc><vAcc>0.697665</vAcc></extensions></trkpt>
      <trkpt lon="-3.305961" lat="54.548697"><ele>107.881401</ele><time>2021-08-12T12:16:34Z</time><extensions><speed>1.251996</speed><course>54.432369</course><hAcc>0.878883</hAcc><vAcc>0.696192</vAcc></extensions></trkpt>
      <trkpt lon="-3.305961" lat="54.548708"><ele>107.928978</ele><time>2021-08-12T12:16:35Z</time><extensions><speed>1.277593</speed><course>53.099045</course><hAcc>0.878538</hAcc><vAcc>0.694788</vAcc></extensions></trkpt>
      <trkpt lon="-3.305961" lat="54.548720"><ele>107.977074</ele><time>2021-08-12T12:16:36Z</time><extensions><speed>1.301051</speed><course>52.709480</course><hAcc>0.878227</hAcc><vAcc>0.693519</vAcc></extensions></trkpt>
      <trkpt lon="-3.305961" lat="54.548732"><ele>108.024521</ele><time>2021-08-12T12:16:37Z</time><extensions><speed>1.321075</speed><course>55.566643</course><hAcc>0.877961</hAcc><vAcc>0.692440</vAcc></extensions></trkpt>
      <trkpt lon="-3.305961" lat="54.548744"><ele>108.070358</ele><time>2021-08-12T12:16:38Z</time><extensions><speed>1.336637</speed><course>50.999676</course><hAcc>0.877751</hAcc><vAcc>0.691593</vAcc></extensions></trkpt>
      <trkpt lon="-3.305961" lat="54.548756"><ele>108.113762</ele><time>2021-08-12T12:16:39Z</time><extensions><speed>1.347191</speed><course>49.932701</course><hAcc>0.877604</hAcc><vAcc>0.691009</vAcc></extensions></trkpt>
      <trkpt lon="-3.305961" lat="54.548768"><ele>108.154152</ele><time>2021-08-12T12:16:40Z</time><extensions><speed>1.352711</speed><course>44.103298</course><hAcc>0.877524</hAcc><vAcc>0.690706</vAcc></extensions></trkpt>
      <trkpt lon="-3.305962" lat="54.548780"><ele>108.191383</ele><time>2021-08-12T12:16:41Z</time><extensions><speed>1.353637</speed><course>35.959499</course><hAcc>0.877512</hAcc><vAcc>0.690689</vAcc></extensions></trkpt>
      <trkpt lon="-3.305964" lat="54.548792"><ele>108.225845</ele><time>2021-08-12T12:16:42Z</time><extensions><speed>1.350962</speed><course>30.952709</course><hAcc>0.877565</hAcc><vAcc>0.690948</vAcc></extensions></trkpt>
      <trkpt lon="-3.305967" lat="54.548804"><ele>108.258217</ele><time>2021-08-12T12:16:43Z</time><extensions><speed>1.346040</speed><course>43.709347</course><hAcc>0.877676</hAcc><vAcc>0.691456</vAcc></extensions></trkpt>
      <trkpt lon="-3.305970" lat="54.548816"><ele>108.289131</ele><time>2021-08-12T12:16:44Z</time><extensions><speed>1.339756</speed><course>37.574459</course><hAcc>0.877835</hAcc><vAcc>0.692171</vAcc></extensions></trkpt>
      <trkpt lon="-3.305975" lat="54.548828"><ele>108.319023</ele><time>2021-08-12T12:16:45Z</time><extensions><speed>1.332219</speed><course>40.028488</course><hAcc>0.878029</hAcc><vAcc>0.693035</vAcc></extensions></trkpt>
      <trkpt lon="-3.305980" lat="54.548839"><ele>108.348282</ele><time>2021-08-12T12:16:46Z</time><extensions><speed>1.322926</speed><course>39.088745</course><hAcc>0.878243</hAcc><vAcc>0.693975</vAcc></extensions></trkpt>
      <trkpt lon="-3.305987" lat="54.548850"><ele>108.377403</ele><time>2021-08-12T12:16:47Z</time><extensions><speed>1.311426</speed><course>38.227211</course><hAcc>0.878464</hAcc><vAcc>0.694920</vAcc></extensions></trkpt>
      <trkpt lon="-3.305994" lat="54.548861"><ele>108.406883</ele><time>2021-08-12T12:16:48Z</time><extensions><speed>1.297271</speed><course>38.580025</course><hAcc>0.878677</hAcc><vAcc>0.695805</vAcc></extensions></trkpt>
      <trkpt lon="-3.306001" lat="54.548872"><ele>108.437096</ele><time>2021-08-12T12:16:49Z</time><extensions><speed>1.279809</speed><course>36.225418</course><hAcc>0.878870</hAcc><vAcc>0.696588</vAcc></extensions></trkpt>
      <trkpt lon="-3.306009" lat="54.548882"><ele>108.468285</ele><time>2021-08-12T12:16:50Z</time><extensions><speed>1.259146</speed><course>36.482189</course><hAcc>0.879036</hAcc><vAcc>0.697238</vAcc></extensions></trkpt>
      <trkpt lon="-3.306018" lat="54.548892"><ele>108.500557</ele><time>2021-08-12T12:16:51Z</time><extensions><speed>1.236546</speed><course>45.117634</course><hAcc>0.879168</hAcc><vAcc>0.697732</vAcc></extensions></trkpt>
      <trkpt lon="-3.306026" lat="54.548902"><ele>108.533882</ele><time>2021-08-12T12:16:52Z</time><extensions><speed>1.213331</speed><course>40.176819</course><hAcc>0.879264</hAcc><vAcc>0.698056</vAcc></extensions></trkpt>
      <trkpt lon="-3.306035" lat="54.548912"><ele>108.568031</ele><time>2021-08-12T12:16:53Z</time><extensions><speed>1.190691</speed><course>42.588684</course><hAcc>0.879324</hAcc><vAcc>0.698208</vAcc></extensions></trkpt>
      <trkpt lon="-3.306045" lat="54.548921"><ele>108.602478</ele><time>2021-08-12T12:16:54Z</time><extensions><speed>1.169848</speed><course>41.771687</course><hAcc>0.879353</hAcc><vAcc>0.698206</vAcc></extensions></trkpt>
      <trkpt lon="-3.306054" lat="54.548930"><ele>108.636261</ele><time>2021-08-12T12:16:55Z</time><extensions><speed>1.152082</speed><course>41.372017</course><hAcc>0.879356</hAcc><vAcc>0.698083</vAcc></extensions></trkpt>
      <trkpt lon="-3.306064" lat="54.548938"><ele>108.667984</ele><time>2021-08-12T12:16:56Z</time><extensions><speed>1.138362</speed><course>37.017429</course><hAcc>0.879341</hAcc><vAcc>0.697886</vAcc></extensions></trkpt>
      <trkpt lon="-3.306074" lat="54.548947"><ele>108.695961</ele><time>2021-08-12T12:16:57Z</time><extensions><speed>1.128870</speed><course>28.588495</course><hAcc>0.879315</hAcc><vAcc>0.697671</vAcc></extensions></trkpt>
      <trkpt lon="-3.306084" lat="54.548955"><ele>108.718163</ele><time>2021-08-12T12:16:58Z</time><extensions><speed>1.123269</speed><course>39.512306</course><hAcc>0.879286</hAcc><vAcc>0.697482</vAcc></extensions></trkpt>
      <trkpt lon="-3.306095" lat="54.548963"><ele>108.732239</ele><time>2021-08-12T12:16:59Z</time><extensions><speed>1.120423</speed><course>38.955353</course><hAcc>0.879258</hAcc><vAcc>0.697348</vAcc></extensions></trkpt>
      <trkpt lon="-3.306106" lat="54.548970"><ele>108.735603</ele><time>2021-08-12T12:17:00Z</time><extensions><speed>1.118651</speed><course>35.270641</course><hAcc>0.879234</hAcc><vAcc>0.697274</vAcc></extensions></trkpt>
      <trkpt lon="-3.306117" lat="54.548978"><ele>108.725883</ele><time>2021-08-12T12:17:01Z</time><extensions><speed>1.116234</speed><course>38.302330</course><hAcc>0.879214</hAcc><vAcc>0.697252</vAcc></extensions></trkpt>
      <trkpt lon="-3.306128" lat="54.548986"><ele>108.701523</ele><time>2021-08-12T12:17:02Z</time><extensions><speed>1.112563</speed><course>40.976086</course><hAcc>0.879195</hAcc><vAcc>0.697262</vAcc></extensions></trkpt>
      <trkpt lon="-3.306139" lat="54.548993"><ele>108.662132</ele><time>2021-08-12T12:17:03Z</time><extensions><speed>1.107511</speed><course>40.718147</course><hAcc>0.879173</hAcc><vAcc>0.697280</vAcc></extensions></trkpt>
      <trkpt lon="-3.306150" lat="54.549001"><ele>108.608849</ele><time>2021-08-12T12:17:04Z</time><extensions><speed>1.101065</speed><course>40.437557</course><hAcc>0.879143</hAcc><vAcc>0.697276</vAcc></extensions></trkpt>
      <trkpt lon="-3.306160" lat="54.549009"><ele>108.544319</ele><time>2021-08-12T12:17:05Z</time><extensions><speed>1.093796</speed><course>38.315979</course><hAcc>0.879099</hAcc><vAcc>0.697217</vAcc></extensions></trkpt>
      <trkpt lon="-3.306170" lat="54.549017"><ele>108.472443</ele><time>2021-08-12T12:17:06Z</time><extensions><speed>1.086572</speed><course>28.668550</course><hAcc>0.879037</hAcc><vAcc>0.697071</vAcc></extensions></trkpt>
      <trkpt lon="-3.306180" lat="54.549025"><ele>108.398010</ele><time>2021-08-12T12:17:07Z</time><extensions><speed>1.080783</speed><course>31.392698</course><hAcc>0.878953</hAcc><vAcc>0.696813</vAcc></extensions></trkpt>
      <trkpt lon="-3.306188" lat="54.549033"><ele>108.325760</ele><time>2021-08-12T12:17:08Z</time><extensions><speed>1.077700</speed><course>32.848076</course><hAcc>0.878844</hAcc><vAcc>0.696425</vAcc></extensions></trkpt>
      <trkpt lon="-3.306196" lat="54.549042"><ele>108.259552</ele><time>2021-08-12T12:17:09Z</time><extensions><speed>1.078106</speed><course>38.096359</course><hAcc>0.878713</hAcc><vAcc>0.695908</vAcc></extensions></trkpt>
      <trkpt lon="-3.306203" lat="54.549051"><ele>108.202522</ele><time>2021-08-12T12:17:10Z</time><extensions><speed>1.082923</speed><course>27.737675</course><hAcc>0.878561</hAcc><vAcc>0.695280</vAcc></extensions></trkpt>
      <trkpt lon="-3.306208" lat="54.549060"><ele>108.157387</ele><time>2021-08-12T12:17:11Z</time><extensions><speed>1.093222</speed><course>38.820049</course><hAcc>0.878395</hAcc><vAcc>0.694575</vAcc></extensions></trkpt>
      <trkpt lon="-3.306213" lat="54.549069"><ele>108.125587</ele><time>2021-08-12T12:17:12Z</time><extensions><speed>1.109131</speed><course>40.137299</course><hAcc>0.878222</hAcc><vAcc>0.693834</vAcc></extensions></trkpt>
      <trkpt lon="-3.306216" lat="54.549079"><ele>108.106453</ele><time>2021-08-12T12:17:13Z</time><extensions><speed>1.129852</speed><course>44.560421</course><hAcc>0.878048</hAcc><vAcc>0.693106</vAcc></extensions></trkpt>
      <trkpt lon="-3.306219" lat="54.549089"><ele>108.097557</ele><time>2021-08-12T12:17:14Z</time><extensions><speed>1.154025</speed><course>41.574787</course><hAcc>0.877882</hAcc><vAcc>0.692431</vAcc></extensions></trkpt>
      <trkpt lon="-3.306220" lat="54.549100"><ele>108.095795</ele><time>2021-08-12T12:17:15Z</time><extensions><speed>1.179916</speed><course>37.402897</course><hAcc>0.877730</hAcc><vAcc>0.691844</vAcc></extensions></trkpt>
      <trkpt lon="-3.306220" lat="54.549111"><ele>108.098030</ele><time>2021-08-12T12:17:16Z</time><extensions><speed>1.206519</speed><course>38.445354</course><hAcc>0.877596</hAcc><vAcc>0.691358</vAcc></extensions></trkpt>
      <trkpt lon="-3.306219" lat="54.549121"><ele>108.101288</ele><time>2021-08-12T12:17:17Z</time><extensions><speed>1.234040</speed><course>32.932274</course><hAcc>0.877482</hAcc><vAcc>0.690971</vAcc></extensions></trkpt>
      <trkpt lon="-3.306217" lat="54.549133"><ele>108.102890</ele><time>2021-08-12T12:17:18Z</time><extensions><speed>1.262927</speed><course>27.701353</course><hAcc>0.877390</hAcc><vAcc>0.690664</vAcc></extensions></trkpt>
      <trkpt lon="-3.306215" lat="54.549144"><ele>108.100655</ele><time>2021-08-12T12:17:19Z</time><extensions><speed>1.293077</speed><course>28.233585</course><hAcc>0.877317</hAcc><vAcc>0.690423</vAcc></extensions></trkpt>
      <trkpt lon="-3.306211" lat="54.549156"><ele>108.092926</ele><time>2021-08-12T12:17:20Z</time><extensions><speed>1.323982</speed><course>30.003765</course><hAcc>0.877262</hAcc><vAcc>0.690241</vAcc></extensions></trkpt>
      <trkpt lon="-3.306207" lat="54.549167"><ele>108.078621</ele><time>2021-08-12T12:17:21Z</time><extensions><speed>1.355055</speed><course>35.586266</course><hAcc>0.877226</hAcc><vAcc>0.690121</vAcc></extensions></trkpt>
      <trkpt lon="-3.306202" lat="54.549179"><ele>108.057228</ele><time>2021-08-12T12:17:22Z</time><extensions><speed>1.385475</speed><course>41.034397</course><hAcc>0.877206</hAcc><vAcc>0.690066</vAcc></extensions></trkpt>
      <trkpt lon="-3.306196" lat="54.549191"><ele>108.028732</ele><time>2021-08-12T12:17:23Z</time><extensions><speed>1.413993</speed><course>43.040592</course><hAcc>0.877200</hAcc><vAcc>0.690076</vAcc></extensions></trkpt>
      <trkpt lon="-3.306190" lat="54.549204"><ele>107.993553</ele><time>2021-08-12T12:17:24Z</time><extensions><speed>1.439789</speed><course>49.550934</course><hAcc>0.877207</hAcc><vAcc>0.690137</vAcc></extensions></trkpt>
      <trkpt lon="-3.306184" lat="54.549216"><ele>107.952271</ele><time>2021-08-12T12:17:25Z</time><extensions><speed>1.462763</speed><course>62.069283</course><hAcc>0.877222</hAcc><vAcc>0.690222</vAcc></extensions></trkpt>
      <trkpt lon="-3.306177" lat="54.549229"><ele>107.905533</ele><time>2021-08-12T12:17:26Z</time><extensions><speed>1.482732</speed><course>68.512573</course><hAcc>0.877242</hAcc><vAcc>0.690307</vAcc></extensions></trkpt>
      <trkpt lon="-3.306170" lat="54.549242"><ele>107.854294</ele><time>2021-08-12T12:17:27Z</time><extensions><speed>1.499030</speed><course>76.544746</course><hAcc>0.877265</hAcc><vAcc>0.690388</vAcc></extensions></trkpt>
      <trkpt lon="-3.306163" lat="54.549255"><ele>107.799911</ele><time>2021-08-12T12:17:28Z</time><extensions><speed>1.510996</speed><course>91.471558</course><hAcc>0.877291</hAcc><vAcc>0.690470</vAcc></extensions></trkpt>
      <trkpt lon="-3.306156" lat="54.549268"><ele>107.744041</ele><time>2021-08-12T12:17:29Z</time><extensions><speed>1.518503</speed><course>103.707001</course><hAcc>0.877319</hAcc><vAcc>0.690564</vAcc></extensions></trkpt>
      <trkpt lon="-3.306149" lat="54.549281"><ele>107.688248</ele><time>2021-08-12T12:17:30Z</time><extensions><speed>1.521734</speed><course>102.240677</course><hAcc>0.877349</hAcc><vAcc>0.690677</vAcc></extensions></trkpt>
      <trkpt lon="-3.306143" lat="54.549294"><ele>107.633453</ele><time>2021-08-12T12:17:31Z</time><extensions><speed>1.520964</speed><course>109.008522</course><hAcc>0.877382</hAcc><vAcc>0.690808</vAcc></extensions></trkpt>
      <trkpt lon="-3.306137" lat="54.549307"><ele>107.579933</ele><time>2021-08-12T12:17:32Z</time><extensions><speed>1.517101</speed><course>120.687057</course><hAcc>0.877417</hAcc><vAcc>0.690945</vAcc></extensions></trkpt>
      <trkpt lon="-3.306132" lat="54.549320"><ele>107.527740</ele><time>2021-08-12T12:17:33Z</time><extensions><speed>1.511447</speed><course>122.518364</course><hAcc>0.877454</hAcc><vAcc>0.691079</vAcc></extensions></trkpt>
      <trkpt lon="-3.306128" lat="54.549334"><ele>107.476784</ele><time>2021-08-12T12:17:34Z</time><extensions><speed>1.504796</speed><course>116.435341</course><hAcc>0.877495</hAcc><vAcc>0.691207</vAcc></extensions></trkpt>
      <trkpt lon="-3.306125" lat="54.549347"><ele>107.426636</ele><time>2021-08-12T12:17:35Z</time><extensions><speed>1.497941</speed><course>123.806564</course><hAcc>0.877542</hAcc><vAcc>0.691342</vAcc></extensions></trkpt>
      <trkpt lon="-3.306123" lat="54.549360"><ele>107.376518</ele><time>2021-08-12T12:17:36Z</time><extensions><speed>1.491678</speed><course>121.279266</course><hAcc>0.877598</hAcc><vAcc>0.691501</vAcc></extensions></trkpt>
      <trkpt lon="-3.306121" lat="54.549374"><ele>107.325661</ele><time>2021-08-12T12:17:37Z</time><extensions><speed>1.486255</speed><course>122.295830</course><hAcc>0.877666</hAcc><vAcc>0.691708</vAcc></extensions></trkpt>
      <trkpt lon="-3.306121" lat="54.549387"><ele>107.273941</ele><time>2021-08-12T12:17:38Z</time><extensions><speed>1.481976</speed><course>116.485687</course><hAcc>0.877748</hAcc><vAcc>0.691977</vAcc></extensions></trkpt>
      <trkpt lon="-3.306122" lat="54.549400"><ele>107.221878</ele><time>2021-08-12T12:17:39Z</time><extensions><speed>1.479293</speed><course>120.837761</course><hAcc>0.877846</hAcc><vAcc>0.692311</vAcc></extensions></trkpt>
      <trkpt lon="-3.306124" lat="54.549414"><ele>107.170036</ele><time>2021-08-12T12:17:40Z</time><extensions><speed>1.478341</speed><course>121.691162</course><hAcc>0.877959</hAcc><vAcc>0.692713</vAcc></extensions></trkpt>
      <trkpt lon="-3.306127" lat="54.549427"><ele>107.118668</ele><time>2021-08-12T12:17:41Z</time><extensions><speed>1.478724</speed><course>120.429344</course><hAcc>0.878088</hAcc><vAcc>0.693188</vAcc></extensions></trkpt>
      <trkpt lon="-3.306131" lat="54.549440"><ele>107.067749</ele><time>2021-08-12T12:17:42Z</time><extensions><speed>1.479170</speed><course>127.922836</course><hAcc>0.878229</hAcc><vAcc>0.693740</vAcc></extensions></trkpt>
      <trkpt lon="-3.306136" lat="54.549453"><ele>107.016998</ele><time>2021-08-12T12:17:43Z</time><extensions><speed>1.478075</speed><course>122.773224</course><hAcc>0.878381</hAcc><vAcc>0.694358</vAcc></extensions></trkpt>
      <trkpt lon="-3.306141" lat="54.549466"><ele>106.966103</ele><time>2021-08-12T12:17:44Z</time><extensions><speed>1.474677</speed><course>127.410233</course><hAcc>0.878538</hAcc><vAcc>0.695015</vAcc></extensions></trkpt>
      <trkpt lon="-3.306146" lat="54.549479"><ele>106.914589</ele><time>2021-08-12T12:17:45Z</time><extensions><speed>1.468889</speed><course>126.293243</course><hAcc>0.878694</hAcc><vAcc>0.695668</vAcc></extensions></trkpt>
      <trkpt lon="-3.306152" lat="54.549491"><ele>106.861450</ele><time>2021-08-12T12:17:46Z</time><extensions><speed>1.460809</speed><course>113.773628</course><hAcc>0.878840</hAcc><vAcc>0.696276</vAcc></extensions></trkpt>
      <trkpt lon="-3.306158" lat="54.549504"><ele>106.805244</ele><time>2021-08-12T12:17:47Z</time><extensions><speed>1.450774</speed><course>111.597641</course><hAcc>0.878972</hAcc><vAcc>0.696812</vAcc></extensions></trkpt>
      <trkpt lon="-3.306164" lat="54.549516"><ele>106.744789</ele><time>2021-08-12T12:17:48Z</time><extensions><speed>1.439285</speed><course>118.242065</course><hAcc>0.879085</hAcc><vAcc>0.697261</vAcc></extensions></trkpt>
      <trkpt lon="-3.306170" lat="54.549529"><ele>106.679832</ele><time>2021-08-12T12:17:49Z</time><extensions><speed>1.427138</speed><course>121.318916</course><hAcc>0.879174</hAcc><vAcc>0.697608</vAcc></extensions></trkpt>
      <trkpt lon="-3.306175" lat="54.549541"><ele>106.611206</ele><time>2021-08-12T12:17:50Z</time><extensions><speed>1.415357</speed><course>126.571838</course><hAcc>0.879239</hAcc><vAcc>0.697835</vAcc></extensions></trkpt>
      <trkpt lon="-3.306180" lat="54.549554"><ele>106.540825</ele><time>2021-08-12T12:17:51Z</time><extensions><speed>1.405167</speed><course>116.053932</course><hAcc>0.879278</hAcc><vAcc>0.697935</vAcc></extensions></trkpt>
      <trkpt lon="-3.306184" lat="54.549566"><ele>106.471916</ele><time>2021-08-12T12:17:52Z</time><extensions><speed>1.397989</speed><course>122.553452</course><hAcc>0.879293</hAcc><vAcc>0.697919</vAcc></extensions></trkpt>
      <trkpt lon="-3.306187" lat="54.549578"><ele>106.409111</ele><time>2021-08-12T12:17:53Z</time><extensions><speed>1.394737</speed><course>115.362396</course><hAcc>0.879288</hAcc><vAcc>0.697811</vAcc></extensions></trkpt>
      <trkpt lon="-3.306190" lat="54.549591"><ele>106.357719</ele><time>2021-08-12T12:17:54Z</time><extensions><speed>1.395308</speed><course>120.016403</course><hAcc>0.879267</hAcc><vAcc>0.697642</vAcc></extensions></trkpt>
      <trkpt lon="-3.306192" lat="54.549603"><ele>106.322464</ele><time>2021-08-12T12:17:55Z</time><extensions><speed>1.399047</speed><course>131.521149</course><hAcc>0.879234</hAcc><vAcc>0.697444</vAcc></extensions></trkpt>
      <trkpt lon="-3.306192" lat="54.549616"><ele>106.306862</ele><time>2021-08-12T12:17:56Z</time><extensions><speed>1.405332</speed><course>124.976143</course><hAcc>0.879192</hAcc><vAcc>0.697247</vAcc></extensions></trkpt>
      <trkpt lon="-3.306192" lat="54.549629"><ele>106.313065</ele><time>2021-08-12T12:17:57Z</time><extensions><speed>1.413769</speed><course>123.546791</course><hAcc>0.879145</hAcc><vAcc>0.697068</vAcc></extensions></trkpt>
      <trkpt lon="-3.306192" lat="54.549641"><ele>106.341614</ele><time>2021-08-12T12:17:58Z</time><extensions><speed>1.423799</speed><course>116.699699</course><hAcc>0.879095</hAcc><vAcc>0.696911</vAcc></extensions></trkpt>
      <trkpt lon="-3.306190" lat="54.549654"><ele>106.390785</ele><time>2021-08-12T12:17:59Z</time><extensions><speed>1.434083</speed><course>112.924561</course><hAcc>0.879043</hAcc><vAcc>0.696770</vAcc></extensions></trkpt>
      <trkpt lon="-3.306188" lat="54.549667"><ele>106.456818</ele><time>2021-08-12T12:18:00Z</time><extensions><speed>1.443318</speed><course>117.858780</course><hAcc>0.878987</hAcc><vAcc>0.696630</vAcc></extensions></trkpt>
      <trkpt lon="-3.306185" lat="54.549680"><ele>106.535301</ele><time>2021-08-12T12:18:01Z</time><extensions><speed>1.450944</speed><course>111.630035</course><hAcc>0.878928</hAcc><vAcc>0.696475</vAcc></extensions></trkpt>
      <trkpt lon="-3.306183" lat="54.549693"><ele>106.621223</ele><time>2021-08-12T12:18:02Z</time><extensions><speed>1.456609</speed><course>115.453979</course><hAcc>0.878865</hAcc><vAcc>0.696291</vAcc></extensions></trkpt>
      <trkpt lon="-3.306179" lat="54.549706"><ele>106.708504</ele><time>2021-08-12T12:18:03Z</time><extensions><speed>1.460372</speed><course>108.625862</course><hAcc>0.878800</hAcc><vAcc>0.696062</vAcc></extensions></trkpt>
      <trkpt lon="-3.306176" lat="54.549719"><ele>106.791054</ele><time>2021-08-12T12:18:04Z</time><extensions><speed>1.462604</speed><course>116.435417</course><hAcc>0.878734</hAcc><vAcc>0.695783</vAcc></extensions></trkpt>
      <trkpt lon="-3.306173" lat="54.549732"><ele>106.863464</ele><time>2021-08-12T12:18:05Z</time><extensions><speed>1.463433</speed><course>112.323517</course><hAcc>0.878671</hAcc><vAcc>0.695468</vAcc></extensions></trkpt>
      <trkpt lon="-3.306169" lat="54.549745"><ele>106.920853</ele><time>2021-08-12T12:18:06Z</time><extensions><speed>1.462556</speed><course>117.491661</course><hAcc>0.878614</hAcc><vAcc>0.695152</vAcc></extensions></trkpt>
      <trkpt lon="-3.306166" lat="54.549758"><ele>106.958855</ele><time>2021-08-12T12:18:07Z</time><extensions><speed>1.459459</speed><course>120.293846</course><hAcc>0.878569</hAcc><vAcc>0.694882</vAcc></extensions></trkpt>
      <trkpt lon="-3.306163" lat="54.549771"><ele>106.974350</ele><time>2021-08-12T12:18:08Z</time><extensions><speed>1.453663</speed><course>115.591873</course><hAcc>0.878540</hAcc><vAcc>0.694702</vAcc></extensions></trkpt>
      <trkpt lon="-3.306160" lat="54.549784"><ele>106.965759</ele><time>2021-08-12T12:18:09Z</time><extensions><speed>1.444046</speed><course>116.468712</course><hAcc>0.878528</hAcc><vAcc>0.694641</vAcc></extensions></trkpt>
      <trkpt lon="-3.306157" lat="54.549796"><ele>106.932411</ele><time>2021-08-12T12:18:10Z</time><extensions><speed>1.429025</speed><course>116.627220</course><hAcc>0.878534</hAcc><vAcc>0.694710</vAcc></extensions></trkpt>
      <trkpt lon="-3.306154" lat="54.549809"><ele>106.873764</ele><time>2021-08-12T12:18:11Z</time><extensions><speed>1.407512</speed><course>115.487846</course><hAcc>0.878554</hAcc><vAcc>0.694894</vAcc></extensions></trkpt>
      <trkpt lon="-3.306151" lat="54.549821"><ele>106.789780</ele><time>2021-08-12T12:18:12Z</time><extensions><speed>1.379486</speed><course>110.303284</course><hAcc>0.878581</hAcc><vAcc>0.695147</vAcc></extensions></trkpt>
      <trkpt lon="-3.306148" lat="54.549834"><ele>106.681358</ele><time>2021-08-12T12:18:13Z</time><extensions><speed>1.345521</speed><course>107.900200</course><hAcc>0.878607</hAcc><vAcc>0.695403</vAcc></extensions></trkpt>
      <trkpt lon="-3.306145" lat="54.549845"><ele>106.549973</ele><time>2021-08-12T12:18:14Z</time><extensions><speed>1.306384</speed><course>104.901772</course><hAcc>0.878623</hAcc><vAcc>0.695598</vAcc></extensions></trkpt>
      <trkpt lon="-3.306142" lat="54.549857"><ele>106.397217</ele><time>2021-08-12T12:18:15Z</time><extensions><speed>1.263003</speed><course>102.625549</course><hAcc>0.878624</hAcc><vAcc>0.695684</vAcc></extensions></trkpt>
      <trkpt lon="-3.306139" lat="54.549868"><ele>106.225121</ele><time>2021-08-12T12:18:16Z</time><extensions><speed>1.216154</speed><course>101.615082</course><hAcc>0.878606</hAcc><vAcc>0.695632</vAcc></extensions></trkpt>
      <trkpt lon="-3.306136" lat="54.549878"><ele>106.036545</ele><time>2021-08-12T12:18:17Z</time><extensions><speed>1.166260</speed><course>104.820312</course><hAcc>0.878569</hAcc><vAcc>0.695440</vAcc></extensions></trkpt>
      <trkpt lon="-3.306133" lat="54.549888"><ele>105.835175</ele><time>2021-08-12T12:18:18Z</time><extensions><speed>1.113253</speed><course>97.837166</course><hAcc>0.878518</hAcc><vAcc>0.695128</vAcc></extensions></trkpt>
      <trkpt lon="-3.306129" lat="54.549898"><ele>105.625237</ele><time>2021-08-12T12:18:19Z</time><extensions><speed>1.057113</speed><course>99.518051</course><hAcc>0.878461</hAcc><vAcc>0.694741</vAcc></extensions></trkpt>
      <trkpt lon="-3.306125" lat="54.549907"><ele>105.411652</ele><time>2021-08-12T12:18:20Z</time><extensions><speed>0.998277</speed><course>105.468117</course><hAcc>0.878411</hAcc><vAcc>0.694342</vAcc></extensions></trkpt>
      <trkpt lon="-3.306121" lat="54.549915"><ele>105.199669</ele><time>2021-08-12T12:18:21Z</time><extensions><speed>0.937317</speed><course>105.021729</course><hAcc>0.878380</hAcc><vAcc>0.694009</vAcc></extensions></trkpt>
      <trkpt lon="-3.306117" lat="54.549923"><ele>104.994156</ele><time>2021-08-12T12:18:22Z</time><extensions><speed>0.874515</speed><course>105.854553</course><hAcc>0.878384</hAcc><vAcc>0.693826</vAcc></extensions></trkpt>
      <trkpt lon="-3.306113" lat="54.549930"><ele>104.799675</ele><time>2021-08-12T12:18:23Z</time><extensions><speed>0.810014</speed><course>116.038353</course><hAcc>0.878435</hAcc><vAcc>0.693869</vAcc></extensions></trkpt>
      <trkpt lon="-3.306108" lat="54.549936"><ele>104.620628</ele><time>2021-08-12T12:18:24Z</time><extensions><speed>0.744129</speed><course>116.622620</course><hAcc>0.878543</hAcc><vAcc>0.694195</vAcc></extensions></trkpt>
      <trkpt lon="-3.306104" lat="54.549942"><ele>104.460854</ele><time>2021-08-12T12:18:25Z</time><extensions><speed>0.676927</speed><course>116.023415</course><hAcc>0.878714</hAcc><vAcc>0.694834</vAcc></extensions></trkpt>
      <trkpt lon="-3.306099" lat="54.549947"><ele>104.322952</ele><time>2021-08-12T12:18:26Z</time><extensions><speed>0.608410</speed><course>111.053482</course><hAcc>0.878949</hAcc><vAcc>0.695782</vAcc></extensions></trkpt>
      <trkpt lon="-3.306095" lat="54.549952"><ele>104.208305</ele><time>2021-08-12T12:18:27Z</time><extensions><speed>0.539339</speed><course>109.683617</course><hAcc>0.879248</hAcc><vAcc>0.697004</vAcc></extensions></trkpt>
      <trkpt lon="-3.306090" lat="54.549956"><ele>104.117241</ele><time>2021-08-12T12:18:28Z</time><extensions><speed>0.471161</speed><course>107.838440</course><hAcc>0.879607</hAcc><vAcc>0.698434</vAcc></extensions></trkpt>
      <trkpt lon="-3.306086" lat="54.549959"><ele>104.048744</ele><time>2021-08-12T12:18:29Z</time><extensions><speed>0.405249</speed><course>110.196930</course><hAcc>0.880026</hAcc><vAcc>0.699994</vAcc></extensions></trkpt>
      <trkpt lon="-3.306083" lat="54.549961"><ele>104.000275</ele><time>2021-08-12T12:18:30Z</time><extensions><speed>0.343119</speed><course>111.548782</course><hAcc>0.880509</hAcc><vAcc>0.701599</vAcc></extensions></trkpt>
      <trkpt lon="-3.306079" lat="54.549963"><ele>103.968498</ele><time>2021-08-12T12:18:31Z</time><extensions><speed>0.286565</speed><course>110.420074</course><hAcc>0.881069</hAcc><vAcc>0.703179</vAcc></extensions></trkpt>
      <trkpt lon="-3.306076" lat="54.549965"><ele>103.950081</ele><time>2021-08-12T12:18:32Z</time><extensions><speed>0.236655</speed><course>99.619576</course><hAcc>0.881729</hAcc><vAcc>0.704680</vAcc></extensions></trkpt>
      <trkpt lon="-3.306073" lat="54.549966"><ele>103.942055</ele><time>2021-08-12T12:18:33Z</time><extensions><speed>0.193884</speed><course>107.102882</course><hAcc>0.882519</hAcc><vAcc>0.706076</vAcc></extensions></trkpt>
      <trkpt lon="-3.306071" lat="54.549967"><ele>103.941742</ele><time>2021-08-12T12:18:34Z</time><extensions><speed>0.158542</speed><course>98.831825</course><hAcc>0.883481</hAcc><vAcc>0.707365</vAcc></extensions></trkpt>
      <trkpt lon="-3.306069" lat="54.549967"><ele>103.946449</ele><time>2021-08-12T12:18:35Z</time><extensions><speed>0.130561</speed><course>99.864403</course><hAcc>0.884662</hAcc><vAcc>0.708565</vAcc></extensions></trkpt>
      <trkpt lon="-3.306067" lat="54.549967"><ele>103.953339</ele><time>2021-08-12T12:18:36Z</time><extensions><speed>0.109143</speed><course>99.165215</course><hAcc>0.886104</hAcc><vAcc>0.709701</vAcc></extensions></trkpt>
      <trkpt lon="-3.306066" lat="54.549967"><ele>103.959824</ele><time>2021-08-12T12:18:37Z</time><extensions><speed>0.092789</speed><course>106.876038</course><hAcc>0.887835</hAcc><vAcc>0.710796</vAcc></extensions></trkpt>
      <trkpt lon="-3.306064" lat="54.549967"><ele>103.963821</ele><time>2021-08-12T12:18:38Z</time><extensions><speed>0.080271</speed><course>100.224144</course><hAcc>0.889860</hAcc><vAcc>0.711852</vAcc></extensions></trkpt>
      <trkpt lon="-3.306063" lat="54.549967"><ele>103.963745</ele><time>2021-08-12T12:18:39Z</time><extensions><speed>0.070168</speed><course>97.870438</course><hAcc>0.892140</hAcc><vAcc>0.712830</vAcc></extensions></trkpt>
      <trkpt lon="-3.306062" lat="54.549967"><ele>103.958633</ele><time>2021-08-12T12:18:40Z</time><extensions><speed>0.060812</speed><course>109.047302</course><hAcc>0.894589</hAcc><vAcc>0.713646</vAcc></extensions></trkpt>
      <trkpt lon="-3.306062" lat="54.549966"><ele>103.948494</ele><time>2021-08-12T12:18:41Z</time><extensions><speed>0.051127</speed><course>111.386711</course><hAcc>0.897063</hAcc><vAcc>0.714180</vAcc></extensions></trkpt>
      <trkpt lon="-3.306061" lat="54.549966"><ele>103.934059</ele><time>2021-08-12T12:18:42Z</time><extensions><speed>0.040623</speed><course>110.131767</course><hAcc>0.899383</hAcc><vAcc>0.714304</vAcc></extensions></trkpt>
      <trkpt lon="-3.306061" lat="54.549966"><ele>103.915985</ele><time>2021-08-12T12:18:43Z</time><extensions><speed>0.029921</speed><course>109.748413</course><hAcc>0.901376</hAcc><vAcc>0.713943</vAcc></extensions></trkpt>
      <trkpt lon="-3.306061" lat="54.549965"><ele>103.894371</ele><time>2021-08-12T12:18:44Z</time><extensions><speed>0.021767</speed><course>116.453705</course><hAcc>0.902964</hAcc><vAcc>0.713167</vAcc></extensions></trkpt>
      <trkpt lon="-3.306062" lat="54.549965"><ele>103.868759</ele><time>2021-08-12T12:18:45Z</time><extensions><speed>0.022797</speed><course>111.019348</course><hAcc>0.904328</hAcc><vAcc>0.712339</vAcc></extensions></trkpt>
      <trkpt lon="-3.306062" lat="54.549965"><ele>103.838226</ele><time>2021-08-12T12:18:46Z</time><extensions><speed>0.034347</speed><course>106.996025</course><hAcc>0.906157</hAcc><vAcc>0.712309</vAcc></extensions></trkpt>
      <trkpt lon="-3.306063" lat="54.549965"><ele>103.801842</ele><time>2021-08-12T12:18:47Z</time><extensions><speed>0.050407</speed><course>104.594215</course><hAcc>0.910022</hAcc><vAcc>0.714652</vAcc></extensions></trkpt>
      <trkpt lon="-3.306063" lat="54.549966"><ele>103.759270</ele><time>2021-08-12T12:18:48Z</time><extensions><speed>0.067616</speed><course>101.351479</course><hAcc>0.918875</hAcc><vAcc>0.721940</vAcc></extensions></trkpt>
      <trkpt lon="-3.306064" lat="54.549966"><ele>103.710884</ele><time>2021-08-12T12:18:49Z</time><extensions><speed>0.084549</speed><course>105.952332</course><hAcc>0.937516</hAcc><vAcc>0.737933</vAcc></extensions></trkpt>
      <trkpt lon="-3.306065" lat="54.549967"><ele>103.657333</ele><time>2021-08-12T12:18:50Z</time><extensions><speed>0.100247</speed><course>113.138412</course><hAcc>0.972750</hAcc><vAcc>0.767532</vAcc></extensions></trkpt>
      <trkpt lon="-3.306069" lat="54.549972"><ele>103.516396</ele><time>2021-08-12T12:18:51Z</time><extensions><speed>0.699051</speed><course>74.967865</course><hAcc>0.935112</hAcc><vAcc>0.735569</vAcc></extensions></trkpt>
      <trkpt lon="-3.306072" lat="54.549978"><ele>103.442444</ele><time>2021-08-12T12:18:52Z</time><extensions><speed>0.742956</speed><course>75.133301</course><hAcc>0.914643</hAcc><vAcc>0.715691</vAcc></extensions></trkpt>
      <trkpt lon="-3.306075" lat="54.549985"><ele>103.374039</ele><time>2021-08-12T12:18:53Z</time><extensions><speed>0.793040</speed><course>66.099251</course><hAcc>0.905438</hAcc><vAcc>0.705796</vAcc></extensions></trkpt>
      <trkpt lon="-3.306079" lat="54.549992"><ele>103.312912</ele><time>2021-08-12T12:18:54Z</time><extensions><speed>0.846533</speed><course>81.237114</course><hAcc>0.901937</hAcc><vAcc>0.701639</vAcc></extensions></trkpt>
      <trkpt lon="-3.306082" lat="54.549999"><ele>103.261421</ele><time>2021-08-12T12:18:55Z</time><extensions><speed>0.900138</speed><course>80.566093</course><hAcc>0.900641</hAcc><vAcc>0.700271</vAcc></extensions></trkpt>
      <trkpt lon="-3.306086" lat="54.550007"><ele>103.222198</ele><time>2021-08-12T12:18:56Z</time><extensions><speed>0.950921</speed><course>80.566109</course><hAcc>0.899666</hAcc><vAcc>0.699856</vAcc></extensions></trkpt>
      <trkpt lon="-3.306091" lat="54.550016"><ele>103.197617</ele><time>2021-08-12T12:18:57Z</time><extensions><speed>0.996759</speed><course>80.566093</course><hAcc>0.898209</hAcc><vAcc>0.699387</vAcc></extensions></trkpt>
      <trkpt lon="-3.306095" lat="54.550025"><ele>103.189552</ele><time>2021-08-12T12:18:58Z</time><extensions><speed>1.036764</speed><course>80.566093</course><hAcc>0.896091</hAcc><vAcc>0.698422</vAcc></extensions></trkpt>
      <trkpt lon="-3.306099" lat="54.550034"><ele>103.199059</ele><time>2021-08-12T12:18:59Z</time><extensions><speed>1.070806</speed><course>80.566093</course><hAcc>0.893442</hAcc><vAcc>0.696887</vAcc></extensions></trkpt>
      <trkpt lon="-3.306104" lat="54.550043"><ele>103.225929</ele><time>2021-08-12T12:19:00Z</time><extensions><speed>1.098389</speed><course>77.344681</course><hAcc>0.890513</hAcc><vAcc>0.694915</vAcc></extensions></trkpt>
      <trkpt lon="-3.306109" lat="54.550053"><ele>103.269020</ele><time>2021-08-12T12:19:01Z</time><extensions><speed>1.118999</speed><course>77.923714</course><hAcc>0.887561</hAcc><vAcc>0.692720</vAcc></extensions></trkpt>
      <trkpt lon="-3.306113" lat="54.550062"><ele>103.326820</ele><time>2021-08-12T12:19:02Z</time><extensions><speed>1.132751</speed><course>87.073212</course><hAcc>0.884793</hAcc><vAcc>0.690508</vAcc></extensions></trkpt>
      <trkpt lon="-3.306118" lat="54.550072"><ele>103.397522</ele><time>2021-08-12T12:19:03Z</time><extensions><speed>1.140637</speed><course>79.233902</course><hAcc>0.882347</hAcc><vAcc>0.688432</vAcc></extensions></trkpt>
      <trkpt lon="-3.306122" lat="54.550082"><ele>103.478989</ele><time>2021-08-12T12:19:04Z</time><extensions><speed>1.144357</speed><course>96.572746</course><hAcc>0.880291</hAcc><vAcc>0.686593</vAcc></extensions></trkpt>
      <trkpt lon="-3.306126" lat="54.550092"><ele>103.568794</ele><time>2021-08-12T12:19:05Z</time><extensions><speed>1.145630</speed><course>86.920219</course><hAcc>0.878640</hAcc><vAcc>0.685040</vAcc></extensions></trkpt>
      <trkpt lon="-3.306130" lat="54.550102"><ele>103.664139</ele><time>2021-08-12T12:19:06Z</time><extensions><speed>1.145659</speed><course>76.786201</course><hAcc>0.877368</hAcc><vAcc>0.683783</vAcc></extensions></trkpt>
      <trkpt lon="-3.306134" lat="54.550112"><ele>103.761894</ele><time>2021-08-12T12:19:07Z</time><extensions><speed>1.145319</speed><course>77.162971</course><hAcc>0.876430</hAcc><vAcc>0.682809</vAcc></extensions></trkpt>
      <trkpt lon="-3.306138" lat="54.550122"><ele>103.858963</ele><time>2021-08-12T12:19:08Z</time><extensions><speed>1.145794</speed><course>69.604996</course><hAcc>0.875768</hAcc><vAcc>0.682092</vAcc></extensions></trkpt>
      <trkpt lon="-3.306141" lat="54.550133"><ele>103.952545</ele><time>2021-08-12T12:19:09Z</time><extensions><speed>1.148689</speed><course>76.115456</course><hAcc>0.875326</hAcc><vAcc>0.681601</vAcc></extensions></trkpt>
      <trkpt lon="-3.306145" lat="54.550143"><ele>104.040482</ele><time>2021-08-12T12:19:10Z</time><extensions><speed>1.155126</speed><course>83.646278</course><hAcc>0.875052</hAcc><vAcc>0.681307</vAcc></extensions></trkpt>
      <trkpt lon="-3.306148" lat="54.550153"><ele>104.121391</ele><time>2021-08-12T12:19:11Z</time><extensions><speed>1.165046</speed><course>76.408623</course><hAcc>0.874902</hAcc><vAcc>0.681182</vAcc></extensions></trkpt>
      <trkpt lon="-3.306151" lat="54.550163"><ele>104.194572</ele><time>2021-08-12T12:19:12Z</time><extensions><speed>1.178195</speed><course>79.439453</course><hAcc>0.874842</hAcc><vAcc>0.681198</vAcc></extensions></trkpt>
      <trkpt lon="-3.306153" lat="54.550174"><ele>104.259773</ele><time>2021-08-12T12:19:13Z</time><extensions><speed>1.193744</speed><course>75.300941</course><hAcc>0.874843</hAcc><vAcc>0.681330</vAcc></extensions></trkpt>
      <trkpt lon="-3.306156" lat="54.550185"><ele>104.317039</ele><time>2021-08-12T12:19:14Z</time><extensions><speed>1.210102</speed><course>76.126534</course><hAcc>0.874885</hAcc><vAcc>0.681554</vAcc></extensions></trkpt>
      <trkpt lon="-3.306159" lat="54.550195"><ele>104.366791</ele><time>2021-08-12T12:19:15Z</time><extensions><speed>1.225956</speed><course>75.233688</course><hAcc>0.874954</hAcc><vAcc>0.681853</vAcc></extensions></trkpt>
      <trkpt lon="-3.306162" lat="54.550206"><ele>104.410057</ele><time>2021-08-12T12:19:16Z</time><extensions><speed>1.240291</speed><course>81.891060</course><hAcc>0.875039</hAcc><vAcc>0.682208</vAcc></extensions></trkpt>
      <trkpt lon="-3.306165" lat="54.550217"><ele>104.448357</ele><time>2021-08-12T12:19:17Z</time><extensions><speed>1.252423</speed><course>78.263519</course><hAcc>0.875129</hAcc><vAcc>0.682599</vAcc></extensions></trkpt>
      <trkpt lon="-3.306168" lat="54.550228"><ele>104.483643</ele><time>2021-08-12T12:19:18Z</time><extensions><speed>1.261361</speed><course>74.907532</course><hAcc>0.875220</hAcc><vAcc>0.683006</vAcc></extensions></trkpt>
      <trkpt lon="-3.306172" lat="54.550240"><ele>104.518326</ele><time>2021-08-12T12:19:19Z</time><extensions><speed>1.265852</speed><course>84.941742</course><hAcc>0.875303</hAcc><vAcc>0.683403</vAcc></extensions></trkpt>
      <trkpt lon="-3.306176" lat="54.550251"><ele>104.554993</ele><time>2021-08-12T12:19:20Z</time><extensions><speed>1.265714</speed><course>73.584358</course><hAcc>0.875374</hAcc><vAcc>0.683752</vAcc></extensions></trkpt>
      <trkpt lon="-3.306180" lat="54.550262"><ele>104.596001</ele><time>2021-08-12T12:19:21Z</time><extensions><speed>1.261530</speed><course>96.346313</course><hAcc>0.875426</hAcc><vAcc>0.684007</vAcc></extensions></trkpt>
      <trkpt lon="-3.306184" lat="54.550273"><ele>104.643135</ele><time>2021-08-12T12:19:22Z</time><extensions><speed>1.253956</speed><course>87.208282</course><hAcc>0.875455</hAcc><vAcc>0.684136</vAcc></extensions></trkpt>
      <trkpt lon="-3.306188" lat="54.550284"><ele>104.697487</ele><time>2021-08-12T12:19:23Z</time><extensions><speed>1.243583</speed><course>71.034035</course><hAcc>0.875461</hAcc><vAcc>0.684132</vAcc></extensions></trkpt>
      <trkpt lon="-3.306193" lat="54.550295"><ele>104.759705</ele><time>2021-08-12T12:19:24Z</time><extensions><speed>1.230630</speed><course>74.315559</course><hAcc>0.875447</hAcc><vAcc>0.684016</vAcc></extensions></trkpt>
      <trkpt lon="-3.306199" lat="54.550305"><ele>104.830116</ele><time>2021-08-12T12:19:25Z</time><extensions><speed>1.216114</speed><course>82.074326</course><hAcc>0.875418</hAcc><vAcc>0.683826</vAcc></extensions></trkpt>
      <trkpt lon="-3.306204" lat="54.550316"><ele>104.908386</ele><time>2021-08-12T12:19:26Z</time><extensions><speed>1.201710</speed><course>78.798851</course><hAcc>0.875384</hAcc><vAcc>0.683611</vAcc></extensions></trkpt>
      <trkpt lon="-3.306209" lat="54.550326"><ele>104.993515</ele><time>2021-08-12T12:19:27Z</time><extensions><speed>1.187938</speed><course>71.049065</course><hAcc>0.875349</hAcc><vAcc>0.683415</vAcc></extensions></trkpt>
      <trkpt lon="-3.306215" lat="54.550336"><ele>105.084053</ele><time>2021-08-12T12:19:28Z</time><extensions><speed>1.174238</speed><course>66.417450</course><hAcc>0.875322</hAcc><vAcc>0.683267</vAcc></extensions></trkpt>
      <trkpt lon="-3.306221" lat="54.550346"><ele>105.178108</ele><time>2021-08-12T12:19:29Z</time><extensions><speed>1.159920</speed><course>67.881187</course><hAcc>0.875305</hAcc><vAcc>0.683189</vAcc></extensions></trkpt>
      <trkpt lon="-3.306227" lat="54.550356"><ele>105.273430</ele><time>2021-08-12T12:19:30Z</time><extensions><speed>1.144230</speed><course>73.946594</course><hAcc>0.875302</hAcc><vAcc>0.683188</vAcc></extensions></trkpt>
      <trkpt lon="-3.306232" lat="54.550365"><ele>105.367393</ele><time>2021-08-12T12:19:31Z</time><extensions><speed>1.127216</speed><course>66.868568</course><hAcc>0.875312</hAcc><vAcc>0.683258</vAcc></extensions></trkpt>
      <trkpt lon="-3.306237" lat="54.550375"><ele>105.457016</ele><time>2021-08-12T12:19:32Z</time><extensions><speed>1.109856</speed><course>57.370388</course><hAcc>0.875333</hAcc><vAcc>0.683383</vAcc></extensions></trkpt>
      <trkpt lon="-3.306242" lat="54.550384"><ele>105.539116</ele><time>2021-08-12T12:19:33Z</time><extensions><speed>1.093205</speed><course>72.859169</course><hAcc>0.875362</hAcc><vAcc>0.683540</vAcc></extensions></trkpt>
      <trkpt lon="-3.306246" lat="54.550394"><ele>105.610626</ele><time>2021-08-12T12:19:34Z</time><extensions><speed>1.078529</speed><course>73.476959</course><hAcc>0.875395</hAcc><vAcc>0.683704</vAcc></extensions></trkpt>
      <trkpt lon="-3.306250" lat="54.550403"><ele>105.668770</ele><time>2021-08-12T12:19:35Z</time><extensions><speed>1.066839</speed><course>70.985191</course><hAcc>0.875428</hAcc><vAcc>0.683850</vAcc></extensions></trkpt>
      <trkpt lon="-3.306253" lat="54.550413"><ele>105.711395</ele><time>2021-08-12T12:19:36Z</time><extensions><speed>1.058257</speed><course>67.094063</course><hAcc>0.875457</hAcc><vAcc>0.683961</vAcc></extensions></trkpt>
      <trkpt lon="-3.306256" lat="54.550422"><ele>105.737274</ele><time>2021-08-12T12:19:37Z</time><extensions><speed>1.051943</speed><course>63.802017</course><hAcc>0.875481</hAcc><vAcc>0.684039</vAcc></extensions></trkpt>
      <trkpt lon="-3.306257" lat="54.550431"><ele>105.746086</ele><time>2021-08-12T12:19:38Z</time><extensions><speed>1.046174</speed><course>59.738853</course><hAcc>0.875498</hAcc><vAcc>0.684089</vAcc></extensions></trkpt>
      <trkpt lon="-3.306259" lat="54.550441"><ele>105.738380</ele><time>2021-08-12T12:19:39Z</time><extensions><speed>1.039902</speed><course>64.752533</course><hAcc>0.875507</hAcc><vAcc>0.684119</vAcc></extensions></trkpt>
      <trkpt lon="-3.306259" lat="54.550450"><ele>105.715591</ele><time>2021-08-12T12:19:40Z</time><extensions><speed>1.033209</speed><course>62.678837</course><hAcc>0.875508</hAcc><vAcc>0.684129</vAcc></extensions></trkpt>
      <trkpt lon="-3.306259" lat="54.550459"><ele>105.679886</ele><time>2021-08-12T12:19:41Z</time><extensions><speed>1.026282</speed><course>67.622025</course><hAcc>0.875501</hAcc><vAcc>0.684114</vAcc></extensions></trkpt>
      <trkpt lon="-3.306259" lat="54.550468"><ele>105.633690</ele><time>2021-08-12T12:19:42Z</time><extensions><speed>1.019496</speed><course>76.998230</course><hAcc>0.875483</hAcc><vAcc>0.684066</vAcc></extensions></trkpt>
      <trkpt lon="-3.306257" lat="54.550477"><ele>105.579590</ele><time>2021-08-12T12:19:43Z</time><extensions><speed>1.013368</speed><course>71.279175</course><hAcc>0.875455</hAcc><vAcc>0.683977</vAcc></extensions></trkpt>
      <trkpt lon="-3.306255" lat="54.550486"><ele>105.520363</ele><time>2021-08-12T12:19:44Z</time><extensions><speed>1.008592</speed><course>66.215858</course><hAcc>0.875417</hAcc><vAcc>0.683842</vAcc></extensions></trkpt>
      <trkpt lon="-3.306253" lat="54.550495"><ele>105.458450</ele><time>2021-08-12T12:19:45Z</time><extensions><speed>1.005315</speed><course>65.869171</course><hAcc>0.875371</hAcc><vAcc>0.683661</vAcc></extensions></trkpt>
      <trkpt lon="-3.306249" lat="54.550504"><ele>105.395660</ele><time>2021-08-12T12:19:46Z</time><extensions><speed>1.003502</speed><course>67.480362</course><hAcc>0.875321</hAcc><vAcc>0.683444</vAcc></extensions></trkpt>
      <trkpt lon="-3.306245" lat="54.550513"><ele>105.333214</ele><time>2021-08-12T12:19:47Z</time><extensions><speed>1.003410</speed><course>62.467888</course><hAcc>0.875270</hAcc><vAcc>0.683209</vAcc></extensions></trkpt>
      <trkpt lon="-3.306241" lat="54.550522"><ele>105.271873</ele><time>2021-08-12T12:19:48Z</time><extensions><speed>1.005417</speed><course>57.403885</course><hAcc>0.875226</hAcc><vAcc>0.682986</vAcc></extensions></trkpt>
      <trkpt lon="-3.306236" lat="54.550530"><ele>105.211739</ele><time>2021-08-12T12:19:49Z</time><extensions><speed>1.009932</speed><course>56.104736</course><hAcc>0.875196</hAcc><vAcc>0.682810</vAcc></extensions></trkpt>
      <trkpt lon="-3.306230" lat="54.550539"><ele>105.152107</ele><time>2021-08-12T12:19:50Z</time><extensions><speed>1.016812</speed><course>57.135769</course><hAcc>0.875186</hAcc><vAcc>0.682717</vAcc></extensions></trkpt>
      <trkpt lon="-3.306224" lat="54.550547"><ele>105.091728</ele><time>2021-08-12T12:19:51Z</time><extensions><speed>1.025728</speed><course>59.466648</course><hAcc>0.875202</hAcc><vAcc>0.682737</vAcc></extensions></trkpt>
      <trkpt lon="-3.306218" lat="54.550556"><ele>105.029388</ele><time>2021-08-12T12:19:52Z</time><extensions><speed>1.036458</speed><course>56.466339</course><hAcc>0.875249</hAcc><vAcc>0.682887</vAcc></extensions></trkpt>
      <trkpt lon="-3.306211" lat="54.550564"><ele>104.964432</ele><time>2021-08-12T12:19:53Z</time><extensions><speed>1.048830</speed><course>61.082169</course><hAcc>0.875327</hAcc><vAcc>0.683174</vAcc></extensions></trkpt>
      <trkpt lon="-3.306204" lat="54.550573"><ele>104.896996</ele><time>2021-08-12T12:19:54Z</time><extensions><speed>1.062521</speed><course>63.000797</course><hAcc>0.875438</hAcc><vAcc>0.683594</vAcc></extensions></trkpt>
      <trkpt lon="-3.306196" lat="54.550581"><ele>104.827850</ele><time>2021-08-12T12:19:55Z</time><extensions><speed>1.076708</speed><course>58.373146</course><hAcc>0.875577</hAcc><vAcc>0.684136</vAcc></extensions></trkpt>
      <trkpt lon="-3.306188" lat="54.550590"><ele>104.758003</ele><time>2021-08-12T12:19:56Z</time><extensions><speed>1.090371</speed><course>59.591164</course><hAcc>0.875742</hAcc><vAcc>0.684777</vAcc></extensions></trkpt>
      <trkpt lon="-3.306180" lat="54.550598"><ele>104.688354</ele><time>2021-08-12T12:19:57Z</time><extensions><speed>1.102764</speed><course>56.078835</course><hAcc>0.875924</hAcc><vAcc>0.685491</vAcc></extensions></trkpt>
      <trkpt lon="-3.306172" lat="54.550607"><ele>104.619545</ele><time>2021-08-12T12:19:58Z</time><extensions><speed>1.113090</speed><course>61.452141</course><hAcc>0.876119</hAcc><vAcc>0.686254</vAcc></extensions></trkpt>
      <trkpt lon="-3.306163" lat="54.550616"><ele>104.551949</ele><time>2021-08-12T12:19:59Z</time><extensions><speed>1.120575</speed><course>62.349373</course><hAcc>0.876317</hAcc><vAcc>0.687038</vAcc></extensions></trkpt>
      <trkpt lon="-3.306155" lat="54.550625"><ele>104.485641</ele><time>2021-08-12T12:20:00Z</time><extensions><speed>1.124510</speed><course>67.502327</course><hAcc>0.876509</hAcc><vAcc>0.687809</vAcc></extensions></trkpt>
      <trkpt lon="-3.306147" lat="54.550633"><ele>104.420349</ele><time>2021-08-12T12:20:01Z</time><extensions><speed>1.124417</speed><course>65.148994</course><hAcc>0.876688</hAcc><vAcc>0.688532</vAcc></extensions></trkpt>
      <trkpt lon="-3.306139" lat="54.550642"><ele>104.355736</ele><time>2021-08-12T12:20:02Z</time><extensions><speed>1.120405</speed><course>61.604351</course><hAcc>0.876843</hAcc><vAcc>0.689175</vAcc></extensions></trkpt>
      <trkpt lon="-3.306131" lat="54.550651"><ele>104.291718</ele><time>2021-08-12T12:20:03Z</time><extensions><speed>1.112778</speed><course>67.356651</course><hAcc>0.876968</hAcc><vAcc>0.689705</vAcc></extensions></trkpt>
      <trkpt lon="-3.306123" lat="54.550660"><ele>104.228615</ele><time>2021-08-12T12:20:04Z</time><extensions><speed>1.102222</speed><course>56.187717</course><hAcc>0.877056</hAcc><vAcc>0.690088</vAcc></extensions></trkpt>
      <trkpt lon="-3.306116" lat="54.550669"><ele>104.167107</ele><time>2021-08-12T12:20:05Z</time><extensions><speed>1.090510</speed><course>56.273357</course><hAcc>0.877100</hAcc><vAcc>0.690290</vAcc></extensions></trkpt>
      <trkpt lon="-3.306110" lat="54.550678"><ele>104.108170</ele><time>2021-08-12T12:20:06Z</time><extensions><speed>1.079363</speed><course>59.042984</course><hAcc>0.877100</hAcc><vAcc>0.690288</vAcc></extensions></trkpt>
      <trkpt lon="-3.306103" lat="54.550687"><ele>104.052841</ele><time>2021-08-12T12:20:07Z</time><extensions><speed>1.069525</speed><course>46.754299</course><hAcc>0.877054</hAcc><vAcc>0.690081</vAcc></extensions></trkpt>
      <trkpt lon="-3.306098" lat="54.550696"><ele>104.001831</ele><time>2021-08-12T12:20:08Z</time><extensions><speed>1.061555</speed><course>46.754295</course><hAcc>0.876966</hAcc><vAcc>0.689693</vAcc></extensions></trkpt>
      <trkpt lon="-3.306092" lat="54.550705"><ele>103.955353</ele><time>2021-08-12T12:20:09Z</time><extensions><speed>1.055561</speed><course>46.754295</course><hAcc>0.876842</hAcc><vAcc>0.689159</vAcc></extensions></trkpt>
      <trkpt lon="-3.306087" lat="54.550714"><ele>103.913376</ele><time>2021-08-12T12:20:10Z</time><extensions><speed>1.051349</speed><course>46.754295</course><hAcc>0.876689</hAcc><vAcc>0.688521</vAcc></extensions></trkpt>
      <trkpt lon="-3.306083" lat="54.550723"><ele>103.875801</ele><time>2021-08-12T12:20:11Z</time><extensions><speed>1.048778</speed><course>46.754295</course><hAcc>0.876515</hAcc><vAcc>0.687812</vAcc></extensions></trkpt>
      <trkpt lon="-3.306079" lat="54.550732"><ele>103.842438</ele><time>2021-08-12T12:20:12Z</time><extensions><speed>1.047038</speed><course>46.754295</course><hAcc>0.876330</hAcc><vAcc>0.687062</vAcc></extensions></trkpt>
      <trkpt lon="-3.306076" lat="54.550741"><ele>103.813156</ele><time>2021-08-12T12:20:13Z</time><extensions><speed>1.045257</speed><course>46.754295</course><hAcc>0.876142</hAcc><vAcc>0.686303</vAcc></extensions></trkpt>
      <trkpt lon="-3.306073" lat="54.550751"><ele>103.787613</ele><time>2021-08-12T12:20:14Z</time><extensions><speed>1.043239</speed><course>46.754292</course><hAcc>0.875962</hAcc><vAcc>0.685575</vAcc></extensions></trkpt>
      <trkpt lon="-3.306070" lat="54.550760"><ele>103.764908</ele><time>2021-08-12T12:20:15Z</time><extensions><speed>1.041334</speed><course>46.754295</course><hAcc>0.875797</hAcc><vAcc>0.684918</vAcc></extensions></trkpt>
      <trkpt lon="-3.306068" lat="54.550769"><ele>103.743828</ele><time>2021-08-12T12:20:16Z</time><extensions><speed>1.039713</speed><course>86.257805</course><hAcc>0.875656</hAcc><vAcc>0.684365</vAcc></extensions></trkpt>
      <trkpt lon="-3.306067" lat="54.550779"><ele>103.723328</ele><time>2021-08-12T12:20:17Z</time><extensions><speed>1.038103</speed><course>92.864906</course><hAcc>0.875545</hAcc><vAcc>0.683937</vAcc></extensions></trkpt>
      <trkpt lon="-3.306066" lat="54.550788"><ele>103.702759</ele><time>2021-08-12T12:20:18Z</time><extensions><speed>1.036339</speed><course>94.458534</course><hAcc>0.875467</hAcc><vAcc>0.683642</vAcc></extensions></trkpt>
      <trkpt lon="-3.306066" lat="54.550797"><ele>103.681610</ele><time>2021-08-12T12:20:19Z</time><extensions><speed>1.035160</speed><course>89.165138</course><hAcc>0.875423</hAcc><vAcc>0.683477</vAcc></extensions></trkpt>
      <trkpt lon="-3.306066" lat="54.550806"><ele>103.659286</ele><time>2021-08-12T12:20:20Z</time><extensions><speed>1.035755</speed><course>98.187202</course><hAcc>0.875415</hAcc><vAcc>0.683442</vAcc></extensions></trkpt>
      <trkpt lon="-3.306067" lat="54.550816"><ele>103.635254</ele><time>2021-08-12T12:20:21Z</time><extensions><speed>1.038660</speed><course>262.094696</course><hAcc>0.875441</hAcc><vAcc>0.683541</vAcc></extensions></trkpt>
      <trkpt lon="-3.306068" lat="54.550825"><ele>103.608948</ele><time>2021-08-12T12:20:22Z</time><extensions><speed>1.043795</speed><course>273.339569</course><hAcc>0.875504</hAcc><vAcc>0.683787</vAcc></extensions></trkpt>
      <trkpt lon="-3.306069" lat="54.550834"><ele>103.579514</ele><time>2021-08-12T12:20:23Z</time><extensions><speed>1.051227</speed><course>270.133057</course><hAcc>0.875599</hAcc><vAcc>0.684174</vAcc></extensions></trkpt>
      <trkpt lon="-3.306070" lat="54.550844"><ele>103.545830</ele><time>2021-08-12T12:20:24Z</time><extensions><speed>1.061416</speed><course>264.401459</course><hAcc>0.875724</hAcc><vAcc>0.684678</vAcc></extensions></trkpt>
      <trkpt lon="-3.306071" lat="54.550854"><ele>103.506783</ele><time>2021-08-12T12:20:25Z</time><extensions><speed>1.075122</speed><course>271.206299</course><hAcc>0.875873</hAcc><vAcc>0.685257</vAcc></extensions></trkpt>
      <trkpt lon="-3.306072" lat="54.550863"><ele>103.461555</ele><time>2021-08-12T12:20:26Z</time><extensions><speed>1.093129</speed><course>270.479279</course><hAcc>0.876043</hAcc><vAcc>0.685883</vAcc></extensions></trkpt>
      <trkpt lon="-3.306071" lat="54.550873"><ele>103.409782</ele><time>2021-08-12T12:20:27Z</time><extensions><speed>1.115883</speed><course>270.479279</course><hAcc>0.876235</hAcc><vAcc>0.686545</vAcc></extensions></trkpt>
      <trkpt lon="-3.306070" lat="54.550883"><ele>103.351265</ele><time>2021-08-12T12:20:28Z</time><extensions><speed>1.143344</speed><course>270.479279</course><hAcc>0.876456</hAcc><vAcc>0.687248</vAcc></extensions></trkpt>
      <trkpt lon="-3.306068" lat="54.550894"><ele>103.285828</ele><time>2021-08-12T12:20:29Z</time><extensions><speed>1.174354</speed><course>92.836548</course><hAcc>0.876717</hAcc><vAcc>0.687995</vAcc></extensions></trkpt>
      <trkpt lon="-3.306065" lat="54.550904"><ele>103.213524</ele><time>2021-08-12T12:20:30Z</time><extensions><speed>1.206442</speed><course>91.847809</course><hAcc>0.877034</hAcc><vAcc>0.688790</vAcc></extensions></trkpt>
      <trkpt lon="-3.306061" lat="54.550915"><ele>103.134605</ele><time>2021-08-12T12:20:31Z</time><extensions><speed>1.236933</speed><course>96.972961</course><hAcc>0.877434</hAcc><vAcc>0.689641</vAcc></extensions></trkpt>
      <trkpt lon="-3.306057" lat="54.550926"><ele>103.049393</ele><time>2021-08-12T12:20:32Z</time><extensions><speed>1.264086</speed><course>101.432434</course><hAcc>0.877946</hAcc><vAcc>0.690563</vAcc></extensions></trkpt>
      <trkpt lon="-3.306051" lat="54.550937"><ele>102.958366</ele><time>2021-08-12T12:20:33Z</time><extensions><speed>1.286871</speed><course>89.921867</course><hAcc>0.878611</hAcc><vAcc>0.691573</vAcc></extensions></trkpt>
      <trkpt lon="-3.306045" lat="54.550948"><ele>102.862312</ele><time>2021-08-12T12:20:34Z</time><extensions><speed>1.304968</speed><course>79.468422</course><hAcc>0.879470</hAcc><vAcc>0.692677</vAcc></extensions></trkpt>
      <trkpt lon="-3.306039" lat="54.550959"><ele>102.761978</ele><time>2021-08-12T12:20:35Z</time><extensions><speed>1.318060</speed><course>79.668663</course><hAcc>0.880561</hAcc><vAcc>0.693877</vAcc></extensions></trkpt>
      <trkpt lon="-3.306031" lat="54.550970"><ele>102.657806</ele><time>2021-08-12T12:20:36Z</time><extensions><speed>1.325134</speed><course>70.198914</course><hAcc>0.881917</hAcc><vAcc>0.695168</vAcc></extensions></trkpt>
      <trkpt lon="-3.306024" lat="54.550981"><ele>102.550232</ele><time>2021-08-12T12:20:37Z</time><extensions><speed>1.325579</speed><course>85.811096</course><hAcc>0.883548</hAcc><vAcc>0.696521</vAcc></extensions></trkpt>
      <trkpt lon="-3.306016" lat="54.550992"><ele>102.440239</ele><time>2021-08-12T12:20:38Z</time><extensions><speed>1.319413</speed><course>87.515213</course><hAcc>0.885433</hAcc><vAcc>0.697889</vAcc></extensions></trkpt>
      <trkpt lon="-3.306008" lat="54.551003"><ele>102.329376</ele><time>2021-08-12T12:20:39Z</time><extensions><speed>1.306395</speed><course>86.802406</course><hAcc>0.887505</hAcc><vAcc>0.699204</vAcc></extensions></trkpt>
      <trkpt lon="-3.306000" lat="54.551014"><ele>102.219070</ele><time>2021-08-12T12:20:40Z</time><extensions><speed>1.286156</speed><course>85.424927</course><hAcc>0.889644</hAcc><vAcc>0.700381</vAcc></extensions></trkpt>
      <trkpt lon="-3.305992" lat="54.551024"><ele>102.110176</ele><time>2021-08-12T12:20:41Z</time><extensions><speed>1.258560</speed><course>88.911957</course><hAcc>0.891672</hAcc><vAcc>0.701320</vAcc></extensions></trkpt>
      <trkpt lon="-3.305984" lat="54.551034"><ele>102.003311</ele><time>2021-08-12T12:20:42Z</time><extensions><speed>1.223790</speed><course>93.027184</course><hAcc>0.893378</hAcc><vAcc>0.701923</vAcc></extensions></trkpt>
      <trkpt lon="-3.305976" lat="54.551044"><ele>101.899155</ele><time>2021-08-12T12:20:43Z</time><extensions><speed>1.182048</speed><course>90.763535</course><hAcc>0.894561</hAcc><vAcc>0.702143</vAcc></extensions></trkpt>
      <trkpt lon="-3.305969" lat="54.551054"><ele>101.798347</ele><time>2021-08-12T12:20:44Z</time><extensions><speed>1.133769</speed><course>83.392509</course><hAcc>0.895133</hAcc><vAcc>0.702065</vAcc></extensions></trkpt>
      <trkpt lon="-3.305961" lat="54.551063"><ele>101.701149</ele><time>2021-08-12T12:20:45Z</time><extensions><speed>1.080303</speed><course>57.334152</course><hAcc>0.895283</hAcc><vAcc>0.702042</vAcc></extensions></trkpt>
      <trkpt lon="-3.305954" lat="54.551071"><ele>101.607277</ele><time>2021-08-12T12:20:46Z</time><extensions><speed>1.023536</speed><course>29.254333</course><hAcc>0.895739</hAcc><vAcc>0.702891</vAcc></extensions></trkpt>
      <trkpt lon="-3.305948" lat="54.551079"><ele>101.516205</ele><time>2021-08-12T12:20:47Z</time><extensions><speed>0.965533</speed><course>29.254333</course><hAcc>0.898141</hAcc><vAcc>0.706164</vAcc></extensions></trkpt>
      <trkpt lon="-3.305941" lat="54.551087"><ele>101.427483</ele><time>2021-08-12T12:20:48Z</time><extensions><speed>0.909119</speed><course>29.254333</course><hAcc>0.905495</hAcc><vAcc>0.714423</vAcc></extensions></trkpt>
      <trkpt lon="-3.305935" lat="54.551094"><ele>101.340752</ele><time>2021-08-12T12:20:49Z</time><extensions><speed>0.857685</speed><course>29.254332</course><hAcc>0.922617</hAcc><vAcc>0.731430</vAcc></extensions></trkpt>
      <trkpt lon="-3.305930" lat="54.551101"><ele>101.255699</ele><time>2021-08-12T12:20:50Z</time><extensions><speed>0.814196</speed><course>29.254333</course><hAcc>0.956298</hAcc><vAcc>0.762072</vAcc></extensions></trkpt>
      <trkpt lon="-3.305927" lat="54.551103"><ele>101.229286</ele><time>2021-08-12T12:20:51Z</time><extensions><speed>0.185609</speed><course>74.967865</course><hAcc>0.920114</hAcc><vAcc>0.730849</vAcc></extensions></trkpt>
      <trkpt lon="-3.305926" lat="54.551104"><ele>101.126610</ele><time>2021-08-12T12:20:52Z</time><extensions><speed>0.161681</speed><course>75.133301</course><hAcc>0.902222</hAcc><vAcc>0.712527</vAcc></extensions></trkpt>
      <trkpt lon="-3.305925" lat="54.551106"><ele>101.031868</ele><time>2021-08-12T12:20:53Z</time><extensions><speed>0.135575</speed><course>66.099251</course><hAcc>0.895355</hAcc><vAcc>0.704137</vAcc></extensions></trkpt>
      <trkpt lon="-3.305924" lat="54.551107"><ele>100.945930</ele><time>2021-08-12T12:20:54Z</time><extensions><speed>0.108349</speed><course>81.237114</course><hAcc>0.894011</hAcc><vAcc>0.701442</vAcc></extensions></trkpt>
      <trkpt lon="-3.305924" lat="54.551108"><ele>100.869453</ele><time>2021-08-12T12:20:55Z</time><extensions><speed>0.081308</speed><course>80.566093</course><hAcc>0.894762</hAcc><vAcc>0.701533</vAcc></extensions></trkpt>
      <trkpt lon="-3.305923" lat="54.551108"><ele>100.802826</ele><time>2021-08-12T12:20:56Z</time><extensions><speed>0.055661</speed><course>80.566109</course><hAcc>0.895768</hAcc><vAcc>0.702633</vAcc></extensions></trkpt>
      <trkpt lon="-3.305923" lat="54.551109"><ele>100.745964</ele><time>2021-08-12T12:20:57Z</time><extensions><speed>0.032432</speed><course>80.566093</course><hAcc>0.896244</hAcc><vAcc>0.703799</vAcc></extensions></trkpt>
      <trkpt lon="-3.305923" lat="54.551109"><ele>100.698418</ele><time>2021-08-12T12:20:58Z</time><extensions><speed>0.013025</speed><course>80.566093</course><hAcc>0.896040</hAcc><vAcc>0.704646</vAcc></extensions></trkpt>
      <trkpt lon="-3.305923" lat="54.551109"><ele>100.659515</ele><time>2021-08-12T12:20:59Z</time><extensions><speed>0.008904</speed><course>80.566093</course><hAcc>0.895328</hAcc><vAcc>0.705127</vAcc></extensions></trkpt>
      <trkpt lon="-3.305924" lat="54.551109"><ele>100.628464</ele><time>2021-08-12T12:21:00Z</time><extensions><speed>0.020616</speed><course>77.344681</course><hAcc>0.894409</hAcc><vAcc>0.705368</vAcc></extensions></trkpt>
      <trkpt lon="-3.305924" lat="54.551108"><ele>100.604332</ele><time>2021-08-12T12:21:01Z</time><extensions><speed>0.030173</speed><course>77.923714</course><hAcc>0.893587</hAcc><vAcc>0.705551</vAcc></extensions></trkpt>
      <trkpt lon="-3.305924" lat="54.551108"><ele>100.586159</ele><time>2021-08-12T12:21:02Z</time><extensions><speed>0.036500</speed><course>87.073212</course><hAcc>0.893100</hAcc><vAcc>0.705836</vAcc></extensions></trkpt>
      <trkpt lon="-3.305924" lat="54.551108"><ele>100.572899</ele><time>2021-08-12T12:21:03Z</time><extensions><speed>0.039889</speed><course>79.233902</course><hAcc>0.893083</hAcc><vAcc>0.706309</vAcc></extensions></trkpt>
      <trkpt lon="-3.305923" lat="54.551107"><ele>100.563416</ele><time>2021-08-12T12:21:04Z</time><extensions><speed>0.041123</speed><course>96.572746</course><hAcc>0.893556</hAcc><vAcc>0.706971</vAcc></extensions></trkpt>
      <trkpt lon="-3.305923" lat="54.551107"><ele>100.556549</ele><time>2021-08-12T12:21:05Z</time><extensions><speed>0.041448</speed><course>86.920219</course><hAcc>0.894428</hAcc><vAcc>0.707746</vAcc></extensions></trkpt>
      <trkpt lon="-3.305923" lat="54.551107"><ele>100.551231</ele><time>2021-08-12T12:21:06Z</time><extensions><speed>0.042808</speed><course>76.786201</course><hAcc>0.895511</hAcc><vAcc>0.708507</vAcc></extensions></trkpt>
      <trkpt lon="-3.305922" lat="54.551107"><ele>100.546608</ele><time>2021-08-12T12:21:07Z</time><extensions><speed>0.047799</speed><course>77.162971</course><hAcc>0.896557</hAcc><vAcc>0.709115</vAcc></extensions></trkpt>
      <trkpt lon="-3.305921" lat="54.551107"><ele>100.541962</ele><time>2021-08-12T12:21:08Z</time><extensions><speed>0.058167</speed><course>69.604996</course><hAcc>0.897325</hAcc><vAcc>0.709491</vAcc></extensions></trkpt>
      <trkpt lon="-3.305920" lat="54.551107"><ele>100.536522</ele><time>2021-08-12T12:21:09Z</time><extensions><speed>0.073933</speed><course>76.115456</course><hAcc>0.897685</hAcc><vAcc>0.709714</vAcc></extensions></trkpt>
      <trkpt lon="-3.305919" lat="54.551107"><ele>100.529526</ele><time>2021-08-12T12:21:10Z</time><extensions><speed>0.094666</speed><course>83.646278</course><hAcc>0.897799</hAcc><vAcc>0.710165</vAcc></extensions></trkpt>
      <trkpt lon="-3.305918" lat="54.551108"><ele>100.520279</ele><time>2021-08-12T12:21:11Z</time><extensions><speed>0.119183</speed><course>76.408623</course><hAcc>0.898376</hAcc><vAcc>0.711712</vAcc></extensions></trkpt>
      <trkpt lon="-3.305916" lat="54.551109"><ele>100.508247</ele><time>2021-08-12T12:21:12Z</time><extensions><speed>0.145761</speed><course>79.439453</course><hAcc>0.901043</hAcc><vAcc>0.715952</vAcc></extensions></trkpt>
      <trkpt lon="-3.305915" lat="54.551110"><ele>100.492989</ele><time>2021-08-12T12:21:13Z</time><extensions><speed>0.173230</speed><course>75.300941</course><hAcc>0.908798</hAcc><vAcc>0.725469</vAcc></extensions></trkpt>
      <trkpt lon="-3.305913" lat="54.551111"><ele>100.474236</ele><time>2021-08-12T12:21:14Z</time><extensions><speed>0.200622</speed><course>76.126534</course><hAcc>0.926433</hAcc><vAcc>0.744002</vAcc></extensions></trkpt>
      <trkpt lon="-3.305911" lat="54.551112"><ele>100.452003</ele><time>2021-08-12T12:21:15Z</time><extensions><speed>0.226901</speed><course>75.233688</course><hAcc>0.960695</hAcc><vAcc>0.776366</vAcc></extensions></trkpt>
      <trkpt lon="-3.305909" lat="54.551118"><ele>100.483025</ele><time>2021-08-12T12:21:16Z</time><extensions><speed>0.768433</speed><course>74.967865</course><hAcc>0.922565</hAcc><vAcc>0.739875</vAcc></extensions></trkpt>
      <trkpt lon="-3.305907" lat="54.551125"><ele>100.499443</ele><time>2021-08-12T12:21:17Z</time><extensions><speed>0.808569</speed><course>75.133301</course><hAcc>0.903861</hAcc><vAcc>0.719168</vAcc></extensions></trkpt>
      <trkpt lon="-3.305904" lat="54.551133"><ele>100.515488</ele><time>2021-08-12T12:21:18Z</time><extensions><speed>0.852547</speed><course>66.099251</course><hAcc>0.896095</hAcc><vAcc>0.708018</vAcc></extensions></trkpt>
      <trkpt lon="-3.305902" lat="54.551141"><ele>100.531754</ele><time>2021-08-12T12:21:19Z</time><extensions><speed>0.897683</speed><course>81.237114</course><hAcc>0.893782</hAcc><vAcc>0.702251</vAcc></extensions></trkpt>
      <trkpt lon="-3.305900" lat="54.551149"><ele>100.548904</ele><time>2021-08-12T12:21:20Z</time><extensions><speed>0.941647</speed><course>80.566093</course><hAcc>0.893491</hAcc><vAcc>0.699011</vAcc></extensions></trkpt>
      <trkpt lon="-3.305898" lat="54.551157"><ele>100.567375</ele><time>2021-08-12T12:21:21Z</time><extensions><speed>0.983438</speed><course>80.566109</course><hAcc>0.893367</hAcc><vAcc>0.696589</vAcc></extensions></trkpt>
      <trkpt lon="-3.305896" lat="54.551166"><ele>100.587311</ele><time>2021-08-12T12:21:22Z</time><extensions><speed>1.022901</speed><course>80.566093</course><hAcc>0.892606</hAcc><vAcc>0.694132</vAcc></extensions></trkpt>
      <trkpt lon="-3.305894" lat="54.551175"><ele>100.608711</ele><time>2021-08-12T12:21:23Z</time><extensions><speed>1.059241</speed><course>80.566093</course><hAcc>0.891031</hAcc><vAcc>0.691343</vAcc></extensions></trkpt>
      <trkpt lon="-3.305892" lat="54.551185"><ele>100.631538</ele><time>2021-08-12T12:21:24Z</time><extensions><speed>1.091558</speed><course>80.566093</course><hAcc>0.888783</hAcc><vAcc>0.688230</vAcc></extensions></trkpt>
      <trkpt lon="-3.305890" lat="54.551195"><ele>100.655632</ele><time>2021-08-12T12:21:25Z</time><extensions><speed>1.119722</speed><course>77.344681</course><hAcc>0.886130</hAcc><vAcc>0.684936</vAcc></extensions></trkpt>
      <trkpt lon="-3.305888" lat="54.551205"><ele>100.680664</ele><time>2021-08-12T12:21:26Z</time><extensions><speed>1.144459</speed><course>77.923714</course><hAcc>0.883346</hAcc><vAcc>0.681639</vAcc></extensions></trkpt>
      <trkpt lon="-3.305886" lat="54.551215"><ele>100.706474</ele><time>2021-08-12T12:21:27Z</time><extensions><speed>1.166086</speed><course>87.073212</course><hAcc>0.880658</hAcc><vAcc>0.678490</vAcc></extensions></trkpt>
      <trkpt lon="-3.305883" lat="54.551226"><ele>100.733299</ele><time>2021-08-12T12:21:28Z</time><extensions><speed>1.184508</speed><course>79.233902</course><hAcc>0.878220</hAcc><vAcc>0.675593</vAcc></extensions></trkpt>
      <trkpt lon="-3.305880" lat="54.551236"><ele>100.761421</ele><time>2021-08-12T12:21:29Z</time><extensions><speed>1.199761</speed><course>96.572746</course><hAcc>0.876119</hAcc><vAcc>0.673005</vAcc></extensions></trkpt>
      <trkpt lon="-3.305877" lat="54.551247"><ele>100.790794</ele><time>2021-08-12T12:21:30Z</time><extensions><speed>1.212284</speed><course>86.920219</course><hAcc>0.874383</hAcc><vAcc>0.670745</vAcc></extensions></trkpt>
      <trkpt lon="-3.305874" lat="54.551258"><ele>100.821297</ele><time>2021-08-12T12:21:31Z</time><extensions><speed>1.222608</speed><course>76.786201</course><hAcc>0.873002</hAcc><vAcc>0.668811</vAcc></extensions></trkpt>
      <trkpt lon="-3.305870" lat="54.551269"><ele>100.852783</ele><time>2021-08-12T12:21:32Z</time><extensions><speed>1.231329</speed><course>77.162971</course><hAcc>0.871942</hAcc><vAcc>0.667195</vAcc></extensions></trkpt>
      <trkpt lon="-3.305866" lat="54.551279"><ele>100.884895</ele><time>2021-08-12T12:21:33Z</time><extensions><speed>1.239379</speed><course>69.604996</course><hAcc>0.871160</hAcc><vAcc>0.665891</vAcc></extensions></trkpt>
      <trkpt lon="-3.305862" lat="54.551290"><ele>100.917030</ele><time>2021-08-12T12:21:34Z</time><extensions><speed>1.247688</speed><course>76.115456</course><hAcc>0.870612</hAcc><vAcc>0.664899</vAcc></extensions></trkpt>
      <trkpt lon="-3.305858" lat="54.551301"><ele>100.948418</ele><time>2021-08-12T12:21:35Z</time><extensions><speed>1.256607</speed><course>83.646278</course><hAcc>0.870257</hAcc><vAcc>0.664223</vAcc></extensions></trkpt>
      <trkpt lon="-3.305853" lat="54.551312"><ele>100.978302</ele><time>2021-08-12T12:21:36Z</time><extensions><speed>1.266415</speed><course>76.408623</course><hAcc>0.870059</hAcc><vAcc>0.663862</vAcc></extensions></trkpt>
      <trkpt lon="-3.305848" lat="54.551323"><ele>101.006096</ele><time>2021-08-12T12:21:37Z</time><extensions><speed>1.277133</speed><course>79.439453</course><hAcc>0.869991</hAcc><vAcc>0.663805</vAcc></extensions></trkpt>
      <trkpt lon="-3.305843" lat="54.551335"><ele>101.031494</ele><time>2021-08-12T12:21:38Z</time><extensions><speed>1.287755</speed><course>75.300941</course><hAcc>0.870025</hAcc><vAcc>0.664038</vAcc></extensions></trkpt>
      <trkpt lon="-3.305837" lat="54.551346"><ele>101.054573</ele><time>2021-08-12T12:21:39Z</time><extensions><speed>1.297309</speed><course>76.126534</course><hAcc>0.870144</hAcc><vAcc>0.664535</vAcc></extensions></trkpt>
      <trkpt lon="-3.305832" lat="54.551357"><ele>101.075699</ele><time>2021-08-12T12:21:40Z</time><extensions><speed>1.305262</speed><course>75.233688</course><hAcc>0.870329</hAcc><vAcc>0.665269</vAcc></extensions></trkpt>
      <trkpt lon="-3.305826" lat="54.551368"><ele>101.095352</ele><time>2021-08-12T12:21:41Z</time><extensions><speed>1.311188</speed><course>81.891060</course><hAcc>0.870565</hAcc><vAcc>0.666202</vAcc></extensions></trkpt>
      <trkpt lon="-3.305820" lat="54.551379"><ele>101.113892</ele><time>2021-08-12T12:21:42Z</time><extensions><speed>1.314564</speed><course>78.263519</course><hAcc>0.870837</hAcc><vAcc>0.667283</vAcc></extensions></trkpt>
      <trkpt lon="-3.305814" lat="54.551391"><ele>101.131302</ele><time>2021-08-12T12:21:43Z</time><extensions><speed>1.314967</speed><course>74.907532</course><hAcc>0.871125</hAcc><vAcc>0.668441</vAcc></extensions></trkpt>
      <trkpt lon="-3.305808" lat="54.551402"><ele>101.147148</ele><time>2021-08-12T12:21:44Z</time><extensions><speed>1.312177</speed><course>84.941742</course><hAcc>0.871412</hAcc><vAcc>0.669595</vAcc></extensions></trkpt>
      <trkpt lon="-3.305802" lat="54.551413"><ele>101.160744</ele><time>2021-08-12T12:21:45Z</time><extensions><speed>1.306812</speed><course>73.584358</course><hAcc>0.871680</hAcc><vAcc>0.670662</vAcc></extensions></trkpt>
      <trkpt lon="-3.305796" lat="54.551424"><ele>101.171692</ele><time>2021-08-12T12:21:46Z</time><extensions><speed>1.299734</speed><course>96.346313</course><hAcc>0.871913</hAcc><vAcc>0.671568</vAcc></extensions></trkpt>
      <trkpt lon="-3.305791" lat="54.551436"><ele>101.180038</ele><time>2021-08-12T12:21:47Z</time><extensions><speed>1.291255</speed><course>87.208282</course><hAcc>0.872100</hAcc><vAcc>0.672266</vAcc></extensions></trkpt>
      <trkpt lon="-3.305785" lat="54.551447"><ele>101.185997</ele><time>2021-08-12T12:21:48Z</time><extensions><speed>1.281718</speed><course>71.034035</course><hAcc>0.872235</hAcc><vAcc>0.672743</vAcc></extensions></trkpt>
      <trkpt lon="-3.305780" lat="54.551458"><ele>101.189941</ele><time>2021-08-12T12:21:49Z</time><extensions><speed>1.271392</speed><course>74.315559</course><hAcc>0.872317</hAcc><vAcc>0.673007</vAcc></extensions></trkpt>
      <trkpt lon="-3.305775" lat="54.551469"><ele>101.192551</ele><time>2021-08-12T12:21:50Z</time><extensions><speed>1.260656</speed><course>82.074326</course><hAcc>0.872347</hAcc><vAcc>0.673075</vAcc></extensions></trkpt>
      <trkpt lon="-3.305771" lat="54.551480"><ele>101.194839</ele><time>2021-08-12T12:21:51Z</time><extensions><speed>1.250089</speed><course>78.798851</course><hAcc>0.872330</hAcc><vAcc>0.672968</vAcc></extensions></trkpt>
      <trkpt lon="-3.305767" lat="54.551491"><ele>101.197807</ele><time>2021-08-12T12:21:52Z</time><extensions><speed>1.240288</speed><course>71.049065</course><hAcc>0.872270</hAcc><vAcc>0.672705</vAcc></extensions></trkpt>
      <trkpt lon="-3.305763" lat="54.551502"><ele>101.202087</ele><time>2021-08-12T12:21:53Z</time><extensions><speed>1.232155</speed><course>66.417450</course><hAcc>0.872174</hAcc><vAcc>0.672312</vAcc></extensions></trkpt>
      <trkpt lon="-3.305760" lat="54.551513"><ele>101.207863</ele><time>2021-08-12T12:21:54Z</time><extensions><speed>1.226142</speed><course>67.881187</course><hAcc>0.872050</hAcc><vAcc>0.671818</vAcc></extensions></trkpt>
      <trkpt lon="-3.305757" lat="54.551523"><ele>101.214966</ele><time>2021-08-12T12:21:55Z</time><extensions><speed>1.221724</speed><course>73.946594</course><hAcc>0.871906</hAcc><vAcc>0.671253</vAcc></extensions></trkpt>
      <trkpt lon="-3.305755" lat="54.551534"><ele>101.222939</ele><time>2021-08-12T12:21:56Z</time><extensions><speed>1.218477</speed><course>66.868568</course><hAcc>0.871751</hAcc><vAcc>0.670651</vAcc></extensions></trkpt>
      <trkpt lon="-3.305753" lat="54.551545"><ele>101.231056</ele><time>2021-08-12T12:21:57Z</time><extensions><speed>1.216540</speed><course>57.370388</course><hAcc>0.871594</hAcc><vAcc>0.670042</vAcc></extensions></trkpt>
      <trkpt lon="-3.305751" lat="54.551556"><ele>101.238586</ele><time>2021-08-12T12:21:58Z</time><extensions><speed>1.216175</speed><course>72.859169</course><hAcc>0.871441</hAcc><vAcc>0.669456</vAcc></extensions></trkpt>
      <trkpt lon="-3.305750" lat="54.551567"><ele>101.245079</ele><time>2021-08-12T12:21:59Z</time><extensions><speed>1.217323</speed><course>73.476959</course><hAcc>0.871301</hAcc><vAcc>0.668919</vAcc></extensions></trkpt>
      <trkpt lon="-3.305749" lat="54.551578"><ele>101.250214</ele><time>2021-08-12T12:22:00Z</time><extensions><speed>1.219667</speed><course>70.985191</course><hAcc>0.871179</hAcc><vAcc>0.668452</vAcc></extensions></trkpt>
      <trkpt lon="-3.305748" lat="54.551589"><ele>101.253700</ele><time>2021-08-12T12:22:01Z</time><extensions><speed>1.223143</speed><course>67.094063</course><hAcc>0.871079</hAcc><vAcc>0.668073</vAcc></extensions></trkpt>
      <trkpt lon="-3.305748" lat="54.551600"><ele>101.255295</ele><time>2021-08-12T12:22:02Z</time><extensions><speed>1.227807</speed><course>63.802017</course><hAcc>0.871006</hAcc><vAcc>0.667802</vAcc></extensions></trkpt>
      <trkpt lon="-3.305747" lat="54.551611"><ele>101.254768</ele><time>2021-08-12T12:22:03Z</time><extensions><speed>1.233492</speed><course>59.738853</course><hAcc>0.870960</hAcc><vAcc>0.667652</vAcc></extensions></trkpt>
      <trkpt lon="-3.305747" lat="54.551622"><ele>101.252121</ele><time>2021-08-12T12:22:04Z</time><extensions><speed>1.239898</speed><course>64.752533</course><hAcc>0.870943</hAcc><vAcc>0.667626</vAcc></extensions></trkpt>
      <trkpt lon="-3.305746" lat="54.551633"><ele>101.247795</ele><time>2021-08-12T12:22:05Z</time><extensions><speed>1.246825</speed><course>62.678837</course><hAcc>0.870949</hAcc><vAcc>0.667706</vAcc></extensions></trkpt>
      <trkpt lon="-3.305746" lat="54.551644"><ele>101.242531</ele><time>2021-08-12T12:22:06Z</time><extensions><speed>1.254090</speed><course>67.622025</course><hAcc>0.870971</hAcc><vAcc>0.667858</vAcc></extensions></trkpt>
      <trkpt lon="-3.305745" lat="54.551656"><ele>101.237053</ele><time>2021-08-12T12:22:07Z</time><extensions><speed>1.261363</speed><course>76.998230</course><hAcc>0.871001</hAcc><vAcc>0.668041</vAcc></extensions></trkpt>
      <trkpt lon="-3.305744" lat="54.551667"><ele>101.231941</ele><time>2021-08-12T12:22:08Z</time><extensions><speed>1.268556</speed><course>71.279175</course><hAcc>0.871031</hAcc><vAcc>0.668213</vAcc></extensions></trkpt>
      <trkpt lon="-3.305743" lat="54.551679"><ele>101.227882</ele><time>2021-08-12T12:22:09Z</time><extensions><speed>1.276366</speed><course>66.215858</course><hAcc>0.871053</hAcc><vAcc>0.668333</vAcc></extensions></trkpt>
      <trkpt lon="-3.305742" lat="54.551690"><ele>101.225464</ele><time>2021-08-12T12:22:10Z</time><extensions><speed>1.285471</speed><course>65.869171</course><hAcc>0.871063</hAcc><vAcc>0.668368</vAcc></extensions></trkpt>
      <trkpt lon="-3.305741" lat="54.551702"><ele>101.225227</ele><time>2021-08-12T12:22:11Z</time><extensions><speed>1.295973</speed><course>67.480362</course><hAcc>0.871060</hAcc><vAcc>0.668315</vAcc></extensions></trkpt>
      <trkpt lon="-3.305740" lat="54.551713"><ele>101.227821</ele><time>2021-08-12T12:22:12Z</time><extensions><speed>1.307501</speed><course>62.467888</course><hAcc>0.871051</hAcc><vAcc>0.668202</vAcc></extensions></trkpt>
      <trkpt lon="-3.305738" lat="54.551725"><ele>101.233925</ele><time>2021-08-12T12:22:13Z</time><extensions><speed>1.319229</speed><course>57.403885</course><hAcc>0.871047</hAcc><vAcc>0.668086</vAcc></extensions></trkpt>
      <trkpt lon="-3.305737" lat="54.551737"><ele>101.244255</ele><time>2021-08-12T12:22:14Z</time><extensions><speed>1.330270</speed><course>56.104736</course><hAcc>0.871059</hAcc><vAcc>0.668036</vAcc></extensions></trkpt>
      <trkpt lon="-3.305736" lat="54.551749"><ele>101.259689</ele><time>2021-08-12T12:22:15Z</time><extensions><speed>1.339794</speed><course>57.135769</course><hAcc>0.871103</hAcc><vAcc>0.668121</vAcc></extensions></trkpt>
      <trkpt lon="-3.305735" lat="54.551761"><ele>101.281288</ele><time>2021-08-12T12:22:16Z</time><extensions><speed>1.347224</speed><course>59.466648</course><hAcc>0.871187</hAcc><vAcc>0.668390</vAcc></extensions></trkpt>
      <trkpt lon="-3.305734" lat="54.551773"><ele>101.310089</ele><time>2021-08-12T12:22:17Z</time><extensions><speed>1.351971</speed><course>56.466339</course><hAcc>0.871317</hAcc><vAcc>0.668860</vAcc></extensions></trkpt>
      <trkpt lon="-3.305733" lat="54.551785"><ele>101.347107</ele><time>2021-08-12T12:22:18Z</time><extensions><speed>1.353039</speed><course>61.082169</course><hAcc>0.871489</hAcc><vAcc>0.669516</vAcc></extensions></trkpt>
      <trkpt lon="-3.305734" lat="54.551797"><ele>101.393318</ele><time>2021-08-12T12:22:19Z</time><extensions><speed>1.349636</speed><course>63.000797</course><hAcc>0.871698</hAcc><vAcc>0.670316</vAcc></extensions></trkpt>
      <trkpt lon="-3.305734" lat="54.551809"><ele>101.449471</ele><time>2021-08-12T12:22:20Z</time><extensions><speed>1.341143</speed><course>58.373146</course><hAcc>0.871935</hAcc><vAcc>0.671207</vAcc></extensions></trkpt>
      <trkpt lon="-3.305735" lat="54.551821"><ele>101.515800</ele><time>2021-08-12T12:22:21Z</time><extensions><speed>1.326441</speed><course>59.591164</course><hAcc>0.872189</hAcc><vAcc>0.672140</vAcc></extensions></trkpt>
      <trkpt lon="-3.305737" lat="54.551833"><ele>101.591721</ele><time>2021-08-12T12:22:22Z</time><extensions><speed>1.304463</speed><course>56.078835</course><hAcc>0.872452</hAcc><vAcc>0.673081</vAcc></extensions></trkpt>
      <trkpt lon="-3.305739" lat="54.551845"><ele>101.675560</ele><time>2021-08-12T12:22:23Z</time><extensions><speed>1.274647</speed><course>61.452141</course><hAcc>0.872719</hAcc><vAcc>0.674007</vAcc></extensions></trkpt>
      <trkpt lon="-3.305741" lat="54.551856"><ele>101.764740</ele><time>2021-08-12T12:22:24Z</time><extensions><speed>1.236862</speed><course>62.349373</course><hAcc>0.872984</hAcc><vAcc>0.674911</vAcc></extensions></trkpt>
      <trkpt lon="-3.305743" lat="54.551867"><ele>101.856102</ele><time>2021-08-12T12:22:25Z</time><extensions><speed>1.191223</speed><course>67.502327</course><hAcc>0.873244</hAcc><vAcc>0.675790</vAcc></extensions></trkpt>
      <trkpt lon="-3.305745" lat="54.551877"><ele>101.946182</ele><time>2021-08-12T12:22:26Z</time><extensions><speed>1.138234</speed><course>65.148994</course><hAcc>0.873496</hAcc><vAcc>0.676641</vAcc></extensions></trkpt>
      <trkpt lon="-3.305747" lat="54.551887"><ele>102.031868</ele><time>2021-08-12T12:22:27Z</time><extensions><speed>1.078797</speed><course>61.604351</course><hAcc>0.873735</hAcc><vAcc>0.677459</vAcc></extensions></trkpt>
      <trkpt lon="-3.305749" lat="54.551896"><ele>102.110931</ele><time>2021-08-12T12:22:28Z</time><extensions><speed>1.013162</speed><course>67.356651</course><hAcc>0.873960</hAcc><vAcc>0.678238</vAcc></extensions></trkpt>
      <trkpt lon="-3.305751" lat="54.551905"><ele>102.181915</ele><time>2021-08-12T12:22:29Z</time><extensions><speed>0.941355</speed><course>56.187717</course><hAcc>0.874167</hAcc><vAcc>0.678977</vAcc></extensions></trkpt>
      <trkpt lon="-3.305752" lat="54.551913"><ele>102.243858</ele><time>2021-08-12T12:22:30Z</time><extensions><speed>0.863991</speed><course>56.273357</course><hAcc>0.874359</hAcc><vAcc>0.679684</vAcc></extensions></trkpt>
      <trkpt lon="-3.305754" lat="54.551920"><ele>102.296341</ele><time>2021-08-12T12:22:31Z</time><extensions><speed>0.781519</speed><course>59.042984</course><hAcc>0.874543</hAcc><vAcc>0.680366</vAcc></extensions></trkpt>
      <trkpt lon="-3.305755" lat="54.551927"><ele>102.339539</ele><time>2021-08-12T12:22:32Z</time><extensions><speed>0.694389</speed><course>46.754299</course><hAcc>0.874732</hAcc><vAcc>0.681019</vAcc></extensions></trkpt>
      <trkpt lon="-3.305757" lat="54.551933"><ele>102.374016</ele><time>2021-08-12T12:22:33Z</time><extensions><speed>0.603707</speed><course>46.754295</course><hAcc>0.874952</hAcc><vAcc>0.681619</vAcc></extensions></trkpt>
      <trkpt lon="-3.305758" lat="54.551938"><ele>102.400421</ele><time>2021-08-12T12:22:34Z</time><extensions><speed>0.511908</speed><course>46.754295</course><hAcc>0.875243</hAcc><vAcc>0.682122</vAcc></extensions></trkpt>
      <trkpt lon="-3.305760" lat="54.551942"><ele>102.419373</ele><time>2021-08-12T12:22:35Z</time><extensions><speed>0.422504</speed><course>46.754295</course><hAcc>0.875669</hAcc><vAcc>0.682475</vAcc></extensions></trkpt>
      <trkpt lon="-3.305761" lat="54.551945"><ele>102.431610</ele><time>2021-08-12T12:22:36Z</time><extensions><speed>0.338754</speed><course>46.754295</course><hAcc>0.876324</hAcc><vAcc>0.682612</vAcc></extensions></trkpt>
      <trkpt lon="-3.305762" lat="54.551948"><ele>102.437973</ele><time>2021-08-12T12:22:37Z</time><extensions><speed>0.263316</speed><course>46.754295</course><hAcc>0.877331</hAcc><vAcc>0.682460</vAcc></extensions></trkpt>
      <trkpt lon="-3.305764" lat="54.551950"><ele>102.439316</ele><time>2021-08-12T12:22:38Z</time><extensions><speed>0.197976</speed><course>46.754295</course><hAcc>0.878845</hAcc><vAcc>0.681945</vAcc></extensions></trkpt>
      <trkpt lon="-3.305765" lat="54.551951"><ele>102.436592</ele><time>2021-08-12T12:22:39Z</time><extensions><speed>0.143334</speed><course>46.754292</course><hAcc>0.881036</hAcc><vAcc>0.680998</vAcc></extensions></trkpt>
      <trkpt lon="-3.305765" lat="54.551952"><ele>102.430954</ele><time>2021-08-12T12:22:40Z</time><extensions><speed>0.098761</speed><course>46.754295</course><hAcc>0.884073</hAcc><vAcc>0.679582</vAcc></extensions></trkpt>
      <trkpt lon="-3.305766" lat="54.551953"><ele>102.423355</ele><time>2021-08-12T12:22:41Z</time><extensions><speed>0.064817</speed><course>86.257805</course><hAcc>0.888084</hAcc><vAcc>0.677719</vAcc></extensions></trkpt>
      <trkpt lon="-3.305766" lat="54.551953"><ele>102.414360</ele><time>2021-08-12T12:22:42Z</time><extensions><speed>0.048116</speed><course>92.864906</course><hAcc>0.893106</hAcc><vAcc>0.675517</vAcc></extensions></trkpt>
      <trkpt lon="-3.305766" lat="54.551954"><ele>102.404167</ele><time>2021-08-12T12:22:43Z</time><extensions><speed>0.056963</speed><course>94.458534</course><hAcc>0.899016</hAcc><vAcc>0.673170</vAcc></extensions></trkpt>
      <trkpt lon="-3.305765" lat="54.551954"><ele>102.392830</ele><time>2021-08-12T12:22:44Z</time><extensions><speed>0.082974</speed><course>89.165138</course><hAcc>0.905478</hAcc><vAcc>0.670909</vAcc></extensions></trkpt>
      <trkpt lon="-3.305764" lat="54.551955"><ele>102.380516</ele><time>2021-08-12T12:22:45Z</time><extensions><speed>0.117918</speed><course>98.187202</course><hAcc>0.911928</hAcc><vAcc>0.668946</vAcc></extensions></trkpt>
      <trkpt lon="-3.305763" lat="54.551956"><ele>102.367104</ele><time>2021-08-12T12:22:46Z</time><extensions><speed>0.160620</speed><course>262.094696</course><hAcc>0.917694</hAcc><vAcc>0.667436</vAcc></extensions></trkpt>
      <trkpt lon="-3.305761" lat="54.551957"><ele>102.351608</ele><time>2021-08-12T12:22:47Z</time><extensions><speed>0.211750</speed><course>273.339569</course><hAcc>0.922145</hAcc><vAcc>0.666448</vAcc></extensions></trkpt>
      <trkpt lon="-3.305759" lat="54.551959"><ele>102.332664</ele><time>2021-08-12T12:22:48Z</time><extensions><speed>0.271975</speed><course>270.133057</course><hAcc>0.924785</hAcc><vAcc>0.665960</vAcc></extensions></trkpt>
      <trkpt lon="-3.305757" lat="54.551962"><ele>102.309425</ele><time>2021-08-12T12:22:49Z</time><extensions><speed>0.341548</speed><course>264.401459</course><hAcc>0.925295</hAcc><vAcc>0.665898</vAcc></extensions></trkpt>
      <trkpt lon="-3.305756" lat="54.551965"><ele>102.281776</ele><time>2021-08-12T12:22:50Z</time><extensions><speed>0.419730</speed><course>271.206299</course><hAcc>0.923560</hAcc><vAcc>0.666180</vAcc></extensions></trkpt>
      <trkpt lon="-3.305754" lat="54.551969"><ele>102.249611</ele><time>2021-08-12T12:22:51Z</time><extensions><speed>0.504988</speed><course>270.479279</course><hAcc>0.919694</hAcc><vAcc>0.666741</vAcc></extensions></trkpt>
      <trkpt lon="-3.305753" lat="54.551974"><ele>102.212395</ele><time>2021-08-12T12:22:52Z</time><extensions><speed>0.595120</speed><course>270.479279</course><hAcc>0.914080</hAcc><vAcc>0.667545</vAcc></extensions></trkpt>
      <trkpt lon="-3.305752" lat="54.551980"><ele>102.169304</ele><time>2021-08-12T12:22:53Z</time><extensions><speed>0.686988</speed><course>270.479279</course><hAcc>0.907401</hAcc><vAcc>0.668590</vAcc></extensions></trkpt>
      <trkpt lon="-3.305751" lat="54.551986"><ele>102.119926</ele><time>2021-08-12T12:22:54Z</time><extensions><speed>0.776826</speed><course>92.836548</course><hAcc>0.900503</hAcc><vAcc>0.669901</vAcc></extensions></trkpt>
      <trkpt lon="-3.305751" lat="54.551993"><ele>102.064644</ele><time>2021-08-12T12:22:55Z</time><extensions><speed>0.861205</speed><course>91.847809</course><hAcc>0.894105</hAcc><vAcc>0.671488</vAcc></extensions></trkpt>
      <trkpt lon="-3.305752" lat="54.552001"><ele>102.004173</ele><time>2021-08-12T12:22:56Z</time><extensions><speed>0.937551</speed><course>96.972961</course><hAcc>0.888649</hAcc><vAcc>0.673329</vAcc></extensions></trkpt>
      <trkpt lon="-3.305753" lat="54.552010"><ele>101.939331</ele><time>2021-08-12T12:22:57Z</time><extensions><speed>1.004157</speed><course>101.432434</course><hAcc>0.884329</hAcc><vAcc>0.675375</vAcc></extensions></trkpt>
      <trkpt lon="-3.305755" lat="54.552019"><ele>101.870819</ele><time>2021-08-12T12:22:58Z</time><extensions><speed>1.061318</speed><course>89.921867</course><hAcc>0.881149</hAcc><vAcc>0.677559</vAcc></extensions></trkpt>
      <trkpt lon="-3.305758" lat="54.552029"><ele>101.798851</ele><time>2021-08-12T12:22:59Z</time><extensions><speed>1.110506</speed><course>79.468422</course><hAcc>0.878992</hAcc><vAcc>0.679802</vAcc></extensions></trkpt>
      <trkpt lon="-3.305761" lat="54.552039"><ele>101.723213</ele><time>2021-08-12T12:23:00Z</time><extensions><speed>1.152637</speed><course>79.668663</course><hAcc>0.877677</hAcc><vAcc>0.682033</vAcc></extensions></trkpt>
      <trkpt lon="-3.305765" lat="54.552049"><ele>101.643547</ele><time>2021-08-12T12:23:01Z</time><extensions><speed>1.187834</speed><course>70.198914</course><hAcc>0.877007</hAcc><vAcc>0.684194</vAcc></extensions></trkpt>
      <trkpt lon="-3.305770" lat="54.552060"><ele>101.559715</ele><time>2021-08-12T12:23:02Z</time><extensions><speed>1.215775</speed><course>85.811096</course><hAcc>0.876793</hAcc><vAcc>0.686238</vAcc></extensions></trkpt>
      <trkpt lon="-3.305775" lat="54.552070"><ele>101.472130</ele><time>2021-08-12T12:23:03Z</time><extensions><speed>1.236398</speed><course>87.515213</course><hAcc>0.876877</hAcc><vAcc>0.688129</vAcc></extensions></trkpt>
      <trkpt lon="-3.305780" lat="54.552081"><ele>101.381584</ele><time>2021-08-12T12:23:04Z</time><extensions><speed>1.250035</speed><course>86.802406</course><hAcc>0.877134</hAcc><vAcc>0.689837</vAcc></extensions></trkpt>
      <trkpt lon="-3.305785" lat="54.552092"><ele>101.288826</ele><time>2021-08-12T12:23:05Z</time><extensions><speed>1.257804</speed><course>85.424927</course><hAcc>0.877473</hAcc><vAcc>0.691350</vAcc></extensions></trkpt>
      <trkpt lon="-3.305791" lat="54.552103"><ele>101.194641</ele><time>2021-08-12T12:23:06Z</time><extensions><speed>1.261717</speed><course>88.911957</course><hAcc>0.877834</hAcc><vAcc>0.692673</vAcc></extensions></trkpt>
      <trkpt lon="-3.305796" lat="54.552114"><ele>101.100166</ele><time>2021-08-12T12:23:07Z</time><extensions><speed>1.263286</speed><course>93.027184</course><hAcc>0.878182</hAcc><vAcc>0.693824</vAcc></extensions></trkpt>
      <trkpt lon="-3.305802" lat="54.552125"><ele>101.006783</ele><time>2021-08-12T12:23:08Z</time><extensions><speed>1.263811</speed><course>90.763535</course><hAcc>0.878499</hAcc><vAcc>0.694828</vAcc></extensions></trkpt>
      <trkpt lon="-3.305807" lat="54.552135"><ele>100.916115</ele><time>2021-08-12T12:23:09Z</time><extensions><speed>1.264947</speed><course>83.392509</course><hAcc>0.878779</hAcc><vAcc>0.695719</vAcc></extensions></trkpt>
      <trkpt lon="-3.305813" lat="54.552146"><ele>100.830635</ele><time>2021-08-12T12:23:10Z</time><extensions><speed>1.267966</speed><course>57.334152</course><hAcc>0.879025</hAcc><vAcc>0.696533</vAcc></extensions></trkpt>
      <trkpt lon="-3.305820" lat="54.552157"><ele>100.753815</ele><time>2021-08-12T12:23:11Z</time><extensions><speed>1.273558</speed><course>29.254333</course><hAcc>0.879241</hAcc><vAcc>0.697299</vAcc></extensions></trkpt>
      <trkpt lon="-3.305826" lat="54.552168"><ele>100.688980</ele><time>2021-08-12T12:23:12Z</time><extensions><speed>1.281039</speed><course>29.254333</course><hAcc>0.879434</hAcc><vAcc>0.698031</vAcc></extensions></trkpt>
      <trkpt lon="-3.305833" lat="54.552179"><ele>100.638344</ele><time>2021-08-12T12:23:13Z</time><extensions><speed>1.289416</speed><course>29.254333</course><hAcc>0.879608</hAcc><vAcc>0.698723</vAcc></extensions></trkpt>
      <trkpt lon="-3.305841" lat="54.552190"><ele>100.603378</ele><time>2021-08-12T12:23:14Z</time><extensions><speed>1.298308</speed><course>29.254332</course><hAcc>0.879767</hAcc><vAcc>0.699359</vAcc></extensions></trkpt>
      <trkpt lon="-3.305848" lat="54.552200"><ele>100.585320</ele><time>2021-08-12T12:23:15Z</time><extensions><speed>1.307227</speed><course>29.254333</course><hAcc>0.879913</hAcc><vAcc>0.699929</vAcc></extensions></trkpt>
      <trkpt lon="-3.305856" lat="54.552211"><ele>100.584961</ele><time>2021-08-12T12:23:16Z</time><extensions><speed>1.315428</speed><course>29.254332</course><hAcc>0.880048</hAcc><vAcc>0.700435</vAcc></extensions></trkpt>
      <trkpt lon="-3.305864" lat="54.552222"><ele>100.602226</ele><time>2021-08-12T12:23:17Z</time><extensions><speed>1.321931</speed><course>29.254332</course><hAcc>0.880171</hAcc><vAcc>0.700892</vAcc></extensions></trkpt>
      <trkpt lon="-3.305872" lat="54.552233"><ele>100.636093</ele><time>2021-08-12T12:23:18Z</time><extensions><speed>1.325730</speed><course>29.254333</course><hAcc>0.880283</hAcc><vAcc>0.701310</vAcc></extensions></trkpt>
      <trkpt lon="-3.305880" lat="54.552244"><ele>100.684853</ele><time>2021-08-12T12:23:19Z</time><extensions><speed>1.325936</speed><course>29.254333</course><hAcc>0.880381</hAcc><vAcc>0.701697</vAcc></extensions></trkpt>
      <trkpt lon="-3.305887" lat="54.552255"><ele>100.746208</ele><time>2021-08-12T12:23:20Z</time><extensions><speed>1.322201</speed><course>29.254332</course><hAcc>0.880465</hAcc><vAcc>0.702046</vAcc></extensions></trkpt>
      <trkpt lon="-3.305895" lat="54.552266"><ele>100.817299</ele><time>2021-08-12T12:23:21Z</time><extensions><speed>1.314790</speed><course>29.254333</course><hAcc>0.880530</hAcc><vAcc>0.702343</vAcc></extensions></trkpt>
      <trkpt lon="-3.305902" lat="54.552277"><ele>100.894958</ele><time>2021-08-12T12:23:22Z</time><extensions><speed>1.304196</speed><course>29.254337</course><hAcc>0.880576</hAcc><vAcc>0.702570</vAcc></extensions></trkpt>
      <trkpt lon="-3.305909" lat="54.552288"><ele>100.976097</ele><time>2021-08-12T12:23:23Z</time><extensions><speed>1.291225</speed><course>29.254337</course><hAcc>0.880600</hAcc><vAcc>0.702710</vAcc></extensions></trkpt>
      <trkpt lon="-3.305915" lat="54.552299"><ele>101.057907</ele><time>2021-08-12T12:23:24Z</time><extensions><speed>1.277033</speed><course>29.254339</course><hAcc>0.880601</hAcc><vAcc>0.702745</vAcc></extensions></trkpt>
      <trkpt lon="-3.305921" lat="54.552310"><ele>101.138107</ele><time>2021-08-12T12:23:25Z</time><extensions><speed>1.262756</speed><course>29.254337</course><hAcc>0.880579</hAcc><vAcc>0.702664</vAcc></extensions></trkpt>
      <trkpt lon="-3.305927" lat="54.552321"><ele>101.215195</ele><time>2021-08-12T12:23:26Z</time><extensions><speed>1.249481</speed><course>29.254339</course><hAcc>0.880535</hAcc><vAcc>0.702468</vAcc></extensions></trkpt>
      <trkpt lon="-3.305932" lat="54.552331"><ele>101.288445</ele><time>2021-08-12T12:23:27Z</time><extensions><speed>1.238104</speed><course>353.139893</course><hAcc>0.880473</hAcc><vAcc>0.702177</vAcc></extensions></trkpt>
      <trkpt lon="-3.305937" lat="54.552342"><ele>101.358009</ele><time>2021-08-12T12:23:28Z</time><extensions><speed>1.228866</speed><course>-1.000000</course><hAcc>0.880395</hAcc><vAcc>0.701821</vAcc></extensions></trkpt>
      <trkpt lon="-3.305942" lat="54.552353"><ele>101.424789</ele><time>2021-08-12T12:23:29Z</time><extensions><speed>1.221323</speed><course>-1.000000</course><hAcc>0.880309</hAcc><vAcc>0.701430</vAcc></extensions></trkpt>
      <trkpt lon="-3.305947" lat="54.552363"><ele>101.489883</ele><time>2021-08-12T12:23:30Z</time><extensions><speed>1.214736</speed><course>-1.000000</course><hAcc>0.880218</hAcc><vAcc>0.701025</vAcc></extensions></trkpt>
      <trkpt lon="-3.305951" lat="54.552374"><ele>101.554161</ele><time>2021-08-12T12:23:31Z</time><extensions><speed>1.209153</speed><course>-1.000000</course><hAcc>0.880132</hAcc><vAcc>0.700631</vAcc></extensions></trkpt>
      <trkpt lon="-3.305956" lat="54.552384"><ele>101.618423</ele><time>2021-08-12T12:23:32Z</time><extensions><speed>1.205386</speed><course>-1.000000</course><hAcc>0.880056</hAcc><vAcc>0.700271</vAcc></extensions></trkpt>
      <trkpt lon="-3.305961" lat="54.552395"><ele>101.683601</ele><time>2021-08-12T12:23:33Z</time><extensions><speed>1.204253</speed><course>-1.000000</course><hAcc>0.879997</hAcc><vAcc>0.699979</vAcc></extensions></trkpt>
      <trkpt lon="-3.305967" lat="54.552405"><ele>101.750587</ele><time>2021-08-12T12:23:34Z</time><extensions><speed>1.206844</speed><course>-1.000000</course><hAcc>0.879962</hAcc><vAcc>0.699788</vAcc></extensions></trkpt>
      <trkpt lon="-3.305973" lat="54.552415"><ele>101.819862</ele><time>2021-08-12T12:23:35Z</time><extensions><speed>1.213413</speed><course>-1.000000</course><hAcc>0.879954</hAcc><vAcc>0.699724</vAcc></extensions></trkpt>
      <trkpt lon="-3.305979" lat="54.552426"><ele>101.891594</ele><time>2021-08-12T12:23:36Z</time><extensions><speed>1.223195</speed><course>-1.000000</course><hAcc>0.879978</hAcc><vAcc>0.699805</vAcc></extensions></trkpt>
      <trkpt lon="-3.305986" lat="54.552436"><ele>101.966026</ele><time>2021-08-12T12:23:37Z</time><extensions><speed>1.235653</speed><course>-1.000000</course><hAcc>0.880033</hAcc><vAcc>0.700032</vAcc></extensions></trkpt>
      <trkpt lon="-3.305994" lat="54.552446"><ele>102.043488</ele><time>2021-08-12T12:23:38Z</time><extensions><speed>1.249699</speed><course>-1.000000</course><hAcc>0.880120</hAcc><vAcc>0.700390</vAcc></extensions></trkpt>
      <trkpt lon="-3.306002" lat="54.552456"><ele>102.124298</ele><time>2021-08-12T12:23:39Z</time><extensions><speed>1.263836</speed><course>74.830536</course><hAcc>0.880234</hAcc><vAcc>0.700859</vAcc></extensions></trkpt>
      <trkpt lon="-3.306010" lat="54.552467"><ele>102.208656</ele><time>2021-08-12T12:23:40Z</time><extensions><speed>1.277085</speed><course>62.161198</course><hAcc>0.880371</hAcc><vAcc>0.701415</vAcc></extensions></trkpt>
      <trkpt lon="-3.306019" lat="54.552477"><ele>102.296692</ele><time>2021-08-12T12:23:41Z</time><extensions><speed>1.288755</speed><course>66.043793</course><hAcc>0.880525</hAcc><vAcc>0.702037</vAcc></extensions></trkpt>
      <trkpt lon="-3.306029" lat="54.552487"><ele>102.388550</ele><time>2021-08-12T12:23:42Z</time><extensions><speed>1.298009</speed><course>75.803009</course><hAcc>0.880690</hAcc><vAcc>0.702707</vAcc></extensions></trkpt>
      <trkpt lon="-3.306038" lat="54.552498"><ele>102.484200</ele><time>2021-08-12T12:23:43Z</time><extensions><speed>1.304315</speed><course>76.191063</course><hAcc>0.880857</hAcc><vAcc>0.703402</vAcc></extensions></trkpt>
      <trkpt lon="-3.306047" lat="54.552508"><ele>102.583069</ele><time>2021-08-12T12:23:44Z</time><extensions><speed>1.307780</speed><course>76.349960</course><hAcc>0.881019</hAcc><vAcc>0.704092</vAcc></extensions></trkpt>
      <trkpt lon="-3.306057" lat="54.552518"><ele>102.683998</ele><time>2021-08-12T12:23:45Z</time><extensions><speed>1.308332</speed><course>78.477806</course><hAcc>0.881168</hAcc><vAcc>0.704740</vAcc></extensions></trkpt>
      <trkpt lon="-3.306066" lat="54.552529"><ele>102.785477</ele><time>2021-08-12T12:23:46Z</time><extensions><speed>1.305966</speed><course>75.070290</course><hAcc>0.881296</hAcc><vAcc>0.705307</vAcc></extensions></trkpt>
      <trkpt lon="-3.306075" lat="54.552539"><ele>102.885841</ele><time>2021-08-12T12:23:47Z</time><extensions><speed>1.301750</speed><course>69.086029</course><hAcc>0.881397</hAcc><vAcc>0.705754</vAcc></extensions></trkpt>
      <trkpt lon="-3.306084" lat="54.552550"><ele>102.983498</ele><time>2021-08-12T12:23:48Z</time><extensions><speed>1.297145</speed><course>68.949226</course><hAcc>0.881464</hAcc><vAcc>0.706047</vAcc></extensions></trkpt>
      <trkpt lon="-3.306092" lat="54.552560"><ele>103.076958</ele><time>2021-08-12T12:23:49Z</time><extensions><speed>1.292882</speed><course>71.686111</course><hAcc>0.881493</hAcc><vAcc>0.706166</vAcc></extensions></trkpt>
      <trkpt lon="-3.306100" lat="54.552571"><ele>103.164841</ele><time>2021-08-12T12:23:50Z</time><extensions><speed>1.289171</speed><course>76.597496</course><hAcc>0.881480</hAcc><vAcc>0.706104</vAcc></extensions></trkpt>
      <trkpt lon="-3.306108" lat="54.552582"><ele>103.245834</ele><time>2021-08-12T12:23:51Z</time><extensions><speed>1.285954</speed><course>90.005066</course><hAcc>0.881423</hAcc><vAcc>0.705863</vAcc></extensions></trkpt>
      <trkpt lon="-3.306115" lat="54.552592"><ele>103.318802</ele><time>2021-08-12T12:23:52Z</time><extensions><speed>1.282822</speed><course>83.948074</course><hAcc>0.881320</hAcc><vAcc>0.705454</vAcc></extensions></trkpt>
      <trkpt lon="-3.306122" lat="54.552603"><ele>103.382843</ele><time>2021-08-12T12:23:53Z</time><extensions><speed>1.279363</speed><course>76.996796</course><hAcc>0.881170</hAcc><vAcc>0.704890</vAcc></extensions></trkpt>
      <trkpt lon="-3.306128" lat="54.552614"><ele>103.437454</ele><time>2021-08-12T12:23:54Z</time><extensions><speed>1.275525</speed><course>79.507355</course><hAcc>0.880973</hAcc><vAcc>0.704176</vAcc></extensions></trkpt>
      <trkpt lon="-3.306134" lat="54.552625"><ele>103.482437</ele><time>2021-08-12T12:23:55Z</time><extensions><speed>1.271243</speed><course>72.096832</course><hAcc>0.880731</hAcc><vAcc>0.703309</vAcc></extensions></trkpt>
      <trkpt lon="-3.306139" lat="54.552636"><ele>103.517670</ele><time>2021-08-12T12:23:56Z</time><extensions><speed>1.266526</speed><course>80.368279</course><hAcc>0.880443</hAcc><vAcc>0.702287</vAcc></extensions></trkpt>
      <trkpt lon="-3.306144" lat="54.552647"><ele>103.543266</ele><time>2021-08-12T12:23:57Z</time><extensions><speed>1.261594</speed><course>78.982643</course><hAcc>0.880113</hAcc><vAcc>0.701112</vAcc></extensions></trkpt>
      <trkpt lon="-3.306148" lat="54.552658"><ele>103.559746</ele><time>2021-08-12T12:23:58Z</time><extensions><speed>1.257065</speed><course>81.075706</course><hAcc>0.879743</hAcc><vAcc>0.699789</vAcc></extensions></trkpt>
      <trkpt lon="-3.306151" lat="54.552669"><ele>103.567574</ele><time>2021-08-12T12:23:59Z</time><extensions><speed>1.253764</speed><course>81.007790</course><hAcc>0.879337</hAcc><vAcc>0.698324</vAcc></extensions></trkpt>
      <trkpt lon="-3.306154" lat="54.552680"><ele>103.566437</ele><time>2021-08-12T12:24:00Z</time><extensions><speed>1.251987</speed><course>78.272133</course><hAcc>0.878901</hAcc><vAcc>0.696732</vAcc></extensions></trkpt>
      <trkpt lon="-3.306155" lat="54.552692"><ele>103.555328</ele><time>2021-08-12T12:24:01Z</time><extensions><speed>1.251678</speed><course>73.069588</course><hAcc>0.878445</hAcc><vAcc>0.695033</vAcc></extensions></trkpt>
      <trkpt lon="-3.306157" lat="54.552703"><ele>103.533028</ele><time>2021-08-12T12:24:02Z</time><extensions><speed>1.252727</speed><course>77.189682</course><hAcc>0.877978</hAcc><vAcc>0.693256</vAcc></extensions></trkpt>
      <trkpt lon="-3.306158" lat="54.552714"><ele>103.498123</ele><time>2021-08-12T12:24:03Z</time><extensions><speed>1.254858</speed><course>75.197517</course><hAcc>0.877513</hAcc><vAcc>0.691449</vAcc></extensions></trkpt>
      <trkpt lon="-3.306158" lat="54.552725"><ele>103.449135</ele><time>2021-08-12T12:24:04Z</time><extensions><speed>1.257823</speed><course>67.733307</course><hAcc>0.877068</hAcc><vAcc>0.689680</vAcc></extensions></trkpt>
      <trkpt lon="-3.306158" lat="54.552737"><ele>103.385048</ele><time>2021-08-12T12:24:05Z</time><extensions><speed>1.261500</speed><course>69.123688</course><hAcc>0.876658</hAcc><vAcc>0.688030</vAcc></extensions></trkpt>
      <trkpt lon="-3.306158" lat="54.552748"><ele>103.305420</ele><time>2021-08-12T12:24:06Z</time><extensions><speed>1.266045</speed><course>71.299400</course><hAcc>0.876300</hAcc><vAcc>0.686581</vAcc></extensions></trkpt>
      <trkpt lon="-3.306158" lat="54.552759"><ele>103.210075</ele><time>2021-08-12T12:24:07Z</time><extensions><speed>1.272033</speed><course>77.479210</course><hAcc>0.876008</hAcc><vAcc>0.685402</vAcc></extensions></trkpt>
      <trkpt lon="-3.306158" lat="54.552771"><ele>103.099434</ele><time>2021-08-12T12:24:08Z</time><extensions><speed>1.279472</speed><course>68.623329</course><hAcc>0.875795</hAcc><vAcc>0.684550</vAcc></extensions></trkpt>
      <trkpt lon="-3.306158" lat="54.552782"><ele>102.974846</ele><time>2021-08-12T12:24:09Z</time><extensions><speed>1.288085</speed><course>63.866425</course><hAcc>0.875669</hAcc><vAcc>0.684063</vAcc></extensions></trkpt>
      <trkpt lon="-3.306158" lat="54.552794"><ele>102.838570</ele><time>2021-08-12T12:24:10Z</time><extensions><speed>1.298286</speed><course>76.291603</course><hAcc>0.875633</hAcc><vAcc>0.683947</vAcc></extensions></trkpt>
      <trkpt lon="-3.306159" lat="54.552806"><ele>102.693588</ele><time>2021-08-12T12:24:11Z</time><extensions><speed>1.310512</speed><course>71.777351</course><hAcc>0.875682</hAcc><vAcc>0.684178</vAcc></extensions></trkpt>
      <trkpt lon="-3.306160" lat="54.552818"><ele>102.542908</ele><time>2021-08-12T12:24:12Z</time><extensions><speed>1.324759</speed><course>76.476341</course><hAcc>0.875810</hAcc><vAcc>0.684720</vAcc></extensions></trkpt>
      <trkpt lon="-3.306161" lat="54.552830"><ele>102.389214</ele><time>2021-08-12T12:24:13Z</time><extensions><speed>1.340514</speed><course>63.346680</course><hAcc>0.876008</hAcc><vAcc>0.685531</vAcc></extensions></trkpt>
      <trkpt lon="-3.306163" lat="54.552842"><ele>102.234940</ele><time>2021-08-12T12:24:14Z</time><extensions><speed>1.356833</speed><course>60.883244</course><hAcc>0.876265</hAcc><vAcc>0.686567</vAcc></extensions></trkpt>
      <trkpt lon="-3.306166" lat="54.552854"><ele>102.082405</ele><time>2021-08-12T12:24:15Z</time><extensions><speed>1.373305</speed><course>66.100471</course><hAcc>0.876570</hAcc><vAcc>0.687783</vAcc></extensions></trkpt>
      <trkpt lon="-3.306169" lat="54.552866"><ele>101.933929</ele><time>2021-08-12T12:24:16Z</time><extensions><speed>1.389884</speed><course>66.284729</course><hAcc>0.876909</hAcc><vAcc>0.689128</vAcc></extensions></trkpt>
      <trkpt lon="-3.306173" lat="54.552878"><ele>101.791695</ele><time>2021-08-12T12:24:17Z</time><extensions><speed>1.406284</speed><course>70.183884</course><hAcc>0.877271</hAcc><vAcc>0.690548</vAcc></extensions></trkpt>
      <trkpt lon="-3.306177" lat="54.552891"><ele>101.657448</ele><time>2021-08-12T12:24:18Z</time><extensions><speed>1.421431</speed><course>69.091454</course><hAcc>0.877643</hAcc><vAcc>0.691989</vAcc></extensions></trkpt>
      <trkpt lon="-3.306182" lat="54.552903"><ele>101.532486</ele><time>2021-08-12T12:24:19Z</time><extensions><speed>1.434327</speed><course>67.595528</course><hAcc>0.878016</hAcc><vAcc>0.693398</vAcc></extensions></trkpt>
      <trkpt lon="-3.306188" lat="54.552916"><ele>101.418221</ele><time>2021-08-12T12:24:20Z</time><extensions><speed>1.444929</speed><course>69.079941</course><hAcc>0.878381</hAcc><vAcc>0.694735</vAcc></extensions></trkpt>
      <trkpt lon="-3.306195" lat="54.552928"><ele>101.316330</ele><time>2021-08-12T12:24:21Z</time><extensions><speed>1.453519</speed><course>67.638985</course><hAcc>0.878733</hAcc><vAcc>0.695979</vAcc></extensions></trkpt>
      <trkpt lon="-3.306202" lat="54.552941"><ele>101.228317</ele><time>2021-08-12T12:24:22Z</time><extensions><speed>1.460653</speed><course>67.902077</course><hAcc>0.879068</hAcc><vAcc>0.697131</vAcc></extensions></trkpt>
      <trkpt lon="-3.306210" lat="54.552953"><ele>101.155090</ele><time>2021-08-12T12:24:23Z</time><extensions><speed>1.466793</speed><course>68.213737</course><hAcc>0.879388</hAcc><vAcc>0.698211</vAcc></extensions></trkpt>
      <trkpt lon="-3.306218" lat="54.552965"><ele>101.096718</ele><time>2021-08-12T12:24:24Z</time><extensions><speed>1.472297</speed><course>58.646133</course><hAcc>0.879692</hAcc><vAcc>0.699244</vAcc></extensions></trkpt>
      <trkpt lon="-3.306228" lat="54.552977"><ele>101.052307</ele><time>2021-08-12T12:24:25Z</time><extensions><speed>1.477649</speed><course>60.787758</course><hAcc>0.879983</hAcc><vAcc>0.700250</vAcc></extensions></trkpt>
      <trkpt lon="-3.306238" lat="54.552989"><ele>101.020134</ele><time>2021-08-12T12:24:26Z</time><extensions><speed>1.482828</speed><course>59.107254</course><hAcc>0.880263</hAcc><vAcc>0.701241</vAcc></extensions></trkpt>
      <trkpt lon="-3.306249" lat="54.553001"><ele>100.997887</ele><time>2021-08-12T12:24:27Z</time><extensions><speed>1.487090</speed><course>59.308796</course><hAcc>0.880534</hAcc><vAcc>0.702220</vAcc></extensions></trkpt>
      <trkpt lon="-3.306261" lat="54.553012"><ele>100.982780</ele><time>2021-08-12T12:24:28Z</time><extensions><speed>1.489842</speed><course>63.536522</course><hAcc>0.880797</hAcc><vAcc>0.703187</vAcc></extensions></trkpt>
      <trkpt lon="-3.306273" lat="54.553024"><ele>100.972084</ele><time>2021-08-12T12:24:29Z</time><extensions><speed>1.490830</speed><course>64.110619</course><hAcc>0.881053</hAcc><vAcc>0.704138</vAcc></extensions></trkpt>
      <trkpt lon="-3.306286" lat="54.553035"><ele>100.964249</ele><time>2021-08-12T12:24:30Z</time><extensions><speed>1.490766</speed><course>57.783936</course><hAcc>0.881303</hAcc><vAcc>0.705063</vAcc></extensions></trkpt>
      <trkpt lon="-3.306300" lat="54.553046"><ele>100.959557</ele><time>2021-08-12T12:24:31Z</time><extensions><speed>1.490916</speed><course>62.673740</course><hAcc>0.881547</hAcc><vAcc>0.705955</vAcc></extensions></trkpt>
      <trkpt lon="-3.306314" lat="54.553056"><ele>100.959625</ele><time>2021-08-12T12:24:32Z</time><extensions><speed>1.491996</speed><course>68.268181</course><hAcc>0.881783</hAcc><vAcc>0.706810</vAcc></extensions></trkpt>
      <trkpt lon="-3.306329" lat="54.553066"><ele>100.966522</ele><time>2021-08-12T12:24:33Z</time><extensions><speed>1.494102</speed><course>59.735432</course><hAcc>0.882013</hAcc><vAcc>0.707633</vAcc></extensions></trkpt>
      <trkpt lon="-3.306344" lat="54.553076"><ele>100.982643</ele><time>2021-08-12T12:24:34Z</time><extensions><speed>1.496508</speed><course>59.192490</course><hAcc>0.882235</hAcc><vAcc>0.708430</vAcc></extensions></trkpt>
      <trkpt lon="-3.306361" lat="54.553086"><ele>101.010681</ele><time>2021-08-12T12:24:35Z</time><extensions><speed>1.498343</speed><course>60.825825</course><hAcc>0.882450</hAcc><vAcc>0.709200</vAcc></extensions></trkpt>
      <trkpt lon="-3.306378" lat="54.553095"><ele>101.053360</ele><time>2021-08-12T12:24:36Z</time><extensions><speed>1.499096</speed><course>62.921200</course><hAcc>0.882656</hAcc><vAcc>0.709944</vAcc></extensions></trkpt>
      <trkpt lon="-3.306395" lat="54.553104"><ele>101.113319</ele><time>2021-08-12T12:24:37Z</time><extensions><speed>1.498273</speed><course>59.145714</course><hAcc>0.882853</hAcc><vAcc>0.710659</vAcc></extensions></trkpt>
      <trkpt lon="-3.306413" lat="54.553112"><ele>101.193016</ele><time>2021-08-12T12:24:38Z</time><extensions><speed>1.496292</speed><course>54.852036</course><hAcc>0.883041</hAcc><vAcc>0.711342</vAcc></extensions></trkpt>
      <trkpt lon="-3.306431" lat="54.553120"><ele>101.294281</ele><time>2021-08-12T12:24:39Z</time><extensions><speed>1.493516</speed><course>52.958679</course><hAcc>0.883220</hAcc><vAcc>0.711991</vAcc></extensions></trkpt>
      <trkpt lon="-3.306450" lat="54.553128"><ele>101.417603</ele><time>2021-08-12T12:24:40Z</time><extensions><speed>1.489041</speed><course>51.642593</course><hAcc>0.883386</hAcc><vAcc>0.712607</vAcc></extensions></trkpt>
      <trkpt lon="-3.306469" lat="54.553136"><ele>101.561607</ele><time>2021-08-12T12:24:41Z</time><extensions><speed>1.482044</speed><course>50.915668</course><hAcc>0.883540</hAcc><vAcc>0.713187</vAcc></extensions></trkpt>
      <trkpt lon="-3.306489" lat="54.553143"><ele>101.723465</ele><time>2021-08-12T12:24:42Z</time><extensions><speed>1.472309</speed><course>43.517220</course><hAcc>0.883678</hAcc><vAcc>0.713728</vAcc></extensions></trkpt>
      <trkpt lon="-3.306508" lat="54.553150"><ele>101.899506</ele><time>2021-08-12T12:24:43Z</time><extensions><speed>1.459854</speed><course>53.213661</course><hAcc>0.883801</hAcc><vAcc>0.714218</vAcc></extensions></trkpt>
      <trkpt lon="-3.306527" lat="54.553156"><ele>102.085892</ele><time>2021-08-12T12:24:44Z</time><extensions><speed>1.444302</speed><course>42.672325</course><hAcc>0.883906</hAcc><vAcc>0.714645</vAcc></extensions></trkpt>
      <trkpt lon="-3.306547" lat="54.553162"><ele>102.278862</ele><time>2021-08-12T12:24:45Z</time><extensions><speed>1.425870</speed><course>57.842590</course><hAcc>0.883993</hAcc><vAcc>0.714996</vAcc></extensions></trkpt>
      <trkpt lon="-3.306566" lat="54.553169"><ele>102.474419</ele><time>2021-08-12T12:24:46Z</time><extensions><speed>1.405440</speed><course>54.432369</course><hAcc>0.884062</hAcc><vAcc>0.715259</vAcc></extensions></trkpt>
      <trkpt lon="-3.306585" lat="54.553174"><ele>102.668259</ele><time>2021-08-12T12:24:47Z</time><extensions><speed>1.383978</speed><course>53.099045</course><hAcc>0.884114</hAcc><vAcc>0.715429</vAcc></extensions></trkpt>
      <trkpt lon="-3.306604" lat="54.553180"><ele>102.856346</ele><time>2021-08-12T12:24:48Z</time><extensions><speed>1.361946</speed><course>52.709480</course><hAcc>0.884150</hAcc><vAcc>0.715512</vAcc></extensions></trkpt>
      <trkpt lon="-3.306623" lat="54.553185"><ele>103.036026</ele><time>2021-08-12T12:24:49Z</time><extensions><speed>1.339034</speed><course>55.566643</course><hAcc>0.884171</hAcc><vAcc>0.715524</vAcc></extensions></trkpt>
      <trkpt lon="-3.306641" lat="54.553190"><ele>103.206215</ele><time>2021-08-12T12:24:50Z</time><extensions><speed>1.315193</speed><course>50.999676</course><hAcc>0.884178</hAcc><vAcc>0.715483</vAcc></extensions></trkpt>
      <trkpt lon="-3.306659" lat="54.553195"><ele>103.366966</ele><time>2021-08-12T12:24:51Z</time><extensions><speed>1.290690</speed><course>49.932701</course><hAcc>0.884176</hAcc><vAcc>0.715408</vAcc></extensions></trkpt>
      <trkpt lon="-3.306677" lat="54.553200"><ele>103.519356</ele><time>2021-08-12T12:24:52Z</time><extensions><speed>1.266421</speed><course>44.103298</course><hAcc>0.884165</hAcc><vAcc>0.715316</vAcc></extensions></trkpt>
      <trkpt lon="-3.306695" lat="54.553204"><ele>103.665329</ele><time>2021-08-12T12:24:53Z</time><extensions><speed>1.244060</speed><course>35.959499</course><hAcc>0.884150</hAcc><vAcc>0.715221</vAcc></extensions></trkpt>
      <trkpt lon="-3.306713" lat="54.553209"><ele>103.807083</ele><time>2021-08-12T12:24:54Z</time><extensions><speed>1.224843</speed><course>30.952709</course><hAcc>0.884132</hAcc><vAcc>0.715135</vAcc></extensions></trkpt>
      <trkpt lon="-3.306730" lat="54.553213"><ele>103.946671</ele><time>2021-08-12T12:24:55Z</time><extensions><speed>1.208456</speed><course>43.709347</course><hAcc>0.884115</hAcc><vAcc>0.715061</vAcc></extensions></trkpt>
      <trkpt lon="-3.306747" lat="54.553217"><ele>104.085983</ele><time>2021-08-12T12:24:56Z</time><extensions><speed>1.193892</speed><course>37.574459</course><hAcc>0.884099</hAcc><vAcc>0.715005</vAcc></extensions></trkpt>
      <trkpt lon="-3.306765" lat="54.553220"><ele>104.226639</ele><time>2021-08-12T12:24:57Z</time><extensions><speed>1.180229</speed><course>40.028488</course><hAcc>0.884087</hAcc><vAcc>0.714964</vAcc></extensions></trkpt>
      <trkpt lon="-3.306782" lat="54.553224"><ele>104.369537</ele><time>2021-08-12T12:24:58Z</time><extensions><speed>1.167360</speed><course>39.088745</course><hAcc>0.884077</hAcc><vAcc>0.714937</vAcc></extensions></trkpt>
      <trkpt lon="-3.306799" lat="54.553227"><ele>104.514832</ele><time>2021-08-12T12:24:59Z</time><extensions><speed>1.155805</speed><course>38.227211</course><hAcc>0.884071</hAcc><vAcc>0.714921</vAcc></extensions></trkpt>
      <trkpt lon="-3.306816" lat="54.553230"><ele>104.662216</ele><time>2021-08-12T12:25:00Z</time><extensions><speed>1.145698</speed><course>38.580025</course><hAcc>0.884066</hAcc><vAcc>0.714915</vAcc></extensions></trkpt>
      <trkpt lon="-3.306833" lat="54.553233"><ele>104.810921</ele><time>2021-08-12T12:25:01Z</time><extensions><speed>1.137208</speed><course>36.225418</course><hAcc>0.884060</hAcc><vAcc>0.714918</vAcc></extensions></trkpt>
      <trkpt lon="-3.306850" lat="54.553235"><ele>104.959557</ele><time>2021-08-12T12:25:02Z</time><extensions><speed>1.130720</speed><course>36.482189</course><hAcc>0.884052</hAcc><vAcc>0.714927</vAcc></extensions></trkpt>
      <trkpt lon="-3.306867" lat="54.553237"><ele>105.106804</ele><time>2021-08-12T12:25:03Z</time><extensions><speed>1.125877</speed><course>45.117634</course><hAcc>0.884039</hAcc><vAcc>0.714934</vAcc></extensions></trkpt>
      <trkpt lon="-3.306884" lat="54.553239"><ele>105.252151</ele><time>2021-08-12T12:25:04Z</time><extensions><speed>1.121667</speed><course>40.176819</course><hAcc>0.884018</hAcc><vAcc>0.714926</vAcc></extensions></trkpt>
      <trkpt lon="-3.306901" lat="54.553241"><ele>105.395439</ele><time>2021-08-12T12:25:05Z</time><extensions><speed>1.117166</speed><course>42.588684</course><hAcc>0.883989</hAcc><vAcc>0.714880</vAcc></extensions></trkpt>
      <trkpt lon="-3.306918" lat="54.553243"><ele>105.536118</ele><time>2021-08-12T12:25:06Z</time><extensions><speed>1.111388</speed><course>41.771687</course><hAcc>0.883950</hAcc><vAcc>0.714775</vAcc></extensions></trkpt>
      <trkpt lon="-3.306935" lat="54.553245"><ele>105.673294</ele><time>2021-08-12T12:25:07Z</time><extensions><speed>1.104176</speed><course>41.372017</course><hAcc>0.883900</hAcc><vAcc>0.714599</vAcc></extensions></trkpt>
      <trkpt lon="-3.306952" lat="54.553247"><ele>105.806358</ele><time>2021-08-12T12:25:08Z</time><extensions><speed>1.096615</speed><course>37.017429</course><hAcc>0.883839</hAcc><vAcc>0.714351</vAcc></extensions></trkpt>
      <trkpt lon="-3.306968" lat="54.553249"><ele>105.935204</ele><time>2021-08-12T12:25:09Z</time><extensions><speed>1.089945</speed><course>28.588495</course><hAcc>0.883767</hAcc><vAcc>0.714043</vAcc></extensions></trkpt>
      <trkpt lon="-3.306984" lat="54.553251"><ele>106.059860</ele><time>2021-08-12T12:25:10Z</time><extensions><speed>1.084803</speed><course>39.512306</course><hAcc>0.883683</hAcc><vAcc>0.713689</vAcc></extensions></trkpt>
      <trkpt lon="-3.307001" lat="54.553253"><ele>106.180626</ele><time>2021-08-12T12:25:11Z</time><extensions><speed>1.081036</speed><course>38.955353</course><hAcc>0.883588</hAcc><vAcc>0.713301</vAcc></extensions></trkpt>
      <trkpt lon="-3.307017" lat="54.553256"><ele>106.297905</ele><time>2021-08-12T12:25:12Z</time><extensions><speed>1.078707</speed><course>35.270641</course><hAcc>0.883485</hAcc><vAcc>0.712890</vAcc></extensions></trkpt>
      <trkpt lon="-3.307033" lat="54.553258"><ele>106.411194</ele><time>2021-08-12T12:25:13Z</time><extensions><speed>1.078388</speed><course>38.302330</course><hAcc>0.883374</hAcc><vAcc>0.712464</vAcc></extensions></trkpt>
      <trkpt lon="-3.307049" lat="54.553261"><ele>106.519150</ele><time>2021-08-12T12:25:14Z</time><extensions><speed>1.079698</speed><course>40.976086</course><hAcc>0.883259</hAcc><vAcc>0.712031</vAcc></extensions></trkpt>
      <trkpt lon="-3.307065" lat="54.553263"><ele>106.620529</ele><time>2021-08-12T12:25:15Z</time><extensions><speed>1.081473</speed><course>40.718147</course><hAcc>0.883140</hAcc><vAcc>0.711594</vAcc></extensions></trkpt>
      <trkpt lon="-3.307081" lat="54.553266"><ele>106.714363</ele><time>2021-08-12T12:25:16Z</time><extensions><speed>1.083012</speed><course>40.437557</course><hAcc>0.883020</hAcc><vAcc>0.711154</vAcc></extensions></trkpt>
      <trkpt lon="-3.307097" lat="54.553270"><ele>106.799957</ele><time>2021-08-12T12:25:17Z</time><extensions><speed>1.084420</speed><course>38.315979</course><hAcc>0.882901</hAcc><vAcc>0.710713</vAcc></extensions></trkpt>
      <trkpt lon="-3.307112" lat="54.553273"><ele>106.876839</ele><time>2021-08-12T12:25:18Z</time><extensions><speed>1.085942</speed><course>28.668550</course><hAcc>0.882783</hAcc><vAcc>0.710274</vAcc></extensions></trkpt>
      <trkpt lon="-3.307128" lat="54.553277"><ele>106.944633</ele><time>2021-08-12T12:25:19Z</time><extensions><speed>1.087602</speed><course>31.392698</course><hAcc>0.882668</hAcc><vAcc>0.709844</vAcc></extensions></trkpt>
      <trkpt lon="-3.307143" lat="54.553282"><ele>107.002914</ele><time>2021-08-12T12:25:20Z</time><extensions><speed>1.089510</speed><course>32.848076</course><hAcc>0.882555</hAcc><vAcc>0.709427</vAcc></extensions></trkpt>
      <trkpt lon="-3.307158" lat="54.553286"><ele>107.051270</ele><time>2021-08-12T12:25:21Z</time><extensions><speed>1.091606</speed><course>38.096359</course><hAcc>0.882446</hAcc><vAcc>0.709026</vAcc></extensions></trkpt>
      <trkpt lon="-3.307172" lat="54.553291"><ele>107.089806</ele><time>2021-08-12T12:25:22Z</time><extensions><speed>1.093961</speed><course>27.737675</course><hAcc>0.882341</hAcc><vAcc>0.708643</vAcc></extensions></trkpt>
      <trkpt lon="-3.307186" lat="54.553297"><ele>107.119431</ele><time>2021-08-12T12:25:23Z</time><extensions><speed>1.097650</speed><course>38.820049</course><hAcc>0.882240</hAcc><vAcc>0.708273</vAcc></extensions></trkpt>
      <trkpt lon="-3.307199" lat="54.553303"><ele>107.141853</ele><time>2021-08-12T12:25:24Z</time><extensions><speed>1.104573</speed><course>40.137299</course><hAcc>0.882142</hAcc><vAcc>0.707915</vAcc></extensions></trkpt>
      <trkpt lon="-3.307212" lat="54.553310"><ele>107.158974</ele><time>2021-08-12T12:25:25Z</time><extensions><speed>1.116067</speed><course>44.560421</course><hAcc>0.882049</hAcc><vAcc>0.707567</vAcc></extensions></trkpt>
      <trkpt lon="-3.307223" lat="54.553318"><ele>107.172180</ele><time>2021-08-12T12:25:26Z</time><extensions><speed>1.132385</speed><course>41.574787</course><hAcc>0.881958</hAcc><vAcc>0.707228</vAcc></extensions></trkpt>
      <trkpt lon="-3.307235" lat="54.553325"><ele>107.182411</ele><time>2021-08-12T12:25:27Z</time><extensions><speed>1.152587</speed><course>37.402897</course><hAcc>0.881869</hAcc><vAcc>0.706897</vAcc></extensions></trkpt>
      <trkpt lon="-3.307245" lat="54.553334"><ele>107.190414</ele><time>2021-08-12T12:25:28Z</time><extensions><speed>1.175095</speed><course>38.445354</course><hAcc>0.881780</hAcc><vAcc>0.706574</vAcc></extensions></trkpt>
      <trkpt lon="-3.307256" lat="54.553343"><ele>107.196640</ele><time>2021-08-12T12:25:29Z</time><extensions><speed>1.198505</speed><course>32.932274</course><hAcc>0.881689</hAcc><vAcc>0.706258</vAcc></extensions></trkpt>
      <trkpt lon="-3.307265" lat="54.553352"><ele>107.201363</ele><time>2021-08-12T12:25:30Z</time><extensions><speed>1.221788</speed><course>27.701353</course><hAcc>0.881595</hAcc><vAcc>0.705948</vAcc></extensions></trkpt>
      <trkpt lon="-3.307274" lat="54.553362"><ele>107.204857</ele><time>2021-08-12T12:25:31Z</time><extensions><speed>1.244555</speed><course>28.233585</course><hAcc>0.881496</hAcc><vAcc>0.705633</vAcc></extensions></trkpt>
      <trkpt lon="-3.307282" lat="54.553372"><ele>107.207497</ele><time>2021-08-12T12:25:32Z</time><extensions><speed>1.266836</speed><course>30.003765</course><hAcc>0.881392</hAcc><vAcc>0.705295</vAcc></extensions></trkpt>
      <trkpt lon="-3.307290" lat="54.553383"><ele>107.210014</ele><time>2021-08-12T12:25:33Z</time><extensions><speed>1.288391</speed><course>35.586266</course><hAcc>0.881282</hAcc><vAcc>0.704923</vAcc></extensions></trkpt>
      <trkpt lon="-3.307298" lat="54.553393"><ele>107.213608</ele><time>2021-08-12T12:25:34Z</time><extensions><speed>1.308445</speed><course>41.034397</course><hAcc>0.881170</hAcc><vAcc>0.704513</vAcc></extensions></trkpt>
      <trkpt lon="-3.307305" lat="54.553404"><ele>107.219444</ele><time>2021-08-12T12:25:35Z</time><extensions><speed>1.325907</speed><course>43.040592</course><hAcc>0.881063</hAcc><vAcc>0.704078</vAcc></extensions></trkpt>
      <trkpt lon="-3.307312" lat="54.553416"><ele>107.228279</ele><time>2021-08-12T12:25:36Z</time><extensions><speed>1.339878</speed><course>49.550934</course><hAcc>0.880971</hAcc><vAcc>0.703640</vAcc></extensions></trkpt>
      <trkpt lon="-3.307319" lat="54.553427"><ele>107.240517</ele><time>2021-08-12T12:25:37Z</time><extensions><speed>1.350362</speed><course>62.069283</course><hAcc>0.880910</hAcc><vAcc>0.703226</vAcc></extensions></trkpt>
      <trkpt lon="-3.307326" lat="54.553438"><ele>107.256378</ele><time>2021-08-12T12:25:38Z</time><extensions><speed>1.357831</speed><course>68.512573</course><hAcc>0.880901</hAcc><vAcc>0.702870</vAcc></extensions></trkpt>
      <trkpt lon="-3.307334" lat="54.553450"><ele>107.275978</ele><time>2021-08-12T12:25:39Z</time><extensions><speed>1.362788</speed><course>76.544746</course><hAcc>0.880976</hAcc><vAcc>0.702626</vAcc></extensions></trkpt>
      <trkpt lon="-3.307342" lat="54.553461"><ele>107.299332</ele><time>2021-08-12T12:25:40Z</time><extensions><speed>1.366011</speed><course>91.471558</course><hAcc>0.881168</hAcc><vAcc>0.702560</vAcc></extensions></trkpt>
      <trkpt lon="-3.307350" lat="54.553472"><ele>107.326378</ele><time>2021-08-12T12:25:41Z</time><extensions><speed>1.368662</speed><course>103.707001</course><hAcc>0.881521</hAcc><vAcc>0.702743</vAcc></extensions></trkpt>
      <trkpt lon="-3.307360" lat="54.553484"><ele>107.357117</ele><time>2021-08-12T12:25:42Z</time><extensions><speed>1.371732</speed><course>102.240677</course><hAcc>0.882081</hAcc><vAcc>0.703236</vAcc></extensions></trkpt>
      <trkpt lon="-3.307369" lat="54.553495"><ele>107.391472</ele><time>2021-08-12T12:25:43Z</time><extensions><speed>1.376166</speed><course>109.008522</course><hAcc>0.882895</hAcc><vAcc>0.704084</vAcc></extensions></trkpt>
      <trkpt lon="-3.307379" lat="54.553505"><ele>107.428658</ele><time>2021-08-12T12:25:44Z</time><extensions><speed>1.382632</speed><course>120.687057</course><hAcc>0.884003</hAcc><vAcc>0.705307</vAcc></extensions></trkpt>
      <trkpt lon="-3.307390" lat="54.553516"><ele>107.467133</ele><time>2021-08-12T12:25:45Z</time><extensions><speed>1.390665</speed><course>122.518364</course><hAcc>0.885434</hAcc><vAcc>0.706897</vAcc></extensions></trkpt>
      <trkpt lon="-3.307402" lat="54.553527"><ele>107.505051</ele><time>2021-08-12T12:25:46Z</time><extensions><speed>1.399133</speed><course>116.435341</course><hAcc>0.887190</hAcc><vAcc>0.708807</vAcc></extensions></trkpt>
      <trkpt lon="-3.307414" lat="54.553537"><ele>107.540550</ele><time>2021-08-12T12:25:47Z</time><extensions><speed>1.407013</speed><course>123.806564</course><hAcc>0.889241</hAcc><vAcc>0.710953</vAcc></extensions></trkpt>
      <trkpt lon="-3.307426" lat="54.553548"><ele>107.571877</ele><time>2021-08-12T12:25:48Z</time><extensions><speed>1.414353</speed><course>121.279266</course><hAcc>0.891506</hAcc><vAcc>0.713208</vAcc></extensions></trkpt>
      <trkpt lon="-3.307439" lat="54.553558"><ele>107.597603</ele><time>2021-08-12T12:25:49Z</time><extensions><speed>1.421598</speed><course>122.295830</course><hAcc>0.893853</hAcc><vAcc>0.715419</vAcc></extensions></trkpt>
      <trkpt lon="-3.307452" lat="54.553568"><ele>107.616913</ele><time>2021-08-12T12:25:50Z</time><extensions><speed>1.428661</speed><course>116.485687</course><hAcc>0.896096</hAcc><vAcc>0.717415</vAcc></extensions></trkpt>
      <trkpt lon="-3.307465" lat="54.553579"><ele>107.629677</ele><time>2021-08-12T12:25:51Z</time><extensions><speed>1.435483</speed><course>120.837761</course><hAcc>0.898021</hAcc><vAcc>0.719051</vAcc></extensions></trkpt>
      <trkpt lon="-3.307477" lat="54.553589"><ele>107.636230</ele><time>2021-08-12T12:25:52Z</time><extensions><speed>1.441767</speed><course>121.691162</course><hAcc>0.899437</hAcc><vAcc>0.720254</vAcc></extensions></trkpt>
      <trkpt lon="-3.307490" lat="54.553600"><ele>107.637108</ele><time>2021-08-12T12:25:53Z</time><extensions><speed>1.447072</speed><course>120.429344</course><hAcc>0.900273</hAcc><vAcc>0.721127</vAcc></extensions></trkpt>
      <trkpt lon="-3.307503" lat="54.553611"><ele>107.632767</ele><time>2021-08-12T12:25:54Z</time><extensions><speed>1.450883</speed><course>127.922836</course><hAcc>0.900752</hAcc><vAcc>0.722093</vAcc></extensions></trkpt>
      <trkpt lon="-3.307516" lat="54.553621"><ele>107.623703</ele><time>2021-08-12T12:25:55Z</time><extensions><speed>1.452494</speed><course>122.773224</course><hAcc>0.901643</hAcc><vAcc>0.724091</vAcc></extensions></trkpt>
      <trkpt lon="-3.307529" lat="54.553632"><ele>107.610489</ele><time>2021-08-12T12:25:56Z</time><extensions><speed>1.452107</speed><course>127.410233</course><hAcc>0.904626</hAcc><vAcc>0.728814</vAcc></extensions></trkpt>
      <trkpt lon="-3.307541" lat="54.553643"><ele>107.593391</ele><time>2021-08-12T12:25:57Z</time><extensions><speed>1.450341</speed><course>126.293243</course><hAcc>0.912738</hAcc><vAcc>0.738950</vAcc></extensions></trkpt>
      <trkpt lon="-3.307553" lat="54.553654"><ele>107.572243</ele><time>2021-08-12T12:25:58Z</time><extensions><speed>1.447682</speed><course>113.773628</course><hAcc>0.930790</hAcc><vAcc>0.758333</vAcc></extensions></trkpt>
      <trkpt lon="-3.307564" lat="54.553665"><ele>107.546577</ele><time>2021-08-12T12:25:59Z</time><extensions><speed>1.444654</speed><course>111.597641</course><hAcc>0.965512</hAcc><vAcc>0.791825</vAcc></extensions></trkpt>
      <trkpt lon="-3.307572" lat="54.553679"><ele>107.433426</ele><time>2021-08-12T12:26:00Z</time><extensions><speed>1.543476</speed><course>74.967865</course><hAcc>0.928251</hAcc><vAcc>0.757536</vAcc></extensions></trkpt>
      <trkpt lon="-3.307577" lat="54.553693"><ele>107.427040</ele><time>2021-08-12T12:26:01Z</time><extensions><speed>1.553426</speed><course>75.133301</course><hAcc>0.909538</hAcc><vAcc>0.737123</vAcc></extensions></trkpt>
      <trkpt lon="-3.307581" lat="54.553707"><ele>107.414856</ele><time>2021-08-12T12:26:03Z</time><extensions><speed>1.565071</speed><course>66.099251</course><hAcc>0.901959</hAcc><vAcc>0.727083</vAcc></extensions></trkpt>
      <trkpt lon="-3.307584" lat="54.553721"><ele>107.397812</ele><time>2021-08-12T12:26:04Z</time><extensions><speed>1.577736</speed><course>81.237114</course><hAcc>0.900023</hAcc><vAcc>0.723146</vAcc></extensions></trkpt>
      <trkpt lon="-3.307587" lat="54.553735"><ele>107.377220</ele><time>2021-08-12T12:26:05Z</time><extensions><speed>1.590887</speed><course>80.566093</course><hAcc>0.900270</hAcc><vAcc>0.722275</vAcc></extensions></trkpt>
      <trkpt lon="-3.307589" lat="54.553749"><ele>107.354286</ele><time>2021-08-12T12:26:06Z</time><extensions><speed>1.603827</speed><course>80.566109</course><hAcc>0.900792</hAcc><vAcc>0.722549</vAcc></extensions></trkpt>
      <trkpt lon="-3.307591" lat="54.553764"><ele>107.329712</ele><time>2021-08-12T12:26:07Z</time><extensions><speed>1.615350</speed><course>80.566093</course><hAcc>0.900731</hAcc><vAcc>0.722892</vAcc></extensions></trkpt>
      <trkpt lon="-3.307593" lat="54.553778"><ele>107.304085</ele><time>2021-08-12T12:26:08Z</time><extensions><speed>1.624177</speed><course>80.566093</course><hAcc>0.899856</hAcc><vAcc>0.722803</vAcc></extensions></trkpt>
      <trkpt lon="-3.307594" lat="54.553793"><ele>107.278206</ele><time>2021-08-12T12:26:09Z</time><extensions><speed>1.629549</speed><course>80.566093</course><hAcc>0.898262</hAcc><vAcc>0.722135</vAcc></extensions></trkpt>
      <trkpt lon="-3.307594" lat="54.553807"><ele>107.252846</ele><time>2021-08-12T12:26:10Z</time><extensions><speed>1.631192</speed><course>77.344681</course><hAcc>0.896185</hAcc><vAcc>0.720928</vAcc></extensions></trkpt>
      <trkpt lon="-3.307595" lat="54.553822"><ele>107.228592</ele><time>2021-08-12T12:26:11Z</time><extensions><speed>1.629270</speed><course>77.923714</course><hAcc>0.893881</hAcc><vAcc>0.719312</vAcc></extensions></trkpt>
      <trkpt lon="-3.307595" lat="54.553837"><ele>107.205864</ele><time>2021-08-12T12:26:12Z</time><extensions><speed>1.624149</speed><course>87.073212</course><hAcc>0.891570</hAcc><vAcc>0.717444</vAcc></extensions></trkpt>
      <trkpt lon="-3.307595" lat="54.553851"><ele>107.184669</ele><time>2021-08-12T12:26:13Z</time><extensions><speed>1.616302</speed><course>79.233902</course><hAcc>0.889413</hAcc><vAcc>0.715470</vAcc></extensions></trkpt>
      <trkpt lon="-3.307594" lat="54.553866"><ele>107.164612</ele><time>2021-08-12T12:26:14Z</time><extensions><speed>1.606408</speed><course>96.572746</course><hAcc>0.887506</hAcc><vAcc>0.713506</vAcc></extensions></trkpt>
      <trkpt lon="-3.307594" lat="54.553880"><ele>107.145317</ele><time>2021-08-12T12:26:15Z</time><extensions><speed>1.595034</speed><course>86.920219</course><hAcc>0.885894</hAcc><vAcc>0.711640</vAcc></extensions></trkpt>
      <trkpt lon="-3.307594" lat="54.553894"><ele>107.126686</ele><time>2021-08-12T12:26:16Z</time><extensions><speed>1.582843</speed><course>76.786201</course><hAcc>0.884578</hAcc><vAcc>0.709930</vAcc></extensions></trkpt>
      <trkpt lon="-3.307594" lat="54.553908"><ele>107.108749</ele><time>2021-08-12T12:26:17Z</time><extensions><speed>1.570165</speed><course>77.162971</course><hAcc>0.883536</hAcc><vAcc>0.708418</vAcc></extensions></trkpt>
      <trkpt lon="-3.307594" lat="54.553922"><ele>107.091713</ele><time>2021-08-12T12:26:18Z</time><extensions><speed>1.557016</speed><course>69.604996</course><hAcc>0.882728</hAcc><vAcc>0.707122</vAcc></extensions></trkpt>
      <trkpt lon="-3.307594" lat="54.553936"><ele>107.075905</ele><time>2021-08-12T12:26:19Z</time><extensions><speed>1.543158</speed><course>76.115456</course><hAcc>0.882110</hAcc><vAcc>0.706036</vAcc></extensions></trkpt>
      <trkpt lon="-3.307594" lat="54.553950"><ele>107.061600</ele><time>2021-08-12T12:26:20Z</time><extensions><speed>1.528384</speed><course>83.646278</course><hAcc>0.881637</hAcc><vAcc>0.705130</vAcc></extensions></trkpt>
      <trkpt lon="-3.307594" lat="54.553964"><ele>107.048927</ele><time>2021-08-12T12:26:21Z</time><extensions><speed>1.512734</speed><course>76.408623</course><hAcc>0.881270</hAcc><vAcc>0.704351</vAcc></extensions></trkpt>
      <trkpt lon="-3.307595" lat="54.553977"><ele>107.037735</ele><time>2021-08-12T12:26:22Z</time><extensions><speed>1.496617</speed><course>79.439453</course><hAcc>0.880976</hAcc><vAcc>0.703638</vAcc></extensions></trkpt>
      <trkpt lon="-3.307596" lat="54.553991"><ele>107.027794</ele><time>2021-08-12T12:26:23Z</time><extensions><speed>1.480831</speed><course>75.300941</course><hAcc>0.880733</hAcc><vAcc>0.702936</vAcc></extensions></trkpt>
      <trkpt lon="-3.307597" lat="54.554004"><ele>107.018944</ele><time>2021-08-12T12:26:24Z</time><extensions><speed>1.466156</speed><course>76.126534</course><hAcc>0.880522</hAcc><vAcc>0.702213</vAcc></extensions></trkpt>
      <trkpt lon="-3.307599" lat="54.554017"><ele>107.011124</ele><time>2021-08-12T12:26:25Z</time><extensions><speed>1.453069</speed><course>75.233688</course><hAcc>0.880334</hAcc><vAcc>0.701472</vAcc></extensions></trkpt>
      <trkpt lon="-3.307601" lat="54.554030"><ele>107.004234</ele><time>2021-08-12T12:26:26Z</time><extensions><speed>1.441560</speed><course>81.891060</course><hAcc>0.880165</hAcc><vAcc>0.700742</vAcc></extensions></trkpt>
      <trkpt lon="-3.307603" lat="54.554043"><ele>106.998169</ele><time>2021-08-12T12:26:27Z</time><extensions><speed>1.431626</speed><course>78.263519</course><hAcc>0.880014</hAcc><vAcc>0.700069</vAcc></extensions></trkpt>
      <trkpt lon="-3.307605" lat="54.554056"><ele>106.993034</ele><time>2021-08-12T12:26:28Z</time><extensions><speed>1.423580</speed><course>74.907532</course><hAcc>0.879884</hAcc><vAcc>0.699495</vAcc></extensions></trkpt>
      <trkpt lon="-3.307607" lat="54.554068"><ele>106.989174</ele><time>2021-08-12T12:26:29Z</time><extensions><speed>1.417588</speed><course>84.941742</course><hAcc>0.879778</hAcc><vAcc>0.699050</vAcc></extensions></trkpt>
      <trkpt lon="-3.307609" lat="54.554081"><ele>106.986885</ele><time>2021-08-12T12:26:30Z</time><extensions><speed>1.413625</speed><course>73.584358</course><hAcc>0.879700</hAcc><vAcc>0.698753</vAcc></extensions></trkpt>
      <trkpt lon="-3.307611" lat="54.554094"><ele>106.986069</ele><time>2021-08-12T12:26:31Z</time><extensions><speed>1.411545</speed><course>96.346313</course><hAcc>0.879652</hAcc><vAcc>0.698603</vAcc></extensions></trkpt>
      <trkpt lon="-3.307613" lat="54.554106"><ele>106.985718</ele><time>2021-08-12T12:26:32Z</time><extensions><speed>1.411702</speed><course>87.208282</course><hAcc>0.879634</hAcc><vAcc>0.698586</vAcc></extensions></trkpt>
      <trkpt lon="-3.307614" lat="54.554119"><ele>106.983994</ele><time>2021-08-12T12:26:33Z</time><extensions><speed>1.414967</speed><course>71.034035</course><hAcc>0.879646</hAcc><vAcc>0.698683</vAcc></extensions></trkpt>
      <trkpt lon="-3.307614" lat="54.554132"><ele>106.978691</ele><time>2021-08-12T12:26:34Z</time><extensions><speed>1.421772</speed><course>74.315559</course><hAcc>0.879684</hAcc><vAcc>0.698875</vAcc></extensions></trkpt>
      <trkpt lon="-3.307613" lat="54.554144"><ele>106.967377</ele><time>2021-08-12T12:26:35Z</time><extensions><speed>1.432249</speed><course>82.074326</course><hAcc>0.879746</hAcc><vAcc>0.699153</vAcc></extensions></trkpt>
      <trkpt lon="-3.307612" lat="54.554157"><ele>106.947296</ele><time>2021-08-12T12:26:36Z</time><extensions><speed>1.446269</speed><course>78.798851</course><hAcc>0.879829</hAcc><vAcc>0.699505</vAcc></extensions></trkpt>
      <trkpt lon="-3.307609" lat="54.554170"><ele>106.915672</ele><time>2021-08-12T12:26:37Z</time><extensions><speed>1.463198</speed><course>71.049065</course><hAcc>0.879928</hAcc><vAcc>0.699915</vAcc></extensions></trkpt>
      <trkpt lon="-3.307605" lat="54.554183"><ele>106.870659</ele><time>2021-08-12T12:26:38Z</time><extensions><speed>1.481897</speed><course>66.417450</course><hAcc>0.880039</hAcc><vAcc>0.700359</vAcc></extensions></trkpt>
      <trkpt lon="-3.307601" lat="54.554197"><ele>106.811623</ele><time>2021-08-12T12:26:39Z</time><extensions><speed>1.500758</speed><course>67.881187</course><hAcc>0.880157</hAcc><vAcc>0.700818</vAcc></extensions></trkpt>
      <trkpt lon="-3.307596" lat="54.554210"><ele>106.738991</ele><time>2021-08-12T12:26:40Z</time><extensions><speed>1.517769</speed><course>73.946594</course><hAcc>0.880279</hAcc><vAcc>0.701285</vAcc></extensions></trkpt>
      <trkpt lon="-3.307590" lat="54.554223"><ele>106.653717</ele><time>2021-08-12T12:26:41Z</time><extensions><speed>1.531093</speed><course>66.868568</course><hAcc>0.880399</hAcc><vAcc>0.701753</vAcc></extensions></trkpt>
      <trkpt lon="-3.307583" lat="54.554236"><ele>106.556885</ele><time>2021-08-12T12:26:42Z</time><extensions><speed>1.539701</speed><course>57.370388</course><hAcc>0.880516</hAcc><vAcc>0.702210</vAcc></extensions></trkpt>
      <trkpt lon="-3.307577" lat="54.554250"><ele>106.449989</ele><time>2021-08-12T12:26:43Z</time><extensions><speed>1.543145</speed><course>72.859169</course><hAcc>0.880627</hAcc><vAcc>0.702644</vAcc></extensions></trkpt>
      <trkpt lon="-3.307570" lat="54.554263"><ele>106.335175</ele><time>2021-08-12T12:26:44Z</time><extensions><speed>1.541591</speed><course>73.476959</course><hAcc>0.880729</hAcc><vAcc>0.703038</vAcc></extensions></trkpt>
      <trkpt lon="-3.307563" lat="54.554276"><ele>106.214935</ele><time>2021-08-12T12:26:45Z</time><extensions><speed>1.535698</speed><course>70.985191</course><hAcc>0.880821</hAcc><vAcc>0.703378</vAcc></extensions></trkpt>
      <trkpt lon="-3.307557" lat="54.554289"><ele>106.091621</ele><time>2021-08-12T12:26:46Z</time><extensions><speed>1.526667</speed><course>67.094063</course><hAcc>0.880904</hAcc><vAcc>0.703660</vAcc></extensions></trkpt>
      <trkpt lon="-3.307552" lat="54.554303"><ele>105.967049</ele><time>2021-08-12T12:26:47Z</time><extensions><speed>1.516121</speed><course>63.802017</course><hAcc>0.880976</hAcc><vAcc>0.703892</vAcc></extensions></trkpt>
      <trkpt lon="-3.307547" lat="54.554316"><ele>105.842346</ele><time>2021-08-12T12:26:48Z</time><extensions><speed>1.505536</speed><course>59.738853</course><hAcc>0.881040</hAcc><vAcc>0.704089</vAcc></extensions></trkpt>
      <trkpt lon="-3.307543" lat="54.554329"><ele>105.718292</ele><time>2021-08-12T12:26:49Z</time><extensions><speed>1.496159</speed><course>64.752533</course><hAcc>0.881095</hAcc><vAcc>0.704269</vAcc></extensions></trkpt>
      <trkpt lon="-3.307540" lat="54.554343"><ele>105.595367</ele><time>2021-08-12T12:26:50Z</time><extensions><speed>1.488709</speed><course>62.678837</course><hAcc>0.881144</hAcc><vAcc>0.704444</vAcc></extensions></trkpt>
      <trkpt lon="-3.307538" lat="54.554356"><ele>105.473747</ele><time>2021-08-12T12:26:51Z</time><extensions><speed>1.483185</speed><course>67.622025</course><hAcc>0.881189</hAcc><vAcc>0.704617</vAcc></extensions></trkpt>
      <trkpt lon="-3.307536" lat="54.554369"><ele>105.353561</ele><time>2021-08-12T12:26:52Z</time><extensions><speed>1.479085</speed><course>76.998230</course><hAcc>0.881230</hAcc><vAcc>0.704781</vAcc></extensions></trkpt>
      <trkpt lon="-3.307535" lat="54.554382"><ele>105.234901</ele><time>2021-08-12T12:26:53Z</time><extensions><speed>1.475890</speed><course>71.279175</course><hAcc>0.881270</hAcc><vAcc>0.704932</vAcc></extensions></trkpt>
      <trkpt lon="-3.307535" lat="54.554396"><ele>105.117096</ele><time>2021-08-12T12:26:54Z</time><extensions><speed>1.472933</speed><course>66.215858</course><hAcc>0.881310</hAcc><vAcc>0.705074</vAcc></extensions></trkpt>
      <trkpt lon="-3.307536" lat="54.554409"><ele>104.998596</ele><time>2021-08-12T12:26:55Z</time><extensions><speed>1.469249</speed><course>65.869171</course><hAcc>0.881349</hAcc><vAcc>0.705221</vAcc></extensions></trkpt>
      <trkpt lon="-3.307536" lat="54.554422"><ele>104.877884</ele><time>2021-08-12T12:26:55Z</time><extensions><speed>1.463839</speed><course>67.480362</course><hAcc>0.881408</hAcc><vAcc>0.705406</vAcc></extensions></trkpt>
      <trkpt lon="-3.307537" lat="54.554435"><ele>104.753441</ele><time>2021-08-12T12:26:56Z</time><extensions><speed>1.455917</speed><course>62.467888</course><hAcc>0.881486</hAcc><vAcc>0.705643</vAcc></extensions></trkpt>
      <trkpt lon="-3.307539" lat="54.554448"><ele>104.624229</ele><time>2021-08-12T12:26:57Z</time><extensions><speed>1.445145</speed><course>57.403885</course><hAcc>0.881567</hAcc><vAcc>0.705922</vAcc></extensions></trkpt>
      <trkpt lon="-3.307540" lat="54.554461"><ele>104.488991</ele><time>2021-08-12T12:26:58Z</time><extensions><speed>1.431347</speed><course>56.104736</course><hAcc>0.881651</hAcc><vAcc>0.706235</vAcc></extensions></trkpt>
      <trkpt lon="-3.307541" lat="54.554474"><ele>104.346603</ele><time>2021-08-12T12:26:59Z</time><extensions><speed>1.414613</speed><course>57.135769</course><hAcc>0.881738</hAcc><vAcc>0.706569</vAcc></extensions></trkpt>
      <trkpt lon="-3.307543" lat="54.554486"><ele>104.196449</ele><time>2021-08-12T12:27:00Z</time><extensions><speed>1.395211</speed><course>59.466648</course><hAcc>0.881828</hAcc><vAcc>0.706913</vAcc></extensions></trkpt>
      <trkpt lon="-3.307546" lat="54.554499"><ele>104.038712</ele><time>2021-08-12T12:27:01Z</time><extensions><speed>1.373600</speed><course>56.466339</course><hAcc>0.881920</hAcc><vAcc>0.707255</vAcc></extensions></trkpt>
      <trkpt lon="-3.307548" lat="54.554511"><ele>103.874283</ele><time>2021-08-12T12:27:02Z</time><extensions><speed>1.350611</speed><course>61.082169</course><hAcc>0.882015</hAcc><vAcc>0.707590</vAcc></extensions></trkpt>
      <trkpt lon="-3.307552" lat="54.554523"><ele>103.704575</ele><time>2021-08-12T12:27:03Z</time><extensions><speed>1.327359</speed><course>63.000797</course><hAcc>0.882111</hAcc><vAcc>0.707915</vAcc></extensions></trkpt>
      <trkpt lon="-3.307556" lat="54.554534"><ele>103.531570</ele><time>2021-08-12T12:27:04Z</time><extensions><speed>1.305366</speed><course>58.373146</course><hAcc>0.882207</hAcc><vAcc>0.708231</vAcc></extensions></trkpt>
      <trkpt lon="-3.307561" lat="54.554546"><ele>103.357704</ele><time>2021-08-12T12:27:05Z</time><extensions><speed>1.286281</speed><course>59.591164</course><hAcc>0.882303</hAcc><vAcc>0.708545</vAcc></extensions></trkpt>
      <trkpt lon="-3.307567" lat="54.554556"><ele>103.185745</ele><time>2021-08-12T12:27:06Z</time><extensions><speed>1.271191</speed><course>56.078835</course><hAcc>0.882397</hAcc><vAcc>0.708865</vAcc></extensions></trkpt>
      <trkpt lon="-3.307574" lat="54.554567"><ele>103.018768</ele><time>2021-08-12T12:27:07Z</time><extensions><speed>1.260437</speed><course>61.452141</course><hAcc>0.882486</hAcc><vAcc>0.709202</vAcc></extensions></trkpt>
      <trkpt lon="-3.307582" lat="54.554577"><ele>102.859879</ele><time>2021-08-12T12:27:08Z</time><extensions><speed>1.253257</speed><course>62.349373</course><hAcc>0.882567</hAcc><vAcc>0.709554</vAcc></extensions></trkpt>
      <trkpt lon="-3.307591" lat="54.554587"><ele>102.711845</ele><time>2021-08-12T12:27:09Z</time><extensions><speed>1.247859</speed><course>67.502327</course><hAcc>0.882638</hAcc><vAcc>0.709906</vAcc></extensions></trkpt>
      <trkpt lon="-3.307600" lat="54.554597"><ele>102.576836</ele><time>2021-08-12T12:27:10Z</time><extensions><speed>1.243087</speed><course>65.148994</course><hAcc>0.882694</hAcc><vAcc>0.710225</vAcc></extensions></trkpt>
      <trkpt lon="-3.307609" lat="54.554607"><ele>102.456146</ele><time>2021-08-12T12:27:11Z</time><extensions><speed>1.238804</speed><course>61.604351</course><hAcc>0.882733</hAcc><vAcc>0.710475</vAcc></extensions></trkpt>
      <trkpt lon="-3.307619" lat="54.554617"><ele>102.349777</ele><time>2021-08-12T12:27:12Z</time><extensions><speed>1.235151</speed><course>67.356651</course><hAcc>0.882751</hAcc><vAcc>0.710623</vAcc></extensions></trkpt>
      <trkpt lon="-3.307628" lat="54.554626"><ele>102.256485</ele><time>2021-08-12T12:27:13Z</time><extensions><speed>1.232479</speed><course>56.187717</course><hAcc>0.882746</hAcc><vAcc>0.710648</vAcc></extensions></trkpt>
      <trkpt lon="-3.307637" lat="54.554636"><ele>102.174690</ele><time>2021-08-12T12:27:14Z</time><extensions><speed>1.230703</speed><course>56.273357</course><hAcc>0.882720</hAcc><vAcc>0.710540</vAcc></extensions></trkpt>
      <trkpt lon="-3.307646" lat="54.554646"><ele>102.102989</ele><time>2021-08-12T12:27:15Z</time><extensions><speed>1.230137</speed><course>59.042984</course><hAcc>0.882671</hAcc><vAcc>0.710305</vAcc></extensions></trkpt>
      <trkpt lon="-3.307654" lat="54.554656"><ele>102.040230</ele><time>2021-08-12T12:27:16Z</time><extensions><speed>1.231273</speed><course>46.754299</course><hAcc>0.882605</hAcc><vAcc>0.709967</vAcc></extensions></trkpt>
      <trkpt lon="-3.307663" lat="54.554666"><ele>101.985535</ele><time>2021-08-12T12:27:17Z</time><extensions><speed>1.233407</speed><course>46.754295</course><hAcc>0.882526</hAcc><vAcc>0.709558</vAcc></extensions></trkpt>
      <trkpt lon="-3.307671" lat="54.554676"><ele>101.938263</ele><time>2021-08-12T12:27:18Z</time><extensions><speed>1.235626</speed><course>46.754295</course><hAcc>0.882440</hAcc><vAcc>0.709119</vAcc></extensions></trkpt>
      <trkpt lon="-3.307680" lat="54.554686"><ele>101.897766</ele><time>2021-08-12T12:27:19Z</time><extensions><speed>1.237763</speed><course>46.754295</course><hAcc>0.882356</hAcc><vAcc>0.708692</vAcc></extensions></trkpt>
      <trkpt lon="-3.307689" lat="54.554695"><ele>101.862976</ele><time>2021-08-12T12:27:20Z</time><extensions><speed>1.240773</speed><course>46.754295</course><hAcc>0.882281</hAcc><vAcc>0.708311</vAcc></extensions></trkpt>
      <trkpt lon="-3.307699" lat="54.554705"><ele>101.832314</ele><time>2021-08-12T12:27:21Z</time><extensions><speed>1.246329</speed><course>46.754295</course><hAcc>0.882224</hAcc><vAcc>0.708000</vAcc></extensions></trkpt>
      <trkpt lon="-3.307709" lat="54.554714"><ele>101.804054</ele><time>2021-08-12T12:27:22Z</time><extensions><speed>1.255968</speed><course>46.754295</course><hAcc>0.882191</hAcc><vAcc>0.707789</vAcc></extensions></trkpt>
      <trkpt lon="-3.307720" lat="54.554724"><ele>101.777061</ele><time>2021-08-12T12:27:23Z</time><extensions><speed>1.270182</speed><course>46.754292</course><hAcc>0.882188</hAcc><vAcc>0.707711</vAcc></extensions></trkpt>
      <trkpt lon="-3.307733" lat="54.554733"><ele>101.751205</ele><time>2021-08-12T12:27:24Z</time><extensions><speed>1.288385</speed><course>46.754295</course><hAcc>0.882217</hAcc><vAcc>0.707793</vAcc></extensions></trkpt>
      <trkpt lon="-3.307746" lat="54.554742"><ele>101.727097</ele><time>2021-08-12T12:27:25Z</time><extensions><speed>1.309268</speed><course>86.257805</course><hAcc>0.882278</hAcc><vAcc>0.708049</vAcc></extensions></trkpt>
      <trkpt lon="-3.307760" lat="54.554750"><ele>101.705727</ele><time>2021-08-12T12:27:26Z</time><extensions><speed>1.330554</speed><course>92.864906</course><hAcc>0.882369</hAcc><vAcc>0.708467</vAcc></extensions></trkpt>
      <trkpt lon="-3.307775" lat="54.554758"><ele>101.688057</ele><time>2021-08-12T12:27:27Z</time><extensions><speed>1.350198</speed><course>94.458534</course><hAcc>0.882485</hAcc><vAcc>0.709019</vAcc></extensions></trkpt>
      <trkpt lon="-3.307790" lat="54.554767"><ele>101.674454</ele><time>2021-08-12T12:27:28Z</time><extensions><speed>1.366389</speed><course>89.165138</course><hAcc>0.882619</hAcc><vAcc>0.709658</vAcc></extensions></trkpt>
      <trkpt lon="-3.307807" lat="54.554775"><ele>101.664825</ele><time>2021-08-12T12:27:29Z</time><extensions><speed>1.377369</speed><course>98.187202</course><hAcc>0.882763</hAcc><vAcc>0.710336</vAcc></extensions></trkpt>
      <trkpt lon="-3.307823" lat="54.554782"><ele>101.658981</ele><time>2021-08-12T12:27:30Z</time><extensions><speed>1.383183</speed><course>262.094696</course><hAcc>0.882909</hAcc><vAcc>0.711002</vAcc></extensions></trkpt>
      <trkpt lon="-3.307840" lat="54.554790"><ele>101.656670</ele><time>2021-08-12T12:27:31Z</time><extensions><speed>1.384634</speed><course>273.339569</course><hAcc>0.883048</hAcc><vAcc>0.711615</vAcc></extensions></trkpt>
      <trkpt lon="-3.307856" lat="54.554798"><ele>101.657913</ele><time>2021-08-12T12:27:32Z</time><extensions><speed>1.382369</speed><course>270.133057</course><hAcc>0.883173</hAcc><vAcc>0.712140</vAcc></extensions></trkpt>
      <trkpt lon="-3.307873" lat="54.554806"><ele>101.663155</ele><time>2021-08-12T12:27:33Z</time><extensions><speed>1.377348</speed><course>264.401459</course><hAcc>0.883275</hAcc><vAcc>0.712552</vAcc></extensions></trkpt>
      <trkpt lon="-3.307889" lat="54.554814"><ele>101.672791</ele><time>2021-08-12T12:27:34Z</time><extensions><speed>1.370363</speed><course>271.206299</course><hAcc>0.883350</hAcc><vAcc>0.712837</vAcc></extensions></trkpt>
      <trkpt lon="-3.307905" lat="54.554822"><ele>101.686806</ele><time>2021-08-12T12:27:35Z</time><extensions><speed>1.361975</speed><course>270.479279</course><hAcc>0.883395</hAcc><vAcc>0.712989</vAcc></extensions></trkpt>
      <trkpt lon="-3.307920" lat="54.554830"><ele>101.704926</ele><time>2021-08-12T12:27:36Z</time><extensions><speed>1.352592</speed><course>270.479279</course><hAcc>0.883408</hAcc><vAcc>0.713007</vAcc></extensions></trkpt>
      <trkpt lon="-3.307935" lat="54.554839"><ele>101.726860</ele><time>2021-08-12T12:27:37Z</time><extensions><speed>1.342778</speed><course>270.479279</course><hAcc>0.883389</hAcc><vAcc>0.712896</vAcc></extensions></trkpt>
      <trkpt lon="-3.307950" lat="54.554847"><ele>101.752220</ele><time>2021-08-12T12:27:38Z</time><extensions><speed>1.333681</speed><course>92.836548</course><hAcc>0.883339</hAcc><vAcc>0.712666</vAcc></extensions></trkpt>
      <trkpt lon="-3.307964" lat="54.554856"><ele>101.780579</ele><time>2021-08-12T12:27:39Z</time><extensions><speed>1.326848</speed><course>91.847809</course><hAcc>0.883261</hAcc><vAcc>0.712328</vAcc></extensions></trkpt>
      <trkpt lon="-3.307977" lat="54.554865"><ele>101.811646</ele><time>2021-08-12T12:27:40Z</time><extensions><speed>1.323153</speed><course>96.972961</course><hAcc>0.883159</hAcc><vAcc>0.711899</vAcc></extensions></trkpt>
      <trkpt lon="-3.307990" lat="54.554874"><ele>101.845230</ele><time>2021-08-12T12:27:41Z</time><extensions><speed>1.322638</speed><course>101.432434</course><hAcc>0.883036</hAcc><vAcc>0.711397</vAcc></extensions></trkpt>
      <trkpt lon="-3.308003" lat="54.554883"><ele>101.881187</ele><time>2021-08-12T12:27:42Z</time><extensions><speed>1.324954</speed><course>89.921867</course><hAcc>0.882897</hAcc><vAcc>0.710839</vAcc></extensions></trkpt>
      <trkpt lon="-3.308016" lat="54.554893"><ele>101.919334</ele><time>2021-08-12T12:27:43Z</time><extensions><speed>1.329327</speed><course>79.468422</course><hAcc>0.882746</hAcc><vAcc>0.710245</vAcc></extensions></trkpt>
      <trkpt lon="-3.308028" lat="54.554902"><ele>101.959259</ele><time>2021-08-12T12:27:44Z</time><extensions><speed>1.335027</speed><course>79.668663</course><hAcc>0.882588</hAcc><vAcc>0.709631</vAcc></extensions></trkpt>
      <trkpt lon="-3.308041" lat="54.554912"><ele>102.000397</ele><time>2021-08-12T12:27:45Z</time><extensions><speed>1.341458</speed><course>70.198914</course><hAcc>0.882426</hAcc><vAcc>0.709011</vAcc></extensions></trkpt>
      <trkpt lon="-3.308053" lat="54.554922"><ele>102.042084</ele><time>2021-08-12T12:27:46Z</time><extensions><speed>1.347827</speed><course>85.811096</course><hAcc>0.882263</hAcc><vAcc>0.708394</vAcc></extensions></trkpt>
      <trkpt lon="-3.308065" lat="54.554931"><ele>102.083611</ele><time>2021-08-12T12:27:47Z</time><extensions><speed>1.353850</speed><course>87.515213</course><hAcc>0.882103</hAcc><vAcc>0.707791</vAcc></extensions></trkpt>
      <trkpt lon="-3.308078" lat="54.554941"><ele>102.124054</ele><time>2021-08-12T12:27:48Z</time><extensions><speed>1.359415</speed><course>86.802406</course><hAcc>0.881948</hAcc><vAcc>0.707214</vAcc></extensions></trkpt>
      <trkpt lon="-3.308090" lat="54.554951"><ele>102.162506</ele><time>2021-08-12T12:27:49Z</time><extensions><speed>1.364429</speed><course>85.424927</course><hAcc>0.881800</hAcc><vAcc>0.706673</vAcc></extensions></trkpt>
      <trkpt lon="-3.308102" lat="54.554961"><ele>102.198456</ele><time>2021-08-12T12:27:50Z</time><extensions><speed>1.369136</speed><course>88.911957</course><hAcc>0.881660</hAcc><vAcc>0.706172</vAcc></extensions></trkpt>
      <trkpt lon="-3.308113" lat="54.554972"><ele>102.231712</ele><time>2021-08-12T12:27:51Z</time><extensions><speed>1.374324</speed><course>93.027184</course><hAcc>0.881532</hAcc><vAcc>0.705710</vAcc></extensions></trkpt>
      <trkpt lon="-3.308125" lat="54.554982"><ele>102.262169</ele><time>2021-08-12T12:27:52Z</time><extensions><speed>1.380983</speed><course>90.763535</course><hAcc>0.881415</hAcc><vAcc>0.705281</vAcc></extensions></trkpt>
      <trkpt lon="-3.308136" lat="54.554993"><ele>102.289818</ele><time>2021-08-12T12:27:53Z</time><extensions><speed>1.389627</speed><course>83.392509</course><hAcc>0.881312</hAcc><vAcc>0.704891</vAcc></extensions></trkpt>
      <trkpt lon="-3.308147" lat="54.555004"><ele>102.315033</ele><time>2021-08-12T12:27:54Z</time><extensions><speed>1.400090</speed><course>57.334152</course><hAcc>0.881226</hAcc><vAcc>0.704548</vAcc></extensions></trkpt>
      <trkpt lon="-3.308158" lat="54.555015"><ele>102.338348</ele><time>2021-08-12T12:27:55Z</time><extensions><speed>1.411928</speed><course>29.254333</course><hAcc>0.881156</hAcc><vAcc>0.704265</vAcc></extensions></trkpt>
      <trkpt lon="-3.308168" lat="54.555026"><ele>102.360008</ele><time>2021-08-12T12:27:56Z</time><extensions><speed>1.424747</speed><course>29.254333</course><hAcc>0.881106</hAcc><vAcc>0.704051</vAcc></extensions></trkpt>
      <trkpt lon="-3.308177" lat="54.555037"><ele>102.380150</ele><time>2021-08-12T12:27:57Z</time><extensions><speed>1.438496</speed><course>29.254333</course><hAcc>0.881076</hAcc><vAcc>0.703915</vAcc></extensions></trkpt>
      <trkpt lon="-3.308186" lat="54.555049"><ele>102.399254</ele><time>2021-08-12T12:27:58Z</time><extensions><speed>1.453234</speed><course>29.254332</course><hAcc>0.881068</hAcc><vAcc>0.703863</vAcc></extensions></trkpt>
      <trkpt lon="-3.308195" lat="54.555061"><ele>102.418312</ele><time>2021-08-12T12:27:59Z</time><extensions><speed>1.468548</speed><course>29.254333</course><hAcc>0.881081</hAcc><vAcc>0.703905</vAcc></extensions></trkpt>
      <trkpt lon="-3.308204" lat="54.555074"><ele>102.438820</ele><time>2021-08-12T12:28:00Z</time><extensions><speed>1.483857</speed><course>29.254332</course><hAcc>0.881116</hAcc><vAcc>0.704046</vAcc></extensions></trkpt>
      <trkpt lon="-3.308212" lat="54.555086"><ele>102.462555</ele><time>2021-08-12T12:28:01Z</time><extensions><speed>1.499027</speed><course>29.254332</course><hAcc>0.881170</hAcc><vAcc>0.704279</vAcc></extensions></trkpt>
      <trkpt lon="-3.308219" lat="54.555099"><ele>102.491310</ele><time>2021-08-12T12:28:02Z</time><extensions><speed>1.513766</speed><course>29.254333</course><hAcc>0.881240</hAcc><vAcc>0.704587</vAcc></extensions></trkpt>
      <trkpt lon="-3.308227" lat="54.555112"><ele>102.526619</ele><time>2021-08-12T12:28:03Z</time><extensions><speed>1.527119</speed><course>29.254333</course><hAcc>0.881324</hAcc><vAcc>0.704953</vAcc></extensions></trkpt>
      <trkpt lon="-3.308234" lat="54.555125"><ele>102.569618</ele><time>2021-08-12T12:28:04Z</time><extensions><speed>1.538607</speed><course>29.254332</course><hAcc>0.881415</hAcc><vAcc>0.705357</vAcc></extensions></trkpt>
      <trkpt lon="-3.308242" lat="54.555138"><ele>102.620857</ele><time>2021-08-12T12:28:05Z</time><extensions><speed>1.547801</speed><course>29.254333</course><hAcc>0.881511</hAcc><vAcc>0.705776</vAcc></extensions></trkpt>
      <trkpt lon="-3.308249" lat="54.555152"><ele>102.680107</ele><time>2021-08-12T12:28:06Z</time><extensions><speed>1.554464</speed><course>29.254337</course><hAcc>0.881605</hAcc><vAcc>0.706185</vAcc></extensions></trkpt>
      <trkpt lon="-3.308255" lat="54.555165"><ele>102.746361</ele><time>2021-08-12T12:28:07Z</time><extensions><speed>1.558464</speed><course>29.254337</course><hAcc>0.881693</hAcc><vAcc>0.706559</vAcc></extensions></trkpt>
      <trkpt lon="-3.308262" lat="54.555178"><ele>102.817551</ele><time>2021-08-12T12:28:08Z</time><extensions><speed>1.559176</speed><course>29.254339</course><hAcc>0.881772</hAcc><vAcc>0.706881</vAcc></extensions></trkpt>
      <trkpt lon="-3.308268" lat="54.555192"><ele>102.890541</ele><time>2021-08-12T12:28:09Z</time><extensions><speed>1.556362</speed><course>29.254337</course><hAcc>0.881838</hAcc><vAcc>0.707136</vAcc></extensions></trkpt>
      <trkpt lon="-3.308274" lat="54.555206"><ele>102.961540</ele><time>2021-08-12T12:28:10Z</time><extensions><speed>1.549988</speed><course>29.254339</course><hAcc>0.881889</hAcc><vAcc>0.707315</vAcc></extensions></trkpt>
      <trkpt lon="-3.308279" lat="54.555219"><ele>103.026680</ele><time>2021-08-12T12:28:11Z</time><extensions><speed>1.539926</speed><course>353.139893</course><hAcc>0.881923</hAcc><vAcc>0.707417</vAcc></extensions></trkpt>
      <trkpt lon="-3.308284" lat="54.555233"><ele>103.082344</ele><time>2021-08-12T12:28:12Z</time><extensions><speed>1.526122</speed><course>-1.000000</course><hAcc>0.881939</hAcc><vAcc>0.707448</vAcc></extensions></trkpt>
      <trkpt lon="-3.308288" lat="54.555246"><ele>103.125275</ele><time>2021-08-12T12:28:13Z</time><extensions><speed>1.508150</speed><course>-1.000000</course><hAcc>0.881936</hAcc><vAcc>0.707418</vAcc></extensions></trkpt>
      <trkpt lon="-3.308292" lat="54.555259"><ele>103.152779</ele><time>2021-08-12T12:28:14Z</time><extensions><speed>1.485517</speed><course>-1.000000</course><hAcc>0.881913</hAcc><vAcc>0.707336</vAcc></extensions></trkpt>
      <trkpt lon="-3.308295" lat="54.555272"><ele>103.163109</ele><time>2021-08-12T12:28:15Z</time><extensions><speed>1.458155</speed><course>-1.000000</course><hAcc>0.881869</hAcc><vAcc>0.707200</vAcc></extensions></trkpt>
      <trkpt lon="-3.308298" lat="54.555285"><ele>103.155632</ele><time>2021-08-12T12:28:16Z</time><extensions><speed>1.426279</speed><course>-1.000000</course><hAcc>0.881806</hAcc><vAcc>0.707000</vAcc></extensions></trkpt>
      <trkpt lon="-3.308300" lat="54.555298"><ele>103.130524</ele><time>2021-08-12T12:28:17Z</time><extensions><speed>1.390546</speed><course>-1.000000</course><hAcc>0.881722</hAcc><vAcc>0.706725</vAcc></extensions></trkpt>
      <trkpt lon="-3.308301" lat="54.555310"><ele>103.088387</ele><time>2021-08-12T12:28:18Z</time><extensions><speed>1.351940</speed><course>-1.000000</course><hAcc>0.881619</hAcc><vAcc>0.706368</vAcc></extensions></trkpt>
      <trkpt lon="-3.308302" lat="54.555322"><ele>103.030113</ele><time>2021-08-12T12:28:19Z</time><extensions><speed>1.311381</speed><course>-1.000000</course><hAcc>0.881497</hAcc><vAcc>0.705930</vAcc></extensions></trkpt>
      <trkpt lon="-3.308303" lat="54.555334"><ele>102.956741</ele><time>2021-08-12T12:28:20Z</time><extensions><speed>1.269525</speed><course>-1.000000</course><hAcc>0.881357</hAcc><vAcc>0.705416</vAcc></extensions></trkpt>
      <trkpt lon="-3.308302" lat="54.555345"><ele>102.869171</ele><time>2021-08-12T12:28:21Z</time><extensions><speed>1.227499</speed><course>-1.000000</course><hAcc>0.881203</hAcc><vAcc>0.704831</vAcc></extensions></trkpt>
      <trkpt lon="-3.308302" lat="54.555356"><ele>102.768356</ele><time>2021-08-12T12:28:22Z</time><extensions><speed>1.186912</speed><course>-1.000000</course><hAcc>0.881037</hAcc><vAcc>0.704181</vAcc></extensions></trkpt>
      <trkpt lon="-3.308301" lat="54.555366"><ele>102.655678</ele><time>2021-08-12T12:28:23Z</time><extensions><speed>1.149046</speed><course>74.830536</course><hAcc>0.880863</hAcc><vAcc>0.703482</vAcc></extensions></trkpt>
      <trkpt lon="-3.308300" lat="54.555376"><ele>102.532837</ele><time>2021-08-12T12:28:24Z</time><extensions><speed>1.114787</speed><course>62.161198</course><hAcc>0.880686</hAcc><vAcc>0.702757</vAcc></extensions></trkpt>
      <trkpt lon="-3.308299" lat="54.555386"><ele>102.401611</ele><time>2021-08-12T12:28:25Z</time><extensions><speed>1.084431</speed><course>66.043793</course><hAcc>0.880509</hAcc><vAcc>0.702036</vAcc></extensions></trkpt>
      <trkpt lon="-3.308297" lat="54.555396"><ele>102.263809</ele><time>2021-08-12T12:28:26Z</time><extensions><speed>1.057430</speed><course>75.803009</course><hAcc>0.880338</hAcc><vAcc>0.701345</vAcc></extensions></trkpt>
      <trkpt lon="-3.308296" lat="54.555405"><ele>102.121109</ele><time>2021-08-12T12:28:27Z</time><extensions><speed>1.032175</speed><course>76.191063</course><hAcc>0.880173</hAcc><vAcc>0.700710</vAcc></extensions></trkpt>
      <trkpt lon="-3.308295" lat="54.555414"><ele>101.975060</ele><time>2021-08-12T12:28:28Z</time><extensions><speed>1.006376</speed><course>76.349960</course><hAcc>0.880018</hAcc><vAcc>0.700144</vAcc></extensions></trkpt>
      <trkpt lon="-3.308294" lat="54.555423"><ele>101.826920</ele><time>2021-08-12T12:28:29Z</time><extensions><speed>0.978498</speed><course>78.477806</course><hAcc>0.879871</hAcc><vAcc>0.699647</vAcc></extensions></trkpt>
      <trkpt lon="-3.308294" lat="54.555432"><ele>101.677483</ele><time>2021-08-12T12:28:30Z</time><extensions><speed>0.948474</speed><course>75.070290</course><hAcc>0.879731</hAcc><vAcc>0.699208</vAcc></extensions></trkpt>
      <trkpt lon="-3.308293" lat="54.555440"><ele>101.527084</ele><time>2021-08-12T12:28:31Z</time><extensions><speed>0.917179</speed><course>69.086029</course><hAcc>0.879596</hAcc><vAcc>0.698802</vAcc></extensions></trkpt>
      <trkpt lon="-3.308293" lat="54.555448"><ele>101.375809</ele><time>2021-08-12T12:28:32Z</time><extensions><speed>0.886199</speed><course>68.949226</course><hAcc>0.879461</hAcc><vAcc>0.698399</vAcc></extensions></trkpt>
      <trkpt lon="-3.308293" lat="54.555456"><ele>101.223984</ele><time>2021-08-12T12:28:33Z</time><extensions><speed>0.857760</speed><course>71.686111</course><hAcc>0.879323</hAcc><vAcc>0.697967</vAcc></extensions></trkpt>
      <trkpt lon="-3.308292" lat="54.555464"><ele>101.072090</ele><time>2021-08-12T12:28:34Z</time><extensions><speed>0.834364</speed><course>76.597496</course><hAcc>0.879179</hAcc><vAcc>0.697484</vAcc></extensions></trkpt>
      <trkpt lon="-3.308292" lat="54.555471"><ele>100.920151</ele><time>2021-08-12T12:28:35Z</time><extensions><speed>0.819006</speed><course>90.005066</course><hAcc>0.879029</hAcc><vAcc>0.696941</vAcc></extensions></trkpt>
      <trkpt lon="-3.308292" lat="54.555478"><ele>100.767639</ele><time>2021-08-12T12:28:36Z</time><extensions><speed>0.815124</speed><course>83.948074</course><hAcc>0.878872</hAcc><vAcc>0.696340</vAcc></extensions></trkpt>
      <trkpt lon="-3.308292" lat="54.555486"><ele>100.613686</ele><time>2021-08-12T12:28:37Z</time><extensions><speed>0.825497</speed><course>76.996796</course><hAcc>0.878712</hAcc><vAcc>0.695699</vAcc></extensions></trkpt>
      <trkpt lon="-3.308291" lat="54.555493"><ele>100.457291</ele><time>2021-08-12T12:28:38Z</time><extensions><speed>0.851154</speed><course>79.507355</course><hAcc>0.878552</hAcc><vAcc>0.695044</vAcc></extensions></trkpt>
      <trkpt lon="-3.308290" lat="54.555501"><ele>100.297470</ele><time>2021-08-12T12:28:39Z</time><extensions><speed>0.891144</speed><course>72.096832</course><hAcc>0.878396</hAcc><vAcc>0.694405</vAcc></extensions></trkpt>
      <trkpt lon="-3.308289" lat="54.555509"><ele>100.133690</ele><time>2021-08-12T12:28:40Z</time><extensions><speed>0.942994</speed><course>80.368279</course><hAcc>0.878252</hAcc><vAcc>0.693810</vAcc></extensions></trkpt>
      <trkpt lon="-3.308288" lat="54.555518"><ele>99.966133</ele><time>2021-08-12T12:28:41Z</time><extensions><speed>1.002892</speed><course>78.982643</course><hAcc>0.878123</hAcc><vAcc>0.693286</vAcc></extensions></trkpt>
      <trkpt lon="-3.308288" lat="54.555527"><ele>99.795731</ele><time>2021-08-12T12:28:42Z</time><extensions><speed>1.066213</speed><course>81.075706</course><hAcc>0.878016</hAcc><vAcc>0.692857</vAcc></extensions></trkpt>
      <trkpt lon="-3.308287" lat="54.555537"><ele>99.624352</ele><time>2021-08-12T12:28:43Z</time><extensions><speed>1.129183</speed><course>81.007790</course><hAcc>0.877936</hAcc><vAcc>0.692539</vAcc></extensions></trkpt>
      <trkpt lon="-3.308286" lat="54.555548"><ele>99.455032</ele><time>2021-08-12T12:28:44Z</time><extensions><speed>1.190106</speed><course>78.272133</course><hAcc>0.877886</hAcc><vAcc>0.692345</vAcc></extensions></trkpt>
      <trkpt lon="-3.308286" lat="54.555559"><ele>99.291473</ele><time>2021-08-12T12:28:45Z</time><extensions><speed>1.248349</speed><course>73.069588</course><hAcc>0.877868</hAcc><vAcc>0.692280</vAcc></extensions></trkpt>
      <trkpt lon="-3.308286" lat="54.555570"><ele>99.136925</ele><time>2021-08-12T12:28:46Z</time><extensions><speed>1.303422</speed><course>77.189682</course><hAcc>0.877885</hAcc><vAcc>0.692345</vAcc></extensions></trkpt>
      <trkpt lon="-3.308287" lat="54.555582"><ele>98.993439</ele><time>2021-08-12T12:28:47Z</time><extensions><speed>1.354890</speed><course>75.197517</course><hAcc>0.877938</hAcc><vAcc>0.692536</vAcc></extensions></trkpt>
      <trkpt lon="-3.308288" lat="54.555594"><ele>98.862137</ele><time>2021-08-12T12:28:48Z</time><extensions><speed>1.402518</speed><course>67.733307</course><hAcc>0.878028</hAcc><vAcc>0.692850</vAcc></extensions></trkpt>
      <trkpt lon="-3.308289" lat="54.555607"><ele>98.743866</ele><time>2021-08-12T12:28:49Z</time><extensions><speed>1.446175</speed><course>69.123688</course><hAcc>0.878156</hAcc><vAcc>0.693286</vAcc></extensions></trkpt>
      <trkpt lon="-3.308290" lat="54.555620"><ele>98.639076</ele><time>2021-08-12T12:28:50Z</time><extensions><speed>1.485846</speed><course>71.299400</course><hAcc>0.878321</hAcc><vAcc>0.693848</vAcc></extensions></trkpt>
      <trkpt lon="-3.308291" lat="54.555634"><ele>98.547852</ele><time>2021-08-12T12:28:51Z</time><extensions><speed>1.521793</speed><course>77.479210</course><hAcc>0.878525</hAcc><vAcc>0.694543</vAcc></extensions></trkpt>
      <trkpt lon="-3.308292" lat="54.555648"><ele>98.470322</ele><time>2021-08-12T12:28:52Z</time><extensions><speed>1.554133</speed><course>68.623329</course><hAcc>0.878768</hAcc><vAcc>0.695378</vAcc></extensions></trkpt>
      <trkpt lon="-3.308293" lat="54.555662"><ele>98.406387</ele><time>2021-08-12T12:28:54Z</time><extensions><speed>1.583091</speed><course>63.866425</course><hAcc>0.879031</hAcc><vAcc>0.696346</vAcc></extensions></trkpt>
      <trkpt lon="-3.308294" lat="54.555676"><ele>98.355392</ele><time>2021-08-12T12:28:55Z</time><extensions><speed>1.608704</speed><course>76.291603</course><hAcc>0.879309</hAcc><vAcc>0.697445</vAcc></extensions></trkpt>
      <trkpt lon="-3.308295" lat="54.555691"><ele>98.315735</ele><time>2021-08-12T12:28:56Z</time><extensions><speed>1.630769</speed><course>71.777351</course><hAcc>0.879616</hAcc><vAcc>0.698676</vAcc></extensions></trkpt>
      <trkpt lon="-3.308296" lat="54.555705"><ele>98.285728</ele><time>2021-08-12T12:28:57Z</time><extensions><speed>1.648922</speed><course>76.476341</course><hAcc>0.879945</hAcc><vAcc>0.700008</vAcc></extensions></trkpt>
      <trkpt lon="-3.308297" lat="54.555720"><ele>98.264008</ele><time>2021-08-12T12:28:58Z</time><extensions><speed>1.663065</speed><course>63.346680</course><hAcc>0.880287</hAcc><vAcc>0.701395</vAcc></extensions></trkpt>
      <trkpt lon="-3.308298" lat="54.555735"><ele>98.249733</ele><time>2021-08-12T12:28:59Z</time><extensions><speed>1.673227</speed><course>60.883244</course><hAcc>0.880634</hAcc><vAcc>0.702789</vAcc></extensions></trkpt>
      <trkpt lon="-3.308299" lat="54.555750"><ele>98.242638</ele><time>2021-08-12T12:29:00Z</time><extensions><speed>1.679393</speed><course>66.100471</course><hAcc>0.880974</hAcc><vAcc>0.704146</vAcc></extensions></trkpt>
      <trkpt lon="-3.308300" lat="54.555765"><ele>98.243156</ele><time>2021-08-12T12:29:01Z</time><extensions><speed>1.681452</speed><course>66.284729</course><hAcc>0.881301</hAcc><vAcc>0.705429</vAcc></extensions></trkpt>
      <trkpt lon="-3.308301" lat="54.555780"><ele>98.252327</ele><time>2021-08-12T12:29:02Z</time><extensions><speed>1.679306</speed><course>70.183884</course><hAcc>0.881607</hAcc><vAcc>0.706613</vAcc></extensions></trkpt>
      <trkpt lon="-3.308302" lat="54.555795"><ele>98.271210</ele><time>2021-08-12T12:29:03Z</time><extensions><speed>1.672882</speed><course>69.091454</course><hAcc>0.881884</hAcc><vAcc>0.707679</vAcc></extensions></trkpt>
      <trkpt lon="-3.308304" lat="54.555810"><ele>98.300285</ele><time>2021-08-12T12:29:03Z</time><extensions><speed>1.662226</speed><course>67.595528</course><hAcc>0.882148</hAcc><vAcc>0.708629</vAcc></extensions></trkpt>
      <trkpt lon="-3.308305" lat="54.555825"><ele>98.339500</ele><time>2021-08-12T12:29:04Z</time><extensions><speed>1.647410</speed><course>69.079941</course><hAcc>0.882396</hAcc><vAcc>0.709461</vAcc></extensions></trkpt>
      <trkpt lon="-3.308306" lat="54.555840"><ele>98.388519</ele><time>2021-08-12T12:29:05Z</time><extensions><speed>1.628538</speed><course>67.638985</course><hAcc>0.882609</hAcc><vAcc>0.710163</vAcc></extensions></trkpt>
      <trkpt lon="-3.308308" lat="54.555854"><ele>98.447128</ele><time>2021-08-12T12:29:06Z</time><extensions><speed>1.605662</speed><course>67.902077</course><hAcc>0.882790</hAcc><vAcc>0.710744</vAcc></extensions></trkpt>
      <trkpt lon="-3.308309" lat="54.555869"><ele>98.515106</ele><time>2021-08-12T12:29:07Z</time><extensions><speed>1.578825</speed><course>68.213737</course><hAcc>0.882940</hAcc><vAcc>0.711216</vAcc></extensions></trkpt>
      <trkpt lon="-3.308311" lat="54.555883"><ele>98.591820</ele><time>2021-08-12T12:29:08Z</time><extensions><speed>1.548089</speed><course>58.646133</course><hAcc>0.883061</hAcc><vAcc>0.711595</vAcc></extensions></trkpt>
      <trkpt lon="-3.308312" lat="54.555896"><ele>98.676369</ele><time>2021-08-12T12:29:09Z</time><extensions><speed>1.513563</speed><course>60.787758</course><hAcc>0.883155</hAcc><vAcc>0.711892</vAcc></extensions></trkpt>
      <trkpt lon="-3.308314" lat="54.555910"><ele>98.767792</ele><time>2021-08-12T12:29:10Z</time><extensions><speed>1.475305</speed><course>59.107254</course><hAcc>0.883223</hAcc><vAcc>0.712115</vAcc></extensions></trkpt>
      <trkpt lon="-3.308316" lat="54.555923"><ele>98.864998</ele><time>2021-08-12T12:29:11Z</time><extensions><speed>1.433459</speed><course>59.308796</course><hAcc>0.883266</hAcc><vAcc>0.712268</vAcc></extensions></trkpt>
      <trkpt lon="-3.308318" lat="54.555935"><ele>98.966873</ele><time>2021-08-12T12:29:12Z</time><extensions><speed>1.388386</speed><course>63.536522</course><hAcc>0.883285</hAcc><vAcc>0.712350</vAcc></extensions></trkpt>
      <trkpt lon="-3.308320" lat="54.555948"><ele>99.072701</ele><time>2021-08-12T12:29:13Z</time><extensions><speed>1.340517</speed><course>64.110619</course><hAcc>0.883278</hAcc><vAcc>0.712356</vAcc></extensions></trkpt>
      <trkpt lon="-3.308323" lat="54.555959"><ele>99.182373</ele><time>2021-08-12T12:29:14Z</time><extensions><speed>1.290445</speed><course>57.783936</course><hAcc>0.883245</hAcc><vAcc>0.712280</vAcc></extensions></trkpt>
      <trkpt lon="-3.308326" lat="54.555971"><ele>99.296295</ele><time>2021-08-12T12:29:15Z</time><extensions><speed>1.239146</speed><course>62.673740</course><hAcc>0.883182</hAcc><vAcc>0.712111</vAcc></extensions></trkpt>
      <trkpt lon="-3.308329" lat="54.555981"><ele>99.414864</ele><time>2021-08-12T12:29:16Z</time><extensions><speed>1.188047</speed><course>68.268181</course><hAcc>0.883089</hAcc><vAcc>0.711832</vAcc></extensions></trkpt>
      <trkpt lon="-3.308332" lat="54.555992"><ele>99.538094</ele><time>2021-08-12T12:29:17Z</time><extensions><speed>1.138779</speed><course>59.735432</course><hAcc>0.882963</hAcc><vAcc>0.711428</vAcc></extensions></trkpt>
      <trkpt lon="-3.308336" lat="54.556001"><ele>99.665504</ele><time>2021-08-12T12:29:18Z</time><extensions><speed>1.092745</speed><course>59.192490</course><hAcc>0.882803</hAcc><vAcc>0.710884</vAcc></extensions></trkpt>
      <trkpt lon="-3.308341" lat="54.556011"><ele>99.796120</ele><time>2021-08-12T12:29:19Z</time><extensions><speed>1.050918</speed><course>60.825825</course><hAcc>0.882608</hAcc><vAcc>0.710194</vAcc></extensions></trkpt>
      <trkpt lon="-3.308345" lat="54.556020"><ele>99.928658</ele><time>2021-08-12T12:29:20Z</time><extensions><speed>1.013904</speed><course>62.921200</course><hAcc>0.882379</hAcc><vAcc>0.709362</vAcc></extensions></trkpt>
      <trkpt lon="-3.308350" lat="54.556028"><ele>100.061798</ele><time>2021-08-12T12:29:21Z</time><extensions><speed>0.981916</speed><course>59.145714</course><hAcc>0.882119</hAcc><vAcc>0.708395</vAcc></extensions></trkpt>
      <trkpt lon="-3.308354" lat="54.556036"><ele>100.194328</ele><time>2021-08-12T12:29:22Z</time><extensions><speed>0.954886</speed><course>54.852036</course><hAcc>0.881830</hAcc><vAcc>0.707302</vAcc></extensions></trkpt>
      <trkpt lon="-3.308358" lat="54.556044"><ele>100.325157</ele><time>2021-08-12T12:29:23Z</time><extensions><speed>0.932988</speed><course>52.958679</course><hAcc>0.881520</hAcc><vAcc>0.706100</vAcc></extensions></trkpt>
      <trkpt lon="-3.308363" lat="54.556052"><ele>100.453377</ele><time>2021-08-12T12:29:24Z</time><extensions><speed>0.916690</speed><course>51.642593</course><hAcc>0.881195</hAcc><vAcc>0.704818</vAcc></extensions></trkpt>
      <trkpt lon="-3.308366" lat="54.556060"><ele>100.578491</ele><time>2021-08-12T12:29:25Z</time><extensions><speed>0.905878</speed><course>50.915668</course><hAcc>0.880864</hAcc><vAcc>0.703495</vAcc></extensions></trkpt>
      <trkpt lon="-3.308370" lat="54.556068"><ele>100.700539</ele><time>2021-08-12T12:29:26Z</time><extensions><speed>0.900360</speed><course>43.517220</course><hAcc>0.880537</hAcc><vAcc>0.702182</vAcc></extensions></trkpt>
      <trkpt lon="-3.308373" lat="54.556076"><ele>100.819702</ele><time>2021-08-12T12:29:27Z</time><extensions><speed>0.899784</speed><course>53.213661</course><hAcc>0.880223</hAcc><vAcc>0.700926</vAcc></extensions></trkpt>
      <trkpt lon="-3.308376" lat="54.556084"><ele>100.936180</ele><time>2021-08-12T12:29:28Z</time><extensions><speed>0.903221</speed><course>42.672325</course><hAcc>0.879933</hAcc><vAcc>0.699770</vAcc></extensions></trkpt>
      <trkpt lon="-3.308380" lat="54.556092"><ele>101.050240</ele><time>2021-08-12T12:29:29Z</time><extensions><speed>0.909634</speed><course>57.842590</course><hAcc>0.879675</hAcc><vAcc>0.698747</vAcc></extensions></trkpt>
      <trkpt lon="-3.308383" lat="54.556100"><ele>101.162109</ele><time>2021-08-12T12:29:30Z</time><extensions><speed>0.917995</speed><course>54.432369</course><hAcc>0.879458</hAcc><vAcc>0.697888</vAcc></extensions></trkpt>
      <trkpt lon="-3.308387" lat="54.556108"><ele>101.272331</ele><time>2021-08-12T12:29:31Z</time><extensions><speed>0.927496</speed><course>53.099045</course><hAcc>0.879288</hAcc><vAcc>0.697219</vAcc></extensions></trkpt>
      <trkpt lon="-3.308391" lat="54.556116"><ele>101.381882</ele><time>2021-08-12T12:29:32Z</time><extensions><speed>0.937986</speed><course>52.709480</course><hAcc>0.879170</hAcc><vAcc>0.696759</vAcc></extensions></trkpt>
      <trkpt lon="-3.308396" lat="54.556124"><ele>101.491768</ele><time>2021-08-12T12:29:33Z</time><extensions><speed>0.949723</speed><course>55.566643</course><hAcc>0.879108</hAcc><vAcc>0.696522</vAcc></extensions></trkpt>
      <trkpt lon="-3.308401" lat="54.556132"><ele>101.602379</ele><time>2021-08-12T12:29:34Z</time><extensions><speed>0.963105</speed><course>50.999676</course><hAcc>0.879101</hAcc><vAcc>0.696515</vAcc></extensions></trkpt>
      <trkpt lon="-3.308406" lat="54.556140"><ele>101.713295</ele><time>2021-08-12T12:29:35Z</time><extensions><speed>0.978853</speed><course>49.932701</course><hAcc>0.879147</hAcc><vAcc>0.696732</vAcc></extensions></trkpt>
      <trkpt lon="-3.308412" lat="54.556148"><ele>101.823959</ele><time>2021-08-12T12:29:36Z</time><extensions><speed>0.997370</speed><course>44.103298</course><hAcc>0.879243</hAcc><vAcc>0.697156</vAcc></extensions></trkpt>
      <trkpt lon="-3.308418" lat="54.556157"><ele>101.934059</ele><time>2021-08-12T12:29:37Z</time><extensions><speed>1.019115</speed><course>35.959499</course><hAcc>0.879382</hAcc><vAcc>0.697760</vAcc></extensions></trkpt>
      <trkpt lon="-3.308425" lat="54.556165"><ele>102.043625</ele><time>2021-08-12T12:29:38Z</time><extensions><speed>1.044106</speed><course>30.952709</course><hAcc>0.879556</hAcc><vAcc>0.698507</vAcc></extensions></trkpt>
      <trkpt lon="-3.308433" lat="54.556173"><ele>102.153336</ele><time>2021-08-12T12:29:39Z</time><extensions><speed>1.071239</speed><course>43.709347</course><hAcc>0.879757</hAcc><vAcc>0.699353</vAcc></extensions></trkpt>
      <trkpt lon="-3.308440" lat="54.556182"><ele>102.264313</ele><time>2021-08-12T12:29:40Z</time><extensions><speed>1.098955</speed><course>37.574459</course><hAcc>0.879975</hAcc><vAcc>0.700249</vAcc></extensions></trkpt>
      <trkpt lon="-3.308449" lat="54.556191"><ele>102.377632</ele><time>2021-08-12T12:29:41Z</time><extensions><speed>1.125641</speed><course>40.028488</course><hAcc>0.880203</hAcc><vAcc>0.701149</vAcc></extensions></trkpt>
      <trkpt lon="-3.308457" lat="54.556200"><ele>102.494263</ele><time>2021-08-12T12:29:42Z</time><extensions><speed>1.150785</speed><course>39.088745</course><hAcc>0.880432</hAcc><vAcc>0.702020</vAcc></extensions></trkpt>
      <trkpt lon="-3.308466" lat="54.556209"><ele>102.614822</ele><time>2021-08-12T12:29:43Z</time><extensions><speed>1.174515</speed><course>38.227211</course><hAcc>0.880657</hAcc><vAcc>0.702842</vAcc></extensions></trkpt>
      <trkpt lon="-3.308475" lat="54.556218"><ele>102.739250</ele><time>2021-08-12T12:29:44Z</time><extensions><speed>1.196649</speed><course>38.580025</course><hAcc>0.880873</hAcc><vAcc>0.703610</vAcc></extensions></trkpt>
      <trkpt lon="-3.308485" lat="54.556227"><ele>102.866783</ele><time>2021-08-12T12:29:45Z</time><extensions><speed>1.216898</speed><course>36.225418</course><hAcc>0.881075</hAcc><vAcc>0.704328</vAcc></extensions></trkpt>
      <trkpt lon="-3.308494" lat="54.556237"><ele>102.995903</ele><time>2021-08-12T12:29:46Z</time><extensions><speed>1.234980</speed><course>36.482189</course><hAcc>0.881261</hAcc><vAcc>0.704996</vAcc></extensions></trkpt>
      <trkpt lon="-3.308503" lat="54.556247"><ele>103.124336</ele><time>2021-08-12T12:29:47Z</time><extensions><speed>1.251382</speed><course>45.117634</course><hAcc>0.881429</hAcc><vAcc>0.705607</vAcc></extensions></trkpt>
      <trkpt lon="-3.308513" lat="54.556257"><ele>103.249527</ele><time>2021-08-12T12:29:48Z</time><extensions><speed>1.266959</speed><course>40.176819</course><hAcc>0.881578</hAcc><vAcc>0.706154</vAcc></extensions></trkpt>
      <trkpt lon="-3.308522" lat="54.556267"><ele>103.369278</ele><time>2021-08-12T12:29:49Z</time><extensions><speed>1.281962</speed><course>42.588684</course><hAcc>0.881706</hAcc><vAcc>0.706628</vAcc></extensions></trkpt>
      <trkpt lon="-3.308531" lat="54.556277"><ele>103.481926</ele><time>2021-08-12T12:29:50Z</time><extensions><speed>1.296327</speed><course>41.771687</course><hAcc>0.881812</hAcc><vAcc>0.707023</vAcc></extensions></trkpt>
      <trkpt lon="-3.308539" lat="54.556288"><ele>103.586746</ele><time>2021-08-12T12:29:51Z</time><extensions><speed>1.309432</speed><course>41.372017</course><hAcc>0.881894</hAcc><vAcc>0.707335</vAcc></extensions></trkpt>
      <trkpt lon="-3.308548" lat="54.556298"><ele>103.684113</ele><time>2021-08-12T12:29:52Z</time><extensions><speed>1.320072</speed><course>37.017429</course><hAcc>0.881950</hAcc><vAcc>0.707564</vAcc></extensions></trkpt>
      <trkpt lon="-3.308557" lat="54.556309"><ele>103.775169</ele><time>2021-08-12T12:29:53Z</time><extensions><speed>1.327166</speed><course>28.588495</course><hAcc>0.881979</hAcc><vAcc>0.707707</vAcc></extensions></trkpt>
      <trkpt lon="-3.308565" lat="54.556320"><ele>103.861313</ele><time>2021-08-12T12:29:54Z</time><extensions><speed>1.330339</speed><course>39.512306</course><hAcc>0.881981</hAcc><vAcc>0.707758</vAcc></extensions></trkpt>
      <trkpt lon="-3.308574" lat="54.556331"><ele>103.943802</ele><time>2021-08-12T12:29:55Z</time><extensions><speed>1.329651</speed><course>38.955353</course><hAcc>0.881954</hAcc><vAcc>0.707704</vAcc></extensions></trkpt>
      <trkpt lon="-3.308582" lat="54.556342"><ele>104.023460</ele><time>2021-08-12T12:29:56Z</time><extensions><speed>1.325434</speed><course>35.270641</course><hAcc>0.881899</hAcc><vAcc>0.707532</vAcc></extensions></trkpt>
      <trkpt lon="-3.308590" lat="54.556353"><ele>104.100235</ele><time>2021-08-12T12:29:57Z</time><extensions><speed>1.318538</speed><course>38.302330</course><hAcc>0.881819</hAcc><vAcc>0.707237</vAcc></extensions></trkpt>
      <trkpt lon="-3.308598" lat="54.556364"><ele>104.173187</ele><time>2021-08-12T12:29:58Z</time><extensions><speed>1.309945</speed><course>40.976086</course><hAcc>0.881718</hAcc><vAcc>0.706824</vAcc></extensions></trkpt>
      <trkpt lon="-3.308605" lat="54.556374"><ele>104.241081</ele><time>2021-08-12T12:29:59Z</time><extensions><speed>1.300436</speed><course>40.718147</course><hAcc>0.881598</hAcc><vAcc>0.706309</vAcc></extensions></trkpt>
      <trkpt lon="-3.308613" lat="54.556385"><ele>104.302704</ele><time>2021-08-12T12:30:00Z</time><extensions><speed>1.290283</speed><course>40.437557</course><hAcc>0.881467</hAcc><vAcc>0.705719</vAcc></extensions></trkpt>
      <trkpt lon="-3.308619" lat="54.556396"><ele>104.357269</ele><time>2021-08-12T12:30:01Z</time><extensions><speed>1.279774</speed><course>38.315979</course><hAcc>0.881330</hAcc><vAcc>0.705091</vAcc></extensions></trkpt>
      <trkpt lon="-3.308625" lat="54.556407"><ele>104.404518</ele><time>2021-08-12T12:30:02Z</time><extensions><speed>1.269255</speed><course>28.668550</course><hAcc>0.881195</hAcc><vAcc>0.704468</vAcc></extensions></trkpt>
      <trkpt lon="-3.308631" lat="54.556418"><ele>104.444595</ele><time>2021-08-12T12:30:03Z</time><extensions><speed>1.258945</speed><course>31.392698</course><hAcc>0.881067</hAcc><vAcc>0.703894</vAcc></extensions></trkpt>
      <trkpt lon="-3.308636" lat="54.556429"><ele>104.477875</ele><time>2021-08-12T12:30:04Z</time><extensions><speed>1.248844</speed><course>32.848076</course><hAcc>0.880951</hAcc><vAcc>0.703406</vAcc></extensions></trkpt>
      <trkpt lon="-3.308640" lat="54.556440"><ele>104.504570</ele><time>2021-08-12T12:30:05Z</time><extensions><speed>1.239156</speed><course>38.096359</course><hAcc>0.880851</hAcc><vAcc>0.703031</vAcc></extensions></trkpt>
      <trkpt lon="-3.308644" lat="54.556451"><ele>104.524933</ele><time>2021-08-12T12:30:06Z</time><extensions><speed>1.230441</speed><course>27.737675</course><hAcc>0.880766</hAcc><vAcc>0.702777</vAcc></extensions></trkpt>
      <trkpt lon="-3.308647" lat="54.556462"><ele>104.539513</ele><time>2021-08-12T12:30:07Z</time><extensions><speed>1.223099</speed><course>38.820049</course><hAcc>0.880695</hAcc><vAcc>0.702629</vAcc></extensions></trkpt>
      <trkpt lon="-3.308650" lat="54.556472"><ele>104.548965</ele><time>2021-08-12T12:30:08Z</time><extensions><speed>1.216788</speed><course>40.137299</course><hAcc>0.880635</hAcc><vAcc>0.702552</vAcc></extensions></trkpt>
      <trkpt lon="-3.308652" lat="54.556483"><ele>104.553810</ele><time>2021-08-12T12:30:09Z</time><extensions><speed>1.211105</speed><course>44.560421</course><hAcc>0.880582</hAcc><vAcc>0.702499</vAcc></extensions></trkpt>
      <trkpt lon="-3.308653" lat="54.556494"><ele>104.554092</ele><time>2021-08-12T12:30:10Z</time><extensions><speed>1.206435</speed><course>41.574787</course><hAcc>0.880532</hAcc><vAcc>0.702423</vAcc></extensions></trkpt>
      <trkpt lon="-3.308655" lat="54.556505"><ele>104.549423</ele><time>2021-08-12T12:30:11Z</time><extensions><speed>1.202929</speed><course>37.402897</course><hAcc>0.880482</hAcc><vAcc>0.702289</vAcc></extensions></trkpt>
      <trkpt lon="-3.308656" lat="54.556516"><ele>104.539421</ele><time>2021-08-12T12:30:12Z</time><extensions><speed>1.200377</speed><course>38.445354</course><hAcc>0.880431</hAcc><vAcc>0.702085</vAcc></extensions></trkpt>
      <trkpt lon="-3.308656" lat="54.556526"><ele>104.523949</ele><time>2021-08-12T12:30:13Z</time><extensions><speed>1.199037</speed><course>32.932274</course><hAcc>0.880382</hAcc><vAcc>0.701824</vAcc></extensions></trkpt>
      <trkpt lon="-3.308657" lat="54.556537"><ele>104.503090</ele><time>2021-08-12T12:30:14Z</time><extensions><speed>1.199622</speed><course>27.701353</course><hAcc>0.880337</hAcc><vAcc>0.701532</vAcc></extensions></trkpt>
      <trkpt lon="-3.308658" lat="54.556548"><ele>104.477287</ele><time>2021-08-12T12:30:15Z</time><extensions><speed>1.202869</speed><course>28.233585</course><hAcc>0.880302</hAcc><vAcc>0.701253</vAcc></extensions></trkpt>
      <trkpt lon="-3.308659" lat="54.556559"><ele>104.447510</ele><time>2021-08-12T12:30:16Z</time><extensions><speed>1.209319</speed><course>30.003765</course><hAcc>0.880283</hAcc><vAcc>0.701042</vAcc></extensions></trkpt>
      <trkpt lon="-3.308661" lat="54.556570"><ele>104.415192</ele><time>2021-08-12T12:30:17Z</time><extensions><speed>1.218995</speed><course>35.586266</course><hAcc>0.880286</hAcc><vAcc>0.700947</vAcc></extensions></trkpt>
      <trkpt lon="-3.308663" lat="54.556581"><ele>104.381905</ele><time>2021-08-12T12:30:18Z</time><extensions><speed>1.231730</speed><course>41.034397</course><hAcc>0.880315</hAcc><vAcc>0.701002</vAcc></extensions></trkpt>
      <trkpt lon="-3.308665" lat="54.556592"><ele>104.349098</ele><time>2021-08-12T12:30:19Z</time><extensions><speed>1.247023</speed><course>43.040592</course><hAcc>0.880374</hAcc><vAcc>0.701219</vAcc></extensions></trkpt>
      <trkpt lon="-3.308669" lat="54.556603"><ele>104.318207</ele><time>2021-08-12T12:30:20Z</time><extensions><speed>1.263966</speed><course>49.550934</course><hAcc>0.880463</hAcc><vAcc>0.701595</vAcc></extensions></trkpt>
      <trkpt lon="-3.308673" lat="54.556614"><ele>104.290955</ele><time>2021-08-12T12:30:21Z</time><extensions><speed>1.281818</speed><course>62.069283</course><hAcc>0.880578</hAcc><vAcc>0.702109</vAcc></extensions></trkpt>
      <trkpt lon="-3.308678" lat="54.556625"><ele>104.269218</ele><time>2021-08-12T12:30:22Z</time><extensions><speed>1.300470</speed><course>68.512573</course><hAcc>0.880717</hAcc><vAcc>0.702727</vAcc></extensions></trkpt>
      <trkpt lon="-3.308683" lat="54.556636"><ele>104.254738</ele><time>2021-08-12T12:30:23Z</time><extensions><speed>1.319741</speed><course>76.544746</course><hAcc>0.880872</hAcc><vAcc>0.703408</vAcc></extensions></trkpt>
      <trkpt lon="-3.308689" lat="54.556648"><ele>104.248772</ele><time>2021-08-12T12:30:24Z</time><extensions><speed>1.338994</speed><course>91.471558</course><hAcc>0.881037</hAcc><vAcc>0.704108</vAcc></extensions></trkpt>
      <trkpt lon="-3.308696" lat="54.556659"><ele>104.252281</ele><time>2021-08-12T12:30:25Z</time><extensions><speed>1.357987</speed><course>103.707001</course><hAcc>0.881206</hAcc><vAcc>0.704792</vAcc></extensions></trkpt>
      <trkpt lon="-3.308704" lat="54.556671"><ele>104.266182</ele><time>2021-08-12T12:30:26Z</time><extensions><speed>1.376330</speed><course>102.240677</course><hAcc>0.881370</hAcc><vAcc>0.705433</vAcc></extensions></trkpt>
      <trkpt lon="-3.308712" lat="54.556682"><ele>104.291313</ele><time>2021-08-12T12:30:27Z</time><extensions><speed>1.393027</speed><course>109.008522</course><hAcc>0.881526</hAcc><vAcc>0.706016</vAcc></extensions></trkpt>
      <trkpt lon="-3.308721" lat="54.556694"><ele>104.328110</ele><time>2021-08-12T12:30:28Z</time><extensions><speed>1.407158</speed><course>120.687057</course><hAcc>0.881669</hAcc><vAcc>0.706537</vAcc></extensions></trkpt>
      <trkpt lon="-3.308730" lat="54.556705"><ele>104.376328</ele><time>2021-08-12T12:30:29Z</time><extensions><speed>1.418549</speed><course>122.518364</course><hAcc>0.881795</hAcc><vAcc>0.706995</vAcc></extensions></trkpt>
      <trkpt lon="-3.308740" lat="54.556717"><ele>104.435318</ele><time>2021-08-12T12:30:30Z</time><extensions><speed>1.427675</speed><course>116.435341</course><hAcc>0.881903</hAcc><vAcc>0.707386</vAcc></extensions></trkpt>
      <trkpt lon="-3.308750" lat="54.556728"><ele>104.504356</ele><time>2021-08-12T12:30:31Z</time><extensions><speed>1.435018</speed><course>123.806564</course><hAcc>0.881995</hAcc><vAcc>0.707708</vAcc></extensions></trkpt>
      <trkpt lon="-3.308760" lat="54.556740"><ele>104.582520</ele><time>2021-08-12T12:30:32Z</time><extensions><speed>1.440702</speed><course>121.279266</course><hAcc>0.882072</hAcc><vAcc>0.707960</vAcc></extensions></trkpt>
      <trkpt lon="-3.308770" lat="54.556751"><ele>104.668457</ele><time>2021-08-12T12:30:33Z</time><extensions><speed>1.444663</speed><course>122.295830</course><hAcc>0.882138</hAcc><vAcc>0.708151</vAcc></extensions></trkpt>
      <trkpt lon="-3.308781" lat="54.556762"><ele>104.760635</ele><time>2021-08-12T12:30:34Z</time><extensions><speed>1.447108</speed><course>116.485687</course><hAcc>0.882196</hAcc><vAcc>0.708292</vAcc></extensions></trkpt>
      <trkpt lon="-3.308792" lat="54.556774"><ele>104.857605</ele><time>2021-08-12T12:30:35Z</time><extensions><speed>1.448799</speed><course>120.837761</course><hAcc>0.882252</hAcc><vAcc>0.708404</vAcc></extensions></trkpt>
      <trkpt lon="-3.308803" lat="54.556785"><ele>104.958138</ele><time>2021-08-12T12:30:36Z</time><extensions><speed>1.450928</speed><course>121.691162</course><hAcc>0.882311</hAcc><vAcc>0.708517</vAcc></extensions></trkpt>
      <trkpt lon="-3.308814" lat="54.556796"><ele>105.061264</ele><time>2021-08-12T12:30:37Z</time><extensions><speed>1.454166</speed><course>120.429344</course><hAcc>0.882377</hAcc><vAcc>0.708663</vAcc></extensions></trkpt>
      <trkpt lon="-3.308825" lat="54.556808"><ele>105.166367</ele><time>2021-08-12T12:30:38Z</time><extensions><speed>1.458894</speed><course>127.922836</course><hAcc>0.882455</hAcc><vAcc>0.708877</vAcc></extensions></trkpt>
      <trkpt lon="-3.308837" lat="54.556819"><ele>105.273071</ele><time>2021-08-12T12:30:39Z</time><extensions><speed>1.465512</speed><course>122.773224</course><hAcc>0.882546</hAcc><vAcc>0.709183</vAcc></extensions></trkpt>
      <trkpt lon="-3.308849" lat="54.556830"><ele>105.381035</ele><time>2021-08-12T12:30:40Z</time><extensions><speed>1.473712</speed><course>127.410233</course><hAcc>0.882654</hAcc><vAcc>0.709595</vAcc></extensions></trkpt>
      <trkpt lon="-3.308862" lat="54.556841"><ele>105.489601</ele><time>2021-08-12T12:30:41Z</time><extensions><speed>1.482248</speed><course>126.293243</course><hAcc>0.882776</hAcc><vAcc>0.710105</vAcc></extensions></trkpt>
      <trkpt lon="-3.308875" lat="54.556852"><ele>105.597885</ele><time>2021-08-12T12:30:42Z</time><extensions><speed>1.489605</speed><course>113.773628</course><hAcc>0.882913</hAcc><vAcc>0.710694</vAcc></extensions></trkpt>
      <trkpt lon="-3.308888" lat="54.556863"><ele>105.705154</ele><time>2021-08-12T12:30:43Z</time><extensions><speed>1.494694</speed><course>111.597641</course><hAcc>0.883061</hAcc><vAcc>0.711327</vAcc></extensions></trkpt>
      <trkpt lon="-3.308902" lat="54.556874"><ele>105.810799</ele><time>2021-08-12T12:30:44Z</time><extensions><speed>1.497270</speed><course>118.242065</course><hAcc>0.883215</hAcc><vAcc>0.711973</vAcc></extensions></trkpt>
      <trkpt lon="-3.308916" lat="54.556885"><ele>105.914017</ele><time>2021-08-12T12:30:45Z</time><extensions><speed>1.497511</speed><course>121.318916</course><hAcc>0.883371</hAcc><vAcc>0.712605</vAcc></extensions></trkpt>
      <trkpt lon="-3.308930" lat="54.556895"><ele>106.013908</ele><time>2021-08-12T12:30:46Z</time><extensions><speed>1.495332</speed><course>126.571838</course><hAcc>0.883524</hAcc><vAcc>0.713207</vAcc></extensions></trkpt>
      <trkpt lon="-3.308945" lat="54.556906"><ele>106.109550</ele><time>2021-08-12T12:30:47Z</time><extensions><speed>1.490645</speed><course>116.053932</course><hAcc>0.883667</hAcc><vAcc>0.713766</vAcc></extensions></trkpt>
      <trkpt lon="-3.308959" lat="54.556916"><ele>106.200012</ele><time>2021-08-12T12:30:48Z</time><extensions><speed>1.483587</speed><course>122.553452</course><hAcc>0.883797</hAcc><vAcc>0.714269</vAcc></extensions></trkpt>
      <trkpt lon="-3.308973" lat="54.556927"><ele>106.284653</ele><time>2021-08-12T12:30:49Z</time><extensions><speed>1.474021</speed><course>115.362396</course><hAcc>0.883910</hAcc><vAcc>0.714703</vAcc></extensions></trkpt>
      <trkpt lon="-3.308987" lat="54.556937"><ele>106.363464</ele><time>2021-08-12T12:30:50Z</time><extensions><speed>1.461658</speed><course>120.016403</course><hAcc>0.884003</hAcc><vAcc>0.715058</vAcc></extensions></trkpt>
      <trkpt lon="-3.309000" lat="54.556948"><ele>106.436737</ele><time>2021-08-12T12:30:51Z</time><extensions><speed>1.447038</speed><course>131.521149</course><hAcc>0.884074</hAcc><vAcc>0.715327</vAcc></extensions></trkpt>
      <trkpt lon="-3.309013" lat="54.556958"><ele>106.504684</ele><time>2021-08-12T12:30:52Z</time><extensions><speed>1.431074</speed><course>124.976143</course><hAcc>0.884124</hAcc><vAcc>0.715502</vAcc></extensions></trkpt>
      <trkpt lon="-3.309025" lat="54.556969"><ele>106.567467</ele><time>2021-08-12T12:30:53Z</time><extensions><speed>1.414664</speed><course>123.546791</course><hAcc>0.884151</hAcc><vAcc>0.715581</vAcc></extensions></trkpt>
      <trkpt lon="-3.309037" lat="54.556980"><ele>106.625534</ele><time>2021-08-12T12:30:54Z</time><extensions><speed>1.399401</speed><course>116.699699</course><hAcc>0.884158</hAcc><vAcc>0.715564</vAcc></extensions></trkpt>
      <trkpt lon="-3.309047" lat="54.556990"><ele>106.679733</ele><time>2021-08-12T12:30:55Z</time><extensions><speed>1.386729</speed><course>112.924561</course><hAcc>0.884146</hAcc><vAcc>0.715458</vAcc></extensions></trkpt>
      <trkpt lon="-3.309057" lat="54.557002"><ele>106.730698</ele><time>2021-08-12T12:30:56Z</time><extensions><speed>1.377191</speed><course>117.858780</course><hAcc>0.884116</hAcc><vAcc>0.715273</vAcc></extensions></trkpt>
      <trkpt lon="-3.309066" lat="54.557013"><ele>106.778374</ele><time>2021-08-12T12:30:57Z</time><extensions><speed>1.370576</speed><course>111.630035</course><hAcc>0.884070</hAcc><vAcc>0.715029</vAcc></extensions></trkpt>
      <trkpt lon="-3.309074" lat="54.557024"><ele>106.822060</ele><time>2021-08-12T12:30:58Z</time><extensions><speed>1.365841</speed><course>115.453979</course><hAcc>0.884010</hAcc><vAcc>0.714740</vAcc></extensions></trkpt>
      <trkpt lon="-3.309081" lat="54.557036"><ele>106.860519</ele><time>2021-08-12T12:31:00Z</time><extensions><speed>1.361793</speed><course>108.625862</course><hAcc>0.883918</hAcc><vAcc>0.714407</vAcc></extensions></trkpt>
      <trkpt lon="-3.309088" lat="54.557047"><ele>106.892082</ele><time>2021-08-12T12:31:01Z</time><extensions><speed>1.357567</speed><course>116.435417</course><hAcc>0.883796</hAcc><vAcc>0.714034</vAcc></extensions></trkpt>
      <trkpt lon="-3.309094" lat="54.557059"><ele>106.915161</ele><time>2021-08-12T12:31:02Z</time><extensions><speed>1.352635</speed><course>112.323517</course><hAcc>0.883662</hAcc><vAcc>0.713630</vAcc></extensions></trkpt>
      <trkpt lon="-3.309099" lat="54.557071"><ele>106.928429</ele><time>2021-08-12T12:31:03Z</time><extensions><speed>1.346518</speed><course>117.491661</course><hAcc>0.883517</hAcc><vAcc>0.713180</vAcc></extensions></trkpt>
      <trkpt lon="-3.309104" lat="54.557082"><ele>106.930862</ele><time>2021-08-12T12:31:04Z</time><extensions><speed>1.338967</speed><course>120.293846</course><hAcc>0.883362</hAcc><vAcc>0.712671</vAcc></extensions></trkpt>
      <trkpt lon="-3.309107" lat="54.557094"><ele>106.921486</ele><time>2021-08-12T12:31:05Z</time><extensions><speed>1.330250</speed><course>115.591873</course><hAcc>0.883199</hAcc><vAcc>0.712097</vAcc></extensions></trkpt>
      <trkpt lon="-3.309111" lat="54.557106"><ele>106.899338</ele><time>2021-08-12T12:31:06Z</time><extensions><speed>1.320863</speed><course>116.468712</course><hAcc>0.883031</hAcc><vAcc>0.711461</vAcc></extensions></trkpt>
      <trkpt lon="-3.309113" lat="54.557118"><ele>106.863556</ele><time>2021-08-12T12:31:07Z</time><extensions><speed>1.311457</speed><course>116.627220</course><hAcc>0.882858</hAcc><vAcc>0.710780</vAcc></extensions></trkpt>
      <trkpt lon="-3.309115" lat="54.557129"><ele>106.813377</ele><time>2021-08-12T12:31:08Z</time><extensions><speed>1.302526</speed><course>115.487846</course><hAcc>0.882684</hAcc><vAcc>0.710082</vAcc></extensions></trkpt>
      <trkpt lon="-3.309115" lat="54.557141"><ele>106.748238</ele><time>2021-08-12T12:31:09Z</time><extensions><speed>1.294050</speed><course>110.303284</course><hAcc>0.882510</hAcc><vAcc>0.709401</vAcc></extensions></trkpt>
      <trkpt lon="-3.309116" lat="54.557153"><ele>106.667908</ele><time>2021-08-12T12:31:09Z</time><extensions><speed>1.285488</speed><course>107.900200</course><hAcc>0.882357</hAcc><vAcc>0.708781</vAcc></extensions></trkpt>
      <trkpt lon="-3.309115" lat="54.557164"><ele>106.572136</ele><time>2021-08-12T12:31:10Z</time><extensions><speed>1.275968</speed><course>104.901772</course><hAcc>0.882226</hAcc><vAcc>0.708242</vAcc></extensions></trkpt>
      <trkpt lon="-3.309115" lat="54.557175"><ele>106.460938</ele><time>2021-08-12T12:31:11Z</time><extensions><speed>1.264969</speed><course>102.625549</course><hAcc>0.882101</hAcc><vAcc>0.707776</vAcc></extensions></trkpt>
      <trkpt lon="-3.309113" lat="54.557187"><ele>106.334518</ele><time>2021-08-12T12:31:12Z</time><extensions><speed>1.252981</speed><course>101.615082</course><hAcc>0.881983</hAcc><vAcc>0.707370</vAcc></extensions></trkpt>
      <trkpt lon="-3.309111" lat="54.557198"><ele>106.193741</ele><time>2021-08-12T12:31:13Z</time><extensions><speed>1.240892</speed><course>104.820312</course><hAcc>0.881873</hAcc><vAcc>0.707005</vAcc></extensions></trkpt>
      <trkpt lon="-3.309109" lat="54.557209"><ele>106.039970</ele><time>2021-08-12T12:31:14Z</time><extensions><speed>1.229512</speed><course>97.837166</course><hAcc>0.881769</hAcc><vAcc>0.706662</vAcc></extensions></trkpt>
      <trkpt lon="-3.309106" lat="54.557220"><ele>105.874466</ele><time>2021-08-12T12:31:15Z</time><extensions><speed>1.219289</speed><course>99.518051</course><hAcc>0.881669</hAcc><vAcc>0.706329</vAcc></extensions></trkpt>
      <trkpt lon="-3.309103" lat="54.557231"><ele>105.698044</ele><time>2021-08-12T12:31:16Z</time><extensions><speed>1.210197</speed><course>105.468117</course><hAcc>0.881571</hAcc><vAcc>0.705999</vAcc></extensions></trkpt>
      <trkpt lon="-3.309100" lat="54.557241"><ele>105.511681</ele><time>2021-08-12T12:31:17Z</time><extensions><speed>1.202185</speed><course>105.021729</course><hAcc>0.881473</hAcc><vAcc>0.705663</vAcc></extensions></trkpt>
      <trkpt lon="-3.309097" lat="54.557252"><ele>105.317299</ele><time>2021-08-12T12:31:18Z</time><extensions><speed>1.195240</speed><course>105.854553</course><hAcc>0.881374</hAcc><vAcc>0.705318</vAcc></extensions></trkpt>
      <trkpt lon="-3.309095" lat="54.557263"><ele>105.117783</ele><time>2021-08-12T12:31:19Z</time><extensions><speed>1.189018</speed><course>116.038353</course><hAcc>0.881272</hAcc><vAcc>0.704962</vAcc></extensions></trkpt>
      <trkpt lon="-3.309093" lat="54.557273"><ele>104.916382</ele><time>2021-08-12T12:31:20Z</time><extensions><speed>1.182769</speed><course>116.622620</course><hAcc>0.881168</hAcc><vAcc>0.704593</vAcc></extensions></trkpt>
      <trkpt lon="-3.309091" lat="54.557284"><ele>104.716202</ele><time>2021-08-12T12:31:21Z</time><extensions><speed>1.176870</speed><course>116.023415</course><hAcc>0.881064</hAcc><vAcc>0.704207</vAcc></extensions></trkpt>
      <trkpt lon="-3.309090" lat="54.557294"><ele>104.519943</ele><time>2021-08-12T12:31:22Z</time><extensions><speed>1.172447</speed><course>111.053482</course><hAcc>0.880962</hAcc><vAcc>0.703803</vAcc></extensions></trkpt>
      <trkpt lon="-3.309090" lat="54.557305"><ele>104.329994</ele><time>2021-08-12T12:31:23Z</time><extensions><speed>1.170116</speed><course>109.683617</course><hAcc>0.880865</hAcc><vAcc>0.703392</vAcc></extensions></trkpt>
      <trkpt lon="-3.309091" lat="54.557315"><ele>104.148544</ele><time>2021-08-12T12:31:24Z</time><extensions><speed>1.170480</speed><course>107.838440</course><hAcc>0.880779</hAcc><vAcc>0.702998</vAcc></extensions></trkpt>
      <trkpt lon="-3.309093" lat="54.557326"><ele>103.977463</ele><time>2021-08-12T12:31:25Z</time><extensions><speed>1.174148</speed><course>110.196930</course><hAcc>0.880707</hAcc><vAcc>0.702649</vAcc></extensions></trkpt>
      <trkpt lon="-3.309096" lat="54.557336"><ele>103.818230</ele><time>2021-08-12T12:31:26Z</time><extensions><speed>1.181264</speed><course>111.548782</course><hAcc>0.880656</hAcc><vAcc>0.702376</vAcc></extensions></trkpt>
      <trkpt lon="-3.309100" lat="54.557347"><ele>103.671928</ele><time>2021-08-12T12:31:27Z</time><extensions><speed>1.191285</speed><course>110.420074</course><hAcc>0.880629</hAcc><vAcc>0.702209</vAcc></extensions></trkpt>
      <trkpt lon="-3.309105" lat="54.557357"><ele>103.538879</ele><time>2021-08-12T12:31:28Z</time><extensions><speed>1.203396</speed><course>99.619576</course><hAcc>0.880631</hAcc><vAcc>0.702170</vAcc></extensions></trkpt>
      <trkpt lon="-3.309110" lat="54.557367"><ele>103.418663</ele><time>2021-08-12T12:31:29Z</time><extensions><speed>1.216837</speed><course>107.102882</course><hAcc>0.880662</hAcc><vAcc>0.702273</vAcc></extensions></trkpt>
      <trkpt lon="-3.309117" lat="54.557377"><ele>103.310364</ele><time>2021-08-12T12:31:30Z</time><extensions><speed>1.231271</speed><course>98.831825</course><hAcc>0.880724</hAcc><vAcc>0.702521</vAcc></extensions></trkpt>
      <trkpt lon="-3.309125" lat="54.557388"><ele>103.212967</ele><time>2021-08-12T12:31:31Z</time><extensions><speed>1.246226</speed><course>99.864403</course><hAcc>0.880813</hAcc><vAcc>0.702907</vAcc></extensions></trkpt>
      <trkpt lon="-3.309134" lat="54.557398"><ele>103.125748</ele><time>2021-08-12T12:31:32Z</time><extensions><speed>1.260525</speed><course>99.165215</course><hAcc>0.880927</hAcc><vAcc>0.703410</vAcc></extensions></trkpt>
      <trkpt lon="-3.309143" lat="54.557408"><ele>103.048676</ele><time>2021-08-12T12:31:33Z</time><extensions><speed>1.272961</speed><course>106.876038</course><hAcc>0.881058</hAcc><vAcc>0.703998</vAcc></extensions></trkpt>
      <trkpt lon="-3.309153" lat="54.557418"><ele>102.982445</ele><time>2021-08-12T12:31:34Z</time><extensions><speed>1.282441</speed><course>100.224144</course><hAcc>0.881201</hAcc><vAcc>0.704632</vAcc></extensions></trkpt>
      <trkpt lon="-3.309163" lat="54.557428"><ele>102.927986</ele><time>2021-08-12T12:31:35Z</time><extensions><speed>1.288190</speed><course>97.870438</course><hAcc>0.881346</hAcc><vAcc>0.705272</vAcc></extensions></trkpt>
      <trkpt lon="-3.309173" lat="54.557437"><ele>102.886154</ele><time>2021-08-12T12:31:36Z</time><extensions><speed>1.289890</speed><course>109.047302</course><hAcc>0.881488</hAcc><vAcc>0.705881</vAcc></extensions></trkpt>
      <trkpt lon="-3.309184" lat="54.557447"><ele>102.857445</ele><time>2021-08-12T12:31:37Z</time><extensions><speed>1.287661</speed><course>111.386711</course><hAcc>0.881619</hAcc><vAcc>0.706428</vAcc></extensions></trkpt>
      <trkpt lon="-3.309194" lat="54.557457"><ele>102.841637</ele><time>2021-08-12T12:31:38Z</time><extensions><speed>1.281726</speed><course>110.131767</course><hAcc>0.881733</hAcc><vAcc>0.706885</vAcc></extensions></trkpt>
      <trkpt lon="-3.309204" lat="54.557467"><ele>102.837852</ele><time>2021-08-12T12:31:39Z</time><extensions><speed>1.272335</speed><course>109.748413</course><hAcc>0.881827</hAcc><vAcc>0.707238</vAcc></extensions></trkpt>
      <trkpt lon="-3.309214" lat="54.557477"><ele>102.844933</ele><time>2021-08-12T12:31:40Z</time><extensions><speed>1.260008</speed><course>116.453705</course><hAcc>0.881899</hAcc><vAcc>0.707480</vAcc></extensions></trkpt>
      <trkpt lon="-3.309223" lat="54.557487"><ele>102.861633</ele><time>2021-08-12T12:31:41Z</time><extensions><speed>1.245422</speed><course>111.019348</course><hAcc>0.881947</hAcc><vAcc>0.707615</vAcc></extensions></trkpt>
      <trkpt lon="-3.309232" lat="54.557497"><ele>102.886459</ele><time>2021-08-12T12:31:42Z</time><extensions><speed>1.229749</speed><course>106.996025</course><hAcc>0.881972</hAcc><vAcc>0.707651</vAcc></extensions></trkpt>
      <trkpt lon="-3.309240" lat="54.557507"><ele>102.917511</ele><time>2021-08-12T12:31:43Z</time><extensions><speed>1.214465</speed><course>104.594215</course><hAcc>0.881978</hAcc><vAcc>0.707603</vAcc></extensions></trkpt>
      <trkpt lon="-3.309248" lat="54.557516"><ele>102.952835</ele><time>2021-08-12T12:31:44Z</time><extensions><speed>1.200709</speed><course>101.351479</course><hAcc>0.881967</hAcc><vAcc>0.707491</vAcc></extensions></trkpt>
      <trkpt lon="-3.309256" lat="54.557526"><ele>102.990822</ele><time>2021-08-12T12:31:45Z</time><extensions><speed>1.189083</speed><course>105.952332</course><hAcc>0.881943</hAcc><vAcc>0.707339</vAcc></extensions></trkpt>
      <trkpt lon="-3.309263" lat="54.557536"><ele>103.030342</ele><time>2021-08-12T12:31:46Z</time><extensions><speed>1.179843</speed><course>113.138412</course><hAcc>0.881910</hAcc><vAcc>0.707170</vAcc></extensions></trkpt>
      <trkpt lon="-3.309270" lat="54.557546"><ele>103.070724</ele><time>2021-08-12T12:31:47Z</time><extensions><speed>1.173158</speed><course>112.944946</course><hAcc>0.881873</hAcc><vAcc>0.707003</vAcc></extensions></trkpt>
      <trkpt lon="-3.309276" lat="54.557556"><ele>103.111496</ele><time>2021-08-12T12:31:48Z</time><extensions><speed>1.168506</speed><course>108.292221</course><hAcc>0.881834</hAcc><vAcc>0.706851</vAcc></extensions></trkpt>
      <trkpt lon="-3.309283" lat="54.557565"><ele>103.152176</ele><time>2021-08-12T12:31:49Z</time><extensions><speed>1.165193</speed><course>108.436562</course><hAcc>0.881798</hAcc><vAcc>0.706722</vAcc></extensions></trkpt>
      <trkpt lon="-3.309290" lat="54.557575"><ele>103.192162</ele><time>2021-08-12T12:31:50Z</time><extensions><speed>1.162787</speed><course>102.445824</course><hAcc>0.881768</hAcc><vAcc>0.706614</vAcc></extensions></trkpt>
      <trkpt lon="-3.309296" lat="54.557585"><ele>103.230705</ele><time>2021-08-12T12:31:51Z</time><extensions><speed>1.160817</speed><course>99.628555</course><hAcc>0.881747</hAcc><vAcc>0.706527</vAcc></extensions></trkpt>
      <trkpt lon="-3.309302" lat="54.557594"><ele>103.266884</ele><time>2021-08-12T12:31:52Z</time><extensions><speed>1.159399</speed><course>103.656601</course><hAcc>0.881738</hAcc><vAcc>0.706463</vAcc></extensions></trkpt>
      <trkpt lon="-3.309309" lat="54.557604"><ele>103.300095</ele><time>2021-08-12T12:31:53Z</time><extensions><speed>1.158865</speed><course>97.309608</course><hAcc>0.881742</hAcc><vAcc>0.706431</vAcc></extensions></trkpt>
      <trkpt lon="-3.309316" lat="54.557614"><ele>103.330589</ele><time>2021-08-12T12:31:54Z</time><extensions><speed>1.159004</speed><course>95.308922</course><hAcc>0.881761</hAcc><vAcc>0.706448</vAcc></extensions></trkpt>
      <trkpt lon="-3.309322" lat="54.557623"><ele>103.359238</ele><time>2021-08-12T12:31:55Z</time><extensions><speed>1.159087</speed><course>105.665154</course><hAcc>0.881794</hAcc><vAcc>0.706535</vAcc></extensions></trkpt>
      <trkpt lon="-3.309330" lat="54.557633"><ele>103.386894</ele><time>2021-08-12T12:31:56Z</time><extensions><speed>1.158789</speed><course>120.238884</course><hAcc>0.881841</hAcc><vAcc>0.706706</vAcc></extensions></trkpt>
      <trkpt lon="-3.309337" lat="54.557643"><ele>103.413902</ele><time>2021-08-12T12:31:57Z</time><extensions><speed>1.158321</speed><course>108.474937</course><hAcc>0.881898</hAcc><vAcc>0.706960</vAcc></extensions></trkpt>
      <trkpt lon="-3.309344" lat="54.557652"><ele>103.440186</ele><time>2021-08-12T12:31:58Z</time><extensions><speed>1.157528</speed><course>104.059807</course><hAcc>0.881962</hAcc><vAcc>0.707279</vAcc></extensions></trkpt>
      <trkpt lon="-3.309352" lat="54.557661"><ele>103.465630</ele><time>2021-08-12T12:31:59Z</time><extensions><speed>1.155487</speed><course>102.572708</course><hAcc>0.882027</hAcc><vAcc>0.707629</vAcc></extensions></trkpt>
      <trkpt lon="-3.309359" lat="54.557671"><ele>103.490318</ele><time>2021-08-12T12:32:00Z</time><extensions><speed>1.151141</speed><course>107.161850</course><hAcc>0.882087</hAcc><vAcc>0.707973</vAcc></extensions></trkpt>
      <trkpt lon="-3.309366" lat="54.557680"><ele>103.514221</ele><time>2021-08-12T12:32:01Z</time><extensions><speed>1.143815</speed><course>105.046165</course><hAcc>0.882135</hAcc><vAcc>0.708269</vAcc></extensions></trkpt>
      <trkpt lon="-3.309374" lat="54.557690"><ele>103.536987</ele><time>2021-08-12T12:32:02Z</time><extensions><speed>1.132865</speed><course>107.406158</course><hAcc>0.882164</hAcc><vAcc>0.708482</vAcc></extensions></trkpt>
      <trkpt lon="-3.309380" lat="54.557699"><ele>103.557945</ele><time>2021-08-12T12:32:03Z</time><extensions><speed>1.118464</speed><course>115.429123</course><hAcc>0.882169</hAcc><vAcc>0.708578</vAcc></extensions></trkpt>
      <trkpt lon="-3.309387" lat="54.557708"><ele>103.576149</ele><time>2021-08-12T12:32:04Z</time><extensions><speed>1.101667</speed><course>116.147835</course><hAcc>0.882145</hAcc><vAcc>0.708532</vAcc></extensions></trkpt>
      <trkpt lon="-3.309392" lat="54.557717"><ele>103.590721</ele><time>2021-08-12T12:32:05Z</time><extensions><speed>1.083518</speed><course>117.699570</course><hAcc>0.882088</hAcc><vAcc>0.708329</vAcc></extensions></trkpt>
      <trkpt lon="-3.309397" lat="54.557727"><ele>103.601082</ele><time>2021-08-12T12:32:06Z</time><extensions><speed>1.065201</speed><course>118.218575</course><hAcc>0.881999</hAcc><vAcc>0.707972</vAcc></extensions></trkpt>
      <trkpt lon="-3.309401" lat="54.557736"><ele>103.606781</ele><time>2021-08-12T12:32:07Z</time><extensions><speed>1.048112</speed><course>118.864105</course><hAcc>0.881876</hAcc><vAcc>0.707471</vAcc></extensions></trkpt>
      <trkpt lon="-3.309404" lat="54.557745"><ele>103.607033</ele><time>2021-08-12T12:32:08Z</time><extensions><speed>1.033772</speed><course>117.180046</course><hAcc>0.881724</hAcc><vAcc>0.706845</vAcc></extensions></trkpt>
      <trkpt lon="-3.309407" lat="54.557754"><ele>103.601135</ele><time>2021-08-12T12:32:09Z</time><extensions><speed>1.023267</speed><course>115.856689</course><hAcc>0.881546</hAcc><vAcc>0.706120</vAcc></extensions></trkpt>
      <trkpt lon="-3.309408" lat="54.557763"><ele>103.588730</ele><time>2021-08-12T12:32:10Z</time><extensions><speed>1.016438</speed><course>112.617844</course><hAcc>0.881348</hAcc><vAcc>0.705321</vAcc></extensions></trkpt>
      <trkpt lon="-3.309409" lat="54.557772"><ele>103.569450</ele><time>2021-08-12T12:32:11Z</time><extensions><speed>1.012419</speed><course>120.157761</course><hAcc>0.881137</hAcc><vAcc>0.704478</vAcc></extensions></trkpt>
      <trkpt lon="-3.309409" lat="54.557781"><ele>103.543030</ele><time>2021-08-12T12:32:12Z</time><extensions><speed>1.010673</speed><course>116.743965</course><hAcc>0.880921</hAcc><vAcc>0.703618</vAcc></extensions></trkpt>
      <trkpt lon="-3.309409" lat="54.557791"><ele>103.509872</ele><time>2021-08-12T12:32:13Z</time><extensions><speed>1.010510</speed><course>126.528450</course><hAcc>0.880709</hAcc><vAcc>0.702770</vAcc></extensions></trkpt>
      <trkpt lon="-3.309409" lat="54.557800"><ele>103.470970</ele><time>2021-08-12T12:32:14Z</time><extensions><speed>1.011324</speed><course>122.809067</course><hAcc>0.880509</hAcc><vAcc>0.701961</vAcc></extensions></trkpt>
      <trkpt lon="-3.309408" lat="54.557809"><ele>103.427711</ele><time>2021-08-12T12:32:15Z</time><extensions><speed>1.012830</speed><course>118.437454</course><hAcc>0.880329</hAcc><vAcc>0.701223</vAcc></extensions></trkpt>
      <trkpt lon="-3.309408" lat="54.557818"><ele>103.381638</ele><time>2021-08-12T12:32:16Z</time><extensions><speed>1.014332</speed><course>113.862648</course><hAcc>0.880176</hAcc><vAcc>0.700591</vAcc></extensions></trkpt>
      <trkpt lon="-3.309407" lat="54.557827"><ele>103.334099</ele><time>2021-08-12T12:32:17Z</time><extensions><speed>1.015610</speed><course>110.315605</course><hAcc>0.880057</hAcc><vAcc>0.700095</vAcc></extensions></trkpt>
      <trkpt lon="-3.309407" lat="54.557836"><ele>103.286385</ele><time>2021-08-12T12:32:18Z</time><extensions><speed>1.017241</speed><course>111.526596</course><hAcc>0.879976</hAcc><vAcc>0.699759</vAcc></extensions></trkpt>
      <trkpt lon="-3.309407" lat="54.557845"><ele>103.239769</ele><time>2021-08-12T12:32:19Z</time><extensions><speed>1.020037</speed><course>111.825790</course><hAcc>0.879936</hAcc><vAcc>0.699597</vAcc></extensions></trkpt>
      <trkpt lon="-3.309408" lat="54.557854"><ele>103.195091</ele><time>2021-08-12T12:32:20Z</time><extensions><speed>1.024859</speed><course>110.069481</course><hAcc>0.879937</hAcc><vAcc>0.699614</vAcc></extensions></trkpt>
      <trkpt lon="-3.309409" lat="54.557864"><ele>103.152206</ele><time>2021-08-12T12:32:21Z</time><extensions><speed>1.032286</speed><course>114.632622</course><hAcc>0.879978</hAcc><vAcc>0.699809</vAcc></extensions></trkpt>
      <trkpt lon="-3.309412" lat="54.557873"><ele>103.109886</ele><time>2021-08-12T12:32:22Z</time><extensions><speed>1.041843</speed><course>103.253258</course><hAcc>0.880053</hAcc><vAcc>0.700166</vAcc></extensions></trkpt>
      <trkpt lon="-3.309415" lat="54.557882"><ele>103.066162</ele><time>2021-08-12T12:32:23Z</time><extensions><speed>1.052269</speed><course>106.301743</course><hAcc>0.880157</hAcc><vAcc>0.700658</vAcc></extensions></trkpt>
      <trkpt lon="-3.309418" lat="54.557891"><ele>103.018402</ele><time>2021-08-12T12:32:24Z</time><extensions><speed>1.062290</speed><course>102.376541</course><hAcc>0.880282</hAcc><vAcc>0.701244</vAcc></extensions></trkpt>
      <trkpt lon="-3.309423" lat="54.557900"><ele>102.963844</ele><time>2021-08-12T12:32:25Z</time><extensions><speed>1.070369</speed><course>106.795837</course><hAcc>0.880420</hAcc><vAcc>0.701874</vAcc></extensions></trkpt>
      <trkpt lon="-3.309429" lat="54.557910"><ele>102.900627</ele><time>2021-08-12T12:32:26Z</time><extensions><speed>1.075105</speed><course>105.416672</course><hAcc>0.880560</hAcc><vAcc>0.702497</vAcc></extensions></trkpt>
      <trkpt lon="-3.309434" lat="54.557919"><ele>102.828430</ele><time>2021-08-12T12:32:27Z</time><extensions><speed>1.075528</speed><course>115.994911</course><hAcc>0.880695</hAcc><vAcc>0.703068</vAcc></extensions></trkpt>
      <trkpt lon="-3.309441" lat="54.557927"><ele>102.748558</ele><time>2021-08-12T12:32:28Z</time><extensions><speed>1.071252</speed><course>121.956070</course><hAcc>0.880818</hAcc><vAcc>0.703560</vAcc></extensions></trkpt>
      <trkpt lon="-3.309447" lat="54.557936"><ele>102.663338</ele><time>2021-08-12T12:32:29Z</time><extensions><speed>1.062620</speed><course>114.918808</course><hAcc>0.880923</hAcc><vAcc>0.703955</vAcc></extensions></trkpt>
      <trkpt lon="-3.309454" lat="54.557945"><ele>102.575333</ele><time>2021-08-12T12:32:30Z</time><extensions><speed>1.050877</speed><course>112.952827</course><hAcc>0.881007</hAcc><vAcc>0.704245</vAcc></extensions></trkpt>
      <trkpt lon="-3.309461" lat="54.557953"><ele>102.486931</ele><time>2021-08-12T12:32:31Z</time><extensions><speed>1.037588</speed><course>108.521141</course><hAcc>0.881069</hAcc><vAcc>0.704430</vAcc></extensions></trkpt>
      <trkpt lon="-3.309468" lat="54.557962"><ele>102.400307</ele><time>2021-08-12T12:32:32Z</time><extensions><speed>1.023779</speed><course>105.023331</course><hAcc>0.881107</hAcc><vAcc>0.704516</vAcc></extensions></trkpt>
      <trkpt lon="-3.309474" lat="54.557970"><ele>102.317413</ele><time>2021-08-12T12:32:33Z</time><extensions><speed>1.010230</speed><course>98.270523</course><hAcc>0.881125</hAcc><vAcc>0.704518</vAcc></extensions></trkpt>
      <trkpt lon="-3.309480" lat="54.557978"><ele>102.239792</ele><time>2021-08-12T12:32:34Z</time><extensions><speed>0.997272</speed><course>104.555389</course><hAcc>0.881123</hAcc><vAcc>0.704453</vAcc></extensions></trkpt>
      <trkpt lon="-3.309486" lat="54.557987"><ele>102.168449</ele><time>2021-08-12T12:32:35Z</time><extensions><speed>0.985232</speed><course>108.798698</course><hAcc>0.881105</hAcc><vAcc>0.704339</vAcc></extensions></trkpt>
      <trkpt lon="-3.309492" lat="54.557995"><ele>102.103783</ele><time>2021-08-12T12:32:36Z</time><extensions><speed>0.974452</speed><course>107.953148</course><hAcc>0.881073</hAcc><vAcc>0.704193</vAcc></extensions></trkpt>
      <trkpt lon="-3.309498" lat="54.558003"><ele>102.045685</ele><time>2021-08-12T12:32:37Z</time><extensions><speed>0.965018</speed><course>107.561462</course><hAcc>0.881030</hAcc><vAcc>0.704024</vAcc></extensions></trkpt>
      <trkpt lon="-3.309503" lat="54.558011"><ele>101.993668</ele><time>2021-08-12T12:32:38Z</time><extensions><speed>0.957197</speed><course>98.600151</course><hAcc>0.880978</hAcc><vAcc>0.703838</vAcc></extensions></trkpt>
      <trkpt lon="-3.309508" lat="54.558019"><ele>101.946770</ele><time>2021-08-12T12:32:39Z</time><extensions><speed>0.951252</speed><course>106.179245</course><hAcc>0.880919</hAcc><vAcc>0.703633</vAcc></extensions></trkpt>
      <trkpt lon="-3.309513" lat="54.558027"><ele>101.903542</ele><time>2021-08-12T12:32:40Z</time><extensions><speed>0.947843</speed><course>99.736237</course><hAcc>0.880853</hAcc><vAcc>0.703409</vAcc></extensions></trkpt>
      <trkpt lon="-3.309517" lat="54.558035"><ele>101.862587</ele><time>2021-08-12T12:32:41Z</time><extensions><speed>0.947830</speed><course>102.027924</course><hAcc>0.880782</hAcc><vAcc>0.703165</vAcc></extensions></trkpt>
      <trkpt lon="-3.309521" lat="54.558043"><ele>101.822784</ele><time>2021-08-12T12:32:42Z</time><extensions><speed>0.951333</speed><course>94.072990</course><hAcc>0.880708</hAcc><vAcc>0.702899</vAcc></extensions></trkpt>
      <trkpt lon="-3.309525" lat="54.558052"><ele>101.783302</ele><time>2021-08-12T12:32:43Z</time><extensions><speed>0.958118</speed><course>96.463219</course><hAcc>0.880630</hAcc><vAcc>0.702612</vAcc></extensions></trkpt>
      <trkpt lon="-3.309529" lat="54.558060"><ele>101.744125</ele><time>2021-08-12T12:32:44Z</time><extensions><speed>0.968285</speed><course>96.928070</course><hAcc>0.880550</hAcc><vAcc>0.702307</vAcc></extensions></trkpt>
      <trkpt lon="-3.309532" lat="54.558069"><ele>101.706886</ele><time>2021-08-12T12:32:45Z</time><extensions><speed>0.982178</speed><course>85.766655</course><hAcc>0.880471</hAcc><vAcc>0.701990</vAcc></extensions></trkpt>
      <trkpt lon="-3.309535" lat="54.558077"><ele>101.674751</ele><time>2021-08-12T12:32:46Z</time><extensions><speed>0.999977</speed><course>93.944389</course><hAcc>0.880393</hAcc><vAcc>0.701673</vAcc></extensions></trkpt>
      <trkpt lon="-3.309538" lat="54.558086"><ele>101.651421</ele><time>2021-08-12T12:32:47Z</time><extensions><speed>1.021940</speed><course>96.280258</course><hAcc>0.880320</hAcc><vAcc>0.701371</vAcc></extensions></trkpt>
      <trkpt lon="-3.309541" lat="54.558095"><ele>101.640160</ele><time>2021-08-12T12:32:48Z</time><extensions><speed>1.048203</speed><course>103.229439</course><hAcc>0.880254</hAcc><vAcc>0.701096</vAcc></extensions></trkpt>
      <trkpt lon="-3.309544" lat="54.558105"><ele>101.643021</ele><time>2021-08-12T12:32:49Z</time><extensions><speed>1.077981</speed><course>100.069313</course><hAcc>0.880197</hAcc><vAcc>0.700861</vAcc></extensions></trkpt>
      <trkpt lon="-3.309548" lat="54.558114"><ele>101.660477</ele><time>2021-08-12T12:32:50Z</time><extensions><speed>1.110120</speed><course>107.704430</course><hAcc>0.880151</hAcc><vAcc>0.700674</vAcc></extensions></trkpt>
      <trkpt lon="-3.309551" lat="54.558124"><ele>101.691750</ele><time>2021-08-12T12:32:51Z</time><extensions><speed>1.143664</speed><course>102.019516</course><hAcc>0.880117</hAcc><vAcc>0.700545</vAcc></extensions></trkpt>
      <trkpt lon="-3.309554" lat="54.558135"><ele>101.735023</ele><time>2021-08-12T12:32:52Z</time><extensions><speed>1.177540</speed><course>101.188896</course><hAcc>0.880096</hAcc><vAcc>0.700475</vAcc></extensions></trkpt>
      <trkpt lon="-3.309557" lat="54.558145"><ele>101.787689</ele><time>2021-08-12T12:32:53Z</time><extensions><speed>1.210480</speed><course>101.655106</course><hAcc>0.880088</hAcc><vAcc>0.700465</vAcc></extensions></trkpt>
      <trkpt lon="-3.309559" lat="54.558156"><ele>101.846756</ele><time>2021-08-12T12:32:54Z</time><extensions><speed>1.241294</speed><course>97.512695</course><hAcc>0.880093</hAcc><vAcc>0.700512</vAcc></extensions></trkpt>
      <trkpt lon="-3.309562" lat="54.558167"><ele>101.908829</ele><time>2021-08-12T12:32:55Z</time><extensions><speed>1.268825</speed><course>96.923676</course><hAcc>0.880112</hAcc><vAcc>0.700606</vAcc></extensions></trkpt>
      <trkpt lon="-3.309564" lat="54.558179"><ele>101.970604</ele><time>2021-08-12T12:32:56Z</time><extensions><speed>1.291919</speed><course>96.356850</course><hAcc>0.880143</hAcc><vAcc>0.700734</vAcc></extensions></trkpt>
      <trkpt lon="-3.309566" lat="54.558190"><ele>102.030312</ele><time>2021-08-12T12:32:57Z</time><extensions><speed>1.309665</speed><course>95.959724</course><hAcc>0.880185</hAcc><vAcc>0.700884</vAcc></extensions></trkpt>
      <trkpt lon="-3.309568" lat="54.558202"><ele>102.087563</ele><time>2021-08-12T12:32:58Z</time><extensions><speed>1.321730</speed><course>95.959717</course><hAcc>0.880240</hAcc><vAcc>0.701060</vAcc></extensions></trkpt>
      <trkpt lon="-3.309569" lat="54.558214"><ele>102.142403</ele><time>2021-08-12T12:32:59Z</time><extensions><speed>1.327983</speed><course>97.361824</course><hAcc>0.880308</hAcc><vAcc>0.701271</vAcc></extensions></trkpt>
      <trkpt lon="-3.309571" lat="54.558226"><ele>102.195107</ele><time>2021-08-12T12:33:00Z</time><extensions><speed>1.328563</speed><course>97.361824</course><hAcc>0.880389</hAcc><vAcc>0.701528</vAcc></extensions></trkpt>
      <trkpt lon="-3.309573" lat="54.558238"><ele>102.246429</ele><time>2021-08-12T12:33:01Z</time><extensions><speed>1.324027</speed><course>97.361809</course><hAcc>0.880484</hAcc><vAcc>0.701837</vAcc></extensions></trkpt>
      <trkpt lon="-3.309575" lat="54.558249"><ele>102.297401</ele><time>2021-08-12T12:33:02Z</time><extensions><speed>1.315114</speed><course>97.361801</course><hAcc>0.880594</hAcc><vAcc>0.702204</vAcc></extensions></trkpt>
      <trkpt lon="-3.309578" lat="54.558261"><ele>102.349106</ele><time>2021-08-12T12:33:03Z</time><extensions><speed>1.302788</speed><course>42.884136</course><hAcc>0.880721</hAcc><vAcc>0.702636</vAcc></extensions></trkpt>
      <trkpt lon="-3.309582" lat="54.558273"><ele>102.402931</ele><time>2021-08-12T12:33:04Z</time><extensions><speed>1.288285</speed><course>35.984764</course><hAcc>0.880863</hAcc><vAcc>0.703127</vAcc></extensions></trkpt>
      <trkpt lon="-3.309586" lat="54.558284"><ele>102.460953</ele><time>2021-08-12T12:33:06Z</time><extensions><speed>1.272753</speed><course>65.852417</course><hAcc>0.881004</hAcc><vAcc>0.703656</vAcc></extensions></trkpt>
      <trkpt lon="-3.309590" lat="54.558295"><ele>102.525475</ele><time>2021-08-12T12:33:07Z</time><extensions><speed>1.257174</speed><course>86.337746</course><hAcc>0.881140</hAcc><vAcc>0.704211</vAcc></extensions></trkpt>
      <trkpt lon="-3.309596" lat="54.558306"><ele>102.598724</ele><time>2021-08-12T12:33:08Z</time><extensions><speed>1.242283</speed><course>89.071770</course><hAcc>0.881289</hAcc><vAcc>0.704796</vAcc></extensions></trkpt>
      <trkpt lon="-3.309602" lat="54.558316"><ele>102.682053</ele><time>2021-08-12T12:33:09Z</time><extensions><speed>1.228678</speed><course>92.612312</course><hAcc>0.881445</hAcc><vAcc>0.705409</vAcc></extensions></trkpt>
      <trkpt lon="-3.309609" lat="54.558326"><ele>102.775810</ele><time>2021-08-12T12:33:10Z</time><extensions><speed>1.217020</speed><course>103.461632</course><hAcc>0.881607</hAcc><vAcc>0.706045</vAcc></extensions></trkpt>
      <trkpt lon="-3.309617" lat="54.558336"><ele>102.879425</ele><time>2021-08-12T12:33:11Z</time><extensions><speed>1.207956</speed><course>104.412865</course><hAcc>0.881769</hAcc><vAcc>0.706693</vAcc></extensions></trkpt>
      <trkpt lon="-3.309625" lat="54.558346"><ele>102.991516</ele><time>2021-08-12T12:33:12Z</time><extensions><speed>1.201914</speed><course>129.601685</course><hAcc>0.881927</hAcc><vAcc>0.707337</vAcc></extensions></trkpt>
      <trkpt lon="-3.309633" lat="54.558356"><ele>103.110062</ele><time>2021-08-12T12:33:13Z</time><extensions><speed>1.199006</speed><course>149.567169</course><hAcc>0.882079</hAcc><vAcc>0.707959</vAcc></extensions></trkpt>
      <trkpt lon="-3.309642" lat="54.558365"><ele>103.232712</ele><time>2021-08-12T12:33:14Z</time><extensions><speed>1.199630</speed><course>129.327728</course><hAcc>0.882220</hAcc><vAcc>0.708536</vAcc></extensions></trkpt>
      <trkpt lon="-3.309651" lat="54.558375"><ele>103.357002</ele><time>2021-08-12T12:33:15Z</time><extensions><speed>1.204131</speed><course>129.943619</course><hAcc>0.882346</hAcc><vAcc>0.709053</vAcc></extensions></trkpt>
      <trkpt lon="-3.309660" lat="54.558384"><ele>103.480164</ele><time>2021-08-12T12:33:16Z</time><extensions><speed>1.211712</speed><course>125.470825</course><hAcc>0.882455</hAcc><vAcc>0.709496</vAcc></extensions></trkpt>
      <trkpt lon="-3.309670" lat="54.558393"><ele>103.599213</ele><time>2021-08-12T12:33:17Z</time><extensions><speed>1.221010</speed><course>125.654007</course><hAcc>0.882544</hAcc><vAcc>0.709857</vAcc></extensions></trkpt>
      <trkpt lon="-3.309680" lat="54.558403"><ele>103.711723</ele><time>2021-08-12T12:33:17Z</time><extensions><speed>1.230655</speed><course>132.941208</course><hAcc>0.882631</hAcc><vAcc>0.710150</vAcc></extensions></trkpt>
      <trkpt lon="-3.309690" lat="54.558412"><ele>103.816833</ele><time>2021-08-12T12:33:18Z</time><extensions><speed>1.239937</speed><course>128.525970</course><hAcc>0.882714</hAcc><vAcc>0.710376</vAcc></extensions></trkpt>
      <trkpt lon="-3.309701" lat="54.558421"><ele>103.914032</ele><time>2021-08-12T12:33:19Z</time><extensions><speed>1.248778</speed><course>129.747040</course><hAcc>0.882779</hAcc><vAcc>0.710527</vAcc></extensions></trkpt>
      <trkpt lon="-3.309711" lat="54.558431"><ele>104.002800</ele><time>2021-08-12T12:33:20Z</time><extensions><speed>1.256991</speed><course>133.257645</course><hAcc>0.882828</hAcc><vAcc>0.710609</vAcc></extensions></trkpt>
      <trkpt lon="-3.309722" lat="54.558440"><ele>104.082191</ele><time>2021-08-12T12:33:22Z</time><extensions><speed>1.264484</speed><course>122.834160</course><hAcc>0.882846</hAcc><vAcc>0.710625</vAcc></extensions></trkpt>
      <trkpt lon="-3.309732" lat="54.558450"><ele>104.151024</ele><time>2021-08-12T12:33:23Z</time><extensions><speed>1.270965</speed><course>121.754723</course><hAcc>0.882836</hAcc><vAcc>0.710588</vAcc></extensions></trkpt>
      <trkpt lon="-3.309743" lat="54.558460"><ele>104.209198</ele><time>2021-08-12T12:33:24Z</time><extensions><speed>1.275568</speed><course>130.620087</course><hAcc>0.882819</hAcc><vAcc>0.710523</vAcc></extensions></trkpt>
      <trkpt lon="-3.309753" lat="54.558470"><ele>104.257401</ele><time>2021-08-12T12:33:25Z</time><extensions><speed>1.277169</speed><course>128.548019</course><hAcc>0.882797</hAcc><vAcc>0.710442</vAcc></extensions></trkpt>
      <trkpt lon="-3.309763" lat="54.558479"><ele>104.296844</ele><time>2021-08-12T12:33:26Z</time><extensions><speed>1.275326</speed><course>128.034912</course><hAcc>0.882773</hAcc><vAcc>0.710355</vAcc></extensions></trkpt>
      <trkpt lon="-3.309773" lat="54.558489"><ele>104.329269</ele><time>2021-08-12T12:33:27Z</time><extensions><speed>1.271280</speed><course>128.138321</course><hAcc>0.882748</hAcc><vAcc>0.710269</vAcc></extensions></trkpt>
      <trkpt lon="-3.309783" lat="54.558499"><ele>104.356804</ele><time>2021-08-12T12:33:28Z</time><extensions><speed>1.266159</speed><course>127.788391</course><hAcc>0.882724</hAcc><vAcc>0.710193</vAcc></extensions></trkpt>
      <trkpt lon="-3.309792" lat="54.558509"><ele>104.381462</ele><time>2021-08-12T12:33:28Z</time><extensions><speed>1.259677</speed><course>111.799332</course><hAcc>0.882720</hAcc><vAcc>0.710151</vAcc></extensions></trkpt>
      <trkpt lon="-3.309801" lat="54.558519"><ele>104.405136</ele><time>2021-08-12T12:33:29Z</time><extensions><speed>1.251676</speed><course>135.894547</course><hAcc>0.882739</hAcc><vAcc>0.710156</vAcc></extensions></trkpt>
      <trkpt lon="-3.309810" lat="54.558529"><ele>104.429024</ele><time>2021-08-12T12:33:30Z</time><extensions><speed>1.242229</speed><course>135.791443</course><hAcc>0.882761</hAcc><vAcc>0.710206</vAcc></extensions></trkpt>
      <trkpt lon="-3.309819" lat="54.558539"><ele>104.453300</ele><time>2021-08-12T12:33:31Z</time><extensions><speed>1.231922</speed><course>137.532547</course><hAcc>0.882787</hAcc><vAcc>0.710299</vAcc></extensions></trkpt>
      <trkpt lon="-3.309828" lat="54.558548"><ele>104.477638</ele><time>2021-08-12T12:33:32Z</time><extensions><speed>1.221832</speed><course>139.503952</course><hAcc>0.882816</hAcc><vAcc>0.710427</vAcc></extensions></trkpt>
      <trkpt lon="-3.309837" lat="54.558558"><ele>104.501656</ele><time>2021-08-12T12:33:33Z</time><extensions><speed>1.212477</speed><course>146.422607</course><hAcc>0.882847</hAcc><vAcc>0.710577</vAcc></extensions></trkpt>
      <trkpt lon="-3.309845" lat="54.558568"><ele>104.524887</ele><time>2021-08-12T12:33:34Z</time><extensions><speed>1.204058</speed><course>123.702354</course><hAcc>0.882876</hAcc><vAcc>0.710738</vAcc></extensions></trkpt>
      <trkpt lon="-3.309853" lat="54.558578"><ele>104.546478</ele><time>2021-08-12T12:33:35Z</time><extensions><speed>1.196832</speed><course>126.795586</course><hAcc>0.882901</hAcc><vAcc>0.710892</vAcc></extensions></trkpt>
      <trkpt lon="-3.309861" lat="54.558587"><ele>104.565315</ele><time>2021-08-12T12:33:36Z</time><extensions><speed>1.191030</speed><course>132.239441</course><hAcc>0.882917</hAcc><vAcc>0.711022</vAcc></extensions></trkpt>
      <trkpt lon="-3.309869" lat="54.558597"><ele>104.580231</ele><time>2021-08-12T12:33:37Z</time><extensions><speed>1.186460</speed><course>129.200668</course><hAcc>0.882924</hAcc><vAcc>0.711104</vAcc></extensions></trkpt>
      <trkpt lon="-3.309876" lat="54.558607"><ele>104.590172</ele><time>2021-08-12T12:33:38Z</time><extensions><speed>1.182729</speed><course>125.122314</course><hAcc>0.882919</hAcc><vAcc>0.711120</vAcc></extensions></trkpt>
      <trkpt lon="-3.309883" lat="54.558616"><ele>104.594727</ele><time>2021-08-12T12:33:39Z</time><extensions><speed>1.179686</speed><course>136.265396</course><hAcc>0.882901</hAcc><vAcc>0.711058</vAcc></extensions></trkpt>
      <trkpt lon="-3.309890" lat="54.558626"><ele>104.594292</ele><time>2021-08-12T12:33:40Z</time><extensions><speed>1.177558</speed><course>135.687027</course><hAcc>0.882872</hAcc><vAcc>0.710918</vAcc></extensions></trkpt>
      <trkpt lon="-3.309896" lat="54.558636"><ele>104.589790</ele><time>2021-08-12T12:33:41Z</time><extensions><speed>1.176534</speed><course>134.189224</course><hAcc>0.882832</hAcc><vAcc>0.710711</vAcc></extensions></trkpt>
      <trkpt lon="-3.309902" lat="54.558646"><ele>104.582642</ele><time>2021-08-12T12:33:42Z</time><extensions><speed>1.175879</speed><course>130.213623</course><hAcc>0.882785</hAcc><vAcc>0.710457</vAcc></extensions></trkpt>
      <trkpt lon="-3.309907" lat="54.558656"><ele>104.574532</ele><time>2021-08-12T12:33:43Z</time><extensions><speed>1.174287</speed><course>131.249283</course><hAcc>0.882734</hAcc><vAcc>0.710181</vAcc></extensions></trkpt>
      <trkpt lon="-3.309913" lat="54.558666"><ele>104.567184</ele><time>2021-08-12T12:33:44Z</time><extensions><speed>1.171044</speed><course>132.412170</course><hAcc>0.882684</hAcc><vAcc>0.709912</vAcc></extensions></trkpt>
      <trkpt lon="-3.309919" lat="54.558676"><ele>104.562592</ele><time>2021-08-12T12:33:45Z</time><extensions><speed>1.165729</speed><course>141.387543</course><hAcc>0.882639</hAcc><vAcc>0.709673</vAcc></extensions></trkpt>
      <trkpt lon="-3.309924" lat="54.558686"><ele>104.563255</ele><time>2021-08-12T12:33:46Z</time><extensions><speed>1.158491</speed><course>147.693329</course><hAcc>0.882605</hAcc><vAcc>0.709486</vAcc></extensions></trkpt>
      <trkpt lon="-3.309930" lat="54.558696"><ele>104.571823</ele><time>2021-08-12T12:33:47Z</time><extensions><speed>1.149683</speed><course>150.557755</course><hAcc>0.882584</hAcc><vAcc>0.709366</vAcc></extensions></trkpt>
      <trkpt lon="-3.309936" lat="54.558706"><ele>104.590065</ele><time>2021-08-12T12:33:48Z</time><extensions><speed>1.139495</speed><course>146.167221</course><hAcc>0.882579</hAcc><vAcc>0.709328</vAcc></extensions></trkpt>
      <trkpt lon="-3.309943" lat="54.558715"><ele>104.618576</ele><time>2021-08-12T12:33:49Z</time><extensions><speed>1.128808</speed><course>148.113663</course><hAcc>0.882593</hAcc><vAcc>0.709379</vAcc></extensions></trkpt>
      <trkpt lon="-3.309950" lat="54.558724"><ele>104.657051</ele><time>2021-08-12T12:33:50Z</time><extensions><speed>1.118591</speed><course>138.101883</course><hAcc>0.882624</hAcc><vAcc>0.709521</vAcc></extensions></trkpt>
      <trkpt lon="-3.309957" lat="54.558734"><ele>104.704498</ele><time>2021-08-12T12:33:51Z</time><extensions><speed>1.109846</speed><course>142.914612</course><hAcc>0.882672</hAcc><vAcc>0.709745</vAcc></extensions></trkpt>
      <trkpt lon="-3.309964" lat="54.558742"><ele>104.759666</ele><time>2021-08-12T12:33:52Z</time><extensions><speed>1.103348</speed><course>148.048096</course><hAcc>0.882734</hAcc><vAcc>0.710033</vAcc></extensions></trkpt>
      <trkpt lon="-3.309972" lat="54.558751"><ele>104.821144</ele><time>2021-08-12T12:33:53Z</time><extensions><speed>1.099328</speed><course>151.450607</course><hAcc>0.882805</hAcc><vAcc>0.710366</vAcc></extensions></trkpt>
      <trkpt lon="-3.309981" lat="54.558760"><ele>104.887589</ele><time>2021-08-12T12:33:54Z</time><extensions><speed>1.098011</speed><course>136.771103</course><hAcc>0.882883</hAcc><vAcc>0.710721</vAcc></extensions></trkpt>
      <trkpt lon="-3.309989" lat="54.558768"><ele>104.957764</ele><time>2021-08-12T12:33:55Z</time><extensions><speed>1.099399</speed><course>141.808670</course><hAcc>0.882962</hAcc><vAcc>0.711078</vAcc></extensions></trkpt>
      <trkpt lon="-3.309998" lat="54.558777"><ele>105.029991</ele><time>2021-08-12T12:33:56Z</time><extensions><speed>1.102993</speed><course>141.991776</course><hAcc>0.883037</hAcc><vAcc>0.711416</vAcc></extensions></trkpt>
      <trkpt lon="-3.310006" lat="54.558786"><ele>105.102516</ele><time>2021-08-12T12:33:57Z</time><extensions><speed>1.108062</speed><course>158.861435</course><hAcc>0.883104</hAcc><vAcc>0.711715</vAcc></extensions></trkpt>
      <trkpt lon="-3.310015" lat="54.558794"><ele>105.174011</ele><time>2021-08-12T12:33:58Z</time><extensions><speed>1.114197</speed><course>158.142120</course><hAcc>0.883161</hAcc><vAcc>0.711962</vAcc></extensions></trkpt>
      <trkpt lon="-3.310024" lat="54.558803"><ele>105.243607</ele><time>2021-08-12T12:33:59Z</time><extensions><speed>1.121180</speed><course>156.536041</course><hAcc>0.883204</hAcc><vAcc>0.712145</vAcc></extensions></trkpt>
      <trkpt lon="-3.310032" lat="54.558812"><ele>105.310852</ele><time>2021-08-12T12:34:00Z</time><extensions><speed>1.128564</speed><course>138.496033</course><hAcc>0.883233</hAcc><vAcc>0.712258</vAcc></extensions></trkpt>
      <trkpt lon="-3.310040" lat="54.558821"><ele>105.375847</ele><time>2021-08-12T12:34:01Z</time><extensions><speed>1.136501</speed><course>156.669647</course><hAcc>0.883249</hAcc><vAcc>0.712296</vAcc></extensions></trkpt>
      <trkpt lon="-3.310049" lat="54.558830"><ele>105.439163</ele><time>2021-08-12T12:34:02Z</time><extensions><speed>1.145680</speed><course>143.929214</course><hAcc>0.883254</hAcc><vAcc>0.712260</vAcc></extensions></trkpt>
      <trkpt lon="-3.310057" lat="54.558839"><ele>105.501770</ele><time>2021-08-12T12:34:03Z</time><extensions><speed>1.156609</speed><course>154.114960</course><hAcc>0.883251</hAcc><vAcc>0.712165</vAcc></extensions></trkpt>
      <trkpt lon="-3.310065" lat="54.558848"><ele>105.565018</ele><time>2021-08-12T12:34:04Z</time><extensions><speed>1.169239</speed><course>157.737396</course><hAcc>0.883241</hAcc><vAcc>0.712035</vAcc></extensions></trkpt>
      <trkpt lon="-3.310074" lat="54.558857"><ele>105.630745</ele><time>2021-08-12T12:34:05Z</time><extensions><speed>1.182885</speed><course>156.437073</course><hAcc>0.883229</hAcc><vAcc>0.711901</vAcc></extensions></trkpt>
      <trkpt lon="-3.310082" lat="54.558867"><ele>105.700928</ele><time>2021-08-12T12:34:06Z</time><extensions><speed>1.196538</speed><course>159.749420</course><hAcc>0.883216</hAcc><vAcc>0.711790</vAcc></extensions></trkpt>
      <trkpt lon="-3.310091" lat="54.558876"><ele>105.777092</ele><time>2021-08-12T12:34:07Z</time><extensions><speed>1.208670</speed><course>156.029541</course><hAcc>0.883206</hAcc><vAcc>0.711723</vAcc></extensions></trkpt>
      <trkpt lon="-3.310100" lat="54.558886"><ele>105.859856</ele><time>2021-08-12T12:34:08Z</time><extensions><speed>1.217337</speed><course>159.049896</course><hAcc>0.883201</hAcc><vAcc>0.711707</vAcc></extensions></trkpt>
      <trkpt lon="-3.310110" lat="54.558895"><ele>105.948692</ele><time>2021-08-12T12:34:09Z</time><extensions><speed>1.220935</speed><course>154.355942</course><hAcc>0.883201</hAcc><vAcc>0.711737</vAcc></extensions></trkpt>
      <trkpt lon="-3.310119" lat="54.558905"><ele>106.042328</ele><time>2021-08-12T12:34:10Z</time><extensions><speed>1.219250</speed><course>162.710571</course><hAcc>0.883206</hAcc><vAcc>0.711802</vAcc></extensions></trkpt>
      <trkpt lon="-3.310129" lat="54.558914"><ele>106.139397</ele><time>2021-08-12T12:34:11Z</time><extensions><speed>1.212495</speed><course>161.899368</course><hAcc>0.883215</hAcc><vAcc>0.711884</vAcc></extensions></trkpt>
      <trkpt lon="-3.310139" lat="54.558923"><ele>106.238617</ele><time>2021-08-12T12:34:12Z</time><extensions><speed>1.200759</speed><course>160.656769</course><hAcc>0.883225</hAcc><vAcc>0.711969</vAcc></extensions></trkpt>
      <trkpt lon="-3.310148" lat="54.558933"><ele>106.338623</ele><time>2021-08-12T12:34:13Z</time><extensions><speed>1.184596</speed><course>152.471558</course><hAcc>0.883233</hAcc><vAcc>0.712044</vAcc></extensions></trkpt>
      <trkpt lon="-3.310157" lat="54.558942"><ele>106.437988</ele><time>2021-08-12T12:34:14Z</time><extensions><speed>1.164508</speed><course>148.255112</course><hAcc>0.883235</hAcc><vAcc>0.712098</vAcc></extensions></trkpt>
      <trkpt lon="-3.310166" lat="54.558951"><ele>106.535362</ele><time>2021-08-12T12:34:15Z</time><extensions><speed>1.140992</speed><course>153.394714</course><hAcc>0.883227</hAcc><vAcc>0.712118</vAcc></extensions></trkpt>
      <trkpt lon="-3.310175" lat="54.558959"><ele>106.629433</ele><time>2021-08-12T12:34:16Z</time><extensions><speed>1.114868</speed><course>156.943573</course><hAcc>0.883206</hAcc><vAcc>0.712093</vAcc></extensions></trkpt>
      <trkpt lon="-3.310183" lat="54.558968"><ele>106.718925</ele><time>2021-08-12T12:34:17Z</time><extensions><speed>1.087108</speed><course>159.515564</course><hAcc>0.883168</hAcc><vAcc>0.712010</vAcc></extensions></trkpt>
      <trkpt lon="-3.310191" lat="54.558977"><ele>106.802727</ele><time>2021-08-12T12:34:18Z</time><extensions><speed>1.058822</speed><course>158.540283</course><hAcc>0.883112</hAcc><vAcc>0.711857</vAcc></extensions></trkpt>
      <trkpt lon="-3.310198" lat="54.558985"><ele>106.880112</ele><time>2021-08-12T12:34:19Z</time><extensions><speed>1.031463</speed><course>153.751312</course><hAcc>0.883037</hAcc><vAcc>0.711621</vAcc></extensions></trkpt>
      <trkpt lon="-3.310204" lat="54.558994"><ele>106.950645</ele><time>2021-08-12T12:34:20Z</time><extensions><speed>1.007240</speed><course>159.795258</course><hAcc>0.882943</hAcc><vAcc>0.711292</vAcc></extensions></trkpt>
      <trkpt lon="-3.310210" lat="54.559002"><ele>107.014030</ele><time>2021-08-12T12:34:21Z</time><extensions><speed>0.988905</speed><course>158.187424</course><hAcc>0.882834</hAcc><vAcc>0.710864</vAcc></extensions></trkpt>
      <trkpt lon="-3.310215" lat="54.559010"><ele>107.070152</ele><time>2021-08-12T12:34:22Z</time><extensions><speed>0.978593</speed><course>160.275116</course><hAcc>0.882714</hAcc><vAcc>0.710347</vAcc></extensions></trkpt>
      <trkpt lon="-3.310219" lat="54.559019"><ele>107.119171</ele><time>2021-08-12T12:34:23Z</time><extensions><speed>0.977394</speed><course>156.643036</course><hAcc>0.882587</hAcc><vAcc>0.709767</vAcc></extensions></trkpt>
      <trkpt lon="-3.310223" lat="54.559027"><ele>107.161240</ele><time>2021-08-12T12:34:24Z</time><extensions><speed>0.985326</speed><course>162.614395</course><hAcc>0.882459</hAcc><vAcc>0.709164</vAcc></extensions></trkpt>
      <trkpt lon="-3.310227" lat="54.559036"><ele>107.196182</ele><time>2021-08-12T12:34:25Z</time><extensions><speed>1.001476</speed><course>162.054535</course><hAcc>0.882334</hAcc><vAcc>0.708584</vAcc></extensions></trkpt>
      <trkpt lon="-3.310230" lat="54.559045"><ele>107.223785</ele><time>2021-08-12T12:34:26Z</time><extensions><speed>1.024107</speed><course>177.342987</course><hAcc>0.882217</hAcc><vAcc>0.708068</vAcc></extensions></trkpt>
      <trkpt lon="-3.310234" lat="54.559054"><ele>107.243835</ele><time>2021-08-12T12:34:27Z</time><extensions><speed>1.052036</speed><course>172.891953</course><hAcc>0.882113</hAcc><vAcc>0.707642</vAcc></extensions></trkpt>
      <trkpt lon="-3.310237" lat="54.559063"><ele>107.256020</ele><time>2021-08-12T12:34:28Z</time><extensions><speed>1.084835</speed><course>169.984741</course><hAcc>0.882024</hAcc><vAcc>0.707317</vAcc></extensions></trkpt>
      <trkpt lon="-3.310241" lat="54.559073"><ele>107.259933</ele><time>2021-08-12T12:34:29Z</time><extensions><speed>1.121637</speed><course>166.246048</course><hAcc>0.881952</hAcc><vAcc>0.707090</vAcc></extensions></trkpt>
      <trkpt lon="-3.310244" lat="54.559083"><ele>107.255333</ele><time>2021-08-12T12:34:30Z</time><extensions><speed>1.161198</speed><course>166.762161</course><hAcc>0.881896</hAcc><vAcc>0.706949</vAcc></extensions></trkpt>
      <trkpt lon="-3.310248" lat="54.559093"><ele>107.242058</ele><time>2021-08-12T12:34:31Z</time><extensions><speed>1.201875</speed><course>163.016708</course><hAcc>0.881855</hAcc><vAcc>0.706873</vAcc></extensions></trkpt>
      <trkpt lon="-3.310251" lat="54.559104"><ele>107.219948</ele><time>2021-08-12T12:34:32Z</time><extensions><speed>1.241761</speed><course>159.079727</course><hAcc>0.881826</hAcc><vAcc>0.706841</vAcc></extensions></trkpt>
      <trkpt lon="-3.310255" lat="54.559115"><ele>107.188652</ele><time>2021-08-12T12:34:33Z</time><extensions><speed>1.279276</speed><course>160.816132</course><hAcc>0.881806</hAcc><vAcc>0.706832</vAcc></extensions></trkpt>
      <trkpt lon="-3.310258" lat="54.559127"><ele>107.147461</ele><time>2021-08-12T12:34:34Z</time><extensions><speed>1.312961</speed><course>163.227844</course><hAcc>0.881791</hAcc><vAcc>0.706830</vAcc></extensions></trkpt>
      <trkpt lon="-3.310260" lat="54.559139"><ele>107.095406</ele><time>2021-08-12T12:34:35Z</time><extensions><speed>1.342087</speed><course>152.149902</course><hAcc>0.881780</hAcc><vAcc>0.706819</vAcc></extensions></trkpt>
      <trkpt lon="-3.310262" lat="54.559151"><ele>107.031509</ele><time>2021-08-12T12:34:36Z</time><extensions><speed>1.366954</speed><course>159.582550</course><hAcc>0.881769</hAcc><vAcc>0.706785</vAcc></extensions></trkpt>
      <trkpt lon="-3.310263" lat="54.559163"><ele>106.954811</ele><time>2021-08-12T12:34:37Z</time><extensions><speed>1.387915</speed><course>159.987671</course><hAcc>0.881757</hAcc><vAcc>0.706722</vAcc></extensions></trkpt>
      <trkpt lon="-3.310264" lat="54.559176"><ele>106.864662</ele><time>2021-08-12T12:34:38Z</time><extensions><speed>1.405043</speed><course>163.105835</course><hAcc>0.881743</hAcc><vAcc>0.706637</vAcc></extensions></trkpt>
      <trkpt lon="-3.310264" lat="54.559188"><ele>106.761040</ele><time>2021-08-12T12:34:39Z</time><extensions><speed>1.417901</speed><course>160.869598</course><hAcc>0.881725</hAcc><vAcc>0.706545</vAcc></extensions></trkpt>
      <trkpt lon="-3.310263" lat="54.559201"><ele>106.644363</ele><time>2021-08-12T12:34:40Z</time><extensions><speed>1.425641</speed><course>172.028473</course><hAcc>0.881702</hAcc><vAcc>0.706457</vAcc></extensions></trkpt>
      <trkpt lon="-3.310261" lat="54.559214"><ele>106.515259</ele><time>2021-08-12T12:34:41Z</time><extensions><speed>1.427626</speed><course>182.583130</course><hAcc>0.881674</hAcc><vAcc>0.706374</vAcc></extensions></trkpt>
      <trkpt lon="-3.310258" lat="54.559226"><ele>106.374413</ele><time>2021-08-12T12:34:42Z</time><extensions><speed>1.423113</speed><course>175.623672</course><hAcc>0.881641</hAcc><vAcc>0.706287</vAcc></extensions></trkpt>
      <trkpt lon="-3.310255" lat="54.559239"><ele>106.222755</ele><time>2021-08-12T12:34:43Z</time><extensions><speed>1.411562</speed><course>168.997635</course><hAcc>0.881603</hAcc><vAcc>0.706182</vAcc></extensions></trkpt>
      <trkpt lon="-3.310251" lat="54.559251"><ele>106.061569</ele><time>2021-08-12T12:34:44Z</time><extensions><speed>1.392760</speed><course>166.227890</course><hAcc>0.881560</hAcc><vAcc>0.706048</vAcc></extensions></trkpt>
      <trkpt lon="-3.310247" lat="54.559264"><ele>105.892273</ele><time>2021-08-12T12:34:45Z</time><extensions><speed>1.366666</speed><course>162.222458</course><hAcc>0.881513</hAcc><vAcc>0.705876</vAcc></extensions></trkpt>
      <trkpt lon="-3.310242" lat="54.559275"><ele>105.716537</ele><time>2021-08-12T12:34:46Z</time><extensions><speed>1.333326</speed><course>162.553314</course><hAcc>0.881463</hAcc><vAcc>0.705667</vAcc></extensions></trkpt>
      <trkpt lon="-3.310236" lat="54.559287"><ele>105.536415</ele><time>2021-08-12T12:34:47Z</time><extensions><speed>1.292392</speed><course>165.735123</course><hAcc>0.881411</hAcc><vAcc>0.705431</vAcc></extensions></trkpt>
      <trkpt lon="-3.310231" lat="54.559298"><ele>105.354111</ele><time>2021-08-12T12:34:48Z</time><extensions><speed>1.243448</speed><course>166.317276</course><hAcc>0.881359</hAcc><vAcc>0.705186</vAcc></extensions></trkpt>
      <trkpt lon="-3.310225" lat="54.559308"><ele>105.171921</ele><time>2021-08-12T12:34:49Z</time><extensions><speed>1.186184</speed><course>164.590683</course><hAcc>0.881309</hAcc><vAcc>0.704954</vAcc></extensions></trkpt>
      <trkpt lon="-3.310219" lat="54.559318"><ele>104.992149</ele><time>2021-08-12T12:34:50Z</time><extensions><speed>1.120926</speed><course>167.304306</course><hAcc>0.881261</hAcc><vAcc>0.704751</vAcc></extensions></trkpt>
      <trkpt lon="-3.310214" lat="54.559327"><ele>104.817230</ele><time>2021-08-12T12:34:51Z</time><extensions><speed>1.048488</speed><course>166.209152</course><hAcc>0.881218</hAcc><vAcc>0.704584</vAcc></extensions></trkpt>
      <trkpt lon="-3.310209" lat="54.559336"><ele>104.649872</ele><time>2021-08-12T12:34:52Z</time><extensions><speed>0.969677</speed><course>170.985672</course><hAcc>0.881180</hAcc><vAcc>0.704450</vAcc></extensions></trkpt>
      <trkpt lon="-3.310204" lat="54.559343"><ele>104.492744</ele><time>2021-08-12T12:34:53Z</time><extensions><speed>0.885993</speed><course>170.155151</course><hAcc>0.881145</hAcc><vAcc>0.704342</vAcc></extensions></trkpt>
      <trkpt lon="-3.310200" lat="54.559351"><ele>104.348030</ele><time>2021-08-12T12:34:54Z</time><extensions><speed>0.800143</speed><course>173.270996</course><hAcc>0.881114</hAcc><vAcc>0.704256</vAcc></extensions></trkpt>
      <trkpt lon="-3.310196" lat="54.559357"><ele>104.217194</ele><time>2021-08-12T12:34:55Z</time><extensions><speed>0.715727</speed><course>158.977570</course><hAcc>0.881083</hAcc><vAcc>0.704189</vAcc></extensions></trkpt>
      <trkpt lon="-3.310194" lat="54.559363"><ele>104.100960</ele><time>2021-08-12T12:34:56Z</time><extensions><speed>0.636792</speed><course>154.473984</course><hAcc>0.881051</hAcc><vAcc>0.704135</vAcc></extensions></trkpt>
      <trkpt lon="-3.310192" lat="54.559368"><ele>103.999222</ele><time>2021-08-12T12:34:57Z</time><extensions><speed>0.567272</speed><course>159.955185</course><hAcc>0.881016</hAcc><vAcc>0.704078</vAcc></extensions></trkpt>
      <trkpt lon="-3.310191" lat="54.559373"><ele>103.911201</ele><time>2021-08-12T12:34:58Z</time><extensions><speed>0.510311</speed><course>153.408218</course><hAcc>0.880975</hAcc><vAcc>0.703994</vAcc></extensions></trkpt>
      <trkpt lon="-3.310191" lat="54.559378"><ele>103.835854</ele><time>2021-08-12T12:34:59Z</time><extensions><speed>0.468123</speed><course>151.142990</course><hAcc>0.880927</hAcc><vAcc>0.703858</vAcc></extensions></trkpt>
      <trkpt lon="-3.310192" lat="54.559382"><ele>103.771942</ele><time>2021-08-12T12:35:00Z</time><extensions><speed>0.442201</speed><course>153.658844</course><hAcc>0.880873</hAcc><vAcc>0.703656</vAcc></extensions></trkpt>
      <trkpt lon="-3.310193" lat="54.559385"><ele>103.718018</ele><time>2021-08-12T12:35:01Z</time><extensions><speed>0.432922</speed><course>151.540298</course><hAcc>0.880816</hAcc><vAcc>0.703396</vAcc></extensions></trkpt>
      <trkpt lon="-3.310195" lat="54.559389"><ele>103.672371</ele><time>2021-08-12T12:35:02Z</time><extensions><speed>0.439523</speed><course>151.542770</course><hAcc>0.880757</hAcc><vAcc>0.703102</vAcc></extensions></trkpt>
      <trkpt lon="-3.310199" lat="54.559393"><ele>103.633385</ele><time>2021-08-12T12:35:03Z</time><extensions><speed>0.461316</speed><course>151.184875</course><hAcc>0.880702</hAcc><vAcc>0.702803</vAcc></extensions></trkpt>
      <trkpt lon="-3.310203" lat="54.559396"><ele>103.600243</ele><time>2021-08-12T12:35:04Z</time><extensions><speed>0.497997</speed><course>148.009705</course><hAcc>0.880657</hAcc><vAcc>0.702532</vAcc></extensions></trkpt>
      <trkpt lon="-3.310208" lat="54.559400"><ele>103.573135</ele><time>2021-08-12T12:35:05Z</time><extensions><speed>0.548485</speed><course>151.132050</course><hAcc>0.880629</hAcc><vAcc>0.702324</vAcc></extensions></trkpt>
      <trkpt lon="-3.310214" lat="54.559404"><ele>103.552841</ele><time>2021-08-12T12:35:06Z</time><extensions><speed>0.610569</speed><course>147.416718</course><hAcc>0.880625</hAcc><vAcc>0.702213</vAcc></extensions></trkpt>
      <trkpt lon="-3.310221" lat="54.559408"><ele>103.540344</ele><time>2021-08-12T12:35:07Z</time><extensions><speed>0.681216</speed><course>145.946671</course><hAcc>0.880650</hAcc><vAcc>0.702229</vAcc></extensions></trkpt>
      <trkpt lon="-3.310229" lat="54.559412"><ele>103.536926</ele><time>2021-08-12T12:35:08Z</time><extensions><speed>0.756621</speed><course>158.213196</course><hAcc>0.880710</hAcc><vAcc>0.702401</vAcc></extensions></trkpt>
      <trkpt lon="-3.310238" lat="54.559417"><ele>103.544144</ele><time>2021-08-12T12:35:09Z</time><extensions><speed>0.832772</speed><course>165.532318</course><hAcc>0.880806</hAcc><vAcc>0.702745</vAcc></extensions></trkpt>
      <trkpt lon="-3.310249" lat="54.559422"><ele>103.563286</ele><time>2021-08-12T12:35:10Z</time><extensions><speed>0.906413</speed><course>155.828384</course><hAcc>0.880938</hAcc><vAcc>0.703267</vAcc></extensions></trkpt>
      <trkpt lon="-3.310260" lat="54.559427"><ele>103.594955</ele><time>2021-08-12T12:35:11Z</time><extensions><speed>0.975259</speed><course>158.510941</course><hAcc>0.881106</hAcc><vAcc>0.703954</vAcc></extensions></trkpt>
      <trkpt lon="-3.310272" lat="54.559433"><ele>103.638947</ele><time>2021-08-12T12:35:12Z</time><extensions><speed>1.038002</speed><course>158.599030</course><hAcc>0.881303</hAcc><vAcc>0.704780</vAcc></extensions></trkpt>
      <trkpt lon="-3.310285" lat="54.559439"><ele>103.694115</ele><time>2021-08-12T12:35:13Z</time><extensions><speed>1.094169</speed><course>159.122437</course><hAcc>0.881523</hAcc><vAcc>0.705705</vAcc></extensions></trkpt>
      <trkpt lon="-3.310299" lat="54.559445"><ele>103.758286</ele><time>2021-08-12T12:35:14Z</time><extensions><speed>1.143983</speed><course>161.654770</course><hAcc>0.881758</hAcc><vAcc>0.706684</vAcc></extensions></trkpt>
      <trkpt lon="-3.310313" lat="54.559451"><ele>103.828178</ele><time>2021-08-12T12:35:15Z</time><extensions><speed>1.188206</speed><course>168.809372</course><hAcc>0.882000</hAcc><vAcc>0.707674</vAcc></extensions></trkpt>
      <trkpt lon="-3.310327" lat="54.559458"><ele>103.899513</ele><time>2021-08-12T12:35:16Z</time><extensions><speed>1.227065</speed><course>164.604691</course><hAcc>0.882240</hAcc><vAcc>0.708635</vAcc></extensions></trkpt>
      <trkpt lon="-3.310342" lat="54.559466"><ele>103.967468</ele><time>2021-08-12T12:35:17Z</time><extensions><speed>1.260191</speed><course>171.894135</course><hAcc>0.882469</hAcc><vAcc>0.709535</vAcc></extensions></trkpt>
      <trkpt lon="-3.310357" lat="54.559473"><ele>104.027306</ele><time>2021-08-12T12:35:18Z</time><extensions><speed>1.286950</speed><course>183.275330</course><hAcc>0.882680</hAcc><vAcc>0.710353</vAcc></extensions></trkpt>
      <trkpt lon="-3.310371" lat="54.559481"><ele>104.074806</ele><time>2021-08-12T12:35:19Z</time><extensions><speed>1.306971</speed><course>184.743423</course><hAcc>0.882867</hAcc><vAcc>0.711071</vAcc></extensions></trkpt>
      <trkpt lon="-3.310386" lat="54.559490"><ele>104.106186</ele><time>2021-08-12T12:35:20Z</time><extensions><speed>1.320784</speed><course>187.377213</course><hAcc>0.883024</hAcc><vAcc>0.711676</vAcc></extensions></trkpt>
      <trkpt lon="-3.310400" lat="54.559498"><ele>104.118195</ele><time>2021-08-12T12:35:21Z</time><extensions><speed>1.329714</speed><course>178.027603</course><hAcc>0.883150</hAcc><vAcc>0.712155</vAcc></extensions></trkpt>
      <trkpt lon="-3.310413" lat="54.559507"><ele>104.108284</ele><time>2021-08-12T12:35:22Z</time><extensions><speed>1.334913</speed><course>178.136368</course><hAcc>0.883241</hAcc><vAcc>0.712498</vAcc></extensions></trkpt>
      <trkpt lon="-3.310426" lat="54.559516"><ele>104.074730</ele><time>2021-08-12T12:35:23Z</time><extensions><speed>1.337510</speed><course>181.274490</course><hAcc>0.883301</hAcc><vAcc>0.712699</vAcc></extensions></trkpt>
      <trkpt lon="-3.310439" lat="54.559526"><ele>104.016571</ele><time>2021-08-12T12:35:24Z</time><extensions><speed>1.338937</speed><course>197.035065</course><hAcc>0.883330</hAcc><vAcc>0.712762</vAcc></extensions></trkpt>
      <trkpt lon="-3.310451" lat="54.559536"><ele>103.933578</ele><time>2021-08-12T12:35:25Z</time><extensions><speed>1.340524</speed><course>204.692612</course><hAcc>0.883332</hAcc><vAcc>0.712699</vAcc></extensions></trkpt>
      <trkpt lon="-3.310462" lat="54.559546"><ele>103.826546</ele><time>2021-08-12T12:35:26Z</time><extensions><speed>1.343196</speed><course>213.039078</course><hAcc>0.883313</hAcc><vAcc>0.712532</vAcc></extensions></trkpt>
      <trkpt lon="-3.310473" lat="54.559556"><ele>103.696983</ele><time>2021-08-12T12:35:27Z</time><extensions><speed>1.347089</speed><course>220.763565</course><hAcc>0.883278</hAcc><vAcc>0.712290</vAcc></extensions></trkpt>
      <trkpt lon="-3.310484" lat="54.559566"><ele>103.546616</ele><time>2021-08-12T12:35:28Z</time><extensions><speed>1.352014</speed><course>226.732666</course><hAcc>0.883232</hAcc><vAcc>0.712007</vAcc></extensions></trkpt>
      <trkpt lon="-3.310495" lat="54.559577"><ele>103.377464</ele><time>2021-08-12T12:35:29Z</time><extensions><speed>1.357621</speed><course>231.810226</course><hAcc>0.883182</hAcc><vAcc>0.711718</vAcc></extensions></trkpt>
      <trkpt lon="-3.310505" lat="54.559588"><ele>103.192131</ele><time>2021-08-12T12:35:30Z</time><extensions><speed>1.363509</speed><course>257.258179</course><hAcc>0.883134</hAcc><vAcc>0.711457</vAcc></extensions></trkpt>
      <trkpt lon="-3.310516" lat="54.559598"><ele>102.993866</ele><time>2021-08-12T12:35:31Z</time><extensions><speed>1.369313</speed><course>266.164734</course><hAcc>0.883091</hAcc><vAcc>0.711251</vAcc></extensions></trkpt>
      <trkpt lon="-3.310526" lat="54.559609"><ele>102.786163</ele><time>2021-08-12T12:35:32Z</time><extensions><speed>1.374336</speed><course>266.164734</course><hAcc>0.883059</hAcc><vAcc>0.711122</vAcc></extensions></trkpt>
      <trkpt lon="-3.310537" lat="54.559620"><ele>102.572327</ele><time>2021-08-12T12:35:33Z</time><extensions><speed>1.377763</speed><course>266.164734</course><hAcc>0.883038</hAcc><vAcc>0.711071</vAcc></extensions></trkpt>
      <trkpt lon="-3.310547" lat="54.559631"><ele>102.355949</ele><time>2021-08-12T12:35:34Z</time><extensions><speed>1.379211</speed><course>220.132019</course><hAcc>0.883030</hAcc><vAcc>0.711090</vAcc></extensions></trkpt>
      <trkpt lon="-3.310557" lat="54.559641"><ele>102.141418</ele><time>2021-08-12T12:35:35Z</time><extensions><speed>1.378459</speed><course>228.232590</course><hAcc>0.883035</hAcc><vAcc>0.711161</vAcc></extensions></trkpt>
      <trkpt lon="-3.310568" lat="54.559652"><ele>101.933533</ele><time>2021-08-12T12:35:36Z</time><extensions><speed>1.375396</speed><course>234.079605</course><hAcc>0.883053</hAcc><vAcc>0.711272</vAcc></extensions></trkpt>
      <trkpt lon="-3.310578" lat="54.559663"><ele>101.736961</ele><time>2021-08-12T12:35:37Z</time><extensions><speed>1.370061</speed><course>246.469162</course><hAcc>0.883080</hAcc><vAcc>0.711409</vAcc></extensions></trkpt>
      <trkpt lon="-3.310589" lat="54.559674"><ele>101.555641</ele><time>2021-08-12T12:35:38Z</time><extensions><speed>1.363017</speed><course>245.207291</course><hAcc>0.883114</hAcc><vAcc>0.711562</vAcc></extensions></trkpt>
      <trkpt lon="-3.310599" lat="54.559684"><ele>101.392426</ele><time>2021-08-12T12:35:39Z</time><extensions><speed>1.355027</speed><course>243.898834</course><hAcc>0.883154</hAcc><vAcc>0.711722</vAcc></extensions></trkpt>
      <trkpt lon="-3.310608" lat="54.559695"><ele>101.249023</ele><time>2021-08-12T12:35:40Z</time><extensions><speed>1.346749</speed><course>238.112976</course><hAcc>0.883196</hAcc><vAcc>0.711883</vAcc></extensions></trkpt>
      <trkpt lon="-3.310618" lat="54.559706"><ele>101.126343</ele><time>2021-08-12T12:35:41Z</time><extensions><speed>1.339368</speed><course>238.308395</course><hAcc>0.883238</hAcc><vAcc>0.712040</vAcc></extensions></trkpt>
      <trkpt lon="-3.310627" lat="54.559716"><ele>101.024796</ele><time>2021-08-12T12:35:42Z</time><extensions><speed>1.333939</speed><course>242.479843</course><hAcc>0.883278</hAcc><vAcc>0.712190</vAcc></extensions></trkpt>
      <trkpt lon="-3.310637" lat="54.559727"><ele>100.944283</ele><time>2021-08-12T12:35:43Z</time><extensions><speed>1.331054</speed><course>241.402863</course><hAcc>0.883314</hAcc><vAcc>0.712328</vAcc></extensions></trkpt>
      <trkpt lon="-3.310646" lat="54.559738"><ele>100.884094</ele><time>2021-08-12T12:35:44Z</time><extensions><speed>1.330721</speed><course>237.836914</course><hAcc>0.883344</hAcc><vAcc>0.712449</vAcc></extensions></trkpt>
      <trkpt lon="-3.310655" lat="54.559749"><ele>100.843506</ele><time>2021-08-12T12:35:45Z</time><extensions><speed>1.332413</speed><course>241.232681</course><hAcc>0.883367</hAcc><vAcc>0.712550</vAcc></extensions></trkpt>
      <trkpt lon="-3.310664" lat="54.559759"><ele>100.822205</ele><time>2021-08-12T12:35:46Z</time><extensions><speed>1.335949</speed><course>262.141510</course><hAcc>0.883379</hAcc><vAcc>0.712625</vAcc></extensions></trkpt>
      <trkpt lon="-3.310673" lat="54.559770"><ele>100.819946</ele><time>2021-08-12T12:35:47Z</time><extensions><speed>1.340553</speed><course>261.447266</course><hAcc>0.883381</hAcc><vAcc>0.712666</vAcc></extensions></trkpt>
      <trkpt lon="-3.310683" lat="54.559781"><ele>100.835846</ele><time>2021-08-12T12:35:48Z</time><extensions><speed>1.344787</speed><course>261.925140</course><hAcc>0.883370</hAcc><vAcc>0.712663</vAcc></extensions></trkpt>
      <trkpt lon="-3.310692" lat="54.559792"><ele>100.868156</ele><time>2021-08-12T12:35:49Z</time><extensions><speed>1.347302</speed><course>266.740814</course><hAcc>0.883346</hAcc><vAcc>0.712606</vAcc></extensions></trkpt>
      <trkpt lon="-3.310702" lat="54.559802"><ele>100.914421</ele><time>2021-08-12T12:35:50Z</time><extensions><speed>1.346756</speed><course>263.896973</course><hAcc>0.883308</hAcc><vAcc>0.712490</vAcc></extensions></trkpt>
      <trkpt lon="-3.310712" lat="54.559813"><ele>100.971596</ele><time>2021-08-12T12:35:51Z</time><extensions><speed>1.342620</speed><course>261.924744</course><hAcc>0.883256</hAcc><vAcc>0.712308</vAcc></extensions></trkpt>
      <trkpt lon="-3.310723" lat="54.559823"><ele>101.036148</ele><time>2021-08-12T12:35:52Z</time><extensions><speed>1.334984</speed><course>264.486481</course><hAcc>0.883193</hAcc><vAcc>0.712058</vAcc></extensions></trkpt>
      <trkpt lon="-3.310733" lat="54.559834"><ele>101.104225</ele><time>2021-08-12T12:35:53Z</time><extensions><speed>1.323897</speed><course>263.217468</course><hAcc>0.883119</hAcc><vAcc>0.711746</vAcc></extensions></trkpt>
      <trkpt lon="-3.310743" lat="54.559844"><ele>101.171654</ele><time>2021-08-12T12:35:54Z</time><extensions><speed>1.309339</speed><course>266.412231</course><hAcc>0.883037</hAcc><vAcc>0.711388</vAcc></extensions></trkpt>
      <trkpt lon="-3.310753" lat="54.559854"><ele>101.234215</ele><time>2021-08-12T12:35:55Z</time><extensions><speed>1.291426</speed><course>270.399445</course><hAcc>0.882950</hAcc><vAcc>0.711006</vAcc></extensions></trkpt>
      <trkpt lon="-3.310763" lat="54.559864"><ele>101.288437</ele><time>2021-08-12T12:35:56Z</time><extensions><speed>1.270514</speed><course>260.295807</course><hAcc>0.882860</hAcc><vAcc>0.710620</vAcc></extensions></trkpt>
      <trkpt lon="-3.310773" lat="54.559874"><ele>101.331871</ele><time>2021-08-12T12:35:57Z</time><extensions><speed>1.247755</speed><course>254.591400</course><hAcc>0.882771</hAcc><vAcc>0.710243</vAcc></extensions></trkpt>
      <trkpt lon="-3.310782" lat="54.559883"><ele>101.362747</ele><time>2021-08-12T12:35:58Z</time><extensions><speed>1.225057</speed><course>246.407776</course><hAcc>0.882686</hAcc><vAcc>0.709890</vAcc></extensions></trkpt>
      <trkpt lon="-3.310792" lat="54.559893"><ele>101.380005</ele><time>2021-08-12T12:35:59Z</time><extensions><speed>1.203856</speed><course>240.825714</course><hAcc>0.882608</hAcc><vAcc>0.709575</vAcc></extensions></trkpt>
      <trkpt lon="-3.310801" lat="54.559902"><ele>101.383438</ele><time>2021-08-12T12:36:00Z</time><extensions><speed>1.185149</speed><course>235.078873</course><hAcc>0.882538</hAcc><vAcc>0.709310</vAcc></extensions></trkpt>
      <trkpt lon="-3.310811" lat="54.559911"><ele>101.373634</ele><time>2021-08-12T12:36:01Z</time><extensions><speed>1.169813</speed><course>230.996750</course><hAcc>0.882478</hAcc><vAcc>0.709101</vAcc></extensions></trkpt>
      <trkpt lon="-3.310820" lat="54.559920"><ele>101.352257</ele><time>2021-08-12T12:36:02Z</time><extensions><speed>1.158624</speed><course>237.371124</course><hAcc>0.882427</hAcc><vAcc>0.708943</vAcc></extensions></trkpt>
      <trkpt lon="-3.310830" lat="54.559929"><ele>101.322128</ele><time>2021-08-12T12:36:03Z</time><extensions><speed>1.152124</speed><course>233.251434</course><hAcc>0.882386</hAcc><vAcc>0.708828</vAcc></extensions></trkpt>
      <trkpt lon="-3.310839" lat="54.559937"><ele>101.286148</ele><time>2021-08-12T12:36:04Z</time><extensions><speed>1.150031</speed><course>229.059296</course><hAcc>0.882353</hAcc><vAcc>0.708742</vAcc></extensions></trkpt>
      <trkpt lon="-3.310849" lat="54.559946"><ele>101.246605</ele><time>2021-08-12T12:36:05Z</time><extensions><speed>1.151450</speed><course>237.299759</course><hAcc>0.882328</hAcc><vAcc>0.708677</vAcc></extensions></trkpt>
      <trkpt lon="-3.310859" lat="54.559955"><ele>101.205444</ele><time>2021-08-12T12:36:06Z</time><extensions><speed>1.155344</speed><course>228.636597</course><hAcc>0.882310</hAcc><vAcc>0.708626</vAcc></extensions></trkpt>
      <trkpt lon="-3.310868" lat="54.559964"><ele>101.164650</ele><time>2021-08-12T12:36:07Z</time><extensions><speed>1.160587</speed><course>232.788193</course><hAcc>0.882296</hAcc><vAcc>0.708584</vAcc></extensions></trkpt>
      <trkpt lon="-3.310877" lat="54.559973"><ele>101.126312</ele><time>2021-08-12T12:36:08Z</time><extensions><speed>1.166131</speed><course>226.630402</course><hAcc>0.882286</hAcc><vAcc>0.708550</vAcc></extensions></trkpt>
      <trkpt lon="-3.310886" lat="54.559982"><ele>101.092491</ele><time>2021-08-12T12:36:09Z</time><extensions><speed>1.171709</speed><course>231.208252</course><hAcc>0.882278</hAcc><vAcc>0.708523</vAcc></extensions></trkpt>
      <trkpt lon="-3.310895" lat="54.559991"><ele>101.064987</ele><time>2021-08-12T12:36:10Z</time><extensions><speed>1.177808</speed><course>221.171371</course><hAcc>0.882273</hAcc><vAcc>0.708505</vAcc></extensions></trkpt>
      <trkpt lon="-3.310904" lat="54.560000"><ele>101.045303</ele><time>2021-08-12T12:36:11Z</time><extensions><speed>1.185065</speed><course>226.944763</course><hAcc>0.882270</hAcc><vAcc>0.708495</vAcc></extensions></trkpt>
      <trkpt lon="-3.310912" lat="54.560010"><ele>101.034584</ele><time>2021-08-12T12:36:12Z</time><extensions><speed>1.193965</speed><course>229.173843</course><hAcc>0.882268</hAcc><vAcc>0.708490</vAcc></extensions></trkpt>
      <trkpt lon="-3.310919" lat="54.560020"><ele>101.033424</ele><time>2021-08-12T12:36:13Z</time><extensions><speed>1.205036</speed><course>219.367737</course><hAcc>0.882269</hAcc><vAcc>0.708489</vAcc></extensions></trkpt>
      <trkpt lon="-3.310927" lat="54.560030"><ele>101.041801</ele><time>2021-08-12T12:36:14Z</time><extensions><speed>1.218764</speed><course>228.114029</course><hAcc>0.882272</hAcc><vAcc>0.708488</vAcc></extensions></trkpt>
      <trkpt lon="-3.310933" lat="54.560040"><ele>101.058968</ele><time>2021-08-12T12:36:15Z</time><extensions><speed>1.235052</speed><course>227.965424</course><hAcc>0.882278</hAcc><vAcc>0.708488</vAcc></extensions></trkpt>
      <trkpt lon="-3.310939" lat="54.560051"><ele>101.083687</ele><time>2021-08-12T12:36:16Z</time><extensions><speed>1.253519</speed><course>229.338791</course><hAcc>0.882286</hAcc><vAcc>0.708497</vAcc></extensions></trkpt>
      <trkpt lon="-3.310945" lat="54.560061"><ele>101.114609</ele><time>2021-08-12T12:36:17Z</time><extensions><speed>1.273810</speed><course>231.293549</course><hAcc>0.882297</hAcc><vAcc>0.708521</vAcc></extensions></trkpt>
      <trkpt lon="-3.310950" lat="54.560073"><ele>101.150314</ele><time>2021-08-12T12:36:18Z</time><extensions><speed>1.295236</speed><course>238.754257</course><hAcc>0.882310</hAcc><vAcc>0.708569</vAcc></extensions></trkpt>
      <trkpt lon="-3.310955" lat="54.560084"><ele>101.189301</ele><time>2021-08-12T12:36:19Z</time><extensions><speed>1.316545</speed><course>238.093399</course><hAcc>0.882322</hAcc><vAcc>0.708642</vAcc></extensions></trkpt>
      <trkpt lon="-3.310959" lat="54.560096"><ele>101.230156</ele><time>2021-08-12T12:36:20Z</time><extensions><speed>1.336402</speed><course>230.021591</course><hAcc>0.882333</hAcc><vAcc>0.708734</vAcc></extensions></trkpt>
      <trkpt lon="-3.310962" lat="54.560108"><ele>101.271278</ele><time>2021-08-12T12:36:21Z</time><extensions><speed>1.353961</speed><course>229.821030</course><hAcc>0.882341</hAcc><vAcc>0.708834</vAcc></extensions></trkpt>
      <trkpt lon="-3.310965" lat="54.560120"><ele>101.310638</ele><time>2021-08-12T12:36:22Z</time><extensions><speed>1.368980</speed><course>228.941864</course><hAcc>0.882343</hAcc><vAcc>0.708917</vAcc></extensions></trkpt>
      <trkpt lon="-3.310968" lat="54.560132"><ele>101.346191</ele><time>2021-08-12T12:36:23Z</time><extensions><speed>1.381478</speed><course>224.795181</course><hAcc>0.882339</hAcc><vAcc>0.708959</vAcc></extensions></trkpt>
      <trkpt lon="-3.310970" lat="54.560144"><ele>101.376396</ele><time>2021-08-12T12:36:24Z</time><extensions><speed>1.391794</speed><course>216.307693</course><hAcc>0.882328</hAcc><vAcc>0.708942</vAcc></extensions></trkpt>
      <trkpt lon="-3.310972" lat="54.560157"><ele>101.400238</ele><time>2021-08-12T12:36:25Z</time><extensions><speed>1.400658</speed><course>222.735626</course><hAcc>0.882311</hAcc><vAcc>0.708860</vAcc></extensions></trkpt>
      <trkpt lon="-3.310974" lat="54.560169"><ele>101.416962</ele><time>2021-08-12T12:36:26Z</time><extensions><speed>1.408774</speed><course>223.242310</course><hAcc>0.882288</hAcc><vAcc>0.708719</vAcc></extensions></trkpt>
      <trkpt lon="-3.310976" lat="54.560182"><ele>101.425934</ele><time>2021-08-12T12:36:27Z</time><extensions><speed>1.416684</speed><course>230.312881</course><hAcc>0.882261</hAcc><vAcc>0.708541</vAcc></extensions></trkpt>
      <trkpt lon="-3.310978" lat="54.560195"><ele>101.426971</ele><time>2021-08-12T12:36:28Z</time><extensions><speed>1.424754</speed><course>225.102798</course><hAcc>0.882232</hAcc><vAcc>0.708354</vAcc></extensions></trkpt>
      <trkpt lon="-3.310981" lat="54.560208"><ele>101.420555</ele><time>2021-08-12T12:36:29Z</time><extensions><speed>1.432839</speed><course>221.291122</course><hAcc>0.882204</hAcc><vAcc>0.708181</vAcc></extensions></trkpt>
      <trkpt lon="-3.310983" lat="54.560220"><ele>101.407722</ele><time>2021-08-12T12:36:30Z</time><extensions><speed>1.440422</speed><course>215.623337</course><hAcc>0.882178</hAcc><vAcc>0.708041</vAcc></extensions></trkpt>
      <trkpt lon="-3.310986" lat="54.560233"><ele>101.389870</ele><time>2021-08-12T12:36:31Z</time><extensions><speed>1.447320</speed><course>211.427963</course><hAcc>0.882158</hAcc><vAcc>0.707947</vAcc></extensions></trkpt>
      <trkpt lon="-3.310988" lat="54.560246"><ele>101.368645</ele><time>2021-08-12T12:36:32Z</time><extensions><speed>1.453275</speed><course>214.863312</course><hAcc>0.882145</hAcc><vAcc>0.707906</vAcc></extensions></trkpt>
      <trkpt lon="-3.310991" lat="54.560259"><ele>101.346054</ele><time>2021-08-12T12:36:33Z</time><extensions><speed>1.457534</speed><course>209.288147</course><hAcc>0.882140</hAcc><vAcc>0.707916</vAcc></extensions></trkpt>
      <trkpt lon="-3.310995" lat="54.560272"><ele>101.324631</ele><time>2021-08-12T12:36:34Z</time><extensions><speed>1.459535</speed><course>213.399612</course><hAcc>0.882141</hAcc><vAcc>0.707970</vAcc></extensions></trkpt>
      <trkpt lon="-3.310998" lat="54.560285"><ele>101.307068</ele><time>2021-08-12T12:36:35Z</time><extensions><speed>1.459385</speed><course>209.037766</course><hAcc>0.882150</hAcc><vAcc>0.708048</vAcc></extensions></trkpt>
      <trkpt lon="-3.311002" lat="54.560298"><ele>101.295486</ele><time>2021-08-12T12:36:36Z</time><extensions><speed>1.457327</speed><course>198.395279</course><hAcc>0.882163</hAcc><vAcc>0.708136</vAcc></extensions></trkpt>
      <trkpt lon="-3.311006" lat="54.560311"><ele>101.291527</ele><time>2021-08-12T12:36:37Z</time><extensions><speed>1.453702</speed><course>210.540466</course><hAcc>0.882179</hAcc><vAcc>0.708218</vAcc></extensions></trkpt>
      <trkpt lon="-3.311011" lat="54.560324"><ele>101.296852</ele><time>2021-08-12T12:36:38Z</time><extensions><speed>1.448930</speed><course>216.565186</course><hAcc>0.882195</hAcc><vAcc>0.708286</vAcc></extensions></trkpt>
      <trkpt lon="-3.311015" lat="54.560336"><ele>101.312927</ele><time>2021-08-12T12:36:39Z</time><extensions><speed>1.443019</speed><course>216.875626</course><hAcc>0.882209</hAcc><vAcc>0.708338</vAcc></extensions></trkpt>
      <trkpt lon="-3.311021" lat="54.560349"><ele>101.340195</ele><time>2021-08-12T12:36:40Z</time><extensions><speed>1.435537</speed><course>213.073944</course><hAcc>0.882218</hAcc><vAcc>0.708375</vAcc></extensions></trkpt>
      <trkpt lon="-3.311026" lat="54.560361"><ele>101.378021</ele><time>2021-08-12T12:36:41Z</time><extensions><speed>1.426167</speed><course>206.496414</course><hAcc>0.882219</hAcc><vAcc>0.708396</vAcc></extensions></trkpt>
      <trkpt lon="-3.311032" lat="54.560374"><ele>101.425499</ele><time>2021-08-12T12:36:42Z</time><extensions><speed>1.414888</speed><course>207.745499</course><hAcc>0.882209</hAcc><vAcc>0.708393</vAcc></extensions></trkpt>
      <trkpt lon="-3.311038" lat="54.560386"><ele>101.481712</ele><time>2021-08-12T12:36:43Z</time><extensions><speed>1.401675</speed><course>210.428009</course><hAcc>0.882185</hAcc><vAcc>0.708353</vAcc></extensions></trkpt>
      <trkpt lon="-3.311044" lat="54.560398"><ele>101.545700</ele><time>2021-08-12T12:36:44Z</time><extensions><speed>1.386951</speed><course>207.611023</course><hAcc>0.882145</hAcc><vAcc>0.708260</vAcc></extensions></trkpt>
      <trkpt lon="-3.311051" lat="54.560410"><ele>101.616257</ele><time>2021-08-12T12:36:45Z</time><extensions><speed>1.371329</speed><course>210.041336</course><hAcc>0.882087</hAcc><vAcc>0.708096</vAcc></extensions></trkpt>
      <trkpt lon="-3.311056" lat="54.560421"><ele>101.691681</ele><time>2021-08-12T12:36:46Z</time><extensions><speed>1.355360</speed><course>211.119202</course><hAcc>0.882008</hAcc><vAcc>0.707846</vAcc></extensions></trkpt>
      <trkpt lon="-3.311062" lat="54.560433"><ele>101.770195</ele><time>2021-08-12T12:36:47Z</time><extensions><speed>1.339478</speed><course>215.032761</course><hAcc>0.881908</hAcc><vAcc>0.707503</vAcc></extensions></trkpt>
      <trkpt lon="-3.311067" lat="54.560445"><ele>101.850281</ele><time>2021-08-12T12:36:48Z</time><extensions><speed>1.323840</speed><course>215.892059</course><hAcc>0.881786</hAcc><vAcc>0.707063</vAcc></extensions></trkpt>
      <trkpt lon="-3.311072" lat="54.560456"><ele>101.930359</ele><time>2021-08-12T12:36:49Z</time><extensions><speed>1.309052</speed><course>208.710144</course><hAcc>0.881644</hAcc><vAcc>0.706529</vAcc></extensions></trkpt>
      <trkpt lon="-3.311076" lat="54.560468"><ele>102.008430</ele><time>2021-08-12T12:36:50Z</time><extensions><speed>1.296135</speed><course>204.101471</course><hAcc>0.881484</hAcc><vAcc>0.705909</vAcc></extensions></trkpt>
      <trkpt lon="-3.311079" lat="54.560479"><ele>102.082268</ele><time>2021-08-12T12:36:51Z</time><extensions><speed>1.285995</speed><course>208.109482</course><hAcc>0.881310</hAcc><vAcc>0.705221</vAcc></extensions></trkpt>
      <trkpt lon="-3.311082" lat="54.560490"><ele>102.149887</ele><time>2021-08-12T12:36:52Z</time><extensions><speed>1.279400</speed><course>201.394348</course><hAcc>0.881127</hAcc><vAcc>0.704489</vAcc></extensions></trkpt>
      <trkpt lon="-3.311084" lat="54.560502"><ele>102.209518</ele><time>2021-08-12T12:36:53Z</time><extensions><speed>1.276882</speed><course>199.619629</course><hAcc>0.880941</hAcc><vAcc>0.703739</vAcc></extensions></trkpt>
      <trkpt lon="-3.311086" lat="54.560513"><ele>102.259476</ele><time>2021-08-12T12:36:54Z</time><extensions><speed>1.278614</speed><course>197.929596</course><hAcc>0.880759</hAcc><vAcc>0.702997</vAcc></extensions></trkpt>
      <trkpt lon="-3.311088" lat="54.560525"><ele>102.298325</ele><time>2021-08-12T12:36:55Z</time><extensions><speed>1.284602</speed><course>207.567093</course><hAcc>0.880589</hAcc><vAcc>0.702290</vAcc></extensions></trkpt>
      <trkpt lon="-3.311088" lat="54.560536"><ele>102.324753</ele><time>2021-08-12T12:36:56Z</time><extensions><speed>1.294558</speed><course>211.052994</course><hAcc>0.880438</hAcc><vAcc>0.701649</vAcc></extensions></trkpt>
      <trkpt lon="-3.311089" lat="54.560548"><ele>102.337410</ele><time>2021-08-12T12:36:57Z</time><extensions><speed>1.307820</speed><course>209.388504</course><hAcc>0.880314</hAcc><vAcc>0.701108</vAcc></extensions></trkpt>
      <trkpt lon="-3.311089" lat="54.560560"><ele>102.335228</ele><time>2021-08-12T12:36:58Z</time><extensions><speed>1.323385</speed><course>208.868835</course><hAcc>0.880223</hAcc><vAcc>0.700704</vAcc></extensions></trkpt>
      <trkpt lon="-3.311088" lat="54.560572"><ele>102.317871</ele><time>2021-08-12T12:36:59Z</time><extensions><speed>1.340119</speed><course>206.360352</course><hAcc>0.880170</hAcc><vAcc>0.700466</vAcc></extensions></trkpt>
      <trkpt lon="-3.311088" lat="54.560584"><ele>102.285995</ele><time>2021-08-12T12:37:00Z</time><extensions><speed>1.357211</speed><course>191.999023</course><hAcc>0.880157</hAcc><vAcc>0.700414</vAcc></extensions></trkpt>
      <trkpt lon="-3.311087" lat="54.560596"><ele>102.241608</ele><time>2021-08-12T12:37:01Z</time><extensions><speed>1.374028</speed><course>180.180435</course><hAcc>0.880184</hAcc><vAcc>0.700550</vAcc></extensions></trkpt>
      <trkpt lon="-3.311086" lat="54.560609"><ele>102.188011</ele><time>2021-08-12T12:37:02Z</time><extensions><speed>1.390243</speed><course>177.079514</course><hAcc>0.880248</hAcc><vAcc>0.700855</vAcc></extensions></trkpt>
      <trkpt lon="-3.311085" lat="54.560621"><ele>102.129128</ele><time>2021-08-12T12:37:03Z</time><extensions><speed>1.405692</speed><course>177.153732</course><hAcc>0.880345</hAcc><vAcc>0.701300</vAcc></extensions></trkpt>
      <trkpt lon="-3.311085" lat="54.560634"><ele>102.068672</ele><time>2021-08-12T12:37:04Z</time><extensions><speed>1.419861</speed><course>181.696198</course><hAcc>0.880468</hAcc><vAcc>0.701853</vAcc></extensions></trkpt>
      <trkpt lon="-3.311084" lat="54.560647"><ele>102.009865</ele><time>2021-08-12T12:37:05Z</time><extensions><speed>1.432276</speed><course>179.829865</course><hAcc>0.880610</hAcc><vAcc>0.702478</vAcc></extensions></trkpt>
      <trkpt lon="-3.311084" lat="54.560659"><ele>101.955406</ele><time>2021-08-12T12:37:06Z</time><extensions><speed>1.443229</speed><course>189.386703</course><hAcc>0.880763</hAcc><vAcc>0.703138</vAcc></extensions></trkpt>
      <trkpt lon="-3.311084" lat="54.560672"><ele>101.907341</ele><time>2021-08-12T12:37:07Z</time><extensions><speed>1.453019</speed><course>186.380737</course><hAcc>0.880917</hAcc><vAcc>0.703791</vAcc></extensions></trkpt>
      <trkpt lon="-3.311084" lat="54.560686"><ele>101.866852</ele><time>2021-08-12T12:37:08Z</time><extensions><speed>1.461359</speed><course>181.688873</course><hAcc>0.881067</hAcc><vAcc>0.704407</vAcc></extensions></trkpt>
      <trkpt lon="-3.311085" lat="54.560699"><ele>101.834305</ele><time>2021-08-12T12:37:09Z</time><extensions><speed>1.468263</speed><course>178.930069</course><hAcc>0.881206</hAcc><vAcc>0.704959</vAcc></extensions></trkpt>
      <trkpt lon="-3.311086" lat="54.560712"><ele>101.809685</ele><time>2021-08-12T12:37:10Z</time><extensions><speed>1.473875</speed><course>176.699600</course><hAcc>0.881329</hAcc><vAcc>0.705429</vAcc></extensions></trkpt>
      <trkpt lon="-3.311087" lat="54.560725"><ele>101.792595</ele><time>2021-08-12T12:37:11Z</time><extensions><speed>1.478332</speed><course>171.339767</course><hAcc>0.881435</hAcc><vAcc>0.705805</vAcc></extensions></trkpt>
      <trkpt lon="-3.311088" lat="54.560738"><ele>101.782349</ele><time>2021-08-12T12:37:12Z</time><extensions><speed>1.481891</speed><course>176.652649</course><hAcc>0.881522</hAcc><vAcc>0.706084</vAcc></extensions></trkpt>
      <trkpt lon="-3.311090" lat="54.560752"><ele>101.778267</ele><time>2021-08-12T12:37:13Z</time><extensions><speed>1.484847</speed><course>186.094208</course><hAcc>0.881591</hAcc><vAcc>0.706274</vAcc></extensions></trkpt>
      <trkpt lon="-3.311092" lat="54.560765"><ele>101.779587</ele><time>2021-08-12T12:37:14Z</time><extensions><speed>1.487589</speed><course>174.229980</course><hAcc>0.881644</hAcc><vAcc>0.706391</vAcc></extensions></trkpt>
      <trkpt lon="-3.311094" lat="54.560778"><ele>101.784691</ele><time>2021-08-12T12:37:15Z</time><extensions><speed>1.489930</speed><course>169.447403</course><hAcc>0.881685</hAcc><vAcc>0.706462</vAcc></extensions></trkpt>
      <trkpt lon="-3.311096" lat="54.560792"><ele>101.790794</ele><time>2021-08-12T12:37:16Z</time><extensions><speed>1.491298</speed><course>184.388611</course><hAcc>0.881717</hAcc><vAcc>0.706513</vAcc></extensions></trkpt>
      <trkpt lon="-3.311099" lat="54.560805"><ele>101.794525</ele><time>2021-08-12T12:37:17Z</time><extensions><speed>1.491243</speed><course>177.773834</course><hAcc>0.881745</hAcc><vAcc>0.706567</vAcc></extensions></trkpt>
      <trkpt lon="-3.311102" lat="54.560818"><ele>101.792786</ele><time>2021-08-12T12:37:18Z</time><extensions><speed>1.490116</speed><course>188.552094</course><hAcc>0.881772</hAcc><vAcc>0.706639</vAcc></extensions></trkpt>
      <trkpt lon="-3.311106" lat="54.560831"><ele>101.782913</ele><time>2021-08-12T12:37:19Z</time><extensions><speed>1.488508</speed><course>192.357071</course><hAcc>0.881802</hAcc><vAcc>0.706732</vAcc></extensions></trkpt>
      <trkpt lon="-3.311110" lat="54.560845"><ele>101.762428</ele><time>2021-08-12T12:37:20Z</time><extensions><speed>1.486623</speed><course>185.665771</course><hAcc>0.881839</hAcc><vAcc>0.706854</vAcc></extensions></trkpt>
      <trkpt lon="-3.311114" lat="54.560858"><ele>101.729141</ele><time>2021-08-12T12:37:21Z</time><extensions><speed>1.484597</speed><course>164.292023</course><hAcc>0.881883</hAcc><vAcc>0.707012</vAcc></extensions></trkpt>
      <trkpt lon="-3.311119" lat="54.560871"><ele>101.681702</ele><time>2021-08-12T12:37:22Z</time><extensions><speed>1.482797</speed><course>172.060730</course><hAcc>0.881937</hAcc><vAcc>0.707211</vAcc></extensions></trkpt>
      <trkpt lon="-3.311124" lat="54.560884"><ele>101.619843</ele><time>2021-08-12T12:37:23Z</time><extensions><speed>1.481516</speed><course>173.775192</course><hAcc>0.882002</hAcc><vAcc>0.707451</vAcc></extensions></trkpt>
      <trkpt lon="-3.311129" lat="54.560897"><ele>101.544609</ele><time>2021-08-12T12:37:24Z</time><extensions><speed>1.480802</speed><course>179.079193</course><hAcc>0.882078</hAcc><vAcc>0.707730</vAcc></extensions></trkpt>
      <trkpt lon="-3.311136" lat="54.560909"><ele>101.458382</ele><time>2021-08-12T12:37:25Z</time><extensions><speed>1.480732</speed><course>187.556046</course><hAcc>0.882165</hAcc><vAcc>0.708048</vAcc></extensions></trkpt>
      <trkpt lon="-3.311142" lat="54.560922"><ele>101.364540</ele><time>2021-08-12T12:37:26Z</time><extensions><speed>1.481239</speed><course>185.595901</course><hAcc>0.882261</hAcc><vAcc>0.708404</vAcc></extensions></trkpt>
      <trkpt lon="-3.311150" lat="54.560935"><ele>101.267082</ele><time>2021-08-12T12:37:27Z</time><extensions><speed>1.482523</speed><course>185.894623</course><hAcc>0.882368</hAcc><vAcc>0.708790</vAcc></extensions></trkpt>
      <trkpt lon="-3.311158" lat="54.560947"><ele>101.170403</ele><time>2021-08-12T12:37:28Z</time><extensions><speed>1.484749</speed><course>190.244247</course><hAcc>0.882481</hAcc><vAcc>0.709205</vAcc></extensions></trkpt>
      <trkpt lon="-3.311166" lat="54.560960"><ele>101.079277</ele><time>2021-08-12T12:37:29Z</time><extensions><speed>1.487759</speed><course>187.044601</course><hAcc>0.882600</hAcc><vAcc>0.709648</vAcc></extensions></trkpt>
      <trkpt lon="-3.311175" lat="54.560972"><ele>100.998642</ele><time>2021-08-12T12:37:30Z</time><extensions><speed>1.490852</speed><course>176.253296</course><hAcc>0.882721</hAcc><vAcc>0.710120</vAcc></extensions></trkpt>
      <trkpt lon="-3.311185" lat="54.560984"><ele>100.933250</ele><time>2021-08-12T12:37:31Z</time><extensions><speed>1.493231</speed><course>185.408890</course><hAcc>0.882842</hAcc><vAcc>0.710609</vAcc></extensions></trkpt>
      <trkpt lon="-3.311195" lat="54.560996"><ele>100.887375</ele><time>2021-08-12T12:37:32Z</time><extensions><speed>1.494625</speed><course>180.674866</course><hAcc>0.882958</hAcc><vAcc>0.711096</vAcc></extensions></trkpt>
      <trkpt lon="-3.311205" lat="54.561008"><ele>100.864021</ele><time>2021-08-12T12:37:33Z</time><extensions><speed>1.494601</speed><course>183.635086</course><hAcc>0.883067</hAcc><vAcc>0.711561</vAcc></extensions></trkpt>
      <trkpt lon="-3.311216" lat="54.561020"><ele>100.864090</ele><time>2021-08-12T12:37:34Z</time><extensions><speed>1.492744</speed><course>191.052750</course><hAcc>0.883167</hAcc><vAcc>0.711983</vAcc></extensions></trkpt>
      <trkpt lon="-3.311227" lat="54.561032"><ele>100.886505</ele><time>2021-08-12T12:37:35Z</time><extensions><speed>1.489285</speed><course>177.175522</course><hAcc>0.883253</hAcc><vAcc>0.712346</vAcc></extensions></trkpt>
      <trkpt lon="-3.311239" lat="54.561043"><ele>100.929344</ele><time>2021-08-12T12:37:36Z</time><extensions><speed>1.484569</speed><course>190.008408</course><hAcc>0.883326</hAcc><vAcc>0.712635</vAcc></extensions></trkpt>
      <trkpt lon="-3.311250" lat="54.561055"><ele>100.990372</ele><time>2021-08-12T12:37:37Z</time><extensions><speed>1.478812</speed><course>198.960236</course><hAcc>0.883384</hAcc><vAcc>0.712843</vAcc></extensions></trkpt>
      <trkpt lon="-3.311262" lat="54.561066"><ele>101.067245</ele><time>2021-08-12T12:37:38Z</time><extensions><speed>1.472215</speed><course>204.894943</course><hAcc>0.883428</hAcc><vAcc>0.712970</vAcc></extensions></trkpt>
      <trkpt lon="-3.311274" lat="54.561077"><ele>101.157776</ele><time>2021-08-12T12:37:39Z</time><extensions><speed>1.465383</speed><course>198.802200</course><hAcc>0.883461</hAcc><vAcc>0.713025</vAcc></extensions></trkpt>
      <trkpt lon="-3.311286" lat="54.561089"><ele>101.259956</ele><time>2021-08-12T12:37:40Z</time><extensions><speed>1.459230</speed><course>197.317261</course><hAcc>0.883484</hAcc><vAcc>0.713026</vAcc></extensions></trkpt>
      <trkpt lon="-3.311299" lat="54.561099"><ele>101.371948</ele><time>2021-08-12T12:37:41Z</time><extensions><speed>1.454466</speed><course>196.061050</course><hAcc>0.883502</hAcc><vAcc>0.712997</vAcc></extensions></trkpt>
      <trkpt lon="-3.311312" lat="54.561110"><ele>101.491989</ele><time>2021-08-12T12:37:42Z</time><extensions><speed>1.451261</speed><course>202.882050</course><hAcc>0.883517</hAcc><vAcc>0.712969</vAcc></extensions></trkpt>
      <trkpt lon="-3.311325" lat="54.561121"><ele>101.618729</ele><time>2021-08-12T12:37:43Z</time><extensions><speed>1.449487</speed><course>203.317627</course><hAcc>0.883532</hAcc><vAcc>0.712967</vAcc></extensions></trkpt>
      <trkpt lon="-3.311338" lat="54.561131"><ele>101.751328</ele><time>2021-08-12T12:37:44Z</time><extensions><speed>1.449533</speed><course>195.786957</course><hAcc>0.883553</hAcc><vAcc>0.713007</vAcc></extensions></trkpt>
      <trkpt lon="-3.311353" lat="54.561141"><ele>101.889259</ele><time>2021-08-12T12:37:45Z</time><extensions><speed>1.451656</speed><course>203.624710</course><hAcc>0.883580</hAcc><vAcc>0.713096</vAcc></extensions></trkpt>
      <trkpt lon="-3.311367" lat="54.561151"><ele>102.032005</ele><time>2021-08-12T12:37:46Z</time><extensions><speed>1.455733</speed><course>211.298859</course><hAcc>0.883618</hAcc><vAcc>0.713236</vAcc></extensions></trkpt>
      <trkpt lon="-3.311382" lat="54.561161"><ele>102.178734</ele><time>2021-08-12T12:37:47Z</time><extensions><speed>1.461620</speed><course>211.550430</course><hAcc>0.883667</hAcc><vAcc>0.713426</vAcc></extensions></trkpt>
      <trkpt lon="-3.311398" lat="54.561170"><ele>102.328560</ele><time>2021-08-12T12:37:48Z</time><extensions><speed>1.469247</speed><course>212.935287</course><hAcc>0.883728</hAcc><vAcc>0.713662</vAcc></extensions></trkpt>
      <trkpt lon="-3.311414" lat="54.561179"><ele>102.480659</ele><time>2021-08-12T12:37:49Z</time><extensions><speed>1.478072</speed><course>205.316910</course><hAcc>0.883799</hAcc><vAcc>0.713941</vAcc></extensions></trkpt>
      <trkpt lon="-3.311431" lat="54.561188"><ele>102.634560</ele><time>2021-08-12T12:37:50Z</time><extensions><speed>1.487087</speed><course>201.370926</course><hAcc>0.883879</hAcc><vAcc>0.714260</vAcc></extensions></trkpt>
      <trkpt lon="-3.311448" lat="54.561197"><ele>102.790291</ele><time>2021-08-12T12:37:51Z</time><extensions><speed>1.495616</speed><course>207.980240</course><hAcc>0.883966</hAcc><vAcc>0.714612</vAcc></extensions></trkpt>
      <trkpt lon="-3.311466" lat="54.561206"><ele>102.948074</ele><time>2021-08-12T12:37:52Z</time><extensions><speed>1.503089</speed><course>218.794739</course><hAcc>0.884058</hAcc><vAcc>0.714986</vAcc></extensions></trkpt>
      <trkpt lon="-3.311484" lat="54.561215"><ele>103.108292</ele><time>2021-08-12T12:37:53Z</time><extensions><speed>1.508810</speed><course>208.166870</course><hAcc>0.884150</hAcc><vAcc>0.715371</vAcc></extensions></trkpt>
      <trkpt lon="-3.311502" lat="54.561223"><ele>103.271362</ele><time>2021-08-12T12:37:54Z</time><extensions><speed>1.512448</speed><course>203.084564</course><hAcc>0.884241</hAcc><vAcc>0.715750</vAcc></extensions></trkpt>
      <trkpt lon="-3.311520" lat="54.561232"><ele>103.437447</ele><time>2021-08-12T12:37:55Z</time><extensions><speed>1.513748</speed><course>207.057602</course><hAcc>0.884327</hAcc><vAcc>0.716108</vAcc></extensions></trkpt>
      <trkpt lon="-3.311539" lat="54.561240"><ele>103.606415</ele><time>2021-08-12T12:37:56Z</time><extensions><speed>1.512339</speed><course>197.667023</course><hAcc>0.884406</hAcc><vAcc>0.716428</vAcc></extensions></trkpt>
      <trkpt lon="-3.311557" lat="54.561248"><ele>103.777946</ele><time>2021-08-12T12:37:57Z</time><extensions><speed>1.508028</speed><course>193.281815</course><hAcc>0.884473</hAcc><vAcc>0.716697</vAcc></extensions></trkpt>
      <trkpt lon="-3.311576" lat="54.561257"><ele>103.951187</ele><time>2021-08-12T12:37:58Z</time><extensions><speed>1.500738</speed><course>196.556885</course><hAcc>0.884527</hAcc><vAcc>0.716909</vAcc></extensions></trkpt>
      <trkpt lon="-3.311594" lat="54.561265"><ele>104.124458</ele><time>2021-08-12T12:37:59Z</time><extensions><speed>1.490364</speed><course>203.186966</course><hAcc>0.884564</hAcc><vAcc>0.717059</vAcc></extensions></trkpt>
      <trkpt lon="-3.311612" lat="54.561273"><ele>104.295753</ele><time>2021-08-12T12:38:00Z</time><extensions><speed>1.477283</speed><course>212.697037</course><hAcc>0.884583</hAcc><vAcc>0.717143</vAcc></extensions></trkpt>
      <trkpt lon="-3.311629" lat="54.561282"><ele>104.463165</ele><time>2021-08-12T12:38:01Z</time><extensions><speed>1.462153</speed><course>205.962631</course><hAcc>0.884582</hAcc><vAcc>0.717156</vAcc></extensions></trkpt>
      <trkpt lon="-3.311647" lat="54.561290"><ele>104.624786</ele><time>2021-08-12T12:38:02Z</time><extensions><speed>1.445300</speed><course>207.149033</course><hAcc>0.884559</hAcc><vAcc>0.717096</vAcc></extensions></trkpt>
      <trkpt lon="-3.311663" lat="54.561299"><ele>104.778542</ele><time>2021-08-12T12:38:03Z</time><extensions><speed>1.427680</speed><course>214.878525</course><hAcc>0.884516</hAcc><vAcc>0.716958</vAcc></extensions></trkpt>
      <trkpt lon="-3.311679" lat="54.561307"><ele>104.922234</ele><time>2021-08-12T12:38:04Z</time><extensions><speed>1.410316</speed><course>214.006729</course><hAcc>0.884453</hAcc><vAcc>0.716741</vAcc></extensions></trkpt>
      <trkpt lon="-3.311695" lat="54.561316"><ele>105.053749</ele><time>2021-08-12T12:38:05Z</time><extensions><speed>1.393484</speed><course>203.780624</course><hAcc>0.884373</hAcc><vAcc>0.716443</vAcc></extensions></trkpt>
      <trkpt lon="-3.311710" lat="54.561325"><ele>105.171196</ele><time>2021-08-12T12:38:06Z</time><extensions><speed>1.377429</speed><course>196.955612</course><hAcc>0.884280</hAcc><vAcc>0.716069</vAcc></extensions></trkpt>
      <trkpt lon="-3.311725" lat="54.561334"><ele>105.273003</ele><time>2021-08-12T12:38:07Z</time><extensions><speed>1.362936</speed><course>192.010574</course><hAcc>0.884177</hAcc><vAcc>0.715629</vAcc></extensions></trkpt>
      <trkpt lon="-3.311739" lat="54.561343"><ele>105.357819</ele><time>2021-08-12T12:38:08Z</time><extensions><speed>1.350963</speed><course>192.008179</course><hAcc>0.884072</hAcc><vAcc>0.715144</vAcc></extensions></trkpt>
      <trkpt lon="-3.311752" lat="54.561352"><ele>105.424477</ele><time>2021-08-12T12:38:09Z</time><extensions><speed>1.342404</speed><course>196.158051</course><hAcc>0.883969</hAcc><vAcc>0.714642</vAcc></extensions></trkpt>
      <trkpt lon="-3.311766" lat="54.561361"><ele>105.472206</ele><time>2021-08-12T12:38:10Z</time><extensions><speed>1.338378</speed><course>191.694901</course><hAcc>0.883873</hAcc><vAcc>0.714163</vAcc></extensions></trkpt>
      <trkpt lon="-3.311779" lat="54.561370"><ele>105.501167</ele><time>2021-08-12T12:38:11Z</time><extensions><speed>1.339680</speed><course>188.330658</course><hAcc>0.883792</hAcc><vAcc>0.713747</vAcc></extensions></trkpt>
      <trkpt lon="-3.311792" lat="54.561380"><ele>105.512657</ele><time>2021-08-12T12:38:12Z</time><extensions><speed>1.345961</speed><course>181.434692</course><hAcc>0.883727</hAcc><vAcc>0.713429</vAcc></extensions></trkpt>
      <trkpt lon="-3.311805" lat="54.561389"><ele>105.508453</ele><time>2021-08-12T12:38:13Z</time><extensions><speed>1.355847</speed><course>188.145386</course><hAcc>0.883684</hAcc><vAcc>0.713235</vAcc></extensions></trkpt>
      <trkpt lon="-3.311818" lat="54.561399"><ele>105.490341</ele><time>2021-08-12T12:38:14Z</time><extensions><speed>1.367703</speed><course>178.798050</course><hAcc>0.883663</hAcc><vAcc>0.713173</vAcc></extensions></trkpt>
      <trkpt lon="-3.311831" lat="54.561409"><ele>105.460129</ele><time>2021-08-12T12:38:15Z</time><extensions><speed>1.380246</speed><course>170.916321</course><hAcc>0.883666</hAcc><vAcc>0.713239</vAcc></extensions></trkpt>
      <trkpt lon="-3.311844" lat="54.561418"><ele>105.420082</ele><time>2021-08-12T12:38:16Z</time><extensions><speed>1.392263</speed><course>168.600174</course><hAcc>0.883691</hAcc><vAcc>0.713415</vAcc></extensions></trkpt>
      <trkpt lon="-3.311857" lat="54.561428"><ele>105.373482</ele><time>2021-08-12T12:38:17Z</time><extensions><speed>1.403161</speed><course>171.284561</course><hAcc>0.883737</hAcc><vAcc>0.713676</vAcc></extensions></trkpt>
      <trkpt lon="-3.311871" lat="54.561438"><ele>105.324028</ele><time>2021-08-12T12:38:18Z</time><extensions><speed>1.413046</speed><course>171.842682</course><hAcc>0.883799</hAcc><vAcc>0.713993</vAcc></extensions></trkpt>
      <trkpt lon="-3.311884" lat="54.561448"><ele>105.274712</ele><time>2021-08-12T12:38:19Z</time><extensions><speed>1.422057</speed><course>181.313644</course><hAcc>0.883874</hAcc><vAcc>0.714341</vAcc></extensions></trkpt>
      <trkpt lon="-3.311898" lat="54.561458"><ele>105.227936</ele><time>2021-08-12T12:38:20Z</time><extensions><speed>1.430418</speed><course>190.410019</course><hAcc>0.883957</hAcc><vAcc>0.714699</vAcc></extensions></trkpt>
      <trkpt lon="-3.311912" lat="54.561469"><ele>105.186073</ele><time>2021-08-12T12:38:21Z</time><extensions><speed>1.438064</speed><course>183.456787</course><hAcc>0.884044</hAcc><vAcc>0.715050</vAcc></extensions></trkpt>
      <trkpt lon="-3.311925" lat="54.561479"><ele>105.151535</ele><time>2021-08-12T12:38:22Z</time><extensions><speed>1.445174</speed><course>177.845047</course><hAcc>0.884131</hAcc><vAcc>0.715381</vAcc></extensions></trkpt>
      <trkpt lon="-3.311939" lat="54.561489"><ele>105.126625</ele><time>2021-08-12T12:38:23Z</time><extensions><speed>1.452144</speed><course>172.967087</course><hAcc>0.884215</hAcc><vAcc>0.715685</vAcc></extensions></trkpt>
      <trkpt lon="-3.311952" lat="54.561500"><ele>105.113617</ele><time>2021-08-12T12:38:24Z</time><extensions><speed>1.458733</speed><course>172.835464</course><hAcc>0.884293</hAcc><vAcc>0.715961</vAcc></extensions></trkpt>
      <trkpt lon="-3.311966" lat="54.561510"><ele>105.114685</ele><time>2021-08-12T12:38:25Z</time><extensions><speed>1.464937</speed><course>172.584564</course><hAcc>0.884363</hAcc><vAcc>0.716210</vAcc></extensions></trkpt>
      <trkpt lon="-3.311979" lat="54.561521"><ele>105.131386</ele><time>2021-08-12T12:38:26Z</time><extensions><speed>1.470805</speed><course>176.315567</course><hAcc>0.884423</hAcc><vAcc>0.716432</vAcc></extensions></trkpt>
      <trkpt lon="-3.311993" lat="54.561531"><ele>105.164185</ele><time>2021-08-12T12:38:27Z</time><extensions><speed>1.475625</speed><course>181.257629</course><hAcc>0.884471</hAcc><vAcc>0.716624</vAcc></extensions></trkpt>
      <trkpt lon="-3.312006" lat="54.561542"><ele>105.212090</ele><time>2021-08-12T12:38:28Z</time><extensions><speed>1.479023</speed><course>183.117218</course><hAcc>0.884508</hAcc><vAcc>0.716783</vAcc></extensions></trkpt>
      <trkpt lon="-3.312019" lat="54.561553"><ele>105.273010</ele><time>2021-08-12T12:38:29Z</time><extensions><speed>1.481067</speed><course>173.768417</course><hAcc>0.884534</hAcc><vAcc>0.716899</vAcc></extensions></trkpt>
      <trkpt lon="-3.312032" lat="54.561564"><ele>105.344238</ele><time>2021-08-12T12:38:30Z</time><extensions><speed>1.481765</speed><course>175.817612</course><hAcc>0.884549</hAcc><vAcc>0.716967</vAcc></extensions></trkpt>
      <trkpt lon="-3.312045" lat="54.561575"><ele>105.422775</ele><time>2021-08-12T12:38:31Z</time><extensions><speed>1.481244</speed><course>174.962723</course><hAcc>0.884555</hAcc><vAcc>0.716984</vAcc></extensions></trkpt>
      <trkpt lon="-3.312058" lat="54.561586"><ele>105.505455</ele><time>2021-08-12T12:38:32Z</time><extensions><speed>1.479962</speed><course>170.163239</course><hAcc>0.884553</hAcc><vAcc>0.716950</vAcc></extensions></trkpt>
      <trkpt lon="-3.312070" lat="54.561597"><ele>105.589363</ele><time>2021-08-12T12:38:33Z</time><extensions><speed>1.478396</speed><course>170.136551</course><hAcc>0.884543</hAcc><vAcc>0.716874</vAcc></extensions></trkpt>
      <trkpt lon="-3.312083" lat="54.561608"><ele>105.672157</ele><time>2021-08-12T12:38:34Z</time><extensions><speed>1.476838</speed><course>162.390869</course><hAcc>0.884528</hAcc><vAcc>0.716769</vAcc></extensions></trkpt>
      <trkpt lon="-3.312095" lat="54.561619"><ele>105.751991</ele><time>2021-08-12T12:38:35Z</time><extensions><speed>1.475707</speed><course>155.510605</course><hAcc>0.884510</hAcc><vAcc>0.716649</vAcc></extensions></trkpt>
      <trkpt lon="-3.312108" lat="54.561631"><ele>105.827530</ele><time>2021-08-12T12:38:36Z</time><extensions><speed>1.475387</speed><course>158.442108</course><hAcc>0.884489</hAcc><vAcc>0.716529</vAcc></extensions></trkpt>
      <trkpt lon="-3.312120" lat="54.561642"><ele>105.897934</ele><time>2021-08-12T12:38:37Z</time><extensions><speed>1.475971</speed><course>161.225479</course><hAcc>0.884468</hAcc><vAcc>0.716421</vAcc></extensions></trkpt>
      <trkpt lon="-3.312133" lat="54.561653"><ele>105.962936</ele><time>2021-08-12T12:38:38Z</time><extensions><speed>1.477088</speed><course>162.291626</course><hAcc>0.884447</hAcc><vAcc>0.716334</vAcc></extensions></trkpt>
      <trkpt lon="-3.312146" lat="54.561664"><ele>106.022659</ele><time>2021-08-12T12:38:39Z</time><extensions><speed>1.478157</speed><course>163.167831</course><hAcc>0.884429</hAcc><vAcc>0.716272</vAcc></extensions></trkpt>
      <trkpt lon="-3.312159" lat="54.561675"><ele>106.076935</ele><time>2021-08-12T12:38:40Z</time><extensions><speed>1.478722</speed><course>161.288498</course><hAcc>0.884412</hAcc><vAcc>0.716232</vAcc></extensions></trkpt>
      <trkpt lon="-3.312172" lat="54.561685"><ele>106.125114</ele><time>2021-08-12T12:38:41Z</time><extensions><speed>1.478302</speed><course>157.987350</course><hAcc>0.884398</hAcc><vAcc>0.716207</vAcc></extensions></trkpt>
      <trkpt lon="-3.312185" lat="54.561696"><ele>106.166405</ele><time>2021-08-12T12:38:42Z</time><extensions><speed>1.476635</speed><course>173.323715</course><hAcc>0.884387</hAcc><vAcc>0.716191</vAcc></extensions></trkpt>
      <trkpt lon="-3.312198" lat="54.561707"><ele>106.199715</ele><time>2021-08-12T12:38:43Z</time><extensions><speed>1.473707</speed><course>166.675858</course><hAcc>0.884377</hAcc><vAcc>0.716177</vAcc></extensions></trkpt>
      <trkpt lon="-3.312212" lat="54.561718"><ele>106.223877</ele><time>2021-08-12T12:38:44Z</time><extensions><speed>1.469611</speed><course>160.834595</course><hAcc>0.884369</hAcc><vAcc>0.716164</vAcc></extensions></trkpt>
      <trkpt lon="-3.312225" lat="54.561729"><ele>106.237877</ele><time>2021-08-12T12:38:45Z</time><extensions><speed>1.464945</speed><course>151.548553</course><hAcc>0.884360</hAcc><vAcc>0.716148</vAcc></extensions></trkpt>
      <trkpt lon="-3.312238" lat="54.561739"><ele>106.240715</ele><time>2021-08-12T12:38:46Z</time><extensions><speed>1.460390</speed><course>158.698013</course><hAcc>0.884352</hAcc><vAcc>0.716125</vAcc></extensions></trkpt>
      <trkpt lon="-3.312251" lat="54.561750"><ele>106.231514</ele><time>2021-08-12T12:38:47Z</time><extensions><speed>1.456248</speed><course>162.044495</course><hAcc>0.884343</hAcc><vAcc>0.716092</vAcc></extensions></trkpt>
      <trkpt lon="-3.312264" lat="54.561760"><ele>106.209869</ele><time>2021-08-12T12:38:48Z</time><extensions><speed>1.452791</speed><course>165.250092</course><hAcc>0.884334</hAcc><vAcc>0.716051</vAcc></extensions></trkpt>
      <trkpt lon="-3.312278" lat="54.561771"><ele>106.175941</ele><time>2021-08-12T12:38:49Z</time><extensions><speed>1.450341</speed><course>170.479752</course><hAcc>0.884325</hAcc><vAcc>0.716004</vAcc></extensions></trkpt>
      <trkpt lon="-3.312291" lat="54.561781"><ele>106.130318</ele><time>2021-08-12T12:38:50Z</time><extensions><speed>1.449044</speed><course>171.775650</course><hAcc>0.884318</hAcc><vAcc>0.715954</vAcc></extensions></trkpt>
      <trkpt lon="-3.312304" lat="54.561792"><ele>106.073929</ele><time>2021-08-12T12:38:51Z</time><extensions><speed>1.449188</speed><course>166.869843</course><hAcc>0.884313</hAcc><vAcc>0.715904</vAcc></extensions></trkpt>
      <trkpt lon="-3.312318" lat="54.561802"><ele>106.008102</ele><time>2021-08-12T12:38:52Z</time><extensions><speed>1.450830</speed><course>162.267441</course><hAcc>0.884313</hAcc><vAcc>0.715862</vAcc></extensions></trkpt>
      <trkpt lon="-3.312332" lat="54.561812"><ele>105.934364</ele><time>2021-08-12T12:38:53Z</time><extensions><speed>1.453766</speed><course>166.691605</course><hAcc>0.884316</hAcc><vAcc>0.715838</vAcc></extensions></trkpt>
      <trkpt lon="-3.312346" lat="54.561823"><ele>105.854271</ele><time>2021-08-12T12:38:54Z</time><extensions><speed>1.458059</speed><course>176.048813</course><hAcc>0.884324</hAcc><vAcc>0.715844</vAcc></extensions></trkpt>
      <trkpt lon="-3.312360" lat="54.561833"><ele>105.769417</ele><time>2021-08-12T12:38:55Z</time><extensions><speed>1.463210</speed><course>187.168427</course><hAcc>0.884336</hAcc><vAcc>0.715886</vAcc></extensions></trkpt>
      <trkpt lon="-3.312375" lat="54.561843"><ele>105.681168</ele><time>2021-08-12T12:38:56Z</time><extensions><speed>1.468248</speed><course>184.969528</course><hAcc>0.884351</hAcc><vAcc>0.715964</vAcc></extensions></trkpt>
      <trkpt lon="-3.312390" lat="54.561853"><ele>105.590309</ele><time>2021-08-12T12:38:57Z</time><extensions><speed>1.472533</speed><course>188.020355</course><hAcc>0.884368</hAcc><vAcc>0.716071</vAcc></extensions></trkpt>
      <trkpt lon="-3.312405" lat="54.561863"><ele>105.497307</ele><time>2021-08-12T12:38:58Z</time><extensions><speed>1.475490</speed><course>187.008438</course><hAcc>0.884386</hAcc><vAcc>0.716195</vAcc></extensions></trkpt>
      <trkpt lon="-3.312420" lat="54.561872"><ele>105.402473</ele><time>2021-08-12T12:38:59Z</time><extensions><speed>1.476426</speed><course>193.777908</course><hAcc>0.884404</hAcc><vAcc>0.716319</vAcc></extensions></trkpt>
      <trkpt lon="-3.312436" lat="54.561882"><ele>105.305519</ele><time>2021-08-12T12:39:00Z</time><extensions><speed>1.475152</speed><course>197.196976</course><hAcc>0.884418</hAcc><vAcc>0.716431</vAcc></extensions></trkpt>
      <trkpt lon="-3.312451" lat="54.561892"><ele>105.205467</ele><time>2021-08-12T12:39:01Z</time><extensions><speed>1.471749</speed><course>206.264206</course><hAcc>0.884428</hAcc><vAcc>0.716515</vAcc></extensions></trkpt>
      <trkpt lon="-3.312466" lat="54.561902"><ele>105.101158</ele><time>2021-08-12T12:39:02Z</time><extensions><speed>1.466473</speed><course>213.153137</course><hAcc>0.884432</hAcc><vAcc>0.716559</vAcc></extensions></trkpt>
      <trkpt lon="-3.312480" lat="54.561912"><ele>104.991501</ele><time>2021-08-12T12:39:03Z</time><extensions><speed>1.459817</speed><course>218.435745</course><hAcc>0.884431</hAcc><vAcc>0.716556</vAcc></extensions></trkpt>
      <trkpt lon="-3.312495" lat="54.561922"><ele>104.875702</ele><time>2021-08-12T12:39:04Z</time><extensions><speed>1.452297</speed><course>220.768875</course><hAcc>0.884425</hAcc><vAcc>0.716505</vAcc></extensions></trkpt>
      <trkpt lon="-3.312509" lat="54.561932"><ele>104.753304</ele><time>2021-08-12T12:39:05Z</time><extensions><speed>1.444708</speed><course>225.526031</course><hAcc>0.884415</hAcc><vAcc>0.716413</vAcc></extensions></trkpt>
      <trkpt lon="-3.312523" lat="54.561942"><ele>104.624252</ele><time>2021-08-12T12:39:06Z</time><extensions><speed>1.437856</speed><course>228.183807</course><hAcc>0.884403</hAcc><vAcc>0.716297</vAcc></extensions></trkpt>
      <trkpt lon="-3.312536" lat="54.561953"><ele>104.489029</ele><time>2021-08-12T12:39:07Z</time><extensions><speed>1.432450</speed><course>215.749130</course><hAcc>0.884390</hAcc><vAcc>0.716176</vAcc></extensions></trkpt>
      <trkpt lon="-3.312550" lat="54.561963"><ele>104.348709</ele><time>2021-08-12T12:39:08Z</time><extensions><speed>1.428675</speed><course>213.981155</course><hAcc>0.884379</hAcc><vAcc>0.716069</vAcc></extensions></trkpt>
      <trkpt lon="-3.312563" lat="54.561973"><ele>104.204887</ele><time>2021-08-12T12:39:09Z</time><extensions><speed>1.426004</speed><course>211.229813</course><hAcc>0.884373</hAcc><vAcc>0.715994</vAcc></extensions></trkpt>
      <trkpt lon="-3.312576" lat="54.561983"><ele>104.059593</ele><time>2021-08-12T12:39:10Z</time><extensions><speed>1.424035</speed><course>202.385132</course><hAcc>0.884372</hAcc><vAcc>0.715963</vAcc></extensions></trkpt>
      <trkpt lon="-3.312589" lat="54.561994"><ele>103.915016</ele><time>2021-08-12T12:39:11Z</time><extensions><speed>1.422813</speed><course>206.139267</course><hAcc>0.884379</hAcc><vAcc>0.715981</vAcc></extensions></trkpt>
      <trkpt lon="-3.312602" lat="54.562004"><ele>103.772926</ele><time>2021-08-12T12:39:12Z</time><extensions><speed>1.422374</speed><course>210.188431</course><hAcc>0.884394</hAcc><vAcc>0.716048</vAcc></extensions></trkpt>
      <trkpt lon="-3.312616" lat="54.562014"><ele>103.634476</ele><time>2021-08-12T12:39:13Z</time><extensions><speed>1.422643</speed><course>215.015762</course><hAcc>0.884415</hAcc><vAcc>0.716162</vAcc></extensions></trkpt>
      <trkpt lon="-3.312630" lat="54.562024"><ele>103.500504</ele><time>2021-08-12T12:39:14Z</time><extensions><speed>1.423479</speed><course>213.199860</course><hAcc>0.884440</hAcc><vAcc>0.716313</vAcc></extensions></trkpt>
      <trkpt lon="-3.312645" lat="54.562033"><ele>103.372040</ele><time>2021-08-12T12:39:15Z</time><extensions><speed>1.424459</speed><course>212.921936</course><hAcc>0.884469</hAcc><vAcc>0.716486</vAcc></extensions></trkpt>
      <trkpt lon="-3.312660" lat="54.562043"><ele>103.250336</ele><time>2021-08-12T12:39:16Z</time><extensions><speed>1.424856</speed><course>209.879272</course><hAcc>0.884496</hAcc><vAcc>0.716661</vAcc></extensions></trkpt>
      <trkpt lon="-3.312675" lat="54.562052"><ele>103.136368</ele><time>2021-08-12T12:39:17Z</time><extensions><speed>1.424034</speed><course>199.650558</course><hAcc>0.884521</hAcc><vAcc>0.716816</vAcc></extensions></trkpt>
      <trkpt lon="-3.312691" lat="54.562061"><ele>103.030678</ele><time>2021-08-12T12:39:18Z</time><extensions><speed>1.421773</speed><course>201.752075</course><hAcc>0.884540</hAcc><vAcc>0.716930</vAcc></extensions></trkpt>
      <trkpt lon="-3.312707" lat="54.562069"><ele>102.933525</ele><time>2021-08-12T12:39:19Z</time><extensions><speed>1.417410</speed><course>199.120544</course><hAcc>0.884551</hAcc><vAcc>0.716988</vAcc></extensions></trkpt>
      <trkpt lon="-3.312723" lat="54.562078"><ele>102.845093</ele><time>2021-08-12T12:39:20Z</time><extensions><speed>1.410379</speed><course>202.497513</course><hAcc>0.884553</hAcc><vAcc>0.716981</vAcc></extensions></trkpt>
      <trkpt lon="-3.312740" lat="54.562086"><ele>102.765610</ele><time>2021-08-12T12:39:21Z</time><extensions><speed>1.400933</speed><course>196.851593</course><hAcc>0.884545</hAcc><vAcc>0.716906</vAcc></extensions></trkpt>
      <trkpt lon="-3.312757" lat="54.562094"><ele>102.695435</ele><time>2021-08-12T12:39:22Z</time><extensions><speed>1.389635</speed><course>196.061951</course><hAcc>0.884528</hAcc><vAcc>0.716769</vAcc></extensions></trkpt>
      <trkpt lon="-3.312774" lat="54.562101"><ele>102.635216</ele><time>2021-08-12T12:39:24Z</time><extensions><speed>1.377534</speed><course>196.279495</course><hAcc>0.884486</hAcc><vAcc>0.716565</vAcc></extensions></trkpt>
      <trkpt lon="-3.312791" lat="54.562109"><ele>102.586205</ele><time>2021-08-12T12:39:25Z</time><extensions><speed>1.366156</speed><course>194.457642</course><hAcc>0.884417</hAcc><vAcc>0.716307</vAcc></extensions></trkpt>
      <trkpt lon="-3.312808" lat="54.562116"><ele>102.549873</ele><time>2021-08-12T12:39:26Z</time><extensions><speed>1.356099</speed><course>194.987076</course><hAcc>0.884344</hAcc><vAcc>0.716021</vAcc></extensions></trkpt>
      <trkpt lon="-3.312825" lat="54.562123"><ele>102.527725</ele><time>2021-08-12T12:39:27Z</time><extensions><speed>1.346909</speed><course>191.030731</course><hAcc>0.884265</hAcc><vAcc>0.715722</vAcc></extensions></trkpt>
      <trkpt lon="-3.312843" lat="54.562129"><ele>102.520470</ele><time>2021-08-12T12:39:28Z</time><extensions><speed>1.337850</speed><course>192.563599</course><hAcc>0.884183</hAcc><vAcc>0.715417</vAcc></extensions></trkpt>
      <trkpt lon="-3.312860" lat="54.562135"><ele>102.527748</ele><time>2021-08-12T12:39:29Z</time><extensions><speed>1.328650</speed><course>204.158295</course><hAcc>0.884099</hAcc><vAcc>0.715110</vAcc></extensions></trkpt>
      <trkpt lon="-3.312878" lat="54.562141"><ele>102.548691</ele><time>2021-08-12T12:39:30Z</time><extensions><speed>1.319272</speed><course>221.097565</course><hAcc>0.884014</hAcc><vAcc>0.714806</vAcc></extensions></trkpt>
      <trkpt lon="-3.312896" lat="54.562147"><ele>102.582420</ele><time>2021-08-12T12:39:31Z</time><extensions><speed>1.309328</speed><course>200.067871</course><hAcc>0.883931</hAcc><vAcc>0.714506</vAcc></extensions></trkpt>
      <trkpt lon="-3.312914" lat="54.562152"><ele>102.628273</ele><time>2021-08-12T12:39:32Z</time><extensions><speed>1.298823</speed><course>192.146652</course><hAcc>0.883848</hAcc><vAcc>0.714216</vAcc></extensions></trkpt>
      <trkpt lon="-3.312932" lat="54.562157"><ele>102.685837</ele><time>2021-08-12T12:39:33Z</time><extensions><speed>1.287487</speed><course>186.218857</course><hAcc>0.883766</hAcc><vAcc>0.713939</vAcc></extensions></trkpt>
      <trkpt lon="-3.312950" lat="54.562161"><ele>102.754929</ele><time>2021-08-12T12:39:34Z</time><extensions><speed>1.274758</speed><course>173.782028</course><hAcc>0.883685</hAcc><vAcc>0.713673</vAcc></extensions></trkpt>
      <trkpt lon="-3.312968" lat="54.562166"><ele>102.835327</ele><time>2021-08-12T12:39:35Z</time><extensions><speed>1.259958</speed><course>172.546844</course><hAcc>0.883603</hAcc><vAcc>0.713415</vAcc></extensions></trkpt>
      <trkpt lon="-3.312986" lat="54.562170"><ele>102.926338</ele><time>2021-08-12T12:39:36Z</time><extensions><speed>1.242322</speed><course>169.147308</course><hAcc>0.883521</hAcc><vAcc>0.713159</vAcc></extensions></trkpt>
      <trkpt lon="-3.313004" lat="54.562175"><ele>103.026489</ele><time>2021-08-12T12:39:37Z</time><extensions><speed>1.222073</speed><course>175.030243</course><hAcc>0.883438</hAcc><vAcc>0.712902</vAcc></extensions></trkpt>
      <trkpt lon="-3.313021" lat="54.562179"><ele>103.133652</ele><time>2021-08-12T12:39:38Z</time><extensions><speed>1.200355</speed><course>176.024857</course><hAcc>0.883353</hAcc><vAcc>0.712638</vAcc></extensions></trkpt>
      <trkpt lon="-3.313038" lat="54.562183"><ele>103.245270</ele><time>2021-08-12T12:39:38Z</time><extensions><speed>1.178338</speed><course>167.750061</course><hAcc>0.883284</hAcc><vAcc>0.712381</vAcc></extensions></trkpt>
      <trkpt lon="-3.313054" lat="54.562187"><ele>103.359207</ele><time>2021-08-12T12:39:39Z</time><extensions><speed>1.158114</speed><course>166.478531</course><hAcc>0.883232</hAcc><vAcc>0.712132</vAcc></extensions></trkpt>
      <trkpt lon="-3.313070" lat="54.562192"><ele>103.473221</ele><time>2021-08-12T12:39:40Z</time><extensions><speed>1.142047</speed><course>177.845245</course><hAcc>0.883180</hAcc><vAcc>0.711884</vAcc></extensions></trkpt>
      <trkpt lon="-3.313086" lat="54.562197"><ele>103.585335</ele><time>2021-08-12T12:39:41Z</time><extensions><speed>1.130519</speed><course>190.283463</course><hAcc>0.883129</hAcc><vAcc>0.711646</vAcc></extensions></trkpt>
      <trkpt lon="-3.313101" lat="54.562202"><ele>103.693710</ele><time>2021-08-12T12:39:42Z</time><extensions><speed>1.123617</speed><course>173.845520</course><hAcc>0.883082</hAcc><vAcc>0.711427</vAcc></extensions></trkpt>
      <trkpt lon="-3.313116" lat="54.562207"><ele>103.796745</ele><time>2021-08-12T12:39:43Z</time><extensions><speed>1.121340</speed><course>176.694504</course><hAcc>0.883039</hAcc><vAcc>0.711235</vAcc></extensions></trkpt>
      <trkpt lon="-3.313130" lat="54.562213"><ele>103.893135</ele><time>2021-08-12T12:39:44Z</time><extensions><speed>1.122667</speed><course>180.653168</course><hAcc>0.883001</hAcc><vAcc>0.711077</vAcc></extensions></trkpt>
      <trkpt lon="-3.313144" lat="54.562219"><ele>103.981964</ele><time>2021-08-12T12:39:45Z</time><extensions><speed>1.126517</speed><course>182.832565</course><hAcc>0.882968</hAcc><vAcc>0.710955</vAcc></extensions></trkpt>
      <trkpt lon="-3.313158" lat="54.562225"><ele>104.062912</ele><time>2021-08-12T12:39:46Z</time><extensions><speed>1.132651</speed><course>184.430664</course><hAcc>0.882940</hAcc><vAcc>0.710868</vAcc></extensions></trkpt>
      <trkpt lon="-3.313171" lat="54.562232"><ele>104.135986</ele><time>2021-08-12T12:39:47Z</time><extensions><speed>1.141049</speed><course>191.571152</course><hAcc>0.882915</hAcc><vAcc>0.710807</vAcc></extensions></trkpt>
      <trkpt lon="-3.313183" lat="54.562239"><ele>104.201408</ele><time>2021-08-12T12:39:48Z</time><extensions><speed>1.151773</speed><course>188.334396</course><hAcc>0.882893</hAcc><vAcc>0.710762</vAcc></extensions></trkpt>
      <trkpt lon="-3.313196" lat="54.562246"><ele>104.259842</ele><time>2021-08-12T12:39:49Z</time><extensions><speed>1.164882</speed><course>180.084595</course><hAcc>0.882870</hAcc><vAcc>0.710723</vAcc></extensions></trkpt>
      <trkpt lon="-3.313208" lat="54.562254"><ele>104.312210</ele><time>2021-08-12T12:39:50Z</time><extensions><speed>1.179579</speed><course>187.894241</course><hAcc>0.882845</hAcc><vAcc>0.710676</vAcc></extensions></trkpt>
      <trkpt lon="-3.313220" lat="54.562262"><ele>104.359589</ele><time>2021-08-12T12:39:51Z</time><extensions><speed>1.194641</speed><course>180.225311</course><hAcc>0.882814</hAcc><vAcc>0.710610</vAcc></extensions></trkpt>
      <trkpt lon="-3.313232" lat="54.562271"><ele>104.403114</ele><time>2021-08-12T12:39:52Z</time><extensions><speed>1.209592</speed><course>181.464844</course><hAcc>0.882777</hAcc><vAcc>0.710512</vAcc></extensions></trkpt>
      <trkpt lon="-3.313243" lat="54.562280"><ele>104.443687</ele><time>2021-08-12T12:39:53Z</time><extensions><speed>1.224190</speed><course>172.472961</course><hAcc>0.882732</hAcc><vAcc>0.710370</vAcc></extensions></trkpt>
      <trkpt lon="-3.313254" lat="54.562288"><ele>104.481789</ele><time>2021-08-12T12:39:54Z</time><extensions><speed>1.237717</speed><course>169.236877</course><hAcc>0.882677</hAcc><vAcc>0.710176</vAcc></extensions></trkpt>
      <trkpt lon="-3.313265" lat="54.562298"><ele>104.517578</ele><time>2021-08-12T12:39:55Z</time><extensions><speed>1.250031</speed><course>177.236481</course><hAcc>0.882613</hAcc><vAcc>0.709929</vAcc></extensions></trkpt>
      <trkpt lon="-3.313276" lat="54.562307"><ele>104.550880</ele><time>2021-08-12T12:39:56Z</time><extensions><speed>1.261413</speed><course>163.942307</course><hAcc>0.882540</hAcc><vAcc>0.709630</vAcc></extensions></trkpt>
      <trkpt lon="-3.313287" lat="54.562316"><ele>104.581375</ele><time>2021-08-12T12:39:57Z</time><extensions><speed>1.272125</speed><course>163.633789</course><hAcc>0.882459</hAcc><vAcc>0.709293</vAcc></extensions></trkpt>
      <trkpt lon="-3.313298" lat="54.562326"><ele>104.609039</ele><time>2021-08-12T12:39:58Z</time><extensions><speed>1.282779</speed><course>167.868469</course><hAcc>0.882372</hAcc><vAcc>0.708932</vAcc></extensions></trkpt>
      <trkpt lon="-3.313308" lat="54.562336"><ele>104.634262</ele><time>2021-08-12T12:39:59Z</time><extensions><speed>1.293810</speed><course>174.357651</course><hAcc>0.882280</hAcc><vAcc>0.708564</vAcc></extensions></trkpt>
      <trkpt lon="-3.313318" lat="54.562346"><ele>104.657570</ele><time>2021-08-12T12:40:00Z</time><extensions><speed>1.305435</speed><course>183.399078</course><hAcc>0.882186</hAcc><vAcc>0.708199</vAcc></extensions></trkpt>
      <trkpt lon="-3.313327" lat="54.562357"><ele>104.679451</ele><time>2021-08-12T12:40:01Z</time><extensions><speed>1.318022</speed><course>182.292389</course><hAcc>0.882091</hAcc><vAcc>0.707844</vAcc></extensions></trkpt>
      <trkpt lon="-3.313337" lat="54.562367"><ele>104.700394</ele><time>2021-08-12T12:40:02Z</time><extensions><speed>1.332213</speed><course>175.359222</course><hAcc>0.881998</hAcc><vAcc>0.707503</vAcc></extensions></trkpt>
      <trkpt lon="-3.313346" lat="54.562378"><ele>104.720978</ele><time>2021-08-12T12:40:03Z</time><extensions><speed>1.348322</speed><course>177.486053</course><hAcc>0.881910</hAcc><vAcc>0.707176</vAcc></extensions></trkpt>
      <trkpt lon="-3.313354" lat="54.562389"><ele>104.742027</ele><time>2021-08-12T12:40:04Z</time><extensions><speed>1.365722</speed><course>181.315781</course><hAcc>0.881827</hAcc><vAcc>0.706863</vAcc></extensions></trkpt>
      <trkpt lon="-3.313363" lat="54.562400"><ele>104.764679</ele><time>2021-08-12T12:40:05Z</time><extensions><speed>1.383216</speed><course>179.795090</course><hAcc>0.881752</hAcc><vAcc>0.706573</vAcc></extensions></trkpt>
      <trkpt lon="-3.313371" lat="54.562412"><ele>104.790321</ele><time>2021-08-12T12:40:06Z</time><extensions><speed>1.399748</speed><course>183.125519</course><hAcc>0.881687</hAcc><vAcc>0.706312</vAcc></extensions></trkpt>
      <trkpt lon="-3.313378" lat="54.562424"><ele>104.820358</ele><time>2021-08-12T12:40:07Z</time><extensions><speed>1.414769</speed><course>190.593063</course><hAcc>0.881633</hAcc><vAcc>0.706090</vAcc></extensions></trkpt>
      <trkpt lon="-3.313386" lat="54.562436"><ele>104.855637</ele><time>2021-08-12T12:40:08Z</time><extensions><speed>1.428034</speed><course>189.782837</course><hAcc>0.881590</hAcc><vAcc>0.705914</vAcc></extensions></trkpt>
      <trkpt lon="-3.313393" lat="54.562448"><ele>104.896156</ele><time>2021-08-12T12:40:09Z</time><extensions><speed>1.439372</speed><course>197.604797</course><hAcc>0.881559</hAcc><vAcc>0.705791</vAcc></extensions></trkpt>
      <trkpt lon="-3.313400" lat="54.562460"><ele>104.941490</ele><time>2021-08-12T12:40:10Z</time><extensions><speed>1.448912</speed><course>201.672623</course><hAcc>0.881540</hAcc><vAcc>0.705723</vAcc></extensions></trkpt>
      <trkpt lon="-3.313406" lat="54.562473"><ele>104.991089</ele><time>2021-08-12T12:40:11Z</time><extensions><speed>1.457069</speed><course>197.000641</course><hAcc>0.881532</hAcc><vAcc>0.705709</vAcc></extensions></trkpt>
      <trkpt lon="-3.313411" lat="54.562486"><ele>105.044350</ele><time>2021-08-12T12:40:12Z</time><extensions><speed>1.464034</speed><course>191.293869</course><hAcc>0.881533</hAcc><vAcc>0.705743</vAcc></extensions></trkpt>
      <trkpt lon="-3.313416" lat="54.562499"><ele>105.100456</ele><time>2021-08-12T12:40:13Z</time><extensions><speed>1.469664</speed><course>194.897507</course><hAcc>0.881541</hAcc><vAcc>0.705813</vAcc></extensions></trkpt>
      <trkpt lon="-3.313420" lat="54.562512"><ele>105.158485</ele><time>2021-08-12T12:40:14Z</time><extensions><speed>1.473421</speed><course>199.905396</course><hAcc>0.881551</hAcc><vAcc>0.705910</vAcc></extensions></trkpt>
      <trkpt lon="-3.313423" lat="54.562525"><ele>105.217735</ele><time>2021-08-12T12:40:15Z</time><extensions><speed>1.474851</speed><course>191.253860</course><hAcc>0.881561</hAcc><vAcc>0.706017</vAcc></extensions></trkpt>
      <trkpt lon="-3.313426" lat="54.562538"><ele>105.277893</ele><time>2021-08-12T12:40:16Z</time><extensions><speed>1.473968</speed><course>196.436401</course><hAcc>0.881566</hAcc><vAcc>0.706110</vAcc></extensions></trkpt>
      <trkpt lon="-3.313427" lat="54.562551"><ele>105.338531</ele><time>2021-08-12T12:40:17Z</time><extensions><speed>1.470986</speed><course>194.471405</course><hAcc>0.881564</hAcc><vAcc>0.706167</vAcc></extensions></trkpt>
      <trkpt lon="-3.313428" lat="54.562564"><ele>105.398750</ele><time>2021-08-12T12:40:18Z</time><extensions><speed>1.465973</speed><course>203.377548</course><hAcc>0.881551</hAcc><vAcc>0.706170</vAcc></extensions></trkpt>
      <trkpt lon="-3.313429" lat="54.562577"><ele>105.457275</ele><time>2021-08-12T12:40:19Z</time><extensions><speed>1.458875</speed><course>200.707382</course><hAcc>0.881526</hAcc><vAcc>0.706107</vAcc></extensions></trkpt>
      <trkpt lon="-3.313428" lat="54.562590"><ele>105.512848</ele><time>2021-08-12T12:40:20Z</time><extensions><speed>1.449834</speed><course>200.338181</course><hAcc>0.881488</hAcc><vAcc>0.705966</vAcc></extensions></trkpt>
      <trkpt lon="-3.313428" lat="54.562603"><ele>105.564148</ele><time>2021-08-12T12:40:21Z</time><extensions><speed>1.439257</speed><course>195.631638</course><hAcc>0.881439</hAcc><vAcc>0.705746</vAcc></extensions></trkpt>
      <trkpt lon="-3.313426" lat="54.562616"><ele>105.609741</ele><time>2021-08-12T12:40:22Z</time><extensions><speed>1.427775</speed><course>195.677185</course><hAcc>0.881381</hAcc><vAcc>0.705460</vAcc></extensions></trkpt>
      <trkpt lon="-3.313425" lat="54.562629"><ele>105.648361</ele><time>2021-08-12T12:40:23Z</time><extensions><speed>1.416101</speed><course>184.605865</course><hAcc>0.881316</hAcc><vAcc>0.705140</vAcc></extensions></trkpt>
      <trkpt lon="-3.313424" lat="54.562642"><ele>105.679512</ele><time>2021-08-12T12:40:24Z</time><extensions><speed>1.404743</speed><course>178.328476</course><hAcc>0.881248</hAcc><vAcc>0.704822</vAcc></extensions></trkpt>
      <trkpt lon="-3.313422" lat="54.562654"><ele>105.703560</ele><time>2021-08-12T12:40:25Z</time><extensions><speed>1.393355</speed><course>178.768524</course><hAcc>0.881181</hAcc><vAcc>0.704531</vAcc></extensions></trkpt>
      <trkpt lon="-3.313421" lat="54.562667"><ele>105.721451</ele><time>2021-08-12T12:40:26Z</time><extensions><speed>1.381675</speed><course>182.332596</course><hAcc>0.881119</hAcc><vAcc>0.704277</vAcc></extensions></trkpt>
      <trkpt lon="-3.313420" lat="54.562679"><ele>105.734413</ele><time>2021-08-12T12:40:27Z</time><extensions><speed>1.370219</speed><course>191.756653</course><hAcc>0.881065</hAcc><vAcc>0.704060</vAcc></extensions></trkpt>
      <trkpt lon="-3.313419" lat="54.562691"><ele>105.743652</ele><time>2021-08-12T12:40:28Z</time><extensions><speed>1.359439</speed><course>203.978195</course><hAcc>0.881024</hAcc><vAcc>0.703887</vAcc></extensions></trkpt>
      <trkpt lon="-3.313419" lat="54.562703"><ele>105.750175</ele><time>2021-08-12T12:40:29Z</time><extensions><speed>1.349692</speed><course>202.440933</course><hAcc>0.880996</hAcc><vAcc>0.703770</vAcc></extensions></trkpt>
      <trkpt lon="-3.313419" lat="54.562716"><ele>105.755020</ele><time>2021-08-12T12:40:30Z</time><extensions><speed>1.341371</speed><course>203.898193</course><hAcc>0.880985</hAcc><vAcc>0.703722</vAcc></extensions></trkpt>
      <trkpt lon="-3.313420" lat="54.562728"><ele>105.759155</ele><time>2021-08-12T12:40:31Z</time><extensions><speed>1.334555</speed><course>196.085449</course><hAcc>0.880992</hAcc><vAcc>0.703747</vAcc></extensions></trkpt>
      <trkpt lon="-3.313421" lat="54.562739"><ele>105.763039</ele><time>2021-08-12T12:40:32Z</time><extensions><speed>1.328827</speed><course>192.332047</course><hAcc>0.881017</hAcc><vAcc>0.703844</vAcc></extensions></trkpt>
      <trkpt lon="-3.313423" lat="54.562751"><ele>105.766518</ele><time>2021-08-12T12:40:33Z</time><extensions><speed>1.323618</speed><course>184.787827</course><hAcc>0.881060</hAcc><vAcc>0.704009</vAcc></extensions></trkpt>
      <trkpt lon="-3.313426" lat="54.562763"><ele>105.769119</ele><time>2021-08-12T12:40:34Z</time><extensions><speed>1.319221</speed><course>182.334930</course><hAcc>0.881122</hAcc><vAcc>0.704234</vAcc></extensions></trkpt>
      <trkpt lon="-3.313429" lat="54.562775"><ele>105.770203</ele><time>2021-08-12T12:40:35Z</time><extensions><speed>1.316180</speed><course>191.045288</course><hAcc>0.881201</hAcc><vAcc>0.704512</vAcc></extensions></trkpt>
      <trkpt lon="-3.313433" lat="54.562786"><ele>105.768837</ele><time>2021-08-12T12:40:36Z</time><extensions><speed>1.314412</speed><course>192.992828</course><hAcc>0.881295</hAcc><vAcc>0.704845</vAcc></extensions></trkpt>
      <trkpt lon="-3.313438" lat="54.562798"><ele>105.763908</ele><time>2021-08-12T12:40:37Z</time><extensions><speed>1.313933</speed><course>196.347473</course><hAcc>0.881401</hAcc><vAcc>0.705239</vAcc></extensions></trkpt>
      <trkpt lon="-3.313443" lat="54.562809"><ele>105.754311</ele><time>2021-08-12T12:40:38Z</time><extensions><speed>1.314675</speed><course>191.403625</course><hAcc>0.881514</hAcc><vAcc>0.705694</vAcc></extensions></trkpt>
      <trkpt lon="-3.313449" lat="54.562821"><ele>105.738991</ele><time>2021-08-12T12:40:39Z</time><extensions><speed>1.315784</speed><course>198.431488</course><hAcc>0.881630</hAcc><vAcc>0.706194</vAcc></extensions></trkpt>
      <trkpt lon="-3.313455" lat="54.562832"><ele>105.717072</ele><time>2021-08-12T12:40:40Z</time><extensions><speed>1.316152</speed><course>188.969894</course><hAcc>0.881741</hAcc><vAcc>0.706709</vAcc></extensions></trkpt>
      <trkpt lon="-3.313462" lat="54.562843"><ele>105.687904</ele><time>2021-08-12T12:40:41Z</time><extensions><speed>1.315711</speed><course>180.068573</course><hAcc>0.881840</hAcc><vAcc>0.707198</vAcc></extensions></trkpt>
      <trkpt lon="-3.313469" lat="54.562854"><ele>105.651047</ele><time>2021-08-12T12:40:42Z</time><extensions><speed>1.314406</speed><course>182.057190</course><hAcc>0.881920</hAcc><vAcc>0.707619</vAcc></extensions></trkpt>
      <trkpt lon="-3.313476" lat="54.562865"><ele>105.606377</ele><time>2021-08-12T12:40:43Z</time><extensions><speed>1.311824</speed><course>189.254822</course><hAcc>0.881974</hAcc><vAcc>0.707934</vAcc></extensions></trkpt>
      <trkpt lon="-3.313483" lat="54.562876"><ele>105.554222</ele><time>2021-08-12T12:40:44Z</time><extensions><speed>1.307974</speed><course>193.007187</course><hAcc>0.881995</hAcc><vAcc>0.708109</vAcc></extensions></trkpt>
      <trkpt lon="-3.313491" lat="54.562887"><ele>105.495247</ele><time>2021-08-12T12:40:45Z</time><extensions><speed>1.302693</speed><course>196.037216</course><hAcc>0.881979</hAcc><vAcc>0.708118</vAcc></extensions></trkpt>
      <trkpt lon="-3.313498" lat="54.562898"><ele>105.430077</ele><time>2021-08-12T12:40:46Z</time><extensions><speed>1.295421</speed><course>194.143753</course><hAcc>0.881925</hAcc><vAcc>0.707944</vAcc></extensions></trkpt>
      <trkpt lon="-3.313505" lat="54.562909"><ele>105.359253</ele><time>2021-08-12T12:40:47Z</time><extensions><speed>1.286063</speed><course>191.972519</course><hAcc>0.881832</hAcc><vAcc>0.707580</vAcc></extensions></trkpt>
      <trkpt lon="-3.313512" lat="54.562919"><ele>105.283264</ele><time>2021-08-12T12:40:48Z</time><extensions><speed>1.274800</speed><course>184.873169</course><hAcc>0.881704</hAcc><vAcc>0.707035</vAcc></extensions></trkpt>
      <trkpt lon="-3.313519" lat="54.562930"><ele>105.202332</ele><time>2021-08-12T12:40:49Z</time><extensions><speed>1.261739</speed><course>177.651093</course><hAcc>0.881546</hAcc><vAcc>0.706335</vAcc></extensions></trkpt>
      <trkpt lon="-3.313527" lat="54.562940"><ele>105.116478</ele><time>2021-08-12T12:40:50Z</time><extensions><speed>1.247278</speed><course>183.274033</course><hAcc>0.881366</hAcc><vAcc>0.705525</vAcc></extensions></trkpt>
      <trkpt lon="-3.313534" lat="54.562951"><ele>105.025833</ele><time>2021-08-12T12:40:51Z</time><extensions><speed>1.231983</speed><course>184.483154</course><hAcc>0.881170</hAcc><vAcc>0.704663</vAcc></extensions></trkpt>
      <trkpt lon="-3.313541" lat="54.562961"><ele>104.930923</ele><time>2021-08-12T12:40:52Z</time><extensions><speed>1.216175</speed><course>195.624039</course><hAcc>0.880969</hAcc><vAcc>0.703800</vAcc></extensions></trkpt>
      <trkpt lon="-3.313548" lat="54.562971"><ele>104.832932</ele><time>2021-08-12T12:40:53Z</time><extensions><speed>1.199935</speed><course>199.482956</course><hAcc>0.880769</hAcc><vAcc>0.702977</vAcc></extensions></trkpt>
      <trkpt lon="-3.313555" lat="54.562981"><ele>104.733864</ele><time>2021-08-12T12:40:54Z</time><extensions><speed>1.183709</speed><course>195.828217</course><hAcc>0.880578</hAcc><vAcc>0.702220</vAcc></extensions></trkpt>
      <trkpt lon="-3.313563" lat="54.562990"><ele>104.636322</ele><time>2021-08-12T12:40:55Z</time><extensions><speed>1.167945</speed><course>197.896240</course><hAcc>0.880402</hAcc><vAcc>0.701545</vAcc></extensions></trkpt>
      <trkpt lon="-3.313570" lat="54.563000"><ele>104.543083</ele><time>2021-08-12T12:40:56Z</time><extensions><speed>1.152578</speed><course>190.781921</course><hAcc>0.880244</hAcc><vAcc>0.700958</vAcc></extensions></trkpt>
      <trkpt lon="-3.313578" lat="54.563009"><ele>104.456818</ele><time>2021-08-12T12:40:57Z</time><extensions><speed>1.137598</speed><course>197.436005</course><hAcc>0.880106</hAcc><vAcc>0.700457</vAcc></extensions></trkpt>
      <trkpt lon="-3.313586" lat="54.563018"><ele>104.379700</ele><time>2021-08-12T12:40:58Z</time><extensions><speed>1.123501</speed><course>184.607315</course><hAcc>0.879986</hAcc><vAcc>0.700040</vAcc></extensions></trkpt>
      <trkpt lon="-3.313594" lat="54.563027"><ele>104.313232</ele><time>2021-08-12T12:40:59Z</time><extensions><speed>1.111083</speed><course>181.377640</course><hAcc>0.879881</hAcc><vAcc>0.699702</vAcc></extensions></trkpt>
      <trkpt lon="-3.313601" lat="54.563036"><ele>104.258476</ele><time>2021-08-12T12:41:00Z</time><extensions><speed>1.100849</speed><course>186.925842</course><hAcc>0.879783</hAcc><vAcc>0.699430</vAcc></extensions></trkpt>
      <trkpt lon="-3.313609" lat="54.563045"><ele>104.216270</ele><time>2021-08-12T12:41:01Z</time><extensions><speed>1.093084</speed><course>195.262268</course><hAcc>0.879685</hAcc><vAcc>0.699197</vAcc></extensions></trkpt>
      <trkpt lon="-3.313618" lat="54.563053"><ele>104.187317</ele><time>2021-08-12T12:41:02Z</time><extensions><speed>1.087855</speed><course>191.754074</course><hAcc>0.879575</hAcc><vAcc>0.698965</vAcc></extensions></trkpt>
      <trkpt lon="-3.313626" lat="54.563062"><ele>104.172035</ele><time>2021-08-12T12:41:03Z</time><extensions><speed>1.085570</speed><course>187.836151</course><hAcc>0.879440</hAcc><vAcc>0.698681</vAcc></extensions></trkpt>
      <trkpt lon="-3.313634" lat="54.563070"><ele>104.170418</ele><time>2021-08-12T12:41:04Z</time><extensions><speed>1.087027</speed><course>182.044418</course><hAcc>0.879269</hAcc><vAcc>0.698282</vAcc></extensions></trkpt>
      <trkpt lon="-3.313642" lat="54.563079"><ele>104.182220</ele><time>2021-08-12T12:41:05Z</time><extensions><speed>1.092546</speed><course>192.512772</course><hAcc>0.879050</hAcc><vAcc>0.697700</vAcc></extensions></trkpt>
      <trkpt lon="-3.313651" lat="54.563088"><ele>104.207222</ele><time>2021-08-12T12:41:06Z</time><extensions><speed>1.101610</speed><course>189.729248</course><hAcc>0.878775</hAcc><vAcc>0.696871</vAcc></extensions></trkpt>
      <trkpt lon="-3.313659" lat="54.563096"><ele>104.245262</ele><time>2021-08-12T12:41:07Z</time><extensions><speed>1.113106</speed><course>190.676483</course><hAcc>0.878439</hAcc><vAcc>0.695746</vAcc></extensions></trkpt>
      <trkpt lon="-3.313667" lat="54.563105"><ele>104.296188</ele><time>2021-08-12T12:41:08Z</time><extensions><speed>1.126390</speed><course>190.070023</course><hAcc>0.878042</hAcc><vAcc>0.694307</vAcc></extensions></trkpt>
      <trkpt lon="-3.313676" lat="54.563114"><ele>104.359711</ele><time>2021-08-12T12:41:09Z</time><extensions><speed>1.141083</speed><course>188.285675</course><hAcc>0.877591</hAcc><vAcc>0.692572</vAcc></extensions></trkpt>
      <trkpt lon="-3.313684" lat="54.563123"><ele>104.435188</ele><time>2021-08-12T12:41:10Z</time><extensions><speed>1.156720</speed><course>188.993866</course><hAcc>0.877097</hAcc><vAcc>0.690602</vAcc></extensions></trkpt>
      <trkpt lon="-3.313692" lat="54.563132"><ele>104.521385</ele><time>2021-08-12T12:41:11Z</time><extensions><speed>1.173048</speed><course>182.902328</course><hAcc>0.876575</hAcc><vAcc>0.688489</vAcc></extensions></trkpt>
      <trkpt lon="-3.313701" lat="54.563142"><ele>104.616478</ele><time>2021-08-12T12:41:12Z</time><extensions><speed>1.189716</speed><course>182.917496</course><hAcc>0.876044</hAcc><vAcc>0.686345</vAcc></extensions></trkpt>
      <trkpt lon="-3.313709" lat="54.563151"><ele>104.717979</ele><time>2021-08-12T12:41:13Z</time><extensions><speed>1.206724</speed><course>191.520782</course><hAcc>0.875521</hAcc><vAcc>0.684274</vAcc></extensions></trkpt>
      <trkpt lon="-3.313718" lat="54.563161"><ele>104.822754</ele><time>2021-08-12T12:41:14Z</time><extensions><speed>1.224049</speed><course>195.318115</course><hAcc>0.875023</hAcc><vAcc>0.682354</vAcc></extensions></trkpt>
      <trkpt lon="-3.313726" lat="54.563171"><ele>104.927444</ele><time>2021-08-12T12:41:15Z</time><extensions><speed>1.241553</speed><course>192.430679</course><hAcc>0.874562</hAcc><vAcc>0.680629</vAcc></extensions></trkpt>
      <trkpt lon="-3.313734" lat="54.563181"><ele>105.029335</ele><time>2021-08-12T12:41:16Z</time><extensions><speed>1.259158</speed><course>191.833160</course><hAcc>0.874146</hAcc><vAcc>0.679113</vAcc></extensions></trkpt>
      <trkpt lon="-3.313742" lat="54.563192"><ele>105.126801</ele><time>2021-08-12T12:41:17Z</time><extensions><speed>1.276747</speed><course>196.401077</course><hAcc>0.873782</hAcc><vAcc>0.677800</vAcc></extensions></trkpt>
      <trkpt lon="-3.313751" lat="54.563202"><ele>105.218895</ele><time>2021-08-12T12:41:18Z</time><extensions><speed>1.294192</speed><course>191.447662</course><hAcc>0.873474</hAcc><vAcc>0.676676</vAcc></extensions></trkpt>
      <trkpt lon="-3.313759" lat="54.563213"><ele>105.305313</ele><time>2021-08-12T12:41:19Z</time><extensions><speed>1.311224</speed><course>188.084259</course><hAcc>0.873228</hAcc><vAcc>0.675748</vAcc></extensions></trkpt>
      <trkpt lon="-3.313768" lat="54.563223"><ele>105.386299</ele><time>2021-08-12T12:41:20Z</time><extensions><speed>1.327962</speed><course>183.324295</course><hAcc>0.873056</hAcc><vAcc>0.675058</vAcc></extensions></trkpt>
      <trkpt lon="-3.313777" lat="54.563234"><ele>105.462395</ele><time>2021-08-12T12:41:21Z</time><extensions><speed>1.344397</speed><course>184.303146</course><hAcc>0.872968</hAcc><vAcc>0.674673</vAcc></extensions></trkpt>
      <trkpt lon="-3.313786" lat="54.563245"><ele>105.534256</ele><time>2021-08-12T12:41:22Z</time><extensions><speed>1.359877</speed><course>186.889481</course><hAcc>0.872975</hAcc><vAcc>0.674661</vAcc></extensions></trkpt>
      <trkpt lon="-3.313795" lat="54.563256"><ele>105.602257</ele><time>2021-08-12T12:41:23Z</time><extensions><speed>1.372940</speed><course>196.424622</course><hAcc>0.873084</hAcc><vAcc>0.675062</vAcc></extensions></trkpt>
      <trkpt lon="-3.313805" lat="54.563267"><ele>105.666321</ele><time>2021-08-12T12:41:24Z</time><extensions><speed>1.382048</speed><course>195.527405</course><hAcc>0.873292</hAcc><vAcc>0.675870</vAcc></extensions></trkpt>
      <trkpt lon="-3.313815" lat="54.563278"><ele>105.726295</ele><time>2021-08-12T12:41:25Z</time><extensions><speed>1.386640</speed><course>194.776535</course><hAcc>0.873588</hAcc><vAcc>0.677032</vAcc></extensions></trkpt>
      <trkpt lon="-3.313825" lat="54.563289"><ele>105.782265</ele><time>2021-08-12T12:41:26Z</time><extensions><speed>1.386819</speed><course>192.763931</course><hAcc>0.873958</hAcc><vAcc>0.678473</vAcc></extensions></trkpt>
      <trkpt lon="-3.313836" lat="54.563300"><ele>105.834358</ele><time>2021-08-12T12:41:27Z</time><extensions><speed>1.382825</speed><course>188.352570</course><hAcc>0.874386</hAcc><vAcc>0.680114</vAcc></extensions></trkpt>
      <trkpt lon="-3.313847" lat="54.563311"><ele>105.882355</ele><time>2021-08-12T12:41:28Z</time><extensions><speed>1.375196</speed><course>191.167343</course><hAcc>0.874856</hAcc><vAcc>0.681889</vAcc></extensions></trkpt>
      <trkpt lon="-3.313858" lat="54.563321"><ele>105.925728</ele><time>2021-08-12T12:41:29Z</time><extensions><speed>1.363840</speed><course>192.722641</course><hAcc>0.875354</hAcc><vAcc>0.683744</vAcc></extensions></trkpt>
      <trkpt lon="-3.313869" lat="54.563331"><ele>105.963776</ele><time>2021-08-12T12:41:30Z</time><extensions><speed>1.348618</speed><course>189.118942</course><hAcc>0.875868</hAcc><vAcc>0.685637</vAcc></extensions></trkpt>
      <trkpt lon="-3.313880" lat="54.563342"><ele>105.995743</ele><time>2021-08-12T12:41:31Z</time><extensions><speed>1.330159</speed><course>195.260696</course><hAcc>0.876388</hAcc><vAcc>0.687535</vAcc></extensions></trkpt>
      <trkpt lon="-3.313891" lat="54.563352"><ele>106.020813</ele><time>2021-08-12T12:41:32Z</time><extensions><speed>1.309505</speed><course>198.630753</course><hAcc>0.876906</hAcc><vAcc>0.689414</vAcc></extensions></trkpt>
      <trkpt lon="-3.313902" lat="54.563361"><ele>106.038063</ele><time>2021-08-12T12:41:33Z</time><extensions><speed>1.288211</speed><course>196.886353</course><hAcc>0.877414</hAcc><vAcc>0.691257</vAcc></extensions></trkpt>
      <trkpt lon="-3.313913" lat="54.563371"><ele>106.046356</ele><time>2021-08-12T12:41:34Z</time><extensions><speed>1.267426</speed><course>199.300766</course><hAcc>0.877907</hAcc><vAcc>0.693056</vAcc></extensions></trkpt>
      <trkpt lon="-3.313924" lat="54.563380"><ele>106.044601</ele><time>2021-08-12T12:41:35Z</time><extensions><speed>1.248226</speed><course>188.355103</course><hAcc>0.878379</hAcc><vAcc>0.694797</vAcc></extensions></trkpt>
      <trkpt lon="-3.313935" lat="54.563389"><ele>106.032242</ele><time>2021-08-12T12:41:36Z</time><extensions><speed>1.231816</speed><course>182.172089</course><hAcc>0.878825</hAcc><vAcc>0.696465</vAcc></extensions></trkpt>
      <trkpt lon="-3.313946" lat="54.563398"><ele>106.009506</ele><time>2021-08-12T12:41:37Z</time><extensions><speed>1.218735</speed><course>175.635590</course><hAcc>0.879242</hAcc><vAcc>0.698033</vAcc></extensions></trkpt>
      <trkpt lon="-3.313957" lat="54.563407"><ele>105.977135</ele><time>2021-08-12T12:41:38Z</time><extensions><speed>1.208555</speed><course>175.846039</course><hAcc>0.879625</hAcc><vAcc>0.699475</vAcc></extensions></trkpt>
      <trkpt lon="-3.313968" lat="54.563416"><ele>105.936218</ele><time>2021-08-12T12:41:39Z</time><extensions><speed>1.200759</speed><course>193.960129</course><hAcc>0.879971</hAcc><vAcc>0.700766</vAcc></extensions></trkpt>
      <trkpt lon="-3.313979" lat="54.563425"><ele>105.888420</ele><time>2021-08-12T12:41:40Z</time><extensions><speed>1.195535</speed><course>189.742126</course><hAcc>0.880279</hAcc><vAcc>0.701889</vAcc></extensions></trkpt>
      <trkpt lon="-3.313990" lat="54.563433"><ele>105.836304</ele><time>2021-08-12T12:41:41Z</time><extensions><speed>1.192845</speed><course>181.010574</course><hAcc>0.880547</hAcc><vAcc>0.702836</vAcc></extensions></trkpt>
      <trkpt lon="-3.314001" lat="54.563442"><ele>105.782959</ele><time>2021-08-12T12:41:42Z</time><extensions><speed>1.192053</speed><course>181.622223</course><hAcc>0.880779</hAcc><vAcc>0.703616</vAcc></extensions></trkpt>
      <trkpt lon="-3.314012" lat="54.563450"><ele>105.730972</ele><time>2021-08-12T12:41:43Z</time><extensions><speed>1.192820</speed><course>182.972122</course><hAcc>0.880976</hAcc><vAcc>0.704246</vAcc></extensions></trkpt>
      <trkpt lon="-3.314023" lat="54.563459"><ele>105.682098</ele><time>2021-08-12T12:41:44Z</time><extensions><speed>1.195134</speed><course>182.070694</course><hAcc>0.881143</hAcc><vAcc>0.704753</vAcc></extensions></trkpt>
      <trkpt lon="-3.314035" lat="54.563467"><ele>105.637566</ele><time>2021-08-12T12:41:45Z</time><extensions><speed>1.198952</speed><course>188.867126</course><hAcc>0.881286</hAcc><vAcc>0.705167</vAcc></extensions></trkpt>
      <trkpt lon="-3.314046" lat="54.563476"><ele>105.598579</ele><time>2021-08-12T12:41:46Z</time><extensions><speed>1.204879</speed><course>177.890274</course><hAcc>0.881411</hAcc><vAcc>0.705519</vAcc></extensions></trkpt>
      <trkpt lon="-3.314058" lat="54.563484"><ele>105.566635</ele><time>2021-08-12T12:41:47Z</time><extensions><speed>1.214046</speed><course>186.896194</course><hAcc>0.881524</hAcc><vAcc>0.705836</vAcc></extensions></trkpt>
      <trkpt lon="-3.314071" lat="54.563492"><ele>105.543457</ele><time>2021-08-12T12:41:48Z</time><extensions><speed>1.227227</speed><course>186.409210</course><hAcc>0.881630</hAcc><vAcc>0.706144</vAcc></extensions></trkpt>
      <trkpt lon="-3.314084" lat="54.563500"><ele>105.530914</ele><time>2021-08-12T12:41:49Z</time><extensions><speed>1.243924</speed><course>158.696396</course><hAcc>0.881732</hAcc><vAcc>0.706471</vAcc></extensions></trkpt>
      <trkpt lon="-3.314097" lat="54.563508"><ele>105.530655</ele><time>2021-08-12T12:41:50Z</time><extensions><speed>1.262322</speed><course>142.816803</course><hAcc>0.881832</hAcc><vAcc>0.706832</vAcc></extensions></trkpt>
      <trkpt lon="-3.314112" lat="54.563516"><ele>105.543648</ele><time>2021-08-12T12:41:51Z</time><extensions><speed>1.279912</speed><course>119.700058</course><hAcc>0.881932</hAcc><vAcc>0.707229</vAcc></extensions></trkpt>
      <trkpt lon="-3.314126" lat="54.563524"><ele>105.569817</ele><time>2021-08-12T12:41:52Z</time><extensions><speed>1.294418</speed><course>117.032089</course><hAcc>0.882028</hAcc><vAcc>0.707651</vAcc></extensions></trkpt>
      <trkpt lon="-3.314142" lat="54.563532"><ele>105.608147</ele><time>2021-08-12T12:41:53Z</time><extensions><speed>1.304607</speed><course>117.032089</course><hAcc>0.882119</hAcc><vAcc>0.708071</vAcc></extensions></trkpt>
      <trkpt lon="-3.314157" lat="54.563539"><ele>105.656929</ele><time>2021-08-12T12:41:54Z</time><extensions><speed>1.309700</speed><course>117.032089</course><hAcc>0.882199</hAcc><vAcc>0.708461</vAcc></extensions></trkpt>
      <trkpt lon="-3.314173" lat="54.563546"><ele>105.714096</ele><time>2021-08-12T12:41:55Z</time><extensions><speed>1.308880</speed><course>117.032089</course><hAcc>0.882265</hAcc><vAcc>0.708789</vAcc></extensions></trkpt>
      <trkpt lon="-3.314189" lat="54.563554"><ele>105.777573</ele><time>2021-08-12T12:41:56Z</time><extensions><speed>1.302014</speed><course>117.032097</course><hAcc>0.882310</hAcc><vAcc>0.709027</vAcc></extensions></trkpt>
      <trkpt lon="-3.314204" lat="54.563561"><ele>105.845810</ele><time>2021-08-12T12:41:57Z</time><extensions><speed>1.289489</speed><course>117.032097</course><hAcc>0.882331</hAcc><vAcc>0.709150</vAcc></extensions></trkpt>
      <trkpt lon="-3.314219" lat="54.563569"><ele>105.917961</ele><time>2021-08-12T12:41:58Z</time><extensions><speed>1.271662</speed><course>117.032097</course><hAcc>0.882325</hAcc><vAcc>0.709144</vAcc></extensions></trkpt>
      <trkpt lon="-3.314234" lat="54.563576"><ele>105.993561</ele><time>2021-08-12T12:41:59Z</time><extensions><speed>1.249554</speed><course>117.032097</course><hAcc>0.882289</hAcc><vAcc>0.709003</vAcc></extensions></trkpt>
      <trkpt lon="-3.314247" lat="54.563584"><ele>106.071938</ele><time>2021-08-12T12:42:00Z</time><extensions><speed>1.225322</speed><course>117.032097</course><hAcc>0.882225</hAcc><vAcc>0.708728</vAcc></extensions></trkpt>
      <trkpt lon="-3.314260" lat="54.563592"><ele>106.152054</ele><time>2021-08-12T12:42:01Z</time><extensions><speed>1.202666</speed><course>117.032097</course><hAcc>0.882134</hAcc><vAcc>0.708329</vAcc></extensions></trkpt>
      <trkpt lon="-3.314272" lat="54.563600"><ele>106.232864</ele><time>2021-08-12T12:42:02Z</time><extensions><speed>1.184549</speed><course>235.156555</course><hAcc>0.882022</hAcc><vAcc>0.707824</vAcc></extensions></trkpt>
      <trkpt lon="-3.314282" lat="54.563609"><ele>106.313423</ele><time>2021-08-12T12:42:03Z</time><extensions><speed>1.171988</speed><course>235.156555</course><hAcc>0.881895</hAcc><vAcc>0.707244</vAcc></extensions></trkpt>
      <trkpt lon="-3.314292" lat="54.563618"><ele>106.392700</ele><time>2021-08-12T12:42:04Z</time><extensions><speed>1.165212</speed><course>235.156555</course><hAcc>0.881763</hAcc><vAcc>0.706627</vAcc></extensions></trkpt>
      <trkpt lon="-3.314301" lat="54.563627"><ele>106.471283</ele><time>2021-08-12T12:42:05Z</time><extensions><speed>1.165158</speed><course>81.891060</course><hAcc>0.881602</hAcc><vAcc>0.705960</vAcc></extensions></trkpt>
      <trkpt lon="-3.314309" lat="54.563636"><ele>106.546783</ele><time>2021-08-12T12:42:06Z</time><extensions><speed>1.168647</speed><course>78.263519</course><hAcc>0.881448</hAcc><vAcc>0.705329</vAcc></extensions></trkpt>
      <trkpt lon="-3.314317" lat="54.563646"><ele>106.617836</ele><time>2021-08-12T12:42:07Z</time><extensions><speed>1.177039</speed><course>74.907532</course><hAcc>0.881299</hAcc><vAcc>0.704757</vAcc></extensions></trkpt>
      <trkpt lon="-3.314324" lat="54.563656"><ele>106.683250</ele><time>2021-08-12T12:42:08Z</time><extensions><speed>1.189860</speed><course>84.941742</course><hAcc>0.881156</hAcc><vAcc>0.704247</vAcc></extensions></trkpt>
      <trkpt lon="-3.314330" lat="54.563666"><ele>106.741905</ele><time>2021-08-12T12:42:09Z</time><extensions><speed>1.205852</speed><course>73.584358</course><hAcc>0.881021</hAcc><vAcc>0.703795</vAcc></extensions></trkpt>
      <trkpt lon="-3.314336" lat="54.563676"><ele>106.792953</ele><time>2021-08-12T12:42:10Z</time><extensions><speed>1.224542</speed><course>96.346313</course><hAcc>0.880891</hAcc><vAcc>0.703388</vAcc></extensions></trkpt>
      <trkpt lon="-3.314342" lat="54.563687"><ele>106.835693</ele><time>2021-08-12T12:42:11Z</time><extensions><speed>1.245780</speed><course>87.208282</course><hAcc>0.880766</hAcc><vAcc>0.703009</vAcc></extensions></trkpt>
      <trkpt lon="-3.314347" lat="54.563698"><ele>106.869553</ele><time>2021-08-12T12:42:12Z</time><extensions><speed>1.268582</speed><course>71.034035</course><hAcc>0.880642</hAcc><vAcc>0.702639</vAcc></extensions></trkpt>
      <trkpt lon="-3.314352" lat="54.563709"><ele>106.894356</ele><time>2021-08-12T12:42:13Z</time><extensions><speed>1.290963</speed><course>74.315559</course><hAcc>0.880518</hAcc><vAcc>0.702263</vAcc></extensions></trkpt>
      <trkpt lon="-3.314357" lat="54.563720"><ele>106.910583</ele><time>2021-08-12T12:42:14Z</time><extensions><speed>1.311021</speed><course>82.074326</course><hAcc>0.880391</hAcc><vAcc>0.701863</vAcc></extensions></trkpt>
      <trkpt lon="-3.314362" lat="54.563731"><ele>106.919182</ele><time>2021-08-12T12:42:15Z</time><extensions><speed>1.327797</speed><course>78.798851</course><hAcc>0.880259</hAcc><vAcc>0.701424</vAcc></extensions></trkpt>
      <trkpt lon="-3.314367" lat="54.563743"><ele>106.921127</ele><time>2021-08-12T12:42:16Z</time><extensions><speed>1.340904</speed><course>71.049065</course><hAcc>0.880123</hAcc><vAcc>0.700932</vAcc></extensions></trkpt>
      <trkpt lon="-3.314371" lat="54.563755"><ele>106.917244</ele><time>2021-08-12T12:42:17Z</time><extensions><speed>1.349972</speed><course>66.417450</course><hAcc>0.879983</hAcc><vAcc>0.700393</vAcc></extensions></trkpt>
      <trkpt lon="-3.314376" lat="54.563767"><ele>106.908257</ele><time>2021-08-12T12:42:18Z</time><extensions><speed>1.354724</speed><course>67.881187</course><hAcc>0.879841</hAcc><vAcc>0.699822</vAcc></extensions></trkpt>
      <trkpt lon="-3.314381" lat="54.563779"><ele>106.894882</ele><time>2021-08-12T12:42:19Z</time><extensions><speed>1.355382</speed><course>73.946594</course><hAcc>0.879702</hAcc><vAcc>0.699248</vAcc></extensions></trkpt>
      <trkpt lon="-3.314386" lat="54.563790"><ele>106.878036</ele><time>2021-08-12T12:42:20Z</time><extensions><speed>1.352643</speed><course>66.868568</course><hAcc>0.879570</hAcc><vAcc>0.698695</vAcc></extensions></trkpt>
      <trkpt lon="-3.314391" lat="54.563802"><ele>106.858864</ele><time>2021-08-12T12:42:21Z</time><extensions><speed>1.347333</speed><course>57.370388</course><hAcc>0.879449</hAcc><vAcc>0.698189</vAcc></extensions></trkpt>
      <trkpt lon="-3.314396" lat="54.563814"><ele>106.838402</ele><time>2021-08-12T12:42:22Z</time><extensions><speed>1.340172</speed><course>72.859169</course><hAcc>0.879347</hAcc><vAcc>0.697755</vAcc></extensions></trkpt>
      <trkpt lon="-3.314402" lat="54.563825"><ele>106.817688</ele><time>2021-08-12T12:42:23Z</time><extensions><speed>1.331548</speed><course>73.476959</course><hAcc>0.879267</hAcc><vAcc>0.697414</vAcc></extensions></trkpt>
      <trkpt lon="-3.314408" lat="54.563837"><ele>106.797813</ele><time>2021-08-12T12:42:24Z</time><extensions><speed>1.321719</speed><course>70.985191</course><hAcc>0.879214</hAcc><vAcc>0.697188</vAcc></extensions></trkpt>
      <trkpt lon="-3.314415" lat="54.563848"><ele>106.779625</ele><time>2021-08-12T12:42:25Z</time><extensions><speed>1.311272</speed><course>67.094063</course><hAcc>0.879191</hAcc><vAcc>0.697092</vAcc></extensions></trkpt>
      <trkpt lon="-3.314423" lat="54.563859"><ele>106.763847</ele><time>2021-08-12T12:42:26Z</time><extensions><speed>1.300694</speed><course>63.802017</course><hAcc>0.879202</hAcc><vAcc>0.697131</vAcc></extensions></trkpt>
      <trkpt lon="-3.314431" lat="54.563869"><ele>106.751274</ele><time>2021-08-12T12:42:27Z</time><extensions><speed>1.290280</speed><course>59.738853</course><hAcc>0.879246</hAcc><vAcc>0.697303</vAcc></extensions></trkpt>
      <trkpt lon="-3.314440" lat="54.563880"><ele>106.742371</ele><time>2021-08-12T12:42:28Z</time><extensions><speed>1.280665</speed><course>64.752533</course><hAcc>0.879322</hAcc><vAcc>0.697601</vAcc></extensions></trkpt>
      <trkpt lon="-3.314449" lat="54.563890"><ele>106.737167</ele><time>2021-08-12T12:42:29Z</time><extensions><speed>1.272367</speed><course>62.678837</course><hAcc>0.879430</hAcc><vAcc>0.698019</vAcc></extensions></trkpt>
      <trkpt lon="-3.314459" lat="54.563900"><ele>106.735779</ele><time>2021-08-12T12:42:30Z</time><extensions><speed>1.265886</speed><course>67.622025</course><hAcc>0.879565</hAcc><vAcc>0.698548</vAcc></extensions></trkpt>
      <trkpt lon="-3.314469" lat="54.563909"><ele>106.738510</ele><time>2021-08-12T12:42:31Z</time><extensions><speed>1.261751</speed><course>76.998230</course><hAcc>0.879723</hAcc><vAcc>0.699171</vAcc></extensions></trkpt>
      <trkpt lon="-3.314480" lat="54.563919"><ele>106.745567</ele><time>2021-08-12T12:42:32Z</time><extensions><speed>1.259710</speed><course>71.279175</course><hAcc>0.879901</hAcc><vAcc>0.699867</vAcc></extensions></trkpt>
      <trkpt lon="-3.314492" lat="54.563928"><ele>106.756744</ele><time>2021-08-12T12:42:33Z</time><extensions><speed>1.258867</speed><course>66.215858</course><hAcc>0.880091</hAcc><vAcc>0.700616</vAcc></extensions></trkpt>
      <trkpt lon="-3.314503" lat="54.563937"><ele>106.771278</ele><time>2021-08-12T12:42:34Z</time><extensions><speed>1.257998</speed><course>65.869171</course><hAcc>0.880289</hAcc><vAcc>0.701397</vAcc></extensions></trkpt>
      <trkpt lon="-3.314515" lat="54.563946"><ele>106.788277</ele><time>2021-08-12T12:42:35Z</time><extensions><speed>1.255728</speed><course>67.480362</course><hAcc>0.880487</hAcc><vAcc>0.702184</vAcc></extensions></trkpt>
      <trkpt lon="-3.314528" lat="54.563954"><ele>106.807426</ele><time>2021-08-12T12:42:36Z</time><extensions><speed>1.251787</speed><course>62.467888</course><hAcc>0.880679</hAcc><vAcc>0.702950</vAcc></extensions></trkpt>
      <trkpt lon="-3.314540" lat="54.563963"><ele>106.829086</ele><time>2021-08-12T12:42:37Z</time><extensions><speed>1.246126</speed><course>57.403885</course><hAcc>0.880860</hAcc><vAcc>0.703670</vAcc></extensions></trkpt>
      <trkpt lon="-3.314553" lat="54.563971"><ele>106.853592</ele><time>2021-08-12T12:42:38Z</time><extensions><speed>1.238106</speed><course>56.104736</course><hAcc>0.881025</hAcc><vAcc>0.704321</vAcc></extensions></trkpt>
      <trkpt lon="-3.314565" lat="54.563980"><ele>106.881027</ele><time>2021-08-12T12:42:39Z</time><extensions><speed>1.227411</speed><course>57.135769</course><hAcc>0.881169</hAcc><vAcc>0.704885</vAcc></extensions></trkpt>
      <trkpt lon="-3.314577" lat="54.563988"><ele>106.911331</ele><time>2021-08-12T12:42:40Z</time><extensions><speed>1.214178</speed><course>59.466648</course><hAcc>0.881289</hAcc><vAcc>0.705346</vAcc></extensions></trkpt>
      <trkpt lon="-3.314589" lat="54.563996"><ele>106.944214</ele><time>2021-08-12T12:42:41Z</time><extensions><speed>1.199651</speed><course>56.466339</course><hAcc>0.881383</hAcc><vAcc>0.705692</vAcc></extensions></trkpt>
      <trkpt lon="-3.314601" lat="54.564005"><ele>106.979012</ele><time>2021-08-12T12:42:42Z</time><extensions><speed>1.185645</speed><course>61.082169</course><hAcc>0.881453</hAcc><vAcc>0.705918</vAcc></extensions></trkpt>
      <trkpt lon="-3.314613" lat="54.564013"><ele>107.015358</ele><time>2021-08-12T12:42:43Z</time><extensions><speed>1.173865</speed><course>63.000797</course><hAcc>0.881499</hAcc><vAcc>0.706030</vAcc></extensions></trkpt>
      <trkpt lon="-3.314625" lat="54.564021"><ele>107.053627</ele><time>2021-08-12T12:42:44Z</time><extensions><speed>1.165107</speed><course>58.373146</course><hAcc>0.881522</hAcc><vAcc>0.706046</vAcc></extensions></trkpt>
      <trkpt lon="-3.314636" lat="54.564029"><ele>107.094574</ele><time>2021-08-12T12:42:45Z</time><extensions><speed>1.159289</speed><course>59.591164</course><hAcc>0.881527</hAcc><vAcc>0.705991</vAcc></extensions></trkpt>
      <trkpt lon="-3.314647" lat="54.564037"><ele>107.138916</ele><time>2021-08-12T12:42:46Z</time><extensions><speed>1.156404</speed><course>56.078835</course><hAcc>0.881517</hAcc><vAcc>0.705889</vAcc></extensions></trkpt>
      <trkpt lon="-3.314658" lat="54.564045"><ele>107.187439</ele><time>2021-08-12T12:42:47Z</time><extensions><speed>1.156964</speed><course>61.452141</course><hAcc>0.881495</hAcc><vAcc>0.705760</vAcc></extensions></trkpt>
      <trkpt lon="-3.314669" lat="54.564054"><ele>107.240891</ele><time>2021-08-12T12:42:48Z</time><extensions><speed>1.161380</speed><course>62.349373</course><hAcc>0.881466</hAcc><vAcc>0.705622</vAcc></extensions></trkpt>
      <trkpt lon="-3.314680" lat="54.564062"><ele>107.299355</ele><time>2021-08-12T12:42:49Z</time><extensions><speed>1.169337</speed><course>67.502327</course><hAcc>0.881432</hAcc><vAcc>0.705484</vAcc></extensions></trkpt>
      <trkpt lon="-3.314691" lat="54.564070"><ele>107.362122</ele><time>2021-08-12T12:42:50Z</time><extensions><speed>1.180015</speed><course>65.148994</course><hAcc>0.881399</hAcc><vAcc>0.705351</vAcc></extensions></trkpt>
      <trkpt lon="-3.314701" lat="54.564079"><ele>107.427673</ele><time>2021-08-12T12:42:51Z</time><extensions><speed>1.192606</speed><course>61.604351</course><hAcc>0.881368</hAcc><vAcc>0.705227</vAcc></extensions></trkpt>
      <trkpt lon="-3.314712" lat="54.564088"><ele>107.493797</ele><time>2021-08-12T12:42:52Z</time><extensions><speed>1.206320</speed><course>67.356651</course><hAcc>0.881342</hAcc><vAcc>0.705116</vAcc></extensions></trkpt>
      <trkpt lon="-3.314723" lat="54.564096"><ele>107.558067</ele><time>2021-08-12T12:42:53Z</time><extensions><speed>1.220024</speed><course>56.187717</course><hAcc>0.881323</hAcc><vAcc>0.705028</vAcc></extensions></trkpt>
      <trkpt lon="-3.314735" lat="54.564105"><ele>107.618385</ele><time>2021-08-12T12:42:54Z</time><extensions><speed>1.233204</speed><course>56.273357</course><hAcc>0.881311</hAcc><vAcc>0.704973</vAcc></extensions></trkpt>
      <trkpt lon="-3.314746" lat="54.564114"><ele>107.672935</ele><time>2021-08-12T12:42:55Z</time><extensions><speed>1.245742</speed><course>59.042984</course><hAcc>0.881308</hAcc><vAcc>0.704958</vAcc></extensions></trkpt>
      <trkpt lon="-3.314758" lat="54.564123"><ele>107.720177</ele><time>2021-08-12T12:42:56Z</time><extensions><speed>1.257654</speed><course>46.754299</course><hAcc>0.881315</hAcc><vAcc>0.704987</vAcc></extensions></trkpt>
      <trkpt lon="-3.314770" lat="54.564132"><ele>107.759201</ele><time>2021-08-12T12:42:57Z</time><extensions><speed>1.268675</speed><course>46.754295</course><hAcc>0.881331</hAcc><vAcc>0.705055</vAcc></extensions></trkpt>
      <trkpt lon="-3.314782" lat="54.564141"><ele>107.789787</ele><time>2021-08-12T12:42:58Z</time><extensions><speed>1.278099</speed><course>46.754295</course><hAcc>0.881356</hAcc><vAcc>0.705156</vAcc></extensions></trkpt>
      <trkpt lon="-3.314795" lat="54.564150"><ele>107.812119</ele><time>2021-08-12T12:42:59Z</time><extensions><speed>1.285308</speed><course>46.754295</course><hAcc>0.881388</hAcc><vAcc>0.705289</vAcc></extensions></trkpt>
      <trkpt lon="-3.314808" lat="54.564159"><ele>107.826599</ele><time>2021-08-12T12:43:00Z</time><extensions><speed>1.290668</speed><course>46.754295</course><hAcc>0.881428</hAcc><vAcc>0.705447</vAcc></extensions></trkpt>
      <trkpt lon="-3.314821" lat="54.564167"><ele>107.833649</ele><time>2021-08-12T12:43:01Z</time><extensions><speed>1.294635</speed><course>46.754295</course><hAcc>0.881474</hAcc><vAcc>0.705622</vAcc></extensions></trkpt>
      <trkpt lon="-3.314834" lat="54.564176"><ele>107.833832</ele><time>2021-08-12T12:43:02Z</time><extensions><speed>1.296806</speed><course>46.754295</course><hAcc>0.881523</hAcc><vAcc>0.705810</vAcc></extensions></trkpt>
      <trkpt lon="-3.314848" lat="54.564184"><ele>107.828087</ele><time>2021-08-12T12:43:03Z</time><extensions><speed>1.297046</speed><course>46.754292</course><hAcc>0.881575</hAcc><vAcc>0.706008</vAcc></extensions></trkpt>
      <trkpt lon="-3.314862" lat="54.564193"><ele>107.817711</ele><time>2021-08-12T12:43:04Z</time><extensions><speed>1.295103</speed><course>46.754295</course><hAcc>0.881627</hAcc><vAcc>0.706216</vAcc></extensions></trkpt>
      <trkpt lon="-3.314877" lat="54.564201"><ele>107.804344</ele><time>2021-08-12T12:43:05Z</time><extensions><speed>1.290693</speed><course>86.257805</course><hAcc>0.881677</hAcc><vAcc>0.706425</vAcc></extensions></trkpt>
      <trkpt lon="-3.314891" lat="54.564209"><ele>107.790077</ele><time>2021-08-12T12:43:06Z</time><extensions><speed>1.284217</speed><course>92.864906</course><hAcc>0.881724</hAcc><vAcc>0.706627</vAcc></extensions></trkpt>
      <trkpt lon="-3.314906" lat="54.564217"><ele>107.777336</ele><time>2021-08-12T12:43:07Z</time><extensions><speed>1.276168</speed><course>94.458534</course><hAcc>0.881765</hAcc><vAcc>0.706807</vAcc></extensions></trkpt>
      <trkpt lon="-3.314920" lat="54.564224"><ele>107.768501</ele><time>2021-08-12T12:43:08Z</time><extensions><speed>1.267280</speed><course>89.165138</course><hAcc>0.881799</hAcc><vAcc>0.706956</vAcc></extensions></trkpt>
      <trkpt lon="-3.314935" lat="54.564231"><ele>107.765724</ele><time>2021-08-12T12:43:09Z</time><extensions><speed>1.258477</speed><course>98.187202</course><hAcc>0.881824</hAcc><vAcc>0.707067</vAcc></extensions></trkpt>
      <trkpt lon="-3.314950" lat="54.564239"><ele>107.770927</ele><time>2021-08-12T12:43:10Z</time><extensions><speed>1.249836</speed><course>262.094696</course><hAcc>0.881841</hAcc><vAcc>0.707135</vAcc></extensions></trkpt>
      <trkpt lon="-3.314966" lat="54.564245"><ele>107.785706</ele><time>2021-08-12T12:43:11Z</time><extensions><speed>1.241408</speed><course>273.339569</course><hAcc>0.881848</hAcc><vAcc>0.707159</vAcc></extensions></trkpt>
      <trkpt lon="-3.314981" lat="54.564252"><ele>107.811417</ele><time>2021-08-12T12:43:12Z</time><extensions><speed>1.234186</speed><course>270.133057</course><hAcc>0.881846</hAcc><vAcc>0.707137</vAcc></extensions></trkpt>
      <trkpt lon="-3.314997" lat="54.564258"><ele>107.849136</ele><time>2021-08-12T12:43:13Z</time><extensions><speed>1.228891</speed><course>264.401459</course><hAcc>0.881837</hAcc><vAcc>0.707072</vAcc></extensions></trkpt>
      <trkpt lon="-3.315012" lat="54.564264"><ele>107.899757</ele><time>2021-08-12T12:43:14Z</time><extensions><speed>1.225582</speed><course>271.206299</course><hAcc>0.881821</hAcc><vAcc>0.706971</vAcc></extensions></trkpt>
      <trkpt lon="-3.315028" lat="54.564270"><ele>107.964165</ele><time>2021-08-12T12:43:15Z</time><extensions><speed>1.224190</speed><course>270.479279</course><hAcc>0.881802</hAcc><vAcc>0.706851</vAcc></extensions></trkpt>
      <trkpt lon="-3.315045" lat="54.564276"><ele>108.043137</ele><time>2021-08-12T12:43:16Z</time><extensions><speed>1.224074</speed><course>270.479279</course><hAcc>0.881780</hAcc><vAcc>0.706729</vAcc></extensions></trkpt>
      <trkpt lon="-3.315061" lat="54.564281"><ele>108.136955</ele><time>2021-08-12T12:43:17Z</time><extensions><speed>1.224005</speed><course>270.479279</course><hAcc>0.881757</hAcc><vAcc>0.706624</vAcc></extensions></trkpt>
      <trkpt lon="-3.315078" lat="54.564286"><ele>108.245171</ele><time>2021-08-12T12:43:18Z</time><extensions><speed>1.222743</speed><course>92.836548</course><hAcc>0.881735</hAcc><vAcc>0.706544</vAcc></extensions></trkpt>
      <trkpt lon="-3.315095" lat="54.564291"><ele>108.366608</ele><time>2021-08-12T12:43:19Z</time><extensions><speed>1.219984</speed><course>91.847809</course><hAcc>0.881713</hAcc><vAcc>0.706486</vAcc></extensions></trkpt>
      <trkpt lon="-3.315112" lat="54.564296"><ele>108.499596</ele><time>2021-08-12T12:43:20Z</time><extensions><speed>1.215397</speed><course>96.972961</course><hAcc>0.881693</hAcc><vAcc>0.706443</vAcc></extensions></trkpt>
      <trkpt lon="-3.315129" lat="54.564300"><ele>108.642059</ele><time>2021-08-12T12:43:21Z</time><extensions><speed>1.207998</speed><course>101.432434</course><hAcc>0.881675</hAcc><vAcc>0.706403</vAcc></extensions></trkpt>
      <trkpt lon="-3.315146" lat="54.564305"><ele>108.791580</ele><time>2021-08-12T12:43:22Z</time><extensions><speed>1.197644</speed><course>89.921867</course><hAcc>0.881659</hAcc><vAcc>0.706357</vAcc></extensions></trkpt>
      <trkpt lon="-3.315163" lat="54.564310"><ele>108.945450</ele><time>2021-08-12T12:43:23Z</time><extensions><speed>1.185139</speed><course>79.468422</course><hAcc>0.881645</hAcc><vAcc>0.706302</vAcc></extensions></trkpt>
      <trkpt lon="-3.315179" lat="54.564314"><ele>109.100754</ele><time>2021-08-12T12:43:24Z</time><extensions><speed>1.170881</speed><course>79.668663</course><hAcc>0.881632</hAcc><vAcc>0.706240</vAcc></extensions></trkpt>
      <trkpt lon="-3.315195" lat="54.564319"><ele>109.254837</ele><time>2021-08-12T12:43:25Z</time><extensions><speed>1.155679</speed><course>70.198914</course><hAcc>0.881621</hAcc><vAcc>0.706178</vAcc></extensions></trkpt>
      <trkpt lon="-3.315211" lat="54.564324"><ele>109.405647</ele><time>2021-08-12T12:43:26Z</time><extensions><speed>1.140982</speed><course>85.811096</course><hAcc>0.881612</hAcc><vAcc>0.706124</vAcc></extensions></trkpt>
      <trkpt lon="-3.315226" lat="54.564329"><ele>109.551666</ele><time>2021-08-12T12:43:27Z</time><extensions><speed>1.127848</speed><course>87.515213</course><hAcc>0.881604</hAcc><vAcc>0.706085</vAcc></extensions></trkpt>
      <trkpt lon="-3.315240" lat="54.564335"><ele>109.691650</ele><time>2021-08-12T12:43:28Z</time><extensions><speed>1.118114</speed><course>86.802406</course><hAcc>0.881597</hAcc><vAcc>0.706065</vAcc></extensions></trkpt>
      <trkpt lon="-3.315254" lat="54.564341"><ele>109.824776</ele><time>2021-08-12T12:43:29Z</time><extensions><speed>1.114440</speed><course>85.424927</course><hAcc>0.881590</hAcc><vAcc>0.706064</vAcc></extensions></trkpt>
      <trkpt lon="-3.315267" lat="54.564347"><ele>109.951126</ele><time>2021-08-12T12:43:30Z</time><extensions><speed>1.117945</speed><course>88.911957</course><hAcc>0.881583</hAcc><vAcc>0.706072</vAcc></extensions></trkpt>
      <trkpt lon="-3.315280" lat="54.564354"><ele>110.071564</ele><time>2021-08-12T12:43:31Z</time><extensions><speed>1.127374</speed><course>93.027184</course><hAcc>0.881575</hAcc><vAcc>0.706075</vAcc></extensions></trkpt>
      <trkpt lon="-3.315292" lat="54.564361"><ele>110.187111</ele><time>2021-08-12T12:43:32Z</time><extensions><speed>1.141149</speed><course>90.763535</course><hAcc>0.881565</hAcc><vAcc>0.706063</vAcc></extensions></trkpt>
      <trkpt lon="-3.315304" lat="54.564369"><ele>110.298737</ele><time>2021-08-12T12:43:33Z</time><extensions><speed>1.157146</speed><course>83.392509</course><hAcc>0.881553</hAcc><vAcc>0.706027</vAcc></extensions></trkpt>
      <trkpt lon="-3.315316" lat="54.564376"><ele>110.407349</ele><time>2021-08-12T12:43:34Z</time><extensions><speed>1.172843</speed><course>57.334152</course><hAcc>0.881538</hAcc><vAcc>0.705966</vAcc></extensions></trkpt>
      <trkpt lon="-3.315328" lat="54.564384"><ele>110.513588</ele><time>2021-08-12T12:43:35Z</time><extensions><speed>1.187310</speed><course>29.254333</course><hAcc>0.881520</hAcc><vAcc>0.705879</vAcc></extensions></trkpt>
      <trkpt lon="-3.315340" lat="54.564393"><ele>110.617767</ele><time>2021-08-12T12:43:36Z</time><extensions><speed>1.200535</speed><course>29.254333</course><hAcc>0.881500</hAcc><vAcc>0.705774</vAcc></extensions></trkpt>
      <trkpt lon="-3.315352" lat="54.564401"><ele>110.720039</ele><time>2021-08-12T12:43:37Z</time><extensions><speed>1.212299</speed><course>29.254333</course><hAcc>0.881478</hAcc><vAcc>0.705661</vAcc></extensions></trkpt>
      <trkpt lon="-3.315365" lat="54.564409"><ele>110.820396</ele><time>2021-08-12T12:43:38Z</time><extensions><speed>1.222595</speed><course>29.254332</course><hAcc>0.881456</hAcc><vAcc>0.705554</vAcc></extensions></trkpt>
      <trkpt lon="-3.315377" lat="54.564418"><ele>110.918839</ele><time>2021-08-12T12:43:39Z</time><extensions><speed>1.231441</speed><course>29.254333</course><hAcc>0.881432</hAcc><vAcc>0.705464</vAcc></extensions></trkpt>
      <trkpt lon="-3.315390" lat="54.564426"><ele>111.015648</ele><time>2021-08-12T12:43:40Z</time><extensions><speed>1.238613</speed><course>29.254332</course><hAcc>0.881408</hAcc><vAcc>0.705394</vAcc></extensions></trkpt>
      <trkpt lon="-3.315403" lat="54.564434"><ele>111.111137</ele><time>2021-08-12T12:43:41Z</time><extensions><speed>1.244085</speed><course>29.254332</course><hAcc>0.881385</hAcc><vAcc>0.705342</vAcc></extensions></trkpt>
      <trkpt lon="-3.315416" lat="54.564442"><ele>111.205345</ele><time>2021-08-12T12:43:42Z</time><extensions><speed>1.247840</speed><course>29.254333</course><hAcc>0.881362</hAcc><vAcc>0.705294</vAcc></extensions></trkpt>
      <trkpt lon="-3.315429" lat="54.564450"><ele>111.298012</ele><time>2021-08-12T12:43:43Z</time><extensions><speed>1.249604</speed><course>29.254333</course><hAcc>0.881341</hAcc><vAcc>0.705239</vAcc></extensions></trkpt>
      <trkpt lon="-3.315443" lat="54.564458"><ele>111.388641</ele><time>2021-08-12T12:43:44Z</time><extensions><speed>1.248965</speed><course>29.254332</course><hAcc>0.881321</hAcc><vAcc>0.705169</vAcc></extensions></trkpt>
      <trkpt lon="-3.315457" lat="54.564466"><ele>111.476463</ele><time>2021-08-12T12:43:45Z</time><extensions><speed>1.246032</speed><course>29.254333</course><hAcc>0.881306</hAcc><vAcc>0.705082</vAcc></extensions></trkpt>
      <trkpt lon="-3.315470" lat="54.564474"><ele>111.560638</ele><time>2021-08-12T12:43:46Z</time><extensions><speed>1.241041</speed><course>29.254337</course><hAcc>0.881297</hAcc><vAcc>0.704992</vAcc></extensions></trkpt>
      <trkpt lon="-3.315484" lat="54.564482"><ele>111.640442</ele><time>2021-08-12T12:43:47Z</time><extensions><speed>1.234362</speed><course>29.254337</course><hAcc>0.881296</hAcc><vAcc>0.704917</vAcc></extensions></trkpt>
      <trkpt lon="-3.315497" lat="54.564490"><ele>111.715164</ele><time>2021-08-12T12:43:48Z</time><extensions><speed>1.227437</speed><course>29.254339</course><hAcc>0.881305</hAcc><vAcc>0.704883</vAcc></extensions></trkpt>
      <trkpt lon="-3.315510" lat="54.564498"><ele>111.783791</ele><time>2021-08-12T12:43:49Z</time><extensions><speed>1.221341</speed><course>29.254337</course><hAcc>0.881327</hAcc><vAcc>0.704911</vAcc></extensions></trkpt>
      <trkpt lon="-3.315523" lat="54.564506"><ele>111.845108</ele><time>2021-08-12T12:43:50Z</time><extensions><speed>1.216787</speed><course>29.254339</course><hAcc>0.881361</hAcc><vAcc>0.705018</vAcc></extensions></trkpt>
      <trkpt lon="-3.315535" lat="54.564514"><ele>111.897888</ele><time>2021-08-12T12:43:51Z</time><extensions><speed>1.214572</speed><course>353.139893</course><hAcc>0.881408</hAcc><vAcc>0.705209</vAcc></extensions></trkpt>
      <trkpt lon="-3.315548" lat="54.564522"><ele>111.941017</ele><time>2021-08-12T12:43:52Z</time><extensions><speed>1.214527</speed><course>-1.000000</course><hAcc>0.881467</hAcc><vAcc>0.705478</vAcc></extensions></trkpt>
      <trkpt lon="-3.315560" lat="54.564530"><ele>111.973763</ele><time>2021-08-12T12:43:53Z</time><extensions><speed>1.216127</speed><course>-1.000000</course><hAcc>0.881535</hAcc><vAcc>0.705804</vAcc></extensions></trkpt>
      <trkpt lon="-3.315572" lat="54.564539"><ele>111.996117</ele><time>2021-08-12T12:43:54Z</time><extensions><speed>1.219131</speed><course>-1.000000</course><hAcc>0.881608</hAcc><vAcc>0.706161</vAcc></extensions></trkpt>
      <trkpt lon="-3.315584" lat="54.564547"><ele>112.008781</ele><time>2021-08-12T12:43:55Z</time><extensions><speed>1.223343</speed><course>-1.000000</course><hAcc>0.881682</hAcc><vAcc>0.706517</vAcc></extensions></trkpt>
      <trkpt lon="-3.315596" lat="54.564556"><ele>112.012718</ele><time>2021-08-12T12:43:56Z</time><extensions><speed>1.229008</speed><course>-1.000000</course><hAcc>0.881752</hAcc><vAcc>0.706843</vAcc></extensions></trkpt>
      <trkpt lon="-3.315608" lat="54.564565"><ele>112.008873</ele><time>2021-08-12T12:43:57Z</time><extensions><speed>1.236262</speed><course>-1.000000</course><hAcc>0.881816</hAcc><vAcc>0.707115</vAcc></extensions></trkpt>
      <trkpt lon="-3.315619" lat="54.564574"><ele>111.997780</ele><time>2021-08-12T12:43:58Z</time><extensions><speed>1.244785</speed><course>-1.000000</course><hAcc>0.881870</hAcc><vAcc>0.707324</vAcc></extensions></trkpt>
      <trkpt lon="-3.315630" lat="54.564583"><ele>111.979713</ele><time>2021-08-12T12:43:59Z</time><extensions><speed>1.253986</speed><course>-1.000000</course><hAcc>0.881911</hAcc><vAcc>0.707469</vAcc></extensions></trkpt>
      <trkpt lon="-3.315642" lat="54.564592"><ele>111.955299</ele><time>2021-08-12T12:44:00Z</time><extensions><speed>1.262784</speed><course>-1.000000</course><hAcc>0.881940</hAcc><vAcc>0.707554</vAcc></extensions></trkpt>
      <trkpt lon="-3.315653" lat="54.564601"><ele>111.925667</ele><time>2021-08-12T12:44:01Z</time><extensions><speed>1.270709</speed><course>-1.000000</course><hAcc>0.881956</hAcc><vAcc>0.707583</vAcc></extensions></trkpt>
      <trkpt lon="-3.315664" lat="54.564611"><ele>111.892082</ele><time>2021-08-12T12:44:02Z</time><extensions><speed>1.277849</speed><course>-1.000000</course><hAcc>0.881963</hAcc><vAcc>0.707562</vAcc></extensions></trkpt>
      <trkpt lon="-3.315674" lat="54.564621"><ele>111.855705</ele><time>2021-08-12T12:44:03Z</time><extensions><speed>1.284660</speed><course>74.830536</course><hAcc>0.881963</hAcc><vAcc>0.707503</vAcc></extensions></trkpt>
      <trkpt lon="-3.315685" lat="54.564630"><ele>111.817879</ele><time>2021-08-12T12:44:04Z</time><extensions><speed>1.291664</speed><course>62.161198</course><hAcc>0.881960</hAcc><vAcc>0.707421</vAcc></extensions></trkpt>
      <trkpt lon="-3.315695" lat="54.564640"><ele>111.780289</ele><time>2021-08-12T12:44:05Z</time><extensions><speed>1.299072</speed><course>66.043793</course><hAcc>0.881959</hAcc><vAcc>0.707340</vAcc></extensions></trkpt>
      <trkpt lon="-3.315705" lat="54.564650"><ele>111.744896</ele><time>2021-08-12T12:44:06Z</time><extensions><speed>1.307164</speed><course>75.803009</course><hAcc>0.881963</hAcc><vAcc>0.707286</vAcc></extensions></trkpt>
      <trkpt lon="-3.315716" lat="54.564661"><ele>111.713638</ele><time>2021-08-12T12:44:07Z</time><extensions><speed>1.315970</speed><course>76.191063</course><hAcc>0.881978</hAcc><vAcc>0.707283</vAcc></extensions></trkpt>
      <trkpt lon="-3.315726" lat="54.564671"><ele>111.688065</ele><time>2021-08-12T12:44:08Z</time><extensions><speed>1.324936</speed><course>76.349960</course><hAcc>0.882005</hAcc><vAcc>0.707348</vAcc></extensions></trkpt>
      <trkpt lon="-3.315737" lat="54.564681"><ele>111.669411</ele><time>2021-08-12T12:44:09Z</time><extensions><speed>1.333361</speed><course>78.477806</course><hAcc>0.882046</hAcc><vAcc>0.707494</vAcc></extensions></trkpt>
      <trkpt lon="-3.315748" lat="54.564691"><ele>111.658745</ele><time>2021-08-12T12:44:10Z</time><extensions><speed>1.340796</speed><course>75.070290</course><hAcc>0.882103</hAcc><vAcc>0.707725</vAcc></extensions></trkpt>
      <trkpt lon="-3.315760" lat="54.564701"><ele>111.656631</ele><time>2021-08-12T12:44:11Z</time><extensions><speed>1.346387</speed><course>69.086029</course><hAcc>0.882174</hAcc><vAcc>0.708032</vAcc></extensions></trkpt>
      <trkpt lon="-3.315772" lat="54.564711"><ele>111.663063</ele><time>2021-08-12T12:44:12Z</time><extensions><speed>1.349956</speed><course>68.949226</course><hAcc>0.882258</hAcc><vAcc>0.708397</vAcc></extensions></trkpt>
      <trkpt lon="-3.315785" lat="54.564720"><ele>111.677658</ele><time>2021-08-12T12:44:13Z</time><extensions><speed>1.351977</speed><course>71.686111</course><hAcc>0.882352</hAcc><vAcc>0.708798</vAcc></extensions></trkpt>
      <trkpt lon="-3.315798" lat="54.564730"><ele>111.699577</ele><time>2021-08-12T12:44:14Z</time><extensions><speed>1.352391</speed><course>76.597496</course><hAcc>0.882452</hAcc><vAcc>0.709215</vAcc></extensions></trkpt>
      <trkpt lon="-3.315811" lat="54.564739"><ele>111.727264</ele><time>2021-08-12T12:44:15Z</time><extensions><speed>1.350779</speed><course>90.005066</course><hAcc>0.882555</hAcc><vAcc>0.709637</vAcc></extensions></trkpt>
      <trkpt lon="-3.315824" lat="54.564749"><ele>111.758476</ele><time>2021-08-12T12:44:16Z</time><extensions><speed>1.346907</speed><course>83.948074</course><hAcc>0.882655</hAcc><vAcc>0.710048</vAcc></extensions></trkpt>
      <trkpt lon="-3.315838" lat="54.564758"><ele>111.790733</ele><time>2021-08-12T12:44:17Z</time><extensions><speed>1.340977</speed><course>76.996796</course><hAcc>0.882748</hAcc><vAcc>0.710436</vAcc></extensions></trkpt>
      <trkpt lon="-3.315851" lat="54.564767"><ele>111.821785</ele><time>2021-08-12T12:44:18Z</time><extensions><speed>1.333916</speed><course>79.507355</course><hAcc>0.882832</hAcc><vAcc>0.710784</vAcc></extensions></trkpt>
      <trkpt lon="-3.315865" lat="54.564776"><ele>111.849701</ele><time>2021-08-12T12:44:19Z</time><extensions><speed>1.326842</speed><course>72.096832</course><hAcc>0.882903</hAcc><vAcc>0.711076</vAcc></extensions></trkpt>
      <trkpt lon="-3.315878" lat="54.564785"><ele>111.872925</ele><time>2021-08-12T12:44:20Z</time><extensions><speed>1.320202</speed><course>80.368279</course><hAcc>0.882959</hAcc><vAcc>0.711299</vAcc></extensions></trkpt>
      <trkpt lon="-3.315891" lat="54.564794"><ele>111.890526</ele><time>2021-08-12T12:44:21Z</time><extensions><speed>1.314787</speed><course>78.982643</course><hAcc>0.883000</hAcc><vAcc>0.711447</vAcc></extensions></trkpt>
      <trkpt lon="-3.315904" lat="54.564803"><ele>111.902138</ele><time>2021-08-12T12:44:22Z</time><extensions><speed>1.311606</speed><course>81.075706</course><hAcc>0.883025</hAcc><vAcc>0.711519</vAcc></extensions></trkpt>
      <trkpt lon="-3.315917" lat="54.564812"><ele>111.907837</ele><time>2021-08-12T12:44:23Z</time><extensions><speed>1.310960</speed><course>81.007790</course><hAcc>0.883034</hAcc><vAcc>0.711517</vAcc></extensions></trkpt>
      <trkpt lon="-3.315930" lat="54.564821"><ele>111.907982</ele><time>2021-08-12T12:44:24Z</time><extensions><speed>1.312928</speed><course>78.272133</course><hAcc>0.883029</hAcc><vAcc>0.711454</vAcc></extensions></trkpt>
      <trkpt lon="-3.315942" lat="54.564831"><ele>111.903168</ele><time>2021-08-12T12:44:25Z</time><extensions><speed>1.317291</speed><course>73.069588</course><hAcc>0.883012</hAcc><vAcc>0.711343</vAcc></extensions></trkpt>
      <trkpt lon="-3.315954" lat="54.564840"><ele>111.894234</ele><time>2021-08-12T12:44:26Z</time><extensions><speed>1.322998</speed><course>77.189682</course><hAcc>0.882985</hAcc><vAcc>0.711200</vAcc></extensions></trkpt>
      <trkpt lon="-3.315966" lat="54.564850"><ele>111.882347</ele><time>2021-08-12T12:44:27Z</time><extensions><speed>1.328994</speed><course>75.197517</course><hAcc>0.882951</hAcc><vAcc>0.711038</vAcc></extensions></trkpt>
      <trkpt lon="-3.315978" lat="54.564860"><ele>111.869217</ele><time>2021-08-12T12:44:28Z</time><extensions><speed>1.335262</speed><course>67.733307</course><hAcc>0.882912</hAcc><vAcc>0.710868</vAcc></extensions></trkpt>
      <trkpt lon="-3.315989" lat="54.564870"><ele>111.856712</ele><time>2021-08-12T12:44:29Z</time><extensions><speed>1.341799</speed><course>69.123688</course><hAcc>0.882872</hAcc><vAcc>0.710696</vAcc></extensions></trkpt>
      <trkpt lon="-3.316001" lat="54.564880"><ele>111.846375</ele><time>2021-08-12T12:44:30Z</time><extensions><speed>1.348238</speed><course>71.299400</course><hAcc>0.882833</hAcc><vAcc>0.710532</vAcc></extensions></trkpt>
      <trkpt lon="-3.316013" lat="54.564890"><ele>111.839363</ele><time>2021-08-12T12:44:31Z</time><extensions><speed>1.354281</speed><course>77.479210</course><hAcc>0.882797</hAcc><vAcc>0.710387</vAcc></extensions></trkpt>
      <trkpt lon="-3.316025" lat="54.564900"><ele>111.836678</ele><time>2021-08-12T12:44:32Z</time><extensions><speed>1.359635</speed><course>68.623329</course><hAcc>0.882764</hAcc><vAcc>0.710265</vAcc></extensions></trkpt>
      <trkpt lon="-3.316037" lat="54.564910"><ele>111.839386</ele><time>2021-08-12T12:44:33Z</time><extensions><speed>1.364034</speed><course>63.866425</course><hAcc>0.882737</hAcc><vAcc>0.710169</vAcc></extensions></trkpt>
      <trkpt lon="-3.316049" lat="54.564920"><ele>111.848602</ele><time>2021-08-12T12:44:34Z</time><extensions><speed>1.367011</speed><course>76.291603</course><hAcc>0.882715</hAcc><vAcc>0.710096</vAcc></extensions></trkpt>
      <trkpt lon="-3.316061" lat="54.564930"><ele>111.864937</ele><time>2021-08-12T12:44:35Z</time><extensions><speed>1.368269</speed><course>71.777351</course><hAcc>0.882699</hAcc><vAcc>0.710045</vAcc></extensions></trkpt>
      <trkpt lon="-3.316073" lat="54.564940"><ele>111.888092</ele><time>2021-08-12T12:44:36Z</time><extensions><speed>1.367671</speed><course>76.476341</course><hAcc>0.882688</hAcc><vAcc>0.710016</vAcc></extensions></trkpt>
      <trkpt lon="-3.316085" lat="54.564950"><ele>111.916924</ele><time>2021-08-12T12:44:37Z</time><extensions><speed>1.365175</speed><course>63.346680</course><hAcc>0.882682</hAcc><vAcc>0.710007</vAcc></extensions></trkpt>
      <trkpt lon="-3.316097" lat="54.564960"><ele>111.950081</ele><time>2021-08-12T12:44:38Z</time><extensions><speed>1.361526</speed><course>60.883244</course><hAcc>0.882681</hAcc><vAcc>0.710012</vAcc></extensions></trkpt>
      <trkpt lon="-3.316110" lat="54.564970"><ele>111.986534</ele><time>2021-08-12T12:44:39Z</time><extensions><speed>1.357474</speed><course>66.100471</course><hAcc>0.882683</hAcc><vAcc>0.710024</vAcc></extensions></trkpt>
      <trkpt lon="-3.316122" lat="54.564980"><ele>112.025444</ele><time>2021-08-12T12:44:40Z</time><extensions><speed>1.353248</speed><course>66.284729</course><hAcc>0.882686</hAcc><vAcc>0.710041</vAcc></extensions></trkpt>
      <trkpt lon="-3.316134" lat="54.564990"><ele>112.065765</ele><time>2021-08-12T12:44:41Z</time><extensions><speed>1.348907</speed><course>70.183884</course><hAcc>0.882690</hAcc><vAcc>0.710063</vAcc></extensions></trkpt>
      <trkpt lon="-3.316146" lat="54.565000"><ele>112.106201</ele><time>2021-08-12T12:44:42Z</time><extensions><speed>1.343946</speed><course>69.091454</course><hAcc>0.882691</hAcc><vAcc>0.710089</vAcc></extensions></trkpt>
      <trkpt lon="-3.316158" lat="54.565010"><ele>112.145134</ele><time>2021-08-12T12:44:43Z</time><extensions><speed>1.337351</speed><course>67.595528</course><hAcc>0.882689</hAcc><vAcc>0.710115</vAcc></extensions></trkpt>
      <trkpt lon="-3.316169" lat="54.565020"><ele>112.180313</ele><time>2021-08-12T12:44:44Z</time><extensions><speed>1.328545</speed><course>69.079941</course><hAcc>0.882681</hAcc><vAcc>0.710132</vAcc></extensions></trkpt>
      <trkpt lon="-3.316180" lat="54.565030"><ele>112.208862</ele><time>2021-08-12T12:44:45Z</time><extensions><speed>1.317621</speed><course>67.638985</course><hAcc>0.882666</hAcc><vAcc>0.710123</vAcc></extensions></trkpt>
      <trkpt lon="-3.316191" lat="54.565040"><ele>112.227791</ele><time>2021-08-12T12:44:46Z</time><extensions><speed>1.305027</speed><course>67.902077</course><hAcc>0.882642</hAcc><vAcc>0.710072</vAcc></extensions></trkpt>
      <trkpt lon="-3.316201" lat="54.565050"><ele>112.234444</ele><time>2021-08-12T12:44:47Z</time><extensions><speed>1.291574</speed><course>68.213737</course><hAcc>0.882609</hAcc><vAcc>0.709966</vAcc></extensions></trkpt>
      <trkpt lon="-3.316212" lat="54.565060"><ele>112.226646</ele><time>2021-08-12T12:44:48Z</time><extensions><speed>1.277930</speed><course>58.646133</course><hAcc>0.882567</hAcc><vAcc>0.709803</vAcc></extensions></trkpt>
      <trkpt lon="-3.316221" lat="54.565069"><ele>112.202927</ele><time>2021-08-12T12:44:49Z</time><extensions><speed>1.264441</speed><course>60.787758</course><hAcc>0.882517</hAcc><vAcc>0.709589</vAcc></extensions></trkpt>
      <trkpt lon="-3.316230" lat="54.565079"><ele>112.162560</ele><time>2021-08-12T12:44:50Z</time><extensions><speed>1.251138</speed><course>59.107254</course><hAcc>0.882457</hAcc><vAcc>0.709335</vAcc></extensions></trkpt>
      <trkpt lon="-3.316239" lat="54.565089"><ele>112.105438</ele><time>2021-08-12T12:44:51Z</time><extensions><speed>1.238030</speed><course>59.308796</course><hAcc>0.882391</hAcc><vAcc>0.709054</vAcc></extensions></trkpt>
      <trkpt lon="-3.316248" lat="54.565099"><ele>112.032227</ele><time>2021-08-12T12:44:52Z</time><extensions><speed>1.225365</speed><course>63.536522</course><hAcc>0.882320</hAcc><vAcc>0.708757</vAcc></extensions></trkpt>
      <trkpt lon="-3.316256" lat="54.565109"><ele>111.944298</ele><time>2021-08-12T12:44:53Z</time><extensions><speed>1.212484</speed><course>64.110619</course><hAcc>0.882247</hAcc><vAcc>0.708456</vAcc></extensions></trkpt>
      <trkpt lon="-3.316264" lat="54.565119"><ele>111.843613</ele><time>2021-08-12T12:44:54Z</time><extensions><speed>1.197945</speed><course>57.783936</course><hAcc>0.882172</hAcc><vAcc>0.708162</vAcc></extensions></trkpt>
      <trkpt lon="-3.316272" lat="54.565129"><ele>111.732559</ele><time>2021-08-12T12:44:55Z</time><extensions><speed>1.180790</speed><course>62.673740</course><hAcc>0.882100</hAcc><vAcc>0.707880</vAcc></extensions></trkpt>
      <trkpt lon="-3.316279" lat="54.565138"><ele>111.613884</ele><time>2021-08-12T12:44:56Z</time><extensions><speed>1.160427</speed><course>68.268181</course><hAcc>0.882030</hAcc><vAcc>0.707616</vAcc></extensions></trkpt>
      <trkpt lon="-3.316286" lat="54.565148"><ele>111.490578</ele><time>2021-08-12T12:44:57Z</time><extensions><speed>1.136672</speed><course>59.735432</course><hAcc>0.881964</hAcc><vAcc>0.707369</vAcc></extensions></trkpt>
      <trkpt lon="-3.316293" lat="54.565157"><ele>111.365570</ele><time>2021-08-12T12:44:58Z</time><extensions><speed>1.108931</speed><course>59.192490</course><hAcc>0.881903</hAcc><vAcc>0.707142</vAcc></extensions></trkpt>
      <trkpt lon="-3.316300" lat="54.565166"><ele>111.241661</ele><time>2021-08-12T12:44:59Z</time><extensions><speed>1.076370</speed><course>60.825825</course><hAcc>0.881846</hAcc><vAcc>0.706935</vAcc></extensions></trkpt>
      <trkpt lon="-3.316307" lat="54.565175"><ele>111.121582</ele><time>2021-08-12T12:45:00Z</time><extensions><speed>1.038297</speed><course>62.921200</course><hAcc>0.881792</hAcc><vAcc>0.706749</vAcc></extensions></trkpt>
      <trkpt lon="-3.316313" lat="54.565183"><ele>111.007820</ele><time>2021-08-12T12:45:01Z</time><extensions><speed>0.994286</speed><course>59.145714</course><hAcc>0.881737</hAcc><vAcc>0.706578</vAcc></extensions></trkpt>
      <trkpt lon="-3.316319" lat="54.565191"><ele>110.902321</ele><time>2021-08-12T12:45:02Z</time><extensions><speed>0.944114</speed><course>54.852036</course><hAcc>0.881680</hAcc><vAcc>0.706412</vAcc></extensions></trkpt>
      <trkpt lon="-3.316325" lat="54.565198"><ele>110.806541</ele><time>2021-08-12T12:45:03Z</time><extensions><speed>0.887168</speed><course>52.958679</course><hAcc>0.881615</hAcc><vAcc>0.706241</vAcc></extensions></trkpt>
      <trkpt lon="-3.316331" lat="54.565205"><ele>110.721413</ele><time>2021-08-12T12:45:04Z</time><extensions><speed>0.823583</speed><course>51.642593</course><hAcc>0.881539</hAcc><vAcc>0.706046</vAcc></extensions></trkpt>
      <trkpt lon="-3.316336" lat="54.565212"><ele>110.647316</ele><time>2021-08-12T12:45:05Z</time><extensions><speed>0.754352</speed><course>50.915668</course><hAcc>0.881446</hAcc><vAcc>0.705805</vAcc></extensions></trkpt>
      <trkpt lon="-3.316341" lat="54.565217"><ele>110.584183</ele><time>2021-08-12T12:45:06Z</time><extensions><speed>0.681503</speed><course>43.517220</course><hAcc>0.881334</hAcc><vAcc>0.705491</vAcc></extensions></trkpt>
      <trkpt lon="-3.316345" lat="54.565223"><ele>110.531776</ele><time>2021-08-12T12:45:07Z</time><extensions><speed>0.608343</speed><course>53.213661</course><hAcc>0.881199</hAcc><vAcc>0.705076</vAcc></extensions></trkpt>
      <trkpt lon="-3.316349" lat="54.565227"><ele>110.489601</ele><time>2021-08-12T12:45:08Z</time><extensions><speed>0.538753</speed><course>42.672325</course><hAcc>0.881041</hAcc><vAcc>0.704541</vAcc></extensions></trkpt>
      <trkpt lon="-3.316352" lat="54.565231"><ele>110.456863</ele><time>2021-08-12T12:45:09Z</time><extensions><speed>0.476567</speed><course>57.842590</course><hAcc>0.880860</hAcc><vAcc>0.703880</vAcc></extensions></trkpt>
      <trkpt lon="-3.316356" lat="54.565235"><ele>110.432549</ele><time>2021-08-12T12:45:10Z</time><extensions><speed>0.425273</speed><course>54.432369</course><hAcc>0.880659</hAcc><vAcc>0.703101</vAcc></extensions></trkpt>
      <trkpt lon="-3.316359" lat="54.565238"><ele>110.415718</ele><time>2021-08-12T12:45:11Z</time><extensions><speed>0.387877</speed><course>53.099045</course><hAcc>0.880445</hAcc><vAcc>0.702224</vAcc></extensions></trkpt>
      <trkpt lon="-3.316362" lat="54.565241"><ele>110.405670</ele><time>2021-08-12T12:45:12Z</time><extensions><speed>0.366693</speed><course>52.709480</course><hAcc>0.880225</hAcc><vAcc>0.701287</vAcc></extensions></trkpt>
      <trkpt lon="-3.316365" lat="54.565244"><ele>110.401985</ele><time>2021-08-12T12:45:13Z</time><extensions><speed>0.363341</speed><course>55.566643</course><hAcc>0.880008</hAcc><vAcc>0.700343</vAcc></extensions></trkpt>
      <trkpt lon="-3.316369" lat="54.565246"><ele>110.404427</ele><time>2021-08-12T12:45:14Z</time><extensions><speed>0.377733</speed><course>50.999676</course><hAcc>0.879806</hAcc><vAcc>0.699452</vAcc></extensions></trkpt>
      <trkpt lon="-3.316373" lat="54.565249"><ele>110.412827</ele><time>2021-08-12T12:45:15Z</time><extensions><speed>0.408116</speed><course>49.932701</course><hAcc>0.879627</hAcc><vAcc>0.698677</vAcc></extensions></trkpt>
      <trkpt lon="-3.316378" lat="54.565251"><ele>110.427116</ele><time>2021-08-12T12:45:16Z</time><extensions><speed>0.452123</speed><course>44.103298</course><hAcc>0.879480</hAcc><vAcc>0.698064</vAcc></extensions></trkpt>
      <trkpt lon="-3.316383" lat="54.565254"><ele>110.447334</ele><time>2021-08-12T12:45:17Z</time><extensions><speed>0.507058</speed><course>35.959499</course><hAcc>0.879371</hAcc><vAcc>0.697637</vAcc></extensions></trkpt>
      <trkpt lon="-3.316390" lat="54.565258"><ele>110.473541</ele><time>2021-08-12T12:45:18Z</time><extensions><speed>0.569971</speed><course>30.952709</course><hAcc>0.879302</hAcc><vAcc>0.697402</vAcc></extensions></trkpt>
      <trkpt lon="-3.316397" lat="54.565261"><ele>110.505676</ele><time>2021-08-12T12:45:19Z</time><extensions><speed>0.637621</speed><course>43.709347</course><hAcc>0.879274</hAcc><vAcc>0.697344</vAcc></extensions></trkpt>
      <trkpt lon="-3.316404" lat="54.565265"><ele>110.543419</ele><time>2021-08-12T12:45:20Z</time><extensions><speed>0.707063</speed><course>37.574459</course><hAcc>0.879285</hAcc><vAcc>0.697440</vAcc></extensions></trkpt>
      <trkpt lon="-3.316413" lat="54.565270"><ele>110.586105</ele><time>2021-08-12T12:45:21Z</time><extensions><speed>0.775871</speed><course>40.028488</course><hAcc>0.879329</hAcc><vAcc>0.697667</vAcc></extensions></trkpt>
      <trkpt lon="-3.316421" lat="54.565275"><ele>110.632957</ele><time>2021-08-12T12:45:22Z</time><extensions><speed>0.842136</speed><course>39.088745</course><hAcc>0.879400</hAcc><vAcc>0.697999</vAcc></extensions></trkpt>
      <trkpt lon="-3.316431" lat="54.565280"><ele>110.683281</ele><time>2021-08-12T12:45:23Z</time><extensions><speed>0.904741</speed><course>38.227211</course><hAcc>0.879491</hAcc><vAcc>0.698409</vAcc></extensions></trkpt>
      <trkpt lon="-3.316441" lat="54.565287"><ele>110.736603</ele><time>2021-08-12T12:45:24Z</time><extensions><speed>0.963710</speed><course>38.580025</course><hAcc>0.879591</hAcc><vAcc>0.698863</vAcc></extensions></trkpt>
      <trkpt lon="-3.316452" lat="54.565293"><ele>110.792610</ele><time>2021-08-12T12:45:25Z</time><extensions><speed>1.019576</speed><course>36.225418</course><hAcc>0.879692</hAcc><vAcc>0.699330</vAcc></extensions></trkpt>
      <trkpt lon="-3.316463" lat="54.565300"><ele>110.851059</ele><time>2021-08-12T12:45:26Z</time><extensions><speed>1.072237</speed><course>36.482189</course><hAcc>0.879783</hAcc><vAcc>0.699774</vAcc></extensions></trkpt>
      <trkpt lon="-3.316474" lat="54.565307"><ele>110.911705</ele><time>2021-08-12T12:45:27Z</time><extensions><speed>1.121561</speed><course>45.117634</course><hAcc>0.879854</hAcc><vAcc>0.700154</vAcc></extensions></trkpt>
      <trkpt lon="-3.316487" lat="54.565314"><ele>110.974319</ele><time>2021-08-12T12:45:28Z</time><extensions><speed>1.167407</speed><course>40.176819</course><hAcc>0.879897</hAcc><vAcc>0.700426</vAcc></extensions></trkpt>
      <trkpt lon="-3.316499" lat="54.565322"><ele>111.038834</ele><time>2021-08-12T12:45:29Z</time><extensions><speed>1.209430</speed><course>42.588684</course><hAcc>0.879902</hAcc><vAcc>0.700547</vAcc></extensions></trkpt>
      <trkpt lon="-3.316513" lat="54.565330"><ele>111.105324</ele><time>2021-08-12T12:45:30Z</time><extensions><speed>1.247103</speed><course>41.771687</course><hAcc>0.879865</hAcc><vAcc>0.700482</vAcc></extensions></trkpt>
      <trkpt lon="-3.316526" lat="54.565338"><ele>111.173424</ele><time>2021-08-12T12:45:31Z</time><extensions><speed>1.279734</speed><course>41.372017</course><hAcc>0.879781</hAcc><vAcc>0.700206</vAcc></extensions></trkpt>
      <trkpt lon="-3.316540" lat="54.565346"><ele>111.242012</ele><time>2021-08-12T12:45:32Z</time><extensions><speed>1.306193</speed><course>37.017429</course><hAcc>0.879650</hAcc><vAcc>0.699710</vAcc></extensions></trkpt>
      <trkpt lon="-3.316555" lat="54.565355"><ele>111.309364</ele><time>2021-08-12T12:45:33Z</time><extensions><speed>1.325160</speed><course>28.588495</course><hAcc>0.879474</hAcc><vAcc>0.699007</vAcc></extensions></trkpt>
      <trkpt lon="-3.316569" lat="54.565363"><ele>111.373680</ele><time>2021-08-12T12:45:34Z</time><extensions><speed>1.336893</speed><course>39.512306</course><hAcc>0.879256</hAcc><vAcc>0.698129</vAcc></extensions></trkpt>
      <trkpt lon="-3.316584" lat="54.565372"><ele>111.433754</ele><time>2021-08-12T12:45:35Z</time><extensions><speed>1.342912</speed><course>38.955353</course><hAcc>0.879003</hAcc><vAcc>0.697112</vAcc></extensions></trkpt>
      <trkpt lon="-3.316598" lat="54.565381"><ele>111.489258</ele><time>2021-08-12T12:45:36Z</time><extensions><speed>1.344713</speed><course>35.270641</course><hAcc>0.878724</hAcc><vAcc>0.695996</vAcc></extensions></trkpt>
      <trkpt lon="-3.316612" lat="54.565389"><ele>111.540276</ele><time>2021-08-12T12:45:37Z</time><extensions><speed>1.343363</speed><course>38.302330</course><hAcc>0.878426</hAcc><vAcc>0.694816</vAcc></extensions></trkpt>
      <trkpt lon="-3.316627" lat="54.565398"><ele>111.587242</ele><time>2021-08-12T12:45:38Z</time><extensions><speed>1.339402</speed><course>40.976086</course><hAcc>0.878119</hAcc><vAcc>0.693614</vAcc></extensions></trkpt>
      <trkpt lon="-3.316641" lat="54.565407"><ele>111.631119</ele><time>2021-08-12T12:45:39Z</time><extensions><speed>1.333886</speed><course>40.718147</course><hAcc>0.877812</hAcc><vAcc>0.692435</vAcc></extensions></trkpt>
      <trkpt lon="-3.316655" lat="54.565416"><ele>111.672882</ele><time>2021-08-12T12:45:40Z</time><extensions><speed>1.328717</speed><course>40.437557</course><hAcc>0.877513</hAcc><vAcc>0.691309</vAcc></extensions></trkpt>
      <trkpt lon="-3.316669" lat="54.565424"><ele>111.712914</ele><time>2021-08-12T12:45:41Z</time><extensions><speed>1.324637</speed><course>38.315979</course><hAcc>0.877226</hAcc><vAcc>0.690249</vAcc></extensions></trkpt>
      <trkpt lon="-3.316682" lat="54.565433"><ele>111.750954</ele><time>2021-08-12T12:45:42Z</time><extensions><speed>1.320385</speed><course>28.668550</course><hAcc>0.876958</hAcc><vAcc>0.689262</vAcc></extensions></trkpt>
      <trkpt lon="-3.316696" lat="54.565442"><ele>111.786095</ele><time>2021-08-12T12:45:43Z</time><extensions><speed>1.314736</speed><course>31.392698</course><hAcc>0.876712</hAcc><vAcc>0.688357</vAcc></extensions></trkpt>
      <trkpt lon="-3.316710" lat="54.565450"><ele>111.816727</ele><time>2021-08-12T12:45:44Z</time><extensions><speed>1.307478</speed><course>32.848076</course><hAcc>0.876493</hAcc><vAcc>0.687542</vAcc></extensions></trkpt>
      <trkpt lon="-3.316724" lat="54.565459"><ele>111.840775</ele><time>2021-08-12T12:45:45Z</time><extensions><speed>1.298832</speed><course>38.096359</course><hAcc>0.876303</hAcc><vAcc>0.686830</vAcc></extensions></trkpt>
      <trkpt lon="-3.316737" lat="54.565468"><ele>111.855972</ele><time>2021-08-12T12:45:46Z</time><extensions><speed>1.289603</speed><course>27.737675</course><hAcc>0.876147</hAcc><vAcc>0.686236</vAcc></extensions></trkpt>
      <trkpt lon="-3.316750" lat="54.565476"><ele>111.860191</ele><time>2021-08-12T12:45:47Z</time><extensions><speed>1.280583</speed><course>38.820049</course><hAcc>0.876027</hAcc><vAcc>0.685775</vAcc></extensions></trkpt>
      <trkpt lon="-3.316763" lat="54.565485"><ele>111.851471</ele><time>2021-08-12T12:45:48Z</time><extensions><speed>1.272105</speed><course>40.137299</course><hAcc>0.875944</hAcc><vAcc>0.685459</vAcc></extensions></trkpt>
      <trkpt lon="-3.316776" lat="54.565494"><ele>111.828171</ele><time>2021-08-12T12:45:49Z</time><extensions><speed>1.264253</speed><course>44.560421</course><hAcc>0.875899</hAcc><vAcc>0.685296</vAcc></extensions></trkpt>
      <trkpt lon="-3.316788" lat="54.565503"><ele>111.789787</ele><time>2021-08-12T12:45:50Z</time><extensions><speed>1.256734</speed><course>41.574787</course><hAcc>0.875891</hAcc><vAcc>0.685285</vAcc></extensions></trkpt>
      <trkpt lon="-3.316800" lat="54.565512"><ele>111.737534</ele><time>2021-08-12T12:45:51Z</time><extensions><speed>1.249310</speed><course>37.402897</course><hAcc>0.875916</hAcc><vAcc>0.685419</vAcc></extensions></trkpt>
      <trkpt lon="-3.316811" lat="54.565521"><ele>111.673805</ele><time>2021-08-12T12:45:52Z</time><extensions><speed>1.241285</speed><course>38.445354</course><hAcc>0.875970</hAcc><vAcc>0.685677</vAcc></extensions></trkpt>
      <trkpt lon="-3.316822" lat="54.565530"><ele>111.601524</ele><time>2021-08-12T12:45:53Z</time><extensions><speed>1.231561</speed><course>32.932274</course><hAcc>0.876046</hAcc><vAcc>0.686025</vAcc></extensions></trkpt>
      <trkpt lon="-3.316833" lat="54.565539"><ele>111.523727</ele><time>2021-08-12T12:45:54Z</time><extensions><speed>1.219387</speed><course>27.701353</course><hAcc>0.876135</hAcc><vAcc>0.686427</vAcc></extensions></trkpt>
      <trkpt lon="-3.316843" lat="54.565548"><ele>111.443253</ele><time>2021-08-12T12:45:55Z</time><extensions><speed>1.204525</speed><course>28.233585</course><hAcc>0.876230</hAcc><vAcc>0.686846</vAcc></extensions></trkpt>
      <trkpt lon="-3.316854" lat="54.565557"><ele>111.362640</ele><time>2021-08-12T12:45:56Z</time><extensions><speed>1.187998</speed><course>30.003765</course><hAcc>0.876322</hAcc><vAcc>0.687245</vAcc></extensions></trkpt>
      <trkpt lon="-3.316864" lat="54.565565"><ele>111.284630</ele><time>2021-08-12T12:45:57Z</time><extensions><speed>1.171612</speed><course>35.586266</course><hAcc>0.876404</hAcc><vAcc>0.687588</vAcc></extensions></trkpt>
      <trkpt lon="-3.316874" lat="54.565574"><ele>111.212723</ele><time>2021-08-12T12:45:58Z</time><extensions><speed>1.157418</speed><course>41.034397</course><hAcc>0.876469</hAcc><vAcc>0.687852</vAcc></extensions></trkpt>
      <trkpt lon="-3.316885" lat="54.565582"><ele>111.151154</ele><time>2021-08-12T12:45:59Z</time><extensions><speed>1.147732</speed><course>43.040592</course><hAcc>0.876514</hAcc><vAcc>0.688026</vAcc></extensions></trkpt>
      <trkpt lon="-3.316895" lat="54.565591"><ele>111.104515</ele><time>2021-08-12T12:46:00Z</time><extensions><speed>1.143767</speed><course>49.550934</course><hAcc>0.876536</hAcc><vAcc>0.688107</vAcc></extensions></trkpt>
      <trkpt lon="-3.316906" lat="54.565599"><ele>111.076981</ele><time>2021-08-12T12:46:01Z</time><extensions><speed>1.144917</speed><course>62.069283</course><hAcc>0.876532</hAcc><vAcc>0.688092</vAcc></extensions></trkpt>
      <trkpt lon="-3.316918" lat="54.565607"><ele>111.071480</ele><time>2021-08-12T12:46:02Z</time><extensions><speed>1.150566</speed><course>68.512573</course><hAcc>0.876503</hAcc><vAcc>0.687975</vAcc></extensions></trkpt>
      <trkpt lon="-3.316930" lat="54.565614"><ele>111.089279</ele><time>2021-08-12T12:46:03Z</time><extensions><speed>1.159916</speed><course>76.544746</course><hAcc>0.876449</hAcc><vAcc>0.687759</vAcc></extensions></trkpt>
      <trkpt lon="-3.316942" lat="54.565622"><ele>111.130486</ele><time>2021-08-12T12:46:04Z</time><extensions><speed>1.171985</speed><course>91.471558</course><hAcc>0.876373</hAcc><vAcc>0.687451</vAcc></extensions></trkpt>
      <trkpt lon="-3.316955" lat="54.565629"><ele>111.194656</ele><time>2021-08-12T12:46:05Z</time><extensions><speed>1.185514</speed><course>103.707001</course><hAcc>0.876276</hAcc><vAcc>0.687066</vAcc></extensions></trkpt>
      <trkpt lon="-3.316968" lat="54.565637"><ele>111.280563</ele><time>2021-08-12T12:46:06Z</time><extensions><speed>1.198722</speed><course>102.240677</course><hAcc>0.876165</hAcc><vAcc>0.686623</vAcc></extensions></trkpt>
      <trkpt lon="-3.316982" lat="54.565644"><ele>111.385849</ele><time>2021-08-12T12:46:07Z</time><extensions><speed>1.210721</speed><course>109.008522</course><hAcc>0.876042</hAcc><vAcc>0.686144</vAcc></extensions></trkpt>
      <trkpt lon="-3.316996" lat="54.565651"><ele>111.507347</ele><time>2021-08-12T12:46:08Z</time><extensions><speed>1.221549</speed><course>120.687057</course><hAcc>0.875911</hAcc><vAcc>0.685645</vAcc></extensions></trkpt>
      <trkpt lon="-3.317010" lat="54.565658"><ele>111.641388</ele><time>2021-08-12T12:46:09Z</time><extensions><speed>1.231590</speed><course>122.518364</course><hAcc>0.875778</hAcc><vAcc>0.685139</vAcc></extensions></trkpt>
      <trkpt lon="-3.317025" lat="54.565666"><ele>111.783722</ele><time>2021-08-12T12:46:10Z</time><extensions><speed>1.241225</speed><course>116.435341</course><hAcc>0.875644</hAcc><vAcc>0.684635</vAcc></extensions></trkpt>
      <trkpt lon="-3.317040" lat="54.565673"><ele>111.929810</ele><time>2021-08-12T12:46:11Z</time><extensions><speed>1.250243</speed><course>123.806564</course><hAcc>0.875513</hAcc><vAcc>0.684146</vAcc></extensions></trkpt>
      <trkpt lon="-3.317054" lat="54.565680"><ele>112.075317</ele><time>2021-08-12T12:46:12Z</time><extensions><speed>1.257780</speed><course>121.279266</course><hAcc>0.875389</hAcc><vAcc>0.683683</vAcc></extensions></trkpt>
      <trkpt lon="-3.317069" lat="54.565688"><ele>112.216141</ele><time>2021-08-12T12:46:13Z</time><extensions><speed>1.263849</speed><course>122.295830</course><hAcc>0.875272</hAcc><vAcc>0.683255</vAcc></extensions></trkpt>
      <trkpt lon="-3.317083" lat="54.565695"><ele>112.348953</ele><time>2021-08-12T12:46:14Z</time><extensions><speed>1.269118</speed><course>116.485687</course><hAcc>0.875164</hAcc><vAcc>0.682868</vAcc></extensions></trkpt>
      <trkpt lon="-3.317098" lat="54.565703"><ele>112.471489</ele><time>2021-08-12T12:46:15Z</time><extensions><speed>1.273598</speed><course>120.837761</course><hAcc>0.875067</hAcc><vAcc>0.682523</vAcc></extensions></trkpt>
      <trkpt lon="-3.317112" lat="54.565711"><ele>112.582367</ele><time>2021-08-12T12:46:16Z</time><extensions><speed>1.276907</speed><course>121.691162</course><hAcc>0.874980</hAcc><vAcc>0.682222</vAcc></extensions></trkpt>
      <trkpt lon="-3.317126" lat="54.565719"><ele>112.681099</ele><time>2021-08-12T12:46:17Z</time><extensions><speed>1.278799</speed><course>120.429344</course><hAcc>0.874904</hAcc><vAcc>0.681967</vAcc></extensions></trkpt>
      <trkpt lon="-3.317140" lat="54.565728"><ele>112.767876</ele><time>2021-08-12T12:46:18Z</time><extensions><speed>1.279346</speed><course>127.922836</course><hAcc>0.874839</hAcc><vAcc>0.681757</vAcc></extensions></trkpt>
      <trkpt lon="-3.317153" lat="54.565736"><ele>112.843010</ele><time>2021-08-12T12:46:19Z</time><extensions><speed>1.278435</speed><course>122.773224</course><hAcc>0.874784</hAcc><vAcc>0.681582</vAcc></extensions></trkpt>
      <trkpt lon="-3.317166" lat="54.565745"><ele>112.906921</ele><time>2021-08-12T12:46:20Z</time><extensions><speed>1.276429</speed><course>127.410233</course><hAcc>0.874739</hAcc><vAcc>0.681426</vAcc></extensions></trkpt>
      <trkpt lon="-3.317179" lat="54.565753"><ele>112.960533</ele><time>2021-08-12T12:46:21Z</time><extensions><speed>1.273813</speed><course>126.293243</course><hAcc>0.874703</hAcc><vAcc>0.681281</vAcc></extensions></trkpt>
      <trkpt lon="-3.317191" lat="54.565762"><ele>113.005043</ele><time>2021-08-12T12:46:22Z</time><extensions><speed>1.270441</speed><course>113.773628</course><hAcc>0.874679</hAcc><vAcc>0.681153</vAcc></extensions></trkpt>
      <trkpt lon="-3.317203" lat="54.565771"><ele>113.041275</ele><time>2021-08-12T12:46:23Z</time><extensions><speed>1.265938</speed><course>111.597641</course><hAcc>0.874671</hAcc><vAcc>0.681067</vAcc></extensions></trkpt>
      <trkpt lon="-3.317215" lat="54.565781"><ele>113.069824</ele><time>2021-08-12T12:46:24Z</time><extensions><speed>1.259889</speed><course>118.242065</course><hAcc>0.874685</hAcc><vAcc>0.681055</vAcc></extensions></trkpt>
      <trkpt lon="-3.317226" lat="54.565790"><ele>113.091553</ele><time>2021-08-12T12:46:25Z</time><extensions><speed>1.252716</speed><course>121.318916</course><hAcc>0.874725</hAcc><vAcc>0.681149</vAcc></extensions></trkpt>
      <trkpt lon="-3.317236" lat="54.565799"><ele>113.107803</ele><time>2021-08-12T12:46:26Z</time><extensions><speed>1.245383</speed><course>126.571838</course><hAcc>0.874794</hAcc><vAcc>0.681375</vAcc></extensions></trkpt>
      <trkpt lon="-3.317247" lat="54.565809"><ele>113.120064</ele><time>2021-08-12T12:46:27Z</time><extensions><speed>1.238964</speed><course>116.053932</course><hAcc>0.874894</hAcc><vAcc>0.681743</vAcc></extensions></trkpt>
      <trkpt lon="-3.317256" lat="54.565818"><ele>113.129356</ele><time>2021-08-12T12:46:28Z</time><extensions><speed>1.233661</speed><course>122.553452</course><hAcc>0.875023</hAcc><vAcc>0.682247</vAcc></extensions></trkpt>
      <trkpt lon="-3.317266" lat="54.565828"><ele>113.136360</ele><time>2021-08-12T12:46:29Z</time><extensions><speed>1.228639</speed><course>115.362396</course><hAcc>0.875175</hAcc><vAcc>0.682869</vAcc></extensions></trkpt>
      <trkpt lon="-3.317275" lat="54.565837"><ele>113.141808</ele><time>2021-08-12T12:46:30Z</time><extensions><speed>1.222726</speed><course>120.016403</course><hAcc>0.875345</hAcc><vAcc>0.683574</vAcc></extensions></trkpt>
      <trkpt lon="-3.317284" lat="54.565847"><ele>113.146484</ele><time>2021-08-12T12:46:31Z</time><extensions><speed>1.215781</speed><course>131.521149</course><hAcc>0.875521</hAcc><vAcc>0.684316</vAcc></extensions></trkpt>
      <trkpt lon="-3.317293" lat="54.565856"><ele>113.151352</ele><time>2021-08-12T12:46:32Z</time><extensions><speed>1.208456</speed><course>124.976143</course><hAcc>0.875695</hAcc><vAcc>0.685041</vAcc></extensions></trkpt>
      <trkpt lon="-3.317303" lat="54.565866"><ele>113.157509</ele><time>2021-08-12T12:46:33Z</time><extensions><speed>1.200817</speed><course>123.546791</course><hAcc>0.875854</hAcc><vAcc>0.685704</vAcc></extensions></trkpt>
      <trkpt lon="-3.317312" lat="54.565875"><ele>113.165810</ele><time>2021-08-12T12:46:34Z</time><extensions><speed>1.192981</speed><course>116.699699</course><hAcc>0.875990</hAcc><vAcc>0.686266</vAcc></extensions></trkpt>
      <trkpt lon="-3.317321" lat="54.565884"><ele>113.177055</ele><time>2021-08-12T12:46:35Z</time><extensions><speed>1.186135</speed><course>112.924561</course><hAcc>0.876096</hAcc><vAcc>0.686696</vAcc></extensions></trkpt>
      <trkpt lon="-3.317331" lat="54.565893"><ele>113.192429</ele><time>2021-08-12T12:46:36Z</time><extensions><speed>1.182000</speed><course>117.858780</course><hAcc>0.876165</hAcc><vAcc>0.686965</vAcc></extensions></trkpt>
      <trkpt lon="-3.317341" lat="54.565902"><ele>113.213219</ele><time>2021-08-12T12:46:37Z</time><extensions><speed>1.181916</speed><course>111.630035</course><hAcc>0.876194</hAcc><vAcc>0.687058</vAcc></extensions></trkpt>
      <trkpt lon="-3.317352" lat="54.565911"><ele>113.240707</ele><time>2021-08-12T12:46:38Z</time><extensions><speed>1.186614</speed><course>115.453979</course><hAcc>0.876182</hAcc><vAcc>0.686976</vAcc></extensions></trkpt>
      <trkpt lon="-3.317363" lat="54.565919"><ele>113.276031</ele><time>2021-08-12T12:46:39Z</time><extensions><speed>1.195609</speed><course>108.625862</course><hAcc>0.876132</hAcc><vAcc>0.686736</vAcc></extensions></trkpt>
      <trkpt lon="-3.317374" lat="54.565928"><ele>113.319557</ele><time>2021-08-12T12:46:40Z</time><extensions><speed>1.207556</speed><course>116.435417</course><hAcc>0.876047</hAcc><vAcc>0.686363</vAcc></extensions></trkpt>
      <trkpt lon="-3.317386" lat="54.565936"><ele>113.370750</ele><time>2021-08-12T12:46:41Z</time><extensions><speed>1.221199</speed><course>112.323517</course><hAcc>0.875934</hAcc><vAcc>0.685886</vAcc></extensions></trkpt>
      <trkpt lon="-3.317398" lat="54.565945"><ele>113.428596</ele><time>2021-08-12T12:46:42Z</time><extensions><speed>1.235492</speed><course>117.491661</course><hAcc>0.875798</hAcc><vAcc>0.685336</vAcc></extensions></trkpt>
      <trkpt lon="-3.317411" lat="54.565953"><ele>113.491631</ele><time>2021-08-12T12:46:43Z</time><extensions><speed>1.249523</speed><course>120.293846</course><hAcc>0.875646</hAcc><vAcc>0.684739</vAcc></extensions></trkpt>
      <trkpt lon="-3.317423" lat="54.565962"><ele>113.557800</ele><time>2021-08-12T12:46:44Z</time><extensions><speed>1.261905</speed><course>115.591873</course><hAcc>0.875485</hAcc><vAcc>0.684121</vAcc></extensions></trkpt>
      <trkpt lon="-3.317436" lat="54.565971"><ele>113.624908</ele><time>2021-08-12T12:46:45Z</time><extensions><speed>1.271122</speed><course>116.468712</course><hAcc>0.875322</hAcc><vAcc>0.683504</vAcc></extensions></trkpt>
      <trkpt lon="-3.317448" lat="54.565980"><ele>113.691132</ele><time>2021-08-12T12:46:46Z</time><extensions><speed>1.275965</speed><course>116.627220</course><hAcc>0.875161</hAcc><vAcc>0.682905</vAcc></extensions></trkpt>
      <trkpt lon="-3.317460" lat="54.565989"><ele>113.755402</ele><time>2021-08-12T12:46:47Z</time><extensions><speed>1.276330</speed><course>115.487846</course><hAcc>0.875009</hAcc><vAcc>0.682337</vAcc></extensions></trkpt>
      <trkpt lon="-3.317472" lat="54.565998"><ele>113.817451</ele><time>2021-08-12T12:46:48Z</time><extensions><speed>1.273101</speed><course>110.303284</course><hAcc>0.874870</hAcc><vAcc>0.681806</vAcc></extensions></trkpt>
      <trkpt lon="-3.317483" lat="54.566007"><ele>113.877609</ele><time>2021-08-12T12:46:49Z</time><extensions><speed>1.266404</speed><course>107.900200</course><hAcc>0.874748</hAcc><vAcc>0.681327</vAcc></extensions></trkpt>
      <trkpt lon="-3.317495" lat="54.566016"><ele>113.936493</ele><time>2021-08-12T12:46:50Z</time><extensions><speed>1.255486</speed><course>104.901772</course><hAcc>0.874649</hAcc><vAcc>0.680922</vAcc></extensions></trkpt>
      <trkpt lon="-3.317506" lat="54.566026"><ele>113.994911</ele><time>2021-08-12T12:46:51Z</time><extensions><speed>1.239917</speed><course>102.625549</course><hAcc>0.874577</hAcc><vAcc>0.680621</vAcc></extensions></trkpt>
      <trkpt lon="-3.317516" lat="54.566035"><ele>114.053642</ele><time>2021-08-12T12:46:52Z</time><extensions><speed>1.220888</speed><course>101.615082</course><hAcc>0.874538</hAcc><vAcc>0.680451</vAcc></extensions></trkpt>
      <trkpt lon="-3.317527" lat="54.566044"><ele>114.113205</ele><time>2021-08-12T12:46:53Z</time><extensions><speed>1.200422</speed><course>104.820312</course><hAcc>0.874532</hAcc><vAcc>0.680427</vAcc></extensions></trkpt>
      <trkpt lon="-3.317537" lat="54.566053"><ele>114.173950</ele><time>2021-08-12T12:46:54Z</time><extensions><speed>1.179843</speed><course>97.837166</course><hAcc>0.874559</hAcc><vAcc>0.680550</vAcc></extensions></trkpt>
      <trkpt lon="-3.317547" lat="54.566061"><ele>114.236435</ele><time>2021-08-12T12:46:55Z</time><extensions><speed>1.160122</speed><course>99.518051</course><hAcc>0.874615</hAcc><vAcc>0.680803</vAcc></extensions></trkpt>
      <trkpt lon="-3.317557" lat="54.566070"><ele>114.301407</ele><time>2021-08-12T12:46:56Z</time><extensions><speed>1.142567</speed><course>105.468117</course><hAcc>0.874692</hAcc><vAcc>0.681159</vAcc></extensions></trkpt>
      <trkpt lon="-3.317568" lat="54.566078"><ele>114.369606</ele><time>2021-08-12T12:46:57Z</time><extensions><speed>1.128599</speed><course>105.021729</course><hAcc>0.874784</hAcc><vAcc>0.681584</vAcc></extensions></trkpt>
      <trkpt lon="-3.317578" lat="54.566086"><ele>114.441849</ele><time>2021-08-12T12:46:58Z</time><extensions><speed>1.118919</speed><course>105.854553</course><hAcc>0.874880</hAcc><vAcc>0.682030</vAcc></extensions></trkpt>
      <trkpt lon="-3.317588" lat="54.566094"><ele>114.518913</ele><time>2021-08-12T12:46:59Z</time><extensions><speed>1.112388</speed><course>116.038353</course><hAcc>0.874969</hAcc><vAcc>0.682447</vAcc></extensions></trkpt>
      <trkpt lon="-3.317599" lat="54.566102"><ele>114.601463</ele><time>2021-08-12T12:47:00Z</time><extensions><speed>1.107316</speed><course>116.622620</course><hAcc>0.875044</hAcc><vAcc>0.682791</vAcc></extensions></trkpt>
      <trkpt lon="-3.317609" lat="54.566110"><ele>114.690346</ele><time>2021-08-12T12:47:01Z</time><extensions><speed>1.103185</speed><course>116.023415</course><hAcc>0.875096</hAcc><vAcc>0.683024</vAcc></extensions></trkpt>
      <trkpt lon="-3.317620" lat="54.566118"><ele>114.786339</ele><time>2021-08-12T12:47:02Z</time><extensions><speed>1.100159</speed><course>111.053482</course><hAcc>0.875122</hAcc><vAcc>0.683122</vAcc></extensions></trkpt>
      <trkpt lon="-3.317631" lat="54.566125"><ele>114.889580</ele><time>2021-08-12T12:47:03Z</time><extensions><speed>1.098104</speed><course>109.683617</course><hAcc>0.875120</hAcc><vAcc>0.683080</vAcc></extensions></trkpt>
      <trkpt lon="-3.317642" lat="54.566133"><ele>114.999367</ele><time>2021-08-12T12:47:04Z</time><extensions><speed>1.096399</speed><course>107.838440</course><hAcc>0.875094</hAcc><vAcc>0.682917</vAcc></extensions></trkpt>
      <trkpt lon="-3.317653" lat="54.566140"><ele>115.114517</ele><time>2021-08-12T12:47:05Z</time><extensions><speed>1.094570</speed><course>110.196930</course><hAcc>0.875048</hAcc><vAcc>0.682663</vAcc></extensions></trkpt>
      <trkpt lon="-3.317664" lat="54.566148"><ele>115.233757</ele><time>2021-08-12T12:47:06Z</time><extensions><speed>1.092834</speed><course>111.548782</course><hAcc>0.874991</hAcc><vAcc>0.682360</vAcc></extensions></trkpt>
      <trkpt lon="-3.317675" lat="54.566155"><ele>115.355690</ele><time>2021-08-12T12:47:07Z</time><extensions><speed>1.091824</speed><course>110.420074</course><hAcc>0.874930</hAcc><vAcc>0.682051</vAcc></extensions></trkpt>
      <trkpt lon="-3.317686" lat="54.566163"><ele>115.478630</ele><time>2021-08-12T12:47:08Z</time><extensions><speed>1.092276</speed><course>99.619576</course><hAcc>0.874874</hAcc><vAcc>0.681777</vAcc></extensions></trkpt>
      <trkpt lon="-3.317697" lat="54.566170"><ele>115.600410</ele><time>2021-08-12T12:47:09Z</time><extensions><speed>1.094891</speed><course>107.102882</course><hAcc>0.874830</hAcc><vAcc>0.681572</vAcc></extensions></trkpt>
      <trkpt lon="-3.317708" lat="54.566177"><ele>115.718300</ele><time>2021-08-12T12:47:10Z</time><extensions><speed>1.100311</speed><course>98.831825</course><hAcc>0.874801</hAcc><vAcc>0.681460</vAcc></extensions></trkpt>
      <trkpt lon="-3.317720" lat="54.566185"><ele>115.829681</ele><time>2021-08-12T12:47:11Z</time><extensions><speed>1.109365</speed><course>99.864403</course><hAcc>0.874790</hAcc><vAcc>0.681446</vAcc></extensions></trkpt>
      <trkpt lon="-3.317732" lat="54.566192"><ele>115.932632</ele><time>2021-08-12T12:47:12Z</time><extensions><speed>1.122638</speed><course>99.165215</course><hAcc>0.874794</hAcc><vAcc>0.681520</vAcc></extensions></trkpt>
      <trkpt lon="-3.317744" lat="54.566199"><ele>116.025658</ele><time>2021-08-12T12:47:13Z</time><extensions><speed>1.139723</speed><course>106.876038</course><hAcc>0.874808</hAcc><vAcc>0.681654</vAcc></extensions></trkpt>
      <trkpt lon="-3.317756" lat="54.566207"><ele>116.107857</ele><time>2021-08-12T12:47:14Z</time><extensions><speed>1.159103</speed><course>100.224144</course><hAcc>0.874827</hAcc><vAcc>0.681807</vAcc></extensions></trkpt>
      <trkpt lon="-3.317768" lat="54.566214"><ele>116.179344</ele><time>2021-08-12T12:47:15Z</time><extensions><speed>1.178775</speed><course>97.870438</course><hAcc>0.874842</hAcc><vAcc>0.681934</vAcc></extensions></trkpt>
      <trkpt lon="-3.317781" lat="54.566222"><ele>116.240875</ele><time>2021-08-12T12:47:16Z</time><extensions><speed>1.197595</speed><course>109.047302</course><hAcc>0.874847</hAcc><vAcc>0.681997</vAcc></extensions></trkpt>
      <trkpt lon="-3.317794" lat="54.566230"><ele>116.293579</ele><time>2021-08-12T12:47:17Z</time><extensions><speed>1.215197</speed><course>111.386711</course><hAcc>0.874835</hAcc><vAcc>0.681973</vAcc></extensions></trkpt>
      <trkpt lon="-3.317807" lat="54.566238"><ele>116.339287</ele><time>2021-08-12T12:47:18Z</time><extensions><speed>1.231374</speed><course>110.131767</course><hAcc>0.874804</hAcc><vAcc>0.681859</vAcc></extensions></trkpt>
      <trkpt lon="-3.317820" lat="54.566246"><ele>116.380783</ele><time>2021-08-12T12:47:19Z</time><extensions><speed>1.245921</speed><course>109.748413</course><hAcc>0.874754</hAcc><vAcc>0.681660</vAcc></extensions></trkpt>
      <trkpt lon="-3.317834" lat="54.566254"><ele>116.421532</ele><time>2021-08-12T12:47:20Z</time><extensions><speed>1.258494</speed><course>116.453705</course><hAcc>0.874683</hAcc><vAcc>0.681386</vAcc></extensions></trkpt>
      <trkpt lon="-3.317848" lat="54.566262"><ele>116.465408</ele><time>2021-08-12T12:47:21Z</time><extensions><speed>1.268401</speed><course>111.019348</course><hAcc>0.874594</hAcc><vAcc>0.681044</vAcc></extensions></trkpt>
      <trkpt lon="-3.317862" lat="54.566270"><ele>116.516159</ele><time>2021-08-12T12:47:22Z</time><extensions><speed>1.274998</speed><course>106.996025</course><hAcc>0.874486</hAcc><vAcc>0.680639</vAcc></extensions></trkpt>
      <trkpt lon="-3.317877" lat="54.566277"><ele>116.576767</ele><time>2021-08-12T12:47:23Z</time><extensions><speed>1.278027</speed><course>104.594215</course><hAcc>0.874363</hAcc><vAcc>0.680178</vAcc></extensions></trkpt>
      <trkpt lon="-3.317891" lat="54.566285"><ele>116.649361</ele><time>2021-08-12T12:47:24Z</time><extensions><speed>1.276724</speed><course>101.351479</course><hAcc>0.874227</hAcc><vAcc>0.679666</vAcc></extensions></trkpt>
      <trkpt lon="-3.317906" lat="54.566292"><ele>116.735168</ele><time>2021-08-12T12:47:25Z</time><extensions><speed>1.270285</speed><course>105.952332</course><hAcc>0.874080</hAcc><vAcc>0.679113</vAcc></extensions></trkpt>
      <trkpt lon="-3.317922" lat="54.566300"><ele>116.834923</ele><time>2021-08-12T12:47:26Z</time><extensions><speed>1.258282</speed><course>113.138412</course><hAcc>0.873926</hAcc><vAcc>0.678534</vAcc></extensions></trkpt>
      <trkpt lon="-3.317937" lat="54.566307"><ele>116.949661</ele><time>2021-08-12T12:47:27Z</time><extensions><speed>1.239925</speed><course>112.944946</course><hAcc>0.873770</hAcc><vAcc>0.677948</vAcc></extensions></trkpt>
      <trkpt lon="-3.317952" lat="54.566313"><ele>117.080818</ele><time>2021-08-12T12:47:28Z</time><extensions><speed>1.214858</speed><course>108.292221</course><hAcc>0.873616</hAcc><vAcc>0.677373</vAcc></extensions></trkpt>
      <trkpt lon="-3.317967" lat="54.566319"><ele>117.229233</ele><time>2021-08-12T12:47:29Z</time><extensions><speed>1.184771</speed><course>108.436562</course><hAcc>0.873465</hAcc><vAcc>0.676818</vAcc></extensions></trkpt>
      <trkpt lon="-3.317982" lat="54.566325"><ele>117.394234</ele><time>2021-08-12T12:47:30Z</time><extensions><speed>1.151822</speed><course>102.445824</course><hAcc>0.873321</hAcc><vAcc>0.676289</vAcc></extensions></trkpt>
      <trkpt lon="-3.317996" lat="54.566331"><ele>117.573402</ele><time>2021-08-12T12:47:31Z</time><extensions><speed>1.117120</speed><course>99.628555</course><hAcc>0.873186</hAcc><vAcc>0.675792</vAcc></extensions></trkpt>
      <trkpt lon="-3.318011" lat="54.566336"><ele>117.763252</ele><time>2021-08-12T12:47:32Z</time><extensions><speed>1.081645</speed><course>103.656601</course><hAcc>0.873060</hAcc><vAcc>0.675334</vAcc></extensions></trkpt>
      <trkpt lon="-3.318025" lat="54.566341"><ele>117.960121</ele><time>2021-08-12T12:47:33Z</time><extensions><speed>1.046114</speed><course>97.309608</course><hAcc>0.872946</hAcc><vAcc>0.674924</vAcc></extensions></trkpt>
      <trkpt lon="-3.318038" lat="54.566346"><ele>118.160896</ele><time>2021-08-12T12:47:34Z</time><extensions><speed>1.011542</speed><course>95.308922</course><hAcc>0.872844</hAcc><vAcc>0.674563</vAcc></extensions></trkpt>
      <trkpt lon="-3.318051" lat="54.566351"><ele>118.363426</ele><time>2021-08-12T12:47:35Z</time><extensions><speed>0.979917</speed><course>105.665154</course><hAcc>0.872754</hAcc><vAcc>0.674247</vAcc></extensions></trkpt>
      <trkpt lon="-3.318064" lat="54.566355"><ele>118.566032</ele><time>2021-08-12T12:47:36Z</time><extensions><speed>0.953497</speed><course>120.238884</course><hAcc>0.872674</hAcc><vAcc>0.673971</vAcc></extensions></trkpt>
      <trkpt lon="-3.318077" lat="54.566360"><ele>118.767059</ele><time>2021-08-12T12:47:37Z</time><extensions><speed>0.933692</speed><course>108.474937</course><hAcc>0.872606</hAcc><vAcc>0.673730</vAcc></extensions></trkpt>
      <trkpt lon="-3.318089" lat="54.566364"><ele>118.964951</ele><time>2021-08-12T12:47:38Z</time><extensions><speed>0.920593</speed><course>104.059807</course><hAcc>0.872547</hAcc><vAcc>0.673523</vAcc></extensions></trkpt>
      <trkpt lon="-3.318101" lat="54.566369"><ele>119.158211</ele><time>2021-08-12T12:47:39Z</time><extensions><speed>0.913783</speed><course>102.572708</course><hAcc>0.872499</hAcc><vAcc>0.673348</vAcc></extensions></trkpt>
      <trkpt lon="-3.318112" lat="54.566374"><ele>119.345306</ele><time>2021-08-12T12:47:40Z</time><extensions><speed>0.912927</speed><course>107.161850</course><hAcc>0.872461</hAcc><vAcc>0.673205</vAcc></extensions></trkpt>
      <trkpt lon="-3.318123" lat="54.566379"><ele>119.524879</ele><time>2021-08-12T12:47:41Z</time><extensions><speed>0.917327</speed><course>105.046165</course><hAcc>0.872435</hAcc><vAcc>0.673095</vAcc></extensions></trkpt>
      <trkpt lon="-3.318134" lat="54.566384"><ele>119.696060</ele><time>2021-08-12T12:47:42Z</time><extensions><speed>0.925460</speed><course>107.406158</course><hAcc>0.872421</hAcc><vAcc>0.673029</vAcc></extensions></trkpt>
      <trkpt lon="-3.318145" lat="54.566389"><ele>119.858589</ele><time>2021-08-12T12:47:43Z</time><extensions><speed>0.935040</speed><course>115.429123</course><hAcc>0.872422</hAcc><vAcc>0.673015</vAcc></extensions></trkpt>
      <trkpt lon="-3.318156" lat="54.566395"><ele>120.013039</ele><time>2021-08-12T12:47:44Z</time><extensions><speed>0.944034</speed><course>116.147835</course><hAcc>0.872438</hAcc><vAcc>0.673064</vAcc></extensions></trkpt>
      <trkpt lon="-3.318167" lat="54.566400"><ele>120.160706</ele><time>2021-08-12T12:47:45Z</time><extensions><speed>0.951123</speed><course>117.699570</course><hAcc>0.872471</hAcc><vAcc>0.673181</vAcc></extensions></trkpt>
      <trkpt lon="-3.318178" lat="54.566406"><ele>120.303024</ele><time>2021-08-12T12:47:46Z</time><extensions><speed>0.954994</speed><course>118.218575</course><hAcc>0.872519</hAcc><vAcc>0.673365</vAcc></extensions></trkpt>
      <trkpt lon="-3.318190" lat="54.566412"><ele>120.441338</ele><time>2021-08-12T12:47:47Z</time><extensions><speed>0.954645</speed><course>118.864105</course><hAcc>0.872580</hAcc><vAcc>0.673608</vAcc></extensions></trkpt>
      <trkpt lon="-3.318201" lat="54.566417"><ele>120.576828</ele><time>2021-08-12T12:47:48Z</time><extensions><speed>0.949745</speed><course>117.180046</course><hAcc>0.872650</hAcc><vAcc>0.673894</vAcc></extensions></trkpt>
      <trkpt lon="-3.318213" lat="54.566422"><ele>120.709778</ele><time>2021-08-12T12:47:49Z</time><extensions><speed>0.940472</speed><course>115.856689</course><hAcc>0.872726</hAcc><vAcc>0.674204</vAcc></extensions></trkpt>
      <trkpt lon="-3.318225" lat="54.566426"><ele>120.839615</ele><time>2021-08-12T12:47:50Z</time><extensions><speed>0.927508</speed><course>112.617844</course><hAcc>0.872803</hAcc><vAcc>0.674520</vAcc></extensions></trkpt>
      <trkpt lon="-3.318237" lat="54.566431"><ele>120.965950</ele><time>2021-08-12T12:47:51Z</time><extensions><speed>0.911831</speed><course>120.157761</course><hAcc>0.872875</hAcc><vAcc>0.674821</vAcc></extensions></trkpt>
      <trkpt lon="-3.318250" lat="54.566434"><ele>121.089165</ele><time>2021-08-12T12:47:52Z</time><extensions><speed>0.894835</speed><course>116.743965</course><hAcc>0.872939</hAcc><vAcc>0.675084</vAcc></extensions></trkpt>
      <trkpt lon="-3.318263" lat="54.566437"><ele>121.210258</ele><time>2021-08-12T12:47:53Z</time><extensions><speed>0.878832</speed><course>126.528450</course><hAcc>0.872989</hAcc><vAcc>0.675286</vAcc></extensions></trkpt>
      <trkpt lon="-3.318276" lat="54.566439"><ele>121.331383</ele><time>2021-08-12T12:47:54Z</time><extensions><speed>0.866323</speed><course>122.809067</course><hAcc>0.873023</hAcc><vAcc>0.675410</vAcc></extensions></trkpt>
      <trkpt lon="-3.318289" lat="54.566440"><ele>121.456169</ele><time>2021-08-12T12:47:55Z</time><extensions><speed>0.859042</speed><course>118.437454</course><hAcc>0.873039</hAcc><vAcc>0.675449</vAcc></extensions></trkpt>
      <trkpt lon="-3.318302" lat="54.566441"><ele>121.588585</ele><time>2021-08-12T12:47:56Z</time><extensions><speed>0.857745</speed><course>113.862648</course><hAcc>0.873040</hAcc><vAcc>0.675409</vAcc></extensions></trkpt>
      <trkpt lon="-3.318315" lat="54.566441"><ele>121.731377</ele><time>2021-08-12T12:47:57Z</time><extensions><speed>0.862297</speed><course>110.315605</course><hAcc>0.873027</hAcc><vAcc>0.675309</vAcc></extensions></trkpt>
      <trkpt lon="-3.318329" lat="54.566440"><ele>121.885506</ele><time>2021-08-12T12:47:58Z</time><extensions><speed>0.872018</speed><course>111.526596</course><hAcc>0.873007</hAcc><vAcc>0.675179</vAcc></extensions></trkpt>
      <trkpt lon="-3.318342" lat="54.566439"><ele>122.050652</ele><time>2021-08-12T12:47:59Z</time><extensions><speed>0.885033</speed><course>111.825790</course><hAcc>0.872985</hAcc><vAcc>0.675055</vAcc></extensions></trkpt>
      <trkpt lon="-3.318356" lat="54.566438"><ele>122.225914</ele><time>2021-08-12T12:48:00Z</time><extensions><speed>0.898717</speed><course>110.069481</course><hAcc>0.872966</hAcc><vAcc>0.674966</vAcc></extensions></trkpt>
      <trkpt lon="-3.318369" lat="54.566436"><ele>122.409752</ele><time>2021-08-12T12:48:01Z</time><extensions><speed>0.911340</speed><course>114.632622</course><hAcc>0.872953</hAcc><vAcc>0.674925</vAcc></extensions></trkpt>
      <trkpt lon="-3.318383" lat="54.566434"><ele>122.599930</ele><time>2021-08-12T12:48:02Z</time><extensions><speed>0.922158</speed><course>103.253258</course><hAcc>0.872949</hAcc><vAcc>0.674931</vAcc></extensions></trkpt>
      <trkpt lon="-3.318397" lat="54.566432"><ele>122.793640</ele><time>2021-08-12T12:48:03Z</time><extensions><speed>0.931201</speed><course>106.301743</course><hAcc>0.872954</hAcc><vAcc>0.674970</vAcc></extensions></trkpt>
      <trkpt lon="-3.318411" lat="54.566430"><ele>122.987228</ele><time>2021-08-12T12:48:04Z</time><extensions><speed>0.938262</speed><course>102.376541</course><hAcc>0.872971</hAcc><vAcc>0.675027</vAcc></extensions></trkpt>
      <trkpt lon="-3.318425" lat="54.566429"><ele>123.176323</ele><time>2021-08-12T12:48:05Z</time><extensions><speed>0.943350</speed><course>106.795837</course><hAcc>0.873002</hAcc><vAcc>0.675092</vAcc></extensions></trkpt>
      <trkpt lon="-3.318440" lat="54.566428"><ele>123.357368</ele><time>2021-08-12T12:48:06Z</time><extensions><speed>0.947195</speed><course>105.416672</course><hAcc>0.873058</hAcc><vAcc>0.675159</vAcc></extensions></trkpt>
      <trkpt lon="-3.318454" lat="54.566427"><ele>123.528557</ele><time>2021-08-12T12:48:07Z</time><extensions><speed>0.949979</speed><course>115.994911</course><hAcc>0.873152</hAcc><vAcc>0.675235</vAcc></extensions></trkpt>
      <trkpt lon="-3.318469" lat="54.566426"><ele>123.689346</ele><time>2021-08-12T12:48:08Z</time><extensions><speed>0.951603</speed><course>121.956070</course><hAcc>0.873300</hAcc><vAcc>0.675331</vAcc></extensions></trkpt>
      <trkpt lon="-3.318484" lat="54.566427"><ele>123.839592</ele><time>2021-08-12T12:48:09Z</time><extensions><speed>0.951948</speed><course>114.918808</course><hAcc>0.873525</hAcc><vAcc>0.675463</vAcc></extensions></trkpt>
      <trkpt lon="-3.318499" lat="54.566427"><ele>123.979301</ele><time>2021-08-12T12:48:10Z</time><extensions><speed>0.950619</speed><course>112.952827</course><hAcc>0.873852</hAcc><vAcc>0.675650</vAcc></extensions></trkpt>
      <trkpt lon="-3.318513" lat="54.566429"><ele>124.108665</ele><time>2021-08-12T12:48:11Z</time><extensions><speed>0.946580</speed><course>108.521141</course><hAcc>0.874305</hAcc><vAcc>0.675908</vAcc></extensions></trkpt>
      <trkpt lon="-3.318527" lat="54.566430"><ele>124.227959</ele><time>2021-08-12T12:48:12Z</time><extensions><speed>0.938252</speed><course>105.023331</course><hAcc>0.874902</hAcc><vAcc>0.676241</vAcc></extensions></trkpt>
      <trkpt lon="-3.318541" lat="54.566432"><ele>124.337387</ele><time>2021-08-12T12:48:13Z</time><extensions><speed>0.923149</speed><course>98.270523</course><hAcc>0.875648</hAcc><vAcc>0.676640</vAcc></extensions></trkpt>
      <trkpt lon="-3.318555" lat="54.566435"><ele>124.436798</ele><time>2021-08-12T12:48:14Z</time><extensions><speed>0.899041</speed><course>104.555389</course><hAcc>0.876532</hAcc><vAcc>0.677075</vAcc></extensions></trkpt>
      <trkpt lon="-3.318568" lat="54.566437"><ele>124.526093</ele><time>2021-08-12T12:48:15Z</time><extensions><speed>0.865564</speed><course>108.798698</course><hAcc>0.877508</hAcc><vAcc>0.677495</vAcc></extensions></trkpt>
      <trkpt lon="-3.318580" lat="54.566440"><ele>124.605850</ele><time>2021-08-12T12:48:16Z</time><extensions><speed>0.823581</speed><course>107.953148</course><hAcc>0.878498</hAcc><vAcc>0.677839</vAcc></extensions></trkpt>
      <trkpt lon="-3.318591" lat="54.566443"><ele>124.677292</ele><time>2021-08-12T12:48:17Z</time><extensions><speed>0.774522</speed><course>107.561462</course><hAcc>0.879391</hAcc><vAcc>0.678041</vAcc></extensions></trkpt>
      <trkpt lon="-3.318602" lat="54.566445"><ele>124.742065</ele><time>2021-08-12T12:48:18Z</time><extensions><speed>0.720186</speed><course>98.600151</course><hAcc>0.880070</hAcc><vAcc>0.678049</vAcc></extensions></trkpt>
      <trkpt lon="-3.318612" lat="54.566448"><ele>124.802048</ele><time>2021-08-12T12:48:19Z</time><extensions><speed>0.662648</speed><course>106.179245</course><hAcc>0.880447</hAcc><vAcc>0.677834</vAcc></extensions></trkpt>
      <trkpt lon="-3.318620" lat="54.566450"><ele>124.859077</ele><time>2021-08-12T12:48:20Z</time><extensions><speed>0.605041</speed><course>99.736237</course><hAcc>0.880463</hAcc><vAcc>0.677386</vAcc></extensions></trkpt>
      <trkpt lon="-3.318628" lat="54.566453"><ele>124.914955</ele><time>2021-08-12T12:48:21Z</time><extensions><speed>0.551543</speed><course>102.027924</course><hAcc>0.880089</hAcc><vAcc>0.676721</vAcc></extensions></trkpt>
      <trkpt lon="-3.318636" lat="54.566455"><ele>124.971581</ele><time>2021-08-12T12:48:22Z</time><extensions><speed>0.506123</speed><course>94.072990</course><hAcc>0.879346</hAcc><vAcc>0.675873</vAcc></extensions></trkpt>
      <trkpt lon="-3.318642" lat="54.566457"><ele>125.031029</ele><time>2021-08-12T12:48:23Z</time><extensions><speed>0.471486</speed><course>96.463219</course><hAcc>0.878310</hAcc><vAcc>0.674884</vAcc></extensions></trkpt>
      <trkpt lon="-3.318649" lat="54.566459"><ele>125.095787</ele><time>2021-08-12T12:48:24Z</time><extensions><speed>0.448921</speed><course>96.928070</course><hAcc>0.877090</hAcc><vAcc>0.673782</vAcc></extensions></trkpt>
      <trkpt lon="-3.318655" lat="54.566460"><ele>125.168472</ele><time>2021-08-12T12:48:25Z</time><extensions><speed>0.438787</speed><course>85.766655</course><hAcc>0.875809</hAcc><vAcc>0.672568</vAcc></extensions></trkpt>
      <trkpt lon="-3.318662" lat="54.566461"><ele>125.251183</ele><time>2021-08-12T12:48:26Z</time><extensions><speed>0.440347</speed><course>93.944389</course><hAcc>0.874567</hAcc><vAcc>0.671241</vAcc></extensions></trkpt>
      <trkpt lon="-3.318668" lat="54.566463"><ele>125.345413</ele><time>2021-08-12T12:48:27Z</time><extensions><speed>0.452111</speed><course>96.280258</course><hAcc>0.873425</hAcc><vAcc>0.669815</vAcc></extensions></trkpt>
      <trkpt lon="-3.318675" lat="54.566464"><ele>125.452255</ele><time>2021-08-12T12:48:28Z</time><extensions><speed>0.472546</speed><course>103.229439</course><hAcc>0.872421</hAcc><vAcc>0.668326</vAcc></extensions></trkpt>
      <trkpt lon="-3.318682" lat="54.566465"><ele>125.572334</ele><time>2021-08-12T12:48:29Z</time><extensions><speed>0.500514</speed><course>100.069313</course><hAcc>0.871574</hAcc><vAcc>0.666842</vAcc></extensions></trkpt>
      <trkpt lon="-3.318690" lat="54.566466"><ele>125.706108</ele><time>2021-08-12T12:48:30Z</time><extensions><speed>0.534625</speed><course>107.704430</course><hAcc>0.870891</hAcc><vAcc>0.665463</vAcc></extensions></trkpt>
      <trkpt lon="-3.318699" lat="54.566466"><ele>125.854134</ele><time>2021-08-12T12:48:31Z</time><extensions><speed>0.572769</speed><course>102.019516</course><hAcc>0.870380</hAcc><vAcc>0.664310</vAcc></extensions></trkpt>
      <trkpt lon="-3.318708" lat="54.566467"><ele>126.016983</ele><time>2021-08-12T12:48:32Z</time><extensions><speed>0.612928</speed><course>101.188896</course><hAcc>0.870043</hAcc><vAcc>0.663508</vAcc></extensions></trkpt>
      <trkpt lon="-3.318718" lat="54.566467"><ele>126.194878</ele><time>2021-08-12T12:48:33Z</time><extensions><speed>0.653209</speed><course>101.655106</course><hAcc>0.869880</hAcc><vAcc>0.663165</vAcc></extensions></trkpt>
      <trkpt lon="-3.318728" lat="54.566467"><ele>126.387230</ele><time>2021-08-12T12:48:34Z</time><extensions><speed>0.691805</speed><course>97.512695</course><hAcc>0.869879</hAcc><vAcc>0.663323</vAcc></extensions></trkpt>
      <trkpt lon="-3.318739" lat="54.566468"><ele>126.592567</ele><time>2021-08-12T12:48:35Z</time><extensions><speed>0.727259</speed><course>96.923676</course><hAcc>0.870013</hAcc><vAcc>0.663931</vAcc></extensions></trkpt>
      <trkpt lon="-3.318750" lat="54.566468"><ele>126.809036</ele><time>2021-08-12T12:48:36Z</time><extensions><speed>0.758314</speed><course>96.356850</course><hAcc>0.870245</hAcc><vAcc>0.664875</vAcc></extensions></trkpt>
      <trkpt lon="-3.318762" lat="54.566468"><ele>127.035011</ele><time>2021-08-12T12:48:37Z</time><extensions><speed>0.784189</speed><course>95.959724</course><hAcc>0.870538</hAcc><vAcc>0.666022</vAcc></extensions></trkpt>
      <trkpt lon="-3.318775" lat="54.566469"><ele>127.268982</ele><time>2021-08-12T12:48:38Z</time><extensions><speed>0.803840</speed><course>95.959717</course><hAcc>0.870862</hAcc><vAcc>0.667257</vAcc></extensions></trkpt>
      <trkpt lon="-3.318787" lat="54.566469"><ele>127.508636</ele><time>2021-08-12T12:48:39Z</time><extensions><speed>0.816738</speed><course>97.361824</course><hAcc>0.871198</hAcc><vAcc>0.668508</vAcc></extensions></trkpt>
      <trkpt lon="-3.318800" lat="54.566470"><ele>127.750839</ele><time>2021-08-12T12:48:40Z</time><extensions><speed>0.824380</speed><course>97.361824</course><hAcc>0.871533</hAcc><vAcc>0.669739</vAcc></extensions></trkpt>
      <trkpt lon="-3.318812" lat="54.566472"><ele>127.992523</ele><time>2021-08-12T12:48:41Z</time><extensions><speed>0.828934</speed><course>97.361809</course><hAcc>0.871863</hAcc><vAcc>0.670946</vAcc></extensions></trkpt>
      <trkpt lon="-3.318825" lat="54.566474"><ele>128.231064</ele><time>2021-08-12T12:48:42Z</time><extensions><speed>0.832912</speed><course>97.361801</course><hAcc>0.872187</hAcc><vAcc>0.672137</vAcc></extensions></trkpt>
      <trkpt lon="-3.318837" lat="54.566476"><ele>128.464035</ele><time>2021-08-12T12:48:43Z</time><extensions><speed>0.839862</speed><course>42.884136</course><hAcc>0.872506</hAcc><vAcc>0.673326</vAcc></extensions></trkpt>
      <trkpt lon="-3.318849" lat="54.566479"><ele>128.688889</ele><time>2021-08-12T12:48:44Z</time><extensions><speed>0.852780</speed><course>35.984764</course><hAcc>0.872820</hAcc><vAcc>0.674516</vAcc></extensions></trkpt>
      <trkpt lon="-3.318860" lat="54.566483"><ele>128.903336</ele><time>2021-08-12T12:48:45Z</time><extensions><speed>0.872081</speed><course>65.852417</course><hAcc>0.873125</hAcc><vAcc>0.675689</vAcc></extensions></trkpt>
      <trkpt lon="-3.318871" lat="54.566488"><ele>129.105911</ele><time>2021-08-12T12:48:46Z</time><extensions><speed>0.897228</speed><course>86.337746</course><hAcc>0.873418</hAcc><vAcc>0.676820</vAcc></extensions></trkpt>
      <trkpt lon="-3.318882" lat="54.566493"><ele>129.296249</ele><time>2021-08-12T12:48:47Z</time><extensions><speed>0.927475</speed><course>89.071770</course><hAcc>0.873695</hAcc><vAcc>0.677879</vAcc></extensions></trkpt>
      <trkpt lon="-3.318892" lat="54.566499"><ele>129.474579</ele><time>2021-08-12T12:48:48Z</time><extensions><speed>0.960278</speed><course>92.612312</course><hAcc>0.873952</hAcc><vAcc>0.678841</vAcc></extensions></trkpt>
      <trkpt lon="-3.318902" lat="54.566506"><ele>129.641388</ele><time>2021-08-12T12:48:49Z</time><extensions><speed>0.992946</speed><course>103.461632</course><hAcc>0.874188</hAcc><vAcc>0.679689</vAcc></extensions></trkpt>
      <trkpt lon="-3.318911" lat="54.566513"><ele>129.797241</ele><time>2021-08-12T12:48:50Z</time><extensions><speed>1.023859</speed><course>104.412865</course><hAcc>0.874403</hAcc><vAcc>0.680423</vAcc></extensions></trkpt>
      <trkpt lon="-3.318921" lat="54.566521"><ele>129.942780</ele><time>2021-08-12T12:48:51Z</time><extensions><speed>1.052002</speed><course>129.601685</course><hAcc>0.874601</hAcc><vAcc>0.681062</vAcc></extensions></trkpt>
      <trkpt lon="-3.318929" lat="54.566529"><ele>130.078873</ele><time>2021-08-12T12:48:52Z</time><extensions><speed>1.076738</speed><course>149.567169</course><hAcc>0.874789</hAcc><vAcc>0.681647</vAcc></extensions></trkpt>
      <trkpt lon="-3.318938" lat="54.566537"><ele>130.206680</ele><time>2021-08-12T12:48:53Z</time><extensions><speed>1.097461</speed><course>129.327728</course><hAcc>0.874974</hAcc><vAcc>0.682223</vAcc></extensions></trkpt>
      <trkpt lon="-3.318947" lat="54.566546"><ele>130.327728</ele><time>2021-08-12T12:48:54Z</time><extensions><speed>1.113757</speed><course>129.943619</course><hAcc>0.875165</hAcc><vAcc>0.682839</vAcc></extensions></trkpt>
      <trkpt lon="-3.318955" lat="54.566555"><ele>130.443542</ele><time>2021-08-12T12:48:55Z</time><extensions><speed>1.125496</speed><course>125.470825</course><hAcc>0.875368</hAcc><vAcc>0.683533</vAcc></extensions></trkpt>
      <trkpt lon="-3.318964" lat="54.566563"><ele>130.555420</ele><time>2021-08-12T12:48:56Z</time><extensions><speed>1.133105</speed><course>125.654007</course><hAcc>0.875586</hAcc><vAcc>0.684329</vAcc></extensions></trkpt>
      <trkpt lon="-3.318972" lat="54.566572"><ele>130.664917</ele><time>2021-08-12T12:48:57Z</time><extensions><speed>1.137647</speed><course>132.941208</course><hAcc>0.875820</hAcc><vAcc>0.685223</vAcc></extensions></trkpt>
      <trkpt lon="-3.318981" lat="54.566581"><ele>130.773911</ele><time>2021-08-12T12:48:58Z</time><extensions><speed>1.140384</speed><course>128.525970</course><hAcc>0.876065</hAcc><vAcc>0.686189</vAcc></extensions></trkpt>
      <trkpt lon="-3.318990" lat="54.566590"><ele>130.884537</ele><time>2021-08-12T12:48:59Z</time><extensions><speed>1.141655</speed><course>129.747040</course><hAcc>0.876316</hAcc><vAcc>0.687186</vAcc></extensions></trkpt>
      <trkpt lon="-3.319000" lat="54.566599"><ele>130.999176</ele><time>2021-08-12T12:49:00Z</time><extensions><speed>1.141079</speed><course>133.257645</course><hAcc>0.876565</hAcc><vAcc>0.688173</vAcc></extensions></trkpt>
      <trkpt lon="-3.319009" lat="54.566607"><ele>131.120117</ele><time>2021-08-12T12:49:01Z</time><extensions><speed>1.138657</speed><course>122.834160</course><hAcc>0.876804</hAcc><vAcc>0.689112</vAcc></extensions></trkpt>
      <trkpt lon="-3.319019" lat="54.566616"><ele>131.249176</ele><time>2021-08-12T12:49:02Z</time><extensions><speed>1.134439</speed><course>121.754723</course><hAcc>0.877028</hAcc><vAcc>0.689969</vAcc></extensions></trkpt>
      <trkpt lon="-3.319029" lat="54.566624"><ele>131.387466</ele><time>2021-08-12T12:49:03Z</time><extensions><speed>1.128661</speed><course>130.620087</course><hAcc>0.877232</hAcc><vAcc>0.690720</vAcc></extensions></trkpt>
      <trkpt lon="-3.319039" lat="54.566632"><ele>131.535095</ele><time>2021-08-12T12:49:04Z</time><extensions><speed>1.121954</speed><course>128.548019</course><hAcc>0.877413</hAcc><vAcc>0.691350</vAcc></extensions></trkpt>
      <trkpt lon="-3.319049" lat="54.566640"><ele>131.691254</ele><time>2021-08-12T12:49:05Z</time><extensions><speed>1.115208</speed><course>128.034912</course><hAcc>0.877570</hAcc><vAcc>0.691863</vAcc></extensions></trkpt>
      <trkpt lon="-3.319060" lat="54.566648"><ele>131.854523</ele><time>2021-08-12T12:49:06Z</time><extensions><speed>1.108927</speed><course>128.138321</course><hAcc>0.877704</hAcc><vAcc>0.692277</vAcc></extensions></trkpt>
      <trkpt lon="-3.319070" lat="54.566656"><ele>132.023254</ele><time>2021-08-12T12:49:07Z</time><extensions><speed>1.103389</speed><course>127.788391</course><hAcc>0.877819</hAcc><vAcc>0.692618</vAcc></extensions></trkpt>
      <trkpt lon="-3.319081" lat="54.566664"><ele>132.195908</ele><time>2021-08-12T12:49:08Z</time><extensions><speed>1.098689</speed><course>111.799332</course><hAcc>0.877918</hAcc><vAcc>0.692910</vAcc></extensions></trkpt>
      <trkpt lon="-3.319092" lat="54.566671"><ele>132.371048</ele><time>2021-08-12T12:49:09Z</time><extensions><speed>1.094753</speed><course>135.894547</course><hAcc>0.878005</hAcc><vAcc>0.693176</vAcc></extensions></trkpt>
      <trkpt lon="-3.319103" lat="54.566679"><ele>132.547531</ele><time>2021-08-12T12:49:10Z</time><extensions><speed>1.091455</speed><course>135.791443</course><hAcc>0.878084</hAcc><vAcc>0.693435</vAcc></extensions></trkpt>
      <trkpt lon="-3.319114" lat="54.566686"><ele>132.724670</ele><time>2021-08-12T12:49:11Z</time><extensions><speed>1.088100</speed><course>137.532547</course><hAcc>0.878157</hAcc><vAcc>0.693693</vAcc></extensions></trkpt>
      <trkpt lon="-3.319125" lat="54.566694"><ele>132.902084</ele><time>2021-08-12T12:49:12Z</time><extensions><speed>1.084386</speed><course>139.503952</course><hAcc>0.878225</hAcc><vAcc>0.693950</vAcc></extensions></trkpt>
      <trkpt lon="-3.319136" lat="54.566701"><ele>133.079361</ele><time>2021-08-12T12:49:13Z</time><extensions><speed>1.080792</speed><course>146.422607</course><hAcc>0.878289</hAcc><vAcc>0.694203</vAcc></extensions></trkpt>
      <trkpt lon="-3.319147" lat="54.566708"><ele>133.256042</ele><time>2021-08-12T12:49:14Z</time><extensions><speed>1.078094</speed><course>123.702354</course><hAcc>0.878350</hAcc><vAcc>0.694447</vAcc></extensions></trkpt>
      <trkpt lon="-3.319158" lat="54.566716"><ele>133.431992</ele><time>2021-08-12T12:49:15Z</time><extensions><speed>1.077041</speed><course>126.795586</course><hAcc>0.878406</hAcc><vAcc>0.694675</vAcc></extensions></trkpt>
      <trkpt lon="-3.319168" lat="54.566723"><ele>133.607407</ele><time>2021-08-12T12:49:16Z</time><extensions><speed>1.078108</speed><course>132.239441</course><hAcc>0.878457</hAcc><vAcc>0.694879</vAcc></extensions></trkpt>
      <trkpt lon="-3.319179" lat="54.566731"><ele>133.782578</ele><time>2021-08-12T12:49:17Z</time><extensions><speed>1.081130</speed><course>129.200668</course><hAcc>0.878503</hAcc><vAcc>0.695052</vAcc></extensions></trkpt>
      <trkpt lon="-3.319189" lat="54.566738"><ele>133.957764</ele><time>2021-08-12T12:49:18Z</time><extensions><speed>1.085799</speed><course>125.122314</course><hAcc>0.878544</hAcc><vAcc>0.695191</vAcc></extensions></trkpt>
      <trkpt lon="-3.319200" lat="54.566746"><ele>134.133270</ele><time>2021-08-12T12:49:19Z</time><extensions><speed>1.091959</speed><course>136.265396</course><hAcc>0.878581</hAcc><vAcc>0.695299</vAcc></extensions></trkpt>
      <trkpt lon="-3.319210" lat="54.566754"><ele>134.309418</ele><time>2021-08-12T12:49:20Z</time><extensions><speed>1.099178</speed><course>135.687027</course><hAcc>0.878614</hAcc><vAcc>0.695387</vAcc></extensions></trkpt>
      <trkpt lon="-3.319220" lat="54.566762"><ele>134.486374</ele><time>2021-08-12T12:49:21Z</time><extensions><speed>1.107279</speed><course>134.189224</course><hAcc>0.878647</hAcc><vAcc>0.695468</vAcc></extensions></trkpt>
      <trkpt lon="-3.319231" lat="54.566770"><ele>134.664307</ele><time>2021-08-12T12:49:22Z</time><extensions><speed>1.116121</speed><course>130.213623</course><hAcc>0.878681</hAcc><vAcc>0.695556</vAcc></extensions></trkpt>
      <trkpt lon="-3.319241" lat="54.566778"><ele>134.843597</ele><time>2021-08-12T12:49:23Z</time><extensions><speed>1.125135</speed><course>131.249283</course><hAcc>0.878719</hAcc><vAcc>0.695663</vAcc></extensions></trkpt>
      <trkpt lon="-3.319251" lat="54.566786"><ele>135.025024</ele><time>2021-08-12T12:49:24Z</time><extensions><speed>1.133811</speed><course>132.412170</course><hAcc>0.878760</hAcc><vAcc>0.695798</vAcc></extensions></trkpt>
      <trkpt lon="-3.319262" lat="54.566794"><ele>135.209457</ele><time>2021-08-12T12:49:25Z</time><extensions><speed>1.141334</speed><course>141.387543</course><hAcc>0.878806</hAcc><vAcc>0.695964</vAcc></extensions></trkpt>
      <trkpt lon="-3.319272" lat="54.566802"><ele>135.397827</ele><time>2021-08-12T12:49:26Z</time><extensions><speed>1.146616</speed><course>147.693329</course><hAcc>0.878856</hAcc><vAcc>0.696163</vAcc></extensions></trkpt>
      <trkpt lon="-3.319283" lat="54.566811"><ele>135.591003</ele><time>2021-08-12T12:49:27Z</time><extensions><speed>1.149563</speed><course>150.557755</course><hAcc>0.878910</hAcc><vAcc>0.696391</vAcc></extensions></trkpt>
      <trkpt lon="-3.319293" lat="54.566819"><ele>135.789734</ele><time>2021-08-12T12:49:28Z</time><extensions><speed>1.150620</speed><course>146.167221</course><hAcc>0.878965</hAcc><vAcc>0.696636</vAcc></extensions></trkpt>
      <trkpt lon="-3.319304" lat="54.566827"><ele>135.994034</ele><time>2021-08-12T12:49:29Z</time><extensions><speed>1.149561</speed><course>148.113663</course><hAcc>0.879019</hAcc><vAcc>0.696876</vAcc></extensions></trkpt>
      <trkpt lon="-3.319315" lat="54.566835"><ele>136.203110</ele><time>2021-08-12T12:49:30Z</time><extensions><speed>1.146307</speed><course>138.101883</course><hAcc>0.879067</hAcc><vAcc>0.697090</vAcc></extensions></trkpt>
      <trkpt lon="-3.319325" lat="54.566844"><ele>136.415741</ele><time>2021-08-12T12:49:31Z</time><extensions><speed>1.141551</speed><course>142.914612</course><hAcc>0.879108</hAcc><vAcc>0.697261</vAcc></extensions></trkpt>
      <trkpt lon="-3.319335" lat="54.566852"><ele>136.630493</ele><time>2021-08-12T12:49:32Z</time><extensions><speed>1.135552</speed><course>148.048096</course><hAcc>0.879138</hAcc><vAcc>0.697383</vAcc></extensions></trkpt>
      <trkpt lon="-3.319345" lat="54.566860"><ele>136.845581</ele><time>2021-08-12T12:49:33Z</time><extensions><speed>1.128211</speed><course>151.450607</course><hAcc>0.879156</hAcc><vAcc>0.697454</vAcc></extensions></trkpt>
      <trkpt lon="-3.319355" lat="54.566869"><ele>137.059006</ele><time>2021-08-12T12:49:34Z</time><extensions><speed>1.119459</speed><course>136.771103</course><hAcc>0.879160</hAcc><vAcc>0.697474</vAcc></extensions></trkpt>
      <trkpt lon="-3.319365" lat="54.566877"><ele>137.268631</ele><time>2021-08-12T12:49:35Z</time><extensions><speed>1.109425</speed><course>141.808670</course><hAcc>0.879149</hAcc><vAcc>0.697440</vAcc></extensions></trkpt>
      <trkpt lon="-3.319374" lat="54.566885"><ele>137.472000</ele><time>2021-08-12T12:49:36Z</time><extensions><speed>1.098667</speed><course>141.991776</course><hAcc>0.879123</hAcc><vAcc>0.697348</vAcc></extensions></trkpt>
      <trkpt lon="-3.319383" lat="54.566894"><ele>137.666580</ele><time>2021-08-12T12:49:37Z</time><extensions><speed>1.088001</speed><course>158.861435</course><hAcc>0.879083</hAcc><vAcc>0.697195</vAcc></extensions></trkpt>
      <trkpt lon="-3.319392" lat="54.566902"><ele>137.849976</ele><time>2021-08-12T12:49:38Z</time><extensions><speed>1.079024</speed><course>158.142120</course><hAcc>0.879031</hAcc><vAcc>0.696986</vAcc></extensions></trkpt>
      <trkpt lon="-3.319400" lat="54.566910"><ele>138.020325</ele><time>2021-08-12T12:49:39Z</time><extensions><speed>1.073506</speed><course>156.536041</course><hAcc>0.878969</hAcc><vAcc>0.696729</vAcc></extensions></trkpt>
      <trkpt lon="-3.319408" lat="54.566919"><ele>138.176346</ele><time>2021-08-12T12:49:40Z</time><extensions><speed>1.072847</speed><course>138.496033</course><hAcc>0.878903</hAcc><vAcc>0.696440</vAcc></extensions></trkpt>
      <trkpt lon="-3.319416" lat="54.566927"><ele>138.316986</ele><time>2021-08-12T12:49:41Z</time><extensions><speed>1.077850</speed><course>156.669647</course><hAcc>0.878835</hAcc><vAcc>0.696139</vAcc></extensions></trkpt>
      <trkpt lon="-3.319423" lat="54.566936"><ele>138.441223</ele><time>2021-08-12T12:49:42Z</time><extensions><speed>1.088023</speed><course>143.929214</course><hAcc>0.878773</hAcc><vAcc>0.695851</vAcc></extensions></trkpt>
      <trkpt lon="-3.319430" lat="54.566945"><ele>138.548218</ele><time>2021-08-12T12:49:43Z</time><extensions><speed>1.102146</speed><course>154.114960</course><hAcc>0.878720</hAcc><vAcc>0.695598</vAcc></extensions></trkpt>
      <trkpt lon="-3.319438" lat="54.566954"><ele>138.637314</ele><time>2021-08-12T12:49:44Z</time><extensions><speed>1.119640</speed><course>157.737396</course><hAcc>0.878682</hAcc><vAcc>0.695407</vAcc></extensions></trkpt>
      <trkpt lon="-3.319445" lat="54.566963"><ele>138.708176</ele><time>2021-08-12T12:49:45Z</time><extensions><speed>1.140273</speed><course>156.437073</course><hAcc>0.878665</hAcc><vAcc>0.695296</vAcc></extensions></trkpt>
      <trkpt lon="-3.319452" lat="54.566973"><ele>138.760880</ele><time>2021-08-12T12:49:46Z</time><extensions><speed>1.163541</speed><course>159.749420</course><hAcc>0.878671</hAcc><vAcc>0.695286</vAcc></extensions></trkpt>
      <trkpt lon="-3.319460" lat="54.566982"><ele>138.796127</ele><time>2021-08-12T12:49:47Z</time><extensions><speed>1.188543</speed><course>156.029541</course><hAcc>0.878705</hAcc><vAcc>0.695389</vAcc></extensions></trkpt>
      <trkpt lon="-3.319468" lat="54.566992"><ele>138.815048</ele><time>2021-08-12T12:49:48Z</time><extensions><speed>1.214673</speed><course>159.049896</course><hAcc>0.878767</hAcc><vAcc>0.695616</vAcc></extensions></trkpt>
      <trkpt lon="-3.319476" lat="54.567002"><ele>138.819153</ele><time>2021-08-12T12:49:49Z</time><extensions><speed>1.241339</speed><course>154.355942</course><hAcc>0.878858</hAcc><vAcc>0.695968</vAcc></extensions></trkpt>
      <trkpt lon="-3.319484" lat="54.567012"><ele>138.810349</ele><time>2021-08-12T12:49:50Z</time><extensions><speed>1.267353</speed><course>162.710571</course><hAcc>0.878976</hAcc><vAcc>0.696436</vAcc></extensions></trkpt>
      <trkpt lon="-3.319493" lat="54.567023"><ele>138.790619</ele><time>2021-08-12T12:49:51Z</time><extensions><speed>1.292409</speed><course>161.899368</course><hAcc>0.879117</hAcc><vAcc>0.697005</vAcc></extensions></trkpt>
      <trkpt lon="-3.319502" lat="54.567033"><ele>138.761475</ele><time>2021-08-12T12:49:52Z</time><extensions><speed>1.316908</speed><course>160.656769</course><hAcc>0.879279</hAcc><vAcc>0.697651</vAcc></extensions></trkpt>
      <trkpt lon="-3.319511" lat="54.567044"><ele>138.723984</ele><time>2021-08-12T12:49:53Z</time><extensions><speed>1.340739</speed><course>152.471558</course><hAcc>0.879457</hAcc><vAcc>0.698353</vAcc></extensions></trkpt>
      <trkpt lon="-3.319521" lat="54.567054"><ele>138.679169</ele><time>2021-08-12T12:49:54Z</time><extensions><speed>1.363695</speed><course>148.255112</course><hAcc>0.879645</hAcc><vAcc>0.699087</vAcc></extensions></trkpt>
      <trkpt lon="-3.319531" lat="54.567065"><ele>138.628357</ele><time>2021-08-12T12:49:55Z</time><extensions><speed>1.385795</speed><course>153.394714</course><hAcc>0.879839</hAcc><vAcc>0.699833</vAcc></extensions></trkpt>
      <trkpt lon="-3.319541" lat="54.567076"><ele>138.573257</ele><time>2021-08-12T12:49:56Z</time><extensions><speed>1.406328</speed><course>156.943573</course><hAcc>0.880036</hAcc><vAcc>0.700574</vAcc></extensions></trkpt>
      <trkpt lon="-3.319552" lat="54.567087"><ele>138.515839</ele><time>2021-08-12T12:49:57Z</time><extensions><speed>1.424062</speed><course>159.515564</course><hAcc>0.880231</hAcc><vAcc>0.701298</vAcc></extensions></trkpt>
      <trkpt lon="-3.319563" lat="54.567099"><ele>138.458160</ele><time>2021-08-12T12:49:58Z</time><extensions><speed>1.438249</speed><course>158.540283</course><hAcc>0.880423</hAcc><vAcc>0.701993</vAcc></extensions></trkpt>
      <trkpt lon="-3.319574" lat="54.567110"><ele>138.402725</ele><time>2021-08-12T12:49:59Z</time><extensions><speed>1.448790</speed><course>153.751312</course><hAcc>0.880610</hAcc><vAcc>0.702651</vAcc></extensions></trkpt>
      <trkpt lon="-3.319586" lat="54.567121"><ele>138.352402</ele><time>2021-08-12T12:50:00Z</time><extensions><speed>1.456023</speed><course>159.795258</course><hAcc>0.880789</hAcc><vAcc>0.703271</vAcc></extensions></trkpt>
      <trkpt lon="-3.319597" lat="54.567132"><ele>138.310318</ele><time>2021-08-12T12:50:01Z</time><extensions><speed>1.460600</speed><course>158.187424</course><hAcc>0.880962</hAcc><vAcc>0.703858</vAcc></extensions></trkpt>
      <trkpt lon="-3.319609" lat="54.567143"><ele>138.279266</ele><time>2021-08-12T12:50:02Z</time><extensions><speed>1.463297</speed><course>160.275116</course><hAcc>0.881126</hAcc><vAcc>0.704423</vAcc></extensions></trkpt>
      <trkpt lon="-3.319622" lat="54.567154"><ele>138.261383</ele><time>2021-08-12T12:50:03Z</time><extensions><speed>1.464207</speed><course>156.643036</course><hAcc>0.881283</hAcc><vAcc>0.704974</vAcc></extensions></trkpt>
      <trkpt lon="-3.319634" lat="54.567165"><ele>138.258179</ele><time>2021-08-12T12:50:04Z</time><extensions><speed>1.463076</speed><course>162.614395</course><hAcc>0.881432</hAcc><vAcc>0.705513</vAcc></extensions></trkpt>
      <trkpt lon="-3.319647" lat="54.567176"><ele>138.270477</ele><time>2021-08-12T12:50:05Z</time><extensions><speed>1.460224</speed><course>162.054535</course><hAcc>0.881573</hAcc><vAcc>0.706037</vAcc></extensions></trkpt>
      <trkpt lon="-3.319660" lat="54.567187"><ele>138.298050</ele><time>2021-08-12T12:50:06Z</time><extensions><speed>1.456223</speed><course>177.342987</course><hAcc>0.881705</hAcc><vAcc>0.706539</vAcc></extensions></trkpt>
      <trkpt lon="-3.319673" lat="54.567197"><ele>138.339752</ele><time>2021-08-12T12:50:07Z</time><extensions><speed>1.451828</speed><course>172.891953</course><hAcc>0.881830</hAcc><vAcc>0.707008</vAcc></extensions></trkpt>
      <trkpt lon="-3.319686" lat="54.567208"><ele>138.393646</ele><time>2021-08-12T12:50:08Z</time><extensions><speed>1.447925</speed><course>169.984741</course><hAcc>0.881948</hAcc><vAcc>0.707440</vAcc></extensions></trkpt>
      <trkpt lon="-3.319700" lat="54.567218"><ele>138.457153</ele><time>2021-08-12T12:50:09Z</time><extensions><speed>1.445346</speed><course>166.246048</course><hAcc>0.882064</hAcc><vAcc>0.707838</vAcc></extensions></trkpt>
      <trkpt lon="-3.319714" lat="54.567228"><ele>138.528259</ele><time>2021-08-12T12:50:10Z</time><extensions><speed>1.443173</speed><course>81.891060</course><hAcc>0.882138</hAcc><vAcc>0.708124</vAcc></extensions></trkpt>
      <trkpt lon="-3.319729" lat="54.567238"><ele>138.603683</ele><time>2021-08-12T12:50:11Z</time><extensions><speed>1.443707</speed><course>78.263519</course><hAcc>0.882217</hAcc><vAcc>0.708398</vAcc></extensions></trkpt>
      <trkpt lon="-3.319744" lat="54.567248"><ele>138.680756</ele><time>2021-08-12T12:50:12Z</time><extensions><speed>1.444816</speed><course>74.907532</course><hAcc>0.882290</hAcc><vAcc>0.708646</vAcc></extensions></trkpt>
      <trkpt lon="-3.319759" lat="54.567257"><ele>138.757370</ele><time>2021-08-12T12:50:13Z</time><extensions><speed>1.445324</speed><course>84.941742</course><hAcc>0.882355</hAcc><vAcc>0.708869</vAcc></extensions></trkpt>
      <trkpt lon="-3.319774" lat="54.567267"><ele>138.831863</ele><time>2021-08-12T12:50:14Z</time><extensions><speed>1.444925</speed><course>73.584358</course><hAcc>0.882414</hAcc><vAcc>0.709070</vAcc></extensions></trkpt>
      <trkpt lon="-3.319789" lat="54.567276"><ele>138.903122</ele><time>2021-08-12T12:50:15Z</time><extensions><speed>1.443973</speed><course>96.346313</course><hAcc>0.882466</hAcc><vAcc>0.709251</vAcc></extensions></trkpt>
      <trkpt lon="-3.319804" lat="54.567286"><ele>138.970734</ele><time>2021-08-12T12:50:16Z</time><extensions><speed>1.442376</speed><course>87.208282</course><hAcc>0.882515</hAcc><vAcc>0.709418</vAcc></extensions></trkpt>
      <trkpt lon="-3.319820" lat="54.567295"><ele>139.034927</ele><time>2021-08-12T12:50:17Z</time><extensions><speed>1.439919</speed><course>71.034035</course><hAcc>0.882561</hAcc><vAcc>0.709578</vAcc></extensions></trkpt>
      <trkpt lon="-3.319835" lat="54.567305"><ele>139.096191</ele><time>2021-08-12T12:50:18Z</time><extensions><speed>1.436807</speed><course>74.315559</course><hAcc>0.882605</hAcc><vAcc>0.709737</vAcc></extensions></trkpt>
      <trkpt lon="-3.319850" lat="54.567314"><ele>139.155151</ele><time>2021-08-12T12:50:19Z</time><extensions><speed>1.433394</speed><course>82.074326</course><hAcc>0.882650</hAcc><vAcc>0.709897</vAcc></extensions></trkpt>
      <trkpt lon="-3.319865" lat="54.567323"><ele>139.212204</ele><time>2021-08-12T12:50:20Z</time><extensions><speed>1.429604</speed><course>78.798851</course><hAcc>0.882695</hAcc><vAcc>0.710061</vAcc></extensions></trkpt>
      <trkpt lon="-3.319881" lat="54.567333"><ele>139.267487</ele><time>2021-08-12T12:50:21Z</time><extensions><speed>1.425711</speed><course>71.049065</course><hAcc>0.882740</hAcc><vAcc>0.710232</vAcc></extensions></trkpt>
      <trkpt lon="-3.319896" lat="54.567342"><ele>139.321106</ele><time>2021-08-12T12:50:22Z</time><extensions><speed>1.421897</speed><course>66.417450</course><hAcc>0.882786</hAcc><vAcc>0.710410</vAcc></extensions></trkpt>
      <trkpt lon="-3.319911" lat="54.567351"><ele>139.373138</ele><time>2021-08-12T12:50:23Z</time><extensions><speed>1.417960</speed><course>67.881187</course><hAcc>0.882831</hAcc><vAcc>0.710592</vAcc></extensions></trkpt>
      <trkpt lon="-3.319926" lat="54.567360"><ele>139.423477</ele><time>2021-08-12T12:50:24Z</time><extensions><speed>1.413806</speed><course>73.946594</course><hAcc>0.882874</hAcc><vAcc>0.710777</vAcc></extensions></trkpt>
      <trkpt lon="-3.319941" lat="54.567369"><ele>139.471863</ele><time>2021-08-12T12:50:25Z</time><extensions><speed>1.409494</speed><course>66.868568</course><hAcc>0.882914</hAcc><vAcc>0.710956</vAcc></extensions></trkpt>
      <trkpt lon="-3.319956" lat="54.567378"><ele>139.518082</ele><time>2021-08-12T12:50:26Z</time><extensions><speed>1.404806</speed><course>57.370388</course><hAcc>0.882950</hAcc><vAcc>0.711118</vAcc></extensions></trkpt>
      <trkpt lon="-3.319972" lat="54.567387"><ele>139.562317</ele><time>2021-08-12T12:50:27Z</time><extensions><speed>1.399500</speed><course>72.859169</course><hAcc>0.882979</hAcc><vAcc>0.711255</vAcc></extensions></trkpt>
      <trkpt lon="-3.319987" lat="54.567396"><ele>139.605164</ele><time>2021-08-12T12:50:28Z</time><extensions><speed>1.393532</speed><course>73.476959</course><hAcc>0.883002</hAcc><vAcc>0.711359</vAcc></extensions></trkpt>
      <trkpt lon="-3.320002" lat="54.567405"><ele>139.647354</ele><time>2021-08-12T12:50:29Z</time><extensions><speed>1.387385</speed><course>70.985191</course><hAcc>0.883016</hAcc><vAcc>0.711423</vAcc></extensions></trkpt>
      <trkpt lon="-3.320017" lat="54.567414"><ele>139.689331</ele><time>2021-08-12T12:50:30Z</time><extensions><speed>1.381520</speed><course>67.094063</course><hAcc>0.883023</hAcc><vAcc>0.711444</vAcc></extensions></trkpt>
      <trkpt lon="-3.320032" lat="54.567423"><ele>139.731461</ele><time>2021-08-12T12:50:31Z</time><extensions><speed>1.375868</speed><course>63.802017</course><hAcc>0.883021</hAcc><vAcc>0.711421</vAcc></extensions></trkpt>
      <trkpt lon="-3.320047" lat="54.567431"><ele>139.774033</ele><time>2021-08-12T12:50:32Z</time><extensions><speed>1.370511</speed><course>59.738853</course><hAcc>0.883011</hAcc><vAcc>0.711358</vAcc></extensions></trkpt>
      <trkpt lon="-3.320063" lat="54.567440"><ele>139.817307</ele><time>2021-08-12T12:50:33Z</time><extensions><speed>1.365270</speed><course>64.752533</course><hAcc>0.882994</hAcc><vAcc>0.711266</vAcc></extensions></trkpt>
      <trkpt lon="-3.320078" lat="54.567448"><ele>139.861588</ele><time>2021-08-12T12:50:34Z</time><extensions><speed>1.360350</speed><course>62.678837</course><hAcc>0.882972</hAcc><vAcc>0.711152</vAcc></extensions></trkpt>
      <trkpt lon="-3.320093" lat="54.567457"><ele>139.907059</ele><time>2021-08-12T12:50:35Z</time><extensions><speed>1.356558</speed><course>67.622025</course><hAcc>0.882945</hAcc><vAcc>0.711029</vAcc></extensions></trkpt>
      <trkpt lon="-3.320109" lat="54.567465"><ele>139.953735</ele><time>2021-08-12T12:50:36Z</time><extensions><speed>1.354548</speed><course>76.998230</course><hAcc>0.882916</hAcc><vAcc>0.710903</vAcc></extensions></trkpt>
      <trkpt lon="-3.320125" lat="54.567473"><ele>140.001572</ele><time>2021-08-12T12:50:37Z</time><extensions><speed>1.353892</speed><course>71.279175</course><hAcc>0.882887</hAcc><vAcc>0.710779</vAcc></extensions></trkpt>
      <trkpt lon="-3.320140" lat="54.567481"><ele>140.050095</ele><time>2021-08-12T12:50:38Z</time><extensions><speed>1.353844</speed><course>66.215858</course><hAcc>0.882858</hAcc><vAcc>0.710661</vAcc></extensions></trkpt>
      <trkpt lon="-3.320156" lat="54.567489"><ele>140.098434</ele><time>2021-08-12T12:50:39Z</time><extensions><speed>1.354302</speed><course>65.869171</course><hAcc>0.882831</hAcc><vAcc>0.710552</vAcc></extensions></trkpt>
      <trkpt lon="-3.320173" lat="54.567496"><ele>140.145706</ele><time>2021-08-12T12:50:40Z</time><extensions><speed>1.355222</speed><course>67.480362</course><hAcc>0.882808</hAcc><vAcc>0.710458</vAcc></extensions></trkpt>
      <trkpt lon="-3.320189" lat="54.567504"><ele>140.191177</ele><time>2021-08-12T12:50:41Z</time><extensions><speed>1.356494</speed><course>62.467888</course><hAcc>0.882788</hAcc><vAcc>0.710384</vAcc></extensions></trkpt>
      <trkpt lon="-3.320206" lat="54.567511"><ele>140.234161</ele><time>2021-08-12T12:50:42Z</time><extensions><speed>1.358496</speed><course>57.403885</course><hAcc>0.882772</hAcc><vAcc>0.710330</vAcc></extensions></trkpt>
      <trkpt lon="-3.320223" lat="54.567519"><ele>140.273972</ele><time>2021-08-12T12:50:43Z</time><extensions><speed>1.361462</speed><course>56.104736</course><hAcc>0.882759</hAcc><vAcc>0.710296</vAcc></extensions></trkpt>
      <trkpt lon="-3.320240" lat="54.567526"><ele>140.310089</ele><time>2021-08-12T12:50:44Z</time><extensions><speed>1.364994</speed><course>57.135769</course><hAcc>0.882750</hAcc><vAcc>0.710280</vAcc></extensions></trkpt>
      <trkpt lon="-3.320257" lat="54.567533"><ele>140.342514</ele><time>2021-08-12T12:50:45Z</time><extensions><speed>1.368638</speed><course>59.466648</course><hAcc>0.882744</hAcc><vAcc>0.710275</vAcc></extensions></trkpt>
      <trkpt lon="-3.320275" lat="54.567539"><ele>140.371674</ele><time>2021-08-12T12:50:46Z</time><extensions><speed>1.372677</speed><course>56.466339</course><hAcc>0.882740</hAcc><vAcc>0.710277</vAcc></extensions></trkpt>
      <trkpt lon="-3.320293" lat="54.567546"><ele>140.397980</ele><time>2021-08-12T12:50:47Z</time><extensions><speed>1.377248</speed><course>61.082169</course><hAcc>0.882737</hAcc><vAcc>0.710278</vAcc></extensions></trkpt>
      <trkpt lon="-3.320311" lat="54.567552"><ele>140.421585</ele><time>2021-08-12T12:50:48Z</time><extensions><speed>1.381652</speed><course>63.000797</course><hAcc>0.882737</hAcc><vAcc>0.710278</vAcc></extensions></trkpt>
      <trkpt lon="-3.320330" lat="54.567559"><ele>140.442551</ele><time>2021-08-12T12:50:49Z</time><extensions><speed>1.385461</speed><course>58.373146</course><hAcc>0.882738</hAcc><vAcc>0.710275</vAcc></extensions></trkpt>
      <trkpt lon="-3.320348" lat="54.567565"><ele>140.460831</ele><time>2021-08-12T12:50:50Z</time><extensions><speed>1.388601</speed><course>59.591164</course><hAcc>0.882739</hAcc><vAcc>0.710271</vAcc></extensions></trkpt>
      <trkpt lon="-3.320367" lat="54.567571"><ele>140.476257</ele><time>2021-08-12T12:50:51Z</time><extensions><speed>1.390896</speed><course>56.078835</course><hAcc>0.882742</hAcc><vAcc>0.710269</vAcc></extensions></trkpt>
      <trkpt lon="-3.320386" lat="54.567577"><ele>140.488602</ele><time>2021-08-12T12:50:52Z</time><extensions><speed>1.391941</speed><course>61.452141</course><hAcc>0.882747</hAcc><vAcc>0.710272</vAcc></extensions></trkpt>
      <trkpt lon="-3.320404" lat="54.567583"><ele>140.497818</ele><time>2021-08-12T12:50:53Z</time><extensions><speed>1.391575</speed><course>62.349373</course><hAcc>0.882753</hAcc><vAcc>0.710285</vAcc></extensions></trkpt>
      <trkpt lon="-3.320423" lat="54.567589"><ele>140.504410</ele><time>2021-08-12T12:50:54Z</time><extensions><speed>1.389897</speed><course>67.502327</course><hAcc>0.882760</hAcc><vAcc>0.710310</vAcc></extensions></trkpt>
      <trkpt lon="-3.320442" lat="54.567596"><ele>140.509277</ele><time>2021-08-12T12:50:55Z</time><extensions><speed>1.387403</speed><course>65.148994</course><hAcc>0.882770</hAcc><vAcc>0.710346</vAcc></extensions></trkpt>
      <trkpt lon="-3.320460" lat="54.567602"><ele>140.513489</ele><time>2021-08-12T12:50:56Z</time><extensions><speed>1.384335</speed><course>61.604351</course><hAcc>0.882781</hAcc><vAcc>0.710394</vAcc></extensions></trkpt>
      <trkpt lon="-3.320478" lat="54.567609"><ele>140.518005</ele><time>2021-08-12T12:50:57Z</time><extensions><speed>1.380880</speed><course>67.356651</course><hAcc>0.882795</hAcc><vAcc>0.710450</vAcc></extensions></trkpt>
      <trkpt lon="-3.320496" lat="54.567615"><ele>140.523483</ele><time>2021-08-12T12:50:58Z</time><extensions><speed>1.377454</speed><course>56.187717</course><hAcc>0.882811</hAcc><vAcc>0.710514</vAcc></extensions></trkpt>
      <trkpt lon="-3.320514" lat="54.567622"><ele>140.530319</ele><time>2021-08-12T12:50:59Z</time><extensions><speed>1.373826</speed><course>56.273357</course><hAcc>0.882828</hAcc><vAcc>0.710585</vAcc></extensions></trkpt>
      <trkpt lon="-3.320532" lat="54.567629"><ele>140.538681</ele><time>2021-08-12T12:51:00Z</time><extensions><speed>1.369682</speed><course>59.042984</course><hAcc>0.882847</hAcc><vAcc>0.710660</vAcc></extensions></trkpt>
      <trkpt lon="-3.320549" lat="54.567636"><ele>140.548599</ele><time>2021-08-12T12:51:01Z</time><extensions><speed>1.365893</speed><course>46.754299</course><hAcc>0.882868</hAcc><vAcc>0.710737</vAcc></extensions></trkpt>
      <trkpt lon="-3.320566" lat="54.567643"><ele>140.560196</ele><time>2021-08-12T12:51:02Z</time><extensions><speed>1.363427</speed><course>46.754295</course><hAcc>0.882889</hAcc><vAcc>0.710815</vAcc></extensions></trkpt>
      <trkpt lon="-3.320583" lat="54.567651"><ele>140.573654</ele><time>2021-08-12T12:51:03Z</time><extensions><speed>1.362352</speed><course>46.754295</course><hAcc>0.882912</hAcc><vAcc>0.710892</vAcc></extensions></trkpt>
      <trkpt lon="-3.320599" lat="54.567658"><ele>140.589127</ele><time>2021-08-12T12:51:04Z</time><extensions><speed>1.363122</speed><course>46.754295</course><hAcc>0.882935</hAcc><vAcc>0.710971</vAcc></extensions></trkpt>
      <trkpt lon="-3.320616" lat="54.567666"><ele>140.606720</ele><time>2021-08-12T12:51:05Z</time><extensions><speed>1.366315</speed><course>46.754295</course><hAcc>0.882957</hAcc><vAcc>0.711053</vAcc></extensions></trkpt>
      <trkpt lon="-3.320632" lat="54.567674"><ele>140.626434</ele><time>2021-08-12T12:51:06Z</time><extensions><speed>1.371539</speed><course>46.754295</course><hAcc>0.882979</hAcc><vAcc>0.711140</vAcc></extensions></trkpt>
      <trkpt lon="-3.320648" lat="54.567682"><ele>140.648392</ele><time>2021-08-12T12:51:07Z</time><extensions><speed>1.378148</speed><course>46.754295</course><hAcc>0.882999</hAcc><vAcc>0.711229</vAcc></extensions></trkpt>
      <trkpt lon="-3.320664" lat="54.567690"><ele>140.672577</ele><time>2021-08-12T12:51:08Z</time><extensions><speed>1.385454</speed><course>46.754292</course><hAcc>0.883018</hAcc><vAcc>0.711317</vAcc></extensions></trkpt>
      <trkpt lon="-3.320681" lat="54.567698"><ele>140.698608</ele><time>2021-08-12T12:51:09Z</time><extensions><speed>1.393126</speed><course>46.754295</course><hAcc>0.883034</hAcc><vAcc>0.711395</vAcc></extensions></trkpt>
      <trkpt lon="-3.320697" lat="54.567706"><ele>140.725632</ele><time>2021-08-12T12:51:10Z</time><extensions><speed>1.400894</speed><course>86.257805</course><hAcc>0.883048</hAcc><vAcc>0.711454</vAcc></extensions></trkpt>
      <trkpt lon="-3.320713" lat="54.567715"><ele>140.752609</ele><time>2021-08-12T12:51:11Z</time><extensions><speed>1.407896</speed><course>92.864906</course><hAcc>0.883058</hAcc><vAcc>0.711492</vAcc></extensions></trkpt>
      <trkpt lon="-3.320730" lat="54.567723"><ele>140.778320</ele><time>2021-08-12T12:51:12Z</time><extensions><speed>1.413130</speed><course>94.458534</course><hAcc>0.883064</hAcc><vAcc>0.711511</vAcc></extensions></trkpt>
      <trkpt lon="-3.320747" lat="54.567731"><ele>140.801605</ele><time>2021-08-12T12:51:13Z</time><extensions><speed>1.415522</speed><course>89.165138</course><hAcc>0.883066</hAcc><vAcc>0.711513</vAcc></extensions></trkpt>
      <trkpt lon="-3.320763" lat="54.567739"><ele>140.821350</ele><time>2021-08-12T12:51:14Z</time><extensions><speed>1.414044</speed><course>98.187202</course><hAcc>0.883064</hAcc><vAcc>0.711501</vAcc></extensions></trkpt>
      <trkpt lon="-3.320780" lat="54.567747"><ele>140.836288</ele><time>2021-08-12T12:51:15Z</time><extensions><speed>1.408385</speed><course>262.094696</course><hAcc>0.883058</hAcc><vAcc>0.711474</vAcc></extensions></trkpt>
      <trkpt lon="-3.320797" lat="54.567755"><ele>140.844681</ele><time>2021-08-12T12:51:16Z</time><extensions><speed>1.398725</speed><course>273.339569</course><hAcc>0.883047</hAcc><vAcc>0.711433</vAcc></extensions></trkpt>
      <trkpt lon="-3.320814" lat="54.567763"><ele>140.844635</ele><time>2021-08-12T12:51:17Z</time><extensions><speed>1.385066</speed><course>270.133057</course><hAcc>0.883034</hAcc><vAcc>0.711380</vAcc></extensions></trkpt>
      <trkpt lon="-3.320830" lat="54.567771"><ele>140.834564</ele><time>2021-08-12T12:51:18Z</time><extensions><speed>1.368005</speed><course>264.401459</course><hAcc>0.883018</hAcc><vAcc>0.711315</vAcc></extensions></trkpt>
      <trkpt lon="-3.320847" lat="54.567778"><ele>140.813339</ele><time>2021-08-12T12:51:19Z</time><extensions><speed>1.348715</speed><course>271.206299</course><hAcc>0.883000</hAcc><vAcc>0.711243</vAcc></extensions></trkpt>
      <trkpt lon="-3.320863" lat="54.567786"><ele>140.780319</ele><time>2021-08-12T12:51:20Z</time><extensions><speed>1.328613</speed><course>270.479279</course><hAcc>0.882981</hAcc><vAcc>0.711164</vAcc></extensions></trkpt>
      <trkpt lon="-3.320879" lat="54.567794"><ele>140.735245</ele><time>2021-08-12T12:51:21Z</time><extensions><speed>1.309507</speed><course>270.479279</course><hAcc>0.882961</hAcc><vAcc>0.711082</vAcc></extensions></trkpt>
      <trkpt lon="-3.320894" lat="54.567801"><ele>140.678299</ele><time>2021-08-12T12:51:22Z</time><extensions><speed>1.292938</speed><course>270.479279</course><hAcc>0.882942</hAcc><vAcc>0.711000</vAcc></extensions></trkpt>
      <trkpt lon="-3.320910" lat="54.567808"><ele>140.610062</ele><time>2021-08-12T12:51:23Z</time><extensions><speed>1.279450</speed><course>92.836548</course><hAcc>0.882923</hAcc><vAcc>0.710920</vAcc></extensions></trkpt>
      <trkpt lon="-3.320925" lat="54.567815"><ele>140.531281</ele><time>2021-08-12T12:51:24Z</time><extensions><speed>1.268488</speed><course>91.847809</course><hAcc>0.882906</hAcc><vAcc>0.710847</vAcc></extensions></trkpt>
      <trkpt lon="-3.320940" lat="54.567823"><ele>140.442612</ele><time>2021-08-12T12:51:25Z</time><extensions><speed>1.259364</speed><course>96.972961</course><hAcc>0.882891</hAcc><vAcc>0.710783</vAcc></extensions></trkpt>
      <trkpt lon="-3.320955" lat="54.567830"><ele>140.345001</ele><time>2021-08-12T12:51:26Z</time><extensions><speed>1.252044</speed><course>101.432434</course><hAcc>0.882878</hAcc><vAcc>0.710731</vAcc></extensions></trkpt>
      <trkpt lon="-3.320970" lat="54.567837"><ele>140.239670</ele><time>2021-08-12T12:51:27Z</time><extensions><speed>1.246789</speed><course>89.921867</course><hAcc>0.882866</hAcc><vAcc>0.710692</vAcc></extensions></trkpt>
      <trkpt lon="-3.320985" lat="54.567844"><ele>140.127838</ele><time>2021-08-12T12:51:28Z</time><extensions><speed>1.243701</speed><course>79.468422</course><hAcc>0.882855</hAcc><vAcc>0.710665</vAcc></extensions></trkpt>
      <trkpt lon="-3.321000" lat="54.567851"><ele>140.010941</ele><time>2021-08-12T12:51:29Z</time><extensions><speed>1.242679</speed><course>79.668663</course><hAcc>0.882843</hAcc><vAcc>0.710645</vAcc></extensions></trkpt>
      <trkpt lon="-3.321015" lat="54.567858"><ele>139.890717</ele><time>2021-08-12T12:51:30Z</time><extensions><speed>1.243518</speed><course>70.198914</course><hAcc>0.882830</hAcc><vAcc>0.710624</vAcc></extensions></trkpt>
      <trkpt lon="-3.321029" lat="54.567865"><ele>139.769043</ele><time>2021-08-12T12:51:31Z</time><extensions><speed>1.245867</speed><course>85.811096</course><hAcc>0.882813</hAcc><vAcc>0.710595</vAcc></extensions></trkpt>
      <trkpt lon="-3.321044" lat="54.567872"><ele>139.647537</ele><time>2021-08-12T12:51:32Z</time><extensions><speed>1.249597</speed><course>87.515213</course><hAcc>0.882792</hAcc><vAcc>0.710546</vAcc></extensions></trkpt>
      <trkpt lon="-3.321059" lat="54.567880"><ele>139.527496</ele><time>2021-08-12T12:51:33Z</time><extensions><speed>1.254219</speed><course>86.802406</course><hAcc>0.882764</hAcc><vAcc>0.710472</vAcc></extensions></trkpt>
      <trkpt lon="-3.321073" lat="54.567888"><ele>139.410004</ele><time>2021-08-12T12:51:34Z</time><extensions><speed>1.258888</speed><course>85.424927</course><hAcc>0.882728</hAcc><vAcc>0.710363</vAcc></extensions></trkpt>
      <trkpt lon="-3.321087" lat="54.567895"><ele>139.295776</ele><time>2021-08-12T12:51:35Z</time><extensions><speed>1.263247</speed><course>88.911957</course><hAcc>0.882684</hAcc><vAcc>0.710217</vAcc></extensions></trkpt>
      <trkpt lon="-3.321101" lat="54.567903"><ele>139.185089</ele><time>2021-08-12T12:51:36Z</time><extensions><speed>1.266965</speed><course>93.027184</course><hAcc>0.882630</hAcc><vAcc>0.710032</vAcc></extensions></trkpt>
      <trkpt lon="-3.321115" lat="54.567912"><ele>139.077759</ele><time>2021-08-12T12:51:37Z</time><extensions><speed>1.269681</speed><course>90.763535</course><hAcc>0.882567</hAcc><vAcc>0.709803</vAcc></extensions></trkpt>
      <trkpt lon="-3.321128" lat="54.567920"><ele>138.973312</ele><time>2021-08-12T12:51:38Z</time><extensions><speed>1.272195</speed><course>83.392509</course><hAcc>0.882496</hAcc><vAcc>0.709532</vAcc></extensions></trkpt>
      <trkpt lon="-3.321141" lat="54.567928"><ele>138.871109</ele><time>2021-08-12T12:51:39Z</time><extensions><speed>1.276023</speed><course>57.334152</course><hAcc>0.882419</hAcc><vAcc>0.709220</vAcc></extensions></trkpt>
      <trkpt lon="-3.321154" lat="54.567937"><ele>138.770401</ele><time>2021-08-12T12:51:40Z</time><extensions><speed>1.282062</speed><course>29.254333</course><hAcc>0.882338</hAcc><vAcc>0.708879</vAcc></extensions></trkpt>
      <trkpt lon="-3.321166" lat="54.567946"><ele>138.670425</ele><time>2021-08-12T12:51:41Z</time><extensions><speed>1.290820</speed><course>29.254333</course><hAcc>0.882257</hAcc><vAcc>0.708527</vAcc></extensions></trkpt>
      <trkpt lon="-3.321178" lat="54.567956"><ele>138.570602</ele><time>2021-08-12T12:51:42Z</time><extensions><speed>1.302343</speed><course>29.254333</course><hAcc>0.882176</hAcc><vAcc>0.708180</vAcc></extensions></trkpt>
      <trkpt lon="-3.321190" lat="54.567965"><ele>138.470703</ele><time>2021-08-12T12:51:43Z</time><extensions><speed>1.316532</speed><course>29.254332</course><hAcc>0.882101</hAcc><vAcc>0.707856</vAcc></extensions></trkpt>
      <trkpt lon="-3.321202" lat="54.567975"><ele>138.371078</ele><time>2021-08-12T12:51:44Z</time><extensions><speed>1.333201</speed><course>29.254333</course><hAcc>0.882034</hAcc><vAcc>0.707569</vAcc></extensions></trkpt>
      <trkpt lon="-3.321214" lat="54.567984"><ele>138.272659</ele><time>2021-08-12T12:51:45Z</time><extensions><speed>1.351457</speed><course>29.254332</course><hAcc>0.881977</hAcc><vAcc>0.707333</vAcc></extensions></trkpt>
      <trkpt lon="-3.321227" lat="54.567994"><ele>138.176620</ele><time>2021-08-12T12:51:46Z</time><extensions><speed>1.370139</speed><course>29.254332</course><hAcc>0.881932</hAcc><vAcc>0.707157</vAcc></extensions></trkpt>
      <trkpt lon="-3.321239" lat="54.568005"><ele>138.083923</ele><time>2021-08-12T12:51:47Z</time><extensions><speed>1.388436</speed><course>29.254333</course><hAcc>0.881900</hAcc><vAcc>0.707045</vAcc></extensions></trkpt>
      <trkpt lon="-3.321251" lat="54.568015"><ele>137.994919</ele><time>2021-08-12T12:51:48Z</time><extensions><speed>1.405556</speed><course>29.254333</course><hAcc>0.881880</hAcc><vAcc>0.706997</vAcc></extensions></trkpt>
      <trkpt lon="-3.321263" lat="54.568025"><ele>137.909393</ele><time>2021-08-12T12:51:49Z</time><extensions><speed>1.420813</speed><course>29.254332</course><hAcc>0.881872</hAcc><vAcc>0.707007</vAcc></extensions></trkpt>
      <trkpt lon="-3.321276" lat="54.568036"><ele>137.826889</ele><time>2021-08-12T12:51:50Z</time><extensions><speed>1.434046</speed><course>29.254333</course><hAcc>0.881873</hAcc><vAcc>0.707062</vAcc></extensions></trkpt>
      <trkpt lon="-3.321289" lat="54.568047"><ele>137.746674</ele><time>2021-08-12T12:51:51Z</time><extensions><speed>1.445486</speed><course>29.254337</course><hAcc>0.881882</hAcc><vAcc>0.707146</vAcc></extensions></trkpt>
      <trkpt lon="-3.321302" lat="54.568057"><ele>137.667694</ele><time>2021-08-12T12:51:52Z</time><extensions><speed>1.455414</speed><course>29.254337</course><hAcc>0.881897</hAcc><vAcc>0.707241</vAcc></extensions></trkpt>
      <trkpt lon="-3.321315" lat="54.568068"><ele>137.588806</ele><time>2021-08-12T12:51:53Z</time><extensions><speed>1.464336</speed><course>29.254339</course><hAcc>0.881914</hAcc><vAcc>0.707332</vAcc></extensions></trkpt>
      <trkpt lon="-3.321328" lat="54.568079"><ele>137.509155</ele><time>2021-08-12T12:51:54Z</time><extensions><speed>1.472812</speed><course>29.254337</course><hAcc>0.881932</hAcc><vAcc>0.707412</vAcc></extensions></trkpt>
      <trkpt lon="-3.321342" lat="54.568089"><ele>137.428375</ele><time>2021-08-12T12:51:55Z</time><extensions><speed>1.480792</speed><course>29.254339</course><hAcc>0.881950</hAcc><vAcc>0.707477</vAcc></extensions></trkpt>
      <trkpt lon="-3.321356" lat="54.568100"><ele>137.346191</ele><time>2021-08-12T12:51:56Z</time><extensions><speed>1.487768</speed><course>353.139893</course><hAcc>0.881965</hAcc><vAcc>0.707530</vAcc></extensions></trkpt>
      <trkpt lon="-3.321370" lat="54.568110"><ele>137.262238</ele><time>2021-08-12T12:51:57Z</time><extensions><speed>1.493231</speed><course>-1.000000</course><hAcc>0.881978</hAcc><vAcc>0.707573</vAcc></extensions></trkpt>
      <trkpt lon="-3.321384" lat="54.568121"><ele>137.175949</ele><time>2021-08-12T12:51:58Z</time><extensions><speed>1.497246</speed><course>-1.000000</course><hAcc>0.881989</hAcc><vAcc>0.707603</vAcc></extensions></trkpt>
      <trkpt lon="-3.321399" lat="54.568131"><ele>137.086609</ele><time>2021-08-12T12:51:59Z</time><extensions><speed>1.500142</speed><course>-1.000000</course><hAcc>0.881997</hAcc><vAcc>0.707620</vAcc></extensions></trkpt>
      <trkpt lon="-3.321414" lat="54.568141"><ele>136.993454</ele><time>2021-08-12T12:52:00Z</time><extensions><speed>1.501984</speed><course>-1.000000</course><hAcc>0.882004</hAcc><vAcc>0.707624</vAcc></extensions></trkpt>
      <trkpt lon="-3.321429" lat="54.568152"><ele>136.895767</ele><time>2021-08-12T12:52:01Z</time><extensions><speed>1.502521</speed><course>-1.000000</course><hAcc>0.882012</hAcc><vAcc>0.707624</vAcc></extensions></trkpt>
      <trkpt lon="-3.321445" lat="54.568162"><ele>136.792572</ele><time>2021-08-12T12:52:02Z</time><extensions><speed>1.501466</speed><course>-1.000000</course><hAcc>0.882020</hAcc><vAcc>0.707627</vAcc></extensions></trkpt>
      <trkpt lon="-3.321460" lat="54.568172"><ele>136.682709</ele><time>2021-08-12T12:52:03Z</time><extensions><speed>1.498608</speed><course>-1.000000</course><hAcc>0.882030</hAcc><vAcc>0.707645</vAcc></extensions></trkpt>
      <trkpt lon="-3.321476" lat="54.568182"><ele>136.564774</ele><time>2021-08-12T12:52:04Z</time><extensions><speed>1.493889</speed><course>-1.000000</course><hAcc>0.882043</hAcc><vAcc>0.707684</vAcc></extensions></trkpt>
      <trkpt lon="-3.321492" lat="54.568191"><ele>136.437439</ele><time>2021-08-12T12:52:05Z</time><extensions><speed>1.487988</speed><course>-1.000000</course><hAcc>0.882058</hAcc><vAcc>0.707744</vAcc></extensions></trkpt>
      <trkpt lon="-3.321507" lat="54.568201"><ele>136.299744</ele><time>2021-08-12T12:52:06Z</time><extensions><speed>1.481709</speed><course>-1.000000</course><hAcc>0.882077</hAcc><vAcc>0.707823</vAcc></extensions></trkpt>
      <trkpt lon="-3.321523" lat="54.568211"><ele>136.151352</ele><time>2021-08-12T12:52:07Z</time><extensions><speed>1.474758</speed><course>-1.000000</course><hAcc>0.882097</hAcc><vAcc>0.707917</vAcc></extensions></trkpt>
      <trkpt lon="-3.321539" lat="54.568220"><ele>135.992813</ele><time>2021-08-12T12:52:08Z</time><extensions><speed>1.466668</speed><course>74.830536</course><hAcc>0.882119</hAcc><vAcc>0.708024</vAcc></extensions></trkpt>
      <trkpt lon="-3.321554" lat="54.568230"><ele>135.825180</ele><time>2021-08-12T12:52:09Z</time><extensions><speed>1.457911</speed><course>62.161198</course><hAcc>0.882142</hAcc><vAcc>0.708134</vAcc></extensions></trkpt>
      <trkpt lon="-3.321570" lat="54.568239"><ele>135.649506</ele><time>2021-08-12T12:52:10Z</time><extensions><speed>1.449303</speed><course>66.043793</course><hAcc>0.882163</hAcc><vAcc>0.708238</vAcc></extensions></trkpt>
      <trkpt lon="-3.321585" lat="54.568249"><ele>135.466843</ele><time>2021-08-12T12:52:11Z</time><extensions><speed>1.441945</speed><course>75.803009</course><hAcc>0.882183</hAcc><vAcc>0.708327</vAcc></extensions></trkpt>
      <trkpt lon="-3.321601" lat="54.568258"><ele>135.278641</ele><time>2021-08-12T12:52:12Z</time><extensions><speed>1.437098</speed><course>76.191063</course><hAcc>0.882200</hAcc><vAcc>0.708395</vAcc></extensions></trkpt>
      <trkpt lon="-3.321616" lat="54.568267"><ele>135.086792</ele><time>2021-08-12T12:52:13Z</time><extensions><speed>1.435412</speed><course>76.349960</course><hAcc>0.882213</hAcc><vAcc>0.708443</vAcc></extensions></trkpt>
      <trkpt lon="-3.321632" lat="54.568276"><ele>134.893112</ele><time>2021-08-12T12:52:14Z</time><extensions><speed>1.436559</speed><course>78.477806</course><hAcc>0.882222</hAcc><vAcc>0.708472</vAcc></extensions></trkpt>
      <trkpt lon="-3.321648" lat="54.568286"><ele>134.699265</ele><time>2021-08-12T12:52:15Z</time><extensions><speed>1.439663</speed><course>75.070290</course><hAcc>0.882227</hAcc><vAcc>0.708482</vAcc></extensions></trkpt>
      <trkpt lon="-3.321664" lat="54.568295"><ele>134.506912</ele><time>2021-08-12T12:52:16Z</time><extensions><speed>1.444029</speed><course>69.086029</course><hAcc>0.882229</hAcc><vAcc>0.708475</vAcc></extensions></trkpt>
      <trkpt lon="-3.321680" lat="54.568304"><ele>134.317856</ele><time>2021-08-12T12:52:17Z</time><extensions><speed>1.449409</speed><course>68.949226</course><hAcc>0.882227</hAcc><vAcc>0.708451</vAcc></extensions></trkpt>
      <trkpt lon="-3.321696" lat="54.568312"><ele>134.133942</ele><time>2021-08-12T12:52:18Z</time><extensions><speed>1.455886</speed><course>71.686111</course><hAcc>0.882222</hAcc><vAcc>0.708414</vAcc></extensions></trkpt>
      <trkpt lon="-3.321713" lat="54.568321"><ele>133.956757</ele><time>2021-08-12T12:52:19Z</time><extensions><speed>1.463101</speed><course>76.597496</course><hAcc>0.882216</hAcc><vAcc>0.708373</vAcc></extensions></trkpt>
      <trkpt lon="-3.321730" lat="54.568330"><ele>133.787277</ele><time>2021-08-12T12:52:20Z</time><extensions><speed>1.469936</speed><course>90.005066</course><hAcc>0.882207</hAcc><vAcc>0.708335</vAcc></extensions></trkpt>
      <trkpt lon="-3.321747" lat="54.568339"><ele>133.626190</ele><time>2021-08-12T12:52:21Z</time><extensions><speed>1.475432</speed><course>83.948074</course><hAcc>0.882198</hAcc><vAcc>0.708307</vAcc></extensions></trkpt>
      <trkpt lon="-3.321764" lat="54.568348"><ele>133.473862</ele><time>2021-08-12T12:52:22Z</time><extensions><speed>1.479356</speed><course>76.996796</course><hAcc>0.882187</hAcc><vAcc>0.708285</vAcc></extensions></trkpt>
      <trkpt lon="-3.321781" lat="54.568356"><ele>133.330093</ele><time>2021-08-12T12:52:23Z</time><extensions><speed>1.482112</speed><course>79.507355</course><hAcc>0.882176</hAcc><vAcc>0.708263</vAcc></extensions></trkpt>
      <trkpt lon="-3.321799" lat="54.568365"><ele>133.194412</ele><time>2021-08-12T12:52:24Z</time><extensions><speed>1.484049</speed><course>72.096832</course><hAcc>0.882164</hAcc><vAcc>0.708234</vAcc></extensions></trkpt>
      <trkpt lon="-3.321816" lat="54.568374"><ele>133.066406</ele><time>2021-08-12T12:52:25Z</time><extensions><speed>1.485014</speed><course>80.368279</course><hAcc>0.882152</hAcc><vAcc>0.708193</vAcc></extensions></trkpt>
      <trkpt lon="-3.321833" lat="54.568383"><ele>132.945648</ele><time>2021-08-12T12:52:26Z</time><extensions><speed>1.485433</speed><course>78.982643</course><hAcc>0.882141</hAcc><vAcc>0.708138</vAcc></extensions></trkpt>
      <trkpt lon="-3.321850" lat="54.568392"><ele>132.831635</ele><time>2021-08-12T12:52:27Z</time><extensions><speed>1.486026</speed><course>81.075706</course><hAcc>0.882130</hAcc><vAcc>0.708075</vAcc></extensions></trkpt>
      <trkpt lon="-3.321866" lat="54.568401"><ele>132.723618</ele><time>2021-08-12T12:52:28Z</time><extensions><speed>1.486749</speed><course>81.007790</course><hAcc>0.882121</hAcc><vAcc>0.708014</vAcc></extensions></trkpt>
      <trkpt lon="-3.321883" lat="54.568410"><ele>132.620773</ele><time>2021-08-12T12:52:29Z</time><extensions><speed>1.486748</speed><course>78.272133</course><hAcc>0.882114</hAcc><vAcc>0.707967</vAcc></extensions></trkpt>
      <trkpt lon="-3.321899" lat="54.568420"><ele>132.522400</ele><time>2021-08-12T12:52:30Z</time><extensions><speed>1.485234</speed><course>73.069588</course><hAcc>0.882108</hAcc><vAcc>0.707943</vAcc></extensions></trkpt>
      <trkpt lon="-3.321915" lat="54.568429"><ele>132.428101</ele><time>2021-08-12T12:52:31Z</time><extensions><speed>1.482159</speed><course>77.189682</course><hAcc>0.882103</hAcc><vAcc>0.707939</vAcc></extensions></trkpt>
      <trkpt lon="-3.321931" lat="54.568439"><ele>132.337296</ele><time>2021-08-12T12:52:32Z</time><extensions><speed>1.478031</speed><course>75.197517</course><hAcc>0.882101</hAcc><vAcc>0.707948</vAcc></extensions></trkpt>
      <trkpt lon="-3.321947" lat="54.568449"><ele>132.249161</ele><time>2021-08-12T12:52:33Z</time><extensions><speed>1.473544</speed><course>67.733307</course><hAcc>0.882100</hAcc><vAcc>0.707961</vAcc></extensions></trkpt>
      <trkpt lon="-3.321962" lat="54.568458"><ele>132.162674</ele><time>2021-08-12T12:52:34Z</time><extensions><speed>1.469426</speed><course>69.123688</course><hAcc>0.882101</hAcc><vAcc>0.707974</vAcc></extensions></trkpt>
      <trkpt lon="-3.321977" lat="54.568468"><ele>132.076736</ele><time>2021-08-12T12:52:35Z</time><extensions><speed>1.466220</speed><course>71.299400</course><hAcc>0.882102</hAcc><vAcc>0.707983</vAcc></extensions></trkpt>
      <trkpt lon="-3.321991" lat="54.568478"><ele>131.990005</ele><time>2021-08-12T12:52:36Z</time><extensions><speed>1.464124</speed><course>77.479210</course><hAcc>0.882102</hAcc><vAcc>0.707989</vAcc></extensions></trkpt>
      <trkpt lon="-3.322006" lat="54.568489"><ele>131.901382</ele><time>2021-08-12T12:52:37Z</time><extensions><speed>1.462798</speed><course>68.623329</course><hAcc>0.882102</hAcc><vAcc>0.707998</vAcc></extensions></trkpt>
      <trkpt lon="-3.322020" lat="54.568499"><ele>131.810593</ele><time>2021-08-12T12:52:38Z</time><extensions><speed>1.461277</speed><course>63.866425</course><hAcc>0.882100</hAcc><vAcc>0.708006</vAcc></extensions></trkpt>
      <trkpt lon="-3.322035" lat="54.568509"><ele>131.717758</ele><time>2021-08-12T12:52:39Z</time><extensions><speed>1.459113</speed><course>76.291603</course><hAcc>0.882096</hAcc><vAcc>0.708008</vAcc></extensions></trkpt>
      <trkpt lon="-3.322049" lat="54.568519"><ele>131.623108</ele><time>2021-08-12T12:52:40Z</time><extensions><speed>1.456455</speed><course>71.777351</course><hAcc>0.882091</hAcc><vAcc>0.707995</vAcc></extensions></trkpt>
      <trkpt lon="-3.322064" lat="54.568529"><ele>131.527069</ele><time>2021-08-12T12:52:41Z</time><extensions><speed>1.453439</speed><course>76.476341</course><hAcc>0.882086</hAcc><vAcc>0.707964</vAcc></extensions></trkpt>
      <trkpt lon="-3.322079" lat="54.568538"><ele>131.430374</ele><time>2021-08-12T12:52:42Z</time><extensions><speed>1.450582</speed><course>63.346680</course><hAcc>0.882081</hAcc><vAcc>0.707919</vAcc></extensions></trkpt>
      <trkpt lon="-3.322094" lat="54.568548"><ele>131.333847</ele><time>2021-08-12T12:52:43Z</time><extensions><speed>1.448708</speed><course>60.883244</course><hAcc>0.882079</hAcc><vAcc>0.707868</vAcc></extensions></trkpt>
      <trkpt lon="-3.322109" lat="54.568558"><ele>131.238586</ele><time>2021-08-12T12:52:44Z</time><extensions><speed>1.448602</speed><course>66.100471</course><hAcc>0.882079</hAcc><vAcc>0.707825</vAcc></extensions></trkpt>
      <trkpt lon="-3.322124" lat="54.568567"><ele>131.145813</ele><time>2021-08-12T12:52:45Z</time><extensions><speed>1.451029</speed><course>66.284729</course><hAcc>0.882083</hAcc><vAcc>0.707804</vAcc></extensions></trkpt>
      <trkpt lon="-3.322140" lat="54.568576"><ele>131.056381</ele><time>2021-08-12T12:52:46Z</time><extensions><speed>1.456500</speed><course>70.183884</course><hAcc>0.882093</hAcc><vAcc>0.707817</vAcc></extensions></trkpt>
      <trkpt lon="-3.322157" lat="54.568585"><ele>130.970718</ele><time>2021-08-12T12:52:47Z</time><extensions><speed>1.465116</speed><course>69.091454</course><hAcc>0.882109</hAcc><vAcc>0.707871</vAcc></extensions></trkpt>
      <trkpt lon="-3.322173" lat="54.568594"><ele>130.888733</ele><time>2021-08-12T12:52:48Z</time><extensions><speed>1.476042</speed><course>67.595528</course><hAcc>0.882131</hAcc><vAcc>0.707967</vAcc></extensions></trkpt>
      <trkpt lon="-3.322190" lat="54.568603"><ele>130.809631</ele><time>2021-08-12T12:52:49Z</time><extensions><speed>1.487780</speed><course>69.079941</course><hAcc>0.882157</hAcc><vAcc>0.708100</vAcc></extensions></trkpt>
      <trkpt lon="-3.322208" lat="54.568612"><ele>130.732040</ele><time>2021-08-12T12:52:50Z</time><extensions><speed>1.498733</speed><course>67.638985</course><hAcc>0.882188</hAcc><vAcc>0.708260</vAcc></extensions></trkpt>
      <trkpt lon="-3.322226" lat="54.568621"><ele>130.654587</ele><time>2021-08-12T12:52:51Z</time><extensions><speed>1.508171</speed><course>67.902077</course><hAcc>0.882221</hAcc><vAcc>0.708430</vAcc></extensions></trkpt>
      <trkpt lon="-3.322244" lat="54.568629"><ele>130.576218</ele><time>2021-08-12T12:52:52Z</time><extensions><speed>1.516220</speed><course>68.213737</course><hAcc>0.882255</hAcc><vAcc>0.708594</vAcc></extensions></trkpt>
      <trkpt lon="-3.322263" lat="54.568637"><ele>130.496185</ele><time>2021-08-12T12:52:53Z</time><extensions><speed>1.523061</speed><course>58.646133</course><hAcc>0.882289</hAcc><vAcc>0.708742</vAcc></extensions></trkpt>
      <trkpt lon="-3.322282" lat="54.568645"><ele>130.413757</ele><time>2021-08-12T12:52:54Z</time><extensions><speed>1.529596</speed><course>60.787758</course><hAcc>0.882320</hAcc><vAcc>0.708865</vAcc></extensions></trkpt>
      <trkpt lon="-3.322301" lat="54.568654"><ele>130.328232</ele><time>2021-08-12T12:52:55Z</time><extensions><speed>1.536093</speed><course>59.107254</course><hAcc>0.882349</hAcc><vAcc>0.708962</vAcc></extensions></trkpt>
      <trkpt lon="-3.322320" lat="54.568662"><ele>130.239243</ele><time>2021-08-12T12:52:56Z</time><extensions><speed>1.541617</speed><course>59.308796</course><hAcc>0.882374</hAcc><vAcc>0.709034</vAcc></extensions></trkpt>
      <trkpt lon="-3.322340" lat="54.568670"><ele>130.147217</ele><time>2021-08-12T12:52:57Z</time><extensions><speed>1.545634</speed><course>63.536522</course><hAcc>0.882395</hAcc><vAcc>0.709087</vAcc></extensions></trkpt>
      <trkpt lon="-3.322359" lat="54.568678"><ele>130.053604</ele><time>2021-08-12T12:52:58Z</time><extensions><speed>1.548322</speed><course>64.110619</course><hAcc>0.882413</hAcc><vAcc>0.709127</vAcc></extensions></trkpt>
      <trkpt lon="-3.322379" lat="54.568686"><ele>129.960281</ele><time>2021-08-12T12:52:59Z</time><extensions><speed>1.549478</speed><course>57.783936</course><hAcc>0.882427</hAcc><vAcc>0.709160</vAcc></extensions></trkpt>
      <trkpt lon="-3.322399" lat="54.568694"><ele>129.869263</ele><time>2021-08-12T12:53:00Z</time><extensions><speed>1.548650</speed><course>62.673740</course><hAcc>0.882438</hAcc><vAcc>0.709189</vAcc></extensions></trkpt>
      <trkpt lon="-3.322418" lat="54.568702"><ele>129.782639</ele><time>2021-08-12T12:53:01Z</time><extensions><speed>1.546202</speed><course>68.268181</course><hAcc>0.882447</hAcc><vAcc>0.709219</vAcc></extensions></trkpt>
      <trkpt lon="-3.322437" lat="54.568710"><ele>129.702820</ele><time>2021-08-12T12:53:02Z</time><extensions><speed>1.542936</speed><course>59.735432</course><hAcc>0.882453</hAcc><vAcc>0.709247</vAcc></extensions></trkpt>
      <trkpt lon="-3.322456" lat="54.568718"><ele>129.632309</ele><time>2021-08-12T12:53:03Z</time><extensions><speed>1.539456</speed><course>59.192490</course><hAcc>0.882454</hAcc><vAcc>0.709272</vAcc></extensions></trkpt>
      <trkpt lon="-3.322475" lat="54.568727"><ele>129.573151</ele><time>2021-08-12T12:53:04Z</time><extensions><speed>1.535390</speed><course>60.825825</course><hAcc>0.882451</hAcc><vAcc>0.709290</vAcc></extensions></trkpt>
      <trkpt lon="-3.322494" lat="54.568735"><ele>129.526657</ele><time>2021-08-12T12:53:05Z</time><extensions><speed>1.529939</speed><course>62.921200</course><hAcc>0.882441</hAcc><vAcc>0.709290</vAcc></extensions></trkpt>
      <trkpt lon="-3.322512" lat="54.568744"><ele>129.493179</ele><time>2021-08-12T12:53:06Z</time><extensions><speed>1.523263</speed><course>59.145714</course><hAcc>0.882422</hAcc><vAcc>0.709262</vAcc></extensions></trkpt>
      <trkpt lon="-3.322530" lat="54.568752"><ele>129.472351</ele><time>2021-08-12T12:53:07Z</time><extensions><speed>1.516041</speed><course>54.852036</course><hAcc>0.882392</hAcc><vAcc>0.709190</vAcc></extensions></trkpt>
      <trkpt lon="-3.322548" lat="54.568761"><ele>129.463470</ele><time>2021-08-12T12:53:08Z</time><extensions><speed>1.508780</speed><course>52.958679</course><hAcc>0.882349</hAcc><vAcc>0.709061</vAcc></extensions></trkpt>
      <trkpt lon="-3.322566" lat="54.568770"><ele>129.465469</ele><time>2021-08-12T12:53:09Z</time><extensions><speed>1.501867</speed><course>51.642593</course><hAcc>0.882290</hAcc><vAcc>0.708865</vAcc></extensions></trkpt>
      <trkpt lon="-3.322584" lat="54.568779"><ele>129.477036</ele><time>2021-08-12T12:53:10Z</time><extensions><speed>1.495551</speed><course>50.915668</course><hAcc>0.882212</hAcc><vAcc>0.708596</vAcc></extensions></trkpt>
      <trkpt lon="-3.322601" lat="54.568787"><ele>129.497116</ele><time>2021-08-12T12:53:11Z</time><extensions><speed>1.490062</speed><course>43.517220</course><hAcc>0.882112</hAcc><vAcc>0.708250</vAcc></extensions></trkpt>
      <trkpt lon="-3.322619" lat="54.568796"><ele>129.524918</ele><time>2021-08-12T12:53:12Z</time><extensions><speed>1.485479</speed><course>53.213661</course><hAcc>0.881988</hAcc><vAcc>0.707827</vAcc></extensions></trkpt>
      <trkpt lon="-3.322636" lat="54.568805"><ele>129.560013</ele><time>2021-08-12T12:53:13Z</time><extensions><speed>1.481136</speed><course>42.672325</course><hAcc>0.881837</hAcc><vAcc>0.707323</vAcc></extensions></trkpt>
      <trkpt lon="-3.322653" lat="54.568814"><ele>129.602432</ele><time>2021-08-12T12:53:14Z</time><extensions><speed>1.476371</speed><course>57.842590</course><hAcc>0.881656</hAcc><vAcc>0.706727</vAcc></extensions></trkpt>
      <trkpt lon="-3.322670" lat="54.568822"><ele>129.652222</ele><time>2021-08-12T12:53:15Z</time><extensions><speed>1.470941</speed><course>54.432369</course><hAcc>0.881444</hAcc><vAcc>0.706026</vAcc></extensions></trkpt>
      <trkpt lon="-3.322687" lat="54.568831"><ele>129.709167</ele><time>2021-08-12T12:53:16Z</time><extensions><speed>1.464464</speed><course>53.099045</course><hAcc>0.881201</hAcc><vAcc>0.705202</vAcc></extensions></trkpt>
      <trkpt lon="-3.322705" lat="54.568839"><ele>129.772614</ele><time>2021-08-12T12:53:17Z</time><extensions><speed>1.457161</speed><course>52.709480</course><hAcc>0.880929</hAcc><vAcc>0.704240</vAcc></extensions></trkpt>
      <trkpt lon="-3.322722" lat="54.568848"><ele>129.841553</ele><time>2021-08-12T12:53:18Z</time><extensions><speed>1.449532</speed><course>55.566643</course><hAcc>0.880630</hAcc><vAcc>0.703133</vAcc></extensions></trkpt>
      <trkpt lon="-3.322738" lat="54.568856"><ele>129.914780</ele><time>2021-08-12T12:53:19Z</time><extensions><speed>1.441615</speed><course>50.999676</course><hAcc>0.880309</hAcc><vAcc>0.701892</vAcc></extensions></trkpt>
      <trkpt lon="-3.322755" lat="54.568865"><ele>129.991196</ele><time>2021-08-12T12:53:20Z</time><extensions><speed>1.433274</speed><course>49.932701</course><hAcc>0.879970</hAcc><vAcc>0.700549</vAcc></extensions></trkpt>
      <trkpt lon="-3.322772" lat="54.568873"><ele>130.069977</ele><time>2021-08-12T12:53:21Z</time><extensions><speed>1.424342</speed><course>44.103298</course><hAcc>0.879619</hAcc><vAcc>0.699150</vAcc></extensions></trkpt>
      <trkpt lon="-3.322789" lat="54.568881"><ele>130.150864</ele><time>2021-08-12T12:53:22Z</time><extensions><speed>1.414715</speed><course>35.959499</course><hAcc>0.879261</hAcc><vAcc>0.697745</vAcc></extensions></trkpt>
      <trkpt lon="-3.322806" lat="54.568889"><ele>130.234451</ele><time>2021-08-12T12:53:23Z</time><extensions><speed>1.404511</speed><course>30.952709</course><hAcc>0.878902</hAcc><vAcc>0.696378</vAcc></extensions></trkpt>
      <trkpt lon="-3.322822" lat="54.568897"><ele>130.321915</ele><time>2021-08-12T12:53:24Z</time><extensions><speed>1.393971</speed><course>43.709347</course><hAcc>0.878543</hAcc><vAcc>0.695069</vAcc></extensions></trkpt>
      <trkpt lon="-3.322839" lat="54.568905"><ele>130.414169</ele><time>2021-08-12T12:53:25Z</time><extensions><speed>1.383697</speed><course>37.574459</course><hAcc>0.878186</hAcc><vAcc>0.693820</vAcc></extensions></trkpt>
      <trkpt lon="-3.322856" lat="54.568913"><ele>130.511261</ele><time>2021-08-12T12:53:26Z</time><extensions><speed>1.374933</speed><course>40.028488</course><hAcc>0.877828</hAcc><vAcc>0.692611</vAcc></extensions></trkpt>
      <trkpt lon="-3.322872" lat="54.568921"><ele>130.612503</ele><time>2021-08-12T12:53:27Z</time><extensions><speed>1.368318</speed><course>39.088745</course><hAcc>0.877469</hAcc><vAcc>0.691412</vAcc></extensions></trkpt>
      <trkpt lon="-3.322889" lat="54.568928"><ele>130.716705</ele><time>2021-08-12T12:53:28Z</time><extensions><speed>1.363112</speed><course>38.227211</course><hAcc>0.877106</hAcc><vAcc>0.690189</vAcc></extensions></trkpt>
      <trkpt lon="-3.322905" lat="54.568936"><ele>130.822281</ele><time>2021-08-12T12:53:29Z</time><extensions><speed>1.358545</speed><course>38.580025</course><hAcc>0.876737</hAcc><vAcc>0.688914</vAcc></extensions></trkpt>
      <trkpt lon="-3.322922" lat="54.568943"><ele>130.926865</ele><time>2021-08-12T12:53:30Z</time><extensions><speed>1.354484</speed><course>36.225418</course><hAcc>0.876366</hAcc><vAcc>0.687572</vAcc></extensions></trkpt>
      <trkpt lon="-3.322939" lat="54.568951"><ele>131.027573</ele><time>2021-08-12T12:53:31Z</time><extensions><speed>1.350910</speed><course>36.482189</course><hAcc>0.875996</hAcc><vAcc>0.686174</vAcc></extensions></trkpt>
      <trkpt lon="-3.322955" lat="54.568958"><ele>131.121613</ele><time>2021-08-12T12:53:32Z</time><extensions><speed>1.348013</speed><course>45.117634</course><hAcc>0.875635</hAcc><vAcc>0.684759</vAcc></extensions></trkpt>
      <trkpt lon="-3.322971" lat="54.568966"><ele>131.206512</ele><time>2021-08-12T12:53:33Z</time><extensions><speed>1.346165</speed><course>40.176819</course><hAcc>0.875295</hAcc><vAcc>0.683387</vAcc></extensions></trkpt>
      <trkpt lon="-3.322988" lat="54.568973"><ele>131.279800</ele><time>2021-08-12T12:53:34Z</time><extensions><speed>1.345518</speed><course>42.588684</course><hAcc>0.874986</hAcc><vAcc>0.682132</vAcc></extensions></trkpt>
      <trkpt lon="-3.323003" lat="54.568981"><ele>131.338882</ele><time>2021-08-12T12:53:35Z</time><extensions><speed>1.345944</speed><course>41.771687</course><hAcc>0.874718</hAcc><vAcc>0.681060</vAcc></extensions></trkpt>
      <trkpt lon="-3.323019" lat="54.568989"><ele>131.381180</ele><time>2021-08-12T12:53:36Z</time><extensions><speed>1.346725</speed><course>41.372017</course><hAcc>0.874499</hAcc><vAcc>0.680219</vAcc></extensions></trkpt>
      <trkpt lon="-3.323035" lat="54.568997"><ele>131.404861</ele><time>2021-08-12T12:53:37Z</time><extensions><speed>1.346961</speed><course>37.017429</course><hAcc>0.874328</hAcc><vAcc>0.679628</vAcc></extensions></trkpt>
      <trkpt lon="-3.323050" lat="54.569006"><ele>131.409683</ele><time>2021-08-12T12:53:38Z</time><extensions><speed>1.346639</speed><course>28.588495</course><hAcc>0.874199</hAcc><vAcc>0.679269</vAcc></extensions></trkpt>
      <trkpt lon="-3.323064" lat="54.569014"><ele>131.397034</ele><time>2021-08-12T12:53:39Z</time><extensions><speed>1.346480</speed><course>39.512306</course><hAcc>0.874099</hAcc><vAcc>0.679084</vAcc></extensions></trkpt>
      <trkpt lon="-3.323079" lat="54.569023"><ele>131.369034</ele><time>2021-08-12T12:53:40Z</time><extensions><speed>1.347143</speed><course>38.955353</course><hAcc>0.874011</hAcc><vAcc>0.678991</vAcc></extensions></trkpt>
      <trkpt lon="-3.323092" lat="54.569032"><ele>131.328064</ele><time>2021-08-12T12:53:41Z</time><extensions><speed>1.349107</speed><course>35.270641</course><hAcc>0.873915</hAcc><vAcc>0.678889</vAcc></extensions></trkpt>
      <trkpt lon="-3.323106" lat="54.569041"><ele>131.276306</ele><time>2021-08-12T12:53:42Z</time><extensions><speed>1.352812</speed><course>38.302330</course><hAcc>0.873791</hAcc><vAcc>0.678670</vAcc></extensions></trkpt>
      <trkpt lon="-3.323119" lat="54.569051"><ele>131.215118</ele><time>2021-08-12T12:53:43Z</time><extensions><speed>1.358561</speed><course>40.976086</course><hAcc>0.873622</hAcc><vAcc>0.678237</vAcc></extensions></trkpt>
      <trkpt lon="-3.323131" lat="54.569061"><ele>131.144653</ele><time>2021-08-12T12:53:44Z</time><extensions><speed>1.366019</speed><course>40.718147</course><hAcc>0.873398</hAcc><vAcc>0.677521</vAcc></extensions></trkpt>
      <trkpt lon="-3.323143" lat="54.569071"><ele>131.064087</ele><time>2021-08-12T12:53:45Z</time><extensions><speed>1.374441</speed><course>40.437557</course><hAcc>0.873118</hAcc><vAcc>0.676497</vAcc></extensions></trkpt>
      <trkpt lon="-3.323154" lat="54.569082"><ele>130.972137</ele><time>2021-08-12T12:53:46Z</time><extensions><speed>1.384017</speed><course>38.315979</course><hAcc>0.872790</hAcc><vAcc>0.675193</vAcc></extensions></trkpt>
      <trkpt lon="-3.323164" lat="54.569093"><ele>130.867889</ele><time>2021-08-12T12:53:47Z</time><extensions><speed>1.395403</speed><course>28.668550</course><hAcc>0.872432</hAcc><vAcc>0.673702</vAcc></extensions></trkpt>
      <trkpt lon="-3.323174" lat="54.569104"><ele>130.751221</ele><time>2021-08-12T12:53:48Z</time><extensions><speed>1.408670</speed><course>31.392698</course><hAcc>0.872072</hAcc><vAcc>0.672163</vAcc></extensions></trkpt>
      <trkpt lon="-3.323183" lat="54.569115"><ele>130.622269</ele><time>2021-08-12T12:53:49Z</time><extensions><speed>1.422764</speed><course>32.848076</course><hAcc>0.871740</hAcc><vAcc>0.670738</vAcc></extensions></trkpt>
      <trkpt lon="-3.323192" lat="54.569127"><ele>130.481079</ele><time>2021-08-12T12:53:50Z</time><extensions><speed>1.436203</speed><course>38.096359</course><hAcc>0.871464</hAcc><vAcc>0.669573</vAcc></extensions></trkpt>
      <trkpt lon="-3.323200" lat="54.569139"><ele>130.328049</ele><time>2021-08-12T12:53:51Z</time><extensions><speed>1.448141</speed><course>27.737675</course><hAcc>0.871264</hAcc><vAcc>0.668765</vAcc></extensions></trkpt>
      <trkpt lon="-3.323208" lat="54.569152"><ele>130.163986</ele><time>2021-08-12T12:53:52Z</time><extensions><speed>1.457405</speed><course>38.820049</course><hAcc>0.871146</hAcc><vAcc>0.668341</vAcc></extensions></trkpt>
      <trkpt lon="-3.323215" lat="54.569164"><ele>129.989731</ele><time>2021-08-12T12:53:53Z</time><extensions><speed>1.462702</speed><course>40.137299</course><hAcc>0.871107</hAcc><vAcc>0.668261</vAcc></extensions></trkpt>
      <trkpt lon="-3.323221" lat="54.569177"><ele>129.806000</ele><time>2021-08-12T12:53:54Z</time><extensions><speed>1.463964</speed><course>44.560421</course><hAcc>0.871132</hAcc><vAcc>0.668444</vAcc></extensions></trkpt>
      <trkpt lon="-3.323227" lat="54.569189"><ele>129.613998</ele><time>2021-08-12T12:53:55Z</time><extensions><speed>1.461711</speed><course>41.574787</course><hAcc>0.871207</hAcc><vAcc>0.668793</vAcc></extensions></trkpt>
      <trkpt lon="-3.323233" lat="54.569202"><ele>129.415405</ele><time>2021-08-12T12:53:56Z</time><extensions><speed>1.456495</speed><course>37.402897</course><hAcc>0.871317</hAcc><vAcc>0.669232</vAcc></extensions></trkpt>
      <trkpt lon="-3.323239" lat="54.569215"><ele>129.212173</ele><time>2021-08-12T12:53:57Z</time><extensions><speed>1.449009</speed><course>38.445354</course><hAcc>0.871455</hAcc><vAcc>0.669723</vAcc></extensions></trkpt>
      <trkpt lon="-3.323244" lat="54.569227"><ele>129.006226</ele><time>2021-08-12T12:53:58Z</time><extensions><speed>1.439335</speed><course>32.932274</course><hAcc>0.871617</hAcc><vAcc>0.670266</vAcc></extensions></trkpt>
      <trkpt lon="-3.323249" lat="54.569240"><ele>128.799042</ele><time>2021-08-12T12:53:59Z</time><extensions><speed>1.427087</speed><course>27.701353</course><hAcc>0.871806</hAcc><vAcc>0.670888</vAcc></extensions></trkpt>
      <trkpt lon="-3.323255" lat="54.569252"><ele>128.591736</ele><time>2021-08-12T12:54:00Z</time><extensions><speed>1.412431</speed><course>28.233585</course><hAcc>0.872029</hAcc><vAcc>0.671632</vAcc></extensions></trkpt>
      <trkpt lon="-3.323260" lat="54.569264"><ele>128.385330</ele><time>2021-08-12T12:54:01Z</time><extensions><speed>1.396032</speed><course>30.003765</course><hAcc>0.872292</hAcc><vAcc>0.672545</vAcc></extensions></trkpt>
      <trkpt lon="-3.323266" lat="54.569276"><ele>128.180374</ele><time>2021-08-12T12:54:02Z</time><extensions><speed>1.378554</speed><course>35.586266</course><hAcc>0.872597</hAcc><vAcc>0.673648</vAcc></extensions></trkpt>
      <trkpt lon="-3.323272" lat="54.569288"><ele>127.976830</ele><time>2021-08-12T12:54:03Z</time><extensions><speed>1.361316</speed><course>41.034397</course><hAcc>0.872943</hAcc><vAcc>0.674930</vAcc></extensions></trkpt>
      <trkpt lon="-3.323279" lat="54.569300"><ele>127.774406</ele><time>2021-08-12T12:54:04Z</time><extensions><speed>1.345612</speed><course>43.040592</course><hAcc>0.873323</hAcc><vAcc>0.676349</vAcc></extensions></trkpt>
      <trkpt lon="-3.323286" lat="54.569311"><ele>127.572792</ele><time>2021-08-12T12:54:05Z</time><extensions><speed>1.331797</speed><course>49.550934</course><hAcc>0.873729</hAcc><vAcc>0.677863</vAcc></extensions></trkpt>
      <trkpt lon="-3.323293" lat="54.569322"><ele>127.371452</ele><time>2021-08-12T12:54:06Z</time><extensions><speed>1.319710</speed><course>62.069283</course><hAcc>0.874151</hAcc><vAcc>0.679442</vAcc></extensions></trkpt>
      <trkpt lon="-3.323301" lat="54.569333"><ele>127.169373</ele><time>2021-08-12T12:54:07Z</time><extensions><speed>1.309008</speed><course>68.512573</course><hAcc>0.874584</hAcc><vAcc>0.681063</vAcc></extensions></trkpt>
      <trkpt lon="-3.323309" lat="54.569344"><ele>126.965179</ele><time>2021-08-12T12:54:08Z</time><extensions><speed>1.299041</speed><course>76.544746</course><hAcc>0.875019</hAcc><vAcc>0.682697</vAcc></extensions></trkpt>
      <trkpt lon="-3.323318" lat="54.569354"><ele>126.757500</ele><time>2021-08-12T12:54:09Z</time><extensions><speed>1.289440</speed><course>91.471558</course><hAcc>0.875448</hAcc><vAcc>0.684307</vAcc></extensions></trkpt>
      <trkpt lon="-3.323326" lat="54.569364"><ele>126.545563</ele><time>2021-08-12T12:54:10Z</time><extensions><speed>1.280354</speed><course>103.707001</course><hAcc>0.875863</hAcc><vAcc>0.685848</vAcc></extensions></trkpt>
      <trkpt lon="-3.323336" lat="54.569375"><ele>126.329414</ele><time>2021-08-12T12:54:11Z</time><extensions><speed>1.271878</speed><course>102.240677</course><hAcc>0.876257</hAcc><vAcc>0.687285</vAcc></extensions></trkpt>
      <trkpt lon="-3.323345" lat="54.569384"><ele>126.109566</ele><time>2021-08-12T12:54:12Z</time><extensions><speed>1.264165</speed><course>109.008522</course><hAcc>0.876624</hAcc><vAcc>0.688600</vAcc></extensions></trkpt>
      <trkpt lon="-3.323355" lat="54.569394"><ele>125.886635</ele><time>2021-08-12T12:54:13Z</time><extensions><speed>1.257291</speed><course>120.687057</course><hAcc>0.876963</hAcc><vAcc>0.689791</vAcc></extensions></trkpt>
      <trkpt lon="-3.323365" lat="54.569404"><ele>125.661377</ele><time>2021-08-12T12:54:14Z</time><extensions><speed>1.251525</speed><course>122.518364</course><hAcc>0.877273</hAcc><vAcc>0.690865</vAcc></extensions></trkpt>
      <trkpt lon="-3.323375" lat="54.569413"><ele>125.435112</ele><time>2021-08-12T12:54:15Z</time><extensions><speed>1.247119</speed><course>116.435341</course><hAcc>0.877555</hAcc><vAcc>0.691831</vAcc></extensions></trkpt>
      <trkpt lon="-3.323386" lat="54.569423"><ele>125.209702</ele><time>2021-08-12T12:54:16Z</time><extensions><speed>1.244056</speed><course>123.806564</course><hAcc>0.877811</hAcc><vAcc>0.692704</vAcc></extensions></trkpt>
      <trkpt lon="-3.323397" lat="54.569432"><ele>124.987305</ele><time>2021-08-12T12:54:17Z</time><extensions><speed>1.242728</speed><course>121.279266</course><hAcc>0.878043</hAcc><vAcc>0.693499</vAcc></extensions></trkpt>
      <trkpt lon="-3.323408" lat="54.569441"><ele>124.770172</ele><time>2021-08-12T12:54:18Z</time><extensions><speed>1.243445</speed><course>122.295830</course><hAcc>0.878255</hAcc><vAcc>0.694226</vAcc></extensions></trkpt>
      <trkpt lon="-3.323420" lat="54.569450"><ele>124.560272</ele><time>2021-08-12T12:54:19Z</time><extensions><speed>1.246186</speed><course>116.485687</course><hAcc>0.878449</hAcc><vAcc>0.694897</vAcc></extensions></trkpt>
      <trkpt lon="-3.323431" lat="54.569459"><ele>124.359428</ele><time>2021-08-12T12:54:20Z</time><extensions><speed>1.250986</speed><course>120.837761</course><hAcc>0.878627</hAcc><vAcc>0.695524</vAcc></extensions></trkpt>
      <trkpt lon="-3.323443" lat="54.569468"><ele>124.169456</ele><time>2021-08-12T12:54:21Z</time><extensions><speed>1.257733</speed><course>121.691162</course><hAcc>0.878791</hAcc><vAcc>0.696115</vAcc></extensions></trkpt>
      <trkpt lon="-3.323456" lat="54.569477"><ele>123.991684</ele><time>2021-08-12T12:54:22Z</time><extensions><speed>1.266444</speed><course>120.429344</course><hAcc>0.878943</hAcc><vAcc>0.696673</vAcc></extensions></trkpt>
      <trkpt lon="-3.323468" lat="54.569485"><ele>123.826469</ele><time>2021-08-12T12:54:23Z</time><extensions><speed>1.277028</speed><course>127.922836</course><hAcc>0.879083</hAcc><vAcc>0.697195</vAcc></extensions></trkpt>
      <trkpt lon="-3.323481" lat="54.569494"><ele>123.673340</ele><time>2021-08-12T12:54:24Z</time><extensions><speed>1.289641</speed><course>122.773224</course><hAcc>0.879212</hAcc><vAcc>0.697673</vAcc></extensions></trkpt>
      <trkpt lon="-3.323495" lat="54.569503"><ele>123.531693</ele><time>2021-08-12T12:54:25Z</time><extensions><speed>1.304543</speed><course>127.410233</course><hAcc>0.879329</hAcc><vAcc>0.698098</vAcc></extensions></trkpt>
      <trkpt lon="-3.323509" lat="54.569511"><ele>123.401344</ele><time>2021-08-12T12:54:26Z</time><extensions><speed>1.321645</speed><course>126.293243</course><hAcc>0.879436</hAcc><vAcc>0.698469</vAcc></extensions></trkpt>
      <trkpt lon="-3.323523" lat="54.569520"><ele>123.282585</ele><time>2021-08-12T12:54:27Z</time><extensions><speed>1.340242</speed><course>113.773628</course><hAcc>0.879533</hAcc><vAcc>0.698795</vAcc></extensions></trkpt>
      <trkpt lon="-3.323538" lat="54.569528"><ele>123.176071</ele><time>2021-08-12T12:54:28Z</time><extensions><speed>1.358942</speed><course>111.597641</course><hAcc>0.879621</hAcc><vAcc>0.699086</vAcc></extensions></trkpt>
      <trkpt lon="-3.323552" lat="54.569537"><ele>123.082222</ele><time>2021-08-12T12:54:29Z</time><extensions><speed>1.376435</speed><course>118.242065</course><hAcc>0.879699</hAcc><vAcc>0.699351</vAcc></extensions></trkpt>
      <trkpt lon="-3.323568" lat="54.569546"><ele>123.000923</ele><time>2021-08-12T12:54:30Z</time><extensions><speed>1.391348</speed><course>121.318916</course><hAcc>0.879769</hAcc><vAcc>0.699597</vAcc></extensions></trkpt>
      <trkpt lon="-3.323583" lat="54.569555"><ele>122.931641</ele><time>2021-08-12T12:54:31Z</time><extensions><speed>1.402466</speed><course>126.571838</course><hAcc>0.879831</hAcc><vAcc>0.699825</vAcc></extensions></trkpt>
      <trkpt lon="-3.323598" lat="54.569564"><ele>122.873093</ele><time>2021-08-12T12:54:32Z</time><extensions><speed>1.409239</speed><course>116.053932</course><hAcc>0.879885</hAcc><vAcc>0.700032</vAcc></extensions></trkpt>
      <trkpt lon="-3.323613" lat="54.569573"><ele>122.823074</ele><time>2021-08-12T12:54:33Z</time><extensions><speed>1.412157</speed><course>122.553452</course><hAcc>0.879931</hAcc><vAcc>0.700216</vAcc></extensions></trkpt>
      <trkpt lon="-3.323628" lat="54.569583"><ele>122.778717</ele><time>2021-08-12T12:54:34Z</time><extensions><speed>1.412350</speed><course>115.362396</course><hAcc>0.879970</hAcc><vAcc>0.700370</vAcc></extensions></trkpt>
      <trkpt lon="-3.323642" lat="54.569592"><ele>122.737137</ele><time>2021-08-12T12:54:35Z</time><extensions><speed>1.410589</speed><course>120.016403</course><hAcc>0.880002</hAcc><vAcc>0.700492</vAcc></extensions></trkpt>
      <trkpt lon="-3.323656" lat="54.569602"><ele>122.696205</ele><time>2021-08-12T12:54:36Z</time><extensions><speed>1.407564</speed><course>131.521149</course><hAcc>0.880027</hAcc><vAcc>0.700580</vAcc></extensions></trkpt>
      <trkpt lon="-3.323670" lat="54.569612"><ele>122.655022</ele><time>2021-08-12T12:54:37Z</time><extensions><speed>1.404457</speed><course>124.976143</course><hAcc>0.880048</hAcc><vAcc>0.700637</vAcc></extensions></trkpt>
      <trkpt lon="-3.323683" lat="54.569622"><ele>122.613579</ele><time>2021-08-12T12:54:38Z</time><extensions><speed>1.402379</speed><course>123.546791</course><hAcc>0.880066</hAcc><vAcc>0.700666</vAcc></extensions></trkpt>
      <trkpt lon="-3.323696" lat="54.569632"><ele>122.572067</ele><time>2021-08-12T12:54:39Z</time><extensions><speed>1.401676</speed><course>116.699699</course><hAcc>0.880083</hAcc><vAcc>0.700683</vAcc></extensions></trkpt>
      <trkpt lon="-3.323709" lat="54.569642"><ele>122.530464</ele><time>2021-08-12T12:54:40Z</time><extensions><speed>1.402813</speed><course>112.924561</course><hAcc>0.880103</hAcc><vAcc>0.700703</vAcc></extensions></trkpt>
      <trkpt lon="-3.323722" lat="54.569652"><ele>122.488586</ele><time>2021-08-12T12:54:41Z</time><extensions><speed>1.406049</speed><course>117.858780</course><hAcc>0.880127</hAcc><vAcc>0.700743</vAcc></extensions></trkpt>
      <trkpt lon="-3.323735" lat="54.569662"><ele>122.446289</ele><time>2021-08-12T12:54:42Z</time><extensions><speed>1.410889</speed><course>111.630035</course><hAcc>0.880158</hAcc><vAcc>0.700820</vAcc></extensions></trkpt>
      <trkpt lon="-3.323747" lat="54.569672"><ele>122.403572</ele><time>2021-08-12T12:54:43Z</time><extensions><speed>1.416875</speed><course>115.453979</course><hAcc>0.880197</hAcc><vAcc>0.700951</vAcc></extensions></trkpt>
      <trkpt lon="-3.323761" lat="54.569683"><ele>122.360626</ele><time>2021-08-12T12:54:44Z</time><extensions><speed>1.423806</speed><course>108.625862</course><hAcc>0.880247</hAcc><vAcc>0.701143</vAcc></extensions></trkpt>
      <trkpt lon="-3.323774" lat="54.569693"><ele>122.317635</ele><time>2021-08-12T12:54:45Z</time><extensions><speed>1.431001</speed><course>116.435417</course><hAcc>0.880306</hAcc><vAcc>0.701393</vAcc></extensions></trkpt>
      <trkpt lon="-3.323787" lat="54.569703"><ele>122.274773</ele><time>2021-08-12T12:54:46Z</time><extensions><speed>1.437685</speed><course>112.323517</course><hAcc>0.880374</hAcc><vAcc>0.701687</vAcc></extensions></trkpt>
      <trkpt lon="-3.323801" lat="54.569713"><ele>122.232422</ele><time>2021-08-12T12:54:47Z</time><extensions><speed>1.443529</speed><course>117.491661</course><hAcc>0.880449</hAcc><vAcc>0.702002</vAcc></extensions></trkpt>
      <trkpt lon="-3.323815" lat="54.569724"><ele>122.191330</ele><time>2021-08-12T12:54:48Z</time><extensions><speed>1.448288</speed><course>120.293846</course><hAcc>0.880530</hAcc><vAcc>0.702321</vAcc></extensions></trkpt>
      <trkpt lon="-3.323829" lat="54.569734"><ele>122.152855</ele><time>2021-08-12T12:54:49Z</time><extensions><speed>1.451787</speed><course>115.591873</course><hAcc>0.880615</hAcc><vAcc>0.702638</vAcc></extensions></trkpt>
      <trkpt lon="-3.323843" lat="54.569744"><ele>122.119080</ele><time>2021-08-12T12:54:50Z</time><extensions><speed>1.453795</speed><course>116.468712</course><hAcc>0.880703</hAcc><vAcc>0.702951</vAcc></extensions></trkpt>
      <trkpt lon="-3.323857" lat="54.569754"><ele>122.092308</ele><time>2021-08-12T12:54:51Z</time><extensions><speed>1.454978</speed><course>116.627220</course><hAcc>0.880793</hAcc><vAcc>0.703265</vAcc></extensions></trkpt>
      <trkpt lon="-3.323871" lat="54.569764"><ele>122.074760</ele><time>2021-08-12T12:54:52Z</time><extensions><speed>1.456354</speed><course>115.487846</course><hAcc>0.880883</hAcc><vAcc>0.703583</vAcc></extensions></trkpt>
      <trkpt lon="-3.323886" lat="54.569774"><ele>122.068604</ele><time>2021-08-12T12:54:53Z</time><extensions><speed>1.458338</speed><course>110.303284</course><hAcc>0.880973</hAcc><vAcc>0.703905</vAcc></extensions></trkpt>
      <trkpt lon="-3.323900" lat="54.569784"><ele>122.075790</ele><time>2021-08-12T12:54:54Z</time><extensions><speed>1.460776</speed><course>107.900200</course><hAcc>0.881062</hAcc><vAcc>0.704231</vAcc></extensions></trkpt>
      <trkpt lon="-3.323915" lat="54.569794"><ele>122.097778</ele><time>2021-08-12T12:54:55Z</time><extensions><speed>1.463298</speed><course>104.901772</course><hAcc>0.881150</hAcc><vAcc>0.704557</vAcc></extensions></trkpt>
      <trkpt lon="-3.323930" lat="54.569804"><ele>122.135612</ele><time>2021-08-12T12:54:56Z</time><extensions><speed>1.465929</speed><course>102.625549</course><hAcc>0.881236</hAcc><vAcc>0.704876</vAcc></extensions></trkpt>
      <trkpt lon="-3.323945" lat="54.569814"><ele>122.189941</ele><time>2021-08-12T12:54:57Z</time><extensions><speed>1.468465</speed><course>101.615082</course><hAcc>0.881319</hAcc><vAcc>0.705183</vAcc></extensions></trkpt>
      <trkpt lon="-3.323961" lat="54.569824"><ele>122.260956</ele><time>2021-08-12T12:54:58Z</time><extensions><speed>1.470156</speed><course>104.820312</course><hAcc>0.881397</hAcc><vAcc>0.705479</vAcc></extensions></trkpt>
      <trkpt lon="-3.323976" lat="54.569833"><ele>122.348389</ele><time>2021-08-12T12:54:59Z</time><extensions><speed>1.470315</speed><course>97.837166</course><hAcc>0.881468</hAcc><vAcc>0.705760</vAcc></extensions></trkpt>
      <trkpt lon="-3.323992" lat="54.569843"><ele>122.451813</ele><time>2021-08-12T12:55:00Z</time><extensions><speed>1.469171</speed><course>99.518051</course><hAcc>0.881531</hAcc><vAcc>0.706019</vAcc></extensions></trkpt>
      <trkpt lon="-3.324007" lat="54.569853"><ele>122.570862</ele><time>2021-08-12T12:55:01Z</time><extensions><speed>1.467281</speed><course>105.468117</course><hAcc>0.881582</hAcc><vAcc>0.706246</vAcc></extensions></trkpt>
      <trkpt lon="-3.324023" lat="54.569862"><ele>122.705177</ele><time>2021-08-12T12:55:02Z</time><extensions><speed>1.464682</speed><course>105.021729</course><hAcc>0.881620</hAcc><vAcc>0.706426</vAcc></extensions></trkpt>
      <trkpt lon="-3.324038" lat="54.569872"><ele>122.854370</ele><time>2021-08-12T12:55:03Z</time><extensions><speed>1.461199</speed><course>105.854553</course><hAcc>0.881641</hAcc><vAcc>0.706547</vAcc></extensions></trkpt>
      <trkpt lon="-3.324053" lat="54.569881"><ele>123.017906</ele><time>2021-08-12T12:55:04Z</time><extensions><speed>1.456833</speed><course>116.038353</course><hAcc>0.881643</hAcc><vAcc>0.706596</vAcc></extensions></trkpt>
      <trkpt lon="-3.324069" lat="54.569891"><ele>123.194794</ele><time>2021-08-12T12:55:05Z</time><extensions><speed>1.452144</speed><course>116.622620</course><hAcc>0.881625</hAcc><vAcc>0.706559</vAcc></extensions></trkpt>
      <trkpt lon="-3.324084" lat="54.569901"><ele>123.383415</ele><time>2021-08-12T12:55:06Z</time><extensions><speed>1.448159</speed><course>116.023415</course><hAcc>0.881583</hAcc><vAcc>0.706430</vAcc></extensions></trkpt>
      <trkpt lon="-3.324098" lat="54.569910"><ele>123.581657</ele><time>2021-08-12T12:55:07Z</time><extensions><speed>1.445431</speed><course>111.053482</course><hAcc>0.881518</hAcc><vAcc>0.706200</vAcc></extensions></trkpt>
      <trkpt lon="-3.324113" lat="54.569920"><ele>123.787132</ele><time>2021-08-12T12:55:08Z</time><extensions><speed>1.444212</speed><course>109.683617</course><hAcc>0.881428</hAcc><vAcc>0.705866</vAcc></extensions></trkpt>
      <trkpt lon="-3.324128" lat="54.569930"><ele>123.997475</ele><time>2021-08-12T12:55:09Z</time><extensions><speed>1.444902</speed><course>107.838440</course><hAcc>0.881313</hAcc><vAcc>0.705429</vAcc></extensions></trkpt>
      <trkpt lon="-3.324142" lat="54.569940"><ele>124.210472</ele><time>2021-08-12T12:55:10Z</time><extensions><speed>1.447366</speed><course>110.196930</course><hAcc>0.881172</hAcc><vAcc>0.704893</vAcc></extensions></trkpt>
      <trkpt lon="-3.324156" lat="54.569950"><ele>124.424202</ele><time>2021-08-12T12:55:11Z</time><extensions><speed>1.450679</speed><course>111.548782</course><hAcc>0.881004</hAcc><vAcc>0.704262</vAcc></extensions></trkpt>
      <trkpt lon="-3.324170" lat="54.569960"><ele>124.637497</ele><time>2021-08-12T12:55:12Z</time><extensions><speed>1.453783</speed><course>110.420074</course><hAcc>0.880809</hAcc><vAcc>0.703540</vAcc></extensions></trkpt>
      <trkpt lon="-3.324184" lat="54.569971"><ele>124.850067</ele><time>2021-08-12T12:55:13Z</time><extensions><speed>1.456086</speed><course>99.619576</course><hAcc>0.880585</hAcc><vAcc>0.702727</vAcc></extensions></trkpt>
      <trkpt lon="-3.324198" lat="54.569981"><ele>125.061844</ele><time>2021-08-12T12:55:14Z</time><extensions><speed>1.457421</speed><course>107.102882</course><hAcc>0.880326</hAcc><vAcc>0.701821</vAcc></extensions></trkpt>
      <trkpt lon="-3.324211" lat="54.569991"><ele>125.273003</ele><time>2021-08-12T12:55:15Z</time><extensions><speed>1.456997</speed><course>98.831825</course><hAcc>0.880030</hAcc><vAcc>0.700812</vAcc></extensions></trkpt>
      <trkpt lon="-3.324224" lat="54.570002"><ele>125.483963</ele><time>2021-08-12T12:55:16Z</time><extensions><speed>1.453319</speed><course>99.864403</course><hAcc>0.879688</hAcc><vAcc>0.699681</vAcc></extensions></trkpt>
      <trkpt lon="-3.324238" lat="54.570012"><ele>125.694794</ele><time>2021-08-12T12:55:17Z</time><extensions><speed>1.445718</speed><course>99.165215</course><hAcc>0.879295</hAcc><vAcc>0.698396</vAcc></extensions></trkpt>
      <trkpt lon="-3.324251" lat="54.570023"><ele>125.904831</ele><time>2021-08-12T12:55:18Z</time><extensions><speed>1.434051</speed><course>106.876038</course><hAcc>0.878843</hAcc><vAcc>0.696912</vAcc></extensions></trkpt>
      <trkpt lon="-3.324264" lat="54.570033"><ele>126.112923</ele><time>2021-08-12T12:55:19Z</time><extensions><speed>1.418001</speed><course>100.224144</course><hAcc>0.878325</hAcc><vAcc>0.695178</vAcc></extensions></trkpt>
      <trkpt lon="-3.324277" lat="54.570044"><ele>126.317696</ele><time>2021-08-12T12:55:20Z</time><extensions><speed>1.397686</speed><course>97.870438</course><hAcc>0.877738</hAcc><vAcc>0.693148</vAcc></extensions></trkpt>
      <trkpt lon="-3.324289" lat="54.570054"><ele>126.517624</ele><time>2021-08-12T12:55:21Z</time><extensions><speed>1.373785</speed><course>109.047302</course><hAcc>0.877083</hAcc><vAcc>0.690774</vAcc></extensions></trkpt>
      <trkpt lon="-3.324301" lat="54.570064"><ele>126.711311</ele><time>2021-08-12T12:55:22Z</time><extensions><speed>1.347101</speed><course>111.386711</course><hAcc>0.876366</hAcc><vAcc>0.688026</vAcc></extensions></trkpt>
      <trkpt lon="-3.324314" lat="54.570073"><ele>126.897697</ele><time>2021-08-12T12:55:23Z</time><extensions><speed>1.318312</speed><course>110.131767</course><hAcc>0.875600</hAcc><vAcc>0.684888</vAcc></extensions></trkpt>
      <trkpt lon="-3.324325" lat="54.570083"><ele>127.076401</ele><time>2021-08-12T12:55:24Z</time><extensions><speed>1.287646</speed><course>109.748413</course><hAcc>0.874803</hAcc><vAcc>0.681364</vAcc></extensions></trkpt>
      <trkpt lon="-3.324337" lat="54.570092"><ele>127.247536</ele><time>2021-08-12T12:55:25Z</time><extensions><speed>1.254864</speed><course>116.453705</course><hAcc>0.874003</hAcc><vAcc>0.677473</vAcc></extensions></trkpt>
      <trkpt lon="-3.324349" lat="54.570101"><ele>127.411247</ele><time>2021-08-12T12:55:26Z</time><extensions><speed>1.220336</speed><course>111.019348</course><hAcc>0.873225</hAcc><vAcc>0.673257</vAcc></extensions></trkpt>
      <trkpt lon="-3.324360" lat="54.570109"><ele>127.567375</ele><time>2021-08-12T12:55:27Z</time><extensions><speed>1.185155</speed><course>106.996025</course><hAcc>0.872499</hAcc><vAcc>0.668781</vAcc></extensions></trkpt>
      <trkpt lon="-3.324371" lat="54.570118"><ele>127.715500</ele><time>2021-08-12T12:55:28Z</time><extensions><speed>1.150431</speed><course>104.594215</course><hAcc>0.871843</hAcc><vAcc>0.664134</vAcc></extensions></trkpt>
      <trkpt lon="-3.324381" lat="54.570126"><ele>127.854866</ele><time>2021-08-12T12:55:29Z</time><extensions><speed>1.117300</speed><course>101.351479</course><hAcc>0.871261</hAcc><vAcc>0.659426</vAcc></extensions></trkpt>
      <trkpt lon="-3.324391" lat="54.570134"><ele>127.984428</ele><time>2021-08-12T12:55:30Z</time><extensions><speed>1.087221</speed><course>105.952332</course><hAcc>0.870732</hAcc><vAcc>0.654766</vAcc></extensions></trkpt>
      <trkpt lon="-3.324401" lat="54.570141"><ele>128.102905</ele><time>2021-08-12T12:55:31Z</time><extensions><speed>1.062037</speed><course>113.138412</course><hAcc>0.870204</hAcc><vAcc>0.650235</vAcc></extensions></trkpt>
      <trkpt lon="-3.324411" lat="54.570149"><ele>128.208939</ele><time>2021-08-12T12:55:32Z</time><extensions><speed>1.043499</speed><course>112.944946</course><hAcc>0.869608</hAcc><vAcc>0.645870</vAcc></extensions></trkpt>
      <trkpt lon="-3.324421" lat="54.570157"><ele>128.301346</ele><time>2021-08-12T12:55:33Z</time><extensions><speed>1.033295</speed><course>108.292221</course><hAcc>0.868884</hAcc><vAcc>0.641675</vAcc></extensions></trkpt>
      <trkpt lon="-3.324430" lat="54.570164"><ele>128.379364</ele><time>2021-08-12T12:55:34Z</time><extensions><speed>1.032821</speed><course>108.436562</course><hAcc>0.867998</hAcc><vAcc>0.637614</vAcc></extensions></trkpt>
      <trkpt lon="-3.324438" lat="54.570172"><ele>128.443024</ele><time>2021-08-12T12:55:35Z</time><extensions><speed>1.042129</speed><course>102.445824</course><hAcc>0.866955</hAcc><vAcc>0.633620</vAcc></extensions></trkpt>
      <trkpt lon="-3.324447" lat="54.570180"><ele>128.492706</ele><time>2021-08-12T12:55:36Z</time><extensions><speed>1.059833</speed><course>99.628555</course><hAcc>0.865789</hAcc><vAcc>0.629613</vAcc></extensions></trkpt>
      <trkpt lon="-3.324456" lat="54.570188"><ele>128.528717</ele><time>2021-08-12T12:55:37Z</time><extensions><speed>1.084272</speed><course>103.656601</course><hAcc>0.864535</hAcc><vAcc>0.625540</vAcc></extensions></trkpt>
      <trkpt lon="-3.324464" lat="54.570197"><ele>128.551102</ele><time>2021-08-12T12:55:38Z</time><extensions><speed>1.114135</speed><course>97.309608</course><hAcc>0.863217</hAcc><vAcc>0.621401</vAcc></extensions></trkpt>
      <trkpt lon="-3.324472" lat="54.570206"><ele>128.559830</ele><time>2021-08-12T12:55:39Z</time><extensions><speed>1.149178</speed><course>95.308922</course><hAcc>0.861846</hAcc><vAcc>0.617251</vAcc></extensions></trkpt>
      <trkpt lon="-3.324480" lat="54.570215"><ele>128.555130</ele><time>2021-08-12T12:55:40Z</time><extensions><speed>1.188945</speed><course>105.665154</course><hAcc>0.860433</hAcc><vAcc>0.613173</vAcc></extensions></trkpt>
      <trkpt lon="-3.324488" lat="54.570225"><ele>128.537872</ele><time>2021-08-12T12:55:41Z</time><extensions><speed>1.231653</speed><course>120.238884</course><hAcc>0.859012</hAcc><vAcc>0.609266</vAcc></extensions></trkpt>
      <trkpt lon="-3.324496" lat="54.570236"><ele>128.509705</ele><time>2021-08-12T12:55:42Z</time><extensions><speed>1.275348</speed><course>108.474937</course><hAcc>0.857660</hAcc><vAcc>0.605621</vAcc></extensions></trkpt>
      <trkpt lon="-3.324504" lat="54.570246"><ele>128.472488</ele><time>2021-08-12T12:55:43Z</time><extensions><speed>1.317732</speed><course>104.059807</course><hAcc>0.856460</hAcc><vAcc>0.602324</vAcc></extensions></trkpt>
      <trkpt lon="-3.324512" lat="54.570257"><ele>128.428070</ele><time>2021-08-12T12:55:44Z</time><extensions><speed>1.356046</speed><course>102.572708</course><hAcc>0.855468</hAcc><vAcc>0.599457</vAcc></extensions></trkpt>
      <trkpt lon="-3.324519" lat="54.570269"><ele>128.378357</ele><time>2021-08-12T12:55:45Z</time><extensions><speed>1.388378</speed><course>107.161850</course><hAcc>0.854700</hAcc><vAcc>0.597093</vAcc></extensions></trkpt>
      <trkpt lon="-3.324527" lat="54.570281"><ele>128.325531</ele><time>2021-08-12T12:55:46Z</time><extensions><speed>1.414250</speed><course>105.046165</course><hAcc>0.854137</hAcc><vAcc>0.595282</vAcc></extensions></trkpt>
      <trkpt lon="-3.324535" lat="54.570293"><ele>128.271515</ele><time>2021-08-12T12:55:47Z</time><extensions><speed>1.433354</speed><course>107.406158</course><hAcc>0.853735</hAcc><vAcc>0.594052</vAcc></extensions></trkpt>
      <trkpt lon="-3.324543" lat="54.570305"><ele>128.217300</ele><time>2021-08-12T12:55:48Z</time><extensions><speed>1.444939</speed><course>115.429123</course><hAcc>0.853443</hAcc><vAcc>0.593415</vAcc></extensions></trkpt>
      <trkpt lon="-3.324550" lat="54.570317"><ele>128.162949</ele><time>2021-08-12T12:55:49Z</time><extensions><speed>1.448614</speed><course>116.147835</course><hAcc>0.853231</hAcc><vAcc>0.593372</vAcc></extensions></trkpt>
      <trkpt lon="-3.324558" lat="54.570329"><ele>128.108597</ele><time>2021-08-12T12:55:50Z</time><extensions><speed>1.444751</speed><course>117.699570</course><hAcc>0.853090</hAcc><vAcc>0.593924</vAcc></extensions></trkpt>
      <trkpt lon="-3.324565" lat="54.570341"><ele>128.055237</ele><time>2021-08-12T12:55:51Z</time><extensions><speed>1.433899</speed><course>118.218575</course><hAcc>0.853040</hAcc><vAcc>0.595071</vAcc></extensions></trkpt>
      <trkpt lon="-3.324573" lat="54.570353"><ele>128.004944</ele><time>2021-08-12T12:55:52Z</time><extensions><speed>1.416680</speed><course>118.864105</course><hAcc>0.853111</hAcc><vAcc>0.596812</vAcc></extensions></trkpt>
      <trkpt lon="-3.324580" lat="54.570365"><ele>127.959999</ele><time>2021-08-12T12:55:53Z</time><extensions><speed>1.393844</speed><course>117.180046</course><hAcc>0.853338</hAcc><vAcc>0.599136</vAcc></extensions></trkpt>
      <trkpt lon="-3.324588" lat="54.570377"><ele>127.922447</ele><time>2021-08-12T12:55:54Z</time><extensions><speed>1.366868</speed><course>115.856689</course><hAcc>0.853736</hAcc><vAcc>0.601987</vAcc></extensions></trkpt>
      <trkpt lon="-3.324595" lat="54.570388"><ele>127.893906</ele><time>2021-08-12T12:55:55Z</time><extensions><speed>1.337686</speed><course>112.617844</course><hAcc>0.854296</hAcc><vAcc>0.605245</vAcc></extensions></trkpt>
      <trkpt lon="-3.324603" lat="54.570399"><ele>127.875443</ele><time>2021-08-12T12:55:56Z</time><extensions><speed>1.308090</speed><course>120.157761</course><hAcc>0.854984</hAcc><vAcc>0.608738</vAcc></extensions></trkpt>
      <trkpt lon="-3.324611" lat="54.570410"><ele>127.867905</ele><time>2021-08-12T12:55:57Z</time><extensions><speed>1.279592</speed><course>116.743965</course><hAcc>0.855752</hAcc><vAcc>0.612287</vAcc></extensions></trkpt>
      <trkpt lon="-3.324619" lat="54.570420"><ele>127.871918</ele><time>2021-08-12T12:55:58Z</time><extensions><speed>1.252399</speed><course>126.528450</course><hAcc>0.856561</hAcc><vAcc>0.615763</vAcc></extensions></trkpt>
      <trkpt lon="-3.324627" lat="54.570430"><ele>127.887764</ele><time>2021-08-12T12:55:59Z</time><extensions><speed>1.226162</speed><course>122.809067</course><hAcc>0.857387</hAcc><vAcc>0.619125</vAcc></extensions></trkpt>
      <trkpt lon="-3.324635" lat="54.570440"><ele>127.915695</ele><time>2021-08-12T12:56:00Z</time><extensions><speed>1.200820</speed><course>118.437454</course><hAcc>0.858226</hAcc><vAcc>0.622394</vAcc></extensions></trkpt>
      <trkpt lon="-3.324644" lat="54.570449"><ele>127.956490</ele><time>2021-08-12T12:56:01Z</time><extensions><speed>1.177247</speed><course>113.862648</course><hAcc>0.859071</hAcc><vAcc>0.625593</vAcc></extensions></trkpt>
      <trkpt lon="-3.324653" lat="54.570458"><ele>128.011063</ele><time>2021-08-12T12:56:02Z</time><extensions><speed>1.156687</speed><course>110.315605</course><hAcc>0.859910</hAcc><vAcc>0.628706</vAcc></extensions></trkpt>
      <trkpt lon="-3.324663" lat="54.570467"><ele>128.079575</ele><time>2021-08-12T12:56:03Z</time><extensions><speed>1.139556</speed><course>111.526596</course><hAcc>0.860722</hAcc><vAcc>0.631669</vAcc></extensions></trkpt>
      <trkpt lon="-3.324672" lat="54.570476"><ele>128.161041</ele><time>2021-08-12T12:56:04Z</time><extensions><speed>1.125321</speed><course>111.825790</course><hAcc>0.861482</hAcc><vAcc>0.634413</vAcc></extensions></trkpt>
      <trkpt lon="-3.324682" lat="54.570484"><ele>128.253571</ele><time>2021-08-12T12:56:05Z</time><extensions><speed>1.112815</speed><course>110.069481</course><hAcc>0.862179</hAcc><vAcc>0.636890</vAcc></extensions></trkpt>
      <trkpt lon="-3.324692" lat="54.570492"><ele>128.354553</ele><time>2021-08-12T12:56:06Z</time><extensions><speed>1.101334</speed><course>114.632622</course><hAcc>0.862806</hAcc><vAcc>0.639084</vAcc></extensions></trkpt>
      <trkpt lon="-3.324703" lat="54.570500"><ele>128.460999</ele><time>2021-08-12T12:56:07Z</time><extensions><speed>1.090545</speed><course>103.253258</course><hAcc>0.863368</hAcc><vAcc>0.640993</vAcc></extensions></trkpt>
      <trkpt lon="-3.324713" lat="54.570507"><ele>128.569916</ele><time>2021-08-12T12:56:08Z</time><extensions><speed>1.079764</speed><course>106.301743</course><hAcc>0.863878</hAcc><vAcc>0.642624</vAcc></extensions></trkpt>
      <trkpt lon="-3.324724" lat="54.570515"><ele>128.678345</ele><time>2021-08-12T12:56:09Z</time><extensions><speed>1.067123</speed><course>102.376541</course><hAcc>0.864353</hAcc><vAcc>0.643987</vAcc></extensions></trkpt>
      <trkpt lon="-3.324735" lat="54.570522"><ele>128.783524</ele><time>2021-08-12T12:56:10Z</time><extensions><speed>1.050487</speed><course>106.795837</course><hAcc>0.864822</hAcc><vAcc>0.645096</vAcc></extensions></trkpt>
      <trkpt lon="-3.324745" lat="54.570529"><ele>128.883286</ele><time>2021-08-12T12:56:12Z</time><extensions><speed>1.028272</speed><course>105.416672</course><hAcc>0.865300</hAcc><vAcc>0.645947</vAcc></extensions></trkpt>
      <trkpt lon="-3.324756" lat="54.570536"><ele>128.975357</ele><time>2021-08-12T12:56:13Z</time><extensions><speed>0.999784</speed><course>115.994911</course><hAcc>0.865824</hAcc><vAcc>0.646532</vAcc></extensions></trkpt>
      <trkpt lon="-3.324766" lat="54.570542"><ele>129.057693</ele><time>2021-08-12T12:56:14Z</time><extensions><speed>0.965879</speed><course>121.956070</course><hAcc>0.866449</hAcc><vAcc>0.646832</vAcc></extensions></trkpt>
      <trkpt lon="-3.324775" lat="54.570549"><ele>129.128113</ele><time>2021-08-12T12:56:15Z</time><extensions><speed>0.928542</speed><course>114.918808</course><hAcc>0.867210</hAcc><vAcc>0.646812</vAcc></extensions></trkpt>
      <trkpt lon="-3.324784" lat="54.570555"><ele>129.184601</ele><time>2021-08-12T12:56:16Z</time><extensions><speed>0.889142</speed><course>112.952827</course><hAcc>0.868135</hAcc><vAcc>0.646445</vAcc></extensions></trkpt>
      <trkpt lon="-3.324792" lat="54.570562"><ele>129.225021</ele><time>2021-08-12T12:56:17Z</time><extensions><speed>0.848796</speed><course>108.521141</course><hAcc>0.869235</hAcc><vAcc>0.645717</vAcc></extensions></trkpt>
      <trkpt lon="-3.324799" lat="54.570568"><ele>129.247375</ele><time>2021-08-12T12:56:18Z</time><extensions><speed>0.808889</speed><course>105.023331</course><hAcc>0.870488</hAcc><vAcc>0.644626</vAcc></extensions></trkpt>
      <trkpt lon="-3.324805" lat="54.570574"><ele>129.250198</ele><time>2021-08-12T12:56:19Z</time><extensions><speed>0.771427</speed><course>98.270523</course><hAcc>0.871823</hAcc><vAcc>0.643179</vAcc></extensions></trkpt>
      <trkpt lon="-3.324811" lat="54.570580"><ele>129.232407</ele><time>2021-08-12T12:56:19Z</time><extensions><speed>0.739051</speed><course>104.555389</course><hAcc>0.873126</hAcc><vAcc>0.641403</vAcc></extensions></trkpt>
      <trkpt lon="-3.324815" lat="54.570586"><ele>129.192795</ele><time>2021-08-12T12:56:20Z</time><extensions><speed>0.714071</speed><course>108.798698</course><hAcc>0.874212</hAcc><vAcc>0.639309</vAcc></extensions></trkpt>
      <trkpt lon="-3.324818" lat="54.570592"><ele>129.130051</ele><time>2021-08-12T12:56:21Z</time><extensions><speed>0.699058</speed><course>107.953148</course><hAcc>0.874862</hAcc><vAcc>0.636897</vAcc></extensions></trkpt>
      <trkpt lon="-3.324820" lat="54.570598"><ele>129.042969</ele><time>2021-08-12T12:56:22Z</time><extensions><speed>0.695875</speed><course>107.561462</course><hAcc>0.874895</hAcc><vAcc>0.634173</vAcc></extensions></trkpt>
      <trkpt lon="-3.324821" lat="54.570604"><ele>128.930771</ele><time>2021-08-12T12:56:23Z</time><extensions><speed>0.705908</speed><course>98.600151</course><hAcc>0.874188</hAcc><vAcc>0.631147</vAcc></extensions></trkpt>
      <trkpt lon="-3.324821" lat="54.570611"><ele>128.793060</ele><time>2021-08-12T12:56:24Z</time><extensions><speed>0.729432</speed><course>106.179245</course><hAcc>0.872714</hAcc><vAcc>0.627841</vAcc></extensions></trkpt>
      <trkpt lon="-3.324819" lat="54.570617"><ele>128.629425</ele><time>2021-08-12T12:56:25Z</time><extensions><speed>0.763553</speed><course>99.736237</course><hAcc>0.870552</hAcc><vAcc>0.624299</vAcc></extensions></trkpt>
      <trkpt lon="-3.324816" lat="54.570624"><ele>128.439545</ele><time>2021-08-12T12:56:26Z</time><extensions><speed>0.801635</speed><course>102.027924</course><hAcc>0.867900</hAcc><vAcc>0.620590</vAcc></extensions></trkpt>
      <trkpt lon="-3.324812" lat="54.570631"><ele>128.224014</ele><time>2021-08-12T12:56:27Z</time><extensions><speed>0.835509</speed><course>94.072990</course><hAcc>0.865024</hAcc><vAcc>0.616800</vAcc></extensions></trkpt>
      <trkpt lon="-3.324807" lat="54.570638"><ele>127.984810</ele><time>2021-08-12T12:56:28Z</time><extensions><speed>0.859237</speed><course>96.463219</course><hAcc>0.862171</hAcc><vAcc>0.613012</vAcc></extensions></trkpt>
      <trkpt lon="-3.324801" lat="54.570645"><ele>127.725357</ele><time>2021-08-12T12:56:29Z</time><extensions><speed>0.870220</speed><course>96.928070</course><hAcc>0.859517</hAcc><vAcc>0.609308</vAcc></extensions></trkpt>
      <trkpt lon="-3.324795" lat="54.570652"><ele>127.450623</ele><time>2021-08-12T12:56:30Z</time><extensions><speed>0.868615</speed><course>85.766655</course><hAcc>0.857173</hAcc><vAcc>0.605784</vAcc></extensions></trkpt>
      <trkpt lon="-3.324790" lat="54.570659"><ele>127.166718</ele><time>2021-08-12T12:56:31Z</time><extensions><speed>0.855861</speed><course>93.944389</course><hAcc>0.855202</hAcc><vAcc>0.602561</vAcc></extensions></trkpt>
      <trkpt lon="-3.324784" lat="54.570666"><ele>126.879494</ele><time>2021-08-12T12:56:32Z</time><extensions><speed>0.833578</speed><course>96.280258</course><hAcc>0.853629</hAcc><vAcc>0.599775</vAcc></extensions></trkpt>
      <trkpt lon="-3.324779" lat="54.570673"><ele>126.593735</ele><time>2021-08-12T12:56:33Z</time><extensions><speed>0.804016</speed><course>103.229439</course><hAcc>0.852462</hAcc><vAcc>0.597580</vAcc></extensions></trkpt>
      <trkpt lon="-3.324773" lat="54.570679"><ele>126.313049</ele><time>2021-08-12T12:56:34Z</time><extensions><speed>0.770453</speed><course>100.069313</course><hAcc>0.851697</hAcc><vAcc>0.596134</vAcc></extensions></trkpt>
      <trkpt lon="-3.324769" lat="54.570685"><ele>126.039902</ele><time>2021-08-12T12:56:35Z</time><extensions><speed>0.736760</speed><course>107.704430</course><hAcc>0.851320</hAcc><vAcc>0.595579</vAcc></extensions></trkpt>
      <trkpt lon="-3.324765" lat="54.570691"><ele>125.775421</ele><time>2021-08-12T12:56:36Z</time><extensions><speed>0.706963</speed><course>102.019516</course><hAcc>0.851307</hAcc><vAcc>0.596012</vAcc></extensions></trkpt>
      <trkpt lon="-3.324761" lat="54.570697"><ele>125.519630</ele><time>2021-08-12T12:56:37Z</time><extensions><speed>0.685228</speed><course>101.188896</course><hAcc>0.851623</hAcc><vAcc>0.597478</vAcc></extensions></trkpt>
      <trkpt lon="-3.324757" lat="54.570703"><ele>125.271858</ele><time>2021-08-12T12:56:38Z</time><extensions><speed>0.674443</speed><course>101.655106</course><hAcc>0.852226</hAcc><vAcc>0.599953</vAcc></extensions></trkpt>
      <trkpt lon="-3.324754" lat="54.570709"><ele>125.030807</ele><time>2021-08-12T12:56:39Z</time><extensions><speed>0.676068</speed><course>97.512695</course><hAcc>0.853060</hAcc><vAcc>0.603298</vAcc></extensions></trkpt>
      <trkpt lon="-3.324750" lat="54.570714"><ele>124.794487</ele><time>2021-08-12T12:56:40Z</time><extensions><speed>0.691007</speed><course>96.923676</course><hAcc>0.854049</hAcc><vAcc>0.607226</vAcc></extensions></trkpt>
      <trkpt lon="-3.324747" lat="54.570721"><ele>124.560486</ele><time>2021-08-12T12:56:41Z</time><extensions><speed>0.719271</speed><course>96.356850</course><hAcc>0.855094</hAcc><vAcc>0.611309</vAcc></extensions></trkpt>
      <trkpt lon="-3.324744" lat="54.570727"><ele>124.326347</ele><time>2021-08-12T12:56:42Z</time><extensions><speed>0.759989</speed><course>95.959724</course><hAcc>0.856083</hAcc><vAcc>0.615094</vAcc></extensions></trkpt>
      <trkpt lon="-3.324740" lat="54.570734"><ele>124.089874</ele><time>2021-08-12T12:56:43Z</time><extensions><speed>0.811302</speed><course>95.959717</course><hAcc>0.856936</hAcc><vAcc>0.618268</vAcc></extensions></trkpt>
      <trkpt lon="-3.324736" lat="54.570741"><ele>123.849380</ele><time>2021-08-12T12:56:44Z</time><extensions><speed>0.870220</speed><course>97.361824</course><hAcc>0.857618</hAcc><vAcc>0.620723</vAcc></extensions></trkpt>
      <trkpt lon="-3.324731" lat="54.570748"><ele>123.603844</ele><time>2021-08-12T12:56:45Z</time><extensions><speed>0.933253</speed><course>97.361824</course><hAcc>0.858135</hAcc><vAcc>0.622510</vAcc></extensions></trkpt>
      <trkpt lon="-3.324727" lat="54.570757"><ele>123.352768</ele><time>2021-08-12T12:56:46Z</time><extensions><speed>0.997579</speed><course>97.361809</course><hAcc>0.858515</hAcc><vAcc>0.623769</vAcc></extensions></trkpt>
      <trkpt lon="-3.324721" lat="54.570765"><ele>123.095886</ele><time>2021-08-12T12:56:47Z</time><extensions><speed>1.061048</speed><course>97.361801</course><hAcc>0.858792</hAcc><vAcc>0.624648</vAcc></extensions></trkpt>
      <trkpt lon="-3.324715" lat="54.570775"><ele>122.833229</ele><time>2021-08-12T12:56:48Z</time><extensions><speed>1.121647</speed><course>42.884136</course><hAcc>0.858997</hAcc><vAcc>0.625277</vAcc></extensions></trkpt>
      <trkpt lon="-3.324709" lat="54.570784"><ele>122.565445</ele><time>2021-08-12T12:56:49Z</time><extensions><speed>1.178108</speed><course>35.984764</course><hAcc>0.859156</hAcc><vAcc>0.625754</vAcc></extensions></trkpt>
      <trkpt lon="-3.324702" lat="54.570794"><ele>122.293861</ele><time>2021-08-12T12:56:50Z</time><extensions><speed>1.229682</speed><course>65.852417</course><hAcc>0.859291</hAcc><vAcc>0.626159</vAcc></extensions></trkpt>
      <trkpt lon="-3.324694" lat="54.570804"><ele>122.020264</ele><time>2021-08-12T12:56:51Z</time><extensions><speed>1.275208</speed><course>86.337746</course><hAcc>0.859417</hAcc><vAcc>0.626557</vAcc></extensions></trkpt>
      <trkpt lon="-3.324686" lat="54.570815"><ele>121.746727</ele><time>2021-08-12T12:56:52Z</time><extensions><speed>1.313916</speed><course>89.071770</course><hAcc>0.859549</hAcc><vAcc>0.626998</vAcc></extensions></trkpt>
      <trkpt lon="-3.324678" lat="54.570826"><ele>121.475281</ele><time>2021-08-12T12:56:53Z</time><extensions><speed>1.345562</speed><course>92.612312</course><hAcc>0.859694</hAcc><vAcc>0.627511</vAcc></extensions></trkpt>
      <trkpt lon="-3.324670" lat="54.570837"><ele>121.207886</ele><time>2021-08-12T12:56:54Z</time><extensions><speed>1.369911</speed><course>103.461632</course><hAcc>0.859849</hAcc><vAcc>0.628089</vAcc></extensions></trkpt>
      <trkpt lon="-3.324661" lat="54.570849"><ele>120.946442</ele><time>2021-08-12T12:56:55Z</time><extensions><speed>1.387115</speed><course>104.412865</course><hAcc>0.859998</hAcc><vAcc>0.628675</vAcc></extensions></trkpt>
      <trkpt lon="-3.324653" lat="54.570860"><ele>120.692535</ele><time>2021-08-12T12:56:56Z</time><extensions><speed>1.396752</speed><course>129.601685</course><hAcc>0.860110</hAcc><vAcc>0.629152</vAcc></extensions></trkpt>
      <trkpt lon="-3.324645" lat="54.570872"><ele>120.447350</ele><time>2021-08-12T12:56:57Z</time><extensions><speed>1.397873</speed><course>149.567169</course><hAcc>0.860143</hAcc><vAcc>0.629348</vAcc></extensions></trkpt>
      <trkpt lon="-3.324638" lat="54.570884"><ele>120.211678</ele><time>2021-08-12T12:56:58Z</time><extensions><speed>1.390138</speed><course>129.327728</course><hAcc>0.860047</hAcc><vAcc>0.629067</vAcc></extensions></trkpt>
      <trkpt lon="-3.324631" lat="54.570896"><ele>119.985992</ele><time>2021-08-12T12:56:59Z</time><extensions><speed>1.374259</speed><course>129.943619</course><hAcc>0.859783</hAcc><vAcc>0.628141</vAcc></extensions></trkpt>
      <trkpt lon="-3.324625" lat="54.570907"><ele>119.770500</ele><time>2021-08-12T12:57:00Z</time><extensions><speed>1.351443</speed><course>125.470825</course><hAcc>0.859338</hAcc><vAcc>0.626485</vAcc></extensions></trkpt>
      <trkpt lon="-3.324619" lat="54.570919"><ele>119.565102</ele><time>2021-08-12T12:57:01Z</time><extensions><speed>1.322970</speed><course>125.654007</course><hAcc>0.858727</hAcc><vAcc>0.624124</vAcc></extensions></trkpt>
      <trkpt lon="-3.324615" lat="54.570930"><ele>119.369438</ele><time>2021-08-12T12:57:02Z</time><extensions><speed>1.290477</speed><course>132.941208</course><hAcc>0.858001</hAcc><vAcc>0.621176</vAcc></extensions></trkpt>
      <trkpt lon="-3.324611" lat="54.570941"><ele>119.183075</ele><time>2021-08-12T12:57:03Z</time><extensions><speed>1.255545</speed><course>128.525970</course><hAcc>0.857238</hAcc><vAcc>0.617819</vAcc></extensions></trkpt>
      <trkpt lon="-3.324608" lat="54.570952"><ele>119.005692</ele><time>2021-08-12T12:57:04Z</time><extensions><speed>1.219745</speed><course>129.747040</course><hAcc>0.856540</hAcc><vAcc>0.614249</vAcc></extensions></trkpt>
      <trkpt lon="-3.324607" lat="54.570963"><ele>118.837196</ele><time>2021-08-12T12:57:05Z</time><extensions><speed>1.184520</speed><course>133.257645</course><hAcc>0.856031</hAcc><vAcc>0.610641</vAcc></extensions></trkpt>
      <trkpt lon="-3.324606" lat="54.570974"><ele>118.677620</ele><time>2021-08-12T12:57:06Z</time><extensions><speed>1.150170</speed><course>122.834160</course><hAcc>0.855856</hAcc><vAcc>0.607137</vAcc></extensions></trkpt>
      <trkpt lon="-3.324606" lat="54.570984"><ele>118.526901</ele><time>2021-08-12T12:57:07Z</time><extensions><speed>1.116435</speed><course>121.754723</course><hAcc>0.856181</hAcc><vAcc>0.603823</vAcc></extensions></trkpt>
      <trkpt lon="-3.324607" lat="54.570994"><ele>118.384872</ele><time>2021-08-12T12:57:08Z</time><extensions><speed>1.083795</speed><course>130.620087</course><hAcc>0.857196</hAcc><vAcc>0.600736</vAcc></extensions></trkpt>
      <trkpt lon="-3.324609" lat="54.571003"><ele>118.251450</ele><time>2021-08-12T12:57:09Z</time><extensions><speed>1.052712</speed><course>128.548019</course><hAcc>0.859117</hAcc><vAcc>0.597888</vAcc></extensions></trkpt>
      <trkpt lon="-3.324611" lat="54.571012"><ele>118.126808</ele><time>2021-08-12T12:57:10Z</time><extensions><speed>1.022694</speed><course>128.034912</course><hAcc>0.862174</hAcc><vAcc>0.595277</vAcc></extensions></trkpt>
      <trkpt lon="-3.324614" lat="54.571021"><ele>118.011246</ele><time>2021-08-12T12:57:11Z</time><extensions><speed>0.992749</speed><course>128.138321</course><hAcc>0.866595</hAcc><vAcc>0.592906</vAcc></extensions></trkpt>
      <trkpt lon="-3.324617" lat="54.571030"><ele>117.904922</ele><time>2021-08-12T12:57:12Z</time><extensions><speed>0.961999</speed><course>127.788391</course><hAcc>0.872577</hAcc><vAcc>0.590812</vAcc></extensions></trkpt>
      <trkpt lon="-3.324621" lat="54.571038"><ele>117.807854</ele><time>2021-08-12T12:57:13Z</time><extensions><speed>0.929931</speed><course>111.799332</course><hAcc>0.880247</hAcc><vAcc>0.589088</vAcc></extensions></trkpt>
      <trkpt lon="-3.324625" lat="54.571046"><ele>117.719803</ele><time>2021-08-12T12:57:14Z</time><extensions><speed>0.896397</speed><course>135.894547</course><hAcc>0.889637</hAcc><vAcc>0.587899</vAcc></extensions></trkpt>
      <trkpt lon="-3.324628" lat="54.571054"><ele>117.640114</ele><time>2021-08-12T12:57:15Z</time><extensions><speed>0.861342</speed><course>135.791443</course><hAcc>0.900666</hAcc><vAcc>0.587478</vAcc></extensions></trkpt>
      <trkpt lon="-3.324632" lat="54.571061"><ele>117.567848</ele><time>2021-08-12T12:57:16Z</time><extensions><speed>0.825023</speed><course>137.532547</course><hAcc>0.913182</hAcc><vAcc>0.588104</vAcc></extensions></trkpt>
      <trkpt lon="-3.324636" lat="54.571068"><ele>117.501930</ele><time>2021-08-12T12:57:17Z</time><extensions><speed>0.787933</speed><course>139.503952</course><hAcc>0.927037</hAcc><vAcc>0.590050</vAcc></extensions></trkpt>
      <trkpt lon="-3.324639" lat="54.571074"><ele>117.441307</ele><time>2021-08-12T12:57:18Z</time><extensions><speed>0.751073</speed><course>146.422607</course><hAcc>0.942169</hAcc><vAcc>0.593545</vAcc></extensions></trkpt>
      <trkpt lon="-3.324643" lat="54.571081"><ele>117.385292</ele><time>2021-08-12T12:57:19Z</time><extensions><speed>0.716346</speed><course>123.702354</course><hAcc>0.958553</hAcc><vAcc>0.598719</vAcc></extensions></trkpt>
      <trkpt lon="-3.324646" lat="54.571087"><ele>117.333504</ele><time>2021-08-12T12:57:20Z</time><extensions><speed>0.684972</speed><course>126.795586</course><hAcc>0.976030</hAcc><vAcc>0.605518</vAcc></extensions></trkpt>
      <trkpt lon="-3.324650" lat="54.571092"><ele>117.285759</ele><time>2021-08-12T12:57:21Z</time><extensions><speed>0.657502</speed><course>132.239441</course><hAcc>0.994214</hAcc><vAcc>0.613668</vAcc></extensions></trkpt>
      <trkpt lon="-3.324653" lat="54.571098"><ele>117.242180</ele><time>2021-08-12T12:57:22Z</time><extensions><speed>0.633733</speed><course>129.200668</course><hAcc>1.012517</hAcc><vAcc>0.622731</vAcc></extensions></trkpt>
      <trkpt lon="-3.324656" lat="54.571103"><ele>117.202988</ele><time>2021-08-12T12:57:23Z</time><extensions><speed>0.612774</speed><course>125.122314</course><hAcc>1.030185</hAcc><vAcc>0.632145</vAcc></extensions></trkpt>
      <trkpt lon="-3.324659" lat="54.571108"><ele>117.168411</ele><time>2021-08-12T12:57:24Z</time><extensions><speed>0.594469</speed><course>136.265396</course><hAcc>1.046336</hAcc><vAcc>0.641253</vAcc></extensions></trkpt>
      <trkpt lon="-3.324662" lat="54.571113"><ele>117.138847</ele><time>2021-08-12T12:57:25Z</time><extensions><speed>0.578598</speed><course>135.687027</course><hAcc>1.060003</hAcc><vAcc>0.649333</vAcc></extensions></trkpt>
      <trkpt lon="-3.324665" lat="54.571118"><ele>117.114708</ele><time>2021-08-12T12:57:26Z</time><extensions><speed>0.564195</speed><course>134.189224</course><hAcc>1.070208</hAcc><vAcc>0.655646</vAcc></extensions></trkpt>
      <trkpt lon="-3.324668" lat="54.571123"><ele>117.096039</ele><time>2021-08-12T12:57:27Z</time><extensions><speed>0.549888</speed><course>130.213623</course><hAcc>1.076069</hAcc><vAcc>0.659520</vAcc></extensions></trkpt>
      <trkpt lon="-3.324671" lat="54.571127"><ele>117.082382</ele><time>2021-08-12T12:57:28Z</time><extensions><speed>0.534080</speed><course>131.249283</course><hAcc>1.076940</hAcc><vAcc>0.660466</vAcc></extensions></trkpt>
      <trkpt lon="-3.324674" lat="54.571132"><ele>117.072838</ele><time>2021-08-12T12:57:29Z</time><extensions><speed>0.515506</speed><course>132.412170</course><hAcc>1.072516</hAcc><vAcc>0.658252</vAcc></extensions></trkpt>
      <trkpt lon="-3.324676" lat="54.571136"><ele>117.066368</ele><time>2021-08-12T12:57:30Z</time><extensions><speed>0.494332</speed><course>141.387543</course><hAcc>1.062872</hAcc><vAcc>0.652939</vAcc></extensions></trkpt>
      <trkpt lon="-3.324679" lat="54.571140"><ele>117.062088</ele><time>2021-08-12T12:57:31Z</time><extensions><speed>0.471607</speed><course>147.693329</course><hAcc>1.048512</hAcc><vAcc>0.644919</vAcc></extensions></trkpt>
      <trkpt lon="-3.324681" lat="54.571144"><ele>117.059311</ele><time>2021-08-12T12:57:32Z</time><extensions><speed>0.447975</speed><course>150.557755</course><hAcc>1.030395</hAcc><vAcc>0.634929</vAcc></extensions></trkpt>
      <trkpt lon="-3.324684" lat="54.571148"><ele>117.057419</ele><time>2021-08-12T12:57:33Z</time><extensions><speed>0.423858</speed><course>146.167221</course><hAcc>1.009852</hAcc><vAcc>0.623975</vAcc></extensions></trkpt>
      <trkpt lon="-3.324686" lat="54.571151"><ele>117.055809</ele><time>2021-08-12T12:57:34Z</time><extensions><speed>0.399882</speed><course>148.113663</course><hAcc>0.988346</hAcc><vAcc>0.613123</vAcc></extensions></trkpt>
      <trkpt lon="-3.324688" lat="54.571154"><ele>117.053864</ele><time>2021-08-12T12:57:35Z</time><extensions><speed>0.377393</speed><course>138.101883</course><hAcc>0.967220</hAcc><vAcc>0.603275</vAcc></extensions></trkpt>
      <trkpt lon="-3.324690" lat="54.571158"><ele>117.050941</ele><time>2021-08-12T12:57:36Z</time><extensions><speed>0.358555</speed><course>142.914612</course><hAcc>0.947540</hAcc><vAcc>0.595032</vAcc></extensions></trkpt>
      <trkpt lon="-3.324692" lat="54.571160"><ele>117.046585</ele><time>2021-08-12T12:57:37Z</time><extensions><speed>0.345323</speed><course>148.048096</course><hAcc>0.930033</hAcc><vAcc>0.588673</vAcc></extensions></trkpt>
      <trkpt lon="-3.324694" lat="54.571163"><ele>117.040619</ele><time>2021-08-12T12:57:38Z</time><extensions><speed>0.339393</speed><course>151.450607</course><hAcc>0.915096</hAcc><vAcc>0.584199</vAcc></extensions></trkpt>
      <trkpt lon="-3.324696" lat="54.571166"><ele>117.033180</ele><time>2021-08-12T12:57:39Z</time><extensions><speed>0.342359</speed><course>136.771103</course><hAcc>0.902829</hAcc><vAcc>0.581408</vAcc></extensions></trkpt>
      <trkpt lon="-3.324698" lat="54.571169"><ele>117.024513</ele><time>2021-08-12T12:57:40Z</time><extensions><speed>0.354702</speed><course>141.808670</course><hAcc>0.893108</hAcc><vAcc>0.579971</vAcc></extensions></trkpt>
      <trkpt lon="-3.324701" lat="54.571172"><ele>117.014549</ele><time>2021-08-12T12:57:41Z</time><extensions><speed>0.376294</speed><course>141.991776</course><hAcc>0.885684</hAcc><vAcc>0.579515</vAcc></extensions></trkpt>
      <trkpt lon="-3.324703" lat="54.571175"><ele>117.002937</ele><time>2021-08-12T12:57:42Z</time><extensions><speed>0.407051</speed><course>158.861435</course><hAcc>0.880270</hAcc><vAcc>0.579679</vAcc></extensions></trkpt>
      <trkpt lon="-3.324706" lat="54.571179"><ele>116.989357</ele><time>2021-08-12T12:57:43Z</time><extensions><speed>0.446299</speed><course>158.142120</course><hAcc>0.876604</hAcc><vAcc>0.580146</vAcc></extensions></trkpt>
      <trkpt lon="-3.324709" lat="54.571183"><ele>116.973602</ele><time>2021-08-12T12:57:44Z</time><extensions><speed>0.492982</speed><course>156.536041</course><hAcc>0.874465</hAcc><vAcc>0.580667</vAcc></extensions></trkpt>
      <trkpt lon="-3.324712" lat="54.571187"><ele>116.955330</ele><time>2021-08-12T12:57:45Z</time><extensions><speed>0.546210</speed><course>138.496033</course><hAcc>0.873681</hAcc><vAcc>0.581060</vAcc></extensions></trkpt>
      <trkpt lon="-3.324716" lat="54.571191"><ele>116.934128</ele><time>2021-08-12T12:57:46Z</time><extensions><speed>0.604605</speed><course>156.669647</course><hAcc>0.874120</hAcc><vAcc>0.581217</vAcc></extensions></trkpt>
      <trkpt lon="-3.324721" lat="54.571196"><ele>116.909515</ele><time>2021-08-12T12:57:47Z</time><extensions><speed>0.666420</speed><course>143.929214</course><hAcc>0.875686</hAcc><vAcc>0.581080</vAcc></extensions></trkpt>
      <trkpt lon="-3.324726" lat="54.571202"><ele>116.880928</ele><time>2021-08-12T12:57:48Z</time><extensions><speed>0.729660</speed><course>154.114960</course><hAcc>0.878290</hAcc><vAcc>0.580638</vAcc></extensions></trkpt>
      <trkpt lon="-3.324732" lat="54.571208"><ele>116.847656</ele><time>2021-08-12T12:57:49Z</time><extensions><speed>0.792752</speed><course>157.737396</course><hAcc>0.881800</hAcc><vAcc>0.579942</vAcc></extensions></trkpt>
      <trkpt lon="-3.324738" lat="54.571214"><ele>116.808990</ele><time>2021-08-12T12:57:50Z</time><extensions><speed>0.854813</speed><course>156.437073</course><hAcc>0.885952</hAcc><vAcc>0.579123</vAcc></extensions></trkpt>
      <trkpt lon="-3.324746" lat="54.571221"><ele>116.764282</ele><time>2021-08-12T12:57:51Z</time><extensions><speed>0.914789</speed><course>159.749420</course><hAcc>0.890328</hAcc><vAcc>0.578385</vAcc></extensions></trkpt>
      <trkpt lon="-3.324753" lat="54.571228"><ele>116.713028</ele><time>2021-08-12T12:57:52Z</time><extensions><speed>0.971567</speed><course>156.029541</course><hAcc>0.894379</hAcc><vAcc>0.577950</vAcc></extensions></trkpt>
      <trkpt lon="-3.324762" lat="54.571236"><ele>116.654640</ele><time>2021-08-12T12:57:53Z</time><extensions><speed>1.023763</speed><course>159.049896</course><hAcc>0.897499</hAcc><vAcc>0.577988</vAcc></extensions></trkpt>
      <trkpt lon="-3.324770" lat="54.571244"><ele>116.588333</ele><time>2021-08-12T12:57:54Z</time><extensions><speed>1.070591</speed><course>154.355942</course><hAcc>0.899143</hAcc><vAcc>0.578597</vAcc></extensions></trkpt>
      <trkpt lon="-3.324780" lat="54.571252"><ele>116.513283</ele><time>2021-08-12T12:57:55Z</time><extensions><speed>1.111634</speed><course>162.710571</course><hAcc>0.898947</hAcc><vAcc>0.579835</vAcc></extensions></trkpt>
      <trkpt lon="-3.324790" lat="54.571260"><ele>116.428909</ele><time>2021-08-12T12:57:56Z</time><extensions><speed>1.146175</speed><course>161.899368</course><hAcc>0.896815</hAcc><vAcc>0.581776</vAcc></extensions></trkpt>
      <trkpt lon="-3.324800" lat="54.571269"><ele>116.334747</ele><time>2021-08-12T12:57:57Z</time><extensions><speed>1.173948</speed><course>160.656769</course><hAcc>0.892994</hAcc><vAcc>0.584554</vAcc></extensions></trkpt>
      <trkpt lon="-3.324810" lat="54.571277"><ele>116.230377</ele><time>2021-08-12T12:57:58Z</time><extensions><speed>1.195538</speed><course>152.471558</course><hAcc>0.888058</hAcc><vAcc>0.588352</vAcc></extensions></trkpt>
      <trkpt lon="-3.324821" lat="54.571286"><ele>116.115891</ele><time>2021-08-12T12:57:59Z</time><extensions><speed>1.212617</speed><course>148.255112</course><hAcc>0.882706</hAcc><vAcc>0.593258</vAcc></extensions></trkpt>
      <trkpt lon="-3.324832" lat="54.571295"><ele>115.992310</ele><time>2021-08-12T12:58:00Z</time><extensions><speed>1.226685</speed><course>153.394714</course><hAcc>0.877583</hAcc><vAcc>0.599184</vAcc></extensions></trkpt>
      <trkpt lon="-3.324843" lat="54.571304"><ele>115.861465</ele><time>2021-08-12T12:58:01Z</time><extensions><speed>1.237997</speed><course>156.943573</course><hAcc>0.873174</hAcc><vAcc>0.605899</vAcc></extensions></trkpt>
      <trkpt lon="-3.324854" lat="54.571313"><ele>115.725494</ele><time>2021-08-12T12:58:02Z</time><extensions><speed>1.246499</speed><course>159.515564</course><hAcc>0.869754</hAcc><vAcc>0.613093</vAcc></extensions></trkpt>
      <trkpt lon="-3.324865" lat="54.571323"><ele>115.586311</ele><time>2021-08-12T12:58:03Z</time><extensions><speed>1.251890</speed><course>158.540283</course><hAcc>0.867394</hAcc><vAcc>0.620450</vAcc></extensions></trkpt>
      <trkpt lon="-3.324876" lat="54.571332"><ele>115.445335</ele><time>2021-08-12T12:58:04Z</time><extensions><speed>1.254241</speed><course>153.751312</course><hAcc>0.866023</hAcc><vAcc>0.627693</vAcc></extensions></trkpt>
      <trkpt lon="-3.324887" lat="54.571341"><ele>115.303276</ele><time>2021-08-12T12:58:05Z</time><extensions><speed>1.254589</speed><course>159.795258</course><hAcc>0.865481</hAcc><vAcc>0.634604</vAcc></extensions></trkpt>
      <trkpt lon="-3.324898" lat="54.571350"><ele>115.160431</ele><time>2021-08-12T12:58:06Z</time><extensions><speed>1.253792</speed><course>158.187424</course><hAcc>0.865577</hAcc><vAcc>0.641032</vAcc></extensions></trkpt>
      <trkpt lon="-3.324909" lat="54.571360"><ele>115.017372</ele><time>2021-08-12T12:58:07Z</time><extensions><speed>1.252515</speed><course>160.275116</course><hAcc>0.866114</hAcc><vAcc>0.646885</vAcc></extensions></trkpt>
      <trkpt lon="-3.324920" lat="54.571369"><ele>114.875015</ele><time>2021-08-12T12:58:08Z</time><extensions><speed>1.251203</speed><course>156.643036</course><hAcc>0.866925</hAcc><vAcc>0.652127</vAcc></extensions></trkpt>
      <trkpt lon="-3.324931" lat="54.571378"><ele>114.734535</ele><time>2021-08-12T12:58:09Z</time><extensions><speed>1.249829</speed><course>162.614395</course><hAcc>0.867874</hAcc><vAcc>0.656770</vAcc></extensions></trkpt>
      <trkpt lon="-3.324942" lat="54.571387"><ele>114.597397</ele><time>2021-08-12T12:58:10Z</time><extensions><speed>1.248401</speed><course>162.054535</course><hAcc>0.868862</hAcc><vAcc>0.660853</vAcc></extensions></trkpt>
      <trkpt lon="-3.324954" lat="54.571396"><ele>114.464729</ele><time>2021-08-12T12:58:11Z</time><extensions><speed>1.247087</speed><course>177.342987</course><hAcc>0.869824</hAcc><vAcc>0.664437</vAcc></extensions></trkpt>
      <trkpt lon="-3.324965" lat="54.571406"><ele>114.336990</ele><time>2021-08-12T12:58:12Z</time><extensions><speed>1.245411</speed><course>172.891953</course><hAcc>0.870721</hAcc><vAcc>0.667583</vAcc></extensions></trkpt>
      <trkpt lon="-3.324976" lat="54.571415"><ele>114.214104</ele><time>2021-08-12T12:58:13Z</time><extensions><speed>1.243474</speed><course>169.984741</course><hAcc>0.871534</hAcc><vAcc>0.670342</vAcc></extensions></trkpt>
      <trkpt lon="-3.324987" lat="54.571424"><ele>114.095779</ele><time>2021-08-12T12:58:14Z</time><extensions><speed>1.242317</speed><course>166.246048</course><hAcc>0.872256</hAcc><vAcc>0.672762</vAcc></extensions></trkpt>
      <trkpt lon="-3.324998" lat="54.571433"><ele>113.981407</ele><time>2021-08-12T12:58:15Z</time><extensions><speed>1.242236</speed><course>166.762161</course><hAcc>0.872891</hAcc><vAcc>0.674890</vAcc></extensions></trkpt>
      <trkpt lon="-3.325009" lat="54.571442"><ele>113.870178</ele><time>2021-08-12T12:58:16Z</time><extensions><speed>1.243624</speed><course>163.016708</course><hAcc>0.873452</hAcc><vAcc>0.676774</vAcc></extensions></trkpt>
      <trkpt lon="-3.325020" lat="54.571451"><ele>113.761581</ele><time>2021-08-12T12:58:18Z</time><extensions><speed>1.247490</speed><course>159.079727</course><hAcc>0.873934</hAcc><vAcc>0.678443</vAcc></extensions></trkpt>
      <trkpt lon="-3.325032" lat="54.571460"><ele>113.655937</ele><time>2021-08-12T12:58:19Z</time><extensions><speed>1.254625</speed><course>160.816132</course><hAcc>0.874355</hAcc><vAcc>0.679922</vAcc></extensions></trkpt>
      <trkpt lon="-3.325043" lat="54.571469"><ele>113.553452</ele><time>2021-08-12T12:58:20Z</time><extensions><speed>1.264965</speed><course>163.227844</course><hAcc>0.874751</hAcc><vAcc>0.681246</vAcc></extensions></trkpt>
      <trkpt lon="-3.325055" lat="54.571478"><ele>113.454399</ele><time>2021-08-12T12:58:21Z</time><extensions><speed>1.277348</speed><course>152.149902</course><hAcc>0.875147</hAcc><vAcc>0.682432</vAcc></extensions></trkpt>
      <trkpt lon="-3.325067" lat="54.571488"><ele>113.358818</ele><time>2021-08-12T12:58:22Z</time><extensions><speed>1.290442</speed><course>159.582550</course><hAcc>0.875571</hAcc><vAcc>0.683494</vAcc></extensions></trkpt>
      <trkpt lon="-3.325080" lat="54.571497"><ele>113.266449</ele><time>2021-08-12T12:58:23Z</time><extensions><speed>1.303668</speed><course>159.987671</course><hAcc>0.876057</hAcc><vAcc>0.684445</vAcc></extensions></trkpt>
      <trkpt lon="-3.325093" lat="54.571506"><ele>113.176949</ele><time>2021-08-12T12:58:24Z</time><extensions><speed>1.317157</speed><course>163.105835</course><hAcc>0.876648</hAcc><vAcc>0.685296</vAcc></extensions></trkpt>
      <trkpt lon="-3.325106" lat="54.571515"><ele>113.089996</ele><time>2021-08-12T12:58:25Z</time><extensions><speed>1.331376</speed><course>160.869598</course><hAcc>0.877389</hAcc><vAcc>0.686055</vAcc></extensions></trkpt>
      <trkpt lon="-3.325119" lat="54.571524"><ele>113.005249</ele><time>2021-08-12T12:58:25Z</time><extensions><speed>1.347140</speed><course>172.028473</course><hAcc>0.878343</hAcc><vAcc>0.686747</vAcc></extensions></trkpt>
      <trkpt lon="-3.325133" lat="54.571533"><ele>112.921822</ele><time>2021-08-12T12:58:26Z</time><extensions><speed>1.365092</speed><course>182.583130</course><hAcc>0.879553</hAcc><vAcc>0.687391</vAcc></extensions></trkpt>
      <trkpt lon="-3.325147" lat="54.571542"><ele>112.839058</ele><time>2021-08-12T12:58:27Z</time><extensions><speed>1.384633</speed><course>175.623672</course><hAcc>0.881023</hAcc><vAcc>0.688011</vAcc></extensions></trkpt>
      <trkpt lon="-3.325162" lat="54.571552"><ele>112.756538</ele><time>2021-08-12T12:58:28Z</time><extensions><speed>1.404346</speed><course>168.997635</course><hAcc>0.882749</hAcc><vAcc>0.688653</vAcc></extensions></trkpt>
      <trkpt lon="-3.325176" lat="54.571561"><ele>112.674118</ele><time>2021-08-12T12:58:29Z</time><extensions><speed>1.422350</speed><course>166.227890</course><hAcc>0.884678</hAcc><vAcc>0.689337</vAcc></extensions></trkpt>
      <trkpt lon="-3.325192" lat="54.571570"><ele>112.591805</ele><time>2021-08-12T12:58:30Z</time><extensions><speed>1.436783</speed><course>162.222458</course><hAcc>0.886697</hAcc><vAcc>0.690027</vAcc></extensions></trkpt>
      <trkpt lon="-3.325207" lat="54.571580"><ele>112.509804</ele><time>2021-08-12T12:58:31Z</time><extensions><speed>1.447030</speed><course>162.553314</course><hAcc>0.888631</hAcc><vAcc>0.690612</vAcc></extensions></trkpt>
      <trkpt lon="-3.325222" lat="54.571589"><ele>112.428917</ele><time>2021-08-12T12:58:32Z</time><extensions><speed>1.453688</speed><course>165.735123</course><hAcc>0.890258</hAcc><vAcc>0.690938</vAcc></extensions></trkpt>
      <trkpt lon="-3.325237" lat="54.571599"><ele>112.350441</ele><time>2021-08-12T12:58:33Z</time><extensions><speed>1.457610</speed><course>166.317276</course><hAcc>0.891363</hAcc><vAcc>0.690882</vAcc></extensions></trkpt>
      <trkpt lon="-3.325252" lat="54.571609"><ele>112.275543</ele><time>2021-08-12T12:58:34Z</time><extensions><speed>1.459950</speed><course>164.590683</course><hAcc>0.891843</hAcc><vAcc>0.690474</vAcc></extensions></trkpt>
      <trkpt lon="-3.325267" lat="54.571619"><ele>112.205215</ele><time>2021-08-12T12:58:35Z</time><extensions><speed>1.461949</speed><course>167.304306</course><hAcc>0.891873</hAcc><vAcc>0.690035</vAcc></extensions></trkpt>
      <trkpt lon="-3.325281" lat="54.571629"><ele>112.140465</ele><time>2021-08-12T12:58:36Z</time><extensions><speed>1.464586</speed><course>166.209152</course><hAcc>0.892173</hAcc><vAcc>0.690382</vAcc></extensions></trkpt>
      <trkpt lon="-3.325294" lat="54.571640"><ele>112.081985</ele><time>2021-08-12T12:58:37Z</time><extensions><speed>1.468497</speed><course>170.985672</course><hAcc>0.894373</hAcc><vAcc>0.693076</vAcc></extensions></trkpt>
      <trkpt lon="-3.325307" lat="54.571651"><ele>112.029518</ele><time>2021-08-12T12:58:38Z</time><extensions><speed>1.473400</speed><course>170.155151</course><hAcc>0.901483</hAcc><vAcc>0.700696</vAcc></extensions></trkpt>
      <trkpt lon="-3.325320" lat="54.571662"><ele>111.981682</ele><time>2021-08-12T12:58:39Z</time><extensions><speed>1.478477</speed><course>173.270996</course><hAcc>0.918334</hAcc><vAcc>0.717040</vAcc></extensions></trkpt>
      <trkpt lon="-3.325332" lat="54.571673"><ele>111.936371</ele><time>2021-08-12T12:58:40Z</time><extensions><speed>1.483393</speed><course>158.977570</course><hAcc>0.951747</hAcc><vAcc>0.747077</vAcc></extensions></trkpt>
      <trkpt lon="-3.325342" lat="54.571685"><ele>111.678200</ele><time>2021-08-12T12:58:41Z</time><extensions><speed>1.622928</speed><course>74.967865</course><hAcc>0.915056</hAcc><vAcc>0.714531</vAcc></extensions></trkpt>
      <trkpt lon="-3.325346" lat="54.571699"><ele>111.647049</ele><time>2021-08-12T12:58:42Z</time><extensions><speed>1.619620</speed><course>75.133301</course><hAcc>0.897765</hAcc><vAcc>0.698028</vAcc></extensions></trkpt>
      <trkpt lon="-3.325350" lat="54.571713"><ele>111.601166</ele><time>2021-08-12T12:58:43Z</time><extensions><speed>1.615342</speed><course>66.099251</course><hAcc>0.891307</hAcc><vAcc>0.690910</vAcc></extensions></trkpt>
      <trkpt lon="-3.325353" lat="54.571728"><ele>111.541603</ele><time>2021-08-12T12:58:44Z</time><extensions><speed>1.610902</speed><course>81.237114</course><hAcc>0.890153</hAcc><vAcc>0.688897</vAcc></extensions></trkpt>
      <trkpt lon="-3.325356" lat="54.571742"><ele>111.471199</ele><time>2021-08-12T12:58:45Z</time><extensions><speed>1.606863</speed><course>80.566093</course><hAcc>0.890867</hAcc><vAcc>0.689094</vAcc></extensions></trkpt>
      <trkpt lon="-3.325358" lat="54.571757"><ele>111.392815</ele><time>2021-08-12T12:58:46Z</time><extensions><speed>1.603939</speed><course>80.566109</course><hAcc>0.891611</hAcc><vAcc>0.689786</vAcc></extensions></trkpt>
      <trkpt lon="-3.325359" lat="54.571771"><ele>111.308403</ele><time>2021-08-12T12:58:47Z</time><extensions><speed>1.602195</speed><course>80.566093</course><hAcc>0.891603</hAcc><vAcc>0.690127</vAcc></extensions></trkpt>
      <trkpt lon="-3.325360" lat="54.571785"><ele>111.219040</ele><time>2021-08-12T12:58:48Z</time><extensions><speed>1.601108</speed><course>80.566093</course><hAcc>0.890691</hAcc><vAcc>0.689833</vAcc></extensions></trkpt>
      <trkpt lon="-3.325360" lat="54.571800"><ele>111.125214</ele><time>2021-08-12T12:58:49Z</time><extensions><speed>1.600048</speed><course>80.566093</course><hAcc>0.889043</hAcc><vAcc>0.688936</vAcc></extensions></trkpt>
      <trkpt lon="-3.325360" lat="54.571814"><ele>111.027275</ele><time>2021-08-12T12:58:50Z</time><extensions><speed>1.598771</speed><course>77.344681</course><hAcc>0.886952</hAcc><vAcc>0.687601</vAcc></extensions></trkpt>
      <trkpt lon="-3.325359" lat="54.571828"><ele>110.925896</ele><time>2021-08-12T12:58:51Z</time><extensions><speed>1.597403</speed><course>77.923714</course><hAcc>0.884724</hAcc><vAcc>0.686023</vAcc></extensions></trkpt>
      <trkpt lon="-3.325358" lat="54.571843"><ele>110.821991</ele><time>2021-08-12T12:58:52Z</time><extensions><speed>1.596322</speed><course>87.073212</course><hAcc>0.882624</hAcc><vAcc>0.684396</vAcc></extensions></trkpt>
      <trkpt lon="-3.325356" lat="54.571857"><ele>110.716423</ele><time>2021-08-12T12:58:53Z</time><extensions><speed>1.596147</speed><course>79.233902</course><hAcc>0.880859</hAcc><vAcc>0.682911</vAcc></extensions></trkpt>
      <trkpt lon="-3.325354" lat="54.571871"><ele>110.609749</ele><time>2021-08-12T12:58:54Z</time><extensions><speed>1.597263</speed><course>96.572746</course><hAcc>0.879577</hAcc><vAcc>0.681755</vAcc></extensions></trkpt>
      <trkpt lon="-3.325352" lat="54.571886"><ele>110.502373</ele><time>2021-08-12T12:58:55Z</time><extensions><speed>1.599587</speed><course>86.920219</course><hAcc>0.878874</hAcc><vAcc>0.681099</vAcc></extensions></trkpt>
      <trkpt lon="-3.325349" lat="54.571900"><ele>110.394890</ele><time>2021-08-12T12:58:56Z</time><extensions><speed>1.602767</speed><course>76.786201</course><hAcc>0.878801</hAcc><vAcc>0.681069</vAcc></extensions></trkpt>
      <trkpt lon="-3.325346" lat="54.571914"><ele>110.288254</ele><time>2021-08-12T12:58:57Z</time><extensions><speed>1.606558</speed><course>77.162971</course><hAcc>0.879369</hAcc><vAcc>0.681725</vAcc></extensions></trkpt>
      <trkpt lon="-3.325342" lat="54.571928"><ele>110.184067</ele><time>2021-08-12T12:58:58Z</time><extensions><speed>1.610684</speed><course>69.604996</course><hAcc>0.880547</hAcc><vAcc>0.683060</vAcc></extensions></trkpt>
      <trkpt lon="-3.325338" lat="54.571943"><ele>110.084290</ele><time>2021-08-12T12:58:59Z</time><extensions><speed>1.614353</speed><course>76.115456</course><hAcc>0.882261</hAcc><vAcc>0.684984</vAcc></extensions></trkpt>
      <trkpt lon="-3.325333" lat="54.571957"><ele>109.990379</ele><time>2021-08-12T12:59:00Z</time><extensions><speed>1.617229</speed><course>83.646278</course><hAcc>0.884384</hAcc><vAcc>0.687325</vAcc></extensions></trkpt>
      <trkpt lon="-3.325329" lat="54.571971"><ele>109.903305</ele><time>2021-08-12T12:59:01Z</time><extensions><speed>1.619686</speed><course>76.408623</course><hAcc>0.886731</hAcc><vAcc>0.689847</vAcc></extensions></trkpt>
      <trkpt lon="-3.325323" lat="54.571986"><ele>109.823425</ele><time>2021-08-12T12:59:02Z</time><extensions><speed>1.621990</speed><course>79.439453</course><hAcc>0.889072</hAcc><vAcc>0.692294</vAcc></extensions></trkpt>
      <trkpt lon="-3.325318" lat="54.572000"><ele>109.749893</ele><time>2021-08-12T12:59:03Z</time><extensions><speed>1.624192</speed><course>75.300941</course><hAcc>0.891149</hAcc><vAcc>0.694435</vAcc></extensions></trkpt>
      <trkpt lon="-3.325312" lat="54.572014"><ele>109.681160</ele><time>2021-08-12T12:59:04Z</time><extensions><speed>1.626262</speed><course>76.126534</course><hAcc>0.892727</hAcc><vAcc>0.696133</vAcc></extensions></trkpt>
      <trkpt lon="-3.325305" lat="54.572028"><ele>109.616051</ele><time>2021-08-12T12:59:05Z</time><extensions><speed>1.628027</speed><course>75.233688</course><hAcc>0.893698</hAcc><vAcc>0.697432</vAcc></extensions></trkpt>
      <trkpt lon="-3.325298" lat="54.572042"><ele>109.554108</ele><time>2021-08-12T12:59:06Z</time><extensions><speed>1.629086</speed><course>81.891060</course><hAcc>0.894245</hAcc><vAcc>0.698702</vAcc></extensions></trkpt>
      <trkpt lon="-3.325291" lat="54.572056"><ele>109.495003</ele><time>2021-08-12T12:59:07Z</time><extensions><speed>1.629477</speed><course>78.263519</course><hAcc>0.895098</hAcc><vAcc>0.700819</vAcc></extensions></trkpt>
      <trkpt lon="-3.325283" lat="54.572070"><ele>109.437950</ele><time>2021-08-12T12:59:08Z</time><extensions><speed>1.629391</speed><course>74.907532</course><hAcc>0.897904</hAcc><vAcc>0.705394</vAcc></extensions></trkpt>
      <trkpt lon="-3.325275" lat="54.572084"><ele>109.381958</ele><time>2021-08-12T12:59:09Z</time><extensions><speed>1.629022</speed><course>84.941742</course><hAcc>0.905677</hAcc><vAcc>0.715029</vAcc></extensions></trkpt>
      <trkpt lon="-3.325266" lat="54.572098"><ele>109.326218</ele><time>2021-08-12T12:59:10Z</time><extensions><speed>1.628569</speed><course>73.584358</course><hAcc>0.923233</hAcc><vAcc>0.733486</vAcc></extensions></trkpt>
      <trkpt lon="-3.325257" lat="54.572111"><ele>109.270050</ele><time>2021-08-12T12:59:11Z</time><extensions><speed>1.628005</speed><course>96.346313</course><hAcc>0.957346</hAcc><vAcc>0.765607</vAcc></extensions></trkpt>
      <trkpt lon="-3.325241" lat="54.572124"><ele>109.322556</ele><time>2021-08-12T12:59:12Z</time><extensions><speed>1.556532</speed><course>74.967865</course><hAcc>0.920480</hAcc><vAcc>0.732675</vAcc></extensions></trkpt>
      <trkpt lon="-3.325227" lat="54.572135"><ele>109.283295</ele><time>2021-08-12T12:59:13Z</time><extensions><speed>1.553274</speed><course>75.133301</course><hAcc>0.902734</hAcc><vAcc>0.714928</vAcc></extensions></trkpt>
      <trkpt lon="-3.325212" lat="54.572146"><ele>109.246735</ele><time>2021-08-12T12:59:14Z</time><extensions><speed>1.549001</speed><course>66.099251</course><hAcc>0.895926</hAcc><vAcc>0.706846</vAcc></extensions></trkpt>
      <trkpt lon="-3.325197" lat="54.572157"><ele>109.213745</ele><time>2021-08-12T12:59:15Z</time><extensions><speed>1.543497</speed><course>81.237114</course><hAcc>0.894546</hAcc><vAcc>0.704209</vAcc></extensions></trkpt>
      <trkpt lon="-3.325182" lat="54.572168"><ele>109.184814</ele><time>2021-08-12T12:59:16Z</time><extensions><speed>1.536409</speed><course>80.566093</course><hAcc>0.895157</hAcc><vAcc>0.704133</vAcc></extensions></trkpt>
      <trkpt lon="-3.325166" lat="54.572178"><ele>109.159904</ele><time>2021-08-12T12:59:17Z</time><extensions><speed>1.526958</speed><course>80.566109</course><hAcc>0.895903</hAcc><vAcc>0.704868</vAcc></extensions></trkpt>
      <trkpt lon="-3.325150" lat="54.572188"><ele>109.138336</ele><time>2021-08-12T12:59:18Z</time><extensions><speed>1.514323</speed><course>80.566093</course><hAcc>0.895981</hAcc><vAcc>0.705489</vAcc></extensions></trkpt>
      <trkpt lon="-3.325134" lat="54.572198"><ele>109.118904</ele><time>2021-08-12T12:59:19Z</time><extensions><speed>1.498404</speed><course>80.566093</course><hAcc>0.895216</hAcc><vAcc>0.705608</vAcc></extensions></trkpt>
      <trkpt lon="-3.325118" lat="54.572207"><ele>109.100204</ele><time>2021-08-12T12:59:20Z</time><extensions><speed>1.480259</speed><course>80.566093</course><hAcc>0.893758</hAcc><vAcc>0.705157</vAcc></extensions></trkpt>
      <trkpt lon="-3.325101" lat="54.572217"><ele>109.080795</ele><time>2021-08-12T12:59:21Z</time><extensions><speed>1.461370</speed><course>77.344681</course><hAcc>0.891888</hAcc><vAcc>0.704232</vAcc></extensions></trkpt>
      <trkpt lon="-3.325085" lat="54.572225"><ele>109.059036</ele><time>2021-08-12T12:59:22Z</time><extensions><speed>1.442057</speed><course>77.923714</course><hAcc>0.889913</hAcc><vAcc>0.703005</vAcc></extensions></trkpt>
      <trkpt lon="-3.325069" lat="54.572234"><ele>109.033195</ele><time>2021-08-12T12:59:23Z</time><extensions><speed>1.421713</speed><course>87.073212</course><hAcc>0.888099</hAcc><vAcc>0.701661</vAcc></extensions></trkpt>
      <trkpt lon="-3.325052" lat="54.572242"><ele>109.001762</ele><time>2021-08-12T12:59:24Z</time><extensions><speed>1.399999</speed><course>79.233902</course><hAcc>0.886651</hAcc><vAcc>0.700357</vAcc></extensions></trkpt>
      <trkpt lon="-3.325036" lat="54.572251"><ele>108.963722</ele><time>2021-08-12T12:59:25Z</time><extensions><speed>1.377784</speed><course>96.572746</course><hAcc>0.885707</hAcc><vAcc>0.699204</vAcc></extensions></trkpt>
      <trkpt lon="-3.325020" lat="54.572258"><ele>108.918610</ele><time>2021-08-12T12:59:26Z</time><extensions><speed>1.356525</speed><course>86.920219</course><hAcc>0.885340</hAcc><vAcc>0.698262</vAcc></extensions></trkpt>
      <trkpt lon="-3.325004" lat="54.572266"><ele>108.866226</ele><time>2021-08-12T12:59:27Z</time><extensions><speed>1.336647</speed><course>76.786201</course><hAcc>0.885562</hAcc><vAcc>0.697557</vAcc></extensions></trkpt>
      <trkpt lon="-3.324988" lat="54.572274"><ele>108.806595</ele><time>2021-08-12T12:59:28Z</time><extensions><speed>1.317396</speed><course>77.162971</course><hAcc>0.886330</hAcc><vAcc>0.697084</vAcc></extensions></trkpt>
      <trkpt lon="-3.324972" lat="54.572281"><ele>108.740082</ele><time>2021-08-12T12:59:29Z</time><extensions><speed>1.297905</speed><course>69.604996</course><hAcc>0.887540</hAcc><vAcc>0.696804</vAcc></extensions></trkpt>
      <trkpt lon="-3.324956" lat="54.572288"><ele>108.666977</ele><time>2021-08-12T12:59:30Z</time><extensions><speed>1.278479</speed><course>76.115456</course><hAcc>0.889031</hAcc><vAcc>0.696640</vAcc></extensions></trkpt>
      <trkpt lon="-3.324941" lat="54.572295"><ele>108.586983</ele><time>2021-08-12T12:59:31Z</time><extensions><speed>1.259640</speed><course>83.646278</course><hAcc>0.890583</hAcc><vAcc>0.696476</vAcc></extensions></trkpt>
      <trkpt lon="-3.324925" lat="54.572302"><ele>108.499481</ele><time>2021-08-12T12:59:32Z</time><extensions><speed>1.241099</speed><course>76.408623</course><hAcc>0.891944</hAcc><vAcc>0.696187</vAcc></extensions></trkpt>
      <trkpt lon="-3.324910" lat="54.572309"><ele>108.403946</ele><time>2021-08-12T12:59:33Z</time><extensions><speed>1.222537</speed><course>79.439453</course><hAcc>0.892875</hAcc><vAcc>0.695688</vAcc></extensions></trkpt>
      <trkpt lon="-3.324895" lat="54.572315"><ele>108.300377</ele><time>2021-08-12T12:59:34Z</time><extensions><speed>1.204100</speed><course>75.300941</course><hAcc>0.893255</hAcc><vAcc>0.695029</vAcc></extensions></trkpt>
      <trkpt lon="-3.324881" lat="54.572322"><ele>108.189301</ele><time>2021-08-12T12:59:35Z</time><extensions><speed>1.186145</speed><course>76.126534</course><hAcc>0.893243</hAcc><vAcc>0.694526</vAcc></extensions></trkpt>
      <trkpt lon="-3.324866" lat="54.572328"><ele>108.071579</ele><time>2021-08-12T12:59:36Z</time><extensions><speed>1.167814</speed><course>75.233688</course><hAcc>0.893536</hAcc><vAcc>0.694954</vAcc></extensions></trkpt>
      <trkpt lon="-3.324852" lat="54.572334"><ele>107.948303</ele><time>2021-08-12T12:59:37Z</time><extensions><speed>1.147845</speed><course>81.891060</course><hAcc>0.895744</hAcc><vAcc>0.697796</vAcc></extensions></trkpt>
      <trkpt lon="-3.324838" lat="54.572341"><ele>107.820702</ele><time>2021-08-12T12:59:38Z</time><extensions><speed>1.126207</speed><course>78.263519</course><hAcc>0.902848</hAcc><vAcc>0.705519</vAcc></extensions></trkpt>
      <trkpt lon="-3.324824" lat="54.572347"><ele>107.689796</ele><time>2021-08-12T12:59:39Z</time><extensions><speed>1.103782</speed><course>74.907532</course><hAcc>0.919647</hAcc><vAcc>0.721782</vAcc></extensions></trkpt>
      <trkpt lon="-3.324811" lat="54.572353"><ele>107.556236</ele><time>2021-08-12T12:59:40Z</time><extensions><speed>1.082105</speed><course>84.941742</course><hAcc>0.952932</hAcc><vAcc>0.751387</vAcc></extensions></trkpt>
      <trkpt lon="-3.324807" lat="54.572357"><ele>107.376144</ele><time>2021-08-12T12:59:41Z</time><extensions><speed>0.832790</speed><course>74.967865</course><hAcc>0.915867</hAcc><vAcc>0.717718</vAcc></extensions></trkpt>
      <trkpt lon="-3.324804" lat="54.572365"><ele>107.259666</ele><time>2021-08-12T12:59:42Z</time><extensions><speed>0.831699</speed><course>75.133301</course><hAcc>0.897885</hAcc><vAcc>0.698855</vAcc></extensions></trkpt>
      <trkpt lon="-3.324801" lat="54.572372"><ele>107.143661</ele><time>2021-08-12T12:59:43Z</time><extensions><speed>0.839070</speed><course>66.099251</course><hAcc>0.890691</hAcc><vAcc>0.689107</vAcc></extensions></trkpt>
      <trkpt lon="-3.324800" lat="54.572379"><ele>107.028069</ele><time>2021-08-12T12:59:44Z</time><extensions><speed>0.855797</speed><course>81.237114</course><hAcc>0.888790</hAcc><vAcc>0.684360</vAcc></extensions></trkpt>
      <trkpt lon="-3.324800" lat="54.572387"><ele>106.912865</ele><time>2021-08-12T12:59:45Z</time><extensions><speed>0.881064</speed><course>80.566093</course><hAcc>0.888769</hAcc><vAcc>0.681857</vAcc></extensions></trkpt>
      <trkpt lon="-3.324801" lat="54.572395"><ele>106.797836</ele><time>2021-08-12T12:59:46Z</time><extensions><speed>0.913380</speed><course>80.566109</course><hAcc>0.888800</hAcc><vAcc>0.679971</vAcc></extensions></trkpt>
      <trkpt lon="-3.324803" lat="54.572404"><ele>106.682495</ele><time>2021-08-12T12:59:47Z</time><extensions><speed>0.950991</speed><course>80.566093</course><hAcc>0.888108</hAcc><vAcc>0.677888</vAcc></extensions></trkpt>
      <trkpt lon="-3.324805" lat="54.572412"><ele>106.566353</ele><time>2021-08-12T12:59:48Z</time><extensions><speed>0.992095</speed><course>80.566093</course><hAcc>0.886533</hAcc><vAcc>0.675310</vAcc></extensions></trkpt>
      <trkpt lon="-3.324808" lat="54.572421"><ele>106.449303</ele><time>2021-08-12T12:59:49Z</time><extensions><speed>1.034921</speed><course>80.566093</course><hAcc>0.884231</hAcc><vAcc>0.672229</vAcc></extensions></trkpt>
      <trkpt lon="-3.324812" lat="54.572430"><ele>106.331528</ele><time>2021-08-12T12:59:50Z</time><extensions><speed>1.077730</speed><course>77.344681</course><hAcc>0.881480</hAcc><vAcc>0.668773</vAcc></extensions></trkpt>
      <trkpt lon="-3.324816" lat="54.572440"><ele>106.213158</ele><time>2021-08-12T12:59:51Z</time><extensions><speed>1.119668</speed><course>77.923714</course><hAcc>0.878561</hAcc><vAcc>0.665108</vAcc></extensions></trkpt>
      <trkpt lon="-3.324821" lat="54.572450"><ele>106.094299</ele><time>2021-08-12T12:59:52Z</time><extensions><speed>1.161020</speed><course>87.073212</course><hAcc>0.875714</hAcc><vAcc>0.661414</vAcc></extensions></trkpt>
      <trkpt lon="-3.324825" lat="54.572460"><ele>105.975220</ele><time>2021-08-12T12:59:53Z</time><extensions><speed>1.201943</speed><course>79.233902</course><hAcc>0.873113</hAcc><vAcc>0.657879</vAcc></extensions></trkpt>
      <trkpt lon="-3.324830" lat="54.572471"><ele>105.856506</ele><time>2021-08-12T12:59:54Z</time><extensions><speed>1.241975</speed><course>96.572746</course><hAcc>0.870874</hAcc><vAcc>0.654691</vAcc></extensions></trkpt>
      <trkpt lon="-3.324835" lat="54.572482"><ele>105.739021</ele><time>2021-08-12T12:59:55Z</time><extensions><speed>1.280493</speed><course>86.920219</course><hAcc>0.869053</hAcc><vAcc>0.652012</vAcc></extensions></trkpt>
      <trkpt lon="-3.324840" lat="54.572493"><ele>105.623817</ele><time>2021-08-12T12:59:56Z</time><extensions><speed>1.317188</speed><course>76.786201</course><hAcc>0.867664</hAcc><vAcc>0.649954</vAcc></extensions></trkpt>
      <trkpt lon="-3.324846" lat="54.572504"><ele>105.512085</ele><time>2021-08-12T12:59:57Z</time><extensions><speed>1.352205</speed><course>77.162971</course><hAcc>0.866683</hAcc><vAcc>0.648562</vAcc></extensions></trkpt>
      <trkpt lon="-3.324851" lat="54.572516"><ele>105.405083</ele><time>2021-08-12T12:59:58Z</time><extensions><speed>1.386023</speed><course>69.604996</course><hAcc>0.866063</hAcc><vAcc>0.647824</vAcc></extensions></trkpt>
      <trkpt lon="-3.324857" lat="54.572528"><ele>105.304070</ele><time>2021-08-12T12:59:59Z</time><extensions><speed>1.419194</speed><course>76.115456</course><hAcc>0.865754</hAcc><vAcc>0.647705</vAcc></extensions></trkpt>
      <trkpt lon="-3.324863" lat="54.572541"><ele>105.210342</ele><time>2021-08-12T13:00:00Z</time><extensions><speed>1.452388</speed><course>83.646278</course><hAcc>0.865703</hAcc><vAcc>0.648159</vAcc></extensions></trkpt>
      <trkpt lon="-3.324870" lat="54.572554"><ele>105.125519</ele><time>2021-08-12T13:00:01Z</time><extensions><speed>1.486252</speed><course>76.408623</course><hAcc>0.865864</hAcc><vAcc>0.649135</vAcc></extensions></trkpt>
      <trkpt lon="-3.324877" lat="54.572566"><ele>105.051666</ele><time>2021-08-12T13:00:02Z</time><extensions><speed>1.520217</speed><course>79.439453</course><hAcc>0.866196</hAcc><vAcc>0.650567</vAcc></extensions></trkpt>
      <trkpt lon="-3.324884" lat="54.572580"><ele>104.991035</ele><time>2021-08-12T13:00:03Z</time><extensions><speed>1.553418</speed><course>75.300941</course><hAcc>0.866658</hAcc><vAcc>0.652371</vAcc></extensions></trkpt>
      <trkpt lon="-3.324892" lat="54.572593"><ele>104.945320</ele><time>2021-08-12T13:00:04Z</time><extensions><speed>1.585975</speed><course>76.126534</course><hAcc>0.867216</hAcc><vAcc>0.654466</vAcc></extensions></trkpt>
      <trkpt lon="-3.324900" lat="54.572607"><ele>104.915573</ele><time>2021-08-12T13:00:05Z</time><extensions><speed>1.617017</speed><course>75.233688</course><hAcc>0.867842</hAcc><vAcc>0.656777</vAcc></extensions></trkpt>
      <trkpt lon="-3.324908" lat="54.572620"><ele>104.902832</ele><time>2021-08-12T13:00:06Z</time><extensions><speed>1.644950</speed><course>81.891060</course><hAcc>0.868516</hAcc><vAcc>0.659247</vAcc></extensions></trkpt>
      <trkpt lon="-3.324916" lat="54.572634"><ele>104.908020</ele><time>2021-08-12T13:00:07Z</time><extensions><speed>1.669187</speed><course>78.263519</course><hAcc>0.869219</hAcc><vAcc>0.661825</vAcc></extensions></trkpt>
      <trkpt lon="-3.324925" lat="54.572649"><ele>104.931381</ele><time>2021-08-12T13:00:08Z</time><extensions><speed>1.689448</speed><course>74.907532</course><hAcc>0.869936</hAcc><vAcc>0.664461</vAcc></extensions></trkpt>
      <trkpt lon="-3.324933" lat="54.572663"><ele>104.972374</ele><time>2021-08-12T13:00:09Z</time><extensions><speed>1.706033</speed><course>84.941742</course><hAcc>0.870649</hAcc><vAcc>0.667091</vAcc></extensions></trkpt>
      <trkpt lon="-3.324942" lat="54.572678"><ele>105.029694</ele><time>2021-08-12T13:00:10Z</time><extensions><speed>1.719212</speed><course>73.584358</course><hAcc>0.871342</hAcc><vAcc>0.669658</vAcc></extensions></trkpt>
      <trkpt lon="-3.324950" lat="54.572693"><ele>105.101250</ele><time>2021-08-12T13:00:11Z</time><extensions><speed>1.728424</speed><course>96.346313</course><hAcc>0.872000</hAcc><vAcc>0.672112</vAcc></extensions></trkpt>
      <trkpt lon="-3.324957" lat="54.572707"><ele>105.184280</ele><time>2021-08-12T13:00:12Z</time><extensions><speed>1.733415</speed><course>87.208282</course><hAcc>0.872610</hAcc><vAcc>0.674409</vAcc></extensions></trkpt>
      <trkpt lon="-3.324964" lat="54.572723"><ele>105.275826</ele><time>2021-08-12T13:00:13Z</time><extensions><speed>1.734407</speed><course>71.034035</course><hAcc>0.873157</hAcc><vAcc>0.676495</vAcc></extensions></trkpt>
      <trkpt lon="-3.324970" lat="54.572738"><ele>105.373543</ele><time>2021-08-12T13:00:14Z</time><extensions><speed>1.731705</speed><course>74.315559</course><hAcc>0.873629</hAcc><vAcc>0.678307</vAcc></extensions></trkpt>
      <trkpt lon="-3.324976" lat="54.572753"><ele>105.475914</ele><time>2021-08-12T13:00:15Z</time><extensions><speed>1.725936</speed><course>82.074326</course><hAcc>0.874012</hAcc><vAcc>0.679783</vAcc></extensions></trkpt>
      <trkpt lon="-3.324981" lat="54.572768"><ele>105.581703</ele><time>2021-08-12T13:00:16Z</time><extensions><speed>1.717954</speed><course>78.798851</course><hAcc>0.874299</hAcc><vAcc>0.680873</vAcc></extensions></trkpt>
      <trkpt lon="-3.324986" lat="54.572783"><ele>105.689423</ele><time>2021-08-12T13:00:17Z</time><extensions><speed>1.708690</speed><course>71.049065</course><hAcc>0.874487</hAcc><vAcc>0.681546</vAcc></extensions></trkpt>
      <trkpt lon="-3.324989" lat="54.572798"><ele>105.797424</ele><time>2021-08-12T13:00:18Z</time><extensions><speed>1.699144</speed><course>66.417450</course><hAcc>0.874580</hAcc><vAcc>0.681796</vAcc></extensions></trkpt>
      <trkpt lon="-3.324993" lat="54.572813"><ele>105.904030</ele><time>2021-08-12T13:00:19Z</time><extensions><speed>1.690318</speed><course>67.881187</course><hAcc>0.874590</hAcc><vAcc>0.681660</vAcc></extensions></trkpt>
      <trkpt lon="-3.324996" lat="54.572828"><ele>106.007355</ele><time>2021-08-12T13:00:20Z</time><extensions><speed>1.682931</speed><course>73.946594</course><hAcc>0.874536</hAcc><vAcc>0.681215</vAcc></extensions></trkpt>
      <trkpt lon="-3.324998" lat="54.572843"><ele>106.105354</ele><time>2021-08-12T13:00:21Z</time><extensions><speed>1.677268</speed><course>66.868568</course><hAcc>0.874446</hAcc><vAcc>0.680585</vAcc></extensions></trkpt>
      <trkpt lon="-3.325000" lat="54.572858"><ele>106.196106</ele><time>2021-08-12T13:00:22Z</time><extensions><speed>1.673317</speed><course>57.370388</course><hAcc>0.874354</hAcc><vAcc>0.679921</vAcc></extensions></trkpt>
      <trkpt lon="-3.325002" lat="54.572873"><ele>106.278191</ele><time>2021-08-12T13:00:24Z</time><extensions><speed>1.670712</speed><course>72.859169</course><hAcc>0.874279</hAcc><vAcc>0.679359</vAcc></extensions></trkpt>
      <trkpt lon="-3.325004" lat="54.572888"><ele>106.350288</ele><time>2021-08-12T13:00:25Z</time><extensions><speed>1.668449</speed><course>73.476959</course><hAcc>0.874256</hAcc><vAcc>0.679022</vAcc></extensions></trkpt>
      <trkpt lon="-3.325006" lat="54.572903"><ele>106.411415</ele><time>2021-08-12T13:00:26Z</time><extensions><speed>1.665300</speed><course>70.985191</course><hAcc>0.874336</hAcc><vAcc>0.678992</vAcc></extensions></trkpt>
      <trkpt lon="-3.325007" lat="54.572918"><ele>106.460762</ele><time>2021-08-12T13:00:27Z</time><extensions><speed>1.660671</speed><course>67.094063</course><hAcc>0.874547</hAcc><vAcc>0.679279</vAcc></extensions></trkpt>
      <trkpt lon="-3.325009" lat="54.572933"><ele>106.497917</ele><time>2021-08-12T13:00:27Z</time><extensions><speed>1.654780</speed><course>63.802017</course><hAcc>0.874936</hAcc><vAcc>0.679861</vAcc></extensions></trkpt>
      <trkpt lon="-3.325010" lat="54.572948"><ele>106.523193</ele><time>2021-08-12T13:00:28Z</time><extensions><speed>1.648234</speed><course>59.738853</course><hAcc>0.875532</hAcc><vAcc>0.680685</vAcc></extensions></trkpt>
      <trkpt lon="-3.325012" lat="54.572963"><ele>106.537537</ele><time>2021-08-12T13:00:29Z</time><extensions><speed>1.641487</speed><course>64.752533</course><hAcc>0.876349</hAcc><vAcc>0.681696</vAcc></extensions></trkpt>
      <trkpt lon="-3.325013" lat="54.572977"><ele>106.542755</ele><time>2021-08-12T13:00:30Z</time><extensions><speed>1.634693</speed><course>62.678837</course><hAcc>0.877420</hAcc><vAcc>0.682868</vAcc></extensions></trkpt>
      <trkpt lon="-3.325014" lat="54.572992"><ele>106.541321</ele><time>2021-08-12T13:00:31Z</time><extensions><speed>1.627764</speed><course>67.622025</course><hAcc>0.878770</hAcc><vAcc>0.684179</vAcc></extensions></trkpt>
      <trkpt lon="-3.325015" lat="54.573007"><ele>106.536011</ele><time>2021-08-12T13:00:32Z</time><extensions><speed>1.620701</speed><course>76.998230</course><hAcc>0.880404</hAcc><vAcc>0.685589</vAcc></extensions></trkpt>
      <trkpt lon="-3.325017" lat="54.573021"><ele>106.529861</ele><time>2021-08-12T13:00:33Z</time><extensions><speed>1.613769</speed><course>71.279175</course><hAcc>0.882295</hAcc><vAcc>0.687031</vAcc></extensions></trkpt>
      <trkpt lon="-3.325018" lat="54.573036"><ele>106.525917</ele><time>2021-08-12T13:00:34Z</time><extensions><speed>1.607170</speed><course>66.215858</course><hAcc>0.884371</hAcc><vAcc>0.688405</vAcc></extensions></trkpt>
      <trkpt lon="-3.325019" lat="54.573050"><ele>106.526474</ele><time>2021-08-12T13:00:35Z</time><extensions><speed>1.601021</speed><course>65.869171</course><hAcc>0.886508</hAcc><vAcc>0.689596</vAcc></extensions></trkpt>
      <trkpt lon="-3.325021" lat="54.573064"><ele>106.532707</ele><time>2021-08-12T13:00:36Z</time><extensions><speed>1.595671</speed><course>67.480362</course><hAcc>0.888530</hAcc><vAcc>0.690486</vAcc></extensions></trkpt>
      <trkpt lon="-3.325022" lat="54.573079"><ele>106.544823</ele><time>2021-08-12T13:00:37Z</time><extensions><speed>1.591332</speed><course>62.467888</course><hAcc>0.890229</hAcc><vAcc>0.690983</vAcc></extensions></trkpt>
      <trkpt lon="-3.325025" lat="54.573093"><ele>106.562355</ele><time>2021-08-12T13:00:38Z</time><extensions><speed>1.588049</speed><course>57.403885</course><hAcc>0.891415</hAcc><vAcc>0.691074</vAcc></extensions></trkpt>
      <trkpt lon="-3.325027" lat="54.573107"><ele>106.584648</ele><time>2021-08-12T13:00:39Z</time><extensions><speed>1.586127</speed><course>56.104736</course><hAcc>0.892014</hAcc><vAcc>0.690916</vAcc></extensions></trkpt>
      <trkpt lon="-3.325030" lat="54.573121"><ele>106.611214</ele><time>2021-08-12T13:00:40Z</time><extensions><speed>1.586208</speed><course>57.135769</course><hAcc>0.892236</hAcc><vAcc>0.690974</vAcc></extensions></trkpt>
      <trkpt lon="-3.325034" lat="54.573135"><ele>106.641243</ele><time>2021-08-12T13:00:41Z</time><extensions><speed>1.588336</speed><course>59.466648</course><hAcc>0.892835</hAcc><vAcc>0.692212</vAcc></extensions></trkpt>
      <trkpt lon="-3.325039" lat="54.573149"><ele>106.673462</ele><time>2021-08-12T13:00:42Z</time><extensions><speed>1.591384</speed><course>56.466339</course><hAcc>0.895481</hAcc><vAcc>0.696327</vAcc></extensions></trkpt>
      <trkpt lon="-3.325044" lat="54.573163"><ele>106.706680</ele><time>2021-08-12T13:00:43Z</time><extensions><speed>1.594208</speed><course>61.082169</course><hAcc>0.903205</hAcc><vAcc>0.705994</vAcc></extensions></trkpt>
      <trkpt lon="-3.325050" lat="54.573177"><ele>106.740128</ele><time>2021-08-12T13:00:44Z</time><extensions><speed>1.596360</speed><course>63.000797</course><hAcc>0.920840</hAcc><vAcc>0.725018</vAcc></extensions></trkpt>
      <trkpt lon="-3.325057" lat="54.573191"><ele>106.773689</ele><time>2021-08-12T13:00:45Z</time><extensions><speed>1.597786</speed><course>58.373146</course><hAcc>0.955167</hAcc><vAcc>0.758224</vAcc></extensions></trkpt>
      <trkpt lon="-3.325068" lat="54.573203"><ele>106.846542</ele><time>2021-08-12T13:00:46Z</time><extensions><speed>1.569207</speed><course>74.967865</course><hAcc>0.917678</hAcc><vAcc>0.724097</vAcc></extensions></trkpt>
      <trkpt lon="-3.325082" lat="54.573214"><ele>106.844971</ele><time>2021-08-12T13:00:47Z</time><extensions><speed>1.558549</speed><course>75.133301</course><hAcc>0.901038</hAcc><vAcc>0.710073</vAcc></extensions></trkpt>
      <trkpt lon="-3.325097" lat="54.573225"><ele>106.847626</ele><time>2021-08-12T13:00:48Z</time><extensions><speed>1.547446</speed><course>66.099251</course><hAcc>0.895195</hAcc><vAcc>0.705250</vAcc></extensions></trkpt>
      <trkpt lon="-3.325112" lat="54.573236"><ele>106.854980</ele><time>2021-08-12T13:00:49Z</time><extensions><speed>1.535666</speed><course>81.237114</course><hAcc>0.894621</hAcc><vAcc>0.705360</vAcc></extensions></trkpt>
      <trkpt lon="-3.325128" lat="54.573246"><ele>106.866974</ele><time>2021-08-12T13:00:50Z</time><extensions><speed>1.522985</speed><course>80.566093</course><hAcc>0.895887</hAcc><vAcc>0.707541</vAcc></extensions></trkpt>
      <trkpt lon="-3.325144" lat="54.573256"><ele>106.883369</ele><time>2021-08-12T13:00:51Z</time><extensions><speed>1.509770</speed><course>80.566109</course><hAcc>0.897153</hAcc><vAcc>0.710086</vAcc></extensions></trkpt>
      <trkpt lon="-3.325161" lat="54.573265"><ele>106.903854</ele><time>2021-08-12T13:00:52Z</time><extensions><speed>1.496817</speed><course>80.566093</course><hAcc>0.897629</hAcc><vAcc>0.712124</vAcc></extensions></trkpt>
      <trkpt lon="-3.325177" lat="54.573275"><ele>106.927734</ele><time>2021-08-12T13:00:53Z</time><extensions><speed>1.485472</speed><course>80.566093</course><hAcc>0.897145</hAcc><vAcc>0.713323</vAcc></extensions></trkpt>
      <trkpt lon="-3.325194" lat="54.573283"><ele>106.953857</ele><time>2021-08-12T13:00:54Z</time><extensions><speed>1.476910</speed><course>80.566093</course><hAcc>0.895848</hAcc><vAcc>0.713670</vAcc></extensions></trkpt>
      <trkpt lon="-3.325212" lat="54.573292"><ele>106.980965</ele><time>2021-08-12T13:00:55Z</time><extensions><speed>1.471552</speed><course>77.344681</course><hAcc>0.894012</hAcc><vAcc>0.713316</vAcc></extensions></trkpt>
      <trkpt lon="-3.325230" lat="54.573300"><ele>107.007599</ele><time>2021-08-12T13:00:56Z</time><extensions><speed>1.469471</speed><course>77.923714</course><hAcc>0.891918</hAcc><vAcc>0.712471</vAcc></extensions></trkpt>
      <trkpt lon="-3.325248" lat="54.573308"><ele>107.032204</ele><time>2021-08-12T13:00:57Z</time><extensions><speed>1.470220</speed><course>87.073212</course><hAcc>0.889804</hAcc><vAcc>0.711344</vAcc></extensions></trkpt>
      <trkpt lon="-3.325266" lat="54.573316"><ele>107.053612</ele><time>2021-08-12T13:00:58Z</time><extensions><speed>1.472615</speed><course>79.233902</course><hAcc>0.887840</hAcc><vAcc>0.710111</vAcc></extensions></trkpt>
      <trkpt lon="-3.325285" lat="54.573323"><ele>107.071404</ele><time>2021-08-12T13:00:59Z</time><extensions><speed>1.475460</speed><course>96.572746</course><hAcc>0.886127</hAcc><vAcc>0.708899</vAcc></extensions></trkpt>
      <trkpt lon="-3.325305" lat="54.573330"><ele>107.085747</ele><time>2021-08-12T13:01:00Z</time><extensions><speed>1.478389</speed><course>86.920219</course><hAcc>0.884709</hAcc><vAcc>0.707791</vAcc></extensions></trkpt>
      <trkpt lon="-3.325324" lat="54.573337"><ele>107.097061</ele><time>2021-08-12T13:01:01Z</time><extensions><speed>1.481340</speed><course>76.786201</course><hAcc>0.883586</hAcc><vAcc>0.706829</vAcc></extensions></trkpt>
      <trkpt lon="-3.325344" lat="54.573344"><ele>107.106110</ele><time>2021-08-12T13:01:02Z</time><extensions><speed>1.484022</speed><course>77.162971</course><hAcc>0.882733</hAcc><vAcc>0.706026</vAcc></extensions></trkpt>
      <trkpt lon="-3.325364" lat="54.573351"><ele>107.113991</ele><time>2021-08-12T13:01:03Z</time><extensions><speed>1.486067</speed><course>69.604996</course><hAcc>0.882111</hAcc><vAcc>0.705377</vAcc></extensions></trkpt>
      <trkpt lon="-3.325384" lat="54.573357"><ele>107.121536</ele><time>2021-08-12T13:01:04Z</time><extensions><speed>1.487708</speed><course>76.115456</course><hAcc>0.881672</hAcc><vAcc>0.704865</vAcc></extensions></trkpt>
      <trkpt lon="-3.325404" lat="54.573363"><ele>107.128906</ele><time>2021-08-12T13:01:05Z</time><extensions><speed>1.489900</speed><course>83.646278</course><hAcc>0.881375</hAcc><vAcc>0.704470</vAcc></extensions></trkpt>
      <trkpt lon="-3.325425" lat="54.573369"><ele>107.136032</ele><time>2021-08-12T13:01:06Z</time><extensions><speed>1.493465</speed><course>76.408623</course><hAcc>0.881180</hAcc><vAcc>0.704171</vAcc></extensions></trkpt>
      <trkpt lon="-3.325446" lat="54.573375"><ele>107.143112</ele><time>2021-08-12T13:01:07Z</time><extensions><speed>1.498797</speed><course>79.439453</course><hAcc>0.881057</hAcc><vAcc>0.703948</vAcc></extensions></trkpt>
      <trkpt lon="-3.325467" lat="54.573381"><ele>107.150589</ele><time>2021-08-12T13:01:08Z</time><extensions><speed>1.506113</speed><course>75.300941</course><hAcc>0.880981</hAcc><vAcc>0.703786</vAcc></extensions></trkpt>
      <trkpt lon="-3.325488" lat="54.573386"><ele>107.158821</ele><time>2021-08-12T13:01:09Z</time><extensions><speed>1.515178</speed><course>76.126534</course><hAcc>0.880935</hAcc><vAcc>0.703668</vAcc></extensions></trkpt>
      <trkpt lon="-3.325510" lat="54.573392"><ele>107.168007</ele><time>2021-08-12T13:01:10Z</time><extensions><speed>1.524856</speed><course>75.233688</course><hAcc>0.880904</hAcc><vAcc>0.703579</vAcc></extensions></trkpt>
      <trkpt lon="-3.325532" lat="54.573397"><ele>107.178337</ele><time>2021-08-12T13:01:11Z</time><extensions><speed>1.534161</speed><course>81.891060</course><hAcc>0.880881</hAcc><vAcc>0.703504</vAcc></extensions></trkpt>
      <trkpt lon="-3.325554" lat="54.573402"><ele>107.190224</ele><time>2021-08-12T13:01:12Z</time><extensions><speed>1.542695</speed><course>78.263519</course><hAcc>0.880858</hAcc><vAcc>0.703432</vAcc></extensions></trkpt>
      <trkpt lon="-3.325576" lat="54.573407"><ele>107.204529</ele><time>2021-08-12T13:01:13Z</time><extensions><speed>1.550302</speed><course>74.907532</course><hAcc>0.880829</hAcc><vAcc>0.703347</vAcc></extensions></trkpt>
      <trkpt lon="-3.325599" lat="54.573412"><ele>107.222527</ele><time>2021-08-12T13:01:14Z</time><extensions><speed>1.556704</speed><course>84.941742</course><hAcc>0.880789</hAcc><vAcc>0.703237</vAcc></extensions></trkpt>
      <trkpt lon="-3.325621" lat="54.573416"><ele>107.245430</ele><time>2021-08-12T13:01:15Z</time><extensions><speed>1.561409</speed><course>73.584358</course><hAcc>0.880731</hAcc><vAcc>0.703084</vAcc></extensions></trkpt>
      <trkpt lon="-3.325644" lat="54.573421"><ele>107.274139</ele><time>2021-08-12T13:01:16Z</time><extensions><speed>1.563883</speed><course>96.346313</course><hAcc>0.880649</hAcc><vAcc>0.702868</vAcc></extensions></trkpt>
      <trkpt lon="-3.325667" lat="54.573425"><ele>107.309135</ele><time>2021-08-12T13:01:17Z</time><extensions><speed>1.563432</speed><course>87.208282</course><hAcc>0.880535</hAcc><vAcc>0.702566</vAcc></extensions></trkpt>
      <trkpt lon="-3.325690" lat="54.573429"><ele>107.350250</ele><time>2021-08-12T13:01:18Z</time><extensions><speed>1.559772</speed><course>71.034035</course><hAcc>0.880382</hAcc><vAcc>0.702149</vAcc></extensions></trkpt>
      <trkpt lon="-3.325713" lat="54.573434"><ele>107.396568</ele><time>2021-08-12T13:01:19Z</time><extensions><speed>1.553374</speed><course>74.315559</course><hAcc>0.880182</hAcc><vAcc>0.701584</vAcc></extensions></trkpt>
      <trkpt lon="-3.325736" lat="54.573438"><ele>107.446815</ele><time>2021-08-12T13:01:20Z</time><extensions><speed>1.545225</speed><course>82.074326</course><hAcc>0.879928</hAcc><vAcc>0.700836</vAcc></extensions></trkpt>
      <trkpt lon="-3.325759" lat="54.573442"><ele>107.499977</ele><time>2021-08-12T13:01:21Z</time><extensions><speed>1.536486</speed><course>78.798851</course><hAcc>0.879614</hAcc><vAcc>0.699872</vAcc></extensions></trkpt>
      <trkpt lon="-3.325782" lat="54.573446"><ele>107.555450</ele><time>2021-08-12T13:01:22Z</time><extensions><speed>1.529001</speed><course>71.049065</course><hAcc>0.879241</hAcc><vAcc>0.698661</vAcc></extensions></trkpt>
      <trkpt lon="-3.325804" lat="54.573450"><ele>107.612808</ele><time>2021-08-12T13:01:23Z</time><extensions><speed>1.524648</speed><course>66.417450</course><hAcc>0.878813</hAcc><vAcc>0.697185</vAcc></extensions></trkpt>
      <trkpt lon="-3.325827" lat="54.573453"><ele>107.671410</ele><time>2021-08-12T13:01:24Z</time><extensions><speed>1.524381</speed><course>67.881187</course><hAcc>0.878340</hAcc><vAcc>0.695449</vAcc></extensions></trkpt>
      <trkpt lon="-3.325850" lat="54.573457"><ele>107.730247</ele><time>2021-08-12T13:01:25Z</time><extensions><speed>1.528828</speed><course>73.946594</course><hAcc>0.877840</hAcc><vAcc>0.693495</vAcc></extensions></trkpt>
      <trkpt lon="-3.325873" lat="54.573460"><ele>107.788109</ele><time>2021-08-12T13:01:26Z</time><extensions><speed>1.538228</speed><course>66.868568</course><hAcc>0.877335</hAcc><vAcc>0.691414</vAcc></extensions></trkpt>
      <trkpt lon="-3.325896" lat="54.573464"><ele>107.843796</ele><time>2021-08-12T13:01:27Z</time><extensions><speed>1.552132</speed><course>57.370388</course><hAcc>0.876857</hAcc><vAcc>0.689344</vAcc></extensions></trkpt>
      <trkpt lon="-3.325919" lat="54.573467"><ele>107.896461</ele><time>2021-08-12T13:01:28Z</time><extensions><speed>1.569589</speed><course>72.859169</course><hAcc>0.876437</hAcc><vAcc>0.687464</vAcc></extensions></trkpt>
      <trkpt lon="-3.325943" lat="54.573470"><ele>107.945854</ele><time>2021-08-12T13:01:29Z</time><extensions><speed>1.588994</speed><course>73.476959</course><hAcc>0.876108</hAcc><vAcc>0.685960</vAcc></extensions></trkpt>
      <trkpt lon="-3.325967" lat="54.573473"><ele>107.992065</ele><time>2021-08-12T13:01:30Z</time><extensions><speed>1.608898</speed><course>70.985191</course><hAcc>0.875899</hAcc><vAcc>0.684990</vAcc></extensions></trkpt>
      <trkpt lon="-3.325992" lat="54.573476"><ele>108.035233</ele><time>2021-08-12T13:01:31Z</time><extensions><speed>1.628271</speed><course>67.094063</course><hAcc>0.875827</hAcc><vAcc>0.684656</vAcc></extensions></trkpt>
      <trkpt lon="-3.326017" lat="54.573479"><ele>108.075691</ele><time>2021-08-12T13:01:32Z</time><extensions><speed>1.646585</speed><course>63.802017</course><hAcc>0.875899</hAcc><vAcc>0.684979</vAcc></extensions></trkpt>
      <trkpt lon="-3.326042" lat="54.573482"><ele>108.113846</ele><time>2021-08-12T13:01:33Z</time><extensions><speed>1.663524</speed><course>59.738853</course><hAcc>0.876104</hAcc><vAcc>0.685901</vAcc></extensions></trkpt>
      <trkpt lon="-3.326067" lat="54.573485"><ele>108.149605</ele><time>2021-08-12T13:01:34Z</time><extensions><speed>1.677933</speed><course>64.752533</course><hAcc>0.876423</hAcc><vAcc>0.687303</vAcc></extensions></trkpt>
      <trkpt lon="-3.326092" lat="54.573488"><ele>108.182190</ele><time>2021-08-12T13:01:35Z</time><extensions><speed>1.688688</speed><course>62.678837</course><hAcc>0.876829</hAcc><vAcc>0.689041</vAcc></extensions></trkpt>
      <trkpt lon="-3.326118" lat="54.573492"><ele>108.210609</ele><time>2021-08-12T13:01:36Z</time><extensions><speed>1.695260</speed><course>67.622025</course><hAcc>0.877296</hAcc><vAcc>0.690969</vAcc></extensions></trkpt>
      <trkpt lon="-3.326144" lat="54.573495"><ele>108.234016</ele><time>2021-08-12T13:01:37Z</time><extensions><speed>1.697551</speed><course>76.998230</course><hAcc>0.877795</hAcc><vAcc>0.692962</vAcc></extensions></trkpt>
      <trkpt lon="-3.326169" lat="54.573498"><ele>108.251541</ele><time>2021-08-12T13:01:38Z</time><extensions><speed>1.696002</speed><course>71.279175</course><hAcc>0.878303</hAcc><vAcc>0.694917</vAcc></extensions></trkpt>
      <trkpt lon="-3.326195" lat="54.573501"><ele>108.262520</ele><time>2021-08-12T13:01:39Z</time><extensions><speed>1.691154</speed><course>66.215858</course><hAcc>0.878798</hAcc><vAcc>0.696760</vAcc></extensions></trkpt>
      <trkpt lon="-3.326220" lat="54.573505"><ele>108.267021</ele><time>2021-08-12T13:01:40Z</time><extensions><speed>1.683473</speed><course>65.869171</course><hAcc>0.879264</hAcc><vAcc>0.698443</vAcc></extensions></trkpt>
      <trkpt lon="-3.326246" lat="54.573508"><ele>108.265945</ele><time>2021-08-12T13:01:41Z</time><extensions><speed>1.673571</speed><course>67.480362</course><hAcc>0.879691</hAcc><vAcc>0.699943</vAcc></extensions></trkpt>
      <trkpt lon="-3.326271" lat="54.573512"><ele>108.260719</ele><time>2021-08-12T13:01:42Z</time><extensions><speed>1.662136</speed><course>62.467888</course><hAcc>0.880070</hAcc><vAcc>0.701254</vAcc></extensions></trkpt>
      <trkpt lon="-3.326296" lat="54.573515"><ele>108.252640</ele><time>2021-08-12T13:01:43Z</time><extensions><speed>1.649699</speed><course>57.403885</course><hAcc>0.880398</hAcc><vAcc>0.702378</vAcc></extensions></trkpt>
      <trkpt lon="-3.326320" lat="54.573519"><ele>108.242561</ele><time>2021-08-12T13:01:44Z</time><extensions><speed>1.636630</speed><course>56.104736</course><hAcc>0.880673</hAcc><vAcc>0.703321</vAcc></extensions></trkpt>
      <trkpt lon="-3.326345" lat="54.573522"><ele>108.230827</ele><time>2021-08-12T13:01:45Z</time><extensions><speed>1.623302</speed><course>57.135769</course><hAcc>0.880896</hAcc><vAcc>0.704092</vAcc></extensions></trkpt>
      <trkpt lon="-3.326369" lat="54.573526"><ele>108.217377</ele><time>2021-08-12T13:01:46Z</time><extensions><speed>1.609846</speed><course>59.466648</course><hAcc>0.881067</hAcc><vAcc>0.704696</vAcc></extensions></trkpt>
      <trkpt lon="-3.326393" lat="54.573530"><ele>108.201904</ele><time>2021-08-12T13:01:47Z</time><extensions><speed>1.595768</speed><course>56.466339</course><hAcc>0.881188</hAcc><vAcc>0.705138</vAcc></extensions></trkpt>
      <trkpt lon="-3.326416" lat="54.573534"><ele>108.184074</ele><time>2021-08-12T13:01:48Z</time><extensions><speed>1.581684</speed><course>61.082169</course><hAcc>0.881263</hAcc><vAcc>0.705422</vAcc></extensions></trkpt>
      <trkpt lon="-3.326440" lat="54.573537"><ele>108.163498</ele><time>2021-08-12T13:01:49Z</time><extensions><speed>1.569119</speed><course>63.000797</course><hAcc>0.881294</hAcc><vAcc>0.705552</vAcc></extensions></trkpt>
      <trkpt lon="-3.326463" lat="54.573541"><ele>108.139648</ele><time>2021-08-12T13:01:50Z</time><extensions><speed>1.559116</speed><course>58.373146</course><hAcc>0.881285</hAcc><vAcc>0.705532</vAcc></extensions></trkpt>
      <trkpt lon="-3.326486" lat="54.573545"><ele>108.111877</ele><time>2021-08-12T13:01:51Z</time><extensions><speed>1.552551</speed><course>59.591164</course><hAcc>0.881241</hAcc><vAcc>0.705368</vAcc></extensions></trkpt>
      <trkpt lon="-3.326509" lat="54.573549"><ele>108.079514</ele><time>2021-08-12T13:01:52Z</time><extensions><speed>1.549285</speed><course>56.078835</course><hAcc>0.881170</hAcc><vAcc>0.705065</vAcc></extensions></trkpt>
      <trkpt lon="-3.326532" lat="54.573553"><ele>108.041946</ele><time>2021-08-12T13:01:53Z</time><extensions><speed>1.548010</speed><course>61.452141</course><hAcc>0.881080</hAcc><vAcc>0.704641</vAcc></extensions></trkpt>
      <trkpt lon="-3.326555" lat="54.573557"><ele>107.998802</ele><time>2021-08-12T13:01:54Z</time><extensions><speed>1.547127</speed><course>62.349373</course><hAcc>0.880980</hAcc><vAcc>0.704131</vAcc></extensions></trkpt>
      <trkpt lon="-3.326578" lat="54.573561"><ele>107.950394</ele><time>2021-08-12T13:01:55Z</time><extensions><speed>1.545798</speed><course>67.502327</course><hAcc>0.880880</hAcc><vAcc>0.703590</vAcc></extensions></trkpt>
      <trkpt lon="-3.326601" lat="54.573566"><ele>107.897903</ele><time>2021-08-12T13:01:56Z</time><extensions><speed>1.543698</speed><course>65.148994</course><hAcc>0.880789</hAcc><vAcc>0.703087</vAcc></extensions></trkpt>
      <trkpt lon="-3.326623" lat="54.573570"><ele>107.842873</ele><time>2021-08-12T13:01:57Z</time><extensions><speed>1.540646</speed><course>61.604351</course><hAcc>0.880716</hAcc><vAcc>0.702691</vAcc></extensions></trkpt>
      <trkpt lon="-3.326646" lat="54.573574"><ele>107.786949</ele><time>2021-08-12T13:01:58Z</time><extensions><speed>1.537026</speed><course>67.356651</course><hAcc>0.880667</hAcc><vAcc>0.702450</vAcc></extensions></trkpt>
      <trkpt lon="-3.326669" lat="54.573578"><ele>107.731750</ele><time>2021-08-12T13:01:59Z</time><extensions><speed>1.533525</speed><course>56.187717</course><hAcc>0.880645</hAcc><vAcc>0.702380</vAcc></extensions></trkpt>
      <trkpt lon="-3.326691" lat="54.573582"><ele>107.678535</ele><time>2021-08-12T13:02:00Z</time><extensions><speed>1.530604</speed><course>56.273357</course><hAcc>0.880651</hAcc><vAcc>0.702469</vAcc></extensions></trkpt>
      <trkpt lon="-3.326714" lat="54.573587"><ele>107.628128</ele><time>2021-08-12T13:02:01Z</time><extensions><speed>1.528422</speed><course>59.042984</course><hAcc>0.880683</hAcc><vAcc>0.702684</vAcc></extensions></trkpt>
      <trkpt lon="-3.326736" lat="54.573591"><ele>107.581154</ele><time>2021-08-12T13:02:02Z</time><extensions><speed>1.526635</speed><course>46.754299</course><hAcc>0.880737</hAcc><vAcc>0.702985</vAcc></extensions></trkpt>
      <trkpt lon="-3.326758" lat="54.573596"><ele>107.538231</ele><time>2021-08-12T13:02:03Z</time><extensions><speed>1.525001</speed><course>46.754295</course><hAcc>0.880809</hAcc><vAcc>0.703336</vAcc></extensions></trkpt>
      <trkpt lon="-3.326780" lat="54.573601"><ele>107.499916</ele><time>2021-08-12T13:02:04Z</time><extensions><speed>1.523978</speed><course>46.754295</course><hAcc>0.880891</hAcc><vAcc>0.703706</vAcc></extensions></trkpt>
      <trkpt lon="-3.326802" lat="54.573606"><ele>107.466484</ele><time>2021-08-12T13:02:05Z</time><extensions><speed>1.523911</speed><course>46.754295</course><hAcc>0.880980</hAcc><vAcc>0.704071</vAcc></extensions></trkpt>
      <trkpt lon="-3.326824" lat="54.573611"><ele>107.438133</ele><time>2021-08-12T13:02:06Z</time><extensions><speed>1.524903</speed><course>46.754295</course><hAcc>0.881070</hAcc><vAcc>0.704416</vAcc></extensions></trkpt>
      <trkpt lon="-3.326846" lat="54.573616"><ele>107.415108</ele><time>2021-08-12T13:02:07Z</time><extensions><speed>1.526917</speed><course>46.754295</course><hAcc>0.881158</hAcc><vAcc>0.704731</vAcc></extensions></trkpt>
      <trkpt lon="-3.326868" lat="54.573621"><ele>107.397781</ele><time>2021-08-12T13:02:08Z</time><extensions><speed>1.530177</speed><course>46.754295</course><hAcc>0.881242</hAcc><vAcc>0.705015</vAcc></extensions></trkpt>
      <trkpt lon="-3.326889" lat="54.573627"><ele>107.386711</ele><time>2021-08-12T13:02:09Z</time><extensions><speed>1.534783</speed><course>46.754292</course><hAcc>0.881319</hAcc><vAcc>0.705268</vAcc></extensions></trkpt>
      <trkpt lon="-3.326911" lat="54.573632"><ele>107.382538</ele><time>2021-08-12T13:02:10Z</time><extensions><speed>1.540468</speed><course>46.754295</course><hAcc>0.881390</hAcc><vAcc>0.705495</vAcc></extensions></trkpt>
      <trkpt lon="-3.326933" lat="54.573638"><ele>107.385765</ele><time>2021-08-12T13:02:11Z</time><extensions><speed>1.546701</speed><course>86.257805</course><hAcc>0.881453</hAcc><vAcc>0.705703</vAcc></extensions></trkpt>
      <trkpt lon="-3.326955" lat="54.573644"><ele>107.396797</ele><time>2021-08-12T13:02:12Z</time><extensions><speed>1.552314</speed><course>92.864906</course><hAcc>0.881509</hAcc><vAcc>0.705894</vAcc></extensions></trkpt>
      <trkpt lon="-3.326976" lat="54.573650"><ele>107.415733</ele><time>2021-08-12T13:02:13Z</time><extensions><speed>1.556304</speed><course>94.458534</course><hAcc>0.881558</hAcc><vAcc>0.706070</vAcc></extensions></trkpt>
      <trkpt lon="-3.326998" lat="54.573656"><ele>107.442177</ele><time>2021-08-12T13:02:14Z</time><extensions><speed>1.558491</speed><course>89.165138</course><hAcc>0.881598</hAcc><vAcc>0.706230</vAcc></extensions></trkpt>
      <trkpt lon="-3.327020" lat="54.573662"><ele>107.475182</ele><time>2021-08-12T13:02:15Z</time><extensions><speed>1.559199</speed><course>98.187202</course><hAcc>0.881629</hAcc><vAcc>0.706369</vAcc></extensions></trkpt>
      <trkpt lon="-3.327041" lat="54.573668"><ele>107.513557</ele><time>2021-08-12T13:02:16Z</time><extensions><speed>1.559080</speed><course>262.094696</course><hAcc>0.881650</hAcc><vAcc>0.706482</vAcc></extensions></trkpt>
      <trkpt lon="-3.327063" lat="54.573675"><ele>107.556038</ele><time>2021-08-12T13:02:17Z</time><extensions><speed>1.558802</speed><course>273.339569</course><hAcc>0.881659</hAcc><vAcc>0.706559</vAcc></extensions></trkpt>
      <trkpt lon="-3.327084" lat="54.573681"><ele>107.601273</ele><time>2021-08-12T13:02:18Z</time><extensions><speed>1.558600</speed><course>270.133057</course><hAcc>0.881654</hAcc><vAcc>0.706586</vAcc></extensions></trkpt>
      <trkpt lon="-3.327105" lat="54.573688"><ele>107.647789</ele><time>2021-08-12T13:02:19Z</time><extensions><speed>1.558109</speed><course>264.401459</course><hAcc>0.881634</hAcc><vAcc>0.706550</vAcc></extensions></trkpt>
      <trkpt lon="-3.327127" lat="54.573694"><ele>107.694214</ele><time>2021-08-12T13:02:20Z</time><extensions><speed>1.556466</speed><course>271.206299</course><hAcc>0.881599</hAcc><vAcc>0.706439</vAcc></extensions></trkpt>
      <trkpt lon="-3.327148" lat="54.573701"><ele>107.739380</ele><time>2021-08-12T13:02:21Z</time><extensions><speed>1.553475</speed><course>270.479279</course><hAcc>0.881550</hAcc><vAcc>0.706250</vAcc></extensions></trkpt>
      <trkpt lon="-3.327169" lat="54.573707"><ele>107.782501</ele><time>2021-08-12T13:02:22Z</time><extensions><speed>1.549450</speed><course>270.479279</course><hAcc>0.881486</hAcc><vAcc>0.705983</vAcc></extensions></trkpt>
      <trkpt lon="-3.327190" lat="54.573714"><ele>107.823402</ele><time>2021-08-12T13:02:23Z</time><extensions><speed>1.544102</speed><course>270.479279</course><hAcc>0.881411</hAcc><vAcc>0.705649</vAcc></extensions></trkpt>
      <trkpt lon="-3.327211" lat="54.573721"><ele>107.862534</ele><time>2021-08-12T13:02:24Z</time><extensions><speed>1.537388</speed><course>92.836548</course><hAcc>0.881327</hAcc><vAcc>0.705267</vAcc></extensions></trkpt>
      <trkpt lon="-3.327231" lat="54.573728"><ele>107.900490</ele><time>2021-08-12T13:02:25Z</time><extensions><speed>1.530206</speed><course>91.847809</course><hAcc>0.881236</hAcc><vAcc>0.704860</vAcc></extensions></trkpt>
      <trkpt lon="-3.327252" lat="54.573734"><ele>107.937889</ele><time>2021-08-12T13:02:26Z</time><extensions><speed>1.523648</speed><course>96.972961</course><hAcc>0.881142</hAcc><vAcc>0.704449</vAcc></extensions></trkpt>
      <trkpt lon="-3.327272" lat="54.573741"><ele>107.975372</ele><time>2021-08-12T13:02:27Z</time><extensions><speed>1.518564</speed><course>101.432434</course><hAcc>0.881048</hAcc><vAcc>0.704050</vAcc></extensions></trkpt>
      <trkpt lon="-3.327292" lat="54.573748"><ele>108.013199</ele><time>2021-08-12T13:02:28Z</time><extensions><speed>1.515172</speed><course>89.921867</course><hAcc>0.880957</hAcc><vAcc>0.703670</vAcc></extensions></trkpt>
      <trkpt lon="-3.327313" lat="54.573755"><ele>108.051147</ele><time>2021-08-12T13:02:30Z</time><extensions><speed>1.512923</speed><course>79.468422</course><hAcc>0.880852</hAcc><vAcc>0.703299</vAcc></extensions></trkpt>
      <trkpt lon="-3.327333" lat="54.573762"><ele>108.088608</ele><time>2021-08-12T13:02:31Z</time><extensions><speed>1.511358</speed><course>79.668663</course><hAcc>0.880733</hAcc><vAcc>0.702934</vAcc></extensions></trkpt>
      <trkpt lon="-3.327353" lat="54.573769"><ele>108.125069</ele><time>2021-08-12T13:02:32Z</time><extensions><speed>1.510108</speed><course>70.198914</course><hAcc>0.880618</hAcc><vAcc>0.702579</vAcc></extensions></trkpt>
      <trkpt lon="-3.327372" lat="54.573776"><ele>108.159851</ele><time>2021-08-12T13:02:33Z</time><extensions><speed>1.508391</speed><course>85.811096</course><hAcc>0.880505</hAcc><vAcc>0.702225</vAcc></extensions></trkpt>
      <trkpt lon="-3.327392" lat="54.573783"><ele>108.191833</ele><time>2021-08-12T13:02:34Z</time><extensions><speed>1.505773</speed><course>87.515213</course><hAcc>0.880391</hAcc><vAcc>0.701860</vAcc></extensions></trkpt>
      <trkpt lon="-3.327412" lat="54.573791"><ele>108.219521</ele><time>2021-08-12T13:02:35Z</time><extensions><speed>1.502543</speed><course>86.802406</course><hAcc>0.880272</hAcc><vAcc>0.701472</vAcc></extensions></trkpt>
      <trkpt lon="-3.327432" lat="54.573798"><ele>108.241432</ele><time>2021-08-12T13:02:36Z</time><extensions><speed>1.498462</speed><course>85.424927</course><hAcc>0.880147</hAcc><vAcc>0.701048</vAcc></extensions></trkpt>
      <trkpt lon="-3.327451" lat="54.573805"><ele>108.256744</ele><time>2021-08-12T13:02:37Z</time><extensions><speed>1.492349</speed><course>88.911957</course><hAcc>0.880011</hAcc><vAcc>0.700581</vAcc></extensions></trkpt>
      <trkpt lon="-3.327471" lat="54.573812"><ele>108.265327</ele><time>2021-08-12T13:02:38Z</time><extensions><speed>1.482988</speed><course>93.027184</course><hAcc>0.879861</hAcc><vAcc>0.700065</vAcc></extensions></trkpt>
      <trkpt lon="-3.327490" lat="54.573819"><ele>108.267212</ele><time>2021-08-12T13:02:39Z</time><extensions><speed>1.469078</speed><course>90.763535</course><hAcc>0.879692</hAcc><vAcc>0.699495</vAcc></extensions></trkpt>
      <trkpt lon="-3.327509" lat="54.573826"><ele>108.262329</ele><time>2021-08-12T13:02:40Z</time><extensions><speed>1.449202</speed><course>83.392509</course><hAcc>0.879500</hAcc><vAcc>0.698861</vAcc></extensions></trkpt>
      <trkpt lon="-3.327528" lat="54.573833"><ele>108.250526</ele><time>2021-08-12T13:02:41Z</time><extensions><speed>1.422368</speed><course>57.334152</course><hAcc>0.879280</hAcc><vAcc>0.698146</vAcc></extensions></trkpt>
      <trkpt lon="-3.327546" lat="54.573840"><ele>108.231575</ele><time>2021-08-12T13:02:42Z</time><extensions><speed>1.388589</speed><course>29.254333</course><hAcc>0.879025</hAcc><vAcc>0.697324</vAcc></extensions></trkpt>
      <trkpt lon="-3.327564" lat="54.573846"><ele>108.205208</ele><time>2021-08-12T13:02:43Z</time><extensions><speed>1.349253</speed><course>29.254333</course><hAcc>0.878731</hAcc><vAcc>0.696359</vAcc></extensions></trkpt>
      <trkpt lon="-3.327582" lat="54.573853"><ele>108.171310</ele><time>2021-08-12T13:02:44Z</time><extensions><speed>1.306173</speed><course>29.254333</course><hAcc>0.878391</hAcc><vAcc>0.695215</vAcc></extensions></trkpt>
      <trkpt lon="-3.327598" lat="54.573859"><ele>108.130280</ele><time>2021-08-12T13:02:45Z</time><extensions><speed>1.260755</speed><course>29.254332</course><hAcc>0.878001</hAcc><vAcc>0.693866</vAcc></extensions></trkpt>
      <trkpt lon="-3.327615" lat="54.573865"><ele>108.083420</ele><time>2021-08-12T13:02:46Z</time><extensions><speed>1.214168</speed><course>29.254333</course><hAcc>0.877559</hAcc><vAcc>0.692304</vAcc></extensions></trkpt>
      <trkpt lon="-3.327630" lat="54.573870"><ele>108.032860</ele><time>2021-08-12T13:02:47Z</time><extensions><speed>1.167469</speed><course>29.254332</course><hAcc>0.877063</hAcc><vAcc>0.690528</vAcc></extensions></trkpt>
      <trkpt lon="-3.327645" lat="54.573876"><ele>107.980911</ele><time>2021-08-12T13:02:48Z</time><extensions><speed>1.121498</speed><course>29.254332</course><hAcc>0.876513</hAcc><vAcc>0.688544</vAcc></extensions></trkpt>
      <trkpt lon="-3.327659" lat="54.573881"><ele>107.929649</ele><time>2021-08-12T13:02:49Z</time><extensions><speed>1.077369</speed><course>29.254333</course><hAcc>0.875909</hAcc><vAcc>0.686362</vAcc></extensions></trkpt>
      <trkpt lon="-3.327673" lat="54.573887"><ele>107.881210</ele><time>2021-08-12T13:02:50Z</time><extensions><speed>1.036818</speed><course>29.254333</course><hAcc>0.875253</hAcc><vAcc>0.683991</vAcc></extensions></trkpt>
      <trkpt lon="-3.327685" lat="54.573892"><ele>107.838043</ele><time>2021-08-12T13:02:51Z</time><extensions><speed>1.001400</speed><course>29.254332</course><hAcc>0.874550</hAcc><vAcc>0.681443</vAcc></extensions></trkpt>
      <trkpt lon="-3.327698" lat="54.573898"><ele>107.802284</ele><time>2021-08-12T13:02:52Z</time><extensions><speed>0.971634</speed><course>29.254333</course><hAcc>0.873803</hAcc><vAcc>0.678736</vAcc></extensions></trkpt>
      <trkpt lon="-3.327709" lat="54.573903"><ele>107.775223</ele><time>2021-08-12T13:02:53Z</time><extensions><speed>0.947963</speed><course>29.254337</course><hAcc>0.873015</hAcc><vAcc>0.675894</vAcc></extensions></trkpt>
      <trkpt lon="-3.327720" lat="54.573909"><ele>107.757957</ele><time>2021-08-12T13:02:54Z</time><extensions><speed>0.931911</speed><course>29.254337</course><hAcc>0.872192</hAcc><vAcc>0.672942</vAcc></extensions></trkpt>
      <trkpt lon="-3.327730" lat="54.573915"><ele>107.751984</ele><time>2021-08-12T13:02:55Z</time><extensions><speed>0.925284</speed><course>29.254339</course><hAcc>0.871337</hAcc><vAcc>0.669903</vAcc></extensions></trkpt>
      <trkpt lon="-3.327739" lat="54.573921"><ele>107.758499</ele><time>2021-08-12T13:02:56Z</time><extensions><speed>0.929552</speed><course>29.254337</course><hAcc>0.870451</hAcc><vAcc>0.666787</vAcc></extensions></trkpt>
      <trkpt lon="-3.327748" lat="54.573928"><ele>107.778152</ele><time>2021-08-12T13:02:57Z</time><extensions><speed>0.945317</speed><course>29.254339</course><hAcc>0.869533</hAcc><vAcc>0.663587</vAcc></extensions></trkpt>
      <trkpt lon="-3.327756" lat="54.573935"><ele>107.810982</ele><time>2021-08-12T13:02:57Z</time><extensions><speed>0.971845</speed><course>353.139893</course><hAcc>0.868601</hAcc><vAcc>0.660298</vAcc></extensions></trkpt>
      <trkpt lon="-3.327764" lat="54.573942"><ele>107.856575</ele><time>2021-08-12T13:02:58Z</time><extensions><speed>1.007925</speed><course>-1.000000</course><hAcc>0.867653</hAcc><vAcc>0.656889</vAcc></extensions></trkpt>
      <trkpt lon="-3.327772" lat="54.573950"><ele>107.914406</ele><time>2021-08-12T13:02:59Z</time><extensions><speed>1.051650</speed><course>-1.000000</course><hAcc>0.866677</hAcc><vAcc>0.653359</vAcc></extensions></trkpt>
      <trkpt lon="-3.327780" lat="54.573959"><ele>107.984047</ele><time>2021-08-12T13:03:00Z</time><extensions><speed>1.100121</speed><course>-1.000000</course><hAcc>0.865689</hAcc><vAcc>0.649753</vAcc></extensions></trkpt>
      <trkpt lon="-3.327787" lat="54.573968"><ele>108.064728</ele><time>2021-08-12T13:03:01Z</time><extensions><speed>1.149936</speed><course>-1.000000</course><hAcc>0.864708</hAcc><vAcc>0.646151</vAcc></extensions></trkpt>
      <trkpt lon="-3.327795" lat="54.573978"><ele>108.154976</ele><time>2021-08-12T13:03:02Z</time><extensions><speed>1.198241</speed><course>-1.000000</course><hAcc>0.863760</hAcc><vAcc>0.642647</vAcc></extensions></trkpt>
      <trkpt lon="-3.327803" lat="54.573988"><ele>108.252853</ele><time>2021-08-12T13:03:03Z</time><extensions><speed>1.243206</speed><course>-1.000000</course><hAcc>0.862868</hAcc><vAcc>0.639342</vAcc></extensions></trkpt>
      <trkpt lon="-3.327810" lat="54.573998"><ele>108.356285</ele><time>2021-08-12T13:03:04Z</time><extensions><speed>1.283647</speed><course>-1.000000</course><hAcc>0.862054</hAcc><vAcc>0.636322</vAcc></extensions></trkpt>
      <trkpt lon="-3.327818" lat="54.574009"><ele>108.462921</ele><time>2021-08-12T13:03:05Z</time><extensions><speed>1.318756</speed><course>-1.000000</course><hAcc>0.861330</hAcc><vAcc>0.633642</vAcc></extensions></trkpt>
      <trkpt lon="-3.327827" lat="54.574020"><ele>108.570473</ele><time>2021-08-12T13:03:06Z</time><extensions><speed>1.348235</speed><course>-1.000000</course><hAcc>0.860706</hAcc><vAcc>0.631332</vAcc></extensions></trkpt>
      <trkpt lon="-3.327835" lat="54.574031"><ele>108.677193</ele><time>2021-08-12T13:03:07Z</time><extensions><speed>1.372569</speed><course>-1.000000</course><hAcc>0.860183</hAcc><vAcc>0.629407</vAcc></extensions></trkpt>
      <trkpt lon="-3.327843" lat="54.574042"><ele>108.781830</ele><time>2021-08-12T13:03:08Z</time><extensions><speed>1.392661</speed><course>-1.000000</course><hAcc>0.859760</hAcc><vAcc>0.627859</vAcc></extensions></trkpt>
      <trkpt lon="-3.327851" lat="54.574054"><ele>108.883614</ele><time>2021-08-12T13:03:09Z</time><extensions><speed>1.409363</speed><course>74.830536</course><hAcc>0.859425</hAcc><vAcc>0.626649</vAcc></extensions></trkpt>
      <trkpt lon="-3.327860" lat="54.574066"><ele>108.982201</ele><time>2021-08-12T13:03:10Z</time><extensions><speed>1.423315</speed><course>62.161198</course><hAcc>0.859160</hAcc><vAcc>0.625707</vAcc></extensions></trkpt>
      <trkpt lon="-3.327868" lat="54.574078"><ele>109.077545</ele><time>2021-08-12T13:03:11Z</time><extensions><speed>1.435153</speed><course>66.043793</course><hAcc>0.858941</hAcc><vAcc>0.624943</vAcc></extensions></trkpt>
      <trkpt lon="-3.327877" lat="54.574090"><ele>109.170197</ele><time>2021-08-12T13:03:12Z</time><extensions><speed>1.446181</speed><course>75.803009</course><hAcc>0.858742</hAcc><vAcc>0.624261</vAcc></extensions></trkpt>
      <trkpt lon="-3.327885" lat="54.574102"><ele>109.261658</ele><time>2021-08-12T13:03:13Z</time><extensions><speed>1.457552</speed><course>76.191063</course><hAcc>0.858539</hAcc><vAcc>0.623571</vAcc></extensions></trkpt>
      <trkpt lon="-3.327894" lat="54.574114"><ele>109.353958</ele><time>2021-08-12T13:03:14Z</time><extensions><speed>1.469712</speed><course>76.349960</course><hAcc>0.858311</hAcc><vAcc>0.622791</vAcc></extensions></trkpt>
      <trkpt lon="-3.327903" lat="54.574126"><ele>109.449234</ele><time>2021-08-12T13:03:15Z</time><extensions><speed>1.482702</speed><course>78.477806</course><hAcc>0.858040</hAcc><vAcc>0.621854</vAcc></extensions></trkpt>
      <trkpt lon="-3.327911" lat="54.574139"><ele>109.550095</ele><time>2021-08-12T13:03:16Z</time><extensions><speed>1.495980</speed><course>75.070290</course><hAcc>0.857709</hAcc><vAcc>0.620699</vAcc></extensions></trkpt>
      <trkpt lon="-3.327920" lat="54.574151"><ele>109.659409</ele><time>2021-08-12T13:03:17Z</time><extensions><speed>1.508835</speed><course>69.086029</course><hAcc>0.857303</hAcc><vAcc>0.619256</vAcc></extensions></trkpt>
      <trkpt lon="-3.327929" lat="54.574164"><ele>109.779388</ele><time>2021-08-12T13:03:18Z</time><extensions><speed>1.520948</speed><course>68.949226</course><hAcc>0.856809</hAcc><vAcc>0.617460</vAcc></extensions></trkpt>
      <trkpt lon="-3.327938" lat="54.574176"><ele>109.911499</ele><time>2021-08-12T13:03:19Z</time><extensions><speed>1.532089</speed><course>71.686111</course><hAcc>0.856222</hAcc><vAcc>0.615282</vAcc></extensions></trkpt>
      <trkpt lon="-3.327947" lat="54.574189"><ele>110.056961</ele><time>2021-08-12T13:03:20Z</time><extensions><speed>1.542367</speed><course>76.597496</course><hAcc>0.855559</hAcc><vAcc>0.612759</vAcc></extensions></trkpt>
      <trkpt lon="-3.327956" lat="54.574202"><ele>110.216934</ele><time>2021-08-12T13:03:21Z</time><extensions><speed>1.552173</speed><course>90.005066</course><hAcc>0.854854</hAcc><vAcc>0.610005</vAcc></extensions></trkpt>
      <trkpt lon="-3.327965" lat="54.574215"><ele>110.392166</ele><time>2021-08-12T13:03:22Z</time><extensions><speed>1.561341</speed><course>83.948074</course><hAcc>0.854158</hAcc><vAcc>0.607197</vAcc></extensions></trkpt>
      <trkpt lon="-3.327974" lat="54.574228"><ele>110.582649</ele><time>2021-08-12T13:03:23Z</time><extensions><speed>1.569450</speed><course>76.996796</course><hAcc>0.853526</hAcc><vAcc>0.604529</vAcc></extensions></trkpt>
      <trkpt lon="-3.327983" lat="54.574241"><ele>110.787430</ele><time>2021-08-12T13:03:24Z</time><extensions><speed>1.576056</speed><course>79.507355</course><hAcc>0.853005</hAcc><vAcc>0.602179</vAcc></extensions></trkpt>
      <trkpt lon="-3.327993" lat="54.574254"><ele>111.004372</ele><time>2021-08-12T13:03:25Z</time><extensions><speed>1.580542</speed><course>72.096832</course><hAcc>0.852628</hAcc><vAcc>0.600279</vAcc></extensions></trkpt>
      <trkpt lon="-3.328002" lat="54.574267"><ele>111.230263</ele><time>2021-08-12T13:03:26Z</time><extensions><speed>1.582429</speed><course>80.368279</course><hAcc>0.852416</hAcc><vAcc>0.598919</vAcc></extensions></trkpt>
      <trkpt lon="-3.328012" lat="54.574280"><ele>111.461426</ele><time>2021-08-12T13:03:27Z</time><extensions><speed>1.581838</speed><course>78.982643</course><hAcc>0.852372</hAcc><vAcc>0.598132</vAcc></extensions></trkpt>
      <trkpt lon="-3.328023" lat="54.574293"><ele>111.694778</ele><time>2021-08-12T13:03:28Z</time><extensions><speed>1.578461</speed><course>81.075706</course><hAcc>0.852489</hAcc><vAcc>0.597881</vAcc></extensions></trkpt>
      <trkpt lon="-3.328033" lat="54.574306"><ele>111.928360</ele><time>2021-08-12T13:03:29Z</time><extensions><speed>1.571355</speed><course>81.007790</course><hAcc>0.852750</hAcc><vAcc>0.598069</vAcc></extensions></trkpt>
      <trkpt lon="-3.328045" lat="54.574318"><ele>112.160988</ele><time>2021-08-12T13:03:30Z</time><extensions><speed>1.560913</speed><course>78.272133</course><hAcc>0.853144</hAcc><vAcc>0.598555</vAcc></extensions></trkpt>
      <trkpt lon="-3.328056" lat="54.574330"><ele>112.392159</ele><time>2021-08-12T13:03:31Z</time><extensions><speed>1.548553</speed><course>73.069588</course><hAcc>0.853669</hAcc><vAcc>0.599217</vAcc></extensions></trkpt>
      <trkpt lon="-3.328068" lat="54.574342"><ele>112.621834</ele><time>2021-08-12T13:03:32Z</time><extensions><speed>1.535730</speed><course>77.189682</course><hAcc>0.854345</hAcc><vAcc>0.600022</vAcc></extensions></trkpt>
      <trkpt lon="-3.328080" lat="54.574354"><ele>112.850060</ele><time>2021-08-12T13:03:33Z</time><extensions><speed>1.523640</speed><course>75.197517</course><hAcc>0.855212</hAcc><vAcc>0.601049</vAcc></extensions></trkpt>
      <trkpt lon="-3.328093" lat="54.574366"><ele>113.077003</ele><time>2021-08-12T13:03:34Z</time><extensions><speed>1.512362</speed><course>67.733307</course><hAcc>0.856329</hAcc><vAcc>0.602444</vAcc></extensions></trkpt>
      <trkpt lon="-3.328106" lat="54.574377"><ele>113.302856</ele><time>2021-08-12T13:03:35Z</time><extensions><speed>1.501822</speed><course>69.123688</course><hAcc>0.857753</hAcc><vAcc>0.604330</vAcc></extensions></trkpt>
      <trkpt lon="-3.328120" lat="54.574388"><ele>113.527611</ele><time>2021-08-12T13:03:36Z</time><extensions><speed>1.492186</speed><course>71.299400</course><hAcc>0.859533</hAcc><vAcc>0.606755</vAcc></extensions></trkpt>
      <trkpt lon="-3.328134" lat="54.574398"><ele>113.751396</ele><time>2021-08-12T13:03:37Z</time><extensions><speed>1.483346</speed><course>77.479210</course><hAcc>0.861687</hAcc><vAcc>0.609677</vAcc></extensions></trkpt>
      <trkpt lon="-3.328148" lat="54.574409"><ele>113.974495</ele><time>2021-08-12T13:03:38Z</time><extensions><speed>1.474704</speed><course>68.623329</course><hAcc>0.864179</hAcc><vAcc>0.612968</vAcc></extensions></trkpt>
      <trkpt lon="-3.328162" lat="54.574419"><ele>114.196945</ele><time>2021-08-12T13:03:39Z</time><extensions><speed>1.465421</speed><course>63.866425</course><hAcc>0.866912</hAcc><vAcc>0.616437</vAcc></extensions></trkpt>
      <trkpt lon="-3.328177" lat="54.574429"><ele>114.418159</ele><time>2021-08-12T13:03:40Z</time><extensions><speed>1.454706</speed><course>76.291603</course><hAcc>0.869742</hAcc><vAcc>0.619877</vAcc></extensions></trkpt>
      <trkpt lon="-3.328192" lat="54.574439"><ele>114.637138</ele><time>2021-08-12T13:03:41Z</time><extensions><speed>1.441965</speed><course>71.777351</course><hAcc>0.872490</hAcc><vAcc>0.623112</vAcc></extensions></trkpt>
      <trkpt lon="-3.328207" lat="54.574448"><ele>114.852486</ele><time>2021-08-12T13:03:42Z</time><extensions><speed>1.427894</speed><course>76.476341</course><hAcc>0.874965</hAcc><vAcc>0.626038</vAcc></extensions></trkpt>
      <trkpt lon="-3.328222" lat="54.574457"><ele>115.062370</ele><time>2021-08-12T13:03:43Z</time><extensions><speed>1.413721</speed><course>63.346680</course><hAcc>0.876992</hAcc><vAcc>0.628621</vAcc></extensions></trkpt>
      <trkpt lon="-3.328237" lat="54.574466"><ele>115.264801</ele><time>2021-08-12T13:03:44Z</time><extensions><speed>1.399779</speed><course>60.883244</course><hAcc>0.878429</hAcc><vAcc>0.630871</vAcc></extensions></trkpt>
      <trkpt lon="-3.328252" lat="54.574475"><ele>115.457703</ele><time>2021-08-12T13:03:45Z</time><extensions><speed>1.386145</speed><course>66.100471</course><hAcc>0.879182</hAcc><vAcc>0.632812</vAcc></extensions></trkpt>
      <trkpt lon="-3.328268" lat="54.574484"><ele>115.639000</ele><time>2021-08-12T13:03:46Z</time><extensions><speed>1.373059</speed><course>66.284729</course><hAcc>0.879214</hAcc><vAcc>0.634468</vAcc></extensions></trkpt>
      <trkpt lon="-3.328283" lat="54.574493"><ele>115.806885</ele><time>2021-08-12T13:03:47Z</time><extensions><speed>1.361015</speed><course>70.183884</course><hAcc>0.878559</hAcc><vAcc>0.635878</vAcc></extensions></trkpt>
      <trkpt lon="-3.328298" lat="54.574501"><ele>115.960022</ele><time>2021-08-12T13:03:48Z</time><extensions><speed>1.350617</speed><course>69.091454</course><hAcc>0.877321</hAcc><vAcc>0.637097</vAcc></extensions></trkpt>
      <trkpt lon="-3.328312" lat="54.574510"><ele>116.097237</ele><time>2021-08-12T13:03:49Z</time><extensions><speed>1.341588</speed><course>67.595528</course><hAcc>0.875656</hAcc><vAcc>0.638183</vAcc></extensions></trkpt>
      <trkpt lon="-3.328327" lat="54.574518"><ele>116.217331</ele><time>2021-08-12T13:03:50Z</time><extensions><speed>1.333323</speed><course>69.079941</course><hAcc>0.873752</hAcc><vAcc>0.639174</vAcc></extensions></trkpt>
      <trkpt lon="-3.328341" lat="54.574527"><ele>116.319061</ele><time>2021-08-12T13:03:51Z</time><extensions><speed>1.325812</speed><course>67.638985</course><hAcc>0.871801</hAcc><vAcc>0.640069</vAcc></extensions></trkpt>
      <trkpt lon="-3.328356" lat="54.574535"><ele>116.401321</ele><time>2021-08-12T13:03:52Z</time><extensions><speed>1.319459</speed><course>67.902077</course><hAcc>0.869972</hAcc><vAcc>0.640839</vAcc></extensions></trkpt>
      <trkpt lon="-3.328370" lat="54.574544"><ele>116.463448</ele><time>2021-08-12T13:03:53Z</time><extensions><speed>1.315043</speed><course>68.213737</course><hAcc>0.868369</hAcc><vAcc>0.641439</vAcc></extensions></trkpt>
      <trkpt lon="-3.328384" lat="54.574552"><ele>116.505287</ele><time>2021-08-12T13:03:54Z</time><extensions><speed>1.313569</speed><course>58.646133</course><hAcc>0.867037</hAcc><vAcc>0.641836</vAcc></extensions></trkpt>
      <trkpt lon="-3.328397" lat="54.574561"><ele>116.527260</ele><time>2021-08-12T13:03:55Z</time><extensions><speed>1.315370</speed><course>60.787758</course><hAcc>0.865972</hAcc><vAcc>0.642016</vAcc></extensions></trkpt>
      <trkpt lon="-3.328411" lat="54.574570"><ele>116.530449</ele><time>2021-08-12T13:03:56Z</time><extensions><speed>1.320819</speed><course>59.107254</course><hAcc>0.865146</hAcc><vAcc>0.641983</vAcc></extensions></trkpt>
      <trkpt lon="-3.328424" lat="54.574579"><ele>116.516273</ele><time>2021-08-12T13:03:57Z</time><extensions><speed>1.330497</speed><course>59.308796</course><hAcc>0.864522</hAcc><vAcc>0.641769</vAcc></extensions></trkpt>
      <trkpt lon="-3.328437" lat="54.574588"><ele>116.486259</ele><time>2021-08-12T13:03:58Z</time><extensions><speed>1.344027</speed><course>63.536522</course><hAcc>0.864064</hAcc><vAcc>0.641443</vAcc></extensions></trkpt>
      <trkpt lon="-3.328450" lat="54.574598"><ele>116.442085</ele><time>2021-08-12T13:03:59Z</time><extensions><speed>1.360803</speed><course>64.110619</course><hAcc>0.863749</hAcc><vAcc>0.641108</vAcc></extensions></trkpt>
      <trkpt lon="-3.328463" lat="54.574608"><ele>116.385475</ele><time>2021-08-12T13:04:00Z</time><extensions><speed>1.380455</speed><course>57.783936</course><hAcc>0.863561</hAcc><vAcc>0.640878</vAcc></extensions></trkpt>
      <trkpt lon="-3.328477" lat="54.574617"><ele>116.317902</ele><time>2021-08-12T13:04:01Z</time><extensions><speed>1.401558</speed><course>62.673740</course><hAcc>0.863491</hAcc><vAcc>0.640862</vAcc></extensions></trkpt>
      <trkpt lon="-3.328490" lat="54.574628"><ele>116.240562</ele><time>2021-08-12T13:04:02Z</time><extensions><speed>1.421465</speed><course>68.268181</course><hAcc>0.863532</hAcc><vAcc>0.641135</vAcc></extensions></trkpt>
      <trkpt lon="-3.328503" lat="54.574638"><ele>116.155113</ele><time>2021-08-12T13:04:03Z</time><extensions><speed>1.438122</speed><course>59.735432</course><hAcc>0.863669</hAcc><vAcc>0.641716</vAcc></extensions></trkpt>
      <trkpt lon="-3.328516" lat="54.574648"><ele>116.064438</ele><time>2021-08-12T13:04:04Z</time><extensions><speed>1.450721</speed><course>59.192490</course><hAcc>0.863879</hAcc><vAcc>0.642561</vAcc></extensions></trkpt>
      <trkpt lon="-3.328529" lat="54.574659"><ele>115.972313</ele><time>2021-08-12T13:04:05Z</time><extensions><speed>1.458082</speed><course>60.825825</course><hAcc>0.864131</hAcc><vAcc>0.643568</vAcc></extensions></trkpt>
      <trkpt lon="-3.328542" lat="54.574670"><ele>115.882324</ele><time>2021-08-12T13:04:06Z</time><extensions><speed>1.459408</speed><course>62.921200</course><hAcc>0.864388</hAcc><vAcc>0.644610</vAcc></extensions></trkpt>
      <trkpt lon="-3.328555" lat="54.574680"><ele>115.796753</ele><time>2021-08-12T13:04:07Z</time><extensions><speed>1.455198</speed><course>59.145714</course><hAcc>0.864613</hAcc><vAcc>0.645544</vAcc></extensions></trkpt>
      <trkpt lon="-3.328568" lat="54.574691"><ele>115.716202</ele><time>2021-08-12T13:04:08Z</time><extensions><speed>1.446055</speed><course>54.852036</course><hAcc>0.864772</hAcc><vAcc>0.646238</vAcc></extensions></trkpt>
      <trkpt lon="-3.328580" lat="54.574702"><ele>115.640251</ele><time>2021-08-12T13:04:09Z</time><extensions><speed>1.433500</speed><course>52.958679</course><hAcc>0.864836</hAcc><vAcc>0.646569</vAcc></extensions></trkpt>
      <trkpt lon="-3.328592" lat="54.574713"><ele>115.568268</ele><time>2021-08-12T13:04:10Z</time><extensions><speed>1.419340</speed><course>51.642593</course><hAcc>0.864782</hAcc><vAcc>0.646447</vAcc></extensions></trkpt>
      <trkpt lon="-3.328603" lat="54.574724"><ele>115.499352</ele><time>2021-08-12T13:04:11Z</time><extensions><speed>1.404679</speed><course>50.915668</course><hAcc>0.864601</hAcc><vAcc>0.645833</vAcc></extensions></trkpt>
      <trkpt lon="-3.328615" lat="54.574734"><ele>115.432259</ele><time>2021-08-12T13:04:12Z</time><extensions><speed>1.390510</speed><course>43.517220</course><hAcc>0.864295</hAcc><vAcc>0.644734</vAcc></extensions></trkpt>
      <trkpt lon="-3.328626" lat="54.574745"><ele>115.365692</ele><time>2021-08-12T13:04:13Z</time><extensions><speed>1.377855</speed><course>53.213661</course><hAcc>0.863873</hAcc><vAcc>0.643189</vAcc></extensions></trkpt>
      <trkpt lon="-3.328636" lat="54.574756"><ele>115.298637</ele><time>2021-08-12T13:04:14Z</time><extensions><speed>1.367489</speed><course>42.672325</course><hAcc>0.863355</hAcc><vAcc>0.641270</vAcc></extensions></trkpt>
      <trkpt lon="-3.328647" lat="54.574766"><ele>115.230659</ele><time>2021-08-12T13:04:15Z</time><extensions><speed>1.360391</speed><course>57.842590</course><hAcc>0.862772</hAcc><vAcc>0.639092</vAcc></extensions></trkpt>
      <trkpt lon="-3.328657" lat="54.574777"><ele>115.162170</ele><time>2021-08-12T13:04:16Z</time><extensions><speed>1.357851</speed><course>54.432369</course><hAcc>0.862161</hAcc><vAcc>0.636798</vAcc></extensions></trkpt>
      <trkpt lon="-3.328668" lat="54.574787"><ele>115.094109</ele><time>2021-08-12T13:04:17Z</time><extensions><speed>1.360422</speed><course>53.099045</course><hAcc>0.861563</hAcc><vAcc>0.634549</vAcc></extensions></trkpt>
      <trkpt lon="-3.328678" lat="54.574798"><ele>115.027382</ele><time>2021-08-12T13:04:18Z</time><extensions><speed>1.367721</speed><course>52.709480</course><hAcc>0.861019</hAcc><vAcc>0.632498</vAcc></extensions></trkpt>
      <trkpt lon="-3.328688" lat="54.574809"><ele>114.962379</ele><time>2021-08-12T13:04:19Z</time><extensions><speed>1.379366</speed><course>55.566643</course><hAcc>0.860564</hAcc><vAcc>0.630781</vAcc></extensions></trkpt>
      <trkpt lon="-3.328698" lat="54.574820"><ele>114.898888</ele><time>2021-08-12T13:04:20Z</time><extensions><speed>1.395766</speed><course>50.999676</course><hAcc>0.860223</hAcc><vAcc>0.629496</vAcc></extensions></trkpt>
      <trkpt lon="-3.328708" lat="54.574831"><ele>114.836349</ele><time>2021-08-12T13:04:21Z</time><extensions><speed>1.416741</speed><course>49.932701</course><hAcc>0.860011</hAcc><vAcc>0.628698</vAcc></extensions></trkpt>
      <trkpt lon="-3.328719" lat="54.574842"><ele>114.774445</ele><time>2021-08-12T13:04:22Z</time><extensions><speed>1.441033</speed><course>44.103298</course><hAcc>0.859938</hAcc><vAcc>0.628419</vAcc></extensions></trkpt>
      <trkpt lon="-3.328729" lat="54.574854"><ele>114.712906</ele><time>2021-08-12T13:04:23Z</time><extensions><speed>1.467409</speed><course>35.959499</course><hAcc>0.860006</hAcc><vAcc>0.628669</vAcc></extensions></trkpt>
      <trkpt lon="-3.328739" lat="54.574866"><ele>114.650543</ele><time>2021-08-12T13:04:24Z</time><extensions><speed>1.494923</speed><course>30.952709</course><hAcc>0.860211</hAcc><vAcc>0.629431</vAcc></extensions></trkpt>
      <trkpt lon="-3.328749" lat="54.574878"><ele>114.585083</ele><time>2021-08-12T13:04:25Z</time><extensions><speed>1.522330</speed><course>43.709347</course><hAcc>0.860543</hAcc><vAcc>0.630661</vAcc></extensions></trkpt>
      <trkpt lon="-3.328759" lat="54.574891"><ele>114.514130</ele><time>2021-08-12T13:04:26Z</time><extensions><speed>1.548522</speed><course>37.574459</course><hAcc>0.860985</hAcc><vAcc>0.632297</vAcc></extensions></trkpt>
      <trkpt lon="-3.328769" lat="54.574903"><ele>114.436119</ele><time>2021-08-12T13:04:27Z</time><extensions><speed>1.573385</speed><course>40.028488</course><hAcc>0.861518</hAcc><vAcc>0.634263</vAcc></extensions></trkpt>
      <trkpt lon="-3.328779" lat="54.574916"><ele>114.350716</ele><time>2021-08-12T13:04:28Z</time><extensions><speed>1.597234</speed><course>39.088745</course><hAcc>0.862120</hAcc><vAcc>0.636472</vAcc></extensions></trkpt>
      <trkpt lon="-3.328789" lat="54.574930"><ele>114.258385</ele><time>2021-08-12T13:04:29Z</time><extensions><speed>1.620042</speed><course>38.227211</course><hAcc>0.862767</hAcc><vAcc>0.638833</vAcc></extensions></trkpt>
      <trkpt lon="-3.328799" lat="54.574943"><ele>114.159897</ele><time>2021-08-12T13:04:30Z</time><extensions><speed>1.641735</speed><course>38.580025</course><hAcc>0.863438</hAcc><vAcc>0.641269</vAcc></extensions></trkpt>
      <trkpt lon="-3.328809" lat="54.574957"><ele>114.056549</ele><time>2021-08-12T13:04:31Z</time><extensions><speed>1.662484</speed><course>36.225418</course><hAcc>0.864116</hAcc><vAcc>0.643719</vAcc></extensions></trkpt>
      <trkpt lon="-3.328818" lat="54.574971"><ele>113.950371</ele><time>2021-08-12T13:04:32Z</time><extensions><speed>1.682324</speed><course>36.482189</course><hAcc>0.864789</hAcc><vAcc>0.646142</vAcc></extensions></trkpt>
      <trkpt lon="-3.328828" lat="54.574985"><ele>113.843666</ele><time>2021-08-12T13:04:33Z</time><extensions><speed>1.700648</speed><course>45.117634</course><hAcc>0.865449</hAcc><vAcc>0.648509</vAcc></extensions></trkpt>
      <trkpt lon="-3.328837" lat="54.574999"><ele>113.738541</ele><time>2021-08-12T13:04:34Z</time><extensions><speed>1.716863</speed><course>40.176819</course><hAcc>0.866088</hAcc><vAcc>0.650799</vAcc></extensions></trkpt>
      <trkpt lon="-3.328847" lat="54.575014"><ele>113.636780</ele><time>2021-08-12T13:04:35Z</time><extensions><speed>1.730881</speed><course>42.588684</course><hAcc>0.866701</hAcc><vAcc>0.653001</vAcc></extensions></trkpt>
      <trkpt lon="-3.328857" lat="54.575028"><ele>113.540031</ele><time>2021-08-12T13:04:36Z</time><extensions><speed>1.742688</speed><course>41.771687</course><hAcc>0.867287</hAcc><vAcc>0.655108</vAcc></extensions></trkpt>
      <trkpt lon="-3.328867" lat="54.575043"><ele>113.449928</ele><time>2021-08-12T13:04:37Z</time><extensions><speed>1.752133</speed><course>41.372017</course><hAcc>0.867841</hAcc><vAcc>0.657113</vAcc></extensions></trkpt>
      <trkpt lon="-3.328877" lat="54.575058"><ele>113.368317</ele><time>2021-08-12T13:04:38Z</time><extensions><speed>1.758383</speed><course>37.017429</course><hAcc>0.868361</hAcc><vAcc>0.659003</vAcc></extensions></trkpt>
      <trkpt lon="-3.328887" lat="54.575072"><ele>113.297127</ele><time>2021-08-12T13:04:39Z</time><extensions><speed>1.761110</speed><course>28.588495</course><hAcc>0.868842</hAcc><vAcc>0.660749</vAcc></extensions></trkpt>
      <trkpt lon="-3.328897" lat="54.575087"><ele>113.237740</ele><time>2021-08-12T13:04:40Z</time><extensions><speed>1.760654</speed><course>39.512306</course><hAcc>0.869275</hAcc><vAcc>0.662315</vAcc></extensions></trkpt>
      <trkpt lon="-3.328907" lat="54.575102"><ele>113.190590</ele><time>2021-08-12T13:04:41Z</time><extensions><speed>1.757250</speed><course>38.955353</course><hAcc>0.869656</hAcc><vAcc>0.663679</vAcc></extensions></trkpt>
      <trkpt lon="-3.328917" lat="54.575116"><ele>113.155602</ele><time>2021-08-12T13:04:42Z</time><extensions><speed>1.750826</speed><course>35.270641</course><hAcc>0.869985</hAcc><vAcc>0.664841</vAcc></extensions></trkpt>
      <trkpt lon="-3.328928" lat="54.575131"><ele>113.132843</ele><time>2021-08-12T13:04:43Z</time><extensions><speed>1.740851</speed><course>38.302330</course><hAcc>0.870261</hAcc><vAcc>0.665809</vAcc></extensions></trkpt>
      <trkpt lon="-3.328938" lat="54.575145"><ele>113.122475</ele><time>2021-08-12T13:04:44Z</time><extensions><speed>1.727030</speed><course>40.976086</course><hAcc>0.870487</hAcc><vAcc>0.666588</vAcc></extensions></trkpt>
      <trkpt lon="-3.328948" lat="54.575159"><ele>113.124458</ele><time>2021-08-12T13:04:45Z</time><extensions><speed>1.709644</speed><course>40.718147</course><hAcc>0.870664</hAcc><vAcc>0.667185</vAcc></extensions></trkpt>
      <trkpt lon="-3.328958" lat="54.575173"><ele>113.138321</ele><time>2021-08-12T13:04:46Z</time><extensions><speed>1.689017</speed><course>40.437557</course><hAcc>0.870795</hAcc><vAcc>0.667612</vAcc></extensions></trkpt>
      <trkpt lon="-3.328968" lat="54.575187"><ele>113.162949</ele><time>2021-08-12T13:04:47Z</time><extensions><speed>1.665290</speed><course>38.315979</course><hAcc>0.870883</hAcc><vAcc>0.667890</vAcc></extensions></trkpt>
      <trkpt lon="-3.328978" lat="54.575201"><ele>113.196884</ele><time>2021-08-12T13:04:48Z</time><extensions><speed>1.638850</speed><course>28.668550</course><hAcc>0.870934</hAcc><vAcc>0.668038</vAcc></extensions></trkpt>
      <trkpt lon="-3.328987" lat="54.575215"><ele>113.238739</ele><time>2021-08-12T13:04:49Z</time><extensions><speed>1.610342</speed><course>31.392698</course><hAcc>0.870950</hAcc><vAcc>0.668079</vAcc></extensions></trkpt>
      <trkpt lon="-3.328996" lat="54.575228"><ele>113.287117</ele><time>2021-08-12T13:04:50Z</time><extensions><speed>1.580327</speed><course>32.848076</course><hAcc>0.870933</hAcc><vAcc>0.668033</vAcc></extensions></trkpt>
      <trkpt lon="-3.329005" lat="54.575241"><ele>113.340706</ele><time>2021-08-12T13:04:51Z</time><extensions><speed>1.548940</speed><course>38.096359</course><hAcc>0.870882</hAcc><vAcc>0.667908</vAcc></extensions></trkpt>
      <trkpt lon="-3.329014" lat="54.575254"><ele>113.398575</ele><time>2021-08-12T13:04:52Z</time><extensions><speed>1.516736</speed><course>27.737675</course><hAcc>0.870792</hAcc><vAcc>0.667690</vAcc></extensions></trkpt>
      <trkpt lon="-3.329022" lat="54.575266"><ele>113.460251</ele><time>2021-08-12T13:04:53Z</time><extensions><speed>1.485243</speed><course>38.820049</course><hAcc>0.870649</hAcc><vAcc>0.667319</vAcc></extensions></trkpt>
      <trkpt lon="-3.329029" lat="54.575279"><ele>113.525391</ele><time>2021-08-12T13:04:54Z</time><extensions><speed>1.456364</speed><course>40.137299</course><hAcc>0.870436</hAcc><vAcc>0.666706</vAcc></extensions></trkpt>
      <trkpt lon="-3.329037" lat="54.575291"><ele>113.593361</ele><time>2021-08-12T13:04:55Z</time><extensions><speed>1.431672</speed><course>44.560421</course><hAcc>0.870135</hAcc><vAcc>0.665763</vAcc></extensions></trkpt>
      <trkpt lon="-3.329043" lat="54.575303"><ele>113.662872</ele><time>2021-08-12T13:04:56Z</time><extensions><speed>1.411960</speed><course>41.574787</course><hAcc>0.869733</hAcc><vAcc>0.664428</vAcc></extensions></trkpt>
      <trkpt lon="-3.329050" lat="54.575315"><ele>113.731728</ele><time>2021-08-12T13:04:57Z</time><extensions><speed>1.397702</speed><course>37.402897</course><hAcc>0.869221</hAcc><vAcc>0.662665</vAcc></extensions></trkpt>
      <trkpt lon="-3.329056" lat="54.575327"><ele>113.797218</ele><time>2021-08-12T13:04:58Z</time><extensions><speed>1.388963</speed><course>38.445354</course><hAcc>0.868602</hAcc><vAcc>0.660470</vAcc></extensions></trkpt>
      <trkpt lon="-3.329062" lat="54.575339"><ele>113.857185</ele><time>2021-08-12T13:04:59Z</time><extensions><speed>1.385096</speed><course>32.932274</course><hAcc>0.867883</hAcc><vAcc>0.657876</vAcc></extensions></trkpt>
      <trkpt lon="-3.329067" lat="54.575351"><ele>113.910896</ele><time>2021-08-12T13:05:00Z</time><extensions><speed>1.385832</speed><course>27.701353</course><hAcc>0.867083</hAcc><vAcc>0.654948</vAcc></extensions></trkpt>
      <trkpt lon="-3.329073" lat="54.575364"><ele>113.958984</ele><time>2021-08-12T13:05:01Z</time><extensions><speed>1.391121</speed><course>28.233585</course><hAcc>0.866227</hAcc><vAcc>0.651785</vAcc></extensions></trkpt>
      <trkpt lon="-3.329078" lat="54.575376"><ele>114.003075</ele><time>2021-08-12T13:05:02Z</time><extensions><speed>1.400641</speed><course>30.003765</course><hAcc>0.865348</hAcc><vAcc>0.648514</vAcc></extensions></trkpt>
      <trkpt lon="-3.329084" lat="54.575388"><ele>114.044968</ele><time>2021-08-12T13:05:03Z</time><extensions><speed>1.413779</speed><course>35.586266</course><hAcc>0.864487</hAcc><vAcc>0.645291</vAcc></extensions></trkpt>
      <trkpt lon="-3.329089" lat="54.575400"><ele>114.085518</ele><time>2021-08-12T13:05:04Z</time><extensions><speed>1.429169</speed><course>41.034397</course><hAcc>0.863687</hAcc><vAcc>0.642289</vAcc></extensions></trkpt>
      <trkpt lon="-3.329095" lat="54.575413"><ele>114.124565</ele><time>2021-08-12T13:05:05Z</time><extensions><speed>1.445141</speed><course>43.040592</course><hAcc>0.862994</hAcc><vAcc>0.639687</vAcc></extensions></trkpt>
      <trkpt lon="-3.329100" lat="54.575425"><ele>114.161354</ele><time>2021-08-12T13:05:06Z</time><extensions><speed>1.460694</speed><course>49.550934</course><hAcc>0.862446</hAcc><vAcc>0.637643</vAcc></extensions></trkpt>
      <trkpt lon="-3.329106" lat="54.575438"><ele>114.194717</ele><time>2021-08-12T13:05:07Z</time><extensions><speed>1.474991</speed><course>62.069283</course><hAcc>0.862073</hAcc><vAcc>0.636271</vAcc></extensions></trkpt>
      <trkpt lon="-3.329111" lat="54.575451"><ele>114.223213</ele><time>2021-08-12T13:05:08Z</time><extensions><speed>1.486716</speed><course>68.512573</course><hAcc>0.861886</hAcc><vAcc>0.635623</vAcc></extensions></trkpt>
      <trkpt lon="-3.329117" lat="54.575464"><ele>114.245323</ele><time>2021-08-12T13:05:09Z</time><extensions><speed>1.494615</speed><course>76.544746</course><hAcc>0.861881</hAcc><vAcc>0.635672</vAcc></extensions></trkpt>
      <trkpt lon="-3.329122" lat="54.575477"><ele>114.259743</ele><time>2021-08-12T13:05:10Z</time><extensions><speed>1.498541</speed><course>91.471558</course><hAcc>0.862028</hAcc><vAcc>0.636298</vAcc></extensions></trkpt>
      <trkpt lon="-3.329128" lat="54.575490"><ele>114.265701</ele><time>2021-08-12T13:05:11Z</time><extensions><speed>1.500383</speed><course>103.707001</course><hAcc>0.862279</hAcc><vAcc>0.637295</vAcc></extensions></trkpt>
      <trkpt lon="-3.329134" lat="54.575503"><ele>114.262993</ele><time>2021-08-12T13:05:12Z</time><extensions><speed>1.502348</speed><course>102.240677</course><hAcc>0.862573</hAcc><vAcc>0.638422</vAcc></extensions></trkpt>
      <trkpt lon="-3.329140" lat="54.575516"><ele>114.252396</ele><time>2021-08-12T13:05:13Z</time><extensions><speed>1.505689</speed><course>109.008522</course><hAcc>0.862861</hAcc><vAcc>0.639477</vAcc></extensions></trkpt>
      <trkpt lon="-3.329145" lat="54.575529"><ele>114.236023</ele><time>2021-08-12T13:05:14Z</time><extensions><speed>1.511193</speed><course>120.687057</course><hAcc>0.863111</hAcc><vAcc>0.640341</vAcc></extensions></trkpt>
      <trkpt lon="-3.329151" lat="54.575543"><ele>114.216965</ele><time>2021-08-12T13:05:15Z</time><extensions><speed>1.519103</speed><course>122.518364</course><hAcc>0.863312</hAcc><vAcc>0.640981</vAcc></extensions></trkpt>
      <trkpt lon="-3.329157" lat="54.575556"><ele>114.198700</ele><time>2021-08-12T13:05:16Z</time><extensions><speed>1.529580</speed><course>116.435341</course><hAcc>0.863469</hAcc><vAcc>0.641435</vAcc></extensions></trkpt>
      <trkpt lon="-3.329162" lat="54.575569"><ele>114.184525</ele><time>2021-08-12T13:05:17Z</time><extensions><speed>1.543024</speed><course>123.806564</course><hAcc>0.863598</hAcc><vAcc>0.641788</vAcc></extensions></trkpt>
      <trkpt lon="-3.329168" lat="54.575583"><ele>114.176682</ele><time>2021-08-12T13:05:18Z</time><extensions><speed>1.559142</speed><course>121.279266</course><hAcc>0.863721</hAcc><vAcc>0.642129</vAcc></extensions></trkpt>
      <trkpt lon="-3.329173" lat="54.575597"><ele>114.175987</ele><time>2021-08-12T13:05:19Z</time><extensions><speed>1.577748</speed><course>122.295830</course><hAcc>0.863857</hAcc><vAcc>0.642534</vAcc></extensions></trkpt>
      <trkpt lon="-3.329179" lat="54.575611"><ele>114.182068</ele><time>2021-08-12T13:05:20Z</time><extensions><speed>1.599618</speed><course>116.485687</course><hAcc>0.864018</hAcc><vAcc>0.643056</vAcc></extensions></trkpt>
      <trkpt lon="-3.329184" lat="54.575625"><ele>114.194237</ele><time>2021-08-12T13:05:21Z</time><extensions><speed>1.625387</speed><course>120.837761</course><hAcc>0.864215</hAcc><vAcc>0.643731</vAcc></extensions></trkpt>
      <trkpt lon="-3.329189" lat="54.575639"><ele>114.212082</ele><time>2021-08-12T13:05:22Z</time><extensions><speed>1.654368</speed><course>121.691162</course><hAcc>0.864456</hAcc><vAcc>0.644586</vAcc></extensions></trkpt>
      <trkpt lon="-3.329194" lat="54.575654"><ele>114.235397</ele><time>2021-08-12T13:05:23Z</time><extensions><speed>1.684856</speed><course>120.429344</course><hAcc>0.864746</hAcc><vAcc>0.645632</vAcc></extensions></trkpt>
      <trkpt lon="-3.329199" lat="54.575669"><ele>114.263916</ele><time>2021-08-12T13:05:24Z</time><extensions><speed>1.714985</speed><course>127.922836</course><hAcc>0.865087</hAcc><vAcc>0.646879</vAcc></extensions></trkpt>
      <trkpt lon="-3.329204" lat="54.575684"><ele>114.297043</ele><time>2021-08-12T13:05:25Z</time><extensions><speed>1.742635</speed><course>122.773224</course><hAcc>0.865481</hAcc><vAcc>0.648334</vAcc></extensions></trkpt>
      <trkpt lon="-3.329210" lat="54.575700"><ele>114.333633</ele><time>2021-08-12T13:05:26Z</time><extensions><speed>1.765931</speed><course>127.410233</course><hAcc>0.865931</hAcc><vAcc>0.650002</vAcc></extensions></trkpt>
      <trkpt lon="-3.329216" lat="54.575715"><ele>114.372025</ele><time>2021-08-12T13:05:27Z</time><extensions><speed>1.783128</speed><course>126.293243</course><hAcc>0.866432</hAcc><vAcc>0.651875</vAcc></extensions></trkpt>
      <trkpt lon="-3.329222" lat="54.575731"><ele>114.410057</ele><time>2021-08-12T13:05:28Z</time><extensions><speed>1.793445</speed><course>113.773628</course><hAcc>0.866978</hAcc><vAcc>0.653912</vAcc></extensions></trkpt>
      <trkpt lon="-3.329229" lat="54.575746"><ele>114.445641</ele><time>2021-08-12T13:05:29Z</time><extensions><speed>1.797010</speed><course>111.597641</course><hAcc>0.867550</hAcc><vAcc>0.656036</vAcc></extensions></trkpt>
      <trkpt lon="-3.329237" lat="54.575762"><ele>114.477867</ele><time>2021-08-12T13:05:30Z</time><extensions><speed>1.793626</speed><course>118.242065</course><hAcc>0.868132</hAcc><vAcc>0.658166</vAcc></extensions></trkpt>
      <trkpt lon="-3.329245" lat="54.575777"><ele>114.507500</ele><time>2021-08-12T13:05:31Z</time><extensions><speed>1.783560</speed><course>121.318916</course><hAcc>0.868707</hAcc><vAcc>0.660237</vAcc></extensions></trkpt>
      <trkpt lon="-3.329254" lat="54.575792"><ele>114.536438</ele><time>2021-08-12T13:05:32Z</time><extensions><speed>1.767703</speed><course>126.571838</course><hAcc>0.869269</hAcc><vAcc>0.662216</vAcc></extensions></trkpt>
      <trkpt lon="-3.329263" lat="54.575807"><ele>114.567070</ele><time>2021-08-12T13:05:33Z</time><extensions><speed>1.747164</speed><course>116.053932</course><hAcc>0.869814</hAcc><vAcc>0.664107</vAcc></extensions></trkpt>
      <trkpt lon="-3.329274" lat="54.575821"><ele>114.601944</ele><time>2021-08-12T13:05:34Z</time><extensions><speed>1.723126</speed><course>122.553452</course><hAcc>0.870344</hAcc><vAcc>0.665936</vAcc></extensions></trkpt>
      <trkpt lon="-3.329285" lat="54.575835"><ele>114.643501</ele><time>2021-08-12T13:05:35Z</time><extensions><speed>1.696608</speed><course>115.362396</course><hAcc>0.870866</hAcc><vAcc>0.667747</vAcc></extensions></trkpt>
      <trkpt lon="-3.329297" lat="54.575849"><ele>114.693916</ele><time>2021-08-12T13:05:36Z</time><extensions><speed>1.668369</speed><course>120.016403</course><hAcc>0.871384</hAcc><vAcc>0.669581</vAcc></extensions></trkpt>
      <trkpt lon="-3.329310" lat="54.575861"><ele>114.754936</ele><time>2021-08-12T13:05:37Z</time><extensions><speed>1.639094</speed><course>131.521149</course><hAcc>0.871902</hAcc><vAcc>0.671459</vAcc></extensions></trkpt>
      <trkpt lon="-3.329324" lat="54.575874"><ele>114.827621</ele><time>2021-08-12T13:05:38Z</time><extensions><speed>1.609667</speed><course>124.976143</course><hAcc>0.872415</hAcc><vAcc>0.673371</vAcc></extensions></trkpt>
      <trkpt lon="-3.329339" lat="54.575885"><ele>114.912224</ele><time>2021-08-12T13:05:39Z</time><extensions><speed>1.581203</speed><course>123.546791</course><hAcc>0.872914</hAcc><vAcc>0.675273</vAcc></extensions></trkpt>
      <trkpt lon="-3.329354" lat="54.575896"><ele>115.008347</ele><time>2021-08-12T13:05:40Z</time><extensions><speed>1.554690</speed><course>116.699699</course><hAcc>0.873387</hAcc><vAcc>0.677103</vAcc></extensions></trkpt>
      <trkpt lon="-3.329370" lat="54.575907"><ele>115.115089</ele><time>2021-08-12T13:05:41Z</time><extensions><speed>1.530848</speed><course>112.924561</course><hAcc>0.873818</hAcc><vAcc>0.678792</vAcc></extensions></trkpt>
      <trkpt lon="-3.329386" lat="54.575916"><ele>115.231163</ele><time>2021-08-12T13:05:42Z</time><extensions><speed>1.509967</speed><course>117.858780</course><hAcc>0.874193</hAcc><vAcc>0.680274</vAcc></extensions></trkpt>
      <trkpt lon="-3.329403" lat="54.575926"><ele>115.355011</ele><time>2021-08-12T13:05:43Z</time><extensions><speed>1.491873</speed><course>111.630035</course><hAcc>0.874498</hAcc><vAcc>0.681487</vAcc></extensions></trkpt>
      <trkpt lon="-3.329420" lat="54.575934"><ele>115.484879</ele><time>2021-08-12T13:05:44Z</time><extensions><speed>1.476395</speed><course>115.453979</course><hAcc>0.874722</hAcc><vAcc>0.682377</vAcc></extensions></trkpt>
      <trkpt lon="-3.329438" lat="54.575942"><ele>115.619179</ele><time>2021-08-12T13:05:45Z</time><extensions><speed>1.462958</speed><course>108.625862</course><hAcc>0.874856</hAcc><vAcc>0.682900</vAcc></extensions></trkpt>
      <trkpt lon="-3.329456" lat="54.575950"><ele>115.756683</ele><time>2021-08-12T13:05:46Z</time><extensions><speed>1.450507</speed><course>116.435417</course><hAcc>0.874899</hAcc><vAcc>0.683033</vAcc></extensions></trkpt>
      <trkpt lon="-3.329475" lat="54.575958"><ele>115.896248</ele><time>2021-08-12T13:05:47Z</time><extensions><speed>1.438014</speed><course>112.323517</course><hAcc>0.874853</hAcc><vAcc>0.682779</vAcc></extensions></trkpt>
      <trkpt lon="-3.329493" lat="54.575965"><ele>116.036652</ele><time>2021-08-12T13:05:48Z</time><extensions><speed>1.424253</speed><course>117.491661</course><hAcc>0.874726</hAcc><vAcc>0.682177</vAcc></extensions></trkpt>
      <trkpt lon="-3.329512" lat="54.575971"><ele>116.176788</ele><time>2021-08-12T13:05:49Z</time><extensions><speed>1.407834</speed><course>120.293846</course><hAcc>0.874531</hAcc><vAcc>0.681296</vAcc></extensions></trkpt>
      <trkpt lon="-3.329530" lat="54.575978"><ele>116.315613</ele><time>2021-08-12T13:05:50Z</time><extensions><speed>1.388392</speed><course>115.591873</course><hAcc>0.874286</hAcc><vAcc>0.680225</vAcc></extensions></trkpt>
      <trkpt lon="-3.329548" lat="54.575984"><ele>116.451950</ele><time>2021-08-12T13:05:51Z</time><extensions><speed>1.365964</speed><course>116.468712</course><hAcc>0.874008</hAcc><vAcc>0.679055</vAcc></extensions></trkpt>
      <trkpt lon="-3.329566" lat="54.575991"><ele>116.584755</ele><time>2021-08-12T13:05:52Z</time><extensions><speed>1.340440</speed><course>116.627220</course><hAcc>0.873713</hAcc><vAcc>0.677866</vAcc></extensions></trkpt>
      <trkpt lon="-3.329583" lat="54.575997"><ele>116.713493</ele><time>2021-08-12T13:05:53Z</time><extensions><speed>1.312394</speed><course>115.487846</course><hAcc>0.873417</hAcc><vAcc>0.676714</vAcc></extensions></trkpt>
      <trkpt lon="-3.329600" lat="54.576004"><ele>116.838295</ele><time>2021-08-12T13:05:54Z</time><extensions><speed>1.282712</speed><course>110.303284</course><hAcc>0.873128</hAcc><vAcc>0.675627</vAcc></extensions></trkpt>
      <trkpt lon="-3.329616" lat="54.576010"><ele>116.959854</ele><time>2021-08-12T13:05:55Z</time><extensions><speed>1.252402</speed><course>107.900200</course><hAcc>0.872852</hAcc><vAcc>0.674617</vAcc></extensions></trkpt>
      <trkpt lon="-3.329631" lat="54.576017"><ele>117.078979</ele><time>2021-08-12T13:05:56Z</time><extensions><speed>1.222756</speed><course>104.901772</course><hAcc>0.872593</hAcc><vAcc>0.673683</vAcc></extensions></trkpt>
      <trkpt lon="-3.329646" lat="54.576024"><ele>117.196465</ele><time>2021-08-12T13:05:57Z</time><extensions><speed>1.195054</speed><course>102.625549</course><hAcc>0.872353</hAcc><vAcc>0.672826</vAcc></extensions></trkpt>
      <trkpt lon="-3.329659" lat="54.576031"><ele>117.313118</ele><time>2021-08-12T13:05:58Z</time><extensions><speed>1.170571</speed><course>101.615082</course><hAcc>0.872134</hAcc><vAcc>0.672046</vAcc></extensions></trkpt>
      <trkpt lon="-3.329672" lat="54.576038"><ele>117.430008</ele><time>2021-08-12T13:05:59Z</time><extensions><speed>1.149591</speed><course>104.820312</course><hAcc>0.871935</hAcc><vAcc>0.671343</vAcc></extensions></trkpt>
      <trkpt lon="-3.329684" lat="54.576046"><ele>117.548203</ele><time>2021-08-12T13:06:00Z</time><extensions><speed>1.131989</speed><course>97.837166</course><hAcc>0.871756</hAcc><vAcc>0.670712</vAcc></extensions></trkpt>
      <trkpt lon="-3.329696" lat="54.576053"><ele>117.668137</ele><time>2021-08-12T13:06:01Z</time><extensions><speed>1.118554</speed><course>99.518051</course><hAcc>0.871596</hAcc><vAcc>0.670148</vAcc></extensions></trkpt>
      <trkpt lon="-3.329707" lat="54.576061"><ele>117.789520</ele><time>2021-08-12T13:06:02Z</time><extensions><speed>1.109997</speed><course>105.468117</course><hAcc>0.871453</hAcc><vAcc>0.669649</vAcc></extensions></trkpt>
      <trkpt lon="-3.329717" lat="54.576069"><ele>117.911385</ele><time>2021-08-12T13:06:03Z</time><extensions><speed>1.106585</speed><course>105.021729</course><hAcc>0.871325</hAcc><vAcc>0.669211</vAcc></extensions></trkpt>
      <trkpt lon="-3.329726" lat="54.576077"><ele>118.032494</ele><time>2021-08-12T13:06:04Z</time><extensions><speed>1.107512</speed><course>105.854553</course><hAcc>0.871211</hAcc><vAcc>0.668825</vAcc></extensions></trkpt>
      <trkpt lon="-3.329735" lat="54.576086"><ele>118.151886</ele><time>2021-08-12T13:06:05Z</time><extensions><speed>1.111742</speed><course>116.038353</course><hAcc>0.871109</hAcc><vAcc>0.668479</vAcc></extensions></trkpt>
      <trkpt lon="-3.329744" lat="54.576094"><ele>118.268768</ele><time>2021-08-12T13:06:06Z</time><extensions><speed>1.119345</speed><course>116.622620</course><hAcc>0.871017</hAcc><vAcc>0.668156</vAcc></extensions></trkpt>
      <trkpt lon="-3.329753" lat="54.576103"><ele>118.382278</ele><time>2021-08-12T13:06:07Z</time><extensions><speed>1.130432</speed><course>116.023415</course><hAcc>0.870935</hAcc><vAcc>0.667849</vAcc></extensions></trkpt>
      <trkpt lon="-3.329762" lat="54.576112"><ele>118.491570</ele><time>2021-08-12T13:06:08Z</time><extensions><speed>1.144248</speed><course>111.053482</course><hAcc>0.870866</hAcc><vAcc>0.667564</vAcc></extensions></trkpt>
      <trkpt lon="-3.329770" lat="54.576121"><ele>118.596062</ele><time>2021-08-12T13:06:09Z</time><extensions><speed>1.159626</speed><course>109.683617</course><hAcc>0.870816</hAcc><vAcc>0.667328</vAcc></extensions></trkpt>
      <trkpt lon="-3.329779" lat="54.576130"><ele>118.695473</ele><time>2021-08-12T13:06:10Z</time><extensions><speed>1.175485</speed><course>107.838440</course><hAcc>0.870793</hAcc><vAcc>0.667183</vAcc></extensions></trkpt>
      <trkpt lon="-3.329789" lat="54.576139"><ele>118.789444</ele><time>2021-08-12T13:06:11Z</time><extensions><speed>1.191236</speed><course>110.196930</course><hAcc>0.870808</hAcc><vAcc>0.667174</vAcc></extensions></trkpt>
      <trkpt lon="-3.329798" lat="54.576149"><ele>118.878006</ele><time>2021-08-12T13:06:12Z</time><extensions><speed>1.206794</speed><course>111.548782</course><hAcc>0.870869</hAcc><vAcc>0.667347</vAcc></extensions></trkpt>
      <trkpt lon="-3.329808" lat="54.576158"><ele>118.961777</ele><time>2021-08-12T13:06:13Z</time><extensions><speed>1.222339</speed><course>110.420074</course><hAcc>0.870983</hAcc><vAcc>0.667747</vAcc></extensions></trkpt>
      <trkpt lon="-3.329818" lat="54.576167"><ele>119.041245</ele><time>2021-08-12T13:06:14Z</time><extensions><speed>1.238639</speed><course>99.619576</course><hAcc>0.871154</hAcc><vAcc>0.668398</vAcc></extensions></trkpt>
      <trkpt lon="-3.329829" lat="54.576177"><ele>119.116508</ele><time>2021-08-12T13:06:15Z</time><extensions><speed>1.256169</speed><course>107.102882</course><hAcc>0.871380</hAcc><vAcc>0.669296</vAcc></extensions></trkpt>
      <trkpt lon="-3.329840" lat="54.576186"><ele>119.187386</ele><time>2021-08-12T13:06:16Z</time><extensions><speed>1.274266</speed><course>98.831825</course><hAcc>0.871651</hAcc><vAcc>0.670408</vAcc></extensions></trkpt>
      <trkpt lon="-3.329851" lat="54.576195"><ele>119.253441</ele><time>2021-08-12T13:06:17Z</time><extensions><speed>1.291770</speed><course>99.864403</course><hAcc>0.871956</hAcc><vAcc>0.671668</vAcc></extensions></trkpt>
      <trkpt lon="-3.329863" lat="54.576205"><ele>119.314346</ele><time>2021-08-12T13:06:18Z</time><extensions><speed>1.307734</speed><course>99.165215</course><hAcc>0.872275</hAcc><vAcc>0.672987</vAcc></extensions></trkpt>
      <trkpt lon="-3.329874" lat="54.576215"><ele>119.370499</ele><time>2021-08-12T13:06:19Z</time><extensions><speed>1.321778</speed><course>106.876038</course><hAcc>0.872590</hAcc><vAcc>0.674259</vAcc></extensions></trkpt>
      <trkpt lon="-3.329886" lat="54.576224"><ele>119.422928</ele><time>2021-08-12T13:06:20Z</time><extensions><speed>1.334647</speed><course>100.224144</course><hAcc>0.872881</hAcc><vAcc>0.675388</vAcc></extensions></trkpt>
      <trkpt lon="-3.329898" lat="54.576234"><ele>119.472733</ele><time>2021-08-12T13:06:21Z</time><extensions><speed>1.347377</speed><course>97.870438</course><hAcc>0.873138</hAcc><vAcc>0.676313</vAcc></extensions></trkpt>
      <trkpt lon="-3.329909" lat="54.576245"><ele>119.520889</ele><time>2021-08-12T13:06:22Z</time><extensions><speed>1.360381</speed><course>109.047302</course><hAcc>0.873355</hAcc><vAcc>0.677017</vAcc></extensions></trkpt>
      <trkpt lon="-3.329921" lat="54.576255"><ele>119.568390</ele><time>2021-08-12T13:06:23Z</time><extensions><speed>1.373982</speed><course>111.386711</course><hAcc>0.873536</hAcc><vAcc>0.677532</vAcc></extensions></trkpt>
      <trkpt lon="-3.329932" lat="54.576265"><ele>119.616043</ele><time>2021-08-12T13:06:24Z</time><extensions><speed>1.388298</speed><course>110.131767</course><hAcc>0.873689</hAcc><vAcc>0.677918</vAcc></extensions></trkpt>
      <trkpt lon="-3.329943" lat="54.576276"><ele>119.664246</ele><time>2021-08-12T13:06:25Z</time><extensions><speed>1.403295</speed><course>109.748413</course><hAcc>0.873827</hAcc><vAcc>0.678255</vAcc></extensions></trkpt>
      <trkpt lon="-3.329953" lat="54.576287"><ele>119.712959</ele><time>2021-08-12T13:06:26Z</time><extensions><speed>1.418606</speed><course>116.453705</course><hAcc>0.873961</hAcc><vAcc>0.678619</vAcc></extensions></trkpt>
      <trkpt lon="-3.329963" lat="54.576299"><ele>119.762108</ele><time>2021-08-12T13:06:27Z</time><extensions><speed>1.433707</speed><course>111.019348</course><hAcc>0.874104</hAcc><vAcc>0.679072</vAcc></extensions></trkpt>
      <trkpt lon="-3.329973" lat="54.576310"><ele>119.811989</ele><time>2021-08-12T13:06:28Z</time><extensions><speed>1.448029</speed><course>106.996025</course><hAcc>0.874262</hAcc><vAcc>0.679644</vAcc></extensions></trkpt>
      <trkpt lon="-3.329982" lat="54.576322"><ele>119.863159</ele><time>2021-08-12T13:06:29Z</time><extensions><speed>1.460149</speed><course>104.594215</course><hAcc>0.874436</hAcc><vAcc>0.680335</vAcc></extensions></trkpt>
      <trkpt lon="-3.329991" lat="54.576334"><ele>119.916229</ele><time>2021-08-12T13:06:30Z</time><extensions><speed>1.468343</speed><course>101.351479</course><hAcc>0.874624</hAcc><vAcc>0.681114</vAcc></extensions></trkpt>
      <trkpt lon="-3.329999" lat="54.576347"><ele>119.971855</ele><time>2021-08-12T13:06:31Z</time><extensions><speed>1.471787</speed><course>105.952332</course><hAcc>0.874819</hAcc><vAcc>0.681924</vAcc></extensions></trkpt>
      <trkpt lon="-3.330007" lat="54.576359"><ele>120.030212</ele><time>2021-08-12T13:06:32Z</time><extensions><speed>1.469754</speed><course>113.138412</course><hAcc>0.875012</hAcc><vAcc>0.682705</vAcc></extensions></trkpt>
      <trkpt lon="-3.330014" lat="54.576372"><ele>120.090782</ele><time>2021-08-12T13:06:33Z</time><extensions><speed>1.460886</speed><course>112.944946</course><hAcc>0.875196</hAcc><vAcc>0.683414</vAcc></extensions></trkpt>
      <trkpt lon="-3.330020" lat="54.576384"><ele>120.152992</ele><time>2021-08-12T13:06:34Z</time><extensions><speed>1.444116</speed><course>108.292221</course><hAcc>0.875369</hAcc><vAcc>0.684035</vAcc></extensions></trkpt>
      <trkpt lon="-3.330026" lat="54.576397"><ele>120.216408</ele><time>2021-08-12T13:06:35Z</time><extensions><speed>1.419199</speed><course>108.436562</course><hAcc>0.875529</hAcc><vAcc>0.684572</vAcc></extensions></trkpt>
      <trkpt lon="-3.330030" lat="54.576409"><ele>120.280380</ele><time>2021-08-12T13:06:36Z</time><extensions><speed>1.386045</speed><course>102.445824</course><hAcc>0.875680</hAcc><vAcc>0.685045</vAcc></extensions></trkpt>
      <trkpt lon="-3.330034" lat="54.576421"><ele>120.343971</ele><time>2021-08-12T13:06:37Z</time><extensions><speed>1.344495</speed><course>99.628555</course><hAcc>0.875829</hAcc><vAcc>0.685483</vAcc></extensions></trkpt>
      <trkpt lon="-3.330036" lat="54.576433"><ele>120.406242</ele><time>2021-08-12T13:06:38Z</time><extensions><speed>1.294771</speed><course>103.656601</course><hAcc>0.875983</hAcc><vAcc>0.685926</vAcc></extensions></trkpt>
      <trkpt lon="-3.330038" lat="54.576444"><ele>120.466713</ele><time>2021-08-12T13:06:39Z</time><extensions><speed>1.237426</speed><course>97.309608</course><hAcc>0.876154</hAcc><vAcc>0.686421</vAcc></extensions></trkpt>
      <trkpt lon="-3.330039" lat="54.576455"><ele>120.525703</ele><time>2021-08-12T13:06:40Z</time><extensions><speed>1.173499</speed><course>95.308922</course><hAcc>0.876352</hAcc><vAcc>0.687018</vAcc></extensions></trkpt>
      <trkpt lon="-3.330039" lat="54.576465"><ele>120.584190</ele><time>2021-08-12T13:06:41Z</time><extensions><speed>1.104178</speed><course>105.665154</course><hAcc>0.876589</hAcc><vAcc>0.687775</vAcc></extensions></trkpt>
      <trkpt lon="-3.330037" lat="54.576475"><ele>120.643341</ele><time>2021-08-12T13:06:42Z</time><extensions><speed>1.030019</speed><course>120.238884</course><hAcc>0.876876</hAcc><vAcc>0.688746</vAcc></extensions></trkpt>
      <trkpt lon="-3.330036" lat="54.576484"><ele>120.704231</ele><time>2021-08-12T13:06:43Z</time><extensions><speed>0.951248</speed><course>108.474937</course><hAcc>0.877218</hAcc><vAcc>0.689976</vAcc></extensions></trkpt>
      <trkpt lon="-3.330033" lat="54.576492"><ele>120.767830</ele><time>2021-08-12T13:06:44Z</time><extensions><speed>0.868533</speed><course>104.059807</course><hAcc>0.877621</hAcc><vAcc>0.691487</vAcc></extensions></trkpt>
      <trkpt lon="-3.330031" lat="54.576499"><ele>120.834908</ele><time>2021-08-12T13:06:45Z</time><extensions><speed>0.783306</speed><course>102.572708</course><hAcc>0.878080</hAcc><vAcc>0.693267</vAcc></extensions></trkpt>
      <trkpt lon="-3.330028" lat="54.576505"><ele>120.905960</ele><time>2021-08-12T13:06:46Z</time><extensions><speed>0.698164</speed><course>107.161850</course><hAcc>0.878587</hAcc><vAcc>0.695270</vAcc></extensions></trkpt>
      <trkpt lon="-3.330025" lat="54.576511"><ele>120.981346</ele><time>2021-08-12T13:06:47Z</time><extensions><speed>0.616979</speed><course>105.046165</course><hAcc>0.879130</hAcc><vAcc>0.697426</vAcc></extensions></trkpt>
      <trkpt lon="-3.330023" lat="54.576516"><ele>121.061295</ele><time>2021-08-12T13:06:48Z</time><extensions><speed>0.544126</speed><course>107.406158</course><hAcc>0.879692</hAcc><vAcc>0.699658</vAcc></extensions></trkpt>
      <trkpt lon="-3.330021" lat="54.576521"><ele>121.145790</ele><time>2021-08-12T13:06:49Z</time><extensions><speed>0.484266</speed><course>115.429123</course><hAcc>0.880254</hAcc><vAcc>0.701890</vAcc></extensions></trkpt>
      <trkpt lon="-3.330020" lat="54.576525"><ele>121.234955</ele><time>2021-08-12T13:06:50Z</time><extensions><speed>0.443637</speed><course>116.147835</course><hAcc>0.880799</hAcc><vAcc>0.704049</vAcc></extensions></trkpt>
      <trkpt lon="-3.330020" lat="54.576529"><ele>121.329147</ele><time>2021-08-12T13:06:51Z</time><extensions><speed>0.429790</speed><course>117.699570</course><hAcc>0.881306</hAcc><vAcc>0.706067</vAcc></extensions></trkpt>
      <trkpt lon="-3.330021" lat="54.576533"><ele>121.428833</ele><time>2021-08-12T13:06:52Z</time><extensions><speed>0.448301</speed><course>118.218575</course><hAcc>0.881756</hAcc><vAcc>0.707887</vAcc></extensions></trkpt>
      <trkpt lon="-3.330024" lat="54.576537"><ele>121.534554</ele><time>2021-08-12T13:06:53Z</time><extensions><speed>0.499058</speed><course>118.864105</course><hAcc>0.882132</hAcc><vAcc>0.709454</vAcc></extensions></trkpt>
      <trkpt lon="-3.330028" lat="54.576541"><ele>121.646851</ele><time>2021-08-12T13:06:54Z</time><extensions><speed>0.576164</speed><course>117.180046</course><hAcc>0.882421</hAcc><vAcc>0.710708</vAcc></extensions></trkpt>
      <trkpt lon="-3.330033" lat="54.576545"><ele>121.766212</ele><time>2021-08-12T13:06:55Z</time><extensions><speed>0.671272</speed><course>115.856689</course><hAcc>0.882611</hAcc><vAcc>0.711581</vAcc></extensions></trkpt>
      <trkpt lon="-3.330040" lat="54.576551"><ele>121.893051</ele><time>2021-08-12T13:06:56Z</time><extensions><speed>0.775866</speed><course>112.617844</course><hAcc>0.882695</hAcc><vAcc>0.712017</vAcc></extensions></trkpt>
      <trkpt lon="-3.330048" lat="54.576556"><ele>122.027611</ele><time>2021-08-12T13:06:57Z</time><extensions><speed>0.881524</speed><course>120.157761</course><hAcc>0.882669</hAcc><vAcc>0.711976</vAcc></extensions></trkpt>
      <trkpt lon="-3.330058" lat="54.576563"><ele>122.169922</ele><time>2021-08-12T13:06:58Z</time><extensions><speed>0.979439</speed><course>116.743965</course><hAcc>0.882533</hAcc><vAcc>0.711443</vAcc></extensions></trkpt>
      <trkpt lon="-3.330068" lat="54.576570"><ele>122.319763</ele><time>2021-08-12T13:06:59Z</time><extensions><speed>1.064098</speed><course>126.528450</course><hAcc>0.882289</hAcc><vAcc>0.710433</vAcc></extensions></trkpt>
      <trkpt lon="-3.330079" lat="54.576577"><ele>122.476868</ele><time>2021-08-12T13:07:00Z</time><extensions><speed>1.134396</speed><course>122.809067</course><hAcc>0.881945</hAcc><vAcc>0.708984</vAcc></extensions></trkpt>
      <trkpt lon="-3.330090" lat="54.576585"><ele>122.641304</ele><time>2021-08-12T13:07:01Z</time><extensions><speed>1.190944</speed><course>118.437454</course><hAcc>0.881508</hAcc><vAcc>0.707158</vAcc></extensions></trkpt>
      <trkpt lon="-3.330101" lat="54.576594"><ele>122.813110</ele><time>2021-08-12T13:07:02Z</time><extensions><speed>1.234947</speed><course>113.862648</course><hAcc>0.880988</hAcc><vAcc>0.705030</vAcc></extensions></trkpt>
      <trkpt lon="-3.330113" lat="54.576603"><ele>122.991684</ele><time>2021-08-12T13:07:03Z</time><extensions><speed>1.267206</speed><course>110.315605</course><hAcc>0.880396</hAcc><vAcc>0.702670</vAcc></extensions></trkpt>
      <trkpt lon="-3.330124" lat="54.576613"><ele>123.175720</ele><time>2021-08-12T13:07:04Z</time><extensions><speed>1.288657</speed><course>111.526596</course><hAcc>0.879743</hAcc><vAcc>0.700143</vAcc></extensions></trkpt>
      <trkpt lon="-3.330134" lat="54.576623"><ele>123.363625</ele><time>2021-08-12T13:07:05Z</time><extensions><speed>1.300476</speed><course>111.825790</course><hAcc>0.879039</hAcc><vAcc>0.697495</vAcc></extensions></trkpt>
      <trkpt lon="-3.330145" lat="54.576633"><ele>123.553680</ele><time>2021-08-12T13:07:06Z</time><extensions><speed>1.304040</speed><course>110.069481</course><hAcc>0.878292</hAcc><vAcc>0.694752</vAcc></extensions></trkpt>
      <trkpt lon="-3.330155" lat="54.576643"><ele>123.744095</ele><time>2021-08-12T13:07:07Z</time><extensions><speed>1.300737</speed><course>114.632622</course><hAcc>0.877506</hAcc><vAcc>0.691926</vAcc></extensions></trkpt>
      <trkpt lon="-3.330164" lat="54.576653"><ele>123.933197</ele><time>2021-08-12T13:07:08Z</time><extensions><speed>1.292037</speed><course>103.253258</course><hAcc>0.876685</hAcc><vAcc>0.689013</vAcc></extensions></trkpt>
      <trkpt lon="-3.330173" lat="54.576663"><ele>124.119781</ele><time>2021-08-12T13:07:09Z</time><extensions><speed>1.279651</speed><course>106.301743</course><hAcc>0.875830</hAcc><vAcc>0.686001</vAcc></extensions></trkpt>
      <trkpt lon="-3.330182" lat="54.576674"><ele>124.302925</ele><time>2021-08-12T13:07:10Z</time><extensions><speed>1.265485</speed><course>102.376541</course><hAcc>0.874943</hAcc><vAcc>0.682879</vAcc></extensions></trkpt>
      <trkpt lon="-3.330190" lat="54.576684"><ele>124.481712</ele><time>2021-08-12T13:07:11Z</time><extensions><speed>1.251362</speed><course>106.795837</course><hAcc>0.874024</hAcc><vAcc>0.679638</vAcc></extensions></trkpt>
      <trkpt lon="-3.330198" lat="54.576694"><ele>124.655144</ele><time>2021-08-12T13:07:12Z</time><extensions><speed>1.238180</speed><course>105.416672</course><hAcc>0.873080</hAcc><vAcc>0.676279</vAcc></extensions></trkpt>
      <trkpt lon="-3.330206" lat="54.576704"><ele>124.822212</ele><time>2021-08-12T13:07:13Z</time><extensions><speed>1.225864</speed><course>115.994911</course><hAcc>0.872116</hAcc><vAcc>0.672818</vAcc></extensions></trkpt>
      <trkpt lon="-3.330214" lat="54.576714"><ele>124.981926</ele><time>2021-08-12T13:07:14Z</time><extensions><speed>1.214415</speed><course>121.956070</course><hAcc>0.871145</hAcc><vAcc>0.669288</vAcc></extensions></trkpt>
      <trkpt lon="-3.330221" lat="54.576724"><ele>125.133377</ele><time>2021-08-12T13:07:15Z</time><extensions><speed>1.204426</speed><course>114.918808</course><hAcc>0.870186</hAcc><vAcc>0.665752</vAcc></extensions></trkpt>
      <trkpt lon="-3.330229" lat="54.576734"><ele>125.275940</ele><time>2021-08-12T13:07:16Z</time><extensions><speed>1.196610</speed><course>112.952827</course><hAcc>0.869262</hAcc><vAcc>0.662300</vAcc></extensions></trkpt>
      <trkpt lon="-3.330236" lat="54.576744"><ele>125.409592</ele><time>2021-08-12T13:07:17Z</time><extensions><speed>1.191714</speed><course>108.521141</course><hAcc>0.868403</hAcc><vAcc>0.659056</vAcc></extensions></trkpt>
      <trkpt lon="-3.330244" lat="54.576753"><ele>125.534790</ele><time>2021-08-12T13:07:18Z</time><extensions><speed>1.190943</speed><course>105.023331</course><hAcc>0.867641</hAcc><vAcc>0.656155</vAcc></extensions></trkpt>
      <trkpt lon="-3.330252" lat="54.576763"><ele>125.652008</ele><time>2021-08-12T13:07:19Z</time><extensions><speed>1.195067</speed><course>98.270523</course><hAcc>0.867007</hAcc><vAcc>0.653733</vAcc></extensions></trkpt>
      <trkpt lon="-3.330260" lat="54.576773"><ele>125.761719</ele><time>2021-08-12T13:07:20Z</time><extensions><speed>1.203435</speed><course>104.555389</course><hAcc>0.866528</hAcc><vAcc>0.651901</vAcc></extensions></trkpt>
      <trkpt lon="-3.330269" lat="54.576782"><ele>125.864449</ele><time>2021-08-12T13:07:21Z</time><extensions><speed>1.214296</speed><course>108.798698</course><hAcc>0.866220</hAcc><vAcc>0.650729</vAcc></extensions></trkpt>
      <trkpt lon="-3.330278" lat="54.576792"><ele>125.960571</ele><time>2021-08-12T13:07:22Z</time><extensions><speed>1.225401</speed><course>107.953148</course><hAcc>0.866086</hAcc><vAcc>0.650233</vAcc></extensions></trkpt>
      <trkpt lon="-3.330287" lat="54.576802"><ele>126.050537</ele><time>2021-08-12T13:07:23Z</time><extensions><speed>1.235241</speed><course>107.561462</course><hAcc>0.866115</hAcc><vAcc>0.650365</vAcc></extensions></trkpt>
      <trkpt lon="-3.330296" lat="54.576812"><ele>126.135124</ele><time>2021-08-12T13:07:24Z</time><extensions><speed>1.243904</speed><course>98.600151</course><hAcc>0.866286</hAcc><vAcc>0.651030</vAcc></extensions></trkpt>
      <trkpt lon="-3.330305" lat="54.576821"><ele>126.215157</ele><time>2021-08-12T13:07:25Z</time><extensions><speed>1.252399</speed><course>106.179245</course><hAcc>0.866574</hAcc><vAcc>0.652130</vAcc></extensions></trkpt>
      <trkpt lon="-3.330315" lat="54.576831"><ele>126.291100</ele><time>2021-08-12T13:07:26Z</time><extensions><speed>1.261525</speed><course>99.736237</course><hAcc>0.866958</hAcc><vAcc>0.653577</vAcc></extensions></trkpt>
      <trkpt lon="-3.330325" lat="54.576841"><ele>126.363014</ele><time>2021-08-12T13:07:27Z</time><extensions><speed>1.271292</speed><course>102.027924</course><hAcc>0.867417</hAcc><vAcc>0.655294</vAcc></extensions></trkpt>
      <trkpt lon="-3.330335" lat="54.576851"><ele>126.431030</ele><time>2021-08-12T13:07:28Z</time><extensions><speed>1.281216</speed><course>94.072990</course><hAcc>0.867931</hAcc><vAcc>0.657206</vAcc></extensions></trkpt>
      <trkpt lon="-3.330345" lat="54.576861"><ele>126.495857</ele><time>2021-08-12T13:07:29Z</time><extensions><speed>1.290694</speed><course>96.463219</course><hAcc>0.868481</hAcc><vAcc>0.659244</vAcc></extensions></trkpt>
      <trkpt lon="-3.330355" lat="54.576871"><ele>126.558807</ele><time>2021-08-12T13:07:30Z</time><extensions><speed>1.299509</speed><course>96.928070</course><hAcc>0.869052</hAcc><vAcc>0.661343</vAcc></extensions></trkpt>
      <trkpt lon="-3.330365" lat="54.576881"><ele>126.621719</ele><time>2021-08-12T13:07:31Z</time><extensions><speed>1.308244</speed><course>85.766655</course><hAcc>0.869630</hAcc><vAcc>0.663449</vAcc></extensions></trkpt>
      <trkpt lon="-3.330375" lat="54.576891"><ele>126.686852</ele><time>2021-08-12T13:07:32Z</time><extensions><speed>1.317685</speed><course>93.944389</course><hAcc>0.870203</hAcc><vAcc>0.665515</vAcc></extensions></trkpt>
      <trkpt lon="-3.330385" lat="54.576902"><ele>126.756447</ele><time>2021-08-12T13:07:33Z</time><extensions><speed>1.328153</speed><course>96.280258</course><hAcc>0.870764</hAcc><vAcc>0.667512</vAcc></extensions></trkpt>
      <trkpt lon="-3.330395" lat="54.576912"><ele>126.832130</ele><time>2021-08-12T13:07:34Z</time><extensions><speed>1.339238</speed><course>103.229439</course><hAcc>0.871310</hAcc><vAcc>0.669430</vAcc></extensions></trkpt>
      <trkpt lon="-3.330405" lat="54.576923"><ele>126.914810</ele><time>2021-08-12T13:07:35Z</time><extensions><speed>1.350369</speed><course>100.069313</course><hAcc>0.871842</hAcc><vAcc>0.671281</vAcc></extensions></trkpt>
      <trkpt lon="-3.330416" lat="54.576933"><ele>127.004562</ele><time>2021-08-12T13:07:36Z</time><extensions><speed>1.361128</speed><course>107.704430</course><hAcc>0.872365</hAcc><vAcc>0.673092</vAcc></extensions></trkpt>
      <trkpt lon="-3.330426" lat="54.576944"><ele>127.100510</ele><time>2021-08-12T13:07:37Z</time><extensions><speed>1.370564</speed><course>102.019516</course><hAcc>0.872883</hAcc><vAcc>0.674899</vAcc></extensions></trkpt>
      <trkpt lon="-3.330436" lat="54.576955"><ele>127.201134</ele><time>2021-08-12T13:07:38Z</time><extensions><speed>1.377864</speed><course>101.188896</course><hAcc>0.873404</hAcc><vAcc>0.676738</vAcc></extensions></trkpt>
      <trkpt lon="-3.330447" lat="54.576965"><ele>127.304787</ele><time>2021-08-12T13:07:39Z</time><extensions><speed>1.383252</speed><course>101.655106</course><hAcc>0.873931</hAcc><vAcc>0.678635</vAcc></extensions></trkpt>
      <trkpt lon="-3.330458" lat="54.576976"><ele>127.409737</ele><time>2021-08-12T13:07:40Z</time><extensions><speed>1.386884</speed><course>97.512695</course><hAcc>0.874466</hAcc><vAcc>0.680598</vAcc></extensions></trkpt>
      <trkpt lon="-3.330469" lat="54.576987"><ele>127.514244</ele><time>2021-08-12T13:07:41Z</time><extensions><speed>1.388224</speed><course>96.923676</course><hAcc>0.875008</hAcc><vAcc>0.682613</vAcc></extensions></trkpt>
      <trkpt lon="-3.330480" lat="54.576997"><ele>127.616669</ele><time>2021-08-12T13:07:42Z</time><extensions><speed>1.387115</speed><course>96.356850</course><hAcc>0.875549</hAcc><vAcc>0.684648</vAcc></extensions></trkpt>
      <trkpt lon="-3.330491" lat="54.577008"><ele>127.715584</ele><time>2021-08-12T13:07:43Z</time><extensions><speed>1.383737</speed><course>95.959724</course><hAcc>0.876084</hAcc><vAcc>0.686663</vAcc></extensions></trkpt>
      <trkpt lon="-3.330503" lat="54.577019"><ele>127.810120</ele><time>2021-08-12T13:07:44Z</time><extensions><speed>1.378142</speed><course>95.959717</course><hAcc>0.876605</hAcc><vAcc>0.688619</vAcc></extensions></trkpt>
      <trkpt lon="-3.330514" lat="54.577029"><ele>127.899948</ele><time>2021-08-12T13:07:45Z</time><extensions><speed>1.370353</speed><course>97.361824</course><hAcc>0.877103</hAcc><vAcc>0.690481</vAcc></extensions></trkpt>
      <trkpt lon="-3.330526" lat="54.577039"><ele>127.984985</ele><time>2021-08-12T13:07:46Z</time><extensions><speed>1.360746</speed><course>97.361824</course><hAcc>0.877572</hAcc><vAcc>0.692219</vAcc></extensions></trkpt>
      <trkpt lon="-3.330538" lat="54.577049"><ele>128.065338</ele><time>2021-08-12T13:07:47Z</time><extensions><speed>1.350090</speed><course>97.361809</course><hAcc>0.878007</hAcc><vAcc>0.693809</vAcc></extensions></trkpt>
      <trkpt lon="-3.330550" lat="54.577059"><ele>128.141403</ele><time>2021-08-12T13:07:48Z</time><extensions><speed>1.339370</speed><course>97.361801</course><hAcc>0.878402</hAcc><vAcc>0.695235</vAcc></extensions></trkpt>
      <trkpt lon="-3.330562" lat="54.577069"><ele>128.214066</ele><time>2021-08-12T13:07:49Z</time><extensions><speed>1.329737</speed><course>42.884136</course><hAcc>0.878756</hAcc><vAcc>0.696485</vAcc></extensions></trkpt>
      <trkpt lon="-3.330574" lat="54.577079"><ele>128.284393</ele><time>2021-08-12T13:07:50Z</time><extensions><speed>1.322091</speed><course>35.984764</course><hAcc>0.879068</hAcc><vAcc>0.697560</vAcc></extensions></trkpt>
      <trkpt lon="-3.330586" lat="54.577088"><ele>128.353439</ele><time>2021-08-12T13:07:51Z</time><extensions><speed>1.316785</speed><course>65.852417</course><hAcc>0.879339</hAcc><vAcc>0.698468</vAcc></extensions></trkpt>
      <trkpt lon="-3.330598" lat="54.577097"><ele>128.422333</ele><time>2021-08-12T13:07:52Z</time><extensions><speed>1.313624</speed><course>86.337746</course><hAcc>0.879569</hAcc><vAcc>0.699229</vAcc></extensions></trkpt>
      <trkpt lon="-3.330611" lat="54.577107"><ele>128.492523</ele><time>2021-08-12T13:07:53Z</time><extensions><speed>1.312325</speed><course>89.071770</course><hAcc>0.879763</hAcc><vAcc>0.699869</vAcc></extensions></trkpt>
      <trkpt lon="-3.330624" lat="54.577116"><ele>128.565918</ele><time>2021-08-12T13:07:54Z</time><extensions><speed>1.312597</speed><course>92.612312</course><hAcc>0.879920</hAcc><vAcc>0.700406</vAcc></extensions></trkpt>
      <trkpt lon="-3.330637" lat="54.577125"><ele>128.644608</ele><time>2021-08-12T13:07:55Z</time><extensions><speed>1.313689</speed><course>103.461632</course><hAcc>0.880044</hAcc><vAcc>0.700852</vAcc></extensions></trkpt>
      <trkpt lon="-3.330650" lat="54.577134"><ele>128.730453</ele><time>2021-08-12T13:07:56Z</time><extensions><speed>1.314471</speed><course>104.412865</course><hAcc>0.880136</hAcc><vAcc>0.701206</vAcc></extensions></trkpt>
      <trkpt lon="-3.330664" lat="54.577142"><ele>128.824814</ele><time>2021-08-12T13:07:57Z</time><extensions><speed>1.314399</speed><course>129.601685</course><hAcc>0.880194</hAcc><vAcc>0.701459</vAcc></extensions></trkpt>
      <trkpt lon="-3.330678" lat="54.577151"><ele>128.928131</ele><time>2021-08-12T13:07:58Z</time><extensions><speed>1.313734</speed><course>149.567169</course><hAcc>0.880221</hAcc><vAcc>0.701595</vAcc></extensions></trkpt>
      <trkpt lon="-3.330691" lat="54.577160"><ele>129.039993</ele><time>2021-08-12T13:07:59Z</time><extensions><speed>1.312558</speed><course>129.327728</course><hAcc>0.880216</hAcc><vAcc>0.701602</vAcc></extensions></trkpt>
      <trkpt lon="-3.330706" lat="54.577168"><ele>129.159637</ele><time>2021-08-12T13:08:00Z</time><extensions><speed>1.310417</speed><course>129.943619</course><hAcc>0.880178</hAcc><vAcc>0.701474</vAcc></extensions></trkpt>
      <trkpt lon="-3.330720" lat="54.577176"><ele>129.286209</ele><time>2021-08-12T13:08:01Z</time><extensions><speed>1.307361</speed><course>125.470825</course><hAcc>0.880110</hAcc><vAcc>0.701212</vAcc></extensions></trkpt>
      <trkpt lon="-3.330734" lat="54.577185"><ele>129.418808</ele><time>2021-08-12T13:08:02Z</time><extensions><speed>1.304099</speed><course>125.654007</course><hAcc>0.880013</hAcc><vAcc>0.700824</vAcc></extensions></trkpt>
      <trkpt lon="-3.330749" lat="54.577193"><ele>129.556702</ele><time>2021-08-12T13:08:03Z</time><extensions><speed>1.301284</speed><course>132.941208</course><hAcc>0.879889</hAcc><vAcc>0.700326</vAcc></extensions></trkpt>
      <trkpt lon="-3.330763" lat="54.577201"><ele>129.699783</ele><time>2021-08-12T13:08:04Z</time><extensions><speed>1.299128</speed><course>128.525970</course><hAcc>0.879743</hAcc><vAcc>0.699737</vAcc></extensions></trkpt>
      <trkpt lon="-3.330778" lat="54.577209"><ele>129.848099</ele><time>2021-08-12T13:08:05Z</time><extensions><speed>1.297247</speed><course>129.747040</course><hAcc>0.879579</hAcc><vAcc>0.699081</vAcc></extensions></trkpt>
      <trkpt lon="-3.330793" lat="54.577217"><ele>130.001282</ele><time>2021-08-12T13:08:06Z</time><extensions><speed>1.295105</speed><course>133.257645</course><hAcc>0.879403</hAcc><vAcc>0.698381</vAcc></extensions></trkpt>
      <trkpt lon="-3.330808" lat="54.577224"><ele>130.158432</ele><time>2021-08-12T13:08:07Z</time><extensions><speed>1.292495</speed><course>122.834160</course><hAcc>0.879220</hAcc><vAcc>0.697662</vAcc></extensions></trkpt>
      <trkpt lon="-3.330823" lat="54.577232"><ele>130.318176</ele><time>2021-08-12T13:08:08Z</time><extensions><speed>1.289505</speed><course>121.754723</course><hAcc>0.879036</hAcc><vAcc>0.696945</vAcc></extensions></trkpt>
      <trkpt lon="-3.330838" lat="54.577239"><ele>130.478470</ele><time>2021-08-12T13:08:09Z</time><extensions><speed>1.285879</speed><course>130.620087</course><hAcc>0.878857</hAcc><vAcc>0.696247</vAcc></extensions></trkpt>
      <trkpt lon="-3.330854" lat="54.577247"><ele>130.636917</ele><time>2021-08-12T13:08:10Z</time><extensions><speed>1.281479</speed><course>128.548019</course><hAcc>0.878690</hAcc><vAcc>0.695589</vAcc></extensions></trkpt>
      <trkpt lon="-3.330869" lat="54.577254"><ele>130.791168</ele><time>2021-08-12T13:08:11Z</time><extensions><speed>1.276582</speed><course>128.034912</course><hAcc>0.878538</hAcc><vAcc>0.694991</vAcc></extensions></trkpt>
      <trkpt lon="-3.330884" lat="54.577261"><ele>130.938980</ele><time>2021-08-12T13:08:12Z</time><extensions><speed>1.271867</speed><course>128.138321</course><hAcc>0.878409</hAcc><vAcc>0.694476</vAcc></extensions></trkpt>
      <trkpt lon="-3.330900" lat="54.577268"><ele>131.078384</ele><time>2021-08-12T13:08:13Z</time><extensions><speed>1.268227</speed><course>127.788391</course><hAcc>0.878305</hAcc><vAcc>0.694065</vAcc></extensions></trkpt>
      <trkpt lon="-3.330915" lat="54.577275"><ele>131.207718</ele><time>2021-08-12T13:08:14Z</time><extensions><speed>1.265721</speed><course>111.799332</course><hAcc>0.878231</hAcc><vAcc>0.693772</vAcc></extensions></trkpt>
      <trkpt lon="-3.330931" lat="54.577282"><ele>131.325745</ele><time>2021-08-12T13:08:15Z</time><extensions><speed>1.263510</speed><course>135.894547</course><hAcc>0.878188</hAcc><vAcc>0.693604</vAcc></extensions></trkpt>
      <trkpt lon="-3.330946" lat="54.577289"><ele>131.431992</ele><time>2021-08-12T13:08:16Z</time><extensions><speed>1.260552</speed><course>135.791443</course><hAcc>0.878178</hAcc><vAcc>0.693563</vAcc></extensions></trkpt>
      <trkpt lon="-3.330962" lat="54.577296"><ele>131.526932</ele><time>2021-08-12T13:08:17Z</time><extensions><speed>1.256376</speed><course>137.532547</course><hAcc>0.878200</hAcc><vAcc>0.693651</vAcc></extensions></trkpt>
      <trkpt lon="-3.330977" lat="54.577303"><ele>131.611588</ele><time>2021-08-12T13:08:18Z</time><extensions><speed>1.251183</speed><course>139.503952</course><hAcc>0.878253</hAcc><vAcc>0.693860</vAcc></extensions></trkpt>
      <trkpt lon="-3.330993" lat="54.577309"><ele>131.687256</ele><time>2021-08-12T13:08:19Z</time><extensions><speed>1.245088</speed><course>146.422607</course><hAcc>0.878334</hAcc><vAcc>0.694180</vAcc></extensions></trkpt>
      <trkpt lon="-3.331008" lat="54.577316"><ele>131.755524</ele><time>2021-08-12T13:08:20Z</time><extensions><speed>1.238445</speed><course>123.702354</course><hAcc>0.878440</hAcc><vAcc>0.694596</vAcc></extensions></trkpt>
      <trkpt lon="-3.331023" lat="54.577323"><ele>131.818146</ele><time>2021-08-12T13:08:21Z</time><extensions><speed>1.232601</speed><course>126.795586</course><hAcc>0.878567</hAcc><vAcc>0.695089</vAcc></extensions></trkpt>
      <trkpt lon="-3.331038" lat="54.577330"><ele>131.876587</ele><time>2021-08-12T13:08:22Z</time><extensions><speed>1.228891</speed><course>132.239441</course><hAcc>0.878712</hAcc><vAcc>0.695642</vAcc></extensions></trkpt>
      <trkpt lon="-3.331053" lat="54.577336"><ele>131.932068</ele><time>2021-08-12T13:08:23Z</time><extensions><speed>1.227378</speed><course>129.200668</course><hAcc>0.878870</hAcc><vAcc>0.696241</vAcc></extensions></trkpt>
      <trkpt lon="-3.331068" lat="54.577343"><ele>131.985641</ele><time>2021-08-12T13:08:24Z</time><extensions><speed>1.228174</speed><course>125.122314</course><hAcc>0.879039</hAcc><vAcc>0.696874</vAcc></extensions></trkpt>
      <trkpt lon="-3.331083" lat="54.577350"><ele>132.038635</ele><time>2021-08-12T13:08:25Z</time><extensions><speed>1.231692</speed><course>136.265396</course><hAcc>0.879215</hAcc><vAcc>0.697530</vAcc></extensions></trkpt>
      <trkpt lon="-3.331098" lat="54.577357"><ele>132.092789</ele><time>2021-08-12T13:08:26Z</time><extensions><speed>1.237894</speed><course>135.687027</course><hAcc>0.879398</hAcc><vAcc>0.698200</vAcc></extensions></trkpt>
      <trkpt lon="-3.331113" lat="54.577364"><ele>132.150238</ele><time>2021-08-12T13:08:27Z</time><extensions><speed>1.246751</speed><course>134.189224</course><hAcc>0.879590</hAcc><vAcc>0.698877</vAcc></extensions></trkpt>
      <trkpt lon="-3.331128" lat="54.577371"><ele>132.213226</ele><time>2021-08-12T13:08:28Z</time><extensions><speed>1.258046</speed><course>130.213623</course><hAcc>0.879793</hAcc><vAcc>0.699566</vAcc></extensions></trkpt>
      <trkpt lon="-3.331144" lat="54.577378"><ele>132.283508</ele><time>2021-08-12T13:08:29Z</time><extensions><speed>1.271076</speed><course>131.249283</course><hAcc>0.880016</hAcc><vAcc>0.700278</vAcc></extensions></trkpt>
      <trkpt lon="-3.331160" lat="54.577384"><ele>132.361923</ele><time>2021-08-12T13:08:30Z</time><extensions><speed>1.284509</speed><course>132.412170</course><hAcc>0.880271</hAcc><vAcc>0.701035</vAcc></extensions></trkpt>
      <trkpt lon="-3.331176" lat="54.577391"><ele>132.448395</ele><time>2021-08-12T13:08:31Z</time><extensions><speed>1.297356</speed><course>141.387543</course><hAcc>0.880573</hAcc><vAcc>0.701862</vAcc></extensions></trkpt>
      <trkpt lon="-3.331193" lat="54.577398"><ele>132.542252</ele><time>2021-08-12T13:08:32Z</time><extensions><speed>1.309455</speed><course>147.693329</course><hAcc>0.880945</hAcc><vAcc>0.702792</vAcc></extensions></trkpt>
      <trkpt lon="-3.331210" lat="54.577404"><ele>132.642303</ele><time>2021-08-12T13:08:33Z</time><extensions><speed>1.321235</speed><course>150.557755</course><hAcc>0.881416</hAcc><vAcc>0.703851</vAcc></extensions></trkpt>
      <trkpt lon="-3.331228" lat="54.577410"><ele>132.746887</ele><time>2021-08-12T13:08:34Z</time><extensions><speed>1.333341</speed><course>146.167221</course><hAcc>0.882019</hAcc><vAcc>0.705063</vAcc></extensions></trkpt>
      <trkpt lon="-3.331246" lat="54.577416"><ele>132.854355</ele><time>2021-08-12T13:08:35Z</time><extensions><speed>1.345789</speed><course>148.113663</course><hAcc>0.882793</hAcc><vAcc>0.706440</vAcc></extensions></trkpt>
      <trkpt lon="-3.331265" lat="54.577421"><ele>132.963409</ele><time>2021-08-12T13:08:36Z</time><extensions><speed>1.357432</speed><course>138.101883</course><hAcc>0.883777</hAcc><vAcc>0.707986</vAcc></extensions></trkpt>
      <trkpt lon="-3.331284" lat="54.577426"><ele>133.073090</ele><time>2021-08-12T13:08:37Z</time><extensions><speed>1.366098</speed><course>142.914612</course><hAcc>0.885007</hAcc><vAcc>0.709687</vAcc></extensions></trkpt>
      <trkpt lon="-3.331304" lat="54.577430"><ele>133.182541</ele><time>2021-08-12T13:08:38Z</time><extensions><speed>1.370635</speed><course>148.048096</course><hAcc>0.886509</hAcc><vAcc>0.711520</vAcc></extensions></trkpt>
      <trkpt lon="-3.331324" lat="54.577435"><ele>133.290848</ele><time>2021-08-12T13:08:39Z</time><extensions><speed>1.371235</speed><course>151.450607</course><hAcc>0.888285</hAcc><vAcc>0.713441</vAcc></extensions></trkpt>
      <trkpt lon="-3.331344" lat="54.577438"><ele>133.396866</ele><time>2021-08-12T13:08:40Z</time><extensions><speed>1.368293</speed><course>136.771103</course><hAcc>0.890308</hAcc><vAcc>0.715385</vAcc></extensions></trkpt>
      <trkpt lon="-3.331364" lat="54.577441"><ele>133.499039</ele><time>2021-08-12T13:08:41Z</time><extensions><speed>1.362227</speed><course>141.808670</course><hAcc>0.892506</hAcc><vAcc>0.717266</vAcc></extensions></trkpt>
      <trkpt lon="-3.331385" lat="54.577444"><ele>133.594925</ele><time>2021-08-12T13:08:42Z</time><extensions><speed>1.353169</speed><course>141.991776</course><hAcc>0.894753</hAcc><vAcc>0.718979</vAcc></extensions></trkpt>
      <trkpt lon="-3.331405" lat="54.577446"><ele>133.681625</ele><time>2021-08-12T13:08:43Z</time><extensions><speed>1.340885</speed><course>158.861435</course><hAcc>0.896877</hAcc><vAcc>0.720411</vAcc></extensions></trkpt>
      <trkpt lon="-3.331426" lat="54.577448"><ele>133.757187</ele><time>2021-08-12T13:08:44Z</time><extensions><speed>1.325009</speed><course>158.142120</course><hAcc>0.898677</hAcc><vAcc>0.721468</vAcc></extensions></trkpt>
      <trkpt lon="-3.331446" lat="54.577449"><ele>133.821228</ele><time>2021-08-12T13:08:45Z</time><extensions><speed>1.305891</speed><course>156.536041</course><hAcc>0.899975</hAcc><vAcc>0.722135</vAcc></extensions></trkpt>
      <trkpt lon="-3.331466" lat="54.577449"><ele>133.874146</ele><time>2021-08-12T13:08:46Z</time><extensions><speed>1.284273</speed><course>138.496033</course><hAcc>0.900718</hAcc><vAcc>0.722571</vAcc></extensions></trkpt>
      <trkpt lon="-3.331486" lat="54.577449"><ele>133.916458</ele><time>2021-08-12T13:08:47Z</time><extensions><speed>1.260616</speed><course>156.669647</course><hAcc>0.901142</hAcc><vAcc>0.723253</vAcc></extensions></trkpt>
      <trkpt lon="-3.331505" lat="54.577448"><ele>133.948807</ele><time>2021-08-12T13:08:48Z</time><extensions><speed>1.235612</speed><course>143.929214</course><hAcc>0.902033</hAcc><vAcc>0.725174</vAcc></extensions></trkpt>
      <trkpt lon="-3.331524" lat="54.577447"><ele>133.972198</ele><time>2021-08-12T13:08:49Z</time><extensions><speed>1.209851</speed><course>154.114960</course><hAcc>0.905086</hAcc><vAcc>0.730077</vAcc></extensions></trkpt>
      <trkpt lon="-3.331542" lat="54.577445"><ele>133.988007</ele><time>2021-08-12T13:08:50Z</time><extensions><speed>1.183961</speed><course>157.737396</course><hAcc>0.913347</hAcc><vAcc>0.740697</vAcc></extensions></trkpt>
      <trkpt lon="-3.331560" lat="54.577443"><ele>133.997665</ele><time>2021-08-12T13:08:51Z</time><extensions><speed>1.159021</speed><course>156.437073</course><hAcc>0.931632</hAcc><vAcc>0.760889</vAcc></extensions></trkpt>
      <trkpt lon="-3.331577" lat="54.577440"><ele>134.002136</ele><time>2021-08-12T13:08:52Z</time><extensions><speed>1.136119</speed><course>159.749420</course><hAcc>0.966660</hAcc><vAcc>0.795486</vAcc></extensions></trkpt>
      <trkpt lon="-3.331583" lat="54.577429"><ele>133.884995</ele><time>2021-08-12T13:08:53Z</time><extensions><speed>1.160717</speed><course>74.967865</course><hAcc>0.928990</hAcc><vAcc>0.760362</vAcc></extensions></trkpt>
      <trkpt lon="-3.331589" lat="54.577419"><ele>133.805145</ele><time>2021-08-12T13:08:54Z</time><extensions><speed>1.170256</speed><course>75.133301</course><hAcc>0.910492</hAcc><vAcc>0.740822</vAcc></extensions></trkpt>
      <trkpt lon="-3.331593" lat="54.577409"><ele>133.730072</ele><time>2021-08-12T13:08:55Z</time><extensions><speed>1.186551</speed><course>66.099251</course><hAcc>0.903181</hAcc><vAcc>0.731693</vAcc></extensions></trkpt>
      <trkpt lon="-3.331596" lat="54.577398"><ele>133.660599</ele><time>2021-08-12T13:08:56Z</time><extensions><speed>1.209857</speed><course>81.237114</course><hAcc>0.901570</hAcc><vAcc>0.728673</vAcc></extensions></trkpt>
      <trkpt lon="-3.331597" lat="54.577387"><ele>133.597214</ele><time>2021-08-12T13:08:57Z</time><extensions><speed>1.238998</speed><course>80.566093</course><hAcc>0.902212</hAcc><vAcc>0.728732</vAcc></extensions></trkpt>
      <trkpt lon="-3.331598" lat="54.577376"><ele>133.539841</ele><time>2021-08-12T13:08:58Z</time><extensions><speed>1.271601</speed><course>80.566109</course><hAcc>0.903225</hAcc><vAcc>0.729972</vAcc></extensions></trkpt>
      <trkpt lon="-3.331597" lat="54.577364"><ele>133.488007</ele><time>2021-08-12T13:08:59Z</time><extensions><speed>1.305347</speed><course>80.566093</course><hAcc>0.903783</hAcc><vAcc>0.731351</vAcc></extensions></trkpt>
      <trkpt lon="-3.331596" lat="54.577353"><ele>133.441360</ele><time>2021-08-12T13:09:00Z</time><extensions><speed>1.338297</speed><course>80.566093</course><hAcc>0.903693</hAcc><vAcc>0.732410</vAcc></extensions></trkpt>
      <trkpt lon="-3.331593" lat="54.577340"><ele>133.399750</ele><time>2021-08-12T13:09:01Z</time><extensions><speed>1.368749</speed><course>80.566093</course><hAcc>0.903092</hAcc><vAcc>0.733045</vAcc></extensions></trkpt>
      <trkpt lon="-3.331591" lat="54.577328"><ele>133.363388</ele><time>2021-08-12T13:09:02Z</time><extensions><speed>1.395889</speed><course>77.344681</course><hAcc>0.902252</hAcc><vAcc>0.733333</vAcc></extensions></trkpt>
      <trkpt lon="-3.331587" lat="54.577316"><ele>133.332855</ele><time>2021-08-12T13:09:03Z</time><extensions><speed>1.419353</speed><course>77.923714</course><hAcc>0.901459</hAcc><vAcc>0.733419</vAcc></extensions></trkpt>
      <trkpt lon="-3.331584" lat="54.577303"><ele>133.308884</ele><time>2021-08-12T13:09:04Z</time><extensions><speed>1.438484</speed><course>87.073212</course><hAcc>0.900938</hAcc><vAcc>0.733445</vAcc></extensions></trkpt>
      <trkpt lon="-3.331580" lat="54.577290"><ele>133.292206</ele><time>2021-08-12T13:09:05Z</time><extensions><speed>1.453353</speed><course>79.233902</course><hAcc>0.900820</hAcc><vAcc>0.733501</vAcc></extensions></trkpt>
      <trkpt lon="-3.331576" lat="54.577277"><ele>133.283264</ele><time>2021-08-12T13:09:06Z</time><extensions><speed>1.464232</speed><course>96.572746</course><hAcc>0.901130</hAcc><vAcc>0.733606</vAcc></extensions></trkpt>
      <trkpt lon="-3.331573" lat="54.577264"><ele>133.281509</ele><time>2021-08-12T13:09:07Z</time><extensions><speed>1.471017</speed><course>86.920219</course><hAcc>0.901785</hAcc><vAcc>0.733714</vAcc></extensions></trkpt>
      <trkpt lon="-3.331569" lat="54.577251"><ele>133.285202</ele><time>2021-08-12T13:09:08Z</time><extensions><speed>1.473727</speed><course>76.786201</course><hAcc>0.902611</hAcc><vAcc>0.733731</vAcc></extensions></trkpt>
      <trkpt lon="-3.331566" lat="54.577238"><ele>133.291748</ele><time>2021-08-12T13:09:09Z</time><extensions><speed>1.472335</speed><course>77.162971</course><hAcc>0.903378</hAcc><vAcc>0.733559</vAcc></extensions></trkpt>
      <trkpt lon="-3.331564" lat="54.577225"><ele>133.298599</ele><time>2021-08-12T13:09:10Z</time><extensions><speed>1.467025</speed><course>69.604996</course><hAcc>0.903868</hAcc><vAcc>0.733155</vAcc></extensions></trkpt>
      <trkpt lon="-3.331562" lat="54.577212"><ele>133.303986</ele><time>2021-08-12T13:09:11Z</time><extensions><speed>1.459035</speed><course>76.115456</course><hAcc>0.903979</hAcc><vAcc>0.732631</vAcc></extensions></trkpt>
      <trkpt lon="-3.331561" lat="54.577199"><ele>133.307281</ele><time>2021-08-12T13:09:12Z</time><extensions><speed>1.449752</speed><course>83.646278</course><hAcc>0.903906</hAcc><vAcc>0.732408</vAcc></extensions></trkpt>
      <trkpt lon="-3.331561" lat="54.577186"><ele>133.308685</ele><time>2021-08-12T13:09:13Z</time><extensions><speed>1.440087</speed><course>76.408623</course><hAcc>0.904392</hAcc><vAcc>0.733424</vAcc></extensions></trkpt>
      <trkpt lon="-3.331562" lat="54.577173"><ele>133.308716</ele><time>2021-08-12T13:09:14Z</time><extensions><speed>1.431123</speed><course>79.439453</course><hAcc>0.907100</hAcc><vAcc>0.737371</vAcc></extensions></trkpt>
      <trkpt lon="-3.331564" lat="54.577160"><ele>133.307953</ele><time>2021-08-12T13:09:15Z</time><extensions><speed>1.423839</speed><course>75.300941</course><hAcc>0.915047</hAcc><vAcc>0.746937</vAcc></extensions></trkpt>
      <trkpt lon="-3.331568" lat="54.577148"><ele>133.307312</ele><time>2021-08-12T13:09:16Z</time><extensions><speed>1.418756</speed><course>76.126534</course><hAcc>0.933030</hAcc><vAcc>0.765953</vAcc></extensions></trkpt>
      <trkpt lon="-3.331572" lat="54.577135"><ele>133.307922</ele><time>2021-08-12T13:09:17Z</time><extensions><speed>1.415735</speed><course>75.233688</course><hAcc>0.967759</hAcc><vAcc>0.799267</vAcc></extensions></trkpt>
      <trkpt lon="-3.331590" lat="54.577124"><ele>133.236557</ele><time>2021-08-12T13:09:18Z</time><extensions><speed>1.240474</speed><course>74.967865</course><hAcc>0.930087</hAcc><vAcc>0.763843</vAcc></extensions></trkpt>
      <trkpt lon="-3.331605" lat="54.577118"><ele>133.339386</ele><time>2021-08-12T13:09:19Z</time><extensions><speed>1.243400</speed><course>75.133301</course><hAcc>0.910823</hAcc><vAcc>0.741837</vAcc></extensions></trkpt>
      <trkpt lon="-3.331622" lat="54.577112"><ele>133.444748</ele><time>2021-08-12T13:09:20Z</time><extensions><speed>1.243414</speed><course>66.099251</course><hAcc>0.902738</hAcc><vAcc>0.730298</vAcc></extensions></trkpt>
      <trkpt lon="-3.331638" lat="54.577107"><ele>133.552734</ele><time>2021-08-12T13:09:21Z</time><extensions><speed>1.239069</speed><course>81.237114</course><hAcc>0.900344</hAcc><vAcc>0.724941</vAcc></extensions></trkpt>
      <trkpt lon="-3.331656" lat="54.577102"><ele>133.663284</ele><time>2021-08-12T13:09:22Z</time><extensions><speed>1.229466</speed><course>80.566093</course><hAcc>0.900175</hAcc><vAcc>0.722704</vAcc></extensions></trkpt>
      <trkpt lon="-3.331673" lat="54.577098"><ele>133.776550</ele><time>2021-08-12T13:09:23Z</time><extensions><speed>1.213671</speed><course>80.566109</course><hAcc>0.900320</hAcc><vAcc>0.721634</vAcc></extensions></trkpt>
      <trkpt lon="-3.331691" lat="54.577094"><ele>133.893051</ele><time>2021-08-12T13:09:24Z</time><extensions><speed>1.190945</speed><course>80.566093</course><hAcc>0.899919</hAcc><vAcc>0.720647</vAcc></extensions></trkpt>
      <trkpt lon="-3.331708" lat="54.577091"><ele>134.013367</ele><time>2021-08-12T13:09:25Z</time><extensions><speed>1.161210</speed><course>80.566093</course><hAcc>0.898739</hAcc><vAcc>0.719264</vAcc></extensions></trkpt>
      <trkpt lon="-3.331725" lat="54.577088"><ele>134.137772</ele><time>2021-08-12T13:09:26Z</time><extensions><speed>1.124438</speed><course>80.566093</course><hAcc>0.896884</hAcc><vAcc>0.717391</vAcc></extensions></trkpt>
      <trkpt lon="-3.331742" lat="54.577086"><ele>134.265579</ele><time>2021-08-12T13:09:27Z</time><extensions><speed>1.080466</speed><course>77.344681</course><hAcc>0.894596</hAcc><vAcc>0.715146</vAcc></extensions></trkpt>
      <trkpt lon="-3.331758" lat="54.577085"><ele>134.394806</ele><time>2021-08-12T13:09:28Z</time><extensions><speed>1.029818</speed><course>77.923714</course><hAcc>0.892141</hAcc><vAcc>0.712745</vAcc></extensions></trkpt>
      <trkpt lon="-3.331773" lat="54.577084"><ele>134.522507</ele><time>2021-08-12T13:09:29Z</time><extensions><speed>0.973241</speed><course>87.073212</course><hAcc>0.889746</hAcc><vAcc>0.710414</vAcc></extensions></trkpt>
      <trkpt lon="-3.331788" lat="54.577083"><ele>134.645645</ele><time>2021-08-12T13:09:30Z</time><extensions><speed>0.911781</speed><course>79.233902</course><hAcc>0.887576</hAcc><vAcc>0.708342</vAcc></extensions></trkpt>
      <trkpt lon="-3.331801" lat="54.577083"><ele>134.761703</ele><time>2021-08-12T13:09:31Z</time><extensions><speed>0.846703</speed><course>96.572746</course><hAcc>0.885727</hAcc><vAcc>0.706652</vAcc></extensions></trkpt>
      <trkpt lon="-3.331814" lat="54.577084"><ele>134.868805</ele><time>2021-08-12T13:09:32Z</time><extensions><speed>0.779956</speed><course>86.920219</course><hAcc>0.884236</hAcc><vAcc>0.705395</vAcc></extensions></trkpt>
      <trkpt lon="-3.331825" lat="54.577085"><ele>134.965759</ele><time>2021-08-12T13:09:33Z</time><extensions><speed>0.715202</speed><course>76.786201</course><hAcc>0.883094</hAcc><vAcc>0.704555</vAcc></extensions></trkpt>
      <trkpt lon="-3.331836" lat="54.577086"><ele>135.052185</ele><time>2021-08-12T13:09:34Z</time><extensions><speed>0.657425</speed><course>77.162971</course><hAcc>0.882263</hAcc><vAcc>0.704065</vAcc></extensions></trkpt>
      <trkpt lon="-3.331845" lat="54.577088"><ele>135.128647</ele><time>2021-08-12T13:09:35Z</time><extensions><speed>0.612078</speed><course>69.604996</course><hAcc>0.881691</hAcc><vAcc>0.703833</vAcc></extensions></trkpt>
      <trkpt lon="-3.331853" lat="54.577090"><ele>135.196350</ele><time>2021-08-12T13:09:36Z</time><extensions><speed>0.583171</speed><course>76.115456</course><hAcc>0.881318</hAcc><vAcc>0.703760</vAcc></extensions></trkpt>
      <trkpt lon="-3.331860" lat="54.577094"><ele>135.256836</ele><time>2021-08-12T13:09:37Z</time><extensions><speed>0.572460</speed><course>83.646278</course><hAcc>0.881088</hAcc><vAcc>0.703757</vAcc></extensions></trkpt>
      <trkpt lon="-3.331866" lat="54.577097"><ele>135.311768</ele><time>2021-08-12T13:09:38Z</time><extensions><speed>0.579233</speed><course>76.408623</course><hAcc>0.880953</hAcc><vAcc>0.703755</vAcc></extensions></trkpt>
      <trkpt lon="-3.331872" lat="54.577102"><ele>135.362961</ele><time>2021-08-12T13:09:39Z</time><extensions><speed>0.601095</speed><course>79.439453</course><hAcc>0.880874</hAcc><vAcc>0.703705</vAcc></extensions></trkpt>
      <trkpt lon="-3.331876" lat="54.577106"><ele>135.412109</ele><time>2021-08-12T13:09:40Z</time><extensions><speed>0.635198</speed><course>75.300941</course><hAcc>0.880822</hAcc><vAcc>0.703583</vAcc></extensions></trkpt>
      <trkpt lon="-3.331880" lat="54.577112"><ele>135.460541</ele><time>2021-08-12T13:09:41Z</time><extensions><speed>0.679062</speed><course>76.126534</course><hAcc>0.880779</hAcc><vAcc>0.703387</vAcc></extensions></trkpt>
      <trkpt lon="-3.331883" lat="54.577118"><ele>135.508942</ele><time>2021-08-12T13:09:42Z</time><extensions><speed>0.731464</speed><course>75.233688</course><hAcc>0.880735</hAcc><vAcc>0.703129</vAcc></extensions></trkpt>
      <trkpt lon="-3.331885" lat="54.577125"><ele>135.557190</ele><time>2021-08-12T13:09:43Z</time><extensions><speed>0.792099</speed><course>81.891060</course><hAcc>0.880683</hAcc><vAcc>0.702831</vAcc></extensions></trkpt>
      <trkpt lon="-3.331887" lat="54.577132"><ele>135.604477</ele><time>2021-08-12T13:09:44Z</time><extensions><speed>0.859847</speed><course>78.263519</course><hAcc>0.880624</hAcc><vAcc>0.702518</vAcc></extensions></trkpt>
      <trkpt lon="-3.331888" lat="54.577140"><ele>135.649673</ele><time>2021-08-12T13:09:45Z</time><extensions><speed>0.932193</speed><course>74.907532</course><hAcc>0.880560</hAcc><vAcc>0.702215</vAcc></extensions></trkpt>
      <trkpt lon="-3.331890" lat="54.577149"><ele>135.691574</ele><time>2021-08-12T13:09:46Z</time><extensions><speed>1.005718</speed><course>84.941742</course><hAcc>0.880493</hAcc><vAcc>0.701945</vAcc></extensions></trkpt>
      <trkpt lon="-3.331891" lat="54.577158"><ele>135.729126</ele><time>2021-08-12T13:09:47Z</time><extensions><speed>1.077465</speed><course>73.584358</course><hAcc>0.880426</hAcc><vAcc>0.701720</vAcc></extensions></trkpt>
      <trkpt lon="-3.331892" lat="54.577168"><ele>135.761551</ele><time>2021-08-12T13:09:48Z</time><extensions><speed>1.145337</speed><course>96.346313</course><hAcc>0.880363</hAcc><vAcc>0.701535</vAcc></extensions></trkpt>
      <trkpt lon="-3.331892" lat="54.577179"><ele>135.788452</ele><time>2021-08-12T13:09:49Z</time><extensions><speed>1.207836</speed><course>87.208282</course><hAcc>0.880305</hAcc><vAcc>0.701378</vAcc></extensions></trkpt>
      <trkpt lon="-3.331893" lat="54.577190"><ele>135.809738</ele><time>2021-08-12T13:09:50Z</time><extensions><speed>1.264232</speed><course>71.034035</course><hAcc>0.880258</hAcc><vAcc>0.701236</vAcc></extensions></trkpt>
      <trkpt lon="-3.331894" lat="54.577201"><ele>135.825668</ele><time>2021-08-12T13:09:51Z</time><extensions><speed>1.314333</speed><course>74.315559</course><hAcc>0.880226</hAcc><vAcc>0.701106</vAcc></extensions></trkpt>
      <trkpt lon="-3.331896" lat="54.577213"><ele>135.836853</ele><time>2021-08-12T13:09:52Z</time><extensions><speed>1.358178</speed><course>82.074326</course><hAcc>0.880219</hAcc><vAcc>0.701003</vAcc></extensions></trkpt>
      <trkpt lon="-3.331897" lat="54.577226"><ele>135.844086</ele><time>2021-08-12T13:09:53Z</time><extensions><speed>1.395655</speed><course>78.798851</course><hAcc>0.880250</hAcc><vAcc>0.700957</vAcc></extensions></trkpt>
      <trkpt lon="-3.331899" lat="54.577238"><ele>135.847961</ele><time>2021-08-12T13:09:54Z</time><extensions><speed>1.426574</speed><course>71.049065</course><hAcc>0.880336</hAcc><vAcc>0.701007</vAcc></extensions></trkpt>
      <trkpt lon="-3.331900" lat="54.577251"><ele>135.848862</ele><time>2021-08-12T13:09:55Z</time><extensions><speed>1.451300</speed><course>66.417450</course><hAcc>0.880503</hAcc><vAcc>0.701185</vAcc></extensions></trkpt>
      <trkpt lon="-3.331902" lat="54.577264"><ele>135.846909</ele><time>2021-08-12T13:09:56Z</time><extensions><speed>1.470413</speed><course>67.881187</course><hAcc>0.880779</hAcc><vAcc>0.701518</vAcc></extensions></trkpt>
      <trkpt lon="-3.331905" lat="54.577277"><ele>135.842041</ele><time>2021-08-12T13:09:57Z</time><extensions><speed>1.484010</speed><course>73.946594</course><hAcc>0.881202</hAcc><vAcc>0.702038</vAcc></extensions></trkpt>
      <trkpt lon="-3.331907" lat="54.577291"><ele>135.834351</ele><time>2021-08-12T13:09:58Z</time><extensions><speed>1.491850</speed><course>66.868568</course><hAcc>0.881814</hAcc><vAcc>0.702778</vAcc></extensions></trkpt>
      <trkpt lon="-3.331910" lat="54.577304"><ele>135.824356</ele><time>2021-08-12T13:09:59Z</time><extensions><speed>1.493559</speed><course>57.370388</course><hAcc>0.882656</hAcc><vAcc>0.703766</vAcc></extensions></trkpt>
      <trkpt lon="-3.331913" lat="54.577317"><ele>135.813034</ele><time>2021-08-12T13:10:00Z</time><extensions><speed>1.488944</speed><course>72.859169</course><hAcc>0.883767</hAcc><vAcc>0.705011</vAcc></extensions></trkpt>
      <trkpt lon="-3.331916" lat="54.577330"><ele>135.801712</ele><time>2021-08-12T13:10:01Z</time><extensions><speed>1.478163</speed><course>73.476959</course><hAcc>0.885173</hAcc><vAcc>0.706501</vAcc></extensions></trkpt>
      <trkpt lon="-3.331919" lat="54.577344"><ele>135.791733</ele><time>2021-08-12T13:10:02Z</time><extensions><speed>1.461395</speed><course>70.985191</course><hAcc>0.886880</hAcc><vAcc>0.708194</vAcc></extensions></trkpt>
      <trkpt lon="-3.331922" lat="54.577356"><ele>135.783936</ele><time>2021-08-12T13:10:03Z</time><extensions><speed>1.438785</speed><course>67.094063</course><hAcc>0.888854</hAcc><vAcc>0.710016</vAcc></extensions></trkpt>
      <trkpt lon="-3.331925" lat="54.577369"><ele>135.778992</ele><time>2021-08-12T13:10:04Z</time><extensions><speed>1.410489</speed><course>63.802017</course><hAcc>0.891021</hAcc><vAcc>0.711858</vAcc></extensions></trkpt>
      <trkpt lon="-3.331928" lat="54.577382"><ele>135.777420</ele><time>2021-08-12T13:10:05Z</time><extensions><speed>1.376734</speed><course>59.738853</course><hAcc>0.893246</hAcc><vAcc>0.713570</vAcc></extensions></trkpt>
      <trkpt lon="-3.331931" lat="54.577394"><ele>135.779373</ele><time>2021-08-12T13:10:06Z</time><extensions><speed>1.338120</speed><course>64.752533</course><hAcc>0.895348</hAcc><vAcc>0.714981</vAcc></extensions></trkpt>
      <trkpt lon="-3.331934" lat="54.577405"><ele>135.784851</ele><time>2021-08-12T13:10:07Z</time><extensions><speed>1.295362</speed><course>62.678837</course><hAcc>0.897109</hAcc><vAcc>0.715940</vAcc></extensions></trkpt>
      <trkpt lon="-3.331936" lat="54.577417"><ele>135.793884</ele><time>2021-08-12T13:10:08Z</time><extensions><speed>1.249141</speed><course>67.622025</course><hAcc>0.898333</hAcc><vAcc>0.716381</vAcc></extensions></trkpt>
      <trkpt lon="-3.331939" lat="54.577428"><ele>135.806641</ele><time>2021-08-12T13:10:09Z</time><extensions><speed>1.200648</speed><course>76.998230</course><hAcc>0.898946</hAcc><vAcc>0.716409</vAcc></extensions></trkpt>
      <trkpt lon="-3.331941" lat="54.577438"><ele>135.823380</ele><time>2021-08-12T13:10:10Z</time><extensions><speed>1.151348</speed><course>71.279175</course><hAcc>0.899157</hAcc><vAcc>0.716439</vAcc></extensions></trkpt>
      <trkpt lon="-3.331943" lat="54.577448"><ele>135.844376</ele><time>2021-08-12T13:10:11Z</time><extensions><speed>1.102398</speed><course>66.215858</course><hAcc>0.899725</hAcc><vAcc>0.717393</vAcc></extensions></trkpt>
      <trkpt lon="-3.331945" lat="54.577458"><ele>135.869781</ele><time>2021-08-12T13:10:12Z</time><extensions><speed>1.055400</speed><course>65.869171</course><hAcc>0.902319</hAcc><vAcc>0.720942</vAcc></extensions></trkpt>
      <trkpt lon="-3.331946" lat="54.577467"><ele>135.899353</ele><time>2021-08-12T13:10:13Z</time><extensions><speed>1.012442</speed><course>67.480362</course><hAcc>0.909969</hAcc><vAcc>0.729764</vAcc></extensions></trkpt>
      <trkpt lon="-3.331948" lat="54.577476"><ele>135.932556</ele><time>2021-08-12T13:10:14Z</time><extensions><speed>0.974954</speed><course>62.467888</course><hAcc>0.927499</hAcc><vAcc>0.747698</vAcc></extensions></trkpt>
      <trkpt lon="-3.331950" lat="54.577484"><ele>135.968781</ele><time>2021-08-12T13:10:15Z</time><extensions><speed>0.943794</speed><course>57.403885</course><hAcc>0.961676</hAcc><vAcc>0.779651</vAcc></extensions></trkpt>
      <trkpt lon="-3.331954" lat="54.577490"><ele>136.050720</ele><time>2021-08-12T13:10:16Z</time><extensions><speed>0.708337</speed><course>74.967865</course><hAcc>0.924916</hAcc><vAcc>0.746844</vAcc></extensions></trkpt>
      <trkpt lon="-3.331962" lat="54.577494"><ele>136.089401</ele><time>2021-08-12T13:10:17Z</time><extensions><speed>0.746358</speed><course>75.133301</course><hAcc>0.906586</hAcc><vAcc>0.727476</vAcc></extensions></trkpt>
      <trkpt lon="-3.331971" lat="54.577499"><ele>136.130768</ele><time>2021-08-12T13:10:18Z</time><extensions><speed>0.795246</speed><course>66.099251</course><hAcc>0.899360</hAcc><vAcc>0.718393</vAcc></extensions></trkpt>
      <trkpt lon="-3.331981" lat="54.577504"><ele>136.174896</ele><time>2021-08-12T13:10:19Z</time><extensions><speed>0.853077</speed><course>81.237114</course><hAcc>0.897722</hAcc><vAcc>0.715289</vAcc></extensions></trkpt>
      <trkpt lon="-3.331992" lat="54.577508"><ele>136.221619</ele><time>2021-08-12T13:10:20Z</time><extensions><speed>0.916988</speed><course>80.566093</course><hAcc>0.898204</hAcc><vAcc>0.715136</vAcc></extensions></trkpt>
      <trkpt lon="-3.332005" lat="54.577512"><ele>136.270599</ele><time>2021-08-12T13:10:21Z</time><extensions><speed>0.983488</speed><course>80.566109</course><hAcc>0.898909</hAcc><vAcc>0.716022</vAcc></extensions></trkpt>
      <trkpt lon="-3.332019" lat="54.577517"><ele>136.321243</ele><time>2021-08-12T13:10:22Z</time><extensions><speed>1.049096</speed><course>80.566093</course><hAcc>0.898990</hAcc><vAcc>0.716882</vAcc></extensions></trkpt>
      <trkpt lon="-3.332034" lat="54.577521"><ele>136.372711</ele><time>2021-08-12T13:10:23Z</time><extensions><speed>1.111014</speed><course>80.566093</course><hAcc>0.898225</hAcc><vAcc>0.717219</vAcc></extensions></trkpt>
      <trkpt lon="-3.332050" lat="54.577525"><ele>136.424011</ele><time>2021-08-12T13:10:24Z</time><extensions><speed>1.167856</speed><course>80.566093</course><hAcc>0.896722</hAcc><vAcc>0.716894</vAcc></extensions></trkpt>
      <trkpt lon="-3.332067" lat="54.577529"><ele>136.474213</ele><time>2021-08-12T13:10:25Z</time><extensions><speed>1.218789</speed><course>77.344681</course><hAcc>0.894723</hAcc><vAcc>0.715966</vAcc></extensions></trkpt>
      <trkpt lon="-3.332085" lat="54.577533"><ele>136.522537</ele><time>2021-08-12T13:10:26Z</time><extensions><speed>1.263033</speed><course>77.923714</course><hAcc>0.892491</hAcc><vAcc>0.714587</vAcc></extensions></trkpt>
      <trkpt lon="-3.332104" lat="54.577537"><ele>136.568130</ele><time>2021-08-12T13:10:27Z</time><extensions><speed>1.299969</speed><course>87.073212</course><hAcc>0.890250</hAcc><vAcc>0.712938</vAcc></extensions></trkpt>
      <trkpt lon="-3.332123" lat="54.577540"><ele>136.610016</ele><time>2021-08-12T13:10:28Z</time><extensions><speed>1.329740</speed><course>79.233902</course><hAcc>0.888163</hAcc><vAcc>0.711187</vAcc></extensions></trkpt>
      <trkpt lon="-3.332143" lat="54.577544"><ele>136.647598</ele><time>2021-08-12T13:10:29Z</time><extensions><speed>1.353435</speed><course>96.572746</course><hAcc>0.886329</hAcc><vAcc>0.709469</vAcc></extensions></trkpt>
      <trkpt lon="-3.332163" lat="54.577548"><ele>136.680878</ele><time>2021-08-12T13:10:30Z</time><extensions><speed>1.371963</speed><course>86.920219</course><hAcc>0.884794</hAcc><vAcc>0.707882</vAcc></extensions></trkpt>
      <trkpt lon="-3.332183" lat="54.577552"><ele>136.710373</ele><time>2021-08-12T13:10:31Z</time><extensions><speed>1.386317</speed><course>76.786201</course><hAcc>0.883561</hAcc><vAcc>0.706485</vAcc></extensions></trkpt>
      <trkpt lon="-3.332203" lat="54.577556"><ele>136.736664</ele><time>2021-08-12T13:10:32Z</time><extensions><speed>1.398347</speed><course>77.162971</course><hAcc>0.882608</hAcc><vAcc>0.705306</vAcc></extensions></trkpt>
      <trkpt lon="-3.332224" lat="54.577560"><ele>136.760208</ele><time>2021-08-12T13:10:33Z</time><extensions><speed>1.408860</speed><course>69.604996</course><hAcc>0.881898</hAcc><vAcc>0.704348</vAcc></extensions></trkpt>
      <trkpt lon="-3.332245" lat="54.577564"><ele>136.781113</ele><time>2021-08-12T13:10:34Z</time><extensions><speed>1.417166</speed><course>76.115456</course><hAcc>0.881387</hAcc><vAcc>0.703595</vAcc></extensions></trkpt>
      <trkpt lon="-3.332266" lat="54.577568"><ele>136.799149</ele><time>2021-08-12T13:10:35Z</time><extensions><speed>1.422585</speed><course>83.646278</course><hAcc>0.881035</hAcc><vAcc>0.703024</vAcc></extensions></trkpt>
      <trkpt lon="-3.332287" lat="54.577572"><ele>136.813843</ele><time>2021-08-12T13:10:36Z</time><extensions><speed>1.425404</speed><course>76.408623</course><hAcc>0.880804</hAcc><vAcc>0.702611</vAcc></extensions></trkpt>
      <trkpt lon="-3.332308" lat="54.577575"><ele>136.824478</ele><time>2021-08-12T13:10:37Z</time><extensions><speed>1.426724</speed><course>79.439453</course><hAcc>0.880663</hAcc><vAcc>0.702341</vAcc></extensions></trkpt>
      <trkpt lon="-3.332329" lat="54.577579"><ele>136.830200</ele><time>2021-08-12T13:10:38Z</time><extensions><speed>1.427110</speed><course>75.300941</course><hAcc>0.880588</hAcc><vAcc>0.702199</vAcc></extensions></trkpt>
      <trkpt lon="-3.332350" lat="54.577583"><ele>136.830429</ele><time>2021-08-12T13:10:39Z</time><extensions><speed>1.427564</speed><course>76.126534</course><hAcc>0.880561</hAcc><vAcc>0.702171</vAcc></extensions></trkpt>
      <trkpt lon="-3.332371" lat="54.577586"><ele>136.825104</ele><time>2021-08-12T13:10:40Z</time><extensions><speed>1.429425</speed><course>75.233688</course><hAcc>0.880569</hAcc><vAcc>0.702239</vAcc></extensions></trkpt>
      <trkpt lon="-3.332392" lat="54.577590"><ele>136.814438</ele><time>2021-08-12T13:10:41Z</time><extensions><speed>1.433194</speed><course>81.891060</course><hAcc>0.880603</hAcc><vAcc>0.702388</vAcc></extensions></trkpt>
      <trkpt lon="-3.332414" lat="54.577594"><ele>136.798615</ele><time>2021-08-12T13:10:42Z</time><extensions><speed>1.438190</speed><course>78.263519</course><hAcc>0.880655</hAcc><vAcc>0.702604</vAcc></extensions></trkpt>
      <trkpt lon="-3.332435" lat="54.577597"><ele>136.777863</ele><time>2021-08-12T13:10:43Z</time><extensions><speed>1.443236</speed><course>74.907532</course><hAcc>0.880723</hAcc><vAcc>0.702872</vAcc></extensions></trkpt>
      <trkpt lon="-3.332457" lat="54.577601"><ele>136.752823</ele><time>2021-08-12T13:10:44Z</time><extensions><speed>1.448203</speed><course>84.941742</course><hAcc>0.880802</hAcc><vAcc>0.703181</vAcc></extensions></trkpt>
      <trkpt lon="-3.332478" lat="54.577604"><ele>136.724442</ele><time>2021-08-12T13:10:45Z</time><extensions><speed>1.453773</speed><course>73.584358</course><hAcc>0.880889</hAcc><vAcc>0.703526</vAcc></extensions></trkpt>
      <trkpt lon="-3.332500" lat="54.577608"><ele>136.693680</ele><time>2021-08-12T13:10:46Z</time><extensions><speed>1.460584</speed><course>96.346313</course><hAcc>0.880984</hAcc><vAcc>0.703903</vAcc></extensions></trkpt>
      <trkpt lon="-3.332522" lat="54.577611"><ele>136.661362</ele><time>2021-08-12T13:10:47Z</time><extensions><speed>1.468702</speed><course>87.208282</course><hAcc>0.881085</hAcc><vAcc>0.704309</vAcc></extensions></trkpt>
      <trkpt lon="-3.332544" lat="54.577615"><ele>136.628113</ele><time>2021-08-12T13:10:48Z</time><extensions><speed>1.478502</speed><course>71.034035</course><hAcc>0.881189</hAcc><vAcc>0.704732</vAcc></extensions></trkpt>
      <trkpt lon="-3.332566" lat="54.577618"><ele>136.594894</ele><time>2021-08-12T13:10:49Z</time><extensions><speed>1.490514</speed><course>74.315559</course><hAcc>0.881296</hAcc><vAcc>0.705159</vAcc></extensions></trkpt>
      <trkpt lon="-3.332588" lat="54.577622"><ele>136.563293</ele><time>2021-08-12T13:10:50Z</time><extensions><speed>1.504612</speed><course>82.074326</course><hAcc>0.881405</hAcc><vAcc>0.705574</vAcc></extensions></trkpt>
      <trkpt lon="-3.332611" lat="54.577625"><ele>136.535080</ele><time>2021-08-12T13:10:51Z</time><extensions><speed>1.519845</speed><course>78.798851</course><hAcc>0.881515</hAcc><vAcc>0.705971</vAcc></extensions></trkpt>
      <trkpt lon="-3.332634" lat="54.577629"><ele>136.511703</ele><time>2021-08-12T13:10:52Z</time><extensions><speed>1.534950</speed><course>71.049065</course><hAcc>0.881626</hAcc><vAcc>0.706351</vAcc></extensions></trkpt>
      <trkpt lon="-3.332657" lat="54.577632"><ele>136.494385</ele><time>2021-08-12T13:10:53Z</time><extensions><speed>1.548998</speed><course>66.417450</course><hAcc>0.881738</hAcc><vAcc>0.706726</vAcc></extensions></trkpt>
      <trkpt lon="-3.332680" lat="54.577635"><ele>136.484222</ele><time>2021-08-12T13:10:54Z</time><extensions><speed>1.561339</speed><course>67.881187</course><hAcc>0.881851</hAcc><vAcc>0.707109</vAcc></extensions></trkpt>
      <trkpt lon="-3.332704" lat="54.577639"><ele>136.482071</ele><time>2021-08-12T13:10:55Z</time><extensions><speed>1.572071</speed><course>73.946594</course><hAcc>0.881963</hAcc><vAcc>0.707506</vAcc></extensions></trkpt>
      <trkpt lon="-3.332727" lat="54.577642"><ele>136.488983</ele><time>2021-08-12T13:10:56Z</time><extensions><speed>1.581310</speed><course>66.868568</course><hAcc>0.882074</hAcc><vAcc>0.707919</vAcc></extensions></trkpt>
      <trkpt lon="-3.332751" lat="54.577645"><ele>136.506531</ele><time>2021-08-12T13:10:57Z</time><extensions><speed>1.588499</speed><course>57.370388</course><hAcc>0.882183</hAcc><vAcc>0.708345</vAcc></extensions></trkpt>
      <trkpt lon="-3.332775" lat="54.577649"><ele>136.536331</ele><time>2021-08-12T13:10:58Z</time><extensions><speed>1.593089</speed><course>72.859169</course><hAcc>0.882287</hAcc><vAcc>0.708776</vAcc></extensions></trkpt>
      <trkpt lon="-3.332799" lat="54.577652"><ele>136.579224</ele><time>2021-08-12T13:10:59Z</time><extensions><speed>1.594473</speed><course>73.476959</course><hAcc>0.882384</hAcc><vAcc>0.709197</vAcc></extensions></trkpt>
      <trkpt lon="-3.332823" lat="54.577655"><ele>136.635376</ele><time>2021-08-12T13:11:00Z</time><extensions><speed>1.592435</speed><course>70.985191</course><hAcc>0.882471</hAcc><vAcc>0.709589</vAcc></extensions></trkpt>
      <trkpt lon="-3.332847" lat="54.577658"><ele>136.704712</ele><time>2021-08-12T13:11:01Z</time><extensions><speed>1.587207</speed><course>67.094063</course><hAcc>0.882546</hAcc><vAcc>0.709932</vAcc></extensions></trkpt>
      <trkpt lon="-3.332871" lat="54.577661"><ele>136.786957</ele><time>2021-08-12T13:11:02Z</time><extensions><speed>1.579225</speed><course>63.802017</course><hAcc>0.882606</hAcc><vAcc>0.710205</vAcc></extensions></trkpt>
      <trkpt lon="-3.332895" lat="54.577664"><ele>136.881348</ele><time>2021-08-12T13:11:03Z</time><extensions><speed>1.569960</speed><course>59.738853</course><hAcc>0.882651</hAcc><vAcc>0.710392</vAcc></extensions></trkpt>
      <trkpt lon="-3.332919" lat="54.577667"><ele>136.986588</ele><time>2021-08-12T13:11:04Z</time><extensions><speed>1.560972</speed><course>64.752533</course><hAcc>0.882678</hAcc><vAcc>0.710483</vAcc></extensions></trkpt>
      <trkpt lon="-3.332942" lat="54.577670"><ele>137.100815</ele><time>2021-08-12T13:11:05Z</time><extensions><speed>1.552951</speed><course>62.678837</course><hAcc>0.882686</hAcc><vAcc>0.710475</vAcc></extensions></trkpt>
      <trkpt lon="-3.332966" lat="54.577673"><ele>137.221741</ele><time>2021-08-12T13:11:06Z</time><extensions><speed>1.546619</speed><course>67.622025</course><hAcc>0.882677</hAcc><vAcc>0.710376</vAcc></extensions></trkpt>
      <trkpt lon="-3.332989" lat="54.577676"><ele>137.347260</ele><time>2021-08-12T13:11:07Z</time><extensions><speed>1.542143</speed><course>76.998230</course><hAcc>0.882648</hAcc><vAcc>0.710203</vAcc></extensions></trkpt>
      <trkpt lon="-3.333012" lat="54.577679"><ele>137.475723</ele><time>2021-08-12T13:11:08Z</time><extensions><speed>1.538339</speed><course>71.279175</course><hAcc>0.882599</hAcc><vAcc>0.709974</vAcc></extensions></trkpt>
      <trkpt lon="-3.333036" lat="54.577681"><ele>137.605606</ele><time>2021-08-12T13:11:09Z</time><extensions><speed>1.533893</speed><course>66.215858</course><hAcc>0.882525</hAcc><vAcc>0.709704</vAcc></extensions></trkpt>
      <trkpt lon="-3.333059" lat="54.577684"><ele>137.735168</ele><time>2021-08-12T13:11:10Z</time><extensions><speed>1.527326</speed><course>65.869171</course><hAcc>0.882425</hAcc><vAcc>0.709392</vAcc></extensions></trkpt>
      <trkpt lon="-3.333082" lat="54.577686"><ele>137.862762</ele><time>2021-08-12T13:11:11Z</time><extensions><speed>1.517633</speed><course>67.480362</course><hAcc>0.882292</hAcc><vAcc>0.709021</vAcc></extensions></trkpt>
      <trkpt lon="-3.333105" lat="54.577689"><ele>137.987228</ele><time>2021-08-12T13:11:12Z</time><extensions><speed>1.504291</speed><course>62.467888</course><hAcc>0.882122</hAcc><vAcc>0.708560</vAcc></extensions></trkpt>
      <trkpt lon="-3.333128" lat="54.577692"><ele>138.107956</ele><time>2021-08-12T13:11:13Z</time><extensions><speed>1.487108</speed><course>57.403885</course><hAcc>0.881907</hAcc><vAcc>0.707963</vAcc></extensions></trkpt>
      <trkpt lon="-3.333150" lat="54.577694"><ele>138.224533</ele><time>2021-08-12T13:11:14Z</time><extensions><speed>1.466733</speed><course>56.104736</course><hAcc>0.881642</hAcc><vAcc>0.707180</vAcc></extensions></trkpt>
      <trkpt lon="-3.333172" lat="54.577697"><ele>138.336411</ele><time>2021-08-12T13:11:15Z</time><extensions><speed>1.444560</speed><course>57.135769</course><hAcc>0.881320</hAcc><vAcc>0.706165</vAcc></extensions></trkpt>
      <trkpt lon="-3.333194" lat="54.577700"><ele>138.443085</ele><time>2021-08-12T13:11:16Z</time><extensions><speed>1.422390</speed><course>59.466648</course><hAcc>0.880939</hAcc><vAcc>0.704881</vAcc></extensions></trkpt>
      <trkpt lon="-3.333215" lat="54.577702"><ele>138.544006</ele><time>2021-08-12T13:11:17Z</time><extensions><speed>1.401685</speed><course>56.466339</course><hAcc>0.880498</hAcc><vAcc>0.703310</vAcc></extensions></trkpt>
      <trkpt lon="-3.333236" lat="54.577705"><ele>138.638641</ele><time>2021-08-12T13:11:18Z</time><extensions><speed>1.383697</speed><course>61.082169</course><hAcc>0.879997</hAcc><vAcc>0.701453</vAcc></extensions></trkpt>
      <trkpt lon="-3.333257" lat="54.577708"><ele>138.726471</ele><time>2021-08-12T13:11:19Z</time><extensions><speed>1.368788</speed><course>63.000797</course><hAcc>0.879442</hAcc><vAcc>0.699334</vAcc></extensions></trkpt>
      <trkpt lon="-3.333277" lat="54.577711"><ele>138.806747</ele><time>2021-08-12T13:11:20Z</time><extensions><speed>1.356690</speed><course>58.373146</course><hAcc>0.878840</hAcc><vAcc>0.697001</vAcc></extensions></trkpt>
      <trkpt lon="-3.333298" lat="54.577714"><ele>138.878448</ele><time>2021-08-12T13:11:21Z</time><extensions><speed>1.346815</speed><course>59.591164</course><hAcc>0.878200</hAcc><vAcc>0.694515</vAcc></extensions></trkpt>
      <trkpt lon="-3.333318" lat="54.577716"><ele>138.940750</ele><time>2021-08-12T13:11:22Z</time><extensions><speed>1.338035</speed><course>56.078835</course><hAcc>0.877531</hAcc><vAcc>0.691940</vAcc></extensions></trkpt>
      <trkpt lon="-3.333338" lat="54.577719"><ele>138.993439</ele><time>2021-08-12T13:11:23Z</time><extensions><speed>1.329379</speed><course>61.452141</course><hAcc>0.876844</hAcc><vAcc>0.689333</vAcc></extensions></trkpt>
      <trkpt lon="-3.333358" lat="54.577722"><ele>139.037247</ele><time>2021-08-12T13:11:24Z</time><extensions><speed>1.320790</speed><course>62.349373</course><hAcc>0.876146</hAcc><vAcc>0.686735</vAcc></extensions></trkpt>
      <trkpt lon="-3.333377" lat="54.577725"><ele>139.073303</ele><time>2021-08-12T13:11:25Z</time><extensions><speed>1.313013</speed><course>67.502327</course><hAcc>0.875445</hAcc><vAcc>0.684169</vAcc></extensions></trkpt>
      <trkpt lon="-3.333397" lat="54.577728"><ele>139.102692</ele><time>2021-08-12T13:11:26Z</time><extensions><speed>1.306760</speed><course>65.148994</course><hAcc>0.874746</hAcc><vAcc>0.681647</vAcc></extensions></trkpt>
      <trkpt lon="-3.333417" lat="54.577730"><ele>139.126389</ele><time>2021-08-12T13:11:27Z</time><extensions><speed>1.301147</speed><course>61.604351</course><hAcc>0.874054</hAcc><vAcc>0.679167</vAcc></extensions></trkpt>
      <trkpt lon="-3.333436" lat="54.577733"><ele>139.145325</ele><time>2021-08-12T13:11:28Z</time><extensions><speed>1.294316</speed><course>67.356651</course><hAcc>0.873375</hAcc><vAcc>0.676715</vAcc></extensions></trkpt>
      <trkpt lon="-3.333456" lat="54.577736"><ele>139.160324</ele><time>2021-08-12T13:11:29Z</time><extensions><speed>1.285866</speed><course>56.187717</course><hAcc>0.872714</hAcc><vAcc>0.674258</vAcc></extensions></trkpt>
      <trkpt lon="-3.333475" lat="54.577739"><ele>139.172028</ele><time>2021-08-12T13:11:30Z</time><extensions><speed>1.276099</speed><course>56.273357</course><hAcc>0.872084</hAcc><vAcc>0.671759</vAcc></extensions></trkpt>
      <trkpt lon="-3.333494" lat="54.577741"><ele>139.180954</ele><time>2021-08-12T13:11:31Z</time><extensions><speed>1.265129</speed><course>59.042984</course><hAcc>0.871503</hAcc><vAcc>0.669186</vAcc></extensions></trkpt>
      <trkpt lon="-3.333513" lat="54.577744"><ele>139.187393</ele><time>2021-08-12T13:11:32Z</time><extensions><speed>1.253254</speed><course>46.754299</course><hAcc>0.870997</hAcc><vAcc>0.666514</vAcc></extensions></trkpt>
      <trkpt lon="-3.333532" lat="54.577747"><ele>139.191345</ele><time>2021-08-12T13:11:33Z</time><extensions><speed>1.240886</speed><course>46.754295</course><hAcc>0.870601</hAcc><vAcc>0.663722</vAcc></extensions></trkpt>
      <trkpt lon="-3.333550" lat="54.577749"><ele>139.192795</ele><time>2021-08-12T13:11:34Z</time><extensions><speed>1.228775</speed><course>46.754295</course><hAcc>0.870354</hAcc><vAcc>0.660806</vAcc></extensions></trkpt>
      <trkpt lon="-3.333569" lat="54.577752"><ele>139.191833</ele><time>2021-08-12T13:11:35Z</time><extensions><speed>1.218194</speed><course>46.754295</course><hAcc>0.870298</hAcc><vAcc>0.657783</vAcc></extensions></trkpt>
      <trkpt lon="-3.333587" lat="54.577754"><ele>139.188812</ele><time>2021-08-12T13:11:36Z</time><extensions><speed>1.209706</speed><course>46.754295</course><hAcc>0.870467</hAcc><vAcc>0.654695</vAcc></extensions></trkpt>
      <trkpt lon="-3.333605" lat="54.577757"><ele>139.184296</ele><time>2021-08-12T13:11:37Z</time><extensions><speed>1.203002</speed><course>46.754295</course><hAcc>0.870874</hAcc><vAcc>0.651591</vAcc></extensions></trkpt>
      <trkpt lon="-3.333623" lat="54.577759"><ele>139.178909</ele><time>2021-08-12T13:11:38Z</time><extensions><speed>1.198187</speed><course>46.754295</course><hAcc>0.871494</hAcc><vAcc>0.648519</vAcc></extensions></trkpt>
      <trkpt lon="-3.333641" lat="54.577762"><ele>139.173538</ele><time>2021-08-12T13:11:39Z</time><extensions><speed>1.195569</speed><course>46.754292</course><hAcc>0.872250</hAcc><vAcc>0.645532</vAcc></extensions></trkpt>
      <trkpt lon="-3.333659" lat="54.577764"><ele>139.169312</ele><time>2021-08-12T13:11:40Z</time><extensions><speed>1.194679</speed><course>46.754295</course><hAcc>0.873005</hAcc><vAcc>0.642686</vAcc></extensions></trkpt>
      <trkpt lon="-3.333677" lat="54.577767"><ele>139.167465</ele><time>2021-08-12T13:11:41Z</time><extensions><speed>1.194367</speed><course>86.257805</course><hAcc>0.873581</hAcc><vAcc>0.640041</vAcc></extensions></trkpt>
      <trkpt lon="-3.333695" lat="54.577769"><ele>139.169128</ele><time>2021-08-12T13:11:42Z</time><extensions><speed>1.193868</speed><course>92.864906</course><hAcc>0.873800</hAcc><vAcc>0.637659</vAcc></extensions></trkpt>
      <trkpt lon="-3.333713" lat="54.577772"><ele>139.175064</ele><time>2021-08-12T13:11:43Z</time><extensions><speed>1.193144</speed><course>94.458534</course><hAcc>0.873533</hAcc><vAcc>0.635609</vAcc></extensions></trkpt>
      <trkpt lon="-3.333731" lat="54.577774"><ele>139.185913</ele><time>2021-08-12T13:11:44Z</time><extensions><speed>1.192656</speed><course>89.165138</course><hAcc>0.872754</hAcc><vAcc>0.633955</vAcc></extensions></trkpt>
      <trkpt lon="-3.333749" lat="54.577777"><ele>139.202286</ele><time>2021-08-12T13:11:45Z</time><extensions><speed>1.192483</speed><course>98.187202</course><hAcc>0.871545</hAcc><vAcc>0.632738</vAcc></extensions></trkpt>
      <trkpt lon="-3.333766" lat="54.577780"><ele>139.224701</ele><time>2021-08-12T13:11:46Z</time><extensions><speed>1.192180</speed><course>262.094696</course><hAcc>0.870061</hAcc><vAcc>0.631975</vAcc></extensions></trkpt>
      <trkpt lon="-3.333784" lat="54.577783"><ele>139.253448</ele><time>2021-08-12T13:11:47Z</time><extensions><speed>1.191553</speed><course>273.339569</course><hAcc>0.868479</hAcc><vAcc>0.631657</vAcc></extensions></trkpt>
      <trkpt lon="-3.333802" lat="54.577786"><ele>139.288315</ele><time>2021-08-12T13:11:48Z</time><extensions><speed>1.190674</speed><course>270.133057</course><hAcc>0.866969</hAcc><vAcc>0.631762</vAcc></extensions></trkpt>
      <trkpt lon="-3.333820" lat="54.577789"><ele>139.328812</ele><time>2021-08-12T13:11:49Z</time><extensions><speed>1.189425</speed><course>264.401459</course><hAcc>0.865662</hAcc><vAcc>0.632247</vAcc></extensions></trkpt>
      <trkpt lon="-3.333837" lat="54.577792"><ele>139.374680</ele><time>2021-08-12T13:11:50Z</time><extensions><speed>1.187620</speed><course>271.206299</course><hAcc>0.864634</hAcc><vAcc>0.633059</vAcc></extensions></trkpt>
      <trkpt lon="-3.333855" lat="54.577795"><ele>139.425674</ele><time>2021-08-12T13:11:51Z</time><extensions><speed>1.185579</speed><course>270.479279</course><hAcc>0.863911</hAcc><vAcc>0.634144</vAcc></extensions></trkpt>
      <trkpt lon="-3.333872" lat="54.577798"><ele>139.481354</ele><time>2021-08-12T13:11:52Z</time><extensions><speed>1.184032</speed><course>270.479279</course><hAcc>0.863482</hAcc><vAcc>0.635457</vAcc></extensions></trkpt>
      <trkpt lon="-3.333890" lat="54.577801"><ele>139.541489</ele><time>2021-08-12T13:11:53Z</time><extensions><speed>1.184128</speed><course>270.479279</course><hAcc>0.863317</hAcc><vAcc>0.636956</vAcc></extensions></trkpt>
      <trkpt lon="-3.333907" lat="54.577804"><ele>139.606247</ele><time>2021-08-12T13:11:54Z</time><extensions><speed>1.187005</speed><course>92.836548</course><hAcc>0.863371</hAcc><vAcc>0.638613</vAcc></extensions></trkpt>
      <trkpt lon="-3.333925" lat="54.577808"><ele>139.676010</ele><time>2021-08-12T13:11:55Z</time><extensions><speed>1.193184</speed><course>91.847809</course><hAcc>0.863602</hAcc><vAcc>0.640408</vAcc></extensions></trkpt>
      <trkpt lon="-3.333942" lat="54.577811"><ele>139.750900</ele><time>2021-08-12T13:11:56Z</time><extensions><speed>1.202867</speed><course>96.972961</course><hAcc>0.863967</hAcc><vAcc>0.642322</vAcc></extensions></trkpt>
      <trkpt lon="-3.333960" lat="54.577814"><ele>139.830734</ele><time>2021-08-12T13:11:57Z</time><extensions><speed>1.216083</speed><course>101.432434</course><hAcc>0.864429</hAcc><vAcc>0.644334</vAcc></extensions></trkpt>
      <trkpt lon="-3.333978" lat="54.577817"><ele>139.915283</ele><time>2021-08-12T13:11:58Z</time><extensions><speed>1.232655</speed><course>89.921867</course><hAcc>0.864959</hAcc><vAcc>0.646423</vAcc></extensions></trkpt>
      <trkpt lon="-3.333997" lat="54.577820"><ele>140.004028</ele><time>2021-08-12T13:11:59Z</time><extensions><speed>1.251908</speed><course>79.468422</course><hAcc>0.865532</hAcc><vAcc>0.648576</vAcc></extensions></trkpt>
      <trkpt lon="-3.334016" lat="54.577824"><ele>140.096161</ele><time>2021-08-12T13:12:00Z</time><extensions><speed>1.272414</speed><course>79.668663</course><hAcc>0.866130</hAcc><vAcc>0.650779</vAcc></extensions></trkpt>
      <trkpt lon="-3.334035" lat="54.577827"><ele>140.190598</ele><time>2021-08-12T13:12:01Z</time><extensions><speed>1.292080</speed><course>70.198914</course><hAcc>0.866740</hAcc><vAcc>0.653006</vAcc></extensions></trkpt>
      <trkpt lon="-3.334054" lat="54.577830"><ele>140.285828</ele><time>2021-08-12T13:12:02Z</time><extensions><speed>1.308684</speed><course>85.811096</course><hAcc>0.867344</hAcc><vAcc>0.655216</vAcc></extensions></trkpt>
      <trkpt lon="-3.334074" lat="54.577833"><ele>140.379791</ele><time>2021-08-12T13:12:03Z</time><extensions><speed>1.319891</speed><course>87.515213</course><hAcc>0.867929</hAcc><vAcc>0.657357</vAcc></extensions></trkpt>
      <trkpt lon="-3.334093" lat="54.577837"><ele>140.470123</ele><time>2021-08-12T13:12:04Z</time><extensions><speed>1.323455</speed><course>86.802406</course><hAcc>0.868479</hAcc><vAcc>0.659376</vAcc></extensions></trkpt>
      <trkpt lon="-3.334113" lat="54.577840"><ele>140.554749</ele><time>2021-08-12T13:12:05Z</time><extensions><speed>1.317878</speed><course>85.424927</course><hAcc>0.868987</hAcc><vAcc>0.661232</vAcc></extensions></trkpt>
      <trkpt lon="-3.334132" lat="54.577843"><ele>140.632065</ele><time>2021-08-12T13:12:06Z</time><extensions><speed>1.303095</speed><course>88.911957</course><hAcc>0.869445</hAcc><vAcc>0.662893</vAcc></extensions></trkpt>
      <trkpt lon="-3.334152" lat="54.577846"><ele>140.701111</ele><time>2021-08-12T13:12:07Z</time><extensions><speed>1.280099</speed><course>93.027184</course><hAcc>0.869850</hAcc><vAcc>0.664323</vAcc></extensions></trkpt>
      <trkpt lon="-3.334171" lat="54.577849"><ele>140.761307</ele><time>2021-08-12T13:12:08Z</time><extensions><speed>1.249760</speed><course>90.763535</course><hAcc>0.870200</hAcc><vAcc>0.665487</vAcc></extensions></trkpt>
      <trkpt lon="-3.334189" lat="54.577852"><ele>140.812271</ele><time>2021-08-12T13:12:09Z</time><extensions><speed>1.212697</speed><course>83.392509</course><hAcc>0.870497</hAcc><vAcc>0.666343</vAcc></extensions></trkpt>
      <trkpt lon="-3.334207" lat="54.577854"><ele>140.853638</ele><time>2021-08-12T13:12:10Z</time><extensions><speed>1.169510</speed><course>57.334152</course><hAcc>0.870747</hAcc><vAcc>0.666857</vAcc></extensions></trkpt>
      <trkpt lon="-3.334224" lat="54.577857"><ele>140.885162</ele><time>2021-08-12T13:12:11Z</time><extensions><speed>1.121371</speed><course>29.254333</course><hAcc>0.870960</hAcc><vAcc>0.667012</vAcc></extensions></trkpt>
      <trkpt lon="-3.334240" lat="54.577860"><ele>140.906921</ele><time>2021-08-12T13:12:12Z</time><extensions><speed>1.068791</speed><course>29.254333</course><hAcc>0.871153</hAcc><vAcc>0.666822</vAcc></extensions></trkpt>
      <trkpt lon="-3.334256" lat="54.577862"><ele>140.919342</ele><time>2021-08-12T13:12:13Z</time><extensions><speed>1.012514</speed><course>29.254333</course><hAcc>0.871345</hAcc><vAcc>0.666329</vAcc></extensions></trkpt>
      <trkpt lon="-3.334270" lat="54.577865"><ele>140.922974</ele><time>2021-08-12T13:12:14Z</time><extensions><speed>0.954946</speed><course>29.254332</course><hAcc>0.871552</hAcc><vAcc>0.665599</vAcc></extensions></trkpt>
      <trkpt lon="-3.334284" lat="54.577868"><ele>140.918243</ele><time>2021-08-12T13:12:15Z</time><extensions><speed>0.899141</speed><course>29.254333</course><hAcc>0.871784</hAcc><vAcc>0.664708</vAcc></extensions></trkpt>
      <trkpt lon="-3.334296" lat="54.577871"><ele>140.905624</ele><time>2021-08-12T13:12:16Z</time><extensions><speed>0.848790</speed><course>29.254332</course><hAcc>0.872031</hAcc><vAcc>0.663735</vAcc></extensions></trkpt>
      <trkpt lon="-3.334308" lat="54.577874"><ele>140.885910</ele><time>2021-08-12T13:12:17Z</time><extensions><speed>0.807801</speed><course>29.254332</course><hAcc>0.872265</hAcc><vAcc>0.662757</vAcc></extensions></trkpt>
      <trkpt lon="-3.334319" lat="54.577877"><ele>140.860046</ele><time>2021-08-12T13:12:18Z</time><extensions><speed>0.779804</speed><course>29.254333</course><hAcc>0.872433</hAcc><vAcc>0.661844</vAcc></extensions></trkpt>
      <trkpt lon="-3.334329" lat="54.577880"><ele>140.829117</ele><time>2021-08-12T13:12:19Z</time><extensions><speed>0.767826</speed><course>29.254333</course><hAcc>0.872473</hAcc><vAcc>0.661061</vAcc></extensions></trkpt>
      <trkpt lon="-3.334340" lat="54.577884"><ele>140.794357</ele><time>2021-08-12T13:12:20Z</time><extensions><speed>0.773709</speed><course>29.254332</course><hAcc>0.872347</hAcc><vAcc>0.660479</vAcc></extensions></trkpt>
      <trkpt lon="-3.334350" lat="54.577887"><ele>140.757080</ele><time>2021-08-12T13:12:21Z</time><extensions><speed>0.797812</speed><course>29.254333</course><hAcc>0.872073</hAcc><vAcc>0.660183</vAcc></extensions></trkpt>
      <trkpt lon="-3.334361" lat="54.577891"><ele>140.718552</ele><time>2021-08-12T13:12:22Z</time><extensions><speed>0.839193</speed><course>29.254337</course><hAcc>0.871723</hAcc><vAcc>0.660258</vAcc></extensions></trkpt>
      <trkpt lon="-3.334373" lat="54.577895"><ele>140.679565</ele><time>2021-08-12T13:12:23Z</time><extensions><speed>0.895169</speed><course>29.254337</course><hAcc>0.871394</hAcc><vAcc>0.660764</vAcc></extensions></trkpt>
      <trkpt lon="-3.334385" lat="54.577899"><ele>140.640396</ele><time>2021-08-12T13:12:24Z</time><extensions><speed>0.961368</speed><course>29.254339</course><hAcc>0.871163</hAcc><vAcc>0.661716</vAcc></extensions></trkpt>
      <trkpt lon="-3.334398" lat="54.577904"><ele>140.601089</ele><time>2021-08-12T13:12:25Z</time><extensions><speed>1.033349</speed><course>29.254337</course><hAcc>0.871078</hAcc><vAcc>0.663100</vAcc></extensions></trkpt>
      <trkpt lon="-3.334412" lat="54.577909"><ele>140.561569</ele><time>2021-08-12T13:12:26Z</time><extensions><speed>1.106607</speed><course>29.254339</course><hAcc>0.871161</hAcc><vAcc>0.664881</vAcc></extensions></trkpt>
      <trkpt lon="-3.334428" lat="54.577914"><ele>140.521591</ele><time>2021-08-12T13:12:27Z</time><extensions><speed>1.177219</speed><course>353.139893</course><hAcc>0.871412</hAcc><vAcc>0.667006</vAcc></extensions></trkpt>
      <trkpt lon="-3.334444" lat="54.577919"><ele>140.480835</ele><time>2021-08-12T13:12:28Z</time><extensions><speed>1.242983</speed><course>-1.000000</course><hAcc>0.871821</hAcc><vAcc>0.669410</vAcc></extensions></trkpt>
      <trkpt lon="-3.334461" lat="54.577925"><ele>140.439224</ele><time>2021-08-12T13:12:29Z</time><extensions><speed>1.302927</speed><course>-1.000000</course><hAcc>0.872371</hAcc><vAcc>0.672024</vAcc></extensions></trkpt>
      <trkpt lon="-3.334479" lat="54.577931"><ele>140.397293</ele><time>2021-08-12T13:12:30Z</time><extensions><speed>1.356139</speed><course>-1.000000</course><hAcc>0.873045</hAcc><vAcc>0.674779</vAcc></extensions></trkpt>
      <trkpt lon="-3.334498" lat="54.577936"><ele>140.356110</ele><time>2021-08-12T13:12:31Z</time><extensions><speed>1.401441</speed><course>-1.000000</course><hAcc>0.873834</hAcc><vAcc>0.677608</vAcc></extensions></trkpt>
      <trkpt lon="-3.334517" lat="54.577942"><ele>140.316895</ele><time>2021-08-12T13:12:32Z</time><extensions><speed>1.438191</speed><course>-1.000000</course><hAcc>0.874737</hAcc><vAcc>0.680459</vAcc></extensions></trkpt>
      <trkpt lon="-3.334537" lat="54.577948"><ele>140.280899</ele><time>2021-08-12T13:12:33Z</time><extensions><speed>1.466432</speed><course>-1.000000</course><hAcc>0.875768</hAcc><vAcc>0.683297</vAcc></extensions></trkpt>
      <trkpt lon="-3.334558" lat="54.577955"><ele>140.249084</ele><time>2021-08-12T13:12:34Z</time><extensions><speed>1.486485</speed><course>-1.000000</course><hAcc>0.876950</hAcc><vAcc>0.686115</vAcc></extensions></trkpt>
      <trkpt lon="-3.334578" lat="54.577961"><ele>140.221893</ele><time>2021-08-12T13:12:35Z</time><extensions><speed>1.498989</speed><course>-1.000000</course><hAcc>0.878318</hAcc><vAcc>0.688935</vAcc></extensions></trkpt>
      <trkpt lon="-3.334599" lat="54.577967"><ele>140.199310</ele><time>2021-08-12T13:12:36Z</time><extensions><speed>1.505289</speed><course>-1.000000</course><hAcc>0.879909</hAcc><vAcc>0.691793</vAcc></extensions></trkpt>
      <trkpt lon="-3.334620" lat="54.577973"><ele>140.181152</ele><time>2021-08-12T13:12:37Z</time><extensions><speed>1.506655</speed><course>-1.000000</course><hAcc>0.881753</hAcc><vAcc>0.694726</vAcc></extensions></trkpt>
      <trkpt lon="-3.334641" lat="54.577979"><ele>140.167297</ele><time>2021-08-12T13:12:38Z</time><extensions><speed>1.504087</speed><course>-1.000000</course><hAcc>0.883861</hAcc><vAcc>0.697746</vAcc></extensions></trkpt>
      <trkpt lon="-3.334661" lat="54.577985"><ele>140.157761</ele><time>2021-08-12T13:12:39Z</time><extensions><speed>1.498784</speed><course>74.830536</course><hAcc>0.886209</hAcc><vAcc>0.700825</vAcc></extensions></trkpt>
      <trkpt lon="-3.334682" lat="54.577991"><ele>140.152573</ele><time>2021-08-12T13:12:40Z</time><extensions><speed>1.492185</speed><course>62.161198</course><hAcc>0.888727</hAcc><vAcc>0.703879</vAcc></extensions></trkpt>
      <trkpt lon="-3.334703" lat="54.577996"><ele>140.151947</ele><time>2021-08-12T13:12:41Z</time><extensions><speed>1.485691</speed><course>66.043793</course><hAcc>0.891289</hAcc><vAcc>0.706779</vAcc></extensions></trkpt>
      <trkpt lon="-3.334724" lat="54.578002"><ele>140.156219</ele><time>2021-08-12T13:12:42Z</time><extensions><speed>1.479775</speed><course>75.803009</course><hAcc>0.893715</hAcc><vAcc>0.709366</vAcc></extensions></trkpt>
      <trkpt lon="-3.334745" lat="54.578007"><ele>140.166199</ele><time>2021-08-12T13:12:43Z</time><extensions><speed>1.473602</speed><course>76.191063</course><hAcc>0.895790</hAcc><vAcc>0.711490</vAcc></extensions></trkpt>
      <trkpt lon="-3.334766" lat="54.578012"><ele>140.182953</ele><time>2021-08-12T13:12:44Z</time><extensions><speed>1.466168</speed><course>76.349960</course><hAcc>0.897322</hAcc><vAcc>0.713071</vAcc></extensions></trkpt>
      <trkpt lon="-3.334787" lat="54.578017"><ele>140.207275</ele><time>2021-08-12T13:12:45Z</time><extensions><speed>1.456979</speed><course>78.477806</course><hAcc>0.898236</hAcc><vAcc>0.714199</vAcc></extensions></trkpt>
      <trkpt lon="-3.334808" lat="54.578021"><ele>140.239563</ele><time>2021-08-12T13:12:46Z</time><extensions><speed>1.445740</speed><course>75.070290</course><hAcc>0.898747</hAcc><vAcc>0.715283</vAcc></extensions></trkpt>
      <trkpt lon="-3.334829" lat="54.578025"><ele>140.280060</ele><time>2021-08-12T13:12:47Z</time><extensions><speed>1.432183</speed><course>69.086029</course><hAcc>0.899618</hAcc><vAcc>0.717251</vAcc></extensions></trkpt>
      <trkpt lon="-3.334850" lat="54.578029"><ele>140.329147</ele><time>2021-08-12T13:12:48Z</time><extensions><speed>1.416240</speed><course>68.949226</course><hAcc>0.902522</hAcc><vAcc>0.721792</vAcc></extensions></trkpt>
      <trkpt lon="-3.334871" lat="54.578032"><ele>140.387329</ele><time>2021-08-12T13:12:49Z</time><extensions><speed>1.398419</speed><course>71.686111</course><hAcc>0.910493</hAcc><vAcc>0.731604</vAcc></extensions></trkpt>
      <trkpt lon="-3.334892" lat="54.578035"><ele>140.455063</ele><time>2021-08-12T13:12:50Z</time><extensions><speed>1.379958</speed><course>76.597496</course><hAcc>0.928352</hAcc><vAcc>0.750539</vAcc></extensions></trkpt>
      <trkpt lon="-3.334913" lat="54.578038"><ele>140.532318</ele><time>2021-08-12T13:12:51Z</time><extensions><speed>1.362356</speed><course>90.005066</course><hAcc>0.962850</hAcc><vAcc>0.783488</vAcc></extensions></trkpt>
      <trkpt lon="-3.334930" lat="54.578035"><ele>140.538254</ele><time>2021-08-12T13:12:52Z</time><extensions><speed>1.233302</speed><course>74.967865</course><hAcc>0.926104</hAcc><vAcc>0.750782</vAcc></extensions></trkpt>
      <trkpt lon="-3.334947" lat="54.578030"><ele>140.556717</ele><time>2021-08-12T13:12:53Z</time><extensions><speed>1.237942</speed><course>75.133301</course><hAcc>0.907787</hAcc><vAcc>0.731579</vAcc></extensions></trkpt>
      <trkpt lon="-3.334963" lat="54.578024"><ele>140.572449</ele><time>2021-08-12T13:12:54Z</time><extensions><speed>1.247588</speed><course>66.099251</course><hAcc>0.900595</hAcc><vAcc>0.722727</vAcc></extensions></trkpt>
      <trkpt lon="-3.334980" lat="54.578018"><ele>140.583862</ele><time>2021-08-12T13:12:55Z</time><extensions><speed>1.263070</speed><course>81.237114</course><hAcc>0.899015</hAcc><vAcc>0.719913</vAcc></extensions></trkpt>
      <trkpt lon="-3.334996" lat="54.578011"><ele>140.590683</ele><time>2021-08-12T13:12:56Z</time><extensions><speed>1.284735</speed><course>80.566093</course><hAcc>0.899578</hAcc><vAcc>0.720098</vAcc></extensions></trkpt>
      <trkpt lon="-3.335012" lat="54.578004"><ele>140.593338</ele><time>2021-08-12T13:12:57Z</time><extensions><speed>1.311846</speed><course>80.566109</course><hAcc>0.900380</hAcc><vAcc>0.721361</vAcc></extensions></trkpt>
      <trkpt lon="-3.335028" lat="54.577997"><ele>140.592010</ele><time>2021-08-12T13:12:58Z</time><extensions><speed>1.342119</speed><course>80.566093</course><hAcc>0.900568</hAcc><vAcc>0.722619</vAcc></extensions></trkpt>
      <trkpt lon="-3.335043" lat="54.577989"><ele>140.586380</ele><time>2021-08-12T13:12:59Z</time><extensions><speed>1.373072</speed><course>80.566093</course><hAcc>0.899917</hAcc><vAcc>0.723363</vAcc></extensions></trkpt>
      <trkpt lon="-3.335059" lat="54.577980"><ele>140.575333</ele><time>2021-08-12T13:13:00Z</time><extensions><speed>1.402951</speed><course>80.566093</course><hAcc>0.898529</hAcc><vAcc>0.723440</vAcc></extensions></trkpt>
      <trkpt lon="-3.335074" lat="54.577971"><ele>140.557388</ele><time>2021-08-12T13:13:01Z</time><extensions><speed>1.430467</speed><course>77.344681</course><hAcc>0.896642</hAcc><vAcc>0.722898</vAcc></extensions></trkpt>
      <trkpt lon="-3.335090" lat="54.577962"><ele>140.531601</ele><time>2021-08-12T13:13:02Z</time><extensions><speed>1.455424</speed><course>77.923714</course><hAcc>0.894515</hAcc><vAcc>0.721883</vAcc></extensions></trkpt>
      <trkpt lon="-3.335106" lat="54.577952"><ele>140.497711</ele><time>2021-08-12T13:13:03Z</time><extensions><speed>1.477874</speed><course>87.073212</course><hAcc>0.892369</hAcc><vAcc>0.720569</vAcc></extensions></trkpt>
      <trkpt lon="-3.335121" lat="54.577942"><ele>140.455643</ele><time>2021-08-12T13:13:04Z</time><extensions><speed>1.497377</speed><course>79.233902</course><hAcc>0.890367</hAcc><vAcc>0.719122</vAcc></extensions></trkpt>
      <trkpt lon="-3.335137" lat="54.577932"><ele>140.405350</ele><time>2021-08-12T13:13:05Z</time><extensions><speed>1.513587</speed><course>96.572746</course><hAcc>0.888607</hAcc><vAcc>0.717676</vAcc></extensions></trkpt>
      <trkpt lon="-3.335152" lat="54.577922"><ele>140.346863</ele><time>2021-08-12T13:13:06Z</time><extensions><speed>1.526383</speed><course>86.920219</course><hAcc>0.887135</hAcc><vAcc>0.716328</vAcc></extensions></trkpt>
      <trkpt lon="-3.335168" lat="54.577912"><ele>140.280746</ele><time>2021-08-12T13:13:07Z</time><extensions><speed>1.536767</speed><course>76.786201</course><hAcc>0.885956</hAcc><vAcc>0.715133</vAcc></extensions></trkpt>
      <trkpt lon="-3.335184" lat="54.577901"><ele>140.208969</ele><time>2021-08-12T13:13:08Z</time><extensions><speed>1.546375</speed><course>77.162971</course><hAcc>0.885049</hAcc><vAcc>0.714118</vAcc></extensions></trkpt>
      <trkpt lon="-3.335199" lat="54.577891"><ele>140.135300</ele><time>2021-08-12T13:13:09Z</time><extensions><speed>1.556149</speed><course>69.604996</course><hAcc>0.884379</hAcc><vAcc>0.713291</vAcc></extensions></trkpt>
      <trkpt lon="-3.335214" lat="54.577880"><ele>140.064606</ele><time>2021-08-12T13:13:10Z</time><extensions><speed>1.566575</speed><course>76.115456</course><hAcc>0.883904</hAcc><vAcc>0.712652</vAcc></extensions></trkpt>
      <trkpt lon="-3.335230" lat="54.577869"><ele>140.002136</ele><time>2021-08-12T13:13:11Z</time><extensions><speed>1.577879</speed><course>83.646278</course><hAcc>0.883582</hAcc><vAcc>0.712189</vAcc></extensions></trkpt>
      <trkpt lon="-3.335245" lat="54.577858"><ele>139.952759</ele><time>2021-08-12T13:13:12Z</time><extensions><speed>1.589554</speed><course>76.408623</course><hAcc>0.883376</hAcc><vAcc>0.711885</vAcc></extensions></trkpt>
      <trkpt lon="-3.335260" lat="54.577847"><ele>139.920197</ele><time>2021-08-12T13:13:13Z</time><extensions><speed>1.600312</speed><course>79.439453</course><hAcc>0.883255</hAcc><vAcc>0.711721</vAcc></extensions></trkpt>
      <trkpt lon="-3.335275" lat="54.577835"><ele>139.906769</ele><time>2021-08-12T13:13:14Z</time><extensions><speed>1.609334</speed><course>75.300941</course><hAcc>0.883192</hAcc><vAcc>0.711675</vAcc></extensions></trkpt>
      <trkpt lon="-3.335290" lat="54.577824"><ele>139.913666</ele><time>2021-08-12T13:13:15Z</time><extensions><speed>1.616161</speed><course>76.126534</course><hAcc>0.883166</hAcc><vAcc>0.711720</vAcc></extensions></trkpt>
      <trkpt lon="-3.335305" lat="54.577812"><ele>139.940872</ele><time>2021-08-12T13:13:16Z</time><extensions><speed>1.620532</speed><course>75.233688</course><hAcc>0.883161</hAcc><vAcc>0.711823</vAcc></extensions></trkpt>
      <trkpt lon="-3.335320" lat="54.577800"><ele>139.987259</ele><time>2021-08-12T13:13:17Z</time><extensions><speed>1.622676</speed><course>81.891060</course><hAcc>0.883167</hAcc><vAcc>0.711947</vAcc></extensions></trkpt>
      <trkpt lon="-3.335335" lat="54.577788"><ele>140.050949</ele><time>2021-08-12T13:13:18Z</time><extensions><speed>1.623160</speed><course>78.263519</course><hAcc>0.883173</hAcc><vAcc>0.712054</vAcc></extensions></trkpt>
      <trkpt lon="-3.335349" lat="54.577776"><ele>140.129440</ele><time>2021-08-12T13:13:19Z</time><extensions><speed>1.622814</speed><course>74.907532</course><hAcc>0.883174</hAcc><vAcc>0.712115</vAcc></extensions></trkpt>
      <trkpt lon="-3.335364" lat="54.577764"><ele>140.219589</ele><time>2021-08-12T13:13:20Z</time><extensions><speed>1.622313</speed><course>84.941742</course><hAcc>0.883166</hAcc><vAcc>0.712110</vAcc></extensions></trkpt>
      <trkpt lon="-3.335378" lat="54.577752"><ele>140.317856</ele><time>2021-08-12T13:13:21Z</time><extensions><speed>1.622417</speed><course>73.584358</course><hAcc>0.883146</hAcc><vAcc>0.712027</vAcc></extensions></trkpt>
      <trkpt lon="-3.335392" lat="54.577740"><ele>140.420670</ele><time>2021-08-12T13:13:22Z</time><extensions><speed>1.623918</speed><course>96.346313</course><hAcc>0.883112</hAcc><vAcc>0.711867</vAcc></extensions></trkpt>
      <trkpt lon="-3.335406" lat="54.577728"><ele>140.524536</ele><time>2021-08-12T13:13:23Z</time><extensions><speed>1.626955</speed><course>87.208282</course><hAcc>0.883063</hAcc><vAcc>0.711638</vAcc></extensions></trkpt>
      <trkpt lon="-3.335420" lat="54.577716"><ele>140.626144</ele><time>2021-08-12T13:13:24Z</time><extensions><speed>1.630986</speed><course>71.034035</course><hAcc>0.882996</hAcc><vAcc>0.711358</vAcc></extensions></trkpt>
      <trkpt lon="-3.335434" lat="54.577704"><ele>140.722595</ele><time>2021-08-12T13:13:25Z</time><extensions><speed>1.634617</speed><course>74.315559</course><hAcc>0.882910</hAcc><vAcc>0.711044</vAcc></extensions></trkpt>
      <trkpt lon="-3.335448" lat="54.577692"><ele>140.811707</ele><time>2021-08-12T13:13:26Z</time><extensions><speed>1.636633</speed><course>82.074326</course><hAcc>0.882804</hAcc><vAcc>0.710707</vAcc></extensions></trkpt>
      <trkpt lon="-3.335462" lat="54.577680"><ele>140.892334</ele><time>2021-08-12T13:13:27Z</time><extensions><speed>1.636513</speed><course>78.798851</course><hAcc>0.882675</hAcc><vAcc>0.710341</vAcc></extensions></trkpt>
      <trkpt lon="-3.335477" lat="54.577667"><ele>140.964188</ele><time>2021-08-12T13:13:28Z</time><extensions><speed>1.634207</speed><course>71.049065</course><hAcc>0.882523</hAcc><vAcc>0.709922</vAcc></extensions></trkpt>
      <trkpt lon="-3.335491" lat="54.577655"><ele>141.027161</ele><time>2021-08-12T13:13:29Z</time><extensions><speed>1.629864</speed><course>66.417450</course><hAcc>0.882348</hAcc><vAcc>0.709418</vAcc></extensions></trkpt>
      <trkpt lon="-3.335505" lat="54.577643"><ele>141.080887</ele><time>2021-08-12T13:13:30Z</time><extensions><speed>1.623650</speed><course>67.881187</course><hAcc>0.882152</hAcc><vAcc>0.708798</vAcc></extensions></trkpt>
      <trkpt lon="-3.335519" lat="54.577631"><ele>141.124878</ele><time>2021-08-12T13:13:31Z</time><extensions><speed>1.615864</speed><course>73.946594</course><hAcc>0.881939</hAcc><vAcc>0.708046</vAcc></extensions></trkpt>
      <trkpt lon="-3.335534" lat="54.577620"><ele>141.158432</ele><time>2021-08-12T13:13:32Z</time><extensions><speed>1.606720</speed><course>66.868568</course><hAcc>0.881716</hAcc><vAcc>0.707164</vAcc></extensions></trkpt>
      <trkpt lon="-3.335549" lat="54.577608"><ele>141.180695</ele><time>2021-08-12T13:13:33Z</time><extensions><speed>1.596809</speed><course>57.370388</course><hAcc>0.881493</hAcc><vAcc>0.706183</vAcc></extensions></trkpt>
      <trkpt lon="-3.335563" lat="54.577596"><ele>141.191055</ele><time>2021-08-12T13:13:34Z</time><extensions><speed>1.586723</speed><course>72.859169</course><hAcc>0.881278</hAcc><vAcc>0.705167</vAcc></extensions></trkpt>
      <trkpt lon="-3.335578" lat="54.577585"><ele>141.189896</ele><time>2021-08-12T13:13:35Z</time><extensions><speed>1.576447</speed><course>73.476959</course><hAcc>0.881083</hAcc><vAcc>0.704202</vAcc></extensions></trkpt>
      <trkpt lon="-3.335593" lat="54.577574"><ele>141.179047</ele><time>2021-08-12T13:13:36Z</time><extensions><speed>1.565106</speed><course>70.985191</course><hAcc>0.880919</hAcc><vAcc>0.703384</vAcc></extensions></trkpt>
      <trkpt lon="-3.335608" lat="54.577563"><ele>141.160889</ele><time>2021-08-12T13:13:37Z</time><extensions><speed>1.551747</speed><course>67.094063</course><hAcc>0.880794</hAcc><vAcc>0.702798</vAcc></extensions></trkpt>
      <trkpt lon="-3.335623" lat="54.577552"><ele>141.137527</ele><time>2021-08-12T13:13:38Z</time><extensions><speed>1.535975</speed><course>63.802017</course><hAcc>0.880712</hAcc><vAcc>0.702495</vAcc></extensions></trkpt>
      <trkpt lon="-3.335638" lat="54.577542"><ele>141.111084</ele><time>2021-08-12T13:13:39Z</time><extensions><speed>1.517179</speed><course>59.738853</course><hAcc>0.880673</hAcc><vAcc>0.702478</vAcc></extensions></trkpt>
      <trkpt lon="-3.335654" lat="54.577532"><ele>141.083755</ele><time>2021-08-12T13:13:40Z</time><extensions><speed>1.495005</speed><course>64.752533</course><hAcc>0.880672</hAcc><vAcc>0.702694</vAcc></extensions></trkpt>
      <trkpt lon="-3.335669" lat="54.577522"><ele>141.057449</ele><time>2021-08-12T13:13:41Z</time><extensions><speed>1.469368</speed><course>62.678837</course><hAcc>0.880699</hAcc><vAcc>0.703050</vAcc></extensions></trkpt>
      <trkpt lon="-3.335684" lat="54.577512"><ele>141.033630</ele><time>2021-08-12T13:13:42Z</time><extensions><speed>1.440209</speed><course>67.622025</course><hAcc>0.880743</hAcc><vAcc>0.703445</vAcc></extensions></trkpt>
      <trkpt lon="-3.335700" lat="54.577503"><ele>141.013565</ele><time>2021-08-12T13:13:43Z</time><extensions><speed>1.408262</speed><course>76.998230</course><hAcc>0.880791</hAcc><vAcc>0.703789</vAcc></extensions></trkpt>
      <trkpt lon="-3.335715" lat="54.577494"><ele>140.998627</ele><time>2021-08-12T13:13:44Z</time><extensions><speed>1.374924</speed><course>71.279175</course><hAcc>0.880833</hAcc><vAcc>0.704021</vAcc></extensions></trkpt>
      <trkpt lon="-3.335731" lat="54.577486"><ele>140.990189</ele><time>2021-08-12T13:13:45Z</time><extensions><speed>1.342112</speed><course>66.215858</course><hAcc>0.880861</hAcc><vAcc>0.704109</vAcc></extensions></trkpt>
      <trkpt lon="-3.335746" lat="54.577478"><ele>140.989410</ele><time>2021-08-12T13:13:46Z</time><extensions><speed>1.312011</speed><course>65.869171</course><hAcc>0.880869</hAcc><vAcc>0.704052</vAcc></extensions></trkpt>
      <trkpt lon="-3.335762" lat="54.577471"><ele>140.996902</ele><time>2021-08-12T13:13:47Z</time><extensions><speed>1.286902</speed><course>67.480362</course><hAcc>0.880855</hAcc><vAcc>0.703870</vAcc></extensions></trkpt>
      <trkpt lon="-3.335778" lat="54.577464"><ele>141.012802</ele><time>2021-08-12T13:13:48Z</time><extensions><speed>1.269026</speed><course>62.467888</course><hAcc>0.880820</hAcc><vAcc>0.703596</vAcc></extensions></trkpt>
      <trkpt lon="-3.335794" lat="54.577458"><ele>141.037064</ele><time>2021-08-12T13:13:49Z</time><extensions><speed>1.258431</speed><course>57.403885</course><hAcc>0.880767</hAcc><vAcc>0.703266</vAcc></extensions></trkpt>
      <trkpt lon="-3.335811" lat="54.577452"><ele>141.069504</ele><time>2021-08-12T13:13:50Z</time><extensions><speed>1.251998</speed><course>56.104736</course><hAcc>0.880699</hAcc><vAcc>0.702911</vAcc></extensions></trkpt>
      <trkpt lon="-3.335827" lat="54.577446"><ele>141.109543</ele><time>2021-08-12T13:13:51Z</time><extensions><speed>1.245305</speed><course>57.135769</course><hAcc>0.880621</hAcc><vAcc>0.702560</vAcc></extensions></trkpt>
      <trkpt lon="-3.335844" lat="54.577441"><ele>141.156265</ele><time>2021-08-12T13:13:52Z</time><extensions><speed>1.233657</speed><course>59.466648</course><hAcc>0.880536</hAcc><vAcc>0.702229</vAcc></extensions></trkpt>
      <trkpt lon="-3.335861" lat="54.577436"><ele>141.208786</ele><time>2021-08-12T13:13:53Z</time><extensions><speed>1.213734</speed><course>56.466339</course><hAcc>0.880446</hAcc><vAcc>0.701920</vAcc></extensions></trkpt>
      <trkpt lon="-3.335878" lat="54.577432"><ele>141.266388</ele><time>2021-08-12T13:13:54Z</time><extensions><speed>1.183904</speed><course>61.082169</course><hAcc>0.880354</hAcc><vAcc>0.701622</vAcc></extensions></trkpt>
      <trkpt lon="-3.335895" lat="54.577428"><ele>141.328308</ele><time>2021-08-12T13:13:55Z</time><extensions><speed>1.142988</speed><course>63.000797</course><hAcc>0.880261</hAcc><vAcc>0.701324</vAcc></extensions></trkpt>
      <trkpt lon="-3.335911" lat="54.577424"><ele>141.393707</ele><time>2021-08-12T13:13:56Z</time><extensions><speed>1.090449</speed><course>58.373146</course><hAcc>0.880169</hAcc><vAcc>0.701014</vAcc></extensions></trkpt>
      <trkpt lon="-3.335926" lat="54.577421"><ele>141.461761</ele><time>2021-08-12T13:13:57Z</time><extensions><speed>1.026233</speed><course>59.591164</course><hAcc>0.880082</hAcc><vAcc>0.700694</vAcc></extensions></trkpt>
      <trkpt lon="-3.335941" lat="54.577418"><ele>141.531326</ele><time>2021-08-12T13:13:58Z</time><extensions><speed>0.950864</speed><course>56.078835</course><hAcc>0.880008</hAcc><vAcc>0.700378</vAcc></extensions></trkpt>
      <trkpt lon="-3.335954" lat="54.577416"><ele>141.600876</ele><time>2021-08-12T13:13:59Z</time><extensions><speed>0.865859</speed><course>61.452141</course><hAcc>0.879956</hAcc><vAcc>0.700096</vAcc></extensions></trkpt>
      <trkpt lon="-3.335967" lat="54.577414"><ele>141.668869</ele><time>2021-08-12T13:14:00Z</time><extensions><speed>0.773534</speed><course>62.349373</course><hAcc>0.879942</hAcc><vAcc>0.699881</vAcc></extensions></trkpt>
      <trkpt lon="-3.335978" lat="54.577413"><ele>141.733459</ele><time>2021-08-12T13:14:01Z</time><extensions><speed>0.676748</speed><course>67.502327</course><hAcc>0.879987</hAcc><vAcc>0.699765</vAcc></extensions></trkpt>
      <trkpt lon="-3.335987" lat="54.577412"><ele>141.792007</ele><time>2021-08-12T13:14:02Z</time><extensions><speed>0.578261</speed><course>65.148994</course><hAcc>0.880119</hAcc><vAcc>0.699784</vAcc></extensions></trkpt>
      <trkpt lon="-3.335995" lat="54.577412"><ele>141.841370</ele><time>2021-08-12T13:14:03Z</time><extensions><speed>0.480849</speed><course>61.604351</course><hAcc>0.880374</hAcc><vAcc>0.699986</vAcc></extensions></trkpt>
      <trkpt lon="-3.336002" lat="54.577411"><ele>141.878677</ele><time>2021-08-12T13:14:04Z</time><extensions><speed>0.387606</speed><course>67.356651</course><hAcc>0.880794</hAcc><vAcc>0.700433</vAcc></extensions></trkpt>
      <trkpt lon="-3.336007" lat="54.577411"><ele>141.902054</ele><time>2021-08-12T13:14:05Z</time><extensions><speed>0.301199</speed><course>56.187717</course><hAcc>0.881427</hAcc><vAcc>0.701185</vAcc></extensions></trkpt>
      <trkpt lon="-3.336012" lat="54.577411"><ele>141.910706</ele><time>2021-08-12T13:14:06Z</time><extensions><speed>0.222929</speed><course>56.273357</course><hAcc>0.882320</hAcc><vAcc>0.702295</vAcc></extensions></trkpt>
      <trkpt lon="-3.336014" lat="54.577412"><ele>141.904984</ele><time>2021-08-12T13:14:07Z</time><extensions><speed>0.153617</speed><course>59.042984</course><hAcc>0.883516</hAcc><vAcc>0.703800</vAcc></extensions></trkpt>
      <trkpt lon="-3.336016" lat="54.577412"><ele>141.886429</ele><time>2021-08-12T13:14:08Z</time><extensions><speed>0.094601</speed><course>46.754299</course><hAcc>0.885045</hAcc><vAcc>0.705714</vAcc></extensions></trkpt>
      <trkpt lon="-3.336017" lat="54.577412"><ele>141.857422</ele><time>2021-08-12T13:14:09Z</time><extensions><speed>0.048350</speed><course>46.754295</course><hAcc>0.886912</hAcc><vAcc>0.708014</vAcc></extensions></trkpt>
      <trkpt lon="-3.336017" lat="54.577413"><ele>141.820511</ele><time>2021-08-12T13:14:10Z</time><extensions><speed>0.028204</speed><course>46.754295</course><hAcc>0.889082</hAcc><vAcc>0.710628</vAcc></extensions></trkpt>
      <trkpt lon="-3.336017" lat="54.577413"><ele>141.777832</ele><time>2021-08-12T13:14:11Z</time><extensions><speed>0.045751</speed><course>46.754295</course><hAcc>0.891473</hAcc><vAcc>0.713419</vAcc></extensions></trkpt>
      <trkpt lon="-3.336016" lat="54.577413"><ele>141.731110</ele><time>2021-08-12T13:14:12Z</time><extensions><speed>0.069559</speed><course>46.754295</course><hAcc>0.893941</hAcc><vAcc>0.716188</vAcc></extensions></trkpt>
      <trkpt lon="-3.336015" lat="54.577413"><ele>141.681778</ele><time>2021-08-12T13:14:13Z</time><extensions><speed>0.091448</speed><course>46.754295</course><hAcc>0.896290</hAcc><vAcc>0.718697</vAcc></extensions></trkpt>
      <trkpt lon="-3.336014" lat="54.577412"><ele>141.630844</ele><time>2021-08-12T13:14:14Z</time><extensions><speed>0.113339</speed><course>46.754295</course><hAcc>0.898288</hAcc><vAcc>0.720715</vAcc></extensions></trkpt>
      <trkpt lon="-3.336012" lat="54.577411"><ele>141.578903</ele><time>2021-08-12T13:14:15Z</time><extensions><speed>0.138745</speed><course>46.754292</course><hAcc>0.899718</hAcc><vAcc>0.722095</vAcc></extensions></trkpt>
      <trkpt lon="-3.336011" lat="54.577410"><ele>141.526321</ele><time>2021-08-12T13:14:16Z</time><extensions><speed>0.170408</speed><course>46.754295</course><hAcc>0.900484</hAcc><vAcc>0.722877</vAcc></extensions></trkpt>
      <trkpt lon="-3.336011" lat="54.577408"><ele>141.473831</ele><time>2021-08-12T13:14:17Z</time><extensions><speed>0.209469</speed><course>86.257805</course><hAcc>0.900773</hAcc><vAcc>0.723406</vAcc></extensions></trkpt>
      <trkpt lon="-3.336010" lat="54.577406"><ele>141.422729</ele><time>2021-08-12T13:14:18Z</time><extensions><speed>0.255564</speed><course>92.864906</course><hAcc>0.901316</hAcc><vAcc>0.724508</vAcc></extensions></trkpt>
      <trkpt lon="-3.336011" lat="54.577404"><ele>141.374344</ele><time>2021-08-12T13:14:19Z</time><extensions><speed>0.307468</speed><course>94.458534</course><hAcc>0.903756</hAcc><vAcc>0.727723</vAcc></extensions></trkpt>
      <trkpt lon="-3.336012" lat="54.577401"><ele>141.329605</ele><time>2021-08-12T13:14:20Z</time><extensions><speed>0.363304</speed><course>89.165138</course><hAcc>0.911100</hAcc><vAcc>0.735578</vAcc></extensions></trkpt>
      <trkpt lon="-3.336014" lat="54.577397"><ele>141.289062</ele><time>2021-08-12T13:14:21Z</time><extensions><speed>0.420091</speed><course>98.187202</course><hAcc>0.928154</hAcc><vAcc>0.751802</vAcc></extensions></trkpt>
      <trkpt lon="-3.336016" lat="54.577394"><ele>141.252655</ele><time>2021-08-12T13:14:22Z</time><extensions><speed>0.473710</speed><course>262.094696</course><hAcc>0.961691</hAcc><vAcc>0.781294</vAcc></extensions></trkpt>
      <trkpt lon="-3.336025" lat="54.577389"><ele>141.239594</ele><time>2021-08-12T13:14:23Z</time><extensions><speed>1.047603</speed><course>74.967865</course><hAcc>0.925841</hAcc><vAcc>0.749343</vAcc></extensions></trkpt>
      <trkpt lon="-3.336039" lat="54.577383"><ele>141.224960</ele><time>2021-08-12T13:14:24Z</time><extensions><speed>1.093655</speed><course>75.133301</course><hAcc>0.906436</hAcc><vAcc>0.725705</vAcc></extensions></trkpt>
      <trkpt lon="-3.336053" lat="54.577378"><ele>141.205978</ele><time>2021-08-12T13:14:25Z</time><extensions><speed>1.140593</speed><course>66.099251</course><hAcc>0.898224</hAcc><vAcc>0.712576</vAcc></extensions></trkpt>
      <trkpt lon="-3.336068" lat="54.577372"><ele>141.181595</ele><time>2021-08-12T13:14:26Z</time><extensions><speed>1.186678</speed><course>81.237114</course><hAcc>0.895713</hAcc><vAcc>0.705814</vAcc></extensions></trkpt>
      <trkpt lon="-3.336085" lat="54.577367"><ele>141.150986</ele><time>2021-08-12T13:14:27Z</time><extensions><speed>1.230814</speed><course>80.566093</course><hAcc>0.895434</hAcc><vAcc>0.702473</vAcc></extensions></trkpt>
      <trkpt lon="-3.336102" lat="54.577362"><ele>141.113312</ele><time>2021-08-12T13:14:28Z</time><extensions><speed>1.272757</speed><course>80.566109</course><hAcc>0.895475</hAcc><vAcc>0.700687</vAcc></extensions></trkpt>
      <trkpt lon="-3.336120" lat="54.577356"><ele>141.067886</ele><time>2021-08-12T13:14:29Z</time><extensions><speed>1.313415</speed><course>80.566093</course><hAcc>0.894974</hAcc><vAcc>0.699411</vAcc></extensions></trkpt>
      <trkpt lon="-3.336138" lat="54.577351"><ele>141.014877</ele><time>2021-08-12T13:14:30Z</time><extensions><speed>1.353085</speed><course>80.566093</course><hAcc>0.893716</hAcc><vAcc>0.698157</vAcc></extensions></trkpt>
      <trkpt lon="-3.336158" lat="54.577346"><ele>140.955505</ele><time>2021-08-12T13:14:31Z</time><extensions><speed>1.391736</speed><course>80.566093</course><hAcc>0.891822</hAcc><vAcc>0.696774</vAcc></extensions></trkpt>
      <trkpt lon="-3.336178" lat="54.577341"><ele>140.891785</ele><time>2021-08-12T13:14:32Z</time><extensions><speed>1.429165</speed><course>77.344681</course><hAcc>0.889551</hAcc><vAcc>0.695299</vAcc></extensions></trkpt>
      <trkpt lon="-3.336198" lat="54.577336"><ele>140.826019</ele><time>2021-08-12T13:14:33Z</time><extensions><speed>1.464261</speed><course>77.923714</course><hAcc>0.887173</hAcc><vAcc>0.693848</vAcc></extensions></trkpt>
      <trkpt lon="-3.336219" lat="54.577331"><ele>140.760452</ele><time>2021-08-12T13:14:34Z</time><extensions><speed>1.496331</speed><course>87.073212</course><hAcc>0.884910</hAcc><vAcc>0.692554</vAcc></extensions></trkpt>
      <trkpt lon="-3.336241" lat="54.577326"><ele>140.696548</ele><time>2021-08-12T13:14:35Z</time><extensions><speed>1.525615</speed><course>79.233902</course><hAcc>0.882917</hAcc><vAcc>0.691529</vAcc></extensions></trkpt>
      <trkpt lon="-3.336263" lat="54.577321"><ele>140.635132</ele><time>2021-08-12T13:14:36Z</time><extensions><speed>1.552203</speed><course>96.572746</course><hAcc>0.881279</hAcc><vAcc>0.690844</vAcc></extensions></trkpt>
      <trkpt lon="-3.336286" lat="54.577316"><ele>140.576675</ele><time>2021-08-12T13:14:37Z</time><extensions><speed>1.576264</speed><course>86.920219</course><hAcc>0.880021</hAcc><vAcc>0.690519</vAcc></extensions></trkpt>
      <trkpt lon="-3.336309" lat="54.577311"><ele>140.521042</ele><time>2021-08-12T13:14:38Z</time><extensions><speed>1.598549</speed><course>76.786201</course><hAcc>0.879125</hAcc><vAcc>0.690534</vAcc></extensions></trkpt>
      <trkpt lon="-3.336332" lat="54.577306"><ele>140.467484</ele><time>2021-08-12T13:14:39Z</time><extensions><speed>1.619704</speed><course>77.162971</course><hAcc>0.878546</hAcc><vAcc>0.690840</vAcc></extensions></trkpt>
      <trkpt lon="-3.336356" lat="54.577301"><ele>140.414856</ele><time>2021-08-12T13:14:40Z</time><extensions><speed>1.639623</speed><course>69.604996</course><hAcc>0.878226</hAcc><vAcc>0.691376</vAcc></extensions></trkpt>
      <trkpt lon="-3.336380" lat="54.577296"><ele>140.361771</ele><time>2021-08-12T13:14:41Z</time><extensions><speed>1.657227</speed><course>76.115456</course><hAcc>0.878108</hAcc><vAcc>0.692082</vAcc></extensions></trkpt>
      <trkpt lon="-3.336404" lat="54.577291"><ele>140.306778</ele><time>2021-08-12T13:14:42Z</time><extensions><speed>1.671337</speed><course>83.646278</course><hAcc>0.878135</hAcc><vAcc>0.692905</vAcc></extensions></trkpt>
      <trkpt lon="-3.336428" lat="54.577286"><ele>140.248672</ele><time>2021-08-12T13:14:43Z</time><extensions><speed>1.681201</speed><course>76.408623</course><hAcc>0.878260</hAcc><vAcc>0.693797</vAcc></extensions></trkpt>
      <trkpt lon="-3.336453" lat="54.577281"><ele>140.186981</ele><time>2021-08-12T13:14:44Z</time><extensions><speed>1.687104</speed><course>79.439453</course><hAcc>0.878445</hAcc><vAcc>0.694719</vAcc></extensions></trkpt>
      <trkpt lon="-3.336478" lat="54.577276"><ele>140.122131</ele><time>2021-08-12T13:14:45Z</time><extensions><speed>1.689678</speed><course>75.300941</course><hAcc>0.878660</hAcc><vAcc>0.695634</vAcc></extensions></trkpt>
      <trkpt lon="-3.336502" lat="54.577271"><ele>140.054794</ele><time>2021-08-12T13:14:46Z</time><extensions><speed>1.689189</speed><course>76.126534</course><hAcc>0.878884</hAcc><vAcc>0.696514</vAcc></extensions></trkpt>
      <trkpt lon="-3.336527" lat="54.577266"><ele>139.985870</ele><time>2021-08-12T13:14:47Z</time><extensions><speed>1.686162</speed><course>75.233688</course><hAcc>0.879104</hAcc><vAcc>0.697337</vAcc></extensions></trkpt>
      <trkpt lon="-3.336552" lat="54.577261"><ele>139.916275</ele><time>2021-08-12T13:14:48Z</time><extensions><speed>1.681173</speed><course>81.891060</course><hAcc>0.879309</hAcc><vAcc>0.698089</vAcc></extensions></trkpt>
      <trkpt lon="-3.336577" lat="54.577257"><ele>139.846176</ele><time>2021-08-12T13:14:49Z</time><extensions><speed>1.674750</speed><course>78.263519</course><hAcc>0.879495</hAcc><vAcc>0.698760</vAcc></extensions></trkpt>
      <trkpt lon="-3.336601" lat="54.577252"><ele>139.775101</ele><time>2021-08-12T13:14:50Z</time><extensions><speed>1.667538</speed><course>74.907532</course><hAcc>0.879660</hAcc><vAcc>0.699348</vAcc></extensions></trkpt>
      <trkpt lon="-3.336626" lat="54.577248"><ele>139.702499</ele><time>2021-08-12T13:14:51Z</time><extensions><speed>1.659536</speed><course>84.941742</course><hAcc>0.879807</hAcc><vAcc>0.699856</vAcc></extensions></trkpt>
      <trkpt lon="-3.336650" lat="54.577243"><ele>139.628036</ele><time>2021-08-12T13:14:52Z</time><extensions><speed>1.650069</speed><course>73.584358</course><hAcc>0.879938</hAcc><vAcc>0.700293</vAcc></extensions></trkpt>
      <trkpt lon="-3.336674" lat="54.577239"><ele>139.551773</ele><time>2021-08-12T13:14:53Z</time><extensions><speed>1.638769</speed><course>96.346313</course><hAcc>0.880057</hAcc><vAcc>0.700672</vAcc></extensions></trkpt>
      <trkpt lon="-3.336699" lat="54.577234"><ele>139.473969</ele><time>2021-08-12T13:14:54Z</time><extensions><speed>1.625808</speed><course>87.208282</course><hAcc>0.880168</hAcc><vAcc>0.701015</vAcc></extensions></trkpt>
      <trkpt lon="-3.336723" lat="54.577230"><ele>139.394867</ele><time>2021-08-12T13:14:55Z</time><extensions><speed>1.611321</speed><course>71.034035</course><hAcc>0.880277</hAcc><vAcc>0.701347</vAcc></extensions></trkpt>
      <trkpt lon="-3.336746" lat="54.577226"><ele>139.314041</ele><time>2021-08-12T13:14:56Z</time><extensions><speed>1.595442</speed><course>74.315559</course><hAcc>0.880388</hAcc><vAcc>0.701694</vAcc></extensions></trkpt>
      <trkpt lon="-3.336770" lat="54.577222"><ele>139.230255</ele><time>2021-08-12T13:14:57Z</time><extensions><speed>1.578802</speed><course>82.074326</course><hAcc>0.880506</hAcc><vAcc>0.702083</vAcc></extensions></trkpt>
      <trkpt lon="-3.336793" lat="54.577219"><ele>139.142227</ele><time>2021-08-12T13:14:58Z</time><extensions><speed>1.562097</speed><course>78.798851</course><hAcc>0.880632</hAcc><vAcc>0.702530</vAcc></extensions></trkpt>
      <trkpt lon="-3.336817" lat="54.577215"><ele>139.049530</ele><time>2021-08-12T13:14:59Z</time><extensions><speed>1.546275</speed><course>71.049065</course><hAcc>0.880768</hAcc><vAcc>0.703046</vAcc></extensions></trkpt>
      <trkpt lon="-3.336840" lat="54.577212"><ele>138.952209</ele><time>2021-08-12T13:15:00Z</time><extensions><speed>1.532540</speed><course>66.417450</course><hAcc>0.880913</hAcc><vAcc>0.703623</vAcc></extensions></trkpt>
      <trkpt lon="-3.336863" lat="54.577209"><ele>138.850128</ele><time>2021-08-12T13:15:01Z</time><extensions><speed>1.521720</speed><course>67.881187</course><hAcc>0.881064</hAcc><vAcc>0.704247</vAcc></extensions></trkpt>
      <trkpt lon="-3.336886" lat="54.577205"><ele>138.742950</ele><time>2021-08-12T13:15:02Z</time><extensions><speed>1.513996</speed><course>73.946594</course><hAcc>0.881219</hAcc><vAcc>0.704893</vAcc></extensions></trkpt>
      <trkpt lon="-3.336908" lat="54.577203"><ele>138.630661</ele><time>2021-08-12T13:15:03Z</time><extensions><speed>1.509416</speed><course>66.868568</course><hAcc>0.881372</hAcc><vAcc>0.705536</vAcc></extensions></trkpt>
      <trkpt lon="-3.336931" lat="54.577200"><ele>138.513794</ele><time>2021-08-12T13:15:04Z</time><extensions><speed>1.508734</speed><course>57.370388</course><hAcc>0.881520</hAcc><vAcc>0.706153</vAcc></extensions></trkpt>
      <trkpt lon="-3.336954" lat="54.577197"><ele>138.393570</ele><time>2021-08-12T13:15:05Z</time><extensions><speed>1.512779</speed><course>72.859169</course><hAcc>0.881659</hAcc><vAcc>0.706719</vAcc></extensions></trkpt>
      <trkpt lon="-3.336977" lat="54.577195"><ele>138.271606</ele><time>2021-08-12T13:15:06Z</time><extensions><speed>1.521513</speed><course>73.476959</course><hAcc>0.881785</hAcc><vAcc>0.707213</vAcc></extensions></trkpt>
      <trkpt lon="-3.337000" lat="54.577192"><ele>138.149490</ele><time>2021-08-12T13:15:07Z</time><extensions><speed>1.533813</speed><course>70.985191</course><hAcc>0.881896</hAcc><vAcc>0.707623</vAcc></extensions></trkpt>
      <trkpt lon="-3.337024" lat="54.577190"><ele>138.028183</ele><time>2021-08-12T13:15:08Z</time><extensions><speed>1.548581</speed><course>67.094063</course><hAcc>0.881992</hAcc><vAcc>0.707942</vAcc></extensions></trkpt>
      <trkpt lon="-3.337048" lat="54.577187"><ele>137.907837</ele><time>2021-08-12T13:15:09Z</time><extensions><speed>1.564804</speed><course>63.802017</course><hAcc>0.882074</hAcc><vAcc>0.708175</vAcc></extensions></trkpt>
      <trkpt lon="-3.337072" lat="54.577185"><ele>137.788040</ele><time>2021-08-12T13:15:10Z</time><extensions><speed>1.581509</speed><course>59.738853</course><hAcc>0.882142</hAcc><vAcc>0.708340</vAcc></extensions></trkpt>
      <trkpt lon="-3.337096" lat="54.577183"><ele>137.668198</ele><time>2021-08-12T13:15:11Z</time><extensions><speed>1.598295</speed><course>64.752533</course><hAcc>0.882198</hAcc><vAcc>0.708461</vAcc></extensions></trkpt>
      <trkpt lon="-3.337120" lat="54.577181"><ele>137.547546</ele><time>2021-08-12T13:15:12Z</time><extensions><speed>1.614756</speed><course>62.678837</course><hAcc>0.882245</hAcc><vAcc>0.708564</vAcc></extensions></trkpt>
      <trkpt lon="-3.337145" lat="54.577178"><ele>137.425201</ele><time>2021-08-12T13:15:13Z</time><extensions><speed>1.630064</speed><course>67.622025</course><hAcc>0.882284</hAcc><vAcc>0.708667</vAcc></extensions></trkpt>
      <trkpt lon="-3.337170" lat="54.577176"><ele>137.300751</ele><time>2021-08-12T13:15:14Z</time><extensions><speed>1.643429</speed><course>76.998230</course><hAcc>0.882317</hAcc><vAcc>0.708781</vAcc></extensions></trkpt>
      <trkpt lon="-3.337195" lat="54.577173"><ele>137.174622</ele><time>2021-08-12T13:15:15Z</time><extensions><speed>1.653790</speed><course>71.279175</course><hAcc>0.882344</hAcc><vAcc>0.708903</vAcc></extensions></trkpt>
      <trkpt lon="-3.337221" lat="54.577171"><ele>137.047729</ele><time>2021-08-12T13:15:16Z</time><extensions><speed>1.660110</speed><course>66.215858</course><hAcc>0.882364</hAcc><vAcc>0.709025</vAcc></extensions></trkpt>
      <trkpt lon="-3.337246" lat="54.577169"><ele>136.921021</ele><time>2021-08-12T13:15:17Z</time><extensions><speed>1.662176</speed><course>65.869171</course><hAcc>0.882376</hAcc><vAcc>0.709135</vAcc></extensions></trkpt>
      <trkpt lon="-3.337271" lat="54.577166"><ele>136.795471</ele><time>2021-08-12T13:15:18Z</time><extensions><speed>1.660533</speed><course>67.480362</course><hAcc>0.882378</hAcc><vAcc>0.709214</vAcc></extensions></trkpt>
      <trkpt lon="-3.337297" lat="54.577164"><ele>136.671997</ele><time>2021-08-12T13:15:19Z</time><extensions><speed>1.656020</speed><course>62.467888</course><hAcc>0.882368</hAcc><vAcc>0.709243</vAcc></extensions></trkpt>
      <trkpt lon="-3.337322" lat="54.577162"><ele>136.551559</ele><time>2021-08-12T13:15:20Z</time><extensions><speed>1.649214</speed><course>57.403885</course><hAcc>0.882343</hAcc><vAcc>0.709202</vAcc></extensions></trkpt>
      <trkpt lon="-3.337347" lat="54.577160"><ele>136.435349</ele><time>2021-08-12T13:15:21Z</time><extensions><speed>1.640911</speed><course>56.104736</course><hAcc>0.882303</hAcc><vAcc>0.709079</vAcc></extensions></trkpt>
      <trkpt lon="-3.337372" lat="54.577158"><ele>136.324493</ele><time>2021-08-12T13:15:22Z</time><extensions><speed>1.631638</speed><course>57.135769</course><hAcc>0.882247</hAcc><vAcc>0.708866</vAcc></extensions></trkpt>
      <trkpt lon="-3.337397" lat="54.577156"><ele>136.219574</ele><time>2021-08-12T13:15:23Z</time><extensions><speed>1.621391</speed><course>59.466648</course><hAcc>0.882175</hAcc><vAcc>0.708568</vAcc></extensions></trkpt>
      <trkpt lon="-3.337422" lat="54.577154"><ele>136.120422</ele><time>2021-08-12T13:15:24Z</time><extensions><speed>1.610162</speed><course>56.466339</course><hAcc>0.882089</hAcc><vAcc>0.708194</vAcc></extensions></trkpt>
      <trkpt lon="-3.337446" lat="54.577152"><ele>136.026413</ele><time>2021-08-12T13:15:25Z</time><extensions><speed>1.597817</speed><course>61.082169</course><hAcc>0.881990</hAcc><vAcc>0.707764</vAcc></extensions></trkpt>
      <trkpt lon="-3.337471" lat="54.577150"><ele>135.936920</ele><time>2021-08-12T13:15:26Z</time><extensions><speed>1.584434</speed><course>63.000797</course><hAcc>0.881881</hAcc><vAcc>0.707300</vAcc></extensions></trkpt>
      <trkpt lon="-3.337495" lat="54.577149"><ele>135.851654</ele><time>2021-08-12T13:15:27Z</time><extensions><speed>1.570378</speed><course>58.373146</course><hAcc>0.881764</hAcc><vAcc>0.706822</vAcc></extensions></trkpt>
      <trkpt lon="-3.337519" lat="54.577147"><ele>135.770538</ele><time>2021-08-12T13:15:28Z</time><extensions><speed>1.555612</speed><course>59.591164</course><hAcc>0.881644</hAcc><vAcc>0.706348</vAcc></extensions></trkpt>
      <trkpt lon="-3.337543" lat="54.577145"><ele>135.693512</ele><time>2021-08-12T13:15:29Z</time><extensions><speed>1.540409</speed><course>56.078835</course><hAcc>0.881521</hAcc><vAcc>0.705888</vAcc></extensions></trkpt>
      <trkpt lon="-3.337566" lat="54.577144"><ele>135.620255</ele><time>2021-08-12T13:15:30Z</time><extensions><speed>1.525708</speed><course>61.452141</course><hAcc>0.881400</hAcc><vAcc>0.705448</vAcc></extensions></trkpt>
      <trkpt lon="-3.337590" lat="54.577142"><ele>135.550232</ele><time>2021-08-12T13:15:31Z</time><extensions><speed>1.512604</speed><course>62.349373</course><hAcc>0.881281</hAcc><vAcc>0.705028</vAcc></extensions></trkpt>
      <trkpt lon="-3.337613" lat="54.577139"><ele>135.482925</ele><time>2021-08-12T13:15:32Z</time><extensions><speed>1.502345</speed><course>67.502327</course><hAcc>0.881167</hAcc><vAcc>0.704628</vAcc></extensions></trkpt>
      <trkpt lon="-3.337635" lat="54.577137"><ele>135.417847</ele><time>2021-08-12T13:15:33Z</time><extensions><speed>1.495639</speed><course>65.148994</course><hAcc>0.881058</hAcc><vAcc>0.704245</vAcc></extensions></trkpt>
      <trkpt lon="-3.337658" lat="54.577134"><ele>135.354340</ele><time>2021-08-12T13:15:34Z</time><extensions><speed>1.492243</speed><course>61.604351</course><hAcc>0.880958</hAcc><vAcc>0.703880</vAcc></extensions></trkpt>
      <trkpt lon="-3.337680" lat="54.577130"><ele>135.291504</ele><time>2021-08-12T13:15:35Z</time><extensions><speed>1.492010</speed><course>67.356651</course><hAcc>0.880867</hAcc><vAcc>0.703535</vAcc></extensions></trkpt>
      <trkpt lon="-3.337702" lat="54.577126"><ele>135.228699</ele><time>2021-08-12T13:15:36Z</time><extensions><speed>1.495593</speed><course>56.187717</course><hAcc>0.880789</hAcc><vAcc>0.703216</vAcc></extensions></trkpt>
      <trkpt lon="-3.337724" lat="54.577122"><ele>135.165955</ele><time>2021-08-12T13:15:37Z</time><extensions><speed>1.503943</speed><course>56.273357</course><hAcc>0.880726</hAcc><vAcc>0.702938</vAcc></extensions></trkpt>
      <trkpt lon="-3.337746" lat="54.577117"><ele>135.103867</ele><time>2021-08-12T13:15:38Z</time><extensions><speed>1.517246</speed><course>59.042984</course><hAcc>0.880683</hAcc><vAcc>0.702718</vAcc></extensions></trkpt>
      <trkpt lon="-3.337767" lat="54.577111"><ele>135.043182</ele><time>2021-08-12T13:15:39Z</time><extensions><speed>1.534890</speed><course>46.754299</course><hAcc>0.880661</hAcc><vAcc>0.702576</vAcc></extensions></trkpt>
      <trkpt lon="-3.337788" lat="54.577105"><ele>134.984253</ele><time>2021-08-12T13:15:40Z</time><extensions><speed>1.555923</speed><course>46.754295</course><hAcc>0.880665</hAcc><vAcc>0.702534</vAcc></extensions></trkpt>
      <trkpt lon="-3.337810" lat="54.577098"><ele>134.926147</ele><time>2021-08-12T13:15:41Z</time><extensions><speed>1.579118</speed><course>46.754295</course><hAcc>0.880695</hAcc><vAcc>0.702610</vAcc></extensions></trkpt>
      <trkpt lon="-3.337831" lat="54.577090"><ele>134.866638</ele><time>2021-08-12T13:15:42Z</time><extensions><speed>1.603510</speed><course>46.754295</course><hAcc>0.880752</hAcc><vAcc>0.702818</vAcc></extensions></trkpt>
      <trkpt lon="-3.337852" lat="54.577083"><ele>134.802841</ele><time>2021-08-12T13:15:43Z</time><extensions><speed>1.627926</speed><course>46.754295</course><hAcc>0.880836</hAcc><vAcc>0.703165</vAcc></extensions></trkpt>
      <trkpt lon="-3.337873" lat="54.577075"><ele>134.732147</ele><time>2021-08-12T13:15:44Z</time><extensions><speed>1.650947</speed><course>46.754295</course><hAcc>0.880943</hAcc><vAcc>0.703639</vAcc></extensions></trkpt>
      <trkpt lon="-3.337895" lat="54.577066"><ele>134.653152</ele><time>2021-08-12T13:15:45Z</time><extensions><speed>1.671299</speed><course>46.754295</course><hAcc>0.881069</hAcc><vAcc>0.704209</vAcc></extensions></trkpt>
      <trkpt lon="-3.337916" lat="54.577058"><ele>134.565567</ele><time>2021-08-12T13:15:46Z</time><extensions><speed>1.687940</speed><course>46.754292</course><hAcc>0.881208</hAcc><vAcc>0.704833</vAcc></extensions></trkpt>
      <trkpt lon="-3.337938" lat="54.577049"><ele>134.469376</ele><time>2021-08-12T13:15:47Z</time><extensions><speed>1.699989</speed><course>46.754295</course><hAcc>0.881353</hAcc><vAcc>0.705464</vAcc></extensions></trkpt>
      <trkpt lon="-3.337959" lat="54.577041"><ele>134.365021</ele><time>2021-08-12T13:15:48Z</time><extensions><speed>1.707196</speed><course>86.257805</course><hAcc>0.881498</hAcc><vAcc>0.706065</vAcc></extensions></trkpt>
      <trkpt lon="-3.337981" lat="54.577032"><ele>134.253632</ele><time>2021-08-12T13:15:49Z</time><extensions><speed>1.710080</speed><course>92.864906</course><hAcc>0.881637</hAcc><vAcc>0.706609</vAcc></extensions></trkpt>
      <trkpt lon="-3.338003" lat="54.577024"><ele>134.136917</ele><time>2021-08-12T13:15:50Z</time><extensions><speed>1.709318</speed><course>94.458534</course><hAcc>0.881765</hAcc><vAcc>0.707086</vAcc></extensions></trkpt>
      <trkpt lon="-3.338025" lat="54.577015"><ele>134.016739</ele><time>2021-08-12T13:15:51Z</time><extensions><speed>1.705866</speed><course>89.165138</course><hAcc>0.881876</hAcc><vAcc>0.707491</vAcc></extensions></trkpt>
      <trkpt lon="-3.338047" lat="54.577007"><ele>133.895126</ele><time>2021-08-12T13:15:52Z</time><extensions><speed>1.700631</speed><course>98.187202</course><hAcc>0.881969</hAcc><vAcc>0.707822</vAcc></extensions></trkpt>
      <trkpt lon="-3.338069" lat="54.576998"><ele>133.774185</ele><time>2021-08-12T13:15:53Z</time><extensions><speed>1.694221</speed><course>262.094696</course><hAcc>0.882041</hAcc><vAcc>0.708078</vAcc></extensions></trkpt>
      <trkpt lon="-3.338092" lat="54.576991"><ele>133.656052</ele><time>2021-08-12T13:15:54Z</time><extensions><speed>1.687151</speed><course>273.339569</course><hAcc>0.882091</hAcc><vAcc>0.708257</vAcc></extensions></trkpt>
      <trkpt lon="-3.338114" lat="54.576983"><ele>133.542603</ele><time>2021-08-12T13:15:55Z</time><extensions><speed>1.679924</speed><course>270.133057</course><hAcc>0.882121</hAcc><vAcc>0.708359</vAcc></extensions></trkpt>
      <trkpt lon="-3.338136" lat="54.576975"><ele>133.435135</ele><time>2021-08-12T13:15:56Z</time><extensions><speed>1.672863</speed><course>264.401459</course><hAcc>0.882132</hAcc><vAcc>0.708384</vAcc></extensions></trkpt>
      <trkpt lon="-3.338159" lat="54.576968"><ele>133.333923</ele><time>2021-08-12T13:15:57Z</time><extensions><speed>1.666038</speed><course>271.206299</course><hAcc>0.882126</hAcc><vAcc>0.708335</vAcc></extensions></trkpt>
      <trkpt lon="-3.338182" lat="54.576961"><ele>133.238235</ele><time>2021-08-12T13:15:58Z</time><extensions><speed>1.659590</speed><course>270.479279</course><hAcc>0.882106</hAcc><vAcc>0.708217</vAcc></extensions></trkpt>
      <trkpt lon="-3.338204" lat="54.576954"><ele>133.146652</ele><time>2021-08-12T13:15:59Z</time><extensions><speed>1.653342</speed><course>270.479279</course><hAcc>0.882075</hAcc><vAcc>0.708047</vAcc></extensions></trkpt>
      <trkpt lon="-3.338227" lat="54.576947"><ele>133.057251</ele><time>2021-08-12T13:16:00Z</time><extensions><speed>1.646496</speed><course>270.479279</course><hAcc>0.882036</hAcc><vAcc>0.707844</vAcc></extensions></trkpt>
      <trkpt lon="-3.338250" lat="54.576941"><ele>132.967972</ele><time>2021-08-12T13:16:01Z</time><extensions><speed>1.638200</speed><course>92.836548</course><hAcc>0.881991</hAcc><vAcc>0.707631</vAcc></extensions></trkpt>
      <trkpt lon="-3.338273" lat="54.576935"><ele>132.877243</ele><time>2021-08-12T13:16:02Z</time><extensions><speed>1.628222</speed><course>91.847809</course><hAcc>0.881942</hAcc><vAcc>0.707425</vAcc></extensions></trkpt>
      <trkpt lon="-3.338296" lat="54.576929"><ele>132.784088</ele><time>2021-08-12T13:16:03Z</time><extensions><speed>1.616493</speed><course>96.972961</course><hAcc>0.881890</hAcc><vAcc>0.707231</vAcc></extensions></trkpt>
      <trkpt lon="-3.338318" lat="54.576923"><ele>132.687973</ele><time>2021-08-12T13:16:04Z</time><extensions><speed>1.602865</speed><course>101.432434</course><hAcc>0.881836</hAcc><vAcc>0.707048</vAcc></extensions></trkpt>
      <trkpt lon="-3.338341" lat="54.576917"><ele>132.588776</ele><time>2021-08-12T13:16:05Z</time><extensions><speed>1.587537</speed><course>89.921867</course><hAcc>0.881779</hAcc><vAcc>0.706872</vAcc></extensions></trkpt>
      <trkpt lon="-3.338364" lat="54.576912"><ele>132.486481</ele><time>2021-08-12T13:16:06Z</time><extensions><speed>1.570565</speed><course>79.468422</course><hAcc>0.881719</hAcc><vAcc>0.706694</vAcc></extensions></trkpt>
      <trkpt lon="-3.338387" lat="54.576907"><ele>132.380341</ele><time>2021-08-12T13:16:07Z</time><extensions><speed>1.551791</speed><course>79.668663</course><hAcc>0.881653</hAcc><vAcc>0.706499</vAcc></extensions></trkpt>
      <trkpt lon="-3.338409" lat="54.576903"><ele>132.268967</ele><time>2021-08-12T13:16:08Z</time><extensions><speed>1.531437</speed><course>70.198914</course><hAcc>0.881579</hAcc><vAcc>0.706276</vAcc></extensions></trkpt>
      <trkpt lon="-3.338431" lat="54.576898"><ele>132.150986</ele><time>2021-08-12T13:16:09Z</time><extensions><speed>1.510258</speed><course>85.811096</course><hAcc>0.881494</hAcc><vAcc>0.706012</vAcc></extensions></trkpt>
      <trkpt lon="-3.338453" lat="54.576894"><ele>132.025742</ele><time>2021-08-12T13:16:10Z</time><extensions><speed>1.489144</speed><course>87.515213</course><hAcc>0.881398</hAcc><vAcc>0.705699</vAcc></extensions></trkpt>
      <trkpt lon="-3.338475" lat="54.576890"><ele>131.893539</ele><time>2021-08-12T13:16:11Z</time><extensions><speed>1.469241</speed><course>86.802406</course><hAcc>0.881288</hAcc><vAcc>0.705328</vAcc></extensions></trkpt>
      <trkpt lon="-3.338497" lat="54.576886"><ele>131.755768</ele><time>2021-08-12T13:16:12Z</time><extensions><speed>1.451933</speed><course>85.424927</course><hAcc>0.881165</hAcc><vAcc>0.704891</vAcc></extensions></trkpt>
      <trkpt lon="-3.338518" lat="54.576883"><ele>131.614929</ele><time>2021-08-12T13:16:13Z</time><extensions><speed>1.438786</speed><course>88.911957</course><hAcc>0.881029</hAcc><vAcc>0.704386</vAcc></extensions></trkpt>
      <trkpt lon="-3.338540" lat="54.576880"><ele>131.474335</ele><time>2021-08-12T13:16:14Z</time><extensions><speed>1.431153</speed><course>93.027184</course><hAcc>0.880881</hAcc><vAcc>0.703815</vAcc></extensions></trkpt>
      <trkpt lon="-3.338561" lat="54.576876"><ele>131.337143</ele><time>2021-08-12T13:16:15Z</time><extensions><speed>1.429434</speed><course>90.763535</course><hAcc>0.880726</hAcc><vAcc>0.703193</vAcc></extensions></trkpt>
      <trkpt lon="-3.338583" lat="54.576873"><ele>131.206009</ele><time>2021-08-12T13:16:16Z</time><extensions><speed>1.432588</speed><course>83.392509</course><hAcc>0.880567</hAcc><vAcc>0.702537</vAcc></extensions></trkpt>
      <trkpt lon="-3.338604" lat="54.576871"><ele>131.083191</ele><time>2021-08-12T13:16:17Z</time><extensions><speed>1.438546</speed><course>57.334152</course><hAcc>0.880408</hAcc><vAcc>0.701877</vAcc></extensions></trkpt>
      <trkpt lon="-3.338626" lat="54.576868"><ele>130.970291</ele><time>2021-08-12T13:16:18Z</time><extensions><speed>1.445817</speed><course>29.254333</course><hAcc>0.880253</hAcc><vAcc>0.701239</vAcc></extensions></trkpt>
      <trkpt lon="-3.338648" lat="54.576865"><ele>130.867798</ele><time>2021-08-12T13:16:19Z</time><extensions><speed>1.453673</speed><course>29.254333</course><hAcc>0.880105</hAcc><vAcc>0.700653</vAcc></extensions></trkpt>
      <trkpt lon="-3.338670" lat="54.576863"><ele>130.775284</ele><time>2021-08-12T13:16:20Z</time><extensions><speed>1.461595</speed><course>29.254333</course><hAcc>0.879969</hAcc><vAcc>0.700138</vAcc></extensions></trkpt>
      <trkpt lon="-3.338693" lat="54.576861"><ele>130.692032</ele><time>2021-08-12T13:16:21Z</time><extensions><speed>1.467873</speed><course>29.254332</course><hAcc>0.879843</hAcc><vAcc>0.699699</vAcc></extensions></trkpt>
      <trkpt lon="-3.338715" lat="54.576858"><ele>130.617477</ele><time>2021-08-12T13:16:22Z</time><extensions><speed>1.470431</speed><course>29.254333</course><hAcc>0.879728</hAcc><vAcc>0.699328</vAcc></extensions></trkpt>
      <trkpt lon="-3.338737" lat="54.576856"><ele>130.550995</ele><time>2021-08-12T13:16:23Z</time><extensions><speed>1.468530</speed><course>29.254332</course><hAcc>0.879621</hAcc><vAcc>0.699007</vAcc></extensions></trkpt>
      <trkpt lon="-3.338760" lat="54.576854"><ele>130.491516</ele><time>2021-08-12T13:16:24Z</time><extensions><speed>1.462057</speed><course>29.254332</course><hAcc>0.879521</hAcc><vAcc>0.698709</vAcc></extensions></trkpt>
      <trkpt lon="-3.338782" lat="54.576851"><ele>130.437149</ele><time>2021-08-12T13:16:25Z</time><extensions><speed>1.450892</speed><course>29.254333</course><hAcc>0.879422</hAcc><vAcc>0.698409</vAcc></extensions></trkpt>
      <trkpt lon="-3.338804" lat="54.576849"><ele>130.385330</ele><time>2021-08-12T13:16:26Z</time><extensions><speed>1.434150</speed><course>29.254333</course><hAcc>0.879322</hAcc><vAcc>0.698086</vAcc></extensions></trkpt>
      <trkpt lon="-3.338826" lat="54.576847"><ele>130.333099</ele><time>2021-08-12T13:16:27Z</time><extensions><speed>1.410267</speed><course>29.254332</course><hAcc>0.879218</hAcc><vAcc>0.697726</vAcc></extensions></trkpt>
      <trkpt lon="-3.338847" lat="54.576845"><ele>130.277725</ele><time>2021-08-12T13:16:28Z</time><extensions><speed>1.378124</speed><course>29.254333</course><hAcc>0.879107</hAcc><vAcc>0.697327</vAcc></extensions></trkpt>
      <trkpt lon="-3.338867" lat="54.576843"><ele>130.217133</ele><time>2021-08-12T13:16:29Z</time><extensions><speed>1.337276</speed><course>29.254337</course><hAcc>0.878989</hAcc><vAcc>0.696891</vAcc></extensions></trkpt>
      <trkpt lon="-3.338887" lat="54.576841"><ele>130.150238</ele><time>2021-08-12T13:16:30Z</time><extensions><speed>1.287421</speed><course>29.254337</course><hAcc>0.878864</hAcc><vAcc>0.696427</vAcc></extensions></trkpt>
      <trkpt lon="-3.338907" lat="54.576838"><ele>130.077103</ele><time>2021-08-12T13:16:31Z</time><extensions><speed>1.229242</speed><course>29.254339</course><hAcc>0.878731</hAcc><vAcc>0.695940</vAcc></extensions></trkpt>
      <trkpt lon="-3.338925" lat="54.576836"><ele>129.999146</ele><time>2021-08-12T13:16:32Z</time><extensions><speed>1.163849</speed><course>29.254337</course><hAcc>0.878594</hAcc><vAcc>0.695435</vAcc></extensions></trkpt>
      <trkpt lon="-3.338942" lat="54.576834"><ele>129.918427</ele><time>2021-08-12T13:16:33Z</time><extensions><speed>1.091761</speed><course>29.254339</course><hAcc>0.878455</hAcc><vAcc>0.694918</vAcc></extensions></trkpt>
      <trkpt lon="-3.338958" lat="54.576832"><ele>129.836960</ele><time>2021-08-12T13:16:34Z</time><extensions><speed>1.014629</speed><course>353.139893</course><hAcc>0.878317</hAcc><vAcc>0.694395</vAcc></extensions></trkpt>
      <trkpt lon="-3.338972" lat="54.576831"><ele>129.756744</ele><time>2021-08-12T13:16:35Z</time><extensions><speed>0.935607</speed><course>-1.000000</course><hAcc>0.878186</hAcc><vAcc>0.693878</vAcc></extensions></trkpt>
      <trkpt lon="-3.338986" lat="54.576829"><ele>129.679504</ele><time>2021-08-12T13:16:36Z</time><extensions><speed>0.857742</speed><course>-1.000000</course><hAcc>0.878068</hAcc><vAcc>0.693382</vAcc></extensions></trkpt>
      <trkpt lon="-3.338998" lat="54.576827"><ele>129.606369</ele><time>2021-08-12T13:16:37Z</time><extensions><speed>0.783754</speed><course>-1.000000</course><hAcc>0.877969</hAcc><vAcc>0.692929</vAcc></extensions></trkpt>
      <trkpt lon="-3.339010" lat="54.576826"><ele>129.537735</ele><time>2021-08-12T13:16:38Z</time><extensions><speed>0.716318</speed><course>-1.000000</course><hAcc>0.877898</hAcc><vAcc>0.692558</vAcc></extensions></trkpt>
      <trkpt lon="-3.339020" lat="54.576825"><ele>129.473618</ele><time>2021-08-12T13:16:39Z</time><extensions><speed>0.657874</speed><course>-1.000000</course><hAcc>0.877862</hAcc><vAcc>0.692315</vAcc></extensions></trkpt>
      <trkpt lon="-3.339030" lat="54.576824"><ele>129.413605</ele><time>2021-08-12T13:16:40Z</time><extensions><speed>0.610951</speed><course>-1.000000</course><hAcc>0.877866</hAcc><vAcc>0.692253</vAcc></extensions></trkpt>
      <trkpt lon="-3.339039" lat="54.576823"><ele>129.357056</ele><time>2021-08-12T13:16:41Z</time><extensions><speed>0.578255</speed><course>-1.000000</course><hAcc>0.877914</hAcc><vAcc>0.692411</vAcc></extensions></trkpt>
      <trkpt lon="-3.339048" lat="54.576823"><ele>129.303177</ele><time>2021-08-12T13:16:42Z</time><extensions><speed>0.561839</speed><course>-1.000000</course><hAcc>0.878004</hAcc><vAcc>0.692803</vAcc></extensions></trkpt>
      <trkpt lon="-3.339056" lat="54.576822"><ele>129.251205</ele><time>2021-08-12T13:16:43Z</time><extensions><speed>0.562746</speed><course>-1.000000</course><hAcc>0.878133</hAcc><vAcc>0.693409</vAcc></extensions></trkpt>
      <trkpt lon="-3.339065" lat="54.576822"><ele>129.200378</ele><time>2021-08-12T13:16:44Z</time><extensions><speed>0.581039</speed><course>-1.000000</course><hAcc>0.878290</hAcc><vAcc>0.694178</vAcc></extensions></trkpt>
      <trkpt lon="-3.339075" lat="54.576821"><ele>129.149857</ele><time>2021-08-12T13:16:45Z</time><extensions><speed>0.615963</speed><course>-1.000000</course><hAcc>0.878464</hAcc><vAcc>0.695031</vAcc></extensions></trkpt>
      <trkpt lon="-3.339084" lat="54.576821"><ele>129.098740</ele><time>2021-08-12T13:16:46Z</time><extensions><speed>0.666344</speed><course>74.830536</course><hAcc>0.878642</hAcc><vAcc>0.695875</vAcc></extensions></trkpt>
      <trkpt lon="-3.339095" lat="54.576820"><ele>129.046310</ele><time>2021-08-12T13:16:47Z</time><extensions><speed>0.730235</speed><course>62.161198</course><hAcc>0.878816</hAcc><vAcc>0.696629</vAcc></extensions></trkpt>
      <trkpt lon="-3.339107" lat="54.576819"><ele>128.992157</ele><time>2021-08-12T13:16:48Z</time><extensions><speed>0.804286</speed><course>66.043793</course><hAcc>0.878981</hAcc><vAcc>0.697236</vAcc></extensions></trkpt>
      <trkpt lon="-3.339120" lat="54.576818"><ele>128.936035</ele><time>2021-08-12T13:16:49Z</time><extensions><speed>0.883985</speed><course>75.803009</course><hAcc>0.879139</hAcc><vAcc>0.697677</vAcc></extensions></trkpt>
      <trkpt lon="-3.339134" lat="54.576817"><ele>128.877701</ele><time>2021-08-12T13:16:50Z</time><extensions><speed>0.965415</speed><course>76.191063</course><hAcc>0.879304</hAcc><vAcc>0.697966</vAcc></extensions></trkpt>
      <trkpt lon="-3.339149" lat="54.576815"><ele>128.817017</ele><time>2021-08-12T13:16:51Z</time><extensions><speed>1.045683</speed><course>76.349960</course><hAcc>0.879496</hAcc><vAcc>0.698146</vAcc></extensions></trkpt>
      <trkpt lon="-3.339165" lat="54.576813"><ele>128.754044</ele><time>2021-08-12T13:16:52Z</time><extensions><speed>1.121903</speed><course>78.477806</course><hAcc>0.879748</hAcc><vAcc>0.698278</vAcc></extensions></trkpt>
      <trkpt lon="-3.339183" lat="54.576810"><ele>128.689270</ele><time>2021-08-12T13:16:53Z</time><extensions><speed>1.192437</speed><course>75.070290</course><hAcc>0.880101</hAcc><vAcc>0.698441</vAcc></extensions></trkpt>
      <trkpt lon="-3.339201" lat="54.576808"><ele>128.622910</ele><time>2021-08-12T13:16:54Z</time><extensions><speed>1.256745</speed><course>69.086029</course><hAcc>0.880601</hAcc><vAcc>0.698707</vAcc></extensions></trkpt>
      <trkpt lon="-3.339220" lat="54.576805"><ele>128.554367</ele><time>2021-08-12T13:16:55Z</time><extensions><speed>1.315051</speed><course>68.949226</course><hAcc>0.881298</hAcc><vAcc>0.699132</vAcc></extensions></trkpt>
      <trkpt lon="-3.339240" lat="54.576801"><ele>128.482880</ele><time>2021-08-12T13:16:56Z</time><extensions><speed>1.368310</speed><course>71.686111</course><hAcc>0.882237</hAcc><vAcc>0.699742</vAcc></extensions></trkpt>
      <trkpt lon="-3.339261" lat="54.576798"><ele>128.408295</ele><time>2021-08-12T13:16:57Z</time><extensions><speed>1.417232</speed><course>76.597496</course><hAcc>0.883453</hAcc><vAcc>0.700534</vAcc></extensions></trkpt>
      <trkpt lon="-3.339282" lat="54.576794"><ele>128.330933</ele><time>2021-08-12T13:16:58Z</time><extensions><speed>1.462295</speed><course>90.005066</course><hAcc>0.884957</hAcc><vAcc>0.701476</vAcc></extensions></trkpt>
      <trkpt lon="-3.339304" lat="54.576790"><ele>128.251389</ele><time>2021-08-12T13:16:59Z</time><extensions><speed>1.503655</speed><course>83.948074</course><hAcc>0.886726</hAcc><vAcc>0.702503</vAcc></extensions></trkpt>
      <trkpt lon="-3.339327" lat="54.576786"><ele>128.170334</ele><time>2021-08-12T13:17:00Z</time><extensions><speed>1.541429</speed><course>76.996796</course><hAcc>0.888693</hAcc><vAcc>0.703527</vAcc></extensions></trkpt>
      <trkpt lon="-3.339350" lat="54.576782"><ele>128.088303</ele><time>2021-08-12T13:17:01Z</time><extensions><speed>1.574916</speed><course>79.507355</course><hAcc>0.890734</hAcc><vAcc>0.704439</vAcc></extensions></trkpt>
      <trkpt lon="-3.339373" lat="54.576778"><ele>128.005600</ele><time>2021-08-12T13:17:02Z</time><extensions><speed>1.603392</speed><course>72.096832</course><hAcc>0.892673</hAcc><vAcc>0.705119</vAcc></extensions></trkpt>
      <trkpt lon="-3.339397" lat="54.576774"><ele>127.921776</ele><time>2021-08-12T13:17:03Z</time><extensions><speed>1.626626</speed><course>80.368279</course><hAcc>0.894302</hAcc><vAcc>0.705465</vAcc></extensions></trkpt>
      <trkpt lon="-3.339422" lat="54.576770"><ele>127.835915</ele><time>2021-08-12T13:17:04Z</time><extensions><speed>1.644384</speed><course>78.982643</course><hAcc>0.895427</hAcc><vAcc>0.705440</vAcc></extensions></trkpt>
      <trkpt lon="-3.339446" lat="54.576765"><ele>127.747047</ele><time>2021-08-12T13:17:05Z</time><extensions><speed>1.657039</speed><course>81.075706</course><hAcc>0.895975</hAcc><vAcc>0.705171</vAcc></extensions></trkpt>
      <trkpt lon="-3.339471" lat="54.576761"><ele>127.654305</ele><time>2021-08-12T13:17:06Z</time><extensions><speed>1.665737</speed><course>81.007790</course><hAcc>0.896155</hAcc><vAcc>0.705083</vAcc></extensions></trkpt>
      <trkpt lon="-3.339496" lat="54.576758"><ele>127.557289</ele><time>2021-08-12T13:17:07Z</time><extensions><speed>1.671742</speed><course>78.272133</course><hAcc>0.896722</hAcc><vAcc>0.706100</vAcc></extensions></trkpt>
      <trkpt lon="-3.339521" lat="54.576754"><ele>127.456345</ele><time>2021-08-12T13:17:08Z</time><extensions><speed>1.675708</speed><course>73.069588</course><hAcc>0.899343</hAcc><vAcc>0.709896</vAcc></extensions></trkpt>
      <trkpt lon="-3.339546" lat="54.576750"><ele>127.352150</ele><time>2021-08-12T13:17:09Z</time><extensions><speed>1.677999</speed><course>77.189682</course><hAcc>0.907050</hAcc><vAcc>0.719158</vAcc></extensions></trkpt>
      <trkpt lon="-3.339571" lat="54.576747"><ele>127.245522</ele><time>2021-08-12T13:17:10Z</time><extensions><speed>1.678408</speed><course>75.197517</course><hAcc>0.924670</hAcc><vAcc>0.737732</vAcc></extensions></trkpt>
      <trkpt lon="-3.339597" lat="54.576744"><ele>127.136627</ele><time>2021-08-12T13:17:12Z</time><extensions><speed>1.677044</speed><course>67.733307</course><hAcc>0.959006</hAcc><vAcc>0.770544</vAcc></extensions></trkpt>
      <trkpt lon="-3.339623" lat="54.576744"><ele>126.931084</ele><time>2021-08-12T13:17:13Z</time><extensions><speed>1.591553</speed><course>74.967865</course><hAcc>0.921651</hAcc><vAcc>0.736576</vAcc></extensions></trkpt>
      <trkpt lon="-3.339647" lat="54.576746"><ele>126.809792</ele><time>2021-08-12T13:17:14Z</time><extensions><speed>1.583693</speed><course>75.133301</course><hAcc>0.903959</hAcc><vAcc>0.719287</vAcc></extensions></trkpt>
      <trkpt lon="-3.339671" lat="54.576749"><ele>126.678917</ele><time>2021-08-12T13:17:15Z</time><extensions><speed>1.574963</speed><course>66.099251</course><hAcc>0.897206</hAcc><vAcc>0.711743</vAcc></extensions></trkpt>
      <trkpt lon="-3.339695" lat="54.576751"><ele>126.538239</ele><time>2021-08-12T13:17:16Z</time><extensions><speed>1.565511</speed><course>81.237114</course><hAcc>0.895864</hAcc><vAcc>0.709596</vAcc></extensions></trkpt>
      <trkpt lon="-3.339719" lat="54.576754"><ele>126.388878</ele><time>2021-08-12T13:17:17Z</time><extensions><speed>1.555912</speed><course>80.566093</course><hAcc>0.896467</hAcc><vAcc>0.709832</vAcc></extensions></trkpt>
      <trkpt lon="-3.339742" lat="54.576758"><ele>126.232590</ele><time>2021-08-12T13:17:17Z</time><extensions><speed>1.546737</speed><course>80.566109</course><hAcc>0.897152</hAcc><vAcc>0.710601</vAcc></extensions></trkpt>
      <trkpt lon="-3.339765" lat="54.576761"><ele>126.070229</ele><time>2021-08-12T13:17:18Z</time><extensions><speed>1.538447</speed><course>80.566093</course><hAcc>0.897085</hAcc><vAcc>0.710890</vAcc></extensions></trkpt>
      <trkpt lon="-3.339788" lat="54.576765"><ele>125.902641</ele><time>2021-08-12T13:17:20Z</time><extensions><speed>1.531817</speed><course>80.566093</course><hAcc>0.896016</hAcc><vAcc>0.710215</vAcc></extensions></trkpt>
      <trkpt lon="-3.339811" lat="54.576769"><ele>125.731079</ele><time>2021-08-12T13:17:21Z</time><extensions><speed>1.526981</speed><course>80.566093</course><hAcc>0.894058</hAcc><vAcc>0.708458</vAcc></extensions></trkpt>
      <trkpt lon="-3.339833" lat="54.576773"><ele>125.556427</ele><time>2021-08-12T13:17:22Z</time><extensions><speed>1.523731</speed><course>77.344681</course><hAcc>0.891472</hAcc><vAcc>0.705687</vAcc></extensions></trkpt>
      <trkpt lon="-3.339856" lat="54.576777"><ele>125.380096</ele><time>2021-08-12T13:17:23Z</time><extensions><speed>1.522246</speed><course>77.923714</course><hAcc>0.888518</hAcc><vAcc>0.702026</vAcc></extensions></trkpt>
      <trkpt lon="-3.339878" lat="54.576782"><ele>125.204025</ele><time>2021-08-12T13:17:24Z</time><extensions><speed>1.522791</speed><course>87.073212</course><hAcc>0.885414</hAcc><vAcc>0.697613</vAcc></extensions></trkpt>
      <trkpt lon="-3.339900" lat="54.576786"><ele>125.030846</ele><time>2021-08-12T13:17:25Z</time><extensions><speed>1.525292</speed><course>79.233902</course><hAcc>0.882319</hAcc><vAcc>0.692567</vAcc></extensions></trkpt>
      <trkpt lon="-3.339923" lat="54.576790"><ele>124.863380</ele><time>2021-08-12T13:17:26Z</time><extensions><speed>1.529182</speed><course>96.572746</course><hAcc>0.879330</hAcc><vAcc>0.686984</vAcc></extensions></trkpt>
      <trkpt lon="-3.339945" lat="54.576795"><ele>124.704018</ele><time>2021-08-12T13:17:26Z</time><extensions><speed>1.533694</speed><course>86.920219</course><hAcc>0.876519</hAcc><vAcc>0.680966</vAcc></extensions></trkpt>
      <trkpt lon="-3.339968" lat="54.576799"><ele>124.553719</ele><time>2021-08-12T13:17:27Z</time><extensions><speed>1.538382</speed><course>76.786201</course><hAcc>0.873896</hAcc><vAcc>0.674591</vAcc></extensions></trkpt>
      <trkpt lon="-3.339990" lat="54.576804"><ele>124.412476</ele><time>2021-08-12T13:17:28Z</time><extensions><speed>1.542236</speed><course>77.162971</course><hAcc>0.871446</hAcc><vAcc>0.667958</vAcc></extensions></trkpt>
      <trkpt lon="-3.340013" lat="54.576808"><ele>124.278679</ele><time>2021-08-12T13:17:29Z</time><extensions><speed>1.543615</speed><course>69.604996</course><hAcc>0.869165</hAcc><vAcc>0.661195</vAcc></extensions></trkpt>
      <trkpt lon="-3.340035" lat="54.576812"><ele>124.150063</ele><time>2021-08-12T13:17:30Z</time><extensions><speed>1.541092</speed><course>76.115456</course><hAcc>0.867052</hAcc><vAcc>0.654455</vAcc></extensions></trkpt>
      <trkpt lon="-3.340058" lat="54.576817"><ele>124.024651</ele><time>2021-08-12T13:17:31Z</time><extensions><speed>1.533491</speed><course>83.646278</course><hAcc>0.865118</hAcc><vAcc>0.647917</vAcc></extensions></trkpt>
      <trkpt lon="-3.340080" lat="54.576822"><ele>123.901131</ele><time>2021-08-12T13:17:32Z</time><extensions><speed>1.520380</speed><course>76.408623</course><hAcc>0.863382</hAcc><vAcc>0.641789</vAcc></extensions></trkpt>
      <trkpt lon="-3.340102" lat="54.576826"><ele>123.778603</ele><time>2021-08-12T13:17:33Z</time><extensions><speed>1.502703</speed><course>79.439453</course><hAcc>0.861875</hAcc><vAcc>0.636293</vAcc></extensions></trkpt>
      <trkpt lon="-3.340123" lat="54.576832"><ele>123.656075</ele><time>2021-08-12T13:17:34Z</time><extensions><speed>1.482353</speed><course>75.300941</course><hAcc>0.860626</hAcc><vAcc>0.631631</vAcc></extensions></trkpt>
      <trkpt lon="-3.340144" lat="54.576837"><ele>123.532387</ele><time>2021-08-12T13:17:35Z</time><extensions><speed>1.461421</speed><course>76.126534</course><hAcc>0.859656</hAcc><vAcc>0.627944</vAcc></extensions></trkpt>
      <trkpt lon="-3.340164" lat="54.576843"><ele>123.406654</ele><time>2021-08-12T13:17:36Z</time><extensions><speed>1.440782</speed><course>75.233688</course><hAcc>0.858964</hAcc><vAcc>0.625275</vAcc></extensions></trkpt>
      <trkpt lon="-3.340184" lat="54.576849"><ele>123.278732</ele><time>2021-08-12T13:17:37Z</time><extensions><speed>1.420377</speed><course>81.891060</course><hAcc>0.858527</hAcc><vAcc>0.623562</vAcc></extensions></trkpt>
      <trkpt lon="-3.340203" lat="54.576855"><ele>123.149429</ele><time>2021-08-12T13:17:38Z</time><extensions><speed>1.400472</speed><course>78.263519</course><hAcc>0.858304</hAcc><vAcc>0.622665</vAcc></extensions></trkpt>
      <trkpt lon="-3.340221" lat="54.576862"><ele>123.020355</ele><time>2021-08-12T13:17:39Z</time><extensions><speed>1.381777</speed><course>74.907532</course><hAcc>0.858252</hAcc><vAcc>0.622413</vAcc></extensions></trkpt>
      <trkpt lon="-3.340238" lat="54.576869"><ele>122.893776</ele><time>2021-08-12T13:17:40Z</time><extensions><speed>1.365995</speed><course>84.941742</course><hAcc>0.858331</hAcc><vAcc>0.622640</vAcc></extensions></trkpt>
      <trkpt lon="-3.340255" lat="54.576876"><ele>122.772369</ele><time>2021-08-12T13:17:41Z</time><extensions><speed>1.355314</speed><course>73.584358</course><hAcc>0.858514</hAcc><vAcc>0.623206</vAcc></extensions></trkpt>
      <trkpt lon="-3.340270" lat="54.576884"><ele>122.658844</ele><time>2021-08-12T13:17:42Z</time><extensions><speed>1.351773</speed><course>96.346313</course><hAcc>0.858784</hAcc><vAcc>0.624009</vAcc></extensions></trkpt>
      <trkpt lon="-3.340285" lat="54.576893"><ele>122.555244</ele><time>2021-08-12T13:17:43Z</time><extensions><speed>1.357302</speed><course>87.208282</course><hAcc>0.859144</hAcc><vAcc>0.624989</vAcc></extensions></trkpt>
      <trkpt lon="-3.340300" lat="54.576902"><ele>122.462532</ele><time>2021-08-12T13:17:44Z</time><extensions><speed>1.372223</speed><course>71.034035</course><hAcc>0.859613</hAcc><vAcc>0.626133</vAcc></extensions></trkpt>
      <trkpt lon="-3.340313" lat="54.576911"><ele>122.380600</ele><time>2021-08-12T13:17:45Z</time><extensions><speed>1.395451</speed><course>74.315559</course><hAcc>0.860231</hAcc><vAcc>0.627482</vAcc></extensions></trkpt>
      <trkpt lon="-3.340327" lat="54.576921"><ele>122.308769</ele><time>2021-08-12T13:17:46Z</time><extensions><speed>1.425730</speed><course>82.074326</course><hAcc>0.861055</hAcc><vAcc>0.629114</vAcc></extensions></trkpt>
      <trkpt lon="-3.340339" lat="54.576932"><ele>122.246323</ele><time>2021-08-12T13:17:47Z</time><extensions><speed>1.461043</speed><course>78.798851</course><hAcc>0.862147</hAcc><vAcc>0.631122</vAcc></extensions></trkpt>
      <trkpt lon="-3.340352" lat="54.576943"><ele>122.192650</ele><time>2021-08-12T13:17:48Z</time><extensions><speed>1.498718</speed><course>71.049065</course><hAcc>0.863566</hAcc><vAcc>0.633572</vAcc></extensions></trkpt>
      <trkpt lon="-3.340364" lat="54.576955"><ele>122.147095</ele><time>2021-08-12T13:17:49Z</time><extensions><speed>1.535196</speed><course>66.417450</course><hAcc>0.865351</hAcc><vAcc>0.636481</vAcc></extensions></trkpt>
      <trkpt lon="-3.340376" lat="54.576967"><ele>122.108536</ele><time>2021-08-12T13:17:50Z</time><extensions><speed>1.566508</speed><course>67.881187</course><hAcc>0.867509</hAcc><vAcc>0.639795</vAcc></extensions></trkpt>
      <trkpt lon="-3.340389" lat="54.576979"><ele>122.075287</ele><time>2021-08-12T13:17:51Z</time><extensions><speed>1.589141</speed><course>73.946594</course><hAcc>0.870005</hAcc><vAcc>0.643408</vAcc></extensions></trkpt>
      <trkpt lon="-3.340401" lat="54.576991"><ele>122.045685</ele><time>2021-08-12T13:17:52Z</time><extensions><speed>1.601074</speed><course>66.868568</course><hAcc>0.872755</hAcc><vAcc>0.647177</vAcc></extensions></trkpt>
      <trkpt lon="-3.340414" lat="54.577004"><ele>122.018387</ele><time>2021-08-12T13:17:53Z</time><extensions><speed>1.602111</speed><course>57.370388</course><hAcc>0.875622</hAcc><vAcc>0.650941</vAcc></extensions></trkpt>
      <trkpt lon="-3.340426" lat="54.577016"><ele>121.992416</ele><time>2021-08-12T13:17:54Z</time><extensions><speed>1.593411</speed><course>72.859169</course><hAcc>0.878410</hAcc><vAcc>0.654534</vAcc></extensions></trkpt>
      <trkpt lon="-3.340439" lat="54.577028"><ele>121.967278</ele><time>2021-08-12T13:17:55Z</time><extensions><speed>1.576903</speed><course>73.476959</course><hAcc>0.880889</hAcc><vAcc>0.657802</vAcc></extensions></trkpt>
      <trkpt lon="-3.340452" lat="54.577040"><ele>121.942589</ele><time>2021-08-12T13:17:56Z</time><extensions><speed>1.554403</speed><course>70.985191</course><hAcc>0.882835</hAcc><vAcc>0.660647</vAcc></extensions></trkpt>
      <trkpt lon="-3.340465" lat="54.577052"><ele>121.917671</ele><time>2021-08-12T13:17:57Z</time><extensions><speed>1.527010</speed><course>67.094063</course><hAcc>0.884134</hAcc><vAcc>0.663108</vAcc></extensions></trkpt>
      <trkpt lon="-3.340478" lat="54.577063"><ele>121.892021</ele><time>2021-08-12T13:17:58Z</time><extensions><speed>1.495457</speed><course>63.802017</course><hAcc>0.884942</hAcc><vAcc>0.665481</vAcc></extensions></trkpt>
      <trkpt lon="-3.340491" lat="54.577074"><ele>121.865662</ele><time>2021-08-12T13:17:59Z</time><extensions><speed>1.460182</speed><course>59.738853</course><hAcc>0.885951</hAcc><vAcc>0.668504</vAcc></extensions></trkpt>
      <trkpt lon="-3.340504" lat="54.577085"><ele>121.838829</ele><time>2021-08-12T13:18:00Z</time><extensions><speed>1.422018</speed><course>64.752533</course><hAcc>0.888758</hAcc><vAcc>0.673616</vAcc></extensions></trkpt>
      <trkpt lon="-3.340516" lat="54.577095"><ele>121.811813</ele><time>2021-08-12T13:18:01Z</time><extensions><speed>1.382574</speed><course>62.678837</course><hAcc>0.896334</hAcc><vAcc>0.683244</vAcc></extensions></trkpt>
      <trkpt lon="-3.340529" lat="54.577105"><ele>121.785156</ele><time>2021-08-12T13:18:02Z</time><extensions><speed>1.343035</speed><course>67.622025</course><hAcc>0.913476</hAcc><vAcc>0.701020</vAcc></extensions></trkpt>
      <trkpt lon="-3.340541" lat="54.577114"><ele>121.759483</ele><time>2021-08-12T13:18:03Z</time><extensions><speed>1.305100</speed><course>76.998230</course><hAcc>0.946986</hAcc><vAcc>0.731746</vAcc></extensions></trkpt>
      <trkpt lon="-3.340551" lat="54.577118"><ele>121.710869</ele><time>2021-08-12T13:18:04Z</time><extensions><speed>0.592987</speed><course>74.967865</course><hAcc>0.912218</hAcc><vAcc>0.697221</vAcc></extensions></trkpt>
      <trkpt lon="-3.340558" lat="54.577121"><ele>121.686447</ele><time>2021-08-12T13:18:05Z</time><extensions><speed>0.541467</speed><course>75.133301</course><hAcc>0.896504</hAcc><vAcc>0.680150</vAcc></extensions></trkpt>
      <trkpt lon="-3.340564" lat="54.577124"><ele>121.667725</ele><time>2021-08-12T13:18:06Z</time><extensions><speed>0.486672</speed><course>66.099251</course><hAcc>0.891834</hAcc><vAcc>0.671338</vAcc></extensions></trkpt>
      <trkpt lon="-3.340570" lat="54.577127"><ele>121.654984</ele><time>2021-08-12T13:18:07Z</time><extensions><speed>0.431974</speed><course>81.237114</course><hAcc>0.892723</hAcc><vAcc>0.666751</vAcc></extensions></trkpt>
      <trkpt lon="-3.340575" lat="54.577129"><ele>121.648064</ele><time>2021-08-12T13:18:08Z</time><extensions><speed>0.379632</speed><course>80.566093</course><hAcc>0.895773</hAcc><vAcc>0.663841</vAcc></extensions></trkpt>
      <trkpt lon="-3.340580" lat="54.577130"><ele>121.646622</ele><time>2021-08-12T13:18:09Z</time><extensions><speed>0.331142</speed><course>80.566109</course><hAcc>0.899143</hAcc><vAcc>0.661272</vAcc></extensions></trkpt>
      <trkpt lon="-3.340584" lat="54.577132"><ele>121.650253</ele><time>2021-08-12T13:18:10Z</time><extensions><speed>0.287686</speed><course>80.566093</course><hAcc>0.901994</hAcc><vAcc>0.658519</vAcc></extensions></trkpt>
      <trkpt lon="-3.340587" lat="54.577133"><ele>121.658478</ele><time>2021-08-12T13:18:11Z</time><extensions><speed>0.249810</speed><course>80.566093</course><hAcc>0.904092</hAcc><vAcc>0.655503</vAcc></extensions></trkpt>
      <trkpt lon="-3.340590" lat="54.577134"><ele>121.670746</ele><time>2021-08-12T13:18:12Z</time><extensions><speed>0.217532</speed><course>80.566093</course><hAcc>0.905521</hAcc><vAcc>0.652355</vAcc></extensions></trkpt>
      <trkpt lon="-3.340593" lat="54.577135"><ele>121.686470</ele><time>2021-08-12T13:18:13Z</time><extensions><speed>0.190339</speed><course>77.344681</course><hAcc>0.906474</hAcc><vAcc>0.649283</vAcc></extensions></trkpt>
      <trkpt lon="-3.340596" lat="54.577136"><ele>121.705063</ele><time>2021-08-12T13:18:14Z</time><extensions><speed>0.167220</speed><course>77.923714</course><hAcc>0.907138</hAcc><vAcc>0.646503</vAcc></extensions></trkpt>
      <trkpt lon="-3.340598" lat="54.577136"><ele>121.725876</ele><time>2021-08-12T13:18:15Z</time><extensions><speed>0.147057</speed><course>87.073212</course><hAcc>0.907651</hAcc><vAcc>0.644191</vAcc></extensions></trkpt>
      <trkpt lon="-3.340600" lat="54.577137"><ele>121.748085</ele><time>2021-08-12T13:18:16Z</time><extensions><speed>0.128907</speed><course>79.233902</course><hAcc>0.908108</hAcc><vAcc>0.642452</vAcc></extensions></trkpt>
      <trkpt lon="-3.340601" lat="54.577138"><ele>121.770821</ele><time>2021-08-12T13:18:17Z</time><extensions><speed>0.112079</speed><course>96.572746</course><hAcc>0.908571</hAcc><vAcc>0.641315</vAcc></extensions></trkpt>
      <trkpt lon="-3.340603" lat="54.577138"><ele>121.793175</ele><time>2021-08-12T13:18:18Z</time><extensions><speed>0.096306</speed><course>86.920219</course><hAcc>0.909056</hAcc><vAcc>0.640771</vAcc></extensions></trkpt>
      <trkpt lon="-3.340604" lat="54.577139"><ele>121.814217</ele><time>2021-08-12T13:18:19Z</time><extensions><speed>0.081826</speed><course>76.786201</course><hAcc>0.909517</hAcc><vAcc>0.640831</vAcc></extensions></trkpt>
      <trkpt lon="-3.340605" lat="54.577139"><ele>121.833214</ele><time>2021-08-12T13:18:20Z</time><extensions><speed>0.069210</speed><course>77.162971</course><hAcc>0.909819</hAcc><vAcc>0.641546</vAcc></extensions></trkpt>
      <trkpt lon="-3.340605" lat="54.577139"><ele>121.849754</ele><time>2021-08-12T13:18:21Z</time><extensions><speed>0.058909</speed><course>69.604996</course><hAcc>0.909749</hAcc><vAcc>0.643008</vAcc></extensions></trkpt>
      <trkpt lon="-3.340606" lat="54.577140"><ele>121.863937</ele><time>2021-08-12T13:18:22Z</time><extensions><speed>0.051272</speed><course>76.115456</course><hAcc>0.909056</hAcc><vAcc>0.645318</vAcc></extensions></trkpt>
      <trkpt lon="-3.340606" lat="54.577140"><ele>121.876312</ele><time>2021-08-12T13:18:23Z</time><extensions><speed>0.046522</speed><course>83.646278</course><hAcc>0.907564</hAcc><vAcc>0.648520</vAcc></extensions></trkpt>
      <trkpt lon="-3.340606" lat="54.577141"><ele>121.887589</ele><time>2021-08-12T13:18:24Z</time><extensions><speed>0.044426</speed><course>76.408623</course><hAcc>0.905306</hAcc><vAcc>0.652550</vAcc></extensions></trkpt>
      <trkpt lon="-3.340606" lat="54.577141"><ele>121.898308</ele><time>2021-08-12T13:18:25Z</time><extensions><speed>0.044226</speed><course>79.439453</course><hAcc>0.902524</hAcc><vAcc>0.657242</vAcc></extensions></trkpt>
      <trkpt lon="-3.340605" lat="54.577141"><ele>121.908798</ele><time>2021-08-12T13:18:26Z</time><extensions><speed>0.044901</speed><course>75.300941</course><hAcc>0.899578</hAcc><vAcc>0.662359</vAcc></extensions></trkpt>
      <trkpt lon="-3.340605" lat="54.577142"><ele>121.919113</ele><time>2021-08-12T13:18:27Z</time><extensions><speed>0.045591</speed><course>76.126534</course><hAcc>0.896834</hAcc><vAcc>0.667644</vAcc></extensions></trkpt>
      <trkpt lon="-3.340604" lat="54.577142"><ele>121.928978</ele><time>2021-08-12T13:18:28Z</time><extensions><speed>0.045788</speed><course>75.233688</course><hAcc>0.894606</hAcc><vAcc>0.672834</vAcc></extensions></trkpt>
      <trkpt lon="-3.340604" lat="54.577142"><ele>121.937859</ele><time>2021-08-12T13:18:29Z</time><extensions><speed>0.045324</speed><course>81.891060</course><hAcc>0.893120</hAcc><vAcc>0.677635</vAcc></extensions></trkpt>
      <trkpt lon="-3.340604" lat="54.577143"><ele>121.944954</ele><time>2021-08-12T13:18:30Z</time><extensions><speed>0.044307</speed><course>78.263519</course><hAcc>0.892482</hAcc><vAcc>0.681732</vAcc></extensions></trkpt>
      <trkpt lon="-3.340603" lat="54.577143"><ele>121.949356</ele><time>2021-08-12T13:18:31Z</time><extensions><speed>0.043092</speed><course>74.907532</course><hAcc>0.892656</hAcc><vAcc>0.684837</vAcc></extensions></trkpt>
      <trkpt lon="-3.340603" lat="54.577143"><ele>121.950211</ele><time>2021-08-12T13:18:32Z</time><extensions><speed>0.042467</speed><course>84.941742</course><hAcc>0.893488</hAcc><vAcc>0.686747</vAcc></extensions></trkpt>
      <trkpt lon="-3.340603" lat="54.577144"><ele>121.946762</ele><time>2021-08-12T13:18:33Z</time><extensions><speed>0.043245</speed><course>73.584358</course><hAcc>0.894751</hAcc><vAcc>0.687369</vAcc></extensions></trkpt>
      <trkpt lon="-3.340603" lat="54.577144"><ele>121.938347</ele><time>2021-08-12T13:18:34Z</time><extensions><speed>0.045691</speed><course>96.346313</course><hAcc>0.896218</hAcc><vAcc>0.686753</vAcc></extensions></trkpt>
      <trkpt lon="-3.340603" lat="54.577145"><ele>121.924370</ele><time>2021-08-12T13:18:35Z</time><extensions><speed>0.049498</speed><course>87.208282</course><hAcc>0.897760</hAcc><vAcc>0.685147</vAcc></extensions></trkpt>
      <trkpt lon="-3.340604" lat="54.577145"><ele>121.904388</ele><time>2021-08-12T13:18:36Z</time><extensions><speed>0.053999</speed><course>71.034035</course><hAcc>0.899495</hAcc><vAcc>0.683092</vAcc></extensions></trkpt>
      <trkpt lon="-3.340604" lat="54.577145"><ele>121.878204</ele><time>2021-08-12T13:18:37Z</time><extensions><speed>0.058748</speed><course>74.315559</course><hAcc>0.902023</hAcc><vAcc>0.681619</vAcc></extensions></trkpt>
      <trkpt lon="-3.340605" lat="54.577146"><ele>121.845879</ele><time>2021-08-12T13:18:38Z</time><extensions><speed>0.063713</speed><course>82.074326</course><hAcc>0.906750</hAcc><vAcc>0.682553</vAcc></extensions></trkpt>
      <trkpt lon="-3.340606" lat="54.577146"><ele>121.807686</ele><time>2021-08-12T13:18:39Z</time><extensions><speed>0.068740</speed><course>78.798851</course><hAcc>0.916323</hAcc><vAcc>0.688844</vAcc></extensions></trkpt>
      <trkpt lon="-3.340607" lat="54.577147"><ele>121.764091</ele><time>2021-08-12T13:18:40Z</time><extensions><speed>0.073188</speed><course>71.049065</course><hAcc>0.935095</hAcc><vAcc>0.704745</vAcc></extensions></trkpt>
      <trkpt lon="-3.340608" lat="54.577147"><ele>121.715813</ele><time>2021-08-12T13:18:41Z</time><extensions><speed>0.076655</speed><course>66.417450</course><hAcc>0.969452</hAcc><vAcc>0.735624</vAcc></extensions></trkpt>
      <trkpt lon="-3.340609" lat="54.577147"><ele>121.663910</ele><time>2021-08-12T13:18:42Z</time><extensions><speed>0.078971</speed><course>67.881187</course><hAcc>1.027536</hAcc><vAcc>0.787234</vAcc></extensions></trkpt>
      <trkpt lon="-3.340610" lat="54.577148"><ele>121.609695</ele><time>2021-08-12T13:18:43Z</time><extensions><speed>0.080123</speed><course>73.946594</course><hAcc>1.117980</hAcc><vAcc>0.864590</vAcc></extensions></trkpt>
      <trkpt lon="-3.340611" lat="54.577148"><ele>121.554245</ele><time>2021-08-12T13:18:44Z</time><extensions><speed>0.080532</speed><course>66.868568</course><hAcc>1.247917</hAcc><vAcc>0.970981</vAcc></extensions></trkpt>
      <trkpt lon="-3.340612" lat="54.577148"><ele>121.498253</ele><time>2021-08-12T13:18:45Z</time><extensions><speed>0.080607</speed><course>57.370388</course><hAcc>1.421342</hAcc><vAcc>1.107613</vAcc></extensions></trkpt>
      <trkpt lon="-3.340613" lat="54.577149"><ele>121.442078</ele><time>2021-08-12T13:18:46Z</time><extensions><speed>0.080604</speed><course>72.859169</course><hAcc>1.638624</hAcc><vAcc>1.273780</vAcc></extensions></trkpt>
    </trkseg>
  </trk>
</gpx>